<?xml version="1.0" encoding="UTF-8"?>
<gpx version="1.1" creator="https://www.youtrack.es" xsi:schemaLocation="http://www.topografix.com/GPX/1/1 http://www.topografix.com/GPX/1/1/gpx.xsd http://www.garmin.com/xmlschemas/GpxExtensions/v3 http://www.garmin.com/xmlschemas/GpxExtensionsv3.xsd http://www.garmin.com/xmlschemas/TrackPointExtension/v1 http://www.garmin.com/xmlschemas/TrackPointExtensionv1.xsd" xmlns:gpxtpx="http://www.garmin.com/xmlschemas/TrackPointExtension/v1" xmlns:gpxx="http://www.garmin.com/xmlschemas/GpxExtensions/v3" xmlns:xsi="http://www.w3.org/2001/XMLSchema-instance">
  <metadata>
    <author>
      <name>David Alonso Garcia</name>
      <email id="davidalonsogarcia76" domain="gmail.com"/>
    </author>
    <link href="https://www.youtrack.es">
      <text>YouTrack.es</text>
    </link>
    <time>2026-05-09T02:42:24Z</time>
  </metadata>
  <trk>
    <src>https://www.youtrack.es</src>
    <link href="https://www.youtrack.es/ruta/33353-berrucedograndas">
      <text>YouTrack.es</text>
    </link>
    <trkseg>
      <trkpt lat="43.23295333" lon="-6.77127833">
        <ele>910.0</ele>
        <time>2022-06-19T05:38:52.576Z</time>
      </trkpt>
      <trkpt lat="43.23295333" lon="-6.77127833">
        <ele>910.0</ele>
        <time>2022-06-19T05:38:53.564Z</time>
      </trkpt>
      <trkpt lat="43.232975" lon="-6.77125333">
        <ele>910.0</ele>
        <time>2022-06-19T05:38:54.580Z</time>
      </trkpt>
      <trkpt lat="43.232975" lon="-6.77125333">
        <ele>910.0</ele>
        <time>2022-06-19T05:38:55.552Z</time>
      </trkpt>
      <trkpt lat="43.23299333" lon="-6.77123667">
        <ele>911.0</ele>
        <time>2022-06-19T05:38:56.563Z</time>
      </trkpt>
      <trkpt lat="43.23299333" lon="-6.77123667">
        <ele>911.0</ele>
        <time>2022-06-19T05:38:57.573Z</time>
      </trkpt>
      <trkpt lat="43.233005" lon="-6.771215">
        <ele>911.0</ele>
        <time>2022-06-19T05:38:58.581Z</time>
      </trkpt>
      <trkpt lat="43.233005" lon="-6.771215">
        <ele>911.0</ele>
        <time>2022-06-19T05:38:59.580Z</time>
      </trkpt>
      <trkpt lat="43.23301333" lon="-6.771195">
        <ele>911.0</ele>
        <time>2022-06-19T05:39:00.577Z</time>
      </trkpt>
      <trkpt lat="43.23301333" lon="-6.771195">
        <ele>911.0</ele>
        <time>2022-06-19T05:39:01.552Z</time>
      </trkpt>
      <trkpt lat="43.23302" lon="-6.77117333">
        <ele>910.0</ele>
        <time>2022-06-19T05:39:02.585Z</time>
      </trkpt>
      <trkpt lat="43.23302" lon="-6.77117333">
        <ele>910.0</ele>
        <time>2022-06-19T05:39:03.584Z</time>
      </trkpt>
      <trkpt lat="43.23303833" lon="-6.77115333">
        <ele>910.0</ele>
        <time>2022-06-19T05:39:04.587Z</time>
      </trkpt>
      <trkpt lat="43.23305333" lon="-6.77115333">
        <ele>910.0</ele>
        <time>2022-06-19T05:39:05.563Z</time>
      </trkpt>
      <trkpt lat="43.233065" lon="-6.77116333">
        <ele>910.0</ele>
        <time>2022-06-19T05:39:06.579Z</time>
      </trkpt>
      <trkpt lat="43.233065" lon="-6.77116333">
        <ele>910.0</ele>
        <time>2022-06-19T05:39:07.588Z</time>
      </trkpt>
      <trkpt lat="43.23307667" lon="-6.771205">
        <ele>910.0</ele>
        <time>2022-06-19T05:39:08.580Z</time>
      </trkpt>
      <trkpt lat="43.23307667" lon="-6.77122167">
        <ele>910.0</ele>
        <time>2022-06-19T05:39:09.556Z</time>
      </trkpt>
      <trkpt lat="43.233075" lon="-6.77124">
        <ele>910.0</ele>
        <time>2022-06-19T05:39:10.572Z</time>
      </trkpt>
      <trkpt lat="43.233075" lon="-6.77124">
        <ele>910.0</ele>
        <time>2022-06-19T05:39:11.559Z</time>
      </trkpt>
      <trkpt lat="43.23306667" lon="-6.771275">
        <ele>910.0</ele>
        <time>2022-06-19T05:39:12.575Z</time>
      </trkpt>
      <trkpt lat="43.233065" lon="-6.77129333">
        <ele>910.0</ele>
        <time>2022-06-19T05:39:13.560Z</time>
      </trkpt>
      <trkpt lat="43.233065" lon="-6.77129333">
        <ele>910.0</ele>
        <time>2022-06-19T05:39:14.549Z</time>
      </trkpt>
      <trkpt lat="43.23306167" lon="-6.77132667">
        <ele>910.0</ele>
        <time>2022-06-19T05:39:15.571Z</time>
      </trkpt>
      <trkpt lat="43.23306167" lon="-6.77132667">
        <ele>910.0</ele>
        <time>2022-06-19T05:39:16.552Z</time>
      </trkpt>
      <trkpt lat="43.23306167" lon="-6.77135833">
        <ele>911.0</ele>
        <time>2022-06-19T05:39:17.567Z</time>
      </trkpt>
      <trkpt lat="43.23306167" lon="-6.77135833">
        <ele>911.0</ele>
        <time>2022-06-19T05:39:18.577Z</time>
      </trkpt>
      <trkpt lat="43.23307333" lon="-6.77138167">
        <ele>911.0</ele>
        <time>2022-06-19T05:39:19.556Z</time>
      </trkpt>
      <trkpt lat="43.23307833" lon="-6.77139167">
        <ele>911.0</ele>
        <time>2022-06-19T05:39:20.559Z</time>
      </trkpt>
      <trkpt lat="43.23307833" lon="-6.77139167">
        <ele>911.0</ele>
        <time>2022-06-19T05:39:21.578Z</time>
      </trkpt>
      <trkpt lat="43.233095" lon="-6.77140833">
        <ele>911.0</ele>
        <time>2022-06-19T05:39:22.554Z</time>
      </trkpt>
      <trkpt lat="43.233105" lon="-6.77141667">
        <ele>911.0</ele>
        <time>2022-06-19T05:39:23.558Z</time>
      </trkpt>
      <trkpt lat="43.233105" lon="-6.77141667">
        <ele>911.0</ele>
        <time>2022-06-19T05:39:24.561Z</time>
      </trkpt>
      <trkpt lat="43.23312833" lon="-6.77144">
        <ele>911.0</ele>
        <time>2022-06-19T05:39:25.571Z</time>
      </trkpt>
      <trkpt lat="43.23312833" lon="-6.77144">
        <ele>911.0</ele>
        <time>2022-06-19T05:39:26.571Z</time>
      </trkpt>
      <trkpt lat="43.23315" lon="-6.771465">
        <ele>911.0</ele>
        <time>2022-06-19T05:39:27.549Z</time>
      </trkpt>
      <trkpt lat="43.23315" lon="-6.771465">
        <ele>911.0</ele>
        <time>2022-06-19T05:39:28.562Z</time>
      </trkpt>
      <trkpt lat="43.23317" lon="-6.77149333">
        <ele>911.0</ele>
        <time>2022-06-19T05:39:29.550Z</time>
      </trkpt>
      <trkpt lat="43.23318167" lon="-6.77150667">
        <ele>911.0</ele>
        <time>2022-06-19T05:39:30.578Z</time>
      </trkpt>
      <trkpt lat="43.23318167" lon="-6.77150667">
        <ele>911.0</ele>
        <time>2022-06-19T05:39:31.556Z</time>
      </trkpt>
      <trkpt lat="43.23320167" lon="-6.77153">
        <ele>911.0</ele>
        <time>2022-06-19T05:39:32.568Z</time>
      </trkpt>
      <trkpt lat="43.23320167" lon="-6.77153">
        <ele>911.0</ele>
        <time>2022-06-19T05:39:33.577Z</time>
      </trkpt>
      <trkpt lat="43.23322667" lon="-6.77154167">
        <ele>911.0</ele>
        <time>2022-06-19T05:39:34.553Z</time>
      </trkpt>
      <trkpt lat="43.23323833" lon="-6.77154333">
        <ele>911.0</ele>
        <time>2022-06-19T05:39:35.574Z</time>
      </trkpt>
      <trkpt lat="43.23325333" lon="-6.77154833">
        <ele>911.0</ele>
        <time>2022-06-19T05:39:36.587Z</time>
      </trkpt>
      <trkpt lat="43.23325333" lon="-6.77154833">
        <ele>911.0</ele>
        <time>2022-06-19T05:39:37.582Z</time>
      </trkpt>
      <trkpt lat="43.23328167" lon="-6.77155167">
        <ele>911.0</ele>
        <time>2022-06-19T05:39:38.558Z</time>
      </trkpt>
      <trkpt lat="43.233295" lon="-6.77155667">
        <ele>911.0</ele>
        <time>2022-06-19T05:39:39.554Z</time>
      </trkpt>
      <trkpt lat="43.233295" lon="-6.77155667">
        <ele>911.0</ele>
        <time>2022-06-19T05:39:40.569Z</time>
      </trkpt>
      <trkpt lat="43.23331833" lon="-6.77157">
        <ele>911.0</ele>
        <time>2022-06-19T05:39:41.591Z</time>
      </trkpt>
      <trkpt lat="43.23333" lon="-6.77157333">
        <ele>911.0</ele>
        <time>2022-06-19T05:39:42.570Z</time>
      </trkpt>
      <trkpt lat="43.23333" lon="-6.77157333">
        <ele>911.0</ele>
        <time>2022-06-19T05:39:43.553Z</time>
      </trkpt>
      <trkpt lat="43.23336" lon="-6.77158667">
        <ele>912.0</ele>
        <time>2022-06-19T05:39:44.570Z</time>
      </trkpt>
      <trkpt lat="43.23337333" lon="-6.77159167">
        <ele>912.0</ele>
        <time>2022-06-19T05:39:45.586Z</time>
      </trkpt>
      <trkpt lat="43.23337333" lon="-6.77159167">
        <ele>912.0</ele>
        <time>2022-06-19T05:39:46.572Z</time>
      </trkpt>
      <trkpt lat="43.2334" lon="-6.77160667">
        <ele>912.0</ele>
        <time>2022-06-19T05:39:47.581Z</time>
      </trkpt>
      <trkpt lat="43.2334" lon="-6.77160667">
        <ele>912.0</ele>
        <time>2022-06-19T05:39:48.551Z</time>
      </trkpt>
      <trkpt lat="43.23342833" lon="-6.77162333">
        <ele>912.0</ele>
        <time>2022-06-19T05:39:49.582Z</time>
      </trkpt>
      <trkpt lat="43.23342833" lon="-6.77162333">
        <ele>912.0</ele>
        <time>2022-06-19T05:39:50.557Z</time>
      </trkpt>
      <trkpt lat="43.233455" lon="-6.771635">
        <ele>913.0</ele>
        <time>2022-06-19T05:39:51.583Z</time>
      </trkpt>
      <trkpt lat="43.233455" lon="-6.771635">
        <ele>913.0</ele>
        <time>2022-06-19T05:39:52.561Z</time>
      </trkpt>
      <trkpt lat="43.23348167" lon="-6.77165167">
        <ele>913.0</ele>
        <time>2022-06-19T05:39:53.581Z</time>
      </trkpt>
      <trkpt lat="43.233495" lon="-6.77165833">
        <ele>914.0</ele>
        <time>2022-06-19T05:39:54.561Z</time>
      </trkpt>
      <trkpt lat="43.233495" lon="-6.77165833">
        <ele>914.0</ele>
        <time>2022-06-19T05:39:55.579Z</time>
      </trkpt>
      <trkpt lat="43.23351667" lon="-6.77167333">
        <ele>914.0</ele>
        <time>2022-06-19T05:39:56.554Z</time>
      </trkpt>
      <trkpt lat="43.23351667" lon="-6.77167333">
        <ele>914.0</ele>
        <time>2022-06-19T05:39:57.565Z</time>
      </trkpt>
      <trkpt lat="43.23354167" lon="-6.77169">
        <ele>915.0</ele>
        <time>2022-06-19T05:39:58.576Z</time>
      </trkpt>
      <trkpt lat="43.23355333" lon="-6.77170667">
        <ele>915.0</ele>
        <time>2022-06-19T05:39:59.584Z</time>
      </trkpt>
      <trkpt lat="43.23355333" lon="-6.77170667">
        <ele>915.0</ele>
        <time>2022-06-19T05:40:00.565Z</time>
      </trkpt>
      <trkpt lat="43.23354833" lon="-6.77175">
        <ele>916.0</ele>
        <time>2022-06-19T05:40:01.580Z</time>
      </trkpt>
      <trkpt lat="43.23354833" lon="-6.77175">
        <ele>916.0</ele>
        <time>2022-06-19T05:40:02.569Z</time>
      </trkpt>
      <trkpt lat="43.23353167" lon="-6.77179">
        <ele>917.0</ele>
        <time>2022-06-19T05:40:03.569Z</time>
      </trkpt>
      <trkpt lat="43.23353167" lon="-6.77179">
        <ele>917.0</ele>
        <time>2022-06-19T05:40:04.573Z</time>
      </trkpt>
      <trkpt lat="43.23352" lon="-6.77183">
        <ele>917.0</ele>
        <time>2022-06-19T05:40:05.583Z</time>
      </trkpt>
      <trkpt lat="43.23351833" lon="-6.77185">
        <ele>917.0</ele>
        <time>2022-06-19T05:40:06.580Z</time>
      </trkpt>
      <trkpt lat="43.23351833" lon="-6.77185">
        <ele>917.0</ele>
        <time>2022-06-19T05:40:07.558Z</time>
      </trkpt>
      <trkpt lat="43.23350667" lon="-6.77189">
        <ele>917.0</ele>
        <time>2022-06-19T05:40:08.568Z</time>
      </trkpt>
      <trkpt lat="43.23350667" lon="-6.77189">
        <ele>917.0</ele>
        <time>2022-06-19T05:40:09.578Z</time>
      </trkpt>
      <trkpt lat="43.23349167" lon="-6.77192333">
        <ele>918.0</ele>
        <time>2022-06-19T05:40:10.560Z</time>
      </trkpt>
      <trkpt lat="43.23349167" lon="-6.77192333">
        <ele>918.0</ele>
        <time>2022-06-19T05:40:11.586Z</time>
      </trkpt>
      <trkpt lat="43.23348" lon="-6.77195333">
        <ele>918.0</ele>
        <time>2022-06-19T05:40:12.555Z</time>
      </trkpt>
      <trkpt lat="43.23348" lon="-6.77195333">
        <ele>918.0</ele>
        <time>2022-06-19T05:40:13.579Z</time>
      </trkpt>
      <trkpt lat="43.233465" lon="-6.77198667">
        <ele>918.0</ele>
        <time>2022-06-19T05:40:14.555Z</time>
      </trkpt>
      <trkpt lat="43.23345667" lon="-6.772005">
        <ele>918.0</ele>
        <time>2022-06-19T05:40:15.569Z</time>
      </trkpt>
      <trkpt lat="43.23345667" lon="-6.772005">
        <ele>918.0</ele>
        <time>2022-06-19T05:40:16.580Z</time>
      </trkpt>
      <trkpt lat="43.23345333" lon="-6.77204667">
        <ele>919.0</ele>
        <time>2022-06-19T05:40:17.557Z</time>
      </trkpt>
      <trkpt lat="43.23345667" lon="-6.77206833">
        <ele>919.0</ele>
        <time>2022-06-19T05:40:18.588Z</time>
      </trkpt>
      <trkpt lat="43.23345667" lon="-6.77206833">
        <ele>919.0</ele>
        <time>2022-06-19T05:40:19.561Z</time>
      </trkpt>
      <trkpt lat="43.23346333" lon="-6.77211833">
        <ele>919.0</ele>
        <time>2022-06-19T05:40:20.585Z</time>
      </trkpt>
      <trkpt lat="43.23346333" lon="-6.77211833">
        <ele>919.0</ele>
        <time>2022-06-19T05:40:21.562Z</time>
      </trkpt>
      <trkpt lat="43.23346667" lon="-6.772165">
        <ele>919.0</ele>
        <time>2022-06-19T05:40:22.582Z</time>
      </trkpt>
      <trkpt lat="43.23346667" lon="-6.772165">
        <ele>919.0</ele>
        <time>2022-06-19T05:40:23.587Z</time>
      </trkpt>
      <trkpt lat="43.23347" lon="-6.77221">
        <ele>919.0</ele>
        <time>2022-06-19T05:40:24.563Z</time>
      </trkpt>
      <trkpt lat="43.23347" lon="-6.77221">
        <ele>919.0</ele>
        <time>2022-06-19T05:40:25.574Z</time>
      </trkpt>
      <trkpt lat="43.23347333" lon="-6.77225333">
        <ele>919.0</ele>
        <time>2022-06-19T05:40:26.584Z</time>
      </trkpt>
      <trkpt lat="43.23347333" lon="-6.77225333">
        <ele>919.0</ele>
        <time>2022-06-19T05:40:27.561Z</time>
      </trkpt>
      <trkpt lat="43.233485" lon="-6.77229333">
        <ele>920.0</ele>
        <time>2022-06-19T05:40:28.574Z</time>
      </trkpt>
      <trkpt lat="43.233485" lon="-6.77229333">
        <ele>920.0</ele>
        <time>2022-06-19T05:40:29.549Z</time>
      </trkpt>
      <trkpt lat="43.233495" lon="-6.772335">
        <ele>920.0</ele>
        <time>2022-06-19T05:40:30.578Z</time>
      </trkpt>
      <trkpt lat="43.233495" lon="-6.772335">
        <ele>920.0</ele>
        <time>2022-06-19T05:40:31.572Z</time>
      </trkpt>
      <trkpt lat="43.23350167" lon="-6.772375">
        <ele>920.0</ele>
        <time>2022-06-19T05:40:32.549Z</time>
      </trkpt>
      <trkpt lat="43.233505" lon="-6.77239333">
        <ele>920.0</ele>
        <time>2022-06-19T05:40:33.565Z</time>
      </trkpt>
      <trkpt lat="43.233505" lon="-6.77239333">
        <ele>920.0</ele>
        <time>2022-06-19T05:40:34.576Z</time>
      </trkpt>
      <trkpt lat="43.23351333" lon="-6.77243">
        <ele>920.0</ele>
        <time>2022-06-19T05:40:35.589Z</time>
      </trkpt>
      <trkpt lat="43.23351833" lon="-6.772445">
        <ele>921.0</ele>
        <time>2022-06-19T05:40:36.559Z</time>
      </trkpt>
      <trkpt lat="43.23351833" lon="-6.772445">
        <ele>921.0</ele>
        <time>2022-06-19T05:40:37.568Z</time>
      </trkpt>
      <trkpt lat="43.23352333" lon="-6.77248">
        <ele>921.0</ele>
        <time>2022-06-19T05:40:38.578Z</time>
      </trkpt>
      <trkpt lat="43.23352333" lon="-6.77248">
        <ele>921.0</ele>
        <time>2022-06-19T05:40:39.552Z</time>
      </trkpt>
      <trkpt lat="43.23353333" lon="-6.77251833">
        <ele>921.0</ele>
        <time>2022-06-19T05:40:40.552Z</time>
      </trkpt>
      <trkpt lat="43.23353333" lon="-6.77251833">
        <ele>921.0</ele>
        <time>2022-06-19T05:40:41.571Z</time>
      </trkpt>
      <trkpt lat="43.23354167" lon="-6.77255833">
        <ele>921.0</ele>
        <time>2022-06-19T05:40:42.580Z</time>
      </trkpt>
      <trkpt lat="43.23354167" lon="-6.77255833">
        <ele>921.0</ele>
        <time>2022-06-19T05:40:43.556Z</time>
      </trkpt>
      <trkpt lat="43.23355" lon="-6.77259833">
        <ele>921.0</ele>
        <time>2022-06-19T05:40:44.573Z</time>
      </trkpt>
      <trkpt lat="43.23355" lon="-6.77259833">
        <ele>921.0</ele>
        <time>2022-06-19T05:40:45.552Z</time>
      </trkpt>
      <trkpt lat="43.23356333" lon="-6.77263333">
        <ele>921.0</ele>
        <time>2022-06-19T05:40:46.556Z</time>
      </trkpt>
      <trkpt lat="43.23356833" lon="-6.77265167">
        <ele>921.0</ele>
        <time>2022-06-19T05:40:47.569Z</time>
      </trkpt>
      <trkpt lat="43.23356833" lon="-6.77265167">
        <ele>921.0</ele>
        <time>2022-06-19T05:40:48.579Z</time>
      </trkpt>
      <trkpt lat="43.23357833" lon="-6.77269">
        <ele>921.0</ele>
        <time>2022-06-19T05:40:49.565Z</time>
      </trkpt>
      <trkpt lat="43.23357833" lon="-6.77269">
        <ele>921.0</ele>
        <time>2022-06-19T05:40:50.583Z</time>
      </trkpt>
      <trkpt lat="43.23358833" lon="-6.77273">
        <ele>921.0</ele>
        <time>2022-06-19T05:40:51.552Z</time>
      </trkpt>
      <trkpt lat="43.23358833" lon="-6.77273">
        <ele>921.0</ele>
        <time>2022-06-19T05:40:52.552Z</time>
      </trkpt>
      <trkpt lat="43.23359667" lon="-6.77277">
        <ele>922.0</ele>
        <time>2022-06-19T05:40:53.568Z</time>
      </trkpt>
      <trkpt lat="43.23360167" lon="-6.77279">
        <ele>922.0</ele>
        <time>2022-06-19T05:40:54.584Z</time>
      </trkpt>
      <trkpt lat="43.23360167" lon="-6.77279">
        <ele>922.0</ele>
        <time>2022-06-19T05:40:55.557Z</time>
      </trkpt>
      <trkpt lat="43.23361333" lon="-6.772825">
        <ele>922.0</ele>
        <time>2022-06-19T05:40:56.568Z</time>
      </trkpt>
      <trkpt lat="43.23361333" lon="-6.772825">
        <ele>922.0</ele>
        <time>2022-06-19T05:40:57.582Z</time>
      </trkpt>
      <trkpt lat="43.23362333" lon="-6.77286333">
        <ele>922.0</ele>
        <time>2022-06-19T05:40:58.555Z</time>
      </trkpt>
      <trkpt lat="43.23362833" lon="-6.77288167">
        <ele>922.0</ele>
        <time>2022-06-19T05:40:59.570Z</time>
      </trkpt>
      <trkpt lat="43.23363333" lon="-6.77289833">
        <ele>922.0</ele>
        <time>2022-06-19T05:41:00.548Z</time>
      </trkpt>
      <trkpt lat="43.23363333" lon="-6.77289833">
        <ele>922.0</ele>
        <time>2022-06-19T05:41:01.558Z</time>
      </trkpt>
      <trkpt lat="43.23364333" lon="-6.77292667">
        <ele>922.0</ele>
        <time>2022-06-19T05:41:02.573Z</time>
      </trkpt>
      <trkpt lat="43.23365" lon="-6.77294167">
        <ele>922.0</ele>
        <time>2022-06-19T05:41:03.585Z</time>
      </trkpt>
      <trkpt lat="43.23365" lon="-6.77294167">
        <ele>922.0</ele>
        <time>2022-06-19T05:41:04.552Z</time>
      </trkpt>
      <trkpt lat="43.23366667" lon="-6.77296833">
        <ele>922.0</ele>
        <time>2022-06-19T05:41:05.566Z</time>
      </trkpt>
      <trkpt lat="43.23366667" lon="-6.77296833">
        <ele>922.0</ele>
        <time>2022-06-19T05:41:06.573Z</time>
      </trkpt>
      <trkpt lat="43.23368667" lon="-6.77298833">
        <ele>923.0</ele>
        <time>2022-06-19T05:41:07.588Z</time>
      </trkpt>
      <trkpt lat="43.23368667" lon="-6.77298833">
        <ele>923.0</ele>
        <time>2022-06-19T05:41:08.586Z</time>
      </trkpt>
      <trkpt lat="43.23370667" lon="-6.77301167">
        <ele>923.0</ele>
        <time>2022-06-19T05:41:09.552Z</time>
      </trkpt>
      <trkpt lat="43.23371667" lon="-6.77302333">
        <ele>923.0</ele>
        <time>2022-06-19T05:41:10.573Z</time>
      </trkpt>
      <trkpt lat="43.23371667" lon="-6.77302333">
        <ele>923.0</ele>
        <time>2022-06-19T05:41:11.584Z</time>
      </trkpt>
      <trkpt lat="43.233735" lon="-6.77305167">
        <ele>923.0</ele>
        <time>2022-06-19T05:41:12.555Z</time>
      </trkpt>
      <trkpt lat="43.233735" lon="-6.77305167">
        <ele>923.0</ele>
        <time>2022-06-19T05:41:13.584Z</time>
      </trkpt>
      <trkpt lat="43.233755" lon="-6.77307667">
        <ele>923.0</ele>
        <time>2022-06-19T05:41:14.556Z</time>
      </trkpt>
      <trkpt lat="43.233755" lon="-6.77307667">
        <ele>923.0</ele>
        <time>2022-06-19T05:41:15.551Z</time>
      </trkpt>
      <trkpt lat="43.233775" lon="-6.7731">
        <ele>924.0</ele>
        <time>2022-06-19T05:41:16.568Z</time>
      </trkpt>
      <trkpt lat="43.233775" lon="-6.7731">
        <ele>924.0</ele>
        <time>2022-06-19T05:41:17.575Z</time>
      </trkpt>
      <trkpt lat="43.233795" lon="-6.77312333">
        <ele>924.0</ele>
        <time>2022-06-19T05:41:18.581Z</time>
      </trkpt>
      <trkpt lat="43.233795" lon="-6.77312333">
        <ele>924.0</ele>
        <time>2022-06-19T05:41:19.554Z</time>
      </trkpt>
      <trkpt lat="43.23381333" lon="-6.77314667">
        <ele>924.0</ele>
        <time>2022-06-19T05:41:20.565Z</time>
      </trkpt>
      <trkpt lat="43.23381333" lon="-6.77314667">
        <ele>924.0</ele>
        <time>2022-06-19T05:41:21.584Z</time>
      </trkpt>
      <trkpt lat="43.23383167" lon="-6.77317167">
        <ele>924.0</ele>
        <time>2022-06-19T05:41:22.555Z</time>
      </trkpt>
      <trkpt lat="43.23384" lon="-6.77318667">
        <ele>924.0</ele>
        <time>2022-06-19T05:41:23.569Z</time>
      </trkpt>
      <trkpt lat="43.23385" lon="-6.77319833">
        <ele>925.0</ele>
        <time>2022-06-19T05:41:24.554Z</time>
      </trkpt>
      <trkpt lat="43.23385" lon="-6.77319833">
        <ele>925.0</ele>
        <time>2022-06-19T05:41:25.560Z</time>
      </trkpt>
      <trkpt lat="43.23387167" lon="-6.77322">
        <ele>925.0</ele>
        <time>2022-06-19T05:41:26.575Z</time>
      </trkpt>
      <trkpt lat="43.23387167" lon="-6.77322">
        <ele>925.0</ele>
        <time>2022-06-19T05:41:27.551Z</time>
      </trkpt>
      <trkpt lat="43.23389667" lon="-6.77324667">
        <ele>925.0</ele>
        <time>2022-06-19T05:41:28.576Z</time>
      </trkpt>
      <trkpt lat="43.23389667" lon="-6.77324667">
        <ele>925.0</ele>
        <time>2022-06-19T05:41:29.569Z</time>
      </trkpt>
      <trkpt lat="43.233915" lon="-6.77327">
        <ele>925.0</ele>
        <time>2022-06-19T05:41:30.580Z</time>
      </trkpt>
      <trkpt lat="43.233915" lon="-6.77327">
        <ele>925.0</ele>
        <time>2022-06-19T05:41:31.575Z</time>
      </trkpt>
      <trkpt lat="43.23393167" lon="-6.77329">
        <ele>925.0</ele>
        <time>2022-06-19T05:41:32.563Z</time>
      </trkpt>
      <trkpt lat="43.23393167" lon="-6.77329">
        <ele>925.0</ele>
        <time>2022-06-19T05:41:33.567Z</time>
      </trkpt>
      <trkpt lat="43.23395167" lon="-6.77331833">
        <ele>926.0</ele>
        <time>2022-06-19T05:41:34.581Z</time>
      </trkpt>
      <trkpt lat="43.23395167" lon="-6.77331833">
        <ele>926.0</ele>
        <time>2022-06-19T05:41:35.550Z</time>
      </trkpt>
      <trkpt lat="43.23397" lon="-6.77335">
        <ele>926.0</ele>
        <time>2022-06-19T05:41:36.559Z</time>
      </trkpt>
      <trkpt lat="43.23397" lon="-6.77335">
        <ele>926.0</ele>
        <time>2022-06-19T05:41:37.577Z</time>
      </trkpt>
      <trkpt lat="43.23399" lon="-6.77338333">
        <ele>926.0</ele>
        <time>2022-06-19T05:41:38.568Z</time>
      </trkpt>
      <trkpt lat="43.23399" lon="-6.77338333">
        <ele>926.0</ele>
        <time>2022-06-19T05:41:39.572Z</time>
      </trkpt>
      <trkpt lat="43.23401" lon="-6.773415">
        <ele>926.0</ele>
        <time>2022-06-19T05:41:40.559Z</time>
      </trkpt>
      <trkpt lat="43.23401" lon="-6.773415">
        <ele>926.0</ele>
        <time>2022-06-19T05:41:41.558Z</time>
      </trkpt>
      <trkpt lat="43.23403" lon="-6.77344333">
        <ele>926.0</ele>
        <time>2022-06-19T05:41:42.583Z</time>
      </trkpt>
      <trkpt lat="43.23403" lon="-6.77344333">
        <ele>926.0</ele>
        <time>2022-06-19T05:41:43.566Z</time>
      </trkpt>
      <trkpt lat="43.23405" lon="-6.773475">
        <ele>927.0</ele>
        <time>2022-06-19T05:41:44.574Z</time>
      </trkpt>
      <trkpt lat="43.23405" lon="-6.773475">
        <ele>927.0</ele>
        <time>2022-06-19T05:41:45.580Z</time>
      </trkpt>
      <trkpt lat="43.23406833" lon="-6.77349833">
        <ele>927.0</ele>
        <time>2022-06-19T05:41:46.575Z</time>
      </trkpt>
      <trkpt lat="43.23406833" lon="-6.77349833">
        <ele>927.0</ele>
        <time>2022-06-19T05:41:47.568Z</time>
      </trkpt>
      <trkpt lat="43.23406833" lon="-6.77349833">
        <ele>927.0</ele>
        <time>2022-06-19T05:41:48.601Z</time>
      </trkpt>
      <trkpt lat="43.23409333" lon="-6.77354">
        <ele>928.0</ele>
        <time>2022-06-19T05:41:49.553Z</time>
      </trkpt>
      <trkpt lat="43.23409333" lon="-6.77354">
        <ele>928.0</ele>
        <time>2022-06-19T05:41:50.574Z</time>
      </trkpt>
      <trkpt lat="43.23410833" lon="-6.77356833">
        <ele>928.0</ele>
        <time>2022-06-19T05:41:51.575Z</time>
      </trkpt>
      <trkpt lat="43.23410833" lon="-6.77356833">
        <ele>928.0</ele>
        <time>2022-06-19T05:41:52.575Z</time>
      </trkpt>
      <trkpt lat="43.23412333" lon="-6.77359833">
        <ele>928.0</ele>
        <time>2022-06-19T05:41:53.580Z</time>
      </trkpt>
      <trkpt lat="43.23413167" lon="-6.773615">
        <ele>928.0</ele>
        <time>2022-06-19T05:41:54.552Z</time>
      </trkpt>
      <trkpt lat="43.23413167" lon="-6.773615">
        <ele>928.0</ele>
        <time>2022-06-19T05:41:55.563Z</time>
      </trkpt>
      <trkpt lat="43.23415" lon="-6.77365">
        <ele>928.0</ele>
        <time>2022-06-19T05:41:56.580Z</time>
      </trkpt>
      <trkpt lat="43.23416167" lon="-6.77366833">
        <ele>928.0</ele>
        <time>2022-06-19T05:41:57.568Z</time>
      </trkpt>
      <trkpt lat="43.23416167" lon="-6.77366833">
        <ele>928.0</ele>
        <time>2022-06-19T05:41:58.563Z</time>
      </trkpt>
      <trkpt lat="43.23418333" lon="-6.773705">
        <ele>928.0</ele>
        <time>2022-06-19T05:41:59.584Z</time>
      </trkpt>
      <trkpt lat="43.234195" lon="-6.77372">
        <ele>928.0</ele>
        <time>2022-06-19T05:42:00.560Z</time>
      </trkpt>
      <trkpt lat="43.234195" lon="-6.77372">
        <ele>928.0</ele>
        <time>2022-06-19T05:42:01.572Z</time>
      </trkpt>
      <trkpt lat="43.23421667" lon="-6.773755">
        <ele>928.0</ele>
        <time>2022-06-19T05:42:02.571Z</time>
      </trkpt>
      <trkpt lat="43.23421667" lon="-6.773755">
        <ele>928.0</ele>
        <time>2022-06-19T05:42:03.551Z</time>
      </trkpt>
      <trkpt lat="43.234235" lon="-6.77379167">
        <ele>928.0</ele>
        <time>2022-06-19T05:42:04.579Z</time>
      </trkpt>
      <trkpt lat="43.234235" lon="-6.77379167">
        <ele>928.0</ele>
        <time>2022-06-19T05:42:05.549Z</time>
      </trkpt>
      <trkpt lat="43.23425667" lon="-6.77383167">
        <ele>928.0</ele>
        <time>2022-06-19T05:42:06.567Z</time>
      </trkpt>
      <trkpt lat="43.23425667" lon="-6.77383167">
        <ele>928.0</ele>
        <time>2022-06-19T05:42:07.549Z</time>
      </trkpt>
      <trkpt lat="43.23428167" lon="-6.77387">
        <ele>928.0</ele>
        <time>2022-06-19T05:42:08.562Z</time>
      </trkpt>
      <trkpt lat="43.23428167" lon="-6.77387">
        <ele>928.0</ele>
        <time>2022-06-19T05:42:09.549Z</time>
      </trkpt>
      <trkpt lat="43.23430667" lon="-6.77390667">
        <ele>928.0</ele>
        <time>2022-06-19T05:42:10.558Z</time>
      </trkpt>
      <trkpt lat="43.23430667" lon="-6.77390667">
        <ele>928.0</ele>
        <time>2022-06-19T05:42:11.587Z</time>
      </trkpt>
      <trkpt lat="43.23432833" lon="-6.773935">
        <ele>928.0</ele>
        <time>2022-06-19T05:42:12.566Z</time>
      </trkpt>
      <trkpt lat="43.23432833" lon="-6.773935">
        <ele>928.0</ele>
        <time>2022-06-19T05:42:13.582Z</time>
      </trkpt>
      <trkpt lat="43.23435" lon="-6.77396833">
        <ele>928.0</ele>
        <time>2022-06-19T05:42:14.553Z</time>
      </trkpt>
      <trkpt lat="43.23435" lon="-6.77396833">
        <ele>928.0</ele>
        <time>2022-06-19T05:42:15.562Z</time>
      </trkpt>
      <trkpt lat="43.23437667" lon="-6.77400333">
        <ele>927.0</ele>
        <time>2022-06-19T05:42:16.587Z</time>
      </trkpt>
      <trkpt lat="43.23439167" lon="-6.77402333">
        <ele>927.0</ele>
        <time>2022-06-19T05:42:17.571Z</time>
      </trkpt>
      <trkpt lat="43.23439167" lon="-6.77402333">
        <ele>927.0</ele>
        <time>2022-06-19T05:42:18.585Z</time>
      </trkpt>
      <trkpt lat="43.23442833" lon="-6.77406667">
        <ele>927.0</ele>
        <time>2022-06-19T05:42:19.557Z</time>
      </trkpt>
      <trkpt lat="43.23442833" lon="-6.77406667">
        <ele>927.0</ele>
        <time>2022-06-19T05:42:20.576Z</time>
      </trkpt>
      <trkpt lat="43.23446667" lon="-6.77410833">
        <ele>927.0</ele>
        <time>2022-06-19T05:42:21.590Z</time>
      </trkpt>
      <trkpt lat="43.234485" lon="-6.77412833">
        <ele>928.0</ele>
        <time>2022-06-19T05:42:22.574Z</time>
      </trkpt>
      <trkpt lat="43.234485" lon="-6.77412833">
        <ele>928.0</ele>
        <time>2022-06-19T05:42:23.586Z</time>
      </trkpt>
      <trkpt lat="43.23451833" lon="-6.77417667">
        <ele>928.0</ele>
        <time>2022-06-19T05:42:24.562Z</time>
      </trkpt>
      <trkpt lat="43.23451833" lon="-6.77417667">
        <ele>928.0</ele>
        <time>2022-06-19T05:42:25.574Z</time>
      </trkpt>
      <trkpt lat="43.23454667" lon="-6.77422167">
        <ele>929.0</ele>
        <time>2022-06-19T05:42:26.548Z</time>
      </trkpt>
      <trkpt lat="43.23454667" lon="-6.77422167">
        <ele>929.0</ele>
        <time>2022-06-19T05:42:27.563Z</time>
      </trkpt>
      <trkpt lat="43.23457667" lon="-6.77426667">
        <ele>930.0</ele>
        <time>2022-06-19T05:42:28.593Z</time>
      </trkpt>
      <trkpt lat="43.23457667" lon="-6.77426667">
        <ele>930.0</ele>
        <time>2022-06-19T05:42:29.548Z</time>
      </trkpt>
      <trkpt lat="43.23461" lon="-6.77431167">
        <ele>930.0</ele>
        <time>2022-06-19T05:42:30.573Z</time>
      </trkpt>
      <trkpt lat="43.23461" lon="-6.77431167">
        <ele>930.0</ele>
        <time>2022-06-19T05:42:31.572Z</time>
      </trkpt>
      <trkpt lat="43.23464167" lon="-6.77436">
        <ele>931.0</ele>
        <time>2022-06-19T05:42:32.588Z</time>
      </trkpt>
      <trkpt lat="43.23464167" lon="-6.77436">
        <ele>931.0</ele>
        <time>2022-06-19T05:42:33.569Z</time>
      </trkpt>
      <trkpt lat="43.23466" lon="-6.77441">
        <ele>931.0</ele>
        <time>2022-06-19T05:42:34.586Z</time>
      </trkpt>
      <trkpt lat="43.23466" lon="-6.77441">
        <ele>931.0</ele>
        <time>2022-06-19T05:42:35.564Z</time>
      </trkpt>
      <trkpt lat="43.23468167" lon="-6.77446833">
        <ele>932.0</ele>
        <time>2022-06-19T05:42:36.548Z</time>
      </trkpt>
      <trkpt lat="43.23468167" lon="-6.77446833">
        <ele>932.0</ele>
        <time>2022-06-19T05:42:37.561Z</time>
      </trkpt>
      <trkpt lat="43.23471" lon="-6.77451833">
        <ele>932.0</ele>
        <time>2022-06-19T05:42:38.580Z</time>
      </trkpt>
      <trkpt lat="43.23472" lon="-6.77453833">
        <ele>933.0</ele>
        <time>2022-06-19T05:42:39.560Z</time>
      </trkpt>
      <trkpt lat="43.23472" lon="-6.77453833">
        <ele>933.0</ele>
        <time>2022-06-19T05:42:40.572Z</time>
      </trkpt>
      <trkpt lat="43.23473667" lon="-6.77456333">
        <ele>933.0</ele>
        <time>2022-06-19T05:42:41.587Z</time>
      </trkpt>
      <trkpt lat="43.23473667" lon="-6.77456333">
        <ele>933.0</ele>
        <time>2022-06-19T05:42:42.565Z</time>
      </trkpt>
      <trkpt lat="43.23478" lon="-6.77458667">
        <ele>934.0</ele>
        <time>2022-06-19T05:42:43.579Z</time>
      </trkpt>
      <trkpt lat="43.23481" lon="-6.77459667">
        <ele>934.0</ele>
        <time>2022-06-19T05:42:44.562Z</time>
      </trkpt>
      <trkpt lat="43.23484333" lon="-6.77460333">
        <ele>934.0</ele>
        <time>2022-06-19T05:42:45.548Z</time>
      </trkpt>
      <trkpt lat="43.234875" lon="-6.7746">
        <ele>935.0</ele>
        <time>2022-06-19T05:42:46.571Z</time>
      </trkpt>
      <trkpt lat="43.234875" lon="-6.7746">
        <ele>935.0</ele>
        <time>2022-06-19T05:42:47.582Z</time>
      </trkpt>
      <trkpt lat="43.23493333" lon="-6.77458833">
        <ele>936.0</ele>
        <time>2022-06-19T05:42:48.566Z</time>
      </trkpt>
      <trkpt lat="43.23493333" lon="-6.77458833">
        <ele>936.0</ele>
        <time>2022-06-19T05:42:49.549Z</time>
      </trkpt>
      <trkpt lat="43.234985" lon="-6.77456667">
        <ele>936.0</ele>
        <time>2022-06-19T05:42:50.560Z</time>
      </trkpt>
      <trkpt lat="43.234985" lon="-6.77456667">
        <ele>936.0</ele>
        <time>2022-06-19T05:42:51.579Z</time>
      </trkpt>
      <trkpt lat="43.235035" lon="-6.77454333">
        <ele>936.0</ele>
        <time>2022-06-19T05:42:52.578Z</time>
      </trkpt>
      <trkpt lat="43.235035" lon="-6.77454333">
        <ele>936.0</ele>
        <time>2022-06-19T05:42:53.553Z</time>
      </trkpt>
      <trkpt lat="43.23508167" lon="-6.77452">
        <ele>937.0</ele>
        <time>2022-06-19T05:42:54.574Z</time>
      </trkpt>
      <trkpt lat="43.23508167" lon="-6.77452">
        <ele>937.0</ele>
        <time>2022-06-19T05:42:55.584Z</time>
      </trkpt>
      <trkpt lat="43.23512833" lon="-6.77449667">
        <ele>937.0</ele>
        <time>2022-06-19T05:42:56.561Z</time>
      </trkpt>
      <trkpt lat="43.23515" lon="-6.77448167">
        <ele>937.0</ele>
        <time>2022-06-19T05:42:57.590Z</time>
      </trkpt>
      <trkpt lat="43.23515" lon="-6.77448167">
        <ele>937.0</ele>
        <time>2022-06-19T05:42:58.568Z</time>
      </trkpt>
      <trkpt lat="43.23519167" lon="-6.77446">
        <ele>937.0</ele>
        <time>2022-06-19T05:42:59.563Z</time>
      </trkpt>
      <trkpt lat="43.23521167" lon="-6.77445">
        <ele>937.0</ele>
        <time>2022-06-19T05:43:00.557Z</time>
      </trkpt>
      <trkpt lat="43.23521167" lon="-6.77445">
        <ele>937.0</ele>
        <time>2022-06-19T05:43:01.566Z</time>
      </trkpt>
      <trkpt lat="43.23525167" lon="-6.77442667">
        <ele>938.0</ele>
        <time>2022-06-19T05:43:02.573Z</time>
      </trkpt>
      <trkpt lat="43.23525167" lon="-6.77442667">
        <ele>938.0</ele>
        <time>2022-06-19T05:43:03.549Z</time>
      </trkpt>
      <trkpt lat="43.23529167" lon="-6.77440333">
        <ele>937.0</ele>
        <time>2022-06-19T05:43:04.566Z</time>
      </trkpt>
      <trkpt lat="43.23531167" lon="-6.77438833">
        <ele>937.0</ele>
        <time>2022-06-19T05:43:05.584Z</time>
      </trkpt>
      <trkpt lat="43.23533333" lon="-6.77437667">
        <ele>938.0</ele>
        <time>2022-06-19T05:43:06.560Z</time>
      </trkpt>
      <trkpt lat="43.23533333" lon="-6.77437667">
        <ele>938.0</ele>
        <time>2022-06-19T05:43:07.584Z</time>
      </trkpt>
      <trkpt lat="43.23537667" lon="-6.77435667">
        <ele>937.0</ele>
        <time>2022-06-19T05:43:08.557Z</time>
      </trkpt>
      <trkpt lat="43.23537667" lon="-6.77435667">
        <ele>937.0</ele>
        <time>2022-06-19T05:43:09.573Z</time>
      </trkpt>
      <trkpt lat="43.23542" lon="-6.77434">
        <ele>938.0</ele>
        <time>2022-06-19T05:43:10.586Z</time>
      </trkpt>
      <trkpt lat="43.23542" lon="-6.77434">
        <ele>938.0</ele>
        <time>2022-06-19T05:43:11.576Z</time>
      </trkpt>
      <trkpt lat="43.23546167" lon="-6.77433">
        <ele>938.0</ele>
        <time>2022-06-19T05:43:12.589Z</time>
      </trkpt>
      <trkpt lat="43.23546167" lon="-6.77433">
        <ele>938.0</ele>
        <time>2022-06-19T05:43:13.562Z</time>
      </trkpt>
      <trkpt lat="43.23550333" lon="-6.77432">
        <ele>938.0</ele>
        <time>2022-06-19T05:43:14.582Z</time>
      </trkpt>
      <trkpt lat="43.235525" lon="-6.774315">
        <ele>938.0</ele>
        <time>2022-06-19T05:43:15.557Z</time>
      </trkpt>
      <trkpt lat="43.23554833" lon="-6.77431167">
        <ele>938.0</ele>
        <time>2022-06-19T05:43:16.556Z</time>
      </trkpt>
      <trkpt lat="43.23554833" lon="-6.77431167">
        <ele>938.0</ele>
        <time>2022-06-19T05:43:17.567Z</time>
      </trkpt>
      <trkpt lat="43.23559333" lon="-6.774305">
        <ele>937.0</ele>
        <time>2022-06-19T05:43:18.581Z</time>
      </trkpt>
      <trkpt lat="43.23559333" lon="-6.774305">
        <ele>937.0</ele>
        <time>2022-06-19T05:43:19.578Z</time>
      </trkpt>
      <trkpt lat="43.23564333" lon="-6.77430667">
        <ele>937.0</ele>
        <time>2022-06-19T05:43:20.586Z</time>
      </trkpt>
      <trkpt lat="43.23564333" lon="-6.77430667">
        <ele>937.0</ele>
        <time>2022-06-19T05:43:21.563Z</time>
      </trkpt>
      <trkpt lat="43.235695" lon="-6.77430667">
        <ele>937.0</ele>
        <time>2022-06-19T05:43:22.579Z</time>
      </trkpt>
      <trkpt lat="43.235695" lon="-6.77430667">
        <ele>937.0</ele>
        <time>2022-06-19T05:43:23.551Z</time>
      </trkpt>
      <trkpt lat="43.23575167" lon="-6.77431167">
        <ele>937.0</ele>
        <time>2022-06-19T05:43:24.576Z</time>
      </trkpt>
      <trkpt lat="43.23575167" lon="-6.77431167">
        <ele>937.0</ele>
        <time>2022-06-19T05:43:25.552Z</time>
      </trkpt>
      <trkpt lat="43.23581167" lon="-6.77432833">
        <ele>938.0</ele>
        <time>2022-06-19T05:43:26.576Z</time>
      </trkpt>
      <trkpt lat="43.23581167" lon="-6.77432833">
        <ele>938.0</ele>
        <time>2022-06-19T05:43:27.551Z</time>
      </trkpt>
      <trkpt lat="43.23586833" lon="-6.77435333">
        <ele>938.0</ele>
        <time>2022-06-19T05:43:28.580Z</time>
      </trkpt>
      <trkpt lat="43.23586833" lon="-6.77435333">
        <ele>938.0</ele>
        <time>2022-06-19T05:43:29.552Z</time>
      </trkpt>
      <trkpt lat="43.235925" lon="-6.77439667">
        <ele>938.0</ele>
        <time>2022-06-19T05:43:30.566Z</time>
      </trkpt>
      <trkpt lat="43.23595333" lon="-6.77441833">
        <ele>938.0</ele>
        <time>2022-06-19T05:43:31.553Z</time>
      </trkpt>
      <trkpt lat="43.23598" lon="-6.77443667">
        <ele>939.0</ele>
        <time>2022-06-19T05:43:32.573Z</time>
      </trkpt>
      <trkpt lat="43.23598" lon="-6.77443667">
        <ele>939.0</ele>
        <time>2022-06-19T05:43:33.587Z</time>
      </trkpt>
      <trkpt lat="43.23603167" lon="-6.77448333">
        <ele>939.0</ele>
        <time>2022-06-19T05:43:34.560Z</time>
      </trkpt>
      <trkpt lat="43.23603167" lon="-6.77448333">
        <ele>939.0</ele>
        <time>2022-06-19T05:43:35.567Z</time>
      </trkpt>
      <trkpt lat="43.23607833" lon="-6.77453">
        <ele>939.0</ele>
        <time>2022-06-19T05:43:36.582Z</time>
      </trkpt>
      <trkpt lat="43.23607833" lon="-6.77453">
        <ele>939.0</ele>
        <time>2022-06-19T05:43:37.561Z</time>
      </trkpt>
      <trkpt lat="43.23613167" lon="-6.77459167">
        <ele>938.0</ele>
        <time>2022-06-19T05:43:38.573Z</time>
      </trkpt>
      <trkpt lat="43.23613167" lon="-6.77459167">
        <ele>938.0</ele>
        <time>2022-06-19T05:43:39.585Z</time>
      </trkpt>
      <trkpt lat="43.23618667" lon="-6.77465833">
        <ele>938.0</ele>
        <time>2022-06-19T05:43:40.556Z</time>
      </trkpt>
      <trkpt lat="43.23618667" lon="-6.77465833">
        <ele>938.0</ele>
        <time>2022-06-19T05:43:41.560Z</time>
      </trkpt>
      <trkpt lat="43.23624333" lon="-6.77473333">
        <ele>938.0</ele>
        <time>2022-06-19T05:43:42.577Z</time>
      </trkpt>
      <trkpt lat="43.23624333" lon="-6.77473333">
        <ele>938.0</ele>
        <time>2022-06-19T05:43:43.560Z</time>
      </trkpt>
      <trkpt lat="43.23629167" lon="-6.77480333">
        <ele>939.0</ele>
        <time>2022-06-19T05:43:44.587Z</time>
      </trkpt>
      <trkpt lat="43.236315" lon="-6.77483667">
        <ele>938.0</ele>
        <time>2022-06-19T05:43:45.575Z</time>
      </trkpt>
      <trkpt lat="43.236315" lon="-6.77483667">
        <ele>938.0</ele>
        <time>2022-06-19T05:43:46.551Z</time>
      </trkpt>
      <trkpt lat="43.236355" lon="-6.77489167">
        <ele>938.0</ele>
        <time>2022-06-19T05:43:47.565Z</time>
      </trkpt>
      <trkpt lat="43.236355" lon="-6.77489167">
        <ele>938.0</ele>
        <time>2022-06-19T05:43:48.578Z</time>
      </trkpt>
      <trkpt lat="43.23639333" lon="-6.77494">
        <ele>939.0</ele>
        <time>2022-06-19T05:43:49.565Z</time>
      </trkpt>
      <trkpt lat="43.23639333" lon="-6.77494">
        <ele>939.0</ele>
        <time>2022-06-19T05:43:50.552Z</time>
      </trkpt>
      <trkpt lat="43.236435" lon="-6.77498">
        <ele>939.0</ele>
        <time>2022-06-19T05:43:51.580Z</time>
      </trkpt>
      <trkpt lat="43.23645833" lon="-6.774995">
        <ele>940.0</ele>
        <time>2022-06-19T05:43:52.562Z</time>
      </trkpt>
      <trkpt lat="43.23645833" lon="-6.774995">
        <ele>940.0</ele>
        <time>2022-06-19T05:43:53.581Z</time>
      </trkpt>
      <trkpt lat="43.23651167" lon="-6.774995">
        <ele>941.0</ele>
        <time>2022-06-19T05:43:54.562Z</time>
      </trkpt>
      <trkpt lat="43.23653833" lon="-6.77498667">
        <ele>941.0</ele>
        <time>2022-06-19T05:43:55.574Z</time>
      </trkpt>
      <trkpt lat="43.23653833" lon="-6.77498667">
        <ele>941.0</ele>
        <time>2022-06-19T05:43:56.551Z</time>
      </trkpt>
      <trkpt lat="43.23658833" lon="-6.77495833">
        <ele>942.0</ele>
        <time>2022-06-19T05:43:57.577Z</time>
      </trkpt>
      <trkpt lat="43.23658833" lon="-6.77495833">
        <ele>942.0</ele>
        <time>2022-06-19T05:43:58.565Z</time>
      </trkpt>
      <trkpt lat="43.23663167" lon="-6.77491667">
        <ele>943.0</ele>
        <time>2022-06-19T05:43:59.577Z</time>
      </trkpt>
      <trkpt lat="43.23665333" lon="-6.774895">
        <ele>943.0</ele>
        <time>2022-06-19T05:44:00.569Z</time>
      </trkpt>
      <trkpt lat="43.23665333" lon="-6.774895">
        <ele>943.0</ele>
        <time>2022-06-19T05:44:01.556Z</time>
      </trkpt>
      <trkpt lat="43.23670167" lon="-6.77485">
        <ele>944.0</ele>
        <time>2022-06-19T05:44:02.579Z</time>
      </trkpt>
      <trkpt lat="43.23672167" lon="-6.77482">
        <ele>943.0</ele>
        <time>2022-06-19T05:44:03.557Z</time>
      </trkpt>
      <trkpt lat="43.23672167" lon="-6.77482">
        <ele>943.0</ele>
        <time>2022-06-19T05:44:04.568Z</time>
      </trkpt>
      <trkpt lat="43.23676333" lon="-6.77475167">
        <ele>943.0</ele>
        <time>2022-06-19T05:44:05.548Z</time>
      </trkpt>
      <trkpt lat="43.23678333" lon="-6.77471667">
        <ele>943.0</ele>
        <time>2022-06-19T05:44:06.566Z</time>
      </trkpt>
      <trkpt lat="43.23678333" lon="-6.77471667">
        <ele>943.0</ele>
        <time>2022-06-19T05:44:07.554Z</time>
      </trkpt>
      <trkpt lat="43.23682333" lon="-6.77464833">
        <ele>943.0</ele>
        <time>2022-06-19T05:44:08.572Z</time>
      </trkpt>
      <trkpt lat="43.236845" lon="-6.77461833">
        <ele>943.0</ele>
        <time>2022-06-19T05:44:09.574Z</time>
      </trkpt>
      <trkpt lat="43.236845" lon="-6.77461833">
        <ele>943.0</ele>
        <time>2022-06-19T05:44:10.582Z</time>
      </trkpt>
      <trkpt lat="43.23689167" lon="-6.77456167">
        <ele>944.0</ele>
        <time>2022-06-19T05:44:11.559Z</time>
      </trkpt>
      <trkpt lat="43.23691333" lon="-6.77452667">
        <ele>944.0</ele>
        <time>2022-06-19T05:44:12.556Z</time>
      </trkpt>
      <trkpt lat="43.23691333" lon="-6.77452667">
        <ele>944.0</ele>
        <time>2022-06-19T05:44:13.564Z</time>
      </trkpt>
      <trkpt lat="43.23695833" lon="-6.77445667">
        <ele>944.0</ele>
        <time>2022-06-19T05:44:14.550Z</time>
      </trkpt>
      <trkpt lat="43.23695833" lon="-6.77445667">
        <ele>944.0</ele>
        <time>2022-06-19T05:44:15.564Z</time>
      </trkpt>
      <trkpt lat="43.23700333" lon="-6.77439333">
        <ele>944.0</ele>
        <time>2022-06-19T05:44:16.579Z</time>
      </trkpt>
      <trkpt lat="43.23700333" lon="-6.77439333">
        <ele>944.0</ele>
        <time>2022-06-19T05:44:17.553Z</time>
      </trkpt>
      <trkpt lat="43.23706167" lon="-6.77433833">
        <ele>945.0</ele>
        <time>2022-06-19T05:44:18.587Z</time>
      </trkpt>
      <trkpt lat="43.23706167" lon="-6.77433833">
        <ele>945.0</ele>
        <time>2022-06-19T05:44:19.558Z</time>
      </trkpt>
      <trkpt lat="43.237125" lon="-6.77429667">
        <ele>946.0</ele>
        <time>2022-06-19T05:44:20.566Z</time>
      </trkpt>
      <trkpt lat="43.237125" lon="-6.77429667">
        <ele>946.0</ele>
        <time>2022-06-19T05:44:21.548Z</time>
      </trkpt>
      <trkpt lat="43.23719167" lon="-6.77426167">
        <ele>946.0</ele>
        <time>2022-06-19T05:44:22.569Z</time>
      </trkpt>
      <trkpt lat="43.23719167" lon="-6.77426167">
        <ele>946.0</ele>
        <time>2022-06-19T05:44:23.582Z</time>
      </trkpt>
      <trkpt lat="43.23725667" lon="-6.77423333">
        <ele>947.0</ele>
        <time>2022-06-19T05:44:24.551Z</time>
      </trkpt>
      <trkpt lat="43.23728667" lon="-6.77422">
        <ele>947.0</ele>
        <time>2022-06-19T05:44:25.576Z</time>
      </trkpt>
      <trkpt lat="43.23728667" lon="-6.77422">
        <ele>947.0</ele>
        <time>2022-06-19T05:44:26.584Z</time>
      </trkpt>
      <trkpt lat="43.23734833" lon="-6.77420167">
        <ele>948.0</ele>
        <time>2022-06-19T05:44:27.563Z</time>
      </trkpt>
      <trkpt lat="43.23734833" lon="-6.77420167">
        <ele>948.0</ele>
        <time>2022-06-19T05:44:28.585Z</time>
      </trkpt>
      <trkpt lat="43.23740833" lon="-6.77419833">
        <ele>948.0</ele>
        <time>2022-06-19T05:44:29.565Z</time>
      </trkpt>
      <trkpt lat="43.23743333" lon="-6.77419333">
        <ele>948.0</ele>
        <time>2022-06-19T05:44:30.584Z</time>
      </trkpt>
      <trkpt lat="43.23743333" lon="-6.77419333">
        <ele>948.0</ele>
        <time>2022-06-19T05:44:31.562Z</time>
      </trkpt>
      <trkpt lat="43.237475" lon="-6.77418">
        <ele>948.0</ele>
        <time>2022-06-19T05:44:32.579Z</time>
      </trkpt>
      <trkpt lat="43.237475" lon="-6.77418">
        <ele>948.0</ele>
        <time>2022-06-19T05:44:33.553Z</time>
      </trkpt>
      <trkpt lat="43.23750667" lon="-6.77417">
        <ele>948.0</ele>
        <time>2022-06-19T05:44:34.553Z</time>
      </trkpt>
      <trkpt lat="43.23750667" lon="-6.77417">
        <ele>948.0</ele>
        <time>2022-06-19T05:44:35.574Z</time>
      </trkpt>
      <trkpt lat="43.23753333" lon="-6.77415667">
        <ele>948.0</ele>
        <time>2022-06-19T05:44:36.584Z</time>
      </trkpt>
      <trkpt lat="43.23754333" lon="-6.77415333">
        <ele>948.0</ele>
        <time>2022-06-19T05:44:37.558Z</time>
      </trkpt>
      <trkpt lat="43.23754333" lon="-6.77415333">
        <ele>948.0</ele>
        <time>2022-06-19T05:44:38.577Z</time>
      </trkpt>
      <trkpt lat="43.23755" lon="-6.77414333">
        <ele>948.0</ele>
        <time>2022-06-19T05:44:39.568Z</time>
      </trkpt>
      <trkpt lat="43.23755" lon="-6.77413">
        <ele>948.0</ele>
        <time>2022-06-19T05:44:40.571Z</time>
      </trkpt>
      <trkpt lat="43.23755" lon="-6.77413">
        <ele>948.0</ele>
        <time>2022-06-19T05:44:41.549Z</time>
      </trkpt>
      <trkpt lat="43.23753" lon="-6.77411333">
        <ele>947.0</ele>
        <time>2022-06-19T05:44:42.560Z</time>
      </trkpt>
      <trkpt lat="43.23753" lon="-6.77411333">
        <ele>947.0</ele>
        <time>2022-06-19T05:44:43.571Z</time>
      </trkpt>
      <trkpt lat="43.23749" lon="-6.774135">
        <ele>947.0</ele>
        <time>2022-06-19T05:44:44.550Z</time>
      </trkpt>
      <trkpt lat="43.23749" lon="-6.774135">
        <ele>947.0</ele>
        <time>2022-06-19T05:44:45.572Z</time>
      </trkpt>
      <trkpt lat="43.237445" lon="-6.774165">
        <ele>947.0</ele>
        <time>2022-06-19T05:44:46.580Z</time>
      </trkpt>
      <trkpt lat="43.23742167" lon="-6.77417833">
        <ele>947.0</ele>
        <time>2022-06-19T05:44:47.564Z</time>
      </trkpt>
      <trkpt lat="43.23742167" lon="-6.77417833">
        <ele>947.0</ele>
        <time>2022-06-19T05:44:48.557Z</time>
      </trkpt>
      <trkpt lat="43.23736333" lon="-6.7742">
        <ele>947.0</ele>
        <time>2022-06-19T05:44:49.566Z</time>
      </trkpt>
      <trkpt lat="43.23736333" lon="-6.7742">
        <ele>947.0</ele>
        <time>2022-06-19T05:44:50.581Z</time>
      </trkpt>
      <trkpt lat="43.23729833" lon="-6.77421833">
        <ele>947.0</ele>
        <time>2022-06-19T05:44:51.557Z</time>
      </trkpt>
      <trkpt lat="43.23726167" lon="-6.77422667">
        <ele>946.0</ele>
        <time>2022-06-19T05:44:52.559Z</time>
      </trkpt>
      <trkpt lat="43.23722333" lon="-6.77423833">
        <ele>946.0</ele>
        <time>2022-06-19T05:44:53.555Z</time>
      </trkpt>
      <trkpt lat="43.23722333" lon="-6.77423833">
        <ele>946.0</ele>
        <time>2022-06-19T05:44:54.576Z</time>
      </trkpt>
      <trkpt lat="43.23714167" lon="-6.774275">
        <ele>946.0</ele>
        <time>2022-06-19T05:44:55.564Z</time>
      </trkpt>
      <trkpt lat="43.23714167" lon="-6.774275">
        <ele>946.0</ele>
        <time>2022-06-19T05:44:56.585Z</time>
      </trkpt>
      <trkpt lat="43.23706" lon="-6.774335">
        <ele>945.0</ele>
        <time>2022-06-19T05:44:57.570Z</time>
      </trkpt>
      <trkpt lat="43.23706" lon="-6.774335">
        <ele>945.0</ele>
        <time>2022-06-19T05:44:58.548Z</time>
      </trkpt>
      <trkpt lat="43.23698833" lon="-6.77442333">
        <ele>945.0</ele>
        <time>2022-06-19T05:44:59.560Z</time>
      </trkpt>
      <trkpt lat="43.236955" lon="-6.774475">
        <ele>945.0</ele>
        <time>2022-06-19T05:45:00.582Z</time>
      </trkpt>
      <trkpt lat="43.236955" lon="-6.774475">
        <ele>945.0</ele>
        <time>2022-06-19T05:45:01.566Z</time>
      </trkpt>
      <trkpt lat="43.23689833" lon="-6.77457167">
        <ele>945.0</ele>
        <time>2022-06-19T05:45:02.582Z</time>
      </trkpt>
      <trkpt lat="43.23689833" lon="-6.77457167">
        <ele>945.0</ele>
        <time>2022-06-19T05:45:03.551Z</time>
      </trkpt>
      <trkpt lat="43.23686167" lon="-6.77463167">
        <ele>945.0</ele>
        <time>2022-06-19T05:45:04.577Z</time>
      </trkpt>
      <trkpt lat="43.23686167" lon="-6.77463167">
        <ele>945.0</ele>
        <time>2022-06-19T05:45:05.572Z</time>
      </trkpt>
      <trkpt lat="43.23684" lon="-6.77467833">
        <ele>945.0</ele>
        <time>2022-06-19T05:45:06.560Z</time>
      </trkpt>
      <trkpt lat="43.23684" lon="-6.77467833">
        <ele>945.0</ele>
        <time>2022-06-19T05:45:07.573Z</time>
      </trkpt>
      <trkpt lat="43.23682" lon="-6.774715">
        <ele>945.0</ele>
        <time>2022-06-19T05:45:08.548Z</time>
      </trkpt>
      <trkpt lat="43.23681167" lon="-6.77472833">
        <ele>945.0</ele>
        <time>2022-06-19T05:45:09.572Z</time>
      </trkpt>
      <trkpt lat="43.23681167" lon="-6.77472833">
        <ele>945.0</ele>
        <time>2022-06-19T05:45:10.552Z</time>
      </trkpt>
      <trkpt lat="43.23680833" lon="-6.77473167">
        <ele>945.0</ele>
        <time>2022-06-19T05:45:11.569Z</time>
      </trkpt>
      <trkpt lat="43.23681" lon="-6.77473">
        <ele>945.0</ele>
        <time>2022-06-19T05:45:12.577Z</time>
      </trkpt>
      <trkpt lat="43.23681" lon="-6.77473">
        <ele>945.0</ele>
        <time>2022-06-19T05:46:06.068Z</time>
      </trkpt>
      <trkpt lat="43.23684333" lon="-6.77467">
        <ele>944.0</ele>
        <time>2022-06-19T05:46:07.058Z</time>
      </trkpt>
      <trkpt lat="43.23684333" lon="-6.77467">
        <ele>944.0</ele>
        <time>2022-06-19T05:46:08.094Z</time>
      </trkpt>
      <trkpt lat="43.23686667" lon="-6.77462167">
        <ele>944.0</ele>
        <time>2022-06-19T05:46:09.094Z</time>
      </trkpt>
      <trkpt lat="43.23686667" lon="-6.77462167">
        <ele>944.0</ele>
        <time>2022-06-19T05:46:10.073Z</time>
      </trkpt>
      <trkpt lat="43.23689167" lon="-6.77457167">
        <ele>944.0</ele>
        <time>2022-06-19T05:46:11.089Z</time>
      </trkpt>
      <trkpt lat="43.23689167" lon="-6.77457167">
        <ele>944.0</ele>
        <time>2022-06-19T05:46:12.095Z</time>
      </trkpt>
      <trkpt lat="43.23692333" lon="-6.77452">
        <ele>944.0</ele>
        <time>2022-06-19T05:46:13.080Z</time>
      </trkpt>
      <trkpt lat="43.23692333" lon="-6.77452">
        <ele>944.0</ele>
        <time>2022-06-19T05:46:14.087Z</time>
      </trkpt>
      <trkpt lat="43.23696667" lon="-6.77445">
        <ele>944.0</ele>
        <time>2022-06-19T05:46:15.077Z</time>
      </trkpt>
      <trkpt lat="43.23696667" lon="-6.77445">
        <ele>944.0</ele>
        <time>2022-06-19T05:46:16.075Z</time>
      </trkpt>
      <trkpt lat="43.23702333" lon="-6.77437">
        <ele>944.0</ele>
        <time>2022-06-19T05:46:17.078Z</time>
      </trkpt>
      <trkpt lat="43.23702333" lon="-6.77437">
        <ele>944.0</ele>
        <time>2022-06-19T05:46:18.086Z</time>
      </trkpt>
      <trkpt lat="43.23708833" lon="-6.77430833">
        <ele>945.0</ele>
        <time>2022-06-19T05:46:19.080Z</time>
      </trkpt>
      <trkpt lat="43.23708833" lon="-6.77430833">
        <ele>945.0</ele>
        <time>2022-06-19T05:46:20.088Z</time>
      </trkpt>
      <trkpt lat="43.237155" lon="-6.774255">
        <ele>945.0</ele>
        <time>2022-06-19T05:46:21.084Z</time>
      </trkpt>
      <trkpt lat="43.237155" lon="-6.774255">
        <ele>945.0</ele>
        <time>2022-06-19T05:46:22.090Z</time>
      </trkpt>
      <trkpt lat="43.237225" lon="-6.77422333">
        <ele>946.0</ele>
        <time>2022-06-19T05:46:23.067Z</time>
      </trkpt>
      <trkpt lat="43.23726167" lon="-6.77421167">
        <ele>946.0</ele>
        <time>2022-06-19T05:46:24.091Z</time>
      </trkpt>
      <trkpt lat="43.23726167" lon="-6.77421167">
        <ele>946.0</ele>
        <time>2022-06-19T05:46:25.097Z</time>
      </trkpt>
      <trkpt lat="43.23732167" lon="-6.774195">
        <ele>947.0</ele>
        <time>2022-06-19T05:46:26.088Z</time>
      </trkpt>
      <trkpt lat="43.23732167" lon="-6.774195">
        <ele>947.0</ele>
        <time>2022-06-19T05:46:27.098Z</time>
      </trkpt>
      <trkpt lat="43.237365" lon="-6.77419167">
        <ele>947.0</ele>
        <time>2022-06-19T05:46:28.089Z</time>
      </trkpt>
      <trkpt lat="43.23738167" lon="-6.77419">
        <ele>947.0</ele>
        <time>2022-06-19T05:46:29.086Z</time>
      </trkpt>
      <trkpt lat="43.23738167" lon="-6.77419">
        <ele>947.0</ele>
        <time>2022-06-19T05:46:30.093Z</time>
      </trkpt>
      <trkpt lat="43.23742" lon="-6.77419">
        <ele>948.0</ele>
        <time>2022-06-19T05:46:31.066Z</time>
      </trkpt>
      <trkpt lat="43.23742" lon="-6.77419">
        <ele>948.0</ele>
        <time>2022-06-19T05:46:32.081Z</time>
      </trkpt>
      <trkpt lat="43.23746167" lon="-6.77418667">
        <ele>948.0</ele>
        <time>2022-06-19T05:46:33.066Z</time>
      </trkpt>
      <trkpt lat="43.23746167" lon="-6.77418667">
        <ele>948.0</ele>
        <time>2022-06-19T05:46:34.073Z</time>
      </trkpt>
      <trkpt lat="43.2375" lon="-6.77418833">
        <ele>948.0</ele>
        <time>2022-06-19T05:46:35.063Z</time>
      </trkpt>
      <trkpt lat="43.23751667" lon="-6.77419">
        <ele>948.0</ele>
        <time>2022-06-19T05:46:36.088Z</time>
      </trkpt>
      <trkpt lat="43.23751667" lon="-6.77419">
        <ele>948.0</ele>
        <time>2022-06-19T05:46:37.094Z</time>
      </trkpt>
      <trkpt lat="43.23753333" lon="-6.77418">
        <ele>948.0</ele>
        <time>2022-06-19T05:46:38.080Z</time>
      </trkpt>
      <trkpt lat="43.23753333" lon="-6.77418">
        <ele>948.0</ele>
        <time>2022-06-19T05:46:39.089Z</time>
      </trkpt>
      <trkpt lat="43.237535" lon="-6.77418">
        <ele>948.0</ele>
        <time>2022-06-19T05:46:40.068Z</time>
      </trkpt>
      <trkpt lat="43.237535" lon="-6.77418">
        <ele>948.0</ele>
        <time>2022-06-19T05:46:41.074Z</time>
      </trkpt>
      <trkpt lat="43.237535" lon="-6.77418">
        <ele>948.0</ele>
        <time>2022-06-19T05:46:44.605Z</time>
      </trkpt>
      <trkpt lat="43.237535" lon="-6.77418">
        <ele>948.0</ele>
        <time>2022-06-19T05:46:45.611Z</time>
      </trkpt>
      <trkpt lat="43.237535" lon="-6.77418">
        <ele>948.0</ele>
        <time>2022-06-19T05:46:46.626Z</time>
      </trkpt>
      <trkpt lat="43.237535" lon="-6.77418">
        <ele>948.0</ele>
        <time>2022-06-19T05:46:47.629Z</time>
      </trkpt>
      <trkpt lat="43.237535" lon="-6.77418">
        <ele>948.0</ele>
        <time>2022-06-19T05:46:48.593Z</time>
      </trkpt>
      <trkpt lat="43.237535" lon="-6.77418">
        <ele>948.0</ele>
        <time>2022-06-19T05:46:49.613Z</time>
      </trkpt>
      <trkpt lat="43.237535" lon="-6.77418">
        <ele>948.0</ele>
        <time>2022-06-19T05:46:50.620Z</time>
      </trkpt>
      <trkpt lat="43.237535" lon="-6.77418">
        <ele>948.0</ele>
        <time>2022-06-19T05:46:51.601Z</time>
      </trkpt>
      <trkpt lat="43.237535" lon="-6.77418">
        <ele>948.0</ele>
        <time>2022-06-19T05:46:52.593Z</time>
      </trkpt>
      <trkpt lat="43.237535" lon="-6.77418">
        <ele>948.0</ele>
        <time>2022-06-19T05:46:53.626Z</time>
      </trkpt>
      <trkpt lat="43.237535" lon="-6.77418">
        <ele>948.0</ele>
        <time>2022-06-19T05:46:54.593Z</time>
      </trkpt>
      <trkpt lat="43.237535" lon="-6.77418">
        <ele>948.0</ele>
        <time>2022-06-19T05:46:55.604Z</time>
      </trkpt>
      <trkpt lat="43.237535" lon="-6.77418">
        <ele>948.0</ele>
        <time>2022-06-19T05:46:56.597Z</time>
      </trkpt>
      <trkpt lat="43.237535" lon="-6.77418">
        <ele>948.0</ele>
        <time>2022-06-19T05:46:57.606Z</time>
      </trkpt>
      <trkpt lat="43.237535" lon="-6.77418">
        <ele>948.0</ele>
        <time>2022-06-19T05:46:58.612Z</time>
      </trkpt>
      <trkpt lat="43.237525" lon="-6.77415833">
        <ele>949.0</ele>
        <time>2022-06-19T05:46:59.621Z</time>
      </trkpt>
      <trkpt lat="43.23750833" lon="-6.77414333">
        <ele>949.0</ele>
        <time>2022-06-19T05:47:00.619Z</time>
      </trkpt>
      <trkpt lat="43.23750833" lon="-6.77414333">
        <ele>949.0</ele>
        <time>2022-06-19T05:47:01.611Z</time>
      </trkpt>
      <trkpt lat="43.23747833" lon="-6.77417167">
        <ele>949.0</ele>
        <time>2022-06-19T05:47:02.624Z</time>
      </trkpt>
      <trkpt lat="43.23747833" lon="-6.77417167">
        <ele>949.0</ele>
        <time>2022-06-19T05:47:03.619Z</time>
      </trkpt>
      <trkpt lat="43.23747333" lon="-6.77422167">
        <ele>949.0</ele>
        <time>2022-06-19T05:47:04.628Z</time>
      </trkpt>
      <trkpt lat="43.23748167" lon="-6.77424">
        <ele>949.0</ele>
        <time>2022-06-19T05:47:05.618Z</time>
      </trkpt>
      <trkpt lat="43.23749333" lon="-6.77425667">
        <ele>949.0</ele>
        <time>2022-06-19T05:47:06.615Z</time>
      </trkpt>
      <trkpt lat="43.23749333" lon="-6.77425667">
        <ele>949.0</ele>
        <time>2022-06-19T05:47:07.594Z</time>
      </trkpt>
      <trkpt lat="43.23752333" lon="-6.77428667">
        <ele>949.0</ele>
        <time>2022-06-19T05:47:08.617Z</time>
      </trkpt>
      <trkpt lat="43.23752333" lon="-6.77428667">
        <ele>949.0</ele>
        <time>2022-06-19T05:47:09.628Z</time>
      </trkpt>
      <trkpt lat="43.23755167" lon="-6.774315">
        <ele>950.0</ele>
        <time>2022-06-19T05:47:10.611Z</time>
      </trkpt>
      <trkpt lat="43.23755167" lon="-6.774315">
        <ele>950.0</ele>
        <time>2022-06-19T05:47:11.628Z</time>
      </trkpt>
      <trkpt lat="43.23758167" lon="-6.77434">
        <ele>950.0</ele>
        <time>2022-06-19T05:47:12.626Z</time>
      </trkpt>
      <trkpt lat="43.23758167" lon="-6.77434">
        <ele>950.0</ele>
        <time>2022-06-19T05:47:13.621Z</time>
      </trkpt>
      <trkpt lat="43.23761833" lon="-6.77435833">
        <ele>950.0</ele>
        <time>2022-06-19T05:47:14.593Z</time>
      </trkpt>
      <trkpt lat="43.23761833" lon="-6.77435833">
        <ele>950.0</ele>
        <time>2022-06-19T05:47:15.611Z</time>
      </trkpt>
      <trkpt lat="43.23764333" lon="-6.77439333">
        <ele>950.0</ele>
        <time>2022-06-19T05:47:16.633Z</time>
      </trkpt>
      <trkpt lat="43.237655" lon="-6.77441833">
        <ele>950.0</ele>
        <time>2022-06-19T05:47:17.623Z</time>
      </trkpt>
      <trkpt lat="43.237665" lon="-6.774445">
        <ele>950.0</ele>
        <time>2022-06-19T05:47:18.628Z</time>
      </trkpt>
      <trkpt lat="43.237665" lon="-6.774445">
        <ele>950.0</ele>
        <time>2022-06-19T05:47:19.607Z</time>
      </trkpt>
      <trkpt lat="43.23767333" lon="-6.7745">
        <ele>950.0</ele>
        <time>2022-06-19T05:47:20.622Z</time>
      </trkpt>
      <trkpt lat="43.23767333" lon="-6.7745">
        <ele>950.0</ele>
        <time>2022-06-19T05:47:21.596Z</time>
      </trkpt>
      <trkpt lat="43.23767333" lon="-6.77455333">
        <ele>950.0</ele>
        <time>2022-06-19T05:47:22.608Z</time>
      </trkpt>
      <trkpt lat="43.23767333" lon="-6.77455333">
        <ele>950.0</ele>
        <time>2022-06-19T05:47:23.623Z</time>
      </trkpt>
      <trkpt lat="43.23767667" lon="-6.774605">
        <ele>952.0</ele>
        <time>2022-06-19T05:47:24.625Z</time>
      </trkpt>
      <trkpt lat="43.23767667" lon="-6.774605">
        <ele>952.0</ele>
        <time>2022-06-19T05:47:25.609Z</time>
      </trkpt>
      <trkpt lat="43.23767167" lon="-6.77465833">
        <ele>953.0</ele>
        <time>2022-06-19T05:47:26.597Z</time>
      </trkpt>
      <trkpt lat="43.23766667" lon="-6.77468167">
        <ele>953.0</ele>
        <time>2022-06-19T05:47:27.620Z</time>
      </trkpt>
      <trkpt lat="43.23766167" lon="-6.77470667">
        <ele>953.0</ele>
        <time>2022-06-19T05:47:28.619Z</time>
      </trkpt>
      <trkpt lat="43.23766167" lon="-6.77470667">
        <ele>953.0</ele>
        <time>2022-06-19T05:47:29.625Z</time>
      </trkpt>
      <trkpt lat="43.23765667" lon="-6.77476333">
        <ele>954.0</ele>
        <time>2022-06-19T05:47:30.603Z</time>
      </trkpt>
      <trkpt lat="43.23765667" lon="-6.77476333">
        <ele>954.0</ele>
        <time>2022-06-19T05:47:31.620Z</time>
      </trkpt>
      <trkpt lat="43.23765167" lon="-6.77481833">
        <ele>954.0</ele>
        <time>2022-06-19T05:47:32.637Z</time>
      </trkpt>
      <trkpt lat="43.23765167" lon="-6.77481833">
        <ele>954.0</ele>
        <time>2022-06-19T05:47:33.611Z</time>
      </trkpt>
      <trkpt lat="43.237645" lon="-6.774875">
        <ele>954.0</ele>
        <time>2022-06-19T05:47:34.608Z</time>
      </trkpt>
      <trkpt lat="43.237645" lon="-6.774875">
        <ele>954.0</ele>
        <time>2022-06-19T05:47:35.622Z</time>
      </trkpt>
      <trkpt lat="43.23763167" lon="-6.77493">
        <ele>955.0</ele>
        <time>2022-06-19T05:47:36.605Z</time>
      </trkpt>
      <trkpt lat="43.23762667" lon="-6.77495667">
        <ele>955.0</ele>
        <time>2022-06-19T05:47:37.603Z</time>
      </trkpt>
      <trkpt lat="43.23762667" lon="-6.77495667">
        <ele>955.0</ele>
        <time>2022-06-19T05:47:38.624Z</time>
      </trkpt>
      <trkpt lat="43.23761333" lon="-6.77500667">
        <ele>956.0</ele>
        <time>2022-06-19T05:47:39.622Z</time>
      </trkpt>
      <trkpt lat="43.23761333" lon="-6.77500667">
        <ele>956.0</ele>
        <time>2022-06-19T05:47:40.594Z</time>
      </trkpt>
      <trkpt lat="43.237595" lon="-6.775065">
        <ele>956.0</ele>
        <time>2022-06-19T05:47:41.607Z</time>
      </trkpt>
      <trkpt lat="43.23759333" lon="-6.77509167">
        <ele>956.0</ele>
        <time>2022-06-19T05:47:42.596Z</time>
      </trkpt>
      <trkpt lat="43.23759333" lon="-6.77509167">
        <ele>956.0</ele>
        <time>2022-06-19T05:47:43.622Z</time>
      </trkpt>
      <trkpt lat="43.23758167" lon="-6.77514333">
        <ele>957.0</ele>
        <time>2022-06-19T05:47:44.593Z</time>
      </trkpt>
      <trkpt lat="43.23758167" lon="-6.77514333">
        <ele>957.0</ele>
        <time>2022-06-19T05:47:45.614Z</time>
      </trkpt>
      <trkpt lat="43.23755667" lon="-6.77518667">
        <ele>957.0</ele>
        <time>2022-06-19T05:47:46.594Z</time>
      </trkpt>
      <trkpt lat="43.23754333" lon="-6.77520333">
        <ele>958.0</ele>
        <time>2022-06-19T05:47:47.599Z</time>
      </trkpt>
      <trkpt lat="43.23754333" lon="-6.77520333">
        <ele>958.0</ele>
        <time>2022-06-19T05:47:48.610Z</time>
      </trkpt>
      <trkpt lat="43.237515" lon="-6.77522667">
        <ele>958.0</ele>
        <time>2022-06-19T05:47:49.625Z</time>
      </trkpt>
      <trkpt lat="43.237515" lon="-6.77522667">
        <ele>958.0</ele>
        <time>2022-06-19T05:47:50.600Z</time>
      </trkpt>
      <trkpt lat="43.23748167" lon="-6.775245">
        <ele>959.0</ele>
        <time>2022-06-19T05:47:51.618Z</time>
      </trkpt>
      <trkpt lat="43.237465" lon="-6.77525333">
        <ele>959.0</ele>
        <time>2022-06-19T05:47:52.618Z</time>
      </trkpt>
      <trkpt lat="43.23744833" lon="-6.77526167">
        <ele>959.0</ele>
        <time>2022-06-19T05:47:53.600Z</time>
      </trkpt>
      <trkpt lat="43.23744833" lon="-6.77526167">
        <ele>959.0</ele>
        <time>2022-06-19T05:47:54.618Z</time>
      </trkpt>
      <trkpt lat="43.23741333" lon="-6.77527667">
        <ele>960.0</ele>
        <time>2022-06-19T05:47:55.599Z</time>
      </trkpt>
      <trkpt lat="43.23741333" lon="-6.77527667">
        <ele>960.0</ele>
        <time>2022-06-19T05:47:56.625Z</time>
      </trkpt>
      <trkpt lat="43.23737667" lon="-6.77530167">
        <ele>960.0</ele>
        <time>2022-06-19T05:47:57.601Z</time>
      </trkpt>
      <trkpt lat="43.23737667" lon="-6.77530167">
        <ele>960.0</ele>
        <time>2022-06-19T05:47:58.627Z</time>
      </trkpt>
      <trkpt lat="43.23733833" lon="-6.77531667">
        <ele>960.0</ele>
        <time>2022-06-19T05:47:59.608Z</time>
      </trkpt>
      <trkpt lat="43.23733833" lon="-6.77531667">
        <ele>960.0</ele>
        <time>2022-06-19T05:48:00.622Z</time>
      </trkpt>
      <trkpt lat="43.237295" lon="-6.77533333">
        <ele>960.0</ele>
        <time>2022-06-19T05:48:01.616Z</time>
      </trkpt>
      <trkpt lat="43.237295" lon="-6.77533333">
        <ele>960.0</ele>
        <time>2022-06-19T05:48:02.628Z</time>
      </trkpt>
      <trkpt lat="43.237255" lon="-6.77535333">
        <ele>960.0</ele>
        <time>2022-06-19T05:48:03.601Z</time>
      </trkpt>
      <trkpt lat="43.23724" lon="-6.77536333">
        <ele>960.0</ele>
        <time>2022-06-19T05:48:04.620Z</time>
      </trkpt>
      <trkpt lat="43.23724" lon="-6.77536333">
        <ele>960.0</ele>
        <time>2022-06-19T05:48:05.606Z</time>
      </trkpt>
      <trkpt lat="43.23720333" lon="-6.77538167">
        <ele>960.0</ele>
        <time>2022-06-19T05:48:06.623Z</time>
      </trkpt>
      <trkpt lat="43.23720333" lon="-6.77538167">
        <ele>960.0</ele>
        <time>2022-06-19T05:48:07.631Z</time>
      </trkpt>
      <trkpt lat="43.23716667" lon="-6.77540667">
        <ele>960.0</ele>
        <time>2022-06-19T05:48:08.620Z</time>
      </trkpt>
      <trkpt lat="43.23714833" lon="-6.77542">
        <ele>961.0</ele>
        <time>2022-06-19T05:48:09.606Z</time>
      </trkpt>
      <trkpt lat="43.23714833" lon="-6.77542">
        <ele>961.0</ele>
        <time>2022-06-19T05:48:10.620Z</time>
      </trkpt>
      <trkpt lat="43.23710833" lon="-6.77544333">
        <ele>961.0</ele>
        <time>2022-06-19T05:48:11.607Z</time>
      </trkpt>
      <trkpt lat="43.23708667" lon="-6.77545833">
        <ele>961.0</ele>
        <time>2022-06-19T05:48:12.631Z</time>
      </trkpt>
      <trkpt lat="43.23707" lon="-6.77546667">
        <ele>961.0</ele>
        <time>2022-06-19T05:48:13.617Z</time>
      </trkpt>
      <trkpt lat="43.23707" lon="-6.77546667">
        <ele>961.0</ele>
        <time>2022-06-19T05:48:14.606Z</time>
      </trkpt>
      <trkpt lat="43.23703333" lon="-6.77549167">
        <ele>962.0</ele>
        <time>2022-06-19T05:48:15.625Z</time>
      </trkpt>
      <trkpt lat="43.23703333" lon="-6.77549167">
        <ele>962.0</ele>
        <time>2022-06-19T05:48:16.607Z</time>
      </trkpt>
      <trkpt lat="43.23699667" lon="-6.775515">
        <ele>962.0</ele>
        <time>2022-06-19T05:48:17.620Z</time>
      </trkpt>
      <trkpt lat="43.23699667" lon="-6.775515">
        <ele>962.0</ele>
        <time>2022-06-19T05:48:18.628Z</time>
      </trkpt>
      <trkpt lat="43.23696167" lon="-6.775535">
        <ele>962.0</ele>
        <time>2022-06-19T05:48:19.600Z</time>
      </trkpt>
      <trkpt lat="43.23694667" lon="-6.77554667">
        <ele>963.0</ele>
        <time>2022-06-19T05:48:20.629Z</time>
      </trkpt>
      <trkpt lat="43.23694667" lon="-6.77554667">
        <ele>963.0</ele>
        <time>2022-06-19T05:48:21.611Z</time>
      </trkpt>
      <trkpt lat="43.236915" lon="-6.77556833">
        <ele>963.0</ele>
        <time>2022-06-19T05:48:22.631Z</time>
      </trkpt>
      <trkpt lat="43.236915" lon="-6.77556833">
        <ele>963.0</ele>
        <time>2022-06-19T05:48:23.609Z</time>
      </trkpt>
      <trkpt lat="43.23688167" lon="-6.77558833">
        <ele>963.0</ele>
        <time>2022-06-19T05:48:24.622Z</time>
      </trkpt>
      <trkpt lat="43.236865" lon="-6.77559833">
        <ele>963.0</ele>
        <time>2022-06-19T05:48:25.602Z</time>
      </trkpt>
      <trkpt lat="43.236865" lon="-6.77559833">
        <ele>963.0</ele>
        <time>2022-06-19T05:48:26.615Z</time>
      </trkpt>
      <trkpt lat="43.23682667" lon="-6.775625">
        <ele>963.0</ele>
        <time>2022-06-19T05:48:27.621Z</time>
      </trkpt>
      <trkpt lat="43.23680667" lon="-6.77563333">
        <ele>963.0</ele>
        <time>2022-06-19T05:48:28.627Z</time>
      </trkpt>
      <trkpt lat="43.23680667" lon="-6.77563333">
        <ele>963.0</ele>
        <time>2022-06-19T05:48:29.606Z</time>
      </trkpt>
      <trkpt lat="43.23676333" lon="-6.77564667">
        <ele>964.0</ele>
        <time>2022-06-19T05:48:30.627Z</time>
      </trkpt>
      <trkpt lat="43.23676333" lon="-6.77564667">
        <ele>964.0</ele>
        <time>2022-06-19T05:48:31.605Z</time>
      </trkpt>
      <trkpt lat="43.23672333" lon="-6.77566167">
        <ele>964.0</ele>
        <time>2022-06-19T05:48:32.628Z</time>
      </trkpt>
      <trkpt lat="43.23672333" lon="-6.77566167">
        <ele>964.0</ele>
        <time>2022-06-19T05:48:33.602Z</time>
      </trkpt>
      <trkpt lat="43.23668667" lon="-6.77568">
        <ele>964.0</ele>
        <time>2022-06-19T05:48:34.622Z</time>
      </trkpt>
      <trkpt lat="43.23667" lon="-6.77568833">
        <ele>965.0</ele>
        <time>2022-06-19T05:48:35.608Z</time>
      </trkpt>
      <trkpt lat="43.23665167" lon="-6.775695">
        <ele>965.0</ele>
        <time>2022-06-19T05:48:36.602Z</time>
      </trkpt>
      <trkpt lat="43.23665167" lon="-6.775695">
        <ele>965.0</ele>
        <time>2022-06-19T05:48:37.627Z</time>
      </trkpt>
      <trkpt lat="43.23661333" lon="-6.77570167">
        <ele>966.0</ele>
        <time>2022-06-19T05:48:38.600Z</time>
      </trkpt>
      <trkpt lat="43.23661333" lon="-6.77570167">
        <ele>966.0</ele>
        <time>2022-06-19T05:48:39.618Z</time>
      </trkpt>
      <trkpt lat="43.23657667" lon="-6.77571">
        <ele>966.0</ele>
        <time>2022-06-19T05:48:40.595Z</time>
      </trkpt>
      <trkpt lat="43.23657667" lon="-6.77571">
        <ele>966.0</ele>
        <time>2022-06-19T05:48:41.612Z</time>
      </trkpt>
      <trkpt lat="43.23654333" lon="-6.77572">
        <ele>967.0</ele>
        <time>2022-06-19T05:48:42.602Z</time>
      </trkpt>
      <trkpt lat="43.23654333" lon="-6.77572">
        <ele>967.0</ele>
        <time>2022-06-19T05:48:43.621Z</time>
      </trkpt>
      <trkpt lat="43.23651" lon="-6.77573">
        <ele>967.0</ele>
        <time>2022-06-19T05:48:44.598Z</time>
      </trkpt>
      <trkpt lat="43.23649167" lon="-6.77573333">
        <ele>967.0</ele>
        <time>2022-06-19T05:48:45.596Z</time>
      </trkpt>
      <trkpt lat="43.23647333" lon="-6.77573667">
        <ele>967.0</ele>
        <time>2022-06-19T05:48:46.612Z</time>
      </trkpt>
      <trkpt lat="43.23647333" lon="-6.77573667">
        <ele>967.0</ele>
        <time>2022-06-19T05:48:47.610Z</time>
      </trkpt>
      <trkpt lat="43.23644333" lon="-6.77574">
        <ele>968.0</ele>
        <time>2022-06-19T05:48:48.632Z</time>
      </trkpt>
      <trkpt lat="43.23644333" lon="-6.77574">
        <ele>968.0</ele>
        <time>2022-06-19T05:48:49.606Z</time>
      </trkpt>
      <trkpt lat="43.23640167" lon="-6.77574667">
        <ele>968.0</ele>
        <time>2022-06-19T05:48:50.611Z</time>
      </trkpt>
      <trkpt lat="43.23640167" lon="-6.77574667">
        <ele>968.0</ele>
        <time>2022-06-19T05:48:51.624Z</time>
      </trkpt>
      <trkpt lat="43.23636667" lon="-6.77575333">
        <ele>969.0</ele>
        <time>2022-06-19T05:48:52.600Z</time>
      </trkpt>
      <trkpt lat="43.23636667" lon="-6.77575333">
        <ele>969.0</ele>
        <time>2022-06-19T05:48:53.612Z</time>
      </trkpt>
      <trkpt lat="43.23632667" lon="-6.77576">
        <ele>969.0</ele>
        <time>2022-06-19T05:48:54.629Z</time>
      </trkpt>
      <trkpt lat="43.23632667" lon="-6.77576">
        <ele>969.0</ele>
        <time>2022-06-19T05:48:55.605Z</time>
      </trkpt>
      <trkpt lat="43.236285" lon="-6.77576833">
        <ele>970.0</ele>
        <time>2022-06-19T05:48:56.618Z</time>
      </trkpt>
      <trkpt lat="43.236285" lon="-6.77576833">
        <ele>970.0</ele>
        <time>2022-06-19T05:48:57.625Z</time>
      </trkpt>
      <trkpt lat="43.23625167" lon="-6.77577333">
        <ele>970.0</ele>
        <time>2022-06-19T05:48:58.598Z</time>
      </trkpt>
      <trkpt lat="43.23625167" lon="-6.77577333">
        <ele>970.0</ele>
        <time>2022-06-19T05:48:59.618Z</time>
      </trkpt>
      <trkpt lat="43.23621667" lon="-6.77578167">
        <ele>971.0</ele>
        <time>2022-06-19T05:49:00.593Z</time>
      </trkpt>
      <trkpt lat="43.23621667" lon="-6.77578167">
        <ele>971.0</ele>
        <time>2022-06-19T05:49:01.600Z</time>
      </trkpt>
      <trkpt lat="43.23617667" lon="-6.77578833">
        <ele>971.0</ele>
        <time>2022-06-19T05:49:02.612Z</time>
      </trkpt>
      <trkpt lat="43.23617667" lon="-6.77578833">
        <ele>971.0</ele>
        <time>2022-06-19T05:49:03.620Z</time>
      </trkpt>
      <trkpt lat="43.236135" lon="-6.77579833">
        <ele>971.0</ele>
        <time>2022-06-19T05:49:04.597Z</time>
      </trkpt>
      <trkpt lat="43.236135" lon="-6.77579833">
        <ele>971.0</ele>
        <time>2022-06-19T05:49:05.612Z</time>
      </trkpt>
      <trkpt lat="43.236095" lon="-6.77580333">
        <ele>972.0</ele>
        <time>2022-06-19T05:49:06.627Z</time>
      </trkpt>
      <trkpt lat="43.236095" lon="-6.77580333">
        <ele>972.0</ele>
        <time>2022-06-19T05:49:07.596Z</time>
      </trkpt>
      <trkpt lat="43.23605667" lon="-6.77581167">
        <ele>972.0</ele>
        <time>2022-06-19T05:49:08.614Z</time>
      </trkpt>
      <trkpt lat="43.23603667" lon="-6.77581667">
        <ele>972.0</ele>
        <time>2022-06-19T05:49:09.607Z</time>
      </trkpt>
      <trkpt lat="43.23601667" lon="-6.77582">
        <ele>973.0</ele>
        <time>2022-06-19T05:49:10.631Z</time>
      </trkpt>
      <trkpt lat="43.23601667" lon="-6.77582">
        <ele>973.0</ele>
        <time>2022-06-19T05:49:11.604Z</time>
      </trkpt>
      <trkpt lat="43.23597333" lon="-6.77583">
        <ele>973.0</ele>
        <time>2022-06-19T05:49:12.621Z</time>
      </trkpt>
      <trkpt lat="43.23597333" lon="-6.77583">
        <ele>973.0</ele>
        <time>2022-06-19T05:49:13.602Z</time>
      </trkpt>
      <trkpt lat="43.23592833" lon="-6.77584167">
        <ele>973.0</ele>
        <time>2022-06-19T05:49:14.615Z</time>
      </trkpt>
      <trkpt lat="43.23592833" lon="-6.77584167">
        <ele>973.0</ele>
        <time>2022-06-19T05:49:15.632Z</time>
      </trkpt>
      <trkpt lat="43.235895" lon="-6.77585167">
        <ele>973.0</ele>
        <time>2022-06-19T05:49:16.608Z</time>
      </trkpt>
      <trkpt lat="43.235895" lon="-6.77585167">
        <ele>973.0</ele>
        <time>2022-06-19T05:49:17.627Z</time>
      </trkpt>
      <trkpt lat="43.23585667" lon="-6.77586167">
        <ele>974.0</ele>
        <time>2022-06-19T05:49:18.605Z</time>
      </trkpt>
      <trkpt lat="43.23585667" lon="-6.77586167">
        <ele>974.0</ele>
        <time>2022-06-19T05:49:19.603Z</time>
      </trkpt>
      <trkpt lat="43.23581833" lon="-6.77587">
        <ele>974.0</ele>
        <time>2022-06-19T05:49:20.626Z</time>
      </trkpt>
      <trkpt lat="43.23581833" lon="-6.77587">
        <ele>974.0</ele>
        <time>2022-06-19T05:49:21.617Z</time>
      </trkpt>
      <trkpt lat="43.23577667" lon="-6.77588167">
        <ele>974.0</ele>
        <time>2022-06-19T05:49:22.596Z</time>
      </trkpt>
      <trkpt lat="43.23577667" lon="-6.77588167">
        <ele>974.0</ele>
        <time>2022-06-19T05:49:23.612Z</time>
      </trkpt>
      <trkpt lat="43.23573667" lon="-6.77589833">
        <ele>974.0</ele>
        <time>2022-06-19T05:49:24.595Z</time>
      </trkpt>
      <trkpt lat="43.23573667" lon="-6.77589833">
        <ele>974.0</ele>
        <time>2022-06-19T05:49:25.606Z</time>
      </trkpt>
      <trkpt lat="43.23569667" lon="-6.775925">
        <ele>974.0</ele>
        <time>2022-06-19T05:49:26.620Z</time>
      </trkpt>
      <trkpt lat="43.23569667" lon="-6.775925">
        <ele>974.0</ele>
        <time>2022-06-19T05:49:27.630Z</time>
      </trkpt>
      <trkpt lat="43.23565167" lon="-6.77594333">
        <ele>974.0</ele>
        <time>2022-06-19T05:49:28.601Z</time>
      </trkpt>
      <trkpt lat="43.23565167" lon="-6.77594333">
        <ele>974.0</ele>
        <time>2022-06-19T05:49:29.621Z</time>
      </trkpt>
      <trkpt lat="43.23561167" lon="-6.77596167">
        <ele>974.0</ele>
        <time>2022-06-19T05:49:30.596Z</time>
      </trkpt>
      <trkpt lat="43.23561167" lon="-6.77596167">
        <ele>974.0</ele>
        <time>2022-06-19T05:49:31.629Z</time>
      </trkpt>
      <trkpt lat="43.23557167" lon="-6.77597833">
        <ele>975.0</ele>
        <time>2022-06-19T05:49:32.604Z</time>
      </trkpt>
      <trkpt lat="43.23555333" lon="-6.77599">
        <ele>975.0</ele>
        <time>2022-06-19T05:49:33.603Z</time>
      </trkpt>
      <trkpt lat="43.23555333" lon="-6.77599">
        <ele>975.0</ele>
        <time>2022-06-19T05:49:34.616Z</time>
      </trkpt>
      <trkpt lat="43.23551333" lon="-6.77601167">
        <ele>975.0</ele>
        <time>2022-06-19T05:49:35.604Z</time>
      </trkpt>
      <trkpt lat="43.23551333" lon="-6.77601167">
        <ele>975.0</ele>
        <time>2022-06-19T05:49:36.596Z</time>
      </trkpt>
      <trkpt lat="43.23547333" lon="-6.77603667">
        <ele>975.0</ele>
        <time>2022-06-19T05:49:37.594Z</time>
      </trkpt>
      <trkpt lat="43.23547333" lon="-6.77603667">
        <ele>975.0</ele>
        <time>2022-06-19T05:49:38.619Z</time>
      </trkpt>
      <trkpt lat="43.235435" lon="-6.77606">
        <ele>975.0</ele>
        <time>2022-06-19T05:49:39.631Z</time>
      </trkpt>
      <trkpt lat="43.23541333" lon="-6.77607167">
        <ele>976.0</ele>
        <time>2022-06-19T05:49:40.624Z</time>
      </trkpt>
      <trkpt lat="43.23541333" lon="-6.77607167">
        <ele>976.0</ele>
        <time>2022-06-19T05:49:41.605Z</time>
      </trkpt>
      <trkpt lat="43.23537667" lon="-6.77609167">
        <ele>976.0</ele>
        <time>2022-06-19T05:49:42.628Z</time>
      </trkpt>
      <trkpt lat="43.23537667" lon="-6.77609167">
        <ele>976.0</ele>
        <time>2022-06-19T05:49:43.624Z</time>
      </trkpt>
      <trkpt lat="43.23533667" lon="-6.77611667">
        <ele>976.0</ele>
        <time>2022-06-19T05:49:44.609Z</time>
      </trkpt>
      <trkpt lat="43.23533667" lon="-6.77611667">
        <ele>976.0</ele>
        <time>2022-06-19T05:49:45.594Z</time>
      </trkpt>
      <trkpt lat="43.23529333" lon="-6.77613833">
        <ele>976.0</ele>
        <time>2022-06-19T05:49:46.628Z</time>
      </trkpt>
      <trkpt lat="43.23529333" lon="-6.77613833">
        <ele>976.0</ele>
        <time>2022-06-19T05:49:47.609Z</time>
      </trkpt>
      <trkpt lat="43.23525333" lon="-6.77615333">
        <ele>977.0</ele>
        <time>2022-06-19T05:49:48.624Z</time>
      </trkpt>
      <trkpt lat="43.23525333" lon="-6.77615333">
        <ele>977.0</ele>
        <time>2022-06-19T05:49:49.597Z</time>
      </trkpt>
      <trkpt lat="43.23520833" lon="-6.77616667">
        <ele>977.0</ele>
        <time>2022-06-19T05:49:50.627Z</time>
      </trkpt>
      <trkpt lat="43.23520833" lon="-6.77616667">
        <ele>977.0</ele>
        <time>2022-06-19T05:49:51.618Z</time>
      </trkpt>
      <trkpt lat="43.235165" lon="-6.77618">
        <ele>977.0</ele>
        <time>2022-06-19T05:49:52.595Z</time>
      </trkpt>
      <trkpt lat="43.235165" lon="-6.77618">
        <ele>977.0</ele>
        <time>2022-06-19T05:49:53.615Z</time>
      </trkpt>
      <trkpt lat="43.235125" lon="-6.77618833">
        <ele>978.0</ele>
        <time>2022-06-19T05:49:54.633Z</time>
      </trkpt>
      <trkpt lat="43.235125" lon="-6.77618833">
        <ele>978.0</ele>
        <time>2022-06-19T05:49:55.606Z</time>
      </trkpt>
      <trkpt lat="43.23508167" lon="-6.776195">
        <ele>978.0</ele>
        <time>2022-06-19T05:49:56.621Z</time>
      </trkpt>
      <trkpt lat="43.23508167" lon="-6.776195">
        <ele>978.0</ele>
        <time>2022-06-19T05:49:57.605Z</time>
      </trkpt>
      <trkpt lat="43.23504" lon="-6.7762">
        <ele>978.0</ele>
        <time>2022-06-19T05:49:58.617Z</time>
      </trkpt>
      <trkpt lat="43.23504" lon="-6.7762">
        <ele>978.0</ele>
        <time>2022-06-19T05:49:59.624Z</time>
      </trkpt>
      <trkpt lat="43.23499667" lon="-6.776205">
        <ele>979.0</ele>
        <time>2022-06-19T05:50:00.615Z</time>
      </trkpt>
      <trkpt lat="43.23499667" lon="-6.776205">
        <ele>979.0</ele>
        <time>2022-06-19T05:50:01.594Z</time>
      </trkpt>
      <trkpt lat="43.23494667" lon="-6.77621833">
        <ele>979.0</ele>
        <time>2022-06-19T05:50:02.609Z</time>
      </trkpt>
      <trkpt lat="43.23492" lon="-6.77622167">
        <ele>979.0</ele>
        <time>2022-06-19T05:50:03.626Z</time>
      </trkpt>
      <trkpt lat="43.23492" lon="-6.77622167">
        <ele>979.0</ele>
        <time>2022-06-19T05:50:04.612Z</time>
      </trkpt>
      <trkpt lat="43.23487333" lon="-6.77622833">
        <ele>979.0</ele>
        <time>2022-06-19T05:50:05.622Z</time>
      </trkpt>
      <trkpt lat="43.23487333" lon="-6.77622833">
        <ele>979.0</ele>
        <time>2022-06-19T05:50:06.607Z</time>
      </trkpt>
      <trkpt lat="43.23482333" lon="-6.77623333">
        <ele>980.0</ele>
        <time>2022-06-19T05:50:07.621Z</time>
      </trkpt>
      <trkpt lat="43.23482333" lon="-6.77623333">
        <ele>980.0</ele>
        <time>2022-06-19T05:50:08.600Z</time>
      </trkpt>
      <trkpt lat="43.23477833" lon="-6.77623833">
        <ele>980.0</ele>
        <time>2022-06-19T05:50:09.611Z</time>
      </trkpt>
      <trkpt lat="43.23477833" lon="-6.77623833">
        <ele>980.0</ele>
        <time>2022-06-19T05:50:10.595Z</time>
      </trkpt>
      <trkpt lat="43.23473167" lon="-6.776245">
        <ele>980.0</ele>
        <time>2022-06-19T05:50:11.597Z</time>
      </trkpt>
      <trkpt lat="43.23470667" lon="-6.77625">
        <ele>980.0</ele>
        <time>2022-06-19T05:50:12.624Z</time>
      </trkpt>
      <trkpt lat="43.23470667" lon="-6.77625">
        <ele>980.0</ele>
        <time>2022-06-19T05:50:13.607Z</time>
      </trkpt>
      <trkpt lat="43.23466333" lon="-6.77626">
        <ele>981.0</ele>
        <time>2022-06-19T05:50:14.600Z</time>
      </trkpt>
      <trkpt lat="43.23463833" lon="-6.77626333">
        <ele>981.0</ele>
        <time>2022-06-19T05:50:15.624Z</time>
      </trkpt>
      <trkpt lat="43.23463833" lon="-6.77626333">
        <ele>981.0</ele>
        <time>2022-06-19T05:50:16.630Z</time>
      </trkpt>
      <trkpt lat="43.23459" lon="-6.776275">
        <ele>981.0</ele>
        <time>2022-06-19T05:50:17.611Z</time>
      </trkpt>
      <trkpt lat="43.23457" lon="-6.77627833">
        <ele>981.0</ele>
        <time>2022-06-19T05:50:18.595Z</time>
      </trkpt>
      <trkpt lat="43.23457" lon="-6.77627833">
        <ele>981.0</ele>
        <time>2022-06-19T05:50:19.620Z</time>
      </trkpt>
      <trkpt lat="43.23452833" lon="-6.77628167">
        <ele>982.0</ele>
        <time>2022-06-19T05:50:20.614Z</time>
      </trkpt>
      <trkpt lat="43.23452833" lon="-6.77628167">
        <ele>982.0</ele>
        <time>2022-06-19T05:50:21.593Z</time>
      </trkpt>
      <trkpt lat="43.23448667" lon="-6.77629">
        <ele>982.0</ele>
        <time>2022-06-19T05:50:22.624Z</time>
      </trkpt>
      <trkpt lat="43.23446667" lon="-6.77629667">
        <ele>982.0</ele>
        <time>2022-06-19T05:50:23.607Z</time>
      </trkpt>
      <trkpt lat="43.23446667" lon="-6.77629667">
        <ele>982.0</ele>
        <time>2022-06-19T05:50:24.620Z</time>
      </trkpt>
      <trkpt lat="43.23442333" lon="-6.77631167">
        <ele>982.0</ele>
        <time>2022-06-19T05:50:25.618Z</time>
      </trkpt>
      <trkpt lat="43.23442333" lon="-6.77631167">
        <ele>982.0</ele>
        <time>2022-06-19T05:50:26.632Z</time>
      </trkpt>
      <trkpt lat="43.234385" lon="-6.776325">
        <ele>983.0</ele>
        <time>2022-06-19T05:50:27.604Z</time>
      </trkpt>
      <trkpt lat="43.234385" lon="-6.776325">
        <ele>983.0</ele>
        <time>2022-06-19T05:50:28.622Z</time>
      </trkpt>
      <trkpt lat="43.23434667" lon="-6.776345">
        <ele>983.0</ele>
        <time>2022-06-19T05:50:29.602Z</time>
      </trkpt>
      <trkpt lat="43.23432833" lon="-6.77635667">
        <ele>983.0</ele>
        <time>2022-06-19T05:50:30.627Z</time>
      </trkpt>
      <trkpt lat="43.23432833" lon="-6.77635667">
        <ele>983.0</ele>
        <time>2022-06-19T05:50:31.602Z</time>
      </trkpt>
      <trkpt lat="43.23429167" lon="-6.77638833">
        <ele>983.0</ele>
        <time>2022-06-19T05:50:32.621Z</time>
      </trkpt>
      <trkpt lat="43.23429167" lon="-6.77638833">
        <ele>983.0</ele>
        <time>2022-06-19T05:50:33.629Z</time>
      </trkpt>
      <trkpt lat="43.23425333" lon="-6.77641333">
        <ele>984.0</ele>
        <time>2022-06-19T05:50:34.600Z</time>
      </trkpt>
      <trkpt lat="43.23425333" lon="-6.77641333">
        <ele>984.0</ele>
        <time>2022-06-19T05:50:35.618Z</time>
      </trkpt>
      <trkpt lat="43.23421333" lon="-6.77643667">
        <ele>984.0</ele>
        <time>2022-06-19T05:50:36.597Z</time>
      </trkpt>
      <trkpt lat="43.23421333" lon="-6.77643667">
        <ele>984.0</ele>
        <time>2022-06-19T05:50:37.596Z</time>
      </trkpt>
      <trkpt lat="43.234175" lon="-6.77645833">
        <ele>984.0</ele>
        <time>2022-06-19T05:50:38.614Z</time>
      </trkpt>
      <trkpt lat="43.234175" lon="-6.77645833">
        <ele>984.0</ele>
        <time>2022-06-19T05:50:39.613Z</time>
      </trkpt>
      <trkpt lat="43.23413833" lon="-6.77648667">
        <ele>984.0</ele>
        <time>2022-06-19T05:50:40.597Z</time>
      </trkpt>
      <trkpt lat="43.23413833" lon="-6.77648667">
        <ele>984.0</ele>
        <time>2022-06-19T05:50:41.593Z</time>
      </trkpt>
      <trkpt lat="43.23410167" lon="-6.77651667">
        <ele>984.0</ele>
        <time>2022-06-19T05:50:42.607Z</time>
      </trkpt>
      <trkpt lat="43.23410167" lon="-6.77651667">
        <ele>984.0</ele>
        <time>2022-06-19T05:50:43.623Z</time>
      </trkpt>
      <trkpt lat="43.23406333" lon="-6.77654833">
        <ele>985.0</ele>
        <time>2022-06-19T05:50:44.599Z</time>
      </trkpt>
      <trkpt lat="43.23406333" lon="-6.77654833">
        <ele>985.0</ele>
        <time>2022-06-19T05:50:45.618Z</time>
      </trkpt>
      <trkpt lat="43.234025" lon="-6.77658">
        <ele>985.0</ele>
        <time>2022-06-19T05:50:46.609Z</time>
      </trkpt>
      <trkpt lat="43.234025" lon="-6.77658">
        <ele>985.0</ele>
        <time>2022-06-19T05:50:47.607Z</time>
      </trkpt>
      <trkpt lat="43.23398667" lon="-6.776615">
        <ele>985.0</ele>
        <time>2022-06-19T05:50:48.598Z</time>
      </trkpt>
      <trkpt lat="43.23397" lon="-6.77663333">
        <ele>985.0</ele>
        <time>2022-06-19T05:50:49.625Z</time>
      </trkpt>
      <trkpt lat="43.23395167" lon="-6.77665333">
        <ele>985.0</ele>
        <time>2022-06-19T05:50:50.615Z</time>
      </trkpt>
      <trkpt lat="43.23395167" lon="-6.77665333">
        <ele>985.0</ele>
        <time>2022-06-19T05:50:51.619Z</time>
      </trkpt>
      <trkpt lat="43.23392" lon="-6.776695">
        <ele>986.0</ele>
        <time>2022-06-19T05:50:52.601Z</time>
      </trkpt>
      <trkpt lat="43.23392" lon="-6.776695">
        <ele>986.0</ele>
        <time>2022-06-19T05:50:53.619Z</time>
      </trkpt>
      <trkpt lat="43.233895" lon="-6.77674167">
        <ele>986.0</ele>
        <time>2022-06-19T05:50:54.608Z</time>
      </trkpt>
      <trkpt lat="43.233895" lon="-6.77674167">
        <ele>986.0</ele>
        <time>2022-06-19T05:50:55.611Z</time>
      </trkpt>
      <trkpt lat="43.23386167" lon="-6.77678667">
        <ele>986.0</ele>
        <time>2022-06-19T05:50:56.632Z</time>
      </trkpt>
      <trkpt lat="43.23386167" lon="-6.77678667">
        <ele>986.0</ele>
        <time>2022-06-19T05:50:57.608Z</time>
      </trkpt>
      <trkpt lat="43.23383" lon="-6.77683333">
        <ele>987.0</ele>
        <time>2022-06-19T05:50:58.628Z</time>
      </trkpt>
      <trkpt lat="43.23381833" lon="-6.77686167">
        <ele>986.0</ele>
        <time>2022-06-19T05:50:59.631Z</time>
      </trkpt>
      <trkpt lat="43.23381833" lon="-6.77686167">
        <ele>986.0</ele>
        <time>2022-06-19T05:51:00.623Z</time>
      </trkpt>
      <trkpt lat="43.233785" lon="-6.776915">
        <ele>987.0</ele>
        <time>2022-06-19T05:51:01.606Z</time>
      </trkpt>
      <trkpt lat="43.233785" lon="-6.776915">
        <ele>987.0</ele>
        <time>2022-06-19T05:51:02.595Z</time>
      </trkpt>
      <trkpt lat="43.23375333" lon="-6.776975">
        <ele>987.0</ele>
        <time>2022-06-19T05:51:03.617Z</time>
      </trkpt>
      <trkpt lat="43.23375333" lon="-6.776975">
        <ele>987.0</ele>
        <time>2022-06-19T05:51:04.603Z</time>
      </trkpt>
      <trkpt lat="43.233715" lon="-6.77704167">
        <ele>988.0</ele>
        <time>2022-06-19T05:51:05.634Z</time>
      </trkpt>
      <trkpt lat="43.233695" lon="-6.777075">
        <ele>988.0</ele>
        <time>2022-06-19T05:51:06.624Z</time>
      </trkpt>
      <trkpt lat="43.233695" lon="-6.777075">
        <ele>988.0</ele>
        <time>2022-06-19T05:51:07.604Z</time>
      </trkpt>
      <trkpt lat="43.23366" lon="-6.77714667">
        <ele>988.0</ele>
        <time>2022-06-19T05:51:08.618Z</time>
      </trkpt>
      <trkpt lat="43.23364333" lon="-6.77718167">
        <ele>988.0</ele>
        <time>2022-06-19T05:51:09.599Z</time>
      </trkpt>
      <trkpt lat="43.23364333" lon="-6.77718167">
        <ele>988.0</ele>
        <time>2022-06-19T05:51:10.612Z</time>
      </trkpt>
      <trkpt lat="43.23360833" lon="-6.77724833">
        <ele>989.0</ele>
        <time>2022-06-19T05:51:11.599Z</time>
      </trkpt>
      <trkpt lat="43.23359167" lon="-6.77728167">
        <ele>989.0</ele>
        <time>2022-06-19T05:51:12.633Z</time>
      </trkpt>
      <trkpt lat="43.23359167" lon="-6.77728167">
        <ele>989.0</ele>
        <time>2022-06-19T05:51:13.605Z</time>
      </trkpt>
      <trkpt lat="43.233555" lon="-6.77734833">
        <ele>989.0</ele>
        <time>2022-06-19T05:51:14.600Z</time>
      </trkpt>
      <trkpt lat="43.23353667" lon="-6.77738333">
        <ele>989.0</ele>
        <time>2022-06-19T05:51:15.597Z</time>
      </trkpt>
      <trkpt lat="43.23352" lon="-6.77741667">
        <ele>989.0</ele>
        <time>2022-06-19T05:51:16.627Z</time>
      </trkpt>
      <trkpt lat="43.23352" lon="-6.77741667">
        <ele>989.0</ele>
        <time>2022-06-19T05:51:17.611Z</time>
      </trkpt>
      <trkpt lat="43.23348167" lon="-6.77748333">
        <ele>989.0</ele>
        <time>2022-06-19T05:51:18.632Z</time>
      </trkpt>
      <trkpt lat="43.23348167" lon="-6.77748333">
        <ele>989.0</ele>
        <time>2022-06-19T05:51:19.608Z</time>
      </trkpt>
      <trkpt lat="43.233445" lon="-6.77754833">
        <ele>989.0</ele>
        <time>2022-06-19T05:51:20.598Z</time>
      </trkpt>
      <trkpt lat="43.233445" lon="-6.77754833">
        <ele>989.0</ele>
        <time>2022-06-19T05:51:21.596Z</time>
      </trkpt>
      <trkpt lat="43.23340833" lon="-6.777615">
        <ele>989.0</ele>
        <time>2022-06-19T05:51:22.618Z</time>
      </trkpt>
      <trkpt lat="43.23339" lon="-6.77764667">
        <ele>989.0</ele>
        <time>2022-06-19T05:51:23.618Z</time>
      </trkpt>
      <trkpt lat="43.23339" lon="-6.77764667">
        <ele>989.0</ele>
        <time>2022-06-19T05:51:24.628Z</time>
      </trkpt>
      <trkpt lat="43.23335333" lon="-6.77771167">
        <ele>989.0</ele>
        <time>2022-06-19T05:51:25.633Z</time>
      </trkpt>
      <trkpt lat="43.23335333" lon="-6.77771167">
        <ele>989.0</ele>
        <time>2022-06-19T05:51:26.610Z</time>
      </trkpt>
      <trkpt lat="43.233315" lon="-6.77777333">
        <ele>989.0</ele>
        <time>2022-06-19T05:51:27.593Z</time>
      </trkpt>
      <trkpt lat="43.233315" lon="-6.77777333">
        <ele>989.0</ele>
        <time>2022-06-19T05:51:28.622Z</time>
      </trkpt>
      <trkpt lat="43.23328" lon="-6.77783833">
        <ele>989.0</ele>
        <time>2022-06-19T05:51:29.594Z</time>
      </trkpt>
      <trkpt lat="43.23326" lon="-6.77787167">
        <ele>989.0</ele>
        <time>2022-06-19T05:51:30.623Z</time>
      </trkpt>
      <trkpt lat="43.23326" lon="-6.77787167">
        <ele>989.0</ele>
        <time>2022-06-19T05:51:31.632Z</time>
      </trkpt>
      <trkpt lat="43.23321833" lon="-6.77793333">
        <ele>989.0</ele>
        <time>2022-06-19T05:51:32.612Z</time>
      </trkpt>
      <trkpt lat="43.23321833" lon="-6.77793333">
        <ele>989.0</ele>
        <time>2022-06-19T05:51:33.627Z</time>
      </trkpt>
      <trkpt lat="43.23317667" lon="-6.778005">
        <ele>990.0</ele>
        <time>2022-06-19T05:51:34.609Z</time>
      </trkpt>
      <trkpt lat="43.23317667" lon="-6.778005">
        <ele>990.0</ele>
        <time>2022-06-19T05:51:35.626Z</time>
      </trkpt>
      <trkpt lat="43.23313667" lon="-6.77807333">
        <ele>990.0</ele>
        <time>2022-06-19T05:51:36.602Z</time>
      </trkpt>
      <trkpt lat="43.23313667" lon="-6.77807333">
        <ele>990.0</ele>
        <time>2022-06-19T05:51:37.607Z</time>
      </trkpt>
      <trkpt lat="43.23309833" lon="-6.77813833">
        <ele>990.0</ele>
        <time>2022-06-19T05:51:38.627Z</time>
      </trkpt>
      <trkpt lat="43.23309833" lon="-6.77813833">
        <ele>990.0</ele>
        <time>2022-06-19T05:51:39.629Z</time>
      </trkpt>
      <trkpt lat="43.23305833" lon="-6.77819833">
        <ele>991.0</ele>
        <time>2022-06-19T05:51:40.623Z</time>
      </trkpt>
      <trkpt lat="43.23305833" lon="-6.77819833">
        <ele>991.0</ele>
        <time>2022-06-19T05:51:41.618Z</time>
      </trkpt>
      <trkpt lat="43.233025" lon="-6.77826">
        <ele>991.0</ele>
        <time>2022-06-19T05:51:42.597Z</time>
      </trkpt>
      <trkpt lat="43.233025" lon="-6.77826">
        <ele>991.0</ele>
        <time>2022-06-19T05:51:43.606Z</time>
      </trkpt>
      <trkpt lat="43.23299333" lon="-6.77831833">
        <ele>991.0</ele>
        <time>2022-06-19T05:51:44.623Z</time>
      </trkpt>
      <trkpt lat="43.23299333" lon="-6.77831833">
        <ele>991.0</ele>
        <time>2022-06-19T05:51:45.606Z</time>
      </trkpt>
      <trkpt lat="43.23297167" lon="-6.77837833">
        <ele>992.0</ele>
        <time>2022-06-19T05:51:46.633Z</time>
      </trkpt>
      <trkpt lat="43.23297167" lon="-6.77837833">
        <ele>992.0</ele>
        <time>2022-06-19T05:51:47.626Z</time>
      </trkpt>
      <trkpt lat="43.23295333" lon="-6.77843833">
        <ele>992.0</ele>
        <time>2022-06-19T05:51:48.610Z</time>
      </trkpt>
      <trkpt lat="43.23295333" lon="-6.77843833">
        <ele>992.0</ele>
        <time>2022-06-19T05:51:49.623Z</time>
      </trkpt>
      <trkpt lat="43.232935" lon="-6.77850167">
        <ele>992.0</ele>
        <time>2022-06-19T05:51:50.603Z</time>
      </trkpt>
      <trkpt lat="43.232935" lon="-6.77850167">
        <ele>992.0</ele>
        <time>2022-06-19T05:51:51.594Z</time>
      </trkpt>
      <trkpt lat="43.23291667" lon="-6.77855833">
        <ele>992.0</ele>
        <time>2022-06-19T05:51:52.615Z</time>
      </trkpt>
      <trkpt lat="43.23291667" lon="-6.77855833">
        <ele>992.0</ele>
        <time>2022-06-19T05:51:53.622Z</time>
      </trkpt>
      <trkpt lat="43.23289167" lon="-6.77861667">
        <ele>993.0</ele>
        <time>2022-06-19T05:51:54.606Z</time>
      </trkpt>
      <trkpt lat="43.23289167" lon="-6.77861667">
        <ele>993.0</ele>
        <time>2022-06-19T05:51:55.623Z</time>
      </trkpt>
      <trkpt lat="43.23285667" lon="-6.77867667">
        <ele>993.0</ele>
        <time>2022-06-19T05:51:56.598Z</time>
      </trkpt>
      <trkpt lat="43.23284833" lon="-6.77871333">
        <ele>994.0</ele>
        <time>2022-06-19T05:51:57.595Z</time>
      </trkpt>
      <trkpt lat="43.23283833" lon="-6.77875">
        <ele>994.0</ele>
        <time>2022-06-19T05:51:58.610Z</time>
      </trkpt>
      <trkpt lat="43.23283833" lon="-6.77875">
        <ele>994.0</ele>
        <time>2022-06-19T05:51:59.623Z</time>
      </trkpt>
      <trkpt lat="43.232815" lon="-6.77883">
        <ele>993.0</ele>
        <time>2022-06-19T05:52:00.594Z</time>
      </trkpt>
      <trkpt lat="43.232815" lon="-6.77883">
        <ele>993.0</ele>
        <time>2022-06-19T05:52:01.604Z</time>
      </trkpt>
      <trkpt lat="43.23279833" lon="-6.77891833">
        <ele>993.0</ele>
        <time>2022-06-19T05:52:02.644Z</time>
      </trkpt>
      <trkpt lat="43.23279167" lon="-6.77896333">
        <ele>992.0</ele>
        <time>2022-06-19T05:52:03.628Z</time>
      </trkpt>
      <trkpt lat="43.232785" lon="-6.77901333">
        <ele>992.0</ele>
        <time>2022-06-19T05:52:04.606Z</time>
      </trkpt>
      <trkpt lat="43.232785" lon="-6.77901333">
        <ele>992.0</ele>
        <time>2022-06-19T05:52:05.629Z</time>
      </trkpt>
      <trkpt lat="43.23277667" lon="-6.77910667">
        <ele>992.0</ele>
        <time>2022-06-19T05:52:06.617Z</time>
      </trkpt>
      <trkpt lat="43.23277667" lon="-6.77910667">
        <ele>992.0</ele>
        <time>2022-06-19T05:52:07.607Z</time>
      </trkpt>
      <trkpt lat="43.23277333" lon="-6.7792">
        <ele>991.0</ele>
        <time>2022-06-19T05:52:08.602Z</time>
      </trkpt>
      <trkpt lat="43.23277333" lon="-6.7792">
        <ele>991.0</ele>
        <time>2022-06-19T05:52:09.616Z</time>
      </trkpt>
      <trkpt lat="43.23276833" lon="-6.7793">
        <ele>990.0</ele>
        <time>2022-06-19T05:52:10.627Z</time>
      </trkpt>
      <trkpt lat="43.23276833" lon="-6.7793">
        <ele>990.0</ele>
        <time>2022-06-19T05:52:11.602Z</time>
      </trkpt>
      <trkpt lat="43.23276" lon="-6.77940333">
        <ele>990.0</ele>
        <time>2022-06-19T05:52:12.620Z</time>
      </trkpt>
      <trkpt lat="43.23276" lon="-6.77940333">
        <ele>990.0</ele>
        <time>2022-06-19T05:52:13.631Z</time>
      </trkpt>
      <trkpt lat="43.23274333" lon="-6.779495">
        <ele>989.0</ele>
        <time>2022-06-19T05:52:14.615Z</time>
      </trkpt>
      <trkpt lat="43.23273333" lon="-6.77953833">
        <ele>989.0</ele>
        <time>2022-06-19T05:52:15.623Z</time>
      </trkpt>
      <trkpt lat="43.23273333" lon="-6.77953833">
        <ele>989.0</ele>
        <time>2022-06-19T05:52:16.613Z</time>
      </trkpt>
      <trkpt lat="43.23270667" lon="-6.77961833">
        <ele>989.0</ele>
        <time>2022-06-19T05:52:17.633Z</time>
      </trkpt>
      <trkpt lat="43.23270667" lon="-6.77961833">
        <ele>989.0</ele>
        <time>2022-06-19T05:52:18.615Z</time>
      </trkpt>
      <trkpt lat="43.23268667" lon="-6.77969833">
        <ele>989.0</ele>
        <time>2022-06-19T05:52:19.629Z</time>
      </trkpt>
      <trkpt lat="43.23268667" lon="-6.77969833">
        <ele>989.0</ele>
        <time>2022-06-19T05:52:20.622Z</time>
      </trkpt>
      <trkpt lat="43.23267" lon="-6.77978167">
        <ele>989.0</ele>
        <time>2022-06-19T05:52:21.630Z</time>
      </trkpt>
      <trkpt lat="43.23266333" lon="-6.779825">
        <ele>989.0</ele>
        <time>2022-06-19T05:52:22.620Z</time>
      </trkpt>
      <trkpt lat="43.23266333" lon="-6.779825">
        <ele>989.0</ele>
        <time>2022-06-19T05:52:23.597Z</time>
      </trkpt>
      <trkpt lat="43.23264333" lon="-6.77991667">
        <ele>989.0</ele>
        <time>2022-06-19T05:52:24.618Z</time>
      </trkpt>
      <trkpt lat="43.23264333" lon="-6.77991667">
        <ele>989.0</ele>
        <time>2022-06-19T05:52:25.628Z</time>
      </trkpt>
      <trkpt lat="43.23260833" lon="-6.78000833">
        <ele>989.0</ele>
        <time>2022-06-19T05:52:26.600Z</time>
      </trkpt>
      <trkpt lat="43.23260833" lon="-6.78000833">
        <ele>989.0</ele>
        <time>2022-06-19T05:52:27.619Z</time>
      </trkpt>
      <trkpt lat="43.23258167" lon="-6.78011667">
        <ele>989.0</ele>
        <time>2022-06-19T05:52:28.631Z</time>
      </trkpt>
      <trkpt lat="43.23258167" lon="-6.78011667">
        <ele>989.0</ele>
        <time>2022-06-19T05:52:29.619Z</time>
      </trkpt>
      <trkpt lat="43.232555" lon="-6.780245">
        <ele>988.0</ele>
        <time>2022-06-19T05:52:30.597Z</time>
      </trkpt>
      <trkpt lat="43.232555" lon="-6.780245">
        <ele>988.0</ele>
        <time>2022-06-19T05:52:31.618Z</time>
      </trkpt>
      <trkpt lat="43.23252333" lon="-6.780385">
        <ele>988.0</ele>
        <time>2022-06-19T05:52:32.597Z</time>
      </trkpt>
      <trkpt lat="43.23252333" lon="-6.780385">
        <ele>988.0</ele>
        <time>2022-06-19T05:52:33.607Z</time>
      </trkpt>
      <trkpt lat="43.23248333" lon="-6.78054333">
        <ele>987.0</ele>
        <time>2022-06-19T05:52:34.623Z</time>
      </trkpt>
      <trkpt lat="43.23246" lon="-6.780625">
        <ele>987.0</ele>
        <time>2022-06-19T05:52:35.616Z</time>
      </trkpt>
      <trkpt lat="43.23243667" lon="-6.78071">
        <ele>987.0</ele>
        <time>2022-06-19T05:52:36.613Z</time>
      </trkpt>
      <trkpt lat="43.23243667" lon="-6.78071">
        <ele>987.0</ele>
        <time>2022-06-19T05:52:37.628Z</time>
      </trkpt>
      <trkpt lat="43.23239167" lon="-6.780885">
        <ele>986.0</ele>
        <time>2022-06-19T05:52:38.604Z</time>
      </trkpt>
      <trkpt lat="43.23239167" lon="-6.780885">
        <ele>986.0</ele>
        <time>2022-06-19T05:52:39.606Z</time>
      </trkpt>
      <trkpt lat="43.232345" lon="-6.78106333">
        <ele>985.0</ele>
        <time>2022-06-19T05:52:40.627Z</time>
      </trkpt>
      <trkpt lat="43.232345" lon="-6.78106333">
        <ele>985.0</ele>
        <time>2022-06-19T05:52:41.599Z</time>
      </trkpt>
      <trkpt lat="43.232285" lon="-6.78122">
        <ele>984.0</ele>
        <time>2022-06-19T05:52:42.626Z</time>
      </trkpt>
      <trkpt lat="43.232285" lon="-6.78122">
        <ele>984.0</ele>
        <time>2022-06-19T05:52:43.595Z</time>
      </trkpt>
      <trkpt lat="43.232205" lon="-6.781375">
        <ele>982.0</ele>
        <time>2022-06-19T05:52:44.616Z</time>
      </trkpt>
      <trkpt lat="43.23215667" lon="-6.78144667">
        <ele>982.0</ele>
        <time>2022-06-19T05:52:45.615Z</time>
      </trkpt>
      <trkpt lat="43.23215667" lon="-6.78144667">
        <ele>982.0</ele>
        <time>2022-06-19T05:52:46.597Z</time>
      </trkpt>
      <trkpt lat="43.23205" lon="-6.78159">
        <ele>980.0</ele>
        <time>2022-06-19T05:52:47.627Z</time>
      </trkpt>
      <trkpt lat="43.23205" lon="-6.78159">
        <ele>980.0</ele>
        <time>2022-06-19T05:52:48.597Z</time>
      </trkpt>
      <trkpt lat="43.23194333" lon="-6.78170833">
        <ele>979.0</ele>
        <time>2022-06-19T05:52:49.596Z</time>
      </trkpt>
      <trkpt lat="43.23189167" lon="-6.78176167">
        <ele>978.0</ele>
        <time>2022-06-19T05:52:50.628Z</time>
      </trkpt>
      <trkpt lat="43.23189167" lon="-6.78176167">
        <ele>978.0</ele>
        <time>2022-06-19T05:52:51.601Z</time>
      </trkpt>
      <trkpt lat="43.23179667" lon="-6.781865">
        <ele>976.0</ele>
        <time>2022-06-19T05:52:52.632Z</time>
      </trkpt>
      <trkpt lat="43.23179667" lon="-6.781865">
        <ele>976.0</ele>
        <time>2022-06-19T05:52:53.611Z</time>
      </trkpt>
      <trkpt lat="43.23171333" lon="-6.78194667">
        <ele>974.0</ele>
        <time>2022-06-19T05:52:54.622Z</time>
      </trkpt>
      <trkpt lat="43.23167333" lon="-6.781975">
        <ele>974.0</ele>
        <time>2022-06-19T05:52:55.604Z</time>
      </trkpt>
      <trkpt lat="43.23167333" lon="-6.781975">
        <ele>974.0</ele>
        <time>2022-06-19T05:52:56.630Z</time>
      </trkpt>
      <trkpt lat="43.23161167" lon="-6.782035">
        <ele>972.0</ele>
        <time>2022-06-19T05:52:57.600Z</time>
      </trkpt>
      <trkpt lat="43.23161167" lon="-6.782035">
        <ele>972.0</ele>
        <time>2022-06-19T05:52:58.611Z</time>
      </trkpt>
      <trkpt lat="43.231555" lon="-6.78208667">
        <ele>970.0</ele>
        <time>2022-06-19T05:52:59.603Z</time>
      </trkpt>
      <trkpt lat="43.23152333" lon="-6.78211667">
        <ele>969.0</ele>
        <time>2022-06-19T05:53:00.619Z</time>
      </trkpt>
      <trkpt lat="43.23152333" lon="-6.78211667">
        <ele>969.0</ele>
        <time>2022-06-19T05:53:01.613Z</time>
      </trkpt>
      <trkpt lat="43.23146833" lon="-6.78217333">
        <ele>968.0</ele>
        <time>2022-06-19T05:53:02.632Z</time>
      </trkpt>
      <trkpt lat="43.23146833" lon="-6.78217333">
        <ele>968.0</ele>
        <time>2022-06-19T05:53:03.605Z</time>
      </trkpt>
      <trkpt lat="43.23140833" lon="-6.78222833">
        <ele>966.0</ele>
        <time>2022-06-19T05:53:04.620Z</time>
      </trkpt>
      <trkpt lat="43.23140833" lon="-6.78222833">
        <ele>966.0</ele>
        <time>2022-06-19T05:53:05.602Z</time>
      </trkpt>
      <trkpt lat="43.23133833" lon="-6.782305">
        <ele>966.0</ele>
        <time>2022-06-19T05:53:06.613Z</time>
      </trkpt>
      <trkpt lat="43.23129667" lon="-6.78234333">
        <ele>965.0</ele>
        <time>2022-06-19T05:53:07.629Z</time>
      </trkpt>
      <trkpt lat="43.23129667" lon="-6.78234333">
        <ele>965.0</ele>
        <time>2022-06-19T05:53:08.619Z</time>
      </trkpt>
      <trkpt lat="43.231205" lon="-6.782415">
        <ele>965.0</ele>
        <time>2022-06-19T05:53:09.630Z</time>
      </trkpt>
      <trkpt lat="43.231205" lon="-6.782415">
        <ele>965.0</ele>
        <time>2022-06-19T05:53:10.604Z</time>
      </trkpt>
      <trkpt lat="43.23110667" lon="-6.782485">
        <ele>964.0</ele>
        <time>2022-06-19T05:53:11.620Z</time>
      </trkpt>
      <trkpt lat="43.23106333" lon="-6.78252333">
        <ele>964.0</ele>
        <time>2022-06-19T05:53:12.597Z</time>
      </trkpt>
      <trkpt lat="43.23101667" lon="-6.78255833">
        <ele>964.0</ele>
        <time>2022-06-19T05:53:13.627Z</time>
      </trkpt>
      <trkpt lat="43.23101667" lon="-6.78255833">
        <ele>964.0</ele>
        <time>2022-06-19T05:53:14.596Z</time>
      </trkpt>
      <trkpt lat="43.23092333" lon="-6.78262667">
        <ele>964.0</ele>
        <time>2022-06-19T05:53:15.617Z</time>
      </trkpt>
      <trkpt lat="43.23087833" lon="-6.78266">
        <ele>964.0</ele>
        <time>2022-06-19T05:53:16.599Z</time>
      </trkpt>
      <trkpt lat="43.23083" lon="-6.782695">
        <ele>964.0</ele>
        <time>2022-06-19T05:53:17.626Z</time>
      </trkpt>
      <trkpt lat="43.23083" lon="-6.782695">
        <ele>964.0</ele>
        <time>2022-06-19T05:53:18.608Z</time>
      </trkpt>
      <trkpt lat="43.23074" lon="-6.78278167">
        <ele>963.0</ele>
        <time>2022-06-19T05:53:19.597Z</time>
      </trkpt>
      <trkpt lat="43.23070167" lon="-6.78282833">
        <ele>963.0</ele>
        <time>2022-06-19T05:53:20.626Z</time>
      </trkpt>
      <trkpt lat="43.23070167" lon="-6.78282833">
        <ele>963.0</ele>
        <time>2022-06-19T05:53:21.620Z</time>
      </trkpt>
      <trkpt lat="43.23063667" lon="-6.78290333">
        <ele>963.0</ele>
        <time>2022-06-19T05:53:22.609Z</time>
      </trkpt>
      <trkpt lat="43.23063667" lon="-6.78290333">
        <ele>963.0</ele>
        <time>2022-06-19T05:53:23.624Z</time>
      </trkpt>
      <trkpt lat="43.23058333" lon="-6.78294833">
        <ele>962.0</ele>
        <time>2022-06-19T05:53:24.598Z</time>
      </trkpt>
      <trkpt lat="43.230565" lon="-6.78297667">
        <ele>961.0</ele>
        <time>2022-06-19T05:53:25.623Z</time>
      </trkpt>
      <trkpt lat="43.230565" lon="-6.78297667">
        <ele>961.0</ele>
        <time>2022-06-19T05:53:26.619Z</time>
      </trkpt>
      <trkpt lat="43.230535" lon="-6.78303167">
        <ele>961.0</ele>
        <time>2022-06-19T05:53:27.597Z</time>
      </trkpt>
      <trkpt lat="43.230535" lon="-6.78303167">
        <ele>961.0</ele>
        <time>2022-06-19T05:53:28.610Z</time>
      </trkpt>
      <trkpt lat="43.23050833" lon="-6.78309167">
        <ele>960.0</ele>
        <time>2022-06-19T05:53:29.615Z</time>
      </trkpt>
      <trkpt lat="43.23050167" lon="-6.78313333">
        <ele>960.0</ele>
        <time>2022-06-19T05:53:30.606Z</time>
      </trkpt>
      <trkpt lat="43.23050167" lon="-6.78313333">
        <ele>960.0</ele>
        <time>2022-06-19T05:53:31.603Z</time>
      </trkpt>
      <trkpt lat="43.23049667" lon="-6.78323">
        <ele>959.0</ele>
        <time>2022-06-19T05:53:32.623Z</time>
      </trkpt>
      <trkpt lat="43.23049667" lon="-6.78323">
        <ele>959.0</ele>
        <time>2022-06-19T05:53:33.620Z</time>
      </trkpt>
      <trkpt lat="43.23050667" lon="-6.78333667">
        <ele>958.0</ele>
        <time>2022-06-19T05:53:34.600Z</time>
      </trkpt>
      <trkpt lat="43.23050667" lon="-6.78333667">
        <ele>958.0</ele>
        <time>2022-06-19T05:53:35.611Z</time>
      </trkpt>
      <trkpt lat="43.23051667" lon="-6.783435">
        <ele>958.0</ele>
        <time>2022-06-19T05:53:36.595Z</time>
      </trkpt>
      <trkpt lat="43.23051667" lon="-6.783435">
        <ele>958.0</ele>
        <time>2022-06-19T05:53:37.616Z</time>
      </trkpt>
      <trkpt lat="43.23051667" lon="-6.78361">
        <ele>959.0</ele>
        <time>2022-06-19T05:53:38.630Z</time>
      </trkpt>
      <trkpt lat="43.23051667" lon="-6.78361">
        <ele>959.0</ele>
        <time>2022-06-19T05:53:39.613Z</time>
      </trkpt>
      <trkpt lat="43.23054" lon="-6.78370333">
        <ele>960.0</ele>
        <time>2022-06-19T05:53:40.632Z</time>
      </trkpt>
      <trkpt lat="43.23054" lon="-6.78370333">
        <ele>960.0</ele>
        <time>2022-06-19T05:53:41.599Z</time>
      </trkpt>
      <trkpt lat="43.230565" lon="-6.78373833">
        <ele>960.0</ele>
        <time>2022-06-19T05:53:42.597Z</time>
      </trkpt>
      <trkpt lat="43.230565" lon="-6.78373833">
        <ele>960.0</ele>
        <time>2022-06-19T05:53:43.629Z</time>
      </trkpt>
      <trkpt lat="43.230585" lon="-6.78376">
        <ele>961.0</ele>
        <time>2022-06-19T05:53:44.607Z</time>
      </trkpt>
      <trkpt lat="43.230585" lon="-6.78376">
        <ele>961.0</ele>
        <time>2022-06-19T05:53:45.620Z</time>
      </trkpt>
      <trkpt lat="43.23059167" lon="-6.78376667">
        <ele>961.0</ele>
        <time>2022-06-19T05:53:46.599Z</time>
      </trkpt>
      <trkpt lat="43.230595" lon="-6.783765">
        <ele>961.0</ele>
        <time>2022-06-19T05:53:47.603Z</time>
      </trkpt>
      <trkpt lat="43.230595" lon="-6.783765">
        <ele>961.0</ele>
        <time>2022-06-19T05:53:57.626Z</time>
      </trkpt>
      <trkpt lat="43.230605" lon="-6.78390333">
        <ele>963.0</ele>
        <time>2022-06-19T05:53:58.617Z</time>
      </trkpt>
      <trkpt lat="43.230605" lon="-6.78390333">
        <ele>963.0</ele>
        <time>2022-06-19T05:53:59.616Z</time>
      </trkpt>
      <trkpt lat="43.23064167" lon="-6.78406">
        <ele>964.0</ele>
        <time>2022-06-19T05:54:06.613Z</time>
      </trkpt>
      <trkpt lat="43.23064167" lon="-6.78406">
        <ele>964.0</ele>
        <time>2022-06-19T05:54:07.630Z</time>
      </trkpt>
      <trkpt lat="43.23065833" lon="-6.784145">
        <ele>964.0</ele>
        <time>2022-06-19T05:54:08.637Z</time>
      </trkpt>
      <trkpt lat="43.23066" lon="-6.78419">
        <ele>964.0</ele>
        <time>2022-06-19T05:54:09.616Z</time>
      </trkpt>
      <trkpt lat="43.23066" lon="-6.78419">
        <ele>964.0</ele>
        <time>2022-06-19T05:54:10.624Z</time>
      </trkpt>
      <trkpt lat="43.230665" lon="-6.78429833">
        <ele>964.0</ele>
        <time>2022-06-19T05:54:11.603Z</time>
      </trkpt>
      <trkpt lat="43.23066667" lon="-6.78436167">
        <ele>964.0</ele>
        <time>2022-06-19T05:54:12.639Z</time>
      </trkpt>
      <trkpt lat="43.23066667" lon="-6.78442833">
        <ele>964.0</ele>
        <time>2022-06-19T05:54:13.634Z</time>
      </trkpt>
      <trkpt lat="43.23066667" lon="-6.78442833">
        <ele>964.0</ele>
        <time>2022-06-19T05:54:14.605Z</time>
      </trkpt>
      <trkpt lat="43.23063667" lon="-6.78456333">
        <ele>964.0</ele>
        <time>2022-06-19T05:54:15.645Z</time>
      </trkpt>
      <trkpt lat="43.23062" lon="-6.78463">
        <ele>964.0</ele>
        <time>2022-06-19T05:54:16.637Z</time>
      </trkpt>
      <trkpt lat="43.23062" lon="-6.78463">
        <ele>964.0</ele>
        <time>2022-06-19T05:54:17.610Z</time>
      </trkpt>
      <trkpt lat="43.23057167" lon="-6.78477">
        <ele>965.0</ele>
        <time>2022-06-19T05:54:18.639Z</time>
      </trkpt>
      <trkpt lat="43.23053667" lon="-6.78483667">
        <ele>965.0</ele>
        <time>2022-06-19T05:54:19.620Z</time>
      </trkpt>
      <trkpt lat="43.23053667" lon="-6.78483667">
        <ele>965.0</ele>
        <time>2022-06-19T05:54:20.629Z</time>
      </trkpt>
      <trkpt lat="43.23046167" lon="-6.784965">
        <ele>964.0</ele>
        <time>2022-06-19T05:54:21.609Z</time>
      </trkpt>
      <trkpt lat="43.230425" lon="-6.78502833">
        <ele>964.0</ele>
        <time>2022-06-19T05:54:22.635Z</time>
      </trkpt>
      <trkpt lat="43.230425" lon="-6.78502833">
        <ele>964.0</ele>
        <time>2022-06-19T05:54:23.605Z</time>
      </trkpt>
      <trkpt lat="43.23035167" lon="-6.78516">
        <ele>963.0</ele>
        <time>2022-06-19T05:54:24.619Z</time>
      </trkpt>
      <trkpt lat="43.23030667" lon="-6.785225">
        <ele>963.0</ele>
        <time>2022-06-19T05:54:25.641Z</time>
      </trkpt>
      <trkpt lat="43.23030667" lon="-6.785225">
        <ele>963.0</ele>
        <time>2022-06-19T05:54:26.621Z</time>
      </trkpt>
      <trkpt lat="43.23023833" lon="-6.78535667">
        <ele>962.0</ele>
        <time>2022-06-19T05:54:27.637Z</time>
      </trkpt>
      <trkpt lat="43.23020833" lon="-6.78542167">
        <ele>962.0</ele>
        <time>2022-06-19T05:54:28.613Z</time>
      </trkpt>
      <trkpt lat="43.230185" lon="-6.78549">
        <ele>962.0</ele>
        <time>2022-06-19T05:54:29.629Z</time>
      </trkpt>
      <trkpt lat="43.230185" lon="-6.78549">
        <ele>962.0</ele>
        <time>2022-06-19T05:54:30.637Z</time>
      </trkpt>
      <trkpt lat="43.230135" lon="-6.78560333">
        <ele>961.0</ele>
        <time>2022-06-19T05:54:31.624Z</time>
      </trkpt>
      <trkpt lat="43.23012" lon="-6.78564333">
        <ele>961.0</ele>
        <time>2022-06-19T05:54:32.642Z</time>
      </trkpt>
      <trkpt lat="43.23010833" lon="-6.78567833">
        <ele>961.0</ele>
        <time>2022-06-19T05:54:33.639Z</time>
      </trkpt>
      <trkpt lat="43.23010833" lon="-6.78567833">
        <ele>961.0</ele>
        <time>2022-06-19T05:54:34.610Z</time>
      </trkpt>
      <trkpt lat="43.23007333" lon="-6.78574667">
        <ele>960.0</ele>
        <time>2022-06-19T05:54:35.629Z</time>
      </trkpt>
      <trkpt lat="43.23007333" lon="-6.78574667">
        <ele>960.0</ele>
        <time>2022-06-19T05:54:36.621Z</time>
      </trkpt>
      <trkpt lat="43.23005167" lon="-6.78582167">
        <ele>960.0</ele>
        <time>2022-06-19T05:54:37.641Z</time>
      </trkpt>
      <trkpt lat="43.23005167" lon="-6.78582167">
        <ele>960.0</ele>
        <time>2022-06-19T05:54:38.618Z</time>
      </trkpt>
      <trkpt lat="43.23002167" lon="-6.78589667">
        <ele>959.0</ele>
        <time>2022-06-19T05:54:39.603Z</time>
      </trkpt>
      <trkpt lat="43.23002167" lon="-6.78589667">
        <ele>959.0</ele>
        <time>2022-06-19T05:54:40.625Z</time>
      </trkpt>
      <trkpt lat="43.22999" lon="-6.78600667">
        <ele>959.0</ele>
        <time>2022-06-19T05:54:41.642Z</time>
      </trkpt>
      <trkpt lat="43.22996833" lon="-6.78604833">
        <ele>959.0</ele>
        <time>2022-06-19T05:54:42.625Z</time>
      </trkpt>
      <trkpt lat="43.22996833" lon="-6.78604833">
        <ele>959.0</ele>
        <time>2022-06-19T05:54:43.637Z</time>
      </trkpt>
      <trkpt lat="43.22991833" lon="-6.78613833">
        <ele>958.0</ele>
        <time>2022-06-19T05:54:44.612Z</time>
      </trkpt>
      <trkpt lat="43.22991833" lon="-6.78613833">
        <ele>958.0</ele>
        <time>2022-06-19T05:54:45.624Z</time>
      </trkpt>
      <trkpt lat="43.22985167" lon="-6.78624333">
        <ele>957.0</ele>
        <time>2022-06-19T05:54:46.640Z</time>
      </trkpt>
      <trkpt lat="43.22985167" lon="-6.78624333">
        <ele>957.0</ele>
        <time>2022-06-19T05:54:47.639Z</time>
      </trkpt>
      <trkpt lat="43.22976" lon="-6.78633167">
        <ele>956.0</ele>
        <time>2022-06-19T05:54:48.613Z</time>
      </trkpt>
      <trkpt lat="43.22976" lon="-6.78633167">
        <ele>956.0</ele>
        <time>2022-06-19T05:54:49.636Z</time>
      </trkpt>
      <trkpt lat="43.22964667" lon="-6.786415">
        <ele>955.0</ele>
        <time>2022-06-19T05:54:50.616Z</time>
      </trkpt>
      <trkpt lat="43.22958" lon="-6.78647">
        <ele>954.0</ele>
        <time>2022-06-19T05:54:51.625Z</time>
      </trkpt>
      <trkpt lat="43.22958" lon="-6.78647">
        <ele>954.0</ele>
        <time>2022-06-19T05:54:52.603Z</time>
      </trkpt>
      <trkpt lat="43.22945333" lon="-6.78657167">
        <ele>953.0</ele>
        <time>2022-06-19T05:54:53.622Z</time>
      </trkpt>
      <trkpt lat="43.22941333" lon="-6.78662167">
        <ele>952.0</ele>
        <time>2022-06-19T05:54:54.610Z</time>
      </trkpt>
      <trkpt lat="43.22941333" lon="-6.78662167">
        <ele>952.0</ele>
        <time>2022-06-19T05:54:55.631Z</time>
      </trkpt>
      <trkpt lat="43.22933" lon="-6.78668167">
        <ele>951.0</ele>
        <time>2022-06-19T05:54:56.606Z</time>
      </trkpt>
      <trkpt lat="43.22933" lon="-6.78668167">
        <ele>951.0</ele>
        <time>2022-06-19T05:54:57.618Z</time>
      </trkpt>
      <trkpt lat="43.22923667" lon="-6.78672333">
        <ele>950.0</ele>
        <time>2022-06-19T05:54:58.631Z</time>
      </trkpt>
      <trkpt lat="43.22923667" lon="-6.78672333">
        <ele>950.0</ele>
        <time>2022-06-19T05:54:59.608Z</time>
      </trkpt>
      <trkpt lat="43.22914" lon="-6.786765">
        <ele>949.0</ele>
        <time>2022-06-19T05:55:00.625Z</time>
      </trkpt>
      <trkpt lat="43.22914" lon="-6.786765">
        <ele>949.0</ele>
        <time>2022-06-19T05:55:01.608Z</time>
      </trkpt>
      <trkpt lat="43.22906333" lon="-6.78681167">
        <ele>948.0</ele>
        <time>2022-06-19T05:55:02.640Z</time>
      </trkpt>
      <trkpt lat="43.22906333" lon="-6.78681167">
        <ele>948.0</ele>
        <time>2022-06-19T05:55:03.616Z</time>
      </trkpt>
      <trkpt lat="43.228975" lon="-6.78684333">
        <ele>947.0</ele>
        <time>2022-06-19T05:55:04.640Z</time>
      </trkpt>
      <trkpt lat="43.22892" lon="-6.78685167">
        <ele>946.0</ele>
        <time>2022-06-19T05:55:05.603Z</time>
      </trkpt>
      <trkpt lat="43.22892" lon="-6.78685167">
        <ele>946.0</ele>
        <time>2022-06-19T05:55:06.613Z</time>
      </trkpt>
      <trkpt lat="43.22880833" lon="-6.78686">
        <ele>945.0</ele>
        <time>2022-06-19T05:55:07.609Z</time>
      </trkpt>
      <trkpt lat="43.22880833" lon="-6.78686">
        <ele>945.0</ele>
        <time>2022-06-19T05:55:08.617Z</time>
      </trkpt>
      <trkpt lat="43.22868333" lon="-6.78687167">
        <ele>944.0</ele>
        <time>2022-06-19T05:55:09.605Z</time>
      </trkpt>
      <trkpt lat="43.22862" lon="-6.78689333">
        <ele>943.0</ele>
        <time>2022-06-19T05:55:10.619Z</time>
      </trkpt>
      <trkpt lat="43.22862" lon="-6.78689333">
        <ele>943.0</ele>
        <time>2022-06-19T05:55:11.641Z</time>
      </trkpt>
      <trkpt lat="43.22853167" lon="-6.78703333">
        <ele>942.0</ele>
        <time>2022-06-19T05:55:12.614Z</time>
      </trkpt>
      <trkpt lat="43.22853167" lon="-6.78703333">
        <ele>942.0</ele>
        <time>2022-06-19T05:55:13.629Z</time>
      </trkpt>
      <trkpt lat="43.22849" lon="-6.78720333">
        <ele>941.0</ele>
        <time>2022-06-19T05:55:14.613Z</time>
      </trkpt>
      <trkpt lat="43.22849" lon="-6.78720333">
        <ele>941.0</ele>
        <time>2022-06-19T05:55:15.625Z</time>
      </trkpt>
      <trkpt lat="43.228445" lon="-6.78735833">
        <ele>941.0</ele>
        <time>2022-06-19T05:55:16.638Z</time>
      </trkpt>
      <trkpt lat="43.228445" lon="-6.78735833">
        <ele>941.0</ele>
        <time>2022-06-19T05:55:17.611Z</time>
      </trkpt>
      <trkpt lat="43.22838167" lon="-6.787495">
        <ele>941.0</ele>
        <time>2022-06-19T05:55:18.628Z</time>
      </trkpt>
      <trkpt lat="43.22838167" lon="-6.787495">
        <ele>941.0</ele>
        <time>2022-06-19T05:55:19.631Z</time>
      </trkpt>
      <trkpt lat="43.22832167" lon="-6.78761333">
        <ele>940.0</ele>
        <time>2022-06-19T05:55:20.644Z</time>
      </trkpt>
      <trkpt lat="43.22832167" lon="-6.78761333">
        <ele>940.0</ele>
        <time>2022-06-19T05:55:21.612Z</time>
      </trkpt>
      <trkpt lat="43.22826667" lon="-6.78773">
        <ele>940.0</ele>
        <time>2022-06-19T05:55:22.632Z</time>
      </trkpt>
      <trkpt lat="43.22826667" lon="-6.78773">
        <ele>940.0</ele>
        <time>2022-06-19T05:55:23.607Z</time>
      </trkpt>
      <trkpt lat="43.22821333" lon="-6.78785333">
        <ele>940.0</ele>
        <time>2022-06-19T05:55:24.631Z</time>
      </trkpt>
      <trkpt lat="43.22821333" lon="-6.78785333">
        <ele>940.0</ele>
        <time>2022-06-19T05:55:25.640Z</time>
      </trkpt>
      <trkpt lat="43.22817333" lon="-6.787985">
        <ele>940.0</ele>
        <time>2022-06-19T05:55:26.615Z</time>
      </trkpt>
      <trkpt lat="43.22817333" lon="-6.787985">
        <ele>940.0</ele>
        <time>2022-06-19T05:55:27.632Z</time>
      </trkpt>
      <trkpt lat="43.22813833" lon="-6.78811">
        <ele>940.0</ele>
        <time>2022-06-19T05:55:28.606Z</time>
      </trkpt>
      <trkpt lat="43.22813833" lon="-6.78811">
        <ele>940.0</ele>
        <time>2022-06-19T05:55:29.615Z</time>
      </trkpt>
      <trkpt lat="43.228095" lon="-6.78822667">
        <ele>941.0</ele>
        <time>2022-06-19T05:55:30.619Z</time>
      </trkpt>
      <trkpt lat="43.228095" lon="-6.78822667">
        <ele>941.0</ele>
        <time>2022-06-19T05:55:31.634Z</time>
      </trkpt>
      <trkpt lat="43.22805167" lon="-6.788335">
        <ele>942.0</ele>
        <time>2022-06-19T05:55:32.616Z</time>
      </trkpt>
      <trkpt lat="43.22803333" lon="-6.78838667">
        <ele>942.0</ele>
        <time>2022-06-19T05:55:33.608Z</time>
      </trkpt>
      <trkpt lat="43.22803333" lon="-6.78838667">
        <ele>942.0</ele>
        <time>2022-06-19T05:55:34.636Z</time>
      </trkpt>
      <trkpt lat="43.22798833" lon="-6.78847833">
        <ele>942.0</ele>
        <time>2022-06-19T05:55:35.611Z</time>
      </trkpt>
      <trkpt lat="43.22796833" lon="-6.78852">
        <ele>942.0</ele>
        <time>2022-06-19T05:55:36.630Z</time>
      </trkpt>
      <trkpt lat="43.22796833" lon="-6.78852">
        <ele>942.0</ele>
        <time>2022-06-19T05:55:37.642Z</time>
      </trkpt>
      <trkpt lat="43.22792833" lon="-6.78860667">
        <ele>942.0</ele>
        <time>2022-06-19T05:55:38.620Z</time>
      </trkpt>
      <trkpt lat="43.22792833" lon="-6.78860667">
        <ele>942.0</ele>
        <time>2022-06-19T05:55:39.629Z</time>
      </trkpt>
      <trkpt lat="43.22788667" lon="-6.78869667">
        <ele>942.0</ele>
        <time>2022-06-19T05:55:40.617Z</time>
      </trkpt>
      <trkpt lat="43.22788667" lon="-6.78869667">
        <ele>942.0</ele>
        <time>2022-06-19T05:55:41.633Z</time>
      </trkpt>
      <trkpt lat="43.22783333" lon="-6.78878833">
        <ele>942.0</ele>
        <time>2022-06-19T05:55:42.610Z</time>
      </trkpt>
      <trkpt lat="43.22783333" lon="-6.78878833">
        <ele>942.0</ele>
        <time>2022-06-19T05:55:43.622Z</time>
      </trkpt>
      <trkpt lat="43.22778667" lon="-6.78887833">
        <ele>942.0</ele>
        <time>2022-06-19T05:55:44.610Z</time>
      </trkpt>
      <trkpt lat="43.22775833" lon="-6.78892333">
        <ele>941.0</ele>
        <time>2022-06-19T05:55:45.605Z</time>
      </trkpt>
      <trkpt lat="43.22773333" lon="-6.78896667">
        <ele>941.0</ele>
        <time>2022-06-19T05:55:46.625Z</time>
      </trkpt>
      <trkpt lat="43.22773333" lon="-6.78896667">
        <ele>941.0</ele>
        <time>2022-06-19T05:55:47.608Z</time>
      </trkpt>
      <trkpt lat="43.22767667" lon="-6.78905167">
        <ele>941.0</ele>
        <time>2022-06-19T05:55:48.631Z</time>
      </trkpt>
      <trkpt lat="43.22767667" lon="-6.78905167">
        <ele>941.0</ele>
        <time>2022-06-19T05:55:49.640Z</time>
      </trkpt>
      <trkpt lat="43.227625" lon="-6.78914333">
        <ele>941.0</ele>
        <time>2022-06-19T05:55:50.623Z</time>
      </trkpt>
      <trkpt lat="43.227625" lon="-6.78914333">
        <ele>941.0</ele>
        <time>2022-06-19T05:55:51.623Z</time>
      </trkpt>
      <trkpt lat="43.22757" lon="-6.78922833">
        <ele>941.0</ele>
        <time>2022-06-19T05:55:52.605Z</time>
      </trkpt>
      <trkpt lat="43.22757" lon="-6.78922833">
        <ele>941.0</ele>
        <time>2022-06-19T05:55:53.627Z</time>
      </trkpt>
      <trkpt lat="43.22751" lon="-6.789305">
        <ele>941.0</ele>
        <time>2022-06-19T05:55:54.611Z</time>
      </trkpt>
      <trkpt lat="43.22748" lon="-6.78935167">
        <ele>940.0</ele>
        <time>2022-06-19T05:55:55.642Z</time>
      </trkpt>
      <trkpt lat="43.22748" lon="-6.78935167">
        <ele>940.0</ele>
        <time>2022-06-19T05:55:56.623Z</time>
      </trkpt>
      <trkpt lat="43.227415" lon="-6.78944833">
        <ele>940.0</ele>
        <time>2022-06-19T05:55:57.642Z</time>
      </trkpt>
      <trkpt lat="43.227415" lon="-6.78944833">
        <ele>940.0</ele>
        <time>2022-06-19T05:55:58.614Z</time>
      </trkpt>
      <trkpt lat="43.227345" lon="-6.78955167">
        <ele>939.0</ele>
        <time>2022-06-19T05:55:59.606Z</time>
      </trkpt>
      <trkpt lat="43.22730667" lon="-6.78959667">
        <ele>938.0</ele>
        <time>2022-06-19T05:56:00.638Z</time>
      </trkpt>
      <trkpt lat="43.22730667" lon="-6.78959667">
        <ele>938.0</ele>
        <time>2022-06-19T05:56:01.617Z</time>
      </trkpt>
      <trkpt lat="43.22722167" lon="-6.789685">
        <ele>937.0</ele>
        <time>2022-06-19T05:56:02.608Z</time>
      </trkpt>
      <trkpt lat="43.227175" lon="-6.78973167">
        <ele>937.0</ele>
        <time>2022-06-19T05:56:03.629Z</time>
      </trkpt>
      <trkpt lat="43.227175" lon="-6.78973167">
        <ele>937.0</ele>
        <time>2022-06-19T05:56:04.617Z</time>
      </trkpt>
      <trkpt lat="43.22707" lon="-6.78982">
        <ele>936.0</ele>
        <time>2022-06-19T05:56:05.629Z</time>
      </trkpt>
      <trkpt lat="43.227015" lon="-6.78986333">
        <ele>935.0</ele>
        <time>2022-06-19T05:56:06.625Z</time>
      </trkpt>
      <trkpt lat="43.22696" lon="-6.78991167">
        <ele>935.0</ele>
        <time>2022-06-19T05:56:07.625Z</time>
      </trkpt>
      <trkpt lat="43.22696" lon="-6.78991167">
        <ele>935.0</ele>
        <time>2022-06-19T05:56:08.628Z</time>
      </trkpt>
      <trkpt lat="43.22683667" lon="-6.79000833">
        <ele>934.0</ele>
        <time>2022-06-19T05:56:09.620Z</time>
      </trkpt>
      <trkpt lat="43.22683667" lon="-6.79000833">
        <ele>934.0</ele>
        <time>2022-06-19T05:56:10.638Z</time>
      </trkpt>
      <trkpt lat="43.22671167" lon="-6.79010333">
        <ele>934.0</ele>
        <time>2022-06-19T05:56:11.621Z</time>
      </trkpt>
      <trkpt lat="43.22664333" lon="-6.79015667">
        <ele>934.0</ele>
        <time>2022-06-19T05:56:12.643Z</time>
      </trkpt>
      <trkpt lat="43.22664333" lon="-6.79015667">
        <ele>934.0</ele>
        <time>2022-06-19T05:56:13.614Z</time>
      </trkpt>
      <trkpt lat="43.22648667" lon="-6.79027333">
        <ele>933.0</ele>
        <time>2022-06-19T05:56:14.637Z</time>
      </trkpt>
      <trkpt lat="43.226405" lon="-6.79032667">
        <ele>933.0</ele>
        <time>2022-06-19T05:56:15.618Z</time>
      </trkpt>
      <trkpt lat="43.226325" lon="-6.790375">
        <ele>932.0</ele>
        <time>2022-06-19T05:56:16.612Z</time>
      </trkpt>
      <trkpt lat="43.226325" lon="-6.790375">
        <ele>932.0</ele>
        <time>2022-06-19T05:56:17.631Z</time>
      </trkpt>
      <trkpt lat="43.226135" lon="-6.79042333">
        <ele>930.0</ele>
        <time>2022-06-19T05:56:18.609Z</time>
      </trkpt>
      <trkpt lat="43.226035" lon="-6.79041333">
        <ele>929.0</ele>
        <time>2022-06-19T05:56:19.634Z</time>
      </trkpt>
      <trkpt lat="43.226035" lon="-6.79041333">
        <ele>929.0</ele>
        <time>2022-06-19T05:56:20.620Z</time>
      </trkpt>
      <trkpt lat="43.22584" lon="-6.79035333">
        <ele>928.0</ele>
        <time>2022-06-19T05:56:21.603Z</time>
      </trkpt>
      <trkpt lat="43.22574333" lon="-6.790315">
        <ele>927.0</ele>
        <time>2022-06-19T05:56:22.613Z</time>
      </trkpt>
      <trkpt lat="43.22574333" lon="-6.790315">
        <ele>927.0</ele>
        <time>2022-06-19T05:56:23.631Z</time>
      </trkpt>
      <trkpt lat="43.22556833" lon="-6.79023833">
        <ele>927.0</ele>
        <time>2022-06-19T05:56:24.613Z</time>
      </trkpt>
      <trkpt lat="43.22556833" lon="-6.79023833">
        <ele>927.0</ele>
        <time>2022-06-19T05:56:25.617Z</time>
      </trkpt>
      <trkpt lat="43.22542" lon="-6.79024167">
        <ele>928.0</ele>
        <time>2022-06-19T05:56:26.640Z</time>
      </trkpt>
      <trkpt lat="43.22536167" lon="-6.79029333">
        <ele>927.0</ele>
        <time>2022-06-19T05:56:27.628Z</time>
      </trkpt>
      <trkpt lat="43.22536167" lon="-6.79029333">
        <ele>927.0</ele>
        <time>2022-06-19T05:56:28.622Z</time>
      </trkpt>
      <trkpt lat="43.22531167" lon="-6.79044667">
        <ele>928.0</ele>
        <time>2022-06-19T05:56:29.642Z</time>
      </trkpt>
      <trkpt lat="43.22531" lon="-6.79053167">
        <ele>928.0</ele>
        <time>2022-06-19T05:56:30.625Z</time>
      </trkpt>
      <trkpt lat="43.22531" lon="-6.79053167">
        <ele>928.0</ele>
        <time>2022-06-19T05:56:31.616Z</time>
      </trkpt>
      <trkpt lat="43.22531833" lon="-6.79069167">
        <ele>929.0</ele>
        <time>2022-06-19T05:56:32.607Z</time>
      </trkpt>
      <trkpt lat="43.22532167" lon="-6.79076833">
        <ele>929.0</ele>
        <time>2022-06-19T05:56:33.603Z</time>
      </trkpt>
      <trkpt lat="43.22532167" lon="-6.79076833">
        <ele>929.0</ele>
        <time>2022-06-19T05:56:34.617Z</time>
      </trkpt>
      <trkpt lat="43.225325" lon="-6.79092167">
        <ele>929.0</ele>
        <time>2022-06-19T05:56:35.632Z</time>
      </trkpt>
      <trkpt lat="43.22531667" lon="-6.79099333">
        <ele>929.0</ele>
        <time>2022-06-19T05:56:36.618Z</time>
      </trkpt>
      <trkpt lat="43.22531667" lon="-6.79099333">
        <ele>929.0</ele>
        <time>2022-06-19T05:56:37.628Z</time>
      </trkpt>
      <trkpt lat="43.22527333" lon="-6.79113667">
        <ele>928.0</ele>
        <time>2022-06-19T05:56:38.604Z</time>
      </trkpt>
      <trkpt lat="43.22527333" lon="-6.79113667">
        <ele>928.0</ele>
        <time>2022-06-19T05:56:39.617Z</time>
      </trkpt>
      <trkpt lat="43.22519333" lon="-6.79126333">
        <ele>927.0</ele>
        <time>2022-06-19T05:56:40.622Z</time>
      </trkpt>
      <trkpt lat="43.22519333" lon="-6.79126333">
        <ele>927.0</ele>
        <time>2022-06-19T05:56:41.619Z</time>
      </trkpt>
      <trkpt lat="43.22509667" lon="-6.79139333">
        <ele>927.0</ele>
        <time>2022-06-19T05:56:42.622Z</time>
      </trkpt>
      <trkpt lat="43.22504667" lon="-6.791465">
        <ele>926.0</ele>
        <time>2022-06-19T05:56:43.608Z</time>
      </trkpt>
      <trkpt lat="43.22504667" lon="-6.791465">
        <ele>926.0</ele>
        <time>2022-06-19T05:56:44.641Z</time>
      </trkpt>
      <trkpt lat="43.22495167" lon="-6.79162333">
        <ele>925.0</ele>
        <time>2022-06-19T05:56:45.616Z</time>
      </trkpt>
      <trkpt lat="43.22495167" lon="-6.79162333">
        <ele>925.0</ele>
        <time>2022-06-19T05:56:46.631Z</time>
      </trkpt>
      <trkpt lat="43.22485333" lon="-6.79179">
        <ele>924.0</ele>
        <time>2022-06-19T05:56:47.625Z</time>
      </trkpt>
      <trkpt lat="43.2248" lon="-6.79186833">
        <ele>923.0</ele>
        <time>2022-06-19T05:56:48.624Z</time>
      </trkpt>
      <trkpt lat="43.2248" lon="-6.79186833">
        <ele>923.0</ele>
        <time>2022-06-19T05:56:49.604Z</time>
      </trkpt>
      <trkpt lat="43.22468167" lon="-6.79201">
        <ele>922.0</ele>
        <time>2022-06-19T05:56:50.618Z</time>
      </trkpt>
      <trkpt lat="43.22468167" lon="-6.79201">
        <ele>922.0</ele>
        <time>2022-06-19T05:56:51.632Z</time>
      </trkpt>
      <trkpt lat="43.22454667" lon="-6.79213">
        <ele>921.0</ele>
        <time>2022-06-19T05:56:52.626Z</time>
      </trkpt>
      <trkpt lat="43.22447333" lon="-6.79217833">
        <ele>921.0</ele>
        <time>2022-06-19T05:56:53.619Z</time>
      </trkpt>
      <trkpt lat="43.224395" lon="-6.79222167">
        <ele>921.0</ele>
        <time>2022-06-19T05:56:54.606Z</time>
      </trkpt>
      <trkpt lat="43.224395" lon="-6.79222167">
        <ele>921.0</ele>
        <time>2022-06-19T05:56:55.617Z</time>
      </trkpt>
      <trkpt lat="43.22422833" lon="-6.79229">
        <ele>919.0</ele>
        <time>2022-06-19T05:56:56.632Z</time>
      </trkpt>
      <trkpt lat="43.22414167" lon="-6.79232333">
        <ele>919.0</ele>
        <time>2022-06-19T05:56:57.603Z</time>
      </trkpt>
      <trkpt lat="43.22414167" lon="-6.79232333">
        <ele>919.0</ele>
        <time>2022-06-19T05:56:58.628Z</time>
      </trkpt>
      <trkpt lat="43.22396333" lon="-6.79238333">
        <ele>918.0</ele>
        <time>2022-06-19T05:56:59.605Z</time>
      </trkpt>
      <trkpt lat="43.22387167" lon="-6.79241333">
        <ele>917.0</ele>
        <time>2022-06-19T05:57:00.630Z</time>
      </trkpt>
      <trkpt lat="43.22387167" lon="-6.79241333">
        <ele>917.0</ele>
        <time>2022-06-19T05:57:01.617Z</time>
      </trkpt>
      <trkpt lat="43.22368667" lon="-6.79246833">
        <ele>916.0</ele>
        <time>2022-06-19T05:57:02.610Z</time>
      </trkpt>
      <trkpt lat="43.22368667" lon="-6.79246833">
        <ele>916.0</ele>
        <time>2022-06-19T05:57:03.628Z</time>
      </trkpt>
      <trkpt lat="43.22349833" lon="-6.79252">
        <ele>915.0</ele>
        <time>2022-06-19T05:57:04.643Z</time>
      </trkpt>
      <trkpt lat="43.223405" lon="-6.79254667">
        <ele>914.0</ele>
        <time>2022-06-19T05:57:05.620Z</time>
      </trkpt>
      <trkpt lat="43.223405" lon="-6.79254667">
        <ele>914.0</ele>
        <time>2022-06-19T05:57:06.607Z</time>
      </trkpt>
      <trkpt lat="43.22321333" lon="-6.79258833">
        <ele>913.0</ele>
        <time>2022-06-19T05:57:07.607Z</time>
      </trkpt>
      <trkpt lat="43.22321333" lon="-6.79258833">
        <ele>913.0</ele>
        <time>2022-06-19T05:57:08.617Z</time>
      </trkpt>
      <trkpt lat="43.22302167" lon="-6.79258667">
        <ele>912.0</ele>
        <time>2022-06-19T05:57:09.629Z</time>
      </trkpt>
      <trkpt lat="43.22292667" lon="-6.792575">
        <ele>911.0</ele>
        <time>2022-06-19T05:57:10.605Z</time>
      </trkpt>
      <trkpt lat="43.22292667" lon="-6.792575">
        <ele>911.0</ele>
        <time>2022-06-19T05:57:11.607Z</time>
      </trkpt>
      <trkpt lat="43.22274333" lon="-6.79252833">
        <ele>910.0</ele>
        <time>2022-06-19T05:57:12.640Z</time>
      </trkpt>
      <trkpt lat="43.22274333" lon="-6.79252833">
        <ele>910.0</ele>
        <time>2022-06-19T05:57:13.612Z</time>
      </trkpt>
      <trkpt lat="43.222565" lon="-6.79249667">
        <ele>909.0</ele>
        <time>2022-06-19T05:57:14.627Z</time>
      </trkpt>
      <trkpt lat="43.222565" lon="-6.79249667">
        <ele>909.0</ele>
        <time>2022-06-19T05:57:15.635Z</time>
      </trkpt>
      <trkpt lat="43.222415" lon="-6.79259">
        <ele>908.0</ele>
        <time>2022-06-19T05:57:16.627Z</time>
      </trkpt>
      <trkpt lat="43.22235667" lon="-6.79266167">
        <ele>908.0</ele>
        <time>2022-06-19T05:57:17.611Z</time>
      </trkpt>
      <trkpt lat="43.22235667" lon="-6.79266167">
        <ele>908.0</ele>
        <time>2022-06-19T05:57:18.618Z</time>
      </trkpt>
      <trkpt lat="43.22225833" lon="-6.79280667">
        <ele>908.0</ele>
        <time>2022-06-19T05:57:19.642Z</time>
      </trkpt>
      <trkpt lat="43.22220833" lon="-6.79286667">
        <ele>907.0</ele>
        <time>2022-06-19T05:57:20.630Z</time>
      </trkpt>
      <trkpt lat="43.22220833" lon="-6.79286667">
        <ele>907.0</ele>
        <time>2022-06-19T05:57:21.641Z</time>
      </trkpt>
      <trkpt lat="43.22211" lon="-6.79297667">
        <ele>907.0</ele>
        <time>2022-06-19T05:57:22.614Z</time>
      </trkpt>
      <trkpt lat="43.22206167" lon="-6.79302667">
        <ele>907.0</ele>
        <time>2022-06-19T05:57:23.632Z</time>
      </trkpt>
      <trkpt lat="43.222015" lon="-6.79307667">
        <ele>908.0</ele>
        <time>2022-06-19T05:57:24.607Z</time>
      </trkpt>
      <trkpt lat="43.222015" lon="-6.79307667">
        <ele>908.0</ele>
        <time>2022-06-19T05:57:25.617Z</time>
      </trkpt>
      <trkpt lat="43.22192" lon="-6.79316333">
        <ele>908.0</ele>
        <time>2022-06-19T05:57:26.615Z</time>
      </trkpt>
      <trkpt lat="43.22192" lon="-6.79316333">
        <ele>908.0</ele>
        <time>2022-06-19T05:57:27.607Z</time>
      </trkpt>
      <trkpt lat="43.22182333" lon="-6.79324833">
        <ele>908.0</ele>
        <time>2022-06-19T05:57:28.628Z</time>
      </trkpt>
      <trkpt lat="43.22182333" lon="-6.79324833">
        <ele>908.0</ele>
        <time>2022-06-19T05:57:29.606Z</time>
      </trkpt>
      <trkpt lat="43.22172833" lon="-6.79333167">
        <ele>909.0</ele>
        <time>2022-06-19T05:57:30.623Z</time>
      </trkpt>
      <trkpt lat="43.22172833" lon="-6.79333167">
        <ele>909.0</ele>
        <time>2022-06-19T05:57:31.616Z</time>
      </trkpt>
      <trkpt lat="43.22163333" lon="-6.79342167">
        <ele>909.0</ele>
        <time>2022-06-19T05:57:32.637Z</time>
      </trkpt>
      <trkpt lat="43.221585" lon="-6.79346833">
        <ele>909.0</ele>
        <time>2022-06-19T05:57:33.637Z</time>
      </trkpt>
      <trkpt lat="43.221585" lon="-6.79346833">
        <ele>909.0</ele>
        <time>2022-06-19T05:57:34.627Z</time>
      </trkpt>
      <trkpt lat="43.22149" lon="-6.79357167">
        <ele>909.0</ele>
        <time>2022-06-19T05:57:35.607Z</time>
      </trkpt>
      <trkpt lat="43.22144333" lon="-6.79362667">
        <ele>909.0</ele>
        <time>2022-06-19T05:57:36.603Z</time>
      </trkpt>
      <trkpt lat="43.22144333" lon="-6.79362667">
        <ele>909.0</ele>
        <time>2022-06-19T05:57:37.617Z</time>
      </trkpt>
      <trkpt lat="43.22136" lon="-6.79375333">
        <ele>909.0</ele>
        <time>2022-06-19T05:57:38.629Z</time>
      </trkpt>
      <trkpt lat="43.22136" lon="-6.79375333">
        <ele>909.0</ele>
        <time>2022-06-19T05:57:39.639Z</time>
      </trkpt>
      <trkpt lat="43.22133167" lon="-6.79391833">
        <ele>909.0</ele>
        <time>2022-06-19T05:57:40.617Z</time>
      </trkpt>
      <trkpt lat="43.22133167" lon="-6.79391833">
        <ele>909.0</ele>
        <time>2022-06-19T05:57:41.607Z</time>
      </trkpt>
      <trkpt lat="43.22139333" lon="-6.79406667">
        <ele>909.0</ele>
        <time>2022-06-19T05:57:42.618Z</time>
      </trkpt>
      <trkpt lat="43.22139333" lon="-6.79406667">
        <ele>909.0</ele>
        <time>2022-06-19T05:57:43.627Z</time>
      </trkpt>
      <trkpt lat="43.2215" lon="-6.79418">
        <ele>910.0</ele>
        <time>2022-06-19T05:57:44.616Z</time>
      </trkpt>
      <trkpt lat="43.22155667" lon="-6.79423167">
        <ele>910.0</ele>
        <time>2022-06-19T05:57:45.650Z</time>
      </trkpt>
      <trkpt lat="43.22161333" lon="-6.79427833">
        <ele>910.0</ele>
        <time>2022-06-19T05:57:46.635Z</time>
      </trkpt>
      <trkpt lat="43.22161333" lon="-6.79427833">
        <ele>910.0</ele>
        <time>2022-06-19T05:57:47.606Z</time>
      </trkpt>
      <trkpt lat="43.22172833" lon="-6.79436667">
        <ele>911.0</ele>
        <time>2022-06-19T05:57:48.617Z</time>
      </trkpt>
      <trkpt lat="43.22172833" lon="-6.79436667">
        <ele>911.0</ele>
        <time>2022-06-19T05:57:49.616Z</time>
      </trkpt>
      <trkpt lat="43.22184" lon="-6.79444833">
        <ele>912.0</ele>
        <time>2022-06-19T05:57:50.624Z</time>
      </trkpt>
      <trkpt lat="43.22189333" lon="-6.79449333">
        <ele>912.0</ele>
        <time>2022-06-19T05:57:51.617Z</time>
      </trkpt>
      <trkpt lat="43.22194667" lon="-6.794545">
        <ele>912.0</ele>
        <time>2022-06-19T05:57:52.640Z</time>
      </trkpt>
      <trkpt lat="43.22199167" lon="-6.79460667">
        <ele>912.0</ele>
        <time>2022-06-19T05:57:53.624Z</time>
      </trkpt>
      <trkpt lat="43.22199167" lon="-6.79460667">
        <ele>912.0</ele>
        <time>2022-06-19T05:57:54.633Z</time>
      </trkpt>
      <trkpt lat="43.22204" lon="-6.794765">
        <ele>912.0</ele>
        <time>2022-06-19T05:57:55.611Z</time>
      </trkpt>
      <trkpt lat="43.22204" lon="-6.794765">
        <ele>912.0</ele>
        <time>2022-06-19T05:57:56.628Z</time>
      </trkpt>
      <trkpt lat="43.222045" lon="-6.79494333">
        <ele>912.0</ele>
        <time>2022-06-19T05:57:57.605Z</time>
      </trkpt>
      <trkpt lat="43.222035" lon="-6.79503333">
        <ele>912.0</ele>
        <time>2022-06-19T05:57:58.627Z</time>
      </trkpt>
      <trkpt lat="43.222035" lon="-6.79503333">
        <ele>912.0</ele>
        <time>2022-06-19T05:57:59.638Z</time>
      </trkpt>
      <trkpt lat="43.22199833" lon="-6.79521">
        <ele>912.0</ele>
        <time>2022-06-19T05:58:00.625Z</time>
      </trkpt>
      <trkpt lat="43.22199833" lon="-6.79521">
        <ele>912.0</ele>
        <time>2022-06-19T05:58:01.633Z</time>
      </trkpt>
      <trkpt lat="43.22195333" lon="-6.79538167">
        <ele>912.0</ele>
        <time>2022-06-19T05:58:02.642Z</time>
      </trkpt>
      <trkpt lat="43.22192833" lon="-6.79546833">
        <ele>911.0</ele>
        <time>2022-06-19T05:58:03.613Z</time>
      </trkpt>
      <trkpt lat="43.22192833" lon="-6.79546833">
        <ele>911.0</ele>
        <time>2022-06-19T05:58:04.607Z</time>
      </trkpt>
      <trkpt lat="43.22187167" lon="-6.79564333">
        <ele>911.0</ele>
        <time>2022-06-19T05:58:05.626Z</time>
      </trkpt>
      <trkpt lat="43.22184333" lon="-6.79573">
        <ele>911.0</ele>
        <time>2022-06-19T05:58:06.627Z</time>
      </trkpt>
      <trkpt lat="43.22184333" lon="-6.79573">
        <ele>911.0</ele>
        <time>2022-06-19T05:58:07.610Z</time>
      </trkpt>
      <trkpt lat="43.221765" lon="-6.79589667">
        <ele>910.0</ele>
        <time>2022-06-19T05:58:08.627Z</time>
      </trkpt>
      <trkpt lat="43.221765" lon="-6.79589667">
        <ele>910.0</ele>
        <time>2022-06-19T05:58:09.637Z</time>
      </trkpt>
      <trkpt lat="43.221665" lon="-6.79604167">
        <ele>909.0</ele>
        <time>2022-06-19T05:58:10.616Z</time>
      </trkpt>
      <trkpt lat="43.221665" lon="-6.79604167">
        <ele>909.0</ele>
        <time>2022-06-19T05:58:11.620Z</time>
      </trkpt>
      <trkpt lat="43.221555" lon="-6.79618">
        <ele>908.0</ele>
        <time>2022-06-19T05:58:12.635Z</time>
      </trkpt>
      <trkpt lat="43.221555" lon="-6.79618">
        <ele>908.0</ele>
        <time>2022-06-19T05:58:13.633Z</time>
      </trkpt>
      <trkpt lat="43.22144" lon="-6.796325">
        <ele>907.0</ele>
        <time>2022-06-19T05:58:14.616Z</time>
      </trkpt>
      <trkpt lat="43.22138" lon="-6.7964">
        <ele>906.0</ele>
        <time>2022-06-19T05:58:15.640Z</time>
      </trkpt>
      <trkpt lat="43.22138" lon="-6.7964">
        <ele>906.0</ele>
        <time>2022-06-19T05:58:16.628Z</time>
      </trkpt>
      <trkpt lat="43.221255" lon="-6.79655667">
        <ele>904.0</ele>
        <time>2022-06-19T05:58:17.643Z</time>
      </trkpt>
      <trkpt lat="43.22119167" lon="-6.79663833">
        <ele>903.0</ele>
        <time>2022-06-19T05:58:18.635Z</time>
      </trkpt>
      <trkpt lat="43.22119167" lon="-6.79663833">
        <ele>903.0</ele>
        <time>2022-06-19T05:58:19.608Z</time>
      </trkpt>
      <trkpt lat="43.22105667" lon="-6.79681">
        <ele>901.0</ele>
        <time>2022-06-19T05:58:20.628Z</time>
      </trkpt>
      <trkpt lat="43.22105667" lon="-6.79681">
        <ele>901.0</ele>
        <time>2022-06-19T05:58:21.603Z</time>
      </trkpt>
      <trkpt lat="43.22091333" lon="-6.79698167">
        <ele>900.0</ele>
        <time>2022-06-19T05:58:22.623Z</time>
      </trkpt>
      <trkpt lat="43.22091333" lon="-6.79698167">
        <ele>900.0</ele>
        <time>2022-06-19T05:58:23.622Z</time>
      </trkpt>
      <trkpt lat="43.220765" lon="-6.79714833">
        <ele>898.0</ele>
        <time>2022-06-19T05:58:24.624Z</time>
      </trkpt>
      <trkpt lat="43.220765" lon="-6.79714833">
        <ele>898.0</ele>
        <time>2022-06-19T05:58:25.640Z</time>
      </trkpt>
      <trkpt lat="43.22061333" lon="-6.79732167">
        <ele>896.0</ele>
        <time>2022-06-19T05:58:26.636Z</time>
      </trkpt>
      <trkpt lat="43.22061333" lon="-6.79732167">
        <ele>896.0</ele>
        <time>2022-06-19T05:58:27.611Z</time>
      </trkpt>
      <trkpt lat="43.22045" lon="-6.79748167">
        <ele>894.0</ele>
        <time>2022-06-19T05:58:28.629Z</time>
      </trkpt>
      <trkpt lat="43.22045" lon="-6.79748167">
        <ele>894.0</ele>
        <time>2022-06-19T05:58:29.606Z</time>
      </trkpt>
      <trkpt lat="43.220265" lon="-6.79759833">
        <ele>892.0</ele>
        <time>2022-06-19T05:58:30.632Z</time>
      </trkpt>
      <trkpt lat="43.220265" lon="-6.79759833">
        <ele>892.0</ele>
        <time>2022-06-19T05:58:31.608Z</time>
      </trkpt>
      <trkpt lat="43.22007" lon="-6.79767833">
        <ele>891.0</ele>
        <time>2022-06-19T05:58:32.631Z</time>
      </trkpt>
      <trkpt lat="43.22007" lon="-6.79767833">
        <ele>891.0</ele>
        <time>2022-06-19T05:58:33.625Z</time>
      </trkpt>
      <trkpt lat="43.219865" lon="-6.79768333">
        <ele>889.0</ele>
        <time>2022-06-19T05:58:34.606Z</time>
      </trkpt>
      <trkpt lat="43.219865" lon="-6.79768333">
        <ele>889.0</ele>
        <time>2022-06-19T05:58:35.620Z</time>
      </trkpt>
      <trkpt lat="43.21966333" lon="-6.79760167">
        <ele>888.0</ele>
        <time>2022-06-19T05:58:36.634Z</time>
      </trkpt>
      <trkpt lat="43.21957" lon="-6.79753333">
        <ele>887.0</ele>
        <time>2022-06-19T05:58:37.621Z</time>
      </trkpt>
      <trkpt lat="43.21957" lon="-6.79753333">
        <ele>887.0</ele>
        <time>2022-06-19T05:58:38.638Z</time>
      </trkpt>
      <trkpt lat="43.219395" lon="-6.79736833">
        <ele>886.0</ele>
        <time>2022-06-19T05:58:39.612Z</time>
      </trkpt>
      <trkpt lat="43.21931333" lon="-6.797275">
        <ele>885.0</ele>
        <time>2022-06-19T05:58:40.633Z</time>
      </trkpt>
      <trkpt lat="43.21931333" lon="-6.797275">
        <ele>885.0</ele>
        <time>2022-06-19T05:58:41.617Z</time>
      </trkpt>
      <trkpt lat="43.21917167" lon="-6.79712667">
        <ele>884.0</ele>
        <time>2022-06-19T05:58:42.610Z</time>
      </trkpt>
      <trkpt lat="43.21917167" lon="-6.79712667">
        <ele>884.0</ele>
        <time>2022-06-19T05:58:43.612Z</time>
      </trkpt>
      <trkpt lat="43.21905" lon="-6.79707667">
        <ele>883.0</ele>
        <time>2022-06-19T05:58:44.632Z</time>
      </trkpt>
      <trkpt lat="43.21899833" lon="-6.79710833">
        <ele>882.0</ele>
        <time>2022-06-19T05:58:45.627Z</time>
      </trkpt>
      <trkpt lat="43.21899833" lon="-6.79710833">
        <ele>882.0</ele>
        <time>2022-06-19T05:58:46.642Z</time>
      </trkpt>
      <trkpt lat="43.21895333" lon="-6.797255">
        <ele>881.0</ele>
        <time>2022-06-19T05:58:47.617Z</time>
      </trkpt>
      <trkpt lat="43.21894333" lon="-6.79733833">
        <ele>881.0</ele>
        <time>2022-06-19T05:58:48.642Z</time>
      </trkpt>
      <trkpt lat="43.21894333" lon="-6.79733833">
        <ele>881.0</ele>
        <time>2022-06-19T05:58:49.617Z</time>
      </trkpt>
      <trkpt lat="43.21892667" lon="-6.79751833">
        <ele>881.0</ele>
        <time>2022-06-19T05:58:50.637Z</time>
      </trkpt>
      <trkpt lat="43.21892667" lon="-6.79751833">
        <ele>881.0</ele>
        <time>2022-06-19T05:58:51.643Z</time>
      </trkpt>
      <trkpt lat="43.218905" lon="-6.79770667">
        <ele>880.0</ele>
        <time>2022-06-19T05:58:52.626Z</time>
      </trkpt>
      <trkpt lat="43.21888667" lon="-6.797805">
        <ele>880.0</ele>
        <time>2022-06-19T05:58:53.605Z</time>
      </trkpt>
      <trkpt lat="43.21886833" lon="-6.7979">
        <ele>879.0</ele>
        <time>2022-06-19T05:58:54.636Z</time>
      </trkpt>
      <trkpt lat="43.21886833" lon="-6.7979">
        <ele>879.0</ele>
        <time>2022-06-19T05:58:55.611Z</time>
      </trkpt>
      <trkpt lat="43.21883333" lon="-6.79809667">
        <ele>878.0</ele>
        <time>2022-06-19T05:58:56.632Z</time>
      </trkpt>
      <trkpt lat="43.218815" lon="-6.79820333">
        <ele>878.0</ele>
        <time>2022-06-19T05:58:57.618Z</time>
      </trkpt>
      <trkpt lat="43.218815" lon="-6.79820333">
        <ele>878.0</ele>
        <time>2022-06-19T05:58:58.637Z</time>
      </trkpt>
      <trkpt lat="43.21878" lon="-6.79841333">
        <ele>876.0</ele>
        <time>2022-06-19T05:58:59.624Z</time>
      </trkpt>
      <trkpt lat="43.21877" lon="-6.79852167">
        <ele>876.0</ele>
        <time>2022-06-19T05:59:00.611Z</time>
      </trkpt>
      <trkpt lat="43.21877" lon="-6.79852167">
        <ele>876.0</ele>
        <time>2022-06-19T05:59:01.627Z</time>
      </trkpt>
      <trkpt lat="43.21881167" lon="-6.798715">
        <ele>874.0</ele>
        <time>2022-06-19T05:59:02.621Z</time>
      </trkpt>
      <trkpt lat="43.21881167" lon="-6.798715">
        <ele>874.0</ele>
        <time>2022-06-19T05:59:03.637Z</time>
      </trkpt>
      <trkpt lat="43.21888833" lon="-6.79888">
        <ele>874.0</ele>
        <time>2022-06-19T05:59:04.625Z</time>
      </trkpt>
      <trkpt lat="43.21888833" lon="-6.79888">
        <ele>874.0</ele>
        <time>2022-06-19T05:59:05.637Z</time>
      </trkpt>
      <trkpt lat="43.21893833" lon="-6.79907167">
        <ele>873.0</ele>
        <time>2022-06-19T05:59:06.618Z</time>
      </trkpt>
      <trkpt lat="43.21893833" lon="-6.79907167">
        <ele>873.0</ele>
        <time>2022-06-19T05:59:07.633Z</time>
      </trkpt>
      <trkpt lat="43.218965" lon="-6.79928333">
        <ele>872.0</ele>
        <time>2022-06-19T05:59:08.616Z</time>
      </trkpt>
      <trkpt lat="43.218965" lon="-6.79928333">
        <ele>872.0</ele>
        <time>2022-06-19T05:59:09.630Z</time>
      </trkpt>
      <trkpt lat="43.21898" lon="-6.79953">
        <ele>871.0</ele>
        <time>2022-06-19T05:59:10.603Z</time>
      </trkpt>
      <trkpt lat="43.21898" lon="-6.79953">
        <ele>871.0</ele>
        <time>2022-06-19T05:59:11.606Z</time>
      </trkpt>
      <trkpt lat="43.21898167" lon="-6.79979">
        <ele>870.0</ele>
        <time>2022-06-19T05:59:12.635Z</time>
      </trkpt>
      <trkpt lat="43.21898167" lon="-6.79979">
        <ele>870.0</ele>
        <time>2022-06-19T05:59:13.643Z</time>
      </trkpt>
      <trkpt lat="43.218915" lon="-6.800045">
        <ele>869.0</ele>
        <time>2022-06-19T05:59:14.616Z</time>
      </trkpt>
      <trkpt lat="43.218915" lon="-6.800045">
        <ele>869.0</ele>
        <time>2022-06-19T05:59:15.628Z</time>
      </trkpt>
      <trkpt lat="43.21881667" lon="-6.80029">
        <ele>867.0</ele>
        <time>2022-06-19T05:59:16.611Z</time>
      </trkpt>
      <trkpt lat="43.21881667" lon="-6.80029">
        <ele>867.0</ele>
        <time>2022-06-19T05:59:17.621Z</time>
      </trkpt>
      <trkpt lat="43.218715" lon="-6.80053667">
        <ele>866.0</ele>
        <time>2022-06-19T05:59:18.631Z</time>
      </trkpt>
      <trkpt lat="43.218715" lon="-6.80053667">
        <ele>866.0</ele>
        <time>2022-06-19T05:59:19.609Z</time>
      </trkpt>
      <trkpt lat="43.21861333" lon="-6.80079">
        <ele>864.0</ele>
        <time>2022-06-19T05:59:20.627Z</time>
      </trkpt>
      <trkpt lat="43.21861333" lon="-6.80079">
        <ele>864.0</ele>
        <time>2022-06-19T05:59:21.642Z</time>
      </trkpt>
      <trkpt lat="43.21851167" lon="-6.80105833">
        <ele>861.0</ele>
        <time>2022-06-19T05:59:22.604Z</time>
      </trkpt>
      <trkpt lat="43.21851167" lon="-6.80105833">
        <ele>861.0</ele>
        <time>2022-06-19T05:59:23.640Z</time>
      </trkpt>
      <trkpt lat="43.21840667" lon="-6.801325">
        <ele>859.0</ele>
        <time>2022-06-19T05:59:24.616Z</time>
      </trkpt>
      <trkpt lat="43.21835167" lon="-6.80144333">
        <ele>859.0</ele>
        <time>2022-06-19T05:59:25.608Z</time>
      </trkpt>
      <trkpt lat="43.21835167" lon="-6.80144333">
        <ele>859.0</ele>
        <time>2022-06-19T05:59:26.631Z</time>
      </trkpt>
      <trkpt lat="43.218265" lon="-6.80166">
        <ele>859.0</ele>
        <time>2022-06-19T05:59:27.633Z</time>
      </trkpt>
      <trkpt lat="43.218265" lon="-6.80166">
        <ele>859.0</ele>
        <time>2022-06-19T05:59:28.640Z</time>
      </trkpt>
      <trkpt lat="43.21823833" lon="-6.80187333">
        <ele>858.0</ele>
        <time>2022-06-19T05:59:29.614Z</time>
      </trkpt>
      <trkpt lat="43.218255" lon="-6.80197">
        <ele>857.0</ele>
        <time>2022-06-19T05:59:30.623Z</time>
      </trkpt>
      <trkpt lat="43.218255" lon="-6.80197">
        <ele>857.0</ele>
        <time>2022-06-19T05:59:31.609Z</time>
      </trkpt>
      <trkpt lat="43.21832833" lon="-6.80214">
        <ele>857.0</ele>
        <time>2022-06-19T05:59:32.627Z</time>
      </trkpt>
      <trkpt lat="43.218365" lon="-6.802225">
        <ele>858.0</ele>
        <time>2022-06-19T05:59:33.611Z</time>
      </trkpt>
      <trkpt lat="43.218365" lon="-6.802225">
        <ele>858.0</ele>
        <time>2022-06-19T05:59:34.619Z</time>
      </trkpt>
      <trkpt lat="43.21838" lon="-6.80240333">
        <ele>859.0</ele>
        <time>2022-06-19T05:59:35.641Z</time>
      </trkpt>
      <trkpt lat="43.218365" lon="-6.80248833">
        <ele>859.0</ele>
        <time>2022-06-19T05:59:36.621Z</time>
      </trkpt>
      <trkpt lat="43.218365" lon="-6.80248833">
        <ele>859.0</ele>
        <time>2022-06-19T05:59:37.633Z</time>
      </trkpt>
      <trkpt lat="43.218325" lon="-6.80264833">
        <ele>859.0</ele>
        <time>2022-06-19T05:59:38.611Z</time>
      </trkpt>
      <trkpt lat="43.218325" lon="-6.80264833">
        <ele>859.0</ele>
        <time>2022-06-19T05:59:39.630Z</time>
      </trkpt>
      <trkpt lat="43.218285" lon="-6.80280667">
        <ele>859.0</ele>
        <time>2022-06-19T05:59:40.608Z</time>
      </trkpt>
      <trkpt lat="43.218285" lon="-6.80280667">
        <ele>859.0</ele>
        <time>2022-06-19T05:59:41.628Z</time>
      </trkpt>
      <trkpt lat="43.21825167" lon="-6.80296">
        <ele>859.0</ele>
        <time>2022-06-19T05:59:42.605Z</time>
      </trkpt>
      <trkpt lat="43.21825167" lon="-6.80296">
        <ele>859.0</ele>
        <time>2022-06-19T05:59:43.618Z</time>
      </trkpt>
      <trkpt lat="43.21823" lon="-6.80310667">
        <ele>860.0</ele>
        <time>2022-06-19T05:59:44.638Z</time>
      </trkpt>
      <trkpt lat="43.21822333" lon="-6.80317">
        <ele>860.0</ele>
        <time>2022-06-19T05:59:45.629Z</time>
      </trkpt>
      <trkpt lat="43.21822333" lon="-6.80317">
        <ele>860.0</ele>
        <time>2022-06-19T05:59:46.618Z</time>
      </trkpt>
      <trkpt lat="43.21821167" lon="-6.803275">
        <ele>861.0</ele>
        <time>2022-06-19T05:59:47.614Z</time>
      </trkpt>
      <trkpt lat="43.21820667" lon="-6.80332">
        <ele>861.0</ele>
        <time>2022-06-19T05:59:48.618Z</time>
      </trkpt>
      <trkpt lat="43.21820667" lon="-6.80332">
        <ele>861.0</ele>
        <time>2022-06-19T05:59:49.607Z</time>
      </trkpt>
      <trkpt lat="43.21819833" lon="-6.80339">
        <ele>862.0</ele>
        <time>2022-06-19T05:59:50.635Z</time>
      </trkpt>
      <trkpt lat="43.21819333" lon="-6.80341833">
        <ele>862.0</ele>
        <time>2022-06-19T05:59:51.617Z</time>
      </trkpt>
      <trkpt lat="43.21819333" lon="-6.80341833">
        <ele>862.0</ele>
        <time>2022-06-19T05:59:52.627Z</time>
      </trkpt>
      <trkpt lat="43.21819" lon="-6.80344333">
        <ele>862.0</ele>
        <time>2022-06-19T05:59:53.606Z</time>
      </trkpt>
      <trkpt lat="43.21819" lon="-6.803445">
        <ele>862.0</ele>
        <time>2022-06-19T05:59:54.606Z</time>
      </trkpt>
      <trkpt lat="43.21819" lon="-6.803445">
        <ele>862.0</ele>
        <time>2022-06-19T06:00:01.688Z</time>
      </trkpt>
      <trkpt lat="43.21819333" lon="-6.80344333">
        <ele>863.0</ele>
        <time>2022-06-19T06:00:02.655Z</time>
      </trkpt>
      <trkpt lat="43.21819333" lon="-6.80344333">
        <ele>863.0</ele>
        <time>2022-06-19T06:00:03.660Z</time>
      </trkpt>
      <trkpt lat="43.21819333" lon="-6.80344333">
        <ele>863.0</ele>
        <time>2022-06-19T06:00:04.678Z</time>
      </trkpt>
      <trkpt lat="43.21819333" lon="-6.80344333">
        <ele>863.0</ele>
        <time>2022-06-19T06:00:05.657Z</time>
      </trkpt>
      <trkpt lat="43.21819333" lon="-6.80344333">
        <ele>863.0</ele>
        <time>2022-06-19T06:00:06.675Z</time>
      </trkpt>
      <trkpt lat="43.21819333" lon="-6.80344333">
        <ele>863.0</ele>
        <time>2022-06-19T06:00:07.656Z</time>
      </trkpt>
      <trkpt lat="43.21819333" lon="-6.80344333">
        <ele>863.0</ele>
        <time>2022-06-19T06:00:08.670Z</time>
      </trkpt>
      <trkpt lat="43.21819333" lon="-6.80344333">
        <ele>863.0</ele>
        <time>2022-06-19T06:00:09.656Z</time>
      </trkpt>
      <trkpt lat="43.21819333" lon="-6.80344333">
        <ele>863.0</ele>
        <time>2022-06-19T06:00:10.675Z</time>
      </trkpt>
      <trkpt lat="43.21819333" lon="-6.80344333">
        <ele>863.0</ele>
        <time>2022-06-19T06:00:11.654Z</time>
      </trkpt>
      <trkpt lat="43.21819333" lon="-6.80344333">
        <ele>863.0</ele>
        <time>2022-06-19T06:00:12.671Z</time>
      </trkpt>
      <trkpt lat="43.21819333" lon="-6.80344333">
        <ele>863.0</ele>
        <time>2022-06-19T06:00:13.655Z</time>
      </trkpt>
      <trkpt lat="43.21819333" lon="-6.80344333">
        <ele>863.0</ele>
        <time>2022-06-19T06:00:14.682Z</time>
      </trkpt>
      <trkpt lat="43.21819333" lon="-6.80344333">
        <ele>863.0</ele>
        <time>2022-06-19T06:00:15.662Z</time>
      </trkpt>
      <trkpt lat="43.21819333" lon="-6.80344333">
        <ele>863.0</ele>
        <time>2022-06-19T06:00:16.662Z</time>
      </trkpt>
      <trkpt lat="43.21819333" lon="-6.80344333">
        <ele>863.0</ele>
        <time>2022-06-19T06:00:17.655Z</time>
      </trkpt>
      <trkpt lat="43.21819333" lon="-6.80344333">
        <ele>863.0</ele>
        <time>2022-06-19T06:00:18.672Z</time>
      </trkpt>
      <trkpt lat="43.21819333" lon="-6.80344333">
        <ele>863.0</ele>
        <time>2022-06-19T06:00:19.658Z</time>
      </trkpt>
      <trkpt lat="43.21819333" lon="-6.80344333">
        <ele>863.0</ele>
        <time>2022-06-19T06:00:20.676Z</time>
      </trkpt>
      <trkpt lat="43.21819333" lon="-6.80344333">
        <ele>863.0</ele>
        <time>2022-06-19T06:00:21.656Z</time>
      </trkpt>
      <trkpt lat="43.21821167" lon="-6.80346833">
        <ele>866.0</ele>
        <time>2022-06-19T06:00:22.674Z</time>
      </trkpt>
      <trkpt lat="43.21821167" lon="-6.80346833">
        <ele>866.0</ele>
        <time>2022-06-19T06:00:23.657Z</time>
      </trkpt>
      <trkpt lat="43.21820333" lon="-6.80350667">
        <ele>865.0</ele>
        <time>2022-06-19T06:00:24.655Z</time>
      </trkpt>
      <trkpt lat="43.21820333" lon="-6.80350667">
        <ele>865.0</ele>
        <time>2022-06-19T06:00:25.649Z</time>
      </trkpt>
      <trkpt lat="43.21819167" lon="-6.80357">
        <ele>865.0</ele>
        <time>2022-06-19T06:00:26.677Z</time>
      </trkpt>
      <trkpt lat="43.218185" lon="-6.803595">
        <ele>865.0</ele>
        <time>2022-06-19T06:00:27.660Z</time>
      </trkpt>
      <trkpt lat="43.218185" lon="-6.803595">
        <ele>865.0</ele>
        <time>2022-06-19T06:00:28.686Z</time>
      </trkpt>
      <trkpt lat="43.21818167" lon="-6.803645">
        <ele>865.0</ele>
        <time>2022-06-19T06:00:29.666Z</time>
      </trkpt>
      <trkpt lat="43.21818" lon="-6.80367167">
        <ele>865.0</ele>
        <time>2022-06-19T06:00:30.649Z</time>
      </trkpt>
      <trkpt lat="43.21818" lon="-6.80367167">
        <ele>865.0</ele>
        <time>2022-06-19T06:00:31.665Z</time>
      </trkpt>
      <trkpt lat="43.21818" lon="-6.80371833">
        <ele>866.0</ele>
        <time>2022-06-19T06:00:32.653Z</time>
      </trkpt>
      <trkpt lat="43.21817833" lon="-6.80374167">
        <ele>866.0</ele>
        <time>2022-06-19T06:00:33.681Z</time>
      </trkpt>
      <trkpt lat="43.21817833" lon="-6.80374167">
        <ele>866.0</ele>
        <time>2022-06-19T06:00:34.659Z</time>
      </trkpt>
      <trkpt lat="43.21819167" lon="-6.80379333">
        <ele>867.0</ele>
        <time>2022-06-19T06:00:35.679Z</time>
      </trkpt>
      <trkpt lat="43.21820167" lon="-6.80381667">
        <ele>867.0</ele>
        <time>2022-06-19T06:00:36.651Z</time>
      </trkpt>
      <trkpt lat="43.21820167" lon="-6.80381667">
        <ele>867.0</ele>
        <time>2022-06-19T06:00:37.665Z</time>
      </trkpt>
      <trkpt lat="43.21822333" lon="-6.80386833">
        <ele>868.0</ele>
        <time>2022-06-19T06:00:38.683Z</time>
      </trkpt>
      <trkpt lat="43.21822333" lon="-6.80386833">
        <ele>868.0</ele>
        <time>2022-06-19T06:00:39.651Z</time>
      </trkpt>
      <trkpt lat="43.21825" lon="-6.80391">
        <ele>868.0</ele>
        <time>2022-06-19T06:00:40.670Z</time>
      </trkpt>
      <trkpt lat="43.21825" lon="-6.80391">
        <ele>868.0</ele>
        <time>2022-06-19T06:00:41.679Z</time>
      </trkpt>
      <trkpt lat="43.21827667" lon="-6.80395">
        <ele>868.0</ele>
        <time>2022-06-19T06:00:42.660Z</time>
      </trkpt>
      <trkpt lat="43.21827667" lon="-6.80395">
        <ele>868.0</ele>
        <time>2022-06-19T06:00:43.688Z</time>
      </trkpt>
      <trkpt lat="43.21830667" lon="-6.80398833">
        <ele>869.0</ele>
        <time>2022-06-19T06:00:44.670Z</time>
      </trkpt>
      <trkpt lat="43.21832333" lon="-6.804005">
        <ele>869.0</ele>
        <time>2022-06-19T06:00:45.656Z</time>
      </trkpt>
      <trkpt lat="43.21834167" lon="-6.80401833">
        <ele>869.0</ele>
        <time>2022-06-19T06:00:46.672Z</time>
      </trkpt>
      <trkpt lat="43.21834167" lon="-6.80401833">
        <ele>869.0</ele>
        <time>2022-06-19T06:00:47.682Z</time>
      </trkpt>
      <trkpt lat="43.21837833" lon="-6.80403833">
        <ele>870.0</ele>
        <time>2022-06-19T06:00:48.666Z</time>
      </trkpt>
      <trkpt lat="43.21837833" lon="-6.80403833">
        <ele>870.0</ele>
        <time>2022-06-19T06:00:49.677Z</time>
      </trkpt>
      <trkpt lat="43.21841167" lon="-6.80405">
        <ele>871.0</ele>
        <time>2022-06-19T06:00:50.669Z</time>
      </trkpt>
      <trkpt lat="43.21841167" lon="-6.80405">
        <ele>871.0</ele>
        <time>2022-06-19T06:00:51.675Z</time>
      </trkpt>
      <trkpt lat="43.21844833" lon="-6.804055">
        <ele>872.0</ele>
        <time>2022-06-19T06:00:52.653Z</time>
      </trkpt>
      <trkpt lat="43.21846667" lon="-6.80405667">
        <ele>872.0</ele>
        <time>2022-06-19T06:00:53.667Z</time>
      </trkpt>
      <trkpt lat="43.21848333" lon="-6.80405833">
        <ele>873.0</ele>
        <time>2022-06-19T06:00:54.667Z</time>
      </trkpt>
      <trkpt lat="43.21848333" lon="-6.80405833">
        <ele>873.0</ele>
        <time>2022-06-19T06:00:55.680Z</time>
      </trkpt>
      <trkpt lat="43.21851833" lon="-6.80406333">
        <ele>874.0</ele>
        <time>2022-06-19T06:00:56.660Z</time>
      </trkpt>
      <trkpt lat="43.21851833" lon="-6.80406333">
        <ele>874.0</ele>
        <time>2022-06-19T06:00:57.654Z</time>
      </trkpt>
      <trkpt lat="43.218555" lon="-6.80406333">
        <ele>874.0</ele>
        <time>2022-06-19T06:00:58.675Z</time>
      </trkpt>
      <trkpt lat="43.218555" lon="-6.80406333">
        <ele>874.0</ele>
        <time>2022-06-19T06:00:59.681Z</time>
      </trkpt>
      <trkpt lat="43.21859167" lon="-6.80406167">
        <ele>875.0</ele>
        <time>2022-06-19T06:01:00.668Z</time>
      </trkpt>
      <trkpt lat="43.21861" lon="-6.80406167">
        <ele>876.0</ele>
        <time>2022-06-19T06:01:01.692Z</time>
      </trkpt>
      <trkpt lat="43.21861" lon="-6.80406167">
        <ele>876.0</ele>
        <time>2022-06-19T06:01:02.673Z</time>
      </trkpt>
      <trkpt lat="43.21864667" lon="-6.80405667">
        <ele>876.0</ele>
        <time>2022-06-19T06:01:03.688Z</time>
      </trkpt>
      <trkpt lat="43.21864667" lon="-6.80405667">
        <ele>876.0</ele>
        <time>2022-06-19T06:01:04.657Z</time>
      </trkpt>
      <trkpt lat="43.21868167" lon="-6.80404667">
        <ele>877.0</ele>
        <time>2022-06-19T06:01:05.682Z</time>
      </trkpt>
      <trkpt lat="43.21869833" lon="-6.80404333">
        <ele>877.0</ele>
        <time>2022-06-19T06:01:06.661Z</time>
      </trkpt>
      <trkpt lat="43.21869833" lon="-6.80404333">
        <ele>877.0</ele>
        <time>2022-06-19T06:01:07.668Z</time>
      </trkpt>
      <trkpt lat="43.21873167" lon="-6.80403333">
        <ele>877.0</ele>
        <time>2022-06-19T06:01:08.664Z</time>
      </trkpt>
      <trkpt lat="43.21873167" lon="-6.80403333">
        <ele>877.0</ele>
        <time>2022-06-19T06:01:09.651Z</time>
      </trkpt>
      <trkpt lat="43.21876667" lon="-6.80402167">
        <ele>878.0</ele>
        <time>2022-06-19T06:01:10.673Z</time>
      </trkpt>
      <trkpt lat="43.21876667" lon="-6.80402167">
        <ele>878.0</ele>
        <time>2022-06-19T06:01:11.665Z</time>
      </trkpt>
      <trkpt lat="43.21880167" lon="-6.80401167">
        <ele>878.0</ele>
        <time>2022-06-19T06:01:12.686Z</time>
      </trkpt>
      <trkpt lat="43.21880167" lon="-6.80401167">
        <ele>878.0</ele>
        <time>2022-06-19T06:01:13.673Z</time>
      </trkpt>
      <trkpt lat="43.218835" lon="-6.80400333">
        <ele>879.0</ele>
        <time>2022-06-19T06:01:14.656Z</time>
      </trkpt>
      <trkpt lat="43.218835" lon="-6.80400333">
        <ele>879.0</ele>
        <time>2022-06-19T06:01:15.674Z</time>
      </trkpt>
      <trkpt lat="43.21887" lon="-6.803995">
        <ele>879.0</ele>
        <time>2022-06-19T06:01:16.677Z</time>
      </trkpt>
      <trkpt lat="43.21888667" lon="-6.80399167">
        <ele>879.0</ele>
        <time>2022-06-19T06:01:17.668Z</time>
      </trkpt>
      <trkpt lat="43.21890167" lon="-6.80398667">
        <ele>880.0</ele>
        <time>2022-06-19T06:01:18.686Z</time>
      </trkpt>
      <trkpt lat="43.21890167" lon="-6.80398667">
        <ele>880.0</ele>
        <time>2022-06-19T06:01:19.659Z</time>
      </trkpt>
      <trkpt lat="43.218935" lon="-6.803975">
        <ele>880.0</ele>
        <time>2022-06-19T06:01:20.667Z</time>
      </trkpt>
      <trkpt lat="43.218935" lon="-6.803975">
        <ele>880.0</ele>
        <time>2022-06-19T06:01:21.683Z</time>
      </trkpt>
      <trkpt lat="43.21896667" lon="-6.803965">
        <ele>880.0</ele>
        <time>2022-06-19T06:01:22.661Z</time>
      </trkpt>
      <trkpt lat="43.21896667" lon="-6.803965">
        <ele>880.0</ele>
        <time>2022-06-19T06:01:23.650Z</time>
      </trkpt>
      <trkpt lat="43.21899833" lon="-6.803955">
        <ele>881.0</ele>
        <time>2022-06-19T06:01:24.687Z</time>
      </trkpt>
      <trkpt lat="43.21899833" lon="-6.803955">
        <ele>881.0</ele>
        <time>2022-06-19T06:01:25.672Z</time>
      </trkpt>
      <trkpt lat="43.21903167" lon="-6.803945">
        <ele>881.0</ele>
        <time>2022-06-19T06:01:26.669Z</time>
      </trkpt>
      <trkpt lat="43.21904667" lon="-6.80394333">
        <ele>882.0</ele>
        <time>2022-06-19T06:01:27.656Z</time>
      </trkpt>
      <trkpt lat="43.21904667" lon="-6.80394333">
        <ele>882.0</ele>
        <time>2022-06-19T06:01:28.662Z</time>
      </trkpt>
      <trkpt lat="43.21908167" lon="-6.80394">
        <ele>883.0</ele>
        <time>2022-06-19T06:01:29.682Z</time>
      </trkpt>
      <trkpt lat="43.21909833" lon="-6.80393833">
        <ele>883.0</ele>
        <time>2022-06-19T06:01:30.663Z</time>
      </trkpt>
      <trkpt lat="43.21909833" lon="-6.80393833">
        <ele>883.0</ele>
        <time>2022-06-19T06:01:31.681Z</time>
      </trkpt>
      <trkpt lat="43.21913" lon="-6.80393333">
        <ele>884.0</ele>
        <time>2022-06-19T06:01:32.665Z</time>
      </trkpt>
      <trkpt lat="43.21914667" lon="-6.80393167">
        <ele>884.0</ele>
        <time>2022-06-19T06:01:33.684Z</time>
      </trkpt>
      <trkpt lat="43.21914667" lon="-6.80393167">
        <ele>884.0</ele>
        <time>2022-06-19T06:01:34.656Z</time>
      </trkpt>
      <trkpt lat="43.21917667" lon="-6.80392333">
        <ele>885.0</ele>
        <time>2022-06-19T06:01:35.674Z</time>
      </trkpt>
      <trkpt lat="43.21917667" lon="-6.80392333">
        <ele>885.0</ele>
        <time>2022-06-19T06:01:36.653Z</time>
      </trkpt>
      <trkpt lat="43.21920667" lon="-6.80391667">
        <ele>885.0</ele>
        <time>2022-06-19T06:01:37.679Z</time>
      </trkpt>
      <trkpt lat="43.21920667" lon="-6.80391667">
        <ele>885.0</ele>
        <time>2022-06-19T06:01:38.669Z</time>
      </trkpt>
      <trkpt lat="43.219235" lon="-6.80391833">
        <ele>886.0</ele>
        <time>2022-06-19T06:01:39.650Z</time>
      </trkpt>
      <trkpt lat="43.21924833" lon="-6.803925">
        <ele>886.0</ele>
        <time>2022-06-19T06:01:40.665Z</time>
      </trkpt>
      <trkpt lat="43.21924833" lon="-6.803925">
        <ele>886.0</ele>
        <time>2022-06-19T06:01:41.684Z</time>
      </trkpt>
      <trkpt lat="43.21927333" lon="-6.803945">
        <ele>886.0</ele>
        <time>2022-06-19T06:01:42.663Z</time>
      </trkpt>
      <trkpt lat="43.21927333" lon="-6.803945">
        <ele>886.0</ele>
        <time>2022-06-19T06:01:43.672Z</time>
      </trkpt>
      <trkpt lat="43.21930167" lon="-6.80395667">
        <ele>886.0</ele>
        <time>2022-06-19T06:01:44.674Z</time>
      </trkpt>
      <trkpt lat="43.21930167" lon="-6.80395667">
        <ele>886.0</ele>
        <time>2022-06-19T06:01:45.687Z</time>
      </trkpt>
      <trkpt lat="43.21933333" lon="-6.80394833">
        <ele>886.0</ele>
        <time>2022-06-19T06:01:46.668Z</time>
      </trkpt>
      <trkpt lat="43.21933333" lon="-6.80394833">
        <ele>886.0</ele>
        <time>2022-06-19T06:01:47.685Z</time>
      </trkpt>
      <trkpt lat="43.21936167" lon="-6.80395333">
        <ele>887.0</ele>
        <time>2022-06-19T06:01:48.664Z</time>
      </trkpt>
      <trkpt lat="43.21936167" lon="-6.80395333">
        <ele>887.0</ele>
        <time>2022-06-19T06:01:49.670Z</time>
      </trkpt>
      <trkpt lat="43.21939167" lon="-6.80396167">
        <ele>887.0</ele>
        <time>2022-06-19T06:01:50.655Z</time>
      </trkpt>
      <trkpt lat="43.21939167" lon="-6.80396167">
        <ele>887.0</ele>
        <time>2022-06-19T06:01:51.663Z</time>
      </trkpt>
      <trkpt lat="43.21941667" lon="-6.80398">
        <ele>888.0</ele>
        <time>2022-06-19T06:01:52.660Z</time>
      </trkpt>
      <trkpt lat="43.21941667" lon="-6.80398">
        <ele>888.0</ele>
        <time>2022-06-19T06:01:53.660Z</time>
      </trkpt>
      <trkpt lat="43.21944167" lon="-6.80399667">
        <ele>888.0</ele>
        <time>2022-06-19T06:01:54.675Z</time>
      </trkpt>
      <trkpt lat="43.21944167" lon="-6.80399667">
        <ele>888.0</ele>
        <time>2022-06-19T06:01:55.650Z</time>
      </trkpt>
      <trkpt lat="43.21946833" lon="-6.804015">
        <ele>889.0</ele>
        <time>2022-06-19T06:01:56.657Z</time>
      </trkpt>
      <trkpt lat="43.21948167" lon="-6.80402333">
        <ele>889.0</ele>
        <time>2022-06-19T06:01:57.653Z</time>
      </trkpt>
      <trkpt lat="43.219495" lon="-6.80403167">
        <ele>889.0</ele>
        <time>2022-06-19T06:01:58.678Z</time>
      </trkpt>
      <trkpt lat="43.219495" lon="-6.80403167">
        <ele>889.0</ele>
        <time>2022-06-19T06:01:59.687Z</time>
      </trkpt>
      <trkpt lat="43.21952167" lon="-6.804045">
        <ele>890.0</ele>
        <time>2022-06-19T06:02:00.672Z</time>
      </trkpt>
      <trkpt lat="43.21952167" lon="-6.804045">
        <ele>890.0</ele>
        <time>2022-06-19T06:02:01.659Z</time>
      </trkpt>
      <trkpt lat="43.21954833" lon="-6.80405333">
        <ele>890.0</ele>
        <time>2022-06-19T06:02:02.674Z</time>
      </trkpt>
      <trkpt lat="43.21956333" lon="-6.80405667">
        <ele>891.0</ele>
        <time>2022-06-19T06:02:03.658Z</time>
      </trkpt>
      <trkpt lat="43.21956333" lon="-6.80405667">
        <ele>891.0</ele>
        <time>2022-06-19T06:02:04.673Z</time>
      </trkpt>
      <trkpt lat="43.21959333" lon="-6.80407">
        <ele>891.0</ele>
        <time>2022-06-19T06:02:05.655Z</time>
      </trkpt>
      <trkpt lat="43.21960833" lon="-6.80407667">
        <ele>892.0</ele>
        <time>2022-06-19T06:02:06.677Z</time>
      </trkpt>
      <trkpt lat="43.21960833" lon="-6.80407667">
        <ele>892.0</ele>
        <time>2022-06-19T06:02:07.686Z</time>
      </trkpt>
      <trkpt lat="43.219635" lon="-6.80409167">
        <ele>892.0</ele>
        <time>2022-06-19T06:02:08.680Z</time>
      </trkpt>
      <trkpt lat="43.219635" lon="-6.80409167">
        <ele>892.0</ele>
        <time>2022-06-19T06:02:09.671Z</time>
      </trkpt>
      <trkpt lat="43.21966" lon="-6.80410833">
        <ele>893.0</ele>
        <time>2022-06-19T06:02:10.655Z</time>
      </trkpt>
      <trkpt lat="43.21966" lon="-6.80410833">
        <ele>893.0</ele>
        <time>2022-06-19T06:02:11.660Z</time>
      </trkpt>
      <trkpt lat="43.219685" lon="-6.80412167">
        <ele>894.0</ele>
        <time>2022-06-19T06:02:12.683Z</time>
      </trkpt>
      <trkpt lat="43.219685" lon="-6.80412167">
        <ele>894.0</ele>
        <time>2022-06-19T06:02:13.657Z</time>
      </trkpt>
      <trkpt lat="43.21971167" lon="-6.804135">
        <ele>894.0</ele>
        <time>2022-06-19T06:02:14.681Z</time>
      </trkpt>
      <trkpt lat="43.21971167" lon="-6.804135">
        <ele>894.0</ele>
        <time>2022-06-19T06:02:15.688Z</time>
      </trkpt>
      <trkpt lat="43.21973833" lon="-6.80414833">
        <ele>895.0</ele>
        <time>2022-06-19T06:02:16.668Z</time>
      </trkpt>
      <trkpt lat="43.21973833" lon="-6.80414833">
        <ele>895.0</ele>
        <time>2022-06-19T06:02:17.675Z</time>
      </trkpt>
      <trkpt lat="43.21976667" lon="-6.80415833">
        <ele>895.0</ele>
        <time>2022-06-19T06:02:18.655Z</time>
      </trkpt>
      <trkpt lat="43.21976667" lon="-6.80415833">
        <ele>895.0</ele>
        <time>2022-06-19T06:02:19.682Z</time>
      </trkpt>
      <trkpt lat="43.21979333" lon="-6.80417167">
        <ele>895.0</ele>
        <time>2022-06-19T06:02:20.672Z</time>
      </trkpt>
      <trkpt lat="43.21980667" lon="-6.80417667">
        <ele>896.0</ele>
        <time>2022-06-19T06:02:21.654Z</time>
      </trkpt>
      <trkpt lat="43.21980667" lon="-6.80417667">
        <ele>896.0</ele>
        <time>2022-06-19T06:02:22.676Z</time>
      </trkpt>
      <trkpt lat="43.219835" lon="-6.804185">
        <ele>896.0</ele>
        <time>2022-06-19T06:02:23.655Z</time>
      </trkpt>
      <trkpt lat="43.219835" lon="-6.804185">
        <ele>896.0</ele>
        <time>2022-06-19T06:02:24.649Z</time>
      </trkpt>
      <trkpt lat="43.21986333" lon="-6.804195">
        <ele>897.0</ele>
        <time>2022-06-19T06:02:25.679Z</time>
      </trkpt>
      <trkpt lat="43.21987667" lon="-6.80420167">
        <ele>898.0</ele>
        <time>2022-06-19T06:02:26.667Z</time>
      </trkpt>
      <trkpt lat="43.21987667" lon="-6.80420167">
        <ele>898.0</ele>
        <time>2022-06-19T06:02:27.677Z</time>
      </trkpt>
      <trkpt lat="43.219905" lon="-6.804215">
        <ele>898.0</ele>
        <time>2022-06-19T06:02:28.655Z</time>
      </trkpt>
      <trkpt lat="43.219905" lon="-6.804215">
        <ele>898.0</ele>
        <time>2022-06-19T06:02:29.669Z</time>
      </trkpt>
      <trkpt lat="43.21993167" lon="-6.80422833">
        <ele>899.0</ele>
        <time>2022-06-19T06:02:30.662Z</time>
      </trkpt>
      <trkpt lat="43.21993167" lon="-6.80422833">
        <ele>899.0</ele>
        <time>2022-06-19T06:02:31.680Z</time>
      </trkpt>
      <trkpt lat="43.21995667" lon="-6.80424167">
        <ele>899.0</ele>
        <time>2022-06-19T06:02:32.683Z</time>
      </trkpt>
      <trkpt lat="43.21995667" lon="-6.80424167">
        <ele>899.0</ele>
        <time>2022-06-19T06:02:33.657Z</time>
      </trkpt>
      <trkpt lat="43.21998167" lon="-6.80425667">
        <ele>900.0</ele>
        <time>2022-06-19T06:02:34.654Z</time>
      </trkpt>
      <trkpt lat="43.21999667" lon="-6.804265">
        <ele>900.0</ele>
        <time>2022-06-19T06:02:35.675Z</time>
      </trkpt>
      <trkpt lat="43.22001" lon="-6.80427167">
        <ele>900.0</ele>
        <time>2022-06-19T06:02:36.650Z</time>
      </trkpt>
      <trkpt lat="43.22001" lon="-6.80427167">
        <ele>900.0</ele>
        <time>2022-06-19T06:02:37.663Z</time>
      </trkpt>
      <trkpt lat="43.22003667" lon="-6.804285">
        <ele>901.0</ele>
        <time>2022-06-19T06:02:38.679Z</time>
      </trkpt>
      <trkpt lat="43.22004833" lon="-6.80429167">
        <ele>901.0</ele>
        <time>2022-06-19T06:02:39.670Z</time>
      </trkpt>
      <trkpt lat="43.22004833" lon="-6.80429167">
        <ele>901.0</ele>
        <time>2022-06-19T06:02:40.679Z</time>
      </trkpt>
      <trkpt lat="43.22007333" lon="-6.80430667">
        <ele>901.0</ele>
        <time>2022-06-19T06:02:41.655Z</time>
      </trkpt>
      <trkpt lat="43.22008833" lon="-6.80431167">
        <ele>902.0</ele>
        <time>2022-06-19T06:02:42.676Z</time>
      </trkpt>
      <trkpt lat="43.22008833" lon="-6.80431167">
        <ele>902.0</ele>
        <time>2022-06-19T06:02:43.655Z</time>
      </trkpt>
      <trkpt lat="43.220115" lon="-6.80432167">
        <ele>902.0</ele>
        <time>2022-06-19T06:02:44.688Z</time>
      </trkpt>
      <trkpt lat="43.22012833" lon="-6.80432833">
        <ele>902.0</ele>
        <time>2022-06-19T06:02:45.671Z</time>
      </trkpt>
      <trkpt lat="43.22014333" lon="-6.804335">
        <ele>903.0</ele>
        <time>2022-06-19T06:02:46.650Z</time>
      </trkpt>
      <trkpt lat="43.22014333" lon="-6.804335">
        <ele>903.0</ele>
        <time>2022-06-19T06:02:47.663Z</time>
      </trkpt>
      <trkpt lat="43.220175" lon="-6.80434167">
        <ele>903.0</ele>
        <time>2022-06-19T06:02:48.687Z</time>
      </trkpt>
      <trkpt lat="43.220175" lon="-6.80434167">
        <ele>903.0</ele>
        <time>2022-06-19T06:02:49.654Z</time>
      </trkpt>
      <trkpt lat="43.22020167" lon="-6.804355">
        <ele>903.0</ele>
        <time>2022-06-19T06:02:50.676Z</time>
      </trkpt>
      <trkpt lat="43.22020167" lon="-6.804355">
        <ele>903.0</ele>
        <time>2022-06-19T06:02:51.652Z</time>
      </trkpt>
      <trkpt lat="43.22023167" lon="-6.80436167">
        <ele>904.0</ele>
        <time>2022-06-19T06:02:52.675Z</time>
      </trkpt>
      <trkpt lat="43.220245" lon="-6.80436667">
        <ele>904.0</ele>
        <time>2022-06-19T06:02:53.652Z</time>
      </trkpt>
      <trkpt lat="43.220245" lon="-6.80436667">
        <ele>904.0</ele>
        <time>2022-06-19T06:02:54.661Z</time>
      </trkpt>
      <trkpt lat="43.22026833" lon="-6.80437833">
        <ele>905.0</ele>
        <time>2022-06-19T06:02:55.652Z</time>
      </trkpt>
      <trkpt lat="43.22028" lon="-6.804385">
        <ele>905.0</ele>
        <time>2022-06-19T06:02:56.665Z</time>
      </trkpt>
      <trkpt lat="43.22028" lon="-6.804385">
        <ele>905.0</ele>
        <time>2022-06-19T06:02:57.673Z</time>
      </trkpt>
      <trkpt lat="43.220305" lon="-6.80439667">
        <ele>905.0</ele>
        <time>2022-06-19T06:02:58.688Z</time>
      </trkpt>
      <trkpt lat="43.220305" lon="-6.80439667">
        <ele>905.0</ele>
        <time>2022-06-19T06:02:59.682Z</time>
      </trkpt>
      <trkpt lat="43.22032333" lon="-6.804415">
        <ele>906.0</ele>
        <time>2022-06-19T06:03:00.661Z</time>
      </trkpt>
      <trkpt lat="43.22032333" lon="-6.804415">
        <ele>906.0</ele>
        <time>2022-06-19T06:03:01.669Z</time>
      </trkpt>
      <trkpt lat="43.22034333" lon="-6.80443">
        <ele>907.0</ele>
        <time>2022-06-19T06:03:02.651Z</time>
      </trkpt>
      <trkpt lat="43.22034333" lon="-6.80443">
        <ele>907.0</ele>
        <time>2022-06-19T06:03:03.659Z</time>
      </trkpt>
      <trkpt lat="43.22036333" lon="-6.80444333">
        <ele>908.0</ele>
        <time>2022-06-19T06:03:04.660Z</time>
      </trkpt>
      <trkpt lat="43.22037333" lon="-6.80444667">
        <ele>908.0</ele>
        <time>2022-06-19T06:03:05.662Z</time>
      </trkpt>
      <trkpt lat="43.22037333" lon="-6.80444667">
        <ele>908.0</ele>
        <time>2022-06-19T06:03:06.654Z</time>
      </trkpt>
      <trkpt lat="43.2204" lon="-6.80445167">
        <ele>908.0</ele>
        <time>2022-06-19T06:03:07.668Z</time>
      </trkpt>
      <trkpt lat="43.22041333" lon="-6.80445333">
        <ele>909.0</ele>
        <time>2022-06-19T06:03:08.673Z</time>
      </trkpt>
      <trkpt lat="43.22041333" lon="-6.80445333">
        <ele>909.0</ele>
        <time>2022-06-19T06:03:09.686Z</time>
      </trkpt>
      <trkpt lat="43.220435" lon="-6.80446333">
        <ele>909.0</ele>
        <time>2022-06-19T06:03:10.655Z</time>
      </trkpt>
      <trkpt lat="43.220435" lon="-6.80446333">
        <ele>909.0</ele>
        <time>2022-06-19T06:03:11.676Z</time>
      </trkpt>
      <trkpt lat="43.220455" lon="-6.804475">
        <ele>910.0</ele>
        <time>2022-06-19T06:03:12.664Z</time>
      </trkpt>
      <trkpt lat="43.220455" lon="-6.804475">
        <ele>910.0</ele>
        <time>2022-06-19T06:03:13.651Z</time>
      </trkpt>
      <trkpt lat="43.22047667" lon="-6.80448">
        <ele>910.0</ele>
        <time>2022-06-19T06:03:14.667Z</time>
      </trkpt>
      <trkpt lat="43.22048833" lon="-6.804485">
        <ele>910.0</ele>
        <time>2022-06-19T06:03:15.662Z</time>
      </trkpt>
      <trkpt lat="43.22048833" lon="-6.804485">
        <ele>910.0</ele>
        <time>2022-06-19T06:03:16.653Z</time>
      </trkpt>
      <trkpt lat="43.22050833" lon="-6.80449333">
        <ele>911.0</ele>
        <time>2022-06-19T06:03:17.675Z</time>
      </trkpt>
      <trkpt lat="43.22050833" lon="-6.80449333">
        <ele>911.0</ele>
        <time>2022-06-19T06:03:18.682Z</time>
      </trkpt>
      <trkpt lat="43.22053833" lon="-6.80450167">
        <ele>911.0</ele>
        <time>2022-06-19T06:03:19.664Z</time>
      </trkpt>
      <trkpt lat="43.22053833" lon="-6.80450167">
        <ele>911.0</ele>
        <time>2022-06-19T06:03:20.681Z</time>
      </trkpt>
      <trkpt lat="43.22056" lon="-6.80451333">
        <ele>912.0</ele>
        <time>2022-06-19T06:03:21.653Z</time>
      </trkpt>
      <trkpt lat="43.22056" lon="-6.80451333">
        <ele>912.0</ele>
        <time>2022-06-19T06:03:22.668Z</time>
      </trkpt>
      <trkpt lat="43.22058" lon="-6.80451667">
        <ele>912.0</ele>
        <time>2022-06-19T06:03:23.665Z</time>
      </trkpt>
      <trkpt lat="43.22058" lon="-6.80451667">
        <ele>912.0</ele>
        <time>2022-06-19T06:03:24.678Z</time>
      </trkpt>
      <trkpt lat="43.22059833" lon="-6.80452">
        <ele>913.0</ele>
        <time>2022-06-19T06:03:25.657Z</time>
      </trkpt>
      <trkpt lat="43.22059833" lon="-6.80452">
        <ele>913.0</ele>
        <time>2022-06-19T06:03:26.673Z</time>
      </trkpt>
      <trkpt lat="43.22062" lon="-6.80452333">
        <ele>913.0</ele>
        <time>2022-06-19T06:03:27.687Z</time>
      </trkpt>
      <trkpt lat="43.22062" lon="-6.80452333">
        <ele>913.0</ele>
        <time>2022-06-19T06:03:28.672Z</time>
      </trkpt>
      <trkpt lat="43.22064167" lon="-6.80453333">
        <ele>914.0</ele>
        <time>2022-06-19T06:03:29.688Z</time>
      </trkpt>
      <trkpt lat="43.22065167" lon="-6.80454">
        <ele>914.0</ele>
        <time>2022-06-19T06:03:30.671Z</time>
      </trkpt>
      <trkpt lat="43.22065167" lon="-6.80454">
        <ele>914.0</ele>
        <time>2022-06-19T06:03:31.656Z</time>
      </trkpt>
      <trkpt lat="43.22067667" lon="-6.80454833">
        <ele>914.0</ele>
        <time>2022-06-19T06:03:32.669Z</time>
      </trkpt>
      <trkpt lat="43.22068833" lon="-6.80455167">
        <ele>915.0</ele>
        <time>2022-06-19T06:03:33.650Z</time>
      </trkpt>
      <trkpt lat="43.22068833" lon="-6.80455167">
        <ele>915.0</ele>
        <time>2022-06-19T06:03:34.657Z</time>
      </trkpt>
      <trkpt lat="43.22071" lon="-6.80455333">
        <ele>915.0</ele>
        <time>2022-06-19T06:03:35.685Z</time>
      </trkpt>
      <trkpt lat="43.22071" lon="-6.80455333">
        <ele>915.0</ele>
        <time>2022-06-19T06:03:36.681Z</time>
      </trkpt>
      <trkpt lat="43.22073333" lon="-6.80456167">
        <ele>915.0</ele>
        <time>2022-06-19T06:03:37.673Z</time>
      </trkpt>
      <trkpt lat="43.22074167" lon="-6.80457">
        <ele>916.0</ele>
        <time>2022-06-19T06:03:38.671Z</time>
      </trkpt>
      <trkpt lat="43.22074167" lon="-6.80457">
        <ele>916.0</ele>
        <time>2022-06-19T06:03:39.650Z</time>
      </trkpt>
      <trkpt lat="43.22076333" lon="-6.80458167">
        <ele>917.0</ele>
        <time>2022-06-19T06:03:40.680Z</time>
      </trkpt>
      <trkpt lat="43.220775" lon="-6.80458167">
        <ele>917.0</ele>
        <time>2022-06-19T06:03:41.670Z</time>
      </trkpt>
      <trkpt lat="43.220775" lon="-6.80458167">
        <ele>917.0</ele>
        <time>2022-06-19T06:03:42.677Z</time>
      </trkpt>
      <trkpt lat="43.22079667" lon="-6.80458167">
        <ele>917.0</ele>
        <time>2022-06-19T06:03:43.657Z</time>
      </trkpt>
      <trkpt lat="43.22079667" lon="-6.80458167">
        <ele>917.0</ele>
        <time>2022-06-19T06:03:44.688Z</time>
      </trkpt>
      <trkpt lat="43.22081833" lon="-6.804585">
        <ele>917.0</ele>
        <time>2022-06-19T06:03:45.655Z</time>
      </trkpt>
      <trkpt lat="43.22081833" lon="-6.804585">
        <ele>917.0</ele>
        <time>2022-06-19T06:03:46.678Z</time>
      </trkpt>
      <trkpt lat="43.22084333" lon="-6.80459">
        <ele>918.0</ele>
        <time>2022-06-19T06:03:47.688Z</time>
      </trkpt>
      <trkpt lat="43.22085333" lon="-6.80459167">
        <ele>918.0</ele>
        <time>2022-06-19T06:03:48.674Z</time>
      </trkpt>
      <trkpt lat="43.22085333" lon="-6.80459167">
        <ele>918.0</ele>
        <time>2022-06-19T06:03:49.670Z</time>
      </trkpt>
      <trkpt lat="43.22087833" lon="-6.80459667">
        <ele>918.0</ele>
        <time>2022-06-19T06:03:50.661Z</time>
      </trkpt>
      <trkpt lat="43.22087833" lon="-6.80459667">
        <ele>918.0</ele>
        <time>2022-06-19T06:03:51.678Z</time>
      </trkpt>
      <trkpt lat="43.22090333" lon="-6.80460167">
        <ele>918.0</ele>
        <time>2022-06-19T06:03:52.665Z</time>
      </trkpt>
      <trkpt lat="43.220915" lon="-6.804605">
        <ele>918.0</ele>
        <time>2022-06-19T06:03:53.654Z</time>
      </trkpt>
      <trkpt lat="43.220915" lon="-6.804605">
        <ele>918.0</ele>
        <time>2022-06-19T06:03:54.676Z</time>
      </trkpt>
      <trkpt lat="43.22093667" lon="-6.804615">
        <ele>919.0</ele>
        <time>2022-06-19T06:03:55.662Z</time>
      </trkpt>
      <trkpt lat="43.22093667" lon="-6.804615">
        <ele>919.0</ele>
        <time>2022-06-19T06:03:56.687Z</time>
      </trkpt>
      <trkpt lat="43.22095833" lon="-6.804625">
        <ele>919.0</ele>
        <time>2022-06-19T06:03:57.670Z</time>
      </trkpt>
      <trkpt lat="43.22095833" lon="-6.804625">
        <ele>919.0</ele>
        <time>2022-06-19T06:03:58.678Z</time>
      </trkpt>
      <trkpt lat="43.22097833" lon="-6.80463667">
        <ele>919.0</ele>
        <time>2022-06-19T06:03:59.671Z</time>
      </trkpt>
      <trkpt lat="43.22098667" lon="-6.80464333">
        <ele>919.0</ele>
        <time>2022-06-19T06:04:00.660Z</time>
      </trkpt>
      <trkpt lat="43.22098667" lon="-6.80464333">
        <ele>919.0</ele>
        <time>2022-06-19T06:04:01.667Z</time>
      </trkpt>
      <trkpt lat="43.22101" lon="-6.80464667">
        <ele>919.0</ele>
        <time>2022-06-19T06:04:02.686Z</time>
      </trkpt>
      <trkpt lat="43.22102333" lon="-6.80464667">
        <ele>919.0</ele>
        <time>2022-06-19T06:04:03.680Z</time>
      </trkpt>
      <trkpt lat="43.22102333" lon="-6.80464667">
        <ele>919.0</ele>
        <time>2022-06-19T06:04:04.674Z</time>
      </trkpt>
      <trkpt lat="43.22104833" lon="-6.80464833">
        <ele>920.0</ele>
        <time>2022-06-19T06:04:05.662Z</time>
      </trkpt>
      <trkpt lat="43.22106167" lon="-6.80465">
        <ele>920.0</ele>
        <time>2022-06-19T06:04:06.688Z</time>
      </trkpt>
      <trkpt lat="43.22106167" lon="-6.80465">
        <ele>920.0</ele>
        <time>2022-06-19T06:04:07.673Z</time>
      </trkpt>
      <trkpt lat="43.22108833" lon="-6.80465667">
        <ele>920.0</ele>
        <time>2022-06-19T06:04:08.661Z</time>
      </trkpt>
      <trkpt lat="43.22108833" lon="-6.80465667">
        <ele>920.0</ele>
        <time>2022-06-19T06:04:09.688Z</time>
      </trkpt>
      <trkpt lat="43.22111333" lon="-6.804665">
        <ele>921.0</ele>
        <time>2022-06-19T06:04:10.651Z</time>
      </trkpt>
      <trkpt lat="43.22111333" lon="-6.804665">
        <ele>921.0</ele>
        <time>2022-06-19T06:04:11.673Z</time>
      </trkpt>
      <trkpt lat="43.22113833" lon="-6.80467167">
        <ele>921.0</ele>
        <time>2022-06-19T06:04:12.689Z</time>
      </trkpt>
      <trkpt lat="43.22115167" lon="-6.80467667">
        <ele>921.0</ele>
        <time>2022-06-19T06:04:13.659Z</time>
      </trkpt>
      <trkpt lat="43.22115167" lon="-6.80467667">
        <ele>921.0</ele>
        <time>2022-06-19T06:04:14.673Z</time>
      </trkpt>
      <trkpt lat="43.22117667" lon="-6.804685">
        <ele>922.0</ele>
        <time>2022-06-19T06:04:15.686Z</time>
      </trkpt>
      <trkpt lat="43.22117667" lon="-6.804685">
        <ele>922.0</ele>
        <time>2022-06-19T06:04:16.654Z</time>
      </trkpt>
      <trkpt lat="43.22120333" lon="-6.80469167">
        <ele>922.0</ele>
        <time>2022-06-19T06:04:17.689Z</time>
      </trkpt>
      <trkpt lat="43.221215" lon="-6.80469333">
        <ele>922.0</ele>
        <time>2022-06-19T06:04:18.671Z</time>
      </trkpt>
      <trkpt lat="43.221215" lon="-6.80469333">
        <ele>922.0</ele>
        <time>2022-06-19T06:04:19.678Z</time>
      </trkpt>
      <trkpt lat="43.22123833" lon="-6.80470333">
        <ele>923.0</ele>
        <time>2022-06-19T06:04:20.665Z</time>
      </trkpt>
      <trkpt lat="43.22123833" lon="-6.80470333">
        <ele>923.0</ele>
        <time>2022-06-19T06:04:21.681Z</time>
      </trkpt>
      <trkpt lat="43.22126333" lon="-6.80471167">
        <ele>923.0</ele>
        <time>2022-06-19T06:04:22.659Z</time>
      </trkpt>
      <trkpt lat="43.22126333" lon="-6.80471167">
        <ele>923.0</ele>
        <time>2022-06-19T06:04:23.669Z</time>
      </trkpt>
      <trkpt lat="43.22129" lon="-6.80471833">
        <ele>923.0</ele>
        <time>2022-06-19T06:04:24.656Z</time>
      </trkpt>
      <trkpt lat="43.22129" lon="-6.80471833">
        <ele>923.0</ele>
        <time>2022-06-19T06:04:25.674Z</time>
      </trkpt>
      <trkpt lat="43.22131667" lon="-6.80472667">
        <ele>924.0</ele>
        <time>2022-06-19T06:04:26.672Z</time>
      </trkpt>
      <trkpt lat="43.22132833" lon="-6.80473167">
        <ele>924.0</ele>
        <time>2022-06-19T06:04:27.653Z</time>
      </trkpt>
      <trkpt lat="43.22134" lon="-6.80473833">
        <ele>924.0</ele>
        <time>2022-06-19T06:04:28.685Z</time>
      </trkpt>
      <trkpt lat="43.22134" lon="-6.80473833">
        <ele>924.0</ele>
        <time>2022-06-19T06:04:29.668Z</time>
      </trkpt>
      <trkpt lat="43.22136667" lon="-6.80474833">
        <ele>924.0</ele>
        <time>2022-06-19T06:04:30.666Z</time>
      </trkpt>
      <trkpt lat="43.22136667" lon="-6.80474833">
        <ele>924.0</ele>
        <time>2022-06-19T06:04:31.671Z</time>
      </trkpt>
      <trkpt lat="43.22139333" lon="-6.80476">
        <ele>924.0</ele>
        <time>2022-06-19T06:04:32.685Z</time>
      </trkpt>
      <trkpt lat="43.221405" lon="-6.80476667">
        <ele>924.0</ele>
        <time>2022-06-19T06:04:33.668Z</time>
      </trkpt>
      <trkpt lat="43.221405" lon="-6.80476667">
        <ele>924.0</ele>
        <time>2022-06-19T06:04:34.682Z</time>
      </trkpt>
      <trkpt lat="43.22143167" lon="-6.80477833">
        <ele>925.0</ele>
        <time>2022-06-19T06:04:35.663Z</time>
      </trkpt>
      <trkpt lat="43.22143167" lon="-6.80477833">
        <ele>925.0</ele>
        <time>2022-06-19T06:04:36.678Z</time>
      </trkpt>
      <trkpt lat="43.22145833" lon="-6.804785">
        <ele>925.0</ele>
        <time>2022-06-19T06:04:37.665Z</time>
      </trkpt>
      <trkpt lat="43.22147333" lon="-6.80479">
        <ele>925.0</ele>
        <time>2022-06-19T06:04:38.660Z</time>
      </trkpt>
      <trkpt lat="43.22147333" lon="-6.80479">
        <ele>925.0</ele>
        <time>2022-06-19T06:04:39.677Z</time>
      </trkpt>
      <trkpt lat="43.2215" lon="-6.8048">
        <ele>925.0</ele>
        <time>2022-06-19T06:04:40.661Z</time>
      </trkpt>
      <trkpt lat="43.2215" lon="-6.8048">
        <ele>925.0</ele>
        <time>2022-06-19T06:04:41.668Z</time>
      </trkpt>
      <trkpt lat="43.22152833" lon="-6.80481">
        <ele>926.0</ele>
        <time>2022-06-19T06:04:42.662Z</time>
      </trkpt>
      <trkpt lat="43.22152833" lon="-6.80481">
        <ele>926.0</ele>
        <time>2022-06-19T06:04:43.681Z</time>
      </trkpt>
      <trkpt lat="43.22155333" lon="-6.80482333">
        <ele>926.0</ele>
        <time>2022-06-19T06:04:44.683Z</time>
      </trkpt>
      <trkpt lat="43.221565" lon="-6.80483">
        <ele>926.0</ele>
        <time>2022-06-19T06:04:45.677Z</time>
      </trkpt>
      <trkpt lat="43.22157667" lon="-6.80483833">
        <ele>926.0</ele>
        <time>2022-06-19T06:04:46.682Z</time>
      </trkpt>
      <trkpt lat="43.22157667" lon="-6.80483833">
        <ele>926.0</ele>
        <time>2022-06-19T06:04:47.658Z</time>
      </trkpt>
      <trkpt lat="43.2216" lon="-6.80485667">
        <ele>926.0</ele>
        <time>2022-06-19T06:04:48.673Z</time>
      </trkpt>
      <trkpt lat="43.2216" lon="-6.80485667">
        <ele>926.0</ele>
        <time>2022-06-19T06:04:49.651Z</time>
      </trkpt>
      <trkpt lat="43.22162333" lon="-6.80487667">
        <ele>926.0</ele>
        <time>2022-06-19T06:04:50.672Z</time>
      </trkpt>
      <trkpt lat="43.22162333" lon="-6.80487667">
        <ele>926.0</ele>
        <time>2022-06-19T06:04:51.664Z</time>
      </trkpt>
      <trkpt lat="43.22164333" lon="-6.804905">
        <ele>927.0</ele>
        <time>2022-06-19T06:04:52.680Z</time>
      </trkpt>
      <trkpt lat="43.22164333" lon="-6.804905">
        <ele>927.0</ele>
        <time>2022-06-19T06:04:53.687Z</time>
      </trkpt>
      <trkpt lat="43.22166" lon="-6.80493333">
        <ele>927.0</ele>
        <time>2022-06-19T06:04:54.685Z</time>
      </trkpt>
      <trkpt lat="43.22166" lon="-6.80493333">
        <ele>927.0</ele>
        <time>2022-06-19T06:04:55.666Z</time>
      </trkpt>
      <trkpt lat="43.22168" lon="-6.80495667">
        <ele>927.0</ele>
        <time>2022-06-19T06:04:56.688Z</time>
      </trkpt>
      <trkpt lat="43.22168" lon="-6.80495667">
        <ele>927.0</ele>
        <time>2022-06-19T06:04:57.667Z</time>
      </trkpt>
      <trkpt lat="43.22170333" lon="-6.80498">
        <ele>927.0</ele>
        <time>2022-06-19T06:04:58.690Z</time>
      </trkpt>
      <trkpt lat="43.22170333" lon="-6.80498">
        <ele>927.0</ele>
        <time>2022-06-19T06:04:59.656Z</time>
      </trkpt>
      <trkpt lat="43.22172333" lon="-6.80500167">
        <ele>927.0</ele>
        <time>2022-06-19T06:05:00.672Z</time>
      </trkpt>
      <trkpt lat="43.22172333" lon="-6.80500167">
        <ele>927.0</ele>
        <time>2022-06-19T06:05:01.668Z</time>
      </trkpt>
      <trkpt lat="43.22174333" lon="-6.80502667">
        <ele>927.0</ele>
        <time>2022-06-19T06:05:02.666Z</time>
      </trkpt>
      <trkpt lat="43.22175333" lon="-6.80504">
        <ele>927.0</ele>
        <time>2022-06-19T06:05:03.649Z</time>
      </trkpt>
      <trkpt lat="43.22175333" lon="-6.80504">
        <ele>927.0</ele>
        <time>2022-06-19T06:05:04.657Z</time>
      </trkpt>
      <trkpt lat="43.22177" lon="-6.80506333">
        <ele>928.0</ele>
        <time>2022-06-19T06:05:05.680Z</time>
      </trkpt>
      <trkpt lat="43.22177667" lon="-6.80507833">
        <ele>928.0</ele>
        <time>2022-06-19T06:05:06.674Z</time>
      </trkpt>
      <trkpt lat="43.22177667" lon="-6.80507833">
        <ele>928.0</ele>
        <time>2022-06-19T06:05:07.682Z</time>
      </trkpt>
      <trkpt lat="43.22179167" lon="-6.805105">
        <ele>928.0</ele>
        <time>2022-06-19T06:05:08.681Z</time>
      </trkpt>
      <trkpt lat="43.22179167" lon="-6.805105">
        <ele>928.0</ele>
        <time>2022-06-19T06:05:09.680Z</time>
      </trkpt>
      <trkpt lat="43.221805" lon="-6.80513167">
        <ele>928.0</ele>
        <time>2022-06-19T06:05:10.672Z</time>
      </trkpt>
      <trkpt lat="43.221805" lon="-6.80513167">
        <ele>928.0</ele>
        <time>2022-06-19T06:05:11.665Z</time>
      </trkpt>
      <trkpt lat="43.22182" lon="-6.80515833">
        <ele>928.0</ele>
        <time>2022-06-19T06:05:12.689Z</time>
      </trkpt>
      <trkpt lat="43.22182" lon="-6.80515833">
        <ele>928.0</ele>
        <time>2022-06-19T06:05:13.677Z</time>
      </trkpt>
      <trkpt lat="43.22183333" lon="-6.80519">
        <ele>928.0</ele>
        <time>2022-06-19T06:05:14.661Z</time>
      </trkpt>
      <trkpt lat="43.22183833" lon="-6.805205">
        <ele>928.0</ele>
        <time>2022-06-19T06:05:15.682Z</time>
      </trkpt>
      <trkpt lat="43.22183833" lon="-6.805205">
        <ele>928.0</ele>
        <time>2022-06-19T06:05:16.664Z</time>
      </trkpt>
      <trkpt lat="43.22185333" lon="-6.80523167">
        <ele>929.0</ele>
        <time>2022-06-19T06:05:17.650Z</time>
      </trkpt>
      <trkpt lat="43.22186" lon="-6.805245">
        <ele>929.0</ele>
        <time>2022-06-19T06:05:18.658Z</time>
      </trkpt>
      <trkpt lat="43.22186" lon="-6.805245">
        <ele>929.0</ele>
        <time>2022-06-19T06:05:19.668Z</time>
      </trkpt>
      <trkpt lat="43.22187333" lon="-6.80527333">
        <ele>929.0</ele>
        <time>2022-06-19T06:05:20.685Z</time>
      </trkpt>
      <trkpt lat="43.22187333" lon="-6.80527333">
        <ele>929.0</ele>
        <time>2022-06-19T06:05:21.661Z</time>
      </trkpt>
      <trkpt lat="43.221885" lon="-6.80530333">
        <ele>929.0</ele>
        <time>2022-06-19T06:05:22.685Z</time>
      </trkpt>
      <trkpt lat="43.22189" lon="-6.80531833">
        <ele>929.0</ele>
        <time>2022-06-19T06:05:23.680Z</time>
      </trkpt>
      <trkpt lat="43.221895" lon="-6.805335">
        <ele>929.0</ele>
        <time>2022-06-19T06:05:24.675Z</time>
      </trkpt>
      <trkpt lat="43.221895" lon="-6.805335">
        <ele>929.0</ele>
        <time>2022-06-19T06:05:25.665Z</time>
      </trkpt>
      <trkpt lat="43.22190833" lon="-6.80536167">
        <ele>929.0</ele>
        <time>2022-06-19T06:05:26.655Z</time>
      </trkpt>
      <trkpt lat="43.22190833" lon="-6.80536167">
        <ele>929.0</ele>
        <time>2022-06-19T06:05:27.650Z</time>
      </trkpt>
      <trkpt lat="43.22192333" lon="-6.80538667">
        <ele>930.0</ele>
        <time>2022-06-19T06:05:28.664Z</time>
      </trkpt>
      <trkpt lat="43.22192333" lon="-6.80538667">
        <ele>930.0</ele>
        <time>2022-06-19T06:05:29.682Z</time>
      </trkpt>
      <trkpt lat="43.22194" lon="-6.805415">
        <ele>930.0</ele>
        <time>2022-06-19T06:05:30.663Z</time>
      </trkpt>
      <trkpt lat="43.22194" lon="-6.805415">
        <ele>930.0</ele>
        <time>2022-06-19T06:05:31.672Z</time>
      </trkpt>
      <trkpt lat="43.22195167" lon="-6.805445">
        <ele>930.0</ele>
        <time>2022-06-19T06:05:32.656Z</time>
      </trkpt>
      <trkpt lat="43.22195667" lon="-6.80545833">
        <ele>930.0</ele>
        <time>2022-06-19T06:05:33.688Z</time>
      </trkpt>
      <trkpt lat="43.22195667" lon="-6.80545833">
        <ele>930.0</ele>
        <time>2022-06-19T06:05:34.669Z</time>
      </trkpt>
      <trkpt lat="43.22196667" lon="-6.80548833">
        <ele>931.0</ele>
        <time>2022-06-19T06:05:35.666Z</time>
      </trkpt>
      <trkpt lat="43.22197333" lon="-6.80550167">
        <ele>931.0</ele>
        <time>2022-06-19T06:05:36.682Z</time>
      </trkpt>
      <trkpt lat="43.22197333" lon="-6.80550167">
        <ele>931.0</ele>
        <time>2022-06-19T06:05:37.662Z</time>
      </trkpt>
      <trkpt lat="43.22198833" lon="-6.80552667">
        <ele>931.0</ele>
        <time>2022-06-19T06:05:38.679Z</time>
      </trkpt>
      <trkpt lat="43.22199833" lon="-6.80553833">
        <ele>931.0</ele>
        <time>2022-06-19T06:05:39.660Z</time>
      </trkpt>
      <trkpt lat="43.22199833" lon="-6.80553833">
        <ele>931.0</ele>
        <time>2022-06-19T06:05:40.667Z</time>
      </trkpt>
      <trkpt lat="43.22201333" lon="-6.80556667">
        <ele>931.0</ele>
        <time>2022-06-19T06:05:41.653Z</time>
      </trkpt>
      <trkpt lat="43.22202" lon="-6.80558167">
        <ele>932.0</ele>
        <time>2022-06-19T06:05:42.660Z</time>
      </trkpt>
      <trkpt lat="43.22202" lon="-6.80558167">
        <ele>932.0</ele>
        <time>2022-06-19T06:05:43.675Z</time>
      </trkpt>
      <trkpt lat="43.222035" lon="-6.80561333">
        <ele>932.0</ele>
        <time>2022-06-19T06:05:44.656Z</time>
      </trkpt>
      <trkpt lat="43.22204333" lon="-6.80562667">
        <ele>932.0</ele>
        <time>2022-06-19T06:05:45.664Z</time>
      </trkpt>
      <trkpt lat="43.22204333" lon="-6.80562667">
        <ele>932.0</ele>
        <time>2022-06-19T06:05:46.682Z</time>
      </trkpt>
      <trkpt lat="43.22206167" lon="-6.80565167">
        <ele>933.0</ele>
        <time>2022-06-19T06:05:47.669Z</time>
      </trkpt>
      <trkpt lat="43.22207" lon="-6.80566667">
        <ele>933.0</ele>
        <time>2022-06-19T06:05:48.667Z</time>
      </trkpt>
      <trkpt lat="43.22207667" lon="-6.80567833">
        <ele>933.0</ele>
        <time>2022-06-19T06:05:49.651Z</time>
      </trkpt>
      <trkpt lat="43.22207667" lon="-6.80567833">
        <ele>933.0</ele>
        <time>2022-06-19T06:05:50.658Z</time>
      </trkpt>
      <trkpt lat="43.22209167" lon="-6.80570333">
        <ele>933.0</ele>
        <time>2022-06-19T06:05:51.685Z</time>
      </trkpt>
      <trkpt lat="43.22210167" lon="-6.80571667">
        <ele>934.0</ele>
        <time>2022-06-19T06:05:52.678Z</time>
      </trkpt>
      <trkpt lat="43.22210167" lon="-6.80571667">
        <ele>934.0</ele>
        <time>2022-06-19T06:05:53.655Z</time>
      </trkpt>
      <trkpt lat="43.22212" lon="-6.805745">
        <ele>934.0</ele>
        <time>2022-06-19T06:05:54.653Z</time>
      </trkpt>
      <trkpt lat="43.22212" lon="-6.805745">
        <ele>934.0</ele>
        <time>2022-06-19T06:05:55.667Z</time>
      </trkpt>
      <trkpt lat="43.22213833" lon="-6.80576667">
        <ele>934.0</ele>
        <time>2022-06-19T06:05:56.665Z</time>
      </trkpt>
      <trkpt lat="43.22213833" lon="-6.80576667">
        <ele>934.0</ele>
        <time>2022-06-19T06:05:57.677Z</time>
      </trkpt>
      <trkpt lat="43.22215833" lon="-6.80578833">
        <ele>935.0</ele>
        <time>2022-06-19T06:05:58.657Z</time>
      </trkpt>
      <trkpt lat="43.22215833" lon="-6.80578833">
        <ele>935.0</ele>
        <time>2022-06-19T06:05:59.673Z</time>
      </trkpt>
      <trkpt lat="43.22218" lon="-6.80580667">
        <ele>935.0</ele>
        <time>2022-06-19T06:06:00.657Z</time>
      </trkpt>
      <trkpt lat="43.22218" lon="-6.80580667">
        <ele>935.0</ele>
        <time>2022-06-19T06:06:01.666Z</time>
      </trkpt>
      <trkpt lat="43.222205" lon="-6.805825">
        <ele>936.0</ele>
        <time>2022-06-19T06:06:02.670Z</time>
      </trkpt>
      <trkpt lat="43.22221833" lon="-6.80583167">
        <ele>936.0</ele>
        <time>2022-06-19T06:06:03.673Z</time>
      </trkpt>
      <trkpt lat="43.22221833" lon="-6.80583167">
        <ele>936.0</ele>
        <time>2022-06-19T06:06:04.652Z</time>
      </trkpt>
      <trkpt lat="43.22224" lon="-6.80585167">
        <ele>936.0</ele>
        <time>2022-06-19T06:06:05.670Z</time>
      </trkpt>
      <trkpt lat="43.22224" lon="-6.80585167">
        <ele>936.0</ele>
        <time>2022-06-19T06:06:06.679Z</time>
      </trkpt>
      <trkpt lat="43.22226667" lon="-6.80587333">
        <ele>937.0</ele>
        <time>2022-06-19T06:06:07.656Z</time>
      </trkpt>
      <trkpt lat="43.22226667" lon="-6.80587333">
        <ele>937.0</ele>
        <time>2022-06-19T06:06:08.657Z</time>
      </trkpt>
      <trkpt lat="43.22229333" lon="-6.80588667">
        <ele>938.0</ele>
        <time>2022-06-19T06:06:09.675Z</time>
      </trkpt>
      <trkpt lat="43.22229333" lon="-6.80588667">
        <ele>938.0</ele>
        <time>2022-06-19T06:06:10.660Z</time>
      </trkpt>
      <trkpt lat="43.22231833" lon="-6.80590333">
        <ele>939.0</ele>
        <time>2022-06-19T06:06:11.685Z</time>
      </trkpt>
      <trkpt lat="43.22232833" lon="-6.80591167">
        <ele>939.0</ele>
        <time>2022-06-19T06:06:12.683Z</time>
      </trkpt>
      <trkpt lat="43.22232833" lon="-6.80591167">
        <ele>939.0</ele>
        <time>2022-06-19T06:06:13.668Z</time>
      </trkpt>
      <trkpt lat="43.22235" lon="-6.80592833">
        <ele>940.0</ele>
        <time>2022-06-19T06:06:14.650Z</time>
      </trkpt>
      <trkpt lat="43.22235" lon="-6.80592833">
        <ele>940.0</ele>
        <time>2022-06-19T06:06:15.682Z</time>
      </trkpt>
      <trkpt lat="43.222375" lon="-6.80594">
        <ele>941.0</ele>
        <time>2022-06-19T06:06:16.673Z</time>
      </trkpt>
      <trkpt lat="43.222375" lon="-6.80594">
        <ele>941.0</ele>
        <time>2022-06-19T06:06:17.679Z</time>
      </trkpt>
      <trkpt lat="43.22240167" lon="-6.80594667">
        <ele>941.0</ele>
        <time>2022-06-19T06:06:18.666Z</time>
      </trkpt>
      <trkpt lat="43.22241333" lon="-6.80595">
        <ele>942.0</ele>
        <time>2022-06-19T06:06:19.690Z</time>
      </trkpt>
      <trkpt lat="43.22241333" lon="-6.80595">
        <ele>942.0</ele>
        <time>2022-06-19T06:06:20.658Z</time>
      </trkpt>
      <trkpt lat="43.22243833" lon="-6.80595667">
        <ele>943.0</ele>
        <time>2022-06-19T06:06:21.650Z</time>
      </trkpt>
      <trkpt lat="43.22245167" lon="-6.805955">
        <ele>943.0</ele>
        <time>2022-06-19T06:06:22.675Z</time>
      </trkpt>
      <trkpt lat="43.22245167" lon="-6.805955">
        <ele>943.0</ele>
        <time>2022-06-19T06:06:23.658Z</time>
      </trkpt>
      <trkpt lat="43.22248167" lon="-6.805955">
        <ele>944.0</ele>
        <time>2022-06-19T06:06:24.675Z</time>
      </trkpt>
      <trkpt lat="43.22248167" lon="-6.805955">
        <ele>944.0</ele>
        <time>2022-06-19T06:06:25.682Z</time>
      </trkpt>
      <trkpt lat="43.22251167" lon="-6.80595167">
        <ele>945.0</ele>
        <time>2022-06-19T06:06:26.659Z</time>
      </trkpt>
      <trkpt lat="43.222525" lon="-6.80595333">
        <ele>945.0</ele>
        <time>2022-06-19T06:06:27.656Z</time>
      </trkpt>
      <trkpt lat="43.22254" lon="-6.80595333">
        <ele>946.0</ele>
        <time>2022-06-19T06:06:28.679Z</time>
      </trkpt>
      <trkpt lat="43.22254" lon="-6.80595333">
        <ele>946.0</ele>
        <time>2022-06-19T06:06:29.656Z</time>
      </trkpt>
      <trkpt lat="43.22256667" lon="-6.805955">
        <ele>947.0</ele>
        <time>2022-06-19T06:06:30.653Z</time>
      </trkpt>
      <trkpt lat="43.22256667" lon="-6.805955">
        <ele>947.0</ele>
        <time>2022-06-19T06:06:31.661Z</time>
      </trkpt>
      <trkpt lat="43.22259" lon="-6.80595">
        <ele>947.0</ele>
        <time>2022-06-19T06:06:32.685Z</time>
      </trkpt>
      <trkpt lat="43.22259" lon="-6.80595">
        <ele>947.0</ele>
        <time>2022-06-19T06:06:33.653Z</time>
      </trkpt>
      <trkpt lat="43.22261833" lon="-6.80594167">
        <ele>948.0</ele>
        <time>2022-06-19T06:06:34.667Z</time>
      </trkpt>
      <trkpt lat="43.22263167" lon="-6.80593833">
        <ele>948.0</ele>
        <time>2022-06-19T06:06:35.665Z</time>
      </trkpt>
      <trkpt lat="43.22263167" lon="-6.80593833">
        <ele>948.0</ele>
        <time>2022-06-19T06:06:36.653Z</time>
      </trkpt>
      <trkpt lat="43.222675" lon="-6.80594667">
        <ele>949.0</ele>
        <time>2022-06-19T06:06:37.670Z</time>
      </trkpt>
      <trkpt lat="43.222675" lon="-6.80594667">
        <ele>949.0</ele>
        <time>2022-06-19T06:06:38.674Z</time>
      </trkpt>
      <trkpt lat="43.22271167" lon="-6.80594667">
        <ele>949.0</ele>
        <time>2022-06-19T06:06:39.650Z</time>
      </trkpt>
      <trkpt lat="43.22271167" lon="-6.80594667">
        <ele>949.0</ele>
        <time>2022-06-19T06:06:40.658Z</time>
      </trkpt>
      <trkpt lat="43.22274167" lon="-6.80594833">
        <ele>950.0</ele>
        <time>2022-06-19T06:06:41.675Z</time>
      </trkpt>
      <trkpt lat="43.22275833" lon="-6.80594667">
        <ele>949.0</ele>
        <time>2022-06-19T06:06:42.650Z</time>
      </trkpt>
      <trkpt lat="43.22275833" lon="-6.80594667">
        <ele>949.0</ele>
        <time>2022-06-19T06:06:43.649Z</time>
      </trkpt>
      <trkpt lat="43.222785" lon="-6.80594167">
        <ele>949.0</ele>
        <time>2022-06-19T06:06:44.663Z</time>
      </trkpt>
      <trkpt lat="43.222785" lon="-6.80594167">
        <ele>949.0</ele>
        <time>2022-06-19T06:06:45.669Z</time>
      </trkpt>
      <trkpt lat="43.22281167" lon="-6.80593833">
        <ele>950.0</ele>
        <time>2022-06-19T06:06:46.655Z</time>
      </trkpt>
      <trkpt lat="43.22281167" lon="-6.80593833">
        <ele>950.0</ele>
        <time>2022-06-19T06:06:47.663Z</time>
      </trkpt>
      <trkpt lat="43.22283833" lon="-6.80593333">
        <ele>950.0</ele>
        <time>2022-06-19T06:06:48.679Z</time>
      </trkpt>
      <trkpt lat="43.22285" lon="-6.80593">
        <ele>950.0</ele>
        <time>2022-06-19T06:06:49.665Z</time>
      </trkpt>
      <trkpt lat="43.22285" lon="-6.80593">
        <ele>950.0</ele>
        <time>2022-06-19T06:06:50.685Z</time>
      </trkpt>
      <trkpt lat="43.222875" lon="-6.80592667">
        <ele>951.0</ele>
        <time>2022-06-19T06:06:51.654Z</time>
      </trkpt>
      <trkpt lat="43.22288667" lon="-6.80592667">
        <ele>951.0</ele>
        <time>2022-06-19T06:06:52.686Z</time>
      </trkpt>
      <trkpt lat="43.22288667" lon="-6.80592667">
        <ele>951.0</ele>
        <time>2022-06-19T06:06:53.682Z</time>
      </trkpt>
      <trkpt lat="43.22291167" lon="-6.80592667">
        <ele>952.0</ele>
        <time>2022-06-19T06:06:54.670Z</time>
      </trkpt>
      <trkpt lat="43.22291167" lon="-6.80592667">
        <ele>952.0</ele>
        <time>2022-06-19T06:06:55.656Z</time>
      </trkpt>
      <trkpt lat="43.22293833" lon="-6.80593167">
        <ele>952.0</ele>
        <time>2022-06-19T06:06:56.675Z</time>
      </trkpt>
      <trkpt lat="43.22293833" lon="-6.80593167">
        <ele>952.0</ele>
        <time>2022-06-19T06:06:57.663Z</time>
      </trkpt>
      <trkpt lat="43.22296167" lon="-6.80593833">
        <ele>953.0</ele>
        <time>2022-06-19T06:06:58.678Z</time>
      </trkpt>
      <trkpt lat="43.222975" lon="-6.80594167">
        <ele>953.0</ele>
        <time>2022-06-19T06:06:59.655Z</time>
      </trkpt>
      <trkpt lat="43.22298667" lon="-6.805945">
        <ele>953.0</ele>
        <time>2022-06-19T06:07:00.687Z</time>
      </trkpt>
      <trkpt lat="43.22298667" lon="-6.805945">
        <ele>953.0</ele>
        <time>2022-06-19T06:07:01.685Z</time>
      </trkpt>
      <trkpt lat="43.22301333" lon="-6.80594833">
        <ele>954.0</ele>
        <time>2022-06-19T06:07:02.667Z</time>
      </trkpt>
      <trkpt lat="43.22301333" lon="-6.80594833">
        <ele>954.0</ele>
        <time>2022-06-19T06:07:03.683Z</time>
      </trkpt>
      <trkpt lat="43.22304333" lon="-6.80594667">
        <ele>954.0</ele>
        <time>2022-06-19T06:07:04.670Z</time>
      </trkpt>
      <trkpt lat="43.22304333" lon="-6.80594667">
        <ele>954.0</ele>
        <time>2022-06-19T06:07:05.684Z</time>
      </trkpt>
      <trkpt lat="43.22306667" lon="-6.80595">
        <ele>955.0</ele>
        <time>2022-06-19T06:07:06.670Z</time>
      </trkpt>
      <trkpt lat="43.22306667" lon="-6.80595">
        <ele>955.0</ele>
        <time>2022-06-19T06:07:07.687Z</time>
      </trkpt>
      <trkpt lat="43.22309333" lon="-6.805965">
        <ele>955.0</ele>
        <time>2022-06-19T06:07:08.679Z</time>
      </trkpt>
      <trkpt lat="43.22311" lon="-6.80597">
        <ele>955.0</ele>
        <time>2022-06-19T06:07:09.664Z</time>
      </trkpt>
      <trkpt lat="43.22311" lon="-6.80597">
        <ele>955.0</ele>
        <time>2022-06-19T06:07:10.673Z</time>
      </trkpt>
      <trkpt lat="43.22313667" lon="-6.80597333">
        <ele>956.0</ele>
        <time>2022-06-19T06:07:11.692Z</time>
      </trkpt>
      <trkpt lat="43.22315" lon="-6.805975">
        <ele>956.0</ele>
        <time>2022-06-19T06:07:12.654Z</time>
      </trkpt>
      <trkpt lat="43.22315" lon="-6.805975">
        <ele>956.0</ele>
        <time>2022-06-19T06:07:13.670Z</time>
      </trkpt>
      <trkpt lat="43.22318" lon="-6.805975">
        <ele>957.0</ele>
        <time>2022-06-19T06:07:14.652Z</time>
      </trkpt>
      <trkpt lat="43.22319333" lon="-6.80597667">
        <ele>957.0</ele>
        <time>2022-06-19T06:07:15.662Z</time>
      </trkpt>
      <trkpt lat="43.22319333" lon="-6.80597667">
        <ele>957.0</ele>
        <time>2022-06-19T06:07:16.678Z</time>
      </trkpt>
      <trkpt lat="43.22322167" lon="-6.80598333">
        <ele>957.0</ele>
        <time>2022-06-19T06:07:17.661Z</time>
      </trkpt>
      <trkpt lat="43.22322167" lon="-6.80598333">
        <ele>957.0</ele>
        <time>2022-06-19T06:07:18.678Z</time>
      </trkpt>
      <trkpt lat="43.223245" lon="-6.80599667">
        <ele>958.0</ele>
        <time>2022-06-19T06:07:19.655Z</time>
      </trkpt>
      <trkpt lat="43.223245" lon="-6.80599667">
        <ele>958.0</ele>
        <time>2022-06-19T06:07:20.672Z</time>
      </trkpt>
      <trkpt lat="43.22327333" lon="-6.80600333">
        <ele>958.0</ele>
        <time>2022-06-19T06:07:21.652Z</time>
      </trkpt>
      <trkpt lat="43.22328833" lon="-6.80600667">
        <ele>958.0</ele>
        <time>2022-06-19T06:07:22.653Z</time>
      </trkpt>
      <trkpt lat="43.22328833" lon="-6.80600667">
        <ele>958.0</ele>
        <time>2022-06-19T06:07:23.674Z</time>
      </trkpt>
      <trkpt lat="43.223315" lon="-6.80601833">
        <ele>959.0</ele>
        <time>2022-06-19T06:07:24.666Z</time>
      </trkpt>
      <trkpt lat="43.223315" lon="-6.80601833">
        <ele>959.0</ele>
        <time>2022-06-19T06:07:25.655Z</time>
      </trkpt>
      <trkpt lat="43.22334167" lon="-6.80602667">
        <ele>959.0</ele>
        <time>2022-06-19T06:07:26.679Z</time>
      </trkpt>
      <trkpt lat="43.223355" lon="-6.80602833">
        <ele>959.0</ele>
        <time>2022-06-19T06:07:27.677Z</time>
      </trkpt>
      <trkpt lat="43.223355" lon="-6.80602833">
        <ele>959.0</ele>
        <time>2022-06-19T06:07:28.682Z</time>
      </trkpt>
      <trkpt lat="43.22337833" lon="-6.80604167">
        <ele>960.0</ele>
        <time>2022-06-19T06:07:29.675Z</time>
      </trkpt>
      <trkpt lat="43.22337833" lon="-6.80604167">
        <ele>960.0</ele>
        <time>2022-06-19T06:07:30.684Z</time>
      </trkpt>
      <trkpt lat="43.223405" lon="-6.80605167">
        <ele>960.0</ele>
        <time>2022-06-19T06:07:31.662Z</time>
      </trkpt>
      <trkpt lat="43.223405" lon="-6.80605167">
        <ele>960.0</ele>
        <time>2022-06-19T06:07:32.681Z</time>
      </trkpt>
      <trkpt lat="43.22342833" lon="-6.80606833">
        <ele>960.0</ele>
        <time>2022-06-19T06:07:33.673Z</time>
      </trkpt>
      <trkpt lat="43.22343833" lon="-6.806075">
        <ele>960.0</ele>
        <time>2022-06-19T06:07:34.667Z</time>
      </trkpt>
      <trkpt lat="43.22343833" lon="-6.806075">
        <ele>960.0</ele>
        <time>2022-06-19T06:07:35.683Z</time>
      </trkpt>
      <trkpt lat="43.22345667" lon="-6.80608833">
        <ele>960.0</ele>
        <time>2022-06-19T06:07:36.654Z</time>
      </trkpt>
      <trkpt lat="43.22345667" lon="-6.80608833">
        <ele>960.0</ele>
        <time>2022-06-19T06:07:37.665Z</time>
      </trkpt>
      <trkpt lat="43.22347833" lon="-6.80609167">
        <ele>961.0</ele>
        <time>2022-06-19T06:07:38.687Z</time>
      </trkpt>
      <trkpt lat="43.22349167" lon="-6.80609667">
        <ele>961.0</ele>
        <time>2022-06-19T06:07:39.666Z</time>
      </trkpt>
      <trkpt lat="43.22349167" lon="-6.80609667">
        <ele>961.0</ele>
        <time>2022-06-19T06:07:40.680Z</time>
      </trkpt>
      <trkpt lat="43.223515" lon="-6.80611">
        <ele>960.0</ele>
        <time>2022-06-19T06:07:41.652Z</time>
      </trkpt>
      <trkpt lat="43.223525" lon="-6.80611833">
        <ele>960.0</ele>
        <time>2022-06-19T06:07:42.687Z</time>
      </trkpt>
      <trkpt lat="43.223525" lon="-6.80611833">
        <ele>960.0</ele>
        <time>2022-06-19T06:07:43.654Z</time>
      </trkpt>
      <trkpt lat="43.22354333" lon="-6.80613167">
        <ele>962.0</ele>
        <time>2022-06-19T06:07:44.662Z</time>
      </trkpt>
      <trkpt lat="43.22354333" lon="-6.80613167">
        <ele>962.0</ele>
        <time>2022-06-19T06:07:45.681Z</time>
      </trkpt>
      <trkpt lat="43.223565" lon="-6.80614">
        <ele>962.0</ele>
        <time>2022-06-19T06:07:46.653Z</time>
      </trkpt>
      <trkpt lat="43.223565" lon="-6.80614">
        <ele>962.0</ele>
        <time>2022-06-19T06:07:47.675Z</time>
      </trkpt>
      <trkpt lat="43.22359" lon="-6.80614333">
        <ele>963.0</ele>
        <time>2022-06-19T06:07:48.655Z</time>
      </trkpt>
      <trkpt lat="43.22359" lon="-6.80614333">
        <ele>963.0</ele>
        <time>2022-06-19T06:07:49.671Z</time>
      </trkpt>
      <trkpt lat="43.22361167" lon="-6.80615667">
        <ele>963.0</ele>
        <time>2022-06-19T06:07:50.659Z</time>
      </trkpt>
      <trkpt lat="43.22361167" lon="-6.80615667">
        <ele>963.0</ele>
        <time>2022-06-19T06:07:51.679Z</time>
      </trkpt>
      <trkpt lat="43.22363833" lon="-6.80617">
        <ele>963.0</ele>
        <time>2022-06-19T06:07:52.680Z</time>
      </trkpt>
      <trkpt lat="43.22363833" lon="-6.80617">
        <ele>963.0</ele>
        <time>2022-06-19T06:07:53.656Z</time>
      </trkpt>
      <trkpt lat="43.22367" lon="-6.80618167">
        <ele>964.0</ele>
        <time>2022-06-19T06:07:54.672Z</time>
      </trkpt>
      <trkpt lat="43.22367" lon="-6.80618167">
        <ele>964.0</ele>
        <time>2022-06-19T06:07:55.662Z</time>
      </trkpt>
      <trkpt lat="43.22369333" lon="-6.80619667">
        <ele>964.0</ele>
        <time>2022-06-19T06:07:56.680Z</time>
      </trkpt>
      <trkpt lat="43.22370333" lon="-6.80620667">
        <ele>964.0</ele>
        <time>2022-06-19T06:07:57.673Z</time>
      </trkpt>
      <trkpt lat="43.22370333" lon="-6.80620667">
        <ele>964.0</ele>
        <time>2022-06-19T06:07:58.652Z</time>
      </trkpt>
      <trkpt lat="43.22372167" lon="-6.80622833">
        <ele>964.0</ele>
        <time>2022-06-19T06:07:59.668Z</time>
      </trkpt>
      <trkpt lat="43.22373167" lon="-6.80623667">
        <ele>964.0</ele>
        <time>2022-06-19T06:08:00.683Z</time>
      </trkpt>
      <trkpt lat="43.22373167" lon="-6.80623667">
        <ele>964.0</ele>
        <time>2022-06-19T06:08:01.651Z</time>
      </trkpt>
      <trkpt lat="43.22375" lon="-6.80625167">
        <ele>964.0</ele>
        <time>2022-06-19T06:08:02.664Z</time>
      </trkpt>
      <trkpt lat="43.22375" lon="-6.80625167">
        <ele>964.0</ele>
        <time>2022-06-19T06:08:03.664Z</time>
      </trkpt>
      <trkpt lat="43.22377167" lon="-6.80626833">
        <ele>965.0</ele>
        <time>2022-06-19T06:08:04.681Z</time>
      </trkpt>
      <trkpt lat="43.22377167" lon="-6.80626833">
        <ele>965.0</ele>
        <time>2022-06-19T06:08:05.654Z</time>
      </trkpt>
      <trkpt lat="43.22379167" lon="-6.80627833">
        <ele>965.0</ele>
        <time>2022-06-19T06:08:06.659Z</time>
      </trkpt>
      <trkpt lat="43.22379167" lon="-6.80627833">
        <ele>965.0</ele>
        <time>2022-06-19T06:08:07.675Z</time>
      </trkpt>
      <trkpt lat="43.22381833" lon="-6.80628">
        <ele>965.0</ele>
        <time>2022-06-19T06:08:08.661Z</time>
      </trkpt>
      <trkpt lat="43.22382833" lon="-6.80628167">
        <ele>966.0</ele>
        <time>2022-06-19T06:08:09.659Z</time>
      </trkpt>
      <trkpt lat="43.22382833" lon="-6.80628167">
        <ele>966.0</ele>
        <time>2022-06-19T06:08:10.680Z</time>
      </trkpt>
      <trkpt lat="43.22385167" lon="-6.80628333">
        <ele>966.0</ele>
        <time>2022-06-19T06:08:11.650Z</time>
      </trkpt>
      <trkpt lat="43.22386333" lon="-6.806285">
        <ele>966.0</ele>
        <time>2022-06-19T06:08:12.675Z</time>
      </trkpt>
      <trkpt lat="43.22386333" lon="-6.806285">
        <ele>966.0</ele>
        <time>2022-06-19T06:08:13.654Z</time>
      </trkpt>
      <trkpt lat="43.22388333" lon="-6.80629833">
        <ele>967.0</ele>
        <time>2022-06-19T06:08:14.670Z</time>
      </trkpt>
      <trkpt lat="43.22388333" lon="-6.80629833">
        <ele>967.0</ele>
        <time>2022-06-19T06:08:15.656Z</time>
      </trkpt>
      <trkpt lat="43.223905" lon="-6.80631">
        <ele>967.0</ele>
        <time>2022-06-19T06:08:16.668Z</time>
      </trkpt>
      <trkpt lat="43.223905" lon="-6.80631">
        <ele>967.0</ele>
        <time>2022-06-19T06:08:17.683Z</time>
      </trkpt>
      <trkpt lat="43.22392667" lon="-6.80631833">
        <ele>967.0</ele>
        <time>2022-06-19T06:08:18.656Z</time>
      </trkpt>
      <trkpt lat="43.22392667" lon="-6.80631833">
        <ele>967.0</ele>
        <time>2022-06-19T06:08:19.663Z</time>
      </trkpt>
      <trkpt lat="43.22394667" lon="-6.80632833">
        <ele>968.0</ele>
        <time>2022-06-19T06:08:20.656Z</time>
      </trkpt>
      <trkpt lat="43.22394667" lon="-6.80632833">
        <ele>968.0</ele>
        <time>2022-06-19T06:08:21.674Z</time>
      </trkpt>
      <trkpt lat="43.22396667" lon="-6.80634167">
        <ele>968.0</ele>
        <time>2022-06-19T06:08:22.688Z</time>
      </trkpt>
      <trkpt lat="43.22397833" lon="-6.806345">
        <ele>968.0</ele>
        <time>2022-06-19T06:08:23.663Z</time>
      </trkpt>
      <trkpt lat="43.22397833" lon="-6.806345">
        <ele>968.0</ele>
        <time>2022-06-19T06:08:24.671Z</time>
      </trkpt>
      <trkpt lat="43.22399833" lon="-6.806355">
        <ele>969.0</ele>
        <time>2022-06-19T06:08:25.655Z</time>
      </trkpt>
      <trkpt lat="43.22399833" lon="-6.806355">
        <ele>969.0</ele>
        <time>2022-06-19T06:08:26.685Z</time>
      </trkpt>
      <trkpt lat="43.224015" lon="-6.806365">
        <ele>970.0</ele>
        <time>2022-06-19T06:08:27.661Z</time>
      </trkpt>
      <trkpt lat="43.22402667" lon="-6.80636667">
        <ele>970.0</ele>
        <time>2022-06-19T06:08:28.686Z</time>
      </trkpt>
      <trkpt lat="43.22402667" lon="-6.80636667">
        <ele>970.0</ele>
        <time>2022-06-19T06:08:29.658Z</time>
      </trkpt>
      <trkpt lat="43.22404667" lon="-6.80637833">
        <ele>970.0</ele>
        <time>2022-06-19T06:08:30.790Z</time>
      </trkpt>
      <trkpt lat="43.22404667" lon="-6.80637833">
        <ele>970.0</ele>
        <time>2022-06-19T06:08:31.667Z</time>
      </trkpt>
      <trkpt lat="43.22406833" lon="-6.80638667">
        <ele>971.0</ele>
        <time>2022-06-19T06:08:32.685Z</time>
      </trkpt>
      <trkpt lat="43.22406833" lon="-6.80638667">
        <ele>971.0</ele>
        <time>2022-06-19T06:08:33.665Z</time>
      </trkpt>
      <trkpt lat="43.22409" lon="-6.80639667">
        <ele>971.0</ele>
        <time>2022-06-19T06:08:34.686Z</time>
      </trkpt>
      <trkpt lat="43.22409" lon="-6.80639667">
        <ele>971.0</ele>
        <time>2022-06-19T06:08:35.660Z</time>
      </trkpt>
      <trkpt lat="43.22411333" lon="-6.806405">
        <ele>972.0</ele>
        <time>2022-06-19T06:08:36.685Z</time>
      </trkpt>
      <trkpt lat="43.22411333" lon="-6.806405">
        <ele>972.0</ele>
        <time>2022-06-19T06:08:37.668Z</time>
      </trkpt>
      <trkpt lat="43.22413667" lon="-6.80641">
        <ele>972.0</ele>
        <time>2022-06-19T06:08:38.653Z</time>
      </trkpt>
      <trkpt lat="43.22413667" lon="-6.80641">
        <ele>972.0</ele>
        <time>2022-06-19T06:08:39.658Z</time>
      </trkpt>
      <trkpt lat="43.22415667" lon="-6.80641833">
        <ele>972.0</ele>
        <time>2022-06-19T06:08:40.675Z</time>
      </trkpt>
      <trkpt lat="43.22415667" lon="-6.80641833">
        <ele>972.0</ele>
        <time>2022-06-19T06:08:41.649Z</time>
      </trkpt>
      <trkpt lat="43.22417333" lon="-6.80643167">
        <ele>972.0</ele>
        <time>2022-06-19T06:08:42.667Z</time>
      </trkpt>
      <trkpt lat="43.22417333" lon="-6.80643167">
        <ele>972.0</ele>
        <time>2022-06-19T06:08:43.662Z</time>
      </trkpt>
      <trkpt lat="43.22418833" lon="-6.80645">
        <ele>973.0</ele>
        <time>2022-06-19T06:08:44.657Z</time>
      </trkpt>
      <trkpt lat="43.22419833" lon="-6.80645833">
        <ele>973.0</ele>
        <time>2022-06-19T06:08:45.688Z</time>
      </trkpt>
      <trkpt lat="43.22419833" lon="-6.80645833">
        <ele>973.0</ele>
        <time>2022-06-19T06:08:46.655Z</time>
      </trkpt>
      <trkpt lat="43.224225" lon="-6.80646167">
        <ele>974.0</ele>
        <time>2022-06-19T06:08:47.674Z</time>
      </trkpt>
      <trkpt lat="43.22423833" lon="-6.80646167">
        <ele>974.0</ele>
        <time>2022-06-19T06:08:48.672Z</time>
      </trkpt>
      <trkpt lat="43.22423833" lon="-6.80646167">
        <ele>974.0</ele>
        <time>2022-06-19T06:08:49.651Z</time>
      </trkpt>
      <trkpt lat="43.224265" lon="-6.806465">
        <ele>974.0</ele>
        <time>2022-06-19T06:08:50.670Z</time>
      </trkpt>
      <trkpt lat="43.22428" lon="-6.80646833">
        <ele>974.0</ele>
        <time>2022-06-19T06:08:51.670Z</time>
      </trkpt>
      <trkpt lat="43.22428" lon="-6.80646833">
        <ele>974.0</ele>
        <time>2022-06-19T06:08:52.678Z</time>
      </trkpt>
      <trkpt lat="43.22430667" lon="-6.80647833">
        <ele>975.0</ele>
        <time>2022-06-19T06:08:53.675Z</time>
      </trkpt>
      <trkpt lat="43.22432" lon="-6.80648333">
        <ele>975.0</ele>
        <time>2022-06-19T06:08:54.681Z</time>
      </trkpt>
      <trkpt lat="43.22432" lon="-6.80648333">
        <ele>975.0</ele>
        <time>2022-06-19T06:08:55.663Z</time>
      </trkpt>
      <trkpt lat="43.22434333" lon="-6.80649">
        <ele>976.0</ele>
        <time>2022-06-19T06:08:56.688Z</time>
      </trkpt>
      <trkpt lat="43.224355" lon="-6.80649333">
        <ele>976.0</ele>
        <time>2022-06-19T06:08:57.675Z</time>
      </trkpt>
      <trkpt lat="43.224355" lon="-6.80649333">
        <ele>976.0</ele>
        <time>2022-06-19T06:08:58.684Z</time>
      </trkpt>
      <trkpt lat="43.22438" lon="-6.80650333">
        <ele>976.0</ele>
        <time>2022-06-19T06:08:59.684Z</time>
      </trkpt>
      <trkpt lat="43.22439" lon="-6.80650833">
        <ele>977.0</ele>
        <time>2022-06-19T06:09:00.686Z</time>
      </trkpt>
      <trkpt lat="43.22439" lon="-6.80650833">
        <ele>977.0</ele>
        <time>2022-06-19T06:09:01.653Z</time>
      </trkpt>
      <trkpt lat="43.22441333" lon="-6.80651833">
        <ele>977.0</ele>
        <time>2022-06-19T06:09:02.660Z</time>
      </trkpt>
      <trkpt lat="43.224425" lon="-6.806525">
        <ele>977.0</ele>
        <time>2022-06-19T06:09:03.683Z</time>
      </trkpt>
      <trkpt lat="43.224425" lon="-6.806525">
        <ele>977.0</ele>
        <time>2022-06-19T06:09:04.657Z</time>
      </trkpt>
      <trkpt lat="43.224445" lon="-6.80653833">
        <ele>978.0</ele>
        <time>2022-06-19T06:09:05.676Z</time>
      </trkpt>
      <trkpt lat="43.22445667" lon="-6.80654333">
        <ele>978.0</ele>
        <time>2022-06-19T06:09:06.670Z</time>
      </trkpt>
      <trkpt lat="43.22445667" lon="-6.80654333">
        <ele>978.0</ele>
        <time>2022-06-19T06:09:07.675Z</time>
      </trkpt>
      <trkpt lat="43.22447667" lon="-6.80656">
        <ele>978.0</ele>
        <time>2022-06-19T06:09:08.671Z</time>
      </trkpt>
      <trkpt lat="43.22447667" lon="-6.80656">
        <ele>978.0</ele>
        <time>2022-06-19T06:09:09.662Z</time>
      </trkpt>
      <trkpt lat="43.22449667" lon="-6.80657333">
        <ele>979.0</ele>
        <time>2022-06-19T06:09:10.661Z</time>
      </trkpt>
      <trkpt lat="43.22449667" lon="-6.80657333">
        <ele>979.0</ele>
        <time>2022-06-19T06:09:11.651Z</time>
      </trkpt>
      <trkpt lat="43.22451833" lon="-6.80658667">
        <ele>979.0</ele>
        <time>2022-06-19T06:09:12.683Z</time>
      </trkpt>
      <trkpt lat="43.22451833" lon="-6.80658667">
        <ele>979.0</ele>
        <time>2022-06-19T06:09:13.681Z</time>
      </trkpt>
      <trkpt lat="43.22454167" lon="-6.806595">
        <ele>979.0</ele>
        <time>2022-06-19T06:09:14.662Z</time>
      </trkpt>
      <trkpt lat="43.22455167" lon="-6.80660333">
        <ele>979.0</ele>
        <time>2022-06-19T06:09:15.670Z</time>
      </trkpt>
      <trkpt lat="43.22455167" lon="-6.80660333">
        <ele>979.0</ele>
        <time>2022-06-19T06:09:16.655Z</time>
      </trkpt>
      <trkpt lat="43.22457333" lon="-6.806615">
        <ele>980.0</ele>
        <time>2022-06-19T06:09:17.675Z</time>
      </trkpt>
      <trkpt lat="43.224585" lon="-6.80662167">
        <ele>980.0</ele>
        <time>2022-06-19T06:09:18.683Z</time>
      </trkpt>
      <trkpt lat="43.224585" lon="-6.80662167">
        <ele>980.0</ele>
        <time>2022-06-19T06:09:19.677Z</time>
      </trkpt>
      <trkpt lat="43.22460333" lon="-6.80663667">
        <ele>980.0</ele>
        <time>2022-06-19T06:09:20.656Z</time>
      </trkpt>
      <trkpt lat="43.22460333" lon="-6.80663667">
        <ele>980.0</ele>
        <time>2022-06-19T06:09:21.665Z</time>
      </trkpt>
      <trkpt lat="43.22462167" lon="-6.80665">
        <ele>981.0</ele>
        <time>2022-06-19T06:09:22.688Z</time>
      </trkpt>
      <trkpt lat="43.22463" lon="-6.80665833">
        <ele>981.0</ele>
        <time>2022-06-19T06:09:23.650Z</time>
      </trkpt>
      <trkpt lat="43.22463" lon="-6.80665833">
        <ele>981.0</ele>
        <time>2022-06-19T06:09:24.662Z</time>
      </trkpt>
      <trkpt lat="43.22464833" lon="-6.80667167">
        <ele>981.0</ele>
        <time>2022-06-19T06:09:25.684Z</time>
      </trkpt>
      <trkpt lat="43.22464833" lon="-6.80667167">
        <ele>981.0</ele>
        <time>2022-06-19T06:09:26.660Z</time>
      </trkpt>
      <trkpt lat="43.22466167" lon="-6.80669333">
        <ele>982.0</ele>
        <time>2022-06-19T06:09:27.655Z</time>
      </trkpt>
      <trkpt lat="43.22466167" lon="-6.80669333">
        <ele>982.0</ele>
        <time>2022-06-19T06:09:28.662Z</time>
      </trkpt>
      <trkpt lat="43.224675" lon="-6.80672">
        <ele>982.0</ele>
        <time>2022-06-19T06:09:29.652Z</time>
      </trkpt>
      <trkpt lat="43.22468333" lon="-6.80673167">
        <ele>982.0</ele>
        <time>2022-06-19T06:09:30.684Z</time>
      </trkpt>
      <trkpt lat="43.22468333" lon="-6.80673167">
        <ele>982.0</ele>
        <time>2022-06-19T06:09:31.663Z</time>
      </trkpt>
      <trkpt lat="43.2247" lon="-6.80675333">
        <ele>982.0</ele>
        <time>2022-06-19T06:09:32.650Z</time>
      </trkpt>
      <trkpt lat="43.2247" lon="-6.80675333">
        <ele>982.0</ele>
        <time>2022-06-19T06:09:33.671Z</time>
      </trkpt>
      <trkpt lat="43.22472167" lon="-6.80677167">
        <ele>983.0</ele>
        <time>2022-06-19T06:09:34.668Z</time>
      </trkpt>
      <trkpt lat="43.22472167" lon="-6.80677167">
        <ele>983.0</ele>
        <time>2022-06-19T06:09:35.653Z</time>
      </trkpt>
      <trkpt lat="43.22474167" lon="-6.80679167">
        <ele>983.0</ele>
        <time>2022-06-19T06:09:36.673Z</time>
      </trkpt>
      <trkpt lat="43.22475167" lon="-6.80680167">
        <ele>983.0</ele>
        <time>2022-06-19T06:09:37.694Z</time>
      </trkpt>
      <trkpt lat="43.22475167" lon="-6.80680167">
        <ele>983.0</ele>
        <time>2022-06-19T06:09:38.675Z</time>
      </trkpt>
      <trkpt lat="43.22477167" lon="-6.80682167">
        <ele>983.0</ele>
        <time>2022-06-19T06:09:39.697Z</time>
      </trkpt>
      <trkpt lat="43.22478" lon="-6.80683167">
        <ele>983.0</ele>
        <time>2022-06-19T06:09:40.663Z</time>
      </trkpt>
      <trkpt lat="43.22478" lon="-6.80683167">
        <ele>983.0</ele>
        <time>2022-06-19T06:09:41.678Z</time>
      </trkpt>
      <trkpt lat="43.22480167" lon="-6.80685167">
        <ele>983.0</ele>
        <time>2022-06-19T06:09:42.665Z</time>
      </trkpt>
      <trkpt lat="43.22480167" lon="-6.80685167">
        <ele>983.0</ele>
        <time>2022-06-19T06:09:43.676Z</time>
      </trkpt>
      <trkpt lat="43.22482333" lon="-6.80687">
        <ele>983.0</ele>
        <time>2022-06-19T06:09:44.654Z</time>
      </trkpt>
      <trkpt lat="43.22482333" lon="-6.80687">
        <ele>983.0</ele>
        <time>2022-06-19T06:09:45.672Z</time>
      </trkpt>
      <trkpt lat="43.22484333" lon="-6.80689167">
        <ele>984.0</ele>
        <time>2022-06-19T06:09:46.653Z</time>
      </trkpt>
      <trkpt lat="43.22484333" lon="-6.80689167">
        <ele>984.0</ele>
        <time>2022-06-19T06:09:47.650Z</time>
      </trkpt>
      <trkpt lat="43.22486333" lon="-6.80690833">
        <ele>984.0</ele>
        <time>2022-06-19T06:09:48.687Z</time>
      </trkpt>
      <trkpt lat="43.22486333" lon="-6.80690833">
        <ele>984.0</ele>
        <time>2022-06-19T06:09:49.657Z</time>
      </trkpt>
      <trkpt lat="43.22488333" lon="-6.80693">
        <ele>984.0</ele>
        <time>2022-06-19T06:09:50.680Z</time>
      </trkpt>
      <trkpt lat="43.22488333" lon="-6.80693">
        <ele>984.0</ele>
        <time>2022-06-19T06:09:51.688Z</time>
      </trkpt>
      <trkpt lat="43.22490333" lon="-6.80695333">
        <ele>984.0</ele>
        <time>2022-06-19T06:09:52.665Z</time>
      </trkpt>
      <trkpt lat="43.22490333" lon="-6.80695333">
        <ele>984.0</ele>
        <time>2022-06-19T06:09:53.673Z</time>
      </trkpt>
      <trkpt lat="43.22492333" lon="-6.80697">
        <ele>985.0</ele>
        <time>2022-06-19T06:09:54.680Z</time>
      </trkpt>
      <trkpt lat="43.22492333" lon="-6.80697">
        <ele>985.0</ele>
        <time>2022-06-19T06:09:55.667Z</time>
      </trkpt>
      <trkpt lat="43.224945" lon="-6.806985">
        <ele>985.0</ele>
        <time>2022-06-19T06:09:56.689Z</time>
      </trkpt>
      <trkpt lat="43.224945" lon="-6.806985">
        <ele>985.0</ele>
        <time>2022-06-19T06:09:57.670Z</time>
      </trkpt>
      <trkpt lat="43.22496833" lon="-6.80699333">
        <ele>986.0</ele>
        <time>2022-06-19T06:09:58.686Z</time>
      </trkpt>
      <trkpt lat="43.22496833" lon="-6.80699333">
        <ele>986.0</ele>
        <time>2022-06-19T06:09:59.658Z</time>
      </trkpt>
      <trkpt lat="43.22499167" lon="-6.80700333">
        <ele>986.0</ele>
        <time>2022-06-19T06:10:00.679Z</time>
      </trkpt>
      <trkpt lat="43.22499167" lon="-6.80700333">
        <ele>986.0</ele>
        <time>2022-06-19T06:10:01.651Z</time>
      </trkpt>
      <trkpt lat="43.22501333" lon="-6.80701333">
        <ele>986.0</ele>
        <time>2022-06-19T06:10:02.668Z</time>
      </trkpt>
      <trkpt lat="43.22501333" lon="-6.80701333">
        <ele>986.0</ele>
        <time>2022-06-19T06:10:03.661Z</time>
      </trkpt>
      <trkpt lat="43.22503833" lon="-6.807015">
        <ele>987.0</ele>
        <time>2022-06-19T06:10:04.687Z</time>
      </trkpt>
      <trkpt lat="43.22503833" lon="-6.807015">
        <ele>987.0</ele>
        <time>2022-06-19T06:10:05.658Z</time>
      </trkpt>
      <trkpt lat="43.22506167" lon="-6.80701667">
        <ele>987.0</ele>
        <time>2022-06-19T06:10:06.675Z</time>
      </trkpt>
      <trkpt lat="43.22507333" lon="-6.80701833">
        <ele>987.0</ele>
        <time>2022-06-19T06:10:07.660Z</time>
      </trkpt>
      <trkpt lat="43.22507333" lon="-6.80701833">
        <ele>987.0</ele>
        <time>2022-06-19T06:10:08.671Z</time>
      </trkpt>
      <trkpt lat="43.22509833" lon="-6.80701667">
        <ele>988.0</ele>
        <time>2022-06-19T06:10:09.649Z</time>
      </trkpt>
      <trkpt lat="43.22509833" lon="-6.80701667">
        <ele>988.0</ele>
        <time>2022-06-19T06:10:10.672Z</time>
      </trkpt>
      <trkpt lat="43.22512167" lon="-6.807015">
        <ele>988.0</ele>
        <time>2022-06-19T06:10:11.651Z</time>
      </trkpt>
      <trkpt lat="43.22513333" lon="-6.80701333">
        <ele>988.0</ele>
        <time>2022-06-19T06:10:12.659Z</time>
      </trkpt>
      <trkpt lat="43.22513333" lon="-6.80701333">
        <ele>988.0</ele>
        <time>2022-06-19T06:10:13.667Z</time>
      </trkpt>
      <trkpt lat="43.22515667" lon="-6.80701667">
        <ele>989.0</ele>
        <time>2022-06-19T06:10:14.658Z</time>
      </trkpt>
      <trkpt lat="43.22515667" lon="-6.80701667">
        <ele>989.0</ele>
        <time>2022-06-19T06:10:15.673Z</time>
      </trkpt>
      <trkpt lat="43.22518" lon="-6.807015">
        <ele>989.0</ele>
        <time>2022-06-19T06:10:16.650Z</time>
      </trkpt>
      <trkpt lat="43.22519167" lon="-6.80701333">
        <ele>990.0</ele>
        <time>2022-06-19T06:10:17.678Z</time>
      </trkpt>
      <trkpt lat="43.22519167" lon="-6.80701333">
        <ele>990.0</ele>
        <time>2022-06-19T06:10:18.654Z</time>
      </trkpt>
      <trkpt lat="43.225215" lon="-6.80701333">
        <ele>990.0</ele>
        <time>2022-06-19T06:10:19.680Z</time>
      </trkpt>
      <trkpt lat="43.225215" lon="-6.80701333">
        <ele>990.0</ele>
        <time>2022-06-19T06:10:20.657Z</time>
      </trkpt>
      <trkpt lat="43.22523833" lon="-6.80701333">
        <ele>991.0</ele>
        <time>2022-06-19T06:10:21.678Z</time>
      </trkpt>
      <trkpt lat="43.22525" lon="-6.80700833">
        <ele>991.0</ele>
        <time>2022-06-19T06:10:22.680Z</time>
      </trkpt>
      <trkpt lat="43.22525" lon="-6.80700833">
        <ele>991.0</ele>
        <time>2022-06-19T06:10:23.654Z</time>
      </trkpt>
      <trkpt lat="43.22527167" lon="-6.806995">
        <ele>991.0</ele>
        <time>2022-06-19T06:10:24.670Z</time>
      </trkpt>
      <trkpt lat="43.22527167" lon="-6.806995">
        <ele>991.0</ele>
        <time>2022-06-19T06:10:25.678Z</time>
      </trkpt>
      <trkpt lat="43.22529833" lon="-6.80699333">
        <ele>992.0</ele>
        <time>2022-06-19T06:10:26.661Z</time>
      </trkpt>
      <trkpt lat="43.22531167" lon="-6.806995">
        <ele>992.0</ele>
        <time>2022-06-19T06:10:27.678Z</time>
      </trkpt>
      <trkpt lat="43.22531167" lon="-6.806995">
        <ele>992.0</ele>
        <time>2022-06-19T06:10:28.683Z</time>
      </trkpt>
      <trkpt lat="43.22533667" lon="-6.80699333">
        <ele>992.0</ele>
        <time>2022-06-19T06:10:29.657Z</time>
      </trkpt>
      <trkpt lat="43.22534833" lon="-6.80699">
        <ele>992.0</ele>
        <time>2022-06-19T06:10:30.664Z</time>
      </trkpt>
      <trkpt lat="43.22534833" lon="-6.80699">
        <ele>992.0</ele>
        <time>2022-06-19T06:10:31.657Z</time>
      </trkpt>
      <trkpt lat="43.225375" lon="-6.806985">
        <ele>993.0</ele>
        <time>2022-06-19T06:10:32.682Z</time>
      </trkpt>
      <trkpt lat="43.225375" lon="-6.806985">
        <ele>993.0</ele>
        <time>2022-06-19T06:10:33.656Z</time>
      </trkpt>
      <trkpt lat="43.2254" lon="-6.80697833">
        <ele>993.0</ele>
        <time>2022-06-19T06:10:34.675Z</time>
      </trkpt>
      <trkpt lat="43.2254" lon="-6.80697833">
        <ele>993.0</ele>
        <time>2022-06-19T06:10:35.666Z</time>
      </trkpt>
      <trkpt lat="43.22542333" lon="-6.806965">
        <ele>994.0</ele>
        <time>2022-06-19T06:10:36.681Z</time>
      </trkpt>
      <trkpt lat="43.22542333" lon="-6.806965">
        <ele>994.0</ele>
        <time>2022-06-19T06:10:37.666Z</time>
      </trkpt>
      <trkpt lat="43.22544833" lon="-6.80696167">
        <ele>994.0</ele>
        <time>2022-06-19T06:10:38.661Z</time>
      </trkpt>
      <trkpt lat="43.22546167" lon="-6.80696">
        <ele>994.0</ele>
        <time>2022-06-19T06:10:39.679Z</time>
      </trkpt>
      <trkpt lat="43.22546167" lon="-6.80696">
        <ele>994.0</ele>
        <time>2022-06-19T06:10:40.655Z</time>
      </trkpt>
      <trkpt lat="43.22548833" lon="-6.80695667">
        <ele>995.0</ele>
        <time>2022-06-19T06:10:41.682Z</time>
      </trkpt>
      <trkpt lat="43.22550333" lon="-6.806955">
        <ele>995.0</ele>
        <time>2022-06-19T06:10:42.683Z</time>
      </trkpt>
      <trkpt lat="43.22550333" lon="-6.806955">
        <ele>995.0</ele>
        <time>2022-06-19T06:10:43.653Z</time>
      </trkpt>
      <trkpt lat="43.22553" lon="-6.80695333">
        <ele>995.0</ele>
        <time>2022-06-19T06:10:44.668Z</time>
      </trkpt>
      <trkpt lat="43.22553" lon="-6.80695333">
        <ele>995.0</ele>
        <time>2022-06-19T06:10:45.651Z</time>
      </trkpt>
      <trkpt lat="43.22555833" lon="-6.806955">
        <ele>996.0</ele>
        <time>2022-06-19T06:10:46.681Z</time>
      </trkpt>
      <trkpt lat="43.22557167" lon="-6.80695333">
        <ele>996.0</ele>
        <time>2022-06-19T06:10:47.658Z</time>
      </trkpt>
      <trkpt lat="43.225585" lon="-6.80695333">
        <ele>996.0</ele>
        <time>2022-06-19T06:10:48.665Z</time>
      </trkpt>
      <trkpt lat="43.225585" lon="-6.80695333">
        <ele>996.0</ele>
        <time>2022-06-19T06:10:49.658Z</time>
      </trkpt>
      <trkpt lat="43.22561" lon="-6.80695167">
        <ele>997.0</ele>
        <time>2022-06-19T06:10:50.677Z</time>
      </trkpt>
      <trkpt lat="43.22561" lon="-6.80695167">
        <ele>997.0</ele>
        <time>2022-06-19T06:10:51.652Z</time>
      </trkpt>
      <trkpt lat="43.22563833" lon="-6.80695">
        <ele>997.0</ele>
        <time>2022-06-19T06:10:52.705Z</time>
      </trkpt>
      <trkpt lat="43.22563833" lon="-6.80695">
        <ele>997.0</ele>
        <time>2022-06-19T06:10:53.688Z</time>
      </trkpt>
      <trkpt lat="43.22566333" lon="-6.80695">
        <ele>997.0</ele>
        <time>2022-06-19T06:10:54.668Z</time>
      </trkpt>
      <trkpt lat="43.22566333" lon="-6.80695">
        <ele>997.0</ele>
        <time>2022-06-19T06:10:55.679Z</time>
      </trkpt>
      <trkpt lat="43.22569167" lon="-6.80694833">
        <ele>998.0</ele>
        <time>2022-06-19T06:10:56.660Z</time>
      </trkpt>
      <trkpt lat="43.22569167" lon="-6.80694833">
        <ele>998.0</ele>
        <time>2022-06-19T06:10:57.672Z</time>
      </trkpt>
      <trkpt lat="43.22571333" lon="-6.80695667">
        <ele>998.0</ele>
        <time>2022-06-19T06:10:58.655Z</time>
      </trkpt>
      <trkpt lat="43.22572667" lon="-6.80696">
        <ele>999.0</ele>
        <time>2022-06-19T06:10:59.677Z</time>
      </trkpt>
      <trkpt lat="43.22572667" lon="-6.80696">
        <ele>999.0</ele>
        <time>2022-06-19T06:11:00.657Z</time>
      </trkpt>
      <trkpt lat="43.22575167" lon="-6.80696167">
        <ele>999.0</ele>
        <time>2022-06-19T06:11:01.657Z</time>
      </trkpt>
      <trkpt lat="43.22575167" lon="-6.80696167">
        <ele>999.0</ele>
        <time>2022-06-19T06:11:02.685Z</time>
      </trkpt>
      <trkpt lat="43.22577833" lon="-6.80696333">
        <ele>1000.0</ele>
        <time>2022-06-19T06:11:03.670Z</time>
      </trkpt>
      <trkpt lat="43.22577833" lon="-6.80696333">
        <ele>1000.0</ele>
        <time>2022-06-19T06:11:04.662Z</time>
      </trkpt>
      <trkpt lat="43.22580333" lon="-6.80697167">
        <ele>1000.0</ele>
        <time>2022-06-19T06:11:05.681Z</time>
      </trkpt>
      <trkpt lat="43.22581667" lon="-6.80697333">
        <ele>1001.0</ele>
        <time>2022-06-19T06:11:06.650Z</time>
      </trkpt>
      <trkpt lat="43.22581667" lon="-6.80697333">
        <ele>1001.0</ele>
        <time>2022-06-19T06:11:07.662Z</time>
      </trkpt>
      <trkpt lat="43.22584333" lon="-6.80698">
        <ele>1001.0</ele>
        <time>2022-06-19T06:11:08.652Z</time>
      </trkpt>
      <trkpt lat="43.22585667" lon="-6.80698333">
        <ele>1001.0</ele>
        <time>2022-06-19T06:11:09.674Z</time>
      </trkpt>
      <trkpt lat="43.22585667" lon="-6.80698333">
        <ele>1001.0</ele>
        <time>2022-06-19T06:11:10.653Z</time>
      </trkpt>
      <trkpt lat="43.22588" lon="-6.80699667">
        <ele>1001.0</ele>
        <time>2022-06-19T06:11:11.668Z</time>
      </trkpt>
      <trkpt lat="43.22589333" lon="-6.807005">
        <ele>1001.0</ele>
        <time>2022-06-19T06:11:12.663Z</time>
      </trkpt>
      <trkpt lat="43.22589333" lon="-6.807005">
        <ele>1001.0</ele>
        <time>2022-06-19T06:11:13.684Z</time>
      </trkpt>
      <trkpt lat="43.22591833" lon="-6.80701667">
        <ele>1001.0</ele>
        <time>2022-06-19T06:11:14.680Z</time>
      </trkpt>
      <trkpt lat="43.22591833" lon="-6.80701667">
        <ele>1001.0</ele>
        <time>2022-06-19T06:11:15.655Z</time>
      </trkpt>
      <trkpt lat="43.225945" lon="-6.80702167">
        <ele>1001.0</ele>
        <time>2022-06-19T06:11:16.672Z</time>
      </trkpt>
      <trkpt lat="43.225945" lon="-6.80702167">
        <ele>1001.0</ele>
        <time>2022-06-19T06:11:17.661Z</time>
      </trkpt>
      <trkpt lat="43.22597" lon="-6.80702333">
        <ele>1002.0</ele>
        <time>2022-06-19T06:11:18.671Z</time>
      </trkpt>
      <trkpt lat="43.22597" lon="-6.80702333">
        <ele>1002.0</ele>
        <time>2022-06-19T06:11:19.675Z</time>
      </trkpt>
      <trkpt lat="43.22599667" lon="-6.80702833">
        <ele>1002.0</ele>
        <time>2022-06-19T06:11:20.658Z</time>
      </trkpt>
      <trkpt lat="43.22599667" lon="-6.80702833">
        <ele>1002.0</ele>
        <time>2022-06-19T06:11:21.673Z</time>
      </trkpt>
      <trkpt lat="43.22602167" lon="-6.80703333">
        <ele>1002.0</ele>
        <time>2022-06-19T06:11:22.667Z</time>
      </trkpt>
      <trkpt lat="43.226035" lon="-6.80703667">
        <ele>1002.0</ele>
        <time>2022-06-19T06:11:23.675Z</time>
      </trkpt>
      <trkpt lat="43.226035" lon="-6.80703667">
        <ele>1002.0</ele>
        <time>2022-06-19T06:11:24.661Z</time>
      </trkpt>
      <trkpt lat="43.22605667" lon="-6.80704833">
        <ele>1003.0</ele>
        <time>2022-06-19T06:11:25.654Z</time>
      </trkpt>
      <trkpt lat="43.22605667" lon="-6.80704833">
        <ele>1003.0</ele>
        <time>2022-06-19T06:11:26.653Z</time>
      </trkpt>
      <trkpt lat="43.22607833" lon="-6.80705833">
        <ele>1003.0</ele>
        <time>2022-06-19T06:11:27.674Z</time>
      </trkpt>
      <trkpt lat="43.22607833" lon="-6.80705833">
        <ele>1003.0</ele>
        <time>2022-06-19T06:11:28.686Z</time>
      </trkpt>
      <trkpt lat="43.22610167" lon="-6.80706833">
        <ele>1003.0</ele>
        <time>2022-06-19T06:11:29.674Z</time>
      </trkpt>
      <trkpt lat="43.22610167" lon="-6.80706833">
        <ele>1003.0</ele>
        <time>2022-06-19T06:11:30.685Z</time>
      </trkpt>
      <trkpt lat="43.22612667" lon="-6.80707333">
        <ele>1004.0</ele>
        <time>2022-06-19T06:11:31.670Z</time>
      </trkpt>
      <trkpt lat="43.22614" lon="-6.80707667">
        <ele>1004.0</ele>
        <time>2022-06-19T06:11:32.658Z</time>
      </trkpt>
      <trkpt lat="43.226155" lon="-6.80708167">
        <ele>1004.0</ele>
        <time>2022-06-19T06:11:33.652Z</time>
      </trkpt>
      <trkpt lat="43.226155" lon="-6.80708167">
        <ele>1004.0</ele>
        <time>2022-06-19T06:11:34.667Z</time>
      </trkpt>
      <trkpt lat="43.22618" lon="-6.80709">
        <ele>1004.0</ele>
        <time>2022-06-19T06:11:35.651Z</time>
      </trkpt>
      <trkpt lat="43.22619333" lon="-6.807095">
        <ele>1005.0</ele>
        <time>2022-06-19T06:11:36.657Z</time>
      </trkpt>
      <trkpt lat="43.22619333" lon="-6.807095">
        <ele>1005.0</ele>
        <time>2022-06-19T06:11:37.664Z</time>
      </trkpt>
      <trkpt lat="43.22621667" lon="-6.80710333">
        <ele>1005.0</ele>
        <time>2022-06-19T06:11:38.653Z</time>
      </trkpt>
      <trkpt lat="43.22623" lon="-6.80710833">
        <ele>1005.0</ele>
        <time>2022-06-19T06:11:39.685Z</time>
      </trkpt>
      <trkpt lat="43.22623" lon="-6.80710833">
        <ele>1005.0</ele>
        <time>2022-06-19T06:11:40.662Z</time>
      </trkpt>
      <trkpt lat="43.226255" lon="-6.80711667">
        <ele>1005.0</ele>
        <time>2022-06-19T06:11:41.685Z</time>
      </trkpt>
      <trkpt lat="43.22626833" lon="-6.807115">
        <ele>1006.0</ele>
        <time>2022-06-19T06:11:42.689Z</time>
      </trkpt>
      <trkpt lat="43.22626833" lon="-6.807115">
        <ele>1006.0</ele>
        <time>2022-06-19T06:11:43.661Z</time>
      </trkpt>
      <trkpt lat="43.22629333" lon="-6.80712">
        <ele>1006.0</ele>
        <time>2022-06-19T06:11:44.683Z</time>
      </trkpt>
      <trkpt lat="43.226305" lon="-6.80712167">
        <ele>1006.0</ele>
        <time>2022-06-19T06:11:45.675Z</time>
      </trkpt>
      <trkpt lat="43.226305" lon="-6.80712167">
        <ele>1006.0</ele>
        <time>2022-06-19T06:11:46.650Z</time>
      </trkpt>
      <trkpt lat="43.22633167" lon="-6.80712333">
        <ele>1006.0</ele>
        <time>2022-06-19T06:11:47.681Z</time>
      </trkpt>
      <trkpt lat="43.22634333" lon="-6.80712333">
        <ele>1007.0</ele>
        <time>2022-06-19T06:11:48.676Z</time>
      </trkpt>
      <trkpt lat="43.22634333" lon="-6.80712333">
        <ele>1007.0</ele>
        <time>2022-06-19T06:11:49.661Z</time>
      </trkpt>
      <trkpt lat="43.22636833" lon="-6.80712833">
        <ele>1007.0</ele>
        <time>2022-06-19T06:11:50.673Z</time>
      </trkpt>
      <trkpt lat="43.22636833" lon="-6.80712833">
        <ele>1007.0</ele>
        <time>2022-06-19T06:11:51.666Z</time>
      </trkpt>
      <trkpt lat="43.22639333" lon="-6.80713667">
        <ele>1008.0</ele>
        <time>2022-06-19T06:11:52.657Z</time>
      </trkpt>
      <trkpt lat="43.22639333" lon="-6.80713667">
        <ele>1008.0</ele>
        <time>2022-06-19T06:11:53.678Z</time>
      </trkpt>
      <trkpt lat="43.22642" lon="-6.80714667">
        <ele>1008.0</ele>
        <time>2022-06-19T06:11:54.668Z</time>
      </trkpt>
      <trkpt lat="43.22642" lon="-6.80714667">
        <ele>1008.0</ele>
        <time>2022-06-19T06:11:55.681Z</time>
      </trkpt>
      <trkpt lat="43.22644333" lon="-6.80714833">
        <ele>1009.0</ele>
        <time>2022-06-19T06:11:56.669Z</time>
      </trkpt>
      <trkpt lat="43.22645333" lon="-6.80714833">
        <ele>1009.0</ele>
        <time>2022-06-19T06:11:57.664Z</time>
      </trkpt>
      <trkpt lat="43.22645333" lon="-6.80714833">
        <ele>1009.0</ele>
        <time>2022-06-19T06:11:58.666Z</time>
      </trkpt>
      <trkpt lat="43.22647833" lon="-6.807155">
        <ele>1010.0</ele>
        <time>2022-06-19T06:11:59.687Z</time>
      </trkpt>
      <trkpt lat="43.22649" lon="-6.80715833">
        <ele>1010.0</ele>
        <time>2022-06-19T06:12:00.669Z</time>
      </trkpt>
      <trkpt lat="43.22649" lon="-6.80715833">
        <ele>1010.0</ele>
        <time>2022-06-19T06:12:01.654Z</time>
      </trkpt>
      <trkpt lat="43.226515" lon="-6.80716167">
        <ele>1010.0</ele>
        <time>2022-06-19T06:12:02.684Z</time>
      </trkpt>
      <trkpt lat="43.226515" lon="-6.80716167">
        <ele>1010.0</ele>
        <time>2022-06-19T06:12:03.688Z</time>
      </trkpt>
      <trkpt lat="43.22654" lon="-6.807165">
        <ele>1011.0</ele>
        <time>2022-06-19T06:12:04.671Z</time>
      </trkpt>
      <trkpt lat="43.22654" lon="-6.807165">
        <ele>1011.0</ele>
        <time>2022-06-19T06:12:05.685Z</time>
      </trkpt>
      <trkpt lat="43.22656167" lon="-6.80716167">
        <ele>1012.0</ele>
        <time>2022-06-19T06:12:06.674Z</time>
      </trkpt>
      <trkpt lat="43.22656167" lon="-6.80716167">
        <ele>1012.0</ele>
        <time>2022-06-19T06:12:07.655Z</time>
      </trkpt>
      <trkpt lat="43.22658333" lon="-6.80715833">
        <ele>1012.0</ele>
        <time>2022-06-19T06:12:08.649Z</time>
      </trkpt>
      <trkpt lat="43.22659667" lon="-6.80715833">
        <ele>1013.0</ele>
        <time>2022-06-19T06:12:09.670Z</time>
      </trkpt>
      <trkpt lat="43.22659667" lon="-6.80715833">
        <ele>1013.0</ele>
        <time>2022-06-19T06:12:10.680Z</time>
      </trkpt>
      <trkpt lat="43.22662" lon="-6.80716167">
        <ele>1013.0</ele>
        <time>2022-06-19T06:12:11.663Z</time>
      </trkpt>
      <trkpt lat="43.22663167" lon="-6.807165">
        <ele>1014.0</ele>
        <time>2022-06-19T06:12:12.688Z</time>
      </trkpt>
      <trkpt lat="43.226645" lon="-6.80716667">
        <ele>1014.0</ele>
        <time>2022-06-19T06:12:13.672Z</time>
      </trkpt>
      <trkpt lat="43.226645" lon="-6.80716667">
        <ele>1014.0</ele>
        <time>2022-06-19T06:12:14.679Z</time>
      </trkpt>
      <trkpt lat="43.22667167" lon="-6.80717333">
        <ele>1014.0</ele>
        <time>2022-06-19T06:12:15.653Z</time>
      </trkpt>
      <trkpt lat="43.22668333" lon="-6.807175">
        <ele>1015.0</ele>
        <time>2022-06-19T06:12:16.660Z</time>
      </trkpt>
      <trkpt lat="43.22668333" lon="-6.807175">
        <ele>1015.0</ele>
        <time>2022-06-19T06:12:17.670Z</time>
      </trkpt>
      <trkpt lat="43.22670667" lon="-6.80718">
        <ele>1015.0</ele>
        <time>2022-06-19T06:12:18.650Z</time>
      </trkpt>
      <trkpt lat="43.22670667" lon="-6.80718">
        <ele>1015.0</ele>
        <time>2022-06-19T06:12:19.665Z</time>
      </trkpt>
      <trkpt lat="43.22673167" lon="-6.80718">
        <ele>1016.0</ele>
        <time>2022-06-19T06:12:20.685Z</time>
      </trkpt>
      <trkpt lat="43.226745" lon="-6.80718167">
        <ele>1016.0</ele>
        <time>2022-06-19T06:12:21.680Z</time>
      </trkpt>
      <trkpt lat="43.22675667" lon="-6.80718333">
        <ele>1016.0</ele>
        <time>2022-06-19T06:12:22.659Z</time>
      </trkpt>
      <trkpt lat="43.22676833" lon="-6.80718833">
        <ele>1017.0</ele>
        <time>2022-06-19T06:12:23.652Z</time>
      </trkpt>
      <trkpt lat="43.22676833" lon="-6.80718833">
        <ele>1017.0</ele>
        <time>2022-06-19T06:12:24.674Z</time>
      </trkpt>
      <trkpt lat="43.22679167" lon="-6.80720667">
        <ele>1017.0</ele>
        <time>2022-06-19T06:12:25.655Z</time>
      </trkpt>
      <trkpt lat="43.22679167" lon="-6.80720667">
        <ele>1017.0</ele>
        <time>2022-06-19T06:12:26.666Z</time>
      </trkpt>
      <trkpt lat="43.22681333" lon="-6.80722833">
        <ele>1017.0</ele>
        <time>2022-06-19T06:12:27.651Z</time>
      </trkpt>
      <trkpt lat="43.22681333" lon="-6.80722833">
        <ele>1017.0</ele>
        <time>2022-06-19T06:12:28.664Z</time>
      </trkpt>
      <trkpt lat="43.22682833" lon="-6.80726">
        <ele>1017.0</ele>
        <time>2022-06-19T06:12:29.683Z</time>
      </trkpt>
      <trkpt lat="43.22682833" lon="-6.80726">
        <ele>1017.0</ele>
        <time>2022-06-19T06:12:30.678Z</time>
      </trkpt>
      <trkpt lat="43.22684" lon="-6.80729833">
        <ele>1018.0</ele>
        <time>2022-06-19T06:12:31.664Z</time>
      </trkpt>
      <trkpt lat="43.22684" lon="-6.80729833">
        <ele>1018.0</ele>
        <time>2022-06-19T06:12:32.683Z</time>
      </trkpt>
      <trkpt lat="43.22684667" lon="-6.80733833">
        <ele>1018.0</ele>
        <time>2022-06-19T06:12:33.673Z</time>
      </trkpt>
      <trkpt lat="43.22684667" lon="-6.80733833">
        <ele>1018.0</ele>
        <time>2022-06-19T06:12:34.686Z</time>
      </trkpt>
      <trkpt lat="43.226855" lon="-6.80737667">
        <ele>1018.0</ele>
        <time>2022-06-19T06:12:35.670Z</time>
      </trkpt>
      <trkpt lat="43.22685833" lon="-6.80739667">
        <ele>1018.0</ele>
        <time>2022-06-19T06:12:36.674Z</time>
      </trkpt>
      <trkpt lat="43.22685833" lon="-6.80739667">
        <ele>1018.0</ele>
        <time>2022-06-19T06:12:37.667Z</time>
      </trkpt>
      <trkpt lat="43.22685833" lon="-6.80743833">
        <ele>1018.0</ele>
        <time>2022-06-19T06:12:38.689Z</time>
      </trkpt>
      <trkpt lat="43.22685833" lon="-6.80743833">
        <ele>1018.0</ele>
        <time>2022-06-19T06:12:39.667Z</time>
      </trkpt>
      <trkpt lat="43.22685333" lon="-6.80748167">
        <ele>1018.0</ele>
        <time>2022-06-19T06:12:40.685Z</time>
      </trkpt>
      <trkpt lat="43.22685333" lon="-6.80748167">
        <ele>1018.0</ele>
        <time>2022-06-19T06:12:41.666Z</time>
      </trkpt>
      <trkpt lat="43.22684833" lon="-6.80752167">
        <ele>1018.0</ele>
        <time>2022-06-19T06:12:42.689Z</time>
      </trkpt>
      <trkpt lat="43.22684833" lon="-6.80752167">
        <ele>1018.0</ele>
        <time>2022-06-19T06:12:43.658Z</time>
      </trkpt>
      <trkpt lat="43.22684" lon="-6.80756">
        <ele>1019.0</ele>
        <time>2022-06-19T06:12:44.689Z</time>
      </trkpt>
      <trkpt lat="43.22683667" lon="-6.80757667">
        <ele>1019.0</ele>
        <time>2022-06-19T06:12:45.686Z</time>
      </trkpt>
      <trkpt lat="43.22683667" lon="-6.80757667">
        <ele>1019.0</ele>
        <time>2022-06-19T06:12:46.660Z</time>
      </trkpt>
      <trkpt lat="43.22682333" lon="-6.80760667">
        <ele>1019.0</ele>
        <time>2022-06-19T06:12:47.685Z</time>
      </trkpt>
      <trkpt lat="43.226815" lon="-6.80762333">
        <ele>1019.0</ele>
        <time>2022-06-19T06:12:48.651Z</time>
      </trkpt>
      <trkpt lat="43.22680833" lon="-6.80764">
        <ele>1019.0</ele>
        <time>2022-06-19T06:12:49.692Z</time>
      </trkpt>
      <trkpt lat="43.22680833" lon="-6.80764">
        <ele>1019.0</ele>
        <time>2022-06-19T06:12:50.661Z</time>
      </trkpt>
      <trkpt lat="43.22679333" lon="-6.807675">
        <ele>1019.0</ele>
        <time>2022-06-19T06:12:51.657Z</time>
      </trkpt>
      <trkpt lat="43.22679333" lon="-6.807675">
        <ele>1019.0</ele>
        <time>2022-06-19T06:12:52.666Z</time>
      </trkpt>
      <trkpt lat="43.22678" lon="-6.80770833">
        <ele>1020.0</ele>
        <time>2022-06-19T06:12:53.667Z</time>
      </trkpt>
      <trkpt lat="43.22678" lon="-6.80770833">
        <ele>1020.0</ele>
        <time>2022-06-19T06:12:54.666Z</time>
      </trkpt>
      <trkpt lat="43.22676833" lon="-6.80774167">
        <ele>1020.0</ele>
        <time>2022-06-19T06:12:55.649Z</time>
      </trkpt>
      <trkpt lat="43.22676833" lon="-6.80774167">
        <ele>1020.0</ele>
        <time>2022-06-19T06:12:56.672Z</time>
      </trkpt>
      <trkpt lat="43.22675667" lon="-6.80777">
        <ele>1020.0</ele>
        <time>2022-06-19T06:12:57.655Z</time>
      </trkpt>
      <trkpt lat="43.22675" lon="-6.80778667">
        <ele>1020.0</ele>
        <time>2022-06-19T06:12:58.683Z</time>
      </trkpt>
      <trkpt lat="43.22675" lon="-6.80778667">
        <ele>1020.0</ele>
        <time>2022-06-19T06:12:59.658Z</time>
      </trkpt>
      <trkpt lat="43.22674" lon="-6.80782167">
        <ele>1020.0</ele>
        <time>2022-06-19T06:13:00.676Z</time>
      </trkpt>
      <trkpt lat="43.22674" lon="-6.80782167">
        <ele>1020.0</ele>
        <time>2022-06-19T06:13:01.673Z</time>
      </trkpt>
      <trkpt lat="43.22672833" lon="-6.807855">
        <ele>1021.0</ele>
        <time>2022-06-19T06:13:02.656Z</time>
      </trkpt>
      <trkpt lat="43.22672167" lon="-6.80787">
        <ele>1021.0</ele>
        <time>2022-06-19T06:13:03.686Z</time>
      </trkpt>
      <trkpt lat="43.22672167" lon="-6.80787">
        <ele>1021.0</ele>
        <time>2022-06-19T06:13:04.662Z</time>
      </trkpt>
      <trkpt lat="43.22670667" lon="-6.807905">
        <ele>1021.0</ele>
        <time>2022-06-19T06:13:05.680Z</time>
      </trkpt>
      <trkpt lat="43.22670667" lon="-6.807905">
        <ele>1021.0</ele>
        <time>2022-06-19T06:13:06.661Z</time>
      </trkpt>
      <trkpt lat="43.22669" lon="-6.807935">
        <ele>1021.0</ele>
        <time>2022-06-19T06:13:07.667Z</time>
      </trkpt>
      <trkpt lat="43.22669" lon="-6.807935">
        <ele>1021.0</ele>
        <time>2022-06-19T06:13:08.686Z</time>
      </trkpt>
      <trkpt lat="43.22667167" lon="-6.80796667">
        <ele>1022.0</ele>
        <time>2022-06-19T06:13:09.669Z</time>
      </trkpt>
      <trkpt lat="43.22667167" lon="-6.80796667">
        <ele>1022.0</ele>
        <time>2022-06-19T06:13:10.679Z</time>
      </trkpt>
      <trkpt lat="43.22666" lon="-6.80800667">
        <ele>1022.0</ele>
        <time>2022-06-19T06:13:11.662Z</time>
      </trkpt>
      <trkpt lat="43.226655" lon="-6.80802333">
        <ele>1022.0</ele>
        <time>2022-06-19T06:13:12.649Z</time>
      </trkpt>
      <trkpt lat="43.226655" lon="-6.80802333">
        <ele>1022.0</ele>
        <time>2022-06-19T06:13:13.679Z</time>
      </trkpt>
      <trkpt lat="43.22664667" lon="-6.80806167">
        <ele>1022.0</ele>
        <time>2022-06-19T06:13:14.656Z</time>
      </trkpt>
      <trkpt lat="43.226645" lon="-6.80808167">
        <ele>1023.0</ele>
        <time>2022-06-19T06:13:15.662Z</time>
      </trkpt>
      <trkpt lat="43.226645" lon="-6.80808167">
        <ele>1023.0</ele>
        <time>2022-06-19T06:13:16.672Z</time>
      </trkpt>
      <trkpt lat="43.22663667" lon="-6.808115">
        <ele>1023.0</ele>
        <time>2022-06-19T06:13:17.656Z</time>
      </trkpt>
      <trkpt lat="43.22663167" lon="-6.80813333">
        <ele>1023.0</ele>
        <time>2022-06-19T06:13:18.661Z</time>
      </trkpt>
      <trkpt lat="43.22663167" lon="-6.80813333">
        <ele>1023.0</ele>
        <time>2022-06-19T06:13:19.677Z</time>
      </trkpt>
      <trkpt lat="43.22661833" lon="-6.80816833">
        <ele>1024.0</ele>
        <time>2022-06-19T06:13:20.654Z</time>
      </trkpt>
      <trkpt lat="43.22661833" lon="-6.80816833">
        <ele>1024.0</ele>
        <time>2022-06-19T06:13:21.672Z</time>
      </trkpt>
      <trkpt lat="43.226605" lon="-6.80820167">
        <ele>1024.0</ele>
        <time>2022-06-19T06:13:22.663Z</time>
      </trkpt>
      <trkpt lat="43.22659833" lon="-6.80822">
        <ele>1024.0</ele>
        <time>2022-06-19T06:13:23.679Z</time>
      </trkpt>
      <trkpt lat="43.22659833" lon="-6.80822">
        <ele>1024.0</ele>
        <time>2022-06-19T06:13:24.688Z</time>
      </trkpt>
      <trkpt lat="43.22658667" lon="-6.80825333">
        <ele>1024.0</ele>
        <time>2022-06-19T06:13:25.666Z</time>
      </trkpt>
      <trkpt lat="43.22658667" lon="-6.80825333">
        <ele>1024.0</ele>
        <time>2022-06-19T06:13:26.678Z</time>
      </trkpt>
      <trkpt lat="43.22657667" lon="-6.80828667">
        <ele>1024.0</ele>
        <time>2022-06-19T06:13:27.657Z</time>
      </trkpt>
      <trkpt lat="43.22657667" lon="-6.80828667">
        <ele>1024.0</ele>
        <time>2022-06-19T06:13:28.666Z</time>
      </trkpt>
      <trkpt lat="43.22656167" lon="-6.80832167">
        <ele>1025.0</ele>
        <time>2022-06-19T06:13:29.690Z</time>
      </trkpt>
      <trkpt lat="43.22655667" lon="-6.80833833">
        <ele>1025.0</ele>
        <time>2022-06-19T06:13:30.687Z</time>
      </trkpt>
      <trkpt lat="43.22655667" lon="-6.80833833">
        <ele>1025.0</ele>
        <time>2022-06-19T06:13:31.683Z</time>
      </trkpt>
      <trkpt lat="43.22655" lon="-6.80837667">
        <ele>1025.0</ele>
        <time>2022-06-19T06:13:32.666Z</time>
      </trkpt>
      <trkpt lat="43.226545" lon="-6.80839667">
        <ele>1025.0</ele>
        <time>2022-06-19T06:13:33.662Z</time>
      </trkpt>
      <trkpt lat="43.22654" lon="-6.80841333">
        <ele>1025.0</ele>
        <time>2022-06-19T06:13:34.685Z</time>
      </trkpt>
      <trkpt lat="43.22654" lon="-6.80841333">
        <ele>1025.0</ele>
        <time>2022-06-19T06:13:35.666Z</time>
      </trkpt>
      <trkpt lat="43.22652833" lon="-6.80844667">
        <ele>1026.0</ele>
        <time>2022-06-19T06:13:36.653Z</time>
      </trkpt>
      <trkpt lat="43.22652833" lon="-6.80844667">
        <ele>1026.0</ele>
        <time>2022-06-19T06:13:37.659Z</time>
      </trkpt>
      <trkpt lat="43.22651333" lon="-6.80848">
        <ele>1026.0</ele>
        <time>2022-06-19T06:13:38.681Z</time>
      </trkpt>
      <trkpt lat="43.22651333" lon="-6.80848">
        <ele>1026.0</ele>
        <time>2022-06-19T06:13:39.655Z</time>
      </trkpt>
      <trkpt lat="43.226495" lon="-6.80851">
        <ele>1026.0</ele>
        <time>2022-06-19T06:13:40.683Z</time>
      </trkpt>
      <trkpt lat="43.226495" lon="-6.80851">
        <ele>1026.0</ele>
        <time>2022-06-19T06:13:41.656Z</time>
      </trkpt>
      <trkpt lat="43.22646667" lon="-6.80853333">
        <ele>1026.0</ele>
        <time>2022-06-19T06:13:42.675Z</time>
      </trkpt>
      <trkpt lat="43.22646667" lon="-6.80853333">
        <ele>1026.0</ele>
        <time>2022-06-19T06:13:43.658Z</time>
      </trkpt>
      <trkpt lat="43.22645" lon="-6.80856">
        <ele>1027.0</ele>
        <time>2022-06-19T06:13:44.677Z</time>
      </trkpt>
      <trkpt lat="43.22645" lon="-6.80856">
        <ele>1027.0</ele>
        <time>2022-06-19T06:13:45.665Z</time>
      </trkpt>
      <trkpt lat="43.22644167" lon="-6.80860167">
        <ele>1027.0</ele>
        <time>2022-06-19T06:13:46.650Z</time>
      </trkpt>
      <trkpt lat="43.22644167" lon="-6.80860167">
        <ele>1027.0</ele>
        <time>2022-06-19T06:13:47.661Z</time>
      </trkpt>
      <trkpt lat="43.22643167" lon="-6.80863833">
        <ele>1028.0</ele>
        <time>2022-06-19T06:13:48.690Z</time>
      </trkpt>
      <trkpt lat="43.22643167" lon="-6.80863833">
        <ele>1028.0</ele>
        <time>2022-06-19T06:13:49.661Z</time>
      </trkpt>
      <trkpt lat="43.22641833" lon="-6.80867333">
        <ele>1028.0</ele>
        <time>2022-06-19T06:13:50.663Z</time>
      </trkpt>
      <trkpt lat="43.22641833" lon="-6.80867333">
        <ele>1028.0</ele>
        <time>2022-06-19T06:13:51.685Z</time>
      </trkpt>
      <trkpt lat="43.2264" lon="-6.80870667">
        <ele>1028.0</ele>
        <time>2022-06-19T06:13:52.675Z</time>
      </trkpt>
      <trkpt lat="43.2264" lon="-6.80870667">
        <ele>1028.0</ele>
        <time>2022-06-19T06:13:53.679Z</time>
      </trkpt>
      <trkpt lat="43.22638167" lon="-6.80874">
        <ele>1029.0</ele>
        <time>2022-06-19T06:13:54.680Z</time>
      </trkpt>
      <trkpt lat="43.22638167" lon="-6.80874">
        <ele>1029.0</ele>
        <time>2022-06-19T06:13:55.650Z</time>
      </trkpt>
      <trkpt lat="43.226365" lon="-6.80877167">
        <ele>1029.0</ele>
        <time>2022-06-19T06:13:56.671Z</time>
      </trkpt>
      <trkpt lat="43.226365" lon="-6.80877167">
        <ele>1029.0</ele>
        <time>2022-06-19T06:13:57.684Z</time>
      </trkpt>
      <trkpt lat="43.22634667" lon="-6.80880167">
        <ele>1029.0</ele>
        <time>2022-06-19T06:13:58.667Z</time>
      </trkpt>
      <trkpt lat="43.22634667" lon="-6.80880167">
        <ele>1029.0</ele>
        <time>2022-06-19T06:13:59.658Z</time>
      </trkpt>
      <trkpt lat="43.22632833" lon="-6.80883167">
        <ele>1030.0</ele>
        <time>2022-06-19T06:14:00.654Z</time>
      </trkpt>
      <trkpt lat="43.22632833" lon="-6.80883167">
        <ele>1030.0</ele>
        <time>2022-06-19T06:14:01.657Z</time>
      </trkpt>
      <trkpt lat="43.22631" lon="-6.808865">
        <ele>1030.0</ele>
        <time>2022-06-19T06:14:02.675Z</time>
      </trkpt>
      <trkpt lat="43.22631" lon="-6.808865">
        <ele>1030.0</ele>
        <time>2022-06-19T06:14:03.661Z</time>
      </trkpt>
      <trkpt lat="43.22629" lon="-6.80889333">
        <ele>1030.0</ele>
        <time>2022-06-19T06:14:04.653Z</time>
      </trkpt>
      <trkpt lat="43.22629" lon="-6.80889333">
        <ele>1030.0</ele>
        <time>2022-06-19T06:14:05.672Z</time>
      </trkpt>
      <trkpt lat="43.226275" lon="-6.80893">
        <ele>1031.0</ele>
        <time>2022-06-19T06:14:06.656Z</time>
      </trkpt>
      <trkpt lat="43.22626667" lon="-6.80894667">
        <ele>1031.0</ele>
        <time>2022-06-19T06:14:07.675Z</time>
      </trkpt>
      <trkpt lat="43.22626667" lon="-6.80894667">
        <ele>1031.0</ele>
        <time>2022-06-19T06:14:08.676Z</time>
      </trkpt>
      <trkpt lat="43.22625333" lon="-6.80898167">
        <ele>1031.0</ele>
        <time>2022-06-19T06:14:09.687Z</time>
      </trkpt>
      <trkpt lat="43.22625333" lon="-6.80898167">
        <ele>1031.0</ele>
        <time>2022-06-19T06:14:10.657Z</time>
      </trkpt>
      <trkpt lat="43.22624167" lon="-6.80901833">
        <ele>1031.0</ele>
        <time>2022-06-19T06:14:11.686Z</time>
      </trkpt>
      <trkpt lat="43.226235" lon="-6.80903833">
        <ele>1031.0</ele>
        <time>2022-06-19T06:14:12.688Z</time>
      </trkpt>
      <trkpt lat="43.22622833" lon="-6.80906167">
        <ele>1031.0</ele>
        <time>2022-06-19T06:14:13.665Z</time>
      </trkpt>
      <trkpt lat="43.22622833" lon="-6.80906167">
        <ele>1031.0</ele>
        <time>2022-06-19T06:14:14.684Z</time>
      </trkpt>
      <trkpt lat="43.226215" lon="-6.80910167">
        <ele>1031.0</ele>
        <time>2022-06-19T06:14:15.669Z</time>
      </trkpt>
      <trkpt lat="43.22621" lon="-6.80912">
        <ele>1032.0</ele>
        <time>2022-06-19T06:14:16.662Z</time>
      </trkpt>
      <trkpt lat="43.22621" lon="-6.80912">
        <ele>1032.0</ele>
        <time>2022-06-19T06:14:17.675Z</time>
      </trkpt>
      <trkpt lat="43.22619" lon="-6.80916">
        <ele>1032.0</ele>
        <time>2022-06-19T06:14:18.656Z</time>
      </trkpt>
      <trkpt lat="43.22619" lon="-6.80916">
        <ele>1032.0</ele>
        <time>2022-06-19T06:14:19.675Z</time>
      </trkpt>
      <trkpt lat="43.22617333" lon="-6.8092">
        <ele>1032.0</ele>
        <time>2022-06-19T06:14:20.670Z</time>
      </trkpt>
      <trkpt lat="43.22617333" lon="-6.8092">
        <ele>1032.0</ele>
        <time>2022-06-19T06:14:21.681Z</time>
      </trkpt>
      <trkpt lat="43.22615833" lon="-6.80924167">
        <ele>1033.0</ele>
        <time>2022-06-19T06:14:22.667Z</time>
      </trkpt>
      <trkpt lat="43.22615333" lon="-6.809265">
        <ele>1033.0</ele>
        <time>2022-06-19T06:14:23.667Z</time>
      </trkpt>
      <trkpt lat="43.22615" lon="-6.80928667">
        <ele>1033.0</ele>
        <time>2022-06-19T06:14:24.687Z</time>
      </trkpt>
      <trkpt lat="43.22614833" lon="-6.80931">
        <ele>1033.0</ele>
        <time>2022-06-19T06:14:25.669Z</time>
      </trkpt>
      <trkpt lat="43.22614833" lon="-6.80931">
        <ele>1033.0</ele>
        <time>2022-06-19T06:14:26.678Z</time>
      </trkpt>
      <trkpt lat="43.226145" lon="-6.80935333">
        <ele>1033.0</ele>
        <time>2022-06-19T06:14:27.661Z</time>
      </trkpt>
      <trkpt lat="43.226145" lon="-6.809375">
        <ele>1034.0</ele>
        <time>2022-06-19T06:14:28.659Z</time>
      </trkpt>
      <trkpt lat="43.22614167" lon="-6.809395">
        <ele>1034.0</ele>
        <time>2022-06-19T06:14:29.688Z</time>
      </trkpt>
      <trkpt lat="43.22614167" lon="-6.809395">
        <ele>1034.0</ele>
        <time>2022-06-19T06:14:30.661Z</time>
      </trkpt>
      <trkpt lat="43.226135" lon="-6.80943833">
        <ele>1034.0</ele>
        <time>2022-06-19T06:14:31.684Z</time>
      </trkpt>
      <trkpt lat="43.226135" lon="-6.80943833">
        <ele>1034.0</ele>
        <time>2022-06-19T06:14:32.669Z</time>
      </trkpt>
      <trkpt lat="43.22613167" lon="-6.80948833">
        <ele>1034.0</ele>
        <time>2022-06-19T06:14:33.656Z</time>
      </trkpt>
      <trkpt lat="43.22613167" lon="-6.80948833">
        <ele>1034.0</ele>
        <time>2022-06-19T06:14:34.667Z</time>
      </trkpt>
      <trkpt lat="43.22613167" lon="-6.80953667">
        <ele>1035.0</ele>
        <time>2022-06-19T06:14:35.659Z</time>
      </trkpt>
      <trkpt lat="43.22613167" lon="-6.80956333">
        <ele>1035.0</ele>
        <time>2022-06-19T06:14:36.654Z</time>
      </trkpt>
      <trkpt lat="43.22613167" lon="-6.80956333">
        <ele>1035.0</ele>
        <time>2022-06-19T06:14:37.656Z</time>
      </trkpt>
      <trkpt lat="43.22613333" lon="-6.809615">
        <ele>1035.0</ele>
        <time>2022-06-19T06:14:38.682Z</time>
      </trkpt>
      <trkpt lat="43.22613333" lon="-6.809615">
        <ele>1035.0</ele>
        <time>2022-06-19T06:14:39.656Z</time>
      </trkpt>
      <trkpt lat="43.22613333" lon="-6.809665">
        <ele>1035.0</ele>
        <time>2022-06-19T06:14:40.681Z</time>
      </trkpt>
      <trkpt lat="43.22613333" lon="-6.809665">
        <ele>1035.0</ele>
        <time>2022-06-19T06:14:41.665Z</time>
      </trkpt>
      <trkpt lat="43.226135" lon="-6.80971667">
        <ele>1036.0</ele>
        <time>2022-06-19T06:14:42.687Z</time>
      </trkpt>
      <trkpt lat="43.22613667" lon="-6.80974167">
        <ele>1036.0</ele>
        <time>2022-06-19T06:14:43.680Z</time>
      </trkpt>
      <trkpt lat="43.22613667" lon="-6.80974167">
        <ele>1036.0</ele>
        <time>2022-06-19T06:14:44.671Z</time>
      </trkpt>
      <trkpt lat="43.22614" lon="-6.80979167">
        <ele>1036.0</ele>
        <time>2022-06-19T06:14:45.654Z</time>
      </trkpt>
      <trkpt lat="43.22614167" lon="-6.80981667">
        <ele>1037.0</ele>
        <time>2022-06-19T06:14:46.654Z</time>
      </trkpt>
      <trkpt lat="43.22614167" lon="-6.80981667">
        <ele>1037.0</ele>
        <time>2022-06-19T06:14:47.658Z</time>
      </trkpt>
      <trkpt lat="43.22614833" lon="-6.80987167">
        <ele>1037.0</ele>
        <time>2022-06-19T06:14:48.684Z</time>
      </trkpt>
      <trkpt lat="43.22614833" lon="-6.80987167">
        <ele>1037.0</ele>
        <time>2022-06-19T06:14:49.673Z</time>
      </trkpt>
      <trkpt lat="43.22614667" lon="-6.80992">
        <ele>1038.0</ele>
        <time>2022-06-19T06:14:50.661Z</time>
      </trkpt>
      <trkpt lat="43.22614667" lon="-6.80992">
        <ele>1038.0</ele>
        <time>2022-06-19T06:14:51.657Z</time>
      </trkpt>
      <trkpt lat="43.22613833" lon="-6.80997">
        <ele>1038.0</ele>
        <time>2022-06-19T06:14:52.686Z</time>
      </trkpt>
      <trkpt lat="43.22613833" lon="-6.80997">
        <ele>1038.0</ele>
        <time>2022-06-19T06:14:53.675Z</time>
      </trkpt>
      <trkpt lat="43.22613667" lon="-6.81002">
        <ele>1038.0</ele>
        <time>2022-06-19T06:14:54.663Z</time>
      </trkpt>
      <trkpt lat="43.22613667" lon="-6.81002">
        <ele>1038.0</ele>
        <time>2022-06-19T06:14:55.656Z</time>
      </trkpt>
      <trkpt lat="43.22614" lon="-6.81007167">
        <ele>1038.0</ele>
        <time>2022-06-19T06:14:56.681Z</time>
      </trkpt>
      <trkpt lat="43.22614" lon="-6.81007167">
        <ele>1038.0</ele>
        <time>2022-06-19T06:14:57.657Z</time>
      </trkpt>
      <trkpt lat="43.22614167" lon="-6.81013">
        <ele>1038.0</ele>
        <time>2022-06-19T06:14:58.673Z</time>
      </trkpt>
      <trkpt lat="43.22614167" lon="-6.81013">
        <ele>1038.0</ele>
        <time>2022-06-19T06:14:59.671Z</time>
      </trkpt>
      <trkpt lat="43.22614" lon="-6.81018333">
        <ele>1039.0</ele>
        <time>2022-06-19T06:15:00.677Z</time>
      </trkpt>
      <trkpt lat="43.22614" lon="-6.81018333">
        <ele>1039.0</ele>
        <time>2022-06-19T06:15:01.662Z</time>
      </trkpt>
      <trkpt lat="43.226135" lon="-6.81023833">
        <ele>1039.0</ele>
        <time>2022-06-19T06:15:02.689Z</time>
      </trkpt>
      <trkpt lat="43.22613333" lon="-6.81026833">
        <ele>1039.0</ele>
        <time>2022-06-19T06:15:03.652Z</time>
      </trkpt>
      <trkpt lat="43.22613333" lon="-6.81026833">
        <ele>1039.0</ele>
        <time>2022-06-19T06:15:04.671Z</time>
      </trkpt>
      <trkpt lat="43.22612333" lon="-6.81032667">
        <ele>1040.0</ele>
        <time>2022-06-19T06:15:05.656Z</time>
      </trkpt>
      <trkpt lat="43.22612" lon="-6.81035833">
        <ele>1040.0</ele>
        <time>2022-06-19T06:15:06.655Z</time>
      </trkpt>
      <trkpt lat="43.22611667" lon="-6.81038667">
        <ele>1040.0</ele>
        <time>2022-06-19T06:15:07.678Z</time>
      </trkpt>
      <trkpt lat="43.22611667" lon="-6.81038667">
        <ele>1040.0</ele>
        <time>2022-06-19T06:15:08.661Z</time>
      </trkpt>
      <trkpt lat="43.22610833" lon="-6.81045">
        <ele>1040.0</ele>
        <time>2022-06-19T06:15:09.656Z</time>
      </trkpt>
      <trkpt lat="43.22610167" lon="-6.81047833">
        <ele>1040.0</ele>
        <time>2022-06-19T06:15:10.674Z</time>
      </trkpt>
      <trkpt lat="43.22610167" lon="-6.81047833">
        <ele>1040.0</ele>
        <time>2022-06-19T06:15:11.655Z</time>
      </trkpt>
      <trkpt lat="43.22608667" lon="-6.81054">
        <ele>1040.0</ele>
        <time>2022-06-19T06:15:12.678Z</time>
      </trkpt>
      <trkpt lat="43.22608" lon="-6.81057">
        <ele>1040.0</ele>
        <time>2022-06-19T06:15:13.679Z</time>
      </trkpt>
      <trkpt lat="43.22608" lon="-6.81057">
        <ele>1040.0</ele>
        <time>2022-06-19T06:15:14.662Z</time>
      </trkpt>
      <trkpt lat="43.22606667" lon="-6.81063167">
        <ele>1040.0</ele>
        <time>2022-06-19T06:15:15.694Z</time>
      </trkpt>
      <trkpt lat="43.22605833" lon="-6.81066333">
        <ele>1040.0</ele>
        <time>2022-06-19T06:15:16.653Z</time>
      </trkpt>
      <trkpt lat="43.22605" lon="-6.81069333">
        <ele>1040.0</ele>
        <time>2022-06-19T06:15:17.655Z</time>
      </trkpt>
      <trkpt lat="43.22605" lon="-6.81069333">
        <ele>1040.0</ele>
        <time>2022-06-19T06:15:18.667Z</time>
      </trkpt>
      <trkpt lat="43.226035" lon="-6.81075333">
        <ele>1041.0</ele>
        <time>2022-06-19T06:15:19.689Z</time>
      </trkpt>
      <trkpt lat="43.226035" lon="-6.81075333">
        <ele>1041.0</ele>
        <time>2022-06-19T06:15:20.679Z</time>
      </trkpt>
      <trkpt lat="43.226015" lon="-6.81081333">
        <ele>1041.0</ele>
        <time>2022-06-19T06:15:21.669Z</time>
      </trkpt>
      <trkpt lat="43.22600833" lon="-6.810845">
        <ele>1041.0</ele>
        <time>2022-06-19T06:15:22.671Z</time>
      </trkpt>
      <trkpt lat="43.22600833" lon="-6.810845">
        <ele>1041.0</ele>
        <time>2022-06-19T06:15:23.686Z</time>
      </trkpt>
      <trkpt lat="43.22599333" lon="-6.81090833">
        <ele>1041.0</ele>
        <time>2022-06-19T06:15:24.677Z</time>
      </trkpt>
      <trkpt lat="43.22599333" lon="-6.81090833">
        <ele>1041.0</ele>
        <time>2022-06-19T06:15:25.685Z</time>
      </trkpt>
      <trkpt lat="43.22597833" lon="-6.81097">
        <ele>1041.0</ele>
        <time>2022-06-19T06:15:26.678Z</time>
      </trkpt>
      <trkpt lat="43.22597833" lon="-6.81097">
        <ele>1041.0</ele>
        <time>2022-06-19T06:15:27.656Z</time>
      </trkpt>
      <trkpt lat="43.225965" lon="-6.81103">
        <ele>1041.0</ele>
        <time>2022-06-19T06:15:28.661Z</time>
      </trkpt>
      <trkpt lat="43.225965" lon="-6.81103">
        <ele>1041.0</ele>
        <time>2022-06-19T06:15:29.671Z</time>
      </trkpt>
      <trkpt lat="43.225945" lon="-6.81109167">
        <ele>1041.0</ele>
        <time>2022-06-19T06:15:30.658Z</time>
      </trkpt>
      <trkpt lat="43.225945" lon="-6.81109167">
        <ele>1041.0</ele>
        <time>2022-06-19T06:15:31.681Z</time>
      </trkpt>
      <trkpt lat="43.225925" lon="-6.81115333">
        <ele>1041.0</ele>
        <time>2022-06-19T06:15:32.659Z</time>
      </trkpt>
      <trkpt lat="43.22591667" lon="-6.811185">
        <ele>1041.0</ele>
        <time>2022-06-19T06:15:33.662Z</time>
      </trkpt>
      <trkpt lat="43.22591667" lon="-6.811185">
        <ele>1041.0</ele>
        <time>2022-06-19T06:15:34.682Z</time>
      </trkpt>
      <trkpt lat="43.22590167" lon="-6.81125167">
        <ele>1041.0</ele>
        <time>2022-06-19T06:15:35.665Z</time>
      </trkpt>
      <trkpt lat="43.22589333" lon="-6.81128333">
        <ele>1042.0</ele>
        <time>2022-06-19T06:15:36.656Z</time>
      </trkpt>
      <trkpt lat="43.22588667" lon="-6.81131">
        <ele>1042.0</ele>
        <time>2022-06-19T06:15:37.679Z</time>
      </trkpt>
      <trkpt lat="43.22588667" lon="-6.81131">
        <ele>1042.0</ele>
        <time>2022-06-19T06:15:38.658Z</time>
      </trkpt>
      <trkpt lat="43.22587" lon="-6.81137833">
        <ele>1042.0</ele>
        <time>2022-06-19T06:15:39.664Z</time>
      </trkpt>
      <trkpt lat="43.22586" lon="-6.811415">
        <ele>1042.0</ele>
        <time>2022-06-19T06:15:40.655Z</time>
      </trkpt>
      <trkpt lat="43.22586" lon="-6.811415">
        <ele>1042.0</ele>
        <time>2022-06-19T06:15:41.656Z</time>
      </trkpt>
      <trkpt lat="43.22583667" lon="-6.811485">
        <ele>1042.0</ele>
        <time>2022-06-19T06:15:42.682Z</time>
      </trkpt>
      <trkpt lat="43.22583667" lon="-6.811485">
        <ele>1042.0</ele>
        <time>2022-06-19T06:15:43.649Z</time>
      </trkpt>
      <trkpt lat="43.225815" lon="-6.81155667">
        <ele>1042.0</ele>
        <time>2022-06-19T06:15:44.655Z</time>
      </trkpt>
      <trkpt lat="43.225815" lon="-6.81155667">
        <ele>1042.0</ele>
        <time>2022-06-19T06:15:45.684Z</time>
      </trkpt>
      <trkpt lat="43.22579333" lon="-6.811625">
        <ele>1042.0</ele>
        <time>2022-06-19T06:15:46.673Z</time>
      </trkpt>
      <trkpt lat="43.22579333" lon="-6.811625">
        <ele>1042.0</ele>
        <time>2022-06-19T06:15:47.660Z</time>
      </trkpt>
      <trkpt lat="43.22577" lon="-6.81170167">
        <ele>1042.0</ele>
        <time>2022-06-19T06:15:48.678Z</time>
      </trkpt>
      <trkpt lat="43.22577" lon="-6.81170167">
        <ele>1042.0</ele>
        <time>2022-06-19T06:15:49.687Z</time>
      </trkpt>
      <trkpt lat="43.225745" lon="-6.81177167">
        <ele>1042.0</ele>
        <time>2022-06-19T06:15:50.679Z</time>
      </trkpt>
      <trkpt lat="43.225745" lon="-6.81177167">
        <ele>1042.0</ele>
        <time>2022-06-19T06:15:51.658Z</time>
      </trkpt>
      <trkpt lat="43.22571833" lon="-6.81184833">
        <ele>1042.0</ele>
        <time>2022-06-19T06:15:52.655Z</time>
      </trkpt>
      <trkpt lat="43.22571833" lon="-6.81184833">
        <ele>1042.0</ele>
        <time>2022-06-19T06:15:53.651Z</time>
      </trkpt>
      <trkpt lat="43.22569333" lon="-6.81192167">
        <ele>1042.0</ele>
        <time>2022-06-19T06:15:54.678Z</time>
      </trkpt>
      <trkpt lat="43.22569333" lon="-6.81192167">
        <ele>1042.0</ele>
        <time>2022-06-19T06:15:55.654Z</time>
      </trkpt>
      <trkpt lat="43.22567" lon="-6.81199667">
        <ele>1042.0</ele>
        <time>2022-06-19T06:15:56.675Z</time>
      </trkpt>
      <trkpt lat="43.22567" lon="-6.81199667">
        <ele>1042.0</ele>
        <time>2022-06-19T06:15:57.664Z</time>
      </trkpt>
      <trkpt lat="43.22564667" lon="-6.81207167">
        <ele>1042.0</ele>
        <time>2022-06-19T06:15:58.688Z</time>
      </trkpt>
      <trkpt lat="43.22564667" lon="-6.81207167">
        <ele>1042.0</ele>
        <time>2022-06-19T06:15:59.676Z</time>
      </trkpt>
      <trkpt lat="43.22562" lon="-6.81215167">
        <ele>1042.0</ele>
        <time>2022-06-19T06:16:00.675Z</time>
      </trkpt>
      <trkpt lat="43.22562" lon="-6.81215167">
        <ele>1042.0</ele>
        <time>2022-06-19T06:16:01.673Z</time>
      </trkpt>
      <trkpt lat="43.2256" lon="-6.81224">
        <ele>1042.0</ele>
        <time>2022-06-19T06:16:02.658Z</time>
      </trkpt>
      <trkpt lat="43.2256" lon="-6.81224">
        <ele>1042.0</ele>
        <time>2022-06-19T06:16:03.669Z</time>
      </trkpt>
      <trkpt lat="43.22557667" lon="-6.81232667">
        <ele>1042.0</ele>
        <time>2022-06-19T06:16:04.659Z</time>
      </trkpt>
      <trkpt lat="43.22557667" lon="-6.81232667">
        <ele>1042.0</ele>
        <time>2022-06-19T06:16:05.670Z</time>
      </trkpt>
      <trkpt lat="43.22554833" lon="-6.81240667">
        <ele>1042.0</ele>
        <time>2022-06-19T06:16:06.654Z</time>
      </trkpt>
      <trkpt lat="43.22554833" lon="-6.81240667">
        <ele>1042.0</ele>
        <time>2022-06-19T06:16:07.671Z</time>
      </trkpt>
      <trkpt lat="43.22552" lon="-6.81248833">
        <ele>1042.0</ele>
        <time>2022-06-19T06:16:08.661Z</time>
      </trkpt>
      <trkpt lat="43.22552" lon="-6.81248833">
        <ele>1042.0</ele>
        <time>2022-06-19T06:16:09.680Z</time>
      </trkpt>
      <trkpt lat="43.22548833" lon="-6.81257333">
        <ele>1041.0</ele>
        <time>2022-06-19T06:16:10.667Z</time>
      </trkpt>
      <trkpt lat="43.22548833" lon="-6.81257333">
        <ele>1041.0</ele>
        <time>2022-06-19T06:16:11.688Z</time>
      </trkpt>
      <trkpt lat="43.22545" lon="-6.81265833">
        <ele>1041.0</ele>
        <time>2022-06-19T06:16:12.673Z</time>
      </trkpt>
      <trkpt lat="43.22545" lon="-6.81265833">
        <ele>1041.0</ele>
        <time>2022-06-19T06:16:13.678Z</time>
      </trkpt>
      <trkpt lat="43.22541167" lon="-6.81274667">
        <ele>1041.0</ele>
        <time>2022-06-19T06:16:14.665Z</time>
      </trkpt>
      <trkpt lat="43.22541167" lon="-6.81274667">
        <ele>1041.0</ele>
        <time>2022-06-19T06:16:15.675Z</time>
      </trkpt>
      <trkpt lat="43.225375" lon="-6.81284167">
        <ele>1041.0</ele>
        <time>2022-06-19T06:16:16.659Z</time>
      </trkpt>
      <trkpt lat="43.225375" lon="-6.81284167">
        <ele>1041.0</ele>
        <time>2022-06-19T06:16:17.669Z</time>
      </trkpt>
      <trkpt lat="43.22533667" lon="-6.81294333">
        <ele>1040.0</ele>
        <time>2022-06-19T06:16:18.678Z</time>
      </trkpt>
      <trkpt lat="43.22533667" lon="-6.81294333">
        <ele>1040.0</ele>
        <time>2022-06-19T06:16:19.670Z</time>
      </trkpt>
      <trkpt lat="43.22529833" lon="-6.81305">
        <ele>1040.0</ele>
        <time>2022-06-19T06:16:20.660Z</time>
      </trkpt>
      <trkpt lat="43.22529833" lon="-6.81305">
        <ele>1040.0</ele>
        <time>2022-06-19T06:16:21.660Z</time>
      </trkpt>
      <trkpt lat="43.22525833" lon="-6.81316333">
        <ele>1040.0</ele>
        <time>2022-06-19T06:16:22.681Z</time>
      </trkpt>
      <trkpt lat="43.22525833" lon="-6.81316333">
        <ele>1040.0</ele>
        <time>2022-06-19T06:16:23.683Z</time>
      </trkpt>
      <trkpt lat="43.225215" lon="-6.81327833">
        <ele>1040.0</ele>
        <time>2022-06-19T06:16:24.661Z</time>
      </trkpt>
      <trkpt lat="43.225215" lon="-6.81327833">
        <ele>1040.0</ele>
        <time>2022-06-19T06:16:25.688Z</time>
      </trkpt>
      <trkpt lat="43.22517167" lon="-6.81339333">
        <ele>1040.0</ele>
        <time>2022-06-19T06:16:26.678Z</time>
      </trkpt>
      <trkpt lat="43.22515167" lon="-6.81345167">
        <ele>1040.0</ele>
        <time>2022-06-19T06:16:27.678Z</time>
      </trkpt>
      <trkpt lat="43.225135" lon="-6.81351167">
        <ele>1040.0</ele>
        <time>2022-06-19T06:16:28.676Z</time>
      </trkpt>
      <trkpt lat="43.225135" lon="-6.81351167">
        <ele>1040.0</ele>
        <time>2022-06-19T06:16:29.672Z</time>
      </trkpt>
      <trkpt lat="43.22510167" lon="-6.813635">
        <ele>1040.0</ele>
        <time>2022-06-19T06:16:30.675Z</time>
      </trkpt>
      <trkpt lat="43.22510167" lon="-6.813635">
        <ele>1040.0</ele>
        <time>2022-06-19T06:16:31.687Z</time>
      </trkpt>
      <trkpt lat="43.22506167" lon="-6.81376167">
        <ele>1039.0</ele>
        <time>2022-06-19T06:16:32.670Z</time>
      </trkpt>
      <trkpt lat="43.22506167" lon="-6.81376167">
        <ele>1039.0</ele>
        <time>2022-06-19T06:16:33.669Z</time>
      </trkpt>
      <trkpt lat="43.22502" lon="-6.81389">
        <ele>1039.0</ele>
        <time>2022-06-19T06:16:34.688Z</time>
      </trkpt>
      <trkpt lat="43.22502" lon="-6.81389">
        <ele>1039.0</ele>
        <time>2022-06-19T06:16:35.670Z</time>
      </trkpt>
      <trkpt lat="43.224985" lon="-6.81401833">
        <ele>1038.0</ele>
        <time>2022-06-19T06:16:36.651Z</time>
      </trkpt>
      <trkpt lat="43.224985" lon="-6.81401833">
        <ele>1038.0</ele>
        <time>2022-06-19T06:16:37.652Z</time>
      </trkpt>
      <trkpt lat="43.22495" lon="-6.81414167">
        <ele>1038.0</ele>
        <time>2022-06-19T06:16:38.690Z</time>
      </trkpt>
      <trkpt lat="43.22493" lon="-6.81420333">
        <ele>1038.0</ele>
        <time>2022-06-19T06:16:39.649Z</time>
      </trkpt>
      <trkpt lat="43.22493" lon="-6.81420333">
        <ele>1038.0</ele>
        <time>2022-06-19T06:16:40.678Z</time>
      </trkpt>
      <trkpt lat="43.224895" lon="-6.814325">
        <ele>1038.0</ele>
        <time>2022-06-19T06:16:41.664Z</time>
      </trkpt>
      <trkpt lat="43.22487667" lon="-6.81438833">
        <ele>1038.0</ele>
        <time>2022-06-19T06:16:42.654Z</time>
      </trkpt>
      <trkpt lat="43.22487667" lon="-6.81438833">
        <ele>1038.0</ele>
        <time>2022-06-19T06:16:43.656Z</time>
      </trkpt>
      <trkpt lat="43.224835" lon="-6.81450333">
        <ele>1037.0</ele>
        <time>2022-06-19T06:16:44.685Z</time>
      </trkpt>
      <trkpt lat="43.224835" lon="-6.81450333">
        <ele>1037.0</ele>
        <time>2022-06-19T06:16:45.660Z</time>
      </trkpt>
      <trkpt lat="43.224795" lon="-6.81462167">
        <ele>1037.0</ele>
        <time>2022-06-19T06:16:46.687Z</time>
      </trkpt>
      <trkpt lat="43.224795" lon="-6.81462167">
        <ele>1037.0</ele>
        <time>2022-06-19T06:16:47.658Z</time>
      </trkpt>
      <trkpt lat="43.22476167" lon="-6.81473833">
        <ele>1037.0</ele>
        <time>2022-06-19T06:16:48.675Z</time>
      </trkpt>
      <trkpt lat="43.22474667" lon="-6.81479667">
        <ele>1037.0</ele>
        <time>2022-06-19T06:16:49.664Z</time>
      </trkpt>
      <trkpt lat="43.22474667" lon="-6.81479667">
        <ele>1037.0</ele>
        <time>2022-06-19T06:16:50.685Z</time>
      </trkpt>
      <trkpt lat="43.22471333" lon="-6.81491167">
        <ele>1037.0</ele>
        <time>2022-06-19T06:16:51.671Z</time>
      </trkpt>
      <trkpt lat="43.22471333" lon="-6.81491167">
        <ele>1037.0</ele>
        <time>2022-06-19T06:16:52.675Z</time>
      </trkpt>
      <trkpt lat="43.22467667" lon="-6.81502833">
        <ele>1037.0</ele>
        <time>2022-06-19T06:16:53.650Z</time>
      </trkpt>
      <trkpt lat="43.22465667" lon="-6.81508333">
        <ele>1037.0</ele>
        <time>2022-06-19T06:16:54.671Z</time>
      </trkpt>
      <trkpt lat="43.22465667" lon="-6.81508333">
        <ele>1037.0</ele>
        <time>2022-06-19T06:16:55.657Z</time>
      </trkpt>
      <trkpt lat="43.22461333" lon="-6.81519833">
        <ele>1037.0</ele>
        <time>2022-06-19T06:16:56.674Z</time>
      </trkpt>
      <trkpt lat="43.22461333" lon="-6.81519833">
        <ele>1037.0</ele>
        <time>2022-06-19T06:16:57.655Z</time>
      </trkpt>
      <trkpt lat="43.22456833" lon="-6.81532">
        <ele>1036.0</ele>
        <time>2022-06-19T06:16:58.674Z</time>
      </trkpt>
      <trkpt lat="43.224545" lon="-6.81537833">
        <ele>1036.0</ele>
        <time>2022-06-19T06:16:59.685Z</time>
      </trkpt>
      <trkpt lat="43.22452167" lon="-6.81543667">
        <ele>1036.0</ele>
        <time>2022-06-19T06:17:00.663Z</time>
      </trkpt>
      <trkpt lat="43.22452167" lon="-6.81543667">
        <ele>1036.0</ele>
        <time>2022-06-19T06:17:01.684Z</time>
      </trkpt>
      <trkpt lat="43.22447833" lon="-6.81555833">
        <ele>1036.0</ele>
        <time>2022-06-19T06:17:02.670Z</time>
      </trkpt>
      <trkpt lat="43.22447833" lon="-6.81555833">
        <ele>1036.0</ele>
        <time>2022-06-19T06:17:03.665Z</time>
      </trkpt>
      <trkpt lat="43.22443" lon="-6.81568833">
        <ele>1036.0</ele>
        <time>2022-06-19T06:17:04.651Z</time>
      </trkpt>
      <trkpt lat="43.22443" lon="-6.81568833">
        <ele>1036.0</ele>
        <time>2022-06-19T06:17:05.660Z</time>
      </trkpt>
      <trkpt lat="43.22437833" lon="-6.81581667">
        <ele>1035.0</ele>
        <time>2022-06-19T06:17:06.650Z</time>
      </trkpt>
      <trkpt lat="43.22437833" lon="-6.81581667">
        <ele>1035.0</ele>
        <time>2022-06-19T06:17:07.649Z</time>
      </trkpt>
      <trkpt lat="43.22432833" lon="-6.81594667">
        <ele>1035.0</ele>
        <time>2022-06-19T06:17:08.651Z</time>
      </trkpt>
      <trkpt lat="43.224305" lon="-6.81601">
        <ele>1035.0</ele>
        <time>2022-06-19T06:17:09.658Z</time>
      </trkpt>
      <trkpt lat="43.224305" lon="-6.81601">
        <ele>1035.0</ele>
        <time>2022-06-19T06:17:10.668Z</time>
      </trkpt>
      <trkpt lat="43.22425667" lon="-6.81613">
        <ele>1034.0</ele>
        <time>2022-06-19T06:17:11.662Z</time>
      </trkpt>
      <trkpt lat="43.22423" lon="-6.81618667">
        <ele>1034.0</ele>
        <time>2022-06-19T06:17:12.673Z</time>
      </trkpt>
      <trkpt lat="43.22423" lon="-6.81618667">
        <ele>1034.0</ele>
        <time>2022-06-19T06:17:13.689Z</time>
      </trkpt>
      <trkpt lat="43.22418167" lon="-6.81629667">
        <ele>1034.0</ele>
        <time>2022-06-19T06:17:14.677Z</time>
      </trkpt>
      <trkpt lat="43.22418167" lon="-6.81629667">
        <ele>1034.0</ele>
        <time>2022-06-19T06:17:15.665Z</time>
      </trkpt>
      <trkpt lat="43.224135" lon="-6.81641">
        <ele>1033.0</ele>
        <time>2022-06-19T06:17:16.657Z</time>
      </trkpt>
      <trkpt lat="43.224135" lon="-6.81641">
        <ele>1033.0</ele>
        <time>2022-06-19T06:17:17.673Z</time>
      </trkpt>
      <trkpt lat="43.22408833" lon="-6.81651833">
        <ele>1033.0</ele>
        <time>2022-06-19T06:17:18.658Z</time>
      </trkpt>
      <trkpt lat="43.22408833" lon="-6.81651833">
        <ele>1033.0</ele>
        <time>2022-06-19T06:17:19.664Z</time>
      </trkpt>
      <trkpt lat="43.22404833" lon="-6.816635">
        <ele>1032.0</ele>
        <time>2022-06-19T06:17:20.679Z</time>
      </trkpt>
      <trkpt lat="43.22403" lon="-6.81669833">
        <ele>1032.0</ele>
        <time>2022-06-19T06:17:21.684Z</time>
      </trkpt>
      <trkpt lat="43.22403" lon="-6.81669833">
        <ele>1032.0</ele>
        <time>2022-06-19T06:17:22.654Z</time>
      </trkpt>
      <trkpt lat="43.22401167" lon="-6.81684333">
        <ele>1031.0</ele>
        <time>2022-06-19T06:17:23.680Z</time>
      </trkpt>
      <trkpt lat="43.22401167" lon="-6.81684333">
        <ele>1031.0</ele>
        <time>2022-06-19T06:17:24.659Z</time>
      </trkpt>
      <trkpt lat="43.22403667" lon="-6.81702167">
        <ele>1030.0</ele>
        <time>2022-06-19T06:17:25.691Z</time>
      </trkpt>
      <trkpt lat="43.22406" lon="-6.81712167">
        <ele>1029.0</ele>
        <time>2022-06-19T06:17:26.683Z</time>
      </trkpt>
      <trkpt lat="43.22408167" lon="-6.817225">
        <ele>1028.0</ele>
        <time>2022-06-19T06:17:27.669Z</time>
      </trkpt>
      <trkpt lat="43.224105" lon="-6.81734">
        <ele>1027.0</ele>
        <time>2022-06-19T06:17:28.688Z</time>
      </trkpt>
      <trkpt lat="43.224105" lon="-6.81734">
        <ele>1027.0</ele>
        <time>2022-06-19T06:17:29.660Z</time>
      </trkpt>
      <trkpt lat="43.22415" lon="-6.81758667">
        <ele>1025.0</ele>
        <time>2022-06-19T06:17:30.692Z</time>
      </trkpt>
      <trkpt lat="43.22417333" lon="-6.81772">
        <ele>1024.0</ele>
        <time>2022-06-19T06:17:31.662Z</time>
      </trkpt>
      <trkpt lat="43.22417333" lon="-6.81772">
        <ele>1024.0</ele>
        <time>2022-06-19T06:17:32.667Z</time>
      </trkpt>
      <trkpt lat="43.22422333" lon="-6.81799833">
        <ele>1021.0</ele>
        <time>2022-06-19T06:17:33.695Z</time>
      </trkpt>
      <trkpt lat="43.22422333" lon="-6.81799833">
        <ele>1021.0</ele>
        <time>2022-06-19T06:17:34.683Z</time>
      </trkpt>
      <trkpt lat="43.22426667" lon="-6.818275">
        <ele>1018.0</ele>
        <time>2022-06-19T06:17:35.660Z</time>
      </trkpt>
      <trkpt lat="43.22429167" lon="-6.81841">
        <ele>1017.0</ele>
        <time>2022-06-19T06:17:36.685Z</time>
      </trkpt>
      <trkpt lat="43.22429167" lon="-6.81841">
        <ele>1017.0</ele>
        <time>2022-06-19T06:17:37.666Z</time>
      </trkpt>
      <trkpt lat="43.22434667" lon="-6.81870167">
        <ele>1014.0</ele>
        <time>2022-06-19T06:17:38.686Z</time>
      </trkpt>
      <trkpt lat="43.22434667" lon="-6.81870167">
        <ele>1014.0</ele>
        <time>2022-06-19T06:17:39.658Z</time>
      </trkpt>
      <trkpt lat="43.22440833" lon="-6.81901167">
        <ele>1010.0</ele>
        <time>2022-06-19T06:17:40.676Z</time>
      </trkpt>
      <trkpt lat="43.22440833" lon="-6.81901167">
        <ele>1010.0</ele>
        <time>2022-06-19T06:17:41.658Z</time>
      </trkpt>
      <trkpt lat="43.22451833" lon="-6.81929333">
        <ele>1007.0</ele>
        <time>2022-06-19T06:17:42.673Z</time>
      </trkpt>
      <trkpt lat="43.22451833" lon="-6.81929333">
        <ele>1007.0</ele>
        <time>2022-06-19T06:17:43.658Z</time>
      </trkpt>
      <trkpt lat="43.22466667" lon="-6.81953">
        <ele>1004.0</ele>
        <time>2022-06-19T06:17:44.687Z</time>
      </trkpt>
      <trkpt lat="43.22466667" lon="-6.81953">
        <ele>1004.0</ele>
        <time>2022-06-19T06:17:45.666Z</time>
      </trkpt>
      <trkpt lat="43.22479167" lon="-6.81972333">
        <ele>1002.0</ele>
        <time>2022-06-19T06:17:46.662Z</time>
      </trkpt>
      <trkpt lat="43.22482667" lon="-6.819795">
        <ele>1001.0</ele>
        <time>2022-06-19T06:17:47.682Z</time>
      </trkpt>
      <trkpt lat="43.22482667" lon="-6.819795">
        <ele>1001.0</ele>
        <time>2022-06-19T06:17:48.660Z</time>
      </trkpt>
      <trkpt lat="43.22485667" lon="-6.81991">
        <ele>1000.0</ele>
        <time>2022-06-19T06:17:49.655Z</time>
      </trkpt>
      <trkpt lat="43.22485667" lon="-6.81991">
        <ele>1000.0</ele>
        <time>2022-06-19T06:17:50.678Z</time>
      </trkpt>
      <trkpt lat="43.22488667" lon="-6.82001667">
        <ele>999.0</ele>
        <time>2022-06-19T06:17:51.665Z</time>
      </trkpt>
      <trkpt lat="43.22490333" lon="-6.82007">
        <ele>998.0</ele>
        <time>2022-06-19T06:17:52.664Z</time>
      </trkpt>
      <trkpt lat="43.22490333" lon="-6.82007">
        <ele>998.0</ele>
        <time>2022-06-19T06:17:53.671Z</time>
      </trkpt>
      <trkpt lat="43.22494667" lon="-6.82018">
        <ele>997.0</ele>
        <time>2022-06-19T06:17:54.655Z</time>
      </trkpt>
      <trkpt lat="43.22494667" lon="-6.82018">
        <ele>997.0</ele>
        <time>2022-06-19T06:17:55.677Z</time>
      </trkpt>
      <trkpt lat="43.22500833" lon="-6.82030333">
        <ele>996.0</ele>
        <time>2022-06-19T06:17:56.659Z</time>
      </trkpt>
      <trkpt lat="43.22500833" lon="-6.82030333">
        <ele>996.0</ele>
        <time>2022-06-19T06:17:57.676Z</time>
      </trkpt>
      <trkpt lat="43.22505667" lon="-6.82042833">
        <ele>994.0</ele>
        <time>2022-06-19T06:17:58.653Z</time>
      </trkpt>
      <trkpt lat="43.22505667" lon="-6.82042833">
        <ele>994.0</ele>
        <time>2022-06-19T06:17:59.676Z</time>
      </trkpt>
      <trkpt lat="43.22508667" lon="-6.820555">
        <ele>992.0</ele>
        <time>2022-06-19T06:18:00.659Z</time>
      </trkpt>
      <trkpt lat="43.22508667" lon="-6.820555">
        <ele>992.0</ele>
        <time>2022-06-19T06:18:01.668Z</time>
      </trkpt>
      <trkpt lat="43.225095" lon="-6.82067">
        <ele>991.0</ele>
        <time>2022-06-19T06:18:02.687Z</time>
      </trkpt>
      <trkpt lat="43.225095" lon="-6.82067">
        <ele>991.0</ele>
        <time>2022-06-19T06:18:03.650Z</time>
      </trkpt>
      <trkpt lat="43.22508833" lon="-6.820755">
        <ele>990.0</ele>
        <time>2022-06-19T06:18:04.665Z</time>
      </trkpt>
      <trkpt lat="43.22508833" lon="-6.820755">
        <ele>990.0</ele>
        <time>2022-06-19T06:18:05.678Z</time>
      </trkpt>
      <trkpt lat="43.22509667" lon="-6.820845">
        <ele>989.0</ele>
        <time>2022-06-19T06:18:06.665Z</time>
      </trkpt>
      <trkpt lat="43.22509667" lon="-6.820845">
        <ele>989.0</ele>
        <time>2022-06-19T06:18:07.674Z</time>
      </trkpt>
      <trkpt lat="43.22510333" lon="-6.82093667">
        <ele>989.0</ele>
        <time>2022-06-19T06:18:08.664Z</time>
      </trkpt>
      <trkpt lat="43.22510333" lon="-6.82093667">
        <ele>989.0</ele>
        <time>2022-06-19T06:18:09.659Z</time>
      </trkpt>
      <trkpt lat="43.22509667" lon="-6.82101333">
        <ele>988.0</ele>
        <time>2022-06-19T06:18:10.682Z</time>
      </trkpt>
      <trkpt lat="43.22509667" lon="-6.82101333">
        <ele>988.0</ele>
        <time>2022-06-19T06:18:11.652Z</time>
      </trkpt>
      <trkpt lat="43.22508333" lon="-6.821075">
        <ele>987.0</ele>
        <time>2022-06-19T06:18:12.670Z</time>
      </trkpt>
      <trkpt lat="43.225075" lon="-6.82110167">
        <ele>987.0</ele>
        <time>2022-06-19T06:18:13.658Z</time>
      </trkpt>
      <trkpt lat="43.225075" lon="-6.82110167">
        <ele>987.0</ele>
        <time>2022-06-19T06:18:14.668Z</time>
      </trkpt>
      <trkpt lat="43.22506667" lon="-6.82112667">
        <ele>986.0</ele>
        <time>2022-06-19T06:18:15.662Z</time>
      </trkpt>
      <trkpt lat="43.225065" lon="-6.821125">
        <ele>987.0</ele>
        <time>2022-06-19T06:18:16.662Z</time>
      </trkpt>
      <trkpt lat="43.225065" lon="-6.821125">
        <ele>987.0</ele>
        <time>2022-06-19T06:18:17.656Z</time>
      </trkpt>
      <trkpt lat="43.22505167" lon="-6.821145">
        <ele>987.0</ele>
        <time>2022-06-19T06:18:18.652Z</time>
      </trkpt>
      <trkpt lat="43.22504667" lon="-6.82115667">
        <ele>987.0</ele>
        <time>2022-06-19T06:18:19.670Z</time>
      </trkpt>
      <trkpt lat="43.22504667" lon="-6.82115667">
        <ele>987.0</ele>
        <time>2022-06-19T06:18:20.685Z</time>
      </trkpt>
      <trkpt lat="43.22504" lon="-6.82118167">
        <ele>987.0</ele>
        <time>2022-06-19T06:18:21.665Z</time>
      </trkpt>
      <trkpt lat="43.22503833" lon="-6.821195">
        <ele>987.0</ele>
        <time>2022-06-19T06:18:22.662Z</time>
      </trkpt>
      <trkpt lat="43.22503833" lon="-6.821195">
        <ele>987.0</ele>
        <time>2022-06-19T06:18:23.687Z</time>
      </trkpt>
      <trkpt lat="43.22503833" lon="-6.82121667">
        <ele>987.0</ele>
        <time>2022-06-19T06:18:24.688Z</time>
      </trkpt>
      <trkpt lat="43.22503667" lon="-6.82122667">
        <ele>987.0</ele>
        <time>2022-06-19T06:18:25.691Z</time>
      </trkpt>
      <trkpt lat="43.22503667" lon="-6.82122667">
        <ele>987.0</ele>
        <time>2022-06-19T06:18:26.657Z</time>
      </trkpt>
      <trkpt lat="43.22503167" lon="-6.82126333">
        <ele>987.0</ele>
        <time>2022-06-19T06:18:27.675Z</time>
      </trkpt>
      <trkpt lat="43.22503167" lon="-6.82126333">
        <ele>987.0</ele>
        <time>2022-06-19T06:18:28.656Z</time>
      </trkpt>
      <trkpt lat="43.22502667" lon="-6.821325">
        <ele>986.0</ele>
        <time>2022-06-19T06:18:29.679Z</time>
      </trkpt>
      <trkpt lat="43.225025" lon="-6.82135667">
        <ele>986.0</ele>
        <time>2022-06-19T06:18:30.656Z</time>
      </trkpt>
      <trkpt lat="43.225025" lon="-6.82135667">
        <ele>986.0</ele>
        <time>2022-06-19T06:18:31.688Z</time>
      </trkpt>
      <trkpt lat="43.225015" lon="-6.82142167">
        <ele>986.0</ele>
        <time>2022-06-19T06:18:32.678Z</time>
      </trkpt>
      <trkpt lat="43.225015" lon="-6.82142167">
        <ele>986.0</ele>
        <time>2022-06-19T06:18:33.659Z</time>
      </trkpt>
      <trkpt lat="43.22500833" lon="-6.8215">
        <ele>986.0</ele>
        <time>2022-06-19T06:18:34.687Z</time>
      </trkpt>
      <trkpt lat="43.22500833" lon="-6.8215">
        <ele>986.0</ele>
        <time>2022-06-19T06:18:35.659Z</time>
      </trkpt>
      <trkpt lat="43.22499333" lon="-6.821575">
        <ele>986.0</ele>
        <time>2022-06-19T06:18:36.658Z</time>
      </trkpt>
      <trkpt lat="43.22499333" lon="-6.821575">
        <ele>986.0</ele>
        <time>2022-06-19T06:18:37.672Z</time>
      </trkpt>
      <trkpt lat="43.22496667" lon="-6.82163333">
        <ele>985.0</ele>
        <time>2022-06-19T06:18:38.668Z</time>
      </trkpt>
      <trkpt lat="43.22496667" lon="-6.82163333">
        <ele>985.0</ele>
        <time>2022-06-19T06:18:39.680Z</time>
      </trkpt>
      <trkpt lat="43.22493167" lon="-6.821685">
        <ele>985.0</ele>
        <time>2022-06-19T06:18:40.688Z</time>
      </trkpt>
      <trkpt lat="43.22493167" lon="-6.821685">
        <ele>985.0</ele>
        <time>2022-06-19T06:18:41.660Z</time>
      </trkpt>
      <trkpt lat="43.22489" lon="-6.82174833">
        <ele>985.0</ele>
        <time>2022-06-19T06:18:42.681Z</time>
      </trkpt>
      <trkpt lat="43.22489" lon="-6.82174833">
        <ele>985.0</ele>
        <time>2022-06-19T06:18:43.658Z</time>
      </trkpt>
      <trkpt lat="43.22485333" lon="-6.82183333">
        <ele>985.0</ele>
        <time>2022-06-19T06:18:44.679Z</time>
      </trkpt>
      <trkpt lat="43.22484" lon="-6.82187833">
        <ele>985.0</ele>
        <time>2022-06-19T06:18:45.678Z</time>
      </trkpt>
      <trkpt lat="43.22484" lon="-6.82187833">
        <ele>985.0</ele>
        <time>2022-06-19T06:18:46.650Z</time>
      </trkpt>
      <trkpt lat="43.22482167" lon="-6.821965">
        <ele>984.0</ele>
        <time>2022-06-19T06:18:47.682Z</time>
      </trkpt>
      <trkpt lat="43.22481333" lon="-6.82198833">
        <ele>985.0</ele>
        <time>2022-06-19T06:18:48.658Z</time>
      </trkpt>
      <trkpt lat="43.22481333" lon="-6.82198833">
        <ele>985.0</ele>
        <time>2022-06-19T06:18:49.670Z</time>
      </trkpt>
      <trkpt lat="43.22480833" lon="-6.82199333">
        <ele>984.0</ele>
        <time>2022-06-19T06:18:50.676Z</time>
      </trkpt>
      <trkpt lat="43.22480833" lon="-6.82199333">
        <ele>984.0</ele>
        <time>2022-06-19T06:19:18.669Z</time>
      </trkpt>
      <trkpt lat="43.22480833" lon="-6.82199333">
        <ele>984.0</ele>
        <time>2022-06-19T06:19:19.667Z</time>
      </trkpt>
      <trkpt lat="43.22479" lon="-6.82210833">
        <ele>981.0</ele>
        <time>2022-06-19T06:19:20.676Z</time>
      </trkpt>
      <trkpt lat="43.22479" lon="-6.82210833">
        <ele>981.0</ele>
        <time>2022-06-19T06:19:21.674Z</time>
      </trkpt>
      <trkpt lat="43.224795" lon="-6.82219667">
        <ele>981.0</ele>
        <time>2022-06-19T06:19:22.689Z</time>
      </trkpt>
      <trkpt lat="43.224795" lon="-6.82219667">
        <ele>981.0</ele>
        <time>2022-06-19T06:19:23.679Z</time>
      </trkpt>
      <trkpt lat="43.224805" lon="-6.82229667">
        <ele>981.0</ele>
        <time>2022-06-19T06:19:24.684Z</time>
      </trkpt>
      <trkpt lat="43.224815" lon="-6.82234667">
        <ele>981.0</ele>
        <time>2022-06-19T06:19:25.677Z</time>
      </trkpt>
      <trkpt lat="43.224815" lon="-6.82234667">
        <ele>981.0</ele>
        <time>2022-06-19T06:19:26.685Z</time>
      </trkpt>
      <trkpt lat="43.22482833" lon="-6.82245">
        <ele>980.0</ele>
        <time>2022-06-19T06:19:27.667Z</time>
      </trkpt>
      <trkpt lat="43.22483667" lon="-6.82250167">
        <ele>981.0</ele>
        <time>2022-06-19T06:19:28.676Z</time>
      </trkpt>
      <trkpt lat="43.22483667" lon="-6.82250167">
        <ele>981.0</ele>
        <time>2022-06-19T06:19:29.659Z</time>
      </trkpt>
      <trkpt lat="43.22485" lon="-6.82261167">
        <ele>980.0</ele>
        <time>2022-06-19T06:19:30.674Z</time>
      </trkpt>
      <trkpt lat="43.22485" lon="-6.82261167">
        <ele>980.0</ele>
        <time>2022-06-19T06:19:31.678Z</time>
      </trkpt>
      <trkpt lat="43.22486667" lon="-6.82271667">
        <ele>980.0</ele>
        <time>2022-06-19T06:19:32.665Z</time>
      </trkpt>
      <trkpt lat="43.224875" lon="-6.82276333">
        <ele>979.0</ele>
        <time>2022-06-19T06:19:33.671Z</time>
      </trkpt>
      <trkpt lat="43.224875" lon="-6.82276333">
        <ele>979.0</ele>
        <time>2022-06-19T06:19:34.687Z</time>
      </trkpt>
      <trkpt lat="43.22489333" lon="-6.82283167">
        <ele>979.0</ele>
        <time>2022-06-19T06:19:35.657Z</time>
      </trkpt>
      <trkpt lat="43.22490667" lon="-6.82285333">
        <ele>979.0</ele>
        <time>2022-06-19T06:19:36.675Z</time>
      </trkpt>
      <trkpt lat="43.22490667" lon="-6.82285333">
        <ele>979.0</ele>
        <time>2022-06-19T06:19:37.671Z</time>
      </trkpt>
      <trkpt lat="43.22492833" lon="-6.82289">
        <ele>979.0</ele>
        <time>2022-06-19T06:19:38.692Z</time>
      </trkpt>
      <trkpt lat="43.22492833" lon="-6.82289">
        <ele>979.0</ele>
        <time>2022-06-19T06:19:39.683Z</time>
      </trkpt>
      <trkpt lat="43.224945" lon="-6.82291333">
        <ele>978.0</ele>
        <time>2022-06-19T06:19:40.659Z</time>
      </trkpt>
      <trkpt lat="43.224945" lon="-6.82291333">
        <ele>978.0</ele>
        <time>2022-06-19T06:19:41.667Z</time>
      </trkpt>
      <trkpt lat="43.22495833" lon="-6.82294">
        <ele>978.0</ele>
        <time>2022-06-19T06:19:42.694Z</time>
      </trkpt>
      <trkpt lat="43.22495833" lon="-6.82294">
        <ele>978.0</ele>
        <time>2022-06-19T06:19:43.663Z</time>
      </trkpt>
      <trkpt lat="43.22497" lon="-6.82296667">
        <ele>978.0</ele>
        <time>2022-06-19T06:19:44.681Z</time>
      </trkpt>
      <trkpt lat="43.22497" lon="-6.82296667">
        <ele>978.0</ele>
        <time>2022-06-19T06:19:45.670Z</time>
      </trkpt>
      <trkpt lat="43.22499" lon="-6.82301">
        <ele>977.0</ele>
        <time>2022-06-19T06:19:46.655Z</time>
      </trkpt>
      <trkpt lat="43.22499" lon="-6.82301">
        <ele>977.0</ele>
        <time>2022-06-19T06:19:47.677Z</time>
      </trkpt>
      <trkpt lat="43.22500833" lon="-6.823075">
        <ele>977.0</ele>
        <time>2022-06-19T06:19:48.681Z</time>
      </trkpt>
      <trkpt lat="43.22500833" lon="-6.823075">
        <ele>977.0</ele>
        <time>2022-06-19T06:19:49.687Z</time>
      </trkpt>
      <trkpt lat="43.22502167" lon="-6.82316333">
        <ele>977.0</ele>
        <time>2022-06-19T06:19:50.669Z</time>
      </trkpt>
      <trkpt lat="43.22502167" lon="-6.82316333">
        <ele>977.0</ele>
        <time>2022-06-19T06:19:51.678Z</time>
      </trkpt>
      <trkpt lat="43.22504167" lon="-6.82325">
        <ele>977.0</ele>
        <time>2022-06-19T06:19:52.657Z</time>
      </trkpt>
      <trkpt lat="43.22504667" lon="-6.82329">
        <ele>977.0</ele>
        <time>2022-06-19T06:19:53.698Z</time>
      </trkpt>
      <trkpt lat="43.22504667" lon="-6.82333333">
        <ele>976.0</ele>
        <time>2022-06-19T06:19:54.654Z</time>
      </trkpt>
      <trkpt lat="43.22504667" lon="-6.82333333">
        <ele>976.0</ele>
        <time>2022-06-19T06:19:55.685Z</time>
      </trkpt>
      <trkpt lat="43.225025" lon="-6.82341667">
        <ele>975.0</ele>
        <time>2022-06-19T06:19:56.676Z</time>
      </trkpt>
      <trkpt lat="43.22500167" lon="-6.82345167">
        <ele>975.0</ele>
        <time>2022-06-19T06:19:57.696Z</time>
      </trkpt>
      <trkpt lat="43.22500167" lon="-6.82345167">
        <ele>975.0</ele>
        <time>2022-06-19T06:19:58.676Z</time>
      </trkpt>
      <trkpt lat="43.22495333" lon="-6.82352">
        <ele>974.0</ele>
        <time>2022-06-19T06:19:59.664Z</time>
      </trkpt>
      <trkpt lat="43.22492667" lon="-6.82355667">
        <ele>973.0</ele>
        <time>2022-06-19T06:20:00.672Z</time>
      </trkpt>
      <trkpt lat="43.22492667" lon="-6.82355667">
        <ele>973.0</ele>
        <time>2022-06-19T06:20:01.693Z</time>
      </trkpt>
      <trkpt lat="43.22486" lon="-6.82361333">
        <ele>972.0</ele>
        <time>2022-06-19T06:20:02.669Z</time>
      </trkpt>
      <trkpt lat="43.22486" lon="-6.82361333">
        <ele>972.0</ele>
        <time>2022-06-19T06:20:03.686Z</time>
      </trkpt>
      <trkpt lat="43.224785" lon="-6.82367">
        <ele>971.0</ele>
        <time>2022-06-19T06:20:04.668Z</time>
      </trkpt>
      <trkpt lat="43.224785" lon="-6.82367">
        <ele>971.0</ele>
        <time>2022-06-19T06:20:05.666Z</time>
      </trkpt>
      <trkpt lat="43.22471" lon="-6.823705">
        <ele>969.0</ele>
        <time>2022-06-19T06:20:06.657Z</time>
      </trkpt>
      <trkpt lat="43.22468" lon="-6.82372167">
        <ele>969.0</ele>
        <time>2022-06-19T06:20:07.665Z</time>
      </trkpt>
      <trkpt lat="43.22468" lon="-6.82372167">
        <ele>969.0</ele>
        <time>2022-06-19T06:20:08.681Z</time>
      </trkpt>
      <trkpt lat="43.22461833" lon="-6.82375">
        <ele>967.0</ele>
        <time>2022-06-19T06:20:09.664Z</time>
      </trkpt>
      <trkpt lat="43.22461833" lon="-6.82375">
        <ele>967.0</ele>
        <time>2022-06-19T06:20:10.690Z</time>
      </trkpt>
      <trkpt lat="43.224555" lon="-6.82379333">
        <ele>966.0</ele>
        <time>2022-06-19T06:20:11.674Z</time>
      </trkpt>
      <trkpt lat="43.22452" lon="-6.82381167">
        <ele>966.0</ele>
        <time>2022-06-19T06:20:12.675Z</time>
      </trkpt>
      <trkpt lat="43.22452" lon="-6.82381167">
        <ele>966.0</ele>
        <time>2022-06-19T06:20:13.682Z</time>
      </trkpt>
      <trkpt lat="43.22445833" lon="-6.82385167">
        <ele>965.0</ele>
        <time>2022-06-19T06:20:14.666Z</time>
      </trkpt>
      <trkpt lat="43.224425" lon="-6.82387333">
        <ele>964.0</ele>
        <time>2022-06-19T06:20:15.656Z</time>
      </trkpt>
      <trkpt lat="43.224425" lon="-6.82387333">
        <ele>964.0</ele>
        <time>2022-06-19T06:20:16.679Z</time>
      </trkpt>
      <trkpt lat="43.224365" lon="-6.82392333">
        <ele>962.0</ele>
        <time>2022-06-19T06:20:17.664Z</time>
      </trkpt>
      <trkpt lat="43.22434167" lon="-6.82395667">
        <ele>962.0</ele>
        <time>2022-06-19T06:20:18.654Z</time>
      </trkpt>
      <trkpt lat="43.224325" lon="-6.82399667">
        <ele>962.0</ele>
        <time>2022-06-19T06:20:19.699Z</time>
      </trkpt>
      <trkpt lat="43.224325" lon="-6.82399667">
        <ele>962.0</ele>
        <time>2022-06-19T06:20:20.684Z</time>
      </trkpt>
      <trkpt lat="43.22432" lon="-6.8241">
        <ele>961.0</ele>
        <time>2022-06-19T06:20:21.672Z</time>
      </trkpt>
      <trkpt lat="43.224325" lon="-6.824155">
        <ele>960.0</ele>
        <time>2022-06-19T06:20:22.654Z</time>
      </trkpt>
      <trkpt lat="43.224325" lon="-6.824155">
        <ele>960.0</ele>
        <time>2022-06-19T06:20:23.664Z</time>
      </trkpt>
      <trkpt lat="43.22436333" lon="-6.82425667">
        <ele>959.0</ele>
        <time>2022-06-19T06:20:24.682Z</time>
      </trkpt>
      <trkpt lat="43.22436333" lon="-6.82425667">
        <ele>959.0</ele>
        <time>2022-06-19T06:20:25.663Z</time>
      </trkpt>
      <trkpt lat="43.22441167" lon="-6.82436333">
        <ele>958.0</ele>
        <time>2022-06-19T06:20:26.696Z</time>
      </trkpt>
      <trkpt lat="43.22443333" lon="-6.82441333">
        <ele>957.0</ele>
        <time>2022-06-19T06:20:27.688Z</time>
      </trkpt>
      <trkpt lat="43.22445333" lon="-6.82446167">
        <ele>956.0</ele>
        <time>2022-06-19T06:20:28.692Z</time>
      </trkpt>
      <trkpt lat="43.22445333" lon="-6.82446167">
        <ele>956.0</ele>
        <time>2022-06-19T06:20:29.683Z</time>
      </trkpt>
      <trkpt lat="43.224485" lon="-6.82453833">
        <ele>955.0</ele>
        <time>2022-06-19T06:20:30.662Z</time>
      </trkpt>
      <trkpt lat="43.224485" lon="-6.82453833">
        <ele>955.0</ele>
        <time>2022-06-19T06:20:31.672Z</time>
      </trkpt>
      <trkpt lat="43.22453167" lon="-6.82459333">
        <ele>953.0</ele>
        <time>2022-06-19T06:20:32.668Z</time>
      </trkpt>
      <trkpt lat="43.22453167" lon="-6.82459333">
        <ele>953.0</ele>
        <time>2022-06-19T06:20:33.681Z</time>
      </trkpt>
      <trkpt lat="43.22459333" lon="-6.82464333">
        <ele>952.0</ele>
        <time>2022-06-19T06:20:34.660Z</time>
      </trkpt>
      <trkpt lat="43.22459333" lon="-6.82464333">
        <ele>952.0</ele>
        <time>2022-06-19T06:20:35.671Z</time>
      </trkpt>
      <trkpt lat="43.22465833" lon="-6.82470667">
        <ele>950.0</ele>
        <time>2022-06-19T06:20:36.663Z</time>
      </trkpt>
      <trkpt lat="43.22465833" lon="-6.82470667">
        <ele>950.0</ele>
        <time>2022-06-19T06:20:37.677Z</time>
      </trkpt>
      <trkpt lat="43.22472833" lon="-6.824775">
        <ele>949.0</ele>
        <time>2022-06-19T06:20:38.656Z</time>
      </trkpt>
      <trkpt lat="43.22476167" lon="-6.82481833">
        <ele>949.0</ele>
        <time>2022-06-19T06:20:39.657Z</time>
      </trkpt>
      <trkpt lat="43.22476167" lon="-6.82481833">
        <ele>949.0</ele>
        <time>2022-06-19T06:20:40.674Z</time>
      </trkpt>
      <trkpt lat="43.22480667" lon="-6.82491833">
        <ele>947.0</ele>
        <time>2022-06-19T06:20:41.667Z</time>
      </trkpt>
      <trkpt lat="43.224815" lon="-6.82497333">
        <ele>946.0</ele>
        <time>2022-06-19T06:20:42.658Z</time>
      </trkpt>
      <trkpt lat="43.224815" lon="-6.82497333">
        <ele>946.0</ele>
        <time>2022-06-19T06:20:43.678Z</time>
      </trkpt>
      <trkpt lat="43.224825" lon="-6.82507667">
        <ele>945.0</ele>
        <time>2022-06-19T06:20:44.662Z</time>
      </trkpt>
      <trkpt lat="43.224825" lon="-6.82507667">
        <ele>945.0</ele>
        <time>2022-06-19T06:20:45.659Z</time>
      </trkpt>
      <trkpt lat="43.22484667" lon="-6.82515333">
        <ele>944.0</ele>
        <time>2022-06-19T06:20:46.675Z</time>
      </trkpt>
      <trkpt lat="43.22486333" lon="-6.825195">
        <ele>943.0</ele>
        <time>2022-06-19T06:20:47.658Z</time>
      </trkpt>
      <trkpt lat="43.22486333" lon="-6.825195">
        <ele>943.0</ele>
        <time>2022-06-19T06:20:48.674Z</time>
      </trkpt>
      <trkpt lat="43.22490167" lon="-6.82527167">
        <ele>942.0</ele>
        <time>2022-06-19T06:20:49.687Z</time>
      </trkpt>
      <trkpt lat="43.22490167" lon="-6.82527167">
        <ele>942.0</ele>
        <time>2022-06-19T06:20:50.659Z</time>
      </trkpt>
      <trkpt lat="43.22493833" lon="-6.82534333">
        <ele>941.0</ele>
        <time>2022-06-19T06:20:51.685Z</time>
      </trkpt>
      <trkpt lat="43.22493833" lon="-6.82534333">
        <ele>941.0</ele>
        <time>2022-06-19T06:20:52.693Z</time>
      </trkpt>
      <trkpt lat="43.22498667" lon="-6.82543167">
        <ele>939.0</ele>
        <time>2022-06-19T06:20:53.677Z</time>
      </trkpt>
      <trkpt lat="43.22498667" lon="-6.82543167">
        <ele>939.0</ele>
        <time>2022-06-19T06:20:54.673Z</time>
      </trkpt>
      <trkpt lat="43.22503333" lon="-6.82551167">
        <ele>937.0</ele>
        <time>2022-06-19T06:20:55.699Z</time>
      </trkpt>
      <trkpt lat="43.22505333" lon="-6.82554833">
        <ele>936.0</ele>
        <time>2022-06-19T06:20:56.682Z</time>
      </trkpt>
      <trkpt lat="43.22507333" lon="-6.82558333">
        <ele>935.0</ele>
        <time>2022-06-19T06:20:57.679Z</time>
      </trkpt>
      <trkpt lat="43.22507333" lon="-6.82558333">
        <ele>935.0</ele>
        <time>2022-06-19T06:20:58.688Z</time>
      </trkpt>
      <trkpt lat="43.22511167" lon="-6.82565">
        <ele>934.0</ele>
        <time>2022-06-19T06:20:59.675Z</time>
      </trkpt>
      <trkpt lat="43.22511167" lon="-6.82565">
        <ele>934.0</ele>
        <time>2022-06-19T06:21:00.682Z</time>
      </trkpt>
      <trkpt lat="43.22514333" lon="-6.825725">
        <ele>932.0</ele>
        <time>2022-06-19T06:21:01.679Z</time>
      </trkpt>
      <trkpt lat="43.225155" lon="-6.82576167">
        <ele>931.0</ele>
        <time>2022-06-19T06:21:02.665Z</time>
      </trkpt>
      <trkpt lat="43.22516833" lon="-6.82579167">
        <ele>930.0</ele>
        <time>2022-06-19T06:21:03.691Z</time>
      </trkpt>
      <trkpt lat="43.22516833" lon="-6.82579167">
        <ele>930.0</ele>
        <time>2022-06-19T06:21:04.667Z</time>
      </trkpt>
      <trkpt lat="43.22521" lon="-6.82585167">
        <ele>928.0</ele>
        <time>2022-06-19T06:21:05.666Z</time>
      </trkpt>
      <trkpt lat="43.22521" lon="-6.82585167">
        <ele>928.0</ele>
        <time>2022-06-19T06:21:06.660Z</time>
      </trkpt>
      <trkpt lat="43.22525333" lon="-6.82593333">
        <ele>927.0</ele>
        <time>2022-06-19T06:21:07.685Z</time>
      </trkpt>
      <trkpt lat="43.22525333" lon="-6.82593333">
        <ele>927.0</ele>
        <time>2022-06-19T06:21:08.661Z</time>
      </trkpt>
      <trkpt lat="43.22529667" lon="-6.82599333">
        <ele>926.0</ele>
        <time>2022-06-19T06:21:09.694Z</time>
      </trkpt>
      <trkpt lat="43.22529667" lon="-6.82599333">
        <ele>926.0</ele>
        <time>2022-06-19T06:21:10.665Z</time>
      </trkpt>
      <trkpt lat="43.22533167" lon="-6.82606833">
        <ele>924.0</ele>
        <time>2022-06-19T06:21:11.694Z</time>
      </trkpt>
      <trkpt lat="43.225345" lon="-6.82610333">
        <ele>924.0</ele>
        <time>2022-06-19T06:21:12.676Z</time>
      </trkpt>
      <trkpt lat="43.22536167" lon="-6.82614">
        <ele>923.0</ele>
        <time>2022-06-19T06:21:13.657Z</time>
      </trkpt>
      <trkpt lat="43.22536167" lon="-6.82614">
        <ele>923.0</ele>
        <time>2022-06-19T06:21:14.684Z</time>
      </trkpt>
      <trkpt lat="43.22540167" lon="-6.82620333">
        <ele>922.0</ele>
        <time>2022-06-19T06:21:15.685Z</time>
      </trkpt>
      <trkpt lat="43.22541667" lon="-6.826235">
        <ele>921.0</ele>
        <time>2022-06-19T06:21:16.688Z</time>
      </trkpt>
      <trkpt lat="43.22541667" lon="-6.826235">
        <ele>921.0</ele>
        <time>2022-06-19T06:21:17.664Z</time>
      </trkpt>
      <trkpt lat="43.22544833" lon="-6.82629333">
        <ele>920.0</ele>
        <time>2022-06-19T06:21:18.688Z</time>
      </trkpt>
      <trkpt lat="43.225465" lon="-6.82632167">
        <ele>920.0</ele>
        <time>2022-06-19T06:21:19.665Z</time>
      </trkpt>
      <trkpt lat="43.225465" lon="-6.82632167">
        <ele>920.0</ele>
        <time>2022-06-19T06:21:20.674Z</time>
      </trkpt>
      <trkpt lat="43.22547833" lon="-6.82637667">
        <ele>919.0</ele>
        <time>2022-06-19T06:21:21.677Z</time>
      </trkpt>
      <trkpt lat="43.22547667" lon="-6.82639">
        <ele>919.0</ele>
        <time>2022-06-19T06:21:22.694Z</time>
      </trkpt>
      <trkpt lat="43.22547333" lon="-6.82640333">
        <ele>918.0</ele>
        <time>2022-06-19T06:21:23.667Z</time>
      </trkpt>
      <trkpt lat="43.22547333" lon="-6.82640333">
        <ele>918.0</ele>
        <time>2022-06-19T06:21:24.677Z</time>
      </trkpt>
      <trkpt lat="43.22545333" lon="-6.82644">
        <ele>917.0</ele>
        <time>2022-06-19T06:21:25.664Z</time>
      </trkpt>
      <trkpt lat="43.22545333" lon="-6.82644">
        <ele>917.0</ele>
        <time>2022-06-19T06:21:26.686Z</time>
      </trkpt>
      <trkpt lat="43.22541833" lon="-6.82646167">
        <ele>917.0</ele>
        <time>2022-06-19T06:21:27.666Z</time>
      </trkpt>
      <trkpt lat="43.22539667" lon="-6.826475">
        <ele>916.0</ele>
        <time>2022-06-19T06:21:28.667Z</time>
      </trkpt>
      <trkpt lat="43.22539667" lon="-6.826475">
        <ele>916.0</ele>
        <time>2022-06-19T06:21:29.686Z</time>
      </trkpt>
      <trkpt lat="43.22535167" lon="-6.82652333">
        <ele>915.0</ele>
        <time>2022-06-19T06:21:30.669Z</time>
      </trkpt>
      <trkpt lat="43.22535167" lon="-6.82652333">
        <ele>915.0</ele>
        <time>2022-06-19T06:21:31.667Z</time>
      </trkpt>
      <trkpt lat="43.2253" lon="-6.82656833">
        <ele>914.0</ele>
        <time>2022-06-19T06:21:32.683Z</time>
      </trkpt>
      <trkpt lat="43.2253" lon="-6.82656833">
        <ele>914.0</ele>
        <time>2022-06-19T06:21:33.673Z</time>
      </trkpt>
      <trkpt lat="43.22525667" lon="-6.82661333">
        <ele>913.0</ele>
        <time>2022-06-19T06:21:34.658Z</time>
      </trkpt>
      <trkpt lat="43.225235" lon="-6.82663333">
        <ele>913.0</ele>
        <time>2022-06-19T06:21:35.654Z</time>
      </trkpt>
      <trkpt lat="43.225235" lon="-6.82663333">
        <ele>913.0</ele>
        <time>2022-06-19T06:21:36.658Z</time>
      </trkpt>
      <trkpt lat="43.225195" lon="-6.82668333">
        <ele>912.0</ele>
        <time>2022-06-19T06:21:37.678Z</time>
      </trkpt>
      <trkpt lat="43.225195" lon="-6.82668333">
        <ele>912.0</ele>
        <time>2022-06-19T06:21:38.686Z</time>
      </trkpt>
      <trkpt lat="43.22513333" lon="-6.82673167">
        <ele>911.0</ele>
        <time>2022-06-19T06:21:39.668Z</time>
      </trkpt>
      <trkpt lat="43.22513333" lon="-6.82673167">
        <ele>911.0</ele>
        <time>2022-06-19T06:21:40.680Z</time>
      </trkpt>
      <trkpt lat="43.22507" lon="-6.82677833">
        <ele>910.0</ele>
        <time>2022-06-19T06:21:41.682Z</time>
      </trkpt>
      <trkpt lat="43.22504333" lon="-6.826805">
        <ele>909.0</ele>
        <time>2022-06-19T06:21:42.677Z</time>
      </trkpt>
      <trkpt lat="43.22502" lon="-6.82683333">
        <ele>909.0</ele>
        <time>2022-06-19T06:21:43.662Z</time>
      </trkpt>
      <trkpt lat="43.22502" lon="-6.82683333">
        <ele>909.0</ele>
        <time>2022-06-19T06:21:44.686Z</time>
      </trkpt>
      <trkpt lat="43.22497667" lon="-6.826875">
        <ele>908.0</ele>
        <time>2022-06-19T06:21:45.676Z</time>
      </trkpt>
      <trkpt lat="43.22495" lon="-6.826885">
        <ele>907.0</ele>
        <time>2022-06-19T06:21:46.678Z</time>
      </trkpt>
      <trkpt lat="43.22495" lon="-6.826885">
        <ele>907.0</ele>
        <time>2022-06-19T06:21:47.662Z</time>
      </trkpt>
      <trkpt lat="43.22489167" lon="-6.82691">
        <ele>906.0</ele>
        <time>2022-06-19T06:21:48.654Z</time>
      </trkpt>
      <trkpt lat="43.22489167" lon="-6.82691">
        <ele>906.0</ele>
        <time>2022-06-19T06:21:49.678Z</time>
      </trkpt>
      <trkpt lat="43.224835" lon="-6.82694167">
        <ele>905.0</ele>
        <time>2022-06-19T06:21:50.669Z</time>
      </trkpt>
      <trkpt lat="43.22480667" lon="-6.82695333">
        <ele>905.0</ele>
        <time>2022-06-19T06:21:51.694Z</time>
      </trkpt>
      <trkpt lat="43.22480667" lon="-6.82695333">
        <ele>905.0</ele>
        <time>2022-06-19T06:21:52.673Z</time>
      </trkpt>
      <trkpt lat="43.22474667" lon="-6.82699833">
        <ele>903.0</ele>
        <time>2022-06-19T06:21:53.654Z</time>
      </trkpt>
      <trkpt lat="43.22471167" lon="-6.82702">
        <ele>902.0</ele>
        <time>2022-06-19T06:21:54.674Z</time>
      </trkpt>
      <trkpt lat="43.22471167" lon="-6.82702">
        <ele>902.0</ele>
        <time>2022-06-19T06:21:55.658Z</time>
      </trkpt>
      <trkpt lat="43.22463167" lon="-6.82707167">
        <ele>900.0</ele>
        <time>2022-06-19T06:21:56.679Z</time>
      </trkpt>
      <trkpt lat="43.22463167" lon="-6.82707167">
        <ele>900.0</ele>
        <time>2022-06-19T06:21:57.677Z</time>
      </trkpt>
      <trkpt lat="43.22455833" lon="-6.827115">
        <ele>899.0</ele>
        <time>2022-06-19T06:21:58.663Z</time>
      </trkpt>
      <trkpt lat="43.224525" lon="-6.82713833">
        <ele>898.0</ele>
        <time>2022-06-19T06:21:59.664Z</time>
      </trkpt>
      <trkpt lat="43.22449" lon="-6.827165">
        <ele>897.0</ele>
        <time>2022-06-19T06:22:00.691Z</time>
      </trkpt>
      <trkpt lat="43.22449" lon="-6.827165">
        <ele>897.0</ele>
        <time>2022-06-19T06:22:01.669Z</time>
      </trkpt>
      <trkpt lat="43.22441833" lon="-6.827215">
        <ele>896.0</ele>
        <time>2022-06-19T06:22:02.690Z</time>
      </trkpt>
      <trkpt lat="43.22438667" lon="-6.827235">
        <ele>896.0</ele>
        <time>2022-06-19T06:22:03.685Z</time>
      </trkpt>
      <trkpt lat="43.22438667" lon="-6.827235">
        <ele>896.0</ele>
        <time>2022-06-19T06:22:04.659Z</time>
      </trkpt>
      <trkpt lat="43.22432667" lon="-6.827275">
        <ele>894.0</ele>
        <time>2022-06-19T06:22:05.686Z</time>
      </trkpt>
      <trkpt lat="43.2243" lon="-6.82729">
        <ele>893.0</ele>
        <time>2022-06-19T06:22:06.682Z</time>
      </trkpt>
      <trkpt lat="43.2243" lon="-6.82729">
        <ele>893.0</ele>
        <time>2022-06-19T06:22:07.690Z</time>
      </trkpt>
      <trkpt lat="43.224245" lon="-6.82733333">
        <ele>891.0</ele>
        <time>2022-06-19T06:22:08.666Z</time>
      </trkpt>
      <trkpt lat="43.22420833" lon="-6.82735">
        <ele>891.0</ele>
        <time>2022-06-19T06:22:09.661Z</time>
      </trkpt>
      <trkpt lat="43.22420833" lon="-6.82735">
        <ele>891.0</ele>
        <time>2022-06-19T06:22:10.671Z</time>
      </trkpt>
      <trkpt lat="43.22414" lon="-6.82738167">
        <ele>889.0</ele>
        <time>2022-06-19T06:22:11.654Z</time>
      </trkpt>
      <trkpt lat="43.22411167" lon="-6.8274">
        <ele>889.0</ele>
        <time>2022-06-19T06:22:12.664Z</time>
      </trkpt>
      <trkpt lat="43.22411167" lon="-6.8274">
        <ele>889.0</ele>
        <time>2022-06-19T06:22:13.687Z</time>
      </trkpt>
      <trkpt lat="43.22404833" lon="-6.82743833">
        <ele>887.0</ele>
        <time>2022-06-19T06:22:14.674Z</time>
      </trkpt>
      <trkpt lat="43.22404833" lon="-6.82743833">
        <ele>887.0</ele>
        <time>2022-06-19T06:22:15.690Z</time>
      </trkpt>
      <trkpt lat="43.22399" lon="-6.82748333">
        <ele>886.0</ele>
        <time>2022-06-19T06:22:16.685Z</time>
      </trkpt>
      <trkpt lat="43.223965" lon="-6.82751333">
        <ele>885.0</ele>
        <time>2022-06-19T06:22:17.670Z</time>
      </trkpt>
      <trkpt lat="43.22393667" lon="-6.82754333">
        <ele>884.0</ele>
        <time>2022-06-19T06:22:18.690Z</time>
      </trkpt>
      <trkpt lat="43.22393667" lon="-6.82754333">
        <ele>884.0</ele>
        <time>2022-06-19T06:22:19.681Z</time>
      </trkpt>
      <trkpt lat="43.22387833" lon="-6.82759333">
        <ele>883.0</ele>
        <time>2022-06-19T06:22:20.657Z</time>
      </trkpt>
      <trkpt lat="43.22385" lon="-6.82761333">
        <ele>882.0</ele>
        <time>2022-06-19T06:22:21.672Z</time>
      </trkpt>
      <trkpt lat="43.22382167" lon="-6.82762833">
        <ele>882.0</ele>
        <time>2022-06-19T06:22:22.658Z</time>
      </trkpt>
      <trkpt lat="43.22382167" lon="-6.82762833">
        <ele>882.0</ele>
        <time>2022-06-19T06:22:23.683Z</time>
      </trkpt>
      <trkpt lat="43.223775" lon="-6.82765333">
        <ele>881.0</ele>
        <time>2022-06-19T06:22:24.663Z</time>
      </trkpt>
      <trkpt lat="43.223775" lon="-6.82765333">
        <ele>881.0</ele>
        <time>2022-06-19T06:22:25.677Z</time>
      </trkpt>
      <trkpt lat="43.22373" lon="-6.82768">
        <ele>880.0</ele>
        <time>2022-06-19T06:22:26.669Z</time>
      </trkpt>
      <trkpt lat="43.22373" lon="-6.82768">
        <ele>880.0</ele>
        <time>2022-06-19T06:22:27.685Z</time>
      </trkpt>
      <trkpt lat="43.22367167" lon="-6.82773">
        <ele>879.0</ele>
        <time>2022-06-19T06:22:28.664Z</time>
      </trkpt>
      <trkpt lat="43.22367167" lon="-6.82773">
        <ele>879.0</ele>
        <time>2022-06-19T06:22:29.676Z</time>
      </trkpt>
      <trkpt lat="43.223615" lon="-6.82777167">
        <ele>877.0</ele>
        <time>2022-06-19T06:22:30.656Z</time>
      </trkpt>
      <trkpt lat="43.223615" lon="-6.82777167">
        <ele>877.0</ele>
        <time>2022-06-19T06:22:31.691Z</time>
      </trkpt>
      <trkpt lat="43.22354833" lon="-6.82779833">
        <ele>876.0</ele>
        <time>2022-06-19T06:22:32.655Z</time>
      </trkpt>
      <trkpt lat="43.22354833" lon="-6.82779833">
        <ele>876.0</ele>
        <time>2022-06-19T06:22:33.655Z</time>
      </trkpt>
      <trkpt lat="43.223495" lon="-6.82784">
        <ele>874.0</ele>
        <time>2022-06-19T06:22:34.672Z</time>
      </trkpt>
      <trkpt lat="43.223495" lon="-6.82784">
        <ele>874.0</ele>
        <time>2022-06-19T06:22:35.671Z</time>
      </trkpt>
      <trkpt lat="43.22345667" lon="-6.82788">
        <ele>873.0</ele>
        <time>2022-06-19T06:22:36.654Z</time>
      </trkpt>
      <trkpt lat="43.22345667" lon="-6.82788">
        <ele>873.0</ele>
        <time>2022-06-19T06:22:37.654Z</time>
      </trkpt>
      <trkpt lat="43.22344667" lon="-6.82793667">
        <ele>871.0</ele>
        <time>2022-06-19T06:22:38.675Z</time>
      </trkpt>
      <trkpt lat="43.22344667" lon="-6.82793667">
        <ele>871.0</ele>
        <time>2022-06-19T06:22:39.689Z</time>
      </trkpt>
      <trkpt lat="43.22347167" lon="-6.82798833">
        <ele>871.0</ele>
        <time>2022-06-19T06:22:40.675Z</time>
      </trkpt>
      <trkpt lat="43.22347167" lon="-6.82798833">
        <ele>871.0</ele>
        <time>2022-06-19T06:22:41.685Z</time>
      </trkpt>
      <trkpt lat="43.22350667" lon="-6.82801667">
        <ele>870.0</ele>
        <time>2022-06-19T06:22:42.665Z</time>
      </trkpt>
      <trkpt lat="43.22350667" lon="-6.82801667">
        <ele>870.0</ele>
        <time>2022-06-19T06:22:43.680Z</time>
      </trkpt>
      <trkpt lat="43.22353833" lon="-6.82803667">
        <ele>869.0</ele>
        <time>2022-06-19T06:22:44.694Z</time>
      </trkpt>
      <trkpt lat="43.22353833" lon="-6.82803667">
        <ele>869.0</ele>
        <time>2022-06-19T06:22:45.673Z</time>
      </trkpt>
      <trkpt lat="43.22357333" lon="-6.82808167">
        <ele>868.0</ele>
        <time>2022-06-19T06:22:46.685Z</time>
      </trkpt>
      <trkpt lat="43.22357333" lon="-6.82808167">
        <ele>868.0</ele>
        <time>2022-06-19T06:22:47.655Z</time>
      </trkpt>
      <trkpt lat="43.22361833" lon="-6.82814833">
        <ele>867.0</ele>
        <time>2022-06-19T06:22:48.687Z</time>
      </trkpt>
      <trkpt lat="43.22361833" lon="-6.82814833">
        <ele>867.0</ele>
        <time>2022-06-19T06:22:49.682Z</time>
      </trkpt>
      <trkpt lat="43.223675" lon="-6.82821">
        <ele>867.0</ele>
        <time>2022-06-19T06:22:50.670Z</time>
      </trkpt>
      <trkpt lat="43.22370833" lon="-6.82824">
        <ele>866.0</ele>
        <time>2022-06-19T06:22:51.656Z</time>
      </trkpt>
      <trkpt lat="43.223745" lon="-6.828275">
        <ele>866.0</ele>
        <time>2022-06-19T06:22:52.666Z</time>
      </trkpt>
      <trkpt lat="43.223745" lon="-6.828275">
        <ele>866.0</ele>
        <time>2022-06-19T06:22:53.665Z</time>
      </trkpt>
      <trkpt lat="43.22382667" lon="-6.82834">
        <ele>865.0</ele>
        <time>2022-06-19T06:22:54.687Z</time>
      </trkpt>
      <trkpt lat="43.22382667" lon="-6.82834">
        <ele>865.0</ele>
        <time>2022-06-19T06:22:55.660Z</time>
      </trkpt>
      <trkpt lat="43.22389833" lon="-6.82840167">
        <ele>864.0</ele>
        <time>2022-06-19T06:22:56.670Z</time>
      </trkpt>
      <trkpt lat="43.22389833" lon="-6.82840167">
        <ele>864.0</ele>
        <time>2022-06-19T06:22:57.659Z</time>
      </trkpt>
      <trkpt lat="43.22393167" lon="-6.82847167">
        <ele>864.0</ele>
        <time>2022-06-19T06:22:58.693Z</time>
      </trkpt>
      <trkpt lat="43.22393167" lon="-6.82847167">
        <ele>864.0</ele>
        <time>2022-06-19T06:22:59.683Z</time>
      </trkpt>
      <trkpt lat="43.22395333" lon="-6.82851333">
        <ele>863.0</ele>
        <time>2022-06-19T06:23:00.669Z</time>
      </trkpt>
      <trkpt lat="43.22395333" lon="-6.82851333">
        <ele>863.0</ele>
        <time>2022-06-19T06:23:01.686Z</time>
      </trkpt>
      <trkpt lat="43.223955" lon="-6.82852">
        <ele>863.0</ele>
        <time>2022-06-19T06:23:02.676Z</time>
      </trkpt>
      <trkpt lat="43.223955" lon="-6.82852167">
        <ele>863.0</ele>
        <time>2022-06-19T06:23:26.995Z</time>
      </trkpt>
      <trkpt lat="43.223955" lon="-6.82852167">
        <ele>863.0</ele>
        <time>2022-06-19T06:23:28.001Z</time>
      </trkpt>
      <trkpt lat="43.223955" lon="-6.82852167">
        <ele>863.0</ele>
        <time>2022-06-19T06:23:29.007Z</time>
      </trkpt>
      <trkpt lat="43.223955" lon="-6.82852167">
        <ele>863.0</ele>
        <time>2022-06-19T06:23:30.013Z</time>
      </trkpt>
      <trkpt lat="43.223955" lon="-6.82852167">
        <ele>863.0</ele>
        <time>2022-06-19T06:23:31.020Z</time>
      </trkpt>
      <trkpt lat="43.223955" lon="-6.82852167">
        <ele>863.0</ele>
        <time>2022-06-19T06:23:31.999Z</time>
      </trkpt>
      <trkpt lat="43.223955" lon="-6.82852167">
        <ele>863.0</ele>
        <time>2022-06-19T06:23:32.992Z</time>
      </trkpt>
      <trkpt lat="43.223955" lon="-6.82852167">
        <ele>863.0</ele>
        <time>2022-06-19T06:23:33.990Z</time>
      </trkpt>
      <trkpt lat="43.223955" lon="-6.82852167">
        <ele>863.0</ele>
        <time>2022-06-19T06:23:35.008Z</time>
      </trkpt>
      <trkpt lat="43.223955" lon="-6.82852167">
        <ele>863.0</ele>
        <time>2022-06-19T06:23:36.003Z</time>
      </trkpt>
      <trkpt lat="43.223955" lon="-6.82852167">
        <ele>863.0</ele>
        <time>2022-06-19T06:23:36.993Z</time>
      </trkpt>
      <trkpt lat="43.223955" lon="-6.82852167">
        <ele>863.0</ele>
        <time>2022-06-19T06:23:37.996Z</time>
      </trkpt>
      <trkpt lat="43.223955" lon="-6.82852167">
        <ele>863.0</ele>
        <time>2022-06-19T06:23:38.996Z</time>
      </trkpt>
      <trkpt lat="43.223955" lon="-6.82852167">
        <ele>863.0</ele>
        <time>2022-06-19T06:23:39.990Z</time>
      </trkpt>
      <trkpt lat="43.223955" lon="-6.82852167">
        <ele>863.0</ele>
        <time>2022-06-19T06:23:40.992Z</time>
      </trkpt>
      <trkpt lat="43.223955" lon="-6.82852167">
        <ele>863.0</ele>
        <time>2022-06-19T06:23:42.027Z</time>
      </trkpt>
      <trkpt lat="43.223955" lon="-6.82852167">
        <ele>863.0</ele>
        <time>2022-06-19T06:23:43.006Z</time>
      </trkpt>
      <trkpt lat="43.223955" lon="-6.82852167">
        <ele>863.0</ele>
        <time>2022-06-19T06:23:43.990Z</time>
      </trkpt>
      <trkpt lat="43.223955" lon="-6.82852167">
        <ele>863.0</ele>
        <time>2022-06-19T06:23:45.016Z</time>
      </trkpt>
      <trkpt lat="43.223955" lon="-6.82852167">
        <ele>863.0</ele>
        <time>2022-06-19T06:23:45.993Z</time>
      </trkpt>
      <trkpt lat="43.223955" lon="-6.82852167">
        <ele>863.0</ele>
        <time>2022-06-19T06:23:46.993Z</time>
      </trkpt>
      <trkpt lat="43.223955" lon="-6.82852167">
        <ele>863.0</ele>
        <time>2022-06-19T06:23:48.027Z</time>
      </trkpt>
      <trkpt lat="43.223955" lon="-6.82852167">
        <ele>863.0</ele>
        <time>2022-06-19T06:23:49.005Z</time>
      </trkpt>
      <trkpt lat="43.223955" lon="-6.82852167">
        <ele>863.0</ele>
        <time>2022-06-19T06:23:49.989Z</time>
      </trkpt>
      <trkpt lat="43.223955" lon="-6.82852167">
        <ele>863.0</ele>
        <time>2022-06-19T06:23:51.007Z</time>
      </trkpt>
      <trkpt lat="43.223955" lon="-6.82852167">
        <ele>863.0</ele>
        <time>2022-06-19T06:23:52.025Z</time>
      </trkpt>
      <trkpt lat="43.223955" lon="-6.82852167">
        <ele>863.0</ele>
        <time>2022-06-19T06:23:53.004Z</time>
      </trkpt>
      <trkpt lat="43.223955" lon="-6.82852167">
        <ele>863.0</ele>
        <time>2022-06-19T06:23:53.994Z</time>
      </trkpt>
      <trkpt lat="43.223955" lon="-6.82852167">
        <ele>863.0</ele>
        <time>2022-06-19T06:23:55.013Z</time>
      </trkpt>
      <trkpt lat="43.223955" lon="-6.82852167">
        <ele>863.0</ele>
        <time>2022-06-19T06:23:55.992Z</time>
      </trkpt>
      <trkpt lat="43.223955" lon="-6.82852167">
        <ele>863.0</ele>
        <time>2022-06-19T06:23:56.991Z</time>
      </trkpt>
      <trkpt lat="43.223955" lon="-6.82852167">
        <ele>863.0</ele>
        <time>2022-06-19T06:23:58.008Z</time>
      </trkpt>
      <trkpt lat="43.223955" lon="-6.82852167">
        <ele>863.0</ele>
        <time>2022-06-19T06:23:58.995Z</time>
      </trkpt>
      <trkpt lat="43.223955" lon="-6.82852167">
        <ele>863.0</ele>
        <time>2022-06-19T06:24:00.029Z</time>
      </trkpt>
      <trkpt lat="43.223955" lon="-6.82852167">
        <ele>863.0</ele>
        <time>2022-06-19T06:24:01.002Z</time>
      </trkpt>
      <trkpt lat="43.223955" lon="-6.82852167">
        <ele>863.0</ele>
        <time>2022-06-19T06:24:02.021Z</time>
      </trkpt>
      <trkpt lat="43.223955" lon="-6.82852167">
        <ele>863.0</ele>
        <time>2022-06-19T06:24:02.999Z</time>
      </trkpt>
      <trkpt lat="43.223955" lon="-6.82852167">
        <ele>863.0</ele>
        <time>2022-06-19T06:24:04.004Z</time>
      </trkpt>
      <trkpt lat="43.223955" lon="-6.82852167">
        <ele>863.0</ele>
        <time>2022-06-19T06:24:04.995Z</time>
      </trkpt>
      <trkpt lat="43.223955" lon="-6.82852167">
        <ele>863.0</ele>
        <time>2022-06-19T06:24:05.993Z</time>
      </trkpt>
      <trkpt lat="43.223955" lon="-6.82852167">
        <ele>863.0</ele>
        <time>2022-06-19T06:24:06.991Z</time>
      </trkpt>
      <trkpt lat="43.223955" lon="-6.82852167">
        <ele>863.0</ele>
        <time>2022-06-19T06:24:08.006Z</time>
      </trkpt>
      <trkpt lat="43.223955" lon="-6.82852167">
        <ele>863.0</ele>
        <time>2022-06-19T06:24:08.993Z</time>
      </trkpt>
      <trkpt lat="43.223955" lon="-6.82852167">
        <ele>863.0</ele>
        <time>2022-06-19T06:24:10.027Z</time>
      </trkpt>
      <trkpt lat="43.223955" lon="-6.82852167">
        <ele>863.0</ele>
        <time>2022-06-19T06:24:11.005Z</time>
      </trkpt>
      <trkpt lat="43.223955" lon="-6.82852167">
        <ele>863.0</ele>
        <time>2022-06-19T06:24:12.026Z</time>
      </trkpt>
      <trkpt lat="43.223955" lon="-6.82852167">
        <ele>863.0</ele>
        <time>2022-06-19T06:24:13.004Z</time>
      </trkpt>
      <trkpt lat="43.223955" lon="-6.82852167">
        <ele>863.0</ele>
        <time>2022-06-19T06:24:13.989Z</time>
      </trkpt>
      <trkpt lat="43.223955" lon="-6.82852167">
        <ele>863.0</ele>
        <time>2022-06-19T06:24:15.007Z</time>
      </trkpt>
      <trkpt lat="43.223955" lon="-6.82852167">
        <ele>863.0</ele>
        <time>2022-06-19T06:24:15.989Z</time>
      </trkpt>
      <trkpt lat="43.223955" lon="-6.82852167">
        <ele>863.0</ele>
        <time>2022-06-19T06:24:17.007Z</time>
      </trkpt>
      <trkpt lat="43.223955" lon="-6.82852167">
        <ele>863.0</ele>
        <time>2022-06-19T06:24:18.004Z</time>
      </trkpt>
      <trkpt lat="43.223955" lon="-6.82852167">
        <ele>863.0</ele>
        <time>2022-06-19T06:24:18.993Z</time>
      </trkpt>
      <trkpt lat="43.223955" lon="-6.82852167">
        <ele>863.0</ele>
        <time>2022-06-19T06:24:19.990Z</time>
      </trkpt>
      <trkpt lat="43.223955" lon="-6.82852167">
        <ele>863.0</ele>
        <time>2022-06-19T06:24:21.009Z</time>
      </trkpt>
      <trkpt lat="43.223955" lon="-6.82852167">
        <ele>863.0</ele>
        <time>2022-06-19T06:24:22.027Z</time>
      </trkpt>
      <trkpt lat="43.223955" lon="-6.82852167">
        <ele>863.0</ele>
        <time>2022-06-19T06:24:23.005Z</time>
      </trkpt>
      <trkpt lat="43.223955" lon="-6.82852167">
        <ele>863.0</ele>
        <time>2022-06-19T06:24:23.992Z</time>
      </trkpt>
      <trkpt lat="43.223955" lon="-6.82852167">
        <ele>863.0</ele>
        <time>2022-06-19T06:24:24.991Z</time>
      </trkpt>
      <trkpt lat="43.223955" lon="-6.82852167">
        <ele>863.0</ele>
        <time>2022-06-19T06:24:25.993Z</time>
      </trkpt>
      <trkpt lat="43.223955" lon="-6.82852167">
        <ele>863.0</ele>
        <time>2022-06-19T06:24:26.991Z</time>
      </trkpt>
      <trkpt lat="43.223955" lon="-6.82852167">
        <ele>863.0</ele>
        <time>2022-06-19T06:24:28.011Z</time>
      </trkpt>
      <trkpt lat="43.223955" lon="-6.82852167">
        <ele>863.0</ele>
        <time>2022-06-19T06:24:28.993Z</time>
      </trkpt>
      <trkpt lat="43.223955" lon="-6.82852167">
        <ele>863.0</ele>
        <time>2022-06-19T06:24:29.990Z</time>
      </trkpt>
      <trkpt lat="43.223955" lon="-6.82852167">
        <ele>863.0</ele>
        <time>2022-06-19T06:24:31.008Z</time>
      </trkpt>
      <trkpt lat="43.223955" lon="-6.82852167">
        <ele>863.0</ele>
        <time>2022-06-19T06:24:32.027Z</time>
      </trkpt>
      <trkpt lat="43.223955" lon="-6.82852167">
        <ele>863.0</ele>
        <time>2022-06-19T06:24:33.005Z</time>
      </trkpt>
      <trkpt lat="43.223955" lon="-6.82852167">
        <ele>863.0</ele>
        <time>2022-06-19T06:24:33.993Z</time>
      </trkpt>
      <trkpt lat="43.223955" lon="-6.82852167">
        <ele>863.0</ele>
        <time>2022-06-19T06:24:35.012Z</time>
      </trkpt>
      <trkpt lat="43.223955" lon="-6.82852167">
        <ele>863.0</ele>
        <time>2022-06-19T06:24:35.990Z</time>
      </trkpt>
      <trkpt lat="43.223955" lon="-6.82852167">
        <ele>863.0</ele>
        <time>2022-06-19T06:24:37.008Z</time>
      </trkpt>
      <trkpt lat="43.223955" lon="-6.82852167">
        <ele>863.0</ele>
        <time>2022-06-19T06:24:37.992Z</time>
      </trkpt>
      <trkpt lat="43.223955" lon="-6.82852167">
        <ele>863.0</ele>
        <time>2022-06-19T06:24:38.997Z</time>
      </trkpt>
      <trkpt lat="43.223955" lon="-6.82852167">
        <ele>863.0</ele>
        <time>2022-06-19T06:24:39.992Z</time>
      </trkpt>
      <trkpt lat="43.223955" lon="-6.82852167">
        <ele>863.0</ele>
        <time>2022-06-19T06:24:41.005Z</time>
      </trkpt>
      <trkpt lat="43.223955" lon="-6.82852167">
        <ele>863.0</ele>
        <time>2022-06-19T06:24:42.027Z</time>
      </trkpt>
      <trkpt lat="43.223955" lon="-6.82852167">
        <ele>863.0</ele>
        <time>2022-06-19T06:24:43.004Z</time>
      </trkpt>
      <trkpt lat="43.223955" lon="-6.82852167">
        <ele>863.0</ele>
        <time>2022-06-19T06:24:43.989Z</time>
      </trkpt>
      <trkpt lat="43.223955" lon="-6.82852167">
        <ele>863.0</ele>
        <time>2022-06-19T06:24:45.008Z</time>
      </trkpt>
      <trkpt lat="43.223955" lon="-6.82852167">
        <ele>863.0</ele>
        <time>2022-06-19T06:24:46.001Z</time>
      </trkpt>
      <trkpt lat="43.223955" lon="-6.82852167">
        <ele>863.0</ele>
        <time>2022-06-19T06:24:46.992Z</time>
      </trkpt>
      <trkpt lat="43.223955" lon="-6.82852167">
        <ele>863.0</ele>
        <time>2022-06-19T06:24:47.993Z</time>
      </trkpt>
      <trkpt lat="43.223955" lon="-6.82852167">
        <ele>863.0</ele>
        <time>2022-06-19T06:24:48.990Z</time>
      </trkpt>
      <trkpt lat="43.223955" lon="-6.82852167">
        <ele>863.0</ele>
        <time>2022-06-19T06:24:50.009Z</time>
      </trkpt>
      <trkpt lat="43.223955" lon="-6.82852167">
        <ele>863.0</ele>
        <time>2022-06-19T06:24:51.028Z</time>
      </trkpt>
      <trkpt lat="43.223955" lon="-6.82852167">
        <ele>863.0</ele>
        <time>2022-06-19T06:24:52.013Z</time>
      </trkpt>
      <trkpt lat="43.223955" lon="-6.82852167">
        <ele>863.0</ele>
        <time>2022-06-19T06:24:52.992Z</time>
      </trkpt>
      <trkpt lat="43.223955" lon="-6.82852167">
        <ele>863.0</ele>
        <time>2022-06-19T06:24:53.993Z</time>
      </trkpt>
      <trkpt lat="43.223955" lon="-6.82852167">
        <ele>863.0</ele>
        <time>2022-06-19T06:24:54.992Z</time>
      </trkpt>
      <trkpt lat="43.223955" lon="-6.82852167">
        <ele>863.0</ele>
        <time>2022-06-19T06:24:55.992Z</time>
      </trkpt>
      <trkpt lat="43.223955" lon="-6.82852167">
        <ele>863.0</ele>
        <time>2022-06-19T06:24:56.993Z</time>
      </trkpt>
      <trkpt lat="43.223955" lon="-6.82852167">
        <ele>863.0</ele>
        <time>2022-06-19T06:24:57.990Z</time>
      </trkpt>
      <trkpt lat="43.223955" lon="-6.82852167">
        <ele>863.0</ele>
        <time>2022-06-19T06:24:58.990Z</time>
      </trkpt>
      <trkpt lat="43.223955" lon="-6.82852167">
        <ele>863.0</ele>
        <time>2022-06-19T06:25:00.024Z</time>
      </trkpt>
      <trkpt lat="43.223955" lon="-6.82852167">
        <ele>863.0</ele>
        <time>2022-06-19T06:25:00.993Z</time>
      </trkpt>
      <trkpt lat="43.223955" lon="-6.82852167">
        <ele>863.0</ele>
        <time>2022-06-19T06:25:02.021Z</time>
      </trkpt>
      <trkpt lat="43.223955" lon="-6.82852167">
        <ele>863.0</ele>
        <time>2022-06-19T06:25:02.999Z</time>
      </trkpt>
      <trkpt lat="43.223955" lon="-6.82852167">
        <ele>863.0</ele>
        <time>2022-06-19T06:25:03.989Z</time>
      </trkpt>
      <trkpt lat="43.223955" lon="-6.82852167">
        <ele>863.0</ele>
        <time>2022-06-19T06:25:05.008Z</time>
      </trkpt>
      <trkpt lat="43.223955" lon="-6.82852167">
        <ele>863.0</ele>
        <time>2022-06-19T06:25:05.990Z</time>
      </trkpt>
      <trkpt lat="43.223955" lon="-6.82852167">
        <ele>863.0</ele>
        <time>2022-06-19T06:25:07.010Z</time>
      </trkpt>
      <trkpt lat="43.223955" lon="-6.82852167">
        <ele>863.0</ele>
        <time>2022-06-19T06:25:07.990Z</time>
      </trkpt>
      <trkpt lat="43.223955" lon="-6.82852167">
        <ele>863.0</ele>
        <time>2022-06-19T06:25:08.993Z</time>
      </trkpt>
      <trkpt lat="43.223955" lon="-6.82852167">
        <ele>863.0</ele>
        <time>2022-06-19T06:25:09.990Z</time>
      </trkpt>
      <trkpt lat="43.223955" lon="-6.82852167">
        <ele>863.0</ele>
        <time>2022-06-19T06:25:11.008Z</time>
      </trkpt>
      <trkpt lat="43.223955" lon="-6.82852167">
        <ele>863.0</ele>
        <time>2022-06-19T06:25:12.026Z</time>
      </trkpt>
      <trkpt lat="43.223955" lon="-6.82852167">
        <ele>863.0</ele>
        <time>2022-06-19T06:25:13.005Z</time>
      </trkpt>
      <trkpt lat="43.223955" lon="-6.82852167">
        <ele>863.0</ele>
        <time>2022-06-19T06:25:13.991Z</time>
      </trkpt>
      <trkpt lat="43.223955" lon="-6.82852167">
        <ele>863.0</ele>
        <time>2022-06-19T06:25:14.993Z</time>
      </trkpt>
      <trkpt lat="43.223955" lon="-6.82852167">
        <ele>863.0</ele>
        <time>2022-06-19T06:25:15.991Z</time>
      </trkpt>
      <trkpt lat="43.223955" lon="-6.82852167">
        <ele>863.0</ele>
        <time>2022-06-19T06:25:17.009Z</time>
      </trkpt>
      <trkpt lat="43.223955" lon="-6.82852167">
        <ele>863.0</ele>
        <time>2022-06-19T06:25:17.990Z</time>
      </trkpt>
      <trkpt lat="43.223955" lon="-6.82852167">
        <ele>863.0</ele>
        <time>2022-06-19T06:25:19.008Z</time>
      </trkpt>
      <trkpt lat="43.223955" lon="-6.82852167">
        <ele>863.0</ele>
        <time>2022-06-19T06:25:20.027Z</time>
      </trkpt>
      <trkpt lat="43.223955" lon="-6.82852167">
        <ele>863.0</ele>
        <time>2022-06-19T06:25:21.005Z</time>
      </trkpt>
      <trkpt lat="43.223955" lon="-6.82852167">
        <ele>863.0</ele>
        <time>2022-06-19T06:25:22.027Z</time>
      </trkpt>
      <trkpt lat="43.223955" lon="-6.82852167">
        <ele>863.0</ele>
        <time>2022-06-19T06:25:23.005Z</time>
      </trkpt>
      <trkpt lat="43.223955" lon="-6.82852167">
        <ele>863.0</ele>
        <time>2022-06-19T06:25:24.028Z</time>
      </trkpt>
      <trkpt lat="43.223955" lon="-6.82852167">
        <ele>863.0</ele>
        <time>2022-06-19T06:25:25.006Z</time>
      </trkpt>
      <trkpt lat="43.223955" lon="-6.82852167">
        <ele>863.0</ele>
        <time>2022-06-19T06:25:25.996Z</time>
      </trkpt>
      <trkpt lat="43.223955" lon="-6.82852167">
        <ele>863.0</ele>
        <time>2022-06-19T06:25:26.993Z</time>
      </trkpt>
      <trkpt lat="43.223955" lon="-6.82852167">
        <ele>863.0</ele>
        <time>2022-06-19T06:25:28.029Z</time>
      </trkpt>
      <trkpt lat="43.223955" lon="-6.82852167">
        <ele>863.0</ele>
        <time>2022-06-19T06:25:29.006Z</time>
      </trkpt>
      <trkpt lat="43.223955" lon="-6.82852167">
        <ele>863.0</ele>
        <time>2022-06-19T06:25:30.028Z</time>
      </trkpt>
      <trkpt lat="43.223955" lon="-6.82852167">
        <ele>863.0</ele>
        <time>2022-06-19T06:25:31.006Z</time>
      </trkpt>
      <trkpt lat="43.223955" lon="-6.82852167">
        <ele>863.0</ele>
        <time>2022-06-19T06:25:31.996Z</time>
      </trkpt>
      <trkpt lat="43.223955" lon="-6.82852167">
        <ele>863.0</ele>
        <time>2022-06-19T06:25:32.996Z</time>
      </trkpt>
      <trkpt lat="43.223955" lon="-6.82852167">
        <ele>863.0</ele>
        <time>2022-06-19T06:25:33.992Z</time>
      </trkpt>
      <trkpt lat="43.223955" lon="-6.82852167">
        <ele>863.0</ele>
        <time>2022-06-19T06:25:34.993Z</time>
      </trkpt>
      <trkpt lat="43.223955" lon="-6.82852167">
        <ele>863.0</ele>
        <time>2022-06-19T06:25:35.991Z</time>
      </trkpt>
      <trkpt lat="43.223955" lon="-6.82852167">
        <ele>863.0</ele>
        <time>2022-06-19T06:25:37.008Z</time>
      </trkpt>
      <trkpt lat="43.223955" lon="-6.82852167">
        <ele>863.0</ele>
        <time>2022-06-19T06:25:38.028Z</time>
      </trkpt>
      <trkpt lat="43.223955" lon="-6.82852167">
        <ele>863.0</ele>
        <time>2022-06-19T06:25:39.002Z</time>
      </trkpt>
      <trkpt lat="43.223955" lon="-6.82852167">
        <ele>863.0</ele>
        <time>2022-06-19T06:25:39.989Z</time>
      </trkpt>
      <trkpt lat="43.223955" lon="-6.82852167">
        <ele>863.0</ele>
        <time>2022-06-19T06:25:41.008Z</time>
      </trkpt>
      <trkpt lat="43.223955" lon="-6.82852167">
        <ele>863.0</ele>
        <time>2022-06-19T06:25:42.027Z</time>
      </trkpt>
      <trkpt lat="43.223955" lon="-6.82852167">
        <ele>863.0</ele>
        <time>2022-06-19T06:25:43.005Z</time>
      </trkpt>
      <trkpt lat="43.223955" lon="-6.82852167">
        <ele>863.0</ele>
        <time>2022-06-19T06:25:43.990Z</time>
      </trkpt>
      <trkpt lat="43.223955" lon="-6.82852167">
        <ele>863.0</ele>
        <time>2022-06-19T06:25:45.008Z</time>
      </trkpt>
      <trkpt lat="43.223955" lon="-6.82852167">
        <ele>863.0</ele>
        <time>2022-06-19T06:25:45.998Z</time>
      </trkpt>
      <trkpt lat="43.223955" lon="-6.82852167">
        <ele>863.0</ele>
        <time>2022-06-19T06:25:46.993Z</time>
      </trkpt>
      <trkpt lat="43.223955" lon="-6.82852167">
        <ele>863.0</ele>
        <time>2022-06-19T06:25:47.992Z</time>
      </trkpt>
      <trkpt lat="43.223955" lon="-6.82852167">
        <ele>863.0</ele>
        <time>2022-06-19T06:25:49.010Z</time>
      </trkpt>
      <trkpt lat="43.223955" lon="-6.82852167">
        <ele>863.0</ele>
        <time>2022-06-19T06:25:49.991Z</time>
      </trkpt>
      <trkpt lat="43.223955" lon="-6.82852167">
        <ele>863.0</ele>
        <time>2022-06-19T06:25:50.994Z</time>
      </trkpt>
      <trkpt lat="43.223955" lon="-6.82852167">
        <ele>863.0</ele>
        <time>2022-06-19T06:25:51.991Z</time>
      </trkpt>
      <trkpt lat="43.223955" lon="-6.82852167">
        <ele>863.0</ele>
        <time>2022-06-19T06:25:53.009Z</time>
      </trkpt>
      <trkpt lat="43.223955" lon="-6.82852167">
        <ele>863.0</ele>
        <time>2022-06-19T06:25:53.991Z</time>
      </trkpt>
      <trkpt lat="43.223955" lon="-6.82852167">
        <ele>863.0</ele>
        <time>2022-06-19T06:25:54.996Z</time>
      </trkpt>
      <trkpt lat="43.223955" lon="-6.82852167">
        <ele>863.0</ele>
        <time>2022-06-19T06:25:56.014Z</time>
      </trkpt>
      <trkpt lat="43.223955" lon="-6.82852167">
        <ele>863.0</ele>
        <time>2022-06-19T06:25:56.993Z</time>
      </trkpt>
      <trkpt lat="43.223955" lon="-6.82852167">
        <ele>863.0</ele>
        <time>2022-06-19T06:25:57.991Z</time>
      </trkpt>
      <trkpt lat="43.223955" lon="-6.82852167">
        <ele>863.0</ele>
        <time>2022-06-19T06:25:58.993Z</time>
      </trkpt>
      <trkpt lat="43.223955" lon="-6.82852167">
        <ele>863.0</ele>
        <time>2022-06-19T06:26:00.028Z</time>
      </trkpt>
      <trkpt lat="43.223955" lon="-6.82852167">
        <ele>863.0</ele>
        <time>2022-06-19T06:26:01.007Z</time>
      </trkpt>
      <trkpt lat="43.223955" lon="-6.82852167">
        <ele>863.0</ele>
        <time>2022-06-19T06:26:01.990Z</time>
      </trkpt>
      <trkpt lat="43.223955" lon="-6.82852167">
        <ele>863.0</ele>
        <time>2022-06-19T06:26:03.009Z</time>
      </trkpt>
      <trkpt lat="43.223955" lon="-6.82852167">
        <ele>863.0</ele>
        <time>2022-06-19T06:26:03.992Z</time>
      </trkpt>
      <trkpt lat="43.223955" lon="-6.82852167">
        <ele>863.0</ele>
        <time>2022-06-19T06:26:04.993Z</time>
      </trkpt>
      <trkpt lat="43.223955" lon="-6.82852167">
        <ele>863.0</ele>
        <time>2022-06-19T06:26:06.002Z</time>
      </trkpt>
      <trkpt lat="43.223955" lon="-6.82852167">
        <ele>863.0</ele>
        <time>2022-06-19T06:26:06.995Z</time>
      </trkpt>
      <trkpt lat="43.223955" lon="-6.82852167">
        <ele>863.0</ele>
        <time>2022-06-19T06:26:07.989Z</time>
      </trkpt>
      <trkpt lat="43.223955" lon="-6.82852167">
        <ele>863.0</ele>
        <time>2022-06-19T06:26:09.014Z</time>
      </trkpt>
      <trkpt lat="43.223955" lon="-6.82852167">
        <ele>863.0</ele>
        <time>2022-06-19T06:26:09.992Z</time>
      </trkpt>
      <trkpt lat="43.223955" lon="-6.82852167">
        <ele>863.0</ele>
        <time>2022-06-19T06:26:10.994Z</time>
      </trkpt>
      <trkpt lat="43.223955" lon="-6.82852167">
        <ele>863.0</ele>
        <time>2022-06-19T06:26:11.993Z</time>
      </trkpt>
      <trkpt lat="43.223955" lon="-6.82852167">
        <ele>863.0</ele>
        <time>2022-06-19T06:26:12.992Z</time>
      </trkpt>
      <trkpt lat="43.223955" lon="-6.82852167">
        <ele>863.0</ele>
        <time>2022-06-19T06:26:13.993Z</time>
      </trkpt>
      <trkpt lat="43.223955" lon="-6.82852167">
        <ele>863.0</ele>
        <time>2022-06-19T06:26:14.995Z</time>
      </trkpt>
      <trkpt lat="43.223955" lon="-6.82852167">
        <ele>863.0</ele>
        <time>2022-06-19T06:26:15.990Z</time>
      </trkpt>
      <trkpt lat="43.223955" lon="-6.82852167">
        <ele>863.0</ele>
        <time>2022-06-19T06:26:17.008Z</time>
      </trkpt>
      <trkpt lat="43.223955" lon="-6.82852167">
        <ele>863.0</ele>
        <time>2022-06-19T06:26:17.993Z</time>
      </trkpt>
      <trkpt lat="43.223955" lon="-6.82852167">
        <ele>863.0</ele>
        <time>2022-06-19T06:26:19.013Z</time>
      </trkpt>
      <trkpt lat="43.223955" lon="-6.82852167">
        <ele>863.0</ele>
        <time>2022-06-19T06:26:19.993Z</time>
      </trkpt>
      <trkpt lat="43.223955" lon="-6.82852167">
        <ele>863.0</ele>
        <time>2022-06-19T06:26:20.994Z</time>
      </trkpt>
      <trkpt lat="43.223955" lon="-6.82852167">
        <ele>863.0</ele>
        <time>2022-06-19T06:26:21.992Z</time>
      </trkpt>
      <trkpt lat="43.223955" lon="-6.82852167">
        <ele>863.0</ele>
        <time>2022-06-19T06:26:22.991Z</time>
      </trkpt>
      <trkpt lat="43.223955" lon="-6.82852167">
        <ele>863.0</ele>
        <time>2022-06-19T06:26:24.010Z</time>
      </trkpt>
      <trkpt lat="43.223955" lon="-6.82852167">
        <ele>863.0</ele>
        <time>2022-06-19T06:26:24.992Z</time>
      </trkpt>
      <trkpt lat="43.223955" lon="-6.82852167">
        <ele>863.0</ele>
        <time>2022-06-19T06:26:26.021Z</time>
      </trkpt>
      <trkpt lat="43.22398667" lon="-6.82857833">
        <ele>855.0</ele>
        <time>2022-06-19T06:26:27.000Z</time>
      </trkpt>
      <trkpt lat="43.22398667" lon="-6.82857833">
        <ele>855.0</ele>
        <time>2022-06-19T06:26:27.989Z</time>
      </trkpt>
      <trkpt lat="43.22403333" lon="-6.828655">
        <ele>854.0</ele>
        <time>2022-06-19T06:26:29.000Z</time>
      </trkpt>
      <trkpt lat="43.22405667" lon="-6.82870167">
        <ele>853.0</ele>
        <time>2022-06-19T06:26:29.991Z</time>
      </trkpt>
      <trkpt lat="43.22405667" lon="-6.82870167">
        <ele>853.0</ele>
        <time>2022-06-19T06:26:30.997Z</time>
      </trkpt>
      <trkpt lat="43.22410167" lon="-6.82879">
        <ele>852.0</ele>
        <time>2022-06-19T06:26:32.024Z</time>
      </trkpt>
      <trkpt lat="43.22412167" lon="-6.82883667">
        <ele>851.0</ele>
        <time>2022-06-19T06:26:33.025Z</time>
      </trkpt>
      <trkpt lat="43.22412167" lon="-6.82883667">
        <ele>851.0</ele>
        <time>2022-06-19T06:26:33.990Z</time>
      </trkpt>
      <trkpt lat="43.22416333" lon="-6.828925">
        <ele>850.0</ele>
        <time>2022-06-19T06:26:34.990Z</time>
      </trkpt>
      <trkpt lat="43.22416333" lon="-6.828925">
        <ele>850.0</ele>
        <time>2022-06-19T06:26:35.996Z</time>
      </trkpt>
      <trkpt lat="43.22420667" lon="-6.82900833">
        <ele>848.0</ele>
        <time>2022-06-19T06:26:37.024Z</time>
      </trkpt>
      <trkpt lat="43.22420667" lon="-6.82900833">
        <ele>848.0</ele>
        <time>2022-06-19T06:26:37.989Z</time>
      </trkpt>
      <trkpt lat="43.22424667" lon="-6.82907333">
        <ele>847.0</ele>
        <time>2022-06-19T06:26:38.998Z</time>
      </trkpt>
      <trkpt lat="43.22424667" lon="-6.82907333">
        <ele>847.0</ele>
        <time>2022-06-19T06:26:40.003Z</time>
      </trkpt>
      <trkpt lat="43.22427" lon="-6.82911">
        <ele>848.0</ele>
        <time>2022-06-19T06:26:40.994Z</time>
      </trkpt>
      <trkpt lat="43.22427" lon="-6.82911">
        <ele>848.0</ele>
        <time>2022-06-19T06:26:42.007Z</time>
      </trkpt>
      <trkpt lat="43.22425667" lon="-6.82916">
        <ele>847.0</ele>
        <time>2022-06-19T06:26:43.010Z</time>
      </trkpt>
      <trkpt lat="43.22425667" lon="-6.82916">
        <ele>847.0</ele>
        <time>2022-06-19T06:26:44.023Z</time>
      </trkpt>
      <trkpt lat="43.22420333" lon="-6.82920167">
        <ele>846.0</ele>
        <time>2022-06-19T06:26:45.011Z</time>
      </trkpt>
      <trkpt lat="43.22420333" lon="-6.82920167">
        <ele>846.0</ele>
        <time>2022-06-19T06:26:46.023Z</time>
      </trkpt>
      <trkpt lat="43.22414167" lon="-6.82923">
        <ele>845.0</ele>
        <time>2022-06-19T06:26:47.015Z</time>
      </trkpt>
      <trkpt lat="43.22414167" lon="-6.82923">
        <ele>845.0</ele>
        <time>2022-06-19T06:26:48.022Z</time>
      </trkpt>
      <trkpt lat="43.22408167" lon="-6.82926167">
        <ele>845.0</ele>
        <time>2022-06-19T06:26:49.021Z</time>
      </trkpt>
      <trkpt lat="43.22408167" lon="-6.82926167">
        <ele>845.0</ele>
        <time>2022-06-19T06:26:50.027Z</time>
      </trkpt>
      <trkpt lat="43.22401167" lon="-6.82930333">
        <ele>844.0</ele>
        <time>2022-06-19T06:26:51.010Z</time>
      </trkpt>
      <trkpt lat="43.22401167" lon="-6.82930333">
        <ele>844.0</ele>
        <time>2022-06-19T06:26:52.017Z</time>
      </trkpt>
      <trkpt lat="43.22391667" lon="-6.82937333">
        <ele>842.0</ele>
        <time>2022-06-19T06:26:53.020Z</time>
      </trkpt>
      <trkpt lat="43.22391667" lon="-6.82937333">
        <ele>842.0</ele>
        <time>2022-06-19T06:26:54.026Z</time>
      </trkpt>
      <trkpt lat="43.22379667" lon="-6.82947">
        <ele>840.0</ele>
        <time>2022-06-19T06:26:55.020Z</time>
      </trkpt>
      <trkpt lat="43.22379667" lon="-6.82947">
        <ele>840.0</ele>
        <time>2022-06-19T06:26:56.026Z</time>
      </trkpt>
      <trkpt lat="43.22365667" lon="-6.82958333">
        <ele>837.0</ele>
        <time>2022-06-19T06:26:57.015Z</time>
      </trkpt>
      <trkpt lat="43.22365667" lon="-6.82958333">
        <ele>837.0</ele>
        <time>2022-06-19T06:26:58.025Z</time>
      </trkpt>
      <trkpt lat="43.22350167" lon="-6.82970667">
        <ele>834.0</ele>
        <time>2022-06-19T06:26:59.024Z</time>
      </trkpt>
      <trkpt lat="43.22350167" lon="-6.82970667">
        <ele>834.0</ele>
        <time>2022-06-19T06:26:59.989Z</time>
      </trkpt>
      <trkpt lat="43.22334667" lon="-6.82983">
        <ele>831.0</ele>
        <time>2022-06-19T06:27:01.010Z</time>
      </trkpt>
      <trkpt lat="43.22334667" lon="-6.82983">
        <ele>831.0</ele>
        <time>2022-06-19T06:27:02.021Z</time>
      </trkpt>
      <trkpt lat="43.22320167" lon="-6.829955">
        <ele>829.0</ele>
        <time>2022-06-19T06:27:03.018Z</time>
      </trkpt>
      <trkpt lat="43.22320167" lon="-6.829955">
        <ele>829.0</ele>
        <time>2022-06-19T06:27:04.024Z</time>
      </trkpt>
      <trkpt lat="43.223075" lon="-6.83007333">
        <ele>827.0</ele>
        <time>2022-06-19T06:27:05.016Z</time>
      </trkpt>
      <trkpt lat="43.223075" lon="-6.83007333">
        <ele>827.0</ele>
        <time>2022-06-19T06:27:06.022Z</time>
      </trkpt>
      <trkpt lat="43.22298667" lon="-6.83016667">
        <ele>826.0</ele>
        <time>2022-06-19T06:27:07.017Z</time>
      </trkpt>
      <trkpt lat="43.22298667" lon="-6.83016667">
        <ele>826.0</ele>
        <time>2022-06-19T06:27:08.025Z</time>
      </trkpt>
      <trkpt lat="43.22291833" lon="-6.83024667">
        <ele>824.0</ele>
        <time>2022-06-19T06:27:09.015Z</time>
      </trkpt>
      <trkpt lat="43.22291833" lon="-6.83024667">
        <ele>824.0</ele>
        <time>2022-06-19T06:27:10.021Z</time>
      </trkpt>
      <trkpt lat="43.22285833" lon="-6.83030667">
        <ele>823.0</ele>
        <time>2022-06-19T06:27:11.012Z</time>
      </trkpt>
      <trkpt lat="43.22285833" lon="-6.83030667">
        <ele>823.0</ele>
        <time>2022-06-19T06:27:12.019Z</time>
      </trkpt>
      <trkpt lat="43.2228" lon="-6.83035333">
        <ele>822.0</ele>
        <time>2022-06-19T06:27:13.007Z</time>
      </trkpt>
      <trkpt lat="43.2228" lon="-6.83035333">
        <ele>822.0</ele>
        <time>2022-06-19T06:27:14.013Z</time>
      </trkpt>
      <trkpt lat="43.22275" lon="-6.83040333">
        <ele>820.0</ele>
        <time>2022-06-19T06:27:15.007Z</time>
      </trkpt>
      <trkpt lat="43.222725" lon="-6.83042833">
        <ele>820.0</ele>
        <time>2022-06-19T06:27:15.994Z</time>
      </trkpt>
      <trkpt lat="43.222725" lon="-6.83042833">
        <ele>820.0</ele>
        <time>2022-06-19T06:27:17.000Z</time>
      </trkpt>
      <trkpt lat="43.222655" lon="-6.83050333">
        <ele>818.0</ele>
        <time>2022-06-19T06:27:17.992Z</time>
      </trkpt>
      <trkpt lat="43.22260833" lon="-6.83054833">
        <ele>818.0</ele>
        <time>2022-06-19T06:27:18.995Z</time>
      </trkpt>
      <trkpt lat="43.22260833" lon="-6.83054833">
        <ele>818.0</ele>
        <time>2022-06-19T06:27:20.001Z</time>
      </trkpt>
      <trkpt lat="43.22250167" lon="-6.83065667">
        <ele>816.0</ele>
        <time>2022-06-19T06:27:21.024Z</time>
      </trkpt>
      <trkpt lat="43.22250167" lon="-6.83065667">
        <ele>816.0</ele>
        <time>2022-06-19T06:27:21.990Z</time>
      </trkpt>
      <trkpt lat="43.22237667" lon="-6.830775">
        <ele>814.0</ele>
        <time>2022-06-19T06:27:23.016Z</time>
      </trkpt>
      <trkpt lat="43.22237667" lon="-6.830775">
        <ele>814.0</ele>
        <time>2022-06-19T06:27:24.023Z</time>
      </trkpt>
      <trkpt lat="43.22225" lon="-6.830885">
        <ele>812.0</ele>
        <time>2022-06-19T06:27:25.008Z</time>
      </trkpt>
      <trkpt lat="43.22225" lon="-6.830885">
        <ele>812.0</ele>
        <time>2022-06-19T06:27:26.014Z</time>
      </trkpt>
      <trkpt lat="43.22213833" lon="-6.83096667">
        <ele>811.0</ele>
        <time>2022-06-19T06:27:26.997Z</time>
      </trkpt>
      <trkpt lat="43.22213833" lon="-6.83096667">
        <ele>811.0</ele>
        <time>2022-06-19T06:27:28.004Z</time>
      </trkpt>
      <trkpt lat="43.22201167" lon="-6.83106167">
        <ele>808.0</ele>
        <time>2022-06-19T06:27:28.993Z</time>
      </trkpt>
      <trkpt lat="43.22201167" lon="-6.83106167">
        <ele>808.0</ele>
        <time>2022-06-19T06:27:29.999Z</time>
      </trkpt>
      <trkpt lat="43.22187167" lon="-6.83116833">
        <ele>806.0</ele>
        <time>2022-06-19T06:27:30.993Z</time>
      </trkpt>
      <trkpt lat="43.22187167" lon="-6.83116833">
        <ele>806.0</ele>
        <time>2022-06-19T06:27:32.009Z</time>
      </trkpt>
      <trkpt lat="43.22172167" lon="-6.831265">
        <ele>804.0</ele>
        <time>2022-06-19T06:27:33.002Z</time>
      </trkpt>
      <trkpt lat="43.22172167" lon="-6.831265">
        <ele>804.0</ele>
        <time>2022-06-19T06:27:34.009Z</time>
      </trkpt>
      <trkpt lat="43.22156667" lon="-6.83135333">
        <ele>802.0</ele>
        <time>2022-06-19T06:27:35.006Z</time>
      </trkpt>
      <trkpt lat="43.22156667" lon="-6.83135333">
        <ele>802.0</ele>
        <time>2022-06-19T06:27:35.996Z</time>
      </trkpt>
      <trkpt lat="43.22143" lon="-6.83141167">
        <ele>801.0</ele>
        <time>2022-06-19T06:27:36.989Z</time>
      </trkpt>
      <trkpt lat="43.22143" lon="-6.83141167">
        <ele>801.0</ele>
        <time>2022-06-19T06:27:37.995Z</time>
      </trkpt>
      <trkpt lat="43.221325" lon="-6.83141167">
        <ele>800.0</ele>
        <time>2022-06-19T06:27:38.993Z</time>
      </trkpt>
      <trkpt lat="43.221325" lon="-6.83141167">
        <ele>800.0</ele>
        <time>2022-06-19T06:27:39.999Z</time>
      </trkpt>
      <trkpt lat="43.22124667" lon="-6.83133833">
        <ele>801.0</ele>
        <time>2022-06-19T06:27:40.989Z</time>
      </trkpt>
      <trkpt lat="43.22124667" lon="-6.83133833">
        <ele>801.0</ele>
        <time>2022-06-19T06:27:41.995Z</time>
      </trkpt>
      <trkpt lat="43.22119167" lon="-6.831205">
        <ele>800.0</ele>
        <time>2022-06-19T06:27:42.998Z</time>
      </trkpt>
      <trkpt lat="43.22119167" lon="-6.831205">
        <ele>800.0</ele>
        <time>2022-06-19T06:27:44.004Z</time>
      </trkpt>
      <trkpt lat="43.22115" lon="-6.831055">
        <ele>798.0</ele>
        <time>2022-06-19T06:27:44.993Z</time>
      </trkpt>
      <trkpt lat="43.22112667" lon="-6.83098667">
        <ele>797.0</ele>
        <time>2022-06-19T06:27:45.999Z</time>
      </trkpt>
      <trkpt lat="43.22112667" lon="-6.83098667">
        <ele>797.0</ele>
        <time>2022-06-19T06:27:47.008Z</time>
      </trkpt>
      <trkpt lat="43.22105" lon="-6.83090167">
        <ele>795.0</ele>
        <time>2022-06-19T06:27:48.026Z</time>
      </trkpt>
      <trkpt lat="43.22099667" lon="-6.83087333">
        <ele>794.0</ele>
        <time>2022-06-19T06:27:49.014Z</time>
      </trkpt>
      <trkpt lat="43.22099667" lon="-6.83087333">
        <ele>794.0</ele>
        <time>2022-06-19T06:27:50.023Z</time>
      </trkpt>
      <trkpt lat="43.220875" lon="-6.830835">
        <ele>792.0</ele>
        <time>2022-06-19T06:27:51.012Z</time>
      </trkpt>
      <trkpt lat="43.220875" lon="-6.830835">
        <ele>792.0</ele>
        <time>2022-06-19T06:27:52.022Z</time>
      </trkpt>
      <trkpt lat="43.22076667" lon="-6.83082333">
        <ele>789.0</ele>
        <time>2022-06-19T06:27:53.012Z</time>
      </trkpt>
      <trkpt lat="43.22071667" lon="-6.83081833">
        <ele>788.0</ele>
        <time>2022-06-19T06:27:54.009Z</time>
      </trkpt>
      <trkpt lat="43.22067" lon="-6.83081333">
        <ele>787.0</ele>
        <time>2022-06-19T06:27:54.992Z</time>
      </trkpt>
      <trkpt lat="43.22067" lon="-6.83081333">
        <ele>787.0</ele>
        <time>2022-06-19T06:27:55.999Z</time>
      </trkpt>
      <trkpt lat="43.22059667" lon="-6.83080167">
        <ele>785.0</ele>
        <time>2022-06-19T06:27:56.993Z</time>
      </trkpt>
      <trkpt lat="43.22056833" lon="-6.83080833">
        <ele>784.0</ele>
        <time>2022-06-19T06:27:58.005Z</time>
      </trkpt>
      <trkpt lat="43.22056833" lon="-6.83080833">
        <ele>784.0</ele>
        <time>2022-06-19T06:27:59.024Z</time>
      </trkpt>
      <trkpt lat="43.22054167" lon="-6.830875">
        <ele>782.0</ele>
        <time>2022-06-19T06:28:00.025Z</time>
      </trkpt>
      <trkpt lat="43.22054333" lon="-6.83092333">
        <ele>781.0</ele>
        <time>2022-06-19T06:28:01.013Z</time>
      </trkpt>
      <trkpt lat="43.22054333" lon="-6.83092333">
        <ele>781.0</ele>
        <time>2022-06-19T06:28:02.023Z</time>
      </trkpt>
      <trkpt lat="43.22056667" lon="-6.83103833">
        <ele>780.0</ele>
        <time>2022-06-19T06:28:03.007Z</time>
      </trkpt>
      <trkpt lat="43.22056667" lon="-6.83103833">
        <ele>780.0</ele>
        <time>2022-06-19T06:28:04.013Z</time>
      </trkpt>
      <trkpt lat="43.22058833" lon="-6.831165">
        <ele>777.0</ele>
        <time>2022-06-19T06:28:05.024Z</time>
      </trkpt>
      <trkpt lat="43.22058833" lon="-6.831165">
        <ele>777.0</ele>
        <time>2022-06-19T06:28:05.989Z</time>
      </trkpt>
      <trkpt lat="43.22058667" lon="-6.83131167">
        <ele>775.0</ele>
        <time>2022-06-19T06:28:06.990Z</time>
      </trkpt>
      <trkpt lat="43.220575" lon="-6.83139833">
        <ele>774.0</ele>
        <time>2022-06-19T06:28:08.025Z</time>
      </trkpt>
      <trkpt lat="43.220575" lon="-6.83139833">
        <ele>774.0</ele>
        <time>2022-06-19T06:28:08.990Z</time>
      </trkpt>
      <trkpt lat="43.22054667" lon="-6.83157167">
        <ele>772.0</ele>
        <time>2022-06-19T06:28:10.007Z</time>
      </trkpt>
      <trkpt lat="43.22054667" lon="-6.83157167">
        <ele>772.0</ele>
        <time>2022-06-19T06:28:11.013Z</time>
      </trkpt>
      <trkpt lat="43.22049333" lon="-6.83172333">
        <ele>770.0</ele>
        <time>2022-06-19T06:28:12.006Z</time>
      </trkpt>
      <trkpt lat="43.220465" lon="-6.83180167">
        <ele>768.0</ele>
        <time>2022-06-19T06:28:13.027Z</time>
      </trkpt>
      <trkpt lat="43.220465" lon="-6.83180167">
        <ele>768.0</ele>
        <time>2022-06-19T06:28:13.992Z</time>
      </trkpt>
      <trkpt lat="43.22044" lon="-6.83197167">
        <ele>766.0</ele>
        <time>2022-06-19T06:28:14.998Z</time>
      </trkpt>
      <trkpt lat="43.22044" lon="-6.83197167">
        <ele>766.0</ele>
        <time>2022-06-19T06:28:16.004Z</time>
      </trkpt>
      <trkpt lat="43.22043167" lon="-6.83214667">
        <ele>764.0</ele>
        <time>2022-06-19T06:28:16.991Z</time>
      </trkpt>
      <trkpt lat="43.22043" lon="-6.83224167">
        <ele>763.0</ele>
        <time>2022-06-19T06:28:18.012Z</time>
      </trkpt>
      <trkpt lat="43.22042833" lon="-6.83234167">
        <ele>762.0</ele>
        <time>2022-06-19T06:28:19.004Z</time>
      </trkpt>
      <trkpt lat="43.22042833" lon="-6.83234167">
        <ele>762.0</ele>
        <time>2022-06-19T06:28:20.009Z</time>
      </trkpt>
      <trkpt lat="43.22043333" lon="-6.83252167">
        <ele>760.0</ele>
        <time>2022-06-19T06:28:21.004Z</time>
      </trkpt>
      <trkpt lat="43.22043333" lon="-6.83252167">
        <ele>760.0</ele>
        <time>2022-06-19T06:28:22.010Z</time>
      </trkpt>
      <trkpt lat="43.220455" lon="-6.83266333">
        <ele>758.0</ele>
        <time>2022-06-19T06:28:23.006Z</time>
      </trkpt>
      <trkpt lat="43.220455" lon="-6.83266333">
        <ele>758.0</ele>
        <time>2022-06-19T06:28:24.012Z</time>
      </trkpt>
      <trkpt lat="43.220485" lon="-6.83281">
        <ele>757.0</ele>
        <time>2022-06-19T06:28:25.000Z</time>
      </trkpt>
      <trkpt lat="43.220485" lon="-6.83281">
        <ele>757.0</ele>
        <time>2022-06-19T06:28:26.007Z</time>
      </trkpt>
      <trkpt lat="43.22052667" lon="-6.832955">
        <ele>755.0</ele>
        <time>2022-06-19T06:28:26.999Z</time>
      </trkpt>
      <trkpt lat="43.22052667" lon="-6.832955">
        <ele>755.0</ele>
        <time>2022-06-19T06:28:28.005Z</time>
      </trkpt>
      <trkpt lat="43.22056833" lon="-6.83308833">
        <ele>753.0</ele>
        <time>2022-06-19T06:28:29.028Z</time>
      </trkpt>
      <trkpt lat="43.22056833" lon="-6.83308833">
        <ele>753.0</ele>
        <time>2022-06-19T06:28:29.994Z</time>
      </trkpt>
      <trkpt lat="43.22060833" lon="-6.83321333">
        <ele>751.0</ele>
        <time>2022-06-19T06:28:31.028Z</time>
      </trkpt>
      <trkpt lat="43.22060833" lon="-6.83321333">
        <ele>751.0</ele>
        <time>2022-06-19T06:28:31.994Z</time>
      </trkpt>
      <trkpt lat="43.22065" lon="-6.83330667">
        <ele>750.0</ele>
        <time>2022-06-19T06:28:33.005Z</time>
      </trkpt>
      <trkpt lat="43.22065" lon="-6.83330667">
        <ele>750.0</ele>
        <time>2022-06-19T06:28:34.010Z</time>
      </trkpt>
      <trkpt lat="43.22067333" lon="-6.833395">
        <ele>749.0</ele>
        <time>2022-06-19T06:28:35.003Z</time>
      </trkpt>
      <trkpt lat="43.22067333" lon="-6.833395">
        <ele>749.0</ele>
        <time>2022-06-19T06:28:36.009Z</time>
      </trkpt>
      <trkpt lat="43.220705" lon="-6.83349667">
        <ele>747.0</ele>
        <time>2022-06-19T06:28:36.998Z</time>
      </trkpt>
      <trkpt lat="43.220705" lon="-6.83349667">
        <ele>747.0</ele>
        <time>2022-06-19T06:28:38.003Z</time>
      </trkpt>
      <trkpt lat="43.22073167" lon="-6.83363167">
        <ele>745.0</ele>
        <time>2022-06-19T06:28:38.995Z</time>
      </trkpt>
      <trkpt lat="43.22075333" lon="-6.83369833">
        <ele>743.0</ele>
        <time>2022-06-19T06:28:40.020Z</time>
      </trkpt>
      <trkpt lat="43.22075333" lon="-6.83369833">
        <ele>743.0</ele>
        <time>2022-06-19T06:28:41.026Z</time>
      </trkpt>
      <trkpt lat="43.22080167" lon="-6.83382667">
        <ele>741.0</ele>
        <time>2022-06-19T06:28:42.024Z</time>
      </trkpt>
      <trkpt lat="43.22083167" lon="-6.833895">
        <ele>740.0</ele>
        <time>2022-06-19T06:28:43.038Z</time>
      </trkpt>
      <trkpt lat="43.22083167" lon="-6.833895">
        <ele>740.0</ele>
        <time>2022-06-19T06:28:44.010Z</time>
      </trkpt>
      <trkpt lat="43.220915" lon="-6.83402833">
        <ele>737.0</ele>
        <time>2022-06-19T06:28:45.003Z</time>
      </trkpt>
      <trkpt lat="43.220915" lon="-6.83402833">
        <ele>737.0</ele>
        <time>2022-06-19T06:28:46.009Z</time>
      </trkpt>
      <trkpt lat="43.22100667" lon="-6.83414167">
        <ele>734.0</ele>
        <time>2022-06-19T06:28:47.003Z</time>
      </trkpt>
      <trkpt lat="43.22100667" lon="-6.83414167">
        <ele>734.0</ele>
        <time>2022-06-19T06:28:47.996Z</time>
      </trkpt>
      <trkpt lat="43.221115" lon="-6.83427833">
        <ele>731.0</ele>
        <time>2022-06-19T06:28:49.000Z</time>
      </trkpt>
      <trkpt lat="43.221115" lon="-6.83427833">
        <ele>731.0</ele>
        <time>2022-06-19T06:28:50.005Z</time>
      </trkpt>
      <trkpt lat="43.22124333" lon="-6.83443">
        <ele>729.0</ele>
        <time>2022-06-19T06:28:51.005Z</time>
      </trkpt>
      <trkpt lat="43.22130833" lon="-6.83449833">
        <ele>727.0</ele>
        <time>2022-06-19T06:28:52.022Z</time>
      </trkpt>
      <trkpt lat="43.22130833" lon="-6.83449833">
        <ele>727.0</ele>
        <time>2022-06-19T06:28:53.028Z</time>
      </trkpt>
      <trkpt lat="43.22142833" lon="-6.83463">
        <ele>724.0</ele>
        <time>2022-06-19T06:28:54.023Z</time>
      </trkpt>
      <trkpt lat="43.22148833" lon="-6.83469667">
        <ele>723.0</ele>
        <time>2022-06-19T06:28:55.010Z</time>
      </trkpt>
      <trkpt lat="43.22148833" lon="-6.83469667">
        <ele>723.0</ele>
        <time>2022-06-19T06:28:56.016Z</time>
      </trkpt>
      <trkpt lat="43.22161" lon="-6.83481333">
        <ele>720.0</ele>
        <time>2022-06-19T06:28:57.005Z</time>
      </trkpt>
      <trkpt lat="43.22161" lon="-6.83481333">
        <ele>720.0</ele>
        <time>2022-06-19T06:28:58.010Z</time>
      </trkpt>
      <trkpt lat="43.22172667" lon="-6.83492167">
        <ele>717.0</ele>
        <time>2022-06-19T06:28:59.006Z</time>
      </trkpt>
      <trkpt lat="43.22178333" lon="-6.83496333">
        <ele>715.0</ele>
        <time>2022-06-19T06:29:00.011Z</time>
      </trkpt>
      <trkpt lat="43.22183333" lon="-6.83500833">
        <ele>714.0</ele>
        <time>2022-06-19T06:29:00.998Z</time>
      </trkpt>
      <trkpt lat="43.22183333" lon="-6.83500833">
        <ele>714.0</ele>
        <time>2022-06-19T06:29:02.004Z</time>
      </trkpt>
      <trkpt lat="43.22194667" lon="-6.83513">
        <ele>713.0</ele>
        <time>2022-06-19T06:29:02.994Z</time>
      </trkpt>
      <trkpt lat="43.22194667" lon="-6.83513">
        <ele>713.0</ele>
        <time>2022-06-19T06:29:03.999Z</time>
      </trkpt>
      <trkpt lat="43.22209167" lon="-6.83524167">
        <ele>711.0</ele>
        <time>2022-06-19T06:29:04.990Z</time>
      </trkpt>
      <trkpt lat="43.22209167" lon="-6.83524167">
        <ele>711.0</ele>
        <time>2022-06-19T06:29:05.995Z</time>
      </trkpt>
      <trkpt lat="43.2222" lon="-6.835315">
        <ele>708.0</ele>
        <time>2022-06-19T06:29:07.003Z</time>
      </trkpt>
      <trkpt lat="43.22223333" lon="-6.83535833">
        <ele>708.0</ele>
        <time>2022-06-19T06:29:08.006Z</time>
      </trkpt>
      <trkpt lat="43.22223333" lon="-6.83535833">
        <ele>708.0</ele>
        <time>2022-06-19T06:29:09.012Z</time>
      </trkpt>
      <trkpt lat="43.222255" lon="-6.835465">
        <ele>707.0</ele>
        <time>2022-06-19T06:29:10.023Z</time>
      </trkpt>
      <trkpt lat="43.222255" lon="-6.835465">
        <ele>707.0</ele>
        <time>2022-06-19T06:29:10.989Z</time>
      </trkpt>
      <trkpt lat="43.22220833" lon="-6.83557333">
        <ele>706.0</ele>
        <time>2022-06-19T06:29:12.024Z</time>
      </trkpt>
      <trkpt lat="43.22217" lon="-6.83562333">
        <ele>705.0</ele>
        <time>2022-06-19T06:29:13.018Z</time>
      </trkpt>
      <trkpt lat="43.22217" lon="-6.83562333">
        <ele>705.0</ele>
        <time>2022-06-19T06:29:14.024Z</time>
      </trkpt>
      <trkpt lat="43.22207667" lon="-6.83573167">
        <ele>703.0</ele>
        <time>2022-06-19T06:29:15.024Z</time>
      </trkpt>
      <trkpt lat="43.22207667" lon="-6.83573167">
        <ele>703.0</ele>
        <time>2022-06-19T06:29:15.990Z</time>
      </trkpt>
      <trkpt lat="43.22197833" lon="-6.835835">
        <ele>701.0</ele>
        <time>2022-06-19T06:29:16.994Z</time>
      </trkpt>
      <trkpt lat="43.22197833" lon="-6.835835">
        <ele>701.0</ele>
        <time>2022-06-19T06:29:17.999Z</time>
      </trkpt>
      <trkpt lat="43.22189" lon="-6.83594167">
        <ele>699.0</ele>
        <time>2022-06-19T06:29:18.993Z</time>
      </trkpt>
      <trkpt lat="43.22189" lon="-6.83594167">
        <ele>699.0</ele>
        <time>2022-06-19T06:29:19.999Z</time>
      </trkpt>
      <trkpt lat="43.221805" lon="-6.83602">
        <ele>697.0</ele>
        <time>2022-06-19T06:29:21.027Z</time>
      </trkpt>
      <trkpt lat="43.221805" lon="-6.83602">
        <ele>697.0</ele>
        <time>2022-06-19T06:29:21.992Z</time>
      </trkpt>
      <trkpt lat="43.221705" lon="-6.83607333">
        <ele>695.0</ele>
        <time>2022-06-19T06:29:23.005Z</time>
      </trkpt>
      <trkpt lat="43.221705" lon="-6.83607333">
        <ele>695.0</ele>
        <time>2022-06-19T06:29:24.011Z</time>
      </trkpt>
      <trkpt lat="43.22161667" lon="-6.83614">
        <ele>693.0</ele>
        <time>2022-06-19T06:29:25.013Z</time>
      </trkpt>
      <trkpt lat="43.22161667" lon="-6.83614">
        <ele>693.0</ele>
        <time>2022-06-19T06:29:26.019Z</time>
      </trkpt>
      <trkpt lat="43.22152167" lon="-6.83620333">
        <ele>692.0</ele>
        <time>2022-06-19T06:29:26.993Z</time>
      </trkpt>
      <trkpt lat="43.22152167" lon="-6.83620333">
        <ele>692.0</ele>
        <time>2022-06-19T06:29:27.999Z</time>
      </trkpt>
      <trkpt lat="43.22142" lon="-6.83627167">
        <ele>688.0</ele>
        <time>2022-06-19T06:29:29.003Z</time>
      </trkpt>
      <trkpt lat="43.22142" lon="-6.83627167">
        <ele>688.0</ele>
        <time>2022-06-19T06:29:30.009Z</time>
      </trkpt>
      <trkpt lat="43.22133667" lon="-6.83632833">
        <ele>685.0</ele>
        <time>2022-06-19T06:29:31.024Z</time>
      </trkpt>
      <trkpt lat="43.22133667" lon="-6.83632833">
        <ele>685.0</ele>
        <time>2022-06-19T06:29:31.990Z</time>
      </trkpt>
      <trkpt lat="43.22125167" lon="-6.83638">
        <ele>683.0</ele>
        <time>2022-06-19T06:29:32.991Z</time>
      </trkpt>
      <trkpt lat="43.22125167" lon="-6.83638">
        <ele>683.0</ele>
        <time>2022-06-19T06:29:33.997Z</time>
      </trkpt>
      <trkpt lat="43.221145" lon="-6.83638333">
        <ele>681.0</ele>
        <time>2022-06-19T06:29:35.028Z</time>
      </trkpt>
      <trkpt lat="43.221145" lon="-6.83638333">
        <ele>681.0</ele>
        <time>2022-06-19T06:29:35.994Z</time>
      </trkpt>
      <trkpt lat="43.221015" lon="-6.83634667">
        <ele>679.0</ele>
        <time>2022-06-19T06:29:37.025Z</time>
      </trkpt>
      <trkpt lat="43.221015" lon="-6.83634667">
        <ele>679.0</ele>
        <time>2022-06-19T06:29:37.991Z</time>
      </trkpt>
      <trkpt lat="43.22089167" lon="-6.83629333">
        <ele>678.0</ele>
        <time>2022-06-19T06:29:39.025Z</time>
      </trkpt>
      <trkpt lat="43.22089167" lon="-6.83629333">
        <ele>678.0</ele>
        <time>2022-06-19T06:29:39.991Z</time>
      </trkpt>
      <trkpt lat="43.22081833" lon="-6.83626833">
        <ele>676.0</ele>
        <time>2022-06-19T06:29:41.023Z</time>
      </trkpt>
      <trkpt lat="43.22081833" lon="-6.83626833">
        <ele>676.0</ele>
        <time>2022-06-19T06:29:41.989Z</time>
      </trkpt>
      <trkpt lat="43.220785" lon="-6.836325">
        <ele>675.0</ele>
        <time>2022-06-19T06:29:43.010Z</time>
      </trkpt>
      <trkpt lat="43.220785" lon="-6.836325">
        <ele>675.0</ele>
        <time>2022-06-19T06:29:44.016Z</time>
      </trkpt>
      <trkpt lat="43.22081833" lon="-6.83641833">
        <ele>674.0</ele>
        <time>2022-06-19T06:29:45.010Z</time>
      </trkpt>
      <trkpt lat="43.22085667" lon="-6.83647333">
        <ele>673.0</ele>
        <time>2022-06-19T06:29:46.003Z</time>
      </trkpt>
      <trkpt lat="43.22085667" lon="-6.83647333">
        <ele>673.0</ele>
        <time>2022-06-19T06:29:47.008Z</time>
      </trkpt>
      <trkpt lat="43.22095167" lon="-6.83659167">
        <ele>672.0</ele>
        <time>2022-06-19T06:29:48.001Z</time>
      </trkpt>
      <trkpt lat="43.22100833" lon="-6.83665333">
        <ele>670.0</ele>
        <time>2022-06-19T06:29:49.026Z</time>
      </trkpt>
      <trkpt lat="43.22100833" lon="-6.83665333">
        <ele>670.0</ele>
        <time>2022-06-19T06:29:49.991Z</time>
      </trkpt>
      <trkpt lat="43.22112" lon="-6.83677833">
        <ele>668.0</ele>
        <time>2022-06-19T06:29:51.028Z</time>
      </trkpt>
      <trkpt lat="43.22112" lon="-6.83677833">
        <ele>668.0</ele>
        <time>2022-06-19T06:29:51.995Z</time>
      </trkpt>
      <trkpt lat="43.22124" lon="-6.836935">
        <ele>665.0</ele>
        <time>2022-06-19T06:29:53.028Z</time>
      </trkpt>
      <trkpt lat="43.22124" lon="-6.836935">
        <ele>665.0</ele>
        <time>2022-06-19T06:29:53.994Z</time>
      </trkpt>
      <trkpt lat="43.22137333" lon="-6.83707">
        <ele>662.0</ele>
        <time>2022-06-19T06:29:54.994Z</time>
      </trkpt>
      <trkpt lat="43.22137333" lon="-6.83707">
        <ele>662.0</ele>
        <time>2022-06-19T06:29:56.001Z</time>
      </trkpt>
      <trkpt lat="43.22149833" lon="-6.83715167">
        <ele>660.0</ele>
        <time>2022-06-19T06:29:57.027Z</time>
      </trkpt>
      <trkpt lat="43.22156167" lon="-6.83718833">
        <ele>659.0</ele>
        <time>2022-06-19T06:29:58.017Z</time>
      </trkpt>
      <trkpt lat="43.22156167" lon="-6.83718833">
        <ele>659.0</ele>
        <time>2022-06-19T06:29:58.996Z</time>
      </trkpt>
      <trkpt lat="43.22166667" lon="-6.83725">
        <ele>657.0</ele>
        <time>2022-06-19T06:30:00.003Z</time>
      </trkpt>
      <trkpt lat="43.22171167" lon="-6.83726667">
        <ele>657.0</ele>
        <time>2022-06-19T06:30:00.996Z</time>
      </trkpt>
      <trkpt lat="43.22171167" lon="-6.83726667">
        <ele>657.0</ele>
        <time>2022-06-19T06:30:02.010Z</time>
      </trkpt>
      <trkpt lat="43.22179333" lon="-6.83731167">
        <ele>655.0</ele>
        <time>2022-06-19T06:30:03.010Z</time>
      </trkpt>
      <trkpt lat="43.22179333" lon="-6.83731167">
        <ele>655.0</ele>
        <time>2022-06-19T06:30:04.015Z</time>
      </trkpt>
      <trkpt lat="43.22187167" lon="-6.83737333">
        <ele>653.0</ele>
        <time>2022-06-19T06:30:05.006Z</time>
      </trkpt>
      <trkpt lat="43.22191" lon="-6.83739833">
        <ele>652.0</ele>
        <time>2022-06-19T06:30:06.008Z</time>
      </trkpt>
      <trkpt lat="43.22194667" lon="-6.83742">
        <ele>651.0</ele>
        <time>2022-06-19T06:30:06.996Z</time>
      </trkpt>
      <trkpt lat="43.22194667" lon="-6.83742">
        <ele>651.0</ele>
        <time>2022-06-19T06:30:08.002Z</time>
      </trkpt>
      <trkpt lat="43.22203667" lon="-6.837465">
        <ele>650.0</ele>
        <time>2022-06-19T06:30:08.991Z</time>
      </trkpt>
      <trkpt lat="43.22203667" lon="-6.837465">
        <ele>650.0</ele>
        <time>2022-06-19T06:30:09.998Z</time>
      </trkpt>
      <trkpt lat="43.22215667" lon="-6.83751">
        <ele>648.0</ele>
        <time>2022-06-19T06:30:11.018Z</time>
      </trkpt>
      <trkpt lat="43.22215667" lon="-6.83751">
        <ele>648.0</ele>
        <time>2022-06-19T06:30:12.023Z</time>
      </trkpt>
      <trkpt lat="43.22228167" lon="-6.83752">
        <ele>645.0</ele>
        <time>2022-06-19T06:30:13.014Z</time>
      </trkpt>
      <trkpt lat="43.22228167" lon="-6.83752">
        <ele>645.0</ele>
        <time>2022-06-19T06:30:14.023Z</time>
      </trkpt>
      <trkpt lat="43.22239167" lon="-6.83753167">
        <ele>642.0</ele>
        <time>2022-06-19T06:30:15.024Z</time>
      </trkpt>
      <trkpt lat="43.22239167" lon="-6.83753167">
        <ele>642.0</ele>
        <time>2022-06-19T06:30:15.990Z</time>
      </trkpt>
      <trkpt lat="43.22248667" lon="-6.83753333">
        <ele>640.0</ele>
        <time>2022-06-19T06:30:17.028Z</time>
      </trkpt>
      <trkpt lat="43.22253167" lon="-6.83752333">
        <ele>639.0</ele>
        <time>2022-06-19T06:30:18.020Z</time>
      </trkpt>
      <trkpt lat="43.22258" lon="-6.83751">
        <ele>638.0</ele>
        <time>2022-06-19T06:30:19.018Z</time>
      </trkpt>
      <trkpt lat="43.22258" lon="-6.83751">
        <ele>638.0</ele>
        <time>2022-06-19T06:30:20.025Z</time>
      </trkpt>
      <trkpt lat="43.22268333" lon="-6.83746667">
        <ele>637.0</ele>
        <time>2022-06-19T06:30:21.027Z</time>
      </trkpt>
      <trkpt lat="43.22268333" lon="-6.83746667">
        <ele>637.0</ele>
        <time>2022-06-19T06:30:21.993Z</time>
      </trkpt>
      <trkpt lat="43.22277333" lon="-6.83741833">
        <ele>635.0</ele>
        <time>2022-06-19T06:30:23.020Z</time>
      </trkpt>
      <trkpt lat="43.22280667" lon="-6.83739333">
        <ele>635.0</ele>
        <time>2022-06-19T06:30:24.014Z</time>
      </trkpt>
      <trkpt lat="43.22283667" lon="-6.837375">
        <ele>634.0</ele>
        <time>2022-06-19T06:30:25.012Z</time>
      </trkpt>
      <trkpt lat="43.22283667" lon="-6.837375">
        <ele>634.0</ele>
        <time>2022-06-19T06:30:26.026Z</time>
      </trkpt>
      <trkpt lat="43.22288833" lon="-6.83735">
        <ele>633.0</ele>
        <time>2022-06-19T06:30:27.019Z</time>
      </trkpt>
      <trkpt lat="43.22288833" lon="-6.83735">
        <ele>633.0</ele>
        <time>2022-06-19T06:30:28.024Z</time>
      </trkpt>
      <trkpt lat="43.222935" lon="-6.83731333">
        <ele>633.0</ele>
        <time>2022-06-19T06:30:29.016Z</time>
      </trkpt>
      <trkpt lat="43.222935" lon="-6.83731333">
        <ele>633.0</ele>
        <time>2022-06-19T06:30:30.022Z</time>
      </trkpt>
      <trkpt lat="43.22298833" lon="-6.83726167">
        <ele>632.0</ele>
        <time>2022-06-19T06:30:31.013Z</time>
      </trkpt>
      <trkpt lat="43.22298833" lon="-6.83726167">
        <ele>632.0</ele>
        <time>2022-06-19T06:30:32.019Z</time>
      </trkpt>
      <trkpt lat="43.22305" lon="-6.8372">
        <ele>631.0</ele>
        <time>2022-06-19T06:30:33.014Z</time>
      </trkpt>
      <trkpt lat="43.22305" lon="-6.8372">
        <ele>631.0</ele>
        <time>2022-06-19T06:30:34.019Z</time>
      </trkpt>
      <trkpt lat="43.22312833" lon="-6.83711833">
        <ele>630.0</ele>
        <time>2022-06-19T06:30:35.004Z</time>
      </trkpt>
      <trkpt lat="43.22312833" lon="-6.83711833">
        <ele>630.0</ele>
        <time>2022-06-19T06:30:36.009Z</time>
      </trkpt>
      <trkpt lat="43.223205" lon="-6.83701333">
        <ele>629.0</ele>
        <time>2022-06-19T06:30:36.994Z</time>
      </trkpt>
      <trkpt lat="43.223205" lon="-6.83701333">
        <ele>629.0</ele>
        <time>2022-06-19T06:30:38.000Z</time>
      </trkpt>
      <trkpt lat="43.22326667" lon="-6.83692667">
        <ele>628.0</ele>
        <time>2022-06-19T06:30:38.990Z</time>
      </trkpt>
      <trkpt lat="43.22326667" lon="-6.83692667">
        <ele>628.0</ele>
        <time>2022-06-19T06:30:39.996Z</time>
      </trkpt>
      <trkpt lat="43.22331333" lon="-6.83690833">
        <ele>626.0</ele>
        <time>2022-06-19T06:30:41.024Z</time>
      </trkpt>
      <trkpt lat="43.22331333" lon="-6.83690833">
        <ele>626.0</ele>
        <time>2022-06-19T06:30:41.990Z</time>
      </trkpt>
      <trkpt lat="43.22332" lon="-6.83695667">
        <ele>626.0</ele>
        <time>2022-06-19T06:30:43.018Z</time>
      </trkpt>
      <trkpt lat="43.22332" lon="-6.83695667">
        <ele>626.0</ele>
        <time>2022-06-19T06:30:44.024Z</time>
      </trkpt>
      <trkpt lat="43.22328833" lon="-6.83702167">
        <ele>624.0</ele>
        <time>2022-06-19T06:30:45.016Z</time>
      </trkpt>
      <trkpt lat="43.22328833" lon="-6.83702167">
        <ele>624.0</ele>
        <time>2022-06-19T06:30:46.022Z</time>
      </trkpt>
      <trkpt lat="43.223245" lon="-6.83711167">
        <ele>623.0</ele>
        <time>2022-06-19T06:30:47.004Z</time>
      </trkpt>
      <trkpt lat="43.223245" lon="-6.83711167">
        <ele>623.0</ele>
        <time>2022-06-19T06:30:48.010Z</time>
      </trkpt>
      <trkpt lat="43.22321833" lon="-6.83722">
        <ele>621.0</ele>
        <time>2022-06-19T06:30:49.009Z</time>
      </trkpt>
      <trkpt lat="43.22321833" lon="-6.83722">
        <ele>621.0</ele>
        <time>2022-06-19T06:30:50.014Z</time>
      </trkpt>
      <trkpt lat="43.22320667" lon="-6.83734167">
        <ele>620.0</ele>
        <time>2022-06-19T06:30:51.001Z</time>
      </trkpt>
      <trkpt lat="43.22320667" lon="-6.83734167">
        <ele>620.0</ele>
        <time>2022-06-19T06:30:52.010Z</time>
      </trkpt>
      <trkpt lat="43.22319667" lon="-6.83744667">
        <ele>618.0</ele>
        <time>2022-06-19T06:30:53.012Z</time>
      </trkpt>
      <trkpt lat="43.22319667" lon="-6.83744667">
        <ele>618.0</ele>
        <time>2022-06-19T06:30:54.025Z</time>
      </trkpt>
      <trkpt lat="43.22317" lon="-6.837525">
        <ele>617.0</ele>
        <time>2022-06-19T06:30:55.014Z</time>
      </trkpt>
      <trkpt lat="43.22317" lon="-6.837525">
        <ele>617.0</ele>
        <time>2022-06-19T06:30:56.025Z</time>
      </trkpt>
      <trkpt lat="43.22314" lon="-6.83760667">
        <ele>615.0</ele>
        <time>2022-06-19T06:30:57.022Z</time>
      </trkpt>
      <trkpt lat="43.22312" lon="-6.83766">
        <ele>614.0</ele>
        <time>2022-06-19T06:30:58.011Z</time>
      </trkpt>
      <trkpt lat="43.22312" lon="-6.83766">
        <ele>614.0</ele>
        <time>2022-06-19T06:30:59.027Z</time>
      </trkpt>
      <trkpt lat="43.22306833" lon="-6.83776667">
        <ele>612.0</ele>
        <time>2022-06-19T06:30:59.999Z</time>
      </trkpt>
      <trkpt lat="43.22306833" lon="-6.83776667">
        <ele>612.0</ele>
        <time>2022-06-19T06:31:01.006Z</time>
      </trkpt>
      <trkpt lat="43.223015" lon="-6.83788">
        <ele>609.0</ele>
        <time>2022-06-19T06:31:02.028Z</time>
      </trkpt>
      <trkpt lat="43.223015" lon="-6.83788">
        <ele>609.0</ele>
        <time>2022-06-19T06:31:02.994Z</time>
      </trkpt>
      <trkpt lat="43.22296833" lon="-6.83799333">
        <ele>608.0</ele>
        <time>2022-06-19T06:31:04.027Z</time>
      </trkpt>
      <trkpt lat="43.22294" lon="-6.83806">
        <ele>607.0</ele>
        <time>2022-06-19T06:31:05.012Z</time>
      </trkpt>
      <trkpt lat="43.22294" lon="-6.83806">
        <ele>607.0</ele>
        <time>2022-06-19T06:31:06.019Z</time>
      </trkpt>
      <trkpt lat="43.22288333" lon="-6.83818">
        <ele>605.0</ele>
        <time>2022-06-19T06:31:07.002Z</time>
      </trkpt>
      <trkpt lat="43.22288333" lon="-6.83818">
        <ele>605.0</ele>
        <time>2022-06-19T06:31:08.008Z</time>
      </trkpt>
      <trkpt lat="43.22281333" lon="-6.83830667">
        <ele>602.0</ele>
        <time>2022-06-19T06:31:09.017Z</time>
      </trkpt>
      <trkpt lat="43.22281333" lon="-6.83830667">
        <ele>602.0</ele>
        <time>2022-06-19T06:31:10.023Z</time>
      </trkpt>
      <trkpt lat="43.22270667" lon="-6.83844833">
        <ele>599.0</ele>
        <time>2022-06-19T06:31:11.010Z</time>
      </trkpt>
      <trkpt lat="43.22270667" lon="-6.83844833">
        <ele>599.0</ele>
        <time>2022-06-19T06:31:12.017Z</time>
      </trkpt>
      <trkpt lat="43.22262333" lon="-6.83859333">
        <ele>598.0</ele>
        <time>2022-06-19T06:31:13.013Z</time>
      </trkpt>
      <trkpt lat="43.22258833" lon="-6.83868">
        <ele>596.0</ele>
        <time>2022-06-19T06:31:13.999Z</time>
      </trkpt>
      <trkpt lat="43.22258833" lon="-6.83868">
        <ele>596.0</ele>
        <time>2022-06-19T06:31:15.005Z</time>
      </trkpt>
      <trkpt lat="43.22253333" lon="-6.838865">
        <ele>594.0</ele>
        <time>2022-06-19T06:31:16.001Z</time>
      </trkpt>
      <trkpt lat="43.22251167" lon="-6.83895167">
        <ele>594.0</ele>
        <time>2022-06-19T06:31:16.996Z</time>
      </trkpt>
      <trkpt lat="43.22251167" lon="-6.83895167">
        <ele>594.0</ele>
        <time>2022-06-19T06:31:18.002Z</time>
      </trkpt>
      <trkpt lat="43.22247667" lon="-6.83910167">
        <ele>592.0</ele>
        <time>2022-06-19T06:31:18.995Z</time>
      </trkpt>
      <trkpt lat="43.22247667" lon="-6.83910167">
        <ele>592.0</ele>
        <time>2022-06-19T06:31:20.000Z</time>
      </trkpt>
      <trkpt lat="43.22244833" lon="-6.83920833">
        <ele>589.0</ele>
        <time>2022-06-19T06:31:21.004Z</time>
      </trkpt>
      <trkpt lat="43.22244833" lon="-6.83920833">
        <ele>589.0</ele>
        <time>2022-06-19T06:31:22.010Z</time>
      </trkpt>
      <trkpt lat="43.22241333" lon="-6.83930167">
        <ele>587.0</ele>
        <time>2022-06-19T06:31:22.998Z</time>
      </trkpt>
      <trkpt lat="43.222395" lon="-6.83934333">
        <ele>586.0</ele>
        <time>2022-06-19T06:31:24.024Z</time>
      </trkpt>
      <trkpt lat="43.222395" lon="-6.83934333">
        <ele>586.0</ele>
        <time>2022-06-19T06:31:25.018Z</time>
      </trkpt>
      <trkpt lat="43.22236667" lon="-6.83942333">
        <ele>584.0</ele>
        <time>2022-06-19T06:31:26.014Z</time>
      </trkpt>
      <trkpt lat="43.22236667" lon="-6.83942333">
        <ele>584.0</ele>
        <time>2022-06-19T06:31:27.020Z</time>
      </trkpt>
      <trkpt lat="43.22233333" lon="-6.83950833">
        <ele>581.0</ele>
        <time>2022-06-19T06:31:27.992Z</time>
      </trkpt>
      <trkpt lat="43.22233333" lon="-6.83950833">
        <ele>581.0</ele>
        <time>2022-06-19T06:31:28.999Z</time>
      </trkpt>
      <trkpt lat="43.22228" lon="-6.83958167">
        <ele>579.0</ele>
        <time>2022-06-19T06:31:30.000Z</time>
      </trkpt>
      <trkpt lat="43.22225167" lon="-6.83961">
        <ele>578.0</ele>
        <time>2022-06-19T06:31:31.000Z</time>
      </trkpt>
      <trkpt lat="43.22225167" lon="-6.83961">
        <ele>578.0</ele>
        <time>2022-06-19T06:31:32.005Z</time>
      </trkpt>
      <trkpt lat="43.22219167" lon="-6.83966833">
        <ele>576.0</ele>
        <time>2022-06-19T06:31:33.024Z</time>
      </trkpt>
      <trkpt lat="43.22216333" lon="-6.83969667">
        <ele>575.0</ele>
        <time>2022-06-19T06:31:34.017Z</time>
      </trkpt>
      <trkpt lat="43.22216333" lon="-6.83969667">
        <ele>575.0</ele>
        <time>2022-06-19T06:31:35.024Z</time>
      </trkpt>
      <trkpt lat="43.22211" lon="-6.83975">
        <ele>574.0</ele>
        <time>2022-06-19T06:31:36.025Z</time>
      </trkpt>
      <trkpt lat="43.222075" lon="-6.83977">
        <ele>573.0</ele>
        <time>2022-06-19T06:31:37.018Z</time>
      </trkpt>
      <trkpt lat="43.222075" lon="-6.83977">
        <ele>573.0</ele>
        <time>2022-06-19T06:31:38.026Z</time>
      </trkpt>
      <trkpt lat="43.22199" lon="-6.839785">
        <ele>571.0</ele>
        <time>2022-06-19T06:31:39.027Z</time>
      </trkpt>
      <trkpt lat="43.22194333" lon="-6.839795">
        <ele>570.0</ele>
        <time>2022-06-19T06:31:40.014Z</time>
      </trkpt>
      <trkpt lat="43.22194333" lon="-6.839795">
        <ele>570.0</ele>
        <time>2022-06-19T06:31:41.023Z</time>
      </trkpt>
      <trkpt lat="43.22184667" lon="-6.83981833">
        <ele>568.0</ele>
        <time>2022-06-19T06:31:42.017Z</time>
      </trkpt>
      <trkpt lat="43.22179667" lon="-6.83982333">
        <ele>567.0</ele>
        <time>2022-06-19T06:31:43.022Z</time>
      </trkpt>
      <trkpt lat="43.22179667" lon="-6.83982333">
        <ele>567.0</ele>
        <time>2022-06-19T06:31:44.029Z</time>
      </trkpt>
      <trkpt lat="43.22168333" lon="-6.83982">
        <ele>565.0</ele>
        <time>2022-06-19T06:31:45.025Z</time>
      </trkpt>
      <trkpt lat="43.22168333" lon="-6.83982">
        <ele>565.0</ele>
        <time>2022-06-19T06:31:45.991Z</time>
      </trkpt>
      <trkpt lat="43.22154833" lon="-6.83982">
        <ele>563.0</ele>
        <time>2022-06-19T06:31:46.994Z</time>
      </trkpt>
      <trkpt lat="43.22154833" lon="-6.83982">
        <ele>563.0</ele>
        <time>2022-06-19T06:31:47.999Z</time>
      </trkpt>
      <trkpt lat="43.22140833" lon="-6.83981333">
        <ele>560.0</ele>
        <time>2022-06-19T06:31:49.015Z</time>
      </trkpt>
      <trkpt lat="43.22140833" lon="-6.83981333">
        <ele>560.0</ele>
        <time>2022-06-19T06:31:50.028Z</time>
      </trkpt>
      <trkpt lat="43.22127" lon="-6.83980833">
        <ele>558.0</ele>
        <time>2022-06-19T06:31:51.018Z</time>
      </trkpt>
      <trkpt lat="43.22127" lon="-6.83980833">
        <ele>558.0</ele>
        <time>2022-06-19T06:31:52.024Z</time>
      </trkpt>
      <trkpt lat="43.22115833" lon="-6.839805">
        <ele>556.0</ele>
        <time>2022-06-19T06:31:53.008Z</time>
      </trkpt>
      <trkpt lat="43.22115833" lon="-6.839805">
        <ele>556.0</ele>
        <time>2022-06-19T06:31:54.014Z</time>
      </trkpt>
      <trkpt lat="43.221095" lon="-6.83984">
        <ele>554.0</ele>
        <time>2022-06-19T06:31:54.997Z</time>
      </trkpt>
      <trkpt lat="43.221095" lon="-6.83984">
        <ele>554.0</ele>
        <time>2022-06-19T06:31:56.002Z</time>
      </trkpt>
      <trkpt lat="43.22110833" lon="-6.83990167">
        <ele>553.0</ele>
        <time>2022-06-19T06:31:56.993Z</time>
      </trkpt>
      <trkpt lat="43.22110833" lon="-6.83990167">
        <ele>553.0</ele>
        <time>2022-06-19T06:31:57.999Z</time>
      </trkpt>
      <trkpt lat="43.22117167" lon="-6.83996">
        <ele>551.0</ele>
        <time>2022-06-19T06:31:59.002Z</time>
      </trkpt>
      <trkpt lat="43.22121167" lon="-6.83999">
        <ele>550.0</ele>
        <time>2022-06-19T06:32:00.019Z</time>
      </trkpt>
      <trkpt lat="43.22125167" lon="-6.84003667">
        <ele>549.0</ele>
        <time>2022-06-19T06:32:01.006Z</time>
      </trkpt>
      <trkpt lat="43.22125167" lon="-6.84003667">
        <ele>549.0</ele>
        <time>2022-06-19T06:32:02.011Z</time>
      </trkpt>
      <trkpt lat="43.22132833" lon="-6.84015667">
        <ele>546.0</ele>
        <time>2022-06-19T06:32:02.998Z</time>
      </trkpt>
      <trkpt lat="43.22132833" lon="-6.84015667">
        <ele>546.0</ele>
        <time>2022-06-19T06:32:04.004Z</time>
      </trkpt>
      <trkpt lat="43.22139667" lon="-6.84027667">
        <ele>544.0</ele>
        <time>2022-06-19T06:32:05.011Z</time>
      </trkpt>
      <trkpt lat="43.22139667" lon="-6.84027667">
        <ele>544.0</ele>
        <time>2022-06-19T06:32:06.020Z</time>
      </trkpt>
      <trkpt lat="43.22146833" lon="-6.84036833">
        <ele>541.0</ele>
        <time>2022-06-19T06:32:07.024Z</time>
      </trkpt>
      <trkpt lat="43.22146833" lon="-6.84036833">
        <ele>541.0</ele>
        <time>2022-06-19T06:32:07.990Z</time>
      </trkpt>
      <trkpt lat="43.22155833" lon="-6.84047">
        <ele>539.0</ele>
        <time>2022-06-19T06:32:09.019Z</time>
      </trkpt>
      <trkpt lat="43.22155833" lon="-6.84047">
        <ele>539.0</ele>
        <time>2022-06-19T06:32:10.026Z</time>
      </trkpt>
      <trkpt lat="43.22166167" lon="-6.84059">
        <ele>539.0</ele>
        <time>2022-06-19T06:32:11.017Z</time>
      </trkpt>
      <trkpt lat="43.22166167" lon="-6.84059">
        <ele>539.0</ele>
        <time>2022-06-19T06:32:12.023Z</time>
      </trkpt>
      <trkpt lat="43.22176333" lon="-6.84065333">
        <ele>537.0</ele>
        <time>2022-06-19T06:32:13.002Z</time>
      </trkpt>
      <trkpt lat="43.22176333" lon="-6.84065333">
        <ele>537.0</ele>
        <time>2022-06-19T06:32:14.007Z</time>
      </trkpt>
      <trkpt lat="43.22185" lon="-6.84069667">
        <ele>536.0</ele>
        <time>2022-06-19T06:32:14.992Z</time>
      </trkpt>
      <trkpt lat="43.22188" lon="-6.84071333">
        <ele>536.0</ele>
        <time>2022-06-19T06:32:15.989Z</time>
      </trkpt>
      <trkpt lat="43.22188" lon="-6.84071333">
        <ele>536.0</ele>
        <time>2022-06-19T06:32:16.994Z</time>
      </trkpt>
      <trkpt lat="43.22188667" lon="-6.840765">
        <ele>535.0</ele>
        <time>2022-06-19T06:32:17.989Z</time>
      </trkpt>
      <trkpt lat="43.22187167" lon="-6.840785">
        <ele>534.0</ele>
        <time>2022-06-19T06:32:19.013Z</time>
      </trkpt>
      <trkpt lat="43.22187167" lon="-6.840785">
        <ele>534.0</ele>
        <time>2022-06-19T06:32:20.027Z</time>
      </trkpt>
      <trkpt lat="43.22181" lon="-6.84079333">
        <ele>533.0</ele>
        <time>2022-06-19T06:32:21.008Z</time>
      </trkpt>
      <trkpt lat="43.22181" lon="-6.84079333">
        <ele>533.0</ele>
        <time>2022-06-19T06:32:22.013Z</time>
      </trkpt>
      <trkpt lat="43.22173333" lon="-6.84077833">
        <ele>533.0</ele>
        <time>2022-06-19T06:32:23.007Z</time>
      </trkpt>
      <trkpt lat="43.22173333" lon="-6.84077833">
        <ele>533.0</ele>
        <time>2022-06-19T06:32:24.012Z</time>
      </trkpt>
      <trkpt lat="43.22163667" lon="-6.84079167">
        <ele>531.0</ele>
        <time>2022-06-19T06:32:25.003Z</time>
      </trkpt>
      <trkpt lat="43.22158167" lon="-6.84080667">
        <ele>531.0</ele>
        <time>2022-06-19T06:32:25.993Z</time>
      </trkpt>
      <trkpt lat="43.22158167" lon="-6.84080667">
        <ele>531.0</ele>
        <time>2022-06-19T06:32:26.999Z</time>
      </trkpt>
      <trkpt lat="43.22145833" lon="-6.84083333">
        <ele>529.0</ele>
        <time>2022-06-19T06:32:28.024Z</time>
      </trkpt>
      <trkpt lat="43.22145833" lon="-6.84083333">
        <ele>529.0</ele>
        <time>2022-06-19T06:32:28.990Z</time>
      </trkpt>
      <trkpt lat="43.22133833" lon="-6.84085833">
        <ele>526.0</ele>
        <time>2022-06-19T06:32:30.015Z</time>
      </trkpt>
      <trkpt lat="43.22128333" lon="-6.840865">
        <ele>525.0</ele>
        <time>2022-06-19T06:32:30.989Z</time>
      </trkpt>
      <trkpt lat="43.22128333" lon="-6.840865">
        <ele>525.0</ele>
        <time>2022-06-19T06:32:31.995Z</time>
      </trkpt>
      <trkpt lat="43.221165" lon="-6.84086667">
        <ele>523.0</ele>
        <time>2022-06-19T06:32:32.993Z</time>
      </trkpt>
      <trkpt lat="43.22110167" lon="-6.84086167">
        <ele>522.0</ele>
        <time>2022-06-19T06:32:34.016Z</time>
      </trkpt>
      <trkpt lat="43.22110167" lon="-6.84086167">
        <ele>522.0</ele>
        <time>2022-06-19T06:32:35.027Z</time>
      </trkpt>
      <trkpt lat="43.22097667" lon="-6.840845">
        <ele>520.0</ele>
        <time>2022-06-19T06:32:36.009Z</time>
      </trkpt>
      <trkpt lat="43.22092667" lon="-6.84083333">
        <ele>518.0</ele>
        <time>2022-06-19T06:32:36.997Z</time>
      </trkpt>
      <trkpt lat="43.22092667" lon="-6.84083333">
        <ele>518.0</ele>
        <time>2022-06-19T06:32:38.003Z</time>
      </trkpt>
      <trkpt lat="43.22086167" lon="-6.840825">
        <ele>517.0</ele>
        <time>2022-06-19T06:32:39.005Z</time>
      </trkpt>
      <trkpt lat="43.22086167" lon="-6.840825">
        <ele>517.0</ele>
        <time>2022-06-19T06:32:40.011Z</time>
      </trkpt>
      <trkpt lat="43.22083667" lon="-6.84086333">
        <ele>516.0</ele>
        <time>2022-06-19T06:32:41.027Z</time>
      </trkpt>
      <trkpt lat="43.22083667" lon="-6.84086333">
        <ele>516.0</ele>
        <time>2022-06-19T06:32:41.993Z</time>
      </trkpt>
      <trkpt lat="43.22084833" lon="-6.840895">
        <ele>515.0</ele>
        <time>2022-06-19T06:32:42.994Z</time>
      </trkpt>
      <trkpt lat="43.22086" lon="-6.84090667">
        <ele>514.0</ele>
        <time>2022-06-19T06:32:43.994Z</time>
      </trkpt>
      <trkpt lat="43.22086" lon="-6.84090667">
        <ele>514.0</ele>
        <time>2022-06-19T06:32:44.999Z</time>
      </trkpt>
      <trkpt lat="43.220895" lon="-6.84094667">
        <ele>513.0</ele>
        <time>2022-06-19T06:32:46.005Z</time>
      </trkpt>
      <trkpt lat="43.220915" lon="-6.84098167">
        <ele>512.0</ele>
        <time>2022-06-19T06:32:47.011Z</time>
      </trkpt>
      <trkpt lat="43.220915" lon="-6.84098167">
        <ele>512.0</ele>
        <time>2022-06-19T06:32:48.018Z</time>
      </trkpt>
      <trkpt lat="43.22097167" lon="-6.84106667">
        <ele>509.0</ele>
        <time>2022-06-19T06:32:49.026Z</time>
      </trkpt>
      <trkpt lat="43.22097167" lon="-6.84106667">
        <ele>509.0</ele>
        <time>2022-06-19T06:32:49.998Z</time>
      </trkpt>
      <trkpt lat="43.22102833" lon="-6.84116">
        <ele>508.0</ele>
        <time>2022-06-19T06:32:51.026Z</time>
      </trkpt>
      <trkpt lat="43.22102833" lon="-6.84116">
        <ele>508.0</ele>
        <time>2022-06-19T06:32:51.992Z</time>
      </trkpt>
      <trkpt lat="43.22108" lon="-6.84123167">
        <ele>506.0</ele>
        <time>2022-06-19T06:32:52.994Z</time>
      </trkpt>
      <trkpt lat="43.22108" lon="-6.84123167">
        <ele>506.0</ele>
        <time>2022-06-19T06:32:54.000Z</time>
      </trkpt>
      <trkpt lat="43.221145" lon="-6.84130333">
        <ele>505.0</ele>
        <time>2022-06-19T06:32:55.027Z</time>
      </trkpt>
      <trkpt lat="43.221145" lon="-6.84130333">
        <ele>505.0</ele>
        <time>2022-06-19T06:32:55.993Z</time>
      </trkpt>
      <trkpt lat="43.22121833" lon="-6.84139667">
        <ele>503.0</ele>
        <time>2022-06-19T06:32:57.026Z</time>
      </trkpt>
      <trkpt lat="43.22121833" lon="-6.84139667">
        <ele>503.0</ele>
        <time>2022-06-19T06:32:58.005Z</time>
      </trkpt>
      <trkpt lat="43.22128333" lon="-6.84149833">
        <ele>500.0</ele>
        <time>2022-06-19T06:32:59.010Z</time>
      </trkpt>
      <trkpt lat="43.22131833" lon="-6.84155833">
        <ele>499.0</ele>
        <time>2022-06-19T06:33:00.027Z</time>
      </trkpt>
      <trkpt lat="43.22134667" lon="-6.84162333">
        <ele>498.0</ele>
        <time>2022-06-19T06:33:01.021Z</time>
      </trkpt>
      <trkpt lat="43.22134667" lon="-6.84162333">
        <ele>498.0</ele>
        <time>2022-06-19T06:33:02.027Z</time>
      </trkpt>
      <trkpt lat="43.22140833" lon="-6.84173667">
        <ele>496.0</ele>
        <time>2022-06-19T06:33:03.015Z</time>
      </trkpt>
      <trkpt lat="43.22145333" lon="-6.841785">
        <ele>495.0</ele>
        <time>2022-06-19T06:33:03.997Z</time>
      </trkpt>
      <trkpt lat="43.22145333" lon="-6.841785">
        <ele>495.0</ele>
        <time>2022-06-19T06:33:05.002Z</time>
      </trkpt>
      <trkpt lat="43.22157" lon="-6.84188667">
        <ele>493.0</ele>
        <time>2022-06-19T06:33:06.026Z</time>
      </trkpt>
      <trkpt lat="43.221635" lon="-6.84193167">
        <ele>491.0</ele>
        <time>2022-06-19T06:33:07.017Z</time>
      </trkpt>
      <trkpt lat="43.221635" lon="-6.84193167">
        <ele>491.0</ele>
        <time>2022-06-19T06:33:08.024Z</time>
      </trkpt>
      <trkpt lat="43.22174" lon="-6.84197667">
        <ele>490.0</ele>
        <time>2022-06-19T06:33:09.011Z</time>
      </trkpt>
      <trkpt lat="43.22174" lon="-6.84197667">
        <ele>490.0</ele>
        <time>2022-06-19T06:33:10.016Z</time>
      </trkpt>
      <trkpt lat="43.22181333" lon="-6.84201167">
        <ele>488.0</ele>
        <time>2022-06-19T06:33:11.012Z</time>
      </trkpt>
      <trkpt lat="43.22181333" lon="-6.84201167">
        <ele>488.0</ele>
        <time>2022-06-19T06:33:12.020Z</time>
      </trkpt>
      <trkpt lat="43.22184667" lon="-6.84205833">
        <ele>485.0</ele>
        <time>2022-06-19T06:33:13.009Z</time>
      </trkpt>
      <trkpt lat="43.22184667" lon="-6.84205833">
        <ele>485.0</ele>
        <time>2022-06-19T06:33:14.014Z</time>
      </trkpt>
      <trkpt lat="43.22182333" lon="-6.84212167">
        <ele>483.0</ele>
        <time>2022-06-19T06:33:15.006Z</time>
      </trkpt>
      <trkpt lat="43.22182333" lon="-6.84212167">
        <ele>483.0</ele>
        <time>2022-06-19T06:33:16.011Z</time>
      </trkpt>
      <trkpt lat="43.22176167" lon="-6.84215833">
        <ele>481.0</ele>
        <time>2022-06-19T06:33:17.009Z</time>
      </trkpt>
      <trkpt lat="43.22176167" lon="-6.84215833">
        <ele>481.0</ele>
        <time>2022-06-19T06:33:18.014Z</time>
      </trkpt>
      <trkpt lat="43.22167333" lon="-6.84217833">
        <ele>479.0</ele>
        <time>2022-06-19T06:33:19.001Z</time>
      </trkpt>
      <trkpt lat="43.22167333" lon="-6.84217833">
        <ele>479.0</ele>
        <time>2022-06-19T06:33:20.006Z</time>
      </trkpt>
      <trkpt lat="43.22159" lon="-6.84219333">
        <ele>478.0</ele>
        <time>2022-06-19T06:33:20.989Z</time>
      </trkpt>
      <trkpt lat="43.22159" lon="-6.84219333">
        <ele>478.0</ele>
        <time>2022-06-19T06:33:21.995Z</time>
      </trkpt>
      <trkpt lat="43.22154167" lon="-6.84220833">
        <ele>477.0</ele>
        <time>2022-06-19T06:33:23.010Z</time>
      </trkpt>
      <trkpt lat="43.22153167" lon="-6.84223">
        <ele>476.0</ele>
        <time>2022-06-19T06:33:23.995Z</time>
      </trkpt>
      <trkpt lat="43.22153167" lon="-6.84225833">
        <ele>476.0</ele>
        <time>2022-06-19T06:33:25.024Z</time>
      </trkpt>
      <trkpt lat="43.22153167" lon="-6.84225833">
        <ele>476.0</ele>
        <time>2022-06-19T06:33:25.990Z</time>
      </trkpt>
      <trkpt lat="43.22156" lon="-6.84231">
        <ele>475.0</ele>
        <time>2022-06-19T06:33:27.023Z</time>
      </trkpt>
      <trkpt lat="43.22156" lon="-6.84231">
        <ele>475.0</ele>
        <time>2022-06-19T06:33:28.028Z</time>
      </trkpt>
      <trkpt lat="43.22162167" lon="-6.842365">
        <ele>473.0</ele>
        <time>2022-06-19T06:33:29.016Z</time>
      </trkpt>
      <trkpt lat="43.22162167" lon="-6.842365">
        <ele>473.0</ele>
        <time>2022-06-19T06:33:30.023Z</time>
      </trkpt>
      <trkpt lat="43.22171667" lon="-6.842425">
        <ele>471.0</ele>
        <time>2022-06-19T06:33:31.028Z</time>
      </trkpt>
      <trkpt lat="43.22171667" lon="-6.842425">
        <ele>471.0</ele>
        <time>2022-06-19T06:33:31.994Z</time>
      </trkpt>
      <trkpt lat="43.22182333" lon="-6.84247">
        <ele>469.0</ele>
        <time>2022-06-19T06:33:32.994Z</time>
      </trkpt>
      <trkpt lat="43.22188" lon="-6.842485">
        <ele>468.0</ele>
        <time>2022-06-19T06:33:34.023Z</time>
      </trkpt>
      <trkpt lat="43.22188" lon="-6.842485">
        <ele>468.0</ele>
        <time>2022-06-19T06:33:34.989Z</time>
      </trkpt>
      <trkpt lat="43.22199" lon="-6.84252333">
        <ele>465.0</ele>
        <time>2022-06-19T06:33:36.023Z</time>
      </trkpt>
      <trkpt lat="43.22199" lon="-6.84252333">
        <ele>465.0</ele>
        <time>2022-06-19T06:33:36.989Z</time>
      </trkpt>
      <trkpt lat="43.22209333" lon="-6.84255333">
        <ele>463.0</ele>
        <time>2022-06-19T06:33:38.023Z</time>
      </trkpt>
      <trkpt lat="43.22209333" lon="-6.84255333">
        <ele>463.0</ele>
        <time>2022-06-19T06:33:38.989Z</time>
      </trkpt>
      <trkpt lat="43.22219333" lon="-6.842565">
        <ele>461.0</ele>
        <time>2022-06-19T06:33:40.028Z</time>
      </trkpt>
      <trkpt lat="43.22223833" lon="-6.842565">
        <ele>461.0</ele>
        <time>2022-06-19T06:33:41.018Z</time>
      </trkpt>
      <trkpt lat="43.22223833" lon="-6.842565">
        <ele>461.0</ele>
        <time>2022-06-19T06:33:42.024Z</time>
      </trkpt>
      <trkpt lat="43.22231333" lon="-6.84255833">
        <ele>460.0</ele>
        <time>2022-06-19T06:33:42.994Z</time>
      </trkpt>
      <trkpt lat="43.22231333" lon="-6.84255833">
        <ele>460.0</ele>
        <time>2022-06-19T06:33:43.999Z</time>
      </trkpt>
      <trkpt lat="43.22240667" lon="-6.84255667">
        <ele>458.0</ele>
        <time>2022-06-19T06:33:45.025Z</time>
      </trkpt>
      <trkpt lat="43.22240667" lon="-6.84255667">
        <ele>458.0</ele>
        <time>2022-06-19T06:33:45.990Z</time>
      </trkpt>
      <trkpt lat="43.222525" lon="-6.84255">
        <ele>456.0</ele>
        <time>2022-06-19T06:33:47.005Z</time>
      </trkpt>
      <trkpt lat="43.222585" lon="-6.84254167">
        <ele>455.0</ele>
        <time>2022-06-19T06:33:47.998Z</time>
      </trkpt>
      <trkpt lat="43.222585" lon="-6.84254167">
        <ele>455.0</ele>
        <time>2022-06-19T06:33:48.990Z</time>
      </trkpt>
      <trkpt lat="43.22268167" lon="-6.84251833">
        <ele>452.0</ele>
        <time>2022-06-19T06:33:50.028Z</time>
      </trkpt>
      <trkpt lat="43.22268167" lon="-6.84251833">
        <ele>452.0</ele>
        <time>2022-06-19T06:33:50.997Z</time>
      </trkpt>
      <trkpt lat="43.222765" lon="-6.84248667">
        <ele>449.0</ele>
        <time>2022-06-19T06:33:51.997Z</time>
      </trkpt>
      <trkpt lat="43.222765" lon="-6.84248667">
        <ele>449.0</ele>
        <time>2022-06-19T06:33:53.002Z</time>
      </trkpt>
      <trkpt lat="43.22283833" lon="-6.84245">
        <ele>447.0</ele>
        <time>2022-06-19T06:33:54.028Z</time>
      </trkpt>
      <trkpt lat="43.22288" lon="-6.842435">
        <ele>447.0</ele>
        <time>2022-06-19T06:33:55.013Z</time>
      </trkpt>
      <trkpt lat="43.22288" lon="-6.842435">
        <ele>447.0</ele>
        <time>2022-06-19T06:33:56.020Z</time>
      </trkpt>
      <trkpt lat="43.22296667" lon="-6.842375">
        <ele>446.0</ele>
        <time>2022-06-19T06:33:57.005Z</time>
      </trkpt>
      <trkpt lat="43.22296667" lon="-6.842375">
        <ele>446.0</ele>
        <time>2022-06-19T06:33:58.011Z</time>
      </trkpt>
      <trkpt lat="43.22302833" lon="-6.84228333">
        <ele>446.0</ele>
        <time>2022-06-19T06:33:59.015Z</time>
      </trkpt>
      <trkpt lat="43.22305167" lon="-6.84224667">
        <ele>446.0</ele>
        <time>2022-06-19T06:34:00.012Z</time>
      </trkpt>
      <trkpt lat="43.22307" lon="-6.84222">
        <ele>445.0</ele>
        <time>2022-06-19T06:34:01.018Z</time>
      </trkpt>
      <trkpt lat="43.22307" lon="-6.84222">
        <ele>445.0</ele>
        <time>2022-06-19T06:34:02.026Z</time>
      </trkpt>
      <trkpt lat="43.22309833" lon="-6.842175">
        <ele>445.0</ele>
        <time>2022-06-19T06:34:03.017Z</time>
      </trkpt>
      <trkpt lat="43.22311167" lon="-6.842155">
        <ele>445.0</ele>
        <time>2022-06-19T06:34:04.017Z</time>
      </trkpt>
      <trkpt lat="43.22312167" lon="-6.842135">
        <ele>444.0</ele>
        <time>2022-06-19T06:34:05.014Z</time>
      </trkpt>
      <trkpt lat="43.22312167" lon="-6.842135">
        <ele>444.0</ele>
        <time>2022-06-19T06:34:06.020Z</time>
      </trkpt>
      <trkpt lat="43.22314333" lon="-6.84209333">
        <ele>444.0</ele>
        <time>2022-06-19T06:34:07.017Z</time>
      </trkpt>
      <trkpt lat="43.22314333" lon="-6.84209333">
        <ele>444.0</ele>
        <time>2022-06-19T06:34:08.023Z</time>
      </trkpt>
      <trkpt lat="43.22316833" lon="-6.84206167">
        <ele>444.0</ele>
        <time>2022-06-19T06:34:08.994Z</time>
      </trkpt>
      <trkpt lat="43.22316833" lon="-6.84206167">
        <ele>444.0</ele>
        <time>2022-06-19T06:34:10.000Z</time>
      </trkpt>
      <trkpt lat="43.22318333" lon="-6.84202833">
        <ele>444.0</ele>
        <time>2022-06-19T06:34:10.990Z</time>
      </trkpt>
      <trkpt lat="43.22318333" lon="-6.84202833">
        <ele>444.0</ele>
        <time>2022-06-19T06:34:11.996Z</time>
      </trkpt>
      <trkpt lat="43.22319833" lon="-6.842">
        <ele>444.0</ele>
        <time>2022-06-19T06:34:13.016Z</time>
      </trkpt>
      <trkpt lat="43.22320667" lon="-6.84198333">
        <ele>445.0</ele>
        <time>2022-06-19T06:34:13.989Z</time>
      </trkpt>
      <trkpt lat="43.22320667" lon="-6.84198333">
        <ele>445.0</ele>
        <time>2022-06-19T06:34:14.995Z</time>
      </trkpt>
      <trkpt lat="43.22322667" lon="-6.84194667">
        <ele>445.0</ele>
        <time>2022-06-19T06:34:15.990Z</time>
      </trkpt>
      <trkpt lat="43.22322667" lon="-6.84194667">
        <ele>445.0</ele>
        <time>2022-06-19T06:34:16.996Z</time>
      </trkpt>
      <trkpt lat="43.22324333" lon="-6.84191333">
        <ele>445.0</ele>
        <time>2022-06-19T06:34:17.994Z</time>
      </trkpt>
      <trkpt lat="43.22324333" lon="-6.84191333">
        <ele>445.0</ele>
        <time>2022-06-19T06:34:19.000Z</time>
      </trkpt>
      <trkpt lat="43.22325667" lon="-6.84187667">
        <ele>446.0</ele>
        <time>2022-06-19T06:34:20.000Z</time>
      </trkpt>
      <trkpt lat="43.22325667" lon="-6.84187667">
        <ele>446.0</ele>
        <time>2022-06-19T06:34:21.004Z</time>
      </trkpt>
      <trkpt lat="43.223275" lon="-6.84184333">
        <ele>446.0</ele>
        <time>2022-06-19T06:34:21.994Z</time>
      </trkpt>
      <trkpt lat="43.22328333" lon="-6.84182667">
        <ele>446.0</ele>
        <time>2022-06-19T06:34:23.020Z</time>
      </trkpt>
      <trkpt lat="43.22328333" lon="-6.84182667">
        <ele>446.0</ele>
        <time>2022-06-19T06:34:23.989Z</time>
      </trkpt>
      <trkpt lat="43.22330333" lon="-6.84179167">
        <ele>447.0</ele>
        <time>2022-06-19T06:34:25.008Z</time>
      </trkpt>
      <trkpt lat="43.22330333" lon="-6.84179167">
        <ele>447.0</ele>
        <time>2022-06-19T06:34:26.013Z</time>
      </trkpt>
      <trkpt lat="43.223315" lon="-6.84175833">
        <ele>448.0</ele>
        <time>2022-06-19T06:34:27.003Z</time>
      </trkpt>
      <trkpt lat="43.22332167" lon="-6.84174">
        <ele>448.0</ele>
        <time>2022-06-19T06:34:28.002Z</time>
      </trkpt>
      <trkpt lat="43.22332167" lon="-6.84174">
        <ele>448.0</ele>
        <time>2022-06-19T06:34:29.007Z</time>
      </trkpt>
      <trkpt lat="43.22333833" lon="-6.84170333">
        <ele>448.0</ele>
        <time>2022-06-19T06:34:30.017Z</time>
      </trkpt>
      <trkpt lat="43.22333833" lon="-6.84170333">
        <ele>448.0</ele>
        <time>2022-06-19T06:34:31.025Z</time>
      </trkpt>
      <trkpt lat="43.22335333" lon="-6.841665">
        <ele>449.0</ele>
        <time>2022-06-19T06:34:32.008Z</time>
      </trkpt>
      <trkpt lat="43.22336333" lon="-6.84164667">
        <ele>449.0</ele>
        <time>2022-06-19T06:34:32.990Z</time>
      </trkpt>
      <trkpt lat="43.22337167" lon="-6.84162333">
        <ele>450.0</ele>
        <time>2022-06-19T06:34:34.020Z</time>
      </trkpt>
      <trkpt lat="43.22337167" lon="-6.84162333">
        <ele>450.0</ele>
        <time>2022-06-19T06:34:35.027Z</time>
      </trkpt>
      <trkpt lat="43.22339" lon="-6.84158167">
        <ele>451.0</ele>
        <time>2022-06-19T06:34:36.009Z</time>
      </trkpt>
      <trkpt lat="43.22340167" lon="-6.84156333">
        <ele>451.0</ele>
        <time>2022-06-19T06:34:37.005Z</time>
      </trkpt>
      <trkpt lat="43.22340167" lon="-6.84156333">
        <ele>451.0</ele>
        <time>2022-06-19T06:34:38.011Z</time>
      </trkpt>
      <trkpt lat="43.223425" lon="-6.84152167">
        <ele>452.0</ele>
        <time>2022-06-19T06:34:38.994Z</time>
      </trkpt>
      <trkpt lat="43.22343833" lon="-6.84150333">
        <ele>452.0</ele>
        <time>2022-06-19T06:34:39.995Z</time>
      </trkpt>
      <trkpt lat="43.22343833" lon="-6.84150333">
        <ele>452.0</ele>
        <time>2022-06-19T06:34:41.002Z</time>
      </trkpt>
      <trkpt lat="43.223465" lon="-6.841465">
        <ele>453.0</ele>
        <time>2022-06-19T06:34:42.002Z</time>
      </trkpt>
      <trkpt lat="43.22347833" lon="-6.841445">
        <ele>453.0</ele>
        <time>2022-06-19T06:34:42.995Z</time>
      </trkpt>
      <trkpt lat="43.22347833" lon="-6.841445">
        <ele>453.0</ele>
        <time>2022-06-19T06:34:44.000Z</time>
      </trkpt>
      <trkpt lat="43.22351" lon="-6.841405">
        <ele>454.0</ele>
        <time>2022-06-19T06:34:44.994Z</time>
      </trkpt>
      <trkpt lat="43.22351" lon="-6.841405">
        <ele>454.0</ele>
        <time>2022-06-19T06:34:45.999Z</time>
      </trkpt>
      <trkpt lat="43.223535" lon="-6.84136">
        <ele>455.0</ele>
        <time>2022-06-19T06:34:46.994Z</time>
      </trkpt>
      <trkpt lat="43.223535" lon="-6.84136">
        <ele>455.0</ele>
        <time>2022-06-19T06:34:48.000Z</time>
      </trkpt>
      <trkpt lat="43.223555" lon="-6.841315">
        <ele>456.0</ele>
        <time>2022-06-19T06:34:48.993Z</time>
      </trkpt>
      <trkpt lat="43.223555" lon="-6.841315">
        <ele>456.0</ele>
        <time>2022-06-19T06:34:49.999Z</time>
      </trkpt>
      <trkpt lat="43.22357833" lon="-6.84127667">
        <ele>457.0</ele>
        <time>2022-06-19T06:34:51.008Z</time>
      </trkpt>
      <trkpt lat="43.22357833" lon="-6.84127667">
        <ele>457.0</ele>
        <time>2022-06-19T06:34:52.014Z</time>
      </trkpt>
      <trkpt lat="43.22362" lon="-6.84125">
        <ele>457.0</ele>
        <time>2022-06-19T06:34:52.997Z</time>
      </trkpt>
      <trkpt lat="43.22362" lon="-6.84125">
        <ele>457.0</ele>
        <time>2022-06-19T06:34:54.002Z</time>
      </trkpt>
      <trkpt lat="43.22366833" lon="-6.84127">
        <ele>458.0</ele>
        <time>2022-06-19T06:34:55.028Z</time>
      </trkpt>
      <trkpt lat="43.22366833" lon="-6.84127">
        <ele>458.0</ele>
        <time>2022-06-19T06:34:55.994Z</time>
      </trkpt>
      <trkpt lat="43.223695" lon="-6.84130833">
        <ele>458.0</ele>
        <time>2022-06-19T06:34:56.997Z</time>
      </trkpt>
      <trkpt lat="43.223695" lon="-6.84130833">
        <ele>458.0</ele>
        <time>2022-06-19T06:34:58.002Z</time>
      </trkpt>
      <trkpt lat="43.22372" lon="-6.84134667">
        <ele>459.0</ele>
        <time>2022-06-19T06:34:58.998Z</time>
      </trkpt>
      <trkpt lat="43.223725" lon="-6.841365">
        <ele>459.0</ele>
        <time>2022-06-19T06:35:00.024Z</time>
      </trkpt>
      <trkpt lat="43.223725" lon="-6.841365">
        <ele>459.0</ele>
        <time>2022-06-19T06:35:01.000Z</time>
      </trkpt>
      <trkpt lat="43.22374333" lon="-6.841395">
        <ele>460.0</ele>
        <time>2022-06-19T06:35:02.024Z</time>
      </trkpt>
      <trkpt lat="43.22375167" lon="-6.84141167">
        <ele>460.0</ele>
        <time>2022-06-19T06:35:03.015Z</time>
      </trkpt>
      <trkpt lat="43.223765" lon="-6.84143167">
        <ele>460.0</ele>
        <time>2022-06-19T06:35:04.011Z</time>
      </trkpt>
      <trkpt lat="43.223765" lon="-6.84143167">
        <ele>460.0</ele>
        <time>2022-06-19T06:35:05.017Z</time>
      </trkpt>
      <trkpt lat="43.22379333" lon="-6.84147167">
        <ele>461.0</ele>
        <time>2022-06-19T06:35:06.020Z</time>
      </trkpt>
      <trkpt lat="43.22379333" lon="-6.84147167">
        <ele>461.0</ele>
        <time>2022-06-19T06:35:07.028Z</time>
      </trkpt>
      <trkpt lat="43.22382" lon="-6.84150833">
        <ele>461.0</ele>
        <time>2022-06-19T06:35:08.009Z</time>
      </trkpt>
      <trkpt lat="43.22382" lon="-6.84150833">
        <ele>461.0</ele>
        <time>2022-06-19T06:35:09.014Z</time>
      </trkpt>
      <trkpt lat="43.223845" lon="-6.84154167">
        <ele>462.0</ele>
        <time>2022-06-19T06:35:09.999Z</time>
      </trkpt>
      <trkpt lat="43.22385833" lon="-6.84155833">
        <ele>462.0</ele>
        <time>2022-06-19T06:35:10.999Z</time>
      </trkpt>
      <trkpt lat="43.22385833" lon="-6.84155833">
        <ele>462.0</ele>
        <time>2022-06-19T06:35:12.005Z</time>
      </trkpt>
      <trkpt lat="43.22388333" lon="-6.84159167">
        <ele>463.0</ele>
        <time>2022-06-19T06:35:13.010Z</time>
      </trkpt>
      <trkpt lat="43.22388333" lon="-6.84159167">
        <ele>463.0</ele>
        <time>2022-06-19T06:35:14.016Z</time>
      </trkpt>
      <trkpt lat="43.22391833" lon="-6.84163">
        <ele>463.0</ele>
        <time>2022-06-19T06:35:15.017Z</time>
      </trkpt>
      <trkpt lat="43.22393167" lon="-6.84164833">
        <ele>463.0</ele>
        <time>2022-06-19T06:35:16.011Z</time>
      </trkpt>
      <trkpt lat="43.22393167" lon="-6.84164833">
        <ele>463.0</ele>
        <time>2022-06-19T06:35:17.017Z</time>
      </trkpt>
      <trkpt lat="43.22396" lon="-6.84168167">
        <ele>464.0</ele>
        <time>2022-06-19T06:35:18.009Z</time>
      </trkpt>
      <trkpt lat="43.223975" lon="-6.84169833">
        <ele>464.0</ele>
        <time>2022-06-19T06:35:19.026Z</time>
      </trkpt>
      <trkpt lat="43.223975" lon="-6.84169833">
        <ele>464.0</ele>
        <time>2022-06-19T06:35:19.991Z</time>
      </trkpt>
      <trkpt lat="43.224005" lon="-6.84173333">
        <ele>464.0</ele>
        <time>2022-06-19T06:35:21.024Z</time>
      </trkpt>
      <trkpt lat="43.22401667" lon="-6.84175333">
        <ele>465.0</ele>
        <time>2022-06-19T06:35:22.009Z</time>
      </trkpt>
      <trkpt lat="43.22401667" lon="-6.84175333">
        <ele>465.0</ele>
        <time>2022-06-19T06:35:23.015Z</time>
      </trkpt>
      <trkpt lat="43.224045" lon="-6.84179">
        <ele>465.0</ele>
        <time>2022-06-19T06:35:24.005Z</time>
      </trkpt>
      <trkpt lat="43.224045" lon="-6.84179">
        <ele>465.0</ele>
        <time>2022-06-19T06:35:25.011Z</time>
      </trkpt>
      <trkpt lat="43.22407" lon="-6.841825">
        <ele>465.0</ele>
        <time>2022-06-19T06:35:26.004Z</time>
      </trkpt>
      <trkpt lat="43.22407" lon="-6.841825">
        <ele>465.0</ele>
        <time>2022-06-19T06:35:27.009Z</time>
      </trkpt>
      <trkpt lat="43.22409333" lon="-6.84186">
        <ele>466.0</ele>
        <time>2022-06-19T06:35:28.003Z</time>
      </trkpt>
      <trkpt lat="43.22410167" lon="-6.841875">
        <ele>466.0</ele>
        <time>2022-06-19T06:35:28.992Z</time>
      </trkpt>
      <trkpt lat="43.22410167" lon="-6.841875">
        <ele>466.0</ele>
        <time>2022-06-19T06:35:29.998Z</time>
      </trkpt>
      <trkpt lat="43.224125" lon="-6.84189833">
        <ele>466.0</ele>
        <time>2022-06-19T06:35:31.028Z</time>
      </trkpt>
      <trkpt lat="43.224125" lon="-6.84189833">
        <ele>466.0</ele>
        <time>2022-06-19T06:35:31.995Z</time>
      </trkpt>
      <trkpt lat="43.22415167" lon="-6.84193167">
        <ele>466.0</ele>
        <time>2022-06-19T06:35:33.016Z</time>
      </trkpt>
      <trkpt lat="43.22415167" lon="-6.84193167">
        <ele>466.0</ele>
        <time>2022-06-19T06:35:34.022Z</time>
      </trkpt>
      <trkpt lat="43.22417333" lon="-6.84195833">
        <ele>466.0</ele>
        <time>2022-06-19T06:35:35.013Z</time>
      </trkpt>
      <trkpt lat="43.22417333" lon="-6.84195833">
        <ele>466.0</ele>
        <time>2022-06-19T06:35:36.027Z</time>
      </trkpt>
      <trkpt lat="43.22418833" lon="-6.84198167">
        <ele>467.0</ele>
        <time>2022-06-19T06:35:37.024Z</time>
      </trkpt>
      <trkpt lat="43.22418833" lon="-6.84198167">
        <ele>467.0</ele>
        <time>2022-06-19T06:35:37.990Z</time>
      </trkpt>
      <trkpt lat="43.2242" lon="-6.84200333">
        <ele>467.0</ele>
        <time>2022-06-19T06:35:39.025Z</time>
      </trkpt>
      <trkpt lat="43.22420833" lon="-6.84201667">
        <ele>467.0</ele>
        <time>2022-06-19T06:35:40.010Z</time>
      </trkpt>
      <trkpt lat="43.22420833" lon="-6.84201667">
        <ele>467.0</ele>
        <time>2022-06-19T06:35:41.016Z</time>
      </trkpt>
      <trkpt lat="43.22423" lon="-6.84204667">
        <ele>466.0</ele>
        <time>2022-06-19T06:35:42.002Z</time>
      </trkpt>
      <trkpt lat="43.224235" lon="-6.84206333">
        <ele>467.0</ele>
        <time>2022-06-19T06:35:43.012Z</time>
      </trkpt>
      <trkpt lat="43.224235" lon="-6.84206333">
        <ele>467.0</ele>
        <time>2022-06-19T06:35:44.019Z</time>
      </trkpt>
      <trkpt lat="43.22425333" lon="-6.8421">
        <ele>467.0</ele>
        <time>2022-06-19T06:35:45.007Z</time>
      </trkpt>
      <trkpt lat="43.22425333" lon="-6.8421">
        <ele>467.0</ele>
        <time>2022-06-19T06:35:46.013Z</time>
      </trkpt>
      <trkpt lat="43.22427833" lon="-6.84213833">
        <ele>467.0</ele>
        <time>2022-06-19T06:35:47.005Z</time>
      </trkpt>
      <trkpt lat="43.22427833" lon="-6.84213833">
        <ele>467.0</ele>
        <time>2022-06-19T06:35:47.995Z</time>
      </trkpt>
      <trkpt lat="43.2243" lon="-6.84217333">
        <ele>467.0</ele>
        <time>2022-06-19T06:35:49.019Z</time>
      </trkpt>
      <trkpt lat="43.2243" lon="-6.84217333">
        <ele>467.0</ele>
        <time>2022-06-19T06:35:50.027Z</time>
      </trkpt>
      <trkpt lat="43.22432167" lon="-6.84220833">
        <ele>467.0</ele>
        <time>2022-06-19T06:35:51.020Z</time>
      </trkpt>
      <trkpt lat="43.22432167" lon="-6.84220833">
        <ele>467.0</ele>
        <time>2022-06-19T06:35:52.026Z</time>
      </trkpt>
      <trkpt lat="43.22434333" lon="-6.84224">
        <ele>468.0</ele>
        <time>2022-06-19T06:35:53.002Z</time>
      </trkpt>
      <trkpt lat="43.22435167" lon="-6.84225667">
        <ele>468.0</ele>
        <time>2022-06-19T06:35:54.000Z</time>
      </trkpt>
      <trkpt lat="43.22436167" lon="-6.842275">
        <ele>468.0</ele>
        <time>2022-06-19T06:35:54.989Z</time>
      </trkpt>
      <trkpt lat="43.22436167" lon="-6.842275">
        <ele>468.0</ele>
        <time>2022-06-19T06:35:55.995Z</time>
      </trkpt>
      <trkpt lat="43.22437833" lon="-6.84230333">
        <ele>469.0</ele>
        <time>2022-06-19T06:35:57.025Z</time>
      </trkpt>
      <trkpt lat="43.22437833" lon="-6.84230333">
        <ele>469.0</ele>
        <time>2022-06-19T06:35:57.990Z</time>
      </trkpt>
      <trkpt lat="43.224395" lon="-6.84232333">
        <ele>469.0</ele>
        <time>2022-06-19T06:35:58.990Z</time>
      </trkpt>
      <trkpt lat="43.224395" lon="-6.84232333">
        <ele>469.0</ele>
        <time>2022-06-19T06:36:00.028Z</time>
      </trkpt>
      <trkpt lat="43.22441333" lon="-6.84234">
        <ele>469.0</ele>
        <time>2022-06-19T06:36:01.024Z</time>
      </trkpt>
      <trkpt lat="43.22441333" lon="-6.84234">
        <ele>469.0</ele>
        <time>2022-06-19T06:36:01.990Z</time>
      </trkpt>
      <trkpt lat="43.22442667" lon="-6.84236333">
        <ele>470.0</ele>
        <time>2022-06-19T06:36:03.021Z</time>
      </trkpt>
      <trkpt lat="43.22442667" lon="-6.84236333">
        <ele>470.0</ele>
        <time>2022-06-19T06:36:04.028Z</time>
      </trkpt>
      <trkpt lat="43.22445" lon="-6.84238667">
        <ele>470.0</ele>
        <time>2022-06-19T06:36:05.000Z</time>
      </trkpt>
      <trkpt lat="43.22445" lon="-6.84238667">
        <ele>470.0</ele>
        <time>2022-06-19T06:36:06.006Z</time>
      </trkpt>
      <trkpt lat="43.22447" lon="-6.84241333">
        <ele>470.0</ele>
        <time>2022-06-19T06:36:06.993Z</time>
      </trkpt>
      <trkpt lat="43.22447" lon="-6.84241333">
        <ele>470.0</ele>
        <time>2022-06-19T06:36:08.000Z</time>
      </trkpt>
      <trkpt lat="43.22448833" lon="-6.84243833">
        <ele>471.0</ele>
        <time>2022-06-19T06:36:08.999Z</time>
      </trkpt>
      <trkpt lat="43.22449833" lon="-6.84245167">
        <ele>471.0</ele>
        <time>2022-06-19T06:36:09.989Z</time>
      </trkpt>
      <trkpt lat="43.22449833" lon="-6.84245167">
        <ele>471.0</ele>
        <time>2022-06-19T06:36:10.994Z</time>
      </trkpt>
      <trkpt lat="43.22452167" lon="-6.84247167">
        <ele>472.0</ele>
        <time>2022-06-19T06:36:12.028Z</time>
      </trkpt>
      <trkpt lat="43.22453" lon="-6.84248333">
        <ele>472.0</ele>
        <time>2022-06-19T06:36:13.022Z</time>
      </trkpt>
      <trkpt lat="43.22453" lon="-6.84248333">
        <ele>472.0</ele>
        <time>2022-06-19T06:36:14.029Z</time>
      </trkpt>
      <trkpt lat="43.22455333" lon="-6.84250667">
        <ele>473.0</ele>
        <time>2022-06-19T06:36:15.013Z</time>
      </trkpt>
      <trkpt lat="43.22455333" lon="-6.84250667">
        <ele>473.0</ele>
        <time>2022-06-19T06:36:16.025Z</time>
      </trkpt>
      <trkpt lat="43.22457167" lon="-6.842535">
        <ele>473.0</ele>
        <time>2022-06-19T06:36:17.021Z</time>
      </trkpt>
      <trkpt lat="43.22457167" lon="-6.842535">
        <ele>473.0</ele>
        <time>2022-06-19T06:36:18.028Z</time>
      </trkpt>
      <trkpt lat="43.224595" lon="-6.84256667">
        <ele>472.0</ele>
        <time>2022-06-19T06:36:18.992Z</time>
      </trkpt>
      <trkpt lat="43.224595" lon="-6.84256667">
        <ele>472.0</ele>
        <time>2022-06-19T06:36:19.998Z</time>
      </trkpt>
      <trkpt lat="43.22461833" lon="-6.84259667">
        <ele>473.0</ele>
        <time>2022-06-19T06:36:20.996Z</time>
      </trkpt>
      <trkpt lat="43.22461833" lon="-6.84259667">
        <ele>473.0</ele>
        <time>2022-06-19T06:36:22.004Z</time>
      </trkpt>
      <trkpt lat="43.22464333" lon="-6.84262333">
        <ele>473.0</ele>
        <time>2022-06-19T06:36:23.006Z</time>
      </trkpt>
      <trkpt lat="43.22464333" lon="-6.84262333">
        <ele>473.0</ele>
        <time>2022-06-19T06:36:24.012Z</time>
      </trkpt>
      <trkpt lat="43.22467333" lon="-6.84265667">
        <ele>473.0</ele>
        <time>2022-06-19T06:36:24.992Z</time>
      </trkpt>
      <trkpt lat="43.22467333" lon="-6.84265667">
        <ele>473.0</ele>
        <time>2022-06-19T06:36:25.997Z</time>
      </trkpt>
      <trkpt lat="43.224705" lon="-6.84268333">
        <ele>473.0</ele>
        <time>2022-06-19T06:36:26.991Z</time>
      </trkpt>
      <trkpt lat="43.22472" lon="-6.842695">
        <ele>474.0</ele>
        <time>2022-06-19T06:36:28.021Z</time>
      </trkpt>
      <trkpt lat="43.22472" lon="-6.842695">
        <ele>474.0</ele>
        <time>2022-06-19T06:36:28.989Z</time>
      </trkpt>
      <trkpt lat="43.22474667" lon="-6.842715">
        <ele>474.0</ele>
        <time>2022-06-19T06:36:29.994Z</time>
      </trkpt>
      <trkpt lat="43.22475833" lon="-6.842725">
        <ele>474.0</ele>
        <time>2022-06-19T06:36:31.033Z</time>
      </trkpt>
      <trkpt lat="43.22475833" lon="-6.842725">
        <ele>474.0</ele>
        <time>2022-06-19T06:36:32.020Z</time>
      </trkpt>
      <trkpt lat="43.224795" lon="-6.84273">
        <ele>474.0</ele>
        <time>2022-06-19T06:36:33.005Z</time>
      </trkpt>
      <trkpt lat="43.22481167" lon="-6.842735">
        <ele>475.0</ele>
        <time>2022-06-19T06:36:34.002Z</time>
      </trkpt>
      <trkpt lat="43.22481167" lon="-6.842735">
        <ele>475.0</ele>
        <time>2022-06-19T06:36:35.008Z</time>
      </trkpt>
      <trkpt lat="43.22484333" lon="-6.84274167">
        <ele>474.0</ele>
        <time>2022-06-19T06:36:35.997Z</time>
      </trkpt>
      <trkpt lat="43.22486" lon="-6.84274667">
        <ele>474.0</ele>
        <time>2022-06-19T06:36:37.021Z</time>
      </trkpt>
      <trkpt lat="43.22486" lon="-6.84274667">
        <ele>474.0</ele>
        <time>2022-06-19T06:36:38.028Z</time>
      </trkpt>
      <trkpt lat="43.22489167" lon="-6.84275667">
        <ele>474.0</ele>
        <time>2022-06-19T06:36:39.022Z</time>
      </trkpt>
      <trkpt lat="43.22491" lon="-6.84276">
        <ele>474.0</ele>
        <time>2022-06-19T06:36:40.004Z</time>
      </trkpt>
      <trkpt lat="43.22491" lon="-6.84276">
        <ele>474.0</ele>
        <time>2022-06-19T06:36:41.009Z</time>
      </trkpt>
      <trkpt lat="43.22495" lon="-6.84276">
        <ele>474.0</ele>
        <time>2022-06-19T06:36:41.997Z</time>
      </trkpt>
      <trkpt lat="43.22497" lon="-6.84275667">
        <ele>474.0</ele>
        <time>2022-06-19T06:36:43.028Z</time>
      </trkpt>
      <trkpt lat="43.22497" lon="-6.84275667">
        <ele>474.0</ele>
        <time>2022-06-19T06:36:43.994Z</time>
      </trkpt>
      <trkpt lat="43.225025" lon="-6.84275667">
        <ele>473.0</ele>
        <time>2022-06-19T06:36:44.994Z</time>
      </trkpt>
      <trkpt lat="43.225065" lon="-6.84275333">
        <ele>472.0</ele>
        <time>2022-06-19T06:36:45.992Z</time>
      </trkpt>
      <trkpt lat="43.225065" lon="-6.84275333">
        <ele>472.0</ele>
        <time>2022-06-19T06:36:46.998Z</time>
      </trkpt>
      <trkpt lat="43.22516333" lon="-6.84275833">
        <ele>470.0</ele>
        <time>2022-06-19T06:36:47.989Z</time>
      </trkpt>
      <trkpt lat="43.22521833" lon="-6.84276167">
        <ele>470.0</ele>
        <time>2022-06-19T06:36:49.019Z</time>
      </trkpt>
      <trkpt lat="43.22521833" lon="-6.84276167">
        <ele>470.0</ele>
        <time>2022-06-19T06:36:49.990Z</time>
      </trkpt>
      <trkpt lat="43.22532667" lon="-6.842765">
        <ele>468.0</ele>
        <time>2022-06-19T06:36:51.020Z</time>
      </trkpt>
      <trkpt lat="43.22532667" lon="-6.842765">
        <ele>468.0</ele>
        <time>2022-06-19T06:36:52.026Z</time>
      </trkpt>
      <trkpt lat="43.22543833" lon="-6.842775">
        <ele>466.0</ele>
        <time>2022-06-19T06:36:53.024Z</time>
      </trkpt>
      <trkpt lat="43.22543833" lon="-6.842775">
        <ele>466.0</ele>
        <time>2022-06-19T06:36:53.990Z</time>
      </trkpt>
      <trkpt lat="43.22557167" lon="-6.84276833">
        <ele>464.0</ele>
        <time>2022-06-19T06:36:55.023Z</time>
      </trkpt>
      <trkpt lat="43.22564167" lon="-6.84275167">
        <ele>464.0</ele>
        <time>2022-06-19T06:36:55.992Z</time>
      </trkpt>
      <trkpt lat="43.22564167" lon="-6.84275167">
        <ele>464.0</ele>
        <time>2022-06-19T06:36:56.998Z</time>
      </trkpt>
      <trkpt lat="43.22576833" lon="-6.84268667">
        <ele>464.0</ele>
        <time>2022-06-19T06:36:58.028Z</time>
      </trkpt>
      <trkpt lat="43.22576833" lon="-6.84268667">
        <ele>464.0</ele>
        <time>2022-06-19T06:36:59.007Z</time>
      </trkpt>
      <trkpt lat="43.225875" lon="-6.84257833">
        <ele>464.0</ele>
        <time>2022-06-19T06:37:00.003Z</time>
      </trkpt>
      <trkpt lat="43.225875" lon="-6.84257833">
        <ele>464.0</ele>
        <time>2022-06-19T06:37:01.009Z</time>
      </trkpt>
      <trkpt lat="43.22595667" lon="-6.84246167">
        <ele>465.0</ele>
        <time>2022-06-19T06:37:01.989Z</time>
      </trkpt>
      <trkpt lat="43.22599167" lon="-6.842415">
        <ele>465.0</ele>
        <time>2022-06-19T06:37:03.015Z</time>
      </trkpt>
      <trkpt lat="43.22602333" lon="-6.84237333">
        <ele>465.0</ele>
        <time>2022-06-19T06:37:04.010Z</time>
      </trkpt>
      <trkpt lat="43.22602333" lon="-6.84237333">
        <ele>465.0</ele>
        <time>2022-06-19T06:37:05.016Z</time>
      </trkpt>
      <trkpt lat="43.22607667" lon="-6.84233833">
        <ele>466.0</ele>
        <time>2022-06-19T06:37:06.006Z</time>
      </trkpt>
      <trkpt lat="43.22609833" lon="-6.84232333">
        <ele>467.0</ele>
        <time>2022-06-19T06:37:07.004Z</time>
      </trkpt>
      <trkpt lat="43.22609833" lon="-6.84232333">
        <ele>467.0</ele>
        <time>2022-06-19T06:37:08.009Z</time>
      </trkpt>
      <trkpt lat="43.22613667" lon="-6.84229">
        <ele>467.0</ele>
        <time>2022-06-19T06:37:08.990Z</time>
      </trkpt>
      <trkpt lat="43.22615667" lon="-6.84227167">
        <ele>467.0</ele>
        <time>2022-06-19T06:37:09.991Z</time>
      </trkpt>
      <trkpt lat="43.22615667" lon="-6.84227167">
        <ele>467.0</ele>
        <time>2022-06-19T06:37:10.997Z</time>
      </trkpt>
      <trkpt lat="43.22619833" lon="-6.842235">
        <ele>467.0</ele>
        <time>2022-06-19T06:37:11.994Z</time>
      </trkpt>
      <trkpt lat="43.22621667" lon="-6.84221667">
        <ele>467.0</ele>
        <time>2022-06-19T06:37:12.994Z</time>
      </trkpt>
      <trkpt lat="43.22623167" lon="-6.842195">
        <ele>467.0</ele>
        <time>2022-06-19T06:37:13.993Z</time>
      </trkpt>
      <trkpt lat="43.22623167" lon="-6.842195">
        <ele>467.0</ele>
        <time>2022-06-19T06:37:14.999Z</time>
      </trkpt>
      <trkpt lat="43.22625" lon="-6.84215">
        <ele>467.0</ele>
        <time>2022-06-19T06:37:15.992Z</time>
      </trkpt>
      <trkpt lat="43.22625" lon="-6.84215">
        <ele>467.0</ele>
        <time>2022-06-19T06:37:16.998Z</time>
      </trkpt>
      <trkpt lat="43.22625833" lon="-6.84213667">
        <ele>467.0</ele>
        <time>2022-06-19T06:37:18.007Z</time>
      </trkpt>
      <trkpt lat="43.22626" lon="-6.842135">
        <ele>467.0</ele>
        <time>2022-06-19T06:37:19.003Z</time>
      </trkpt>
      <trkpt lat="43.22626" lon="-6.842135">
        <ele>467.0</ele>
        <time>2022-06-19T06:37:20.009Z</time>
      </trkpt>
      <trkpt lat="43.22626167" lon="-6.84213333">
        <ele>467.0</ele>
        <time>2022-06-19T06:37:57.008Z</time>
      </trkpt>
      <trkpt lat="43.22626167" lon="-6.84213333">
        <ele>467.0</ele>
        <time>2022-06-19T06:37:57.994Z</time>
      </trkpt>
      <trkpt lat="43.22626833" lon="-6.842115">
        <ele>466.0</ele>
        <time>2022-06-19T06:37:58.971Z</time>
      </trkpt>
      <trkpt lat="43.22626833" lon="-6.842115">
        <ele>466.0</ele>
        <time>2022-06-19T06:38:05.995Z</time>
      </trkpt>
      <trkpt lat="43.22631667" lon="-6.84201667">
        <ele>466.0</ele>
        <time>2022-06-19T06:38:07.014Z</time>
      </trkpt>
      <trkpt lat="43.22631667" lon="-6.84201667">
        <ele>466.0</ele>
        <time>2022-06-19T06:38:07.993Z</time>
      </trkpt>
      <trkpt lat="43.22635" lon="-6.841955">
        <ele>466.0</ele>
        <time>2022-06-19T06:38:09.011Z</time>
      </trkpt>
      <trkpt lat="43.22635" lon="-6.841955">
        <ele>466.0</ele>
        <time>2022-06-19T06:38:09.991Z</time>
      </trkpt>
      <trkpt lat="43.22638" lon="-6.84190333">
        <ele>466.0</ele>
        <time>2022-06-19T06:38:10.981Z</time>
      </trkpt>
      <trkpt lat="43.22638" lon="-6.84190333">
        <ele>466.0</ele>
        <time>2022-06-19T06:38:11.986Z</time>
      </trkpt>
      <trkpt lat="43.226415" lon="-6.841865">
        <ele>467.0</ele>
        <time>2022-06-19T06:38:12.980Z</time>
      </trkpt>
      <trkpt lat="43.226415" lon="-6.841865">
        <ele>467.0</ele>
        <time>2022-06-19T06:38:13.987Z</time>
      </trkpt>
      <trkpt lat="43.226455" lon="-6.84182333">
        <ele>467.0</ele>
        <time>2022-06-19T06:38:14.985Z</time>
      </trkpt>
      <trkpt lat="43.226455" lon="-6.84182333">
        <ele>467.0</ele>
        <time>2022-06-19T06:38:15.992Z</time>
      </trkpt>
      <trkpt lat="43.226495" lon="-6.84178">
        <ele>467.0</ele>
        <time>2022-06-19T06:38:16.988Z</time>
      </trkpt>
      <trkpt lat="43.226495" lon="-6.84178">
        <ele>467.0</ele>
        <time>2022-06-19T06:38:17.994Z</time>
      </trkpt>
      <trkpt lat="43.22653333" lon="-6.84174167">
        <ele>467.0</ele>
        <time>2022-06-19T06:38:18.982Z</time>
      </trkpt>
      <trkpt lat="43.22653333" lon="-6.84174167">
        <ele>467.0</ele>
        <time>2022-06-19T06:38:19.988Z</time>
      </trkpt>
      <trkpt lat="43.22656833" lon="-6.84169833">
        <ele>468.0</ele>
        <time>2022-06-19T06:38:21.017Z</time>
      </trkpt>
      <trkpt lat="43.22656833" lon="-6.84169833">
        <ele>468.0</ele>
        <time>2022-06-19T06:38:21.986Z</time>
      </trkpt>
      <trkpt lat="43.226605" lon="-6.84165333">
        <ele>468.0</ele>
        <time>2022-06-19T06:38:22.983Z</time>
      </trkpt>
      <trkpt lat="43.22662167" lon="-6.84163167">
        <ele>468.0</ele>
        <time>2022-06-19T06:38:24.008Z</time>
      </trkpt>
      <trkpt lat="43.22662167" lon="-6.84163167">
        <ele>468.0</ele>
        <time>2022-06-19T06:38:25.014Z</time>
      </trkpt>
      <trkpt lat="43.226655" lon="-6.841595">
        <ele>468.0</ele>
        <time>2022-06-19T06:38:26.004Z</time>
      </trkpt>
      <trkpt lat="43.226655" lon="-6.841595">
        <ele>468.0</ele>
        <time>2022-06-19T06:38:27.010Z</time>
      </trkpt>
      <trkpt lat="43.22668167" lon="-6.84155667">
        <ele>468.0</ele>
        <time>2022-06-19T06:38:27.994Z</time>
      </trkpt>
      <trkpt lat="43.22669667" lon="-6.84153667">
        <ele>469.0</ele>
        <time>2022-06-19T06:38:28.980Z</time>
      </trkpt>
      <trkpt lat="43.22669667" lon="-6.84153667">
        <ele>469.0</ele>
        <time>2022-06-19T06:38:29.988Z</time>
      </trkpt>
      <trkpt lat="43.226725" lon="-6.841505">
        <ele>469.0</ele>
        <time>2022-06-19T06:38:30.982Z</time>
      </trkpt>
      <trkpt lat="43.226725" lon="-6.841505">
        <ele>469.0</ele>
        <time>2022-06-19T06:38:31.988Z</time>
      </trkpt>
      <trkpt lat="43.22675333" lon="-6.841475">
        <ele>469.0</ele>
        <time>2022-06-19T06:38:33.013Z</time>
      </trkpt>
      <trkpt lat="43.22676667" lon="-6.84146">
        <ele>469.0</ele>
        <time>2022-06-19T06:38:34.009Z</time>
      </trkpt>
      <trkpt lat="43.22676667" lon="-6.84146">
        <ele>469.0</ele>
        <time>2022-06-19T06:38:35.016Z</time>
      </trkpt>
      <trkpt lat="43.22679" lon="-6.84142667">
        <ele>470.0</ele>
        <time>2022-06-19T06:38:35.993Z</time>
      </trkpt>
      <trkpt lat="43.22680333" lon="-6.84141167">
        <ele>470.0</ele>
        <time>2022-06-19T06:38:37.016Z</time>
      </trkpt>
      <trkpt lat="43.22680333" lon="-6.84141167">
        <ele>470.0</ele>
        <time>2022-06-19T06:38:37.984Z</time>
      </trkpt>
      <trkpt lat="43.22683" lon="-6.841385">
        <ele>470.0</ele>
        <time>2022-06-19T06:38:39.015Z</time>
      </trkpt>
      <trkpt lat="43.22683" lon="-6.841385">
        <ele>470.0</ele>
        <time>2022-06-19T06:38:39.986Z</time>
      </trkpt>
      <trkpt lat="43.22686" lon="-6.841355">
        <ele>471.0</ele>
        <time>2022-06-19T06:38:40.991Z</time>
      </trkpt>
      <trkpt lat="43.22686" lon="-6.841355">
        <ele>471.0</ele>
        <time>2022-06-19T06:38:42.011Z</time>
      </trkpt>
      <trkpt lat="43.22688833" lon="-6.84131667">
        <ele>471.0</ele>
        <time>2022-06-19T06:38:43.008Z</time>
      </trkpt>
      <trkpt lat="43.22688833" lon="-6.84131667">
        <ele>471.0</ele>
        <time>2022-06-19T06:38:44.014Z</time>
      </trkpt>
      <trkpt lat="43.22691167" lon="-6.84128">
        <ele>471.0</ele>
        <time>2022-06-19T06:38:45.012Z</time>
      </trkpt>
      <trkpt lat="43.22691167" lon="-6.84128">
        <ele>471.0</ele>
        <time>2022-06-19T06:38:45.978Z</time>
      </trkpt>
      <trkpt lat="43.22693333" lon="-6.84124333">
        <ele>472.0</ele>
        <time>2022-06-19T06:38:46.982Z</time>
      </trkpt>
      <trkpt lat="43.22693333" lon="-6.84124333">
        <ele>472.0</ele>
        <time>2022-06-19T06:38:47.988Z</time>
      </trkpt>
      <trkpt lat="43.226955" lon="-6.84120333">
        <ele>473.0</ele>
        <time>2022-06-19T06:38:49.010Z</time>
      </trkpt>
      <trkpt lat="43.226955" lon="-6.84120333">
        <ele>473.0</ele>
        <time>2022-06-19T06:38:50.016Z</time>
      </trkpt>
      <trkpt lat="43.22697167" lon="-6.84116667">
        <ele>473.0</ele>
        <time>2022-06-19T06:38:51.009Z</time>
      </trkpt>
      <trkpt lat="43.22697167" lon="-6.84116667">
        <ele>473.0</ele>
        <time>2022-06-19T06:38:52.015Z</time>
      </trkpt>
      <trkpt lat="43.22697333" lon="-6.841125">
        <ele>474.0</ele>
        <time>2022-06-19T06:38:53.003Z</time>
      </trkpt>
      <trkpt lat="43.22697333" lon="-6.841125">
        <ele>474.0</ele>
        <time>2022-06-19T06:38:54.009Z</time>
      </trkpt>
      <trkpt lat="43.22698" lon="-6.84108167">
        <ele>475.0</ele>
        <time>2022-06-19T06:38:55.012Z</time>
      </trkpt>
      <trkpt lat="43.22698" lon="-6.84108167">
        <ele>475.0</ele>
        <time>2022-06-19T06:38:55.982Z</time>
      </trkpt>
      <trkpt lat="43.22699" lon="-6.84102833">
        <ele>475.0</ele>
        <time>2022-06-19T06:38:57.007Z</time>
      </trkpt>
      <trkpt lat="43.22699167" lon="-6.84100667">
        <ele>475.0</ele>
        <time>2022-06-19T06:38:58.007Z</time>
      </trkpt>
      <trkpt lat="43.22699167" lon="-6.84100667">
        <ele>475.0</ele>
        <time>2022-06-19T06:38:59.013Z</time>
      </trkpt>
      <trkpt lat="43.22699667" lon="-6.84096333">
        <ele>476.0</ele>
        <time>2022-06-19T06:38:59.994Z</time>
      </trkpt>
      <trkpt lat="43.22699667" lon="-6.840945">
        <ele>476.0</ele>
        <time>2022-06-19T06:39:00.987Z</time>
      </trkpt>
      <trkpt lat="43.22699667" lon="-6.840945">
        <ele>476.0</ele>
        <time>2022-06-19T06:39:01.993Z</time>
      </trkpt>
      <trkpt lat="43.22700167" lon="-6.84090333">
        <ele>477.0</ele>
        <time>2022-06-19T06:39:02.980Z</time>
      </trkpt>
      <trkpt lat="43.227005" lon="-6.84088167">
        <ele>477.0</ele>
        <time>2022-06-19T06:39:03.982Z</time>
      </trkpt>
      <trkpt lat="43.227005" lon="-6.84088167">
        <ele>477.0</ele>
        <time>2022-06-19T06:39:04.987Z</time>
      </trkpt>
      <trkpt lat="43.22701667" lon="-6.840835">
        <ele>478.0</ele>
        <time>2022-06-19T06:39:06.010Z</time>
      </trkpt>
      <trkpt lat="43.227025" lon="-6.84081333">
        <ele>478.0</ele>
        <time>2022-06-19T06:39:07.012Z</time>
      </trkpt>
      <trkpt lat="43.227025" lon="-6.84081333">
        <ele>478.0</ele>
        <time>2022-06-19T06:39:07.978Z</time>
      </trkpt>
      <trkpt lat="43.22703667" lon="-6.84076667">
        <ele>479.0</ele>
        <time>2022-06-19T06:39:09.017Z</time>
      </trkpt>
      <trkpt lat="43.22703667" lon="-6.84076667">
        <ele>479.0</ele>
        <time>2022-06-19T06:39:09.985Z</time>
      </trkpt>
      <trkpt lat="43.227055" lon="-6.84071667">
        <ele>480.0</ele>
        <time>2022-06-19T06:39:10.981Z</time>
      </trkpt>
      <trkpt lat="43.227055" lon="-6.84071667">
        <ele>480.0</ele>
        <time>2022-06-19T06:39:11.987Z</time>
      </trkpt>
      <trkpt lat="43.22707167" lon="-6.84066833">
        <ele>480.0</ele>
        <time>2022-06-19T06:39:12.994Z</time>
      </trkpt>
      <trkpt lat="43.22707167" lon="-6.84066833">
        <ele>480.0</ele>
        <time>2022-06-19T06:39:13.999Z</time>
      </trkpt>
      <trkpt lat="43.22709167" lon="-6.84061667">
        <ele>481.0</ele>
        <time>2022-06-19T06:39:14.992Z</time>
      </trkpt>
      <trkpt lat="43.22709167" lon="-6.84061667">
        <ele>481.0</ele>
        <time>2022-06-19T06:39:15.998Z</time>
      </trkpt>
      <trkpt lat="43.227115" lon="-6.84056">
        <ele>481.0</ele>
        <time>2022-06-19T06:39:16.983Z</time>
      </trkpt>
      <trkpt lat="43.227115" lon="-6.84056">
        <ele>481.0</ele>
        <time>2022-06-19T06:39:17.989Z</time>
      </trkpt>
      <trkpt lat="43.22713833" lon="-6.840505">
        <ele>482.0</ele>
        <time>2022-06-19T06:39:19.017Z</time>
      </trkpt>
      <trkpt lat="43.22713833" lon="-6.840505">
        <ele>482.0</ele>
        <time>2022-06-19T06:39:19.985Z</time>
      </trkpt>
      <trkpt lat="43.22716" lon="-6.84045333">
        <ele>482.0</ele>
        <time>2022-06-19T06:39:21.012Z</time>
      </trkpt>
      <trkpt lat="43.22716" lon="-6.84045333">
        <ele>482.0</ele>
        <time>2022-06-19T06:39:21.978Z</time>
      </trkpt>
      <trkpt lat="43.22718167" lon="-6.84039833">
        <ele>483.0</ele>
        <time>2022-06-19T06:39:23.007Z</time>
      </trkpt>
      <trkpt lat="43.22718167" lon="-6.84039833">
        <ele>483.0</ele>
        <time>2022-06-19T06:39:24.013Z</time>
      </trkpt>
      <trkpt lat="43.227205" lon="-6.84034333">
        <ele>483.0</ele>
        <time>2022-06-19T06:39:25.001Z</time>
      </trkpt>
      <trkpt lat="43.227205" lon="-6.84034333">
        <ele>483.0</ele>
        <time>2022-06-19T06:39:26.007Z</time>
      </trkpt>
      <trkpt lat="43.227225" lon="-6.84028333">
        <ele>484.0</ele>
        <time>2022-06-19T06:39:26.992Z</time>
      </trkpt>
      <trkpt lat="43.227235" lon="-6.84025333">
        <ele>484.0</ele>
        <time>2022-06-19T06:39:28.004Z</time>
      </trkpt>
      <trkpt lat="43.227235" lon="-6.84025333">
        <ele>484.0</ele>
        <time>2022-06-19T06:39:29.010Z</time>
      </trkpt>
      <trkpt lat="43.22725833" lon="-6.840195">
        <ele>485.0</ele>
        <time>2022-06-19T06:39:29.997Z</time>
      </trkpt>
      <trkpt lat="43.22726833" lon="-6.840165">
        <ele>485.0</ele>
        <time>2022-06-19T06:39:30.992Z</time>
      </trkpt>
      <trkpt lat="43.22726833" lon="-6.840165">
        <ele>485.0</ele>
        <time>2022-06-19T06:39:31.997Z</time>
      </trkpt>
      <trkpt lat="43.22729167" lon="-6.840105">
        <ele>485.0</ele>
        <time>2022-06-19T06:39:33.015Z</time>
      </trkpt>
      <trkpt lat="43.22729167" lon="-6.840105">
        <ele>485.0</ele>
        <time>2022-06-19T06:39:33.987Z</time>
      </trkpt>
      <trkpt lat="43.22731667" lon="-6.84004833">
        <ele>486.0</ele>
        <time>2022-06-19T06:39:34.990Z</time>
      </trkpt>
      <trkpt lat="43.22731667" lon="-6.84004833">
        <ele>486.0</ele>
        <time>2022-06-19T06:39:35.997Z</time>
      </trkpt>
      <trkpt lat="43.22735167" lon="-6.84000167">
        <ele>486.0</ele>
        <time>2022-06-19T06:39:36.992Z</time>
      </trkpt>
      <trkpt lat="43.22735167" lon="-6.84000167">
        <ele>486.0</ele>
        <time>2022-06-19T06:39:37.998Z</time>
      </trkpt>
      <trkpt lat="43.22738333" lon="-6.83995">
        <ele>486.0</ele>
        <time>2022-06-19T06:39:38.982Z</time>
      </trkpt>
      <trkpt lat="43.22738333" lon="-6.83995">
        <ele>486.0</ele>
        <time>2022-06-19T06:39:39.988Z</time>
      </trkpt>
      <trkpt lat="43.22741333" lon="-6.83989833">
        <ele>487.0</ele>
        <time>2022-06-19T06:39:40.987Z</time>
      </trkpt>
      <trkpt lat="43.22742667" lon="-6.83987333">
        <ele>487.0</ele>
        <time>2022-06-19T06:39:42.012Z</time>
      </trkpt>
      <trkpt lat="43.22744" lon="-6.83984833">
        <ele>487.0</ele>
        <time>2022-06-19T06:39:42.989Z</time>
      </trkpt>
      <trkpt lat="43.227455" lon="-6.83982">
        <ele>487.0</ele>
        <time>2022-06-19T06:39:44.013Z</time>
      </trkpt>
      <trkpt lat="43.22747" lon="-6.83979333">
        <ele>487.0</ele>
        <time>2022-06-19T06:39:45.008Z</time>
      </trkpt>
      <trkpt lat="43.22747" lon="-6.83979333">
        <ele>487.0</ele>
        <time>2022-06-19T06:39:46.013Z</time>
      </trkpt>
      <trkpt lat="43.227495" lon="-6.83972833">
        <ele>488.0</ele>
        <time>2022-06-19T06:39:47.005Z</time>
      </trkpt>
      <trkpt lat="43.227495" lon="-6.83972833">
        <ele>488.0</ele>
        <time>2022-06-19T06:39:48.010Z</time>
      </trkpt>
      <trkpt lat="43.227525" lon="-6.839665">
        <ele>488.0</ele>
        <time>2022-06-19T06:39:49.007Z</time>
      </trkpt>
      <trkpt lat="43.227525" lon="-6.839665">
        <ele>488.0</ele>
        <time>2022-06-19T06:39:50.012Z</time>
      </trkpt>
      <trkpt lat="43.22755833" lon="-6.83960333">
        <ele>488.0</ele>
        <time>2022-06-19T06:39:50.995Z</time>
      </trkpt>
      <trkpt lat="43.22755833" lon="-6.83960333">
        <ele>488.0</ele>
        <time>2022-06-19T06:39:52.001Z</time>
      </trkpt>
      <trkpt lat="43.22758167" lon="-6.83954833">
        <ele>489.0</ele>
        <time>2022-06-19T06:39:52.989Z</time>
      </trkpt>
      <trkpt lat="43.22758167" lon="-6.83954833">
        <ele>489.0</ele>
        <time>2022-06-19T06:39:53.995Z</time>
      </trkpt>
      <trkpt lat="43.22759667" lon="-6.83949667">
        <ele>489.0</ele>
        <time>2022-06-19T06:39:55.008Z</time>
      </trkpt>
      <trkpt lat="43.22759667" lon="-6.83949667">
        <ele>489.0</ele>
        <time>2022-06-19T06:39:56.014Z</time>
      </trkpt>
      <trkpt lat="43.22760833" lon="-6.839445">
        <ele>490.0</ele>
        <time>2022-06-19T06:39:57.010Z</time>
      </trkpt>
      <trkpt lat="43.22761167" lon="-6.83942167">
        <ele>490.0</ele>
        <time>2022-06-19T06:39:57.999Z</time>
      </trkpt>
      <trkpt lat="43.22761333" lon="-6.83939833">
        <ele>490.0</ele>
        <time>2022-06-19T06:39:59.010Z</time>
      </trkpt>
      <trkpt lat="43.22761333" lon="-6.83939833">
        <ele>490.0</ele>
        <time>2022-06-19T06:40:00.016Z</time>
      </trkpt>
      <trkpt lat="43.22762333" lon="-6.83934333">
        <ele>491.0</ele>
        <time>2022-06-19T06:40:00.983Z</time>
      </trkpt>
      <trkpt lat="43.22762333" lon="-6.83934333">
        <ele>491.0</ele>
        <time>2022-06-19T06:40:01.989Z</time>
      </trkpt>
      <trkpt lat="43.22766667" lon="-6.839255">
        <ele>491.0</ele>
        <time>2022-06-19T06:40:02.982Z</time>
      </trkpt>
      <trkpt lat="43.22770667" lon="-6.83920667">
        <ele>490.0</ele>
        <time>2022-06-19T06:40:04.003Z</time>
      </trkpt>
      <trkpt lat="43.227755" lon="-6.83914667">
        <ele>490.0</ele>
        <time>2022-06-19T06:40:05.005Z</time>
      </trkpt>
      <trkpt lat="43.227755" lon="-6.83914667">
        <ele>490.0</ele>
        <time>2022-06-19T06:40:06.010Z</time>
      </trkpt>
      <trkpt lat="43.227865" lon="-6.83901">
        <ele>490.0</ele>
        <time>2022-06-19T06:40:07.008Z</time>
      </trkpt>
      <trkpt lat="43.227865" lon="-6.83901">
        <ele>490.0</ele>
        <time>2022-06-19T06:40:08.014Z</time>
      </trkpt>
      <trkpt lat="43.22799" lon="-6.838865">
        <ele>489.0</ele>
        <time>2022-06-19T06:40:09.012Z</time>
      </trkpt>
      <trkpt lat="43.22799" lon="-6.838865">
        <ele>489.0</ele>
        <time>2022-06-19T06:40:09.978Z</time>
      </trkpt>
      <trkpt lat="43.22810167" lon="-6.83873">
        <ele>488.0</ele>
        <time>2022-06-19T06:40:11.017Z</time>
      </trkpt>
      <trkpt lat="43.22815333" lon="-6.83866833">
        <ele>488.0</ele>
        <time>2022-06-19T06:40:12.006Z</time>
      </trkpt>
      <trkpt lat="43.22815333" lon="-6.83866833">
        <ele>488.0</ele>
        <time>2022-06-19T06:40:13.011Z</time>
      </trkpt>
      <trkpt lat="43.228255" lon="-6.838575">
        <ele>487.0</ele>
        <time>2022-06-19T06:40:13.995Z</time>
      </trkpt>
      <trkpt lat="43.228255" lon="-6.838575">
        <ele>487.0</ele>
        <time>2022-06-19T06:40:14.979Z</time>
      </trkpt>
      <trkpt lat="43.22833667" lon="-6.83855833">
        <ele>485.0</ele>
        <time>2022-06-19T06:40:16.006Z</time>
      </trkpt>
      <trkpt lat="43.22833667" lon="-6.83855833">
        <ele>485.0</ele>
        <time>2022-06-19T06:40:17.011Z</time>
      </trkpt>
      <trkpt lat="43.22838" lon="-6.83862">
        <ele>484.0</ele>
        <time>2022-06-19T06:40:18.004Z</time>
      </trkpt>
      <trkpt lat="43.22838" lon="-6.83862">
        <ele>484.0</ele>
        <time>2022-06-19T06:40:19.010Z</time>
      </trkpt>
      <trkpt lat="43.228355" lon="-6.83872833">
        <ele>483.0</ele>
        <time>2022-06-19T06:40:19.993Z</time>
      </trkpt>
      <trkpt lat="43.228355" lon="-6.83872833">
        <ele>483.0</ele>
        <time>2022-06-19T06:40:20.999Z</time>
      </trkpt>
      <trkpt lat="43.22831833" lon="-6.838865">
        <ele>482.0</ele>
        <time>2022-06-19T06:40:22.006Z</time>
      </trkpt>
      <trkpt lat="43.22831167" lon="-6.83895">
        <ele>482.0</ele>
        <time>2022-06-19T06:40:22.998Z</time>
      </trkpt>
      <trkpt lat="43.22831167" lon="-6.83895">
        <ele>482.0</ele>
        <time>2022-06-19T06:40:24.003Z</time>
      </trkpt>
      <trkpt lat="43.22831833" lon="-6.83914167">
        <ele>481.0</ele>
        <time>2022-06-19T06:40:24.992Z</time>
      </trkpt>
      <trkpt lat="43.22831833" lon="-6.83914167">
        <ele>481.0</ele>
        <time>2022-06-19T06:40:25.998Z</time>
      </trkpt>
      <trkpt lat="43.22831333" lon="-6.83931167">
        <ele>480.0</ele>
        <time>2022-06-19T06:40:27.004Z</time>
      </trkpt>
      <trkpt lat="43.22831333" lon="-6.83931167">
        <ele>480.0</ele>
        <time>2022-06-19T06:40:28.009Z</time>
      </trkpt>
      <trkpt lat="43.22829333" lon="-6.839435">
        <ele>479.0</ele>
        <time>2022-06-19T06:40:29.000Z</time>
      </trkpt>
      <trkpt lat="43.228295" lon="-6.83949333">
        <ele>478.0</ele>
        <time>2022-06-19T06:40:30.013Z</time>
      </trkpt>
      <trkpt lat="43.228295" lon="-6.83949333">
        <ele>478.0</ele>
        <time>2022-06-19T06:40:30.978Z</time>
      </trkpt>
      <trkpt lat="43.22832667" lon="-6.83960167">
        <ele>478.0</ele>
        <time>2022-06-19T06:40:32.014Z</time>
      </trkpt>
      <trkpt lat="43.22835667" lon="-6.839645">
        <ele>477.0</ele>
        <time>2022-06-19T06:40:32.986Z</time>
      </trkpt>
      <trkpt lat="43.22835667" lon="-6.839645">
        <ele>477.0</ele>
        <time>2022-06-19T06:40:33.992Z</time>
      </trkpt>
      <trkpt lat="43.22841667" lon="-6.839735">
        <ele>476.0</ele>
        <time>2022-06-19T06:40:35.007Z</time>
      </trkpt>
      <trkpt lat="43.22841667" lon="-6.839735">
        <ele>476.0</ele>
        <time>2022-06-19T06:40:36.014Z</time>
      </trkpt>
      <trkpt lat="43.22846167" lon="-6.83983167">
        <ele>476.0</ele>
        <time>2022-06-19T06:40:37.006Z</time>
      </trkpt>
      <trkpt lat="43.22846167" lon="-6.83983167">
        <ele>476.0</ele>
        <time>2022-06-19T06:40:38.012Z</time>
      </trkpt>
      <trkpt lat="43.22849" lon="-6.83993">
        <ele>475.0</ele>
        <time>2022-06-19T06:40:38.996Z</time>
      </trkpt>
      <trkpt lat="43.2285" lon="-6.83997667">
        <ele>474.0</ele>
        <time>2022-06-19T06:40:39.984Z</time>
      </trkpt>
      <trkpt lat="43.2285" lon="-6.83997667">
        <ele>474.0</ele>
        <time>2022-06-19T06:40:40.995Z</time>
      </trkpt>
      <trkpt lat="43.22853" lon="-6.84005333">
        <ele>474.0</ele>
        <time>2022-06-19T06:40:41.993Z</time>
      </trkpt>
      <trkpt lat="43.22854833" lon="-6.84008667">
        <ele>474.0</ele>
        <time>2022-06-19T06:40:43.012Z</time>
      </trkpt>
      <trkpt lat="43.22854833" lon="-6.84008667">
        <ele>474.0</ele>
        <time>2022-06-19T06:40:44.017Z</time>
      </trkpt>
      <trkpt lat="43.22858" lon="-6.840155">
        <ele>473.0</ele>
        <time>2022-06-19T06:40:45.007Z</time>
      </trkpt>
      <trkpt lat="43.228595" lon="-6.84018667">
        <ele>473.0</ele>
        <time>2022-06-19T06:40:45.989Z</time>
      </trkpt>
      <trkpt lat="43.228595" lon="-6.84018667">
        <ele>473.0</ele>
        <time>2022-06-19T06:40:46.998Z</time>
      </trkpt>
      <trkpt lat="43.22862833" lon="-6.84025">
        <ele>473.0</ele>
        <time>2022-06-19T06:40:47.993Z</time>
      </trkpt>
      <trkpt lat="43.22862833" lon="-6.84025">
        <ele>473.0</ele>
        <time>2022-06-19T06:40:48.998Z</time>
      </trkpt>
      <trkpt lat="43.22866167" lon="-6.84028667">
        <ele>472.0</ele>
        <time>2022-06-19T06:40:49.983Z</time>
      </trkpt>
      <trkpt lat="43.22866167" lon="-6.84028667">
        <ele>472.0</ele>
        <time>2022-06-19T06:40:50.989Z</time>
      </trkpt>
      <trkpt lat="43.22868667" lon="-6.84032333">
        <ele>472.0</ele>
        <time>2022-06-19T06:40:51.978Z</time>
      </trkpt>
      <trkpt lat="43.22869833" lon="-6.84034167">
        <ele>472.0</ele>
        <time>2022-06-19T06:40:53.000Z</time>
      </trkpt>
      <trkpt lat="43.22869833" lon="-6.84034167">
        <ele>472.0</ele>
        <time>2022-06-19T06:40:54.005Z</time>
      </trkpt>
      <trkpt lat="43.22871667" lon="-6.84037833">
        <ele>472.0</ele>
        <time>2022-06-19T06:40:55.001Z</time>
      </trkpt>
      <trkpt lat="43.22871667" lon="-6.84037833">
        <ele>472.0</ele>
        <time>2022-06-19T06:40:56.007Z</time>
      </trkpt>
      <trkpt lat="43.22873167" lon="-6.840415">
        <ele>472.0</ele>
        <time>2022-06-19T06:40:56.998Z</time>
      </trkpt>
      <trkpt lat="43.22873667" lon="-6.840435">
        <ele>472.0</ele>
        <time>2022-06-19T06:40:57.992Z</time>
      </trkpt>
      <trkpt lat="43.22873667" lon="-6.840435">
        <ele>472.0</ele>
        <time>2022-06-19T06:40:58.999Z</time>
      </trkpt>
      <trkpt lat="43.22875167" lon="-6.84048167">
        <ele>472.0</ele>
        <time>2022-06-19T06:41:00.013Z</time>
      </trkpt>
      <trkpt lat="43.228755" lon="-6.84050667">
        <ele>471.0</ele>
        <time>2022-06-19T06:41:00.992Z</time>
      </trkpt>
      <trkpt lat="43.228755" lon="-6.84050667">
        <ele>471.0</ele>
        <time>2022-06-19T06:41:01.997Z</time>
      </trkpt>
      <trkpt lat="43.22875167" lon="-6.84055333">
        <ele>472.0</ele>
        <time>2022-06-19T06:41:03.012Z</time>
      </trkpt>
      <trkpt lat="43.22875167" lon="-6.84055333">
        <ele>472.0</ele>
        <time>2022-06-19T06:41:03.978Z</time>
      </trkpt>
      <trkpt lat="43.22875" lon="-6.84061167">
        <ele>472.0</ele>
        <time>2022-06-19T06:41:05.006Z</time>
      </trkpt>
      <trkpt lat="43.22875" lon="-6.84061167">
        <ele>472.0</ele>
        <time>2022-06-19T06:41:06.011Z</time>
      </trkpt>
      <trkpt lat="43.228775" lon="-6.84072">
        <ele>471.0</ele>
        <time>2022-06-19T06:41:06.988Z</time>
      </trkpt>
      <trkpt lat="43.228775" lon="-6.84072">
        <ele>471.0</ele>
        <time>2022-06-19T06:41:08.008Z</time>
      </trkpt>
      <trkpt lat="43.22882333" lon="-6.84086167">
        <ele>471.0</ele>
        <time>2022-06-19T06:41:09.000Z</time>
      </trkpt>
      <trkpt lat="43.22884833" lon="-6.84093667">
        <ele>471.0</ele>
        <time>2022-06-19T06:41:09.984Z</time>
      </trkpt>
      <trkpt lat="43.22884833" lon="-6.84093667">
        <ele>471.0</ele>
        <time>2022-06-19T06:41:10.990Z</time>
      </trkpt>
      <trkpt lat="43.22890167" lon="-6.84106667">
        <ele>471.0</ele>
        <time>2022-06-19T06:41:11.993Z</time>
      </trkpt>
      <trkpt lat="43.22892667" lon="-6.84112">
        <ele>471.0</ele>
        <time>2022-06-19T06:41:12.981Z</time>
      </trkpt>
      <trkpt lat="43.22892667" lon="-6.84112">
        <ele>471.0</ele>
        <time>2022-06-19T06:41:13.989Z</time>
      </trkpt>
      <trkpt lat="43.22895333" lon="-6.84118833">
        <ele>471.0</ele>
        <time>2022-06-19T06:41:15.017Z</time>
      </trkpt>
      <trkpt lat="43.22895333" lon="-6.84118833">
        <ele>471.0</ele>
        <time>2022-06-19T06:41:15.986Z</time>
      </trkpt>
      <trkpt lat="43.22897" lon="-6.84123833">
        <ele>471.0</ele>
        <time>2022-06-19T06:41:17.015Z</time>
      </trkpt>
      <trkpt lat="43.22897" lon="-6.84123833">
        <ele>471.0</ele>
        <time>2022-06-19T06:41:17.989Z</time>
      </trkpt>
      <trkpt lat="43.22898667" lon="-6.84129833">
        <ele>471.0</ele>
        <time>2022-06-19T06:41:19.011Z</time>
      </trkpt>
      <trkpt lat="43.22898667" lon="-6.84129833">
        <ele>471.0</ele>
        <time>2022-06-19T06:41:20.017Z</time>
      </trkpt>
      <trkpt lat="43.22898" lon="-6.841345">
        <ele>471.0</ele>
        <time>2022-06-19T06:41:21.013Z</time>
      </trkpt>
      <trkpt lat="43.22898" lon="-6.841345">
        <ele>471.0</ele>
        <time>2022-06-19T06:41:21.979Z</time>
      </trkpt>
      <trkpt lat="43.22899" lon="-6.84140667">
        <ele>472.0</ele>
        <time>2022-06-19T06:41:22.995Z</time>
      </trkpt>
      <trkpt lat="43.22899" lon="-6.84140667">
        <ele>472.0</ele>
        <time>2022-06-19T06:41:24.001Z</time>
      </trkpt>
      <trkpt lat="43.22900667" lon="-6.841465">
        <ele>472.0</ele>
        <time>2022-06-19T06:41:25.002Z</time>
      </trkpt>
      <trkpt lat="43.22900667" lon="-6.841465">
        <ele>472.0</ele>
        <time>2022-06-19T06:41:26.008Z</time>
      </trkpt>
      <trkpt lat="43.22902" lon="-6.84152833">
        <ele>472.0</ele>
        <time>2022-06-19T06:41:26.986Z</time>
      </trkpt>
      <trkpt lat="43.22902833" lon="-6.84155833">
        <ele>472.0</ele>
        <time>2022-06-19T06:41:27.982Z</time>
      </trkpt>
      <trkpt lat="43.22902833" lon="-6.84155833">
        <ele>472.0</ele>
        <time>2022-06-19T06:41:28.989Z</time>
      </trkpt>
      <trkpt lat="43.22904333" lon="-6.84162333">
        <ele>473.0</ele>
        <time>2022-06-19T06:41:30.001Z</time>
      </trkpt>
      <trkpt lat="43.22905167" lon="-6.841655">
        <ele>473.0</ele>
        <time>2022-06-19T06:41:31.000Z</time>
      </trkpt>
      <trkpt lat="43.22905167" lon="-6.841655">
        <ele>473.0</ele>
        <time>2022-06-19T06:41:32.006Z</time>
      </trkpt>
      <trkpt lat="43.229055" lon="-6.84172">
        <ele>473.0</ele>
        <time>2022-06-19T06:41:33.004Z</time>
      </trkpt>
      <trkpt lat="43.229055" lon="-6.84172">
        <ele>473.0</ele>
        <time>2022-06-19T06:41:34.009Z</time>
      </trkpt>
      <trkpt lat="43.22906" lon="-6.841775">
        <ele>473.0</ele>
        <time>2022-06-19T06:41:35.007Z</time>
      </trkpt>
      <trkpt lat="43.22906" lon="-6.841775">
        <ele>473.0</ele>
        <time>2022-06-19T06:41:36.013Z</time>
      </trkpt>
      <trkpt lat="43.22906833" lon="-6.841845">
        <ele>472.0</ele>
        <time>2022-06-19T06:41:36.980Z</time>
      </trkpt>
      <trkpt lat="43.22906833" lon="-6.841845">
        <ele>472.0</ele>
        <time>2022-06-19T06:41:37.986Z</time>
      </trkpt>
      <trkpt lat="43.22909167" lon="-6.84194333">
        <ele>471.0</ele>
        <time>2022-06-19T06:41:39.011Z</time>
      </trkpt>
      <trkpt lat="43.22911167" lon="-6.84200333">
        <ele>471.0</ele>
        <time>2022-06-19T06:41:40.004Z</time>
      </trkpt>
      <trkpt lat="43.22911167" lon="-6.84200333">
        <ele>471.0</ele>
        <time>2022-06-19T06:41:40.982Z</time>
      </trkpt>
      <trkpt lat="43.22916" lon="-6.84213">
        <ele>470.0</ele>
        <time>2022-06-19T06:41:41.996Z</time>
      </trkpt>
      <trkpt lat="43.22918167" lon="-6.84219167">
        <ele>470.0</ele>
        <time>2022-06-19T06:41:42.990Z</time>
      </trkpt>
      <trkpt lat="43.22918167" lon="-6.84219167">
        <ele>470.0</ele>
        <time>2022-06-19T06:41:43.996Z</time>
      </trkpt>
      <trkpt lat="43.22922333" lon="-6.8423">
        <ele>470.0</ele>
        <time>2022-06-19T06:41:44.987Z</time>
      </trkpt>
      <trkpt lat="43.22922333" lon="-6.8423">
        <ele>470.0</ele>
        <time>2022-06-19T06:41:45.992Z</time>
      </trkpt>
      <trkpt lat="43.22925167" lon="-6.842375">
        <ele>471.0</ele>
        <time>2022-06-19T06:41:46.983Z</time>
      </trkpt>
      <trkpt lat="43.22926" lon="-6.84239167">
        <ele>471.0</ele>
        <time>2022-06-19T06:41:48.008Z</time>
      </trkpt>
      <trkpt lat="43.22926" lon="-6.84239833">
        <ele>471.0</ele>
        <time>2022-06-19T06:41:48.998Z</time>
      </trkpt>
      <trkpt lat="43.22926" lon="-6.84239833">
        <ele>471.0</ele>
        <time>2022-06-19T06:41:50.004Z</time>
      </trkpt>
      <trkpt lat="43.22925833" lon="-6.84240167">
        <ele>472.0</ele>
        <time>2022-06-19T06:43:22.486Z</time>
      </trkpt>
      <trkpt lat="43.229295" lon="-6.84250167">
        <ele>472.0</ele>
        <time>2022-06-19T06:43:23.478Z</time>
      </trkpt>
      <trkpt lat="43.229295" lon="-6.84250167">
        <ele>472.0</ele>
        <time>2022-06-19T06:43:24.476Z</time>
      </trkpt>
      <trkpt lat="43.22932167" lon="-6.84254833">
        <ele>472.0</ele>
        <time>2022-06-19T06:43:25.503Z</time>
      </trkpt>
      <trkpt lat="43.22932167" lon="-6.84254833">
        <ele>472.0</ele>
        <time>2022-06-19T06:43:26.494Z</time>
      </trkpt>
      <trkpt lat="43.22933167" lon="-6.842555">
        <ele>472.0</ele>
        <time>2022-06-19T06:43:27.474Z</time>
      </trkpt>
      <trkpt lat="43.22933167" lon="-6.842555">
        <ele>472.0</ele>
        <time>2022-06-19T06:43:28.472Z</time>
      </trkpt>
      <trkpt lat="43.22933167" lon="-6.84255667">
        <ele>472.0</ele>
        <time>2022-06-19T06:43:29.486Z</time>
      </trkpt>
      <trkpt lat="43.22933167" lon="-6.84255667">
        <ele>472.0</ele>
        <time>2022-06-19T06:44:03.445Z</time>
      </trkpt>
      <trkpt lat="43.22935" lon="-6.84263167">
        <ele>473.0</ele>
        <time>2022-06-19T06:44:04.444Z</time>
      </trkpt>
      <trkpt lat="43.22935" lon="-6.84263167">
        <ele>473.0</ele>
        <time>2022-06-19T06:44:05.466Z</time>
      </trkpt>
      <trkpt lat="43.22939833" lon="-6.84268333">
        <ele>473.0</ele>
        <time>2022-06-19T06:44:06.479Z</time>
      </trkpt>
      <trkpt lat="43.22939833" lon="-6.84268333">
        <ele>473.0</ele>
        <time>2022-06-19T06:44:07.446Z</time>
      </trkpt>
      <trkpt lat="43.22947667" lon="-6.84273833">
        <ele>473.0</ele>
        <time>2022-06-19T06:44:08.458Z</time>
      </trkpt>
      <trkpt lat="43.22952333" lon="-6.84276333">
        <ele>473.0</ele>
        <time>2022-06-19T06:44:09.473Z</time>
      </trkpt>
      <trkpt lat="43.22957" lon="-6.84278667">
        <ele>473.0</ele>
        <time>2022-06-19T06:44:10.477Z</time>
      </trkpt>
      <trkpt lat="43.22957" lon="-6.84278667">
        <ele>473.0</ele>
        <time>2022-06-19T06:44:11.470Z</time>
      </trkpt>
      <trkpt lat="43.22965667" lon="-6.84284333">
        <ele>473.0</ele>
        <time>2022-06-19T06:44:12.448Z</time>
      </trkpt>
      <trkpt lat="43.22965667" lon="-6.84284333">
        <ele>473.0</ele>
        <time>2022-06-19T06:44:13.441Z</time>
      </trkpt>
      <trkpt lat="43.22974167" lon="-6.84290833">
        <ele>472.0</ele>
        <time>2022-06-19T06:44:14.455Z</time>
      </trkpt>
      <trkpt lat="43.22974167" lon="-6.84290833">
        <ele>472.0</ele>
        <time>2022-06-19T06:44:15.469Z</time>
      </trkpt>
      <trkpt lat="43.22983833" lon="-6.84298333">
        <ele>471.0</ele>
        <time>2022-06-19T06:44:16.443Z</time>
      </trkpt>
      <trkpt lat="43.22983833" lon="-6.84298333">
        <ele>471.0</ele>
        <time>2022-06-19T06:44:17.471Z</time>
      </trkpt>
      <trkpt lat="43.22996167" lon="-6.843065">
        <ele>470.0</ele>
        <time>2022-06-19T06:44:18.459Z</time>
      </trkpt>
      <trkpt lat="43.230035" lon="-6.843105">
        <ele>469.0</ele>
        <time>2022-06-19T06:44:19.449Z</time>
      </trkpt>
      <trkpt lat="43.230035" lon="-6.843105">
        <ele>469.0</ele>
        <time>2022-06-19T06:44:20.466Z</time>
      </trkpt>
      <trkpt lat="43.23019167" lon="-6.84318333">
        <ele>467.0</ele>
        <time>2022-06-19T06:44:21.480Z</time>
      </trkpt>
      <trkpt lat="43.230275" lon="-6.84321667">
        <ele>466.0</ele>
        <time>2022-06-19T06:44:22.449Z</time>
      </trkpt>
      <trkpt lat="43.230275" lon="-6.84321667">
        <ele>466.0</ele>
        <time>2022-06-19T06:44:23.480Z</time>
      </trkpt>
      <trkpt lat="43.23045667" lon="-6.84325667">
        <ele>464.0</ele>
        <time>2022-06-19T06:44:24.465Z</time>
      </trkpt>
      <trkpt lat="43.23045667" lon="-6.84325667">
        <ele>464.0</ele>
        <time>2022-06-19T06:44:25.454Z</time>
      </trkpt>
      <trkpt lat="43.23065333" lon="-6.84327">
        <ele>463.0</ele>
        <time>2022-06-19T06:44:26.475Z</time>
      </trkpt>
      <trkpt lat="43.23065333" lon="-6.84327">
        <ele>463.0</ele>
        <time>2022-06-19T06:44:27.450Z</time>
      </trkpt>
      <trkpt lat="43.23085" lon="-6.84332333">
        <ele>461.0</ele>
        <time>2022-06-19T06:44:28.455Z</time>
      </trkpt>
      <trkpt lat="43.23094667" lon="-6.84336">
        <ele>461.0</ele>
        <time>2022-06-19T06:44:29.447Z</time>
      </trkpt>
      <trkpt lat="43.23103667" lon="-6.84339833">
        <ele>460.0</ele>
        <time>2022-06-19T06:44:30.447Z</time>
      </trkpt>
      <trkpt lat="43.23103667" lon="-6.84339833">
        <ele>460.0</ele>
        <time>2022-06-19T06:44:31.441Z</time>
      </trkpt>
      <trkpt lat="43.23122" lon="-6.84347333">
        <ele>459.0</ele>
        <time>2022-06-19T06:44:32.452Z</time>
      </trkpt>
      <trkpt lat="43.23122" lon="-6.84347333">
        <ele>459.0</ele>
        <time>2022-06-19T06:44:33.448Z</time>
      </trkpt>
      <trkpt lat="43.23139667" lon="-6.84353">
        <ele>458.0</ele>
        <time>2022-06-19T06:44:34.462Z</time>
      </trkpt>
      <trkpt lat="43.23139667" lon="-6.84353">
        <ele>458.0</ele>
        <time>2022-06-19T06:44:35.452Z</time>
      </trkpt>
      <trkpt lat="43.23156833" lon="-6.84356667">
        <ele>457.0</ele>
        <time>2022-06-19T06:44:36.472Z</time>
      </trkpt>
      <trkpt lat="43.23156833" lon="-6.84356667">
        <ele>457.0</ele>
        <time>2022-06-19T06:44:37.451Z</time>
      </trkpt>
      <trkpt lat="43.23172" lon="-6.84361667">
        <ele>457.0</ele>
        <time>2022-06-19T06:44:38.447Z</time>
      </trkpt>
      <trkpt lat="43.23178833" lon="-6.84364">
        <ele>456.0</ele>
        <time>2022-06-19T06:44:39.457Z</time>
      </trkpt>
      <trkpt lat="43.23178833" lon="-6.84364">
        <ele>456.0</ele>
        <time>2022-06-19T06:44:40.472Z</time>
      </trkpt>
      <trkpt lat="43.231895" lon="-6.84368">
        <ele>455.0</ele>
        <time>2022-06-19T06:44:41.442Z</time>
      </trkpt>
      <trkpt lat="43.23193667" lon="-6.84369667">
        <ele>455.0</ele>
        <time>2022-06-19T06:44:42.478Z</time>
      </trkpt>
      <trkpt lat="43.23193667" lon="-6.84369667">
        <ele>455.0</ele>
        <time>2022-06-19T06:44:43.465Z</time>
      </trkpt>
      <trkpt lat="43.23201167" lon="-6.84371667">
        <ele>455.0</ele>
        <time>2022-06-19T06:44:44.476Z</time>
      </trkpt>
      <trkpt lat="43.23204667" lon="-6.84373167">
        <ele>454.0</ele>
        <time>2022-06-19T06:44:45.442Z</time>
      </trkpt>
      <trkpt lat="43.23208167" lon="-6.84374167">
        <ele>454.0</ele>
        <time>2022-06-19T06:44:46.470Z</time>
      </trkpt>
      <trkpt lat="43.23208167" lon="-6.84374167">
        <ele>454.0</ele>
        <time>2022-06-19T06:44:47.443Z</time>
      </trkpt>
      <trkpt lat="43.23216333" lon="-6.84375">
        <ele>454.0</ele>
        <time>2022-06-19T06:44:48.459Z</time>
      </trkpt>
      <trkpt lat="43.23221" lon="-6.84376">
        <ele>453.0</ele>
        <time>2022-06-19T06:44:49.441Z</time>
      </trkpt>
      <trkpt lat="43.23221" lon="-6.84376">
        <ele>453.0</ele>
        <time>2022-06-19T06:44:50.470Z</time>
      </trkpt>
      <trkpt lat="43.23231" lon="-6.84378333">
        <ele>453.0</ele>
        <time>2022-06-19T06:44:51.468Z</time>
      </trkpt>
      <trkpt lat="43.23236667" lon="-6.84379333">
        <ele>452.0</ele>
        <time>2022-06-19T06:44:52.456Z</time>
      </trkpt>
      <trkpt lat="43.23236667" lon="-6.84379333">
        <ele>452.0</ele>
        <time>2022-06-19T06:44:53.463Z</time>
      </trkpt>
      <trkpt lat="43.23248667" lon="-6.84381167">
        <ele>451.0</ele>
        <time>2022-06-19T06:44:54.477Z</time>
      </trkpt>
      <trkpt lat="43.23248667" lon="-6.84381167">
        <ele>451.0</ele>
        <time>2022-06-19T06:44:55.473Z</time>
      </trkpt>
      <trkpt lat="43.23262" lon="-6.84383">
        <ele>451.0</ele>
        <time>2022-06-19T06:44:56.448Z</time>
      </trkpt>
      <trkpt lat="43.23262" lon="-6.84383">
        <ele>451.0</ele>
        <time>2022-06-19T06:44:57.466Z</time>
      </trkpt>
      <trkpt lat="43.23276" lon="-6.84385667">
        <ele>449.0</ele>
        <time>2022-06-19T06:44:58.479Z</time>
      </trkpt>
      <trkpt lat="43.23276" lon="-6.84385667">
        <ele>449.0</ele>
        <time>2022-06-19T06:44:59.469Z</time>
      </trkpt>
      <trkpt lat="43.23292333" lon="-6.84388167">
        <ele>448.0</ele>
        <time>2022-06-19T06:45:00.470Z</time>
      </trkpt>
      <trkpt lat="43.23292333" lon="-6.84388167">
        <ele>448.0</ele>
        <time>2022-06-19T06:45:01.475Z</time>
      </trkpt>
      <trkpt lat="43.23310833" lon="-6.84390333">
        <ele>446.0</ele>
        <time>2022-06-19T06:45:02.464Z</time>
      </trkpt>
      <trkpt lat="43.23320167" lon="-6.84391667">
        <ele>445.0</ele>
        <time>2022-06-19T06:45:03.454Z</time>
      </trkpt>
      <trkpt lat="43.23320167" lon="-6.84391667">
        <ele>445.0</ele>
        <time>2022-06-19T06:45:04.473Z</time>
      </trkpt>
      <trkpt lat="43.23338833" lon="-6.84392833">
        <ele>440.0</ele>
        <time>2022-06-19T06:45:05.444Z</time>
      </trkpt>
      <trkpt lat="43.233465" lon="-6.84392667">
        <ele>439.0</ele>
        <time>2022-06-19T06:45:06.465Z</time>
      </trkpt>
      <trkpt lat="43.233465" lon="-6.84392667">
        <ele>439.0</ele>
        <time>2022-06-19T06:45:07.444Z</time>
      </trkpt>
      <trkpt lat="43.23359667" lon="-6.84391">
        <ele>438.0</ele>
        <time>2022-06-19T06:45:08.459Z</time>
      </trkpt>
      <trkpt lat="43.23363667" lon="-6.84389333">
        <ele>437.0</ele>
        <time>2022-06-19T06:45:09.473Z</time>
      </trkpt>
      <trkpt lat="43.23366333" lon="-6.84386333">
        <ele>438.0</ele>
        <time>2022-06-19T06:45:10.447Z</time>
      </trkpt>
      <trkpt lat="43.23366333" lon="-6.84386333">
        <ele>438.0</ele>
        <time>2022-06-19T06:45:11.468Z</time>
      </trkpt>
      <trkpt lat="43.23370333" lon="-6.84376167">
        <ele>437.0</ele>
        <time>2022-06-19T06:45:12.447Z</time>
      </trkpt>
      <trkpt lat="43.23370333" lon="-6.84376167">
        <ele>437.0</ele>
        <time>2022-06-19T06:45:13.480Z</time>
      </trkpt>
      <trkpt lat="43.23374667" lon="-6.84363667">
        <ele>437.0</ele>
        <time>2022-06-19T06:45:14.452Z</time>
      </trkpt>
      <trkpt lat="43.23374667" lon="-6.84363667">
        <ele>437.0</ele>
        <time>2022-06-19T06:45:15.464Z</time>
      </trkpt>
      <trkpt lat="43.23380833" lon="-6.84350833">
        <ele>436.0</ele>
        <time>2022-06-19T06:45:16.477Z</time>
      </trkpt>
      <trkpt lat="43.23380833" lon="-6.84350833">
        <ele>436.0</ele>
        <time>2022-06-19T06:45:17.455Z</time>
      </trkpt>
      <trkpt lat="43.23384" lon="-6.84337667">
        <ele>436.0</ele>
        <time>2022-06-19T06:45:18.443Z</time>
      </trkpt>
      <trkpt lat="43.23384" lon="-6.84337667">
        <ele>436.0</ele>
        <time>2022-06-19T06:45:19.442Z</time>
      </trkpt>
      <trkpt lat="43.23387" lon="-6.843235">
        <ele>435.0</ele>
        <time>2022-06-19T06:45:20.455Z</time>
      </trkpt>
      <trkpt lat="43.23387" lon="-6.843235">
        <ele>435.0</ele>
        <time>2022-06-19T06:45:21.447Z</time>
      </trkpt>
      <trkpt lat="43.23388" lon="-6.84308667">
        <ele>435.0</ele>
        <time>2022-06-19T06:45:22.460Z</time>
      </trkpt>
      <trkpt lat="43.23388" lon="-6.84308667">
        <ele>435.0</ele>
        <time>2022-06-19T06:45:23.466Z</time>
      </trkpt>
      <trkpt lat="43.23389167" lon="-6.84293">
        <ele>435.0</ele>
        <time>2022-06-19T06:45:24.484Z</time>
      </trkpt>
      <trkpt lat="43.23389167" lon="-6.84293">
        <ele>435.0</ele>
        <time>2022-06-19T06:45:25.471Z</time>
      </trkpt>
      <trkpt lat="43.23389667" lon="-6.84276833">
        <ele>434.0</ele>
        <time>2022-06-19T06:45:26.445Z</time>
      </trkpt>
      <trkpt lat="43.23389667" lon="-6.84276833">
        <ele>434.0</ele>
        <time>2022-06-19T06:45:27.467Z</time>
      </trkpt>
      <trkpt lat="43.23391167" lon="-6.842635">
        <ele>434.0</ele>
        <time>2022-06-19T06:45:28.478Z</time>
      </trkpt>
      <trkpt lat="43.23391333" lon="-6.84258667">
        <ele>433.0</ele>
        <time>2022-06-19T06:45:29.480Z</time>
      </trkpt>
      <trkpt lat="43.23391333" lon="-6.84258667">
        <ele>433.0</ele>
        <time>2022-06-19T06:45:30.467Z</time>
      </trkpt>
      <trkpt lat="43.23395833" lon="-6.84250167">
        <ele>433.0</ele>
        <time>2022-06-19T06:45:31.445Z</time>
      </trkpt>
      <trkpt lat="43.23396833" lon="-6.842465">
        <ele>432.0</ele>
        <time>2022-06-19T06:45:32.447Z</time>
      </trkpt>
      <trkpt lat="43.23402667" lon="-6.842435">
        <ele>432.0</ele>
        <time>2022-06-19T06:45:33.449Z</time>
      </trkpt>
      <trkpt lat="43.23402667" lon="-6.842435">
        <ele>432.0</ele>
        <time>2022-06-19T06:45:34.466Z</time>
      </trkpt>
      <trkpt lat="43.23408" lon="-6.84237333">
        <ele>432.0</ele>
        <time>2022-06-19T06:45:35.478Z</time>
      </trkpt>
      <trkpt lat="43.23409667" lon="-6.84234833">
        <ele>432.0</ele>
        <time>2022-06-19T06:45:36.472Z</time>
      </trkpt>
      <trkpt lat="43.23409667" lon="-6.84234833">
        <ele>432.0</ele>
        <time>2022-06-19T06:45:37.451Z</time>
      </trkpt>
      <trkpt lat="43.234115" lon="-6.84229667">
        <ele>432.0</ele>
        <time>2022-06-19T06:45:38.467Z</time>
      </trkpt>
      <trkpt lat="43.234115" lon="-6.84229667">
        <ele>432.0</ele>
        <time>2022-06-19T06:45:39.475Z</time>
      </trkpt>
      <trkpt lat="43.23415167" lon="-6.842245">
        <ele>432.0</ele>
        <time>2022-06-19T06:45:40.446Z</time>
      </trkpt>
      <trkpt lat="43.23417167" lon="-6.842215">
        <ele>432.0</ele>
        <time>2022-06-19T06:45:41.473Z</time>
      </trkpt>
      <trkpt lat="43.23417167" lon="-6.842215">
        <ele>432.0</ele>
        <time>2022-06-19T06:45:42.469Z</time>
      </trkpt>
      <trkpt lat="43.23427167" lon="-6.84210833">
        <ele>433.0</ele>
        <time>2022-06-19T06:45:43.444Z</time>
      </trkpt>
      <trkpt lat="43.23427167" lon="-6.84210833">
        <ele>433.0</ele>
        <time>2022-06-19T06:45:44.448Z</time>
      </trkpt>
      <trkpt lat="43.23433833" lon="-6.84203333">
        <ele>433.0</ele>
        <time>2022-06-19T06:45:45.481Z</time>
      </trkpt>
      <trkpt lat="43.23433833" lon="-6.84203333">
        <ele>433.0</ele>
        <time>2022-06-19T06:45:46.462Z</time>
      </trkpt>
      <trkpt lat="43.234355" lon="-6.84196833">
        <ele>434.0</ele>
        <time>2022-06-19T06:45:47.479Z</time>
      </trkpt>
      <trkpt lat="43.234355" lon="-6.84196833">
        <ele>434.0</ele>
        <time>2022-06-19T06:45:48.468Z</time>
      </trkpt>
      <trkpt lat="43.23439" lon="-6.84191167">
        <ele>434.0</ele>
        <time>2022-06-19T06:45:49.443Z</time>
      </trkpt>
      <trkpt lat="43.23439" lon="-6.84191167">
        <ele>434.0</ele>
        <time>2022-06-19T06:45:50.479Z</time>
      </trkpt>
      <trkpt lat="43.23441667" lon="-6.84185333">
        <ele>435.0</ele>
        <time>2022-06-19T06:45:51.459Z</time>
      </trkpt>
      <trkpt lat="43.23441667" lon="-6.84185333">
        <ele>435.0</ele>
        <time>2022-06-19T06:45:52.480Z</time>
      </trkpt>
      <trkpt lat="43.23447167" lon="-6.84178667">
        <ele>434.0</ele>
        <time>2022-06-19T06:45:53.455Z</time>
      </trkpt>
      <trkpt lat="43.23449167" lon="-6.84175">
        <ele>434.0</ele>
        <time>2022-06-19T06:45:54.460Z</time>
      </trkpt>
      <trkpt lat="43.23449167" lon="-6.84175">
        <ele>434.0</ele>
        <time>2022-06-19T06:45:55.450Z</time>
      </trkpt>
      <trkpt lat="43.234535" lon="-6.84169833">
        <ele>433.0</ele>
        <time>2022-06-19T06:45:56.460Z</time>
      </trkpt>
      <trkpt lat="43.23455333" lon="-6.84167333">
        <ele>433.0</ele>
        <time>2022-06-19T06:45:57.463Z</time>
      </trkpt>
      <trkpt lat="43.23455333" lon="-6.84167333">
        <ele>433.0</ele>
        <time>2022-06-19T06:45:58.478Z</time>
      </trkpt>
      <trkpt lat="43.23459167" lon="-6.841625">
        <ele>432.0</ele>
        <time>2022-06-19T06:45:59.454Z</time>
      </trkpt>
      <trkpt lat="43.23459167" lon="-6.841625">
        <ele>432.0</ele>
        <time>2022-06-19T06:46:00.476Z</time>
      </trkpt>
      <trkpt lat="43.23463833" lon="-6.84156667">
        <ele>432.0</ele>
        <time>2022-06-19T06:46:01.455Z</time>
      </trkpt>
      <trkpt lat="43.23466" lon="-6.84153">
        <ele>433.0</ele>
        <time>2022-06-19T06:46:02.480Z</time>
      </trkpt>
      <trkpt lat="43.23466" lon="-6.84153">
        <ele>433.0</ele>
        <time>2022-06-19T06:46:03.449Z</time>
      </trkpt>
      <trkpt lat="43.23470667" lon="-6.84145333">
        <ele>432.0</ele>
        <time>2022-06-19T06:46:04.464Z</time>
      </trkpt>
      <trkpt lat="43.23470667" lon="-6.84145333">
        <ele>432.0</ele>
        <time>2022-06-19T06:46:05.477Z</time>
      </trkpt>
      <trkpt lat="43.234745" lon="-6.84139">
        <ele>432.0</ele>
        <time>2022-06-19T06:46:06.444Z</time>
      </trkpt>
      <trkpt lat="43.23476" lon="-6.841355">
        <ele>432.0</ele>
        <time>2022-06-19T06:46:07.456Z</time>
      </trkpt>
      <trkpt lat="43.23476" lon="-6.841355">
        <ele>432.0</ele>
        <time>2022-06-19T06:46:08.477Z</time>
      </trkpt>
      <trkpt lat="43.23478667" lon="-6.84127167">
        <ele>432.0</ele>
        <time>2022-06-19T06:46:09.450Z</time>
      </trkpt>
      <trkpt lat="43.23478667" lon="-6.84127167">
        <ele>432.0</ele>
        <time>2022-06-19T06:46:10.453Z</time>
      </trkpt>
      <trkpt lat="43.23479167" lon="-6.84119">
        <ele>432.0</ele>
        <time>2022-06-19T06:46:11.472Z</time>
      </trkpt>
      <trkpt lat="43.23479167" lon="-6.84119">
        <ele>432.0</ele>
        <time>2022-06-19T06:46:12.459Z</time>
      </trkpt>
      <trkpt lat="43.234775" lon="-6.84110167">
        <ele>432.0</ele>
        <time>2022-06-19T06:46:13.480Z</time>
      </trkpt>
      <trkpt lat="43.234775" lon="-6.84110167">
        <ele>432.0</ele>
        <time>2022-06-19T06:46:14.467Z</time>
      </trkpt>
      <trkpt lat="43.234745" lon="-6.841">
        <ele>432.0</ele>
        <time>2022-06-19T06:46:15.442Z</time>
      </trkpt>
      <trkpt lat="43.23473833" lon="-6.84095167">
        <ele>431.0</ele>
        <time>2022-06-19T06:46:16.446Z</time>
      </trkpt>
      <trkpt lat="43.23473833" lon="-6.84095167">
        <ele>431.0</ele>
        <time>2022-06-19T06:46:17.452Z</time>
      </trkpt>
      <trkpt lat="43.23472833" lon="-6.84085667">
        <ele>431.0</ele>
        <time>2022-06-19T06:46:18.480Z</time>
      </trkpt>
      <trkpt lat="43.23472833" lon="-6.84085667">
        <ele>431.0</ele>
        <time>2022-06-19T06:46:19.455Z</time>
      </trkpt>
      <trkpt lat="43.23477667" lon="-6.84075833">
        <ele>431.0</ele>
        <time>2022-06-19T06:46:20.467Z</time>
      </trkpt>
      <trkpt lat="43.2348" lon="-6.840705">
        <ele>431.0</ele>
        <time>2022-06-19T06:46:21.456Z</time>
      </trkpt>
      <trkpt lat="43.2348" lon="-6.840705">
        <ele>431.0</ele>
        <time>2022-06-19T06:46:22.443Z</time>
      </trkpt>
      <trkpt lat="43.23484667" lon="-6.84060333">
        <ele>431.0</ele>
        <time>2022-06-19T06:46:23.453Z</time>
      </trkpt>
      <trkpt lat="43.23487167" lon="-6.84055333">
        <ele>431.0</ele>
        <time>2022-06-19T06:46:24.463Z</time>
      </trkpt>
      <trkpt lat="43.23487167" lon="-6.84055333">
        <ele>431.0</ele>
        <time>2022-06-19T06:46:25.467Z</time>
      </trkpt>
      <trkpt lat="43.23492333" lon="-6.84045833">
        <ele>430.0</ele>
        <time>2022-06-19T06:46:26.441Z</time>
      </trkpt>
      <trkpt lat="43.23492333" lon="-6.84045833">
        <ele>430.0</ele>
        <time>2022-06-19T06:46:27.478Z</time>
      </trkpt>
      <trkpt lat="43.23497833" lon="-6.84035833">
        <ele>430.0</ele>
        <time>2022-06-19T06:46:28.449Z</time>
      </trkpt>
      <trkpt lat="43.23497833" lon="-6.84035833">
        <ele>430.0</ele>
        <time>2022-06-19T06:46:29.444Z</time>
      </trkpt>
      <trkpt lat="43.235035" lon="-6.84025833">
        <ele>430.0</ele>
        <time>2022-06-19T06:46:30.461Z</time>
      </trkpt>
      <trkpt lat="43.235035" lon="-6.84025833">
        <ele>430.0</ele>
        <time>2022-06-19T06:46:31.467Z</time>
      </trkpt>
      <trkpt lat="43.23508333" lon="-6.84016167">
        <ele>430.0</ele>
        <time>2022-06-19T06:46:32.479Z</time>
      </trkpt>
      <trkpt lat="43.23511167" lon="-6.84011667">
        <ele>430.0</ele>
        <time>2022-06-19T06:46:33.461Z</time>
      </trkpt>
      <trkpt lat="43.23511167" lon="-6.84011667">
        <ele>430.0</ele>
        <time>2022-06-19T06:46:34.447Z</time>
      </trkpt>
      <trkpt lat="43.23516333" lon="-6.840005">
        <ele>430.0</ele>
        <time>2022-06-19T06:46:35.458Z</time>
      </trkpt>
      <trkpt lat="43.23518833" lon="-6.83995">
        <ele>430.0</ele>
        <time>2022-06-19T06:46:36.470Z</time>
      </trkpt>
      <trkpt lat="43.23518833" lon="-6.83995">
        <ele>430.0</ele>
        <time>2022-06-19T06:46:37.459Z</time>
      </trkpt>
      <trkpt lat="43.235235" lon="-6.83984333">
        <ele>430.0</ele>
        <time>2022-06-19T06:46:38.475Z</time>
      </trkpt>
      <trkpt lat="43.23526" lon="-6.83979167">
        <ele>430.0</ele>
        <time>2022-06-19T06:46:39.461Z</time>
      </trkpt>
      <trkpt lat="43.23526" lon="-6.83979167">
        <ele>430.0</ele>
        <time>2022-06-19T06:46:40.465Z</time>
      </trkpt>
      <trkpt lat="43.23531" lon="-6.83969833">
        <ele>430.0</ele>
        <time>2022-06-19T06:46:41.479Z</time>
      </trkpt>
      <trkpt lat="43.23532167" lon="-6.839665">
        <ele>429.0</ele>
        <time>2022-06-19T06:46:42.463Z</time>
      </trkpt>
      <trkpt lat="43.23532167" lon="-6.839665">
        <ele>429.0</ele>
        <time>2022-06-19T06:46:43.468Z</time>
      </trkpt>
      <trkpt lat="43.23535333" lon="-6.83963">
        <ele>429.0</ele>
        <time>2022-06-19T06:46:44.443Z</time>
      </trkpt>
      <trkpt lat="43.23535333" lon="-6.83963">
        <ele>429.0</ele>
        <time>2022-06-19T06:46:45.441Z</time>
      </trkpt>
      <trkpt lat="43.2354" lon="-6.839585">
        <ele>429.0</ele>
        <time>2022-06-19T06:46:46.449Z</time>
      </trkpt>
      <trkpt lat="43.2354" lon="-6.839585">
        <ele>429.0</ele>
        <time>2022-06-19T06:46:47.456Z</time>
      </trkpt>
      <trkpt lat="43.23544333" lon="-6.83952333">
        <ele>429.0</ele>
        <time>2022-06-19T06:46:48.470Z</time>
      </trkpt>
      <trkpt lat="43.23544333" lon="-6.83952333">
        <ele>429.0</ele>
        <time>2022-06-19T06:46:49.467Z</time>
      </trkpt>
      <trkpt lat="43.23547" lon="-6.839445">
        <ele>429.0</ele>
        <time>2022-06-19T06:46:50.444Z</time>
      </trkpt>
      <trkpt lat="43.23547" lon="-6.839445">
        <ele>429.0</ele>
        <time>2022-06-19T06:46:51.474Z</time>
      </trkpt>
      <trkpt lat="43.23551667" lon="-6.839375">
        <ele>429.0</ele>
        <time>2022-06-19T06:46:52.449Z</time>
      </trkpt>
      <trkpt lat="43.23554" lon="-6.83933833">
        <ele>429.0</ele>
        <time>2022-06-19T06:46:53.462Z</time>
      </trkpt>
      <trkpt lat="43.23556167" lon="-6.8393">
        <ele>429.0</ele>
        <time>2022-06-19T06:46:54.457Z</time>
      </trkpt>
      <trkpt lat="43.23556167" lon="-6.8393">
        <ele>429.0</ele>
        <time>2022-06-19T06:46:55.448Z</time>
      </trkpt>
      <trkpt lat="43.23558833" lon="-6.83922667">
        <ele>428.0</ele>
        <time>2022-06-19T06:46:56.463Z</time>
      </trkpt>
      <trkpt lat="43.23558833" lon="-6.83922667">
        <ele>428.0</ele>
        <time>2022-06-19T06:46:57.464Z</time>
      </trkpt>
      <trkpt lat="43.23561333" lon="-6.83918167">
        <ele>428.0</ele>
        <time>2022-06-19T06:46:58.449Z</time>
      </trkpt>
      <trkpt lat="43.23561333" lon="-6.83918167">
        <ele>428.0</ele>
        <time>2022-06-19T06:46:59.449Z</time>
      </trkpt>
      <trkpt lat="43.23564" lon="-6.83917333">
        <ele>427.0</ele>
        <time>2022-06-19T06:47:00.492Z</time>
      </trkpt>
      <trkpt lat="43.23564" lon="-6.83917333">
        <ele>427.0</ele>
        <time>2022-06-19T06:47:01.446Z</time>
      </trkpt>
      <trkpt lat="43.23564667" lon="-6.83918167">
        <ele>427.0</ele>
        <time>2022-06-19T06:47:02.457Z</time>
      </trkpt>
      <trkpt lat="43.23565167" lon="-6.839195">
        <ele>427.0</ele>
        <time>2022-06-19T06:47:03.464Z</time>
      </trkpt>
      <trkpt lat="43.23565167" lon="-6.839195">
        <ele>427.0</ele>
        <time>2022-06-19T06:47:04.476Z</time>
      </trkpt>
      <trkpt lat="43.235645" lon="-6.83922667">
        <ele>427.0</ele>
        <time>2022-06-19T06:47:05.442Z</time>
      </trkpt>
      <trkpt lat="43.23563833" lon="-6.83925833">
        <ele>426.0</ele>
        <time>2022-06-19T06:47:06.462Z</time>
      </trkpt>
      <trkpt lat="43.23563833" lon="-6.83925833">
        <ele>426.0</ele>
        <time>2022-06-19T06:47:07.480Z</time>
      </trkpt>
      <trkpt lat="43.2356" lon="-6.83932667">
        <ele>427.0</ele>
        <time>2022-06-19T06:47:08.478Z</time>
      </trkpt>
      <trkpt lat="43.2356" lon="-6.83932667">
        <ele>427.0</ele>
        <time>2022-06-19T06:47:09.458Z</time>
      </trkpt>
      <trkpt lat="43.23556667" lon="-6.83939">
        <ele>427.0</ele>
        <time>2022-06-19T06:47:10.472Z</time>
      </trkpt>
      <trkpt lat="43.23556667" lon="-6.83939">
        <ele>427.0</ele>
        <time>2022-06-19T06:47:11.465Z</time>
      </trkpt>
      <trkpt lat="43.23554" lon="-6.83944333">
        <ele>427.0</ele>
        <time>2022-06-19T06:47:12.474Z</time>
      </trkpt>
      <trkpt lat="43.23554" lon="-6.83944333">
        <ele>427.0</ele>
        <time>2022-06-19T06:47:13.474Z</time>
      </trkpt>
      <trkpt lat="43.23551333" lon="-6.83949167">
        <ele>427.0</ele>
        <time>2022-06-19T06:47:14.445Z</time>
      </trkpt>
      <trkpt lat="43.23551333" lon="-6.83949167">
        <ele>427.0</ele>
        <time>2022-06-19T06:47:15.465Z</time>
      </trkpt>
      <trkpt lat="43.235495" lon="-6.83954833">
        <ele>427.0</ele>
        <time>2022-06-19T06:47:16.455Z</time>
      </trkpt>
      <trkpt lat="43.235495" lon="-6.83954833">
        <ele>427.0</ele>
        <time>2022-06-19T06:47:17.447Z</time>
      </trkpt>
      <trkpt lat="43.23544167" lon="-6.839595">
        <ele>427.0</ele>
        <time>2022-06-19T06:47:18.459Z</time>
      </trkpt>
      <trkpt lat="43.23544167" lon="-6.839595">
        <ele>427.0</ele>
        <time>2022-06-19T06:47:19.455Z</time>
      </trkpt>
      <trkpt lat="43.23543833" lon="-6.83965833">
        <ele>426.0</ele>
        <time>2022-06-19T06:47:20.472Z</time>
      </trkpt>
      <trkpt lat="43.23543833" lon="-6.83965833">
        <ele>426.0</ele>
        <time>2022-06-19T06:47:21.450Z</time>
      </trkpt>
      <trkpt lat="43.23544167" lon="-6.83972333">
        <ele>426.0</ele>
        <time>2022-06-19T06:47:22.462Z</time>
      </trkpt>
      <trkpt lat="43.23544167" lon="-6.83972333">
        <ele>426.0</ele>
        <time>2022-06-19T06:47:23.441Z</time>
      </trkpt>
      <trkpt lat="43.23543" lon="-6.839765">
        <ele>426.0</ele>
        <time>2022-06-19T06:47:24.451Z</time>
      </trkpt>
      <trkpt lat="43.23543" lon="-6.839765">
        <ele>426.0</ele>
        <time>2022-06-19T06:47:25.467Z</time>
      </trkpt>
      <trkpt lat="43.23542667" lon="-6.83984333">
        <ele>425.0</ele>
        <time>2022-06-19T06:47:26.481Z</time>
      </trkpt>
      <trkpt lat="43.23542833" lon="-6.839875">
        <ele>425.0</ele>
        <time>2022-06-19T06:47:27.464Z</time>
      </trkpt>
      <trkpt lat="43.23542833" lon="-6.839875">
        <ele>425.0</ele>
        <time>2022-06-19T06:47:28.450Z</time>
      </trkpt>
      <trkpt lat="43.235425" lon="-6.83992">
        <ele>425.0</ele>
        <time>2022-06-19T06:47:29.466Z</time>
      </trkpt>
      <trkpt lat="43.23541667" lon="-6.83994">
        <ele>425.0</ele>
        <time>2022-06-19T06:47:30.452Z</time>
      </trkpt>
      <trkpt lat="43.23541667" lon="-6.83994">
        <ele>425.0</ele>
        <time>2022-06-19T06:47:31.478Z</time>
      </trkpt>
      <trkpt lat="43.23542" lon="-6.83997333">
        <ele>425.0</ele>
        <time>2022-06-19T06:47:32.449Z</time>
      </trkpt>
      <trkpt lat="43.23542" lon="-6.83997333">
        <ele>425.0</ele>
        <time>2022-06-19T06:47:33.456Z</time>
      </trkpt>
      <trkpt lat="43.23542167" lon="-6.83995">
        <ele>425.0</ele>
        <time>2022-06-19T06:47:34.474Z</time>
      </trkpt>
      <trkpt lat="43.23542167" lon="-6.83995">
        <ele>425.0</ele>
        <time>2022-06-19T06:47:35.471Z</time>
      </trkpt>
      <trkpt lat="43.23541833" lon="-6.83991833">
        <ele>424.0</ele>
        <time>2022-06-19T06:47:36.441Z</time>
      </trkpt>
      <trkpt lat="43.23541833" lon="-6.83991833">
        <ele>424.0</ele>
        <time>2022-06-19T06:47:37.449Z</time>
      </trkpt>
      <trkpt lat="43.23541833" lon="-6.83989167">
        <ele>424.0</ele>
        <time>2022-06-19T06:47:38.454Z</time>
      </trkpt>
      <trkpt lat="43.23541833" lon="-6.83989167">
        <ele>424.0</ele>
        <time>2022-06-19T06:47:39.461Z</time>
      </trkpt>
      <trkpt lat="43.235425" lon="-6.83986">
        <ele>424.0</ele>
        <time>2022-06-19T06:47:40.467Z</time>
      </trkpt>
      <trkpt lat="43.235435" lon="-6.83984333">
        <ele>424.0</ele>
        <time>2022-06-19T06:47:41.452Z</time>
      </trkpt>
      <trkpt lat="43.23545" lon="-6.83982333">
        <ele>424.0</ele>
        <time>2022-06-19T06:47:42.475Z</time>
      </trkpt>
      <trkpt lat="43.23545" lon="-6.83982333">
        <ele>424.0</ele>
        <time>2022-06-19T06:47:43.448Z</time>
      </trkpt>
      <trkpt lat="43.23545833" lon="-6.83976833">
        <ele>424.0</ele>
        <time>2022-06-19T06:47:44.454Z</time>
      </trkpt>
      <trkpt lat="43.23547" lon="-6.83975">
        <ele>423.0</ele>
        <time>2022-06-19T06:47:45.463Z</time>
      </trkpt>
      <trkpt lat="43.23547" lon="-6.83975">
        <ele>423.0</ele>
        <time>2022-06-19T06:47:46.444Z</time>
      </trkpt>
      <trkpt lat="43.23552" lon="-6.839705">
        <ele>423.0</ele>
        <time>2022-06-19T06:47:47.453Z</time>
      </trkpt>
      <trkpt lat="43.23552" lon="-6.839705">
        <ele>423.0</ele>
        <time>2022-06-19T06:47:48.451Z</time>
      </trkpt>
      <trkpt lat="43.23556333" lon="-6.83965333">
        <ele>423.0</ele>
        <time>2022-06-19T06:47:49.463Z</time>
      </trkpt>
      <trkpt lat="43.23558667" lon="-6.83962667">
        <ele>423.0</ele>
        <time>2022-06-19T06:47:50.444Z</time>
      </trkpt>
      <trkpt lat="43.23558667" lon="-6.83962667">
        <ele>423.0</ele>
        <time>2022-06-19T06:47:51.467Z</time>
      </trkpt>
      <trkpt lat="43.23563833" lon="-6.83957667">
        <ele>422.0</ele>
        <time>2022-06-19T06:47:52.478Z</time>
      </trkpt>
      <trkpt lat="43.23563833" lon="-6.83957667">
        <ele>422.0</ele>
        <time>2022-06-19T06:47:53.469Z</time>
      </trkpt>
      <trkpt lat="43.23570667" lon="-6.839545">
        <ele>422.0</ele>
        <time>2022-06-19T06:47:54.452Z</time>
      </trkpt>
      <trkpt lat="43.23570667" lon="-6.839545">
        <ele>422.0</ele>
        <time>2022-06-19T06:47:55.473Z</time>
      </trkpt>
      <trkpt lat="43.23578" lon="-6.83950667">
        <ele>422.0</ele>
        <time>2022-06-19T06:47:56.462Z</time>
      </trkpt>
      <trkpt lat="43.23578" lon="-6.83950667">
        <ele>422.0</ele>
        <time>2022-06-19T06:47:57.443Z</time>
      </trkpt>
      <trkpt lat="43.23584833" lon="-6.83946833">
        <ele>422.0</ele>
        <time>2022-06-19T06:47:58.451Z</time>
      </trkpt>
      <trkpt lat="43.23584833" lon="-6.83946833">
        <ele>422.0</ele>
        <time>2022-06-19T06:47:59.470Z</time>
      </trkpt>
      <trkpt lat="43.23589" lon="-6.83942333">
        <ele>422.0</ele>
        <time>2022-06-19T06:48:00.479Z</time>
      </trkpt>
      <trkpt lat="43.23589" lon="-6.83942333">
        <ele>422.0</ele>
        <time>2022-06-19T06:48:01.461Z</time>
      </trkpt>
      <trkpt lat="43.23592833" lon="-6.839385">
        <ele>422.0</ele>
        <time>2022-06-19T06:48:02.441Z</time>
      </trkpt>
      <trkpt lat="43.23592833" lon="-6.839385">
        <ele>422.0</ele>
        <time>2022-06-19T06:48:03.465Z</time>
      </trkpt>
      <trkpt lat="43.23601833" lon="-6.839355">
        <ele>422.0</ele>
        <time>2022-06-19T06:48:04.479Z</time>
      </trkpt>
      <trkpt lat="43.236065" lon="-6.83931833">
        <ele>422.0</ele>
        <time>2022-06-19T06:48:05.481Z</time>
      </trkpt>
      <trkpt lat="43.23611" lon="-6.83928333">
        <ele>422.0</ele>
        <time>2022-06-19T06:48:06.479Z</time>
      </trkpt>
      <trkpt lat="43.23611" lon="-6.83928333">
        <ele>422.0</ele>
        <time>2022-06-19T06:48:07.479Z</time>
      </trkpt>
      <trkpt lat="43.23616" lon="-6.83920667">
        <ele>422.0</ele>
        <time>2022-06-19T06:48:08.459Z</time>
      </trkpt>
      <trkpt lat="43.23616" lon="-6.83920667">
        <ele>422.0</ele>
        <time>2022-06-19T06:48:09.478Z</time>
      </trkpt>
      <trkpt lat="43.23620833" lon="-6.83913">
        <ele>421.0</ele>
        <time>2022-06-19T06:48:10.451Z</time>
      </trkpt>
      <trkpt lat="43.23620833" lon="-6.83913">
        <ele>421.0</ele>
        <time>2022-06-19T06:48:11.475Z</time>
      </trkpt>
      <trkpt lat="43.23626333" lon="-6.83910167">
        <ele>421.0</ele>
        <time>2022-06-19T06:48:12.443Z</time>
      </trkpt>
      <trkpt lat="43.23626333" lon="-6.83910167">
        <ele>421.0</ele>
        <time>2022-06-19T06:48:13.455Z</time>
      </trkpt>
      <trkpt lat="43.23629333" lon="-6.83912">
        <ele>421.0</ele>
        <time>2022-06-19T06:48:14.474Z</time>
      </trkpt>
      <trkpt lat="43.23629333" lon="-6.83912">
        <ele>421.0</ele>
        <time>2022-06-19T06:48:15.454Z</time>
      </trkpt>
      <trkpt lat="43.23631833" lon="-6.83917">
        <ele>420.0</ele>
        <time>2022-06-19T06:48:16.470Z</time>
      </trkpt>
      <trkpt lat="43.23631833" lon="-6.83917">
        <ele>420.0</ele>
        <time>2022-06-19T06:48:17.459Z</time>
      </trkpt>
      <trkpt lat="43.23635833" lon="-6.83919167">
        <ele>420.0</ele>
        <time>2022-06-19T06:48:18.475Z</time>
      </trkpt>
      <trkpt lat="43.23635833" lon="-6.83919167">
        <ele>420.0</ele>
        <time>2022-06-19T06:48:19.468Z</time>
      </trkpt>
      <trkpt lat="43.23631667" lon="-6.83926">
        <ele>419.0</ele>
        <time>2022-06-19T06:48:20.445Z</time>
      </trkpt>
      <trkpt lat="43.23631667" lon="-6.83926">
        <ele>419.0</ele>
        <time>2022-06-19T06:48:21.465Z</time>
      </trkpt>
      <trkpt lat="43.23627" lon="-6.83933">
        <ele>418.0</ele>
        <time>2022-06-19T06:48:22.475Z</time>
      </trkpt>
      <trkpt lat="43.23627" lon="-6.83933">
        <ele>418.0</ele>
        <time>2022-06-19T06:48:23.465Z</time>
      </trkpt>
      <trkpt lat="43.23625" lon="-6.83941833">
        <ele>417.0</ele>
        <time>2022-06-19T06:48:24.477Z</time>
      </trkpt>
      <trkpt lat="43.23625" lon="-6.83941833">
        <ele>417.0</ele>
        <time>2022-06-19T06:48:25.468Z</time>
      </trkpt>
      <trkpt lat="43.23619833" lon="-6.839525">
        <ele>416.0</ele>
        <time>2022-06-19T06:48:26.478Z</time>
      </trkpt>
      <trkpt lat="43.23619833" lon="-6.839525">
        <ele>416.0</ele>
        <time>2022-06-19T06:48:27.468Z</time>
      </trkpt>
      <trkpt lat="43.236145" lon="-6.83963667">
        <ele>415.0</ele>
        <time>2022-06-19T06:48:28.446Z</time>
      </trkpt>
      <trkpt lat="43.236145" lon="-6.83963667">
        <ele>415.0</ele>
        <time>2022-06-19T06:48:29.470Z</time>
      </trkpt>
      <trkpt lat="43.23610833" lon="-6.83973833">
        <ele>414.0</ele>
        <time>2022-06-19T06:48:30.443Z</time>
      </trkpt>
      <trkpt lat="43.23610833" lon="-6.83973833">
        <ele>414.0</ele>
        <time>2022-06-19T06:48:31.470Z</time>
      </trkpt>
      <trkpt lat="43.236025" lon="-6.83980333">
        <ele>413.0</ele>
        <time>2022-06-19T06:48:32.449Z</time>
      </trkpt>
      <trkpt lat="43.236025" lon="-6.83980333">
        <ele>413.0</ele>
        <time>2022-06-19T06:48:33.468Z</time>
      </trkpt>
      <trkpt lat="43.23596833" lon="-6.83987333">
        <ele>412.0</ele>
        <time>2022-06-19T06:48:34.448Z</time>
      </trkpt>
      <trkpt lat="43.23596833" lon="-6.83987333">
        <ele>412.0</ele>
        <time>2022-06-19T06:48:35.468Z</time>
      </trkpt>
      <trkpt lat="43.23597833" lon="-6.83995">
        <ele>410.0</ele>
        <time>2022-06-19T06:48:36.441Z</time>
      </trkpt>
      <trkpt lat="43.23597833" lon="-6.83995">
        <ele>410.0</ele>
        <time>2022-06-19T06:48:37.448Z</time>
      </trkpt>
      <trkpt lat="43.23596667" lon="-6.84006">
        <ele>409.0</ele>
        <time>2022-06-19T06:48:38.459Z</time>
      </trkpt>
      <trkpt lat="43.23596667" lon="-6.84006">
        <ele>409.0</ele>
        <time>2022-06-19T06:48:39.475Z</time>
      </trkpt>
      <trkpt lat="43.23598" lon="-6.84018333">
        <ele>407.0</ele>
        <time>2022-06-19T06:48:40.446Z</time>
      </trkpt>
      <trkpt lat="43.23598" lon="-6.84018333">
        <ele>407.0</ele>
        <time>2022-06-19T06:48:41.467Z</time>
      </trkpt>
      <trkpt lat="43.23601" lon="-6.84030167">
        <ele>405.0</ele>
        <time>2022-06-19T06:48:42.479Z</time>
      </trkpt>
      <trkpt lat="43.23601" lon="-6.84030167">
        <ele>405.0</ele>
        <time>2022-06-19T06:48:43.471Z</time>
      </trkpt>
      <trkpt lat="43.23599333" lon="-6.84041833">
        <ele>403.0</ele>
        <time>2022-06-19T06:48:44.442Z</time>
      </trkpt>
      <trkpt lat="43.23599333" lon="-6.84041833">
        <ele>403.0</ele>
        <time>2022-06-19T06:48:45.477Z</time>
      </trkpt>
      <trkpt lat="43.23597667" lon="-6.84054333">
        <ele>401.0</ele>
        <time>2022-06-19T06:48:46.444Z</time>
      </trkpt>
      <trkpt lat="43.23596833" lon="-6.84060333">
        <ele>400.0</ele>
        <time>2022-06-19T06:48:47.448Z</time>
      </trkpt>
      <trkpt lat="43.23591667" lon="-6.84068167">
        <ele>399.0</ele>
        <time>2022-06-19T06:48:48.472Z</time>
      </trkpt>
      <trkpt lat="43.23591667" lon="-6.84068167">
        <ele>399.0</ele>
        <time>2022-06-19T06:48:49.460Z</time>
      </trkpt>
      <trkpt lat="43.235885" lon="-6.84075833">
        <ele>397.0</ele>
        <time>2022-06-19T06:48:50.472Z</time>
      </trkpt>
      <trkpt lat="43.235885" lon="-6.84075833">
        <ele>397.0</ele>
        <time>2022-06-19T06:48:51.445Z</time>
      </trkpt>
      <trkpt lat="43.23583833" lon="-6.84085">
        <ele>394.0</ele>
        <time>2022-06-19T06:48:52.481Z</time>
      </trkpt>
      <trkpt lat="43.23583833" lon="-6.84085">
        <ele>394.0</ele>
        <time>2022-06-19T06:48:53.469Z</time>
      </trkpt>
      <trkpt lat="43.23577167" lon="-6.84094667">
        <ele>391.0</ele>
        <time>2022-06-19T06:48:54.441Z</time>
      </trkpt>
      <trkpt lat="43.23577167" lon="-6.84094667">
        <ele>391.0</ele>
        <time>2022-06-19T06:48:55.467Z</time>
      </trkpt>
      <trkpt lat="43.23568833" lon="-6.84103">
        <ele>387.0</ele>
        <time>2022-06-19T06:48:56.443Z</time>
      </trkpt>
      <trkpt lat="43.23567667" lon="-6.841065">
        <ele>386.0</ele>
        <time>2022-06-19T06:48:57.476Z</time>
      </trkpt>
      <trkpt lat="43.23566833" lon="-6.84109333">
        <ele>384.0</ele>
        <time>2022-06-19T06:48:58.482Z</time>
      </trkpt>
      <trkpt lat="43.23566833" lon="-6.84109333">
        <ele>384.0</ele>
        <time>2022-06-19T06:48:59.468Z</time>
      </trkpt>
      <trkpt lat="43.23566333" lon="-6.84111667">
        <ele>383.0</ele>
        <time>2022-06-19T06:49:00.482Z</time>
      </trkpt>
      <trkpt lat="43.23566333" lon="-6.84111667">
        <ele>383.0</ele>
        <time>2022-06-19T06:49:01.464Z</time>
      </trkpt>
      <trkpt lat="43.23565" lon="-6.841125">
        <ele>381.0</ele>
        <time>2022-06-19T06:49:02.475Z</time>
      </trkpt>
      <trkpt lat="43.23565" lon="-6.841125">
        <ele>381.0</ele>
        <time>2022-06-19T06:49:03.451Z</time>
      </trkpt>
      <trkpt lat="43.23566" lon="-6.84110833">
        <ele>379.0</ele>
        <time>2022-06-19T06:49:04.480Z</time>
      </trkpt>
      <trkpt lat="43.23566" lon="-6.84110833">
        <ele>379.0</ele>
        <time>2022-06-19T06:49:05.462Z</time>
      </trkpt>
      <trkpt lat="43.23568167" lon="-6.84108167">
        <ele>378.0</ele>
        <time>2022-06-19T06:49:06.469Z</time>
      </trkpt>
      <trkpt lat="43.23569667" lon="-6.841065">
        <ele>377.0</ele>
        <time>2022-06-19T06:49:07.475Z</time>
      </trkpt>
      <trkpt lat="43.23569667" lon="-6.841065">
        <ele>377.0</ele>
        <time>2022-06-19T06:49:08.480Z</time>
      </trkpt>
      <trkpt lat="43.23571167" lon="-6.84101333">
        <ele>377.0</ele>
        <time>2022-06-19T06:49:09.452Z</time>
      </trkpt>
      <trkpt lat="43.23571167" lon="-6.84101333">
        <ele>377.0</ele>
        <time>2022-06-19T06:49:10.475Z</time>
      </trkpt>
      <trkpt lat="43.235745" lon="-6.84097833">
        <ele>376.0</ele>
        <time>2022-06-19T06:49:11.461Z</time>
      </trkpt>
      <trkpt lat="43.23576333" lon="-6.84096333">
        <ele>376.0</ele>
        <time>2022-06-19T06:49:12.483Z</time>
      </trkpt>
      <trkpt lat="43.23576333" lon="-6.84096333">
        <ele>376.0</ele>
        <time>2022-06-19T06:49:13.454Z</time>
      </trkpt>
      <trkpt lat="43.23577167" lon="-6.84089667">
        <ele>375.0</ele>
        <time>2022-06-19T06:49:14.468Z</time>
      </trkpt>
      <trkpt lat="43.23577167" lon="-6.84089667">
        <ele>375.0</ele>
        <time>2022-06-19T06:49:15.451Z</time>
      </trkpt>
      <trkpt lat="43.23580333" lon="-6.84082167">
        <ele>374.0</ele>
        <time>2022-06-19T06:49:16.441Z</time>
      </trkpt>
      <trkpt lat="43.23581333" lon="-6.84078">
        <ele>374.0</ele>
        <time>2022-06-19T06:49:17.443Z</time>
      </trkpt>
      <trkpt lat="43.23581333" lon="-6.84078">
        <ele>374.0</ele>
        <time>2022-06-19T06:49:18.454Z</time>
      </trkpt>
      <trkpt lat="43.23580667" lon="-6.84068">
        <ele>374.0</ele>
        <time>2022-06-19T06:49:19.464Z</time>
      </trkpt>
      <trkpt lat="43.23581" lon="-6.84062667">
        <ele>373.0</ele>
        <time>2022-06-19T06:49:20.462Z</time>
      </trkpt>
      <trkpt lat="43.23581" lon="-6.84062667">
        <ele>373.0</ele>
        <time>2022-06-19T06:49:21.441Z</time>
      </trkpt>
      <trkpt lat="43.23585167" lon="-6.840505">
        <ele>373.0</ele>
        <time>2022-06-19T06:49:22.452Z</time>
      </trkpt>
      <trkpt lat="43.23585167" lon="-6.840505">
        <ele>373.0</ele>
        <time>2022-06-19T06:49:23.441Z</time>
      </trkpt>
      <trkpt lat="43.23588167" lon="-6.840415">
        <ele>373.0</ele>
        <time>2022-06-19T06:49:24.474Z</time>
      </trkpt>
      <trkpt lat="43.23588167" lon="-6.840415">
        <ele>373.0</ele>
        <time>2022-06-19T06:49:25.446Z</time>
      </trkpt>
      <trkpt lat="43.23591667" lon="-6.84033">
        <ele>373.0</ele>
        <time>2022-06-19T06:49:26.455Z</time>
      </trkpt>
      <trkpt lat="43.23591667" lon="-6.84033">
        <ele>373.0</ele>
        <time>2022-06-19T06:49:27.480Z</time>
      </trkpt>
      <trkpt lat="43.235935" lon="-6.84024167">
        <ele>374.0</ele>
        <time>2022-06-19T06:49:28.465Z</time>
      </trkpt>
      <trkpt lat="43.235935" lon="-6.84024167">
        <ele>374.0</ele>
        <time>2022-06-19T06:49:29.464Z</time>
      </trkpt>
      <trkpt lat="43.23598833" lon="-6.84016333">
        <ele>374.0</ele>
        <time>2022-06-19T06:49:30.478Z</time>
      </trkpt>
      <trkpt lat="43.23598833" lon="-6.84016333">
        <ele>374.0</ele>
        <time>2022-06-19T06:49:31.466Z</time>
      </trkpt>
      <trkpt lat="43.23603" lon="-6.84008833">
        <ele>375.0</ele>
        <time>2022-06-19T06:49:32.479Z</time>
      </trkpt>
      <trkpt lat="43.23603" lon="-6.84008833">
        <ele>375.0</ele>
        <time>2022-06-19T06:49:33.454Z</time>
      </trkpt>
      <trkpt lat="43.23611333" lon="-6.84003833">
        <ele>375.0</ele>
        <time>2022-06-19T06:49:34.468Z</time>
      </trkpt>
      <trkpt lat="43.23618833" lon="-6.84002667">
        <ele>376.0</ele>
        <time>2022-06-19T06:49:35.481Z</time>
      </trkpt>
      <trkpt lat="43.23629167" lon="-6.84001">
        <ele>377.0</ele>
        <time>2022-06-19T06:49:36.470Z</time>
      </trkpt>
      <trkpt lat="43.23629167" lon="-6.84001">
        <ele>377.0</ele>
        <time>2022-06-19T06:49:37.454Z</time>
      </trkpt>
      <trkpt lat="43.236405" lon="-6.83997667">
        <ele>378.0</ele>
        <time>2022-06-19T06:49:38.462Z</time>
      </trkpt>
      <trkpt lat="43.236405" lon="-6.83997667">
        <ele>378.0</ele>
        <time>2022-06-19T06:49:39.443Z</time>
      </trkpt>
      <trkpt lat="43.23645167" lon="-6.83996167">
        <ele>377.0</ele>
        <time>2022-06-19T06:49:40.454Z</time>
      </trkpt>
      <trkpt lat="43.23645167" lon="-6.83996167">
        <ele>377.0</ele>
        <time>2022-06-19T06:49:41.468Z</time>
      </trkpt>
      <trkpt lat="43.23645667" lon="-6.839965">
        <ele>376.0</ele>
        <time>2022-06-19T06:49:42.447Z</time>
      </trkpt>
      <trkpt lat="43.23645667" lon="-6.839965">
        <ele>376.0</ele>
        <time>2022-06-19T06:49:43.451Z</time>
      </trkpt>
      <trkpt lat="43.23643" lon="-6.83996667">
        <ele>375.0</ele>
        <time>2022-06-19T06:49:44.460Z</time>
      </trkpt>
      <trkpt lat="43.23641167" lon="-6.83998167">
        <ele>375.0</ele>
        <time>2022-06-19T06:49:45.451Z</time>
      </trkpt>
      <trkpt lat="43.23641167" lon="-6.83998167">
        <ele>375.0</ele>
        <time>2022-06-19T06:49:46.451Z</time>
      </trkpt>
      <trkpt lat="43.236395" lon="-6.84002333">
        <ele>374.0</ele>
        <time>2022-06-19T06:49:47.458Z</time>
      </trkpt>
      <trkpt lat="43.236395" lon="-6.84002333">
        <ele>374.0</ele>
        <time>2022-06-19T06:49:48.469Z</time>
      </trkpt>
      <trkpt lat="43.23638667" lon="-6.84008167">
        <ele>373.0</ele>
        <time>2022-06-19T06:49:49.479Z</time>
      </trkpt>
      <trkpt lat="43.23638667" lon="-6.84008167">
        <ele>373.0</ele>
        <time>2022-06-19T06:49:50.455Z</time>
      </trkpt>
      <trkpt lat="43.23636667" lon="-6.84015167">
        <ele>373.0</ele>
        <time>2022-06-19T06:49:51.479Z</time>
      </trkpt>
      <trkpt lat="43.23637333" lon="-6.84020167">
        <ele>373.0</ele>
        <time>2022-06-19T06:49:52.479Z</time>
      </trkpt>
      <trkpt lat="43.23637333" lon="-6.84020167">
        <ele>373.0</ele>
        <time>2022-06-19T06:49:53.475Z</time>
      </trkpt>
      <trkpt lat="43.23641667" lon="-6.84024">
        <ele>371.0</ele>
        <time>2022-06-19T06:49:54.466Z</time>
      </trkpt>
      <trkpt lat="43.23641667" lon="-6.84024">
        <ele>371.0</ele>
        <time>2022-06-19T06:49:55.441Z</time>
      </trkpt>
      <trkpt lat="43.23638333" lon="-6.84027667">
        <ele>370.0</ele>
        <time>2022-06-19T06:49:56.451Z</time>
      </trkpt>
      <trkpt lat="43.23637833" lon="-6.84030167">
        <ele>369.0</ele>
        <time>2022-06-19T06:49:57.459Z</time>
      </trkpt>
      <trkpt lat="43.23637833" lon="-6.84030167">
        <ele>369.0</ele>
        <time>2022-06-19T06:49:58.473Z</time>
      </trkpt>
      <trkpt lat="43.23636667" lon="-6.84038667">
        <ele>367.0</ele>
        <time>2022-06-19T06:49:59.446Z</time>
      </trkpt>
      <trkpt lat="43.23636667" lon="-6.84038667">
        <ele>367.0</ele>
        <time>2022-06-19T06:50:00.467Z</time>
      </trkpt>
      <trkpt lat="43.236385" lon="-6.84052667">
        <ele>367.0</ele>
        <time>2022-06-19T06:50:01.446Z</time>
      </trkpt>
      <trkpt lat="43.236395" lon="-6.84060667">
        <ele>366.0</ele>
        <time>2022-06-19T06:50:02.474Z</time>
      </trkpt>
      <trkpt lat="43.236395" lon="-6.84060667">
        <ele>366.0</ele>
        <time>2022-06-19T06:50:03.459Z</time>
      </trkpt>
      <trkpt lat="43.23638167" lon="-6.84077667">
        <ele>365.0</ele>
        <time>2022-06-19T06:50:04.478Z</time>
      </trkpt>
      <trkpt lat="43.23638167" lon="-6.84077667">
        <ele>365.0</ele>
        <time>2022-06-19T06:50:05.455Z</time>
      </trkpt>
      <trkpt lat="43.23638833" lon="-6.84093167">
        <ele>364.0</ele>
        <time>2022-06-19T06:50:06.468Z</time>
      </trkpt>
      <trkpt lat="43.23638833" lon="-6.84093167">
        <ele>364.0</ele>
        <time>2022-06-19T06:50:07.446Z</time>
      </trkpt>
      <trkpt lat="43.23632167" lon="-6.84108">
        <ele>362.0</ele>
        <time>2022-06-19T06:50:08.469Z</time>
      </trkpt>
      <trkpt lat="43.23632167" lon="-6.84108">
        <ele>362.0</ele>
        <time>2022-06-19T06:50:09.468Z</time>
      </trkpt>
      <trkpt lat="43.23627833" lon="-6.84119833">
        <ele>360.0</ele>
        <time>2022-06-19T06:50:10.481Z</time>
      </trkpt>
      <trkpt lat="43.23627833" lon="-6.84119833">
        <ele>360.0</ele>
        <time>2022-06-19T06:50:11.455Z</time>
      </trkpt>
      <trkpt lat="43.23627333" lon="-6.84128833">
        <ele>360.0</ele>
        <time>2022-06-19T06:50:12.445Z</time>
      </trkpt>
      <trkpt lat="43.23627333" lon="-6.84128833">
        <ele>360.0</ele>
        <time>2022-06-19T06:50:13.441Z</time>
      </trkpt>
      <trkpt lat="43.23628667" lon="-6.84137833">
        <ele>359.0</ele>
        <time>2022-06-19T06:50:14.461Z</time>
      </trkpt>
      <trkpt lat="43.23628667" lon="-6.84137833">
        <ele>359.0</ele>
        <time>2022-06-19T06:50:15.466Z</time>
      </trkpt>
      <trkpt lat="43.23628333" lon="-6.84146667">
        <ele>358.0</ele>
        <time>2022-06-19T06:50:16.476Z</time>
      </trkpt>
      <trkpt lat="43.23627667" lon="-6.84152333">
        <ele>358.0</ele>
        <time>2022-06-19T06:50:17.449Z</time>
      </trkpt>
      <trkpt lat="43.23627667" lon="-6.84152333">
        <ele>358.0</ele>
        <time>2022-06-19T06:50:18.466Z</time>
      </trkpt>
      <trkpt lat="43.23626667" lon="-6.84163167">
        <ele>356.0</ele>
        <time>2022-06-19T06:50:19.452Z</time>
      </trkpt>
      <trkpt lat="43.23626667" lon="-6.84163167">
        <ele>356.0</ele>
        <time>2022-06-19T06:50:20.471Z</time>
      </trkpt>
      <trkpt lat="43.23618333" lon="-6.84181167">
        <ele>354.0</ele>
        <time>2022-06-19T06:50:21.443Z</time>
      </trkpt>
      <trkpt lat="43.23619" lon="-6.84186167">
        <ele>353.0</ele>
        <time>2022-06-19T06:50:22.456Z</time>
      </trkpt>
      <trkpt lat="43.23619" lon="-6.84186167">
        <ele>353.0</ele>
        <time>2022-06-19T06:50:23.470Z</time>
      </trkpt>
      <trkpt lat="43.23614833" lon="-6.84196833">
        <ele>350.0</ele>
        <time>2022-06-19T06:50:24.480Z</time>
      </trkpt>
      <trkpt lat="43.23614833" lon="-6.84196833">
        <ele>350.0</ele>
        <time>2022-06-19T06:50:25.451Z</time>
      </trkpt>
      <trkpt lat="43.23611333" lon="-6.84204">
        <ele>348.0</ele>
        <time>2022-06-19T06:50:26.471Z</time>
      </trkpt>
      <trkpt lat="43.236115" lon="-6.84208">
        <ele>348.0</ele>
        <time>2022-06-19T06:50:27.451Z</time>
      </trkpt>
      <trkpt lat="43.236115" lon="-6.84208">
        <ele>348.0</ele>
        <time>2022-06-19T06:50:28.468Z</time>
      </trkpt>
      <trkpt lat="43.23609833" lon="-6.84215">
        <ele>345.0</ele>
        <time>2022-06-19T06:50:29.441Z</time>
      </trkpt>
      <trkpt lat="43.23609" lon="-6.84218667">
        <ele>344.0</ele>
        <time>2022-06-19T06:50:30.444Z</time>
      </trkpt>
      <trkpt lat="43.23609" lon="-6.84218667">
        <ele>344.0</ele>
        <time>2022-06-19T06:50:31.467Z</time>
      </trkpt>
      <trkpt lat="43.23612167" lon="-6.84222">
        <ele>342.0</ele>
        <time>2022-06-19T06:50:32.453Z</time>
      </trkpt>
      <trkpt lat="43.23613" lon="-6.84221333">
        <ele>341.0</ele>
        <time>2022-06-19T06:50:33.459Z</time>
      </trkpt>
      <trkpt lat="43.23613" lon="-6.84221333">
        <ele>341.0</ele>
        <time>2022-06-19T06:50:34.480Z</time>
      </trkpt>
      <trkpt lat="43.236125" lon="-6.84217333">
        <ele>340.0</ele>
        <time>2022-06-19T06:50:35.457Z</time>
      </trkpt>
      <trkpt lat="43.23612167" lon="-6.84215">
        <ele>339.0</ele>
        <time>2022-06-19T06:50:36.447Z</time>
      </trkpt>
      <trkpt lat="43.23612167" lon="-6.84215">
        <ele>339.0</ele>
        <time>2022-06-19T06:50:37.442Z</time>
      </trkpt>
      <trkpt lat="43.23613167" lon="-6.84209667">
        <ele>338.0</ele>
        <time>2022-06-19T06:50:38.448Z</time>
      </trkpt>
      <trkpt lat="43.23613167" lon="-6.84209667">
        <ele>338.0</ele>
        <time>2022-06-19T06:50:39.454Z</time>
      </trkpt>
      <trkpt lat="43.23615833" lon="-6.84203167">
        <ele>336.0</ele>
        <time>2022-06-19T06:50:40.460Z</time>
      </trkpt>
      <trkpt lat="43.23615833" lon="-6.84203167">
        <ele>336.0</ele>
        <time>2022-06-19T06:50:41.470Z</time>
      </trkpt>
      <trkpt lat="43.2362" lon="-6.84198">
        <ele>334.0</ele>
        <time>2022-06-19T06:50:42.513Z</time>
      </trkpt>
      <trkpt lat="43.2362" lon="-6.84198">
        <ele>334.0</ele>
        <time>2022-06-19T06:50:43.470Z</time>
      </trkpt>
      <trkpt lat="43.23623167" lon="-6.84190667">
        <ele>332.0</ele>
        <time>2022-06-19T06:50:44.443Z</time>
      </trkpt>
      <trkpt lat="43.23624167" lon="-6.84185833">
        <ele>332.0</ele>
        <time>2022-06-19T06:50:45.478Z</time>
      </trkpt>
      <trkpt lat="43.23624833" lon="-6.84181167">
        <ele>331.0</ele>
        <time>2022-06-19T06:50:46.455Z</time>
      </trkpt>
      <trkpt lat="43.23624833" lon="-6.84181167">
        <ele>331.0</ele>
        <time>2022-06-19T06:50:47.465Z</time>
      </trkpt>
      <trkpt lat="43.23624" lon="-6.84176">
        <ele>330.0</ele>
        <time>2022-06-19T06:50:48.481Z</time>
      </trkpt>
      <trkpt lat="43.23624" lon="-6.84176">
        <ele>330.0</ele>
        <time>2022-06-19T06:50:49.463Z</time>
      </trkpt>
      <trkpt lat="43.23623333" lon="-6.84171667">
        <ele>328.0</ele>
        <time>2022-06-19T06:50:50.473Z</time>
      </trkpt>
      <trkpt lat="43.23623333" lon="-6.84171667">
        <ele>328.0</ele>
        <time>2022-06-19T06:50:51.449Z</time>
      </trkpt>
      <trkpt lat="43.23624167" lon="-6.84166">
        <ele>327.0</ele>
        <time>2022-06-19T06:50:52.460Z</time>
      </trkpt>
      <trkpt lat="43.23623" lon="-6.84161833">
        <ele>326.0</ele>
        <time>2022-06-19T06:50:53.460Z</time>
      </trkpt>
      <trkpt lat="43.23623" lon="-6.84161833">
        <ele>326.0</ele>
        <time>2022-06-19T06:50:54.448Z</time>
      </trkpt>
      <trkpt lat="43.23622333" lon="-6.841545">
        <ele>325.0</ele>
        <time>2022-06-19T06:50:55.471Z</time>
      </trkpt>
      <trkpt lat="43.23622333" lon="-6.841545">
        <ele>325.0</ele>
        <time>2022-06-19T06:50:56.460Z</time>
      </trkpt>
      <trkpt lat="43.23621833" lon="-6.84147333">
        <ele>323.0</ele>
        <time>2022-06-19T06:50:57.470Z</time>
      </trkpt>
      <trkpt lat="43.23623167" lon="-6.84145">
        <ele>322.0</ele>
        <time>2022-06-19T06:50:58.481Z</time>
      </trkpt>
      <trkpt lat="43.23623167" lon="-6.84145">
        <ele>322.0</ele>
        <time>2022-06-19T06:50:59.463Z</time>
      </trkpt>
      <trkpt lat="43.23623" lon="-6.841385">
        <ele>321.0</ele>
        <time>2022-06-19T06:51:00.481Z</time>
      </trkpt>
      <trkpt lat="43.23623" lon="-6.841385">
        <ele>321.0</ele>
        <time>2022-06-19T06:51:01.447Z</time>
      </trkpt>
      <trkpt lat="43.23624167" lon="-6.84132167">
        <ele>320.0</ele>
        <time>2022-06-19T06:51:02.461Z</time>
      </trkpt>
      <trkpt lat="43.23626333" lon="-6.84129333">
        <ele>320.0</ele>
        <time>2022-06-19T06:51:03.452Z</time>
      </trkpt>
      <trkpt lat="43.23626333" lon="-6.84129333">
        <ele>320.0</ele>
        <time>2022-06-19T06:51:04.477Z</time>
      </trkpt>
      <trkpt lat="43.23631" lon="-6.84122333">
        <ele>319.0</ele>
        <time>2022-06-19T06:51:05.457Z</time>
      </trkpt>
      <trkpt lat="43.23631" lon="-6.84122333">
        <ele>319.0</ele>
        <time>2022-06-19T06:51:06.474Z</time>
      </trkpt>
      <trkpt lat="43.23634833" lon="-6.84115833">
        <ele>318.0</ele>
        <time>2022-06-19T06:51:07.448Z</time>
      </trkpt>
      <trkpt lat="43.23634833" lon="-6.84115833">
        <ele>318.0</ele>
        <time>2022-06-19T06:51:08.477Z</time>
      </trkpt>
      <trkpt lat="43.23636667" lon="-6.84108333">
        <ele>317.0</ele>
        <time>2022-06-19T06:51:09.449Z</time>
      </trkpt>
      <trkpt lat="43.23636667" lon="-6.84108333">
        <ele>317.0</ele>
        <time>2022-06-19T06:51:10.441Z</time>
      </trkpt>
      <trkpt lat="43.23637667" lon="-6.84100667">
        <ele>315.0</ele>
        <time>2022-06-19T06:51:11.453Z</time>
      </trkpt>
      <trkpt lat="43.236395" lon="-6.84098">
        <ele>314.0</ele>
        <time>2022-06-19T06:51:12.455Z</time>
      </trkpt>
      <trkpt lat="43.236395" lon="-6.84098">
        <ele>314.0</ele>
        <time>2022-06-19T06:51:13.467Z</time>
      </trkpt>
      <trkpt lat="43.236455" lon="-6.84092333">
        <ele>314.0</ele>
        <time>2022-06-19T06:51:14.483Z</time>
      </trkpt>
      <trkpt lat="43.236455" lon="-6.84092333">
        <ele>314.0</ele>
        <time>2022-06-19T06:51:15.475Z</time>
      </trkpt>
      <trkpt lat="43.2365" lon="-6.84085333">
        <ele>312.0</ele>
        <time>2022-06-19T06:51:16.444Z</time>
      </trkpt>
      <trkpt lat="43.2365" lon="-6.84085333">
        <ele>312.0</ele>
        <time>2022-06-19T06:51:17.447Z</time>
      </trkpt>
      <trkpt lat="43.23654167" lon="-6.84079">
        <ele>311.0</ele>
        <time>2022-06-19T06:51:18.463Z</time>
      </trkpt>
      <trkpt lat="43.23656333" lon="-6.84075833">
        <ele>310.0</ele>
        <time>2022-06-19T06:51:19.455Z</time>
      </trkpt>
      <trkpt lat="43.23656333" lon="-6.84075833">
        <ele>310.0</ele>
        <time>2022-06-19T06:51:20.474Z</time>
      </trkpt>
      <trkpt lat="43.23660667" lon="-6.84069333">
        <ele>309.0</ele>
        <time>2022-06-19T06:51:21.449Z</time>
      </trkpt>
      <trkpt lat="43.23660667" lon="-6.84069333">
        <ele>309.0</ele>
        <time>2022-06-19T06:51:22.469Z</time>
      </trkpt>
      <trkpt lat="43.23663" lon="-6.84062833">
        <ele>308.0</ele>
        <time>2022-06-19T06:51:23.442Z</time>
      </trkpt>
      <trkpt lat="43.23665" lon="-6.84059333">
        <ele>307.0</ele>
        <time>2022-06-19T06:51:24.473Z</time>
      </trkpt>
      <trkpt lat="43.23668333" lon="-6.84055333">
        <ele>306.0</ele>
        <time>2022-06-19T06:51:25.449Z</time>
      </trkpt>
      <trkpt lat="43.23668333" lon="-6.84055333">
        <ele>306.0</ele>
        <time>2022-06-19T06:51:26.473Z</time>
      </trkpt>
      <trkpt lat="43.23675333" lon="-6.84046333">
        <ele>306.0</ele>
        <time>2022-06-19T06:51:27.449Z</time>
      </trkpt>
      <trkpt lat="43.23679" lon="-6.840425">
        <ele>305.0</ele>
        <time>2022-06-19T06:51:28.444Z</time>
      </trkpt>
      <trkpt lat="43.23679" lon="-6.840425">
        <ele>305.0</ele>
        <time>2022-06-19T06:51:29.471Z</time>
      </trkpt>
      <trkpt lat="43.23684167" lon="-6.84036">
        <ele>305.0</ele>
        <time>2022-06-19T06:51:30.445Z</time>
      </trkpt>
      <trkpt lat="43.23684167" lon="-6.84036">
        <ele>305.0</ele>
        <time>2022-06-19T06:51:31.447Z</time>
      </trkpt>
      <trkpt lat="43.236905" lon="-6.84030167">
        <ele>304.0</ele>
        <time>2022-06-19T06:51:32.455Z</time>
      </trkpt>
      <trkpt lat="43.236905" lon="-6.84030167">
        <ele>304.0</ele>
        <time>2022-06-19T06:51:33.443Z</time>
      </trkpt>
      <trkpt lat="43.23697" lon="-6.840245">
        <ele>303.0</ele>
        <time>2022-06-19T06:51:34.453Z</time>
      </trkpt>
      <trkpt lat="43.23697" lon="-6.840245">
        <ele>303.0</ele>
        <time>2022-06-19T06:51:35.478Z</time>
      </trkpt>
      <trkpt lat="43.23703833" lon="-6.84020167">
        <ele>302.0</ele>
        <time>2022-06-19T06:51:36.451Z</time>
      </trkpt>
      <trkpt lat="43.23703833" lon="-6.84020167">
        <ele>302.0</ele>
        <time>2022-06-19T06:51:37.471Z</time>
      </trkpt>
      <trkpt lat="43.23710333" lon="-6.84019833">
        <ele>301.0</ele>
        <time>2022-06-19T06:51:38.480Z</time>
      </trkpt>
      <trkpt lat="43.23710333" lon="-6.84019833">
        <ele>301.0</ele>
        <time>2022-06-19T06:51:39.478Z</time>
      </trkpt>
      <trkpt lat="43.23721667" lon="-6.840195">
        <ele>299.0</ele>
        <time>2022-06-19T06:51:40.452Z</time>
      </trkpt>
      <trkpt lat="43.23721667" lon="-6.840195">
        <ele>299.0</ele>
        <time>2022-06-19T06:51:41.463Z</time>
      </trkpt>
      <trkpt lat="43.23731833" lon="-6.84017667">
        <ele>298.0</ele>
        <time>2022-06-19T06:51:42.474Z</time>
      </trkpt>
      <trkpt lat="43.23731833" lon="-6.84017667">
        <ele>298.0</ele>
        <time>2022-06-19T06:51:43.457Z</time>
      </trkpt>
      <trkpt lat="43.237415" lon="-6.84019">
        <ele>298.0</ele>
        <time>2022-06-19T06:51:44.472Z</time>
      </trkpt>
      <trkpt lat="43.237415" lon="-6.84019">
        <ele>298.0</ele>
        <time>2022-06-19T06:51:45.456Z</time>
      </trkpt>
      <trkpt lat="43.23791" lon="-6.84011333">
        <ele>293.0</ele>
        <time>2022-06-19T06:51:46.456Z</time>
      </trkpt>
      <trkpt lat="43.23791" lon="-6.84011333">
        <ele>293.0</ele>
        <time>2022-06-19T06:51:47.471Z</time>
      </trkpt>
      <trkpt lat="43.23788" lon="-6.84018333">
        <ele>290.0</ele>
        <time>2022-06-19T06:51:48.443Z</time>
      </trkpt>
      <trkpt lat="43.23788" lon="-6.84018333">
        <ele>290.0</ele>
        <time>2022-06-19T06:51:49.444Z</time>
      </trkpt>
      <trkpt lat="43.23779667" lon="-6.84027833">
        <ele>289.0</ele>
        <time>2022-06-19T06:51:50.467Z</time>
      </trkpt>
      <trkpt lat="43.23779667" lon="-6.84027833">
        <ele>289.0</ele>
        <time>2022-06-19T06:51:51.464Z</time>
      </trkpt>
      <trkpt lat="43.23771167" lon="-6.84040833">
        <ele>288.0</ele>
        <time>2022-06-19T06:51:52.457Z</time>
      </trkpt>
      <trkpt lat="43.23771167" lon="-6.84040833">
        <ele>288.0</ele>
        <time>2022-06-19T06:51:53.468Z</time>
      </trkpt>
      <trkpt lat="43.23762167" lon="-6.84055167">
        <ele>286.0</ele>
        <time>2022-06-19T06:51:54.477Z</time>
      </trkpt>
      <trkpt lat="43.23762167" lon="-6.84055167">
        <ele>286.0</ele>
        <time>2022-06-19T06:51:55.463Z</time>
      </trkpt>
      <trkpt lat="43.23751667" lon="-6.84069333">
        <ele>285.0</ele>
        <time>2022-06-19T06:51:56.453Z</time>
      </trkpt>
      <trkpt lat="43.23751667" lon="-6.84069333">
        <ele>285.0</ele>
        <time>2022-06-19T06:51:57.473Z</time>
      </trkpt>
      <trkpt lat="43.2374" lon="-6.84083833">
        <ele>284.0</ele>
        <time>2022-06-19T06:51:58.454Z</time>
      </trkpt>
      <trkpt lat="43.2374" lon="-6.84083833">
        <ele>284.0</ele>
        <time>2022-06-19T06:51:59.478Z</time>
      </trkpt>
      <trkpt lat="43.23726667" lon="-6.84099333">
        <ele>282.0</ele>
        <time>2022-06-19T06:52:00.450Z</time>
      </trkpt>
      <trkpt lat="43.23726667" lon="-6.84099333">
        <ele>282.0</ele>
        <time>2022-06-19T06:52:01.458Z</time>
      </trkpt>
      <trkpt lat="43.23714" lon="-6.84117167">
        <ele>281.0</ele>
        <time>2022-06-19T06:52:02.444Z</time>
      </trkpt>
      <trkpt lat="43.237065" lon="-6.84127">
        <ele>280.0</ele>
        <time>2022-06-19T06:52:03.484Z</time>
      </trkpt>
      <trkpt lat="43.237065" lon="-6.84127">
        <ele>280.0</ele>
        <time>2022-06-19T06:52:04.441Z</time>
      </trkpt>
      <trkpt lat="43.23693167" lon="-6.84146833">
        <ele>279.0</ele>
        <time>2022-06-19T06:52:05.452Z</time>
      </trkpt>
      <trkpt lat="43.236875" lon="-6.84156333">
        <ele>278.0</ele>
        <time>2022-06-19T06:52:06.457Z</time>
      </trkpt>
      <trkpt lat="43.236845" lon="-6.841685">
        <ele>278.0</ele>
        <time>2022-06-19T06:52:07.450Z</time>
      </trkpt>
      <trkpt lat="43.236845" lon="-6.841685">
        <ele>278.0</ele>
        <time>2022-06-19T06:52:08.467Z</time>
      </trkpt>
      <trkpt lat="43.23686833" lon="-6.84194">
        <ele>277.0</ele>
        <time>2022-06-19T06:52:09.479Z</time>
      </trkpt>
      <trkpt lat="43.23686833" lon="-6.84194">
        <ele>277.0</ele>
        <time>2022-06-19T06:52:10.472Z</time>
      </trkpt>
      <trkpt lat="43.23679833" lon="-6.84219667">
        <ele>274.0</ele>
        <time>2022-06-19T06:52:11.445Z</time>
      </trkpt>
      <trkpt lat="43.23674667" lon="-6.842315">
        <ele>273.0</ele>
        <time>2022-06-19T06:52:12.472Z</time>
      </trkpt>
      <trkpt lat="43.23674667" lon="-6.842315">
        <ele>273.0</ele>
        <time>2022-06-19T06:52:13.464Z</time>
      </trkpt>
      <trkpt lat="43.23661333" lon="-6.84254667">
        <ele>270.0</ele>
        <time>2022-06-19T06:52:14.476Z</time>
      </trkpt>
      <trkpt lat="43.23661333" lon="-6.84254667">
        <ele>270.0</ele>
        <time>2022-06-19T06:52:15.450Z</time>
      </trkpt>
      <trkpt lat="43.23651" lon="-6.84282333">
        <ele>267.0</ele>
        <time>2022-06-19T06:52:16.462Z</time>
      </trkpt>
      <trkpt lat="43.23651" lon="-6.84282333">
        <ele>267.0</ele>
        <time>2022-06-19T06:52:17.471Z</time>
      </trkpt>
      <trkpt lat="43.23639333" lon="-6.84307833">
        <ele>265.0</ele>
        <time>2022-06-19T06:52:18.482Z</time>
      </trkpt>
      <trkpt lat="43.23639333" lon="-6.84307833">
        <ele>265.0</ele>
        <time>2022-06-19T06:52:19.459Z</time>
      </trkpt>
      <trkpt lat="43.23624167" lon="-6.84329167">
        <ele>264.0</ele>
        <time>2022-06-19T06:52:20.475Z</time>
      </trkpt>
      <trkpt lat="43.23624167" lon="-6.84329167">
        <ele>264.0</ele>
        <time>2022-06-19T06:52:21.470Z</time>
      </trkpt>
      <trkpt lat="43.23613333" lon="-6.84354">
        <ele>262.0</ele>
        <time>2022-06-19T06:52:22.458Z</time>
      </trkpt>
      <trkpt lat="43.23613333" lon="-6.84354">
        <ele>262.0</ele>
        <time>2022-06-19T06:52:23.457Z</time>
      </trkpt>
      <trkpt lat="43.236105" lon="-6.843815">
        <ele>260.0</ele>
        <time>2022-06-19T06:52:24.475Z</time>
      </trkpt>
      <trkpt lat="43.236105" lon="-6.843815">
        <ele>260.0</ele>
        <time>2022-06-19T06:52:25.441Z</time>
      </trkpt>
      <trkpt lat="43.236125" lon="-6.84407833">
        <ele>258.0</ele>
        <time>2022-06-19T06:52:26.451Z</time>
      </trkpt>
      <trkpt lat="43.236125" lon="-6.84407833">
        <ele>258.0</ele>
        <time>2022-06-19T06:52:27.472Z</time>
      </trkpt>
      <trkpt lat="43.23608" lon="-6.84431833">
        <ele>256.0</ele>
        <time>2022-06-19T06:52:28.446Z</time>
      </trkpt>
      <trkpt lat="43.23602833" lon="-6.84442833">
        <ele>255.0</ele>
        <time>2022-06-19T06:52:29.447Z</time>
      </trkpt>
      <trkpt lat="43.23602833" lon="-6.84442833">
        <ele>255.0</ele>
        <time>2022-06-19T06:52:30.459Z</time>
      </trkpt>
      <trkpt lat="43.23589167" lon="-6.84462333">
        <ele>253.0</ele>
        <time>2022-06-19T06:52:31.446Z</time>
      </trkpt>
      <trkpt lat="43.23582833" lon="-6.84472667">
        <ele>251.0</ele>
        <time>2022-06-19T06:52:32.480Z</time>
      </trkpt>
      <trkpt lat="43.23582833" lon="-6.84472667">
        <ele>251.0</ele>
        <time>2022-06-19T06:52:33.471Z</time>
      </trkpt>
      <trkpt lat="43.235715" lon="-6.84495167">
        <ele>249.0</ele>
        <time>2022-06-19T06:52:34.475Z</time>
      </trkpt>
      <trkpt lat="43.235715" lon="-6.84495167">
        <ele>249.0</ele>
        <time>2022-06-19T06:52:35.460Z</time>
      </trkpt>
      <trkpt lat="43.235635" lon="-6.84520167">
        <ele>247.0</ele>
        <time>2022-06-19T06:52:36.476Z</time>
      </trkpt>
      <trkpt lat="43.235635" lon="-6.84520167">
        <ele>247.0</ele>
        <time>2022-06-19T06:52:37.462Z</time>
      </trkpt>
      <trkpt lat="43.23558" lon="-6.84547167">
        <ele>245.0</ele>
        <time>2022-06-19T06:52:38.443Z</time>
      </trkpt>
      <trkpt lat="43.23558" lon="-6.84547167">
        <ele>245.0</ele>
        <time>2022-06-19T06:52:39.447Z</time>
      </trkpt>
      <trkpt lat="43.23554333" lon="-6.845755">
        <ele>243.0</ele>
        <time>2022-06-19T06:52:40.465Z</time>
      </trkpt>
      <trkpt lat="43.23554333" lon="-6.845755">
        <ele>243.0</ele>
        <time>2022-06-19T06:52:41.442Z</time>
      </trkpt>
      <trkpt lat="43.23553333" lon="-6.84602167">
        <ele>242.0</ele>
        <time>2022-06-19T06:52:42.451Z</time>
      </trkpt>
      <trkpt lat="43.23553333" lon="-6.84602167">
        <ele>242.0</ele>
        <time>2022-06-19T06:52:43.479Z</time>
      </trkpt>
      <trkpt lat="43.23554833" lon="-6.84627167">
        <ele>240.0</ele>
        <time>2022-06-19T06:52:44.449Z</time>
      </trkpt>
      <trkpt lat="43.23554833" lon="-6.84627167">
        <ele>240.0</ele>
        <time>2022-06-19T06:52:45.477Z</time>
      </trkpt>
      <trkpt lat="43.23552833" lon="-6.8465">
        <ele>239.0</ele>
        <time>2022-06-19T06:52:46.448Z</time>
      </trkpt>
      <trkpt lat="43.23551833" lon="-6.84661167">
        <ele>238.0</ele>
        <time>2022-06-19T06:52:47.461Z</time>
      </trkpt>
      <trkpt lat="43.235525" lon="-6.84671667">
        <ele>238.0</ele>
        <time>2022-06-19T06:52:48.455Z</time>
      </trkpt>
      <trkpt lat="43.235525" lon="-6.84671667">
        <ele>238.0</ele>
        <time>2022-06-19T06:52:49.449Z</time>
      </trkpt>
      <trkpt lat="43.23558333" lon="-6.846905">
        <ele>237.0</ele>
        <time>2022-06-19T06:52:50.460Z</time>
      </trkpt>
      <trkpt lat="43.23558333" lon="-6.846905">
        <ele>237.0</ele>
        <time>2022-06-19T06:52:51.469Z</time>
      </trkpt>
      <trkpt lat="43.23569167" lon="-6.84702167">
        <ele>237.0</ele>
        <time>2022-06-19T06:52:52.444Z</time>
      </trkpt>
      <trkpt lat="43.23569167" lon="-6.84702167">
        <ele>237.0</ele>
        <time>2022-06-19T06:52:53.470Z</time>
      </trkpt>
      <trkpt lat="43.23580833" lon="-6.84711833">
        <ele>236.0</ele>
        <time>2022-06-19T06:52:54.443Z</time>
      </trkpt>
      <trkpt lat="43.23586333" lon="-6.847165">
        <ele>236.0</ele>
        <time>2022-06-19T06:52:55.460Z</time>
      </trkpt>
      <trkpt lat="43.23586333" lon="-6.847165">
        <ele>236.0</ele>
        <time>2022-06-19T06:52:56.456Z</time>
      </trkpt>
      <trkpt lat="43.23597" lon="-6.84725">
        <ele>236.0</ele>
        <time>2022-06-19T06:52:57.477Z</time>
      </trkpt>
      <trkpt lat="43.23597" lon="-6.84725">
        <ele>236.0</ele>
        <time>2022-06-19T06:52:58.471Z</time>
      </trkpt>
      <trkpt lat="43.23607667" lon="-6.84732">
        <ele>236.0</ele>
        <time>2022-06-19T06:52:59.450Z</time>
      </trkpt>
      <trkpt lat="43.23607667" lon="-6.84732">
        <ele>236.0</ele>
        <time>2022-06-19T06:53:00.476Z</time>
      </trkpt>
      <trkpt lat="43.23617667" lon="-6.84738333">
        <ele>236.0</ele>
        <time>2022-06-19T06:53:01.444Z</time>
      </trkpt>
      <trkpt lat="43.23617667" lon="-6.84738333">
        <ele>236.0</ele>
        <time>2022-06-19T06:53:02.450Z</time>
      </trkpt>
      <trkpt lat="43.236275" lon="-6.84743833">
        <ele>237.0</ele>
        <time>2022-06-19T06:53:03.462Z</time>
      </trkpt>
      <trkpt lat="43.23632167" lon="-6.84746833">
        <ele>237.0</ele>
        <time>2022-06-19T06:53:04.460Z</time>
      </trkpt>
      <trkpt lat="43.23636667" lon="-6.84749333">
        <ele>237.0</ele>
        <time>2022-06-19T06:53:05.464Z</time>
      </trkpt>
      <trkpt lat="43.23636667" lon="-6.84749333">
        <ele>237.0</ele>
        <time>2022-06-19T06:53:06.459Z</time>
      </trkpt>
      <trkpt lat="43.236455" lon="-6.84753833">
        <ele>237.0</ele>
        <time>2022-06-19T06:53:07.470Z</time>
      </trkpt>
      <trkpt lat="43.236455" lon="-6.84753833">
        <ele>237.0</ele>
        <time>2022-06-19T06:53:08.447Z</time>
      </trkpt>
      <trkpt lat="43.23653667" lon="-6.847575">
        <ele>236.0</ele>
        <time>2022-06-19T06:53:09.459Z</time>
      </trkpt>
      <trkpt lat="43.23653667" lon="-6.847575">
        <ele>236.0</ele>
        <time>2022-06-19T06:53:10.471Z</time>
      </trkpt>
      <trkpt lat="43.236615" lon="-6.84760333">
        <ele>236.0</ele>
        <time>2022-06-19T06:53:11.484Z</time>
      </trkpt>
      <trkpt lat="43.23665333" lon="-6.84762">
        <ele>236.0</ele>
        <time>2022-06-19T06:53:12.466Z</time>
      </trkpt>
      <trkpt lat="43.23665333" lon="-6.84762">
        <ele>236.0</ele>
        <time>2022-06-19T06:53:13.456Z</time>
      </trkpt>
      <trkpt lat="43.236725" lon="-6.84765333">
        <ele>236.0</ele>
        <time>2022-06-19T06:53:14.441Z</time>
      </trkpt>
      <trkpt lat="43.23676" lon="-6.847665">
        <ele>236.0</ele>
        <time>2022-06-19T06:53:15.475Z</time>
      </trkpt>
      <trkpt lat="43.23676" lon="-6.847665">
        <ele>236.0</ele>
        <time>2022-06-19T06:53:16.475Z</time>
      </trkpt>
      <trkpt lat="43.23683" lon="-6.847685">
        <ele>235.0</ele>
        <time>2022-06-19T06:53:17.467Z</time>
      </trkpt>
      <trkpt lat="43.23686667" lon="-6.84769333">
        <ele>235.0</ele>
        <time>2022-06-19T06:53:18.464Z</time>
      </trkpt>
      <trkpt lat="43.23686667" lon="-6.84769333">
        <ele>235.0</ele>
        <time>2022-06-19T06:53:19.454Z</time>
      </trkpt>
      <trkpt lat="43.23693667" lon="-6.847705">
        <ele>235.0</ele>
        <time>2022-06-19T06:53:20.449Z</time>
      </trkpt>
      <trkpt lat="43.23693667" lon="-6.847705">
        <ele>235.0</ele>
        <time>2022-06-19T06:53:21.474Z</time>
      </trkpt>
      <trkpt lat="43.23701167" lon="-6.84770833">
        <ele>234.0</ele>
        <time>2022-06-19T06:53:22.448Z</time>
      </trkpt>
      <trkpt lat="43.23704833" lon="-6.84771">
        <ele>234.0</ele>
        <time>2022-06-19T06:53:23.465Z</time>
      </trkpt>
      <trkpt lat="43.23704833" lon="-6.84771">
        <ele>234.0</ele>
        <time>2022-06-19T06:53:24.450Z</time>
      </trkpt>
      <trkpt lat="43.23711333" lon="-6.847715">
        <ele>234.0</ele>
        <time>2022-06-19T06:53:25.480Z</time>
      </trkpt>
      <trkpt lat="43.23711333" lon="-6.847715">
        <ele>234.0</ele>
        <time>2022-06-19T06:53:26.464Z</time>
      </trkpt>
      <trkpt lat="43.23717333" lon="-6.84773167">
        <ele>234.0</ele>
        <time>2022-06-19T06:53:27.442Z</time>
      </trkpt>
      <trkpt lat="43.23717333" lon="-6.84773167">
        <ele>234.0</ele>
        <time>2022-06-19T06:53:28.465Z</time>
      </trkpt>
      <trkpt lat="43.23723" lon="-6.84774833">
        <ele>234.0</ele>
        <time>2022-06-19T06:53:29.443Z</time>
      </trkpt>
      <trkpt lat="43.23723" lon="-6.84774833">
        <ele>234.0</ele>
        <time>2022-06-19T06:53:30.469Z</time>
      </trkpt>
      <trkpt lat="43.23727833" lon="-6.84775">
        <ele>235.0</ele>
        <time>2022-06-19T06:53:31.441Z</time>
      </trkpt>
      <trkpt lat="43.23727833" lon="-6.84775">
        <ele>235.0</ele>
        <time>2022-06-19T06:53:32.471Z</time>
      </trkpt>
      <trkpt lat="43.23732" lon="-6.84776333">
        <ele>235.0</ele>
        <time>2022-06-19T06:53:33.480Z</time>
      </trkpt>
      <trkpt lat="43.23732" lon="-6.84776333">
        <ele>235.0</ele>
        <time>2022-06-19T06:53:34.458Z</time>
      </trkpt>
      <trkpt lat="43.23735667" lon="-6.84777833">
        <ele>235.0</ele>
        <time>2022-06-19T06:53:35.474Z</time>
      </trkpt>
      <trkpt lat="43.23737667" lon="-6.84778333">
        <ele>236.0</ele>
        <time>2022-06-19T06:53:36.447Z</time>
      </trkpt>
      <trkpt lat="43.23737667" lon="-6.84778333">
        <ele>236.0</ele>
        <time>2022-06-19T06:53:37.470Z</time>
      </trkpt>
      <trkpt lat="43.23742167" lon="-6.84778833">
        <ele>236.0</ele>
        <time>2022-06-19T06:53:38.444Z</time>
      </trkpt>
      <trkpt lat="43.237445" lon="-6.84779">
        <ele>236.0</ele>
        <time>2022-06-19T06:53:39.465Z</time>
      </trkpt>
      <trkpt lat="43.237445" lon="-6.84779">
        <ele>236.0</ele>
        <time>2022-06-19T06:53:40.471Z</time>
      </trkpt>
      <trkpt lat="43.23749833" lon="-6.84778667">
        <ele>235.0</ele>
        <time>2022-06-19T06:53:41.459Z</time>
      </trkpt>
      <trkpt lat="43.23752167" lon="-6.847785">
        <ele>235.0</ele>
        <time>2022-06-19T06:53:42.472Z</time>
      </trkpt>
      <trkpt lat="43.23754167" lon="-6.84778833">
        <ele>235.0</ele>
        <time>2022-06-19T06:53:43.472Z</time>
      </trkpt>
      <trkpt lat="43.23754167" lon="-6.84778833">
        <ele>235.0</ele>
        <time>2022-06-19T06:53:44.451Z</time>
      </trkpt>
      <trkpt lat="43.23757833" lon="-6.84780667">
        <ele>235.0</ele>
        <time>2022-06-19T06:53:45.445Z</time>
      </trkpt>
      <trkpt lat="43.23759667" lon="-6.847825">
        <ele>235.0</ele>
        <time>2022-06-19T06:53:46.447Z</time>
      </trkpt>
      <trkpt lat="43.23759667" lon="-6.847825">
        <ele>235.0</ele>
        <time>2022-06-19T06:53:47.471Z</time>
      </trkpt>
      <trkpt lat="43.23763" lon="-6.84786">
        <ele>235.0</ele>
        <time>2022-06-19T06:53:48.467Z</time>
      </trkpt>
      <trkpt lat="43.23763" lon="-6.84786">
        <ele>235.0</ele>
        <time>2022-06-19T06:53:49.473Z</time>
      </trkpt>
      <trkpt lat="43.23765833" lon="-6.84789833">
        <ele>235.0</ele>
        <time>2022-06-19T06:53:50.445Z</time>
      </trkpt>
      <trkpt lat="43.23765833" lon="-6.84789833">
        <ele>235.0</ele>
        <time>2022-06-19T06:53:51.464Z</time>
      </trkpt>
      <trkpt lat="43.23767833" lon="-6.84795">
        <ele>235.0</ele>
        <time>2022-06-19T06:53:52.476Z</time>
      </trkpt>
      <trkpt lat="43.23768833" lon="-6.84797667">
        <ele>235.0</ele>
        <time>2022-06-19T06:53:53.457Z</time>
      </trkpt>
      <trkpt lat="43.2377" lon="-6.84800167">
        <ele>235.0</ele>
        <time>2022-06-19T06:53:54.463Z</time>
      </trkpt>
      <trkpt lat="43.2377" lon="-6.84800167">
        <ele>235.0</ele>
        <time>2022-06-19T06:53:55.480Z</time>
      </trkpt>
      <trkpt lat="43.23772" lon="-6.84805">
        <ele>235.0</ele>
        <time>2022-06-19T06:53:56.461Z</time>
      </trkpt>
      <trkpt lat="43.23773333" lon="-6.84807333">
        <ele>235.0</ele>
        <time>2022-06-19T06:53:57.455Z</time>
      </trkpt>
      <trkpt lat="43.23773333" lon="-6.84807333">
        <ele>235.0</ele>
        <time>2022-06-19T06:53:58.470Z</time>
      </trkpt>
      <trkpt lat="43.23775333" lon="-6.84812167">
        <ele>235.0</ele>
        <time>2022-06-19T06:53:59.446Z</time>
      </trkpt>
      <trkpt lat="43.23775333" lon="-6.84812167">
        <ele>235.0</ele>
        <time>2022-06-19T06:54:00.461Z</time>
      </trkpt>
      <trkpt lat="43.23777" lon="-6.84817333">
        <ele>234.0</ele>
        <time>2022-06-19T06:54:01.456Z</time>
      </trkpt>
      <trkpt lat="43.23777667" lon="-6.84819833">
        <ele>234.0</ele>
        <time>2022-06-19T06:54:02.453Z</time>
      </trkpt>
      <trkpt lat="43.23778333" lon="-6.84822333">
        <ele>234.0</ele>
        <time>2022-06-19T06:54:03.464Z</time>
      </trkpt>
      <trkpt lat="43.23778333" lon="-6.84822333">
        <ele>234.0</ele>
        <time>2022-06-19T06:54:04.477Z</time>
      </trkpt>
      <trkpt lat="43.23779833" lon="-6.84827667">
        <ele>234.0</ele>
        <time>2022-06-19T06:54:05.447Z</time>
      </trkpt>
      <trkpt lat="43.23781" lon="-6.84829833">
        <ele>233.0</ele>
        <time>2022-06-19T06:54:06.448Z</time>
      </trkpt>
      <trkpt lat="43.23782167" lon="-6.84832333">
        <ele>233.0</ele>
        <time>2022-06-19T06:54:07.472Z</time>
      </trkpt>
      <trkpt lat="43.23782167" lon="-6.84832333">
        <ele>233.0</ele>
        <time>2022-06-19T06:54:08.446Z</time>
      </trkpt>
      <trkpt lat="43.23785" lon="-6.848365">
        <ele>233.0</ele>
        <time>2022-06-19T06:54:09.476Z</time>
      </trkpt>
      <trkpt lat="43.23786667" lon="-6.84838">
        <ele>233.0</ele>
        <time>2022-06-19T06:54:10.477Z</time>
      </trkpt>
      <trkpt lat="43.23786667" lon="-6.84838">
        <ele>233.0</ele>
        <time>2022-06-19T06:54:11.455Z</time>
      </trkpt>
      <trkpt lat="43.2379" lon="-6.84841833">
        <ele>233.0</ele>
        <time>2022-06-19T06:54:12.448Z</time>
      </trkpt>
      <trkpt lat="43.2379" lon="-6.84841833">
        <ele>233.0</ele>
        <time>2022-06-19T06:54:13.477Z</time>
      </trkpt>
      <trkpt lat="43.237935" lon="-6.84845333">
        <ele>233.0</ele>
        <time>2022-06-19T06:54:14.449Z</time>
      </trkpt>
      <trkpt lat="43.237935" lon="-6.84845333">
        <ele>233.0</ele>
        <time>2022-06-19T06:54:15.471Z</time>
      </trkpt>
      <trkpt lat="43.23796667" lon="-6.84848833">
        <ele>233.0</ele>
        <time>2022-06-19T06:54:16.478Z</time>
      </trkpt>
      <trkpt lat="43.23797167" lon="-6.84851667">
        <ele>234.0</ele>
        <time>2022-06-19T06:54:17.460Z</time>
      </trkpt>
      <trkpt lat="43.23797167" lon="-6.84851667">
        <ele>234.0</ele>
        <time>2022-06-19T06:54:18.479Z</time>
      </trkpt>
      <trkpt lat="43.23799" lon="-6.84855">
        <ele>234.0</ele>
        <time>2022-06-19T06:54:19.460Z</time>
      </trkpt>
      <trkpt lat="43.23799" lon="-6.84855">
        <ele>234.0</ele>
        <time>2022-06-19T06:54:20.441Z</time>
      </trkpt>
      <trkpt lat="43.23800667" lon="-6.84859333">
        <ele>235.0</ele>
        <time>2022-06-19T06:54:21.461Z</time>
      </trkpt>
      <trkpt lat="43.23800667" lon="-6.84859333">
        <ele>235.0</ele>
        <time>2022-06-19T06:54:22.441Z</time>
      </trkpt>
      <trkpt lat="43.23801333" lon="-6.84863333">
        <ele>235.0</ele>
        <time>2022-06-19T06:54:23.459Z</time>
      </trkpt>
      <trkpt lat="43.23801667" lon="-6.84865">
        <ele>235.0</ele>
        <time>2022-06-19T06:54:24.456Z</time>
      </trkpt>
      <trkpt lat="43.23801667" lon="-6.84865">
        <ele>235.0</ele>
        <time>2022-06-19T06:54:25.461Z</time>
      </trkpt>
      <trkpt lat="43.23801" lon="-6.848695">
        <ele>236.0</ele>
        <time>2022-06-19T06:54:26.472Z</time>
      </trkpt>
      <trkpt lat="43.23800833" lon="-6.84872">
        <ele>236.0</ele>
        <time>2022-06-19T06:54:27.467Z</time>
      </trkpt>
      <trkpt lat="43.23800833" lon="-6.84872">
        <ele>236.0</ele>
        <time>2022-06-19T06:54:28.441Z</time>
      </trkpt>
      <trkpt lat="43.238005" lon="-6.84876667">
        <ele>237.0</ele>
        <time>2022-06-19T06:54:29.453Z</time>
      </trkpt>
      <trkpt lat="43.238" lon="-6.84879167">
        <ele>237.0</ele>
        <time>2022-06-19T06:54:30.464Z</time>
      </trkpt>
      <trkpt lat="43.238" lon="-6.84879167">
        <ele>237.0</ele>
        <time>2022-06-19T06:54:31.447Z</time>
      </trkpt>
      <trkpt lat="43.23799" lon="-6.84883833">
        <ele>238.0</ele>
        <time>2022-06-19T06:54:32.459Z</time>
      </trkpt>
      <trkpt lat="43.23799" lon="-6.84883833">
        <ele>238.0</ele>
        <time>2022-06-19T06:54:33.472Z</time>
      </trkpt>
      <trkpt lat="43.23797" lon="-6.848875">
        <ele>238.0</ele>
        <time>2022-06-19T06:54:34.443Z</time>
      </trkpt>
      <trkpt lat="43.23797" lon="-6.848875">
        <ele>238.0</ele>
        <time>2022-06-19T06:54:35.465Z</time>
      </trkpt>
      <trkpt lat="43.23793833" lon="-6.84891667">
        <ele>239.0</ele>
        <time>2022-06-19T06:54:36.476Z</time>
      </trkpt>
      <trkpt lat="43.23793833" lon="-6.84891667">
        <ele>239.0</ele>
        <time>2022-06-19T06:54:37.454Z</time>
      </trkpt>
      <trkpt lat="43.237915" lon="-6.848955">
        <ele>239.0</ele>
        <time>2022-06-19T06:54:38.464Z</time>
      </trkpt>
      <trkpt lat="43.23790167" lon="-6.848975">
        <ele>239.0</ele>
        <time>2022-06-19T06:54:39.476Z</time>
      </trkpt>
      <trkpt lat="43.23790167" lon="-6.848975">
        <ele>239.0</ele>
        <time>2022-06-19T06:54:40.452Z</time>
      </trkpt>
      <trkpt lat="43.23787833" lon="-6.84901667">
        <ele>240.0</ele>
        <time>2022-06-19T06:54:41.461Z</time>
      </trkpt>
      <trkpt lat="43.23786167" lon="-6.84903833">
        <ele>240.0</ele>
        <time>2022-06-19T06:54:42.462Z</time>
      </trkpt>
      <trkpt lat="43.23786167" lon="-6.84903833">
        <ele>240.0</ele>
        <time>2022-06-19T06:54:43.447Z</time>
      </trkpt>
      <trkpt lat="43.23783" lon="-6.849075">
        <ele>241.0</ele>
        <time>2022-06-19T06:54:44.468Z</time>
      </trkpt>
      <trkpt lat="43.23783" lon="-6.849075">
        <ele>241.0</ele>
        <time>2022-06-19T06:54:45.451Z</time>
      </trkpt>
      <trkpt lat="43.23780167" lon="-6.84911167">
        <ele>241.0</ele>
        <time>2022-06-19T06:54:46.449Z</time>
      </trkpt>
      <trkpt lat="43.23780167" lon="-6.84911167">
        <ele>241.0</ele>
        <time>2022-06-19T06:54:47.450Z</time>
      </trkpt>
      <trkpt lat="43.23777333" lon="-6.84914167">
        <ele>242.0</ele>
        <time>2022-06-19T06:54:48.466Z</time>
      </trkpt>
      <trkpt lat="43.23777333" lon="-6.84914167">
        <ele>242.0</ele>
        <time>2022-06-19T06:54:49.475Z</time>
      </trkpt>
      <trkpt lat="43.23774" lon="-6.849165">
        <ele>242.0</ele>
        <time>2022-06-19T06:54:50.456Z</time>
      </trkpt>
      <trkpt lat="43.23772167" lon="-6.84917667">
        <ele>242.0</ele>
        <time>2022-06-19T06:54:51.472Z</time>
      </trkpt>
      <trkpt lat="43.23770333" lon="-6.84918667">
        <ele>243.0</ele>
        <time>2022-06-19T06:54:52.451Z</time>
      </trkpt>
      <trkpt lat="43.23770333" lon="-6.84918667">
        <ele>243.0</ele>
        <time>2022-06-19T06:54:53.457Z</time>
      </trkpt>
      <trkpt lat="43.237665" lon="-6.849205">
        <ele>243.0</ele>
        <time>2022-06-19T06:54:54.476Z</time>
      </trkpt>
      <trkpt lat="43.237665" lon="-6.849205">
        <ele>243.0</ele>
        <time>2022-06-19T06:54:55.458Z</time>
      </trkpt>
      <trkpt lat="43.23762333" lon="-6.84922167">
        <ele>244.0</ele>
        <time>2022-06-19T06:54:56.478Z</time>
      </trkpt>
      <trkpt lat="43.23762333" lon="-6.84922167">
        <ele>244.0</ele>
        <time>2022-06-19T06:54:57.455Z</time>
      </trkpt>
      <trkpt lat="43.23758" lon="-6.84923833">
        <ele>244.0</ele>
        <time>2022-06-19T06:54:58.481Z</time>
      </trkpt>
      <trkpt lat="43.23758" lon="-6.84923833">
        <ele>244.0</ele>
        <time>2022-06-19T06:54:59.441Z</time>
      </trkpt>
      <trkpt lat="43.23753833" lon="-6.84925167">
        <ele>244.0</ele>
        <time>2022-06-19T06:55:00.463Z</time>
      </trkpt>
      <trkpt lat="43.23752" lon="-6.84925833">
        <ele>245.0</ele>
        <time>2022-06-19T06:55:01.449Z</time>
      </trkpt>
      <trkpt lat="43.23752" lon="-6.84925833">
        <ele>245.0</ele>
        <time>2022-06-19T06:55:02.445Z</time>
      </trkpt>
      <trkpt lat="43.237485" lon="-6.84928667">
        <ele>245.0</ele>
        <time>2022-06-19T06:55:03.501Z</time>
      </trkpt>
      <trkpt lat="43.23747167" lon="-6.849295">
        <ele>245.0</ele>
        <time>2022-06-19T06:55:04.452Z</time>
      </trkpt>
      <trkpt lat="43.23747167" lon="-6.849295">
        <ele>245.0</ele>
        <time>2022-06-19T06:55:05.478Z</time>
      </trkpt>
      <trkpt lat="43.23745333" lon="-6.849295">
        <ele>246.0</ele>
        <time>2022-06-19T06:55:06.450Z</time>
      </trkpt>
      <trkpt lat="43.23745333" lon="-6.849295">
        <ele>246.0</ele>
        <time>2022-06-19T06:55:07.475Z</time>
      </trkpt>
      <trkpt lat="43.23743" lon="-6.84931333">
        <ele>247.0</ele>
        <time>2022-06-19T06:55:08.458Z</time>
      </trkpt>
      <trkpt lat="43.23742" lon="-6.849325">
        <ele>247.0</ele>
        <time>2022-06-19T06:55:09.482Z</time>
      </trkpt>
      <trkpt lat="43.23742" lon="-6.849325">
        <ele>247.0</ele>
        <time>2022-06-19T06:55:10.449Z</time>
      </trkpt>
      <trkpt lat="43.23739333" lon="-6.84935">
        <ele>247.0</ele>
        <time>2022-06-19T06:55:11.477Z</time>
      </trkpt>
      <trkpt lat="43.23737833" lon="-6.84936">
        <ele>247.0</ele>
        <time>2022-06-19T06:55:12.472Z</time>
      </trkpt>
      <trkpt lat="43.23737833" lon="-6.84936">
        <ele>247.0</ele>
        <time>2022-06-19T06:55:13.450Z</time>
      </trkpt>
      <trkpt lat="43.23735667" lon="-6.84939167">
        <ele>248.0</ele>
        <time>2022-06-19T06:55:14.469Z</time>
      </trkpt>
      <trkpt lat="43.23735667" lon="-6.84939167">
        <ele>248.0</ele>
        <time>2022-06-19T06:55:15.475Z</time>
      </trkpt>
      <trkpt lat="43.23734167" lon="-6.84943333">
        <ele>249.0</ele>
        <time>2022-06-19T06:55:16.465Z</time>
      </trkpt>
      <trkpt lat="43.237335" lon="-6.84945333">
        <ele>249.0</ele>
        <time>2022-06-19T06:55:17.478Z</time>
      </trkpt>
      <trkpt lat="43.237325" lon="-6.84947167">
        <ele>249.0</ele>
        <time>2022-06-19T06:55:18.466Z</time>
      </trkpt>
      <trkpt lat="43.237325" lon="-6.84947167">
        <ele>249.0</ele>
        <time>2022-06-19T06:55:19.469Z</time>
      </trkpt>
      <trkpt lat="43.23730667" lon="-6.84951833">
        <ele>249.0</ele>
        <time>2022-06-19T06:55:20.463Z</time>
      </trkpt>
      <trkpt lat="43.23730667" lon="-6.84951833">
        <ele>249.0</ele>
        <time>2022-06-19T06:55:21.458Z</time>
      </trkpt>
      <trkpt lat="43.237285" lon="-6.84956167">
        <ele>250.0</ele>
        <time>2022-06-19T06:55:22.446Z</time>
      </trkpt>
      <trkpt lat="43.237285" lon="-6.84956167">
        <ele>250.0</ele>
        <time>2022-06-19T06:55:23.457Z</time>
      </trkpt>
      <trkpt lat="43.237265" lon="-6.84960333">
        <ele>251.0</ele>
        <time>2022-06-19T06:55:24.529Z</time>
      </trkpt>
      <trkpt lat="43.237265" lon="-6.84960333">
        <ele>251.0</ele>
        <time>2022-06-19T06:55:25.479Z</time>
      </trkpt>
      <trkpt lat="43.23724167" lon="-6.84964667">
        <ele>252.0</ele>
        <time>2022-06-19T06:55:26.451Z</time>
      </trkpt>
      <trkpt lat="43.23723167" lon="-6.84967167">
        <ele>252.0</ele>
        <time>2022-06-19T06:55:27.444Z</time>
      </trkpt>
      <trkpt lat="43.23723167" lon="-6.84967167">
        <ele>252.0</ele>
        <time>2022-06-19T06:55:28.472Z</time>
      </trkpt>
      <trkpt lat="43.23721167" lon="-6.84971667">
        <ele>252.0</ele>
        <time>2022-06-19T06:55:29.453Z</time>
      </trkpt>
      <trkpt lat="43.2372" lon="-6.84973833">
        <ele>253.0</ele>
        <time>2022-06-19T06:55:30.464Z</time>
      </trkpt>
      <trkpt lat="43.2372" lon="-6.84973833">
        <ele>253.0</ele>
        <time>2022-06-19T06:55:31.441Z</time>
      </trkpt>
      <trkpt lat="43.23718" lon="-6.84978">
        <ele>253.0</ele>
        <time>2022-06-19T06:55:32.456Z</time>
      </trkpt>
      <trkpt lat="43.23718" lon="-6.84978">
        <ele>253.0</ele>
        <time>2022-06-19T06:55:33.443Z</time>
      </trkpt>
      <trkpt lat="43.23716833" lon="-6.84982">
        <ele>254.0</ele>
        <time>2022-06-19T06:55:34.458Z</time>
      </trkpt>
      <trkpt lat="43.23715333" lon="-6.84984167">
        <ele>254.0</ele>
        <time>2022-06-19T06:55:35.480Z</time>
      </trkpt>
      <trkpt lat="43.23715333" lon="-6.84984167">
        <ele>254.0</ele>
        <time>2022-06-19T06:55:36.476Z</time>
      </trkpt>
      <trkpt lat="43.23713333" lon="-6.84989333">
        <ele>255.0</ele>
        <time>2022-06-19T06:55:37.456Z</time>
      </trkpt>
      <trkpt lat="43.237125" lon="-6.84991667">
        <ele>256.0</ele>
        <time>2022-06-19T06:55:38.464Z</time>
      </trkpt>
      <trkpt lat="43.237125" lon="-6.84991667">
        <ele>256.0</ele>
        <time>2022-06-19T06:55:39.450Z</time>
      </trkpt>
      <trkpt lat="43.237105" lon="-6.84996167">
        <ele>256.0</ele>
        <time>2022-06-19T06:55:40.466Z</time>
      </trkpt>
      <trkpt lat="43.237105" lon="-6.84996167">
        <ele>256.0</ele>
        <time>2022-06-19T06:55:41.464Z</time>
      </trkpt>
      <trkpt lat="43.23708333" lon="-6.850005">
        <ele>257.0</ele>
        <time>2022-06-19T06:55:42.455Z</time>
      </trkpt>
      <trkpt lat="43.23708333" lon="-6.850005">
        <ele>257.0</ele>
        <time>2022-06-19T06:55:43.461Z</time>
      </trkpt>
      <trkpt lat="43.23706167" lon="-6.85004833">
        <ele>258.0</ele>
        <time>2022-06-19T06:55:44.484Z</time>
      </trkpt>
      <trkpt lat="43.23705" lon="-6.85006833">
        <ele>258.0</ele>
        <time>2022-06-19T06:55:45.465Z</time>
      </trkpt>
      <trkpt lat="43.23705" lon="-6.85006833">
        <ele>258.0</ele>
        <time>2022-06-19T06:55:46.455Z</time>
      </trkpt>
      <trkpt lat="43.23702667" lon="-6.85011333">
        <ele>259.0</ele>
        <time>2022-06-19T06:55:47.453Z</time>
      </trkpt>
      <trkpt lat="43.23702667" lon="-6.85011333">
        <ele>259.0</ele>
        <time>2022-06-19T06:55:48.441Z</time>
      </trkpt>
      <trkpt lat="43.23700667" lon="-6.85015833">
        <ele>260.0</ele>
        <time>2022-06-19T06:55:49.465Z</time>
      </trkpt>
      <trkpt lat="43.23700667" lon="-6.85015833">
        <ele>260.0</ele>
        <time>2022-06-19T06:55:50.458Z</time>
      </trkpt>
      <trkpt lat="43.236985" lon="-6.85020333">
        <ele>260.0</ele>
        <time>2022-06-19T06:55:51.477Z</time>
      </trkpt>
      <trkpt lat="43.236975" lon="-6.85022333">
        <ele>260.0</ele>
        <time>2022-06-19T06:55:52.452Z</time>
      </trkpt>
      <trkpt lat="43.236975" lon="-6.85022333">
        <ele>260.0</ele>
        <time>2022-06-19T06:55:53.456Z</time>
      </trkpt>
      <trkpt lat="43.23694833" lon="-6.850265">
        <ele>261.0</ele>
        <time>2022-06-19T06:55:54.471Z</time>
      </trkpt>
      <trkpt lat="43.23694833" lon="-6.850265">
        <ele>261.0</ele>
        <time>2022-06-19T06:55:55.457Z</time>
      </trkpt>
      <trkpt lat="43.23692167" lon="-6.85030833">
        <ele>261.0</ele>
        <time>2022-06-19T06:55:56.472Z</time>
      </trkpt>
      <trkpt lat="43.23692167" lon="-6.85030833">
        <ele>261.0</ele>
        <time>2022-06-19T06:55:57.447Z</time>
      </trkpt>
      <trkpt lat="43.23689333" lon="-6.85035333">
        <ele>261.0</ele>
        <time>2022-06-19T06:55:58.445Z</time>
      </trkpt>
      <trkpt lat="43.23689333" lon="-6.85035333">
        <ele>261.0</ele>
        <time>2022-06-19T06:55:59.469Z</time>
      </trkpt>
      <trkpt lat="43.23686667" lon="-6.85039833">
        <ele>261.0</ele>
        <time>2022-06-19T06:56:00.444Z</time>
      </trkpt>
      <trkpt lat="43.23686667" lon="-6.85039833">
        <ele>261.0</ele>
        <time>2022-06-19T06:56:01.473Z</time>
      </trkpt>
      <trkpt lat="43.23683833" lon="-6.85044333">
        <ele>262.0</ele>
        <time>2022-06-19T06:56:02.452Z</time>
      </trkpt>
      <trkpt lat="43.23682167" lon="-6.85046333">
        <ele>262.0</ele>
        <time>2022-06-19T06:56:03.449Z</time>
      </trkpt>
      <trkpt lat="43.23682167" lon="-6.85046333">
        <ele>262.0</ele>
        <time>2022-06-19T06:56:04.460Z</time>
      </trkpt>
      <trkpt lat="43.2368" lon="-6.85050333">
        <ele>262.0</ele>
        <time>2022-06-19T06:56:05.475Z</time>
      </trkpt>
      <trkpt lat="43.23678833" lon="-6.85052333">
        <ele>262.0</ele>
        <time>2022-06-19T06:56:06.473Z</time>
      </trkpt>
      <trkpt lat="43.23678833" lon="-6.85052333">
        <ele>262.0</ele>
        <time>2022-06-19T06:56:07.472Z</time>
      </trkpt>
      <trkpt lat="43.23675833" lon="-6.85055833">
        <ele>263.0</ele>
        <time>2022-06-19T06:56:08.451Z</time>
      </trkpt>
      <trkpt lat="43.23674333" lon="-6.85057">
        <ele>263.0</ele>
        <time>2022-06-19T06:56:09.483Z</time>
      </trkpt>
      <trkpt lat="43.23674333" lon="-6.85057">
        <ele>263.0</ele>
        <time>2022-06-19T06:56:10.469Z</time>
      </trkpt>
      <trkpt lat="43.23671" lon="-6.85059667">
        <ele>263.0</ele>
        <time>2022-06-19T06:56:11.443Z</time>
      </trkpt>
      <trkpt lat="43.23669333" lon="-6.850615">
        <ele>263.0</ele>
        <time>2022-06-19T06:56:12.467Z</time>
      </trkpt>
      <trkpt lat="43.23669333" lon="-6.850615">
        <ele>263.0</ele>
        <time>2022-06-19T06:56:13.477Z</time>
      </trkpt>
      <trkpt lat="43.236665" lon="-6.85064667">
        <ele>264.0</ele>
        <time>2022-06-19T06:56:14.470Z</time>
      </trkpt>
      <trkpt lat="43.236665" lon="-6.85064667">
        <ele>264.0</ele>
        <time>2022-06-19T06:56:15.451Z</time>
      </trkpt>
      <trkpt lat="43.23663167" lon="-6.85068167">
        <ele>264.0</ele>
        <time>2022-06-19T06:56:16.467Z</time>
      </trkpt>
      <trkpt lat="43.23663167" lon="-6.85068167">
        <ele>264.0</ele>
        <time>2022-06-19T06:56:17.472Z</time>
      </trkpt>
      <trkpt lat="43.23659667" lon="-6.85071667">
        <ele>264.0</ele>
        <time>2022-06-19T06:56:18.481Z</time>
      </trkpt>
      <trkpt lat="43.23658167" lon="-6.850735">
        <ele>264.0</ele>
        <time>2022-06-19T06:56:19.459Z</time>
      </trkpt>
      <trkpt lat="43.23658167" lon="-6.850735">
        <ele>264.0</ele>
        <time>2022-06-19T06:56:20.479Z</time>
      </trkpt>
      <trkpt lat="43.236545" lon="-6.85077333">
        <ele>264.0</ele>
        <time>2022-06-19T06:56:21.447Z</time>
      </trkpt>
      <trkpt lat="43.23653" lon="-6.85079167">
        <ele>264.0</ele>
        <time>2022-06-19T06:56:22.451Z</time>
      </trkpt>
      <trkpt lat="43.23653" lon="-6.85079167">
        <ele>264.0</ele>
        <time>2022-06-19T06:56:23.442Z</time>
      </trkpt>
      <trkpt lat="43.236495" lon="-6.85082833">
        <ele>265.0</ele>
        <time>2022-06-19T06:56:24.455Z</time>
      </trkpt>
      <trkpt lat="43.236495" lon="-6.85082833">
        <ele>265.0</ele>
        <time>2022-06-19T06:56:25.473Z</time>
      </trkpt>
      <trkpt lat="43.236465" lon="-6.85086333">
        <ele>265.0</ele>
        <time>2022-06-19T06:56:26.451Z</time>
      </trkpt>
      <trkpt lat="43.236465" lon="-6.85086333">
        <ele>265.0</ele>
        <time>2022-06-19T06:56:27.477Z</time>
      </trkpt>
      <trkpt lat="43.23644167" lon="-6.85090167">
        <ele>266.0</ele>
        <time>2022-06-19T06:56:28.448Z</time>
      </trkpt>
      <trkpt lat="43.23644167" lon="-6.85090167">
        <ele>266.0</ele>
        <time>2022-06-19T06:56:29.460Z</time>
      </trkpt>
      <trkpt lat="43.23642" lon="-6.85094">
        <ele>266.0</ele>
        <time>2022-06-19T06:56:30.448Z</time>
      </trkpt>
      <trkpt lat="43.23642" lon="-6.85094">
        <ele>266.0</ele>
        <time>2022-06-19T06:56:31.461Z</time>
      </trkpt>
      <trkpt lat="43.2364" lon="-6.85098333">
        <ele>266.0</ele>
        <time>2022-06-19T06:56:32.474Z</time>
      </trkpt>
      <trkpt lat="43.23638667" lon="-6.85100333">
        <ele>267.0</ele>
        <time>2022-06-19T06:56:33.478Z</time>
      </trkpt>
      <trkpt lat="43.23637167" lon="-6.851025">
        <ele>267.0</ele>
        <time>2022-06-19T06:56:34.461Z</time>
      </trkpt>
      <trkpt lat="43.23637167" lon="-6.851025">
        <ele>267.0</ele>
        <time>2022-06-19T06:56:35.441Z</time>
      </trkpt>
      <trkpt lat="43.23633667" lon="-6.85106667">
        <ele>267.0</ele>
        <time>2022-06-19T06:56:36.459Z</time>
      </trkpt>
      <trkpt lat="43.23633667" lon="-6.85106667">
        <ele>267.0</ele>
        <time>2022-06-19T06:56:37.446Z</time>
      </trkpt>
      <trkpt lat="43.23629833" lon="-6.85110667">
        <ele>268.0</ele>
        <time>2022-06-19T06:56:38.449Z</time>
      </trkpt>
      <trkpt lat="43.23629833" lon="-6.85110667">
        <ele>268.0</ele>
        <time>2022-06-19T06:56:39.450Z</time>
      </trkpt>
      <trkpt lat="43.23627667" lon="-6.851155">
        <ele>268.0</ele>
        <time>2022-06-19T06:56:40.476Z</time>
      </trkpt>
      <trkpt lat="43.23627667" lon="-6.851155">
        <ele>268.0</ele>
        <time>2022-06-19T06:56:41.457Z</time>
      </trkpt>
      <trkpt lat="43.23624667" lon="-6.8512">
        <ele>269.0</ele>
        <time>2022-06-19T06:56:42.476Z</time>
      </trkpt>
      <trkpt lat="43.23624667" lon="-6.8512">
        <ele>269.0</ele>
        <time>2022-06-19T06:56:43.476Z</time>
      </trkpt>
      <trkpt lat="43.236215" lon="-6.85123667">
        <ele>269.0</ele>
        <time>2022-06-19T06:56:44.455Z</time>
      </trkpt>
      <trkpt lat="43.236215" lon="-6.85123667">
        <ele>269.0</ele>
        <time>2022-06-19T06:56:45.450Z</time>
      </trkpt>
      <trkpt lat="43.23618667" lon="-6.85127167">
        <ele>269.0</ele>
        <time>2022-06-19T06:56:46.442Z</time>
      </trkpt>
      <trkpt lat="43.23618667" lon="-6.85127167">
        <ele>269.0</ele>
        <time>2022-06-19T06:56:47.454Z</time>
      </trkpt>
      <trkpt lat="43.23615833" lon="-6.85131">
        <ele>270.0</ele>
        <time>2022-06-19T06:56:48.465Z</time>
      </trkpt>
      <trkpt lat="43.23615833" lon="-6.85131">
        <ele>270.0</ele>
        <time>2022-06-19T06:56:49.447Z</time>
      </trkpt>
      <trkpt lat="43.23612667" lon="-6.85133667">
        <ele>270.0</ele>
        <time>2022-06-19T06:56:50.471Z</time>
      </trkpt>
      <trkpt lat="43.23610833" lon="-6.85134833">
        <ele>270.0</ele>
        <time>2022-06-19T06:56:51.460Z</time>
      </trkpt>
      <trkpt lat="43.23610833" lon="-6.85134833">
        <ele>270.0</ele>
        <time>2022-06-19T06:56:52.477Z</time>
      </trkpt>
      <trkpt lat="43.23607" lon="-6.85137167">
        <ele>271.0</ele>
        <time>2022-06-19T06:56:53.449Z</time>
      </trkpt>
      <trkpt lat="43.23607" lon="-6.85137167">
        <ele>271.0</ele>
        <time>2022-06-19T06:56:54.473Z</time>
      </trkpt>
      <trkpt lat="43.23602833" lon="-6.85138833">
        <ele>271.0</ele>
        <time>2022-06-19T06:56:55.443Z</time>
      </trkpt>
      <trkpt lat="43.23601" lon="-6.85139667">
        <ele>272.0</ele>
        <time>2022-06-19T06:56:56.479Z</time>
      </trkpt>
      <trkpt lat="43.23599" lon="-6.85140833">
        <ele>272.0</ele>
        <time>2022-06-19T06:56:57.442Z</time>
      </trkpt>
      <trkpt lat="43.23597333" lon="-6.85142">
        <ele>272.0</ele>
        <time>2022-06-19T06:56:58.479Z</time>
      </trkpt>
      <trkpt lat="43.23597333" lon="-6.85142">
        <ele>272.0</ele>
        <time>2022-06-19T06:56:59.473Z</time>
      </trkpt>
      <trkpt lat="43.23593667" lon="-6.85144667">
        <ele>272.0</ele>
        <time>2022-06-19T06:57:00.448Z</time>
      </trkpt>
      <trkpt lat="43.23593667" lon="-6.85144667">
        <ele>272.0</ele>
        <time>2022-06-19T06:57:01.444Z</time>
      </trkpt>
      <trkpt lat="43.23591" lon="-6.85147167">
        <ele>272.0</ele>
        <time>2022-06-19T06:57:02.458Z</time>
      </trkpt>
      <trkpt lat="43.23591" lon="-6.85147167">
        <ele>272.0</ele>
        <time>2022-06-19T06:57:03.454Z</time>
      </trkpt>
      <trkpt lat="43.23588" lon="-6.85149167">
        <ele>272.0</ele>
        <time>2022-06-19T06:57:04.473Z</time>
      </trkpt>
      <trkpt lat="43.23588" lon="-6.85149167">
        <ele>272.0</ele>
        <time>2022-06-19T06:57:05.450Z</time>
      </trkpt>
      <trkpt lat="43.23584" lon="-6.851505">
        <ele>273.0</ele>
        <time>2022-06-19T06:57:06.468Z</time>
      </trkpt>
      <trkpt lat="43.23581667" lon="-6.85151167">
        <ele>273.0</ele>
        <time>2022-06-19T06:57:07.476Z</time>
      </trkpt>
      <trkpt lat="43.23581667" lon="-6.85151167">
        <ele>273.0</ele>
        <time>2022-06-19T06:57:08.441Z</time>
      </trkpt>
      <trkpt lat="43.235775" lon="-6.85152667">
        <ele>273.0</ele>
        <time>2022-06-19T06:57:09.456Z</time>
      </trkpt>
      <trkpt lat="43.235775" lon="-6.85152667">
        <ele>273.0</ele>
        <time>2022-06-19T06:57:10.480Z</time>
      </trkpt>
      <trkpt lat="43.235735" lon="-6.85154667">
        <ele>273.0</ele>
        <time>2022-06-19T06:57:11.469Z</time>
      </trkpt>
      <trkpt lat="43.23571167" lon="-6.85156167">
        <ele>273.0</ele>
        <time>2022-06-19T06:57:12.464Z</time>
      </trkpt>
      <trkpt lat="43.23571167" lon="-6.85156167">
        <ele>273.0</ele>
        <time>2022-06-19T06:57:13.452Z</time>
      </trkpt>
      <trkpt lat="43.23566833" lon="-6.85157667">
        <ele>274.0</ele>
        <time>2022-06-19T06:57:14.466Z</time>
      </trkpt>
      <trkpt lat="43.23566833" lon="-6.85157667">
        <ele>274.0</ele>
        <time>2022-06-19T06:57:15.468Z</time>
      </trkpt>
      <trkpt lat="43.23563333" lon="-6.85159333">
        <ele>274.0</ele>
        <time>2022-06-19T06:57:16.463Z</time>
      </trkpt>
      <trkpt lat="43.23563333" lon="-6.85159333">
        <ele>274.0</ele>
        <time>2022-06-19T06:57:17.446Z</time>
      </trkpt>
      <trkpt lat="43.23560167" lon="-6.85161833">
        <ele>274.0</ele>
        <time>2022-06-19T06:57:18.481Z</time>
      </trkpt>
      <trkpt lat="43.23560167" lon="-6.85161833">
        <ele>274.0</ele>
        <time>2022-06-19T06:57:19.441Z</time>
      </trkpt>
      <trkpt lat="43.23557167" lon="-6.85164833">
        <ele>275.0</ele>
        <time>2022-06-19T06:57:20.452Z</time>
      </trkpt>
      <trkpt lat="43.23557167" lon="-6.85164833">
        <ele>275.0</ele>
        <time>2022-06-19T06:57:21.476Z</time>
      </trkpt>
      <trkpt lat="43.23554333" lon="-6.85168333">
        <ele>275.0</ele>
        <time>2022-06-19T06:57:22.453Z</time>
      </trkpt>
      <trkpt lat="43.23554333" lon="-6.85168333">
        <ele>275.0</ele>
        <time>2022-06-19T06:57:23.475Z</time>
      </trkpt>
      <trkpt lat="43.23551667" lon="-6.85171167">
        <ele>276.0</ele>
        <time>2022-06-19T06:57:24.444Z</time>
      </trkpt>
      <trkpt lat="43.23551667" lon="-6.85171167">
        <ele>276.0</ele>
        <time>2022-06-19T06:57:25.458Z</time>
      </trkpt>
      <trkpt lat="43.23549167" lon="-6.85174833">
        <ele>276.0</ele>
        <time>2022-06-19T06:57:26.444Z</time>
      </trkpt>
      <trkpt lat="43.23549167" lon="-6.85174833">
        <ele>276.0</ele>
        <time>2022-06-19T06:57:27.444Z</time>
      </trkpt>
      <trkpt lat="43.23547833" lon="-6.85179333">
        <ele>276.0</ele>
        <time>2022-06-19T06:57:28.454Z</time>
      </trkpt>
      <trkpt lat="43.23547333" lon="-6.85181667">
        <ele>277.0</ele>
        <time>2022-06-19T06:57:29.477Z</time>
      </trkpt>
      <trkpt lat="43.235465" lon="-6.85184167">
        <ele>277.0</ele>
        <time>2022-06-19T06:57:30.475Z</time>
      </trkpt>
      <trkpt lat="43.235465" lon="-6.85184167">
        <ele>277.0</ele>
        <time>2022-06-19T06:57:31.447Z</time>
      </trkpt>
      <trkpt lat="43.235455" lon="-6.85189">
        <ele>277.0</ele>
        <time>2022-06-19T06:57:32.462Z</time>
      </trkpt>
      <trkpt lat="43.235455" lon="-6.85189">
        <ele>277.0</ele>
        <time>2022-06-19T06:57:33.442Z</time>
      </trkpt>
      <trkpt lat="43.23544167" lon="-6.85193167">
        <ele>278.0</ele>
        <time>2022-06-19T06:57:34.455Z</time>
      </trkpt>
      <trkpt lat="43.23543333" lon="-6.851955">
        <ele>278.0</ele>
        <time>2022-06-19T06:57:35.453Z</time>
      </trkpt>
      <trkpt lat="43.23542333" lon="-6.85197833">
        <ele>278.0</ele>
        <time>2022-06-19T06:57:36.473Z</time>
      </trkpt>
      <trkpt lat="43.23542333" lon="-6.85197833">
        <ele>278.0</ele>
        <time>2022-06-19T06:57:37.461Z</time>
      </trkpt>
      <trkpt lat="43.235395" lon="-6.85202167">
        <ele>279.0</ele>
        <time>2022-06-19T06:57:38.478Z</time>
      </trkpt>
      <trkpt lat="43.23538333" lon="-6.852045">
        <ele>279.0</ele>
        <time>2022-06-19T06:57:39.449Z</time>
      </trkpt>
      <trkpt lat="43.23538333" lon="-6.852045">
        <ele>279.0</ele>
        <time>2022-06-19T06:57:40.472Z</time>
      </trkpt>
      <trkpt lat="43.23536167" lon="-6.85209167">
        <ele>279.0</ele>
        <time>2022-06-19T06:57:41.477Z</time>
      </trkpt>
      <trkpt lat="43.23535" lon="-6.85211667">
        <ele>279.0</ele>
        <time>2022-06-19T06:57:42.460Z</time>
      </trkpt>
      <trkpt lat="43.23535" lon="-6.85211667">
        <ele>279.0</ele>
        <time>2022-06-19T06:57:43.474Z</time>
      </trkpt>
      <trkpt lat="43.235325" lon="-6.85216">
        <ele>280.0</ele>
        <time>2022-06-19T06:57:44.445Z</time>
      </trkpt>
      <trkpt lat="43.23531167" lon="-6.85218167">
        <ele>280.0</ele>
        <time>2022-06-19T06:57:45.456Z</time>
      </trkpt>
      <trkpt lat="43.23531167" lon="-6.85218167">
        <ele>280.0</ele>
        <time>2022-06-19T06:57:46.453Z</time>
      </trkpt>
      <trkpt lat="43.23528333" lon="-6.85222167">
        <ele>280.0</ele>
        <time>2022-06-19T06:57:47.468Z</time>
      </trkpt>
      <trkpt lat="43.23528333" lon="-6.85222167">
        <ele>280.0</ele>
        <time>2022-06-19T06:57:48.474Z</time>
      </trkpt>
      <trkpt lat="43.23524833" lon="-6.85225667">
        <ele>281.0</ele>
        <time>2022-06-19T06:57:49.449Z</time>
      </trkpt>
      <trkpt lat="43.23524833" lon="-6.85225667">
        <ele>281.0</ele>
        <time>2022-06-19T06:57:50.443Z</time>
      </trkpt>
      <trkpt lat="43.23520667" lon="-6.85228667">
        <ele>281.0</ele>
        <time>2022-06-19T06:57:51.472Z</time>
      </trkpt>
      <trkpt lat="43.23520667" lon="-6.85228667">
        <ele>281.0</ele>
        <time>2022-06-19T06:57:52.452Z</time>
      </trkpt>
      <trkpt lat="43.23516667" lon="-6.85231333">
        <ele>281.0</ele>
        <time>2022-06-19T06:57:53.462Z</time>
      </trkpt>
      <trkpt lat="43.235145" lon="-6.85232667">
        <ele>281.0</ele>
        <time>2022-06-19T06:57:54.461Z</time>
      </trkpt>
      <trkpt lat="43.235145" lon="-6.85232667">
        <ele>281.0</ele>
        <time>2022-06-19T06:57:55.480Z</time>
      </trkpt>
      <trkpt lat="43.23511" lon="-6.85234667">
        <ele>282.0</ele>
        <time>2022-06-19T06:57:56.445Z</time>
      </trkpt>
      <trkpt lat="43.23508833" lon="-6.85235167">
        <ele>282.0</ele>
        <time>2022-06-19T06:57:57.467Z</time>
      </trkpt>
      <trkpt lat="43.23508833" lon="-6.85235167">
        <ele>282.0</ele>
        <time>2022-06-19T06:57:58.466Z</time>
      </trkpt>
      <trkpt lat="43.23505333" lon="-6.85236833">
        <ele>282.0</ele>
        <time>2022-06-19T06:57:59.476Z</time>
      </trkpt>
      <trkpt lat="43.23504333" lon="-6.85236833">
        <ele>281.0</ele>
        <time>2022-06-19T06:58:00.450Z</time>
      </trkpt>
      <trkpt lat="43.23504333" lon="-6.85236833">
        <ele>281.0</ele>
        <time>2022-06-19T06:58:01.442Z</time>
      </trkpt>
      <trkpt lat="43.23503167" lon="-6.85236167">
        <ele>279.0</ele>
        <time>2022-06-19T06:58:02.462Z</time>
      </trkpt>
      <trkpt lat="43.23502167" lon="-6.85235333">
        <ele>278.0</ele>
        <time>2022-06-19T06:58:03.468Z</time>
      </trkpt>
      <trkpt lat="43.23502167" lon="-6.85235333">
        <ele>278.0</ele>
        <time>2022-06-19T06:58:04.449Z</time>
      </trkpt>
      <trkpt lat="43.23499667" lon="-6.85233">
        <ele>277.0</ele>
        <time>2022-06-19T06:58:05.459Z</time>
      </trkpt>
      <trkpt lat="43.23497667" lon="-6.85231833">
        <ele>277.0</ele>
        <time>2022-06-19T06:58:06.453Z</time>
      </trkpt>
      <trkpt lat="43.23496" lon="-6.85230667">
        <ele>276.0</ele>
        <time>2022-06-19T06:58:07.448Z</time>
      </trkpt>
      <trkpt lat="43.23496" lon="-6.85230667">
        <ele>276.0</ele>
        <time>2022-06-19T06:58:08.446Z</time>
      </trkpt>
      <trkpt lat="43.23493" lon="-6.85228833">
        <ele>275.0</ele>
        <time>2022-06-19T06:58:09.461Z</time>
      </trkpt>
      <trkpt lat="43.23493" lon="-6.85228833">
        <ele>275.0</ele>
        <time>2022-06-19T06:58:10.478Z</time>
      </trkpt>
      <trkpt lat="43.234905" lon="-6.85226333">
        <ele>274.0</ele>
        <time>2022-06-19T06:58:11.449Z</time>
      </trkpt>
      <trkpt lat="43.234905" lon="-6.85226333">
        <ele>274.0</ele>
        <time>2022-06-19T06:58:12.465Z</time>
      </trkpt>
      <trkpt lat="43.234875" lon="-6.85223667">
        <ele>273.0</ele>
        <time>2022-06-19T06:58:13.457Z</time>
      </trkpt>
      <trkpt lat="43.234875" lon="-6.85223667">
        <ele>273.0</ele>
        <time>2022-06-19T06:58:14.453Z</time>
      </trkpt>
      <trkpt lat="43.234845" lon="-6.85221833">
        <ele>272.0</ele>
        <time>2022-06-19T06:58:15.462Z</time>
      </trkpt>
      <trkpt lat="43.234845" lon="-6.85221833">
        <ele>272.0</ele>
        <time>2022-06-19T06:58:16.475Z</time>
      </trkpt>
      <trkpt lat="43.23480833" lon="-6.85219833">
        <ele>272.0</ele>
        <time>2022-06-19T06:58:17.457Z</time>
      </trkpt>
      <trkpt lat="43.23479" lon="-6.85218833">
        <ele>271.0</ele>
        <time>2022-06-19T06:58:18.462Z</time>
      </trkpt>
      <trkpt lat="43.23479" lon="-6.85218833">
        <ele>271.0</ele>
        <time>2022-06-19T06:58:19.452Z</time>
      </trkpt>
      <trkpt lat="43.23474833" lon="-6.85217167">
        <ele>270.0</ele>
        <time>2022-06-19T06:58:20.463Z</time>
      </trkpt>
      <trkpt lat="43.23474833" lon="-6.85217167">
        <ele>270.0</ele>
        <time>2022-06-19T06:58:21.459Z</time>
      </trkpt>
      <trkpt lat="43.23470667" lon="-6.85216">
        <ele>270.0</ele>
        <time>2022-06-19T06:58:22.475Z</time>
      </trkpt>
      <trkpt lat="43.23470667" lon="-6.85216">
        <ele>270.0</ele>
        <time>2022-06-19T06:58:23.467Z</time>
      </trkpt>
      <trkpt lat="43.23467" lon="-6.85215333">
        <ele>270.0</ele>
        <time>2022-06-19T06:58:24.442Z</time>
      </trkpt>
      <trkpt lat="43.23467" lon="-6.85215333">
        <ele>270.0</ele>
        <time>2022-06-19T06:58:25.451Z</time>
      </trkpt>
      <trkpt lat="43.23463" lon="-6.85216">
        <ele>269.0</ele>
        <time>2022-06-19T06:58:26.462Z</time>
      </trkpt>
      <trkpt lat="43.23463" lon="-6.85216">
        <ele>269.0</ele>
        <time>2022-06-19T06:58:27.453Z</time>
      </trkpt>
      <trkpt lat="43.23458833" lon="-6.85217">
        <ele>269.0</ele>
        <time>2022-06-19T06:58:28.478Z</time>
      </trkpt>
      <trkpt lat="43.23458833" lon="-6.85217">
        <ele>269.0</ele>
        <time>2022-06-19T06:58:29.463Z</time>
      </trkpt>
      <trkpt lat="43.23454833" lon="-6.852195">
        <ele>268.0</ele>
        <time>2022-06-19T06:58:30.479Z</time>
      </trkpt>
      <trkpt lat="43.23454833" lon="-6.852195">
        <ele>268.0</ele>
        <time>2022-06-19T06:58:31.459Z</time>
      </trkpt>
      <trkpt lat="43.23451" lon="-6.85222333">
        <ele>267.0</ele>
        <time>2022-06-19T06:58:32.479Z</time>
      </trkpt>
      <trkpt lat="43.23451" lon="-6.85222333">
        <ele>267.0</ele>
        <time>2022-06-19T06:58:33.474Z</time>
      </trkpt>
      <trkpt lat="43.23447833" lon="-6.85225167">
        <ele>267.0</ele>
        <time>2022-06-19T06:58:34.446Z</time>
      </trkpt>
      <trkpt lat="43.23446667" lon="-6.85226833">
        <ele>267.0</ele>
        <time>2022-06-19T06:58:35.464Z</time>
      </trkpt>
      <trkpt lat="43.234455" lon="-6.852285">
        <ele>267.0</ele>
        <time>2022-06-19T06:58:36.461Z</time>
      </trkpt>
      <trkpt lat="43.234455" lon="-6.852285">
        <ele>267.0</ele>
        <time>2022-06-19T06:58:37.469Z</time>
      </trkpt>
      <trkpt lat="43.23443" lon="-6.85232167">
        <ele>267.0</ele>
        <time>2022-06-19T06:58:38.455Z</time>
      </trkpt>
      <trkpt lat="43.23443" lon="-6.85232167">
        <ele>267.0</ele>
        <time>2022-06-19T06:58:39.444Z</time>
      </trkpt>
      <trkpt lat="43.23440667" lon="-6.85235667">
        <ele>268.0</ele>
        <time>2022-06-19T06:58:40.457Z</time>
      </trkpt>
      <trkpt lat="43.23440667" lon="-6.85235667">
        <ele>268.0</ele>
        <time>2022-06-19T06:58:41.451Z</time>
      </trkpt>
      <trkpt lat="43.23438167" lon="-6.85239">
        <ele>268.0</ele>
        <time>2022-06-19T06:58:42.479Z</time>
      </trkpt>
      <trkpt lat="43.23438167" lon="-6.85239">
        <ele>268.0</ele>
        <time>2022-06-19T06:58:43.472Z</time>
      </trkpt>
      <trkpt lat="43.23436333" lon="-6.85243">
        <ele>269.0</ele>
        <time>2022-06-19T06:58:44.483Z</time>
      </trkpt>
      <trkpt lat="43.23436333" lon="-6.85243">
        <ele>269.0</ele>
        <time>2022-06-19T06:58:45.481Z</time>
      </trkpt>
      <trkpt lat="43.234345" lon="-6.85247">
        <ele>270.0</ele>
        <time>2022-06-19T06:58:46.443Z</time>
      </trkpt>
      <trkpt lat="43.234345" lon="-6.85247">
        <ele>270.0</ele>
        <time>2022-06-19T06:58:47.464Z</time>
      </trkpt>
      <trkpt lat="43.23432833" lon="-6.852515">
        <ele>270.0</ele>
        <time>2022-06-19T06:58:48.444Z</time>
      </trkpt>
      <trkpt lat="43.23432833" lon="-6.852515">
        <ele>270.0</ele>
        <time>2022-06-19T06:58:49.451Z</time>
      </trkpt>
      <trkpt lat="43.23431" lon="-6.85255833">
        <ele>270.0</ele>
        <time>2022-06-19T06:58:50.465Z</time>
      </trkpt>
      <trkpt lat="43.23431" lon="-6.85255833">
        <ele>270.0</ele>
        <time>2022-06-19T06:58:51.452Z</time>
      </trkpt>
      <trkpt lat="43.23429" lon="-6.85260167">
        <ele>271.0</ele>
        <time>2022-06-19T06:58:52.464Z</time>
      </trkpt>
      <trkpt lat="43.23429" lon="-6.85260167">
        <ele>271.0</ele>
        <time>2022-06-19T06:58:53.458Z</time>
      </trkpt>
      <trkpt lat="43.23426667" lon="-6.852645">
        <ele>271.0</ele>
        <time>2022-06-19T06:58:54.450Z</time>
      </trkpt>
      <trkpt lat="43.23426667" lon="-6.852645">
        <ele>271.0</ele>
        <time>2022-06-19T06:58:55.476Z</time>
      </trkpt>
      <trkpt lat="43.23424833" lon="-6.85269333">
        <ele>271.0</ele>
        <time>2022-06-19T06:58:56.456Z</time>
      </trkpt>
      <trkpt lat="43.23424833" lon="-6.85269333">
        <ele>271.0</ele>
        <time>2022-06-19T06:58:57.473Z</time>
      </trkpt>
      <trkpt lat="43.234225" lon="-6.85273667">
        <ele>272.0</ele>
        <time>2022-06-19T06:58:58.442Z</time>
      </trkpt>
      <trkpt lat="43.234225" lon="-6.85273667">
        <ele>272.0</ele>
        <time>2022-06-19T06:58:59.459Z</time>
      </trkpt>
      <trkpt lat="43.234205" lon="-6.85278333">
        <ele>272.0</ele>
        <time>2022-06-19T06:59:00.441Z</time>
      </trkpt>
      <trkpt lat="43.234205" lon="-6.85278333">
        <ele>272.0</ele>
        <time>2022-06-19T06:59:01.462Z</time>
      </trkpt>
      <trkpt lat="43.234175" lon="-6.85284833">
        <ele>273.0</ele>
        <time>2022-06-19T06:59:02.469Z</time>
      </trkpt>
      <trkpt lat="43.234175" lon="-6.85284833">
        <ele>273.0</ele>
        <time>2022-06-19T06:59:03.447Z</time>
      </trkpt>
      <trkpt lat="43.23414833" lon="-6.85289667">
        <ele>273.0</ele>
        <time>2022-06-19T06:59:04.472Z</time>
      </trkpt>
      <trkpt lat="43.23414833" lon="-6.85289667">
        <ele>273.0</ele>
        <time>2022-06-19T06:59:05.458Z</time>
      </trkpt>
      <trkpt lat="43.234115" lon="-6.85294167">
        <ele>274.0</ele>
        <time>2022-06-19T06:59:06.470Z</time>
      </trkpt>
      <trkpt lat="43.234115" lon="-6.85294167">
        <ele>274.0</ele>
        <time>2022-06-19T06:59:07.452Z</time>
      </trkpt>
      <trkpt lat="43.23408833" lon="-6.852985">
        <ele>274.0</ele>
        <time>2022-06-19T06:59:08.460Z</time>
      </trkpt>
      <trkpt lat="43.23407333" lon="-6.85300833">
        <ele>275.0</ele>
        <time>2022-06-19T06:59:09.449Z</time>
      </trkpt>
      <trkpt lat="43.23407333" lon="-6.85300833">
        <ele>275.0</ele>
        <time>2022-06-19T06:59:10.466Z</time>
      </trkpt>
      <trkpt lat="43.23404167" lon="-6.85304167">
        <ele>275.0</ele>
        <time>2022-06-19T06:59:11.476Z</time>
      </trkpt>
      <trkpt lat="43.23402833" lon="-6.85306">
        <ele>275.0</ele>
        <time>2022-06-19T06:59:12.462Z</time>
      </trkpt>
      <trkpt lat="43.23402833" lon="-6.85306">
        <ele>275.0</ele>
        <time>2022-06-19T06:59:13.451Z</time>
      </trkpt>
      <trkpt lat="43.234" lon="-6.85309333">
        <ele>275.0</ele>
        <time>2022-06-19T06:59:14.447Z</time>
      </trkpt>
      <trkpt lat="43.234" lon="-6.85309333">
        <ele>275.0</ele>
        <time>2022-06-19T06:59:15.457Z</time>
      </trkpt>
      <trkpt lat="43.23397167" lon="-6.85312667">
        <ele>275.0</ele>
        <time>2022-06-19T06:59:16.449Z</time>
      </trkpt>
      <trkpt lat="43.23397167" lon="-6.85312667">
        <ele>275.0</ele>
        <time>2022-06-19T06:59:17.475Z</time>
      </trkpt>
      <trkpt lat="43.23394" lon="-6.85315667">
        <ele>275.0</ele>
        <time>2022-06-19T06:59:18.445Z</time>
      </trkpt>
      <trkpt lat="43.23394" lon="-6.85315667">
        <ele>275.0</ele>
        <time>2022-06-19T06:59:19.463Z</time>
      </trkpt>
      <trkpt lat="43.23390667" lon="-6.853185">
        <ele>274.0</ele>
        <time>2022-06-19T06:59:20.473Z</time>
      </trkpt>
      <trkpt lat="43.23390667" lon="-6.853185">
        <ele>274.0</ele>
        <time>2022-06-19T06:59:21.460Z</time>
      </trkpt>
      <trkpt lat="43.23387167" lon="-6.85321333">
        <ele>274.0</ele>
        <time>2022-06-19T06:59:22.441Z</time>
      </trkpt>
      <trkpt lat="43.23387167" lon="-6.85321333">
        <ele>274.0</ele>
        <time>2022-06-19T06:59:23.457Z</time>
      </trkpt>
      <trkpt lat="43.23383167" lon="-6.85323667">
        <ele>274.0</ele>
        <time>2022-06-19T06:59:24.476Z</time>
      </trkpt>
      <trkpt lat="43.23383167" lon="-6.85323667">
        <ele>274.0</ele>
        <time>2022-06-19T06:59:25.458Z</time>
      </trkpt>
      <trkpt lat="43.23379" lon="-6.85324333">
        <ele>274.0</ele>
        <time>2022-06-19T06:59:26.467Z</time>
      </trkpt>
      <trkpt lat="43.23377" lon="-6.853245">
        <ele>274.0</ele>
        <time>2022-06-19T06:59:27.477Z</time>
      </trkpt>
      <trkpt lat="43.23374833" lon="-6.85324333">
        <ele>274.0</ele>
        <time>2022-06-19T06:59:28.480Z</time>
      </trkpt>
      <trkpt lat="43.23374833" lon="-6.85324333">
        <ele>274.0</ele>
        <time>2022-06-19T06:59:29.448Z</time>
      </trkpt>
      <trkpt lat="43.23370667" lon="-6.853235">
        <ele>275.0</ele>
        <time>2022-06-19T06:59:30.459Z</time>
      </trkpt>
      <trkpt lat="43.23370667" lon="-6.853235">
        <ele>275.0</ele>
        <time>2022-06-19T06:59:31.476Z</time>
      </trkpt>
      <trkpt lat="43.23366833" lon="-6.85322667">
        <ele>275.0</ele>
        <time>2022-06-19T06:59:32.454Z</time>
      </trkpt>
      <trkpt lat="43.23364667" lon="-6.853215">
        <ele>275.0</ele>
        <time>2022-06-19T06:59:33.447Z</time>
      </trkpt>
      <trkpt lat="43.23364667" lon="-6.853215">
        <ele>275.0</ele>
        <time>2022-06-19T06:59:34.459Z</time>
      </trkpt>
      <trkpt lat="43.23361" lon="-6.85319167">
        <ele>275.0</ele>
        <time>2022-06-19T06:59:35.593Z</time>
      </trkpt>
      <trkpt lat="43.23359167" lon="-6.85317667">
        <ele>276.0</ele>
        <time>2022-06-19T06:59:36.479Z</time>
      </trkpt>
      <trkpt lat="43.23357333" lon="-6.85315833">
        <ele>276.0</ele>
        <time>2022-06-19T06:59:37.459Z</time>
      </trkpt>
      <trkpt lat="43.23357333" lon="-6.85315833">
        <ele>276.0</ele>
        <time>2022-06-19T06:59:38.476Z</time>
      </trkpt>
      <trkpt lat="43.233545" lon="-6.853125">
        <ele>276.0</ele>
        <time>2022-06-19T06:59:39.455Z</time>
      </trkpt>
      <trkpt lat="43.233545" lon="-6.853125">
        <ele>276.0</ele>
        <time>2022-06-19T06:59:40.442Z</time>
      </trkpt>
      <trkpt lat="43.23352167" lon="-6.85307833">
        <ele>276.0</ele>
        <time>2022-06-19T06:59:41.458Z</time>
      </trkpt>
      <trkpt lat="43.23351" lon="-6.85305167">
        <ele>277.0</ele>
        <time>2022-06-19T06:59:42.475Z</time>
      </trkpt>
      <trkpt lat="43.23351" lon="-6.85305167">
        <ele>277.0</ele>
        <time>2022-06-19T06:59:43.472Z</time>
      </trkpt>
      <trkpt lat="43.23349" lon="-6.85300167">
        <ele>277.0</ele>
        <time>2022-06-19T06:59:44.450Z</time>
      </trkpt>
      <trkpt lat="43.23347833" lon="-6.85298">
        <ele>277.0</ele>
        <time>2022-06-19T06:59:45.456Z</time>
      </trkpt>
      <trkpt lat="43.23347833" lon="-6.85298">
        <ele>277.0</ele>
        <time>2022-06-19T06:59:46.464Z</time>
      </trkpt>
      <trkpt lat="43.23345167" lon="-6.85294333">
        <ele>278.0</ele>
        <time>2022-06-19T06:59:47.441Z</time>
      </trkpt>
      <trkpt lat="43.233435" lon="-6.85292667">
        <ele>278.0</ele>
        <time>2022-06-19T06:59:48.442Z</time>
      </trkpt>
      <trkpt lat="43.233435" lon="-6.85292667">
        <ele>278.0</ele>
        <time>2022-06-19T06:59:49.472Z</time>
      </trkpt>
      <trkpt lat="43.23341" lon="-6.852895">
        <ele>278.0</ele>
        <time>2022-06-19T06:59:50.479Z</time>
      </trkpt>
      <trkpt lat="43.23341" lon="-6.852895">
        <ele>278.0</ele>
        <time>2022-06-19T06:59:51.459Z</time>
      </trkpt>
      <trkpt lat="43.233365" lon="-6.85286167">
        <ele>278.0</ele>
        <time>2022-06-19T06:59:52.471Z</time>
      </trkpt>
      <trkpt lat="43.233365" lon="-6.85286167">
        <ele>278.0</ele>
        <time>2022-06-19T06:59:53.505Z</time>
      </trkpt>
      <trkpt lat="43.233345" lon="-6.85284833">
        <ele>278.0</ele>
        <time>2022-06-19T06:59:54.449Z</time>
      </trkpt>
      <trkpt lat="43.23331833" lon="-6.85282">
        <ele>278.0</ele>
        <time>2022-06-19T06:59:55.469Z</time>
      </trkpt>
      <trkpt lat="43.23331833" lon="-6.85282">
        <ele>278.0</ele>
        <time>2022-06-19T06:59:56.460Z</time>
      </trkpt>
      <trkpt lat="43.23328667" lon="-6.85279833">
        <ele>278.0</ele>
        <time>2022-06-19T06:59:57.473Z</time>
      </trkpt>
      <trkpt lat="43.23328667" lon="-6.85279833">
        <ele>278.0</ele>
        <time>2022-06-19T06:59:58.474Z</time>
      </trkpt>
      <trkpt lat="43.23325167" lon="-6.85278333">
        <ele>279.0</ele>
        <time>2022-06-19T06:59:59.452Z</time>
      </trkpt>
      <trkpt lat="43.23325167" lon="-6.85278333">
        <ele>279.0</ele>
        <time>2022-06-19T07:00:00.476Z</time>
      </trkpt>
      <trkpt lat="43.23321667" lon="-6.85277667">
        <ele>279.0</ele>
        <time>2022-06-19T07:00:01.465Z</time>
      </trkpt>
      <trkpt lat="43.23319667" lon="-6.85277667">
        <ele>279.0</ele>
        <time>2022-06-19T07:00:02.471Z</time>
      </trkpt>
      <trkpt lat="43.23319667" lon="-6.85277667">
        <ele>279.0</ele>
        <time>2022-06-19T07:00:03.453Z</time>
      </trkpt>
      <trkpt lat="43.23315667" lon="-6.85279833">
        <ele>279.0</ele>
        <time>2022-06-19T07:00:04.471Z</time>
      </trkpt>
      <trkpt lat="43.23315667" lon="-6.85279833">
        <ele>279.0</ele>
        <time>2022-06-19T07:00:05.461Z</time>
      </trkpt>
      <trkpt lat="43.23312333" lon="-6.85282167">
        <ele>279.0</ele>
        <time>2022-06-19T07:00:06.479Z</time>
      </trkpt>
      <trkpt lat="43.23312333" lon="-6.85282167">
        <ele>279.0</ele>
        <time>2022-06-19T07:00:07.455Z</time>
      </trkpt>
      <trkpt lat="43.23308833" lon="-6.85283">
        <ele>279.0</ele>
        <time>2022-06-19T07:00:08.472Z</time>
      </trkpt>
      <trkpt lat="43.23307333" lon="-6.85281667">
        <ele>280.0</ele>
        <time>2022-06-19T07:00:09.481Z</time>
      </trkpt>
      <trkpt lat="43.23307333" lon="-6.85281667">
        <ele>280.0</ele>
        <time>2022-06-19T07:00:10.462Z</time>
      </trkpt>
      <trkpt lat="43.23304667" lon="-6.852825">
        <ele>281.0</ele>
        <time>2022-06-19T07:00:11.479Z</time>
      </trkpt>
      <trkpt lat="43.23303333" lon="-6.85283667">
        <ele>281.0</ele>
        <time>2022-06-19T07:00:12.445Z</time>
      </trkpt>
      <trkpt lat="43.23303333" lon="-6.85283667">
        <ele>281.0</ele>
        <time>2022-06-19T07:00:13.477Z</time>
      </trkpt>
      <trkpt lat="43.23300167" lon="-6.85286833">
        <ele>282.0</ele>
        <time>2022-06-19T07:00:14.453Z</time>
      </trkpt>
      <trkpt lat="43.23300167" lon="-6.85286833">
        <ele>282.0</ele>
        <time>2022-06-19T07:00:15.448Z</time>
      </trkpt>
      <trkpt lat="43.23297833" lon="-6.8529">
        <ele>283.0</ele>
        <time>2022-06-19T07:00:16.457Z</time>
      </trkpt>
      <trkpt lat="43.23297833" lon="-6.8529">
        <ele>283.0</ele>
        <time>2022-06-19T07:00:17.448Z</time>
      </trkpt>
      <trkpt lat="43.23295833" lon="-6.85293667">
        <ele>283.0</ele>
        <time>2022-06-19T07:00:18.462Z</time>
      </trkpt>
      <trkpt lat="43.23295" lon="-6.85296167">
        <ele>283.0</ele>
        <time>2022-06-19T07:00:19.473Z</time>
      </trkpt>
      <trkpt lat="43.23295" lon="-6.85296167">
        <ele>283.0</ele>
        <time>2022-06-19T07:00:20.453Z</time>
      </trkpt>
      <trkpt lat="43.23293333" lon="-6.85300667">
        <ele>284.0</ele>
        <time>2022-06-19T07:00:21.445Z</time>
      </trkpt>
      <trkpt lat="43.232925" lon="-6.85303">
        <ele>284.0</ele>
        <time>2022-06-19T07:00:22.471Z</time>
      </trkpt>
      <trkpt lat="43.23291667" lon="-6.85305667">
        <ele>284.0</ele>
        <time>2022-06-19T07:00:23.463Z</time>
      </trkpt>
      <trkpt lat="43.23291" lon="-6.85307833">
        <ele>284.0</ele>
        <time>2022-06-19T07:00:24.456Z</time>
      </trkpt>
      <trkpt lat="43.23291" lon="-6.85307833">
        <ele>284.0</ele>
        <time>2022-06-19T07:00:25.442Z</time>
      </trkpt>
      <trkpt lat="43.23289167" lon="-6.85312333">
        <ele>284.0</ele>
        <time>2022-06-19T07:00:26.461Z</time>
      </trkpt>
      <trkpt lat="43.23289167" lon="-6.85312333">
        <ele>284.0</ele>
        <time>2022-06-19T07:00:27.476Z</time>
      </trkpt>
      <trkpt lat="43.23287" lon="-6.85317167">
        <ele>285.0</ele>
        <time>2022-06-19T07:00:28.467Z</time>
      </trkpt>
      <trkpt lat="43.23286167" lon="-6.85319833">
        <ele>285.0</ele>
        <time>2022-06-19T07:00:29.452Z</time>
      </trkpt>
      <trkpt lat="43.23286167" lon="-6.85319833">
        <ele>285.0</ele>
        <time>2022-06-19T07:00:30.477Z</time>
      </trkpt>
      <trkpt lat="43.23284" lon="-6.85324833">
        <ele>285.0</ele>
        <time>2022-06-19T07:00:31.449Z</time>
      </trkpt>
      <trkpt lat="43.23284" lon="-6.85324833">
        <ele>285.0</ele>
        <time>2022-06-19T07:00:32.447Z</time>
      </trkpt>
      <trkpt lat="43.23281167" lon="-6.85329167">
        <ele>286.0</ele>
        <time>2022-06-19T07:00:33.459Z</time>
      </trkpt>
      <trkpt lat="43.23281167" lon="-6.85329167">
        <ele>286.0</ele>
        <time>2022-06-19T07:00:34.442Z</time>
      </trkpt>
      <trkpt lat="43.23278333" lon="-6.853335">
        <ele>286.0</ele>
        <time>2022-06-19T07:00:35.464Z</time>
      </trkpt>
      <trkpt lat="43.232765" lon="-6.85335833">
        <ele>286.0</ele>
        <time>2022-06-19T07:00:36.470Z</time>
      </trkpt>
      <trkpt lat="43.232765" lon="-6.85335833">
        <ele>286.0</ele>
        <time>2022-06-19T07:00:37.462Z</time>
      </trkpt>
      <trkpt lat="43.23273667" lon="-6.853395">
        <ele>286.0</ele>
        <time>2022-06-19T07:00:38.442Z</time>
      </trkpt>
      <trkpt lat="43.23273667" lon="-6.853395">
        <ele>286.0</ele>
        <time>2022-06-19T07:00:39.443Z</time>
      </trkpt>
      <trkpt lat="43.23271" lon="-6.85343833">
        <ele>287.0</ele>
        <time>2022-06-19T07:00:40.470Z</time>
      </trkpt>
      <trkpt lat="43.23271" lon="-6.85343833">
        <ele>287.0</ele>
        <time>2022-06-19T07:00:41.471Z</time>
      </trkpt>
      <trkpt lat="43.23268" lon="-6.85348333">
        <ele>287.0</ele>
        <time>2022-06-19T07:00:42.482Z</time>
      </trkpt>
      <trkpt lat="43.23268" lon="-6.85348333">
        <ele>287.0</ele>
        <time>2022-06-19T07:00:43.443Z</time>
      </trkpt>
      <trkpt lat="43.23265333" lon="-6.85352667">
        <ele>287.0</ele>
        <time>2022-06-19T07:00:44.459Z</time>
      </trkpt>
      <trkpt lat="43.23265333" lon="-6.85352667">
        <ele>287.0</ele>
        <time>2022-06-19T07:00:45.458Z</time>
      </trkpt>
      <trkpt lat="43.23263167" lon="-6.85356333">
        <ele>287.0</ele>
        <time>2022-06-19T07:00:46.444Z</time>
      </trkpt>
      <trkpt lat="43.23262333" lon="-6.853585">
        <ele>287.0</ele>
        <time>2022-06-19T07:00:47.468Z</time>
      </trkpt>
      <trkpt lat="43.23262333" lon="-6.853585">
        <ele>287.0</ele>
        <time>2022-06-19T07:00:48.466Z</time>
      </trkpt>
      <trkpt lat="43.23260167" lon="-6.853625">
        <ele>288.0</ele>
        <time>2022-06-19T07:00:49.451Z</time>
      </trkpt>
      <trkpt lat="43.23260167" lon="-6.853625">
        <ele>288.0</ele>
        <time>2022-06-19T07:00:50.474Z</time>
      </trkpt>
      <trkpt lat="43.23257667" lon="-6.85367">
        <ele>288.0</ele>
        <time>2022-06-19T07:00:51.502Z</time>
      </trkpt>
      <trkpt lat="43.23256167" lon="-6.85369167">
        <ele>288.0</ele>
        <time>2022-06-19T07:00:52.442Z</time>
      </trkpt>
      <trkpt lat="43.23254333" lon="-6.85371333">
        <ele>288.0</ele>
        <time>2022-06-19T07:00:53.453Z</time>
      </trkpt>
      <trkpt lat="43.23254333" lon="-6.85371333">
        <ele>288.0</ele>
        <time>2022-06-19T07:00:54.474Z</time>
      </trkpt>
      <trkpt lat="43.23251333" lon="-6.85375333">
        <ele>289.0</ele>
        <time>2022-06-19T07:00:55.450Z</time>
      </trkpt>
      <trkpt lat="43.23251333" lon="-6.85375333">
        <ele>289.0</ele>
        <time>2022-06-19T07:00:56.477Z</time>
      </trkpt>
      <trkpt lat="43.232485" lon="-6.85379667">
        <ele>289.0</ele>
        <time>2022-06-19T07:00:57.448Z</time>
      </trkpt>
      <trkpt lat="43.232485" lon="-6.85379667">
        <ele>289.0</ele>
        <time>2022-06-19T07:00:58.478Z</time>
      </trkpt>
      <trkpt lat="43.232465" lon="-6.85384333">
        <ele>290.0</ele>
        <time>2022-06-19T07:00:59.452Z</time>
      </trkpt>
      <trkpt lat="43.232465" lon="-6.85384333">
        <ele>290.0</ele>
        <time>2022-06-19T07:01:00.459Z</time>
      </trkpt>
      <trkpt lat="43.23244" lon="-6.85388833">
        <ele>290.0</ele>
        <time>2022-06-19T07:01:01.444Z</time>
      </trkpt>
      <trkpt lat="43.23244" lon="-6.85388833">
        <ele>290.0</ele>
        <time>2022-06-19T07:01:02.479Z</time>
      </trkpt>
      <trkpt lat="43.23241" lon="-6.85393">
        <ele>290.0</ele>
        <time>2022-06-19T07:01:03.458Z</time>
      </trkpt>
      <trkpt lat="43.23241" lon="-6.85393">
        <ele>290.0</ele>
        <time>2022-06-19T07:01:04.473Z</time>
      </trkpt>
      <trkpt lat="43.23238167" lon="-6.85398833">
        <ele>291.0</ele>
        <time>2022-06-19T07:01:05.444Z</time>
      </trkpt>
      <trkpt lat="43.232375" lon="-6.85400833">
        <ele>291.0</ele>
        <time>2022-06-19T07:01:06.469Z</time>
      </trkpt>
      <trkpt lat="43.232375" lon="-6.85400833">
        <ele>291.0</ele>
        <time>2022-06-19T07:01:07.474Z</time>
      </trkpt>
      <trkpt lat="43.23234667" lon="-6.854055">
        <ele>291.0</ele>
        <time>2022-06-19T07:01:08.457Z</time>
      </trkpt>
      <trkpt lat="43.23232833" lon="-6.85407833">
        <ele>291.0</ele>
        <time>2022-06-19T07:01:09.454Z</time>
      </trkpt>
      <trkpt lat="43.23231167" lon="-6.85409833">
        <ele>291.0</ele>
        <time>2022-06-19T07:01:10.467Z</time>
      </trkpt>
      <trkpt lat="43.23231167" lon="-6.85409833">
        <ele>291.0</ele>
        <time>2022-06-19T07:01:11.445Z</time>
      </trkpt>
      <trkpt lat="43.23228167" lon="-6.85413333">
        <ele>292.0</ele>
        <time>2022-06-19T07:01:12.463Z</time>
      </trkpt>
      <trkpt lat="43.23226667" lon="-6.85415333">
        <ele>292.0</ele>
        <time>2022-06-19T07:01:13.457Z</time>
      </trkpt>
      <trkpt lat="43.23226667" lon="-6.85415333">
        <ele>292.0</ele>
        <time>2022-06-19T07:01:14.476Z</time>
      </trkpt>
      <trkpt lat="43.23224" lon="-6.85419167">
        <ele>292.0</ele>
        <time>2022-06-19T07:01:15.450Z</time>
      </trkpt>
      <trkpt lat="43.232225" lon="-6.85421">
        <ele>292.0</ele>
        <time>2022-06-19T07:01:16.452Z</time>
      </trkpt>
      <trkpt lat="43.232225" lon="-6.85421">
        <ele>292.0</ele>
        <time>2022-06-19T07:01:17.445Z</time>
      </trkpt>
      <trkpt lat="43.23219833" lon="-6.85425167">
        <ele>293.0</ele>
        <time>2022-06-19T07:01:18.455Z</time>
      </trkpt>
      <trkpt lat="43.23219833" lon="-6.85425167">
        <ele>293.0</ele>
        <time>2022-06-19T07:01:19.456Z</time>
      </trkpt>
      <trkpt lat="43.23216667" lon="-6.85429667">
        <ele>293.0</ele>
        <time>2022-06-19T07:01:20.470Z</time>
      </trkpt>
      <trkpt lat="43.23216667" lon="-6.85429667">
        <ele>293.0</ele>
        <time>2022-06-19T07:01:21.452Z</time>
      </trkpt>
      <trkpt lat="43.23213833" lon="-6.85433333">
        <ele>294.0</ele>
        <time>2022-06-19T07:01:22.472Z</time>
      </trkpt>
      <trkpt lat="43.23213833" lon="-6.85433333">
        <ele>294.0</ele>
        <time>2022-06-19T07:01:23.461Z</time>
      </trkpt>
      <trkpt lat="43.23210833" lon="-6.85437333">
        <ele>294.0</ele>
        <time>2022-06-19T07:01:24.473Z</time>
      </trkpt>
      <trkpt lat="43.23210833" lon="-6.85437333">
        <ele>294.0</ele>
        <time>2022-06-19T07:01:25.469Z</time>
      </trkpt>
      <trkpt lat="43.232075" lon="-6.85440833">
        <ele>294.0</ele>
        <time>2022-06-19T07:01:26.446Z</time>
      </trkpt>
      <trkpt lat="43.23206167" lon="-6.85442667">
        <ele>295.0</ele>
        <time>2022-06-19T07:01:27.481Z</time>
      </trkpt>
      <trkpt lat="43.23206167" lon="-6.85442667">
        <ele>295.0</ele>
        <time>2022-06-19T07:01:28.472Z</time>
      </trkpt>
      <trkpt lat="43.23203667" lon="-6.85446833">
        <ele>295.0</ele>
        <time>2022-06-19T07:01:29.489Z</time>
      </trkpt>
      <trkpt lat="43.23202333" lon="-6.85449">
        <ele>295.0</ele>
        <time>2022-06-19T07:01:30.481Z</time>
      </trkpt>
      <trkpt lat="43.23202333" lon="-6.85449">
        <ele>295.0</ele>
        <time>2022-06-19T07:01:31.478Z</time>
      </trkpt>
      <trkpt lat="43.232" lon="-6.85453">
        <ele>295.0</ele>
        <time>2022-06-19T07:01:32.449Z</time>
      </trkpt>
      <trkpt lat="43.232" lon="-6.85453">
        <ele>295.0</ele>
        <time>2022-06-19T07:01:33.451Z</time>
      </trkpt>
      <trkpt lat="43.23197667" lon="-6.85457667">
        <ele>295.0</ele>
        <time>2022-06-19T07:01:34.461Z</time>
      </trkpt>
      <trkpt lat="43.23197667" lon="-6.85457667">
        <ele>295.0</ele>
        <time>2022-06-19T07:01:35.475Z</time>
      </trkpt>
      <trkpt lat="43.23194833" lon="-6.85463167">
        <ele>296.0</ele>
        <time>2022-06-19T07:01:36.453Z</time>
      </trkpt>
      <trkpt lat="43.23194833" lon="-6.85463167">
        <ele>296.0</ele>
        <time>2022-06-19T07:01:37.477Z</time>
      </trkpt>
      <trkpt lat="43.23191667" lon="-6.85468333">
        <ele>296.0</ele>
        <time>2022-06-19T07:01:38.452Z</time>
      </trkpt>
      <trkpt lat="43.23191667" lon="-6.85468333">
        <ele>296.0</ele>
        <time>2022-06-19T07:01:39.441Z</time>
      </trkpt>
      <trkpt lat="43.231895" lon="-6.85472333">
        <ele>297.0</ele>
        <time>2022-06-19T07:01:40.454Z</time>
      </trkpt>
      <trkpt lat="43.231895" lon="-6.85472333">
        <ele>297.0</ele>
        <time>2022-06-19T07:01:41.442Z</time>
      </trkpt>
      <trkpt lat="43.23186667" lon="-6.85476333">
        <ele>297.0</ele>
        <time>2022-06-19T07:01:42.465Z</time>
      </trkpt>
      <trkpt lat="43.23186667" lon="-6.85476333">
        <ele>297.0</ele>
        <time>2022-06-19T07:01:43.449Z</time>
      </trkpt>
      <trkpt lat="43.23184833" lon="-6.85480333">
        <ele>298.0</ele>
        <time>2022-06-19T07:01:44.462Z</time>
      </trkpt>
      <trkpt lat="43.23183833" lon="-6.85482833">
        <ele>298.0</ele>
        <time>2022-06-19T07:01:45.481Z</time>
      </trkpt>
      <trkpt lat="43.23183833" lon="-6.85482833">
        <ele>298.0</ele>
        <time>2022-06-19T07:01:46.469Z</time>
      </trkpt>
      <trkpt lat="43.23181667" lon="-6.85486833">
        <ele>298.0</ele>
        <time>2022-06-19T07:01:47.481Z</time>
      </trkpt>
      <trkpt lat="43.23180333" lon="-6.85489">
        <ele>298.0</ele>
        <time>2022-06-19T07:01:48.471Z</time>
      </trkpt>
      <trkpt lat="43.23180333" lon="-6.85489">
        <ele>298.0</ele>
        <time>2022-06-19T07:01:49.466Z</time>
      </trkpt>
      <trkpt lat="43.23177333" lon="-6.85492833">
        <ele>299.0</ele>
        <time>2022-06-19T07:01:50.441Z</time>
      </trkpt>
      <trkpt lat="43.23177333" lon="-6.85492833">
        <ele>299.0</ele>
        <time>2022-06-19T07:01:51.472Z</time>
      </trkpt>
      <trkpt lat="43.23174667" lon="-6.85497">
        <ele>299.0</ele>
        <time>2022-06-19T07:01:52.444Z</time>
      </trkpt>
      <trkpt lat="43.23174667" lon="-6.85497">
        <ele>299.0</ele>
        <time>2022-06-19T07:01:53.476Z</time>
      </trkpt>
      <trkpt lat="43.23171" lon="-6.85500667">
        <ele>300.0</ele>
        <time>2022-06-19T07:01:54.455Z</time>
      </trkpt>
      <trkpt lat="43.23171" lon="-6.85500667">
        <ele>300.0</ele>
        <time>2022-06-19T07:01:55.451Z</time>
      </trkpt>
      <trkpt lat="43.23168" lon="-6.855045">
        <ele>300.0</ele>
        <time>2022-06-19T07:01:56.466Z</time>
      </trkpt>
      <trkpt lat="43.23168" lon="-6.855045">
        <ele>300.0</ele>
        <time>2022-06-19T07:01:57.472Z</time>
      </trkpt>
      <trkpt lat="43.231655" lon="-6.85508667">
        <ele>301.0</ele>
        <time>2022-06-19T07:01:58.448Z</time>
      </trkpt>
      <trkpt lat="43.231655" lon="-6.85508667">
        <ele>301.0</ele>
        <time>2022-06-19T07:01:59.479Z</time>
      </trkpt>
      <trkpt lat="43.23163167" lon="-6.85512833">
        <ele>301.0</ele>
        <time>2022-06-19T07:02:00.456Z</time>
      </trkpt>
      <trkpt lat="43.23163167" lon="-6.85512833">
        <ele>301.0</ele>
        <time>2022-06-19T07:02:01.444Z</time>
      </trkpt>
      <trkpt lat="43.231605" lon="-6.85517167">
        <ele>302.0</ele>
        <time>2022-06-19T07:02:02.475Z</time>
      </trkpt>
      <trkpt lat="43.23159667" lon="-6.855195">
        <ele>302.0</ele>
        <time>2022-06-19T07:02:03.478Z</time>
      </trkpt>
      <trkpt lat="43.23158667" lon="-6.85522">
        <ele>302.0</ele>
        <time>2022-06-19T07:02:04.478Z</time>
      </trkpt>
      <trkpt lat="43.23158667" lon="-6.85522">
        <ele>302.0</ele>
        <time>2022-06-19T07:02:05.444Z</time>
      </trkpt>
      <trkpt lat="43.23157" lon="-6.85527">
        <ele>302.0</ele>
        <time>2022-06-19T07:02:06.470Z</time>
      </trkpt>
      <trkpt lat="43.23156" lon="-6.85529667">
        <ele>302.0</ele>
        <time>2022-06-19T07:02:07.465Z</time>
      </trkpt>
      <trkpt lat="43.23156" lon="-6.85529667">
        <ele>302.0</ele>
        <time>2022-06-19T07:02:08.445Z</time>
      </trkpt>
      <trkpt lat="43.23154667" lon="-6.85535333">
        <ele>303.0</ele>
        <time>2022-06-19T07:02:09.463Z</time>
      </trkpt>
      <trkpt lat="43.23154667" lon="-6.85535333">
        <ele>303.0</ele>
        <time>2022-06-19T07:02:10.460Z</time>
      </trkpt>
      <trkpt lat="43.23152667" lon="-6.85540167">
        <ele>303.0</ele>
        <time>2022-06-19T07:02:11.470Z</time>
      </trkpt>
      <trkpt lat="43.23151833" lon="-6.85543">
        <ele>303.0</ele>
        <time>2022-06-19T07:02:12.478Z</time>
      </trkpt>
      <trkpt lat="43.23151833" lon="-6.85543">
        <ele>303.0</ele>
        <time>2022-06-19T07:02:13.449Z</time>
      </trkpt>
      <trkpt lat="43.2315" lon="-6.85548167">
        <ele>304.0</ele>
        <time>2022-06-19T07:02:14.461Z</time>
      </trkpt>
      <trkpt lat="43.23149667" lon="-6.85551333">
        <ele>304.0</ele>
        <time>2022-06-19T07:02:15.448Z</time>
      </trkpt>
      <trkpt lat="43.23149667" lon="-6.85551333">
        <ele>304.0</ele>
        <time>2022-06-19T07:02:16.467Z</time>
      </trkpt>
      <trkpt lat="43.231475" lon="-6.85556333">
        <ele>304.0</ele>
        <time>2022-06-19T07:02:17.450Z</time>
      </trkpt>
      <trkpt lat="43.23146333" lon="-6.85558833">
        <ele>305.0</ele>
        <time>2022-06-19T07:02:18.462Z</time>
      </trkpt>
      <trkpt lat="43.23146333" lon="-6.85558833">
        <ele>305.0</ele>
        <time>2022-06-19T07:02:19.474Z</time>
      </trkpt>
      <trkpt lat="43.23144333" lon="-6.85563667">
        <ele>305.0</ele>
        <time>2022-06-19T07:02:20.442Z</time>
      </trkpt>
      <trkpt lat="43.23144333" lon="-6.85563667">
        <ele>305.0</ele>
        <time>2022-06-19T07:02:21.461Z</time>
      </trkpt>
      <trkpt lat="43.23142833" lon="-6.85568833">
        <ele>305.0</ele>
        <time>2022-06-19T07:02:22.473Z</time>
      </trkpt>
      <trkpt lat="43.23142833" lon="-6.85568833">
        <ele>305.0</ele>
        <time>2022-06-19T07:02:23.476Z</time>
      </trkpt>
      <trkpt lat="43.23140833" lon="-6.855735">
        <ele>306.0</ele>
        <time>2022-06-19T07:02:24.448Z</time>
      </trkpt>
      <trkpt lat="43.23140833" lon="-6.855735">
        <ele>306.0</ele>
        <time>2022-06-19T07:02:25.457Z</time>
      </trkpt>
      <trkpt lat="43.231385" lon="-6.85577833">
        <ele>306.0</ele>
        <time>2022-06-19T07:02:26.455Z</time>
      </trkpt>
      <trkpt lat="43.231385" lon="-6.85577833">
        <ele>306.0</ele>
        <time>2022-06-19T07:02:27.461Z</time>
      </trkpt>
      <trkpt lat="43.23137333" lon="-6.85583167">
        <ele>306.0</ele>
        <time>2022-06-19T07:02:28.454Z</time>
      </trkpt>
      <trkpt lat="43.23137333" lon="-6.85583167">
        <ele>306.0</ele>
        <time>2022-06-19T07:02:29.465Z</time>
      </trkpt>
      <trkpt lat="43.23135" lon="-6.85587833">
        <ele>307.0</ele>
        <time>2022-06-19T07:02:30.443Z</time>
      </trkpt>
      <trkpt lat="43.23135" lon="-6.85587833">
        <ele>307.0</ele>
        <time>2022-06-19T07:02:31.462Z</time>
      </trkpt>
      <trkpt lat="43.23132667" lon="-6.85592333">
        <ele>307.0</ele>
        <time>2022-06-19T07:02:32.468Z</time>
      </trkpt>
      <trkpt lat="43.23132667" lon="-6.85592333">
        <ele>307.0</ele>
        <time>2022-06-19T07:02:33.459Z</time>
      </trkpt>
      <trkpt lat="43.23131" lon="-6.855965">
        <ele>308.0</ele>
        <time>2022-06-19T07:02:34.466Z</time>
      </trkpt>
      <trkpt lat="43.23131" lon="-6.855965">
        <ele>308.0</ele>
        <time>2022-06-19T07:02:35.477Z</time>
      </trkpt>
      <trkpt lat="43.231305" lon="-6.85601333">
        <ele>308.0</ele>
        <time>2022-06-19T07:02:36.465Z</time>
      </trkpt>
      <trkpt lat="43.231305" lon="-6.85601333">
        <ele>308.0</ele>
        <time>2022-06-19T07:02:37.459Z</time>
      </trkpt>
      <trkpt lat="43.23131" lon="-6.85606167">
        <ele>308.0</ele>
        <time>2022-06-19T07:02:38.466Z</time>
      </trkpt>
      <trkpt lat="43.23131" lon="-6.85606167">
        <ele>308.0</ele>
        <time>2022-06-19T07:02:39.442Z</time>
      </trkpt>
      <trkpt lat="43.23133333" lon="-6.85612">
        <ele>309.0</ele>
        <time>2022-06-19T07:02:40.473Z</time>
      </trkpt>
      <trkpt lat="43.23133333" lon="-6.85612">
        <ele>309.0</ele>
        <time>2022-06-19T07:02:41.473Z</time>
      </trkpt>
      <trkpt lat="43.23135333" lon="-6.85616833">
        <ele>309.0</ele>
        <time>2022-06-19T07:02:42.480Z</time>
      </trkpt>
      <trkpt lat="43.231355" lon="-6.85619167">
        <ele>309.0</ele>
        <time>2022-06-19T07:02:43.461Z</time>
      </trkpt>
      <trkpt lat="43.231355" lon="-6.85619167">
        <ele>309.0</ele>
        <time>2022-06-19T07:02:44.465Z</time>
      </trkpt>
      <trkpt lat="43.23135667" lon="-6.85623667">
        <ele>310.0</ele>
        <time>2022-06-19T07:02:45.463Z</time>
      </trkpt>
      <trkpt lat="43.23135667" lon="-6.85623667">
        <ele>310.0</ele>
        <time>2022-06-19T07:02:46.442Z</time>
      </trkpt>
      <trkpt lat="43.23137333" lon="-6.85629167">
        <ele>310.0</ele>
        <time>2022-06-19T07:02:47.449Z</time>
      </trkpt>
      <trkpt lat="43.23138" lon="-6.856315">
        <ele>310.0</ele>
        <time>2022-06-19T07:02:48.471Z</time>
      </trkpt>
      <trkpt lat="43.23138" lon="-6.856315">
        <ele>310.0</ele>
        <time>2022-06-19T07:02:49.444Z</time>
      </trkpt>
      <trkpt lat="43.231375" lon="-6.85636333">
        <ele>310.0</ele>
        <time>2022-06-19T07:02:50.476Z</time>
      </trkpt>
      <trkpt lat="43.231375" lon="-6.85636333">
        <ele>310.0</ele>
        <time>2022-06-19T07:02:51.446Z</time>
      </trkpt>
      <trkpt lat="43.23136167" lon="-6.85640667">
        <ele>311.0</ele>
        <time>2022-06-19T07:02:52.458Z</time>
      </trkpt>
      <trkpt lat="43.23136833" lon="-6.85642833">
        <ele>311.0</ele>
        <time>2022-06-19T07:02:53.469Z</time>
      </trkpt>
      <trkpt lat="43.23136833" lon="-6.85642833">
        <ele>311.0</ele>
        <time>2022-06-19T07:02:54.461Z</time>
      </trkpt>
      <trkpt lat="43.23138833" lon="-6.85647667">
        <ele>311.0</ele>
        <time>2022-06-19T07:02:55.454Z</time>
      </trkpt>
      <trkpt lat="43.23138667" lon="-6.85649833">
        <ele>311.0</ele>
        <time>2022-06-19T07:02:56.448Z</time>
      </trkpt>
      <trkpt lat="43.23140167" lon="-6.85652">
        <ele>312.0</ele>
        <time>2022-06-19T07:02:57.462Z</time>
      </trkpt>
      <trkpt lat="43.23140167" lon="-6.85652">
        <ele>312.0</ele>
        <time>2022-06-19T07:02:58.452Z</time>
      </trkpt>
      <trkpt lat="43.23144833" lon="-6.85657167">
        <ele>312.0</ele>
        <time>2022-06-19T07:02:59.471Z</time>
      </trkpt>
      <trkpt lat="43.23146167" lon="-6.856595">
        <ele>312.0</ele>
        <time>2022-06-19T07:03:00.475Z</time>
      </trkpt>
      <trkpt lat="43.23146167" lon="-6.856595">
        <ele>312.0</ele>
        <time>2022-06-19T07:03:01.476Z</time>
      </trkpt>
      <trkpt lat="43.23146833" lon="-6.85664">
        <ele>313.0</ele>
        <time>2022-06-19T07:03:02.449Z</time>
      </trkpt>
      <trkpt lat="43.23146833" lon="-6.85664">
        <ele>313.0</ele>
        <time>2022-06-19T07:03:03.476Z</time>
      </trkpt>
      <trkpt lat="43.23152667" lon="-6.85669">
        <ele>313.0</ele>
        <time>2022-06-19T07:03:04.473Z</time>
      </trkpt>
      <trkpt lat="43.23152667" lon="-6.85669">
        <ele>313.0</ele>
        <time>2022-06-19T07:03:05.471Z</time>
      </trkpt>
      <trkpt lat="43.23153667" lon="-6.85674">
        <ele>313.0</ele>
        <time>2022-06-19T07:03:06.450Z</time>
      </trkpt>
      <trkpt lat="43.23153667" lon="-6.85674">
        <ele>313.0</ele>
        <time>2022-06-19T07:03:07.477Z</time>
      </trkpt>
      <trkpt lat="43.231585" lon="-6.856785">
        <ele>313.0</ele>
        <time>2022-06-19T07:03:08.466Z</time>
      </trkpt>
      <trkpt lat="43.231585" lon="-6.856785">
        <ele>313.0</ele>
        <time>2022-06-19T07:03:09.449Z</time>
      </trkpt>
      <trkpt lat="43.23163" lon="-6.85683333">
        <ele>314.0</ele>
        <time>2022-06-19T07:03:10.455Z</time>
      </trkpt>
      <trkpt lat="43.23163" lon="-6.85683333">
        <ele>314.0</ele>
        <time>2022-06-19T07:03:11.461Z</time>
      </trkpt>
      <trkpt lat="43.23165333" lon="-6.85687667">
        <ele>314.0</ele>
        <time>2022-06-19T07:03:12.465Z</time>
      </trkpt>
      <trkpt lat="43.23165333" lon="-6.85687667">
        <ele>314.0</ele>
        <time>2022-06-19T07:03:13.479Z</time>
      </trkpt>
      <trkpt lat="43.23164" lon="-6.85691167">
        <ele>314.0</ele>
        <time>2022-06-19T07:03:14.451Z</time>
      </trkpt>
      <trkpt lat="43.23163833" lon="-6.85693">
        <ele>314.0</ele>
        <time>2022-06-19T07:03:15.479Z</time>
      </trkpt>
      <trkpt lat="43.23166333" lon="-6.85694833">
        <ele>315.0</ele>
        <time>2022-06-19T07:03:16.473Z</time>
      </trkpt>
      <trkpt lat="43.23166333" lon="-6.85694833">
        <ele>315.0</ele>
        <time>2022-06-19T07:03:17.458Z</time>
      </trkpt>
      <trkpt lat="43.23168333" lon="-6.85697667">
        <ele>315.0</ele>
        <time>2022-06-19T07:03:18.464Z</time>
      </trkpt>
      <trkpt lat="43.23168333" lon="-6.85697667">
        <ele>315.0</ele>
        <time>2022-06-19T07:03:19.442Z</time>
      </trkpt>
      <trkpt lat="43.23171667" lon="-6.85699833">
        <ele>315.0</ele>
        <time>2022-06-19T07:03:20.462Z</time>
      </trkpt>
      <trkpt lat="43.23171667" lon="-6.85699833">
        <ele>315.0</ele>
        <time>2022-06-19T07:03:21.449Z</time>
      </trkpt>
      <trkpt lat="43.231765" lon="-6.85701167">
        <ele>315.0</ele>
        <time>2022-06-19T07:03:22.457Z</time>
      </trkpt>
      <trkpt lat="43.231765" lon="-6.85701167">
        <ele>315.0</ele>
        <time>2022-06-19T07:03:23.474Z</time>
      </trkpt>
      <trkpt lat="43.23176333" lon="-6.85702">
        <ele>315.0</ele>
        <time>2022-06-19T07:03:24.475Z</time>
      </trkpt>
      <trkpt lat="43.23176333" lon="-6.85702">
        <ele>315.0</ele>
        <time>2022-06-19T07:03:25.461Z</time>
      </trkpt>
      <trkpt lat="43.23172833" lon="-6.85701333">
        <ele>315.0</ele>
        <time>2022-06-19T07:03:26.478Z</time>
      </trkpt>
      <trkpt lat="43.23172833" lon="-6.85701333">
        <ele>315.0</ele>
        <time>2022-06-19T07:03:27.456Z</time>
      </trkpt>
      <trkpt lat="43.23168833" lon="-6.85700167">
        <ele>315.0</ele>
        <time>2022-06-19T07:03:28.463Z</time>
      </trkpt>
      <trkpt lat="43.23168833" lon="-6.85700167">
        <ele>315.0</ele>
        <time>2022-06-19T07:03:29.445Z</time>
      </trkpt>
      <trkpt lat="43.23166167" lon="-6.85698333">
        <ele>315.0</ele>
        <time>2022-06-19T07:03:30.451Z</time>
      </trkpt>
      <trkpt lat="43.23166167" lon="-6.85698333">
        <ele>315.0</ele>
        <time>2022-06-19T07:03:31.463Z</time>
      </trkpt>
      <trkpt lat="43.231635" lon="-6.85696167">
        <ele>314.0</ele>
        <time>2022-06-19T07:03:32.449Z</time>
      </trkpt>
      <trkpt lat="43.231635" lon="-6.85696167">
        <ele>314.0</ele>
        <time>2022-06-19T07:03:33.445Z</time>
      </trkpt>
      <trkpt lat="43.23159833" lon="-6.85693">
        <ele>314.0</ele>
        <time>2022-06-19T07:03:34.473Z</time>
      </trkpt>
      <trkpt lat="43.23159833" lon="-6.85693">
        <ele>314.0</ele>
        <time>2022-06-19T07:03:35.451Z</time>
      </trkpt>
      <trkpt lat="43.231575" lon="-6.856895">
        <ele>314.0</ele>
        <time>2022-06-19T07:03:36.459Z</time>
      </trkpt>
      <trkpt lat="43.231575" lon="-6.856895">
        <ele>314.0</ele>
        <time>2022-06-19T07:03:37.479Z</time>
      </trkpt>
      <trkpt lat="43.23155" lon="-6.85685">
        <ele>314.0</ele>
        <time>2022-06-19T07:03:38.475Z</time>
      </trkpt>
      <trkpt lat="43.23155" lon="-6.85685">
        <ele>314.0</ele>
        <time>2022-06-19T07:03:39.450Z</time>
      </trkpt>
      <trkpt lat="43.2315" lon="-6.8568">
        <ele>313.0</ele>
        <time>2022-06-19T07:03:40.456Z</time>
      </trkpt>
      <trkpt lat="43.2315" lon="-6.8568">
        <ele>313.0</ele>
        <time>2022-06-19T07:03:41.442Z</time>
      </trkpt>
      <trkpt lat="43.231455" lon="-6.85674833">
        <ele>313.0</ele>
        <time>2022-06-19T07:03:42.453Z</time>
      </trkpt>
      <trkpt lat="43.231455" lon="-6.85674833">
        <ele>313.0</ele>
        <time>2022-06-19T07:03:43.465Z</time>
      </trkpt>
      <trkpt lat="43.23140333" lon="-6.85669667">
        <ele>313.0</ele>
        <time>2022-06-19T07:03:44.471Z</time>
      </trkpt>
      <trkpt lat="43.23140333" lon="-6.85669667">
        <ele>313.0</ele>
        <time>2022-06-19T07:03:45.473Z</time>
      </trkpt>
      <trkpt lat="43.23130833" lon="-6.85664">
        <ele>313.0</ele>
        <time>2022-06-19T07:03:46.475Z</time>
      </trkpt>
      <trkpt lat="43.23130833" lon="-6.85664">
        <ele>313.0</ele>
        <time>2022-06-19T07:03:47.441Z</time>
      </trkpt>
      <trkpt lat="43.23111167" lon="-6.856575">
        <ele>315.0</ele>
        <time>2022-06-19T07:03:48.448Z</time>
      </trkpt>
      <trkpt lat="43.23104333" lon="-6.85654333">
        <ele>316.0</ele>
        <time>2022-06-19T07:03:49.475Z</time>
      </trkpt>
      <trkpt lat="43.23104333" lon="-6.85654333">
        <ele>316.0</ele>
        <time>2022-06-19T07:03:50.465Z</time>
      </trkpt>
      <trkpt lat="43.23096833" lon="-6.85648333">
        <ele>317.0</ele>
        <time>2022-06-19T07:03:51.480Z</time>
      </trkpt>
      <trkpt lat="43.23096833" lon="-6.85648333">
        <ele>317.0</ele>
        <time>2022-06-19T07:03:52.459Z</time>
      </trkpt>
      <trkpt lat="43.23084333" lon="-6.85642">
        <ele>318.0</ele>
        <time>2022-06-19T07:03:53.462Z</time>
      </trkpt>
      <trkpt lat="43.23084333" lon="-6.85642">
        <ele>318.0</ele>
        <time>2022-06-19T07:03:54.478Z</time>
      </trkpt>
      <trkpt lat="43.23037333" lon="-6.85632833">
        <ele>323.0</ele>
        <time>2022-06-19T07:03:55.538Z</time>
      </trkpt>
      <trkpt lat="43.23037333" lon="-6.85632833">
        <ele>323.0</ele>
        <time>2022-06-19T07:03:56.466Z</time>
      </trkpt>
      <trkpt lat="43.23032833" lon="-6.85625833">
        <ele>325.0</ele>
        <time>2022-06-19T07:03:57.442Z</time>
      </trkpt>
      <trkpt lat="43.23033" lon="-6.85623">
        <ele>325.0</ele>
        <time>2022-06-19T07:03:58.468Z</time>
      </trkpt>
      <trkpt lat="43.23033" lon="-6.85623">
        <ele>325.0</ele>
        <time>2022-06-19T07:03:59.461Z</time>
      </trkpt>
      <trkpt lat="43.230325" lon="-6.85617">
        <ele>326.0</ele>
        <time>2022-06-19T07:04:00.480Z</time>
      </trkpt>
      <trkpt lat="43.230325" lon="-6.85617">
        <ele>326.0</ele>
        <time>2022-06-19T07:04:01.456Z</time>
      </trkpt>
      <trkpt lat="43.23032667" lon="-6.85611">
        <ele>327.0</ele>
        <time>2022-06-19T07:04:02.472Z</time>
      </trkpt>
      <trkpt lat="43.23032667" lon="-6.85611">
        <ele>327.0</ele>
        <time>2022-06-19T07:04:03.458Z</time>
      </trkpt>
      <trkpt lat="43.230345" lon="-6.856055">
        <ele>327.0</ele>
        <time>2022-06-19T07:04:04.466Z</time>
      </trkpt>
      <trkpt lat="43.230345" lon="-6.856055">
        <ele>327.0</ele>
        <time>2022-06-19T07:04:05.448Z</time>
      </trkpt>
      <trkpt lat="43.230355" lon="-6.85599833">
        <ele>328.0</ele>
        <time>2022-06-19T07:04:06.456Z</time>
      </trkpt>
      <trkpt lat="43.230355" lon="-6.85596667">
        <ele>328.0</ele>
        <time>2022-06-19T07:04:07.449Z</time>
      </trkpt>
      <trkpt lat="43.23036" lon="-6.85593833">
        <ele>329.0</ele>
        <time>2022-06-19T07:04:08.447Z</time>
      </trkpt>
      <trkpt lat="43.23036" lon="-6.85593833">
        <ele>329.0</ele>
        <time>2022-06-19T07:04:09.460Z</time>
      </trkpt>
      <trkpt lat="43.23036833" lon="-6.85588167">
        <ele>329.0</ele>
        <time>2022-06-19T07:04:10.447Z</time>
      </trkpt>
      <trkpt lat="43.23036833" lon="-6.85588167">
        <ele>329.0</ele>
        <time>2022-06-19T07:04:11.445Z</time>
      </trkpt>
      <trkpt lat="43.23038333" lon="-6.85582833">
        <ele>330.0</ele>
        <time>2022-06-19T07:04:12.448Z</time>
      </trkpt>
      <trkpt lat="43.23038333" lon="-6.85582833">
        <ele>330.0</ele>
        <time>2022-06-19T07:04:13.442Z</time>
      </trkpt>
      <trkpt lat="43.23039833" lon="-6.855775">
        <ele>331.0</ele>
        <time>2022-06-19T07:04:14.450Z</time>
      </trkpt>
      <trkpt lat="43.23039833" lon="-6.855775">
        <ele>331.0</ele>
        <time>2022-06-19T07:04:15.442Z</time>
      </trkpt>
      <trkpt lat="43.23041333" lon="-6.85572">
        <ele>331.0</ele>
        <time>2022-06-19T07:04:16.447Z</time>
      </trkpt>
      <trkpt lat="43.23041333" lon="-6.85572">
        <ele>331.0</ele>
        <time>2022-06-19T07:04:17.444Z</time>
      </trkpt>
      <trkpt lat="43.23041833" lon="-6.85566167">
        <ele>332.0</ele>
        <time>2022-06-19T07:04:18.457Z</time>
      </trkpt>
      <trkpt lat="43.23041833" lon="-6.85566167">
        <ele>332.0</ele>
        <time>2022-06-19T07:04:19.462Z</time>
      </trkpt>
      <trkpt lat="43.23042" lon="-6.85560333">
        <ele>333.0</ele>
        <time>2022-06-19T07:04:20.479Z</time>
      </trkpt>
      <trkpt lat="43.23042" lon="-6.85560333">
        <ele>333.0</ele>
        <time>2022-06-19T07:04:21.473Z</time>
      </trkpt>
      <trkpt lat="43.23043" lon="-6.85554667">
        <ele>334.0</ele>
        <time>2022-06-19T07:04:22.461Z</time>
      </trkpt>
      <trkpt lat="43.23043" lon="-6.85554667">
        <ele>334.0</ele>
        <time>2022-06-19T07:04:23.475Z</time>
      </trkpt>
      <trkpt lat="43.230445" lon="-6.85549167">
        <ele>334.0</ele>
        <time>2022-06-19T07:04:24.448Z</time>
      </trkpt>
      <trkpt lat="43.230445" lon="-6.85549167">
        <ele>334.0</ele>
        <time>2022-06-19T07:04:25.463Z</time>
      </trkpt>
      <trkpt lat="43.23045833" lon="-6.855435">
        <ele>335.0</ele>
        <time>2022-06-19T07:04:26.446Z</time>
      </trkpt>
      <trkpt lat="43.23045833" lon="-6.855435">
        <ele>335.0</ele>
        <time>2022-06-19T07:04:27.456Z</time>
      </trkpt>
      <trkpt lat="43.23047333" lon="-6.85538167">
        <ele>336.0</ele>
        <time>2022-06-19T07:04:28.479Z</time>
      </trkpt>
      <trkpt lat="43.230475" lon="-6.855355">
        <ele>336.0</ele>
        <time>2022-06-19T07:04:29.446Z</time>
      </trkpt>
      <trkpt lat="43.230475" lon="-6.855355">
        <ele>336.0</ele>
        <time>2022-06-19T07:04:30.465Z</time>
      </trkpt>
      <trkpt lat="43.23048" lon="-6.8553">
        <ele>337.0</ele>
        <time>2022-06-19T07:04:31.445Z</time>
      </trkpt>
      <trkpt lat="43.23048" lon="-6.8553">
        <ele>337.0</ele>
        <time>2022-06-19T07:04:32.478Z</time>
      </trkpt>
      <trkpt lat="43.23048667" lon="-6.85524167">
        <ele>338.0</ele>
        <time>2022-06-19T07:04:33.449Z</time>
      </trkpt>
      <trkpt lat="43.23048667" lon="-6.85524167">
        <ele>338.0</ele>
        <time>2022-06-19T07:04:34.474Z</time>
      </trkpt>
      <trkpt lat="43.23049" lon="-6.85518333">
        <ele>339.0</ele>
        <time>2022-06-19T07:04:35.450Z</time>
      </trkpt>
      <trkpt lat="43.23049333" lon="-6.855155">
        <ele>339.0</ele>
        <time>2022-06-19T07:04:36.444Z</time>
      </trkpt>
      <trkpt lat="43.23049333" lon="-6.855155">
        <ele>339.0</ele>
        <time>2022-06-19T07:04:37.467Z</time>
      </trkpt>
      <trkpt lat="43.23048833" lon="-6.85510167">
        <ele>340.0</ele>
        <time>2022-06-19T07:04:38.441Z</time>
      </trkpt>
      <trkpt lat="43.23048333" lon="-6.85508">
        <ele>340.0</ele>
        <time>2022-06-19T07:04:39.446Z</time>
      </trkpt>
      <trkpt lat="43.23048333" lon="-6.855055">
        <ele>341.0</ele>
        <time>2022-06-19T07:04:40.449Z</time>
      </trkpt>
      <trkpt lat="43.23048333" lon="-6.855055">
        <ele>341.0</ele>
        <time>2022-06-19T07:04:41.444Z</time>
      </trkpt>
      <trkpt lat="43.23048333" lon="-6.855">
        <ele>342.0</ele>
        <time>2022-06-19T07:04:42.456Z</time>
      </trkpt>
      <trkpt lat="43.23048333" lon="-6.855">
        <ele>342.0</ele>
        <time>2022-06-19T07:04:43.478Z</time>
      </trkpt>
      <trkpt lat="43.230475" lon="-6.85494333">
        <ele>343.0</ele>
        <time>2022-06-19T07:04:44.454Z</time>
      </trkpt>
      <trkpt lat="43.230475" lon="-6.85491833">
        <ele>343.0</ele>
        <time>2022-06-19T07:04:45.472Z</time>
      </trkpt>
      <trkpt lat="43.230475" lon="-6.85491833">
        <ele>343.0</ele>
        <time>2022-06-19T07:04:46.473Z</time>
      </trkpt>
      <trkpt lat="43.23045833" lon="-6.854865">
        <ele>344.0</ele>
        <time>2022-06-19T07:04:47.446Z</time>
      </trkpt>
      <trkpt lat="43.23045" lon="-6.85483833">
        <ele>345.0</ele>
        <time>2022-06-19T07:04:48.467Z</time>
      </trkpt>
      <trkpt lat="43.23045" lon="-6.85483833">
        <ele>345.0</ele>
        <time>2022-06-19T07:04:49.476Z</time>
      </trkpt>
      <trkpt lat="43.23045667" lon="-6.85478333">
        <ele>346.0</ele>
        <time>2022-06-19T07:04:50.450Z</time>
      </trkpt>
      <trkpt lat="43.23045667" lon="-6.85478333">
        <ele>346.0</ele>
        <time>2022-06-19T07:04:51.466Z</time>
      </trkpt>
      <trkpt lat="43.23045167" lon="-6.854725">
        <ele>347.0</ele>
        <time>2022-06-19T07:04:52.480Z</time>
      </trkpt>
      <trkpt lat="43.23045167" lon="-6.854725">
        <ele>347.0</ele>
        <time>2022-06-19T07:04:53.474Z</time>
      </trkpt>
      <trkpt lat="43.23044833" lon="-6.85466667">
        <ele>347.0</ele>
        <time>2022-06-19T07:04:54.447Z</time>
      </trkpt>
      <trkpt lat="43.23044833" lon="-6.85466667">
        <ele>347.0</ele>
        <time>2022-06-19T07:04:55.479Z</time>
      </trkpt>
      <trkpt lat="43.23043667" lon="-6.85460833">
        <ele>348.0</ele>
        <time>2022-06-19T07:04:56.446Z</time>
      </trkpt>
      <trkpt lat="43.23043667" lon="-6.85458167">
        <ele>349.0</ele>
        <time>2022-06-19T07:04:57.449Z</time>
      </trkpt>
      <trkpt lat="43.23043667" lon="-6.85458167">
        <ele>349.0</ele>
        <time>2022-06-19T07:04:58.441Z</time>
      </trkpt>
      <trkpt lat="43.23044333" lon="-6.85452333">
        <ele>349.0</ele>
        <time>2022-06-19T07:04:59.455Z</time>
      </trkpt>
      <trkpt lat="43.23044833" lon="-6.854495">
        <ele>350.0</ele>
        <time>2022-06-19T07:05:00.446Z</time>
      </trkpt>
      <trkpt lat="43.23044833" lon="-6.854495">
        <ele>350.0</ele>
        <time>2022-06-19T07:05:01.447Z</time>
      </trkpt>
      <trkpt lat="43.23044333" lon="-6.85443833">
        <ele>351.0</ele>
        <time>2022-06-19T07:05:02.466Z</time>
      </trkpt>
      <trkpt lat="43.23043667" lon="-6.85441">
        <ele>352.0</ele>
        <time>2022-06-19T07:05:03.461Z</time>
      </trkpt>
      <trkpt lat="43.23043667" lon="-6.85441">
        <ele>352.0</ele>
        <time>2022-06-19T07:05:04.460Z</time>
      </trkpt>
      <trkpt lat="43.23046833" lon="-6.85435">
        <ele>353.0</ele>
        <time>2022-06-19T07:05:05.470Z</time>
      </trkpt>
      <trkpt lat="43.23048" lon="-6.85432333">
        <ele>353.0</ele>
        <time>2022-06-19T07:05:06.469Z</time>
      </trkpt>
      <trkpt lat="43.23048" lon="-6.85432333">
        <ele>353.0</ele>
        <time>2022-06-19T07:05:07.461Z</time>
      </trkpt>
      <trkpt lat="43.2305" lon="-6.85426667">
        <ele>354.0</ele>
        <time>2022-06-19T07:05:08.474Z</time>
      </trkpt>
      <trkpt lat="43.2305" lon="-6.85423833">
        <ele>355.0</ele>
        <time>2022-06-19T07:05:09.472Z</time>
      </trkpt>
      <trkpt lat="43.2305" lon="-6.85423833">
        <ele>355.0</ele>
        <time>2022-06-19T07:05:10.450Z</time>
      </trkpt>
      <trkpt lat="43.230515" lon="-6.854185">
        <ele>356.0</ele>
        <time>2022-06-19T07:05:11.448Z</time>
      </trkpt>
      <trkpt lat="43.23050833" lon="-6.85415667">
        <ele>356.0</ele>
        <time>2022-06-19T07:05:12.483Z</time>
      </trkpt>
      <trkpt lat="43.23050833" lon="-6.85415667">
        <ele>356.0</ele>
        <time>2022-06-19T07:05:13.474Z</time>
      </trkpt>
      <trkpt lat="43.2305" lon="-6.85409833">
        <ele>357.0</ele>
        <time>2022-06-19T07:05:14.443Z</time>
      </trkpt>
      <trkpt lat="43.2305" lon="-6.85409833">
        <ele>357.0</ele>
        <time>2022-06-19T07:05:15.458Z</time>
      </trkpt>
      <trkpt lat="43.23050333" lon="-6.85404833">
        <ele>359.0</ele>
        <time>2022-06-19T07:05:16.479Z</time>
      </trkpt>
      <trkpt lat="43.230515" lon="-6.85402167">
        <ele>359.0</ele>
        <time>2022-06-19T07:05:17.472Z</time>
      </trkpt>
      <trkpt lat="43.230515" lon="-6.85402167">
        <ele>359.0</ele>
        <time>2022-06-19T07:05:18.458Z</time>
      </trkpt>
      <trkpt lat="43.23054167" lon="-6.85397167">
        <ele>361.0</ele>
        <time>2022-06-19T07:05:19.469Z</time>
      </trkpt>
      <trkpt lat="43.23054167" lon="-6.85397167">
        <ele>361.0</ele>
        <time>2022-06-19T07:05:20.474Z</time>
      </trkpt>
      <trkpt lat="43.23055833" lon="-6.85392167">
        <ele>362.0</ele>
        <time>2022-06-19T07:05:21.441Z</time>
      </trkpt>
      <trkpt lat="43.23055833" lon="-6.85392167">
        <ele>362.0</ele>
        <time>2022-06-19T07:05:22.469Z</time>
      </trkpt>
      <trkpt lat="43.23056833" lon="-6.85386833">
        <ele>363.0</ele>
        <time>2022-06-19T07:05:23.446Z</time>
      </trkpt>
      <trkpt lat="43.23056167" lon="-6.85384167">
        <ele>363.0</ele>
        <time>2022-06-19T07:05:24.483Z</time>
      </trkpt>
      <trkpt lat="43.23056167" lon="-6.85384167">
        <ele>363.0</ele>
        <time>2022-06-19T07:05:25.461Z</time>
      </trkpt>
      <trkpt lat="43.23056167" lon="-6.85377833">
        <ele>364.0</ele>
        <time>2022-06-19T07:05:26.472Z</time>
      </trkpt>
      <trkpt lat="43.23056" lon="-6.85374833">
        <ele>364.0</ele>
        <time>2022-06-19T07:05:27.467Z</time>
      </trkpt>
      <trkpt lat="43.23056" lon="-6.85374833">
        <ele>364.0</ele>
        <time>2022-06-19T07:05:28.455Z</time>
      </trkpt>
      <trkpt lat="43.23055833" lon="-6.85368333">
        <ele>365.0</ele>
        <time>2022-06-19T07:05:29.465Z</time>
      </trkpt>
      <trkpt lat="43.23055833" lon="-6.85368333">
        <ele>365.0</ele>
        <time>2022-06-19T07:05:30.459Z</time>
      </trkpt>
      <trkpt lat="43.23056333" lon="-6.853625">
        <ele>366.0</ele>
        <time>2022-06-19T07:05:31.470Z</time>
      </trkpt>
      <trkpt lat="43.23056333" lon="-6.853625">
        <ele>366.0</ele>
        <time>2022-06-19T07:05:32.455Z</time>
      </trkpt>
      <trkpt lat="43.23057333" lon="-6.85357">
        <ele>367.0</ele>
        <time>2022-06-19T07:05:33.471Z</time>
      </trkpt>
      <trkpt lat="43.23057333" lon="-6.85354333">
        <ele>367.0</ele>
        <time>2022-06-19T07:05:34.449Z</time>
      </trkpt>
      <trkpt lat="43.23057333" lon="-6.85354333">
        <ele>367.0</ele>
        <time>2022-06-19T07:05:35.464Z</time>
      </trkpt>
      <trkpt lat="43.230585" lon="-6.85349167">
        <ele>369.0</ele>
        <time>2022-06-19T07:05:36.480Z</time>
      </trkpt>
      <trkpt lat="43.230585" lon="-6.85349167">
        <ele>369.0</ele>
        <time>2022-06-19T07:05:37.464Z</time>
      </trkpt>
      <trkpt lat="43.23061167" lon="-6.85345">
        <ele>370.0</ele>
        <time>2022-06-19T07:05:38.473Z</time>
      </trkpt>
      <trkpt lat="43.23063" lon="-6.853425">
        <ele>370.0</ele>
        <time>2022-06-19T07:05:39.466Z</time>
      </trkpt>
      <trkpt lat="43.23064833" lon="-6.85339833">
        <ele>371.0</ele>
        <time>2022-06-19T07:05:40.471Z</time>
      </trkpt>
      <trkpt lat="43.23069167" lon="-6.85336">
        <ele>371.0</ele>
        <time>2022-06-19T07:05:41.478Z</time>
      </trkpt>
      <trkpt lat="43.23070833" lon="-6.85333167">
        <ele>371.0</ele>
        <time>2022-06-19T07:05:42.443Z</time>
      </trkpt>
      <trkpt lat="43.23070833" lon="-6.85333167">
        <ele>371.0</ele>
        <time>2022-06-19T07:05:43.443Z</time>
      </trkpt>
      <trkpt lat="43.230735" lon="-6.85327">
        <ele>371.0</ele>
        <time>2022-06-19T07:05:44.452Z</time>
      </trkpt>
      <trkpt lat="43.230745" lon="-6.853245">
        <ele>372.0</ele>
        <time>2022-06-19T07:05:45.470Z</time>
      </trkpt>
      <trkpt lat="43.230745" lon="-6.853245">
        <ele>372.0</ele>
        <time>2022-06-19T07:05:46.480Z</time>
      </trkpt>
      <trkpt lat="43.23078" lon="-6.85318833">
        <ele>372.0</ele>
        <time>2022-06-19T07:05:47.449Z</time>
      </trkpt>
      <trkpt lat="43.23080167" lon="-6.85315833">
        <ele>372.0</ele>
        <time>2022-06-19T07:05:48.453Z</time>
      </trkpt>
      <trkpt lat="43.23080167" lon="-6.85315833">
        <ele>372.0</ele>
        <time>2022-06-19T07:05:49.453Z</time>
      </trkpt>
      <trkpt lat="43.23083" lon="-6.85310667">
        <ele>372.0</ele>
        <time>2022-06-19T07:05:50.473Z</time>
      </trkpt>
      <trkpt lat="43.23083" lon="-6.85310667">
        <ele>372.0</ele>
        <time>2022-06-19T07:05:51.463Z</time>
      </trkpt>
      <trkpt lat="43.23085833" lon="-6.853055">
        <ele>372.0</ele>
        <time>2022-06-19T07:05:52.483Z</time>
      </trkpt>
      <trkpt lat="43.23085833" lon="-6.853055">
        <ele>372.0</ele>
        <time>2022-06-19T07:05:53.457Z</time>
      </trkpt>
      <trkpt lat="43.230885" lon="-6.85300667">
        <ele>372.0</ele>
        <time>2022-06-19T07:05:54.475Z</time>
      </trkpt>
      <trkpt lat="43.230885" lon="-6.85300667">
        <ele>372.0</ele>
        <time>2022-06-19T07:05:55.453Z</time>
      </trkpt>
      <trkpt lat="43.2309" lon="-6.85296">
        <ele>372.0</ele>
        <time>2022-06-19T07:05:56.461Z</time>
      </trkpt>
      <trkpt lat="43.23091333" lon="-6.85293667">
        <ele>373.0</ele>
        <time>2022-06-19T07:05:57.479Z</time>
      </trkpt>
      <trkpt lat="43.23091333" lon="-6.85293667">
        <ele>373.0</ele>
        <time>2022-06-19T07:05:58.467Z</time>
      </trkpt>
      <trkpt lat="43.23092333" lon="-6.85288667">
        <ele>373.0</ele>
        <time>2022-06-19T07:05:59.477Z</time>
      </trkpt>
      <trkpt lat="43.230935" lon="-6.85286167">
        <ele>373.0</ele>
        <time>2022-06-19T07:06:00.476Z</time>
      </trkpt>
      <trkpt lat="43.230935" lon="-6.85286167">
        <ele>373.0</ele>
        <time>2022-06-19T07:06:01.457Z</time>
      </trkpt>
      <trkpt lat="43.23092833" lon="-6.85280833">
        <ele>372.0</ele>
        <time>2022-06-19T07:06:02.477Z</time>
      </trkpt>
      <trkpt lat="43.23092667" lon="-6.85278">
        <ele>372.0</ele>
        <time>2022-06-19T07:06:03.464Z</time>
      </trkpt>
      <trkpt lat="43.23093167" lon="-6.85275">
        <ele>372.0</ele>
        <time>2022-06-19T07:06:04.447Z</time>
      </trkpt>
      <trkpt lat="43.23093167" lon="-6.85275">
        <ele>372.0</ele>
        <time>2022-06-19T07:06:05.464Z</time>
      </trkpt>
      <trkpt lat="43.23093167" lon="-6.85269333">
        <ele>372.0</ele>
        <time>2022-06-19T07:06:06.473Z</time>
      </trkpt>
      <trkpt lat="43.23093167" lon="-6.85269333">
        <ele>372.0</ele>
        <time>2022-06-19T07:06:07.462Z</time>
      </trkpt>
      <trkpt lat="43.23092" lon="-6.852635">
        <ele>372.0</ele>
        <time>2022-06-19T07:06:08.443Z</time>
      </trkpt>
      <trkpt lat="43.23091333" lon="-6.85260667">
        <ele>373.0</ele>
        <time>2022-06-19T07:06:09.476Z</time>
      </trkpt>
      <trkpt lat="43.23091333" lon="-6.85260667">
        <ele>373.0</ele>
        <time>2022-06-19T07:06:10.446Z</time>
      </trkpt>
      <trkpt lat="43.23090833" lon="-6.852555">
        <ele>373.0</ele>
        <time>2022-06-19T07:06:11.454Z</time>
      </trkpt>
      <trkpt lat="43.230905" lon="-6.85253">
        <ele>373.0</ele>
        <time>2022-06-19T07:06:12.443Z</time>
      </trkpt>
      <trkpt lat="43.230905" lon="-6.85253">
        <ele>373.0</ele>
        <time>2022-06-19T07:06:13.448Z</time>
      </trkpt>
      <trkpt lat="43.23089667" lon="-6.85246833">
        <ele>373.0</ele>
        <time>2022-06-19T07:06:14.463Z</time>
      </trkpt>
      <trkpt lat="43.23089667" lon="-6.85246833">
        <ele>373.0</ele>
        <time>2022-06-19T07:06:15.463Z</time>
      </trkpt>
      <trkpt lat="43.23088667" lon="-6.85241833">
        <ele>373.0</ele>
        <time>2022-06-19T07:06:16.476Z</time>
      </trkpt>
      <trkpt lat="43.23088667" lon="-6.85241833">
        <ele>373.0</ele>
        <time>2022-06-19T07:06:17.461Z</time>
      </trkpt>
      <trkpt lat="43.23088167" lon="-6.85236833">
        <ele>373.0</ele>
        <time>2022-06-19T07:06:18.473Z</time>
      </trkpt>
      <trkpt lat="43.23088167" lon="-6.85236833">
        <ele>373.0</ele>
        <time>2022-06-19T07:06:19.456Z</time>
      </trkpt>
      <trkpt lat="43.23086833" lon="-6.85232">
        <ele>373.0</ele>
        <time>2022-06-19T07:06:20.469Z</time>
      </trkpt>
      <trkpt lat="43.23086333" lon="-6.85229667">
        <ele>373.0</ele>
        <time>2022-06-19T07:06:21.458Z</time>
      </trkpt>
      <trkpt lat="43.23086333" lon="-6.85229667">
        <ele>373.0</ele>
        <time>2022-06-19T07:06:22.468Z</time>
      </trkpt>
      <trkpt lat="43.23085333" lon="-6.85225">
        <ele>374.0</ele>
        <time>2022-06-19T07:06:23.479Z</time>
      </trkpt>
      <trkpt lat="43.23084667" lon="-6.852225">
        <ele>374.0</ele>
        <time>2022-06-19T07:06:24.444Z</time>
      </trkpt>
      <trkpt lat="43.23084667" lon="-6.852225">
        <ele>374.0</ele>
        <time>2022-06-19T07:06:25.463Z</time>
      </trkpt>
      <trkpt lat="43.23082333" lon="-6.85217667">
        <ele>375.0</ele>
        <time>2022-06-19T07:06:26.458Z</time>
      </trkpt>
      <trkpt lat="43.230815" lon="-6.85215333">
        <ele>375.0</ele>
        <time>2022-06-19T07:06:27.469Z</time>
      </trkpt>
      <trkpt lat="43.230815" lon="-6.85215333">
        <ele>375.0</ele>
        <time>2022-06-19T07:06:28.448Z</time>
      </trkpt>
      <trkpt lat="43.230795" lon="-6.85210167">
        <ele>376.0</ele>
        <time>2022-06-19T07:06:29.513Z</time>
      </trkpt>
      <trkpt lat="43.230795" lon="-6.85210167">
        <ele>376.0</ele>
        <time>2022-06-19T07:06:30.460Z</time>
      </trkpt>
      <trkpt lat="43.23077833" lon="-6.85204833">
        <ele>376.0</ele>
        <time>2022-06-19T07:06:31.468Z</time>
      </trkpt>
      <trkpt lat="43.23077833" lon="-6.85204833">
        <ele>376.0</ele>
        <time>2022-06-19T07:06:32.475Z</time>
      </trkpt>
      <trkpt lat="43.23075333" lon="-6.85199333">
        <ele>375.0</ele>
        <time>2022-06-19T07:06:33.454Z</time>
      </trkpt>
      <trkpt lat="43.23075333" lon="-6.85199333">
        <ele>375.0</ele>
        <time>2022-06-19T07:06:34.475Z</time>
      </trkpt>
      <trkpt lat="43.23073667" lon="-6.85194833">
        <ele>375.0</ele>
        <time>2022-06-19T07:06:35.443Z</time>
      </trkpt>
      <trkpt lat="43.23072667" lon="-6.851925">
        <ele>375.0</ele>
        <time>2022-06-19T07:06:36.471Z</time>
      </trkpt>
      <trkpt lat="43.23072667" lon="-6.851925">
        <ele>375.0</ele>
        <time>2022-06-19T07:06:37.472Z</time>
      </trkpt>
      <trkpt lat="43.2307" lon="-6.85188333">
        <ele>374.0</ele>
        <time>2022-06-19T07:06:38.447Z</time>
      </trkpt>
      <trkpt lat="43.2307" lon="-6.85188333">
        <ele>374.0</ele>
        <time>2022-06-19T07:06:39.475Z</time>
      </trkpt>
      <trkpt lat="43.23066833" lon="-6.85184167">
        <ele>374.0</ele>
        <time>2022-06-19T07:06:40.458Z</time>
      </trkpt>
      <trkpt lat="43.23065167" lon="-6.851825">
        <ele>374.0</ele>
        <time>2022-06-19T07:06:41.476Z</time>
      </trkpt>
      <trkpt lat="43.23065167" lon="-6.851825">
        <ele>374.0</ele>
        <time>2022-06-19T07:06:42.478Z</time>
      </trkpt>
      <trkpt lat="43.230615" lon="-6.85179167">
        <ele>373.0</ele>
        <time>2022-06-19T07:06:43.456Z</time>
      </trkpt>
      <trkpt lat="43.23059833" lon="-6.85177">
        <ele>373.0</ele>
        <time>2022-06-19T07:06:44.443Z</time>
      </trkpt>
      <trkpt lat="43.23059833" lon="-6.85177">
        <ele>373.0</ele>
        <time>2022-06-19T07:06:45.474Z</time>
      </trkpt>
      <trkpt lat="43.23055" lon="-6.85174333">
        <ele>372.0</ele>
        <time>2022-06-19T07:06:46.470Z</time>
      </trkpt>
      <trkpt lat="43.23053" lon="-6.85173167">
        <ele>372.0</ele>
        <time>2022-06-19T07:06:47.449Z</time>
      </trkpt>
      <trkpt lat="43.23053" lon="-6.85173167">
        <ele>372.0</ele>
        <time>2022-06-19T07:06:48.477Z</time>
      </trkpt>
      <trkpt lat="43.230345" lon="-6.85169">
        <ele>364.0</ele>
        <time>2022-06-19T07:06:49.479Z</time>
      </trkpt>
      <trkpt lat="43.230345" lon="-6.85169">
        <ele>364.0</ele>
        <time>2022-06-19T07:06:50.450Z</time>
      </trkpt>
      <trkpt lat="43.23027667" lon="-6.85169">
        <ele>361.0</ele>
        <time>2022-06-19T07:06:51.482Z</time>
      </trkpt>
      <trkpt lat="43.23027667" lon="-6.85169">
        <ele>361.0</ele>
        <time>2022-06-19T07:06:52.465Z</time>
      </trkpt>
      <trkpt lat="43.23021667" lon="-6.85169667">
        <ele>359.0</ele>
        <time>2022-06-19T07:06:53.477Z</time>
      </trkpt>
      <trkpt lat="43.23019333" lon="-6.85170667">
        <ele>358.0</ele>
        <time>2022-06-19T07:06:54.471Z</time>
      </trkpt>
      <trkpt lat="43.23019333" lon="-6.85170667">
        <ele>358.0</ele>
        <time>2022-06-19T07:06:55.475Z</time>
      </trkpt>
      <trkpt lat="43.23014333" lon="-6.85171333">
        <ele>357.0</ele>
        <time>2022-06-19T07:06:56.451Z</time>
      </trkpt>
      <trkpt lat="43.23012167" lon="-6.85171667">
        <ele>356.0</ele>
        <time>2022-06-19T07:06:57.476Z</time>
      </trkpt>
      <trkpt lat="43.23012167" lon="-6.85171667">
        <ele>356.0</ele>
        <time>2022-06-19T07:06:58.462Z</time>
      </trkpt>
      <trkpt lat="43.23008167" lon="-6.85173">
        <ele>355.0</ele>
        <time>2022-06-19T07:06:59.472Z</time>
      </trkpt>
      <trkpt lat="43.23008167" lon="-6.85173">
        <ele>355.0</ele>
        <time>2022-06-19T07:07:00.463Z</time>
      </trkpt>
      <trkpt lat="43.23004" lon="-6.851745">
        <ele>354.0</ele>
        <time>2022-06-19T07:07:01.468Z</time>
      </trkpt>
      <trkpt lat="43.23004" lon="-6.851745">
        <ele>354.0</ele>
        <time>2022-06-19T07:07:02.449Z</time>
      </trkpt>
      <trkpt lat="43.23" lon="-6.85176667">
        <ele>354.0</ele>
        <time>2022-06-19T07:07:03.462Z</time>
      </trkpt>
      <trkpt lat="43.22998" lon="-6.85177333">
        <ele>354.0</ele>
        <time>2022-06-19T07:07:04.449Z</time>
      </trkpt>
      <trkpt lat="43.22998" lon="-6.85177333">
        <ele>354.0</ele>
        <time>2022-06-19T07:07:05.470Z</time>
      </trkpt>
      <trkpt lat="43.22994" lon="-6.85178333">
        <ele>353.0</ele>
        <time>2022-06-19T07:07:06.442Z</time>
      </trkpt>
      <trkpt lat="43.22994" lon="-6.85178333">
        <ele>353.0</ele>
        <time>2022-06-19T07:07:07.460Z</time>
      </trkpt>
      <trkpt lat="43.229905" lon="-6.851795">
        <ele>353.0</ele>
        <time>2022-06-19T07:07:08.479Z</time>
      </trkpt>
      <trkpt lat="43.22988667" lon="-6.8518">
        <ele>353.0</ele>
        <time>2022-06-19T07:07:09.447Z</time>
      </trkpt>
      <trkpt lat="43.22988667" lon="-6.8518">
        <ele>353.0</ele>
        <time>2022-06-19T07:07:10.468Z</time>
      </trkpt>
      <trkpt lat="43.229845" lon="-6.85180333">
        <ele>353.0</ele>
        <time>2022-06-19T07:07:11.443Z</time>
      </trkpt>
      <trkpt lat="43.22982667" lon="-6.85180333">
        <ele>353.0</ele>
        <time>2022-06-19T07:07:12.450Z</time>
      </trkpt>
      <trkpt lat="43.22982667" lon="-6.85180333">
        <ele>353.0</ele>
        <time>2022-06-19T07:07:13.447Z</time>
      </trkpt>
      <trkpt lat="43.22978833" lon="-6.85180333">
        <ele>353.0</ele>
        <time>2022-06-19T07:07:14.458Z</time>
      </trkpt>
      <trkpt lat="43.22978833" lon="-6.85180333">
        <ele>353.0</ele>
        <time>2022-06-19T07:07:15.444Z</time>
      </trkpt>
      <trkpt lat="43.22975167" lon="-6.85181167">
        <ele>354.0</ele>
        <time>2022-06-19T07:07:16.459Z</time>
      </trkpt>
      <trkpt lat="43.22975167" lon="-6.85181167">
        <ele>354.0</ele>
        <time>2022-06-19T07:07:17.477Z</time>
      </trkpt>
      <trkpt lat="43.22971" lon="-6.85181833">
        <ele>354.0</ele>
        <time>2022-06-19T07:07:18.447Z</time>
      </trkpt>
      <trkpt lat="43.22971" lon="-6.85181833">
        <ele>354.0</ele>
        <time>2022-06-19T07:07:19.451Z</time>
      </trkpt>
      <trkpt lat="43.22967" lon="-6.85183167">
        <ele>354.0</ele>
        <time>2022-06-19T07:07:20.467Z</time>
      </trkpt>
      <trkpt lat="43.22967" lon="-6.85183167">
        <ele>354.0</ele>
        <time>2022-06-19T07:07:21.458Z</time>
      </trkpt>
      <trkpt lat="43.22963" lon="-6.85184">
        <ele>354.0</ele>
        <time>2022-06-19T07:07:22.467Z</time>
      </trkpt>
      <trkpt lat="43.22963" lon="-6.85184">
        <ele>354.0</ele>
        <time>2022-06-19T07:07:23.480Z</time>
      </trkpt>
      <trkpt lat="43.22959667" lon="-6.85184667">
        <ele>354.0</ele>
        <time>2022-06-19T07:07:24.454Z</time>
      </trkpt>
      <trkpt lat="43.22959667" lon="-6.85184667">
        <ele>354.0</ele>
        <time>2022-06-19T07:07:25.475Z</time>
      </trkpt>
      <trkpt lat="43.22956833" lon="-6.85184833">
        <ele>354.0</ele>
        <time>2022-06-19T07:07:26.453Z</time>
      </trkpt>
      <trkpt lat="43.22954833" lon="-6.85185167">
        <ele>354.0</ele>
        <time>2022-06-19T07:07:27.445Z</time>
      </trkpt>
      <trkpt lat="43.22954833" lon="-6.85185167">
        <ele>354.0</ele>
        <time>2022-06-19T07:07:28.446Z</time>
      </trkpt>
      <trkpt lat="43.22950167" lon="-6.85186167">
        <ele>354.0</ele>
        <time>2022-06-19T07:07:29.463Z</time>
      </trkpt>
      <trkpt lat="43.22950167" lon="-6.85186167">
        <ele>354.0</ele>
        <time>2022-06-19T07:07:30.443Z</time>
      </trkpt>
      <trkpt lat="43.22945667" lon="-6.85187333">
        <ele>355.0</ele>
        <time>2022-06-19T07:07:31.457Z</time>
      </trkpt>
      <trkpt lat="43.22945667" lon="-6.85187333">
        <ele>355.0</ele>
        <time>2022-06-19T07:07:32.461Z</time>
      </trkpt>
      <trkpt lat="43.22942167" lon="-6.85187167">
        <ele>355.0</ele>
        <time>2022-06-19T07:07:33.474Z</time>
      </trkpt>
      <trkpt lat="43.22942167" lon="-6.85187167">
        <ele>355.0</ele>
        <time>2022-06-19T07:07:34.476Z</time>
      </trkpt>
      <trkpt lat="43.229385" lon="-6.85188167">
        <ele>355.0</ele>
        <time>2022-06-19T07:07:35.459Z</time>
      </trkpt>
      <trkpt lat="43.22936" lon="-6.85188333">
        <ele>355.0</ele>
        <time>2022-06-19T07:07:36.445Z</time>
      </trkpt>
      <trkpt lat="43.22936" lon="-6.85188333">
        <ele>355.0</ele>
        <time>2022-06-19T07:07:37.466Z</time>
      </trkpt>
      <trkpt lat="43.22930833" lon="-6.85188333">
        <ele>354.0</ele>
        <time>2022-06-19T07:07:38.453Z</time>
      </trkpt>
      <trkpt lat="43.22930833" lon="-6.85188333">
        <ele>354.0</ele>
        <time>2022-06-19T07:07:39.453Z</time>
      </trkpt>
      <trkpt lat="43.22925667" lon="-6.85188667">
        <ele>354.0</ele>
        <time>2022-06-19T07:07:40.465Z</time>
      </trkpt>
      <trkpt lat="43.22923333" lon="-6.85188667">
        <ele>353.0</ele>
        <time>2022-06-19T07:07:41.462Z</time>
      </trkpt>
      <trkpt lat="43.22923333" lon="-6.85188667">
        <ele>353.0</ele>
        <time>2022-06-19T07:07:42.461Z</time>
      </trkpt>
      <trkpt lat="43.22919833" lon="-6.851895">
        <ele>353.0</ele>
        <time>2022-06-19T07:07:43.441Z</time>
      </trkpt>
      <trkpt lat="43.22919833" lon="-6.851895">
        <ele>353.0</ele>
        <time>2022-06-19T07:07:44.454Z</time>
      </trkpt>
      <trkpt lat="43.22913667" lon="-6.85190333">
        <ele>353.0</ele>
        <time>2022-06-19T07:07:45.459Z</time>
      </trkpt>
      <trkpt lat="43.22909" lon="-6.85192167">
        <ele>353.0</ele>
        <time>2022-06-19T07:07:46.448Z</time>
      </trkpt>
      <trkpt lat="43.22909" lon="-6.85192167">
        <ele>353.0</ele>
        <time>2022-06-19T07:07:47.459Z</time>
      </trkpt>
      <trkpt lat="43.22902833" lon="-6.85193167">
        <ele>352.0</ele>
        <time>2022-06-19T07:07:48.476Z</time>
      </trkpt>
      <trkpt lat="43.22902833" lon="-6.85193167">
        <ele>352.0</ele>
        <time>2022-06-19T07:07:49.459Z</time>
      </trkpt>
      <trkpt lat="43.22897667" lon="-6.851935">
        <ele>352.0</ele>
        <time>2022-06-19T07:07:50.472Z</time>
      </trkpt>
      <trkpt lat="43.22897667" lon="-6.851935">
        <ele>352.0</ele>
        <time>2022-06-19T07:07:51.453Z</time>
      </trkpt>
      <trkpt lat="43.228925" lon="-6.85195167">
        <ele>352.0</ele>
        <time>2022-06-19T07:07:52.471Z</time>
      </trkpt>
      <trkpt lat="43.228925" lon="-6.85195167">
        <ele>352.0</ele>
        <time>2022-06-19T07:07:53.463Z</time>
      </trkpt>
      <trkpt lat="43.22887667" lon="-6.85197">
        <ele>352.0</ele>
        <time>2022-06-19T07:07:54.441Z</time>
      </trkpt>
      <trkpt lat="43.22887667" lon="-6.85197">
        <ele>352.0</ele>
        <time>2022-06-19T07:07:55.480Z</time>
      </trkpt>
      <trkpt lat="43.22884667" lon="-6.85199">
        <ele>352.0</ele>
        <time>2022-06-19T07:07:56.455Z</time>
      </trkpt>
      <trkpt lat="43.22882833" lon="-6.851995">
        <ele>352.0</ele>
        <time>2022-06-19T07:07:57.443Z</time>
      </trkpt>
      <trkpt lat="43.22882833" lon="-6.851995">
        <ele>352.0</ele>
        <time>2022-06-19T07:07:58.469Z</time>
      </trkpt>
      <trkpt lat="43.22878333" lon="-6.85200167">
        <ele>353.0</ele>
        <time>2022-06-19T07:07:59.443Z</time>
      </trkpt>
      <trkpt lat="43.22878333" lon="-6.85200167">
        <ele>353.0</ele>
        <time>2022-06-19T07:08:00.469Z</time>
      </trkpt>
      <trkpt lat="43.22873833" lon="-6.85201167">
        <ele>353.0</ele>
        <time>2022-06-19T07:08:01.444Z</time>
      </trkpt>
      <trkpt lat="43.22871333" lon="-6.852015">
        <ele>353.0</ele>
        <time>2022-06-19T07:08:02.451Z</time>
      </trkpt>
      <trkpt lat="43.228685" lon="-6.85201833">
        <ele>353.0</ele>
        <time>2022-06-19T07:08:03.445Z</time>
      </trkpt>
      <trkpt lat="43.228685" lon="-6.85201833">
        <ele>353.0</ele>
        <time>2022-06-19T07:08:04.455Z</time>
      </trkpt>
      <trkpt lat="43.22863167" lon="-6.85202667">
        <ele>353.0</ele>
        <time>2022-06-19T07:08:05.476Z</time>
      </trkpt>
      <trkpt lat="43.228605" lon="-6.85203">
        <ele>353.0</ele>
        <time>2022-06-19T07:08:06.453Z</time>
      </trkpt>
      <trkpt lat="43.228605" lon="-6.85203">
        <ele>353.0</ele>
        <time>2022-06-19T07:08:07.477Z</time>
      </trkpt>
      <trkpt lat="43.22855667" lon="-6.85204833">
        <ele>353.0</ele>
        <time>2022-06-19T07:08:08.453Z</time>
      </trkpt>
      <trkpt lat="43.22855667" lon="-6.85204833">
        <ele>353.0</ele>
        <time>2022-06-19T07:08:09.465Z</time>
      </trkpt>
      <trkpt lat="43.22851" lon="-6.85206167">
        <ele>353.0</ele>
        <time>2022-06-19T07:08:10.479Z</time>
      </trkpt>
      <trkpt lat="43.22851" lon="-6.85206167">
        <ele>353.0</ele>
        <time>2022-06-19T07:08:11.447Z</time>
      </trkpt>
      <trkpt lat="43.228465" lon="-6.85208167">
        <ele>353.0</ele>
        <time>2022-06-19T07:08:12.460Z</time>
      </trkpt>
      <trkpt lat="43.228465" lon="-6.85208167">
        <ele>353.0</ele>
        <time>2022-06-19T07:08:13.447Z</time>
      </trkpt>
      <trkpt lat="43.22842333" lon="-6.852105">
        <ele>353.0</ele>
        <time>2022-06-19T07:08:14.459Z</time>
      </trkpt>
      <trkpt lat="43.22842333" lon="-6.852105">
        <ele>353.0</ele>
        <time>2022-06-19T07:08:15.478Z</time>
      </trkpt>
      <trkpt lat="43.22837" lon="-6.85212333">
        <ele>352.0</ele>
        <time>2022-06-19T07:08:16.448Z</time>
      </trkpt>
      <trkpt lat="43.22837" lon="-6.85212333">
        <ele>352.0</ele>
        <time>2022-06-19T07:08:17.451Z</time>
      </trkpt>
      <trkpt lat="43.22831333" lon="-6.85215667">
        <ele>352.0</ele>
        <time>2022-06-19T07:08:18.461Z</time>
      </trkpt>
      <trkpt lat="43.22831333" lon="-6.85215667">
        <ele>352.0</ele>
        <time>2022-06-19T07:08:19.450Z</time>
      </trkpt>
      <trkpt lat="43.22826833" lon="-6.85217333">
        <ele>352.0</ele>
        <time>2022-06-19T07:08:20.459Z</time>
      </trkpt>
      <trkpt lat="43.22826833" lon="-6.85217333">
        <ele>352.0</ele>
        <time>2022-06-19T07:08:21.478Z</time>
      </trkpt>
      <trkpt lat="43.228215" lon="-6.85219">
        <ele>353.0</ele>
        <time>2022-06-19T07:08:22.451Z</time>
      </trkpt>
      <trkpt lat="43.22819" lon="-6.852195">
        <ele>353.0</ele>
        <time>2022-06-19T07:08:23.448Z</time>
      </trkpt>
      <trkpt lat="43.22816333" lon="-6.85220167">
        <ele>353.0</ele>
        <time>2022-06-19T07:08:24.475Z</time>
      </trkpt>
      <trkpt lat="43.22816333" lon="-6.85220167">
        <ele>353.0</ele>
        <time>2022-06-19T07:08:25.451Z</time>
      </trkpt>
      <trkpt lat="43.22811167" lon="-6.85222">
        <ele>354.0</ele>
        <time>2022-06-19T07:08:26.473Z</time>
      </trkpt>
      <trkpt lat="43.22811167" lon="-6.85222">
        <ele>354.0</ele>
        <time>2022-06-19T07:08:27.442Z</time>
      </trkpt>
      <trkpt lat="43.228065" lon="-6.852235">
        <ele>355.0</ele>
        <time>2022-06-19T07:08:28.471Z</time>
      </trkpt>
      <trkpt lat="43.228065" lon="-6.852235">
        <ele>355.0</ele>
        <time>2022-06-19T07:08:29.448Z</time>
      </trkpt>
      <trkpt lat="43.22801167" lon="-6.852245">
        <ele>355.0</ele>
        <time>2022-06-19T07:08:30.476Z</time>
      </trkpt>
      <trkpt lat="43.22801167" lon="-6.852245">
        <ele>355.0</ele>
        <time>2022-06-19T07:08:31.455Z</time>
      </trkpt>
      <trkpt lat="43.22796167" lon="-6.85225333">
        <ele>356.0</ele>
        <time>2022-06-19T07:08:32.463Z</time>
      </trkpt>
      <trkpt lat="43.22796167" lon="-6.85225333">
        <ele>356.0</ele>
        <time>2022-06-19T07:08:33.481Z</time>
      </trkpt>
      <trkpt lat="43.227915" lon="-6.85226167">
        <ele>357.0</ele>
        <time>2022-06-19T07:08:34.478Z</time>
      </trkpt>
      <trkpt lat="43.227915" lon="-6.85226167">
        <ele>357.0</ele>
        <time>2022-06-19T07:08:35.475Z</time>
      </trkpt>
      <trkpt lat="43.22787" lon="-6.85227333">
        <ele>358.0</ele>
        <time>2022-06-19T07:08:36.445Z</time>
      </trkpt>
      <trkpt lat="43.22787" lon="-6.85227333">
        <ele>358.0</ele>
        <time>2022-06-19T07:08:37.462Z</time>
      </trkpt>
      <trkpt lat="43.22782833" lon="-6.852285">
        <ele>358.0</ele>
        <time>2022-06-19T07:08:38.465Z</time>
      </trkpt>
      <trkpt lat="43.22782833" lon="-6.852285">
        <ele>358.0</ele>
        <time>2022-06-19T07:08:39.452Z</time>
      </trkpt>
      <trkpt lat="43.227785" lon="-6.85229833">
        <ele>359.0</ele>
        <time>2022-06-19T07:08:40.443Z</time>
      </trkpt>
      <trkpt lat="43.227785" lon="-6.85229833">
        <ele>359.0</ele>
        <time>2022-06-19T07:08:41.462Z</time>
      </trkpt>
      <trkpt lat="43.22774667" lon="-6.85230833">
        <ele>359.0</ele>
        <time>2022-06-19T07:08:42.442Z</time>
      </trkpt>
      <trkpt lat="43.22774667" lon="-6.85230833">
        <ele>359.0</ele>
        <time>2022-06-19T07:08:43.462Z</time>
      </trkpt>
      <trkpt lat="43.22771" lon="-6.852325">
        <ele>359.0</ele>
        <time>2022-06-19T07:08:44.457Z</time>
      </trkpt>
      <trkpt lat="43.22771" lon="-6.852325">
        <ele>359.0</ele>
        <time>2022-06-19T07:08:45.478Z</time>
      </trkpt>
      <trkpt lat="43.22766167" lon="-6.85234">
        <ele>359.0</ele>
        <time>2022-06-19T07:08:46.479Z</time>
      </trkpt>
      <trkpt lat="43.22764167" lon="-6.852345">
        <ele>359.0</ele>
        <time>2022-06-19T07:08:47.454Z</time>
      </trkpt>
      <trkpt lat="43.22762" lon="-6.85236667">
        <ele>359.0</ele>
        <time>2022-06-19T07:08:48.454Z</time>
      </trkpt>
      <trkpt lat="43.22762" lon="-6.85236667">
        <ele>359.0</ele>
        <time>2022-06-19T07:08:49.472Z</time>
      </trkpt>
      <trkpt lat="43.227575" lon="-6.85239333">
        <ele>359.0</ele>
        <time>2022-06-19T07:08:50.443Z</time>
      </trkpt>
      <trkpt lat="43.227575" lon="-6.85239333">
        <ele>359.0</ele>
        <time>2022-06-19T07:08:51.474Z</time>
      </trkpt>
      <trkpt lat="43.227525" lon="-6.8524">
        <ele>359.0</ele>
        <time>2022-06-19T07:08:52.464Z</time>
      </trkpt>
      <trkpt lat="43.227525" lon="-6.8524">
        <ele>359.0</ele>
        <time>2022-06-19T07:08:53.442Z</time>
      </trkpt>
      <trkpt lat="43.22748667" lon="-6.85241167">
        <ele>358.0</ele>
        <time>2022-06-19T07:08:54.461Z</time>
      </trkpt>
      <trkpt lat="43.22748667" lon="-6.85241167">
        <ele>358.0</ele>
        <time>2022-06-19T07:08:55.459Z</time>
      </trkpt>
      <trkpt lat="43.22744" lon="-6.852415">
        <ele>358.0</ele>
        <time>2022-06-19T07:08:56.466Z</time>
      </trkpt>
      <trkpt lat="43.22741667" lon="-6.85242">
        <ele>358.0</ele>
        <time>2022-06-19T07:08:57.473Z</time>
      </trkpt>
      <trkpt lat="43.22741667" lon="-6.85242">
        <ele>358.0</ele>
        <time>2022-06-19T07:08:58.470Z</time>
      </trkpt>
      <trkpt lat="43.227375" lon="-6.85242667">
        <ele>358.0</ele>
        <time>2022-06-19T07:08:59.477Z</time>
      </trkpt>
      <trkpt lat="43.22735333" lon="-6.85242833">
        <ele>358.0</ele>
        <time>2022-06-19T07:09:00.449Z</time>
      </trkpt>
      <trkpt lat="43.22735333" lon="-6.85242833">
        <ele>358.0</ele>
        <time>2022-06-19T07:09:01.451Z</time>
      </trkpt>
      <trkpt lat="43.22735333" lon="-6.85242833">
        <ele>358.0</ele>
        <time>2022-06-19T07:09:02.514Z</time>
      </trkpt>
      <trkpt lat="43.22728" lon="-6.85244667">
        <ele>358.0</ele>
        <time>2022-06-19T07:09:03.462Z</time>
      </trkpt>
      <trkpt lat="43.22728" lon="-6.85244667">
        <ele>358.0</ele>
        <time>2022-06-19T07:09:04.459Z</time>
      </trkpt>
      <trkpt lat="43.227235" lon="-6.85245167">
        <ele>358.0</ele>
        <time>2022-06-19T07:09:05.473Z</time>
      </trkpt>
      <trkpt lat="43.22721" lon="-6.852455">
        <ele>358.0</ele>
        <time>2022-06-19T07:09:06.472Z</time>
      </trkpt>
      <trkpt lat="43.22721" lon="-6.852455">
        <ele>358.0</ele>
        <time>2022-06-19T07:09:07.460Z</time>
      </trkpt>
      <trkpt lat="43.22716" lon="-6.85245333">
        <ele>358.0</ele>
        <time>2022-06-19T07:09:08.478Z</time>
      </trkpt>
      <trkpt lat="43.22714" lon="-6.852455">
        <ele>358.0</ele>
        <time>2022-06-19T07:09:09.484Z</time>
      </trkpt>
      <trkpt lat="43.22714" lon="-6.852455">
        <ele>358.0</ele>
        <time>2022-06-19T07:09:10.451Z</time>
      </trkpt>
      <trkpt lat="43.22708833" lon="-6.85244833">
        <ele>359.0</ele>
        <time>2022-06-19T07:09:11.460Z</time>
      </trkpt>
      <trkpt lat="43.22705833" lon="-6.85243833">
        <ele>359.0</ele>
        <time>2022-06-19T07:09:12.445Z</time>
      </trkpt>
      <trkpt lat="43.22702667" lon="-6.85243667">
        <ele>359.0</ele>
        <time>2022-06-19T07:09:13.469Z</time>
      </trkpt>
      <trkpt lat="43.22702667" lon="-6.85243667">
        <ele>359.0</ele>
        <time>2022-06-19T07:09:14.463Z</time>
      </trkpt>
      <trkpt lat="43.22696333" lon="-6.85242833">
        <ele>359.0</ele>
        <time>2022-06-19T07:09:15.448Z</time>
      </trkpt>
      <trkpt lat="43.226935" lon="-6.85242">
        <ele>359.0</ele>
        <time>2022-06-19T07:09:16.446Z</time>
      </trkpt>
      <trkpt lat="43.226935" lon="-6.85242">
        <ele>359.0</ele>
        <time>2022-06-19T07:09:17.459Z</time>
      </trkpt>
      <trkpt lat="43.22687833" lon="-6.852415">
        <ele>359.0</ele>
        <time>2022-06-19T07:09:18.470Z</time>
      </trkpt>
      <trkpt lat="43.22687833" lon="-6.852415">
        <ele>359.0</ele>
        <time>2022-06-19T07:09:19.476Z</time>
      </trkpt>
      <trkpt lat="43.22680667" lon="-6.85241833">
        <ele>359.0</ele>
        <time>2022-06-19T07:09:20.446Z</time>
      </trkpt>
      <trkpt lat="43.22677667" lon="-6.85241833">
        <ele>359.0</ele>
        <time>2022-06-19T07:09:21.469Z</time>
      </trkpt>
      <trkpt lat="43.22677667" lon="-6.85241833">
        <ele>359.0</ele>
        <time>2022-06-19T07:09:22.448Z</time>
      </trkpt>
      <trkpt lat="43.22672167" lon="-6.85242167">
        <ele>358.0</ele>
        <time>2022-06-19T07:09:23.463Z</time>
      </trkpt>
      <trkpt lat="43.226695" lon="-6.85242167">
        <ele>358.0</ele>
        <time>2022-06-19T07:09:24.469Z</time>
      </trkpt>
      <trkpt lat="43.226695" lon="-6.85242167">
        <ele>358.0</ele>
        <time>2022-06-19T07:09:25.475Z</time>
      </trkpt>
      <trkpt lat="43.22664" lon="-6.85242667">
        <ele>359.0</ele>
        <time>2022-06-19T07:09:26.450Z</time>
      </trkpt>
      <trkpt lat="43.22664" lon="-6.85242667">
        <ele>359.0</ele>
        <time>2022-06-19T07:09:27.476Z</time>
      </trkpt>
      <trkpt lat="43.226585" lon="-6.85243167">
        <ele>359.0</ele>
        <time>2022-06-19T07:09:28.452Z</time>
      </trkpt>
      <trkpt lat="43.22656167" lon="-6.852445">
        <ele>359.0</ele>
        <time>2022-06-19T07:09:29.448Z</time>
      </trkpt>
      <trkpt lat="43.22656167" lon="-6.852445">
        <ele>359.0</ele>
        <time>2022-06-19T07:09:30.446Z</time>
      </trkpt>
      <trkpt lat="43.226505" lon="-6.85243167">
        <ele>359.0</ele>
        <time>2022-06-19T07:09:31.457Z</time>
      </trkpt>
      <trkpt lat="43.226505" lon="-6.85243167">
        <ele>359.0</ele>
        <time>2022-06-19T07:09:32.443Z</time>
      </trkpt>
      <trkpt lat="43.22644333" lon="-6.852435">
        <ele>359.0</ele>
        <time>2022-06-19T07:09:33.458Z</time>
      </trkpt>
      <trkpt lat="43.22641167" lon="-6.85242333">
        <ele>360.0</ele>
        <time>2022-06-19T07:09:34.443Z</time>
      </trkpt>
      <trkpt lat="43.22641167" lon="-6.85242333">
        <ele>360.0</ele>
        <time>2022-06-19T07:09:35.444Z</time>
      </trkpt>
      <trkpt lat="43.22635833" lon="-6.85242">
        <ele>360.0</ele>
        <time>2022-06-19T07:09:36.466Z</time>
      </trkpt>
      <trkpt lat="43.22635833" lon="-6.85242">
        <ele>360.0</ele>
        <time>2022-06-19T07:09:37.458Z</time>
      </trkpt>
      <trkpt lat="43.22631167" lon="-6.85241">
        <ele>360.0</ele>
        <time>2022-06-19T07:09:38.480Z</time>
      </trkpt>
      <trkpt lat="43.22631167" lon="-6.85241">
        <ele>360.0</ele>
        <time>2022-06-19T07:09:39.460Z</time>
      </trkpt>
      <trkpt lat="43.22626833" lon="-6.85241667">
        <ele>361.0</ele>
        <time>2022-06-19T07:09:40.475Z</time>
      </trkpt>
      <trkpt lat="43.22624833" lon="-6.85241833">
        <ele>361.0</ele>
        <time>2022-06-19T07:09:41.448Z</time>
      </trkpt>
      <trkpt lat="43.226225" lon="-6.85242">
        <ele>361.0</ele>
        <time>2022-06-19T07:09:42.447Z</time>
      </trkpt>
      <trkpt lat="43.226225" lon="-6.85242">
        <ele>361.0</ele>
        <time>2022-06-19T07:09:43.461Z</time>
      </trkpt>
      <trkpt lat="43.22618" lon="-6.85242">
        <ele>362.0</ele>
        <time>2022-06-19T07:09:44.480Z</time>
      </trkpt>
      <trkpt lat="43.22615667" lon="-6.85242">
        <ele>362.0</ele>
        <time>2022-06-19T07:09:45.446Z</time>
      </trkpt>
      <trkpt lat="43.22615667" lon="-6.85242">
        <ele>362.0</ele>
        <time>2022-06-19T07:09:46.464Z</time>
      </trkpt>
      <trkpt lat="43.22610667" lon="-6.85243333">
        <ele>362.0</ele>
        <time>2022-06-19T07:09:47.479Z</time>
      </trkpt>
      <trkpt lat="43.226085" lon="-6.85243833">
        <ele>362.0</ele>
        <time>2022-06-19T07:09:48.444Z</time>
      </trkpt>
      <trkpt lat="43.226085" lon="-6.85243833">
        <ele>362.0</ele>
        <time>2022-06-19T07:09:49.447Z</time>
      </trkpt>
      <trkpt lat="43.22604" lon="-6.85244667">
        <ele>363.0</ele>
        <time>2022-06-19T07:09:50.461Z</time>
      </trkpt>
      <trkpt lat="43.226015" lon="-6.85245333">
        <ele>363.0</ele>
        <time>2022-06-19T07:09:51.449Z</time>
      </trkpt>
      <trkpt lat="43.22599" lon="-6.852465">
        <ele>363.0</ele>
        <time>2022-06-19T07:09:52.458Z</time>
      </trkpt>
      <trkpt lat="43.225965" lon="-6.85247167">
        <ele>363.0</ele>
        <time>2022-06-19T07:09:53.452Z</time>
      </trkpt>
      <trkpt lat="43.225965" lon="-6.85247167">
        <ele>363.0</ele>
        <time>2022-06-19T07:09:54.468Z</time>
      </trkpt>
      <trkpt lat="43.22591833" lon="-6.85247833">
        <ele>363.0</ele>
        <time>2022-06-19T07:09:55.462Z</time>
      </trkpt>
      <trkpt lat="43.22591833" lon="-6.85247833">
        <ele>363.0</ele>
        <time>2022-06-19T07:09:56.459Z</time>
      </trkpt>
      <trkpt lat="43.225875" lon="-6.85248333">
        <ele>363.0</ele>
        <time>2022-06-19T07:09:57.476Z</time>
      </trkpt>
      <trkpt lat="43.225875" lon="-6.85248333">
        <ele>363.0</ele>
        <time>2022-06-19T07:09:58.477Z</time>
      </trkpt>
      <trkpt lat="43.22583833" lon="-6.85249833">
        <ele>363.0</ele>
        <time>2022-06-19T07:09:59.451Z</time>
      </trkpt>
      <trkpt lat="43.22583833" lon="-6.85249833">
        <ele>363.0</ele>
        <time>2022-06-19T07:10:00.474Z</time>
      </trkpt>
      <trkpt lat="43.22579333" lon="-6.85250167">
        <ele>363.0</ele>
        <time>2022-06-19T07:10:01.444Z</time>
      </trkpt>
      <trkpt lat="43.22579333" lon="-6.85250167">
        <ele>363.0</ele>
        <time>2022-06-19T07:10:02.449Z</time>
      </trkpt>
      <trkpt lat="43.225755" lon="-6.85251167">
        <ele>363.0</ele>
        <time>2022-06-19T07:10:03.468Z</time>
      </trkpt>
      <trkpt lat="43.225755" lon="-6.85251167">
        <ele>363.0</ele>
        <time>2022-06-19T07:10:04.462Z</time>
      </trkpt>
      <trkpt lat="43.22572" lon="-6.852515">
        <ele>364.0</ele>
        <time>2022-06-19T07:10:05.470Z</time>
      </trkpt>
      <trkpt lat="43.22572" lon="-6.852515">
        <ele>364.0</ele>
        <time>2022-06-19T07:10:06.478Z</time>
      </trkpt>
      <trkpt lat="43.22568" lon="-6.85252167">
        <ele>364.0</ele>
        <time>2022-06-19T07:10:07.448Z</time>
      </trkpt>
      <trkpt lat="43.22568" lon="-6.85252167">
        <ele>364.0</ele>
        <time>2022-06-19T07:10:08.448Z</time>
      </trkpt>
      <trkpt lat="43.22563833" lon="-6.85253">
        <ele>364.0</ele>
        <time>2022-06-19T07:10:09.469Z</time>
      </trkpt>
      <trkpt lat="43.22563833" lon="-6.85253">
        <ele>364.0</ele>
        <time>2022-06-19T07:10:10.455Z</time>
      </trkpt>
      <trkpt lat="43.2256" lon="-6.85253667">
        <ele>364.0</ele>
        <time>2022-06-19T07:10:11.578Z</time>
      </trkpt>
      <trkpt lat="43.2256" lon="-6.85253667">
        <ele>364.0</ele>
        <time>2022-06-19T07:10:12.489Z</time>
      </trkpt>
      <trkpt lat="43.22557" lon="-6.85254833">
        <ele>364.0</ele>
        <time>2022-06-19T07:10:13.466Z</time>
      </trkpt>
      <trkpt lat="43.22557" lon="-6.85254833">
        <ele>364.0</ele>
        <time>2022-06-19T07:10:14.464Z</time>
      </trkpt>
      <trkpt lat="43.22552667" lon="-6.85256">
        <ele>364.0</ele>
        <time>2022-06-19T07:10:15.475Z</time>
      </trkpt>
      <trkpt lat="43.22552667" lon="-6.85256">
        <ele>364.0</ele>
        <time>2022-06-19T07:10:16.462Z</time>
      </trkpt>
      <trkpt lat="43.225475" lon="-6.85257">
        <ele>364.0</ele>
        <time>2022-06-19T07:10:17.472Z</time>
      </trkpt>
      <trkpt lat="43.225475" lon="-6.85257">
        <ele>364.0</ele>
        <time>2022-06-19T07:10:18.465Z</time>
      </trkpt>
      <trkpt lat="43.22542167" lon="-6.85258">
        <ele>364.0</ele>
        <time>2022-06-19T07:10:19.479Z</time>
      </trkpt>
      <trkpt lat="43.22542167" lon="-6.85258">
        <ele>364.0</ele>
        <time>2022-06-19T07:10:20.478Z</time>
      </trkpt>
      <trkpt lat="43.22536" lon="-6.85261">
        <ele>365.0</ele>
        <time>2022-06-19T07:10:21.452Z</time>
      </trkpt>
      <trkpt lat="43.22536" lon="-6.85261">
        <ele>365.0</ele>
        <time>2022-06-19T07:10:22.465Z</time>
      </trkpt>
      <trkpt lat="43.22530333" lon="-6.852635">
        <ele>366.0</ele>
        <time>2022-06-19T07:10:23.474Z</time>
      </trkpt>
      <trkpt lat="43.22528" lon="-6.852645">
        <ele>366.0</ele>
        <time>2022-06-19T07:10:24.458Z</time>
      </trkpt>
      <trkpt lat="43.22528" lon="-6.852645">
        <ele>366.0</ele>
        <time>2022-06-19T07:10:25.441Z</time>
      </trkpt>
      <trkpt lat="43.22523833" lon="-6.852655">
        <ele>367.0</ele>
        <time>2022-06-19T07:10:26.452Z</time>
      </trkpt>
      <trkpt lat="43.22521667" lon="-6.852665">
        <ele>368.0</ele>
        <time>2022-06-19T07:10:27.456Z</time>
      </trkpt>
      <trkpt lat="43.22521667" lon="-6.852665">
        <ele>368.0</ele>
        <time>2022-06-19T07:10:28.472Z</time>
      </trkpt>
      <trkpt lat="43.22518333" lon="-6.85268167">
        <ele>369.0</ele>
        <time>2022-06-19T07:10:29.449Z</time>
      </trkpt>
      <trkpt lat="43.22518333" lon="-6.85268167">
        <ele>369.0</ele>
        <time>2022-06-19T07:10:30.473Z</time>
      </trkpt>
      <trkpt lat="43.225145" lon="-6.85271833">
        <ele>370.0</ele>
        <time>2022-06-19T07:10:31.445Z</time>
      </trkpt>
      <trkpt lat="43.225145" lon="-6.85271833">
        <ele>370.0</ele>
        <time>2022-06-19T07:10:32.479Z</time>
      </trkpt>
      <trkpt lat="43.22510667" lon="-6.85275167">
        <ele>371.0</ele>
        <time>2022-06-19T07:10:33.458Z</time>
      </trkpt>
      <trkpt lat="43.22510667" lon="-6.85275167">
        <ele>371.0</ele>
        <time>2022-06-19T07:10:34.477Z</time>
      </trkpt>
      <trkpt lat="43.22507333" lon="-6.85279167">
        <ele>371.0</ele>
        <time>2022-06-19T07:10:35.455Z</time>
      </trkpt>
      <trkpt lat="43.22507333" lon="-6.85279167">
        <ele>371.0</ele>
        <time>2022-06-19T07:10:36.448Z</time>
      </trkpt>
      <trkpt lat="43.22504333" lon="-6.85283167">
        <ele>373.0</ele>
        <time>2022-06-19T07:10:37.457Z</time>
      </trkpt>
      <trkpt lat="43.22504333" lon="-6.85283167">
        <ele>373.0</ele>
        <time>2022-06-19T07:10:38.461Z</time>
      </trkpt>
      <trkpt lat="43.225015" lon="-6.85287333">
        <ele>373.0</ele>
        <time>2022-06-19T07:10:39.471Z</time>
      </trkpt>
      <trkpt lat="43.225015" lon="-6.85287333">
        <ele>373.0</ele>
        <time>2022-06-19T07:10:40.443Z</time>
      </trkpt>
      <trkpt lat="43.224985" lon="-6.85291667">
        <ele>374.0</ele>
        <time>2022-06-19T07:10:41.454Z</time>
      </trkpt>
      <trkpt lat="43.22497" lon="-6.85293833">
        <ele>374.0</ele>
        <time>2022-06-19T07:10:42.476Z</time>
      </trkpt>
      <trkpt lat="43.22497" lon="-6.85293833">
        <ele>374.0</ele>
        <time>2022-06-19T07:10:43.480Z</time>
      </trkpt>
      <trkpt lat="43.22494333" lon="-6.85298667">
        <ele>374.0</ele>
        <time>2022-06-19T07:10:44.450Z</time>
      </trkpt>
      <trkpt lat="43.22493" lon="-6.85301">
        <ele>375.0</ele>
        <time>2022-06-19T07:10:45.467Z</time>
      </trkpt>
      <trkpt lat="43.22493" lon="-6.85301">
        <ele>375.0</ele>
        <time>2022-06-19T07:10:46.456Z</time>
      </trkpt>
      <trkpt lat="43.22489833" lon="-6.85305833">
        <ele>375.0</ele>
        <time>2022-06-19T07:10:47.443Z</time>
      </trkpt>
      <trkpt lat="43.22488167" lon="-6.85308">
        <ele>375.0</ele>
        <time>2022-06-19T07:10:48.449Z</time>
      </trkpt>
      <trkpt lat="43.22488167" lon="-6.85308">
        <ele>375.0</ele>
        <time>2022-06-19T07:10:49.463Z</time>
      </trkpt>
      <trkpt lat="43.22485167" lon="-6.85312333">
        <ele>375.0</ele>
        <time>2022-06-19T07:10:50.469Z</time>
      </trkpt>
      <trkpt lat="43.22485167" lon="-6.85312333">
        <ele>375.0</ele>
        <time>2022-06-19T07:10:51.456Z</time>
      </trkpt>
      <trkpt lat="43.22481833" lon="-6.85317667">
        <ele>376.0</ele>
        <time>2022-06-19T07:10:52.472Z</time>
      </trkpt>
      <trkpt lat="43.22480167" lon="-6.85319333">
        <ele>376.0</ele>
        <time>2022-06-19T07:10:53.468Z</time>
      </trkpt>
      <trkpt lat="43.22480167" lon="-6.85319333">
        <ele>376.0</ele>
        <time>2022-06-19T07:10:54.461Z</time>
      </trkpt>
      <trkpt lat="43.22477333" lon="-6.85324167">
        <ele>376.0</ele>
        <time>2022-06-19T07:10:55.443Z</time>
      </trkpt>
      <trkpt lat="43.22477333" lon="-6.85324167">
        <ele>376.0</ele>
        <time>2022-06-19T07:10:56.462Z</time>
      </trkpt>
      <trkpt lat="43.22474" lon="-6.85328833">
        <ele>377.0</ele>
        <time>2022-06-19T07:10:57.475Z</time>
      </trkpt>
      <trkpt lat="43.22474" lon="-6.85328833">
        <ele>377.0</ele>
        <time>2022-06-19T07:10:58.461Z</time>
      </trkpt>
      <trkpt lat="43.224705" lon="-6.85333">
        <ele>377.0</ele>
        <time>2022-06-19T07:10:59.468Z</time>
      </trkpt>
      <trkpt lat="43.22468667" lon="-6.85334833">
        <ele>377.0</ele>
        <time>2022-06-19T07:11:00.451Z</time>
      </trkpt>
      <trkpt lat="43.22468667" lon="-6.85334833">
        <ele>377.0</ele>
        <time>2022-06-19T07:11:01.477Z</time>
      </trkpt>
      <trkpt lat="43.22464333" lon="-6.85338833">
        <ele>377.0</ele>
        <time>2022-06-19T07:11:02.447Z</time>
      </trkpt>
      <trkpt lat="43.22462167" lon="-6.853405">
        <ele>377.0</ele>
        <time>2022-06-19T07:11:03.474Z</time>
      </trkpt>
      <trkpt lat="43.22462167" lon="-6.853405">
        <ele>377.0</ele>
        <time>2022-06-19T07:11:04.442Z</time>
      </trkpt>
      <trkpt lat="43.22457833" lon="-6.85343333">
        <ele>378.0</ele>
        <time>2022-06-19T07:11:05.454Z</time>
      </trkpt>
      <trkpt lat="43.22455667" lon="-6.85344167">
        <ele>378.0</ele>
        <time>2022-06-19T07:11:06.479Z</time>
      </trkpt>
      <trkpt lat="43.22455667" lon="-6.85344167">
        <ele>378.0</ele>
        <time>2022-06-19T07:11:07.445Z</time>
      </trkpt>
      <trkpt lat="43.22450667" lon="-6.85345333">
        <ele>378.0</ele>
        <time>2022-06-19T07:11:08.462Z</time>
      </trkpt>
      <trkpt lat="43.22448333" lon="-6.853455">
        <ele>378.0</ele>
        <time>2022-06-19T07:11:09.443Z</time>
      </trkpt>
      <trkpt lat="43.22446" lon="-6.85345333">
        <ele>378.0</ele>
        <time>2022-06-19T07:11:10.443Z</time>
      </trkpt>
      <trkpt lat="43.22446" lon="-6.85345333">
        <ele>378.0</ele>
        <time>2022-06-19T07:11:11.477Z</time>
      </trkpt>
      <trkpt lat="43.22441167" lon="-6.85344667">
        <ele>379.0</ele>
        <time>2022-06-19T07:11:12.446Z</time>
      </trkpt>
      <trkpt lat="43.22438667" lon="-6.85343667">
        <ele>379.0</ele>
        <time>2022-06-19T07:11:13.460Z</time>
      </trkpt>
      <trkpt lat="43.22438667" lon="-6.85343667">
        <ele>379.0</ele>
        <time>2022-06-19T07:11:14.459Z</time>
      </trkpt>
      <trkpt lat="43.22433333" lon="-6.85340667">
        <ele>380.0</ele>
        <time>2022-06-19T07:11:15.470Z</time>
      </trkpt>
      <trkpt lat="43.22433333" lon="-6.85340667">
        <ele>380.0</ele>
        <time>2022-06-19T07:11:16.456Z</time>
      </trkpt>
      <trkpt lat="43.22428167" lon="-6.85338167">
        <ele>381.0</ele>
        <time>2022-06-19T07:11:17.449Z</time>
      </trkpt>
      <trkpt lat="43.22428167" lon="-6.85338167">
        <ele>381.0</ele>
        <time>2022-06-19T07:11:18.454Z</time>
      </trkpt>
      <trkpt lat="43.22423" lon="-6.85334833">
        <ele>382.0</ele>
        <time>2022-06-19T07:11:19.462Z</time>
      </trkpt>
      <trkpt lat="43.22423" lon="-6.85334833">
        <ele>382.0</ele>
        <time>2022-06-19T07:11:20.480Z</time>
      </trkpt>
      <trkpt lat="43.22418" lon="-6.85332167">
        <ele>383.0</ele>
        <time>2022-06-19T07:11:21.449Z</time>
      </trkpt>
      <trkpt lat="43.22418" lon="-6.85332167">
        <ele>383.0</ele>
        <time>2022-06-19T07:11:22.441Z</time>
      </trkpt>
      <trkpt lat="43.224125" lon="-6.853305">
        <ele>383.0</ele>
        <time>2022-06-19T07:11:23.454Z</time>
      </trkpt>
      <trkpt lat="43.22409667" lon="-6.85329833">
        <ele>383.0</ele>
        <time>2022-06-19T07:11:24.451Z</time>
      </trkpt>
      <trkpt lat="43.22409667" lon="-6.85329833">
        <ele>383.0</ele>
        <time>2022-06-19T07:11:25.462Z</time>
      </trkpt>
      <trkpt lat="43.224045" lon="-6.85328333">
        <ele>384.0</ele>
        <time>2022-06-19T07:11:26.471Z</time>
      </trkpt>
      <trkpt lat="43.22402167" lon="-6.853275">
        <ele>384.0</ele>
        <time>2022-06-19T07:11:27.447Z</time>
      </trkpt>
      <trkpt lat="43.22402167" lon="-6.853275">
        <ele>384.0</ele>
        <time>2022-06-19T07:11:28.461Z</time>
      </trkpt>
      <trkpt lat="43.22397167" lon="-6.85326">
        <ele>384.0</ele>
        <time>2022-06-19T07:11:29.467Z</time>
      </trkpt>
      <trkpt lat="43.22397167" lon="-6.85326">
        <ele>384.0</ele>
        <time>2022-06-19T07:11:30.514Z</time>
      </trkpt>
      <trkpt lat="43.22394833" lon="-6.85326">
        <ele>384.0</ele>
        <time>2022-06-19T07:11:31.452Z</time>
      </trkpt>
      <trkpt lat="43.2239" lon="-6.85325833">
        <ele>384.0</ele>
        <time>2022-06-19T07:11:32.463Z</time>
      </trkpt>
      <trkpt lat="43.22387333" lon="-6.85325833">
        <ele>384.0</ele>
        <time>2022-06-19T07:11:33.449Z</time>
      </trkpt>
      <trkpt lat="43.22385167" lon="-6.85325833">
        <ele>384.0</ele>
        <time>2022-06-19T07:11:34.467Z</time>
      </trkpt>
      <trkpt lat="43.22385167" lon="-6.85325833">
        <ele>384.0</ele>
        <time>2022-06-19T07:11:35.454Z</time>
      </trkpt>
      <trkpt lat="43.22381" lon="-6.85326333">
        <ele>384.0</ele>
        <time>2022-06-19T07:11:36.454Z</time>
      </trkpt>
      <trkpt lat="43.22381" lon="-6.85326333">
        <ele>384.0</ele>
        <time>2022-06-19T07:11:37.468Z</time>
      </trkpt>
      <trkpt lat="43.22376333" lon="-6.853275">
        <ele>384.0</ele>
        <time>2022-06-19T07:11:38.483Z</time>
      </trkpt>
      <trkpt lat="43.22374" lon="-6.85327833">
        <ele>384.0</ele>
        <time>2022-06-19T07:11:39.448Z</time>
      </trkpt>
      <trkpt lat="43.22374" lon="-6.85327833">
        <ele>384.0</ele>
        <time>2022-06-19T07:11:40.479Z</time>
      </trkpt>
      <trkpt lat="43.2237" lon="-6.85329333">
        <ele>383.0</ele>
        <time>2022-06-19T07:11:41.455Z</time>
      </trkpt>
      <trkpt lat="43.22367833" lon="-6.853305">
        <ele>383.0</ele>
        <time>2022-06-19T07:11:42.445Z</time>
      </trkpt>
      <trkpt lat="43.22367833" lon="-6.853305">
        <ele>383.0</ele>
        <time>2022-06-19T07:11:43.480Z</time>
      </trkpt>
      <trkpt lat="43.22363667" lon="-6.85332">
        <ele>383.0</ele>
        <time>2022-06-19T07:11:44.466Z</time>
      </trkpt>
      <trkpt lat="43.223615" lon="-6.85333167">
        <ele>383.0</ele>
        <time>2022-06-19T07:11:45.454Z</time>
      </trkpt>
      <trkpt lat="43.223615" lon="-6.85333167">
        <ele>383.0</ele>
        <time>2022-06-19T07:11:46.447Z</time>
      </trkpt>
      <trkpt lat="43.22357667" lon="-6.85336">
        <ele>383.0</ele>
        <time>2022-06-19T07:11:47.464Z</time>
      </trkpt>
      <trkpt lat="43.22355833" lon="-6.85337667">
        <ele>383.0</ele>
        <time>2022-06-19T07:11:48.456Z</time>
      </trkpt>
      <trkpt lat="43.22355833" lon="-6.85337667">
        <ele>383.0</ele>
        <time>2022-06-19T07:11:49.478Z</time>
      </trkpt>
      <trkpt lat="43.223515" lon="-6.85340667">
        <ele>383.0</ele>
        <time>2022-06-19T07:11:50.451Z</time>
      </trkpt>
      <trkpt lat="43.223515" lon="-6.85340667">
        <ele>383.0</ele>
        <time>2022-06-19T07:11:51.471Z</time>
      </trkpt>
      <trkpt lat="43.22347667" lon="-6.85344167">
        <ele>384.0</ele>
        <time>2022-06-19T07:11:52.446Z</time>
      </trkpt>
      <trkpt lat="43.22347667" lon="-6.85344167">
        <ele>384.0</ele>
        <time>2022-06-19T07:11:53.469Z</time>
      </trkpt>
      <trkpt lat="43.22343" lon="-6.853485">
        <ele>384.0</ele>
        <time>2022-06-19T07:11:54.444Z</time>
      </trkpt>
      <trkpt lat="43.22340833" lon="-6.85350167">
        <ele>384.0</ele>
        <time>2022-06-19T07:11:55.450Z</time>
      </trkpt>
      <trkpt lat="43.22340833" lon="-6.85350167">
        <ele>384.0</ele>
        <time>2022-06-19T07:11:56.478Z</time>
      </trkpt>
      <trkpt lat="43.22336167" lon="-6.85353667">
        <ele>385.0</ele>
        <time>2022-06-19T07:11:57.449Z</time>
      </trkpt>
      <trkpt lat="43.22336167" lon="-6.85353667">
        <ele>385.0</ele>
        <time>2022-06-19T07:11:58.467Z</time>
      </trkpt>
      <trkpt lat="43.22331333" lon="-6.85356833">
        <ele>385.0</ele>
        <time>2022-06-19T07:11:59.442Z</time>
      </trkpt>
      <trkpt lat="43.22331333" lon="-6.85356833">
        <ele>385.0</ele>
        <time>2022-06-19T07:12:00.442Z</time>
      </trkpt>
      <trkpt lat="43.22327" lon="-6.8536">
        <ele>385.0</ele>
        <time>2022-06-19T07:12:01.455Z</time>
      </trkpt>
      <trkpt lat="43.22324833" lon="-6.85361667">
        <ele>386.0</ele>
        <time>2022-06-19T07:12:02.459Z</time>
      </trkpt>
      <trkpt lat="43.223225" lon="-6.853635">
        <ele>386.0</ele>
        <time>2022-06-19T07:12:03.448Z</time>
      </trkpt>
      <trkpt lat="43.223205" lon="-6.85365333">
        <ele>386.0</ele>
        <time>2022-06-19T07:12:04.477Z</time>
      </trkpt>
      <trkpt lat="43.223205" lon="-6.85365333">
        <ele>386.0</ele>
        <time>2022-06-19T07:12:05.451Z</time>
      </trkpt>
      <trkpt lat="43.22316167" lon="-6.85368833">
        <ele>387.0</ele>
        <time>2022-06-19T07:12:06.477Z</time>
      </trkpt>
      <trkpt lat="43.22316167" lon="-6.85368833">
        <ele>387.0</ele>
        <time>2022-06-19T07:12:07.472Z</time>
      </trkpt>
      <trkpt lat="43.22311833" lon="-6.853725">
        <ele>387.0</ele>
        <time>2022-06-19T07:12:08.446Z</time>
      </trkpt>
      <trkpt lat="43.22309667" lon="-6.85374167">
        <ele>388.0</ele>
        <time>2022-06-19T07:12:09.453Z</time>
      </trkpt>
      <trkpt lat="43.22309667" lon="-6.85374167">
        <ele>388.0</ele>
        <time>2022-06-19T07:12:10.464Z</time>
      </trkpt>
      <trkpt lat="43.22305333" lon="-6.85377333">
        <ele>387.0</ele>
        <time>2022-06-19T07:12:11.475Z</time>
      </trkpt>
      <trkpt lat="43.22305333" lon="-6.85377333">
        <ele>387.0</ele>
        <time>2022-06-19T07:12:12.477Z</time>
      </trkpt>
      <trkpt lat="43.22300833" lon="-6.85380333">
        <ele>388.0</ele>
        <time>2022-06-19T07:12:13.451Z</time>
      </trkpt>
      <trkpt lat="43.22300833" lon="-6.85380333">
        <ele>388.0</ele>
        <time>2022-06-19T07:12:14.478Z</time>
      </trkpt>
      <trkpt lat="43.222965" lon="-6.85384">
        <ele>388.0</ele>
        <time>2022-06-19T07:12:15.456Z</time>
      </trkpt>
      <trkpt lat="43.222945" lon="-6.85385667">
        <ele>388.0</ele>
        <time>2022-06-19T07:12:16.446Z</time>
      </trkpt>
      <trkpt lat="43.222945" lon="-6.85385667">
        <ele>388.0</ele>
        <time>2022-06-19T07:12:17.446Z</time>
      </trkpt>
      <trkpt lat="43.22290167" lon="-6.85389">
        <ele>389.0</ele>
        <time>2022-06-19T07:12:18.461Z</time>
      </trkpt>
      <trkpt lat="43.22290167" lon="-6.85389">
        <ele>389.0</ele>
        <time>2022-06-19T07:12:19.454Z</time>
      </trkpt>
      <trkpt lat="43.22286" lon="-6.853925">
        <ele>389.0</ele>
        <time>2022-06-19T07:12:20.444Z</time>
      </trkpt>
      <trkpt lat="43.22286" lon="-6.853925">
        <ele>389.0</ele>
        <time>2022-06-19T07:12:21.466Z</time>
      </trkpt>
      <trkpt lat="43.22281333" lon="-6.85395">
        <ele>390.0</ele>
        <time>2022-06-19T07:12:22.450Z</time>
      </trkpt>
      <trkpt lat="43.22279" lon="-6.85396167">
        <ele>390.0</ele>
        <time>2022-06-19T07:12:23.470Z</time>
      </trkpt>
      <trkpt lat="43.22279" lon="-6.85396167">
        <ele>390.0</ele>
        <time>2022-06-19T07:12:24.442Z</time>
      </trkpt>
      <trkpt lat="43.22274167" lon="-6.85399">
        <ele>391.0</ele>
        <time>2022-06-19T07:12:25.464Z</time>
      </trkpt>
      <trkpt lat="43.222715" lon="-6.854005">
        <ele>391.0</ele>
        <time>2022-06-19T07:12:26.448Z</time>
      </trkpt>
      <trkpt lat="43.22269" lon="-6.85401667">
        <ele>391.0</ele>
        <time>2022-06-19T07:12:27.448Z</time>
      </trkpt>
      <trkpt lat="43.22269" lon="-6.85401667">
        <ele>391.0</ele>
        <time>2022-06-19T07:12:28.479Z</time>
      </trkpt>
      <trkpt lat="43.22264167" lon="-6.85403833">
        <ele>391.0</ele>
        <time>2022-06-19T07:12:29.468Z</time>
      </trkpt>
      <trkpt lat="43.22261833" lon="-6.85405">
        <ele>392.0</ele>
        <time>2022-06-19T07:12:30.468Z</time>
      </trkpt>
      <trkpt lat="43.22261833" lon="-6.85405">
        <ele>392.0</ele>
        <time>2022-06-19T07:12:31.449Z</time>
      </trkpt>
      <trkpt lat="43.22257333" lon="-6.85407">
        <ele>392.0</ele>
        <time>2022-06-19T07:12:32.470Z</time>
      </trkpt>
      <trkpt lat="43.22255167" lon="-6.85408">
        <ele>392.0</ele>
        <time>2022-06-19T07:12:33.474Z</time>
      </trkpt>
      <trkpt lat="43.22253" lon="-6.85409167">
        <ele>392.0</ele>
        <time>2022-06-19T07:12:34.470Z</time>
      </trkpt>
      <trkpt lat="43.22253" lon="-6.85409167">
        <ele>392.0</ele>
        <time>2022-06-19T07:12:35.441Z</time>
      </trkpt>
      <trkpt lat="43.222485" lon="-6.85411333">
        <ele>392.0</ele>
        <time>2022-06-19T07:12:36.474Z</time>
      </trkpt>
      <trkpt lat="43.222485" lon="-6.85411333">
        <ele>392.0</ele>
        <time>2022-06-19T07:12:37.447Z</time>
      </trkpt>
      <trkpt lat="43.22243833" lon="-6.85413">
        <ele>392.0</ele>
        <time>2022-06-19T07:12:38.462Z</time>
      </trkpt>
      <trkpt lat="43.22241333" lon="-6.85413833">
        <ele>393.0</ele>
        <time>2022-06-19T07:12:39.478Z</time>
      </trkpt>
      <trkpt lat="43.22241333" lon="-6.85413833">
        <ele>393.0</ele>
        <time>2022-06-19T07:12:40.469Z</time>
      </trkpt>
      <trkpt lat="43.22236167" lon="-6.85415667">
        <ele>393.0</ele>
        <time>2022-06-19T07:12:41.443Z</time>
      </trkpt>
      <trkpt lat="43.22233833" lon="-6.85416833">
        <ele>393.0</ele>
        <time>2022-06-19T07:12:42.467Z</time>
      </trkpt>
      <trkpt lat="43.22233833" lon="-6.85416833">
        <ele>393.0</ele>
        <time>2022-06-19T07:12:43.451Z</time>
      </trkpt>
      <trkpt lat="43.22229833" lon="-6.85419167">
        <ele>393.0</ele>
        <time>2022-06-19T07:12:44.468Z</time>
      </trkpt>
      <trkpt lat="43.22227667" lon="-6.85420667">
        <ele>393.0</ele>
        <time>2022-06-19T07:12:45.458Z</time>
      </trkpt>
      <trkpt lat="43.22227667" lon="-6.85420667">
        <ele>393.0</ele>
        <time>2022-06-19T07:12:46.449Z</time>
      </trkpt>
      <trkpt lat="43.222235" lon="-6.85424">
        <ele>393.0</ele>
        <time>2022-06-19T07:12:47.459Z</time>
      </trkpt>
      <trkpt lat="43.22221333" lon="-6.85425833">
        <ele>393.0</ele>
        <time>2022-06-19T07:12:48.455Z</time>
      </trkpt>
      <trkpt lat="43.22221333" lon="-6.85425833">
        <ele>393.0</ele>
        <time>2022-06-19T07:12:49.441Z</time>
      </trkpt>
      <trkpt lat="43.222175" lon="-6.85428833">
        <ele>394.0</ele>
        <time>2022-06-19T07:12:50.464Z</time>
      </trkpt>
      <trkpt lat="43.222175" lon="-6.85428833">
        <ele>394.0</ele>
        <time>2022-06-19T07:12:51.444Z</time>
      </trkpt>
      <trkpt lat="43.22213833" lon="-6.85432333">
        <ele>394.0</ele>
        <time>2022-06-19T07:12:52.455Z</time>
      </trkpt>
      <trkpt lat="43.22213833" lon="-6.85432333">
        <ele>394.0</ele>
        <time>2022-06-19T07:12:53.449Z</time>
      </trkpt>
      <trkpt lat="43.222105" lon="-6.85435667">
        <ele>395.0</ele>
        <time>2022-06-19T07:12:54.458Z</time>
      </trkpt>
      <trkpt lat="43.222105" lon="-6.85435667">
        <ele>395.0</ele>
        <time>2022-06-19T07:12:55.447Z</time>
      </trkpt>
      <trkpt lat="43.222075" lon="-6.85439">
        <ele>396.0</ele>
        <time>2022-06-19T07:12:56.467Z</time>
      </trkpt>
      <trkpt lat="43.222075" lon="-6.85439">
        <ele>396.0</ele>
        <time>2022-06-19T07:12:57.450Z</time>
      </trkpt>
      <trkpt lat="43.22204167" lon="-6.85443667">
        <ele>396.0</ele>
        <time>2022-06-19T07:12:58.461Z</time>
      </trkpt>
      <trkpt lat="43.22204167" lon="-6.85443667">
        <ele>396.0</ele>
        <time>2022-06-19T07:12:59.468Z</time>
      </trkpt>
      <trkpt lat="43.22200667" lon="-6.85448167">
        <ele>397.0</ele>
        <time>2022-06-19T07:13:00.447Z</time>
      </trkpt>
      <trkpt lat="43.22200667" lon="-6.85448167">
        <ele>397.0</ele>
        <time>2022-06-19T07:13:01.452Z</time>
      </trkpt>
      <trkpt lat="43.22198" lon="-6.85453167">
        <ele>398.0</ele>
        <time>2022-06-19T07:13:02.465Z</time>
      </trkpt>
      <trkpt lat="43.22196833" lon="-6.85455833">
        <ele>398.0</ele>
        <time>2022-06-19T07:13:03.461Z</time>
      </trkpt>
      <trkpt lat="43.22196833" lon="-6.85455833">
        <ele>398.0</ele>
        <time>2022-06-19T07:13:04.461Z</time>
      </trkpt>
      <trkpt lat="43.22194667" lon="-6.85461">
        <ele>399.0</ele>
        <time>2022-06-19T07:13:05.474Z</time>
      </trkpt>
      <trkpt lat="43.22194667" lon="-6.85461">
        <ele>399.0</ele>
        <time>2022-06-19T07:13:06.443Z</time>
      </trkpt>
      <trkpt lat="43.22192667" lon="-6.85466333">
        <ele>399.0</ele>
        <time>2022-06-19T07:13:07.459Z</time>
      </trkpt>
      <trkpt lat="43.22191333" lon="-6.85469">
        <ele>400.0</ele>
        <time>2022-06-19T07:13:08.460Z</time>
      </trkpt>
      <trkpt lat="43.22191333" lon="-6.85469">
        <ele>400.0</ele>
        <time>2022-06-19T07:13:09.476Z</time>
      </trkpt>
      <trkpt lat="43.22189167" lon="-6.85474167">
        <ele>401.0</ele>
        <time>2022-06-19T07:13:10.467Z</time>
      </trkpt>
      <trkpt lat="43.22189167" lon="-6.85474167">
        <ele>401.0</ele>
        <time>2022-06-19T07:13:11.453Z</time>
      </trkpt>
      <trkpt lat="43.22187333" lon="-6.85479833">
        <ele>401.0</ele>
        <time>2022-06-19T07:13:12.467Z</time>
      </trkpt>
      <trkpt lat="43.22186167" lon="-6.85482667">
        <ele>402.0</ele>
        <time>2022-06-19T07:13:13.477Z</time>
      </trkpt>
      <trkpt lat="43.22186167" lon="-6.85482667">
        <ele>402.0</ele>
        <time>2022-06-19T07:13:14.478Z</time>
      </trkpt>
      <trkpt lat="43.22184" lon="-6.85488333">
        <ele>402.0</ele>
        <time>2022-06-19T07:13:15.449Z</time>
      </trkpt>
      <trkpt lat="43.22183167" lon="-6.85491333">
        <ele>403.0</ele>
        <time>2022-06-19T07:13:16.477Z</time>
      </trkpt>
      <trkpt lat="43.22183167" lon="-6.85491333">
        <ele>403.0</ele>
        <time>2022-06-19T07:13:17.479Z</time>
      </trkpt>
      <trkpt lat="43.22181667" lon="-6.85497333">
        <ele>404.0</ele>
        <time>2022-06-19T07:13:18.453Z</time>
      </trkpt>
      <trkpt lat="43.22181667" lon="-6.85497333">
        <ele>404.0</ele>
        <time>2022-06-19T07:13:19.471Z</time>
      </trkpt>
      <trkpt lat="43.22180167" lon="-6.85503">
        <ele>404.0</ele>
        <time>2022-06-19T07:13:20.442Z</time>
      </trkpt>
      <trkpt lat="43.22180167" lon="-6.85503">
        <ele>404.0</ele>
        <time>2022-06-19T07:13:21.459Z</time>
      </trkpt>
      <trkpt lat="43.22179" lon="-6.85509">
        <ele>406.0</ele>
        <time>2022-06-19T07:13:22.467Z</time>
      </trkpt>
      <trkpt lat="43.22179" lon="-6.85509">
        <ele>406.0</ele>
        <time>2022-06-19T07:13:23.480Z</time>
      </trkpt>
      <trkpt lat="43.22178333" lon="-6.85515333">
        <ele>407.0</ele>
        <time>2022-06-19T07:13:24.469Z</time>
      </trkpt>
      <trkpt lat="43.22178333" lon="-6.85515333">
        <ele>407.0</ele>
        <time>2022-06-19T07:13:25.451Z</time>
      </trkpt>
      <trkpt lat="43.221775" lon="-6.85521167">
        <ele>408.0</ele>
        <time>2022-06-19T07:13:26.458Z</time>
      </trkpt>
      <trkpt lat="43.22177667" lon="-6.85524333">
        <ele>408.0</ele>
        <time>2022-06-19T07:13:27.475Z</time>
      </trkpt>
      <trkpt lat="43.22177667" lon="-6.85524333">
        <ele>408.0</ele>
        <time>2022-06-19T07:13:28.442Z</time>
      </trkpt>
      <trkpt lat="43.22177667" lon="-6.85530167">
        <ele>409.0</ele>
        <time>2022-06-19T07:13:29.449Z</time>
      </trkpt>
      <trkpt lat="43.22177667" lon="-6.85530167">
        <ele>409.0</ele>
        <time>2022-06-19T07:13:30.466Z</time>
      </trkpt>
      <trkpt lat="43.22178167" lon="-6.85536667">
        <ele>410.0</ele>
        <time>2022-06-19T07:13:31.445Z</time>
      </trkpt>
      <trkpt lat="43.22178167" lon="-6.85536667">
        <ele>410.0</ele>
        <time>2022-06-19T07:13:32.462Z</time>
      </trkpt>
      <trkpt lat="43.22178167" lon="-6.85542667">
        <ele>411.0</ele>
        <time>2022-06-19T07:13:33.471Z</time>
      </trkpt>
      <trkpt lat="43.22178167" lon="-6.85542667">
        <ele>411.0</ele>
        <time>2022-06-19T07:13:34.447Z</time>
      </trkpt>
      <trkpt lat="43.22176833" lon="-6.85549833">
        <ele>412.0</ele>
        <time>2022-06-19T07:13:35.476Z</time>
      </trkpt>
      <trkpt lat="43.22176833" lon="-6.85549833">
        <ele>412.0</ele>
        <time>2022-06-19T07:13:36.450Z</time>
      </trkpt>
      <trkpt lat="43.22174833" lon="-6.85557">
        <ele>413.0</ele>
        <time>2022-06-19T07:13:37.470Z</time>
      </trkpt>
      <trkpt lat="43.22174833" lon="-6.85557">
        <ele>413.0</ele>
        <time>2022-06-19T07:13:38.448Z</time>
      </trkpt>
      <trkpt lat="43.22172333" lon="-6.85564167">
        <ele>414.0</ele>
        <time>2022-06-19T07:13:39.479Z</time>
      </trkpt>
      <trkpt lat="43.22172333" lon="-6.85564167">
        <ele>414.0</ele>
        <time>2022-06-19T07:13:40.461Z</time>
      </trkpt>
      <trkpt lat="43.22169333" lon="-6.855705">
        <ele>414.0</ele>
        <time>2022-06-19T07:13:41.468Z</time>
      </trkpt>
      <trkpt lat="43.22167833" lon="-6.85573333">
        <ele>415.0</ele>
        <time>2022-06-19T07:13:42.474Z</time>
      </trkpt>
      <trkpt lat="43.22167833" lon="-6.85573333">
        <ele>415.0</ele>
        <time>2022-06-19T07:13:43.465Z</time>
      </trkpt>
      <trkpt lat="43.221645" lon="-6.85579">
        <ele>415.0</ele>
        <time>2022-06-19T07:13:44.477Z</time>
      </trkpt>
      <trkpt lat="43.221645" lon="-6.85579">
        <ele>415.0</ele>
        <time>2022-06-19T07:13:45.477Z</time>
      </trkpt>
      <trkpt lat="43.221615" lon="-6.85584167">
        <ele>416.0</ele>
        <time>2022-06-19T07:13:46.443Z</time>
      </trkpt>
      <trkpt lat="43.221615" lon="-6.85584167">
        <ele>416.0</ele>
        <time>2022-06-19T07:13:47.444Z</time>
      </trkpt>
      <trkpt lat="43.221585" lon="-6.855895">
        <ele>417.0</ele>
        <time>2022-06-19T07:13:48.458Z</time>
      </trkpt>
      <trkpt lat="43.221585" lon="-6.855895">
        <ele>417.0</ele>
        <time>2022-06-19T07:13:49.479Z</time>
      </trkpt>
      <trkpt lat="43.221555" lon="-6.85595">
        <ele>418.0</ele>
        <time>2022-06-19T07:13:50.448Z</time>
      </trkpt>
      <trkpt lat="43.22153833" lon="-6.85597833">
        <ele>418.0</ele>
        <time>2022-06-19T07:13:51.459Z</time>
      </trkpt>
      <trkpt lat="43.22153833" lon="-6.85597833">
        <ele>418.0</ele>
        <time>2022-06-19T07:13:52.476Z</time>
      </trkpt>
      <trkpt lat="43.22151" lon="-6.856035">
        <ele>419.0</ele>
        <time>2022-06-19T07:13:53.443Z</time>
      </trkpt>
      <trkpt lat="43.221495" lon="-6.85606167">
        <ele>419.0</ele>
        <time>2022-06-19T07:13:54.442Z</time>
      </trkpt>
      <trkpt lat="43.221495" lon="-6.85606167">
        <ele>419.0</ele>
        <time>2022-06-19T07:13:55.481Z</time>
      </trkpt>
      <trkpt lat="43.22146333" lon="-6.856115">
        <ele>420.0</ele>
        <time>2022-06-19T07:13:56.460Z</time>
      </trkpt>
      <trkpt lat="43.22144833" lon="-6.856145">
        <ele>420.0</ele>
        <time>2022-06-19T07:13:57.449Z</time>
      </trkpt>
      <trkpt lat="43.22144833" lon="-6.856145">
        <ele>420.0</ele>
        <time>2022-06-19T07:13:58.459Z</time>
      </trkpt>
      <trkpt lat="43.22143" lon="-6.85620167">
        <ele>421.0</ele>
        <time>2022-06-19T07:13:59.470Z</time>
      </trkpt>
      <trkpt lat="43.22142167" lon="-6.85623167">
        <ele>421.0</ele>
        <time>2022-06-19T07:14:00.451Z</time>
      </trkpt>
      <trkpt lat="43.22142167" lon="-6.85623167">
        <ele>421.0</ele>
        <time>2022-06-19T07:14:01.472Z</time>
      </trkpt>
      <trkpt lat="43.221415" lon="-6.85629667">
        <ele>422.0</ele>
        <time>2022-06-19T07:14:02.451Z</time>
      </trkpt>
      <trkpt lat="43.22141167" lon="-6.85632667">
        <ele>423.0</ele>
        <time>2022-06-19T07:14:03.476Z</time>
      </trkpt>
      <trkpt lat="43.22141167" lon="-6.85632667">
        <ele>423.0</ele>
        <time>2022-06-19T07:14:04.462Z</time>
      </trkpt>
      <trkpt lat="43.22140833" lon="-6.85638667">
        <ele>423.0</ele>
        <time>2022-06-19T07:14:05.465Z</time>
      </trkpt>
      <trkpt lat="43.22141167" lon="-6.85641333">
        <ele>424.0</ele>
        <time>2022-06-19T07:14:06.479Z</time>
      </trkpt>
      <trkpt lat="43.22141167" lon="-6.85641333">
        <ele>424.0</ele>
        <time>2022-06-19T07:14:07.458Z</time>
      </trkpt>
      <trkpt lat="43.221425" lon="-6.85646833">
        <ele>424.0</ele>
        <time>2022-06-19T07:14:08.465Z</time>
      </trkpt>
      <trkpt lat="43.221435" lon="-6.85649833">
        <ele>425.0</ele>
        <time>2022-06-19T07:14:09.472Z</time>
      </trkpt>
      <trkpt lat="43.221435" lon="-6.85649833">
        <ele>425.0</ele>
        <time>2022-06-19T07:14:10.451Z</time>
      </trkpt>
      <trkpt lat="43.22145167" lon="-6.85656333">
        <ele>425.0</ele>
        <time>2022-06-19T07:14:11.480Z</time>
      </trkpt>
      <trkpt lat="43.22146167" lon="-6.85659167">
        <ele>426.0</ele>
        <time>2022-06-19T07:14:12.459Z</time>
      </trkpt>
      <trkpt lat="43.22146167" lon="-6.85659167">
        <ele>426.0</ele>
        <time>2022-06-19T07:14:13.441Z</time>
      </trkpt>
      <trkpt lat="43.22148" lon="-6.85664667">
        <ele>427.0</ele>
        <time>2022-06-19T07:14:14.452Z</time>
      </trkpt>
      <trkpt lat="43.22148833" lon="-6.85667667">
        <ele>427.0</ele>
        <time>2022-06-19T07:14:15.459Z</time>
      </trkpt>
      <trkpt lat="43.22148833" lon="-6.85667667">
        <ele>427.0</ele>
        <time>2022-06-19T07:14:16.465Z</time>
      </trkpt>
      <trkpt lat="43.22149833" lon="-6.85674">
        <ele>428.0</ele>
        <time>2022-06-19T07:14:17.457Z</time>
      </trkpt>
      <trkpt lat="43.22149833" lon="-6.85677333">
        <ele>428.0</ele>
        <time>2022-06-19T07:14:18.466Z</time>
      </trkpt>
      <trkpt lat="43.22149833" lon="-6.85677333">
        <ele>428.0</ele>
        <time>2022-06-19T07:14:19.444Z</time>
      </trkpt>
      <trkpt lat="43.2215" lon="-6.85684333">
        <ele>429.0</ele>
        <time>2022-06-19T07:14:20.663Z</time>
      </trkpt>
      <trkpt lat="43.2215" lon="-6.85684333">
        <ele>429.0</ele>
        <time>2022-06-19T07:14:21.455Z</time>
      </trkpt>
      <trkpt lat="43.22150333" lon="-6.85691333">
        <ele>430.0</ele>
        <time>2022-06-19T07:14:22.443Z</time>
      </trkpt>
      <trkpt lat="43.22150333" lon="-6.85691333">
        <ele>430.0</ele>
        <time>2022-06-19T07:14:23.458Z</time>
      </trkpt>
      <trkpt lat="43.22150167" lon="-6.85698333">
        <ele>430.0</ele>
        <time>2022-06-19T07:14:24.445Z</time>
      </trkpt>
      <trkpt lat="43.22150167" lon="-6.85698333">
        <ele>430.0</ele>
        <time>2022-06-19T07:14:25.461Z</time>
      </trkpt>
      <trkpt lat="43.22150833" lon="-6.85705167">
        <ele>431.0</ele>
        <time>2022-06-19T07:14:26.477Z</time>
      </trkpt>
      <trkpt lat="43.22150833" lon="-6.85705167">
        <ele>431.0</ele>
        <time>2022-06-19T07:14:27.445Z</time>
      </trkpt>
      <trkpt lat="43.22151667" lon="-6.85711333">
        <ele>432.0</ele>
        <time>2022-06-19T07:14:28.457Z</time>
      </trkpt>
      <trkpt lat="43.22151667" lon="-6.85711333">
        <ele>432.0</ele>
        <time>2022-06-19T07:14:29.480Z</time>
      </trkpt>
      <trkpt lat="43.22152" lon="-6.85717833">
        <ele>432.0</ele>
        <time>2022-06-19T07:14:30.453Z</time>
      </trkpt>
      <trkpt lat="43.22152" lon="-6.85717833">
        <ele>432.0</ele>
        <time>2022-06-19T07:14:31.441Z</time>
      </trkpt>
      <trkpt lat="43.22151833" lon="-6.85725">
        <ele>433.0</ele>
        <time>2022-06-19T07:14:32.453Z</time>
      </trkpt>
      <trkpt lat="43.221515" lon="-6.85728167">
        <ele>433.0</ele>
        <time>2022-06-19T07:14:33.460Z</time>
      </trkpt>
      <trkpt lat="43.221515" lon="-6.85728167">
        <ele>433.0</ele>
        <time>2022-06-19T07:14:34.455Z</time>
      </trkpt>
      <trkpt lat="43.22149667" lon="-6.85734833">
        <ele>434.0</ele>
        <time>2022-06-19T07:14:35.469Z</time>
      </trkpt>
      <trkpt lat="43.22148667" lon="-6.85738">
        <ele>434.0</ele>
        <time>2022-06-19T07:14:36.467Z</time>
      </trkpt>
      <trkpt lat="43.22148667" lon="-6.85738">
        <ele>434.0</ele>
        <time>2022-06-19T07:14:37.461Z</time>
      </trkpt>
      <trkpt lat="43.22146333" lon="-6.85743667">
        <ele>435.0</ele>
        <time>2022-06-19T07:14:38.478Z</time>
      </trkpt>
      <trkpt lat="43.22144833" lon="-6.85746167">
        <ele>435.0</ele>
        <time>2022-06-19T07:14:39.452Z</time>
      </trkpt>
      <trkpt lat="43.22144833" lon="-6.85746167">
        <ele>435.0</ele>
        <time>2022-06-19T07:14:40.446Z</time>
      </trkpt>
      <trkpt lat="43.22141167" lon="-6.857515">
        <ele>436.0</ele>
        <time>2022-06-19T07:14:41.457Z</time>
      </trkpt>
      <trkpt lat="43.22139167" lon="-6.85754">
        <ele>436.0</ele>
        <time>2022-06-19T07:14:42.491Z</time>
      </trkpt>
      <trkpt lat="43.22139167" lon="-6.85754">
        <ele>436.0</ele>
        <time>2022-06-19T07:14:43.449Z</time>
      </trkpt>
      <trkpt lat="43.22134833" lon="-6.85758667">
        <ele>437.0</ele>
        <time>2022-06-19T07:14:44.461Z</time>
      </trkpt>
      <trkpt lat="43.22132833" lon="-6.85760333">
        <ele>437.0</ele>
        <time>2022-06-19T07:14:45.477Z</time>
      </trkpt>
      <trkpt lat="43.22132833" lon="-6.85760333">
        <ele>437.0</ele>
        <time>2022-06-19T07:14:46.468Z</time>
      </trkpt>
      <trkpt lat="43.22128833" lon="-6.85763333">
        <ele>438.0</ele>
        <time>2022-06-19T07:14:47.451Z</time>
      </trkpt>
      <trkpt lat="43.22128833" lon="-6.85763333">
        <ele>438.0</ele>
        <time>2022-06-19T07:14:48.456Z</time>
      </trkpt>
      <trkpt lat="43.22124667" lon="-6.85765333">
        <ele>438.0</ele>
        <time>2022-06-19T07:14:49.467Z</time>
      </trkpt>
      <trkpt lat="43.22124667" lon="-6.85765333">
        <ele>438.0</ele>
        <time>2022-06-19T07:14:50.473Z</time>
      </trkpt>
      <trkpt lat="43.221195" lon="-6.85767">
        <ele>439.0</ele>
        <time>2022-06-19T07:14:51.451Z</time>
      </trkpt>
      <trkpt lat="43.22117167" lon="-6.85767667">
        <ele>439.0</ele>
        <time>2022-06-19T07:14:52.454Z</time>
      </trkpt>
      <trkpt lat="43.22117167" lon="-6.85767667">
        <ele>439.0</ele>
        <time>2022-06-19T07:14:53.446Z</time>
      </trkpt>
      <trkpt lat="43.22112833" lon="-6.85767167">
        <ele>440.0</ele>
        <time>2022-06-19T07:14:54.469Z</time>
      </trkpt>
      <trkpt lat="43.22112833" lon="-6.85767167">
        <ele>440.0</ele>
        <time>2022-06-19T07:14:55.480Z</time>
      </trkpt>
      <trkpt lat="43.22108333" lon="-6.85767333">
        <ele>441.0</ele>
        <time>2022-06-19T07:14:56.482Z</time>
      </trkpt>
      <trkpt lat="43.22106" lon="-6.857675">
        <ele>441.0</ele>
        <time>2022-06-19T07:14:57.449Z</time>
      </trkpt>
      <trkpt lat="43.22106" lon="-6.857675">
        <ele>441.0</ele>
        <time>2022-06-19T07:14:58.458Z</time>
      </trkpt>
      <trkpt lat="43.22101833" lon="-6.857685">
        <ele>442.0</ele>
        <time>2022-06-19T07:14:59.475Z</time>
      </trkpt>
      <trkpt lat="43.22101833" lon="-6.857685">
        <ele>442.0</ele>
        <time>2022-06-19T07:15:00.461Z</time>
      </trkpt>
      <trkpt lat="43.22097167" lon="-6.857705">
        <ele>442.0</ele>
        <time>2022-06-19T07:15:01.474Z</time>
      </trkpt>
      <trkpt lat="43.22097167" lon="-6.857705">
        <ele>442.0</ele>
        <time>2022-06-19T07:15:02.447Z</time>
      </trkpt>
      <trkpt lat="43.220925" lon="-6.85774667">
        <ele>443.0</ele>
        <time>2022-06-19T07:15:03.457Z</time>
      </trkpt>
      <trkpt lat="43.220925" lon="-6.85774667">
        <ele>443.0</ele>
        <time>2022-06-19T07:15:04.479Z</time>
      </trkpt>
      <trkpt lat="43.22087333" lon="-6.857775">
        <ele>444.0</ele>
        <time>2022-06-19T07:15:05.449Z</time>
      </trkpt>
      <trkpt lat="43.22087333" lon="-6.857775">
        <ele>444.0</ele>
        <time>2022-06-19T07:15:06.441Z</time>
      </trkpt>
      <trkpt lat="43.22082333" lon="-6.85781167">
        <ele>444.0</ele>
        <time>2022-06-19T07:15:07.480Z</time>
      </trkpt>
      <trkpt lat="43.22080333" lon="-6.85783">
        <ele>445.0</ele>
        <time>2022-06-19T07:15:08.477Z</time>
      </trkpt>
      <trkpt lat="43.22080333" lon="-6.85783">
        <ele>445.0</ele>
        <time>2022-06-19T07:15:09.480Z</time>
      </trkpt>
      <trkpt lat="43.22076" lon="-6.85786333">
        <ele>446.0</ele>
        <time>2022-06-19T07:15:10.451Z</time>
      </trkpt>
      <trkpt lat="43.22073833" lon="-6.85788">
        <ele>446.0</ele>
        <time>2022-06-19T07:15:11.475Z</time>
      </trkpt>
      <trkpt lat="43.22071833" lon="-6.85789167">
        <ele>446.0</ele>
        <time>2022-06-19T07:15:12.449Z</time>
      </trkpt>
      <trkpt lat="43.22071833" lon="-6.85789167">
        <ele>446.0</ele>
        <time>2022-06-19T07:15:13.480Z</time>
      </trkpt>
      <trkpt lat="43.22067833" lon="-6.85792833">
        <ele>447.0</ele>
        <time>2022-06-19T07:15:14.453Z</time>
      </trkpt>
      <trkpt lat="43.22065667" lon="-6.85794667">
        <ele>448.0</ele>
        <time>2022-06-19T07:15:15.445Z</time>
      </trkpt>
      <trkpt lat="43.22065667" lon="-6.85794667">
        <ele>448.0</ele>
        <time>2022-06-19T07:15:16.472Z</time>
      </trkpt>
      <trkpt lat="43.22062167" lon="-6.85798833">
        <ele>449.0</ele>
        <time>2022-06-19T07:15:17.452Z</time>
      </trkpt>
      <trkpt lat="43.22062167" lon="-6.85798833">
        <ele>449.0</ele>
        <time>2022-06-19T07:15:18.459Z</time>
      </trkpt>
      <trkpt lat="43.22058667" lon="-6.85803167">
        <ele>449.0</ele>
        <time>2022-06-19T07:15:19.477Z</time>
      </trkpt>
      <trkpt lat="43.22058667" lon="-6.85803167">
        <ele>449.0</ele>
        <time>2022-06-19T07:15:20.476Z</time>
      </trkpt>
      <trkpt lat="43.22055333" lon="-6.85807833">
        <ele>450.0</ele>
        <time>2022-06-19T07:15:21.457Z</time>
      </trkpt>
      <trkpt lat="43.22055333" lon="-6.85807833">
        <ele>450.0</ele>
        <time>2022-06-19T07:15:22.450Z</time>
      </trkpt>
      <trkpt lat="43.220515" lon="-6.85812">
        <ele>451.0</ele>
        <time>2022-06-19T07:15:23.459Z</time>
      </trkpt>
      <trkpt lat="43.22049833" lon="-6.85814333">
        <ele>452.0</ele>
        <time>2022-06-19T07:15:24.448Z</time>
      </trkpt>
      <trkpt lat="43.22048167" lon="-6.858165">
        <ele>452.0</ele>
        <time>2022-06-19T07:15:25.470Z</time>
      </trkpt>
      <trkpt lat="43.22048167" lon="-6.858165">
        <ele>452.0</ele>
        <time>2022-06-19T07:15:26.454Z</time>
      </trkpt>
      <trkpt lat="43.22044667" lon="-6.85820333">
        <ele>453.0</ele>
        <time>2022-06-19T07:15:27.473Z</time>
      </trkpt>
      <trkpt lat="43.22044667" lon="-6.85820333">
        <ele>453.0</ele>
        <time>2022-06-19T07:15:28.441Z</time>
      </trkpt>
      <trkpt lat="43.22040667" lon="-6.85823833">
        <ele>454.0</ele>
        <time>2022-06-19T07:15:29.454Z</time>
      </trkpt>
      <trkpt lat="43.22040667" lon="-6.85823833">
        <ele>454.0</ele>
        <time>2022-06-19T07:15:30.454Z</time>
      </trkpt>
      <trkpt lat="43.22036667" lon="-6.858275">
        <ele>455.0</ele>
        <time>2022-06-19T07:15:31.468Z</time>
      </trkpt>
      <trkpt lat="43.22036667" lon="-6.858275">
        <ele>455.0</ele>
        <time>2022-06-19T07:15:32.442Z</time>
      </trkpt>
      <trkpt lat="43.22032667" lon="-6.85831833">
        <ele>456.0</ele>
        <time>2022-06-19T07:15:33.454Z</time>
      </trkpt>
      <trkpt lat="43.22030333" lon="-6.85834167">
        <ele>456.0</ele>
        <time>2022-06-19T07:15:34.460Z</time>
      </trkpt>
      <trkpt lat="43.22030333" lon="-6.85834167">
        <ele>456.0</ele>
        <time>2022-06-19T07:15:35.443Z</time>
      </trkpt>
      <trkpt lat="43.22025833" lon="-6.85839333">
        <ele>457.0</ele>
        <time>2022-06-19T07:15:36.454Z</time>
      </trkpt>
      <trkpt lat="43.22025833" lon="-6.85839333">
        <ele>457.0</ele>
        <time>2022-06-19T07:15:37.469Z</time>
      </trkpt>
      <trkpt lat="43.22022333" lon="-6.858435">
        <ele>458.0</ele>
        <time>2022-06-19T07:15:38.441Z</time>
      </trkpt>
      <trkpt lat="43.2202" lon="-6.85845333">
        <ele>459.0</ele>
        <time>2022-06-19T07:15:39.475Z</time>
      </trkpt>
      <trkpt lat="43.2202" lon="-6.85845333">
        <ele>459.0</ele>
        <time>2022-06-19T07:15:40.444Z</time>
      </trkpt>
      <trkpt lat="43.22015833" lon="-6.858495">
        <ele>460.0</ele>
        <time>2022-06-19T07:15:41.465Z</time>
      </trkpt>
      <trkpt lat="43.22013833" lon="-6.858515">
        <ele>460.0</ele>
        <time>2022-06-19T07:15:42.460Z</time>
      </trkpt>
      <trkpt lat="43.22013833" lon="-6.858515">
        <ele>460.0</ele>
        <time>2022-06-19T07:15:43.448Z</time>
      </trkpt>
      <trkpt lat="43.22010167" lon="-6.85856167">
        <ele>461.0</ele>
        <time>2022-06-19T07:15:44.468Z</time>
      </trkpt>
      <trkpt lat="43.22008333" lon="-6.85858">
        <ele>462.0</ele>
        <time>2022-06-19T07:15:45.469Z</time>
      </trkpt>
      <trkpt lat="43.22008333" lon="-6.85858">
        <ele>462.0</ele>
        <time>2022-06-19T07:15:46.441Z</time>
      </trkpt>
      <trkpt lat="43.22004667" lon="-6.85861333">
        <ele>463.0</ele>
        <time>2022-06-19T07:15:47.454Z</time>
      </trkpt>
      <trkpt lat="43.22004667" lon="-6.85861333">
        <ele>463.0</ele>
        <time>2022-06-19T07:15:48.458Z</time>
      </trkpt>
      <trkpt lat="43.22001" lon="-6.85865">
        <ele>464.0</ele>
        <time>2022-06-19T07:15:49.473Z</time>
      </trkpt>
      <trkpt lat="43.22001" lon="-6.85865">
        <ele>464.0</ele>
        <time>2022-06-19T07:15:50.469Z</time>
      </trkpt>
      <trkpt lat="43.21997667" lon="-6.85868333">
        <ele>465.0</ele>
        <time>2022-06-19T07:15:51.443Z</time>
      </trkpt>
      <trkpt lat="43.21995667" lon="-6.85870167">
        <ele>466.0</ele>
        <time>2022-06-19T07:15:52.450Z</time>
      </trkpt>
      <trkpt lat="43.21995667" lon="-6.85870167">
        <ele>466.0</ele>
        <time>2022-06-19T07:15:53.471Z</time>
      </trkpt>
      <trkpt lat="43.21992167" lon="-6.85873667">
        <ele>467.0</ele>
        <time>2022-06-19T07:15:54.450Z</time>
      </trkpt>
      <trkpt lat="43.21992167" lon="-6.85873667">
        <ele>467.0</ele>
        <time>2022-06-19T07:15:55.447Z</time>
      </trkpt>
      <trkpt lat="43.21989167" lon="-6.85877167">
        <ele>468.0</ele>
        <time>2022-06-19T07:15:56.459Z</time>
      </trkpt>
      <trkpt lat="43.219875" lon="-6.85879167">
        <ele>468.0</ele>
        <time>2022-06-19T07:15:57.459Z</time>
      </trkpt>
      <trkpt lat="43.219875" lon="-6.85879167">
        <ele>468.0</ele>
        <time>2022-06-19T07:15:58.464Z</time>
      </trkpt>
      <trkpt lat="43.21983667" lon="-6.85883667">
        <ele>470.0</ele>
        <time>2022-06-19T07:15:59.472Z</time>
      </trkpt>
      <trkpt lat="43.21981667" lon="-6.85885">
        <ele>470.0</ele>
        <time>2022-06-19T07:16:00.469Z</time>
      </trkpt>
      <trkpt lat="43.21981667" lon="-6.85885">
        <ele>470.0</ele>
        <time>2022-06-19T07:16:01.457Z</time>
      </trkpt>
      <trkpt lat="43.21978" lon="-6.85888">
        <ele>471.0</ele>
        <time>2022-06-19T07:16:02.478Z</time>
      </trkpt>
      <trkpt lat="43.21976167" lon="-6.85890167">
        <ele>472.0</ele>
        <time>2022-06-19T07:16:03.449Z</time>
      </trkpt>
      <trkpt lat="43.21976167" lon="-6.85890167">
        <ele>472.0</ele>
        <time>2022-06-19T07:16:04.469Z</time>
      </trkpt>
      <trkpt lat="43.21972" lon="-6.858935">
        <ele>473.0</ele>
        <time>2022-06-19T07:16:05.450Z</time>
      </trkpt>
      <trkpt lat="43.21969833" lon="-6.858955">
        <ele>473.0</ele>
        <time>2022-06-19T07:16:06.459Z</time>
      </trkpt>
      <trkpt lat="43.21969833" lon="-6.858955">
        <ele>473.0</ele>
        <time>2022-06-19T07:16:07.470Z</time>
      </trkpt>
      <trkpt lat="43.21966167" lon="-6.859">
        <ele>474.0</ele>
        <time>2022-06-19T07:16:08.443Z</time>
      </trkpt>
      <trkpt lat="43.219645" lon="-6.85902167">
        <ele>474.0</ele>
        <time>2022-06-19T07:16:09.447Z</time>
      </trkpt>
      <trkpt lat="43.219645" lon="-6.85902167">
        <ele>474.0</ele>
        <time>2022-06-19T07:16:10.442Z</time>
      </trkpt>
      <trkpt lat="43.21960833" lon="-6.85905833">
        <ele>475.0</ele>
        <time>2022-06-19T07:16:11.452Z</time>
      </trkpt>
      <trkpt lat="43.21959333" lon="-6.859075">
        <ele>475.0</ele>
        <time>2022-06-19T07:16:12.484Z</time>
      </trkpt>
      <trkpt lat="43.21959333" lon="-6.859075">
        <ele>475.0</ele>
        <time>2022-06-19T07:16:13.472Z</time>
      </trkpt>
      <trkpt lat="43.219555" lon="-6.859125">
        <ele>476.0</ele>
        <time>2022-06-19T07:16:14.459Z</time>
      </trkpt>
      <trkpt lat="43.219555" lon="-6.859125">
        <ele>476.0</ele>
        <time>2022-06-19T07:16:15.458Z</time>
      </trkpt>
      <trkpt lat="43.21951667" lon="-6.859165">
        <ele>477.0</ele>
        <time>2022-06-19T07:16:16.459Z</time>
      </trkpt>
      <trkpt lat="43.21951667" lon="-6.859165">
        <ele>477.0</ele>
        <time>2022-06-19T07:16:17.454Z</time>
      </trkpt>
      <trkpt lat="43.219475" lon="-6.85922">
        <ele>477.0</ele>
        <time>2022-06-19T07:16:18.473Z</time>
      </trkpt>
      <trkpt lat="43.219475" lon="-6.85922">
        <ele>477.0</ele>
        <time>2022-06-19T07:16:19.472Z</time>
      </trkpt>
      <trkpt lat="43.21944" lon="-6.859275">
        <ele>476.0</ele>
        <time>2022-06-19T07:16:20.446Z</time>
      </trkpt>
      <trkpt lat="43.21944" lon="-6.859275">
        <ele>476.0</ele>
        <time>2022-06-19T07:16:21.441Z</time>
      </trkpt>
      <trkpt lat="43.21940333" lon="-6.859325">
        <ele>476.0</ele>
        <time>2022-06-19T07:16:22.452Z</time>
      </trkpt>
      <trkpt lat="43.21940333" lon="-6.859325">
        <ele>476.0</ele>
        <time>2022-06-19T07:16:23.442Z</time>
      </trkpt>
      <trkpt lat="43.21937167" lon="-6.85938167">
        <ele>476.0</ele>
        <time>2022-06-19T07:16:24.461Z</time>
      </trkpt>
      <trkpt lat="43.21937167" lon="-6.85938167">
        <ele>476.0</ele>
        <time>2022-06-19T07:16:25.456Z</time>
      </trkpt>
      <trkpt lat="43.21933833" lon="-6.85943">
        <ele>476.0</ele>
        <time>2022-06-19T07:16:26.463Z</time>
      </trkpt>
      <trkpt lat="43.21933833" lon="-6.85943">
        <ele>476.0</ele>
        <time>2022-06-19T07:16:27.441Z</time>
      </trkpt>
      <trkpt lat="43.21930333" lon="-6.85947833">
        <ele>475.0</ele>
        <time>2022-06-19T07:16:28.454Z</time>
      </trkpt>
      <trkpt lat="43.21930333" lon="-6.85947833">
        <ele>475.0</ele>
        <time>2022-06-19T07:16:29.471Z</time>
      </trkpt>
      <trkpt lat="43.21927167" lon="-6.85952833">
        <ele>475.0</ele>
        <time>2022-06-19T07:16:30.450Z</time>
      </trkpt>
      <trkpt lat="43.21927167" lon="-6.85952833">
        <ele>475.0</ele>
        <time>2022-06-19T07:16:31.476Z</time>
      </trkpt>
      <trkpt lat="43.21924667" lon="-6.85957667">
        <ele>475.0</ele>
        <time>2022-06-19T07:16:32.471Z</time>
      </trkpt>
      <trkpt lat="43.21924667" lon="-6.85957667">
        <ele>475.0</ele>
        <time>2022-06-19T07:16:33.457Z</time>
      </trkpt>
      <trkpt lat="43.21922167" lon="-6.85962167">
        <ele>475.0</ele>
        <time>2022-06-19T07:16:34.443Z</time>
      </trkpt>
      <trkpt lat="43.21922167" lon="-6.85962167">
        <ele>475.0</ele>
        <time>2022-06-19T07:16:35.454Z</time>
      </trkpt>
      <trkpt lat="43.2192" lon="-6.85967333">
        <ele>475.0</ele>
        <time>2022-06-19T07:16:36.468Z</time>
      </trkpt>
      <trkpt lat="43.2192" lon="-6.85967333">
        <ele>475.0</ele>
        <time>2022-06-19T07:16:37.454Z</time>
      </trkpt>
      <trkpt lat="43.21917667" lon="-6.85971333">
        <ele>476.0</ele>
        <time>2022-06-19T07:16:38.461Z</time>
      </trkpt>
      <trkpt lat="43.21917667" lon="-6.85971333">
        <ele>476.0</ele>
        <time>2022-06-19T07:16:39.466Z</time>
      </trkpt>
      <trkpt lat="43.21915" lon="-6.85975167">
        <ele>476.0</ele>
        <time>2022-06-19T07:16:40.481Z</time>
      </trkpt>
      <trkpt lat="43.21915" lon="-6.85975167">
        <ele>476.0</ele>
        <time>2022-06-19T07:16:41.466Z</time>
      </trkpt>
      <trkpt lat="43.21912167" lon="-6.859795">
        <ele>477.0</ele>
        <time>2022-06-19T07:16:42.479Z</time>
      </trkpt>
      <trkpt lat="43.21912167" lon="-6.859795">
        <ele>477.0</ele>
        <time>2022-06-19T07:16:43.467Z</time>
      </trkpt>
      <trkpt lat="43.21909" lon="-6.85983833">
        <ele>477.0</ele>
        <time>2022-06-19T07:16:44.448Z</time>
      </trkpt>
      <trkpt lat="43.21909" lon="-6.85983833">
        <ele>477.0</ele>
        <time>2022-06-19T07:16:45.462Z</time>
      </trkpt>
      <trkpt lat="43.21906" lon="-6.859875">
        <ele>478.0</ele>
        <time>2022-06-19T07:16:46.468Z</time>
      </trkpt>
      <trkpt lat="43.219045" lon="-6.85989167">
        <ele>478.0</ele>
        <time>2022-06-19T07:16:47.451Z</time>
      </trkpt>
      <trkpt lat="43.219045" lon="-6.85989167">
        <ele>478.0</ele>
        <time>2022-06-19T07:16:48.458Z</time>
      </trkpt>
      <trkpt lat="43.219015" lon="-6.859925">
        <ele>479.0</ele>
        <time>2022-06-19T07:16:49.475Z</time>
      </trkpt>
      <trkpt lat="43.219015" lon="-6.859925">
        <ele>479.0</ele>
        <time>2022-06-19T07:16:50.472Z</time>
      </trkpt>
      <trkpt lat="43.21898667" lon="-6.859975">
        <ele>479.0</ele>
        <time>2022-06-19T07:16:51.451Z</time>
      </trkpt>
      <trkpt lat="43.218975" lon="-6.85999833">
        <ele>480.0</ele>
        <time>2022-06-19T07:16:52.459Z</time>
      </trkpt>
      <trkpt lat="43.218975" lon="-6.85999833">
        <ele>480.0</ele>
        <time>2022-06-19T07:16:53.479Z</time>
      </trkpt>
      <trkpt lat="43.21895" lon="-6.86003667">
        <ele>480.0</ele>
        <time>2022-06-19T07:16:54.463Z</time>
      </trkpt>
      <trkpt lat="43.21895" lon="-6.86003667">
        <ele>480.0</ele>
        <time>2022-06-19T07:16:55.442Z</time>
      </trkpt>
      <trkpt lat="43.21891833" lon="-6.860075">
        <ele>481.0</ele>
        <time>2022-06-19T07:16:56.458Z</time>
      </trkpt>
      <trkpt lat="43.21890833" lon="-6.8601">
        <ele>482.0</ele>
        <time>2022-06-19T07:16:57.469Z</time>
      </trkpt>
      <trkpt lat="43.21890833" lon="-6.8601">
        <ele>482.0</ele>
        <time>2022-06-19T07:16:58.441Z</time>
      </trkpt>
      <trkpt lat="43.21888333" lon="-6.86015333">
        <ele>482.0</ele>
        <time>2022-06-19T07:16:59.461Z</time>
      </trkpt>
      <trkpt lat="43.21888333" lon="-6.86015333">
        <ele>482.0</ele>
        <time>2022-06-19T07:17:00.462Z</time>
      </trkpt>
      <trkpt lat="43.21886167" lon="-6.86019667">
        <ele>483.0</ele>
        <time>2022-06-19T07:17:01.478Z</time>
      </trkpt>
      <trkpt lat="43.21884667" lon="-6.860215">
        <ele>483.0</ele>
        <time>2022-06-19T07:17:02.468Z</time>
      </trkpt>
      <trkpt lat="43.21883" lon="-6.86023167">
        <ele>483.0</ele>
        <time>2022-06-19T07:17:03.448Z</time>
      </trkpt>
      <trkpt lat="43.21883" lon="-6.86023167">
        <ele>483.0</ele>
        <time>2022-06-19T07:17:04.472Z</time>
      </trkpt>
      <trkpt lat="43.21879" lon="-6.86026">
        <ele>484.0</ele>
        <time>2022-06-19T07:17:05.450Z</time>
      </trkpt>
      <trkpt lat="43.21879" lon="-6.86026">
        <ele>484.0</ele>
        <time>2022-06-19T07:17:06.463Z</time>
      </trkpt>
      <trkpt lat="43.21875833" lon="-6.86029833">
        <ele>484.0</ele>
        <time>2022-06-19T07:17:07.477Z</time>
      </trkpt>
      <trkpt lat="43.21875833" lon="-6.86029833">
        <ele>484.0</ele>
        <time>2022-06-19T07:17:08.453Z</time>
      </trkpt>
      <trkpt lat="43.21872667" lon="-6.86031667">
        <ele>484.0</ele>
        <time>2022-06-19T07:17:09.471Z</time>
      </trkpt>
      <trkpt lat="43.21872667" lon="-6.86031667">
        <ele>484.0</ele>
        <time>2022-06-19T07:17:10.442Z</time>
      </trkpt>
      <trkpt lat="43.21868333" lon="-6.86032833">
        <ele>483.0</ele>
        <time>2022-06-19T07:17:11.460Z</time>
      </trkpt>
      <trkpt lat="43.21868333" lon="-6.86032833">
        <ele>483.0</ele>
        <time>2022-06-19T07:17:12.480Z</time>
      </trkpt>
      <trkpt lat="43.21864333" lon="-6.86033">
        <ele>483.0</ele>
        <time>2022-06-19T07:17:13.459Z</time>
      </trkpt>
      <trkpt lat="43.21864333" lon="-6.86033">
        <ele>483.0</ele>
        <time>2022-06-19T07:17:14.459Z</time>
      </trkpt>
      <trkpt lat="43.218605" lon="-6.86032">
        <ele>482.0</ele>
        <time>2022-06-19T07:17:15.443Z</time>
      </trkpt>
      <trkpt lat="43.21858333" lon="-6.860315">
        <ele>481.0</ele>
        <time>2022-06-19T07:17:16.447Z</time>
      </trkpt>
      <trkpt lat="43.21856167" lon="-6.86031333">
        <ele>481.0</ele>
        <time>2022-06-19T07:17:17.466Z</time>
      </trkpt>
      <trkpt lat="43.21856167" lon="-6.86031333">
        <ele>481.0</ele>
        <time>2022-06-19T07:17:18.475Z</time>
      </trkpt>
      <trkpt lat="43.21852833" lon="-6.86031">
        <ele>480.0</ele>
        <time>2022-06-19T07:17:19.453Z</time>
      </trkpt>
      <trkpt lat="43.21852833" lon="-6.86031">
        <ele>480.0</ele>
        <time>2022-06-19T07:17:20.457Z</time>
      </trkpt>
      <trkpt lat="43.21848667" lon="-6.86028833">
        <ele>479.0</ele>
        <time>2022-06-19T07:17:21.469Z</time>
      </trkpt>
      <trkpt lat="43.21848667" lon="-6.86028833">
        <ele>479.0</ele>
        <time>2022-06-19T07:17:22.456Z</time>
      </trkpt>
      <trkpt lat="43.218455" lon="-6.86024833">
        <ele>479.0</ele>
        <time>2022-06-19T07:17:23.469Z</time>
      </trkpt>
      <trkpt lat="43.218455" lon="-6.86024833">
        <ele>479.0</ele>
        <time>2022-06-19T07:17:24.460Z</time>
      </trkpt>
      <trkpt lat="43.218455" lon="-6.86019333">
        <ele>476.0</ele>
        <time>2022-06-19T07:17:25.473Z</time>
      </trkpt>
      <trkpt lat="43.218455" lon="-6.86019333">
        <ele>476.0</ele>
        <time>2022-06-19T07:17:26.472Z</time>
      </trkpt>
      <trkpt lat="43.21846167" lon="-6.86013667">
        <ele>472.0</ele>
        <time>2022-06-19T07:17:27.468Z</time>
      </trkpt>
      <trkpt lat="43.21845667" lon="-6.860115">
        <ele>471.0</ele>
        <time>2022-06-19T07:17:28.444Z</time>
      </trkpt>
      <trkpt lat="43.21845667" lon="-6.860115">
        <ele>471.0</ele>
        <time>2022-06-19T07:17:29.445Z</time>
      </trkpt>
      <trkpt lat="43.21845" lon="-6.86007">
        <ele>470.0</ele>
        <time>2022-06-19T07:17:30.459Z</time>
      </trkpt>
      <trkpt lat="43.21843833" lon="-6.86004667">
        <ele>470.0</ele>
        <time>2022-06-19T07:17:31.482Z</time>
      </trkpt>
      <trkpt lat="43.21843833" lon="-6.86004667">
        <ele>470.0</ele>
        <time>2022-06-19T07:17:32.471Z</time>
      </trkpt>
      <trkpt lat="43.21842833" lon="-6.86000333">
        <ele>469.0</ele>
        <time>2022-06-19T07:17:33.449Z</time>
      </trkpt>
      <trkpt lat="43.21842833" lon="-6.86000333">
        <ele>469.0</ele>
        <time>2022-06-19T07:17:34.444Z</time>
      </trkpt>
      <trkpt lat="43.21841833" lon="-6.85996">
        <ele>468.0</ele>
        <time>2022-06-19T07:17:35.466Z</time>
      </trkpt>
      <trkpt lat="43.21841167" lon="-6.85993667">
        <ele>467.0</ele>
        <time>2022-06-19T07:17:36.453Z</time>
      </trkpt>
      <trkpt lat="43.21841167" lon="-6.85993667">
        <ele>467.0</ele>
        <time>2022-06-19T07:17:37.456Z</time>
      </trkpt>
      <trkpt lat="43.21841667" lon="-6.85988667">
        <ele>467.0</ele>
        <time>2022-06-19T07:17:38.470Z</time>
      </trkpt>
      <trkpt lat="43.21841833" lon="-6.85985833">
        <ele>466.0</ele>
        <time>2022-06-19T07:17:39.470Z</time>
      </trkpt>
      <trkpt lat="43.21841833" lon="-6.85985833">
        <ele>466.0</ele>
        <time>2022-06-19T07:17:40.471Z</time>
      </trkpt>
      <trkpt lat="43.21841333" lon="-6.85980333">
        <ele>466.0</ele>
        <time>2022-06-19T07:17:41.454Z</time>
      </trkpt>
      <trkpt lat="43.21840833" lon="-6.859775">
        <ele>466.0</ele>
        <time>2022-06-19T07:17:42.462Z</time>
      </trkpt>
      <trkpt lat="43.21840833" lon="-6.859775">
        <ele>466.0</ele>
        <time>2022-06-19T07:17:43.444Z</time>
      </trkpt>
      <trkpt lat="43.21838833" lon="-6.85972167">
        <ele>465.0</ele>
        <time>2022-06-19T07:17:44.461Z</time>
      </trkpt>
      <trkpt lat="43.21838333" lon="-6.859695">
        <ele>465.0</ele>
        <time>2022-06-19T07:17:45.479Z</time>
      </trkpt>
      <trkpt lat="43.21838333" lon="-6.859695">
        <ele>465.0</ele>
        <time>2022-06-19T07:17:46.466Z</time>
      </trkpt>
      <trkpt lat="43.21837333" lon="-6.85964333">
        <ele>465.0</ele>
        <time>2022-06-19T07:17:47.482Z</time>
      </trkpt>
      <trkpt lat="43.21836667" lon="-6.85962167">
        <ele>465.0</ele>
        <time>2022-06-19T07:17:48.457Z</time>
      </trkpt>
      <trkpt lat="43.21836667" lon="-6.85962167">
        <ele>465.0</ele>
        <time>2022-06-19T07:17:49.459Z</time>
      </trkpt>
      <trkpt lat="43.21835" lon="-6.85957833">
        <ele>465.0</ele>
        <time>2022-06-19T07:17:50.450Z</time>
      </trkpt>
      <trkpt lat="43.21835" lon="-6.85957833">
        <ele>465.0</ele>
        <time>2022-06-19T07:17:51.452Z</time>
      </trkpt>
      <trkpt lat="43.21834333" lon="-6.859545">
        <ele>466.0</ele>
        <time>2022-06-19T07:17:52.474Z</time>
      </trkpt>
      <trkpt lat="43.21834333" lon="-6.859545">
        <ele>466.0</ele>
        <time>2022-06-19T07:17:53.460Z</time>
      </trkpt>
      <trkpt lat="43.218325" lon="-6.85950167">
        <ele>466.0</ele>
        <time>2022-06-19T07:17:54.441Z</time>
      </trkpt>
      <trkpt lat="43.21831333" lon="-6.85947833">
        <ele>467.0</ele>
        <time>2022-06-19T07:17:55.456Z</time>
      </trkpt>
      <trkpt lat="43.21831333" lon="-6.85947833">
        <ele>467.0</ele>
        <time>2022-06-19T07:17:56.473Z</time>
      </trkpt>
      <trkpt lat="43.218295" lon="-6.85942833">
        <ele>467.0</ele>
        <time>2022-06-19T07:17:57.446Z</time>
      </trkpt>
      <trkpt lat="43.218295" lon="-6.85942833">
        <ele>467.0</ele>
        <time>2022-06-19T07:17:58.468Z</time>
      </trkpt>
      <trkpt lat="43.218275" lon="-6.85937333">
        <ele>467.0</ele>
        <time>2022-06-19T07:17:59.529Z</time>
      </trkpt>
      <trkpt lat="43.218265" lon="-6.859345">
        <ele>468.0</ele>
        <time>2022-06-19T07:18:00.459Z</time>
      </trkpt>
      <trkpt lat="43.218265" lon="-6.859345">
        <ele>468.0</ele>
        <time>2022-06-19T07:18:01.464Z</time>
      </trkpt>
      <trkpt lat="43.218245" lon="-6.859295">
        <ele>468.0</ele>
        <time>2022-06-19T07:18:02.475Z</time>
      </trkpt>
      <trkpt lat="43.21823667" lon="-6.85926833">
        <ele>469.0</ele>
        <time>2022-06-19T07:18:03.473Z</time>
      </trkpt>
      <trkpt lat="43.218225" lon="-6.85924167">
        <ele>469.0</ele>
        <time>2022-06-19T07:18:04.479Z</time>
      </trkpt>
      <trkpt lat="43.218225" lon="-6.85924167">
        <ele>469.0</ele>
        <time>2022-06-19T07:18:05.468Z</time>
      </trkpt>
      <trkpt lat="43.21820333" lon="-6.85919">
        <ele>469.0</ele>
        <time>2022-06-19T07:18:06.482Z</time>
      </trkpt>
      <trkpt lat="43.21820333" lon="-6.85919">
        <ele>469.0</ele>
        <time>2022-06-19T07:18:07.457Z</time>
      </trkpt>
      <trkpt lat="43.218185" lon="-6.85914">
        <ele>470.0</ele>
        <time>2022-06-19T07:18:08.450Z</time>
      </trkpt>
      <trkpt lat="43.218185" lon="-6.85914">
        <ele>470.0</ele>
        <time>2022-06-19T07:18:09.469Z</time>
      </trkpt>
      <trkpt lat="43.21815667" lon="-6.85907833">
        <ele>470.0</ele>
        <time>2022-06-19T07:18:10.448Z</time>
      </trkpt>
      <trkpt lat="43.21815667" lon="-6.85907833">
        <ele>470.0</ele>
        <time>2022-06-19T07:18:11.447Z</time>
      </trkpt>
      <trkpt lat="43.21813667" lon="-6.859025">
        <ele>470.0</ele>
        <time>2022-06-19T07:18:12.459Z</time>
      </trkpt>
      <trkpt lat="43.21813667" lon="-6.859025">
        <ele>470.0</ele>
        <time>2022-06-19T07:18:13.478Z</time>
      </trkpt>
      <trkpt lat="43.21811167" lon="-6.85896833">
        <ele>471.0</ele>
        <time>2022-06-19T07:18:14.459Z</time>
      </trkpt>
      <trkpt lat="43.21811167" lon="-6.85896833">
        <ele>471.0</ele>
        <time>2022-06-19T07:18:15.461Z</time>
      </trkpt>
      <trkpt lat="43.21808833" lon="-6.858915">
        <ele>470.0</ele>
        <time>2022-06-19T07:18:16.471Z</time>
      </trkpt>
      <trkpt lat="43.21808833" lon="-6.858915">
        <ele>470.0</ele>
        <time>2022-06-19T07:18:17.451Z</time>
      </trkpt>
      <trkpt lat="43.21806167" lon="-6.85885833">
        <ele>470.0</ele>
        <time>2022-06-19T07:18:18.465Z</time>
      </trkpt>
      <trkpt lat="43.21806167" lon="-6.85885833">
        <ele>470.0</ele>
        <time>2022-06-19T07:18:19.449Z</time>
      </trkpt>
      <trkpt lat="43.21804333" lon="-6.85879667">
        <ele>470.0</ele>
        <time>2022-06-19T07:18:20.462Z</time>
      </trkpt>
      <trkpt lat="43.21804333" lon="-6.85879667">
        <ele>470.0</ele>
        <time>2022-06-19T07:18:21.461Z</time>
      </trkpt>
      <trkpt lat="43.218025" lon="-6.85874">
        <ele>470.0</ele>
        <time>2022-06-19T07:18:22.476Z</time>
      </trkpt>
      <trkpt lat="43.218015" lon="-6.85871">
        <ele>470.0</ele>
        <time>2022-06-19T07:18:23.445Z</time>
      </trkpt>
      <trkpt lat="43.21800833" lon="-6.85868167">
        <ele>470.0</ele>
        <time>2022-06-19T07:18:24.469Z</time>
      </trkpt>
      <trkpt lat="43.21800833" lon="-6.85868167">
        <ele>470.0</ele>
        <time>2022-06-19T07:18:25.459Z</time>
      </trkpt>
      <trkpt lat="43.217995" lon="-6.858625">
        <ele>470.0</ele>
        <time>2022-06-19T07:18:26.456Z</time>
      </trkpt>
      <trkpt lat="43.21798667" lon="-6.85860333">
        <ele>470.0</ele>
        <time>2022-06-19T07:18:27.496Z</time>
      </trkpt>
      <trkpt lat="43.21798667" lon="-6.85860333">
        <ele>470.0</ele>
        <time>2022-06-19T07:18:28.450Z</time>
      </trkpt>
      <trkpt lat="43.21796833" lon="-6.85855667">
        <ele>470.0</ele>
        <time>2022-06-19T07:18:29.461Z</time>
      </trkpt>
      <trkpt lat="43.21795667" lon="-6.85853333">
        <ele>470.0</ele>
        <time>2022-06-19T07:18:30.474Z</time>
      </trkpt>
      <trkpt lat="43.21795667" lon="-6.85853333">
        <ele>470.0</ele>
        <time>2022-06-19T07:18:31.457Z</time>
      </trkpt>
      <trkpt lat="43.21793333" lon="-6.85849333">
        <ele>471.0</ele>
        <time>2022-06-19T07:18:32.469Z</time>
      </trkpt>
      <trkpt lat="43.21793333" lon="-6.85849333">
        <ele>471.0</ele>
        <time>2022-06-19T07:18:33.466Z</time>
      </trkpt>
      <trkpt lat="43.21789833" lon="-6.858455">
        <ele>470.0</ele>
        <time>2022-06-19T07:18:34.469Z</time>
      </trkpt>
      <trkpt lat="43.21788167" lon="-6.85843667">
        <ele>470.0</ele>
        <time>2022-06-19T07:18:35.457Z</time>
      </trkpt>
      <trkpt lat="43.21788167" lon="-6.85843667">
        <ele>470.0</ele>
        <time>2022-06-19T07:18:36.441Z</time>
      </trkpt>
      <trkpt lat="43.21785" lon="-6.858415">
        <ele>470.0</ele>
        <time>2022-06-19T07:18:37.451Z</time>
      </trkpt>
      <trkpt lat="43.21785" lon="-6.858415">
        <ele>470.0</ele>
        <time>2022-06-19T07:18:38.448Z</time>
      </trkpt>
      <trkpt lat="43.21781" lon="-6.85840333">
        <ele>469.0</ele>
        <time>2022-06-19T07:18:39.470Z</time>
      </trkpt>
      <trkpt lat="43.21779333" lon="-6.8584">
        <ele>469.0</ele>
        <time>2022-06-19T07:18:40.479Z</time>
      </trkpt>
      <trkpt lat="43.21779333" lon="-6.8584">
        <ele>469.0</ele>
        <time>2022-06-19T07:18:41.444Z</time>
      </trkpt>
      <trkpt lat="43.21776" lon="-6.85839">
        <ele>469.0</ele>
        <time>2022-06-19T07:18:42.461Z</time>
      </trkpt>
      <trkpt lat="43.21776" lon="-6.85839">
        <ele>469.0</ele>
        <time>2022-06-19T07:18:43.465Z</time>
      </trkpt>
      <trkpt lat="43.217735" lon="-6.85835667">
        <ele>469.0</ele>
        <time>2022-06-19T07:18:44.441Z</time>
      </trkpt>
      <trkpt lat="43.217735" lon="-6.85835667">
        <ele>469.0</ele>
        <time>2022-06-19T07:18:45.473Z</time>
      </trkpt>
      <trkpt lat="43.21771167" lon="-6.85831833">
        <ele>469.0</ele>
        <time>2022-06-19T07:18:46.442Z</time>
      </trkpt>
      <trkpt lat="43.21771167" lon="-6.85831833">
        <ele>469.0</ele>
        <time>2022-06-19T07:18:47.479Z</time>
      </trkpt>
      <trkpt lat="43.21768667" lon="-6.85828167">
        <ele>469.0</ele>
        <time>2022-06-19T07:18:48.472Z</time>
      </trkpt>
      <trkpt lat="43.21768667" lon="-6.85828167">
        <ele>469.0</ele>
        <time>2022-06-19T07:18:49.443Z</time>
      </trkpt>
      <trkpt lat="43.21765167" lon="-6.85825333">
        <ele>469.0</ele>
        <time>2022-06-19T07:18:50.468Z</time>
      </trkpt>
      <trkpt lat="43.21765167" lon="-6.85825333">
        <ele>469.0</ele>
        <time>2022-06-19T07:18:51.441Z</time>
      </trkpt>
      <trkpt lat="43.21761833" lon="-6.85823">
        <ele>469.0</ele>
        <time>2022-06-19T07:18:52.457Z</time>
      </trkpt>
      <trkpt lat="43.21761833" lon="-6.85823">
        <ele>469.0</ele>
        <time>2022-06-19T07:18:53.538Z</time>
      </trkpt>
      <trkpt lat="43.21759167" lon="-6.8582">
        <ele>469.0</ele>
        <time>2022-06-19T07:18:54.449Z</time>
      </trkpt>
      <trkpt lat="43.21759167" lon="-6.8582">
        <ele>469.0</ele>
        <time>2022-06-19T07:18:55.443Z</time>
      </trkpt>
      <trkpt lat="43.21756333" lon="-6.858145">
        <ele>470.0</ele>
        <time>2022-06-19T07:18:56.450Z</time>
      </trkpt>
      <trkpt lat="43.21756333" lon="-6.858145">
        <ele>470.0</ele>
        <time>2022-06-19T07:18:57.441Z</time>
      </trkpt>
      <trkpt lat="43.21753333" lon="-6.85807">
        <ele>470.0</ele>
        <time>2022-06-19T07:18:58.453Z</time>
      </trkpt>
      <trkpt lat="43.21751667" lon="-6.85803833">
        <ele>471.0</ele>
        <time>2022-06-19T07:18:59.479Z</time>
      </trkpt>
      <trkpt lat="43.217505" lon="-6.85801">
        <ele>471.0</ele>
        <time>2022-06-19T07:19:00.473Z</time>
      </trkpt>
      <trkpt lat="43.217505" lon="-6.85801">
        <ele>471.0</ele>
        <time>2022-06-19T07:19:01.442Z</time>
      </trkpt>
      <trkpt lat="43.21749" lon="-6.85795167">
        <ele>472.0</ele>
        <time>2022-06-19T07:19:02.455Z</time>
      </trkpt>
      <trkpt lat="43.21748" lon="-6.85792333">
        <ele>472.0</ele>
        <time>2022-06-19T07:19:03.480Z</time>
      </trkpt>
      <trkpt lat="43.21748" lon="-6.85792333">
        <ele>472.0</ele>
        <time>2022-06-19T07:19:04.476Z</time>
      </trkpt>
      <trkpt lat="43.217455" lon="-6.85786833">
        <ele>473.0</ele>
        <time>2022-06-19T07:19:05.451Z</time>
      </trkpt>
      <trkpt lat="43.21744167" lon="-6.85783833">
        <ele>473.0</ele>
        <time>2022-06-19T07:19:06.468Z</time>
      </trkpt>
      <trkpt lat="43.21744167" lon="-6.85783833">
        <ele>473.0</ele>
        <time>2022-06-19T07:19:07.462Z</time>
      </trkpt>
      <trkpt lat="43.21742667" lon="-6.85778833">
        <ele>474.0</ele>
        <time>2022-06-19T07:19:08.476Z</time>
      </trkpt>
      <trkpt lat="43.21742667" lon="-6.85778833">
        <ele>474.0</ele>
        <time>2022-06-19T07:19:09.454Z</time>
      </trkpt>
      <trkpt lat="43.21743" lon="-6.85772833">
        <ele>474.0</ele>
        <time>2022-06-19T07:19:10.475Z</time>
      </trkpt>
      <trkpt lat="43.21741167" lon="-6.85769">
        <ele>474.0</ele>
        <time>2022-06-19T07:19:11.478Z</time>
      </trkpt>
      <trkpt lat="43.2174" lon="-6.85766">
        <ele>475.0</ele>
        <time>2022-06-19T07:19:12.455Z</time>
      </trkpt>
      <trkpt lat="43.2174" lon="-6.85766">
        <ele>475.0</ele>
        <time>2022-06-19T07:19:13.456Z</time>
      </trkpt>
      <trkpt lat="43.21739333" lon="-6.85760667">
        <ele>475.0</ele>
        <time>2022-06-19T07:19:14.468Z</time>
      </trkpt>
      <trkpt lat="43.21739333" lon="-6.85760667">
        <ele>475.0</ele>
        <time>2022-06-19T07:19:15.464Z</time>
      </trkpt>
      <trkpt lat="43.21739333" lon="-6.85756333">
        <ele>476.0</ele>
        <time>2022-06-19T07:19:16.447Z</time>
      </trkpt>
      <trkpt lat="43.21739333" lon="-6.85756333">
        <ele>476.0</ele>
        <time>2022-06-19T07:19:17.463Z</time>
      </trkpt>
      <trkpt lat="43.217425" lon="-6.85751">
        <ele>476.0</ele>
        <time>2022-06-19T07:19:18.441Z</time>
      </trkpt>
      <trkpt lat="43.217425" lon="-6.85751">
        <ele>476.0</ele>
        <time>2022-06-19T07:19:19.469Z</time>
      </trkpt>
      <trkpt lat="43.217445" lon="-6.85744333">
        <ele>477.0</ele>
        <time>2022-06-19T07:19:20.459Z</time>
      </trkpt>
      <trkpt lat="43.217445" lon="-6.85744333">
        <ele>477.0</ele>
        <time>2022-06-19T07:19:21.441Z</time>
      </trkpt>
      <trkpt lat="43.21745333" lon="-6.85738833">
        <ele>478.0</ele>
        <time>2022-06-19T07:19:22.451Z</time>
      </trkpt>
      <trkpt lat="43.21746" lon="-6.857355">
        <ele>479.0</ele>
        <time>2022-06-19T07:19:23.454Z</time>
      </trkpt>
      <trkpt lat="43.21746" lon="-6.857355">
        <ele>479.0</ele>
        <time>2022-06-19T07:19:24.441Z</time>
      </trkpt>
      <trkpt lat="43.21748167" lon="-6.85729">
        <ele>480.0</ele>
        <time>2022-06-19T07:19:25.471Z</time>
      </trkpt>
      <trkpt lat="43.21749333" lon="-6.85725667">
        <ele>480.0</ele>
        <time>2022-06-19T07:19:26.467Z</time>
      </trkpt>
      <trkpt lat="43.21749333" lon="-6.85725667">
        <ele>480.0</ele>
        <time>2022-06-19T07:19:27.444Z</time>
      </trkpt>
      <trkpt lat="43.21751167" lon="-6.85718833">
        <ele>482.0</ele>
        <time>2022-06-19T07:19:28.463Z</time>
      </trkpt>
      <trkpt lat="43.21751167" lon="-6.85718833">
        <ele>482.0</ele>
        <time>2022-06-19T07:19:29.464Z</time>
      </trkpt>
      <trkpt lat="43.21752167" lon="-6.85713167">
        <ele>482.0</ele>
        <time>2022-06-19T07:19:30.445Z</time>
      </trkpt>
      <trkpt lat="43.21752167" lon="-6.85713167">
        <ele>482.0</ele>
        <time>2022-06-19T07:19:31.460Z</time>
      </trkpt>
      <trkpt lat="43.217535" lon="-6.85706667">
        <ele>483.0</ele>
        <time>2022-06-19T07:19:32.474Z</time>
      </trkpt>
      <trkpt lat="43.217535" lon="-6.85706667">
        <ele>483.0</ele>
        <time>2022-06-19T07:19:33.456Z</time>
      </trkpt>
      <trkpt lat="43.21755167" lon="-6.85699667">
        <ele>484.0</ele>
        <time>2022-06-19T07:19:34.479Z</time>
      </trkpt>
      <trkpt lat="43.21755167" lon="-6.85699667">
        <ele>484.0</ele>
        <time>2022-06-19T07:19:35.452Z</time>
      </trkpt>
      <trkpt lat="43.21757167" lon="-6.85693167">
        <ele>485.0</ele>
        <time>2022-06-19T07:19:36.471Z</time>
      </trkpt>
      <trkpt lat="43.21758" lon="-6.856895">
        <ele>485.0</ele>
        <time>2022-06-19T07:19:37.449Z</time>
      </trkpt>
      <trkpt lat="43.21758" lon="-6.856895">
        <ele>485.0</ele>
        <time>2022-06-19T07:19:38.459Z</time>
      </trkpt>
      <trkpt lat="43.21760667" lon="-6.85683167">
        <ele>486.0</ele>
        <time>2022-06-19T07:19:39.473Z</time>
      </trkpt>
      <trkpt lat="43.21760667" lon="-6.85683167">
        <ele>486.0</ele>
        <time>2022-06-19T07:19:40.447Z</time>
      </trkpt>
      <trkpt lat="43.21763333" lon="-6.85676667">
        <ele>487.0</ele>
        <time>2022-06-19T07:19:41.480Z</time>
      </trkpt>
      <trkpt lat="43.21766" lon="-6.85672167">
        <ele>487.0</ele>
        <time>2022-06-19T07:19:42.463Z</time>
      </trkpt>
      <trkpt lat="43.21766" lon="-6.85672167">
        <ele>487.0</ele>
        <time>2022-06-19T07:19:43.460Z</time>
      </trkpt>
      <trkpt lat="43.217645" lon="-6.85666333">
        <ele>488.0</ele>
        <time>2022-06-19T07:19:44.469Z</time>
      </trkpt>
      <trkpt lat="43.217645" lon="-6.85666333">
        <ele>488.0</ele>
        <time>2022-06-19T07:19:45.451Z</time>
      </trkpt>
      <trkpt lat="43.21764833" lon="-6.85659667">
        <ele>489.0</ele>
        <time>2022-06-19T07:19:46.453Z</time>
      </trkpt>
      <trkpt lat="43.21764833" lon="-6.85659667">
        <ele>489.0</ele>
        <time>2022-06-19T07:19:47.474Z</time>
      </trkpt>
      <trkpt lat="43.21766667" lon="-6.85653333">
        <ele>489.0</ele>
        <time>2022-06-19T07:19:48.456Z</time>
      </trkpt>
      <trkpt lat="43.21766667" lon="-6.85653333">
        <ele>489.0</ele>
        <time>2022-06-19T07:19:49.451Z</time>
      </trkpt>
      <trkpt lat="43.217675" lon="-6.85648333">
        <ele>490.0</ele>
        <time>2022-06-19T07:19:50.464Z</time>
      </trkpt>
      <trkpt lat="43.21766333" lon="-6.85644333">
        <ele>490.0</ele>
        <time>2022-06-19T07:19:51.460Z</time>
      </trkpt>
      <trkpt lat="43.21766333" lon="-6.85644333">
        <ele>490.0</ele>
        <time>2022-06-19T07:19:52.470Z</time>
      </trkpt>
      <trkpt lat="43.21764333" lon="-6.85635833">
        <ele>491.0</ele>
        <time>2022-06-19T07:19:53.448Z</time>
      </trkpt>
      <trkpt lat="43.21763" lon="-6.85631667">
        <ele>492.0</ele>
        <time>2022-06-19T07:19:54.470Z</time>
      </trkpt>
      <trkpt lat="43.21763" lon="-6.85631667">
        <ele>492.0</ele>
        <time>2022-06-19T07:19:55.468Z</time>
      </trkpt>
      <trkpt lat="43.21759667" lon="-6.85623667">
        <ele>492.0</ele>
        <time>2022-06-19T07:19:56.442Z</time>
      </trkpt>
      <trkpt lat="43.21758333" lon="-6.85619333">
        <ele>493.0</ele>
        <time>2022-06-19T07:19:57.461Z</time>
      </trkpt>
      <trkpt lat="43.21758333" lon="-6.85619333">
        <ele>493.0</ele>
        <time>2022-06-19T07:19:58.470Z</time>
      </trkpt>
      <trkpt lat="43.21756167" lon="-6.85610833">
        <ele>493.0</ele>
        <time>2022-06-19T07:19:59.455Z</time>
      </trkpt>
      <trkpt lat="43.21756167" lon="-6.85610833">
        <ele>493.0</ele>
        <time>2022-06-19T07:20:00.451Z</time>
      </trkpt>
      <trkpt lat="43.21754667" lon="-6.85606833">
        <ele>493.0</ele>
        <time>2022-06-19T07:20:01.455Z</time>
      </trkpt>
      <trkpt lat="43.21752667" lon="-6.85600167">
        <ele>494.0</ele>
        <time>2022-06-19T07:20:02.443Z</time>
      </trkpt>
      <trkpt lat="43.21752667" lon="-6.85600167">
        <ele>494.0</ele>
        <time>2022-06-19T07:20:03.447Z</time>
      </trkpt>
      <trkpt lat="43.21752167" lon="-6.85592667">
        <ele>494.0</ele>
        <time>2022-06-19T07:20:04.459Z</time>
      </trkpt>
      <trkpt lat="43.21752167" lon="-6.85592667">
        <ele>494.0</ele>
        <time>2022-06-19T07:20:05.454Z</time>
      </trkpt>
      <trkpt lat="43.21752667" lon="-6.85585833">
        <ele>495.0</ele>
        <time>2022-06-19T07:20:06.452Z</time>
      </trkpt>
      <trkpt lat="43.21752667" lon="-6.85585833">
        <ele>495.0</ele>
        <time>2022-06-19T07:20:07.457Z</time>
      </trkpt>
      <trkpt lat="43.21753" lon="-6.85578">
        <ele>496.0</ele>
        <time>2022-06-19T07:20:08.479Z</time>
      </trkpt>
      <trkpt lat="43.21753" lon="-6.85578">
        <ele>496.0</ele>
        <time>2022-06-19T07:20:09.472Z</time>
      </trkpt>
      <trkpt lat="43.217535" lon="-6.85570167">
        <ele>497.0</ele>
        <time>2022-06-19T07:20:10.448Z</time>
      </trkpt>
      <trkpt lat="43.217535" lon="-6.85570167">
        <ele>497.0</ele>
        <time>2022-06-19T07:20:11.461Z</time>
      </trkpt>
      <trkpt lat="43.21755667" lon="-6.85563">
        <ele>498.0</ele>
        <time>2022-06-19T07:20:12.474Z</time>
      </trkpt>
      <trkpt lat="43.21755667" lon="-6.85563">
        <ele>498.0</ele>
        <time>2022-06-19T07:20:13.463Z</time>
      </trkpt>
      <trkpt lat="43.21763167" lon="-6.85554333">
        <ele>499.0</ele>
        <time>2022-06-19T07:20:14.475Z</time>
      </trkpt>
      <trkpt lat="43.21763167" lon="-6.85554333">
        <ele>499.0</ele>
        <time>2022-06-19T07:20:15.452Z</time>
      </trkpt>
      <trkpt lat="43.21763333" lon="-6.85546167">
        <ele>500.0</ele>
        <time>2022-06-19T07:20:16.469Z</time>
      </trkpt>
      <trkpt lat="43.21762833" lon="-6.85541833">
        <ele>500.0</ele>
        <time>2022-06-19T07:20:17.465Z</time>
      </trkpt>
      <trkpt lat="43.21762833" lon="-6.85541833">
        <ele>500.0</ele>
        <time>2022-06-19T07:20:18.463Z</time>
      </trkpt>
      <trkpt lat="43.21762333" lon="-6.85532">
        <ele>500.0</ele>
        <time>2022-06-19T07:20:19.453Z</time>
      </trkpt>
      <trkpt lat="43.21762333" lon="-6.85532">
        <ele>500.0</ele>
        <time>2022-06-19T07:20:20.453Z</time>
      </trkpt>
      <trkpt lat="43.21758833" lon="-6.855225">
        <ele>497.0</ele>
        <time>2022-06-19T07:20:21.464Z</time>
      </trkpt>
      <trkpt lat="43.21757667" lon="-6.85518333">
        <ele>496.0</ele>
        <time>2022-06-19T07:20:22.484Z</time>
      </trkpt>
      <trkpt lat="43.217565" lon="-6.85515">
        <ele>495.0</ele>
        <time>2022-06-19T07:20:23.450Z</time>
      </trkpt>
      <trkpt lat="43.21753333" lon="-6.85511667">
        <ele>494.0</ele>
        <time>2022-06-19T07:20:24.476Z</time>
      </trkpt>
      <trkpt lat="43.21753333" lon="-6.85511667">
        <ele>494.0</ele>
        <time>2022-06-19T07:20:25.464Z</time>
      </trkpt>
      <trkpt lat="43.21746167" lon="-6.85506">
        <ele>491.0</ele>
        <time>2022-06-19T07:20:26.455Z</time>
      </trkpt>
      <trkpt lat="43.21743" lon="-6.85504333">
        <ele>490.0</ele>
        <time>2022-06-19T07:20:27.468Z</time>
      </trkpt>
      <trkpt lat="43.21743" lon="-6.85504333">
        <ele>490.0</ele>
        <time>2022-06-19T07:20:28.460Z</time>
      </trkpt>
      <trkpt lat="43.21737" lon="-6.85503">
        <ele>488.0</ele>
        <time>2022-06-19T07:20:29.445Z</time>
      </trkpt>
      <trkpt lat="43.21734167" lon="-6.85503">
        <ele>488.0</ele>
        <time>2022-06-19T07:20:30.453Z</time>
      </trkpt>
      <trkpt lat="43.21734167" lon="-6.85503">
        <ele>488.0</ele>
        <time>2022-06-19T07:20:31.454Z</time>
      </trkpt>
      <trkpt lat="43.217285" lon="-6.85504333">
        <ele>487.0</ele>
        <time>2022-06-19T07:20:32.478Z</time>
      </trkpt>
      <trkpt lat="43.21725667" lon="-6.855055">
        <ele>486.0</ele>
        <time>2022-06-19T07:20:33.444Z</time>
      </trkpt>
      <trkpt lat="43.21723333" lon="-6.855075">
        <ele>486.0</ele>
        <time>2022-06-19T07:20:34.475Z</time>
      </trkpt>
      <trkpt lat="43.21723333" lon="-6.855075">
        <ele>486.0</ele>
        <time>2022-06-19T07:20:35.445Z</time>
      </trkpt>
      <trkpt lat="43.21719167" lon="-6.85511667">
        <ele>484.0</ele>
        <time>2022-06-19T07:20:36.457Z</time>
      </trkpt>
      <trkpt lat="43.21719167" lon="-6.85511667">
        <ele>484.0</ele>
        <time>2022-06-19T07:20:37.463Z</time>
      </trkpt>
      <trkpt lat="43.21715333" lon="-6.85517">
        <ele>483.0</ele>
        <time>2022-06-19T07:20:38.442Z</time>
      </trkpt>
      <trkpt lat="43.21715333" lon="-6.85517">
        <ele>483.0</ele>
        <time>2022-06-19T07:20:39.460Z</time>
      </trkpt>
      <trkpt lat="43.21713" lon="-6.85523333">
        <ele>482.0</ele>
        <time>2022-06-19T07:20:40.475Z</time>
      </trkpt>
      <trkpt lat="43.21712333" lon="-6.85526667">
        <ele>482.0</ele>
        <time>2022-06-19T07:20:41.469Z</time>
      </trkpt>
      <trkpt lat="43.21712333" lon="-6.85526667">
        <ele>482.0</ele>
        <time>2022-06-19T07:20:42.476Z</time>
      </trkpt>
      <trkpt lat="43.21711833" lon="-6.855335">
        <ele>482.0</ele>
        <time>2022-06-19T07:20:43.461Z</time>
      </trkpt>
      <trkpt lat="43.21711833" lon="-6.855335">
        <ele>482.0</ele>
        <time>2022-06-19T07:20:44.464Z</time>
      </trkpt>
      <trkpt lat="43.21711" lon="-6.85540333">
        <ele>482.0</ele>
        <time>2022-06-19T07:20:45.449Z</time>
      </trkpt>
      <trkpt lat="43.21711333" lon="-6.85543333">
        <ele>482.0</ele>
        <time>2022-06-19T07:20:46.450Z</time>
      </trkpt>
      <trkpt lat="43.21711333" lon="-6.85543333">
        <ele>482.0</ele>
        <time>2022-06-19T07:20:47.468Z</time>
      </trkpt>
      <trkpt lat="43.21712667" lon="-6.85548333">
        <ele>483.0</ele>
        <time>2022-06-19T07:20:48.477Z</time>
      </trkpt>
      <trkpt lat="43.21712667" lon="-6.85548333">
        <ele>483.0</ele>
        <time>2022-06-19T07:20:49.479Z</time>
      </trkpt>
      <trkpt lat="43.21714667" lon="-6.85553">
        <ele>483.0</ele>
        <time>2022-06-19T07:20:50.452Z</time>
      </trkpt>
      <trkpt lat="43.21714667" lon="-6.85553">
        <ele>483.0</ele>
        <time>2022-06-19T07:20:51.469Z</time>
      </trkpt>
      <trkpt lat="43.21715667" lon="-6.85558">
        <ele>484.0</ele>
        <time>2022-06-19T07:20:52.459Z</time>
      </trkpt>
      <trkpt lat="43.21715667" lon="-6.85558">
        <ele>484.0</ele>
        <time>2022-06-19T07:20:53.466Z</time>
      </trkpt>
      <trkpt lat="43.217175" lon="-6.85562667">
        <ele>484.0</ele>
        <time>2022-06-19T07:20:54.474Z</time>
      </trkpt>
      <trkpt lat="43.217175" lon="-6.85562667">
        <ele>484.0</ele>
        <time>2022-06-19T07:20:55.448Z</time>
      </trkpt>
      <trkpt lat="43.21719667" lon="-6.85567167">
        <ele>485.0</ele>
        <time>2022-06-19T07:20:56.479Z</time>
      </trkpt>
      <trkpt lat="43.21719667" lon="-6.85567167">
        <ele>485.0</ele>
        <time>2022-06-19T07:20:57.447Z</time>
      </trkpt>
      <trkpt lat="43.217215" lon="-6.85571833">
        <ele>485.0</ele>
        <time>2022-06-19T07:20:58.459Z</time>
      </trkpt>
      <trkpt lat="43.217215" lon="-6.85571833">
        <ele>485.0</ele>
        <time>2022-06-19T07:20:59.442Z</time>
      </trkpt>
      <trkpt lat="43.217225" lon="-6.85577667">
        <ele>486.0</ele>
        <time>2022-06-19T07:21:00.446Z</time>
      </trkpt>
      <trkpt lat="43.217225" lon="-6.85577667">
        <ele>486.0</ele>
        <time>2022-06-19T07:21:01.446Z</time>
      </trkpt>
      <trkpt lat="43.217225" lon="-6.85577667">
        <ele>486.0</ele>
        <time>2022-06-19T07:21:02.521Z</time>
      </trkpt>
      <trkpt lat="43.21723833" lon="-6.85583667">
        <ele>486.0</ele>
        <time>2022-06-19T07:21:03.466Z</time>
      </trkpt>
      <trkpt lat="43.21725" lon="-6.85589333">
        <ele>487.0</ele>
        <time>2022-06-19T07:21:04.462Z</time>
      </trkpt>
      <trkpt lat="43.21725" lon="-6.85589333">
        <ele>487.0</ele>
        <time>2022-06-19T07:21:05.473Z</time>
      </trkpt>
      <trkpt lat="43.217265" lon="-6.85594667">
        <ele>486.0</ele>
        <time>2022-06-19T07:21:06.450Z</time>
      </trkpt>
      <trkpt lat="43.21727167" lon="-6.85597667">
        <ele>487.0</ele>
        <time>2022-06-19T07:21:07.448Z</time>
      </trkpt>
      <trkpt lat="43.21727167" lon="-6.85597667">
        <ele>487.0</ele>
        <time>2022-06-19T07:21:08.458Z</time>
      </trkpt>
      <trkpt lat="43.21727833" lon="-6.856035">
        <ele>487.0</ele>
        <time>2022-06-19T07:21:09.469Z</time>
      </trkpt>
      <trkpt lat="43.21727833" lon="-6.856035">
        <ele>487.0</ele>
        <time>2022-06-19T07:21:10.446Z</time>
      </trkpt>
      <trkpt lat="43.21729167" lon="-6.85609333">
        <ele>487.0</ele>
        <time>2022-06-19T07:21:11.466Z</time>
      </trkpt>
      <trkpt lat="43.21729833" lon="-6.85612167">
        <ele>487.0</ele>
        <time>2022-06-19T07:21:12.481Z</time>
      </trkpt>
      <trkpt lat="43.21729833" lon="-6.85612167">
        <ele>487.0</ele>
        <time>2022-06-19T07:21:13.451Z</time>
      </trkpt>
      <trkpt lat="43.21731" lon="-6.85617833">
        <ele>488.0</ele>
        <time>2022-06-19T07:21:14.464Z</time>
      </trkpt>
      <trkpt lat="43.21731" lon="-6.85617833">
        <ele>488.0</ele>
        <time>2022-06-19T07:21:15.471Z</time>
      </trkpt>
      <trkpt lat="43.217325" lon="-6.85625333">
        <ele>488.0</ele>
        <time>2022-06-19T07:21:16.483Z</time>
      </trkpt>
      <trkpt lat="43.21733" lon="-6.856285">
        <ele>488.0</ele>
        <time>2022-06-19T07:21:17.474Z</time>
      </trkpt>
      <trkpt lat="43.21732833" lon="-6.85632167">
        <ele>488.0</ele>
        <time>2022-06-19T07:21:18.474Z</time>
      </trkpt>
      <trkpt lat="43.21732833" lon="-6.85632167">
        <ele>488.0</ele>
        <time>2022-06-19T07:21:19.454Z</time>
      </trkpt>
      <trkpt lat="43.21732833" lon="-6.856385">
        <ele>488.0</ele>
        <time>2022-06-19T07:21:20.478Z</time>
      </trkpt>
      <trkpt lat="43.21733333" lon="-6.85641833">
        <ele>488.0</ele>
        <time>2022-06-19T07:21:21.448Z</time>
      </trkpt>
      <trkpt lat="43.21733667" lon="-6.85644833">
        <ele>488.0</ele>
        <time>2022-06-19T07:21:22.454Z</time>
      </trkpt>
      <trkpt lat="43.21733667" lon="-6.85644833">
        <ele>488.0</ele>
        <time>2022-06-19T07:21:23.442Z</time>
      </trkpt>
      <trkpt lat="43.21735333" lon="-6.85652">
        <ele>488.0</ele>
        <time>2022-06-19T07:21:24.458Z</time>
      </trkpt>
      <trkpt lat="43.21735333" lon="-6.85652">
        <ele>488.0</ele>
        <time>2022-06-19T07:21:25.456Z</time>
      </trkpt>
      <trkpt lat="43.217365" lon="-6.85659167">
        <ele>488.0</ele>
        <time>2022-06-19T07:21:26.469Z</time>
      </trkpt>
      <trkpt lat="43.21737" lon="-6.856625">
        <ele>488.0</ele>
        <time>2022-06-19T07:21:27.463Z</time>
      </trkpt>
      <trkpt lat="43.21737" lon="-6.856625">
        <ele>488.0</ele>
        <time>2022-06-19T07:21:28.444Z</time>
      </trkpt>
      <trkpt lat="43.21737333" lon="-6.85669167">
        <ele>487.0</ele>
        <time>2022-06-19T07:21:29.460Z</time>
      </trkpt>
      <trkpt lat="43.21737167" lon="-6.85672167">
        <ele>487.0</ele>
        <time>2022-06-19T07:21:30.469Z</time>
      </trkpt>
      <trkpt lat="43.21737167" lon="-6.85672167">
        <ele>487.0</ele>
        <time>2022-06-19T07:21:31.452Z</time>
      </trkpt>
      <trkpt lat="43.21736667" lon="-6.85679333">
        <ele>487.0</ele>
        <time>2022-06-19T07:21:32.462Z</time>
      </trkpt>
      <trkpt lat="43.21736667" lon="-6.85679333">
        <ele>487.0</ele>
        <time>2022-06-19T07:21:33.452Z</time>
      </trkpt>
      <trkpt lat="43.21735667" lon="-6.85685667">
        <ele>487.0</ele>
        <time>2022-06-19T07:21:34.449Z</time>
      </trkpt>
      <trkpt lat="43.21735667" lon="-6.85685667">
        <ele>487.0</ele>
        <time>2022-06-19T07:21:35.447Z</time>
      </trkpt>
      <trkpt lat="43.21734667" lon="-6.85692667">
        <ele>487.0</ele>
        <time>2022-06-19T07:21:36.465Z</time>
      </trkpt>
      <trkpt lat="43.21733833" lon="-6.856955">
        <ele>487.0</ele>
        <time>2022-06-19T07:21:37.458Z</time>
      </trkpt>
      <trkpt lat="43.21733833" lon="-6.856955">
        <ele>487.0</ele>
        <time>2022-06-19T07:21:38.470Z</time>
      </trkpt>
      <trkpt lat="43.21731667" lon="-6.85701333">
        <ele>487.0</ele>
        <time>2022-06-19T07:21:39.448Z</time>
      </trkpt>
      <trkpt lat="43.21731667" lon="-6.85701333">
        <ele>487.0</ele>
        <time>2022-06-19T07:21:40.473Z</time>
      </trkpt>
      <trkpt lat="43.21729833" lon="-6.85708">
        <ele>486.0</ele>
        <time>2022-06-19T07:21:41.475Z</time>
      </trkpt>
      <trkpt lat="43.21728667" lon="-6.85710667">
        <ele>486.0</ele>
        <time>2022-06-19T07:21:42.484Z</time>
      </trkpt>
      <trkpt lat="43.21728667" lon="-6.85710667">
        <ele>486.0</ele>
        <time>2022-06-19T07:21:43.449Z</time>
      </trkpt>
      <trkpt lat="43.21726167" lon="-6.85717333">
        <ele>486.0</ele>
        <time>2022-06-19T07:21:44.460Z</time>
      </trkpt>
      <trkpt lat="43.21726167" lon="-6.85717333">
        <ele>486.0</ele>
        <time>2022-06-19T07:21:45.453Z</time>
      </trkpt>
      <trkpt lat="43.21724333" lon="-6.85725167">
        <ele>485.0</ele>
        <time>2022-06-19T07:21:46.468Z</time>
      </trkpt>
      <trkpt lat="43.21724333" lon="-6.85725167">
        <ele>485.0</ele>
        <time>2022-06-19T07:21:47.453Z</time>
      </trkpt>
      <trkpt lat="43.21722" lon="-6.857315">
        <ele>485.0</ele>
        <time>2022-06-19T07:21:48.465Z</time>
      </trkpt>
      <trkpt lat="43.21722" lon="-6.857315">
        <ele>485.0</ele>
        <time>2022-06-19T07:21:49.472Z</time>
      </trkpt>
      <trkpt lat="43.2172" lon="-6.85737167">
        <ele>485.0</ele>
        <time>2022-06-19T07:21:50.444Z</time>
      </trkpt>
      <trkpt lat="43.2172" lon="-6.85737167">
        <ele>485.0</ele>
        <time>2022-06-19T07:21:51.442Z</time>
      </trkpt>
      <trkpt lat="43.21718333" lon="-6.857435">
        <ele>484.0</ele>
        <time>2022-06-19T07:21:52.456Z</time>
      </trkpt>
      <trkpt lat="43.21718333" lon="-6.857435">
        <ele>484.0</ele>
        <time>2022-06-19T07:21:53.441Z</time>
      </trkpt>
      <trkpt lat="43.217155" lon="-6.85748333">
        <ele>484.0</ele>
        <time>2022-06-19T07:21:54.452Z</time>
      </trkpt>
      <trkpt lat="43.217155" lon="-6.85748333">
        <ele>484.0</ele>
        <time>2022-06-19T07:21:55.468Z</time>
      </trkpt>
      <trkpt lat="43.21713667" lon="-6.85755667">
        <ele>483.0</ele>
        <time>2022-06-19T07:21:56.478Z</time>
      </trkpt>
      <trkpt lat="43.21712333" lon="-6.85758167">
        <ele>483.0</ele>
        <time>2022-06-19T07:21:57.453Z</time>
      </trkpt>
      <trkpt lat="43.21712333" lon="-6.85758167">
        <ele>483.0</ele>
        <time>2022-06-19T07:21:58.449Z</time>
      </trkpt>
      <trkpt lat="43.21708" lon="-6.85762">
        <ele>483.0</ele>
        <time>2022-06-19T07:21:59.466Z</time>
      </trkpt>
      <trkpt lat="43.21708" lon="-6.85762">
        <ele>483.0</ele>
        <time>2022-06-19T07:22:00.449Z</time>
      </trkpt>
      <trkpt lat="43.21707167" lon="-6.85769667">
        <ele>482.0</ele>
        <time>2022-06-19T07:22:01.472Z</time>
      </trkpt>
      <trkpt lat="43.21707167" lon="-6.85769667">
        <ele>482.0</ele>
        <time>2022-06-19T07:22:02.445Z</time>
      </trkpt>
      <trkpt lat="43.21710667" lon="-6.85781667">
        <ele>483.0</ele>
        <time>2022-06-19T07:22:03.457Z</time>
      </trkpt>
      <trkpt lat="43.21711167" lon="-6.85786">
        <ele>483.0</ele>
        <time>2022-06-19T07:22:04.466Z</time>
      </trkpt>
      <trkpt lat="43.21711167" lon="-6.85789833">
        <ele>483.0</ele>
        <time>2022-06-19T07:22:05.458Z</time>
      </trkpt>
      <trkpt lat="43.21711167" lon="-6.857935">
        <ele>483.0</ele>
        <time>2022-06-19T07:22:06.471Z</time>
      </trkpt>
      <trkpt lat="43.21711167" lon="-6.857935">
        <ele>483.0</ele>
        <time>2022-06-19T07:22:07.453Z</time>
      </trkpt>
      <trkpt lat="43.21711667" lon="-6.85801333">
        <ele>483.0</ele>
        <time>2022-06-19T07:22:08.464Z</time>
      </trkpt>
      <trkpt lat="43.21711667" lon="-6.85801333">
        <ele>483.0</ele>
        <time>2022-06-19T07:22:09.455Z</time>
      </trkpt>
      <trkpt lat="43.21711" lon="-6.85808167">
        <ele>483.0</ele>
        <time>2022-06-19T07:22:10.473Z</time>
      </trkpt>
      <trkpt lat="43.21711" lon="-6.85808167">
        <ele>483.0</ele>
        <time>2022-06-19T07:22:11.461Z</time>
      </trkpt>
      <trkpt lat="43.21711167" lon="-6.85815167">
        <ele>484.0</ele>
        <time>2022-06-19T07:22:12.472Z</time>
      </trkpt>
      <trkpt lat="43.21711167" lon="-6.85815167">
        <ele>484.0</ele>
        <time>2022-06-19T07:22:13.442Z</time>
      </trkpt>
      <trkpt lat="43.21711167" lon="-6.85822333">
        <ele>484.0</ele>
        <time>2022-06-19T07:22:14.460Z</time>
      </trkpt>
      <trkpt lat="43.21711167" lon="-6.85822333">
        <ele>484.0</ele>
        <time>2022-06-19T07:22:15.464Z</time>
      </trkpt>
      <trkpt lat="43.217115" lon="-6.85829167">
        <ele>484.0</ele>
        <time>2022-06-19T07:22:16.444Z</time>
      </trkpt>
      <trkpt lat="43.217115" lon="-6.85829167">
        <ele>484.0</ele>
        <time>2022-06-19T07:22:17.467Z</time>
      </trkpt>
      <trkpt lat="43.21707333" lon="-6.85831167">
        <ele>484.0</ele>
        <time>2022-06-19T07:22:18.479Z</time>
      </trkpt>
      <trkpt lat="43.21707333" lon="-6.85831167">
        <ele>484.0</ele>
        <time>2022-06-19T07:22:19.461Z</time>
      </trkpt>
      <trkpt lat="43.21708333" lon="-6.85835333">
        <ele>484.0</ele>
        <time>2022-06-19T07:22:20.478Z</time>
      </trkpt>
      <trkpt lat="43.21709333" lon="-6.85837667">
        <ele>484.0</ele>
        <time>2022-06-19T07:22:21.467Z</time>
      </trkpt>
      <trkpt lat="43.21709333" lon="-6.85837667">
        <ele>484.0</ele>
        <time>2022-06-19T07:22:22.456Z</time>
      </trkpt>
      <trkpt lat="43.21712" lon="-6.85842333">
        <ele>484.0</ele>
        <time>2022-06-19T07:22:23.470Z</time>
      </trkpt>
      <trkpt lat="43.21713667" lon="-6.85844667">
        <ele>484.0</ele>
        <time>2022-06-19T07:22:24.463Z</time>
      </trkpt>
      <trkpt lat="43.21713667" lon="-6.85844667">
        <ele>484.0</ele>
        <time>2022-06-19T07:22:25.457Z</time>
      </trkpt>
      <trkpt lat="43.21718" lon="-6.85850167">
        <ele>485.0</ele>
        <time>2022-06-19T07:22:26.444Z</time>
      </trkpt>
      <trkpt lat="43.2172" lon="-6.85852333">
        <ele>485.0</ele>
        <time>2022-06-19T07:22:27.477Z</time>
      </trkpt>
      <trkpt lat="43.2172" lon="-6.85852333">
        <ele>485.0</ele>
        <time>2022-06-19T07:22:28.447Z</time>
      </trkpt>
      <trkpt lat="43.21724667" lon="-6.85859167">
        <ele>486.0</ele>
        <time>2022-06-19T07:22:29.482Z</time>
      </trkpt>
      <trkpt lat="43.21724667" lon="-6.85859167">
        <ele>486.0</ele>
        <time>2022-06-19T07:22:30.448Z</time>
      </trkpt>
      <trkpt lat="43.21728" lon="-6.85865">
        <ele>487.0</ele>
        <time>2022-06-19T07:22:31.460Z</time>
      </trkpt>
      <trkpt lat="43.21728" lon="-6.85865">
        <ele>487.0</ele>
        <time>2022-06-19T07:22:32.467Z</time>
      </trkpt>
      <trkpt lat="43.21731" lon="-6.85871833">
        <ele>488.0</ele>
        <time>2022-06-19T07:22:33.485Z</time>
      </trkpt>
      <trkpt lat="43.21731" lon="-6.85871833">
        <ele>488.0</ele>
        <time>2022-06-19T07:22:34.471Z</time>
      </trkpt>
      <trkpt lat="43.21733167" lon="-6.858785">
        <ele>488.0</ele>
        <time>2022-06-19T07:22:35.443Z</time>
      </trkpt>
      <trkpt lat="43.21733167" lon="-6.858785">
        <ele>488.0</ele>
        <time>2022-06-19T07:22:36.467Z</time>
      </trkpt>
      <trkpt lat="43.21734667" lon="-6.85885667">
        <ele>489.0</ele>
        <time>2022-06-19T07:22:37.480Z</time>
      </trkpt>
      <trkpt lat="43.21734667" lon="-6.85885667">
        <ele>489.0</ele>
        <time>2022-06-19T07:22:38.474Z</time>
      </trkpt>
      <trkpt lat="43.21735333" lon="-6.85892333">
        <ele>489.0</ele>
        <time>2022-06-19T07:22:39.449Z</time>
      </trkpt>
      <trkpt lat="43.21735333" lon="-6.85892333">
        <ele>489.0</ele>
        <time>2022-06-19T07:22:40.473Z</time>
      </trkpt>
      <trkpt lat="43.21735167" lon="-6.858995">
        <ele>490.0</ele>
        <time>2022-06-19T07:22:41.441Z</time>
      </trkpt>
      <trkpt lat="43.21735" lon="-6.85902667">
        <ele>490.0</ele>
        <time>2022-06-19T07:22:42.458Z</time>
      </trkpt>
      <trkpt lat="43.217355" lon="-6.85906333">
        <ele>491.0</ele>
        <time>2022-06-19T07:22:43.469Z</time>
      </trkpt>
      <trkpt lat="43.217355" lon="-6.85906333">
        <ele>491.0</ele>
        <time>2022-06-19T07:22:44.450Z</time>
      </trkpt>
      <trkpt lat="43.21736333" lon="-6.85912833">
        <ele>491.0</ele>
        <time>2022-06-19T07:22:45.443Z</time>
      </trkpt>
      <trkpt lat="43.21736333" lon="-6.85912833">
        <ele>491.0</ele>
        <time>2022-06-19T07:22:46.443Z</time>
      </trkpt>
      <trkpt lat="43.21738" lon="-6.85919667">
        <ele>492.0</ele>
        <time>2022-06-19T07:22:47.450Z</time>
      </trkpt>
      <trkpt lat="43.21738167" lon="-6.85923">
        <ele>492.0</ele>
        <time>2022-06-19T07:22:48.469Z</time>
      </trkpt>
      <trkpt lat="43.21738167" lon="-6.85923">
        <ele>492.0</ele>
        <time>2022-06-19T07:22:49.470Z</time>
      </trkpt>
      <trkpt lat="43.21739333" lon="-6.85929167">
        <ele>492.0</ele>
        <time>2022-06-19T07:22:50.458Z</time>
      </trkpt>
      <trkpt lat="43.21739333" lon="-6.85929167">
        <ele>492.0</ele>
        <time>2022-06-19T07:22:51.477Z</time>
      </trkpt>
      <trkpt lat="43.217415" lon="-6.85935">
        <ele>493.0</ele>
        <time>2022-06-19T07:22:52.452Z</time>
      </trkpt>
      <trkpt lat="43.21742667" lon="-6.85938">
        <ele>493.0</ele>
        <time>2022-06-19T07:22:53.481Z</time>
      </trkpt>
      <trkpt lat="43.21742667" lon="-6.85938">
        <ele>493.0</ele>
        <time>2022-06-19T07:22:54.476Z</time>
      </trkpt>
      <trkpt lat="43.21745833" lon="-6.859425">
        <ele>493.0</ele>
        <time>2022-06-19T07:22:55.458Z</time>
      </trkpt>
      <trkpt lat="43.21745833" lon="-6.859425">
        <ele>493.0</ele>
        <time>2022-06-19T07:22:56.443Z</time>
      </trkpt>
      <trkpt lat="43.21750333" lon="-6.85947">
        <ele>494.0</ele>
        <time>2022-06-19T07:22:57.469Z</time>
      </trkpt>
      <trkpt lat="43.21752667" lon="-6.85948833">
        <ele>494.0</ele>
        <time>2022-06-19T07:22:58.474Z</time>
      </trkpt>
      <trkpt lat="43.21752667" lon="-6.85948833">
        <ele>494.0</ele>
        <time>2022-06-19T07:22:59.453Z</time>
      </trkpt>
      <trkpt lat="43.21757" lon="-6.85954">
        <ele>494.0</ele>
        <time>2022-06-19T07:23:00.455Z</time>
      </trkpt>
      <trkpt lat="43.21757" lon="-6.85954">
        <ele>494.0</ele>
        <time>2022-06-19T07:23:01.445Z</time>
      </trkpt>
      <trkpt lat="43.21760333" lon="-6.85959333">
        <ele>495.0</ele>
        <time>2022-06-19T07:23:02.470Z</time>
      </trkpt>
      <trkpt lat="43.21760333" lon="-6.85959333">
        <ele>495.0</ele>
        <time>2022-06-19T07:23:03.457Z</time>
      </trkpt>
      <trkpt lat="43.21763667" lon="-6.85965833">
        <ele>495.0</ele>
        <time>2022-06-19T07:23:04.476Z</time>
      </trkpt>
      <trkpt lat="43.21763667" lon="-6.85965833">
        <ele>495.0</ele>
        <time>2022-06-19T07:23:05.461Z</time>
      </trkpt>
      <trkpt lat="43.21766333" lon="-6.85971667">
        <ele>495.0</ele>
        <time>2022-06-19T07:23:06.458Z</time>
      </trkpt>
      <trkpt lat="43.21766333" lon="-6.85971667">
        <ele>495.0</ele>
        <time>2022-06-19T07:23:07.452Z</time>
      </trkpt>
      <trkpt lat="43.217695" lon="-6.85977333">
        <ele>495.0</ele>
        <time>2022-06-19T07:23:08.482Z</time>
      </trkpt>
      <trkpt lat="43.217695" lon="-6.85977333">
        <ele>495.0</ele>
        <time>2022-06-19T07:23:09.443Z</time>
      </trkpt>
      <trkpt lat="43.21772167" lon="-6.859835">
        <ele>496.0</ele>
        <time>2022-06-19T07:23:10.457Z</time>
      </trkpt>
      <trkpt lat="43.21772167" lon="-6.859835">
        <ele>496.0</ele>
        <time>2022-06-19T07:23:11.451Z</time>
      </trkpt>
      <trkpt lat="43.21774" lon="-6.85989667">
        <ele>496.0</ele>
        <time>2022-06-19T07:23:12.482Z</time>
      </trkpt>
      <trkpt lat="43.21774" lon="-6.85989667">
        <ele>496.0</ele>
        <time>2022-06-19T07:23:13.471Z</time>
      </trkpt>
      <trkpt lat="43.21775667" lon="-6.85996833">
        <ele>497.0</ele>
        <time>2022-06-19T07:23:14.462Z</time>
      </trkpt>
      <trkpt lat="43.21775667" lon="-6.85996833">
        <ele>497.0</ele>
        <time>2022-06-19T07:23:15.444Z</time>
      </trkpt>
      <trkpt lat="43.21777167" lon="-6.86004333">
        <ele>497.0</ele>
        <time>2022-06-19T07:23:16.459Z</time>
      </trkpt>
      <trkpt lat="43.21777167" lon="-6.86004333">
        <ele>497.0</ele>
        <time>2022-06-19T07:23:17.446Z</time>
      </trkpt>
      <trkpt lat="43.21778333" lon="-6.860115">
        <ele>497.0</ele>
        <time>2022-06-19T07:23:18.459Z</time>
      </trkpt>
      <trkpt lat="43.21778333" lon="-6.860115">
        <ele>497.0</ele>
        <time>2022-06-19T07:23:19.445Z</time>
      </trkpt>
      <trkpt lat="43.21779833" lon="-6.86019">
        <ele>497.0</ele>
        <time>2022-06-19T07:23:20.457Z</time>
      </trkpt>
      <trkpt lat="43.21779833" lon="-6.86019">
        <ele>497.0</ele>
        <time>2022-06-19T07:23:21.459Z</time>
      </trkpt>
      <trkpt lat="43.21780833" lon="-6.86027333">
        <ele>498.0</ele>
        <time>2022-06-19T07:23:22.469Z</time>
      </trkpt>
      <trkpt lat="43.21780833" lon="-6.86031333">
        <ele>498.0</ele>
        <time>2022-06-19T07:23:23.444Z</time>
      </trkpt>
      <trkpt lat="43.21780833" lon="-6.86031333">
        <ele>498.0</ele>
        <time>2022-06-19T07:23:24.465Z</time>
      </trkpt>
      <trkpt lat="43.217815" lon="-6.860395">
        <ele>498.0</ele>
        <time>2022-06-19T07:23:25.449Z</time>
      </trkpt>
      <trkpt lat="43.217815" lon="-6.860395">
        <ele>498.0</ele>
        <time>2022-06-19T07:23:26.445Z</time>
      </trkpt>
      <trkpt lat="43.21780333" lon="-6.86046167">
        <ele>499.0</ele>
        <time>2022-06-19T07:23:27.457Z</time>
      </trkpt>
      <trkpt lat="43.217795" lon="-6.86048667">
        <ele>499.0</ele>
        <time>2022-06-19T07:23:28.449Z</time>
      </trkpt>
      <trkpt lat="43.217795" lon="-6.86048667">
        <ele>499.0</ele>
        <time>2022-06-19T07:23:29.442Z</time>
      </trkpt>
      <trkpt lat="43.21778333" lon="-6.86055667">
        <ele>499.0</ele>
        <time>2022-06-19T07:23:30.458Z</time>
      </trkpt>
      <trkpt lat="43.21778333" lon="-6.86055667">
        <ele>499.0</ele>
        <time>2022-06-19T07:23:31.456Z</time>
      </trkpt>
      <trkpt lat="43.21777333" lon="-6.86063">
        <ele>500.0</ele>
        <time>2022-06-19T07:23:32.470Z</time>
      </trkpt>
      <trkpt lat="43.21777333" lon="-6.86063">
        <ele>500.0</ele>
        <time>2022-06-19T07:23:33.464Z</time>
      </trkpt>
      <trkpt lat="43.21776833" lon="-6.86070333">
        <ele>500.0</ele>
        <time>2022-06-19T07:23:34.477Z</time>
      </trkpt>
      <trkpt lat="43.21776833" lon="-6.86070333">
        <ele>500.0</ele>
        <time>2022-06-19T07:23:35.478Z</time>
      </trkpt>
      <trkpt lat="43.21776833" lon="-6.86077">
        <ele>500.0</ele>
        <time>2022-06-19T07:23:36.451Z</time>
      </trkpt>
      <trkpt lat="43.21776833" lon="-6.86077">
        <ele>500.0</ele>
        <time>2022-06-19T07:23:37.457Z</time>
      </trkpt>
      <trkpt lat="43.21778667" lon="-6.86084">
        <ele>501.0</ele>
        <time>2022-06-19T07:23:38.472Z</time>
      </trkpt>
      <trkpt lat="43.21778667" lon="-6.86084">
        <ele>501.0</ele>
        <time>2022-06-19T07:23:39.472Z</time>
      </trkpt>
      <trkpt lat="43.217815" lon="-6.860905">
        <ele>501.0</ele>
        <time>2022-06-19T07:23:40.456Z</time>
      </trkpt>
      <trkpt lat="43.217815" lon="-6.860905">
        <ele>501.0</ele>
        <time>2022-06-19T07:23:41.441Z</time>
      </trkpt>
      <trkpt lat="43.21784" lon="-6.860955">
        <ele>502.0</ele>
        <time>2022-06-19T07:23:42.453Z</time>
      </trkpt>
      <trkpt lat="43.21784" lon="-6.860955">
        <ele>502.0</ele>
        <time>2022-06-19T07:23:43.455Z</time>
      </trkpt>
      <trkpt lat="43.21786333" lon="-6.86098333">
        <ele>503.0</ele>
        <time>2022-06-19T07:23:44.472Z</time>
      </trkpt>
      <trkpt lat="43.21786333" lon="-6.86098333">
        <ele>503.0</ele>
        <time>2022-06-19T07:23:45.479Z</time>
      </trkpt>
      <trkpt lat="43.2179" lon="-6.86102333">
        <ele>504.0</ele>
        <time>2022-06-19T07:23:46.442Z</time>
      </trkpt>
      <trkpt lat="43.2179" lon="-6.86102333">
        <ele>504.0</ele>
        <time>2022-06-19T07:23:47.456Z</time>
      </trkpt>
      <trkpt lat="43.21793333" lon="-6.86107667">
        <ele>504.0</ele>
        <time>2022-06-19T07:23:48.441Z</time>
      </trkpt>
      <trkpt lat="43.21793333" lon="-6.86107667">
        <ele>504.0</ele>
        <time>2022-06-19T07:23:49.462Z</time>
      </trkpt>
      <trkpt lat="43.21797167" lon="-6.86113667">
        <ele>505.0</ele>
        <time>2022-06-19T07:23:50.478Z</time>
      </trkpt>
      <trkpt lat="43.21797167" lon="-6.86113667">
        <ele>505.0</ele>
        <time>2022-06-19T07:23:51.444Z</time>
      </trkpt>
      <trkpt lat="43.21800167" lon="-6.86120167">
        <ele>505.0</ele>
        <time>2022-06-19T07:23:52.457Z</time>
      </trkpt>
      <trkpt lat="43.21800833" lon="-6.86122833">
        <ele>505.0</ele>
        <time>2022-06-19T07:23:53.457Z</time>
      </trkpt>
      <trkpt lat="43.218015" lon="-6.86125667">
        <ele>506.0</ele>
        <time>2022-06-19T07:23:54.448Z</time>
      </trkpt>
      <trkpt lat="43.218015" lon="-6.86125667">
        <ele>506.0</ele>
        <time>2022-06-19T07:23:55.445Z</time>
      </trkpt>
      <trkpt lat="43.21802833" lon="-6.86132167">
        <ele>506.0</ele>
        <time>2022-06-19T07:23:56.454Z</time>
      </trkpt>
      <trkpt lat="43.21802833" lon="-6.86132167">
        <ele>506.0</ele>
        <time>2022-06-19T07:23:57.479Z</time>
      </trkpt>
      <trkpt lat="43.218045" lon="-6.86138333">
        <ele>506.0</ele>
        <time>2022-06-19T07:23:58.450Z</time>
      </trkpt>
      <trkpt lat="43.21805833" lon="-6.86141833">
        <ele>506.0</ele>
        <time>2022-06-19T07:23:59.458Z</time>
      </trkpt>
      <trkpt lat="43.21805833" lon="-6.86141833">
        <ele>506.0</ele>
        <time>2022-06-19T07:24:00.469Z</time>
      </trkpt>
      <trkpt lat="43.21806667" lon="-6.861495">
        <ele>506.0</ele>
        <time>2022-06-19T07:24:01.447Z</time>
      </trkpt>
      <trkpt lat="43.21806667" lon="-6.861495">
        <ele>506.0</ele>
        <time>2022-06-19T07:24:02.466Z</time>
      </trkpt>
      <trkpt lat="43.218065" lon="-6.86155667">
        <ele>507.0</ele>
        <time>2022-06-19T07:24:03.446Z</time>
      </trkpt>
      <trkpt lat="43.218065" lon="-6.86155667">
        <ele>507.0</ele>
        <time>2022-06-19T07:24:04.527Z</time>
      </trkpt>
      <trkpt lat="43.218065" lon="-6.86157667">
        <ele>507.0</ele>
        <time>2022-06-19T07:24:05.469Z</time>
      </trkpt>
      <trkpt lat="43.21806" lon="-6.86163167">
        <ele>508.0</ele>
        <time>2022-06-19T07:24:06.447Z</time>
      </trkpt>
      <trkpt lat="43.21806" lon="-6.86163167">
        <ele>508.0</ele>
        <time>2022-06-19T07:24:07.475Z</time>
      </trkpt>
      <trkpt lat="43.21805833" lon="-6.86169667">
        <ele>508.0</ele>
        <time>2022-06-19T07:24:08.453Z</time>
      </trkpt>
      <trkpt lat="43.21805833" lon="-6.86173">
        <ele>508.0</ele>
        <time>2022-06-19T07:24:09.461Z</time>
      </trkpt>
      <trkpt lat="43.21805833" lon="-6.86173">
        <ele>508.0</ele>
        <time>2022-06-19T07:24:10.450Z</time>
      </trkpt>
      <trkpt lat="43.218065" lon="-6.86180167">
        <ele>508.0</ele>
        <time>2022-06-19T07:24:11.463Z</time>
      </trkpt>
      <trkpt lat="43.21806333" lon="-6.861835">
        <ele>508.0</ele>
        <time>2022-06-19T07:24:12.455Z</time>
      </trkpt>
      <trkpt lat="43.21806333" lon="-6.86186667">
        <ele>508.0</ele>
        <time>2022-06-19T07:24:13.473Z</time>
      </trkpt>
      <trkpt lat="43.21806333" lon="-6.86186667">
        <ele>508.0</ele>
        <time>2022-06-19T07:24:14.457Z</time>
      </trkpt>
      <trkpt lat="43.218065" lon="-6.86193833">
        <ele>508.0</ele>
        <time>2022-06-19T07:24:15.470Z</time>
      </trkpt>
      <trkpt lat="43.21806333" lon="-6.861975">
        <ele>508.0</ele>
        <time>2022-06-19T07:24:16.479Z</time>
      </trkpt>
      <trkpt lat="43.21806333" lon="-6.861975">
        <ele>508.0</ele>
        <time>2022-06-19T07:24:17.445Z</time>
      </trkpt>
      <trkpt lat="43.218065" lon="-6.86205">
        <ele>508.0</ele>
        <time>2022-06-19T07:24:18.461Z</time>
      </trkpt>
      <trkpt lat="43.218065" lon="-6.86205">
        <ele>508.0</ele>
        <time>2022-06-19T07:24:19.457Z</time>
      </trkpt>
      <trkpt lat="43.21806167" lon="-6.86212167">
        <ele>508.0</ele>
        <time>2022-06-19T07:24:20.479Z</time>
      </trkpt>
      <trkpt lat="43.21806167" lon="-6.86212167">
        <ele>508.0</ele>
        <time>2022-06-19T07:24:21.468Z</time>
      </trkpt>
      <trkpt lat="43.218055" lon="-6.86221">
        <ele>509.0</ele>
        <time>2022-06-19T07:24:22.478Z</time>
      </trkpt>
      <trkpt lat="43.21805167" lon="-6.86224333">
        <ele>509.0</ele>
        <time>2022-06-19T07:24:23.455Z</time>
      </trkpt>
      <trkpt lat="43.21805167" lon="-6.86224333">
        <ele>509.0</ele>
        <time>2022-06-19T07:24:24.473Z</time>
      </trkpt>
      <trkpt lat="43.218045" lon="-6.86229333">
        <ele>509.0</ele>
        <time>2022-06-19T07:24:25.448Z</time>
      </trkpt>
      <trkpt lat="43.218045" lon="-6.86229333">
        <ele>509.0</ele>
        <time>2022-06-19T07:24:26.475Z</time>
      </trkpt>
      <trkpt lat="43.21805" lon="-6.862355">
        <ele>510.0</ele>
        <time>2022-06-19T07:24:27.455Z</time>
      </trkpt>
      <trkpt lat="43.21805" lon="-6.86238833">
        <ele>510.0</ele>
        <time>2022-06-19T07:24:28.445Z</time>
      </trkpt>
      <trkpt lat="43.21805" lon="-6.86238833">
        <ele>510.0</ele>
        <time>2022-06-19T07:24:29.443Z</time>
      </trkpt>
      <trkpt lat="43.21804167" lon="-6.86244333">
        <ele>511.0</ele>
        <time>2022-06-19T07:24:30.454Z</time>
      </trkpt>
      <trkpt lat="43.21804167" lon="-6.86244333">
        <ele>511.0</ele>
        <time>2022-06-19T07:24:31.468Z</time>
      </trkpt>
      <trkpt lat="43.21805" lon="-6.86250833">
        <ele>512.0</ele>
        <time>2022-06-19T07:24:32.481Z</time>
      </trkpt>
      <trkpt lat="43.21805" lon="-6.86250833">
        <ele>512.0</ele>
        <time>2022-06-19T07:24:33.455Z</time>
      </trkpt>
      <trkpt lat="43.21806833" lon="-6.86257667">
        <ele>513.0</ele>
        <time>2022-06-19T07:24:34.474Z</time>
      </trkpt>
      <trkpt lat="43.21806833" lon="-6.86257667">
        <ele>513.0</ele>
        <time>2022-06-19T07:24:35.470Z</time>
      </trkpt>
      <trkpt lat="43.21808833" lon="-6.86264167">
        <ele>514.0</ele>
        <time>2022-06-19T07:24:36.444Z</time>
      </trkpt>
      <trkpt lat="43.21808833" lon="-6.86264167">
        <ele>514.0</ele>
        <time>2022-06-19T07:24:37.460Z</time>
      </trkpt>
      <trkpt lat="43.21809667" lon="-6.86270667">
        <ele>515.0</ele>
        <time>2022-06-19T07:24:38.443Z</time>
      </trkpt>
      <trkpt lat="43.21809667" lon="-6.86270667">
        <ele>515.0</ele>
        <time>2022-06-19T07:24:39.469Z</time>
      </trkpt>
      <trkpt lat="43.21810667" lon="-6.86277167">
        <ele>515.0</ele>
        <time>2022-06-19T07:24:40.478Z</time>
      </trkpt>
      <trkpt lat="43.21810667" lon="-6.86277167">
        <ele>515.0</ele>
        <time>2022-06-19T07:24:41.473Z</time>
      </trkpt>
      <trkpt lat="43.21812833" lon="-6.86284">
        <ele>516.0</ele>
        <time>2022-06-19T07:24:42.446Z</time>
      </trkpt>
      <trkpt lat="43.21812833" lon="-6.86284">
        <ele>516.0</ele>
        <time>2022-06-19T07:24:43.454Z</time>
      </trkpt>
      <trkpt lat="43.21814333" lon="-6.86290167">
        <ele>517.0</ele>
        <time>2022-06-19T07:24:44.480Z</time>
      </trkpt>
      <trkpt lat="43.21814333" lon="-6.86290167">
        <ele>517.0</ele>
        <time>2022-06-19T07:24:45.476Z</time>
      </trkpt>
      <trkpt lat="43.21815833" lon="-6.86296333">
        <ele>517.0</ele>
        <time>2022-06-19T07:24:46.455Z</time>
      </trkpt>
      <trkpt lat="43.21815833" lon="-6.86296333">
        <ele>517.0</ele>
        <time>2022-06-19T07:24:47.450Z</time>
      </trkpt>
      <trkpt lat="43.21817667" lon="-6.86302333">
        <ele>518.0</ele>
        <time>2022-06-19T07:24:48.463Z</time>
      </trkpt>
      <trkpt lat="43.21817667" lon="-6.86302333">
        <ele>518.0</ele>
        <time>2022-06-19T07:24:49.441Z</time>
      </trkpt>
      <trkpt lat="43.21820833" lon="-6.86308833">
        <ele>519.0</ele>
        <time>2022-06-19T07:24:50.454Z</time>
      </trkpt>
      <trkpt lat="43.21820833" lon="-6.86308833">
        <ele>519.0</ele>
        <time>2022-06-19T07:24:51.450Z</time>
      </trkpt>
      <trkpt lat="43.21823833" lon="-6.86313833">
        <ele>520.0</ele>
        <time>2022-06-19T07:24:52.457Z</time>
      </trkpt>
      <trkpt lat="43.21823833" lon="-6.86313833">
        <ele>520.0</ele>
        <time>2022-06-19T07:24:53.472Z</time>
      </trkpt>
      <trkpt lat="43.21828833" lon="-6.86320667">
        <ele>521.0</ele>
        <time>2022-06-19T07:24:54.479Z</time>
      </trkpt>
      <trkpt lat="43.21828833" lon="-6.86320667">
        <ele>521.0</ele>
        <time>2022-06-19T07:24:55.457Z</time>
      </trkpt>
      <trkpt lat="43.21830833" lon="-6.86326667">
        <ele>522.0</ele>
        <time>2022-06-19T07:24:56.457Z</time>
      </trkpt>
      <trkpt lat="43.21830833" lon="-6.86326667">
        <ele>522.0</ele>
        <time>2022-06-19T07:24:57.472Z</time>
      </trkpt>
      <trkpt lat="43.21833333" lon="-6.86332667">
        <ele>523.0</ele>
        <time>2022-06-19T07:24:58.447Z</time>
      </trkpt>
      <trkpt lat="43.218345" lon="-6.863355">
        <ele>523.0</ele>
        <time>2022-06-19T07:24:59.475Z</time>
      </trkpt>
      <trkpt lat="43.218345" lon="-6.863355">
        <ele>523.0</ele>
        <time>2022-06-19T07:25:00.458Z</time>
      </trkpt>
      <trkpt lat="43.21836833" lon="-6.86341333">
        <ele>524.0</ele>
        <time>2022-06-19T07:25:01.480Z</time>
      </trkpt>
      <trkpt lat="43.21838" lon="-6.86343833">
        <ele>524.0</ele>
        <time>2022-06-19T07:25:02.472Z</time>
      </trkpt>
      <trkpt lat="43.21838" lon="-6.86343833">
        <ele>524.0</ele>
        <time>2022-06-19T07:25:03.477Z</time>
      </trkpt>
      <trkpt lat="43.21840167" lon="-6.86349333">
        <ele>525.0</ele>
        <time>2022-06-19T07:25:04.469Z</time>
      </trkpt>
      <trkpt lat="43.21840167" lon="-6.86349333">
        <ele>525.0</ele>
        <time>2022-06-19T07:25:05.475Z</time>
      </trkpt>
      <trkpt lat="43.21842667" lon="-6.86355">
        <ele>526.0</ele>
        <time>2022-06-19T07:25:06.451Z</time>
      </trkpt>
      <trkpt lat="43.21842667" lon="-6.86355">
        <ele>526.0</ele>
        <time>2022-06-19T07:25:07.444Z</time>
      </trkpt>
      <trkpt lat="43.21845833" lon="-6.86360833">
        <ele>527.0</ele>
        <time>2022-06-19T07:25:08.457Z</time>
      </trkpt>
      <trkpt lat="43.21847167" lon="-6.863635">
        <ele>527.0</ele>
        <time>2022-06-19T07:25:09.460Z</time>
      </trkpt>
      <trkpt lat="43.21847167" lon="-6.863635">
        <ele>527.0</ele>
        <time>2022-06-19T07:25:10.458Z</time>
      </trkpt>
      <trkpt lat="43.21850167" lon="-6.86368667">
        <ele>528.0</ele>
        <time>2022-06-19T07:25:11.473Z</time>
      </trkpt>
      <trkpt lat="43.21851" lon="-6.86371167">
        <ele>528.0</ele>
        <time>2022-06-19T07:25:12.474Z</time>
      </trkpt>
      <trkpt lat="43.21852" lon="-6.86374">
        <ele>528.0</ele>
        <time>2022-06-19T07:25:13.454Z</time>
      </trkpt>
      <trkpt lat="43.21853167" lon="-6.86377">
        <ele>528.0</ele>
        <time>2022-06-19T07:25:14.473Z</time>
      </trkpt>
      <trkpt lat="43.21853167" lon="-6.86377">
        <ele>528.0</ele>
        <time>2022-06-19T07:25:15.461Z</time>
      </trkpt>
      <trkpt lat="43.21855667" lon="-6.86383">
        <ele>529.0</ele>
        <time>2022-06-19T07:25:16.469Z</time>
      </trkpt>
      <trkpt lat="43.21855667" lon="-6.86383">
        <ele>529.0</ele>
        <time>2022-06-19T07:25:17.461Z</time>
      </trkpt>
      <trkpt lat="43.21858667" lon="-6.86388833">
        <ele>529.0</ele>
        <time>2022-06-19T07:25:18.475Z</time>
      </trkpt>
      <trkpt lat="43.2186" lon="-6.86392333">
        <ele>529.0</ele>
        <time>2022-06-19T07:25:19.459Z</time>
      </trkpt>
      <trkpt lat="43.218615" lon="-6.86395833">
        <ele>530.0</ele>
        <time>2022-06-19T07:25:20.447Z</time>
      </trkpt>
      <trkpt lat="43.21862833" lon="-6.86399333">
        <ele>530.0</ele>
        <time>2022-06-19T07:25:21.445Z</time>
      </trkpt>
      <trkpt lat="43.21862833" lon="-6.86399333">
        <ele>530.0</ele>
        <time>2022-06-19T07:25:22.452Z</time>
      </trkpt>
      <trkpt lat="43.21866" lon="-6.864075">
        <ele>530.0</ele>
        <time>2022-06-19T07:25:23.469Z</time>
      </trkpt>
      <trkpt lat="43.21866" lon="-6.864075">
        <ele>530.0</ele>
        <time>2022-06-19T07:25:24.450Z</time>
      </trkpt>
      <trkpt lat="43.21868" lon="-6.864155">
        <ele>531.0</ele>
        <time>2022-06-19T07:25:25.463Z</time>
      </trkpt>
      <trkpt lat="43.21868" lon="-6.864155">
        <ele>531.0</ele>
        <time>2022-06-19T07:25:26.459Z</time>
      </trkpt>
      <trkpt lat="43.218695" lon="-6.86423333">
        <ele>531.0</ele>
        <time>2022-06-19T07:25:27.471Z</time>
      </trkpt>
      <trkpt lat="43.218695" lon="-6.86423333">
        <ele>531.0</ele>
        <time>2022-06-19T07:25:28.471Z</time>
      </trkpt>
      <trkpt lat="43.21870333" lon="-6.86431333">
        <ele>532.0</ele>
        <time>2022-06-19T07:25:29.442Z</time>
      </trkpt>
      <trkpt lat="43.21870333" lon="-6.86431333">
        <ele>532.0</ele>
        <time>2022-06-19T07:25:30.461Z</time>
      </trkpt>
      <trkpt lat="43.2187" lon="-6.86439167">
        <ele>532.0</ele>
        <time>2022-06-19T07:25:31.476Z</time>
      </trkpt>
      <trkpt lat="43.2187" lon="-6.86443">
        <ele>532.0</ele>
        <time>2022-06-19T07:25:32.476Z</time>
      </trkpt>
      <trkpt lat="43.2187" lon="-6.86443">
        <ele>532.0</ele>
        <time>2022-06-19T07:25:33.468Z</time>
      </trkpt>
      <trkpt lat="43.21869333" lon="-6.86450333">
        <ele>532.0</ele>
        <time>2022-06-19T07:25:34.480Z</time>
      </trkpt>
      <trkpt lat="43.21869333" lon="-6.86450333">
        <ele>532.0</ele>
        <time>2022-06-19T07:25:35.458Z</time>
      </trkpt>
      <trkpt lat="43.21868833" lon="-6.86457333">
        <ele>533.0</ele>
        <time>2022-06-19T07:25:36.472Z</time>
      </trkpt>
      <trkpt lat="43.21868833" lon="-6.86457333">
        <ele>533.0</ele>
        <time>2022-06-19T07:25:37.460Z</time>
      </trkpt>
      <trkpt lat="43.21868167" lon="-6.864645">
        <ele>533.0</ele>
        <time>2022-06-19T07:25:38.445Z</time>
      </trkpt>
      <trkpt lat="43.21867833" lon="-6.86467833">
        <ele>533.0</ele>
        <time>2022-06-19T07:25:39.479Z</time>
      </trkpt>
      <trkpt lat="43.21867833" lon="-6.86467833">
        <ele>533.0</ele>
        <time>2022-06-19T07:25:40.466Z</time>
      </trkpt>
      <trkpt lat="43.21866833" lon="-6.864745">
        <ele>534.0</ele>
        <time>2022-06-19T07:25:41.479Z</time>
      </trkpt>
      <trkpt lat="43.21866333" lon="-6.864785">
        <ele>534.0</ele>
        <time>2022-06-19T07:25:42.470Z</time>
      </trkpt>
      <trkpt lat="43.21866333" lon="-6.864785">
        <ele>534.0</ele>
        <time>2022-06-19T07:25:43.447Z</time>
      </trkpt>
      <trkpt lat="43.21867833" lon="-6.86486167">
        <ele>535.0</ele>
        <time>2022-06-19T07:25:44.457Z</time>
      </trkpt>
      <trkpt lat="43.21867833" lon="-6.86486167">
        <ele>535.0</ele>
        <time>2022-06-19T07:25:45.468Z</time>
      </trkpt>
      <trkpt lat="43.218695" lon="-6.86494">
        <ele>535.0</ele>
        <time>2022-06-19T07:25:46.443Z</time>
      </trkpt>
      <trkpt lat="43.218695" lon="-6.86494">
        <ele>535.0</ele>
        <time>2022-06-19T07:25:47.446Z</time>
      </trkpt>
      <trkpt lat="43.21872333" lon="-6.86501333">
        <ele>536.0</ele>
        <time>2022-06-19T07:25:48.478Z</time>
      </trkpt>
      <trkpt lat="43.21872333" lon="-6.86501333">
        <ele>536.0</ele>
        <time>2022-06-19T07:25:49.461Z</time>
      </trkpt>
      <trkpt lat="43.21875667" lon="-6.86507667">
        <ele>536.0</ele>
        <time>2022-06-19T07:25:50.479Z</time>
      </trkpt>
      <trkpt lat="43.21877167" lon="-6.86510333">
        <ele>537.0</ele>
        <time>2022-06-19T07:25:51.471Z</time>
      </trkpt>
      <trkpt lat="43.21877167" lon="-6.86510333">
        <ele>537.0</ele>
        <time>2022-06-19T07:25:52.458Z</time>
      </trkpt>
      <trkpt lat="43.21882" lon="-6.86515">
        <ele>537.0</ele>
        <time>2022-06-19T07:25:53.470Z</time>
      </trkpt>
      <trkpt lat="43.21885" lon="-6.86517">
        <ele>537.0</ele>
        <time>2022-06-19T07:25:54.447Z</time>
      </trkpt>
      <trkpt lat="43.21885" lon="-6.86517">
        <ele>537.0</ele>
        <time>2022-06-19T07:25:55.460Z</time>
      </trkpt>
      <trkpt lat="43.21890167" lon="-6.86520667">
        <ele>538.0</ele>
        <time>2022-06-19T07:25:56.471Z</time>
      </trkpt>
      <trkpt lat="43.21893" lon="-6.86522333">
        <ele>538.0</ele>
        <time>2022-06-19T07:25:57.468Z</time>
      </trkpt>
      <trkpt lat="43.21893" lon="-6.86522333">
        <ele>538.0</ele>
        <time>2022-06-19T07:25:58.462Z</time>
      </trkpt>
      <trkpt lat="43.21897833" lon="-6.86527">
        <ele>538.0</ele>
        <time>2022-06-19T07:25:59.454Z</time>
      </trkpt>
      <trkpt lat="43.21900333" lon="-6.865295">
        <ele>539.0</ele>
        <time>2022-06-19T07:26:00.446Z</time>
      </trkpt>
      <trkpt lat="43.21900333" lon="-6.865295">
        <ele>539.0</ele>
        <time>2022-06-19T07:26:01.464Z</time>
      </trkpt>
      <trkpt lat="43.21904" lon="-6.86535167">
        <ele>539.0</ele>
        <time>2022-06-19T07:26:02.481Z</time>
      </trkpt>
      <trkpt lat="43.21904" lon="-6.86535167">
        <ele>539.0</ele>
        <time>2022-06-19T07:26:03.447Z</time>
      </trkpt>
      <trkpt lat="43.21907" lon="-6.86541167">
        <ele>539.0</ele>
        <time>2022-06-19T07:26:04.458Z</time>
      </trkpt>
      <trkpt lat="43.219085" lon="-6.86544667">
        <ele>539.0</ele>
        <time>2022-06-19T07:26:05.443Z</time>
      </trkpt>
      <trkpt lat="43.2191" lon="-6.86548167">
        <ele>539.0</ele>
        <time>2022-06-19T07:26:06.450Z</time>
      </trkpt>
      <trkpt lat="43.2191" lon="-6.86548167">
        <ele>539.0</ele>
        <time>2022-06-19T07:26:07.472Z</time>
      </trkpt>
      <trkpt lat="43.21912667" lon="-6.86555167">
        <ele>540.0</ele>
        <time>2022-06-19T07:26:08.441Z</time>
      </trkpt>
      <trkpt lat="43.21912667" lon="-6.86555167">
        <ele>540.0</ele>
        <time>2022-06-19T07:26:09.466Z</time>
      </trkpt>
      <trkpt lat="43.21914667" lon="-6.865625">
        <ele>540.0</ele>
        <time>2022-06-19T07:26:10.481Z</time>
      </trkpt>
      <trkpt lat="43.21914667" lon="-6.865625">
        <ele>540.0</ele>
        <time>2022-06-19T07:26:11.471Z</time>
      </trkpt>
      <trkpt lat="43.21916" lon="-6.86569833">
        <ele>540.0</ele>
        <time>2022-06-19T07:26:12.479Z</time>
      </trkpt>
      <trkpt lat="43.21916" lon="-6.86569833">
        <ele>540.0</ele>
        <time>2022-06-19T07:26:13.464Z</time>
      </trkpt>
      <trkpt lat="43.21918667" lon="-6.86577167">
        <ele>541.0</ele>
        <time>2022-06-19T07:26:14.472Z</time>
      </trkpt>
      <trkpt lat="43.21918667" lon="-6.86577167">
        <ele>541.0</ele>
        <time>2022-06-19T07:26:15.470Z</time>
      </trkpt>
      <trkpt lat="43.219205" lon="-6.86584667">
        <ele>541.0</ele>
        <time>2022-06-19T07:26:16.443Z</time>
      </trkpt>
      <trkpt lat="43.219205" lon="-6.86584667">
        <ele>541.0</ele>
        <time>2022-06-19T07:26:17.461Z</time>
      </trkpt>
      <trkpt lat="43.21922833" lon="-6.86592167">
        <ele>541.0</ele>
        <time>2022-06-19T07:26:18.467Z</time>
      </trkpt>
      <trkpt lat="43.21922833" lon="-6.86592167">
        <ele>541.0</ele>
        <time>2022-06-19T07:26:19.453Z</time>
      </trkpt>
      <trkpt lat="43.21924833" lon="-6.86599833">
        <ele>541.0</ele>
        <time>2022-06-19T07:26:20.471Z</time>
      </trkpt>
      <trkpt lat="43.21926" lon="-6.86603">
        <ele>541.0</ele>
        <time>2022-06-19T07:26:21.475Z</time>
      </trkpt>
      <trkpt lat="43.21926" lon="-6.86603">
        <ele>541.0</ele>
        <time>2022-06-19T07:26:22.464Z</time>
      </trkpt>
      <trkpt lat="43.21929" lon="-6.86609167">
        <ele>541.0</ele>
        <time>2022-06-19T07:26:23.479Z</time>
      </trkpt>
      <trkpt lat="43.21929" lon="-6.86609167">
        <ele>541.0</ele>
        <time>2022-06-19T07:26:24.457Z</time>
      </trkpt>
      <trkpt lat="43.219325" lon="-6.86616167">
        <ele>541.0</ele>
        <time>2022-06-19T07:26:25.449Z</time>
      </trkpt>
      <trkpt lat="43.219325" lon="-6.86616167">
        <ele>541.0</ele>
        <time>2022-06-19T07:26:26.457Z</time>
      </trkpt>
      <trkpt lat="43.21935667" lon="-6.86623">
        <ele>540.0</ele>
        <time>2022-06-19T07:26:27.466Z</time>
      </trkpt>
      <trkpt lat="43.21935667" lon="-6.86623">
        <ele>540.0</ele>
        <time>2022-06-19T07:26:28.462Z</time>
      </trkpt>
      <trkpt lat="43.219385" lon="-6.86629">
        <ele>540.0</ele>
        <time>2022-06-19T07:26:29.473Z</time>
      </trkpt>
      <trkpt lat="43.219385" lon="-6.86629">
        <ele>540.0</ele>
        <time>2022-06-19T07:26:30.473Z</time>
      </trkpt>
      <trkpt lat="43.21942833" lon="-6.86635">
        <ele>541.0</ele>
        <time>2022-06-19T07:26:31.454Z</time>
      </trkpt>
      <trkpt lat="43.21945" lon="-6.86638333">
        <ele>541.0</ele>
        <time>2022-06-19T07:26:32.451Z</time>
      </trkpt>
      <trkpt lat="43.21945" lon="-6.86638333">
        <ele>541.0</ele>
        <time>2022-06-19T07:26:33.450Z</time>
      </trkpt>
      <trkpt lat="43.21947833" lon="-6.86645">
        <ele>541.0</ele>
        <time>2022-06-19T07:26:34.463Z</time>
      </trkpt>
      <trkpt lat="43.21947833" lon="-6.86645">
        <ele>541.0</ele>
        <time>2022-06-19T07:26:35.461Z</time>
      </trkpt>
      <trkpt lat="43.219505" lon="-6.86651833">
        <ele>541.0</ele>
        <time>2022-06-19T07:26:36.443Z</time>
      </trkpt>
      <trkpt lat="43.219505" lon="-6.86651833">
        <ele>541.0</ele>
        <time>2022-06-19T07:26:37.447Z</time>
      </trkpt>
      <trkpt lat="43.21952667" lon="-6.86659167">
        <ele>541.0</ele>
        <time>2022-06-19T07:26:38.476Z</time>
      </trkpt>
      <trkpt lat="43.21952667" lon="-6.86659167">
        <ele>541.0</ele>
        <time>2022-06-19T07:26:39.471Z</time>
      </trkpt>
      <trkpt lat="43.21954333" lon="-6.86665667">
        <ele>541.0</ele>
        <time>2022-06-19T07:26:40.445Z</time>
      </trkpt>
      <trkpt lat="43.21954333" lon="-6.86665667">
        <ele>541.0</ele>
        <time>2022-06-19T07:26:41.449Z</time>
      </trkpt>
      <trkpt lat="43.21955667" lon="-6.86672833">
        <ele>541.0</ele>
        <time>2022-06-19T07:26:42.460Z</time>
      </trkpt>
      <trkpt lat="43.21955667" lon="-6.86672833">
        <ele>541.0</ele>
        <time>2022-06-19T07:26:43.444Z</time>
      </trkpt>
      <trkpt lat="43.21956833" lon="-6.86680667">
        <ele>541.0</ele>
        <time>2022-06-19T07:26:44.479Z</time>
      </trkpt>
      <trkpt lat="43.21956833" lon="-6.86680667">
        <ele>541.0</ele>
        <time>2022-06-19T07:26:45.469Z</time>
      </trkpt>
      <trkpt lat="43.21957" lon="-6.86688667">
        <ele>542.0</ele>
        <time>2022-06-19T07:26:46.469Z</time>
      </trkpt>
      <trkpt lat="43.21957" lon="-6.86688667">
        <ele>542.0</ele>
        <time>2022-06-19T07:26:47.464Z</time>
      </trkpt>
      <trkpt lat="43.21957167" lon="-6.86696333">
        <ele>542.0</ele>
        <time>2022-06-19T07:26:48.474Z</time>
      </trkpt>
      <trkpt lat="43.21957167" lon="-6.86696333">
        <ele>542.0</ele>
        <time>2022-06-19T07:26:49.478Z</time>
      </trkpt>
      <trkpt lat="43.21956833" lon="-6.86703667">
        <ele>542.0</ele>
        <time>2022-06-19T07:26:50.456Z</time>
      </trkpt>
      <trkpt lat="43.21956833" lon="-6.86703667">
        <ele>542.0</ele>
        <time>2022-06-19T07:26:51.452Z</time>
      </trkpt>
      <trkpt lat="43.219575" lon="-6.86711167">
        <ele>542.0</ele>
        <time>2022-06-19T07:26:52.467Z</time>
      </trkpt>
      <trkpt lat="43.219575" lon="-6.86711167">
        <ele>542.0</ele>
        <time>2022-06-19T07:26:53.463Z</time>
      </trkpt>
      <trkpt lat="43.21957667" lon="-6.86718833">
        <ele>543.0</ele>
        <time>2022-06-19T07:26:54.441Z</time>
      </trkpt>
      <trkpt lat="43.21957667" lon="-6.86718833">
        <ele>543.0</ele>
        <time>2022-06-19T07:26:55.477Z</time>
      </trkpt>
      <trkpt lat="43.21958333" lon="-6.86726333">
        <ele>543.0</ele>
        <time>2022-06-19T07:26:56.456Z</time>
      </trkpt>
      <trkpt lat="43.21958333" lon="-6.86726333">
        <ele>543.0</ele>
        <time>2022-06-19T07:26:57.467Z</time>
      </trkpt>
      <trkpt lat="43.21957833" lon="-6.867345">
        <ele>543.0</ele>
        <time>2022-06-19T07:26:58.477Z</time>
      </trkpt>
      <trkpt lat="43.21957833" lon="-6.867345">
        <ele>543.0</ele>
        <time>2022-06-19T07:26:59.458Z</time>
      </trkpt>
      <trkpt lat="43.219575" lon="-6.86741333">
        <ele>543.0</ele>
        <time>2022-06-19T07:27:00.471Z</time>
      </trkpt>
      <trkpt lat="43.219575" lon="-6.86741333">
        <ele>543.0</ele>
        <time>2022-06-19T07:27:01.449Z</time>
      </trkpt>
      <trkpt lat="43.21957333" lon="-6.86748">
        <ele>543.0</ele>
        <time>2022-06-19T07:27:02.459Z</time>
      </trkpt>
      <trkpt lat="43.21957333" lon="-6.86748">
        <ele>543.0</ele>
        <time>2022-06-19T07:27:03.475Z</time>
      </trkpt>
      <trkpt lat="43.21958333" lon="-6.86755">
        <ele>544.0</ele>
        <time>2022-06-19T07:27:04.447Z</time>
      </trkpt>
      <trkpt lat="43.21958333" lon="-6.86755">
        <ele>544.0</ele>
        <time>2022-06-19T07:27:05.449Z</time>
      </trkpt>
      <trkpt lat="43.21958333" lon="-6.86761833">
        <ele>544.0</ele>
        <time>2022-06-19T07:27:06.460Z</time>
      </trkpt>
      <trkpt lat="43.21958333" lon="-6.86761833">
        <ele>544.0</ele>
        <time>2022-06-19T07:27:07.447Z</time>
      </trkpt>
      <trkpt lat="43.219585" lon="-6.86769167">
        <ele>545.0</ele>
        <time>2022-06-19T07:27:08.459Z</time>
      </trkpt>
      <trkpt lat="43.219585" lon="-6.86769167">
        <ele>545.0</ele>
        <time>2022-06-19T07:27:09.461Z</time>
      </trkpt>
      <trkpt lat="43.21958833" lon="-6.86776167">
        <ele>545.0</ele>
        <time>2022-06-19T07:27:10.475Z</time>
      </trkpt>
      <trkpt lat="43.21958833" lon="-6.86776167">
        <ele>545.0</ele>
        <time>2022-06-19T07:27:11.471Z</time>
      </trkpt>
      <trkpt lat="43.21957333" lon="-6.86782167">
        <ele>546.0</ele>
        <time>2022-06-19T07:27:12.441Z</time>
      </trkpt>
      <trkpt lat="43.21957333" lon="-6.86782167">
        <ele>546.0</ele>
        <time>2022-06-19T07:27:13.476Z</time>
      </trkpt>
      <trkpt lat="43.21955167" lon="-6.86787667">
        <ele>546.0</ele>
        <time>2022-06-19T07:27:14.455Z</time>
      </trkpt>
      <trkpt lat="43.21955167" lon="-6.86787667">
        <ele>546.0</ele>
        <time>2022-06-19T07:27:15.474Z</time>
      </trkpt>
      <trkpt lat="43.21954333" lon="-6.86793667">
        <ele>547.0</ele>
        <time>2022-06-19T07:27:16.456Z</time>
      </trkpt>
      <trkpt lat="43.21954333" lon="-6.86793667">
        <ele>547.0</ele>
        <time>2022-06-19T07:27:17.466Z</time>
      </trkpt>
      <trkpt lat="43.21954" lon="-6.86799833">
        <ele>547.0</ele>
        <time>2022-06-19T07:27:18.442Z</time>
      </trkpt>
      <trkpt lat="43.21954" lon="-6.86799833">
        <ele>547.0</ele>
        <time>2022-06-19T07:27:19.463Z</time>
      </trkpt>
      <trkpt lat="43.21953833" lon="-6.86806333">
        <ele>547.0</ele>
        <time>2022-06-19T07:27:20.473Z</time>
      </trkpt>
      <trkpt lat="43.219535" lon="-6.86809">
        <ele>547.0</ele>
        <time>2022-06-19T07:27:21.461Z</time>
      </trkpt>
      <trkpt lat="43.219535" lon="-6.86809">
        <ele>547.0</ele>
        <time>2022-06-19T07:27:22.462Z</time>
      </trkpt>
      <trkpt lat="43.21952167" lon="-6.86814667">
        <ele>548.0</ele>
        <time>2022-06-19T07:27:23.473Z</time>
      </trkpt>
      <trkpt lat="43.21952167" lon="-6.86814667">
        <ele>548.0</ele>
        <time>2022-06-19T07:27:24.480Z</time>
      </trkpt>
      <trkpt lat="43.21950667" lon="-6.868205">
        <ele>548.0</ele>
        <time>2022-06-19T07:27:25.456Z</time>
      </trkpt>
      <trkpt lat="43.21950667" lon="-6.868205">
        <ele>548.0</ele>
        <time>2022-06-19T07:27:26.465Z</time>
      </trkpt>
      <trkpt lat="43.21949333" lon="-6.86826667">
        <ele>548.0</ele>
        <time>2022-06-19T07:27:27.476Z</time>
      </trkpt>
      <trkpt lat="43.21949333" lon="-6.86826667">
        <ele>548.0</ele>
        <time>2022-06-19T07:27:28.471Z</time>
      </trkpt>
      <trkpt lat="43.21949833" lon="-6.86834">
        <ele>549.0</ele>
        <time>2022-06-19T07:27:29.457Z</time>
      </trkpt>
      <trkpt lat="43.21949" lon="-6.86837167">
        <ele>549.0</ele>
        <time>2022-06-19T07:27:30.465Z</time>
      </trkpt>
      <trkpt lat="43.21949" lon="-6.86837167">
        <ele>549.0</ele>
        <time>2022-06-19T07:27:31.442Z</time>
      </trkpt>
      <trkpt lat="43.21948333" lon="-6.86843333">
        <ele>550.0</ele>
        <time>2022-06-19T07:27:32.455Z</time>
      </trkpt>
      <trkpt lat="43.21948333" lon="-6.86843333">
        <ele>550.0</ele>
        <time>2022-06-19T07:27:33.459Z</time>
      </trkpt>
      <trkpt lat="43.21947" lon="-6.86848833">
        <ele>551.0</ele>
        <time>2022-06-19T07:27:34.472Z</time>
      </trkpt>
      <trkpt lat="43.21947" lon="-6.86848833">
        <ele>551.0</ele>
        <time>2022-06-19T07:27:35.460Z</time>
      </trkpt>
      <trkpt lat="43.21945667" lon="-6.86853667">
        <ele>551.0</ele>
        <time>2022-06-19T07:27:36.448Z</time>
      </trkpt>
      <trkpt lat="43.21945667" lon="-6.86853667">
        <ele>551.0</ele>
        <time>2022-06-19T07:27:37.444Z</time>
      </trkpt>
      <trkpt lat="43.21944667" lon="-6.86858833">
        <ele>552.0</ele>
        <time>2022-06-19T07:27:38.442Z</time>
      </trkpt>
      <trkpt lat="43.21944667" lon="-6.86858833">
        <ele>552.0</ele>
        <time>2022-06-19T07:27:39.475Z</time>
      </trkpt>
      <trkpt lat="43.21943667" lon="-6.868645">
        <ele>554.0</ele>
        <time>2022-06-19T07:27:40.460Z</time>
      </trkpt>
      <trkpt lat="43.21943" lon="-6.86867167">
        <ele>554.0</ele>
        <time>2022-06-19T07:27:41.463Z</time>
      </trkpt>
      <trkpt lat="43.219425" lon="-6.86870333">
        <ele>554.0</ele>
        <time>2022-06-19T07:27:42.474Z</time>
      </trkpt>
      <trkpt lat="43.219425" lon="-6.86870333">
        <ele>554.0</ele>
        <time>2022-06-19T07:27:43.472Z</time>
      </trkpt>
      <trkpt lat="43.21941167" lon="-6.86876667">
        <ele>555.0</ele>
        <time>2022-06-19T07:27:44.443Z</time>
      </trkpt>
      <trkpt lat="43.21940333" lon="-6.86879833">
        <ele>556.0</ele>
        <time>2022-06-19T07:27:45.461Z</time>
      </trkpt>
      <trkpt lat="43.21940333" lon="-6.86879833">
        <ele>556.0</ele>
        <time>2022-06-19T07:27:46.468Z</time>
      </trkpt>
      <trkpt lat="43.21938333" lon="-6.86886">
        <ele>556.0</ele>
        <time>2022-06-19T07:27:47.441Z</time>
      </trkpt>
      <trkpt lat="43.21937333" lon="-6.86889">
        <ele>557.0</ele>
        <time>2022-06-19T07:27:48.472Z</time>
      </trkpt>
      <trkpt lat="43.21937333" lon="-6.86889">
        <ele>557.0</ele>
        <time>2022-06-19T07:27:49.471Z</time>
      </trkpt>
      <trkpt lat="43.21935333" lon="-6.86894833">
        <ele>558.0</ele>
        <time>2022-06-19T07:27:50.477Z</time>
      </trkpt>
      <trkpt lat="43.21933833" lon="-6.86898">
        <ele>558.0</ele>
        <time>2022-06-19T07:27:51.459Z</time>
      </trkpt>
      <trkpt lat="43.21933833" lon="-6.86898">
        <ele>558.0</ele>
        <time>2022-06-19T07:27:52.471Z</time>
      </trkpt>
      <trkpt lat="43.21930667" lon="-6.86903667">
        <ele>559.0</ele>
        <time>2022-06-19T07:27:53.443Z</time>
      </trkpt>
      <trkpt lat="43.21929167" lon="-6.86906667">
        <ele>559.0</ele>
        <time>2022-06-19T07:27:54.457Z</time>
      </trkpt>
      <trkpt lat="43.21929167" lon="-6.86906667">
        <ele>559.0</ele>
        <time>2022-06-19T07:27:55.464Z</time>
      </trkpt>
      <trkpt lat="43.21926" lon="-6.86912333">
        <ele>560.0</ele>
        <time>2022-06-19T07:27:56.473Z</time>
      </trkpt>
      <trkpt lat="43.21926" lon="-6.86912333">
        <ele>560.0</ele>
        <time>2022-06-19T07:27:57.478Z</time>
      </trkpt>
      <trkpt lat="43.219225" lon="-6.86918">
        <ele>561.0</ele>
        <time>2022-06-19T07:27:58.452Z</time>
      </trkpt>
      <trkpt lat="43.21920667" lon="-6.86921167">
        <ele>562.0</ele>
        <time>2022-06-19T07:27:59.442Z</time>
      </trkpt>
      <trkpt lat="43.21919167" lon="-6.86923833">
        <ele>562.0</ele>
        <time>2022-06-19T07:28:00.466Z</time>
      </trkpt>
      <trkpt lat="43.21919167" lon="-6.86923833">
        <ele>562.0</ele>
        <time>2022-06-19T07:28:01.462Z</time>
      </trkpt>
      <trkpt lat="43.21915667" lon="-6.86929167">
        <ele>563.0</ele>
        <time>2022-06-19T07:28:02.455Z</time>
      </trkpt>
      <trkpt lat="43.21915667" lon="-6.86929167">
        <ele>563.0</ele>
        <time>2022-06-19T07:28:03.474Z</time>
      </trkpt>
      <trkpt lat="43.219125" lon="-6.86934667">
        <ele>564.0</ele>
        <time>2022-06-19T07:28:04.451Z</time>
      </trkpt>
      <trkpt lat="43.21910833" lon="-6.86937333">
        <ele>564.0</ele>
        <time>2022-06-19T07:28:05.467Z</time>
      </trkpt>
      <trkpt lat="43.21909333" lon="-6.8694">
        <ele>565.0</ele>
        <time>2022-06-19T07:28:06.460Z</time>
      </trkpt>
      <trkpt lat="43.21909333" lon="-6.8694">
        <ele>565.0</ele>
        <time>2022-06-19T07:28:07.471Z</time>
      </trkpt>
      <trkpt lat="43.21906333" lon="-6.86945667">
        <ele>566.0</ele>
        <time>2022-06-19T07:28:08.458Z</time>
      </trkpt>
      <trkpt lat="43.21906333" lon="-6.86945667">
        <ele>566.0</ele>
        <time>2022-06-19T07:28:09.448Z</time>
      </trkpt>
      <trkpt lat="43.21903333" lon="-6.86950833">
        <ele>566.0</ele>
        <time>2022-06-19T07:28:10.467Z</time>
      </trkpt>
      <trkpt lat="43.21901833" lon="-6.869535">
        <ele>567.0</ele>
        <time>2022-06-19T07:28:11.497Z</time>
      </trkpt>
      <trkpt lat="43.219005" lon="-6.86956333">
        <ele>567.0</ele>
        <time>2022-06-19T07:28:12.441Z</time>
      </trkpt>
      <trkpt lat="43.219005" lon="-6.86956333">
        <ele>567.0</ele>
        <time>2022-06-19T07:28:13.475Z</time>
      </trkpt>
      <trkpt lat="43.218975" lon="-6.86961833">
        <ele>567.0</ele>
        <time>2022-06-19T07:28:14.453Z</time>
      </trkpt>
      <trkpt lat="43.218975" lon="-6.86961833">
        <ele>567.0</ele>
        <time>2022-06-19T07:28:15.447Z</time>
      </trkpt>
      <trkpt lat="43.21894167" lon="-6.86967">
        <ele>567.0</ele>
        <time>2022-06-19T07:28:16.463Z</time>
      </trkpt>
      <trkpt lat="43.21894167" lon="-6.86967">
        <ele>567.0</ele>
        <time>2022-06-19T07:28:17.448Z</time>
      </trkpt>
      <trkpt lat="43.21890833" lon="-6.86972">
        <ele>567.0</ele>
        <time>2022-06-19T07:28:18.450Z</time>
      </trkpt>
      <trkpt lat="43.21890833" lon="-6.86972">
        <ele>567.0</ele>
        <time>2022-06-19T07:28:19.472Z</time>
      </trkpt>
      <trkpt lat="43.21888333" lon="-6.86977333">
        <ele>568.0</ele>
        <time>2022-06-19T07:28:20.445Z</time>
      </trkpt>
      <trkpt lat="43.21888333" lon="-6.86977333">
        <ele>568.0</ele>
        <time>2022-06-19T07:28:21.471Z</time>
      </trkpt>
      <trkpt lat="43.21886" lon="-6.869825">
        <ele>568.0</ele>
        <time>2022-06-19T07:28:22.489Z</time>
      </trkpt>
      <trkpt lat="43.218845" lon="-6.86985167">
        <ele>568.0</ele>
        <time>2022-06-19T07:28:23.457Z</time>
      </trkpt>
      <trkpt lat="43.218845" lon="-6.86985167">
        <ele>568.0</ele>
        <time>2022-06-19T07:28:24.457Z</time>
      </trkpt>
      <trkpt lat="43.21882" lon="-6.869905">
        <ele>569.0</ele>
        <time>2022-06-19T07:28:25.468Z</time>
      </trkpt>
      <trkpt lat="43.21880667" lon="-6.86993667">
        <ele>569.0</ele>
        <time>2022-06-19T07:28:26.462Z</time>
      </trkpt>
      <trkpt lat="43.21879333" lon="-6.86996833">
        <ele>569.0</ele>
        <time>2022-06-19T07:28:27.449Z</time>
      </trkpt>
      <trkpt lat="43.21879333" lon="-6.86996833">
        <ele>569.0</ele>
        <time>2022-06-19T07:28:28.471Z</time>
      </trkpt>
      <trkpt lat="43.21876833" lon="-6.87002667">
        <ele>570.0</ele>
        <time>2022-06-19T07:28:29.485Z</time>
      </trkpt>
      <trkpt lat="43.21874833" lon="-6.87005667">
        <ele>570.0</ele>
        <time>2022-06-19T07:28:30.460Z</time>
      </trkpt>
      <trkpt lat="43.21874833" lon="-6.87005667">
        <ele>570.0</ele>
        <time>2022-06-19T07:28:31.458Z</time>
      </trkpt>
      <trkpt lat="43.21870833" lon="-6.87011333">
        <ele>570.0</ele>
        <time>2022-06-19T07:28:32.473Z</time>
      </trkpt>
      <trkpt lat="43.21870833" lon="-6.87011333">
        <ele>570.0</ele>
        <time>2022-06-19T07:28:33.455Z</time>
      </trkpt>
      <trkpt lat="43.21867667" lon="-6.87017">
        <ele>571.0</ele>
        <time>2022-06-19T07:28:34.473Z</time>
      </trkpt>
      <trkpt lat="43.21867667" lon="-6.87017">
        <ele>571.0</ele>
        <time>2022-06-19T07:28:35.472Z</time>
      </trkpt>
      <trkpt lat="43.21864167" lon="-6.870225">
        <ele>572.0</ele>
        <time>2022-06-19T07:28:36.475Z</time>
      </trkpt>
      <trkpt lat="43.21864167" lon="-6.870225">
        <ele>572.0</ele>
        <time>2022-06-19T07:28:37.460Z</time>
      </trkpt>
      <trkpt lat="43.21860667" lon="-6.87028167">
        <ele>572.0</ele>
        <time>2022-06-19T07:28:38.471Z</time>
      </trkpt>
      <trkpt lat="43.21858833" lon="-6.87030833">
        <ele>572.0</ele>
        <time>2022-06-19T07:28:39.455Z</time>
      </trkpt>
      <trkpt lat="43.21856833" lon="-6.87034">
        <ele>572.0</ele>
        <time>2022-06-19T07:28:40.480Z</time>
      </trkpt>
      <trkpt lat="43.21856833" lon="-6.87034">
        <ele>572.0</ele>
        <time>2022-06-19T07:28:41.457Z</time>
      </trkpt>
      <trkpt lat="43.21852667" lon="-6.8704">
        <ele>573.0</ele>
        <time>2022-06-19T07:28:42.477Z</time>
      </trkpt>
      <trkpt lat="43.21852667" lon="-6.8704">
        <ele>573.0</ele>
        <time>2022-06-19T07:28:43.441Z</time>
      </trkpt>
      <trkpt lat="43.21848667" lon="-6.87046667">
        <ele>573.0</ele>
        <time>2022-06-19T07:28:44.451Z</time>
      </trkpt>
      <trkpt lat="43.21846667" lon="-6.87049667">
        <ele>573.0</ele>
        <time>2022-06-19T07:28:45.478Z</time>
      </trkpt>
      <trkpt lat="43.21846667" lon="-6.87049667">
        <ele>573.0</ele>
        <time>2022-06-19T07:28:46.445Z</time>
      </trkpt>
      <trkpt lat="43.21843333" lon="-6.87056">
        <ele>573.0</ele>
        <time>2022-06-19T07:28:47.469Z</time>
      </trkpt>
      <trkpt lat="43.21841333" lon="-6.87059167">
        <ele>573.0</ele>
        <time>2022-06-19T07:28:48.460Z</time>
      </trkpt>
      <trkpt lat="43.21841333" lon="-6.87059167">
        <ele>573.0</ele>
        <time>2022-06-19T07:28:49.461Z</time>
      </trkpt>
      <trkpt lat="43.21836833" lon="-6.870655">
        <ele>573.0</ele>
        <time>2022-06-19T07:28:50.473Z</time>
      </trkpt>
      <trkpt lat="43.21834333" lon="-6.87068333">
        <ele>573.0</ele>
        <time>2022-06-19T07:28:51.465Z</time>
      </trkpt>
      <trkpt lat="43.21834333" lon="-6.87068333">
        <ele>573.0</ele>
        <time>2022-06-19T07:28:52.451Z</time>
      </trkpt>
      <trkpt lat="43.21829" lon="-6.87074">
        <ele>573.0</ele>
        <time>2022-06-19T07:28:53.462Z</time>
      </trkpt>
      <trkpt lat="43.21826167" lon="-6.87077">
        <ele>573.0</ele>
        <time>2022-06-19T07:28:54.477Z</time>
      </trkpt>
      <trkpt lat="43.21826167" lon="-6.87077">
        <ele>573.0</ele>
        <time>2022-06-19T07:28:55.464Z</time>
      </trkpt>
      <trkpt lat="43.21820667" lon="-6.87082833">
        <ele>573.0</ele>
        <time>2022-06-19T07:28:56.478Z</time>
      </trkpt>
      <trkpt lat="43.21820667" lon="-6.87082833">
        <ele>573.0</ele>
        <time>2022-06-19T07:28:57.459Z</time>
      </trkpt>
      <trkpt lat="43.21815167" lon="-6.87089">
        <ele>572.0</ele>
        <time>2022-06-19T07:28:58.455Z</time>
      </trkpt>
      <trkpt lat="43.21815167" lon="-6.87089">
        <ele>572.0</ele>
        <time>2022-06-19T07:28:59.448Z</time>
      </trkpt>
      <trkpt lat="43.21808667" lon="-6.87095667">
        <ele>572.0</ele>
        <time>2022-06-19T07:29:00.457Z</time>
      </trkpt>
      <trkpt lat="43.21808667" lon="-6.87095667">
        <ele>572.0</ele>
        <time>2022-06-19T07:29:01.458Z</time>
      </trkpt>
      <trkpt lat="43.21802667" lon="-6.87102">
        <ele>572.0</ele>
        <time>2022-06-19T07:29:02.466Z</time>
      </trkpt>
      <trkpt lat="43.21799667" lon="-6.87105333">
        <ele>572.0</ele>
        <time>2022-06-19T07:29:03.448Z</time>
      </trkpt>
      <trkpt lat="43.21796833" lon="-6.871085">
        <ele>572.0</ele>
        <time>2022-06-19T07:29:04.459Z</time>
      </trkpt>
      <trkpt lat="43.21796833" lon="-6.871085">
        <ele>572.0</ele>
        <time>2022-06-19T07:29:05.474Z</time>
      </trkpt>
      <trkpt lat="43.21791" lon="-6.87115167">
        <ele>572.0</ele>
        <time>2022-06-19T07:29:06.448Z</time>
      </trkpt>
      <trkpt lat="43.21791" lon="-6.87115167">
        <ele>572.0</ele>
        <time>2022-06-19T07:29:07.469Z</time>
      </trkpt>
      <trkpt lat="43.21785167" lon="-6.87122">
        <ele>572.0</ele>
        <time>2022-06-19T07:29:08.506Z</time>
      </trkpt>
      <trkpt lat="43.21785167" lon="-6.87122">
        <ele>572.0</ele>
        <time>2022-06-19T07:29:09.467Z</time>
      </trkpt>
      <trkpt lat="43.21780167" lon="-6.871295">
        <ele>572.0</ele>
        <time>2022-06-19T07:29:10.462Z</time>
      </trkpt>
      <trkpt lat="43.21778" lon="-6.871335">
        <ele>571.0</ele>
        <time>2022-06-19T07:29:11.458Z</time>
      </trkpt>
      <trkpt lat="43.21776167" lon="-6.87137833">
        <ele>571.0</ele>
        <time>2022-06-19T07:29:12.458Z</time>
      </trkpt>
      <trkpt lat="43.21776167" lon="-6.87137833">
        <ele>571.0</ele>
        <time>2022-06-19T07:29:13.468Z</time>
      </trkpt>
      <trkpt lat="43.21771167" lon="-6.87145667">
        <ele>571.0</ele>
        <time>2022-06-19T07:29:14.442Z</time>
      </trkpt>
      <trkpt lat="43.21771167" lon="-6.87145667">
        <ele>571.0</ele>
        <time>2022-06-19T07:29:15.461Z</time>
      </trkpt>
      <trkpt lat="43.21767333" lon="-6.871535">
        <ele>571.0</ele>
        <time>2022-06-19T07:29:16.473Z</time>
      </trkpt>
      <trkpt lat="43.21767333" lon="-6.871535">
        <ele>571.0</ele>
        <time>2022-06-19T07:29:17.453Z</time>
      </trkpt>
      <trkpt lat="43.21762667" lon="-6.87161667">
        <ele>571.0</ele>
        <time>2022-06-19T07:29:18.463Z</time>
      </trkpt>
      <trkpt lat="43.21760167" lon="-6.871655">
        <ele>571.0</ele>
        <time>2022-06-19T07:29:19.484Z</time>
      </trkpt>
      <trkpt lat="43.21760167" lon="-6.871655">
        <ele>571.0</ele>
        <time>2022-06-19T07:29:20.449Z</time>
      </trkpt>
      <trkpt lat="43.21755333" lon="-6.87173333">
        <ele>571.0</ele>
        <time>2022-06-19T07:29:21.464Z</time>
      </trkpt>
      <trkpt lat="43.21753" lon="-6.87177167">
        <ele>571.0</ele>
        <time>2022-06-19T07:29:22.461Z</time>
      </trkpt>
      <trkpt lat="43.21753" lon="-6.87177167">
        <ele>571.0</ele>
        <time>2022-06-19T07:29:23.450Z</time>
      </trkpt>
      <trkpt lat="43.21747833" lon="-6.87185167">
        <ele>571.0</ele>
        <time>2022-06-19T07:29:24.465Z</time>
      </trkpt>
      <trkpt lat="43.21745333" lon="-6.87189">
        <ele>571.0</ele>
        <time>2022-06-19T07:29:25.460Z</time>
      </trkpt>
      <trkpt lat="43.21745333" lon="-6.87189">
        <ele>571.0</ele>
        <time>2022-06-19T07:29:26.453Z</time>
      </trkpt>
      <trkpt lat="43.21740333" lon="-6.87196333">
        <ele>572.0</ele>
        <time>2022-06-19T07:29:27.478Z</time>
      </trkpt>
      <trkpt lat="43.21738" lon="-6.87200167">
        <ele>572.0</ele>
        <time>2022-06-19T07:29:28.476Z</time>
      </trkpt>
      <trkpt lat="43.217355" lon="-6.87203667">
        <ele>572.0</ele>
        <time>2022-06-19T07:29:29.467Z</time>
      </trkpt>
      <trkpt lat="43.217355" lon="-6.87203667">
        <ele>572.0</ele>
        <time>2022-06-19T07:29:30.454Z</time>
      </trkpt>
      <trkpt lat="43.21731333" lon="-6.87211">
        <ele>572.0</ele>
        <time>2022-06-19T07:29:31.468Z</time>
      </trkpt>
      <trkpt lat="43.21729667" lon="-6.87213667">
        <ele>572.0</ele>
        <time>2022-06-19T07:29:32.477Z</time>
      </trkpt>
      <trkpt lat="43.21729667" lon="-6.87213667">
        <ele>572.0</ele>
        <time>2022-06-19T07:29:33.452Z</time>
      </trkpt>
      <trkpt lat="43.217265" lon="-6.872185">
        <ele>571.0</ele>
        <time>2022-06-19T07:29:34.464Z</time>
      </trkpt>
      <trkpt lat="43.217265" lon="-6.872185">
        <ele>571.0</ele>
        <time>2022-06-19T07:29:35.480Z</time>
      </trkpt>
      <trkpt lat="43.21723833" lon="-6.87222667">
        <ele>571.0</ele>
        <time>2022-06-19T07:29:36.454Z</time>
      </trkpt>
      <trkpt lat="43.21723833" lon="-6.87222667">
        <ele>571.0</ele>
        <time>2022-06-19T07:29:37.466Z</time>
      </trkpt>
      <trkpt lat="43.21720833" lon="-6.872265">
        <ele>571.0</ele>
        <time>2022-06-19T07:29:38.474Z</time>
      </trkpt>
      <trkpt lat="43.21720833" lon="-6.872265">
        <ele>571.0</ele>
        <time>2022-06-19T07:29:39.469Z</time>
      </trkpt>
      <trkpt lat="43.217175" lon="-6.87230167">
        <ele>571.0</ele>
        <time>2022-06-19T07:29:40.478Z</time>
      </trkpt>
      <trkpt lat="43.217175" lon="-6.87230167">
        <ele>571.0</ele>
        <time>2022-06-19T07:29:41.460Z</time>
      </trkpt>
      <trkpt lat="43.217145" lon="-6.87233667">
        <ele>571.0</ele>
        <time>2022-06-19T07:29:42.451Z</time>
      </trkpt>
      <trkpt lat="43.217145" lon="-6.87233667">
        <ele>571.0</ele>
        <time>2022-06-19T07:29:43.456Z</time>
      </trkpt>
      <trkpt lat="43.21712" lon="-6.87235833">
        <ele>571.0</ele>
        <time>2022-06-19T07:29:44.474Z</time>
      </trkpt>
      <trkpt lat="43.21711333" lon="-6.87237167">
        <ele>571.0</ele>
        <time>2022-06-19T07:29:45.479Z</time>
      </trkpt>
      <trkpt lat="43.21711333" lon="-6.87237167">
        <ele>571.0</ele>
        <time>2022-06-19T07:29:46.453Z</time>
      </trkpt>
      <trkpt lat="43.21709" lon="-6.87241167">
        <ele>571.0</ele>
        <time>2022-06-19T07:29:47.462Z</time>
      </trkpt>
      <trkpt lat="43.21707333" lon="-6.87244167">
        <ele>571.0</ele>
        <time>2022-06-19T07:29:48.447Z</time>
      </trkpt>
      <trkpt lat="43.21707333" lon="-6.87244167">
        <ele>571.0</ele>
        <time>2022-06-19T07:29:49.466Z</time>
      </trkpt>
      <trkpt lat="43.21703333" lon="-6.87249667">
        <ele>571.0</ele>
        <time>2022-06-19T07:29:50.481Z</time>
      </trkpt>
      <trkpt lat="43.21701667" lon="-6.87252667">
        <ele>571.0</ele>
        <time>2022-06-19T07:29:51.474Z</time>
      </trkpt>
      <trkpt lat="43.21701667" lon="-6.87252667">
        <ele>571.0</ele>
        <time>2022-06-19T07:29:52.459Z</time>
      </trkpt>
      <trkpt lat="43.216985" lon="-6.87259">
        <ele>571.0</ele>
        <time>2022-06-19T07:29:53.468Z</time>
      </trkpt>
      <trkpt lat="43.216985" lon="-6.87259">
        <ele>571.0</ele>
        <time>2022-06-19T07:29:54.466Z</time>
      </trkpt>
      <trkpt lat="43.21695167" lon="-6.87264833">
        <ele>571.0</ele>
        <time>2022-06-19T07:29:55.475Z</time>
      </trkpt>
      <trkpt lat="43.21695167" lon="-6.87264833">
        <ele>571.0</ele>
        <time>2022-06-19T07:29:56.470Z</time>
      </trkpt>
      <trkpt lat="43.21692" lon="-6.872705">
        <ele>572.0</ele>
        <time>2022-06-19T07:29:57.481Z</time>
      </trkpt>
      <trkpt lat="43.21692" lon="-6.872705">
        <ele>572.0</ele>
        <time>2022-06-19T07:29:58.454Z</time>
      </trkpt>
      <trkpt lat="43.216895" lon="-6.87276667">
        <ele>572.0</ele>
        <time>2022-06-19T07:29:59.468Z</time>
      </trkpt>
      <trkpt lat="43.21688167" lon="-6.87279833">
        <ele>572.0</ele>
        <time>2022-06-19T07:30:00.450Z</time>
      </trkpt>
      <trkpt lat="43.21688167" lon="-6.87279833">
        <ele>572.0</ele>
        <time>2022-06-19T07:30:01.451Z</time>
      </trkpt>
      <trkpt lat="43.21685833" lon="-6.872855">
        <ele>572.0</ele>
        <time>2022-06-19T07:30:02.476Z</time>
      </trkpt>
      <trkpt lat="43.21685833" lon="-6.872855">
        <ele>572.0</ele>
        <time>2022-06-19T07:30:03.456Z</time>
      </trkpt>
      <trkpt lat="43.21684" lon="-6.872915">
        <ele>573.0</ele>
        <time>2022-06-19T07:30:04.465Z</time>
      </trkpt>
      <trkpt lat="43.21684" lon="-6.872915">
        <ele>573.0</ele>
        <time>2022-06-19T07:30:05.461Z</time>
      </trkpt>
      <trkpt lat="43.21681833" lon="-6.87297">
        <ele>573.0</ele>
        <time>2022-06-19T07:30:06.473Z</time>
      </trkpt>
      <trkpt lat="43.21681833" lon="-6.87297">
        <ele>573.0</ele>
        <time>2022-06-19T07:30:07.450Z</time>
      </trkpt>
      <trkpt lat="43.2168" lon="-6.873035">
        <ele>573.0</ele>
        <time>2022-06-19T07:30:08.466Z</time>
      </trkpt>
      <trkpt lat="43.2168" lon="-6.873035">
        <ele>573.0</ele>
        <time>2022-06-19T07:30:09.451Z</time>
      </trkpt>
      <trkpt lat="43.216775" lon="-6.87308667">
        <ele>574.0</ele>
        <time>2022-06-19T07:30:10.458Z</time>
      </trkpt>
      <trkpt lat="43.216775" lon="-6.87308667">
        <ele>574.0</ele>
        <time>2022-06-19T07:30:11.460Z</time>
      </trkpt>
      <trkpt lat="43.21675" lon="-6.873135">
        <ele>574.0</ele>
        <time>2022-06-19T07:30:12.472Z</time>
      </trkpt>
      <trkpt lat="43.21675" lon="-6.873135">
        <ele>574.0</ele>
        <time>2022-06-19T07:30:13.455Z</time>
      </trkpt>
      <trkpt lat="43.21673" lon="-6.87317167">
        <ele>574.0</ele>
        <time>2022-06-19T07:30:14.469Z</time>
      </trkpt>
      <trkpt lat="43.21673" lon="-6.87317167">
        <ele>574.0</ele>
        <time>2022-06-19T07:30:15.449Z</time>
      </trkpt>
      <trkpt lat="43.21671833" lon="-6.87319833">
        <ele>575.0</ele>
        <time>2022-06-19T07:30:16.474Z</time>
      </trkpt>
      <trkpt lat="43.21671833" lon="-6.87319833">
        <ele>575.0</ele>
        <time>2022-06-19T07:30:17.455Z</time>
      </trkpt>
      <trkpt lat="43.216705" lon="-6.87321167">
        <ele>575.0</ele>
        <time>2022-06-19T07:30:18.458Z</time>
      </trkpt>
      <trkpt lat="43.216705" lon="-6.87321167">
        <ele>575.0</ele>
        <time>2022-06-19T07:30:19.478Z</time>
      </trkpt>
      <trkpt lat="43.21669833" lon="-6.873215">
        <ele>575.0</ele>
        <time>2022-06-19T07:30:20.461Z</time>
      </trkpt>
      <trkpt lat="43.21669833" lon="-6.873215">
        <ele>575.0</ele>
        <time>2022-06-19T07:30:45.421Z</time>
      </trkpt>
      <trkpt lat="43.21666667" lon="-6.87336667">
        <ele>574.0</ele>
        <time>2022-06-19T07:30:46.419Z</time>
      </trkpt>
      <trkpt lat="43.21666" lon="-6.873405">
        <ele>575.0</ele>
        <time>2022-06-19T07:30:47.436Z</time>
      </trkpt>
      <trkpt lat="43.21666" lon="-6.873405">
        <ele>575.0</ele>
        <time>2022-06-19T07:30:48.415Z</time>
      </trkpt>
      <trkpt lat="43.21662167" lon="-6.87346167">
        <ele>575.0</ele>
        <time>2022-06-19T07:30:49.464Z</time>
      </trkpt>
      <trkpt lat="43.21662167" lon="-6.87346167">
        <ele>575.0</ele>
        <time>2022-06-19T07:30:50.414Z</time>
      </trkpt>
      <trkpt lat="43.21658" lon="-6.87351167">
        <ele>575.0</ele>
        <time>2022-06-19T07:30:51.436Z</time>
      </trkpt>
      <trkpt lat="43.21656" lon="-6.87353333">
        <ele>575.0</ele>
        <time>2022-06-19T07:30:52.433Z</time>
      </trkpt>
      <trkpt lat="43.21656" lon="-6.87353333">
        <ele>575.0</ele>
        <time>2022-06-19T07:30:53.422Z</time>
      </trkpt>
      <trkpt lat="43.21651" lon="-6.87357833">
        <ele>575.0</ele>
        <time>2022-06-19T07:30:54.430Z</time>
      </trkpt>
      <trkpt lat="43.21651" lon="-6.87357833">
        <ele>575.0</ele>
        <time>2022-06-19T07:30:55.412Z</time>
      </trkpt>
      <trkpt lat="43.21647" lon="-6.87362">
        <ele>575.0</ele>
        <time>2022-06-19T07:30:56.430Z</time>
      </trkpt>
      <trkpt lat="43.21644833" lon="-6.87364">
        <ele>574.0</ele>
        <time>2022-06-19T07:30:57.413Z</time>
      </trkpt>
      <trkpt lat="43.21644833" lon="-6.87364">
        <ele>574.0</ele>
        <time>2022-06-19T07:30:58.438Z</time>
      </trkpt>
      <trkpt lat="43.21640333" lon="-6.87368167">
        <ele>574.0</ele>
        <time>2022-06-19T07:30:59.421Z</time>
      </trkpt>
      <trkpt lat="43.21637667" lon="-6.87370167">
        <ele>574.0</ele>
        <time>2022-06-19T07:31:00.416Z</time>
      </trkpt>
      <trkpt lat="43.21637667" lon="-6.87370167">
        <ele>574.0</ele>
        <time>2022-06-19T07:31:01.401Z</time>
      </trkpt>
      <trkpt lat="43.21633333" lon="-6.87374167">
        <ele>574.0</ele>
        <time>2022-06-19T07:31:02.426Z</time>
      </trkpt>
      <trkpt lat="43.21633333" lon="-6.87374167">
        <ele>574.0</ele>
        <time>2022-06-19T07:31:03.438Z</time>
      </trkpt>
      <trkpt lat="43.216285" lon="-6.87378333">
        <ele>574.0</ele>
        <time>2022-06-19T07:31:04.411Z</time>
      </trkpt>
      <trkpt lat="43.216285" lon="-6.87378333">
        <ele>574.0</ele>
        <time>2022-06-19T07:31:05.429Z</time>
      </trkpt>
      <trkpt lat="43.21624" lon="-6.87382667">
        <ele>574.0</ele>
        <time>2022-06-19T07:31:06.401Z</time>
      </trkpt>
      <trkpt lat="43.21624" lon="-6.87382667">
        <ele>574.0</ele>
        <time>2022-06-19T07:31:07.431Z</time>
      </trkpt>
      <trkpt lat="43.21619167" lon="-6.87386667">
        <ele>574.0</ele>
        <time>2022-06-19T07:31:08.400Z</time>
      </trkpt>
      <trkpt lat="43.21616667" lon="-6.87388833">
        <ele>574.0</ele>
        <time>2022-06-19T07:31:09.437Z</time>
      </trkpt>
      <trkpt lat="43.21616667" lon="-6.87388833">
        <ele>574.0</ele>
        <time>2022-06-19T07:31:10.428Z</time>
      </trkpt>
      <trkpt lat="43.21611667" lon="-6.87393167">
        <ele>574.0</ele>
        <time>2022-06-19T07:31:11.399Z</time>
      </trkpt>
      <trkpt lat="43.216095" lon="-6.873955">
        <ele>574.0</ele>
        <time>2022-06-19T07:31:12.401Z</time>
      </trkpt>
      <trkpt lat="43.216075" lon="-6.87398">
        <ele>575.0</ele>
        <time>2022-06-19T07:31:13.421Z</time>
      </trkpt>
      <trkpt lat="43.216075" lon="-6.87398">
        <ele>575.0</ele>
        <time>2022-06-19T07:31:14.432Z</time>
      </trkpt>
      <trkpt lat="43.216035" lon="-6.87403833">
        <ele>575.0</ele>
        <time>2022-06-19T07:31:15.430Z</time>
      </trkpt>
      <trkpt lat="43.21602" lon="-6.874075">
        <ele>575.0</ele>
        <time>2022-06-19T07:31:16.405Z</time>
      </trkpt>
      <trkpt lat="43.21602" lon="-6.874075">
        <ele>575.0</ele>
        <time>2022-06-19T07:31:17.408Z</time>
      </trkpt>
      <trkpt lat="43.21599167" lon="-6.87414667">
        <ele>575.0</ele>
        <time>2022-06-19T07:31:18.418Z</time>
      </trkpt>
      <trkpt lat="43.21599167" lon="-6.87414667">
        <ele>575.0</ele>
        <time>2022-06-19T07:31:19.405Z</time>
      </trkpt>
      <trkpt lat="43.21598167" lon="-6.87423333">
        <ele>575.0</ele>
        <time>2022-06-19T07:31:20.416Z</time>
      </trkpt>
      <trkpt lat="43.21598167" lon="-6.87423333">
        <ele>575.0</ele>
        <time>2022-06-19T07:31:21.419Z</time>
      </trkpt>
      <trkpt lat="43.215975" lon="-6.87431833">
        <ele>575.0</ele>
        <time>2022-06-19T07:31:22.430Z</time>
      </trkpt>
      <trkpt lat="43.215975" lon="-6.87431833">
        <ele>575.0</ele>
        <time>2022-06-19T07:31:23.431Z</time>
      </trkpt>
      <trkpt lat="43.21597333" lon="-6.87439667">
        <ele>576.0</ele>
        <time>2022-06-19T07:31:24.405Z</time>
      </trkpt>
      <trkpt lat="43.21597333" lon="-6.87439667">
        <ele>576.0</ele>
        <time>2022-06-19T07:31:25.400Z</time>
      </trkpt>
      <trkpt lat="43.21597333" lon="-6.87448">
        <ele>576.0</ele>
        <time>2022-06-19T07:31:26.418Z</time>
      </trkpt>
      <trkpt lat="43.21597333" lon="-6.87448">
        <ele>576.0</ele>
        <time>2022-06-19T07:31:27.402Z</time>
      </trkpt>
      <trkpt lat="43.215985" lon="-6.87456">
        <ele>577.0</ele>
        <time>2022-06-19T07:31:28.413Z</time>
      </trkpt>
      <trkpt lat="43.21599333" lon="-6.87459833">
        <ele>577.0</ele>
        <time>2022-06-19T07:31:29.399Z</time>
      </trkpt>
      <trkpt lat="43.21599333" lon="-6.87459833">
        <ele>577.0</ele>
        <time>2022-06-19T07:31:30.416Z</time>
      </trkpt>
      <trkpt lat="43.21601667" lon="-6.87466667">
        <ele>577.0</ele>
        <time>2022-06-19T07:31:31.406Z</time>
      </trkpt>
      <trkpt lat="43.21601667" lon="-6.87466667">
        <ele>577.0</ele>
        <time>2022-06-19T07:31:32.414Z</time>
      </trkpt>
      <trkpt lat="43.216045" lon="-6.87473333">
        <ele>577.0</ele>
        <time>2022-06-19T07:31:33.423Z</time>
      </trkpt>
      <trkpt lat="43.216065" lon="-6.874765">
        <ele>578.0</ele>
        <time>2022-06-19T07:31:34.434Z</time>
      </trkpt>
      <trkpt lat="43.216065" lon="-6.874765">
        <ele>578.0</ele>
        <time>2022-06-19T07:31:35.413Z</time>
      </trkpt>
      <trkpt lat="43.21610667" lon="-6.87482333">
        <ele>578.0</ele>
        <time>2022-06-19T07:31:36.431Z</time>
      </trkpt>
      <trkpt lat="43.21613" lon="-6.87485">
        <ele>578.0</ele>
        <time>2022-06-19T07:31:37.434Z</time>
      </trkpt>
      <trkpt lat="43.21613" lon="-6.87485">
        <ele>578.0</ele>
        <time>2022-06-19T07:31:38.433Z</time>
      </trkpt>
      <trkpt lat="43.21617833" lon="-6.8749">
        <ele>578.0</ele>
        <time>2022-06-19T07:31:39.402Z</time>
      </trkpt>
      <trkpt lat="43.21617833" lon="-6.8749">
        <ele>578.0</ele>
        <time>2022-06-19T07:31:40.417Z</time>
      </trkpt>
      <trkpt lat="43.21622833" lon="-6.87493833">
        <ele>578.0</ele>
        <time>2022-06-19T07:31:41.427Z</time>
      </trkpt>
      <trkpt lat="43.21625333" lon="-6.87495167">
        <ele>578.0</ele>
        <time>2022-06-19T07:31:42.401Z</time>
      </trkpt>
      <trkpt lat="43.21625333" lon="-6.87495167">
        <ele>578.0</ele>
        <time>2022-06-19T07:31:43.400Z</time>
      </trkpt>
      <trkpt lat="43.216305" lon="-6.87497833">
        <ele>578.0</ele>
        <time>2022-06-19T07:31:44.420Z</time>
      </trkpt>
      <trkpt lat="43.21633167" lon="-6.87499">
        <ele>578.0</ele>
        <time>2022-06-19T07:31:45.434Z</time>
      </trkpt>
      <trkpt lat="43.21633167" lon="-6.87499">
        <ele>578.0</ele>
        <time>2022-06-19T07:31:46.399Z</time>
      </trkpt>
      <trkpt lat="43.21639" lon="-6.87501333">
        <ele>578.0</ele>
        <time>2022-06-19T07:31:47.410Z</time>
      </trkpt>
      <trkpt lat="43.21642" lon="-6.87502667">
        <ele>578.0</ele>
        <time>2022-06-19T07:31:48.439Z</time>
      </trkpt>
      <trkpt lat="43.21642" lon="-6.87502667">
        <ele>578.0</ele>
        <time>2022-06-19T07:31:49.438Z</time>
      </trkpt>
      <trkpt lat="43.21648167" lon="-6.875045">
        <ele>579.0</ele>
        <time>2022-06-19T07:31:50.408Z</time>
      </trkpt>
      <trkpt lat="43.21648167" lon="-6.875045">
        <ele>579.0</ele>
        <time>2022-06-19T07:31:51.410Z</time>
      </trkpt>
      <trkpt lat="43.21654333" lon="-6.87506833">
        <ele>579.0</ele>
        <time>2022-06-19T07:31:52.424Z</time>
      </trkpt>
      <trkpt lat="43.21654333" lon="-6.87506833">
        <ele>579.0</ele>
        <time>2022-06-19T07:31:53.425Z</time>
      </trkpt>
      <trkpt lat="43.216605" lon="-6.87509667">
        <ele>579.0</ele>
        <time>2022-06-19T07:31:54.399Z</time>
      </trkpt>
      <trkpt lat="43.216605" lon="-6.87509667">
        <ele>579.0</ele>
        <time>2022-06-19T07:31:55.430Z</time>
      </trkpt>
      <trkpt lat="43.216665" lon="-6.87512">
        <ele>579.0</ele>
        <time>2022-06-19T07:31:56.438Z</time>
      </trkpt>
      <trkpt lat="43.216665" lon="-6.87512">
        <ele>579.0</ele>
        <time>2022-06-19T07:31:57.429Z</time>
      </trkpt>
      <trkpt lat="43.21671333" lon="-6.87514833">
        <ele>579.0</ele>
        <time>2022-06-19T07:31:58.399Z</time>
      </trkpt>
      <trkpt lat="43.21674" lon="-6.87516">
        <ele>579.0</ele>
        <time>2022-06-19T07:31:59.411Z</time>
      </trkpt>
      <trkpt lat="43.216765" lon="-6.87518">
        <ele>579.0</ele>
        <time>2022-06-19T07:32:00.423Z</time>
      </trkpt>
      <trkpt lat="43.216765" lon="-6.87518">
        <ele>579.0</ele>
        <time>2022-06-19T07:32:01.404Z</time>
      </trkpt>
      <trkpt lat="43.21681" lon="-6.875205">
        <ele>579.0</ele>
        <time>2022-06-19T07:32:02.424Z</time>
      </trkpt>
      <trkpt lat="43.21683167" lon="-6.875215">
        <ele>579.0</ele>
        <time>2022-06-19T07:32:03.426Z</time>
      </trkpt>
      <trkpt lat="43.21683167" lon="-6.875215">
        <ele>579.0</ele>
        <time>2022-06-19T07:32:04.410Z</time>
      </trkpt>
      <trkpt lat="43.21687833" lon="-6.87523167">
        <ele>579.0</ele>
        <time>2022-06-19T07:32:05.424Z</time>
      </trkpt>
      <trkpt lat="43.21690333" lon="-6.87524333">
        <ele>579.0</ele>
        <time>2022-06-19T07:32:06.428Z</time>
      </trkpt>
      <trkpt lat="43.21690333" lon="-6.87524333">
        <ele>579.0</ele>
        <time>2022-06-19T07:32:07.406Z</time>
      </trkpt>
      <trkpt lat="43.21695833" lon="-6.87525667">
        <ele>579.0</ele>
        <time>2022-06-19T07:32:08.427Z</time>
      </trkpt>
      <trkpt lat="43.21698333" lon="-6.87526833">
        <ele>579.0</ele>
        <time>2022-06-19T07:32:09.424Z</time>
      </trkpt>
      <trkpt lat="43.21698333" lon="-6.87526833">
        <ele>579.0</ele>
        <time>2022-06-19T07:32:10.422Z</time>
      </trkpt>
      <trkpt lat="43.21703333" lon="-6.87528833">
        <ele>580.0</ele>
        <time>2022-06-19T07:32:11.428Z</time>
      </trkpt>
      <trkpt lat="43.21703333" lon="-6.87528833">
        <ele>580.0</ele>
        <time>2022-06-19T07:32:12.408Z</time>
      </trkpt>
      <trkpt lat="43.217085" lon="-6.87530667">
        <ele>580.0</ele>
        <time>2022-06-19T07:32:13.430Z</time>
      </trkpt>
      <trkpt lat="43.217085" lon="-6.87530667">
        <ele>580.0</ele>
        <time>2022-06-19T07:32:14.410Z</time>
      </trkpt>
      <trkpt lat="43.21713667" lon="-6.87533667">
        <ele>580.0</ele>
        <time>2022-06-19T07:32:15.436Z</time>
      </trkpt>
      <trkpt lat="43.21713667" lon="-6.87533667">
        <ele>580.0</ele>
        <time>2022-06-19T07:32:16.425Z</time>
      </trkpt>
      <trkpt lat="43.21715833" lon="-6.87534333">
        <ele>580.0</ele>
        <time>2022-06-19T07:32:17.410Z</time>
      </trkpt>
      <trkpt lat="43.21718" lon="-6.87535167">
        <ele>580.0</ele>
        <time>2022-06-19T07:32:18.438Z</time>
      </trkpt>
      <trkpt lat="43.21718" lon="-6.87535167">
        <ele>580.0</ele>
        <time>2022-06-19T07:32:19.409Z</time>
      </trkpt>
      <trkpt lat="43.217215" lon="-6.87537">
        <ele>580.0</ele>
        <time>2022-06-19T07:32:20.424Z</time>
      </trkpt>
      <trkpt lat="43.217215" lon="-6.87537">
        <ele>580.0</ele>
        <time>2022-06-19T07:32:21.434Z</time>
      </trkpt>
      <trkpt lat="43.21722" lon="-6.87537667">
        <ele>580.0</ele>
        <time>2022-06-19T07:32:22.400Z</time>
      </trkpt>
      <trkpt lat="43.21722" lon="-6.87537667">
        <ele>580.0</ele>
        <time>2022-06-19T07:32:23.427Z</time>
      </trkpt>
      <trkpt lat="43.217215" lon="-6.875395">
        <ele>580.0</ele>
        <time>2022-06-19T07:32:24.433Z</time>
      </trkpt>
      <trkpt lat="43.21721667" lon="-6.875405">
        <ele>580.0</ele>
        <time>2022-06-19T07:32:25.433Z</time>
      </trkpt>
      <trkpt lat="43.21721667" lon="-6.875405">
        <ele>580.0</ele>
        <time>2022-06-19T07:32:26.412Z</time>
      </trkpt>
      <trkpt lat="43.21721333" lon="-6.87541667">
        <ele>580.0</ele>
        <time>2022-06-19T07:32:27.431Z</time>
      </trkpt>
      <trkpt lat="43.21721333" lon="-6.87541667">
        <ele>580.0</ele>
        <time>2022-06-19T07:32:28.410Z</time>
      </trkpt>
      <trkpt lat="43.21720833" lon="-6.87542667">
        <ele>580.0</ele>
        <time>2022-06-19T07:32:29.415Z</time>
      </trkpt>
      <trkpt lat="43.21726" lon="-6.875465">
        <ele>591.0</ele>
        <time>2022-06-19T07:53:36.491Z</time>
      </trkpt>
      <trkpt lat="43.21726" lon="-6.875465">
        <ele>591.0</ele>
        <time>2022-06-19T07:53:37.466Z</time>
      </trkpt>
      <trkpt lat="43.21726" lon="-6.875465">
        <ele>591.0</ele>
        <time>2022-06-19T07:53:38.479Z</time>
      </trkpt>
      <trkpt lat="43.21726" lon="-6.875465">
        <ele>591.0</ele>
        <time>2022-06-19T07:53:39.487Z</time>
      </trkpt>
      <trkpt lat="43.21726" lon="-6.875465">
        <ele>591.0</ele>
        <time>2022-06-19T07:53:40.496Z</time>
      </trkpt>
      <trkpt lat="43.21726" lon="-6.875465">
        <ele>591.0</ele>
        <time>2022-06-19T07:53:41.490Z</time>
      </trkpt>
      <trkpt lat="43.21726" lon="-6.875465">
        <ele>591.0</ele>
        <time>2022-06-19T07:53:42.465Z</time>
      </trkpt>
      <trkpt lat="43.21726" lon="-6.875465">
        <ele>591.0</ele>
        <time>2022-06-19T07:53:43.495Z</time>
      </trkpt>
      <trkpt lat="43.21726" lon="-6.875465">
        <ele>591.0</ele>
        <time>2022-06-19T07:53:44.487Z</time>
      </trkpt>
      <trkpt lat="43.21726" lon="-6.875465">
        <ele>591.0</ele>
        <time>2022-06-19T07:53:45.491Z</time>
      </trkpt>
      <trkpt lat="43.21726" lon="-6.875465">
        <ele>591.0</ele>
        <time>2022-06-19T07:53:46.483Z</time>
      </trkpt>
      <trkpt lat="43.21726" lon="-6.875465">
        <ele>591.0</ele>
        <time>2022-06-19T07:53:47.488Z</time>
      </trkpt>
      <trkpt lat="43.21726" lon="-6.875465">
        <ele>591.0</ele>
        <time>2022-06-19T07:53:48.487Z</time>
      </trkpt>
      <trkpt lat="43.21726" lon="-6.875465">
        <ele>591.0</ele>
        <time>2022-06-19T07:53:49.488Z</time>
      </trkpt>
      <trkpt lat="43.21726" lon="-6.875465">
        <ele>591.0</ele>
        <time>2022-06-19T07:53:50.492Z</time>
      </trkpt>
      <trkpt lat="43.21726" lon="-6.875465">
        <ele>591.0</ele>
        <time>2022-06-19T07:53:51.489Z</time>
      </trkpt>
      <trkpt lat="43.21726" lon="-6.875465">
        <ele>591.0</ele>
        <time>2022-06-19T07:53:52.486Z</time>
      </trkpt>
      <trkpt lat="43.21726" lon="-6.875465">
        <ele>591.0</ele>
        <time>2022-06-19T07:53:53.492Z</time>
      </trkpt>
      <trkpt lat="43.21726" lon="-6.875465">
        <ele>591.0</ele>
        <time>2022-06-19T07:53:54.490Z</time>
      </trkpt>
      <trkpt lat="43.21726" lon="-6.875465">
        <ele>591.0</ele>
        <time>2022-06-19T07:53:55.492Z</time>
      </trkpt>
      <trkpt lat="43.21726" lon="-6.875465">
        <ele>591.0</ele>
        <time>2022-06-19T07:53:56.495Z</time>
      </trkpt>
      <trkpt lat="43.21726" lon="-6.875465">
        <ele>591.0</ele>
        <time>2022-06-19T07:53:57.472Z</time>
      </trkpt>
      <trkpt lat="43.21726" lon="-6.875465">
        <ele>591.0</ele>
        <time>2022-06-19T07:53:58.479Z</time>
      </trkpt>
      <trkpt lat="43.21726" lon="-6.875465">
        <ele>591.0</ele>
        <time>2022-06-19T07:53:59.486Z</time>
      </trkpt>
      <trkpt lat="43.21726" lon="-6.875465">
        <ele>591.0</ele>
        <time>2022-06-19T07:54:00.496Z</time>
      </trkpt>
      <trkpt lat="43.21726" lon="-6.875465">
        <ele>591.0</ele>
        <time>2022-06-19T07:54:01.493Z</time>
      </trkpt>
      <trkpt lat="43.21726" lon="-6.875465">
        <ele>591.0</ele>
        <time>2022-06-19T07:54:02.478Z</time>
      </trkpt>
      <trkpt lat="43.21722" lon="-6.87551">
        <ele>589.0</ele>
        <time>2022-06-19T07:54:03.493Z</time>
      </trkpt>
      <trkpt lat="43.21722" lon="-6.87551">
        <ele>589.0</ele>
        <time>2022-06-19T07:54:04.483Z</time>
      </trkpt>
      <trkpt lat="43.21720333" lon="-6.87553167">
        <ele>588.0</ele>
        <time>2022-06-19T07:54:05.480Z</time>
      </trkpt>
      <trkpt lat="43.21720333" lon="-6.87553167">
        <ele>588.0</ele>
        <time>2022-06-19T07:54:06.488Z</time>
      </trkpt>
      <trkpt lat="43.21719833" lon="-6.87553667">
        <ele>588.0</ele>
        <time>2022-06-19T07:54:07.496Z</time>
      </trkpt>
      <trkpt lat="43.21719833" lon="-6.87553667">
        <ele>588.0</ele>
        <time>2022-06-19T07:54:08.486Z</time>
      </trkpt>
      <trkpt lat="43.21719833" lon="-6.87553667">
        <ele>588.0</ele>
        <time>2022-06-19T07:54:09.494Z</time>
      </trkpt>
      <trkpt lat="43.21719833" lon="-6.87553667">
        <ele>588.0</ele>
        <time>2022-06-19T07:54:10.483Z</time>
      </trkpt>
      <trkpt lat="43.21719833" lon="-6.87553667">
        <ele>588.0</ele>
        <time>2022-06-19T07:54:11.468Z</time>
      </trkpt>
      <trkpt lat="43.21719833" lon="-6.87553667">
        <ele>588.0</ele>
        <time>2022-06-19T07:54:12.500Z</time>
      </trkpt>
      <trkpt lat="43.21719833" lon="-6.87553667">
        <ele>588.0</ele>
        <time>2022-06-19T07:54:13.487Z</time>
      </trkpt>
      <trkpt lat="43.21719833" lon="-6.87553667">
        <ele>588.0</ele>
        <time>2022-06-19T07:54:14.482Z</time>
      </trkpt>
      <trkpt lat="43.21719833" lon="-6.87553667">
        <ele>588.0</ele>
        <time>2022-06-19T07:54:15.502Z</time>
      </trkpt>
      <trkpt lat="43.21719833" lon="-6.87553667">
        <ele>588.0</ele>
        <time>2022-06-19T07:54:16.488Z</time>
      </trkpt>
      <trkpt lat="43.21719833" lon="-6.87553667">
        <ele>588.0</ele>
        <time>2022-06-19T07:54:17.484Z</time>
      </trkpt>
      <trkpt lat="43.21719833" lon="-6.87553667">
        <ele>588.0</ele>
        <time>2022-06-19T07:54:18.465Z</time>
      </trkpt>
      <trkpt lat="43.21719833" lon="-6.87553667">
        <ele>588.0</ele>
        <time>2022-06-19T07:54:19.491Z</time>
      </trkpt>
      <trkpt lat="43.21719833" lon="-6.87553667">
        <ele>588.0</ele>
        <time>2022-06-19T07:54:20.483Z</time>
      </trkpt>
      <trkpt lat="43.21719833" lon="-6.87553667">
        <ele>588.0</ele>
        <time>2022-06-19T07:54:21.502Z</time>
      </trkpt>
      <trkpt lat="43.21719833" lon="-6.87553667">
        <ele>588.0</ele>
        <time>2022-06-19T07:54:22.485Z</time>
      </trkpt>
      <trkpt lat="43.21719833" lon="-6.87553667">
        <ele>588.0</ele>
        <time>2022-06-19T07:54:23.465Z</time>
      </trkpt>
      <trkpt lat="43.21719833" lon="-6.87553667">
        <ele>588.0</ele>
        <time>2022-06-19T07:54:24.488Z</time>
      </trkpt>
      <trkpt lat="43.21719833" lon="-6.87553667">
        <ele>588.0</ele>
        <time>2022-06-19T07:54:25.498Z</time>
      </trkpt>
      <trkpt lat="43.21719833" lon="-6.87553667">
        <ele>588.0</ele>
        <time>2022-06-19T07:54:26.485Z</time>
      </trkpt>
      <trkpt lat="43.21719833" lon="-6.87553667">
        <ele>588.0</ele>
        <time>2022-06-19T07:54:27.491Z</time>
      </trkpt>
      <trkpt lat="43.21719833" lon="-6.87553667">
        <ele>588.0</ele>
        <time>2022-06-19T07:54:28.484Z</time>
      </trkpt>
      <trkpt lat="43.21719833" lon="-6.87553667">
        <ele>588.0</ele>
        <time>2022-06-19T07:54:29.464Z</time>
      </trkpt>
      <trkpt lat="43.21719833" lon="-6.87553667">
        <ele>588.0</ele>
        <time>2022-06-19T07:54:30.491Z</time>
      </trkpt>
      <trkpt lat="43.21719833" lon="-6.87553667">
        <ele>588.0</ele>
        <time>2022-06-19T07:54:31.492Z</time>
      </trkpt>
      <trkpt lat="43.21719833" lon="-6.87553667">
        <ele>588.0</ele>
        <time>2022-06-19T07:54:32.483Z</time>
      </trkpt>
      <trkpt lat="43.21719833" lon="-6.87553667">
        <ele>588.0</ele>
        <time>2022-06-19T07:54:33.463Z</time>
      </trkpt>
      <trkpt lat="43.21725333" lon="-6.87555167">
        <ele>582.0</ele>
        <time>2022-06-19T07:54:34.484Z</time>
      </trkpt>
      <trkpt lat="43.21728" lon="-6.875535">
        <ele>582.0</ele>
        <time>2022-06-19T07:54:35.464Z</time>
      </trkpt>
      <trkpt lat="43.21728" lon="-6.875535">
        <ele>582.0</ele>
        <time>2022-06-19T07:54:36.475Z</time>
      </trkpt>
      <trkpt lat="43.21735" lon="-6.87546333">
        <ele>582.0</ele>
        <time>2022-06-19T07:54:37.499Z</time>
      </trkpt>
      <trkpt lat="43.21735" lon="-6.87546333">
        <ele>582.0</ele>
        <time>2022-06-19T07:54:38.466Z</time>
      </trkpt>
      <trkpt lat="43.21739833" lon="-6.87545667">
        <ele>582.0</ele>
        <time>2022-06-19T07:54:39.480Z</time>
      </trkpt>
      <trkpt lat="43.217425" lon="-6.87545667">
        <ele>582.0</ele>
        <time>2022-06-19T07:54:40.484Z</time>
      </trkpt>
      <trkpt lat="43.217425" lon="-6.87545667">
        <ele>582.0</ele>
        <time>2022-06-19T07:54:41.491Z</time>
      </trkpt>
      <trkpt lat="43.21747167" lon="-6.87546833">
        <ele>582.0</ele>
        <time>2022-06-19T07:54:42.476Z</time>
      </trkpt>
      <trkpt lat="43.21749" lon="-6.87549167">
        <ele>582.0</ele>
        <time>2022-06-19T07:54:43.493Z</time>
      </trkpt>
      <trkpt lat="43.21749" lon="-6.87549167">
        <ele>582.0</ele>
        <time>2022-06-19T07:54:44.499Z</time>
      </trkpt>
      <trkpt lat="43.21753" lon="-6.87554">
        <ele>583.0</ele>
        <time>2022-06-19T07:54:45.488Z</time>
      </trkpt>
      <trkpt lat="43.21754667" lon="-6.87556333">
        <ele>583.0</ele>
        <time>2022-06-19T07:54:46.493Z</time>
      </trkpt>
      <trkpt lat="43.21756" lon="-6.87559167">
        <ele>583.0</ele>
        <time>2022-06-19T07:54:47.480Z</time>
      </trkpt>
      <trkpt lat="43.21756" lon="-6.87559167">
        <ele>583.0</ele>
        <time>2022-06-19T07:54:48.482Z</time>
      </trkpt>
      <trkpt lat="43.217585" lon="-6.87565">
        <ele>582.0</ele>
        <time>2022-06-19T07:54:49.470Z</time>
      </trkpt>
      <trkpt lat="43.217585" lon="-6.87565">
        <ele>582.0</ele>
        <time>2022-06-19T07:54:50.479Z</time>
      </trkpt>
      <trkpt lat="43.21759833" lon="-6.87571">
        <ele>582.0</ele>
        <time>2022-06-19T07:54:51.468Z</time>
      </trkpt>
      <trkpt lat="43.21759833" lon="-6.87571">
        <ele>582.0</ele>
        <time>2022-06-19T07:54:52.477Z</time>
      </trkpt>
      <trkpt lat="43.21761167" lon="-6.87577167">
        <ele>582.0</ele>
        <time>2022-06-19T07:54:53.494Z</time>
      </trkpt>
      <trkpt lat="43.21761167" lon="-6.87577167">
        <ele>582.0</ele>
        <time>2022-06-19T07:54:54.501Z</time>
      </trkpt>
      <trkpt lat="43.21761833" lon="-6.87583833">
        <ele>583.0</ele>
        <time>2022-06-19T07:54:55.484Z</time>
      </trkpt>
      <trkpt lat="43.21761833" lon="-6.87583833">
        <ele>583.0</ele>
        <time>2022-06-19T07:54:56.491Z</time>
      </trkpt>
      <trkpt lat="43.21761833" lon="-6.87590833">
        <ele>583.0</ele>
        <time>2022-06-19T07:54:57.471Z</time>
      </trkpt>
      <trkpt lat="43.21761833" lon="-6.87590833">
        <ele>583.0</ele>
        <time>2022-06-19T07:54:58.486Z</time>
      </trkpt>
      <trkpt lat="43.21761" lon="-6.87597833">
        <ele>584.0</ele>
        <time>2022-06-19T07:54:59.473Z</time>
      </trkpt>
      <trkpt lat="43.21761" lon="-6.87597833">
        <ele>584.0</ele>
        <time>2022-06-19T07:55:00.480Z</time>
      </trkpt>
      <trkpt lat="43.21758667" lon="-6.87604167">
        <ele>585.0</ele>
        <time>2022-06-19T07:55:01.495Z</time>
      </trkpt>
      <trkpt lat="43.21758667" lon="-6.87604167">
        <ele>585.0</ele>
        <time>2022-06-19T07:55:02.463Z</time>
      </trkpt>
      <trkpt lat="43.21756167" lon="-6.876105">
        <ele>585.0</ele>
        <time>2022-06-19T07:55:03.481Z</time>
      </trkpt>
      <trkpt lat="43.21756167" lon="-6.876105">
        <ele>585.0</ele>
        <time>2022-06-19T07:55:04.488Z</time>
      </trkpt>
      <trkpt lat="43.21753833" lon="-6.87616">
        <ele>585.0</ele>
        <time>2022-06-19T07:55:05.465Z</time>
      </trkpt>
      <trkpt lat="43.21753833" lon="-6.87616">
        <ele>585.0</ele>
        <time>2022-06-19T07:55:06.474Z</time>
      </trkpt>
      <trkpt lat="43.21751" lon="-6.876205">
        <ele>586.0</ele>
        <time>2022-06-19T07:55:07.487Z</time>
      </trkpt>
      <trkpt lat="43.21751" lon="-6.876205">
        <ele>586.0</ele>
        <time>2022-06-19T07:55:08.493Z</time>
      </trkpt>
      <trkpt lat="43.217485" lon="-6.87624667">
        <ele>586.0</ele>
        <time>2022-06-19T07:55:09.473Z</time>
      </trkpt>
      <trkpt lat="43.217485" lon="-6.876275">
        <ele>587.0</ele>
        <time>2022-06-19T07:55:10.488Z</time>
      </trkpt>
      <trkpt lat="43.21747833" lon="-6.8763">
        <ele>587.0</ele>
        <time>2022-06-19T07:55:11.497Z</time>
      </trkpt>
      <trkpt lat="43.21747833" lon="-6.8763">
        <ele>587.0</ele>
        <time>2022-06-19T07:55:12.463Z</time>
      </trkpt>
      <trkpt lat="43.21745833" lon="-6.876345">
        <ele>587.0</ele>
        <time>2022-06-19T07:55:13.483Z</time>
      </trkpt>
      <trkpt lat="43.217445" lon="-6.87637167">
        <ele>587.0</ele>
        <time>2022-06-19T07:55:14.497Z</time>
      </trkpt>
      <trkpt lat="43.217445" lon="-6.87637167">
        <ele>587.0</ele>
        <time>2022-06-19T07:55:15.463Z</time>
      </trkpt>
      <trkpt lat="43.21741333" lon="-6.87643">
        <ele>587.0</ele>
        <time>2022-06-19T07:55:16.478Z</time>
      </trkpt>
      <trkpt lat="43.2174" lon="-6.87646">
        <ele>588.0</ele>
        <time>2022-06-19T07:55:17.479Z</time>
      </trkpt>
      <trkpt lat="43.2174" lon="-6.87646">
        <ele>588.0</ele>
        <time>2022-06-19T07:55:18.485Z</time>
      </trkpt>
      <trkpt lat="43.21737333" lon="-6.87651667">
        <ele>588.0</ele>
        <time>2022-06-19T07:55:19.479Z</time>
      </trkpt>
      <trkpt lat="43.21737333" lon="-6.87651667">
        <ele>588.0</ele>
        <time>2022-06-19T07:55:20.484Z</time>
      </trkpt>
      <trkpt lat="43.21735833" lon="-6.87657833">
        <ele>588.0</ele>
        <time>2022-06-19T07:55:21.496Z</time>
      </trkpt>
      <trkpt lat="43.21735833" lon="-6.87657833">
        <ele>588.0</ele>
        <time>2022-06-19T07:55:22.502Z</time>
      </trkpt>
      <trkpt lat="43.21735333" lon="-6.87663667">
        <ele>589.0</ele>
        <time>2022-06-19T07:55:23.492Z</time>
      </trkpt>
      <trkpt lat="43.21735833" lon="-6.87667">
        <ele>589.0</ele>
        <time>2022-06-19T07:55:24.466Z</time>
      </trkpt>
      <trkpt lat="43.217365" lon="-6.87670333">
        <ele>588.0</ele>
        <time>2022-06-19T07:55:25.495Z</time>
      </trkpt>
      <trkpt lat="43.217365" lon="-6.87670333">
        <ele>588.0</ele>
        <time>2022-06-19T07:55:26.489Z</time>
      </trkpt>
      <trkpt lat="43.217375" lon="-6.87677167">
        <ele>588.0</ele>
        <time>2022-06-19T07:55:27.492Z</time>
      </trkpt>
      <trkpt lat="43.217375" lon="-6.87677167">
        <ele>588.0</ele>
        <time>2022-06-19T07:55:28.484Z</time>
      </trkpt>
      <trkpt lat="43.217385" lon="-6.876835">
        <ele>588.0</ele>
        <time>2022-06-19T07:55:29.478Z</time>
      </trkpt>
      <trkpt lat="43.217385" lon="-6.876835">
        <ele>588.0</ele>
        <time>2022-06-19T07:55:30.500Z</time>
      </trkpt>
      <trkpt lat="43.21739333" lon="-6.876895">
        <ele>588.0</ele>
        <time>2022-06-19T07:55:31.490Z</time>
      </trkpt>
      <trkpt lat="43.21739333" lon="-6.876895">
        <ele>588.0</ele>
        <time>2022-06-19T07:55:32.483Z</time>
      </trkpt>
      <trkpt lat="43.21741" lon="-6.87694167">
        <ele>589.0</ele>
        <time>2022-06-19T07:55:33.490Z</time>
      </trkpt>
      <trkpt lat="43.21741" lon="-6.87694167">
        <ele>589.0</ele>
        <time>2022-06-19T07:55:34.483Z</time>
      </trkpt>
      <trkpt lat="43.21743667" lon="-6.87698333">
        <ele>589.0</ele>
        <time>2022-06-19T07:55:35.464Z</time>
      </trkpt>
      <trkpt lat="43.21743667" lon="-6.87698333">
        <ele>589.0</ele>
        <time>2022-06-19T07:55:36.484Z</time>
      </trkpt>
      <trkpt lat="43.21747" lon="-6.87701833">
        <ele>589.0</ele>
        <time>2022-06-19T07:55:37.467Z</time>
      </trkpt>
      <trkpt lat="43.21747" lon="-6.87701833">
        <ele>589.0</ele>
        <time>2022-06-19T07:55:38.487Z</time>
      </trkpt>
      <trkpt lat="43.21751333" lon="-6.877055">
        <ele>589.0</ele>
        <time>2022-06-19T07:55:39.493Z</time>
      </trkpt>
      <trkpt lat="43.21751333" lon="-6.877055">
        <ele>589.0</ele>
        <time>2022-06-19T07:55:40.484Z</time>
      </trkpt>
      <trkpt lat="43.21755333" lon="-6.87709">
        <ele>589.0</ele>
        <time>2022-06-19T07:55:41.469Z</time>
      </trkpt>
      <trkpt lat="43.21755333" lon="-6.87709">
        <ele>589.0</ele>
        <time>2022-06-19T07:55:42.500Z</time>
      </trkpt>
      <trkpt lat="43.21759667" lon="-6.87712333">
        <ele>589.0</ele>
        <time>2022-06-19T07:55:43.475Z</time>
      </trkpt>
      <trkpt lat="43.21759667" lon="-6.87712333">
        <ele>589.0</ele>
        <time>2022-06-19T07:55:44.463Z</time>
      </trkpt>
      <trkpt lat="43.217635" lon="-6.87715667">
        <ele>589.0</ele>
        <time>2022-06-19T07:55:45.466Z</time>
      </trkpt>
      <trkpt lat="43.217635" lon="-6.87715667">
        <ele>589.0</ele>
        <time>2022-06-19T07:55:46.485Z</time>
      </trkpt>
      <trkpt lat="43.217675" lon="-6.87718833">
        <ele>589.0</ele>
        <time>2022-06-19T07:55:47.494Z</time>
      </trkpt>
      <trkpt lat="43.217675" lon="-6.87718833">
        <ele>589.0</ele>
        <time>2022-06-19T07:55:48.483Z</time>
      </trkpt>
      <trkpt lat="43.21771667" lon="-6.877225">
        <ele>589.0</ele>
        <time>2022-06-19T07:55:49.467Z</time>
      </trkpt>
      <trkpt lat="43.21771667" lon="-6.877225">
        <ele>589.0</ele>
        <time>2022-06-19T07:55:50.491Z</time>
      </trkpt>
      <trkpt lat="43.21775333" lon="-6.87726333">
        <ele>588.0</ele>
        <time>2022-06-19T07:55:51.479Z</time>
      </trkpt>
      <trkpt lat="43.21775333" lon="-6.87726333">
        <ele>588.0</ele>
        <time>2022-06-19T07:55:52.485Z</time>
      </trkpt>
      <trkpt lat="43.21779667" lon="-6.8773">
        <ele>588.0</ele>
        <time>2022-06-19T07:55:53.502Z</time>
      </trkpt>
      <trkpt lat="43.217815" lon="-6.87731833">
        <ele>588.0</ele>
        <time>2022-06-19T07:55:54.473Z</time>
      </trkpt>
      <trkpt lat="43.21783333" lon="-6.87733667">
        <ele>588.0</ele>
        <time>2022-06-19T07:55:55.485Z</time>
      </trkpt>
      <trkpt lat="43.21783333" lon="-6.87733667">
        <ele>588.0</ele>
        <time>2022-06-19T07:55:56.491Z</time>
      </trkpt>
      <trkpt lat="43.21787" lon="-6.87737">
        <ele>588.0</ele>
        <time>2022-06-19T07:55:57.501Z</time>
      </trkpt>
      <trkpt lat="43.21788667" lon="-6.87738333">
        <ele>588.0</ele>
        <time>2022-06-19T07:55:58.474Z</time>
      </trkpt>
      <trkpt lat="43.21788667" lon="-6.87738333">
        <ele>588.0</ele>
        <time>2022-06-19T07:55:59.479Z</time>
      </trkpt>
      <trkpt lat="43.21792667" lon="-6.87741">
        <ele>588.0</ele>
        <time>2022-06-19T07:56:00.493Z</time>
      </trkpt>
      <trkpt lat="43.21794833" lon="-6.87742667">
        <ele>588.0</ele>
        <time>2022-06-19T07:56:01.464Z</time>
      </trkpt>
      <trkpt lat="43.21794833" lon="-6.87742667">
        <ele>588.0</ele>
        <time>2022-06-19T07:56:02.475Z</time>
      </trkpt>
      <trkpt lat="43.21799167" lon="-6.87746667">
        <ele>588.0</ele>
        <time>2022-06-19T07:56:03.489Z</time>
      </trkpt>
      <trkpt lat="43.21800833" lon="-6.87749">
        <ele>589.0</ele>
        <time>2022-06-19T07:56:04.465Z</time>
      </trkpt>
      <trkpt lat="43.21800833" lon="-6.87749">
        <ele>589.0</ele>
        <time>2022-06-19T07:56:05.472Z</time>
      </trkpt>
      <trkpt lat="43.21802" lon="-6.87754833">
        <ele>589.0</ele>
        <time>2022-06-19T07:56:06.499Z</time>
      </trkpt>
      <trkpt lat="43.21802" lon="-6.87758167">
        <ele>589.0</ele>
        <time>2022-06-19T07:56:07.482Z</time>
      </trkpt>
      <trkpt lat="43.21802" lon="-6.87758167">
        <ele>589.0</ele>
        <time>2022-06-19T07:56:08.489Z</time>
      </trkpt>
      <trkpt lat="43.21802167" lon="-6.877655">
        <ele>589.0</ele>
        <time>2022-06-19T07:56:09.465Z</time>
      </trkpt>
      <trkpt lat="43.21802167" lon="-6.877655">
        <ele>589.0</ele>
        <time>2022-06-19T07:56:10.479Z</time>
      </trkpt>
      <trkpt lat="43.21801167" lon="-6.87771167">
        <ele>590.0</ele>
        <time>2022-06-19T07:56:11.479Z</time>
      </trkpt>
      <trkpt lat="43.21801167" lon="-6.87771167">
        <ele>590.0</ele>
        <time>2022-06-19T07:56:12.486Z</time>
      </trkpt>
      <trkpt lat="43.21799833" lon="-6.87776833">
        <ele>590.0</ele>
        <time>2022-06-19T07:56:13.499Z</time>
      </trkpt>
      <trkpt lat="43.21799833" lon="-6.87776833">
        <ele>590.0</ele>
        <time>2022-06-19T07:56:14.465Z</time>
      </trkpt>
      <trkpt lat="43.217985" lon="-6.87782833">
        <ele>591.0</ele>
        <time>2022-06-19T07:56:15.493Z</time>
      </trkpt>
      <trkpt lat="43.217985" lon="-6.87782833">
        <ele>591.0</ele>
        <time>2022-06-19T07:56:16.500Z</time>
      </trkpt>
      <trkpt lat="43.217975" lon="-6.87788667">
        <ele>591.0</ele>
        <time>2022-06-19T07:56:17.476Z</time>
      </trkpt>
      <trkpt lat="43.217975" lon="-6.87788667">
        <ele>591.0</ele>
        <time>2022-06-19T07:56:18.486Z</time>
      </trkpt>
      <trkpt lat="43.21795833" lon="-6.87794167">
        <ele>592.0</ele>
        <time>2022-06-19T07:56:19.477Z</time>
      </trkpt>
      <trkpt lat="43.21795833" lon="-6.87794167">
        <ele>592.0</ele>
        <time>2022-06-19T07:56:20.482Z</time>
      </trkpt>
      <trkpt lat="43.21793833" lon="-6.87799667">
        <ele>592.0</ele>
        <time>2022-06-19T07:56:21.501Z</time>
      </trkpt>
      <trkpt lat="43.21792667" lon="-6.87802167">
        <ele>592.0</ele>
        <time>2022-06-19T07:56:22.488Z</time>
      </trkpt>
      <trkpt lat="43.21792667" lon="-6.87802167">
        <ele>592.0</ele>
        <time>2022-06-19T07:56:23.493Z</time>
      </trkpt>
      <trkpt lat="43.21790333" lon="-6.87807167">
        <ele>593.0</ele>
        <time>2022-06-19T07:56:24.482Z</time>
      </trkpt>
      <trkpt lat="43.21790333" lon="-6.87807167">
        <ele>593.0</ele>
        <time>2022-06-19T07:56:25.488Z</time>
      </trkpt>
      <trkpt lat="43.21788167" lon="-6.87811667">
        <ele>593.0</ele>
        <time>2022-06-19T07:56:26.465Z</time>
      </trkpt>
      <trkpt lat="43.21786667" lon="-6.87813667">
        <ele>593.0</ele>
        <time>2022-06-19T07:56:27.488Z</time>
      </trkpt>
      <trkpt lat="43.21785333" lon="-6.87815833">
        <ele>593.0</ele>
        <time>2022-06-19T07:56:28.498Z</time>
      </trkpt>
      <trkpt lat="43.21785333" lon="-6.87815833">
        <ele>593.0</ele>
        <time>2022-06-19T07:56:29.463Z</time>
      </trkpt>
      <trkpt lat="43.21783" lon="-6.87820833">
        <ele>593.0</ele>
        <time>2022-06-19T07:56:30.481Z</time>
      </trkpt>
      <trkpt lat="43.21782167" lon="-6.878235">
        <ele>593.0</ele>
        <time>2022-06-19T07:56:31.498Z</time>
      </trkpt>
      <trkpt lat="43.21782167" lon="-6.878235">
        <ele>593.0</ele>
        <time>2022-06-19T07:56:32.464Z</time>
      </trkpt>
      <trkpt lat="43.217805" lon="-6.87828667">
        <ele>593.0</ele>
        <time>2022-06-19T07:56:33.474Z</time>
      </trkpt>
      <trkpt lat="43.217805" lon="-6.87828667">
        <ele>593.0</ele>
        <time>2022-06-19T07:56:34.481Z</time>
      </trkpt>
      <trkpt lat="43.21778333" lon="-6.87833333">
        <ele>594.0</ele>
        <time>2022-06-19T07:56:35.477Z</time>
      </trkpt>
      <trkpt lat="43.21778333" lon="-6.87833333">
        <ele>594.0</ele>
        <time>2022-06-19T07:56:36.494Z</time>
      </trkpt>
      <trkpt lat="43.21776" lon="-6.87837833">
        <ele>594.0</ele>
        <time>2022-06-19T07:56:37.480Z</time>
      </trkpt>
      <trkpt lat="43.21776" lon="-6.87837833">
        <ele>594.0</ele>
        <time>2022-06-19T07:56:38.485Z</time>
      </trkpt>
      <trkpt lat="43.21773667" lon="-6.87842167">
        <ele>594.0</ele>
        <time>2022-06-19T07:56:39.465Z</time>
      </trkpt>
      <trkpt lat="43.21773667" lon="-6.87842167">
        <ele>594.0</ele>
        <time>2022-06-19T07:56:40.480Z</time>
      </trkpt>
      <trkpt lat="43.21772" lon="-6.878475">
        <ele>595.0</ele>
        <time>2022-06-19T07:56:41.494Z</time>
      </trkpt>
      <trkpt lat="43.21772" lon="-6.878475">
        <ele>595.0</ele>
        <time>2022-06-19T07:56:42.500Z</time>
      </trkpt>
      <trkpt lat="43.21771167" lon="-6.87851833">
        <ele>595.0</ele>
        <time>2022-06-19T07:56:43.473Z</time>
      </trkpt>
      <trkpt lat="43.21771167" lon="-6.87851833">
        <ele>595.0</ele>
        <time>2022-06-19T07:56:44.479Z</time>
      </trkpt>
      <trkpt lat="43.21768667" lon="-6.87855333">
        <ele>596.0</ele>
        <time>2022-06-19T07:56:45.490Z</time>
      </trkpt>
      <trkpt lat="43.21768667" lon="-6.87855333">
        <ele>596.0</ele>
        <time>2022-06-19T07:56:46.496Z</time>
      </trkpt>
      <trkpt lat="43.21765833" lon="-6.878595">
        <ele>596.0</ele>
        <time>2022-06-19T07:56:47.495Z</time>
      </trkpt>
      <trkpt lat="43.21765833" lon="-6.878595">
        <ele>596.0</ele>
        <time>2022-06-19T07:56:48.500Z</time>
      </trkpt>
      <trkpt lat="43.21762833" lon="-6.87863667">
        <ele>597.0</ele>
        <time>2022-06-19T07:56:49.474Z</time>
      </trkpt>
      <trkpt lat="43.21762833" lon="-6.87863667">
        <ele>597.0</ele>
        <time>2022-06-19T07:56:50.479Z</time>
      </trkpt>
      <trkpt lat="43.217605" lon="-6.878675">
        <ele>597.0</ele>
        <time>2022-06-19T07:56:51.463Z</time>
      </trkpt>
      <trkpt lat="43.217605" lon="-6.878675">
        <ele>597.0</ele>
        <time>2022-06-19T07:56:52.469Z</time>
      </trkpt>
      <trkpt lat="43.21758833" lon="-6.87871167">
        <ele>597.0</ele>
        <time>2022-06-19T07:56:53.484Z</time>
      </trkpt>
      <trkpt lat="43.21758833" lon="-6.87871167">
        <ele>597.0</ele>
        <time>2022-06-19T07:56:54.489Z</time>
      </trkpt>
      <trkpt lat="43.217565" lon="-6.87874333">
        <ele>598.0</ele>
        <time>2022-06-19T07:56:55.465Z</time>
      </trkpt>
      <trkpt lat="43.217565" lon="-6.87874333">
        <ele>598.0</ele>
        <time>2022-06-19T07:56:56.475Z</time>
      </trkpt>
      <trkpt lat="43.21754333" lon="-6.87877833">
        <ele>598.0</ele>
        <time>2022-06-19T07:56:57.495Z</time>
      </trkpt>
      <trkpt lat="43.21754333" lon="-6.87877833">
        <ele>598.0</ele>
        <time>2022-06-19T07:56:58.501Z</time>
      </trkpt>
      <trkpt lat="43.21751667" lon="-6.87880833">
        <ele>599.0</ele>
        <time>2022-06-19T07:56:59.478Z</time>
      </trkpt>
      <trkpt lat="43.21750667" lon="-6.878825">
        <ele>599.0</ele>
        <time>2022-06-19T07:57:00.499Z</time>
      </trkpt>
      <trkpt lat="43.21749667" lon="-6.87884333">
        <ele>599.0</ele>
        <time>2022-06-19T07:57:01.471Z</time>
      </trkpt>
      <trkpt lat="43.21749667" lon="-6.87884333">
        <ele>599.0</ele>
        <time>2022-06-19T07:57:02.479Z</time>
      </trkpt>
      <trkpt lat="43.21748" lon="-6.87886833">
        <ele>600.0</ele>
        <time>2022-06-19T07:57:03.476Z</time>
      </trkpt>
      <trkpt lat="43.21748" lon="-6.87886833">
        <ele>600.0</ele>
        <time>2022-06-19T07:57:04.481Z</time>
      </trkpt>
      <trkpt lat="43.21746833" lon="-6.87888833">
        <ele>600.0</ele>
        <time>2022-06-19T07:57:05.498Z</time>
      </trkpt>
      <trkpt lat="43.21746833" lon="-6.87888833">
        <ele>600.0</ele>
        <time>2022-06-19T07:57:06.463Z</time>
      </trkpt>
      <trkpt lat="43.21745667" lon="-6.87890833">
        <ele>601.0</ele>
        <time>2022-06-19T07:57:07.481Z</time>
      </trkpt>
      <trkpt lat="43.21745667" lon="-6.87890833">
        <ele>601.0</ele>
        <time>2022-06-19T07:57:08.499Z</time>
      </trkpt>
      <trkpt lat="43.21744667" lon="-6.87893167">
        <ele>601.0</ele>
        <time>2022-06-19T07:57:09.474Z</time>
      </trkpt>
      <trkpt lat="43.21744667" lon="-6.87893167">
        <ele>601.0</ele>
        <time>2022-06-19T07:57:10.479Z</time>
      </trkpt>
      <trkpt lat="43.21743167" lon="-6.87895667">
        <ele>602.0</ele>
        <time>2022-06-19T07:57:11.490Z</time>
      </trkpt>
      <trkpt lat="43.21743167" lon="-6.87895667">
        <ele>602.0</ele>
        <time>2022-06-19T07:57:12.501Z</time>
      </trkpt>
      <trkpt lat="43.217415" lon="-6.87898833">
        <ele>602.0</ele>
        <time>2022-06-19T07:57:13.497Z</time>
      </trkpt>
      <trkpt lat="43.217415" lon="-6.87898833">
        <ele>602.0</ele>
        <time>2022-06-19T07:57:14.502Z</time>
      </trkpt>
      <trkpt lat="43.21740333" lon="-6.87902167">
        <ele>603.0</ele>
        <time>2022-06-19T07:57:15.476Z</time>
      </trkpt>
      <trkpt lat="43.21740333" lon="-6.87902167">
        <ele>603.0</ele>
        <time>2022-06-19T07:57:16.482Z</time>
      </trkpt>
      <trkpt lat="43.21738667" lon="-6.87904833">
        <ele>604.0</ele>
        <time>2022-06-19T07:57:17.471Z</time>
      </trkpt>
      <trkpt lat="43.21738667" lon="-6.87904833">
        <ele>604.0</ele>
        <time>2022-06-19T07:57:18.476Z</time>
      </trkpt>
      <trkpt lat="43.21737167" lon="-6.87908">
        <ele>604.0</ele>
        <time>2022-06-19T07:57:19.489Z</time>
      </trkpt>
      <trkpt lat="43.21737167" lon="-6.87908">
        <ele>604.0</ele>
        <time>2022-06-19T07:57:20.494Z</time>
      </trkpt>
      <trkpt lat="43.21735833" lon="-6.87910667">
        <ele>605.0</ele>
        <time>2022-06-19T07:57:21.501Z</time>
      </trkpt>
      <trkpt lat="43.21735833" lon="-6.87910667">
        <ele>605.0</ele>
        <time>2022-06-19T07:57:22.468Z</time>
      </trkpt>
      <trkpt lat="43.21735" lon="-6.87913667">
        <ele>606.0</ele>
        <time>2022-06-19T07:57:23.490Z</time>
      </trkpt>
      <trkpt lat="43.21735" lon="-6.87913667">
        <ele>606.0</ele>
        <time>2022-06-19T07:57:24.497Z</time>
      </trkpt>
      <trkpt lat="43.21733667" lon="-6.87916333">
        <ele>606.0</ele>
        <time>2022-06-19T07:57:25.478Z</time>
      </trkpt>
      <trkpt lat="43.21733667" lon="-6.87916333">
        <ele>606.0</ele>
        <time>2022-06-19T07:57:26.486Z</time>
      </trkpt>
      <trkpt lat="43.217325" lon="-6.87919833">
        <ele>607.0</ele>
        <time>2022-06-19T07:57:27.488Z</time>
      </trkpt>
      <trkpt lat="43.217325" lon="-6.87919833">
        <ele>607.0</ele>
        <time>2022-06-19T07:57:28.494Z</time>
      </trkpt>
      <trkpt lat="43.21730667" lon="-6.87922333">
        <ele>608.0</ele>
        <time>2022-06-19T07:57:29.469Z</time>
      </trkpt>
      <trkpt lat="43.21730667" lon="-6.87922333">
        <ele>608.0</ele>
        <time>2022-06-19T07:57:30.475Z</time>
      </trkpt>
      <trkpt lat="43.21729167" lon="-6.87924833">
        <ele>608.0</ele>
        <time>2022-06-19T07:57:31.493Z</time>
      </trkpt>
      <trkpt lat="43.21728167" lon="-6.87925667">
        <ele>609.0</ele>
        <time>2022-06-19T07:57:32.476Z</time>
      </trkpt>
      <trkpt lat="43.21728167" lon="-6.87925667">
        <ele>609.0</ele>
        <time>2022-06-19T07:57:33.481Z</time>
      </trkpt>
      <trkpt lat="43.21726" lon="-6.87928167">
        <ele>609.0</ele>
        <time>2022-06-19T07:57:34.472Z</time>
      </trkpt>
      <trkpt lat="43.21726" lon="-6.87928167">
        <ele>609.0</ele>
        <time>2022-06-19T07:57:35.480Z</time>
      </trkpt>
      <trkpt lat="43.21724833" lon="-6.879315">
        <ele>609.0</ele>
        <time>2022-06-19T07:57:36.473Z</time>
      </trkpt>
      <trkpt lat="43.21724833" lon="-6.879315">
        <ele>609.0</ele>
        <time>2022-06-19T07:57:37.485Z</time>
      </trkpt>
      <trkpt lat="43.21723667" lon="-6.87934">
        <ele>610.0</ele>
        <time>2022-06-19T07:57:38.502Z</time>
      </trkpt>
      <trkpt lat="43.21723667" lon="-6.87934">
        <ele>610.0</ele>
        <time>2022-06-19T07:57:39.467Z</time>
      </trkpt>
      <trkpt lat="43.21722667" lon="-6.879365">
        <ele>611.0</ele>
        <time>2022-06-19T07:57:40.484Z</time>
      </trkpt>
      <trkpt lat="43.21722667" lon="-6.879365">
        <ele>611.0</ele>
        <time>2022-06-19T07:57:41.489Z</time>
      </trkpt>
      <trkpt lat="43.217215" lon="-6.87941833">
        <ele>610.0</ele>
        <time>2022-06-19T07:57:42.502Z</time>
      </trkpt>
      <trkpt lat="43.217215" lon="-6.87941833">
        <ele>610.0</ele>
        <time>2022-06-19T07:57:43.469Z</time>
      </trkpt>
      <trkpt lat="43.21721" lon="-6.87946667">
        <ele>610.0</ele>
        <time>2022-06-19T07:57:44.486Z</time>
      </trkpt>
      <trkpt lat="43.21721" lon="-6.87946667">
        <ele>610.0</ele>
        <time>2022-06-19T07:57:45.495Z</time>
      </trkpt>
      <trkpt lat="43.217215" lon="-6.87950833">
        <ele>610.0</ele>
        <time>2022-06-19T07:57:46.482Z</time>
      </trkpt>
      <trkpt lat="43.217215" lon="-6.87950833">
        <ele>610.0</ele>
        <time>2022-06-19T07:57:47.488Z</time>
      </trkpt>
      <trkpt lat="43.21721833" lon="-6.87954667">
        <ele>610.0</ele>
        <time>2022-06-19T07:57:48.464Z</time>
      </trkpt>
      <trkpt lat="43.21722" lon="-6.879565">
        <ele>610.0</ele>
        <time>2022-06-19T07:57:49.480Z</time>
      </trkpt>
      <trkpt lat="43.21722" lon="-6.879565">
        <ele>610.0</ele>
        <time>2022-06-19T07:57:50.487Z</time>
      </trkpt>
      <trkpt lat="43.21722" lon="-6.87959667">
        <ele>611.0</ele>
        <time>2022-06-19T07:57:51.496Z</time>
      </trkpt>
      <trkpt lat="43.21722" lon="-6.87959667">
        <ele>611.0</ele>
        <time>2022-06-19T07:57:52.502Z</time>
      </trkpt>
      <trkpt lat="43.21721667" lon="-6.87963833">
        <ele>611.0</ele>
        <time>2022-06-19T07:57:53.474Z</time>
      </trkpt>
      <trkpt lat="43.21721667" lon="-6.87963833">
        <ele>611.0</ele>
        <time>2022-06-19T07:57:54.480Z</time>
      </trkpt>
      <trkpt lat="43.21722" lon="-6.87968167">
        <ele>611.0</ele>
        <time>2022-06-19T07:57:55.466Z</time>
      </trkpt>
      <trkpt lat="43.21722" lon="-6.87968167">
        <ele>611.0</ele>
        <time>2022-06-19T07:57:56.471Z</time>
      </trkpt>
      <trkpt lat="43.21720833" lon="-6.87973167">
        <ele>611.0</ele>
        <time>2022-06-19T07:57:57.494Z</time>
      </trkpt>
      <trkpt lat="43.21719833" lon="-6.87975667">
        <ele>611.0</ele>
        <time>2022-06-19T07:57:58.492Z</time>
      </trkpt>
      <trkpt lat="43.21719833" lon="-6.87975667">
        <ele>611.0</ele>
        <time>2022-06-19T07:57:59.497Z</time>
      </trkpt>
      <trkpt lat="43.21717333" lon="-6.8798">
        <ele>612.0</ele>
        <time>2022-06-19T07:58:00.479Z</time>
      </trkpt>
      <trkpt lat="43.21716" lon="-6.87982667">
        <ele>612.0</ele>
        <time>2022-06-19T07:58:01.485Z</time>
      </trkpt>
      <trkpt lat="43.21716" lon="-6.87982667">
        <ele>612.0</ele>
        <time>2022-06-19T07:58:02.491Z</time>
      </trkpt>
      <trkpt lat="43.217135" lon="-6.87988">
        <ele>612.0</ele>
        <time>2022-06-19T07:58:03.465Z</time>
      </trkpt>
      <trkpt lat="43.21712" lon="-6.87991">
        <ele>612.0</ele>
        <time>2022-06-19T07:58:04.482Z</time>
      </trkpt>
      <trkpt lat="43.21712" lon="-6.87991">
        <ele>612.0</ele>
        <time>2022-06-19T07:58:05.489Z</time>
      </trkpt>
      <trkpt lat="43.2171" lon="-6.87996833">
        <ele>613.0</ele>
        <time>2022-06-19T07:58:06.470Z</time>
      </trkpt>
      <trkpt lat="43.21708833" lon="-6.87999833">
        <ele>613.0</ele>
        <time>2022-06-19T07:58:07.495Z</time>
      </trkpt>
      <trkpt lat="43.217075" lon="-6.880025">
        <ele>613.0</ele>
        <time>2022-06-19T07:58:08.469Z</time>
      </trkpt>
      <trkpt lat="43.217075" lon="-6.880025">
        <ele>613.0</ele>
        <time>2022-06-19T07:58:09.479Z</time>
      </trkpt>
      <trkpt lat="43.21703667" lon="-6.88007">
        <ele>614.0</ele>
        <time>2022-06-19T07:58:10.494Z</time>
      </trkpt>
      <trkpt lat="43.21703667" lon="-6.88007">
        <ele>614.0</ele>
        <time>2022-06-19T07:58:11.501Z</time>
      </trkpt>
      <trkpt lat="43.21699833" lon="-6.88010167">
        <ele>614.0</ele>
        <time>2022-06-19T07:58:12.501Z</time>
      </trkpt>
      <trkpt lat="43.216975" lon="-6.88012333">
        <ele>614.0</ele>
        <time>2022-06-19T07:58:13.473Z</time>
      </trkpt>
      <trkpt lat="43.216975" lon="-6.88012333">
        <ele>614.0</ele>
        <time>2022-06-19T07:58:14.479Z</time>
      </trkpt>
      <trkpt lat="43.216925" lon="-6.88015167">
        <ele>614.0</ele>
        <time>2022-06-19T07:58:15.492Z</time>
      </trkpt>
      <trkpt lat="43.216925" lon="-6.88015167">
        <ele>614.0</ele>
        <time>2022-06-19T07:58:16.498Z</time>
      </trkpt>
      <trkpt lat="43.21687167" lon="-6.88017">
        <ele>614.0</ele>
        <time>2022-06-19T07:58:17.478Z</time>
      </trkpt>
      <trkpt lat="43.21684833" lon="-6.88017667">
        <ele>614.0</ele>
        <time>2022-06-19T07:58:18.487Z</time>
      </trkpt>
      <trkpt lat="43.21684833" lon="-6.88017667">
        <ele>614.0</ele>
        <time>2022-06-19T07:58:19.492Z</time>
      </trkpt>
      <trkpt lat="43.216805" lon="-6.88017833">
        <ele>614.0</ele>
        <time>2022-06-19T07:58:20.465Z</time>
      </trkpt>
      <trkpt lat="43.216805" lon="-6.88017833">
        <ele>614.0</ele>
        <time>2022-06-19T07:58:21.471Z</time>
      </trkpt>
      <trkpt lat="43.21675833" lon="-6.88017667">
        <ele>614.0</ele>
        <time>2022-06-19T07:58:22.472Z</time>
      </trkpt>
      <trkpt lat="43.21675833" lon="-6.88017667">
        <ele>614.0</ele>
        <time>2022-06-19T07:58:23.479Z</time>
      </trkpt>
      <trkpt lat="43.216715" lon="-6.88017667">
        <ele>614.0</ele>
        <time>2022-06-19T07:58:24.466Z</time>
      </trkpt>
      <trkpt lat="43.21669833" lon="-6.880175">
        <ele>614.0</ele>
        <time>2022-06-19T07:58:25.483Z</time>
      </trkpt>
      <trkpt lat="43.21669833" lon="-6.880175">
        <ele>614.0</ele>
        <time>2022-06-19T07:58:26.488Z</time>
      </trkpt>
      <trkpt lat="43.21665667" lon="-6.88016167">
        <ele>614.0</ele>
        <time>2022-06-19T07:58:27.487Z</time>
      </trkpt>
      <trkpt lat="43.21665667" lon="-6.88016167">
        <ele>614.0</ele>
        <time>2022-06-19T07:58:28.492Z</time>
      </trkpt>
      <trkpt lat="43.21661667" lon="-6.880155">
        <ele>614.0</ele>
        <time>2022-06-19T07:58:29.477Z</time>
      </trkpt>
      <trkpt lat="43.21661667" lon="-6.880155">
        <ele>614.0</ele>
        <time>2022-06-19T07:58:30.482Z</time>
      </trkpt>
      <trkpt lat="43.21657833" lon="-6.88014333">
        <ele>615.0</ele>
        <time>2022-06-19T07:58:31.467Z</time>
      </trkpt>
      <trkpt lat="43.21655667" lon="-6.88013667">
        <ele>615.0</ele>
        <time>2022-06-19T07:58:32.492Z</time>
      </trkpt>
      <trkpt lat="43.21655667" lon="-6.88013667">
        <ele>615.0</ele>
        <time>2022-06-19T07:58:33.497Z</time>
      </trkpt>
      <trkpt lat="43.216515" lon="-6.880125">
        <ele>615.0</ele>
        <time>2022-06-19T07:58:34.474Z</time>
      </trkpt>
      <trkpt lat="43.216515" lon="-6.880125">
        <ele>615.0</ele>
        <time>2022-06-19T07:58:35.480Z</time>
      </trkpt>
      <trkpt lat="43.21647167" lon="-6.88011667">
        <ele>615.0</ele>
        <time>2022-06-19T07:58:36.490Z</time>
      </trkpt>
      <trkpt lat="43.21645" lon="-6.88011333">
        <ele>615.0</ele>
        <time>2022-06-19T07:58:37.473Z</time>
      </trkpt>
      <trkpt lat="43.21645" lon="-6.88011333">
        <ele>615.0</ele>
        <time>2022-06-19T07:58:38.481Z</time>
      </trkpt>
      <trkpt lat="43.21641" lon="-6.880115">
        <ele>615.0</ele>
        <time>2022-06-19T07:58:39.466Z</time>
      </trkpt>
      <trkpt lat="43.21641" lon="-6.880115">
        <ele>615.0</ele>
        <time>2022-06-19T07:58:40.472Z</time>
      </trkpt>
      <trkpt lat="43.21637" lon="-6.880115">
        <ele>614.0</ele>
        <time>2022-06-19T07:58:41.488Z</time>
      </trkpt>
      <trkpt lat="43.21637" lon="-6.880115">
        <ele>614.0</ele>
        <time>2022-06-19T07:58:42.493Z</time>
      </trkpt>
      <trkpt lat="43.21633167" lon="-6.880115">
        <ele>614.0</ele>
        <time>2022-06-19T07:58:43.468Z</time>
      </trkpt>
      <trkpt lat="43.21633167" lon="-6.880115">
        <ele>614.0</ele>
        <time>2022-06-19T07:58:44.481Z</time>
      </trkpt>
      <trkpt lat="43.21628667" lon="-6.88012167">
        <ele>614.0</ele>
        <time>2022-06-19T07:58:45.465Z</time>
      </trkpt>
      <trkpt lat="43.21628667" lon="-6.88012167">
        <ele>614.0</ele>
        <time>2022-06-19T07:58:46.477Z</time>
      </trkpt>
      <trkpt lat="43.21624" lon="-6.88013167">
        <ele>614.0</ele>
        <time>2022-06-19T07:58:47.501Z</time>
      </trkpt>
      <trkpt lat="43.21621833" lon="-6.88013833">
        <ele>614.0</ele>
        <time>2022-06-19T07:58:48.473Z</time>
      </trkpt>
      <trkpt lat="43.21619667" lon="-6.88014667">
        <ele>614.0</ele>
        <time>2022-06-19T07:58:49.491Z</time>
      </trkpt>
      <trkpt lat="43.21619667" lon="-6.88014667">
        <ele>614.0</ele>
        <time>2022-06-19T07:58:50.496Z</time>
      </trkpt>
      <trkpt lat="43.21614833" lon="-6.880165">
        <ele>614.0</ele>
        <time>2022-06-19T07:58:51.486Z</time>
      </trkpt>
      <trkpt lat="43.21614833" lon="-6.880165">
        <ele>614.0</ele>
        <time>2022-06-19T07:58:52.492Z</time>
      </trkpt>
      <trkpt lat="43.21610167" lon="-6.88018833">
        <ele>613.0</ele>
        <time>2022-06-19T07:58:53.466Z</time>
      </trkpt>
      <trkpt lat="43.21608" lon="-6.88020167">
        <ele>613.0</ele>
        <time>2022-06-19T07:58:54.484Z</time>
      </trkpt>
      <trkpt lat="43.21608" lon="-6.88020167">
        <ele>613.0</ele>
        <time>2022-06-19T07:58:55.490Z</time>
      </trkpt>
      <trkpt lat="43.216035" lon="-6.88022833">
        <ele>613.0</ele>
        <time>2022-06-19T07:58:56.476Z</time>
      </trkpt>
      <trkpt lat="43.21601" lon="-6.88024333">
        <ele>613.0</ele>
        <time>2022-06-19T07:58:57.480Z</time>
      </trkpt>
      <trkpt lat="43.21601" lon="-6.88024333">
        <ele>613.0</ele>
        <time>2022-06-19T07:58:58.497Z</time>
      </trkpt>
      <trkpt lat="43.21596333" lon="-6.88027833">
        <ele>613.0</ele>
        <time>2022-06-19T07:58:59.471Z</time>
      </trkpt>
      <trkpt lat="43.21596333" lon="-6.88027833">
        <ele>613.0</ele>
        <time>2022-06-19T07:59:00.478Z</time>
      </trkpt>
      <trkpt lat="43.21591833" lon="-6.88031833">
        <ele>612.0</ele>
        <time>2022-06-19T07:59:01.496Z</time>
      </trkpt>
      <trkpt lat="43.21589833" lon="-6.88034">
        <ele>612.0</ele>
        <time>2022-06-19T07:59:02.491Z</time>
      </trkpt>
      <trkpt lat="43.21589833" lon="-6.88034">
        <ele>612.0</ele>
        <time>2022-06-19T07:59:03.469Z</time>
      </trkpt>
      <trkpt lat="43.21585667" lon="-6.88039">
        <ele>612.0</ele>
        <time>2022-06-19T07:59:04.487Z</time>
      </trkpt>
      <trkpt lat="43.21585667" lon="-6.88039">
        <ele>612.0</ele>
        <time>2022-06-19T07:59:05.494Z</time>
      </trkpt>
      <trkpt lat="43.21581667" lon="-6.88044333">
        <ele>612.0</ele>
        <time>2022-06-19T07:59:06.483Z</time>
      </trkpt>
      <trkpt lat="43.21579833" lon="-6.88047333">
        <ele>611.0</ele>
        <time>2022-06-19T07:59:07.500Z</time>
      </trkpt>
      <trkpt lat="43.21579833" lon="-6.88047333">
        <ele>611.0</ele>
        <time>2022-06-19T07:59:08.466Z</time>
      </trkpt>
      <trkpt lat="43.21576167" lon="-6.88053167">
        <ele>612.0</ele>
        <time>2022-06-19T07:59:09.480Z</time>
      </trkpt>
      <trkpt lat="43.21574833" lon="-6.88056333">
        <ele>612.0</ele>
        <time>2022-06-19T07:59:10.500Z</time>
      </trkpt>
      <trkpt lat="43.21574833" lon="-6.88056333">
        <ele>612.0</ele>
        <time>2022-06-19T07:59:11.466Z</time>
      </trkpt>
      <trkpt lat="43.215715" lon="-6.88062">
        <ele>612.0</ele>
        <time>2022-06-19T07:59:12.493Z</time>
      </trkpt>
      <trkpt lat="43.2157" lon="-6.88065167">
        <ele>612.0</ele>
        <time>2022-06-19T07:59:13.468Z</time>
      </trkpt>
      <trkpt lat="43.2157" lon="-6.88065167">
        <ele>612.0</ele>
        <time>2022-06-19T07:59:14.479Z</time>
      </trkpt>
      <trkpt lat="43.21567" lon="-6.88071167">
        <ele>612.0</ele>
        <time>2022-06-19T07:59:15.489Z</time>
      </trkpt>
      <trkpt lat="43.21567" lon="-6.88071167">
        <ele>612.0</ele>
        <time>2022-06-19T07:59:16.494Z</time>
      </trkpt>
      <trkpt lat="43.21564" lon="-6.88076833">
        <ele>612.0</ele>
        <time>2022-06-19T07:59:17.469Z</time>
      </trkpt>
      <trkpt lat="43.21562333" lon="-6.88079667">
        <ele>612.0</ele>
        <time>2022-06-19T07:59:18.492Z</time>
      </trkpt>
      <trkpt lat="43.21562333" lon="-6.88079667">
        <ele>612.0</ele>
        <time>2022-06-19T07:59:19.498Z</time>
      </trkpt>
      <trkpt lat="43.21559167" lon="-6.88084667">
        <ele>612.0</ele>
        <time>2022-06-19T07:59:20.480Z</time>
      </trkpt>
      <trkpt lat="43.21559167" lon="-6.88084667">
        <ele>612.0</ele>
        <time>2022-06-19T07:59:21.485Z</time>
      </trkpt>
      <trkpt lat="43.21555667" lon="-6.88089333">
        <ele>613.0</ele>
        <time>2022-06-19T07:59:22.501Z</time>
      </trkpt>
      <trkpt lat="43.21554167" lon="-6.88091833">
        <ele>613.0</ele>
        <time>2022-06-19T07:59:23.475Z</time>
      </trkpt>
      <trkpt lat="43.21554167" lon="-6.88091833">
        <ele>613.0</ele>
        <time>2022-06-19T07:59:24.480Z</time>
      </trkpt>
      <trkpt lat="43.21552167" lon="-6.880975">
        <ele>613.0</ele>
        <time>2022-06-19T07:59:25.477Z</time>
      </trkpt>
      <trkpt lat="43.21551667" lon="-6.88100167">
        <ele>613.0</ele>
        <time>2022-06-19T07:59:26.495Z</time>
      </trkpt>
      <trkpt lat="43.21551667" lon="-6.88100167">
        <ele>613.0</ele>
        <time>2022-06-19T07:59:27.501Z</time>
      </trkpt>
      <trkpt lat="43.21550333" lon="-6.88105">
        <ele>613.0</ele>
        <time>2022-06-19T07:59:28.466Z</time>
      </trkpt>
      <trkpt lat="43.215495" lon="-6.88107333">
        <ele>613.0</ele>
        <time>2022-06-19T07:59:29.479Z</time>
      </trkpt>
      <trkpt lat="43.215495" lon="-6.88107333">
        <ele>613.0</ele>
        <time>2022-06-19T07:59:30.485Z</time>
      </trkpt>
      <trkpt lat="43.21547833" lon="-6.881125">
        <ele>614.0</ele>
        <time>2022-06-19T07:59:31.499Z</time>
      </trkpt>
      <trkpt lat="43.21547833" lon="-6.881125">
        <ele>614.0</ele>
        <time>2022-06-19T07:59:32.465Z</time>
      </trkpt>
      <trkpt lat="43.21546333" lon="-6.88117833">
        <ele>614.0</ele>
        <time>2022-06-19T07:59:33.477Z</time>
      </trkpt>
      <trkpt lat="43.21546333" lon="-6.88117833">
        <ele>614.0</ele>
        <time>2022-06-19T07:59:34.482Z</time>
      </trkpt>
      <trkpt lat="43.21545167" lon="-6.88122167">
        <ele>614.0</ele>
        <time>2022-06-19T07:59:35.494Z</time>
      </trkpt>
      <trkpt lat="43.21544833" lon="-6.88124167">
        <ele>614.0</ele>
        <time>2022-06-19T07:59:36.488Z</time>
      </trkpt>
      <trkpt lat="43.21544833" lon="-6.88124167">
        <ele>614.0</ele>
        <time>2022-06-19T07:59:37.495Z</time>
      </trkpt>
      <trkpt lat="43.21544333" lon="-6.881285">
        <ele>615.0</ele>
        <time>2022-06-19T07:59:38.469Z</time>
      </trkpt>
      <trkpt lat="43.21544" lon="-6.88130833">
        <ele>615.0</ele>
        <time>2022-06-19T07:59:39.493Z</time>
      </trkpt>
      <trkpt lat="43.21543667" lon="-6.88133167">
        <ele>615.0</ele>
        <time>2022-06-19T07:59:40.468Z</time>
      </trkpt>
      <trkpt lat="43.21543667" lon="-6.88133167">
        <ele>615.0</ele>
        <time>2022-06-19T07:59:41.473Z</time>
      </trkpt>
      <trkpt lat="43.215425" lon="-6.88138167">
        <ele>615.0</ele>
        <time>2022-06-19T07:59:42.496Z</time>
      </trkpt>
      <trkpt lat="43.21542" lon="-6.88140667">
        <ele>615.0</ele>
        <time>2022-06-19T07:59:43.469Z</time>
      </trkpt>
      <trkpt lat="43.21542" lon="-6.88140667">
        <ele>615.0</ele>
        <time>2022-06-19T07:59:44.479Z</time>
      </trkpt>
      <trkpt lat="43.21541" lon="-6.88145667">
        <ele>615.0</ele>
        <time>2022-06-19T07:59:45.499Z</time>
      </trkpt>
      <trkpt lat="43.21541" lon="-6.88145667">
        <ele>615.0</ele>
        <time>2022-06-19T07:59:46.465Z</time>
      </trkpt>
      <trkpt lat="43.21539833" lon="-6.88150833">
        <ele>615.0</ele>
        <time>2022-06-19T07:59:47.486Z</time>
      </trkpt>
      <trkpt lat="43.21539833" lon="-6.88150833">
        <ele>615.0</ele>
        <time>2022-06-19T07:59:48.491Z</time>
      </trkpt>
      <trkpt lat="43.21538833" lon="-6.88155833">
        <ele>615.0</ele>
        <time>2022-06-19T07:59:49.465Z</time>
      </trkpt>
      <trkpt lat="43.21538167" lon="-6.88158333">
        <ele>615.0</ele>
        <time>2022-06-19T07:59:50.482Z</time>
      </trkpt>
      <trkpt lat="43.21538167" lon="-6.88158333">
        <ele>615.0</ele>
        <time>2022-06-19T07:59:51.489Z</time>
      </trkpt>
      <trkpt lat="43.21536833" lon="-6.88164">
        <ele>615.0</ele>
        <time>2022-06-19T07:59:52.487Z</time>
      </trkpt>
      <trkpt lat="43.21536833" lon="-6.88164">
        <ele>615.0</ele>
        <time>2022-06-19T07:59:53.492Z</time>
      </trkpt>
      <trkpt lat="43.215355" lon="-6.88169667">
        <ele>615.0</ele>
        <time>2022-06-19T07:59:54.464Z</time>
      </trkpt>
      <trkpt lat="43.21534833" lon="-6.88172333">
        <ele>615.0</ele>
        <time>2022-06-19T07:59:55.477Z</time>
      </trkpt>
      <trkpt lat="43.21534833" lon="-6.88172333">
        <ele>615.0</ele>
        <time>2022-06-19T07:59:56.482Z</time>
      </trkpt>
      <trkpt lat="43.21533" lon="-6.88177833">
        <ele>615.0</ele>
        <time>2022-06-19T07:59:57.465Z</time>
      </trkpt>
      <trkpt lat="43.21533" lon="-6.88177833">
        <ele>615.0</ele>
        <time>2022-06-19T07:59:58.470Z</time>
      </trkpt>
      <trkpt lat="43.21531333" lon="-6.881835">
        <ele>615.0</ele>
        <time>2022-06-19T07:59:59.501Z</time>
      </trkpt>
      <trkpt lat="43.21531333" lon="-6.881835">
        <ele>615.0</ele>
        <time>2022-06-19T08:00:00.467Z</time>
      </trkpt>
      <trkpt lat="43.215295" lon="-6.88189167">
        <ele>614.0</ele>
        <time>2022-06-19T08:00:01.487Z</time>
      </trkpt>
      <trkpt lat="43.215295" lon="-6.88189167">
        <ele>614.0</ele>
        <time>2022-06-19T08:00:02.492Z</time>
      </trkpt>
      <trkpt lat="43.21528" lon="-6.88194667">
        <ele>615.0</ele>
        <time>2022-06-19T08:00:03.490Z</time>
      </trkpt>
      <trkpt lat="43.21528" lon="-6.88194667">
        <ele>615.0</ele>
        <time>2022-06-19T08:00:04.496Z</time>
      </trkpt>
      <trkpt lat="43.21526667" lon="-6.882">
        <ele>615.0</ele>
        <time>2022-06-19T08:00:05.467Z</time>
      </trkpt>
      <trkpt lat="43.21526667" lon="-6.882">
        <ele>615.0</ele>
        <time>2022-06-19T08:00:06.479Z</time>
      </trkpt>
      <trkpt lat="43.21525333" lon="-6.88205167">
        <ele>615.0</ele>
        <time>2022-06-19T08:00:07.495Z</time>
      </trkpt>
      <trkpt lat="43.21525333" lon="-6.88205167">
        <ele>615.0</ele>
        <time>2022-06-19T08:00:08.495Z</time>
      </trkpt>
      <trkpt lat="43.21524167" lon="-6.88210333">
        <ele>615.0</ele>
        <time>2022-06-19T08:00:09.476Z</time>
      </trkpt>
      <trkpt lat="43.21524167" lon="-6.88210333">
        <ele>615.0</ele>
        <time>2022-06-19T08:00:10.481Z</time>
      </trkpt>
      <trkpt lat="43.21523167" lon="-6.88215">
        <ele>616.0</ele>
        <time>2022-06-19T08:00:11.471Z</time>
      </trkpt>
      <trkpt lat="43.215225" lon="-6.882175">
        <ele>616.0</ele>
        <time>2022-06-19T08:00:12.484Z</time>
      </trkpt>
      <trkpt lat="43.21521833" lon="-6.88219833">
        <ele>616.0</ele>
        <time>2022-06-19T08:00:13.496Z</time>
      </trkpt>
      <trkpt lat="43.21521833" lon="-6.88219833">
        <ele>616.0</ele>
        <time>2022-06-19T08:00:14.502Z</time>
      </trkpt>
      <trkpt lat="43.21521" lon="-6.88224833">
        <ele>616.0</ele>
        <time>2022-06-19T08:00:15.489Z</time>
      </trkpt>
      <trkpt lat="43.21521" lon="-6.88224833">
        <ele>616.0</ele>
        <time>2022-06-19T08:00:16.495Z</time>
      </trkpt>
      <trkpt lat="43.21520667" lon="-6.88229167">
        <ele>617.0</ele>
        <time>2022-06-19T08:00:17.484Z</time>
      </trkpt>
      <trkpt lat="43.21520667" lon="-6.88229167">
        <ele>617.0</ele>
        <time>2022-06-19T08:00:18.489Z</time>
      </trkpt>
      <trkpt lat="43.21520333" lon="-6.88232667">
        <ele>617.0</ele>
        <time>2022-06-19T08:00:19.464Z</time>
      </trkpt>
      <trkpt lat="43.21520333" lon="-6.88232667">
        <ele>617.0</ele>
        <time>2022-06-19T08:00:20.470Z</time>
      </trkpt>
      <trkpt lat="43.21519833" lon="-6.88235833">
        <ele>617.0</ele>
        <time>2022-06-19T08:00:21.480Z</time>
      </trkpt>
      <trkpt lat="43.21519833" lon="-6.88235833">
        <ele>617.0</ele>
        <time>2022-06-19T08:00:22.485Z</time>
      </trkpt>
      <trkpt lat="43.21519" lon="-6.88239333">
        <ele>617.0</ele>
        <time>2022-06-19T08:00:23.496Z</time>
      </trkpt>
      <trkpt lat="43.215185" lon="-6.88241">
        <ele>617.0</ele>
        <time>2022-06-19T08:00:24.497Z</time>
      </trkpt>
      <trkpt lat="43.21518" lon="-6.882425">
        <ele>617.0</ele>
        <time>2022-06-19T08:00:25.467Z</time>
      </trkpt>
      <trkpt lat="43.21518" lon="-6.882425">
        <ele>617.0</ele>
        <time>2022-06-19T08:00:26.481Z</time>
      </trkpt>
      <trkpt lat="43.21517333" lon="-6.88246167">
        <ele>618.0</ele>
        <time>2022-06-19T08:00:27.484Z</time>
      </trkpt>
      <trkpt lat="43.21517333" lon="-6.88246167">
        <ele>618.0</ele>
        <time>2022-06-19T08:00:28.489Z</time>
      </trkpt>
      <trkpt lat="43.215165" lon="-6.8825">
        <ele>618.0</ele>
        <time>2022-06-19T08:00:29.474Z</time>
      </trkpt>
      <trkpt lat="43.21516167" lon="-6.88252">
        <ele>618.0</ele>
        <time>2022-06-19T08:00:30.495Z</time>
      </trkpt>
      <trkpt lat="43.21515667" lon="-6.88254">
        <ele>618.0</ele>
        <time>2022-06-19T08:00:31.470Z</time>
      </trkpt>
      <trkpt lat="43.21515667" lon="-6.88254">
        <ele>618.0</ele>
        <time>2022-06-19T08:00:32.476Z</time>
      </trkpt>
      <trkpt lat="43.21514667" lon="-6.882585">
        <ele>618.0</ele>
        <time>2022-06-19T08:00:33.501Z</time>
      </trkpt>
      <trkpt lat="43.21514167" lon="-6.88260333">
        <ele>619.0</ele>
        <time>2022-06-19T08:00:34.489Z</time>
      </trkpt>
      <trkpt lat="43.21514167" lon="-6.88260333">
        <ele>619.0</ele>
        <time>2022-06-19T08:00:35.466Z</time>
      </trkpt>
      <trkpt lat="43.21513333" lon="-6.88264667">
        <ele>619.0</ele>
        <time>2022-06-19T08:00:36.466Z</time>
      </trkpt>
      <trkpt lat="43.21512667" lon="-6.882665">
        <ele>619.0</ele>
        <time>2022-06-19T08:00:37.483Z</time>
      </trkpt>
      <trkpt lat="43.21512167" lon="-6.88268667">
        <ele>619.0</ele>
        <time>2022-06-19T08:00:38.495Z</time>
      </trkpt>
      <trkpt lat="43.21512167" lon="-6.88268667">
        <ele>619.0</ele>
        <time>2022-06-19T08:00:39.501Z</time>
      </trkpt>
      <trkpt lat="43.21511667" lon="-6.88272333">
        <ele>619.0</ele>
        <time>2022-06-19T08:00:40.480Z</time>
      </trkpt>
      <trkpt lat="43.21511667" lon="-6.88272333">
        <ele>619.0</ele>
        <time>2022-06-19T08:00:41.485Z</time>
      </trkpt>
      <trkpt lat="43.21511167" lon="-6.88275833">
        <ele>619.0</ele>
        <time>2022-06-19T08:00:42.501Z</time>
      </trkpt>
      <trkpt lat="43.21510833" lon="-6.88278167">
        <ele>619.0</ele>
        <time>2022-06-19T08:00:43.494Z</time>
      </trkpt>
      <trkpt lat="43.21510833" lon="-6.88278167">
        <ele>619.0</ele>
        <time>2022-06-19T08:00:44.499Z</time>
      </trkpt>
      <trkpt lat="43.2151" lon="-6.88282167">
        <ele>619.0</ele>
        <time>2022-06-19T08:00:45.476Z</time>
      </trkpt>
      <trkpt lat="43.2151" lon="-6.88282167">
        <ele>619.0</ele>
        <time>2022-06-19T08:00:46.487Z</time>
      </trkpt>
      <trkpt lat="43.21509667" lon="-6.88286333">
        <ele>620.0</ele>
        <time>2022-06-19T08:00:47.467Z</time>
      </trkpt>
      <trkpt lat="43.21509667" lon="-6.88286333">
        <ele>620.0</ele>
        <time>2022-06-19T08:00:48.472Z</time>
      </trkpt>
      <trkpt lat="43.215095" lon="-6.88289833">
        <ele>620.0</ele>
        <time>2022-06-19T08:00:49.490Z</time>
      </trkpt>
      <trkpt lat="43.215095" lon="-6.88289833">
        <ele>620.0</ele>
        <time>2022-06-19T08:00:50.495Z</time>
      </trkpt>
      <trkpt lat="43.21509" lon="-6.88293833">
        <ele>620.0</ele>
        <time>2022-06-19T08:00:51.480Z</time>
      </trkpt>
      <trkpt lat="43.21509" lon="-6.88293833">
        <ele>620.0</ele>
        <time>2022-06-19T08:00:52.486Z</time>
      </trkpt>
      <trkpt lat="43.21508333" lon="-6.88297333">
        <ele>620.0</ele>
        <time>2022-06-19T08:00:53.468Z</time>
      </trkpt>
      <trkpt lat="43.21508333" lon="-6.88297333">
        <ele>620.0</ele>
        <time>2022-06-19T08:00:54.475Z</time>
      </trkpt>
      <trkpt lat="43.21508167" lon="-6.883005">
        <ele>621.0</ele>
        <time>2022-06-19T08:00:55.488Z</time>
      </trkpt>
      <trkpt lat="43.21508167" lon="-6.883005">
        <ele>621.0</ele>
        <time>2022-06-19T08:00:56.477Z</time>
      </trkpt>
      <trkpt lat="43.21508167" lon="-6.88304167">
        <ele>621.0</ele>
        <time>2022-06-19T08:00:57.500Z</time>
      </trkpt>
      <trkpt lat="43.21508167" lon="-6.88304167">
        <ele>621.0</ele>
        <time>2022-06-19T08:00:58.466Z</time>
      </trkpt>
      <trkpt lat="43.21507833" lon="-6.88307667">
        <ele>621.0</ele>
        <time>2022-06-19T08:00:59.474Z</time>
      </trkpt>
      <trkpt lat="43.21507667" lon="-6.883095">
        <ele>621.0</ele>
        <time>2022-06-19T08:01:00.487Z</time>
      </trkpt>
      <trkpt lat="43.21507667" lon="-6.883095">
        <ele>621.0</ele>
        <time>2022-06-19T08:01:01.492Z</time>
      </trkpt>
      <trkpt lat="43.21507667" lon="-6.88312833">
        <ele>622.0</ele>
        <time>2022-06-19T08:01:02.476Z</time>
      </trkpt>
      <trkpt lat="43.21507667" lon="-6.88312833">
        <ele>622.0</ele>
        <time>2022-06-19T08:01:03.481Z</time>
      </trkpt>
      <trkpt lat="43.21507667" lon="-6.88316">
        <ele>622.0</ele>
        <time>2022-06-19T08:01:04.467Z</time>
      </trkpt>
      <trkpt lat="43.21507667" lon="-6.88316">
        <ele>622.0</ele>
        <time>2022-06-19T08:01:05.481Z</time>
      </trkpt>
      <trkpt lat="43.21507333" lon="-6.88319333">
        <ele>623.0</ele>
        <time>2022-06-19T08:01:06.477Z</time>
      </trkpt>
      <trkpt lat="43.21507333" lon="-6.88320833">
        <ele>623.0</ele>
        <time>2022-06-19T08:01:07.496Z</time>
      </trkpt>
      <trkpt lat="43.21507333" lon="-6.88320833">
        <ele>623.0</ele>
        <time>2022-06-19T08:01:08.501Z</time>
      </trkpt>
      <trkpt lat="43.21507167" lon="-6.88323833">
        <ele>623.0</ele>
        <time>2022-06-19T08:01:09.475Z</time>
      </trkpt>
      <trkpt lat="43.21507167" lon="-6.88323833">
        <ele>623.0</ele>
        <time>2022-06-19T08:01:10.481Z</time>
      </trkpt>
      <trkpt lat="43.215075" lon="-6.88328">
        <ele>624.0</ele>
        <time>2022-06-19T08:01:11.500Z</time>
      </trkpt>
      <trkpt lat="43.215075" lon="-6.88328">
        <ele>624.0</ele>
        <time>2022-06-19T08:01:12.468Z</time>
      </trkpt>
      <trkpt lat="43.21507333" lon="-6.88331833">
        <ele>624.0</ele>
        <time>2022-06-19T08:01:13.485Z</time>
      </trkpt>
      <trkpt lat="43.21507333" lon="-6.88331833">
        <ele>624.0</ele>
        <time>2022-06-19T08:01:14.491Z</time>
      </trkpt>
      <trkpt lat="43.215065" lon="-6.883345">
        <ele>625.0</ele>
        <time>2022-06-19T08:01:15.470Z</time>
      </trkpt>
      <trkpt lat="43.21505667" lon="-6.88335667">
        <ele>625.0</ele>
        <time>2022-06-19T08:01:16.480Z</time>
      </trkpt>
      <trkpt lat="43.21504833" lon="-6.88336833">
        <ele>625.0</ele>
        <time>2022-06-19T08:01:17.497Z</time>
      </trkpt>
      <trkpt lat="43.21504833" lon="-6.88336833">
        <ele>625.0</ele>
        <time>2022-06-19T08:01:18.463Z</time>
      </trkpt>
      <trkpt lat="43.215035" lon="-6.88339167">
        <ele>626.0</ele>
        <time>2022-06-19T08:01:19.483Z</time>
      </trkpt>
      <trkpt lat="43.215035" lon="-6.88339167">
        <ele>626.0</ele>
        <time>2022-06-19T08:01:20.488Z</time>
      </trkpt>
      <trkpt lat="43.21502333" lon="-6.883415">
        <ele>626.0</ele>
        <time>2022-06-19T08:01:21.482Z</time>
      </trkpt>
      <trkpt lat="43.21501667" lon="-6.88342833">
        <ele>627.0</ele>
        <time>2022-06-19T08:01:22.501Z</time>
      </trkpt>
      <trkpt lat="43.21501667" lon="-6.88342833">
        <ele>627.0</ele>
        <time>2022-06-19T08:01:23.466Z</time>
      </trkpt>
      <trkpt lat="43.21500667" lon="-6.88345333">
        <ele>627.0</ele>
        <time>2022-06-19T08:01:24.485Z</time>
      </trkpt>
      <trkpt lat="43.21500667" lon="-6.88345333">
        <ele>627.0</ele>
        <time>2022-06-19T08:01:25.491Z</time>
      </trkpt>
      <trkpt lat="43.214995" lon="-6.88348333">
        <ele>628.0</ele>
        <time>2022-06-19T08:01:26.478Z</time>
      </trkpt>
      <trkpt lat="43.214995" lon="-6.88348333">
        <ele>628.0</ele>
        <time>2022-06-19T08:01:27.484Z</time>
      </trkpt>
      <trkpt lat="43.214985" lon="-6.883515">
        <ele>628.0</ele>
        <time>2022-06-19T08:01:28.469Z</time>
      </trkpt>
      <trkpt lat="43.214985" lon="-6.883515">
        <ele>628.0</ele>
        <time>2022-06-19T08:01:29.491Z</time>
      </trkpt>
      <trkpt lat="43.21497" lon="-6.88354">
        <ele>629.0</ele>
        <time>2022-06-19T08:01:30.472Z</time>
      </trkpt>
      <trkpt lat="43.21497" lon="-6.88354">
        <ele>629.0</ele>
        <time>2022-06-19T08:01:31.478Z</time>
      </trkpt>
      <trkpt lat="43.21496" lon="-6.88357333">
        <ele>629.0</ele>
        <time>2022-06-19T08:01:32.468Z</time>
      </trkpt>
      <trkpt lat="43.21496" lon="-6.88357333">
        <ele>629.0</ele>
        <time>2022-06-19T08:01:33.478Z</time>
      </trkpt>
      <trkpt lat="43.21494667" lon="-6.88360667">
        <ele>630.0</ele>
        <time>2022-06-19T08:01:34.502Z</time>
      </trkpt>
      <trkpt lat="43.21494667" lon="-6.88360667">
        <ele>630.0</ele>
        <time>2022-06-19T08:01:35.467Z</time>
      </trkpt>
      <trkpt lat="43.214935" lon="-6.883635">
        <ele>630.0</ele>
        <time>2022-06-19T08:01:36.494Z</time>
      </trkpt>
      <trkpt lat="43.21493167" lon="-6.88364833">
        <ele>631.0</ele>
        <time>2022-06-19T08:01:37.465Z</time>
      </trkpt>
      <trkpt lat="43.21493167" lon="-6.88364833">
        <ele>631.0</ele>
        <time>2022-06-19T08:01:38.471Z</time>
      </trkpt>
      <trkpt lat="43.21492833" lon="-6.88367">
        <ele>631.0</ele>
        <time>2022-06-19T08:01:39.485Z</time>
      </trkpt>
      <trkpt lat="43.21492667" lon="-6.88368333">
        <ele>631.0</ele>
        <time>2022-06-19T08:01:40.466Z</time>
      </trkpt>
      <trkpt lat="43.21492667" lon="-6.88368333">
        <ele>631.0</ele>
        <time>2022-06-19T08:01:41.471Z</time>
      </trkpt>
      <trkpt lat="43.21492667" lon="-6.88372667">
        <ele>631.0</ele>
        <time>2022-06-19T08:01:42.484Z</time>
      </trkpt>
      <trkpt lat="43.21492" lon="-6.88374">
        <ele>632.0</ele>
        <time>2022-06-19T08:01:43.473Z</time>
      </trkpt>
      <trkpt lat="43.21492" lon="-6.88374">
        <ele>632.0</ele>
        <time>2022-06-19T08:01:44.479Z</time>
      </trkpt>
      <trkpt lat="43.21491833" lon="-6.883775">
        <ele>632.0</ele>
        <time>2022-06-19T08:01:45.495Z</time>
      </trkpt>
      <trkpt lat="43.21491667" lon="-6.883785">
        <ele>632.0</ele>
        <time>2022-06-19T08:01:46.476Z</time>
      </trkpt>
      <trkpt lat="43.21491667" lon="-6.883785">
        <ele>632.0</ele>
        <time>2022-06-19T08:01:47.482Z</time>
      </trkpt>
      <trkpt lat="43.21491333" lon="-6.88380833">
        <ele>633.0</ele>
        <time>2022-06-19T08:01:48.499Z</time>
      </trkpt>
      <trkpt lat="43.21491" lon="-6.88382833">
        <ele>633.0</ele>
        <time>2022-06-19T08:01:49.468Z</time>
      </trkpt>
      <trkpt lat="43.21491" lon="-6.88382833">
        <ele>633.0</ele>
        <time>2022-06-19T08:01:50.482Z</time>
      </trkpt>
      <trkpt lat="43.21490667" lon="-6.88388167">
        <ele>633.0</ele>
        <time>2022-06-19T08:01:51.495Z</time>
      </trkpt>
      <trkpt lat="43.21490167" lon="-6.88390833">
        <ele>633.0</ele>
        <time>2022-06-19T08:01:52.466Z</time>
      </trkpt>
      <trkpt lat="43.21490167" lon="-6.88390833">
        <ele>633.0</ele>
        <time>2022-06-19T08:01:53.471Z</time>
      </trkpt>
      <trkpt lat="43.21488667" lon="-6.88395667">
        <ele>633.0</ele>
        <time>2022-06-19T08:01:54.498Z</time>
      </trkpt>
      <trkpt lat="43.21487333" lon="-6.88397667">
        <ele>633.0</ele>
        <time>2022-06-19T08:01:55.471Z</time>
      </trkpt>
      <trkpt lat="43.21487333" lon="-6.88397667">
        <ele>633.0</ele>
        <time>2022-06-19T08:01:56.479Z</time>
      </trkpt>
      <trkpt lat="43.21484667" lon="-6.88402667">
        <ele>634.0</ele>
        <time>2022-06-19T08:01:57.495Z</time>
      </trkpt>
      <trkpt lat="43.21484667" lon="-6.88402667">
        <ele>634.0</ele>
        <time>2022-06-19T08:01:58.499Z</time>
      </trkpt>
      <trkpt lat="43.21481667" lon="-6.88407">
        <ele>634.0</ele>
        <time>2022-06-19T08:01:59.493Z</time>
      </trkpt>
      <trkpt lat="43.21481667" lon="-6.88407">
        <ele>634.0</ele>
        <time>2022-06-19T08:02:00.499Z</time>
      </trkpt>
      <trkpt lat="43.21478" lon="-6.884115">
        <ele>635.0</ele>
        <time>2022-06-19T08:02:01.477Z</time>
      </trkpt>
      <trkpt lat="43.21478" lon="-6.884115">
        <ele>635.0</ele>
        <time>2022-06-19T08:02:02.482Z</time>
      </trkpt>
      <trkpt lat="43.21473667" lon="-6.884175">
        <ele>635.0</ele>
        <time>2022-06-19T08:02:03.499Z</time>
      </trkpt>
      <trkpt lat="43.21473667" lon="-6.884175">
        <ele>635.0</ele>
        <time>2022-06-19T08:02:04.464Z</time>
      </trkpt>
      <trkpt lat="43.21469" lon="-6.88423">
        <ele>636.0</ele>
        <time>2022-06-19T08:02:05.496Z</time>
      </trkpt>
      <trkpt lat="43.21469" lon="-6.88423">
        <ele>636.0</ele>
        <time>2022-06-19T08:02:06.501Z</time>
      </trkpt>
      <trkpt lat="43.21465" lon="-6.88428">
        <ele>636.0</ele>
        <time>2022-06-19T08:02:07.480Z</time>
      </trkpt>
      <trkpt lat="43.214635" lon="-6.8843">
        <ele>636.0</ele>
        <time>2022-06-19T08:02:08.500Z</time>
      </trkpt>
      <trkpt lat="43.214635" lon="-6.8843">
        <ele>636.0</ele>
        <time>2022-06-19T08:02:09.465Z</time>
      </trkpt>
      <trkpt lat="43.21461333" lon="-6.884325">
        <ele>636.0</ele>
        <time>2022-06-19T08:02:10.477Z</time>
      </trkpt>
      <trkpt lat="43.21461333" lon="-6.884325">
        <ele>636.0</ele>
        <time>2022-06-19T08:02:11.482Z</time>
      </trkpt>
      <trkpt lat="43.214595" lon="-6.88434333">
        <ele>636.0</ele>
        <time>2022-06-19T08:02:12.463Z</time>
      </trkpt>
      <trkpt lat="43.21459167" lon="-6.88436167">
        <ele>636.0</ele>
        <time>2022-06-19T08:02:13.464Z</time>
      </trkpt>
      <trkpt lat="43.21459167" lon="-6.88436167">
        <ele>636.0</ele>
        <time>2022-06-19T08:02:14.469Z</time>
      </trkpt>
      <trkpt lat="43.21457833" lon="-6.88441167">
        <ele>637.0</ele>
        <time>2022-06-19T08:02:15.485Z</time>
      </trkpt>
      <trkpt lat="43.21457833" lon="-6.88441167">
        <ele>637.0</ele>
        <time>2022-06-19T08:02:16.491Z</time>
      </trkpt>
      <trkpt lat="43.21454833" lon="-6.88446333">
        <ele>637.0</ele>
        <time>2022-06-19T08:02:17.490Z</time>
      </trkpt>
      <trkpt lat="43.21454833" lon="-6.88446333">
        <ele>637.0</ele>
        <time>2022-06-19T08:02:18.495Z</time>
      </trkpt>
      <trkpt lat="43.21452667" lon="-6.88451">
        <ele>637.0</ele>
        <time>2022-06-19T08:02:19.469Z</time>
      </trkpt>
      <trkpt lat="43.21452667" lon="-6.88451">
        <ele>637.0</ele>
        <time>2022-06-19T08:02:20.475Z</time>
      </trkpt>
      <trkpt lat="43.21451167" lon="-6.884555">
        <ele>637.0</ele>
        <time>2022-06-19T08:02:21.494Z</time>
      </trkpt>
      <trkpt lat="43.21451167" lon="-6.884555">
        <ele>637.0</ele>
        <time>2022-06-19T08:02:22.465Z</time>
      </trkpt>
      <trkpt lat="43.214485" lon="-6.88459833">
        <ele>638.0</ele>
        <time>2022-06-19T08:02:23.483Z</time>
      </trkpt>
      <trkpt lat="43.21446833" lon="-6.88461833">
        <ele>638.0</ele>
        <time>2022-06-19T08:02:24.492Z</time>
      </trkpt>
      <trkpt lat="43.21445333" lon="-6.88464">
        <ele>638.0</ele>
        <time>2022-06-19T08:02:25.472Z</time>
      </trkpt>
      <trkpt lat="43.21445333" lon="-6.88464">
        <ele>638.0</ele>
        <time>2022-06-19T08:02:26.479Z</time>
      </trkpt>
      <trkpt lat="43.21442833" lon="-6.884685">
        <ele>638.0</ele>
        <time>2022-06-19T08:02:27.497Z</time>
      </trkpt>
      <trkpt lat="43.21442" lon="-6.884695">
        <ele>638.0</ele>
        <time>2022-06-19T08:02:28.487Z</time>
      </trkpt>
      <trkpt lat="43.21442" lon="-6.884695">
        <ele>638.0</ele>
        <time>2022-06-19T08:02:29.494Z</time>
      </trkpt>
      <trkpt lat="43.2144" lon="-6.884715">
        <ele>638.0</ele>
        <time>2022-06-19T08:02:30.479Z</time>
      </trkpt>
      <trkpt lat="43.2144" lon="-6.884715">
        <ele>638.0</ele>
        <time>2022-06-19T08:02:31.485Z</time>
      </trkpt>
      <trkpt lat="43.21436833" lon="-6.88475667">
        <ele>639.0</ele>
        <time>2022-06-19T08:02:32.468Z</time>
      </trkpt>
      <trkpt lat="43.21436833" lon="-6.88475667">
        <ele>639.0</ele>
        <time>2022-06-19T08:02:33.478Z</time>
      </trkpt>
      <trkpt lat="43.214335" lon="-6.88481333">
        <ele>639.0</ele>
        <time>2022-06-19T08:02:34.488Z</time>
      </trkpt>
      <trkpt lat="43.214335" lon="-6.88481333">
        <ele>639.0</ele>
        <time>2022-06-19T08:02:35.494Z</time>
      </trkpt>
      <trkpt lat="43.21431667" lon="-6.88485833">
        <ele>639.0</ele>
        <time>2022-06-19T08:02:36.475Z</time>
      </trkpt>
      <trkpt lat="43.21429667" lon="-6.88488333">
        <ele>639.0</ele>
        <time>2022-06-19T08:02:37.501Z</time>
      </trkpt>
      <trkpt lat="43.21429667" lon="-6.88488333">
        <ele>639.0</ele>
        <time>2022-06-19T08:02:38.466Z</time>
      </trkpt>
      <trkpt lat="43.21426333" lon="-6.88493833">
        <ele>639.0</ele>
        <time>2022-06-19T08:02:39.486Z</time>
      </trkpt>
      <trkpt lat="43.21426333" lon="-6.88493833">
        <ele>639.0</ele>
        <time>2022-06-19T08:02:40.491Z</time>
      </trkpt>
      <trkpt lat="43.21424667" lon="-6.88498833">
        <ele>639.0</ele>
        <time>2022-06-19T08:02:41.488Z</time>
      </trkpt>
      <trkpt lat="43.21424667" lon="-6.88498833">
        <ele>639.0</ele>
        <time>2022-06-19T08:02:42.493Z</time>
      </trkpt>
      <trkpt lat="43.21421833" lon="-6.88506">
        <ele>639.0</ele>
        <time>2022-06-19T08:02:43.464Z</time>
      </trkpt>
      <trkpt lat="43.21421833" lon="-6.88506">
        <ele>639.0</ele>
        <time>2022-06-19T08:02:44.470Z</time>
      </trkpt>
      <trkpt lat="43.21419" lon="-6.885115">
        <ele>639.0</ele>
        <time>2022-06-19T08:02:45.464Z</time>
      </trkpt>
      <trkpt lat="43.21419" lon="-6.885115">
        <ele>639.0</ele>
        <time>2022-06-19T08:02:46.471Z</time>
      </trkpt>
      <trkpt lat="43.21416667" lon="-6.88516833">
        <ele>639.0</ele>
        <time>2022-06-19T08:02:47.624Z</time>
      </trkpt>
      <trkpt lat="43.21416667" lon="-6.88516833">
        <ele>639.0</ele>
        <time>2022-06-19T08:02:48.483Z</time>
      </trkpt>
      <trkpt lat="43.21414167" lon="-6.885215">
        <ele>640.0</ele>
        <time>2022-06-19T08:02:49.467Z</time>
      </trkpt>
      <trkpt lat="43.21414167" lon="-6.885215">
        <ele>640.0</ele>
        <time>2022-06-19T08:02:50.481Z</time>
      </trkpt>
      <trkpt lat="43.21411667" lon="-6.88525833">
        <ele>640.0</ele>
        <time>2022-06-19T08:02:51.464Z</time>
      </trkpt>
      <trkpt lat="43.21411667" lon="-6.88525833">
        <ele>640.0</ele>
        <time>2022-06-19T08:02:52.470Z</time>
      </trkpt>
      <trkpt lat="43.214095" lon="-6.885305">
        <ele>640.0</ele>
        <time>2022-06-19T08:02:53.494Z</time>
      </trkpt>
      <trkpt lat="43.214095" lon="-6.885305">
        <ele>640.0</ele>
        <time>2022-06-19T08:02:54.500Z</time>
      </trkpt>
      <trkpt lat="43.21406833" lon="-6.885355">
        <ele>641.0</ele>
        <time>2022-06-19T08:02:55.484Z</time>
      </trkpt>
      <trkpt lat="43.21406833" lon="-6.885355">
        <ele>641.0</ele>
        <time>2022-06-19T08:02:56.501Z</time>
      </trkpt>
      <trkpt lat="43.21404833" lon="-6.88539667">
        <ele>641.0</ele>
        <time>2022-06-19T08:02:57.496Z</time>
      </trkpt>
      <trkpt lat="43.21404833" lon="-6.88539667">
        <ele>641.0</ele>
        <time>2022-06-19T08:02:58.485Z</time>
      </trkpt>
      <trkpt lat="43.21402333" lon="-6.88543833">
        <ele>642.0</ele>
        <time>2022-06-19T08:02:59.487Z</time>
      </trkpt>
      <trkpt lat="43.21400667" lon="-6.88546333">
        <ele>642.0</ele>
        <time>2022-06-19T08:03:00.464Z</time>
      </trkpt>
      <trkpt lat="43.21400667" lon="-6.88546333">
        <ele>642.0</ele>
        <time>2022-06-19T08:03:01.478Z</time>
      </trkpt>
      <trkpt lat="43.21398167" lon="-6.88550667">
        <ele>642.0</ele>
        <time>2022-06-19T08:03:02.466Z</time>
      </trkpt>
      <trkpt lat="43.21396833" lon="-6.88553">
        <ele>642.0</ele>
        <time>2022-06-19T08:03:03.473Z</time>
      </trkpt>
      <trkpt lat="43.21395333" lon="-6.88555333">
        <ele>642.0</ele>
        <time>2022-06-19T08:03:04.489Z</time>
      </trkpt>
      <trkpt lat="43.21395333" lon="-6.88555333">
        <ele>642.0</ele>
        <time>2022-06-19T08:03:05.500Z</time>
      </trkpt>
      <trkpt lat="43.21393" lon="-6.88560167">
        <ele>642.0</ele>
        <time>2022-06-19T08:03:06.489Z</time>
      </trkpt>
      <trkpt lat="43.21391833" lon="-6.885625">
        <ele>643.0</ele>
        <time>2022-06-19T08:03:07.502Z</time>
      </trkpt>
      <trkpt lat="43.21389833" lon="-6.88566">
        <ele>643.0</ele>
        <time>2022-06-19T08:03:08.485Z</time>
      </trkpt>
      <trkpt lat="43.21389833" lon="-6.88566">
        <ele>643.0</ele>
        <time>2022-06-19T08:03:09.491Z</time>
      </trkpt>
      <trkpt lat="43.21387167" lon="-6.88571833">
        <ele>643.0</ele>
        <time>2022-06-19T08:03:10.474Z</time>
      </trkpt>
      <trkpt lat="43.21386" lon="-6.88574833">
        <ele>643.0</ele>
        <time>2022-06-19T08:03:11.468Z</time>
      </trkpt>
      <trkpt lat="43.21385333" lon="-6.885775">
        <ele>644.0</ele>
        <time>2022-06-19T08:03:12.487Z</time>
      </trkpt>
      <trkpt lat="43.21385333" lon="-6.885775">
        <ele>644.0</ele>
        <time>2022-06-19T08:03:13.493Z</time>
      </trkpt>
      <trkpt lat="43.21384333" lon="-6.88583333">
        <ele>644.0</ele>
        <time>2022-06-19T08:03:14.482Z</time>
      </trkpt>
      <trkpt lat="43.21383667" lon="-6.88586">
        <ele>644.0</ele>
        <time>2022-06-19T08:03:15.481Z</time>
      </trkpt>
      <trkpt lat="43.21383667" lon="-6.88586">
        <ele>644.0</ele>
        <time>2022-06-19T08:03:16.486Z</time>
      </trkpt>
      <trkpt lat="43.21382667" lon="-6.88590833">
        <ele>645.0</ele>
        <time>2022-06-19T08:03:17.469Z</time>
      </trkpt>
      <trkpt lat="43.21382167" lon="-6.88593333">
        <ele>645.0</ele>
        <time>2022-06-19T08:03:18.463Z</time>
      </trkpt>
      <trkpt lat="43.21382167" lon="-6.88593333">
        <ele>645.0</ele>
        <time>2022-06-19T08:03:19.469Z</time>
      </trkpt>
      <trkpt lat="43.21381167" lon="-6.88598333">
        <ele>645.0</ele>
        <time>2022-06-19T08:03:20.495Z</time>
      </trkpt>
      <trkpt lat="43.21381167" lon="-6.88598333">
        <ele>645.0</ele>
        <time>2022-06-19T08:03:21.502Z</time>
      </trkpt>
      <trkpt lat="43.21380667" lon="-6.88603">
        <ele>646.0</ele>
        <time>2022-06-19T08:03:22.494Z</time>
      </trkpt>
      <trkpt lat="43.21380333" lon="-6.88605333">
        <ele>646.0</ele>
        <time>2022-06-19T08:03:23.473Z</time>
      </trkpt>
      <trkpt lat="43.21380333" lon="-6.88605333">
        <ele>646.0</ele>
        <time>2022-06-19T08:03:24.479Z</time>
      </trkpt>
      <trkpt lat="43.21378667" lon="-6.88610167">
        <ele>646.0</ele>
        <time>2022-06-19T08:03:25.481Z</time>
      </trkpt>
      <trkpt lat="43.21378667" lon="-6.88610167">
        <ele>646.0</ele>
        <time>2022-06-19T08:03:26.490Z</time>
      </trkpt>
      <trkpt lat="43.21377333" lon="-6.886155">
        <ele>647.0</ele>
        <time>2022-06-19T08:03:27.473Z</time>
      </trkpt>
      <trkpt lat="43.21377333" lon="-6.886155">
        <ele>647.0</ele>
        <time>2022-06-19T08:03:28.479Z</time>
      </trkpt>
      <trkpt lat="43.21375333" lon="-6.886195">
        <ele>647.0</ele>
        <time>2022-06-19T08:03:29.475Z</time>
      </trkpt>
      <trkpt lat="43.21375333" lon="-6.886195">
        <ele>647.0</ele>
        <time>2022-06-19T08:03:30.478Z</time>
      </trkpt>
      <trkpt lat="43.213735" lon="-6.886235">
        <ele>648.0</ele>
        <time>2022-06-19T08:03:31.497Z</time>
      </trkpt>
      <trkpt lat="43.213735" lon="-6.886235">
        <ele>648.0</ele>
        <time>2022-06-19T08:03:32.464Z</time>
      </trkpt>
      <trkpt lat="43.213715" lon="-6.88627833">
        <ele>648.0</ele>
        <time>2022-06-19T08:03:33.483Z</time>
      </trkpt>
      <trkpt lat="43.213715" lon="-6.88627833">
        <ele>648.0</ele>
        <time>2022-06-19T08:03:34.488Z</time>
      </trkpt>
      <trkpt lat="43.21368833" lon="-6.88632167">
        <ele>649.0</ele>
        <time>2022-06-19T08:03:35.469Z</time>
      </trkpt>
      <trkpt lat="43.213675" lon="-6.88634167">
        <ele>649.0</ele>
        <time>2022-06-19T08:03:36.499Z</time>
      </trkpt>
      <trkpt lat="43.213675" lon="-6.88634167">
        <ele>649.0</ele>
        <time>2022-06-19T08:03:37.465Z</time>
      </trkpt>
      <trkpt lat="43.21365333" lon="-6.88638333">
        <ele>649.0</ele>
        <time>2022-06-19T08:03:38.487Z</time>
      </trkpt>
      <trkpt lat="43.21365333" lon="-6.88638333">
        <ele>649.0</ele>
        <time>2022-06-19T08:03:39.493Z</time>
      </trkpt>
      <trkpt lat="43.21363167" lon="-6.88642333">
        <ele>650.0</ele>
        <time>2022-06-19T08:03:40.487Z</time>
      </trkpt>
      <trkpt lat="43.21363167" lon="-6.88642333">
        <ele>650.0</ele>
        <time>2022-06-19T08:03:41.496Z</time>
      </trkpt>
      <trkpt lat="43.21361" lon="-6.88646">
        <ele>651.0</ele>
        <time>2022-06-19T08:03:42.474Z</time>
      </trkpt>
      <trkpt lat="43.213595" lon="-6.88647333">
        <ele>651.0</ele>
        <time>2022-06-19T08:03:43.471Z</time>
      </trkpt>
      <trkpt lat="43.213595" lon="-6.88647333">
        <ele>651.0</ele>
        <time>2022-06-19T08:03:44.476Z</time>
      </trkpt>
      <trkpt lat="43.213565" lon="-6.88651333">
        <ele>652.0</ele>
        <time>2022-06-19T08:03:45.466Z</time>
      </trkpt>
      <trkpt lat="43.21355" lon="-6.88653">
        <ele>652.0</ele>
        <time>2022-06-19T08:03:46.488Z</time>
      </trkpt>
      <trkpt lat="43.21355" lon="-6.88653">
        <ele>652.0</ele>
        <time>2022-06-19T08:03:47.493Z</time>
      </trkpt>
      <trkpt lat="43.21352333" lon="-6.88656333">
        <ele>652.0</ele>
        <time>2022-06-19T08:03:48.479Z</time>
      </trkpt>
      <trkpt lat="43.21351333" lon="-6.88657667">
        <ele>653.0</ele>
        <time>2022-06-19T08:03:49.496Z</time>
      </trkpt>
      <trkpt lat="43.21351333" lon="-6.88657667">
        <ele>653.0</ele>
        <time>2022-06-19T08:03:50.463Z</time>
      </trkpt>
      <trkpt lat="43.21349333" lon="-6.88659667">
        <ele>654.0</ele>
        <time>2022-06-19T08:03:51.489Z</time>
      </trkpt>
      <trkpt lat="43.21348333" lon="-6.88660833">
        <ele>654.0</ele>
        <time>2022-06-19T08:03:52.464Z</time>
      </trkpt>
      <trkpt lat="43.21347167" lon="-6.88662167">
        <ele>654.0</ele>
        <time>2022-06-19T08:03:53.491Z</time>
      </trkpt>
      <trkpt lat="43.21347167" lon="-6.88662167">
        <ele>654.0</ele>
        <time>2022-06-19T08:03:54.497Z</time>
      </trkpt>
      <trkpt lat="43.21344833" lon="-6.88664167">
        <ele>655.0</ele>
        <time>2022-06-19T08:03:55.471Z</time>
      </trkpt>
      <trkpt lat="43.21344833" lon="-6.88664167">
        <ele>655.0</ele>
        <time>2022-06-19T08:03:56.483Z</time>
      </trkpt>
      <trkpt lat="43.21342667" lon="-6.88666167">
        <ele>656.0</ele>
        <time>2022-06-19T08:03:57.472Z</time>
      </trkpt>
      <trkpt lat="43.21342667" lon="-6.88666167">
        <ele>656.0</ele>
        <time>2022-06-19T08:03:58.482Z</time>
      </trkpt>
      <trkpt lat="43.21340333" lon="-6.88668">
        <ele>656.0</ele>
        <time>2022-06-19T08:03:59.473Z</time>
      </trkpt>
      <trkpt lat="43.21339" lon="-6.88668833">
        <ele>656.0</ele>
        <time>2022-06-19T08:04:00.494Z</time>
      </trkpt>
      <trkpt lat="43.21339" lon="-6.88668833">
        <ele>656.0</ele>
        <time>2022-06-19T08:04:01.502Z</time>
      </trkpt>
      <trkpt lat="43.21336333" lon="-6.886705">
        <ele>656.0</ele>
        <time>2022-06-19T08:04:02.488Z</time>
      </trkpt>
      <trkpt lat="43.21335" lon="-6.88671333">
        <ele>656.0</ele>
        <time>2022-06-19T08:04:03.466Z</time>
      </trkpt>
      <trkpt lat="43.21335" lon="-6.88671333">
        <ele>656.0</ele>
        <time>2022-06-19T08:04:04.471Z</time>
      </trkpt>
      <trkpt lat="43.21332167" lon="-6.88673333">
        <ele>656.0</ele>
        <time>2022-06-19T08:04:05.498Z</time>
      </trkpt>
      <trkpt lat="43.21332167" lon="-6.88673333">
        <ele>656.0</ele>
        <time>2022-06-19T08:04:06.503Z</time>
      </trkpt>
      <trkpt lat="43.213295" lon="-6.88675167">
        <ele>657.0</ele>
        <time>2022-06-19T08:04:07.493Z</time>
      </trkpt>
      <trkpt lat="43.213295" lon="-6.88675167">
        <ele>657.0</ele>
        <time>2022-06-19T08:04:08.498Z</time>
      </trkpt>
      <trkpt lat="43.21327167" lon="-6.88677167">
        <ele>657.0</ele>
        <time>2022-06-19T08:04:09.484Z</time>
      </trkpt>
      <trkpt lat="43.21327167" lon="-6.88677167">
        <ele>657.0</ele>
        <time>2022-06-19T08:04:10.489Z</time>
      </trkpt>
      <trkpt lat="43.21324333" lon="-6.886785">
        <ele>657.0</ele>
        <time>2022-06-19T08:04:11.471Z</time>
      </trkpt>
      <trkpt lat="43.21322833" lon="-6.886795">
        <ele>657.0</ele>
        <time>2022-06-19T08:04:12.487Z</time>
      </trkpt>
      <trkpt lat="43.21322833" lon="-6.886795">
        <ele>657.0</ele>
        <time>2022-06-19T08:04:13.492Z</time>
      </trkpt>
      <trkpt lat="43.21320167" lon="-6.88681667">
        <ele>658.0</ele>
        <time>2022-06-19T08:04:14.474Z</time>
      </trkpt>
      <trkpt lat="43.21320167" lon="-6.88681667">
        <ele>658.0</ele>
        <time>2022-06-19T08:04:15.480Z</time>
      </trkpt>
      <trkpt lat="43.21317167" lon="-6.886835">
        <ele>658.0</ele>
        <time>2022-06-19T08:04:16.489Z</time>
      </trkpt>
      <trkpt lat="43.21317167" lon="-6.886835">
        <ele>658.0</ele>
        <time>2022-06-19T08:04:17.495Z</time>
      </trkpt>
      <trkpt lat="43.21314667" lon="-6.88685">
        <ele>658.0</ele>
        <time>2022-06-19T08:04:18.482Z</time>
      </trkpt>
      <trkpt lat="43.21314667" lon="-6.88685">
        <ele>658.0</ele>
        <time>2022-06-19T08:04:19.488Z</time>
      </trkpt>
      <trkpt lat="43.213125" lon="-6.88686667">
        <ele>659.0</ele>
        <time>2022-06-19T08:04:20.474Z</time>
      </trkpt>
      <trkpt lat="43.213125" lon="-6.88686667">
        <ele>659.0</ele>
        <time>2022-06-19T08:04:21.479Z</time>
      </trkpt>
      <trkpt lat="43.21310167" lon="-6.88688333">
        <ele>659.0</ele>
        <time>2022-06-19T08:04:22.496Z</time>
      </trkpt>
      <trkpt lat="43.21310167" lon="-6.88688333">
        <ele>659.0</ele>
        <time>2022-06-19T08:04:23.501Z</time>
      </trkpt>
      <trkpt lat="43.21307667" lon="-6.88689833">
        <ele>660.0</ele>
        <time>2022-06-19T08:04:24.498Z</time>
      </trkpt>
      <trkpt lat="43.21306667" lon="-6.88691167">
        <ele>660.0</ele>
        <time>2022-06-19T08:04:25.484Z</time>
      </trkpt>
      <trkpt lat="43.21306667" lon="-6.88691167">
        <ele>660.0</ele>
        <time>2022-06-19T08:04:26.490Z</time>
      </trkpt>
      <trkpt lat="43.21305" lon="-6.88694167">
        <ele>661.0</ele>
        <time>2022-06-19T08:04:27.476Z</time>
      </trkpt>
      <trkpt lat="43.21305" lon="-6.88694167">
        <ele>661.0</ele>
        <time>2022-06-19T08:04:28.482Z</time>
      </trkpt>
      <trkpt lat="43.21303" lon="-6.88695333">
        <ele>661.0</ele>
        <time>2022-06-19T08:04:29.477Z</time>
      </trkpt>
      <trkpt lat="43.21303" lon="-6.88695333">
        <ele>661.0</ele>
        <time>2022-06-19T08:04:30.483Z</time>
      </trkpt>
      <trkpt lat="43.21301333" lon="-6.88698333">
        <ele>662.0</ele>
        <time>2022-06-19T08:04:31.489Z</time>
      </trkpt>
      <trkpt lat="43.21301333" lon="-6.88698333">
        <ele>662.0</ele>
        <time>2022-06-19T08:04:32.494Z</time>
      </trkpt>
      <trkpt lat="43.21299833" lon="-6.88700667">
        <ele>662.0</ele>
        <time>2022-06-19T08:04:33.471Z</time>
      </trkpt>
      <trkpt lat="43.21299833" lon="-6.88700667">
        <ele>662.0</ele>
        <time>2022-06-19T08:04:34.482Z</time>
      </trkpt>
      <trkpt lat="43.21297333" lon="-6.88702667">
        <ele>662.0</ele>
        <time>2022-06-19T08:04:35.500Z</time>
      </trkpt>
      <trkpt lat="43.21297333" lon="-6.88702667">
        <ele>662.0</ele>
        <time>2022-06-19T08:04:36.480Z</time>
      </trkpt>
      <trkpt lat="43.212945" lon="-6.88704167">
        <ele>663.0</ele>
        <time>2022-06-19T08:04:37.485Z</time>
      </trkpt>
      <trkpt lat="43.212945" lon="-6.88704167">
        <ele>663.0</ele>
        <time>2022-06-19T08:04:38.491Z</time>
      </trkpt>
      <trkpt lat="43.212925" lon="-6.88705833">
        <ele>663.0</ele>
        <time>2022-06-19T08:04:39.472Z</time>
      </trkpt>
      <trkpt lat="43.212925" lon="-6.88705833">
        <ele>663.0</ele>
        <time>2022-06-19T08:04:40.482Z</time>
      </trkpt>
      <trkpt lat="43.21289333" lon="-6.88709">
        <ele>664.0</ele>
        <time>2022-06-19T08:04:41.467Z</time>
      </trkpt>
      <trkpt lat="43.21289333" lon="-6.88709">
        <ele>664.0</ele>
        <time>2022-06-19T08:04:42.472Z</time>
      </trkpt>
      <trkpt lat="43.21286833" lon="-6.88714167">
        <ele>664.0</ele>
        <time>2022-06-19T08:04:43.493Z</time>
      </trkpt>
      <trkpt lat="43.21286833" lon="-6.88714167">
        <ele>664.0</ele>
        <time>2022-06-19T08:04:44.499Z</time>
      </trkpt>
      <trkpt lat="43.21284167" lon="-6.88719">
        <ele>665.0</ele>
        <time>2022-06-19T08:04:45.492Z</time>
      </trkpt>
      <trkpt lat="43.21284167" lon="-6.88719">
        <ele>665.0</ele>
        <time>2022-06-19T08:04:46.497Z</time>
      </trkpt>
      <trkpt lat="43.21279833" lon="-6.88721833">
        <ele>666.0</ele>
        <time>2022-06-19T08:04:47.477Z</time>
      </trkpt>
      <trkpt lat="43.21278167" lon="-6.88724167">
        <ele>666.0</ele>
        <time>2022-06-19T08:04:48.500Z</time>
      </trkpt>
      <trkpt lat="43.21275667" lon="-6.887255">
        <ele>666.0</ele>
        <time>2022-06-19T08:04:49.482Z</time>
      </trkpt>
      <trkpt lat="43.21275667" lon="-6.887255">
        <ele>666.0</ele>
        <time>2022-06-19T08:04:50.490Z</time>
      </trkpt>
      <trkpt lat="43.21270667" lon="-6.88727667">
        <ele>667.0</ele>
        <time>2022-06-19T08:04:51.480Z</time>
      </trkpt>
      <trkpt lat="43.21268" lon="-6.88728333">
        <ele>667.0</ele>
        <time>2022-06-19T08:04:52.502Z</time>
      </trkpt>
      <trkpt lat="43.21265667" lon="-6.887295">
        <ele>667.0</ele>
        <time>2022-06-19T08:04:53.491Z</time>
      </trkpt>
      <trkpt lat="43.21265667" lon="-6.887295">
        <ele>667.0</ele>
        <time>2022-06-19T08:04:54.497Z</time>
      </trkpt>
      <trkpt lat="43.21261" lon="-6.88732167">
        <ele>668.0</ele>
        <time>2022-06-19T08:04:55.485Z</time>
      </trkpt>
      <trkpt lat="43.21261" lon="-6.88732167">
        <ele>668.0</ele>
        <time>2022-06-19T08:04:56.490Z</time>
      </trkpt>
      <trkpt lat="43.21256167" lon="-6.88734333">
        <ele>669.0</ele>
        <time>2022-06-19T08:04:57.474Z</time>
      </trkpt>
      <trkpt lat="43.21254" lon="-6.88735833">
        <ele>669.0</ele>
        <time>2022-06-19T08:04:58.500Z</time>
      </trkpt>
      <trkpt lat="43.21254" lon="-6.88735833">
        <ele>669.0</ele>
        <time>2022-06-19T08:04:59.465Z</time>
      </trkpt>
      <trkpt lat="43.212495" lon="-6.88738333">
        <ele>669.0</ele>
        <time>2022-06-19T08:05:00.498Z</time>
      </trkpt>
      <trkpt lat="43.212495" lon="-6.88738333">
        <ele>669.0</ele>
        <time>2022-06-19T08:05:01.463Z</time>
      </trkpt>
      <trkpt lat="43.21244667" lon="-6.88740667">
        <ele>670.0</ele>
        <time>2022-06-19T08:05:02.498Z</time>
      </trkpt>
      <trkpt lat="43.21242333" lon="-6.88741833">
        <ele>670.0</ele>
        <time>2022-06-19T08:05:03.477Z</time>
      </trkpt>
      <trkpt lat="43.21239833" lon="-6.88743167">
        <ele>671.0</ele>
        <time>2022-06-19T08:05:04.499Z</time>
      </trkpt>
      <trkpt lat="43.21239833" lon="-6.88743167">
        <ele>671.0</ele>
        <time>2022-06-19T08:05:05.465Z</time>
      </trkpt>
      <trkpt lat="43.21235" lon="-6.88745">
        <ele>672.0</ele>
        <time>2022-06-19T08:05:06.485Z</time>
      </trkpt>
      <trkpt lat="43.21232667" lon="-6.887455">
        <ele>672.0</ele>
        <time>2022-06-19T08:05:07.470Z</time>
      </trkpt>
      <trkpt lat="43.21232667" lon="-6.887455">
        <ele>672.0</ele>
        <time>2022-06-19T08:05:08.483Z</time>
      </trkpt>
      <trkpt lat="43.21228667" lon="-6.887475">
        <ele>673.0</ele>
        <time>2022-06-19T08:05:09.490Z</time>
      </trkpt>
      <trkpt lat="43.212265" lon="-6.88749">
        <ele>673.0</ele>
        <time>2022-06-19T08:05:10.483Z</time>
      </trkpt>
      <trkpt lat="43.21224167" lon="-6.88750333">
        <ele>673.0</ele>
        <time>2022-06-19T08:05:11.470Z</time>
      </trkpt>
      <trkpt lat="43.21224167" lon="-6.88750333">
        <ele>673.0</ele>
        <time>2022-06-19T08:05:12.476Z</time>
      </trkpt>
      <trkpt lat="43.21219667" lon="-6.887535">
        <ele>674.0</ele>
        <time>2022-06-19T08:05:13.489Z</time>
      </trkpt>
      <trkpt lat="43.21219667" lon="-6.887535">
        <ele>674.0</ele>
        <time>2022-06-19T08:05:14.496Z</time>
      </trkpt>
      <trkpt lat="43.212145" lon="-6.88756167">
        <ele>675.0</ele>
        <time>2022-06-19T08:05:15.498Z</time>
      </trkpt>
      <trkpt lat="43.212145" lon="-6.88756167">
        <ele>675.0</ele>
        <time>2022-06-19T08:05:16.463Z</time>
      </trkpt>
      <trkpt lat="43.21209167" lon="-6.887585">
        <ele>676.0</ele>
        <time>2022-06-19T08:05:17.489Z</time>
      </trkpt>
      <trkpt lat="43.21209167" lon="-6.887585">
        <ele>676.0</ele>
        <time>2022-06-19T08:05:18.494Z</time>
      </trkpt>
      <trkpt lat="43.212035" lon="-6.88761833">
        <ele>676.0</ele>
        <time>2022-06-19T08:05:19.478Z</time>
      </trkpt>
      <trkpt lat="43.212035" lon="-6.88761833">
        <ele>676.0</ele>
        <time>2022-06-19T08:05:20.482Z</time>
      </trkpt>
      <trkpt lat="43.21198667" lon="-6.88765167">
        <ele>676.0</ele>
        <time>2022-06-19T08:05:21.474Z</time>
      </trkpt>
      <trkpt lat="43.211965" lon="-6.88767">
        <ele>676.0</ele>
        <time>2022-06-19T08:05:22.499Z</time>
      </trkpt>
      <trkpt lat="43.211965" lon="-6.88767">
        <ele>676.0</ele>
        <time>2022-06-19T08:05:23.465Z</time>
      </trkpt>
      <trkpt lat="43.211915" lon="-6.88770333">
        <ele>676.0</ele>
        <time>2022-06-19T08:05:24.494Z</time>
      </trkpt>
      <trkpt lat="43.21188833" lon="-6.88771833">
        <ele>676.0</ele>
        <time>2022-06-19T08:05:25.479Z</time>
      </trkpt>
      <trkpt lat="43.21188833" lon="-6.88771833">
        <ele>676.0</ele>
        <time>2022-06-19T08:05:26.485Z</time>
      </trkpt>
      <trkpt lat="43.21184" lon="-6.887745">
        <ele>676.0</ele>
        <time>2022-06-19T08:05:27.467Z</time>
      </trkpt>
      <trkpt lat="43.21184" lon="-6.887745">
        <ele>676.0</ele>
        <time>2022-06-19T08:05:28.472Z</time>
      </trkpt>
      <trkpt lat="43.21178667" lon="-6.887775">
        <ele>676.0</ele>
        <time>2022-06-19T08:05:29.494Z</time>
      </trkpt>
      <trkpt lat="43.21178667" lon="-6.887775">
        <ele>676.0</ele>
        <time>2022-06-19T08:05:30.500Z</time>
      </trkpt>
      <trkpt lat="43.21173333" lon="-6.88780333">
        <ele>676.0</ele>
        <time>2022-06-19T08:05:31.482Z</time>
      </trkpt>
      <trkpt lat="43.21173333" lon="-6.88780333">
        <ele>676.0</ele>
        <time>2022-06-19T08:05:32.489Z</time>
      </trkpt>
      <trkpt lat="43.211685" lon="-6.88783167">
        <ele>676.0</ele>
        <time>2022-06-19T08:05:33.473Z</time>
      </trkpt>
      <trkpt lat="43.211685" lon="-6.88783167">
        <ele>676.0</ele>
        <time>2022-06-19T08:05:34.479Z</time>
      </trkpt>
      <trkpt lat="43.21163667" lon="-6.88786167">
        <ele>677.0</ele>
        <time>2022-06-19T08:05:35.466Z</time>
      </trkpt>
      <trkpt lat="43.21163667" lon="-6.88786167">
        <ele>677.0</ele>
        <time>2022-06-19T08:05:36.478Z</time>
      </trkpt>
      <trkpt lat="43.211595" lon="-6.887885">
        <ele>679.0</ele>
        <time>2022-06-19T08:05:37.477Z</time>
      </trkpt>
      <trkpt lat="43.211595" lon="-6.887885">
        <ele>679.0</ele>
        <time>2022-06-19T08:05:38.483Z</time>
      </trkpt>
      <trkpt lat="43.21154833" lon="-6.88793">
        <ele>680.0</ele>
        <time>2022-06-19T08:05:39.474Z</time>
      </trkpt>
      <trkpt lat="43.21154833" lon="-6.88793">
        <ele>680.0</ele>
        <time>2022-06-19T08:05:40.481Z</time>
      </trkpt>
      <trkpt lat="43.21149833" lon="-6.887975">
        <ele>680.0</ele>
        <time>2022-06-19T08:05:41.473Z</time>
      </trkpt>
      <trkpt lat="43.21147" lon="-6.88799833">
        <ele>680.0</ele>
        <time>2022-06-19T08:05:42.492Z</time>
      </trkpt>
      <trkpt lat="43.211445" lon="-6.88802167">
        <ele>680.0</ele>
        <time>2022-06-19T08:05:43.490Z</time>
      </trkpt>
      <trkpt lat="43.211445" lon="-6.88802167">
        <ele>680.0</ele>
        <time>2022-06-19T08:05:44.496Z</time>
      </trkpt>
      <trkpt lat="43.211395" lon="-6.888065">
        <ele>680.0</ele>
        <time>2022-06-19T08:05:45.502Z</time>
      </trkpt>
      <trkpt lat="43.211395" lon="-6.888065">
        <ele>680.0</ele>
        <time>2022-06-19T08:05:46.488Z</time>
      </trkpt>
      <trkpt lat="43.21135167" lon="-6.88811833">
        <ele>680.0</ele>
        <time>2022-06-19T08:05:47.477Z</time>
      </trkpt>
      <trkpt lat="43.21135167" lon="-6.88811833">
        <ele>680.0</ele>
        <time>2022-06-19T08:05:48.485Z</time>
      </trkpt>
      <trkpt lat="43.21131333" lon="-6.88818333">
        <ele>680.0</ele>
        <time>2022-06-19T08:05:49.491Z</time>
      </trkpt>
      <trkpt lat="43.21131333" lon="-6.88818333">
        <ele>680.0</ele>
        <time>2022-06-19T08:05:50.499Z</time>
      </trkpt>
      <trkpt lat="43.21127833" lon="-6.88824">
        <ele>680.0</ele>
        <time>2022-06-19T08:05:51.486Z</time>
      </trkpt>
      <trkpt lat="43.21127833" lon="-6.88824">
        <ele>680.0</ele>
        <time>2022-06-19T08:05:52.492Z</time>
      </trkpt>
      <trkpt lat="43.21124833" lon="-6.88829667">
        <ele>680.0</ele>
        <time>2022-06-19T08:05:53.481Z</time>
      </trkpt>
      <trkpt lat="43.21124833" lon="-6.88829667">
        <ele>680.0</ele>
        <time>2022-06-19T08:05:54.487Z</time>
      </trkpt>
      <trkpt lat="43.21122667" lon="-6.88835167">
        <ele>681.0</ele>
        <time>2022-06-19T08:05:55.484Z</time>
      </trkpt>
      <trkpt lat="43.21122667" lon="-6.88835167">
        <ele>681.0</ele>
        <time>2022-06-19T08:05:56.493Z</time>
      </trkpt>
      <trkpt lat="43.21121333" lon="-6.888405">
        <ele>681.0</ele>
        <time>2022-06-19T08:05:57.490Z</time>
      </trkpt>
      <trkpt lat="43.21120667" lon="-6.88843333">
        <ele>681.0</ele>
        <time>2022-06-19T08:05:58.501Z</time>
      </trkpt>
      <trkpt lat="43.21120667" lon="-6.88843333">
        <ele>681.0</ele>
        <time>2022-06-19T08:05:59.469Z</time>
      </trkpt>
      <trkpt lat="43.21119667" lon="-6.888495">
        <ele>681.0</ele>
        <time>2022-06-19T08:06:00.495Z</time>
      </trkpt>
      <trkpt lat="43.21119667" lon="-6.888495">
        <ele>681.0</ele>
        <time>2022-06-19T08:06:01.465Z</time>
      </trkpt>
      <trkpt lat="43.21119167" lon="-6.88856167">
        <ele>681.0</ele>
        <time>2022-06-19T08:06:02.463Z</time>
      </trkpt>
      <trkpt lat="43.21118667" lon="-6.888595">
        <ele>681.0</ele>
        <time>2022-06-19T08:06:03.485Z</time>
      </trkpt>
      <trkpt lat="43.21118667" lon="-6.888595">
        <ele>681.0</ele>
        <time>2022-06-19T08:06:04.495Z</time>
      </trkpt>
      <trkpt lat="43.21118" lon="-6.88865667">
        <ele>681.0</ele>
        <time>2022-06-19T08:06:05.473Z</time>
      </trkpt>
      <trkpt lat="43.21118" lon="-6.88868667">
        <ele>681.0</ele>
        <time>2022-06-19T08:06:06.466Z</time>
      </trkpt>
      <trkpt lat="43.21118" lon="-6.88868667">
        <ele>681.0</ele>
        <time>2022-06-19T08:06:07.474Z</time>
      </trkpt>
      <trkpt lat="43.21117333" lon="-6.88875167">
        <ele>681.0</ele>
        <time>2022-06-19T08:06:08.499Z</time>
      </trkpt>
      <trkpt lat="43.21117333" lon="-6.88875167">
        <ele>681.0</ele>
        <time>2022-06-19T08:06:09.466Z</time>
      </trkpt>
      <trkpt lat="43.21116833" lon="-6.888815">
        <ele>681.0</ele>
        <time>2022-06-19T08:06:10.472Z</time>
      </trkpt>
      <trkpt lat="43.21116833" lon="-6.888815">
        <ele>681.0</ele>
        <time>2022-06-19T08:06:11.486Z</time>
      </trkpt>
      <trkpt lat="43.21117333" lon="-6.88887833">
        <ele>680.0</ele>
        <time>2022-06-19T08:06:12.470Z</time>
      </trkpt>
      <trkpt lat="43.21117667" lon="-6.88891">
        <ele>680.0</ele>
        <time>2022-06-19T08:06:13.492Z</time>
      </trkpt>
      <trkpt lat="43.21118" lon="-6.88894333">
        <ele>680.0</ele>
        <time>2022-06-19T08:06:14.475Z</time>
      </trkpt>
      <trkpt lat="43.21118" lon="-6.88894333">
        <ele>680.0</ele>
        <time>2022-06-19T08:06:15.484Z</time>
      </trkpt>
      <trkpt lat="43.21119" lon="-6.88901167">
        <ele>680.0</ele>
        <time>2022-06-19T08:06:16.474Z</time>
      </trkpt>
      <trkpt lat="43.21119" lon="-6.88901167">
        <ele>680.0</ele>
        <time>2022-06-19T08:06:17.483Z</time>
      </trkpt>
      <trkpt lat="43.21119667" lon="-6.88908">
        <ele>680.0</ele>
        <time>2022-06-19T08:06:18.466Z</time>
      </trkpt>
      <trkpt lat="43.2112" lon="-6.88911667">
        <ele>679.0</ele>
        <time>2022-06-19T08:06:19.483Z</time>
      </trkpt>
      <trkpt lat="43.2112" lon="-6.88911667">
        <ele>679.0</ele>
        <time>2022-06-19T08:06:20.490Z</time>
      </trkpt>
      <trkpt lat="43.21121333" lon="-6.88918833">
        <ele>679.0</ele>
        <time>2022-06-19T08:06:21.469Z</time>
      </trkpt>
      <trkpt lat="43.21121333" lon="-6.88918833">
        <ele>679.0</ele>
        <time>2022-06-19T08:06:22.477Z</time>
      </trkpt>
      <trkpt lat="43.21123167" lon="-6.88925">
        <ele>679.0</ele>
        <time>2022-06-19T08:06:23.469Z</time>
      </trkpt>
      <trkpt lat="43.21123167" lon="-6.88925">
        <ele>679.0</ele>
        <time>2022-06-19T08:06:24.483Z</time>
      </trkpt>
      <trkpt lat="43.21125167" lon="-6.88930667">
        <ele>679.0</ele>
        <time>2022-06-19T08:06:25.468Z</time>
      </trkpt>
      <trkpt lat="43.21125167" lon="-6.88930667">
        <ele>679.0</ele>
        <time>2022-06-19T08:06:26.481Z</time>
      </trkpt>
      <trkpt lat="43.21127" lon="-6.88936833">
        <ele>679.0</ele>
        <time>2022-06-19T08:06:27.468Z</time>
      </trkpt>
      <trkpt lat="43.21127" lon="-6.88936833">
        <ele>679.0</ele>
        <time>2022-06-19T08:06:28.475Z</time>
      </trkpt>
      <trkpt lat="43.21129167" lon="-6.88942">
        <ele>679.0</ele>
        <time>2022-06-19T08:06:29.465Z</time>
      </trkpt>
      <trkpt lat="43.21129167" lon="-6.88942">
        <ele>679.0</ele>
        <time>2022-06-19T08:06:30.471Z</time>
      </trkpt>
      <trkpt lat="43.21131833" lon="-6.889475">
        <ele>679.0</ele>
        <time>2022-06-19T08:06:31.466Z</time>
      </trkpt>
      <trkpt lat="43.21131833" lon="-6.889475">
        <ele>679.0</ele>
        <time>2022-06-19T08:06:32.472Z</time>
      </trkpt>
      <trkpt lat="43.21134833" lon="-6.889525">
        <ele>680.0</ele>
        <time>2022-06-19T08:06:33.478Z</time>
      </trkpt>
      <trkpt lat="43.21136333" lon="-6.88955333">
        <ele>680.0</ele>
        <time>2022-06-19T08:06:34.474Z</time>
      </trkpt>
      <trkpt lat="43.21136333" lon="-6.88955333">
        <ele>680.0</ele>
        <time>2022-06-19T08:06:35.482Z</time>
      </trkpt>
      <trkpt lat="43.21139333" lon="-6.8896">
        <ele>680.0</ele>
        <time>2022-06-19T08:06:36.476Z</time>
      </trkpt>
      <trkpt lat="43.21141333" lon="-6.88962333">
        <ele>680.0</ele>
        <time>2022-06-19T08:06:37.494Z</time>
      </trkpt>
      <trkpt lat="43.21143167" lon="-6.88964667">
        <ele>680.0</ele>
        <time>2022-06-19T08:06:38.485Z</time>
      </trkpt>
      <trkpt lat="43.21143167" lon="-6.88964667">
        <ele>680.0</ele>
        <time>2022-06-19T08:06:39.492Z</time>
      </trkpt>
      <trkpt lat="43.21147333" lon="-6.88969667">
        <ele>680.0</ele>
        <time>2022-06-19T08:06:40.493Z</time>
      </trkpt>
      <trkpt lat="43.21147333" lon="-6.88969667">
        <ele>680.0</ele>
        <time>2022-06-19T08:06:41.501Z</time>
      </trkpt>
      <trkpt lat="43.21151333" lon="-6.889745">
        <ele>680.0</ele>
        <time>2022-06-19T08:06:42.477Z</time>
      </trkpt>
      <trkpt lat="43.21153333" lon="-6.88976333">
        <ele>680.0</ele>
        <time>2022-06-19T08:06:43.502Z</time>
      </trkpt>
      <trkpt lat="43.21153333" lon="-6.88976333">
        <ele>680.0</ele>
        <time>2022-06-19T08:06:44.468Z</time>
      </trkpt>
      <trkpt lat="43.21157833" lon="-6.88980333">
        <ele>681.0</ele>
        <time>2022-06-19T08:06:45.496Z</time>
      </trkpt>
      <trkpt lat="43.21157833" lon="-6.88980333">
        <ele>681.0</ele>
        <time>2022-06-19T08:06:46.502Z</time>
      </trkpt>
      <trkpt lat="43.21163" lon="-6.88985167">
        <ele>681.0</ele>
        <time>2022-06-19T08:06:47.483Z</time>
      </trkpt>
      <trkpt lat="43.211655" lon="-6.88987667">
        <ele>681.0</ele>
        <time>2022-06-19T08:06:48.465Z</time>
      </trkpt>
      <trkpt lat="43.211655" lon="-6.88987667">
        <ele>681.0</ele>
        <time>2022-06-19T08:06:49.471Z</time>
      </trkpt>
      <trkpt lat="43.21170667" lon="-6.88992667">
        <ele>681.0</ele>
        <time>2022-06-19T08:06:50.463Z</time>
      </trkpt>
      <trkpt lat="43.21170667" lon="-6.88992667">
        <ele>681.0</ele>
        <time>2022-06-19T08:06:51.472Z</time>
      </trkpt>
      <trkpt lat="43.21176167" lon="-6.88998333">
        <ele>681.0</ele>
        <time>2022-06-19T08:06:52.498Z</time>
      </trkpt>
      <trkpt lat="43.21179167" lon="-6.890015">
        <ele>681.0</ele>
        <time>2022-06-19T08:06:53.483Z</time>
      </trkpt>
      <trkpt lat="43.21179167" lon="-6.890015">
        <ele>681.0</ele>
        <time>2022-06-19T08:06:54.489Z</time>
      </trkpt>
      <trkpt lat="43.21186667" lon="-6.89005833">
        <ele>681.0</ele>
        <time>2022-06-19T08:06:55.469Z</time>
      </trkpt>
      <trkpt lat="43.21186667" lon="-6.89005833">
        <ele>681.0</ele>
        <time>2022-06-19T08:06:56.475Z</time>
      </trkpt>
      <trkpt lat="43.21195333" lon="-6.89008167">
        <ele>681.0</ele>
        <time>2022-06-19T08:06:57.500Z</time>
      </trkpt>
      <trkpt lat="43.21195333" lon="-6.89008167">
        <ele>681.0</ele>
        <time>2022-06-19T08:06:58.465Z</time>
      </trkpt>
      <trkpt lat="43.21204" lon="-6.890095">
        <ele>680.0</ele>
        <time>2022-06-19T08:06:59.475Z</time>
      </trkpt>
      <trkpt lat="43.21204" lon="-6.890095">
        <ele>680.0</ele>
        <time>2022-06-19T08:07:00.484Z</time>
      </trkpt>
      <trkpt lat="43.21213333" lon="-6.89011">
        <ele>680.0</ele>
        <time>2022-06-19T08:07:01.468Z</time>
      </trkpt>
      <trkpt lat="43.21213333" lon="-6.89011">
        <ele>680.0</ele>
        <time>2022-06-19T08:07:02.473Z</time>
      </trkpt>
      <trkpt lat="43.21222833" lon="-6.89013167">
        <ele>680.0</ele>
        <time>2022-06-19T08:07:03.503Z</time>
      </trkpt>
      <trkpt lat="43.212275" lon="-6.89015167">
        <ele>680.0</ele>
        <time>2022-06-19T08:07:04.488Z</time>
      </trkpt>
      <trkpt lat="43.212275" lon="-6.89015167">
        <ele>680.0</ele>
        <time>2022-06-19T08:07:05.494Z</time>
      </trkpt>
      <trkpt lat="43.21237" lon="-6.89022833">
        <ele>680.0</ele>
        <time>2022-06-19T08:07:06.472Z</time>
      </trkpt>
      <trkpt lat="43.21241333" lon="-6.89027833">
        <ele>680.0</ele>
        <time>2022-06-19T08:07:07.495Z</time>
      </trkpt>
      <trkpt lat="43.21241333" lon="-6.89027833">
        <ele>680.0</ele>
        <time>2022-06-19T08:07:08.500Z</time>
      </trkpt>
      <trkpt lat="43.21248333" lon="-6.89038667">
        <ele>680.0</ele>
        <time>2022-06-19T08:07:09.475Z</time>
      </trkpt>
      <trkpt lat="43.21248333" lon="-6.89038667">
        <ele>680.0</ele>
        <time>2022-06-19T08:07:10.482Z</time>
      </trkpt>
      <trkpt lat="43.21250833" lon="-6.89048833">
        <ele>680.0</ele>
        <time>2022-06-19T08:07:11.475Z</time>
      </trkpt>
      <trkpt lat="43.21250833" lon="-6.89048833">
        <ele>680.0</ele>
        <time>2022-06-19T08:07:12.487Z</time>
      </trkpt>
      <trkpt lat="43.21248667" lon="-6.89058667">
        <ele>680.0</ele>
        <time>2022-06-19T08:07:13.467Z</time>
      </trkpt>
      <trkpt lat="43.21248667" lon="-6.89058667">
        <ele>680.0</ele>
        <time>2022-06-19T08:07:14.472Z</time>
      </trkpt>
      <trkpt lat="43.21246" lon="-6.89070333">
        <ele>680.0</ele>
        <time>2022-06-19T08:07:15.464Z</time>
      </trkpt>
      <trkpt lat="43.21246" lon="-6.89070333">
        <ele>680.0</ele>
        <time>2022-06-19T08:07:16.470Z</time>
      </trkpt>
      <trkpt lat="43.21241167" lon="-6.89081">
        <ele>680.0</ele>
        <time>2022-06-19T08:07:17.486Z</time>
      </trkpt>
      <trkpt lat="43.21241167" lon="-6.89081">
        <ele>680.0</ele>
        <time>2022-06-19T08:07:18.492Z</time>
      </trkpt>
      <trkpt lat="43.21236167" lon="-6.89091833">
        <ele>680.0</ele>
        <time>2022-06-19T08:07:19.476Z</time>
      </trkpt>
      <trkpt lat="43.21236167" lon="-6.89091833">
        <ele>680.0</ele>
        <time>2022-06-19T08:07:20.484Z</time>
      </trkpt>
      <trkpt lat="43.21231" lon="-6.89103">
        <ele>680.0</ele>
        <time>2022-06-19T08:07:21.466Z</time>
      </trkpt>
      <trkpt lat="43.21228" lon="-6.89108167">
        <ele>680.0</ele>
        <time>2022-06-19T08:07:22.481Z</time>
      </trkpt>
      <trkpt lat="43.21228" lon="-6.89108167">
        <ele>680.0</ele>
        <time>2022-06-19T08:07:23.486Z</time>
      </trkpt>
      <trkpt lat="43.21222167" lon="-6.89117833">
        <ele>680.0</ele>
        <time>2022-06-19T08:07:24.496Z</time>
      </trkpt>
      <trkpt lat="43.21219333" lon="-6.89122833">
        <ele>680.0</ele>
        <time>2022-06-19T08:07:25.471Z</time>
      </trkpt>
      <trkpt lat="43.21219333" lon="-6.89122833">
        <ele>680.0</ele>
        <time>2022-06-19T08:07:26.481Z</time>
      </trkpt>
      <trkpt lat="43.21213667" lon="-6.89134333">
        <ele>680.0</ele>
        <time>2022-06-19T08:07:27.486Z</time>
      </trkpt>
      <trkpt lat="43.21213667" lon="-6.89134333">
        <ele>680.0</ele>
        <time>2022-06-19T08:07:28.492Z</time>
      </trkpt>
      <trkpt lat="43.21208167" lon="-6.89144">
        <ele>680.0</ele>
        <time>2022-06-19T08:07:29.469Z</time>
      </trkpt>
      <trkpt lat="43.21208167" lon="-6.89144">
        <ele>680.0</ele>
        <time>2022-06-19T08:07:30.475Z</time>
      </trkpt>
      <trkpt lat="43.21202667" lon="-6.891535">
        <ele>681.0</ele>
        <time>2022-06-19T08:07:31.466Z</time>
      </trkpt>
      <trkpt lat="43.21202667" lon="-6.891535">
        <ele>681.0</ele>
        <time>2022-06-19T08:07:32.473Z</time>
      </trkpt>
      <trkpt lat="43.21197" lon="-6.89161">
        <ele>681.0</ele>
        <time>2022-06-19T08:07:33.494Z</time>
      </trkpt>
      <trkpt lat="43.21194333" lon="-6.89165333">
        <ele>681.0</ele>
        <time>2022-06-19T08:07:34.475Z</time>
      </trkpt>
      <trkpt lat="43.21194333" lon="-6.89165333">
        <ele>681.0</ele>
        <time>2022-06-19T08:07:35.484Z</time>
      </trkpt>
      <trkpt lat="43.21189333" lon="-6.891735">
        <ele>681.0</ele>
        <time>2022-06-19T08:07:36.465Z</time>
      </trkpt>
      <trkpt lat="43.21189333" lon="-6.891735">
        <ele>681.0</ele>
        <time>2022-06-19T08:07:37.471Z</time>
      </trkpt>
      <trkpt lat="43.21184333" lon="-6.89180333">
        <ele>681.0</ele>
        <time>2022-06-19T08:07:38.493Z</time>
      </trkpt>
      <trkpt lat="43.21184333" lon="-6.89180333">
        <ele>681.0</ele>
        <time>2022-06-19T08:07:39.499Z</time>
      </trkpt>
      <trkpt lat="43.21179167" lon="-6.89187667">
        <ele>682.0</ele>
        <time>2022-06-19T08:07:40.493Z</time>
      </trkpt>
      <trkpt lat="43.21179167" lon="-6.89187667">
        <ele>682.0</ele>
        <time>2022-06-19T08:07:41.499Z</time>
      </trkpt>
      <trkpt lat="43.21173833" lon="-6.891945">
        <ele>682.0</ele>
        <time>2022-06-19T08:07:42.488Z</time>
      </trkpt>
      <trkpt lat="43.21171167" lon="-6.89197833">
        <ele>682.0</ele>
        <time>2022-06-19T08:07:43.472Z</time>
      </trkpt>
      <trkpt lat="43.21171167" lon="-6.89197833">
        <ele>682.0</ele>
        <time>2022-06-19T08:07:44.480Z</time>
      </trkpt>
      <trkpt lat="43.21165833" lon="-6.89204333">
        <ele>682.0</ele>
        <time>2022-06-19T08:07:45.463Z</time>
      </trkpt>
      <trkpt lat="43.21165833" lon="-6.89204333">
        <ele>682.0</ele>
        <time>2022-06-19T08:07:46.470Z</time>
      </trkpt>
      <trkpt lat="43.21161" lon="-6.892105">
        <ele>683.0</ele>
        <time>2022-06-19T08:07:47.493Z</time>
      </trkpt>
      <trkpt lat="43.21158333" lon="-6.89213833">
        <ele>683.0</ele>
        <time>2022-06-19T08:07:48.484Z</time>
      </trkpt>
      <trkpt lat="43.21158333" lon="-6.89213833">
        <ele>683.0</ele>
        <time>2022-06-19T08:07:49.491Z</time>
      </trkpt>
      <trkpt lat="43.21153333" lon="-6.89220667">
        <ele>683.0</ele>
        <time>2022-06-19T08:07:50.500Z</time>
      </trkpt>
      <trkpt lat="43.21153333" lon="-6.89220667">
        <ele>683.0</ele>
        <time>2022-06-19T08:07:51.468Z</time>
      </trkpt>
      <trkpt lat="43.211495" lon="-6.892265">
        <ele>683.0</ele>
        <time>2022-06-19T08:07:52.470Z</time>
      </trkpt>
      <trkpt lat="43.21148" lon="-6.89228333">
        <ele>683.0</ele>
        <time>2022-06-19T08:07:53.488Z</time>
      </trkpt>
      <trkpt lat="43.21148" lon="-6.89228333">
        <ele>683.0</ele>
        <time>2022-06-19T08:07:54.493Z</time>
      </trkpt>
      <trkpt lat="43.21145167" lon="-6.89233333">
        <ele>683.0</ele>
        <time>2022-06-19T08:07:55.470Z</time>
      </trkpt>
      <trkpt lat="43.21145167" lon="-6.89233333">
        <ele>683.0</ele>
        <time>2022-06-19T08:07:56.502Z</time>
      </trkpt>
      <trkpt lat="43.21144" lon="-6.89241167">
        <ele>683.0</ele>
        <time>2022-06-19T08:07:57.501Z</time>
      </trkpt>
      <trkpt lat="43.21144" lon="-6.89241167">
        <ele>683.0</ele>
        <time>2022-06-19T08:07:58.466Z</time>
      </trkpt>
      <trkpt lat="43.21142667" lon="-6.89249667">
        <ele>684.0</ele>
        <time>2022-06-19T08:07:59.487Z</time>
      </trkpt>
      <trkpt lat="43.21142667" lon="-6.89249667">
        <ele>684.0</ele>
        <time>2022-06-19T08:08:00.493Z</time>
      </trkpt>
      <trkpt lat="43.21139833" lon="-6.89255667">
        <ele>684.0</ele>
        <time>2022-06-19T08:08:01.476Z</time>
      </trkpt>
      <trkpt lat="43.21139833" lon="-6.89255667">
        <ele>684.0</ele>
        <time>2022-06-19T08:08:02.483Z</time>
      </trkpt>
      <trkpt lat="43.21137167" lon="-6.89262">
        <ele>684.0</ele>
        <time>2022-06-19T08:08:03.476Z</time>
      </trkpt>
      <trkpt lat="43.21137167" lon="-6.89262">
        <ele>684.0</ele>
        <time>2022-06-19T08:08:04.485Z</time>
      </trkpt>
      <trkpt lat="43.21135833" lon="-6.89268667">
        <ele>685.0</ele>
        <time>2022-06-19T08:08:05.466Z</time>
      </trkpt>
      <trkpt lat="43.21135833" lon="-6.89268667">
        <ele>685.0</ele>
        <time>2022-06-19T08:08:06.471Z</time>
      </trkpt>
      <trkpt lat="43.21133667" lon="-6.89275333">
        <ele>685.0</ele>
        <time>2022-06-19T08:08:07.483Z</time>
      </trkpt>
      <trkpt lat="43.21133667" lon="-6.89275333">
        <ele>685.0</ele>
        <time>2022-06-19T08:08:08.489Z</time>
      </trkpt>
      <trkpt lat="43.211315" lon="-6.892815">
        <ele>685.0</ele>
        <time>2022-06-19T08:08:09.467Z</time>
      </trkpt>
      <trkpt lat="43.21131" lon="-6.89285333">
        <ele>686.0</ele>
        <time>2022-06-19T08:08:10.481Z</time>
      </trkpt>
      <trkpt lat="43.21131" lon="-6.89285333">
        <ele>686.0</ele>
        <time>2022-06-19T08:08:11.486Z</time>
      </trkpt>
      <trkpt lat="43.21129" lon="-6.89292667">
        <ele>686.0</ele>
        <time>2022-06-19T08:08:12.467Z</time>
      </trkpt>
      <trkpt lat="43.21128667" lon="-6.89296167">
        <ele>687.0</ele>
        <time>2022-06-19T08:08:13.501Z</time>
      </trkpt>
      <trkpt lat="43.21128667" lon="-6.89296167">
        <ele>687.0</ele>
        <time>2022-06-19T08:08:14.466Z</time>
      </trkpt>
      <trkpt lat="43.21126833" lon="-6.89304">
        <ele>688.0</ele>
        <time>2022-06-19T08:08:15.492Z</time>
      </trkpt>
      <trkpt lat="43.21126833" lon="-6.89304">
        <ele>688.0</ele>
        <time>2022-06-19T08:08:16.497Z</time>
      </trkpt>
      <trkpt lat="43.21126" lon="-6.89310833">
        <ele>689.0</ele>
        <time>2022-06-19T08:08:17.495Z</time>
      </trkpt>
      <trkpt lat="43.21125333" lon="-6.89314167">
        <ele>689.0</ele>
        <time>2022-06-19T08:08:18.479Z</time>
      </trkpt>
      <trkpt lat="43.21125333" lon="-6.89314167">
        <ele>689.0</ele>
        <time>2022-06-19T08:08:19.485Z</time>
      </trkpt>
      <trkpt lat="43.21125167" lon="-6.893215">
        <ele>689.0</ele>
        <time>2022-06-19T08:08:20.474Z</time>
      </trkpt>
      <trkpt lat="43.21124833" lon="-6.89325">
        <ele>689.0</ele>
        <time>2022-06-19T08:08:21.491Z</time>
      </trkpt>
      <trkpt lat="43.21124833" lon="-6.89325">
        <ele>689.0</ele>
        <time>2022-06-19T08:08:22.497Z</time>
      </trkpt>
      <trkpt lat="43.21124167" lon="-6.89332333">
        <ele>690.0</ele>
        <time>2022-06-19T08:08:23.474Z</time>
      </trkpt>
      <trkpt lat="43.21124167" lon="-6.89332333">
        <ele>690.0</ele>
        <time>2022-06-19T08:08:24.482Z</time>
      </trkpt>
      <trkpt lat="43.21123167" lon="-6.89339833">
        <ele>690.0</ele>
        <time>2022-06-19T08:08:25.469Z</time>
      </trkpt>
      <trkpt lat="43.21123167" lon="-6.89339833">
        <ele>690.0</ele>
        <time>2022-06-19T08:08:26.474Z</time>
      </trkpt>
      <trkpt lat="43.211235" lon="-6.893475">
        <ele>690.0</ele>
        <time>2022-06-19T08:08:27.495Z</time>
      </trkpt>
      <trkpt lat="43.21123167" lon="-6.89351333">
        <ele>690.0</ele>
        <time>2022-06-19T08:08:28.495Z</time>
      </trkpt>
      <trkpt lat="43.21123167" lon="-6.89351333">
        <ele>690.0</ele>
        <time>2022-06-19T08:08:29.501Z</time>
      </trkpt>
      <trkpt lat="43.21124333" lon="-6.89363">
        <ele>691.0</ele>
        <time>2022-06-19T08:08:30.484Z</time>
      </trkpt>
      <trkpt lat="43.21124333" lon="-6.89363">
        <ele>691.0</ele>
        <time>2022-06-19T08:08:31.489Z</time>
      </trkpt>
      <trkpt lat="43.21124667" lon="-6.89372667">
        <ele>690.0</ele>
        <time>2022-06-19T08:08:32.470Z</time>
      </trkpt>
      <trkpt lat="43.21124667" lon="-6.89372667">
        <ele>690.0</ele>
        <time>2022-06-19T08:08:33.476Z</time>
      </trkpt>
      <trkpt lat="43.21125833" lon="-6.893815">
        <ele>690.0</ele>
        <time>2022-06-19T08:08:34.496Z</time>
      </trkpt>
      <trkpt lat="43.21125833" lon="-6.893815">
        <ele>690.0</ele>
        <time>2022-06-19T08:08:35.501Z</time>
      </trkpt>
      <trkpt lat="43.21126833" lon="-6.89390333">
        <ele>689.0</ele>
        <time>2022-06-19T08:08:36.496Z</time>
      </trkpt>
      <trkpt lat="43.21126667" lon="-6.89394833">
        <ele>689.0</ele>
        <time>2022-06-19T08:08:37.481Z</time>
      </trkpt>
      <trkpt lat="43.21126667" lon="-6.89394833">
        <ele>689.0</ele>
        <time>2022-06-19T08:08:38.487Z</time>
      </trkpt>
      <trkpt lat="43.21126167" lon="-6.89403">
        <ele>689.0</ele>
        <time>2022-06-19T08:08:39.470Z</time>
      </trkpt>
      <trkpt lat="43.21126167" lon="-6.89403">
        <ele>689.0</ele>
        <time>2022-06-19T08:08:40.475Z</time>
      </trkpt>
      <trkpt lat="43.21126333" lon="-6.89411167">
        <ele>689.0</ele>
        <time>2022-06-19T08:08:41.480Z</time>
      </trkpt>
      <trkpt lat="43.21126333" lon="-6.89411167">
        <ele>689.0</ele>
        <time>2022-06-19T08:08:42.486Z</time>
      </trkpt>
      <trkpt lat="43.211255" lon="-6.8942">
        <ele>689.0</ele>
        <time>2022-06-19T08:08:43.465Z</time>
      </trkpt>
      <trkpt lat="43.21125167" lon="-6.89424833">
        <ele>689.0</ele>
        <time>2022-06-19T08:08:44.485Z</time>
      </trkpt>
      <trkpt lat="43.21125167" lon="-6.89424833">
        <ele>689.0</ele>
        <time>2022-06-19T08:08:45.491Z</time>
      </trkpt>
      <trkpt lat="43.211245" lon="-6.89434333">
        <ele>689.0</ele>
        <time>2022-06-19T08:08:46.497Z</time>
      </trkpt>
      <trkpt lat="43.21124" lon="-6.89439167">
        <ele>689.0</ele>
        <time>2022-06-19T08:08:47.485Z</time>
      </trkpt>
      <trkpt lat="43.21124" lon="-6.89439167">
        <ele>689.0</ele>
        <time>2022-06-19T08:08:48.474Z</time>
      </trkpt>
      <trkpt lat="43.21122833" lon="-6.894495">
        <ele>688.0</ele>
        <time>2022-06-19T08:08:49.500Z</time>
      </trkpt>
      <trkpt lat="43.21122833" lon="-6.894495">
        <ele>688.0</ele>
        <time>2022-06-19T08:08:50.466Z</time>
      </trkpt>
      <trkpt lat="43.21121833" lon="-6.89459667">
        <ele>688.0</ele>
        <time>2022-06-19T08:08:51.464Z</time>
      </trkpt>
      <trkpt lat="43.21121833" lon="-6.89459667">
        <ele>688.0</ele>
        <time>2022-06-19T08:08:52.470Z</time>
      </trkpt>
      <trkpt lat="43.211205" lon="-6.89468833">
        <ele>688.0</ele>
        <time>2022-06-19T08:08:53.486Z</time>
      </trkpt>
      <trkpt lat="43.2112" lon="-6.89472833">
        <ele>689.0</ele>
        <time>2022-06-19T08:08:54.470Z</time>
      </trkpt>
      <trkpt lat="43.21119667" lon="-6.89476667">
        <ele>689.0</ele>
        <time>2022-06-19T08:08:55.502Z</time>
      </trkpt>
      <trkpt lat="43.21119667" lon="-6.89476667">
        <ele>689.0</ele>
        <time>2022-06-19T08:08:56.469Z</time>
      </trkpt>
      <trkpt lat="43.21118833" lon="-6.89484833">
        <ele>689.0</ele>
        <time>2022-06-19T08:08:57.501Z</time>
      </trkpt>
      <trkpt lat="43.21118833" lon="-6.89484833">
        <ele>689.0</ele>
        <time>2022-06-19T08:08:58.466Z</time>
      </trkpt>
      <trkpt lat="43.21116667" lon="-6.89493833">
        <ele>689.0</ele>
        <time>2022-06-19T08:08:59.471Z</time>
      </trkpt>
      <trkpt lat="43.21116667" lon="-6.89493833">
        <ele>689.0</ele>
        <time>2022-06-19T08:09:00.483Z</time>
      </trkpt>
      <trkpt lat="43.21114167" lon="-6.89503333">
        <ele>689.0</ele>
        <time>2022-06-19T08:09:01.463Z</time>
      </trkpt>
      <trkpt lat="43.21114167" lon="-6.89503333">
        <ele>689.0</ele>
        <time>2022-06-19T08:09:02.469Z</time>
      </trkpt>
      <trkpt lat="43.211115" lon="-6.89512167">
        <ele>689.0</ele>
        <time>2022-06-19T08:09:03.493Z</time>
      </trkpt>
      <trkpt lat="43.211115" lon="-6.89512167">
        <ele>689.0</ele>
        <time>2022-06-19T08:09:04.499Z</time>
      </trkpt>
      <trkpt lat="43.21108667" lon="-6.89520333">
        <ele>689.0</ele>
        <time>2022-06-19T08:09:05.480Z</time>
      </trkpt>
      <trkpt lat="43.21108667" lon="-6.89520333">
        <ele>689.0</ele>
        <time>2022-06-19T08:09:06.486Z</time>
      </trkpt>
      <trkpt lat="43.21104833" lon="-6.89527667">
        <ele>689.0</ele>
        <time>2022-06-19T08:09:07.499Z</time>
      </trkpt>
      <trkpt lat="43.21104833" lon="-6.89527667">
        <ele>689.0</ele>
        <time>2022-06-19T08:09:08.464Z</time>
      </trkpt>
      <trkpt lat="43.21101667" lon="-6.89535">
        <ele>690.0</ele>
        <time>2022-06-19T08:09:09.490Z</time>
      </trkpt>
      <trkpt lat="43.21100667" lon="-6.89538333">
        <ele>690.0</ele>
        <time>2022-06-19T08:09:10.473Z</time>
      </trkpt>
      <trkpt lat="43.21100667" lon="-6.89538333">
        <ele>690.0</ele>
        <time>2022-06-19T08:09:11.482Z</time>
      </trkpt>
      <trkpt lat="43.21099833" lon="-6.89543167">
        <ele>691.0</ele>
        <time>2022-06-19T08:09:12.472Z</time>
      </trkpt>
      <trkpt lat="43.21099667" lon="-6.89543833">
        <ele>691.0</ele>
        <time>2022-06-19T08:09:13.466Z</time>
      </trkpt>
      <trkpt lat="43.21099667" lon="-6.89543833">
        <ele>691.0</ele>
        <time>2022-06-19T08:09:14.471Z</time>
      </trkpt>
      <trkpt lat="43.210995" lon="-6.89543833">
        <ele>692.0</ele>
        <time>2022-06-19T08:10:21.454Z</time>
      </trkpt>
      <trkpt lat="43.210995" lon="-6.89543833">
        <ele>692.0</ele>
        <time>2022-06-19T08:10:22.450Z</time>
      </trkpt>
      <trkpt lat="43.21094833" lon="-6.89551">
        <ele>693.0</ele>
        <time>2022-06-19T08:10:23.455Z</time>
      </trkpt>
      <trkpt lat="43.210935" lon="-6.89552833">
        <ele>693.0</ele>
        <time>2022-06-19T08:10:24.436Z</time>
      </trkpt>
      <trkpt lat="43.21093667" lon="-6.89554833">
        <ele>692.0</ele>
        <time>2022-06-19T08:10:25.434Z</time>
      </trkpt>
      <trkpt lat="43.21093667" lon="-6.89554833">
        <ele>692.0</ele>
        <time>2022-06-19T08:10:26.445Z</time>
      </trkpt>
      <trkpt lat="43.21091333" lon="-6.89560667">
        <ele>692.0</ele>
        <time>2022-06-19T08:10:27.466Z</time>
      </trkpt>
      <trkpt lat="43.21091333" lon="-6.89560667">
        <ele>692.0</ele>
        <time>2022-06-19T08:10:28.431Z</time>
      </trkpt>
      <trkpt lat="43.21088333" lon="-6.89568333">
        <ele>692.0</ele>
        <time>2022-06-19T08:10:29.465Z</time>
      </trkpt>
      <trkpt lat="43.21088333" lon="-6.89568333">
        <ele>692.0</ele>
        <time>2022-06-19T08:10:30.470Z</time>
      </trkpt>
      <trkpt lat="43.21084833" lon="-6.895765">
        <ele>692.0</ele>
        <time>2022-06-19T08:10:31.459Z</time>
      </trkpt>
      <trkpt lat="43.21084833" lon="-6.895765">
        <ele>692.0</ele>
        <time>2022-06-19T08:10:32.465Z</time>
      </trkpt>
      <trkpt lat="43.21081" lon="-6.89585333">
        <ele>692.0</ele>
        <time>2022-06-19T08:10:33.442Z</time>
      </trkpt>
      <trkpt lat="43.21081" lon="-6.89585333">
        <ele>692.0</ele>
        <time>2022-06-19T08:10:34.448Z</time>
      </trkpt>
      <trkpt lat="43.21077833" lon="-6.895945">
        <ele>692.0</ele>
        <time>2022-06-19T08:10:35.432Z</time>
      </trkpt>
      <trkpt lat="43.21077833" lon="-6.895945">
        <ele>692.0</ele>
        <time>2022-06-19T08:10:36.440Z</time>
      </trkpt>
      <trkpt lat="43.21074833" lon="-6.89604833">
        <ele>692.0</ele>
        <time>2022-06-19T08:10:37.464Z</time>
      </trkpt>
      <trkpt lat="43.21074833" lon="-6.89604833">
        <ele>692.0</ele>
        <time>2022-06-19T08:10:38.469Z</time>
      </trkpt>
      <trkpt lat="43.21073167" lon="-6.896165">
        <ele>691.0</ele>
        <time>2022-06-19T08:10:39.460Z</time>
      </trkpt>
      <trkpt lat="43.21073667" lon="-6.89622667">
        <ele>691.0</ele>
        <time>2022-06-19T08:10:40.443Z</time>
      </trkpt>
      <trkpt lat="43.21073667" lon="-6.89622667">
        <ele>691.0</ele>
        <time>2022-06-19T08:10:41.448Z</time>
      </trkpt>
      <trkpt lat="43.21076833" lon="-6.89635667">
        <ele>691.0</ele>
        <time>2022-06-19T08:10:42.437Z</time>
      </trkpt>
      <trkpt lat="43.21078833" lon="-6.89642167">
        <ele>690.0</ele>
        <time>2022-06-19T08:10:43.462Z</time>
      </trkpt>
      <trkpt lat="43.21078833" lon="-6.89642167">
        <ele>690.0</ele>
        <time>2022-06-19T08:10:44.467Z</time>
      </trkpt>
      <trkpt lat="43.21082333" lon="-6.89654833">
        <ele>689.0</ele>
        <time>2022-06-19T08:10:45.444Z</time>
      </trkpt>
      <trkpt lat="43.21082333" lon="-6.89654833">
        <ele>689.0</ele>
        <time>2022-06-19T08:10:46.450Z</time>
      </trkpt>
      <trkpt lat="43.21087" lon="-6.89667333">
        <ele>689.0</ele>
        <time>2022-06-19T08:10:47.434Z</time>
      </trkpt>
      <trkpt lat="43.21089833" lon="-6.89673833">
        <ele>688.0</ele>
        <time>2022-06-19T08:10:48.434Z</time>
      </trkpt>
      <trkpt lat="43.21089833" lon="-6.89673833">
        <ele>688.0</ele>
        <time>2022-06-19T08:10:49.446Z</time>
      </trkpt>
      <trkpt lat="43.21095333" lon="-6.89688167">
        <ele>688.0</ele>
        <time>2022-06-19T08:10:50.432Z</time>
      </trkpt>
      <trkpt lat="43.21095333" lon="-6.89688167">
        <ele>688.0</ele>
        <time>2022-06-19T08:10:51.443Z</time>
      </trkpt>
      <trkpt lat="43.21099833" lon="-6.89702833">
        <ele>687.0</ele>
        <time>2022-06-19T08:10:52.470Z</time>
      </trkpt>
      <trkpt lat="43.21103" lon="-6.89709667">
        <ele>686.0</ele>
        <time>2022-06-19T08:10:53.452Z</time>
      </trkpt>
      <trkpt lat="43.21103" lon="-6.89709667">
        <ele>686.0</ele>
        <time>2022-06-19T08:10:54.458Z</time>
      </trkpt>
      <trkpt lat="43.21110333" lon="-6.89723167">
        <ele>685.0</ele>
        <time>2022-06-19T08:10:55.445Z</time>
      </trkpt>
      <trkpt lat="43.21110333" lon="-6.89723167">
        <ele>685.0</ele>
        <time>2022-06-19T08:10:56.451Z</time>
      </trkpt>
      <trkpt lat="43.21117" lon="-6.89737167">
        <ele>684.0</ele>
        <time>2022-06-19T08:10:57.431Z</time>
      </trkpt>
      <trkpt lat="43.21119167" lon="-6.897435">
        <ele>683.0</ele>
        <time>2022-06-19T08:10:58.460Z</time>
      </trkpt>
      <trkpt lat="43.21119167" lon="-6.897435">
        <ele>683.0</ele>
        <time>2022-06-19T08:10:59.465Z</time>
      </trkpt>
      <trkpt lat="43.21125333" lon="-6.89756333">
        <ele>682.0</ele>
        <time>2022-06-19T08:11:00.440Z</time>
      </trkpt>
      <trkpt lat="43.21129333" lon="-6.89762">
        <ele>682.0</ele>
        <time>2022-06-19T08:11:01.448Z</time>
      </trkpt>
      <trkpt lat="43.21129333" lon="-6.89762">
        <ele>682.0</ele>
        <time>2022-06-19T08:11:02.454Z</time>
      </trkpt>
      <trkpt lat="43.21136167" lon="-6.89772667">
        <ele>681.0</ele>
        <time>2022-06-19T08:11:03.458Z</time>
      </trkpt>
      <trkpt lat="43.21138667" lon="-6.89778167">
        <ele>680.0</ele>
        <time>2022-06-19T08:11:04.445Z</time>
      </trkpt>
      <trkpt lat="43.2114" lon="-6.89784333">
        <ele>680.0</ele>
        <time>2022-06-19T08:11:05.474Z</time>
      </trkpt>
      <trkpt lat="43.2114" lon="-6.89784333">
        <ele>680.0</ele>
        <time>2022-06-19T08:11:06.439Z</time>
      </trkpt>
      <trkpt lat="43.21142" lon="-6.89794333">
        <ele>679.0</ele>
        <time>2022-06-19T08:11:07.440Z</time>
      </trkpt>
      <trkpt lat="43.21142" lon="-6.89794333">
        <ele>679.0</ele>
        <time>2022-06-19T08:11:08.469Z</time>
      </trkpt>
      <trkpt lat="43.21144833" lon="-6.89803">
        <ele>678.0</ele>
        <time>2022-06-19T08:11:09.444Z</time>
      </trkpt>
      <trkpt lat="43.21144833" lon="-6.89803">
        <ele>678.0</ele>
        <time>2022-06-19T08:11:10.449Z</time>
      </trkpt>
      <trkpt lat="43.211485" lon="-6.89811167">
        <ele>677.0</ele>
        <time>2022-06-19T08:11:11.433Z</time>
      </trkpt>
      <trkpt lat="43.211485" lon="-6.89811167">
        <ele>677.0</ele>
        <time>2022-06-19T08:11:12.437Z</time>
      </trkpt>
      <trkpt lat="43.211535" lon="-6.89820333">
        <ele>676.0</ele>
        <time>2022-06-19T08:11:13.460Z</time>
      </trkpt>
      <trkpt lat="43.211535" lon="-6.89820333">
        <ele>676.0</ele>
        <time>2022-06-19T08:11:14.466Z</time>
      </trkpt>
      <trkpt lat="43.21159" lon="-6.89832167">
        <ele>676.0</ele>
        <time>2022-06-19T08:11:15.447Z</time>
      </trkpt>
      <trkpt lat="43.21161333" lon="-6.89838167">
        <ele>675.0</ele>
        <time>2022-06-19T08:11:16.451Z</time>
      </trkpt>
      <trkpt lat="43.21161333" lon="-6.89838167">
        <ele>675.0</ele>
        <time>2022-06-19T08:11:17.459Z</time>
      </trkpt>
      <trkpt lat="43.21167" lon="-6.89849333">
        <ele>674.0</ele>
        <time>2022-06-19T08:11:18.463Z</time>
      </trkpt>
      <trkpt lat="43.21167" lon="-6.89849333">
        <ele>674.0</ele>
        <time>2022-06-19T08:11:19.468Z</time>
      </trkpt>
      <trkpt lat="43.21173833" lon="-6.89860833">
        <ele>673.0</ele>
        <time>2022-06-19T08:11:20.454Z</time>
      </trkpt>
      <trkpt lat="43.21173833" lon="-6.89860833">
        <ele>673.0</ele>
        <time>2022-06-19T08:11:21.460Z</time>
      </trkpt>
      <trkpt lat="43.21180833" lon="-6.89873833">
        <ele>672.0</ele>
        <time>2022-06-19T08:11:22.461Z</time>
      </trkpt>
      <trkpt lat="43.21184833" lon="-6.89880667">
        <ele>672.0</ele>
        <time>2022-06-19T08:11:23.441Z</time>
      </trkpt>
      <trkpt lat="43.21184833" lon="-6.89880667">
        <ele>672.0</ele>
        <time>2022-06-19T08:11:24.446Z</time>
      </trkpt>
      <trkpt lat="43.21192167" lon="-6.898935">
        <ele>670.0</ele>
        <time>2022-06-19T08:11:25.439Z</time>
      </trkpt>
      <trkpt lat="43.21192167" lon="-6.898935">
        <ele>670.0</ele>
        <time>2022-06-19T08:11:26.445Z</time>
      </trkpt>
      <trkpt lat="43.21201" lon="-6.89906667">
        <ele>669.0</ele>
        <time>2022-06-19T08:11:27.470Z</time>
      </trkpt>
      <trkpt lat="43.21206333" lon="-6.89913333">
        <ele>668.0</ele>
        <time>2022-06-19T08:11:28.446Z</time>
      </trkpt>
      <trkpt lat="43.21211" lon="-6.89919667">
        <ele>668.0</ele>
        <time>2022-06-19T08:11:29.440Z</time>
      </trkpt>
      <trkpt lat="43.21211" lon="-6.89919667">
        <ele>668.0</ele>
        <time>2022-06-19T08:11:30.445Z</time>
      </trkpt>
      <trkpt lat="43.21220167" lon="-6.89932333">
        <ele>666.0</ele>
        <time>2022-06-19T08:11:31.435Z</time>
      </trkpt>
      <trkpt lat="43.21220167" lon="-6.89932333">
        <ele>666.0</ele>
        <time>2022-06-19T08:11:32.443Z</time>
      </trkpt>
      <trkpt lat="43.212275" lon="-6.899445">
        <ele>664.0</ele>
        <time>2022-06-19T08:11:33.456Z</time>
      </trkpt>
      <trkpt lat="43.212275" lon="-6.899445">
        <ele>664.0</ele>
        <time>2022-06-19T08:11:34.462Z</time>
      </trkpt>
      <trkpt lat="43.21232667" lon="-6.89955667">
        <ele>663.0</ele>
        <time>2022-06-19T08:11:35.449Z</time>
      </trkpt>
      <trkpt lat="43.21232667" lon="-6.89955667">
        <ele>663.0</ele>
        <time>2022-06-19T08:11:36.455Z</time>
      </trkpt>
      <trkpt lat="43.212365" lon="-6.89967667">
        <ele>662.0</ele>
        <time>2022-06-19T08:11:37.441Z</time>
      </trkpt>
      <trkpt lat="43.212365" lon="-6.89967667">
        <ele>662.0</ele>
        <time>2022-06-19T08:11:38.448Z</time>
      </trkpt>
      <trkpt lat="43.21239667" lon="-6.899795">
        <ele>660.0</ele>
        <time>2022-06-19T08:11:39.443Z</time>
      </trkpt>
      <trkpt lat="43.21239667" lon="-6.899795">
        <ele>660.0</ele>
        <time>2022-06-19T08:11:40.469Z</time>
      </trkpt>
      <trkpt lat="43.212425" lon="-6.89991333">
        <ele>659.0</ele>
        <time>2022-06-19T08:11:41.437Z</time>
      </trkpt>
      <trkpt lat="43.212425" lon="-6.89991333">
        <ele>659.0</ele>
        <time>2022-06-19T08:11:42.453Z</time>
      </trkpt>
      <trkpt lat="43.212455" lon="-6.900035">
        <ele>657.0</ele>
        <time>2022-06-19T08:11:43.439Z</time>
      </trkpt>
      <trkpt lat="43.212455" lon="-6.900035">
        <ele>657.0</ele>
        <time>2022-06-19T08:11:44.445Z</time>
      </trkpt>
      <trkpt lat="43.21246" lon="-6.900145">
        <ele>655.0</ele>
        <time>2022-06-19T08:11:45.465Z</time>
      </trkpt>
      <trkpt lat="43.21246" lon="-6.900145">
        <ele>655.0</ele>
        <time>2022-06-19T08:11:46.471Z</time>
      </trkpt>
      <trkpt lat="43.21246333" lon="-6.90025833">
        <ele>654.0</ele>
        <time>2022-06-19T08:11:47.468Z</time>
      </trkpt>
      <trkpt lat="43.21246333" lon="-6.90025833">
        <ele>654.0</ele>
        <time>2022-06-19T08:11:48.440Z</time>
      </trkpt>
      <trkpt lat="43.212505" lon="-6.90038">
        <ele>652.0</ele>
        <time>2022-06-19T08:11:49.433Z</time>
      </trkpt>
      <trkpt lat="43.212505" lon="-6.90038">
        <ele>652.0</ele>
        <time>2022-06-19T08:11:50.440Z</time>
      </trkpt>
      <trkpt lat="43.21254833" lon="-6.90053167">
        <ele>651.0</ele>
        <time>2022-06-19T08:11:51.458Z</time>
      </trkpt>
      <trkpt lat="43.21254667" lon="-6.90061833">
        <ele>651.0</ele>
        <time>2022-06-19T08:11:52.436Z</time>
      </trkpt>
      <trkpt lat="43.21254667" lon="-6.90061833">
        <ele>651.0</ele>
        <time>2022-06-19T08:11:53.445Z</time>
      </trkpt>
      <trkpt lat="43.21250833" lon="-6.90079833">
        <ele>650.0</ele>
        <time>2022-06-19T08:11:54.466Z</time>
      </trkpt>
      <trkpt lat="43.21248167" lon="-6.90087833">
        <ele>649.0</ele>
        <time>2022-06-19T08:11:55.443Z</time>
      </trkpt>
      <trkpt lat="43.21248167" lon="-6.90087833">
        <ele>649.0</ele>
        <time>2022-06-19T08:11:56.449Z</time>
      </trkpt>
      <trkpt lat="43.21242333" lon="-6.90103333">
        <ele>648.0</ele>
        <time>2022-06-19T08:11:57.445Z</time>
      </trkpt>
      <trkpt lat="43.2124" lon="-6.90110667">
        <ele>648.0</ele>
        <time>2022-06-19T08:11:58.440Z</time>
      </trkpt>
      <trkpt lat="43.2124" lon="-6.90110667">
        <ele>648.0</ele>
        <time>2022-06-19T08:11:59.444Z</time>
      </trkpt>
      <trkpt lat="43.21234333" lon="-6.90124">
        <ele>647.0</ele>
        <time>2022-06-19T08:12:00.442Z</time>
      </trkpt>
      <trkpt lat="43.21231333" lon="-6.901305">
        <ele>646.0</ele>
        <time>2022-06-19T08:12:01.456Z</time>
      </trkpt>
      <trkpt lat="43.21231333" lon="-6.901305">
        <ele>646.0</ele>
        <time>2022-06-19T08:12:02.461Z</time>
      </trkpt>
      <trkpt lat="43.21224833" lon="-6.90142833">
        <ele>645.0</ele>
        <time>2022-06-19T08:12:03.460Z</time>
      </trkpt>
      <trkpt lat="43.21222" lon="-6.90149333">
        <ele>645.0</ele>
        <time>2022-06-19T08:12:04.439Z</time>
      </trkpt>
      <trkpt lat="43.21222" lon="-6.90149333">
        <ele>645.0</ele>
        <time>2022-06-19T08:12:05.460Z</time>
      </trkpt>
      <trkpt lat="43.21217" lon="-6.90162167">
        <ele>644.0</ele>
        <time>2022-06-19T08:12:06.438Z</time>
      </trkpt>
      <trkpt lat="43.21214833" lon="-6.90168333">
        <ele>644.0</ele>
        <time>2022-06-19T08:12:07.449Z</time>
      </trkpt>
      <trkpt lat="43.21214833" lon="-6.90168333">
        <ele>644.0</ele>
        <time>2022-06-19T08:12:08.455Z</time>
      </trkpt>
      <trkpt lat="43.21210667" lon="-6.90180833">
        <ele>644.0</ele>
        <time>2022-06-19T08:12:09.453Z</time>
      </trkpt>
      <trkpt lat="43.21208833" lon="-6.90187667">
        <ele>644.0</ele>
        <time>2022-06-19T08:12:10.433Z</time>
      </trkpt>
      <trkpt lat="43.21207333" lon="-6.901945">
        <ele>644.0</ele>
        <time>2022-06-19T08:12:11.436Z</time>
      </trkpt>
      <trkpt lat="43.21207333" lon="-6.901945">
        <ele>644.0</ele>
        <time>2022-06-19T08:12:12.445Z</time>
      </trkpt>
      <trkpt lat="43.21205" lon="-6.90208333">
        <ele>643.0</ele>
        <time>2022-06-19T08:12:13.462Z</time>
      </trkpt>
      <trkpt lat="43.212045" lon="-6.90215333">
        <ele>643.0</ele>
        <time>2022-06-19T08:12:14.464Z</time>
      </trkpt>
      <trkpt lat="43.212045" lon="-6.90215333">
        <ele>643.0</ele>
        <time>2022-06-19T08:12:15.470Z</time>
      </trkpt>
      <trkpt lat="43.212035" lon="-6.90229">
        <ele>643.0</ele>
        <time>2022-06-19T08:12:16.454Z</time>
      </trkpt>
      <trkpt lat="43.21203" lon="-6.90236">
        <ele>643.0</ele>
        <time>2022-06-19T08:12:17.437Z</time>
      </trkpt>
      <trkpt lat="43.21203" lon="-6.90236">
        <ele>643.0</ele>
        <time>2022-06-19T08:12:18.445Z</time>
      </trkpt>
      <trkpt lat="43.21201833" lon="-6.9025">
        <ele>643.0</ele>
        <time>2022-06-19T08:12:19.443Z</time>
      </trkpt>
      <trkpt lat="43.21201833" lon="-6.9025">
        <ele>643.0</ele>
        <time>2022-06-19T08:12:20.451Z</time>
      </trkpt>
      <trkpt lat="43.212" lon="-6.90264333">
        <ele>642.0</ele>
        <time>2022-06-19T08:12:21.466Z</time>
      </trkpt>
      <trkpt lat="43.212" lon="-6.90264333">
        <ele>642.0</ele>
        <time>2022-06-19T08:12:22.433Z</time>
      </trkpt>
      <trkpt lat="43.211975" lon="-6.90278333">
        <ele>642.0</ele>
        <time>2022-06-19T08:12:23.461Z</time>
      </trkpt>
      <trkpt lat="43.21196167" lon="-6.90284833">
        <ele>642.0</ele>
        <time>2022-06-19T08:12:24.433Z</time>
      </trkpt>
      <trkpt lat="43.21196167" lon="-6.90284833">
        <ele>642.0</ele>
        <time>2022-06-19T08:12:25.461Z</time>
      </trkpt>
      <trkpt lat="43.21193167" lon="-6.90297667">
        <ele>642.0</ele>
        <time>2022-06-19T08:12:26.434Z</time>
      </trkpt>
      <trkpt lat="43.21191667" lon="-6.90303833">
        <ele>642.0</ele>
        <time>2022-06-19T08:12:27.459Z</time>
      </trkpt>
      <trkpt lat="43.21189333" lon="-6.903095">
        <ele>642.0</ele>
        <time>2022-06-19T08:12:28.435Z</time>
      </trkpt>
      <trkpt lat="43.21187333" lon="-6.90314833">
        <ele>642.0</ele>
        <time>2022-06-19T08:12:29.463Z</time>
      </trkpt>
      <trkpt lat="43.21187333" lon="-6.90314833">
        <ele>642.0</ele>
        <time>2022-06-19T08:12:30.431Z</time>
      </trkpt>
      <trkpt lat="43.211835" lon="-6.90324667">
        <ele>642.0</ele>
        <time>2022-06-19T08:12:31.449Z</time>
      </trkpt>
      <trkpt lat="43.211835" lon="-6.90324667">
        <ele>642.0</ele>
        <time>2022-06-19T08:12:32.465Z</time>
      </trkpt>
      <trkpt lat="43.21179333" lon="-6.90333833">
        <ele>642.0</ele>
        <time>2022-06-19T08:12:33.457Z</time>
      </trkpt>
      <trkpt lat="43.21179333" lon="-6.90333833">
        <ele>642.0</ele>
        <time>2022-06-19T08:12:34.449Z</time>
      </trkpt>
      <trkpt lat="43.21153833" lon="-6.90388333">
        <ele>642.0</ele>
        <time>2022-06-19T08:12:51.098Z</time>
      </trkpt>
      <trkpt lat="43.21153833" lon="-6.90388333">
        <ele>642.0</ele>
        <time>2022-06-19T08:12:52.116Z</time>
      </trkpt>
      <trkpt lat="43.211495" lon="-6.90393667">
        <ele>642.0</ele>
        <time>2022-06-19T08:12:53.130Z</time>
      </trkpt>
      <trkpt lat="43.21147167" lon="-6.90397167">
        <ele>642.0</ele>
        <time>2022-06-19T08:12:54.102Z</time>
      </trkpt>
      <trkpt lat="43.21147167" lon="-6.90397167">
        <ele>642.0</ele>
        <time>2022-06-19T08:12:55.115Z</time>
      </trkpt>
      <trkpt lat="43.211425" lon="-6.90405833">
        <ele>642.0</ele>
        <time>2022-06-19T08:12:56.126Z</time>
      </trkpt>
      <trkpt lat="43.21140167" lon="-6.90411">
        <ele>642.0</ele>
        <time>2022-06-19T08:12:57.120Z</time>
      </trkpt>
      <trkpt lat="43.21140167" lon="-6.90411">
        <ele>642.0</ele>
        <time>2022-06-19T08:12:58.096Z</time>
      </trkpt>
      <trkpt lat="43.21135667" lon="-6.90422333">
        <ele>642.0</ele>
        <time>2022-06-19T08:12:59.123Z</time>
      </trkpt>
      <trkpt lat="43.21133167" lon="-6.90428">
        <ele>642.0</ele>
        <time>2022-06-19T08:13:00.121Z</time>
      </trkpt>
      <trkpt lat="43.21133167" lon="-6.90428">
        <ele>642.0</ele>
        <time>2022-06-19T08:13:01.100Z</time>
      </trkpt>
      <trkpt lat="43.21128167" lon="-6.904405">
        <ele>641.0</ele>
        <time>2022-06-19T08:13:02.104Z</time>
      </trkpt>
      <trkpt lat="43.21125333" lon="-6.904465">
        <ele>641.0</ele>
        <time>2022-06-19T08:13:03.113Z</time>
      </trkpt>
      <trkpt lat="43.21125333" lon="-6.904465">
        <ele>641.0</ele>
        <time>2022-06-19T08:13:04.092Z</time>
      </trkpt>
      <trkpt lat="43.21119333" lon="-6.90459167">
        <ele>641.0</ele>
        <time>2022-06-19T08:13:05.118Z</time>
      </trkpt>
      <trkpt lat="43.21119333" lon="-6.90459167">
        <ele>641.0</ele>
        <time>2022-06-19T08:13:06.115Z</time>
      </trkpt>
      <trkpt lat="43.21113167" lon="-6.90472833">
        <ele>640.0</ele>
        <time>2022-06-19T08:13:07.128Z</time>
      </trkpt>
      <trkpt lat="43.21113167" lon="-6.90472833">
        <ele>640.0</ele>
        <time>2022-06-19T08:13:08.122Z</time>
      </trkpt>
      <trkpt lat="43.211065" lon="-6.90486833">
        <ele>640.0</ele>
        <time>2022-06-19T08:13:09.095Z</time>
      </trkpt>
      <trkpt lat="43.21103" lon="-6.90493833">
        <ele>640.0</ele>
        <time>2022-06-19T08:13:10.114Z</time>
      </trkpt>
      <trkpt lat="43.21103" lon="-6.90493833">
        <ele>640.0</ele>
        <time>2022-06-19T08:13:11.128Z</time>
      </trkpt>
      <trkpt lat="43.21095833" lon="-6.90508333">
        <ele>639.0</ele>
        <time>2022-06-19T08:13:12.096Z</time>
      </trkpt>
      <trkpt lat="43.21092333" lon="-6.90515667">
        <ele>639.0</ele>
        <time>2022-06-19T08:13:13.100Z</time>
      </trkpt>
      <trkpt lat="43.21092333" lon="-6.90515667">
        <ele>639.0</ele>
        <time>2022-06-19T08:13:14.131Z</time>
      </trkpt>
      <trkpt lat="43.210855" lon="-6.90530667">
        <ele>639.0</ele>
        <time>2022-06-19T08:13:15.122Z</time>
      </trkpt>
      <trkpt lat="43.21082333" lon="-6.90538">
        <ele>639.0</ele>
        <time>2022-06-19T08:13:16.113Z</time>
      </trkpt>
      <trkpt lat="43.21082333" lon="-6.90538">
        <ele>639.0</ele>
        <time>2022-06-19T08:13:17.126Z</time>
      </trkpt>
      <trkpt lat="43.21075667" lon="-6.90552167">
        <ele>639.0</ele>
        <time>2022-06-19T08:13:18.100Z</time>
      </trkpt>
      <trkpt lat="43.21072667" lon="-6.90559">
        <ele>639.0</ele>
        <time>2022-06-19T08:13:19.125Z</time>
      </trkpt>
      <trkpt lat="43.21072667" lon="-6.90559">
        <ele>639.0</ele>
        <time>2022-06-19T08:13:20.117Z</time>
      </trkpt>
      <trkpt lat="43.21068" lon="-6.90572167">
        <ele>639.0</ele>
        <time>2022-06-19T08:13:21.126Z</time>
      </trkpt>
      <trkpt lat="43.210665" lon="-6.90578833">
        <ele>639.0</ele>
        <time>2022-06-19T08:13:22.130Z</time>
      </trkpt>
      <trkpt lat="43.210665" lon="-6.90578833">
        <ele>639.0</ele>
        <time>2022-06-19T08:13:23.100Z</time>
      </trkpt>
      <trkpt lat="43.21063667" lon="-6.90591167">
        <ele>639.0</ele>
        <time>2022-06-19T08:13:24.115Z</time>
      </trkpt>
      <trkpt lat="43.21063667" lon="-6.90591167">
        <ele>639.0</ele>
        <time>2022-06-19T08:13:25.130Z</time>
      </trkpt>
      <trkpt lat="43.21059667" lon="-6.90601167">
        <ele>639.0</ele>
        <time>2022-06-19T08:13:26.101Z</time>
      </trkpt>
      <trkpt lat="43.21059667" lon="-6.90601167">
        <ele>639.0</ele>
        <time>2022-06-19T08:13:27.119Z</time>
      </trkpt>
      <trkpt lat="43.21057667" lon="-6.90612333">
        <ele>639.0</ele>
        <time>2022-06-19T08:13:28.129Z</time>
      </trkpt>
      <trkpt lat="43.21057667" lon="-6.90612333">
        <ele>639.0</ele>
        <time>2022-06-19T08:13:29.123Z</time>
      </trkpt>
      <trkpt lat="43.21057667" lon="-6.90625833">
        <ele>639.0</ele>
        <time>2022-06-19T08:13:30.092Z</time>
      </trkpt>
      <trkpt lat="43.21057667" lon="-6.90625833">
        <ele>639.0</ele>
        <time>2022-06-19T08:13:31.104Z</time>
      </trkpt>
      <trkpt lat="43.21058333" lon="-6.90639">
        <ele>639.0</ele>
        <time>2022-06-19T08:13:32.096Z</time>
      </trkpt>
      <trkpt lat="43.21058333" lon="-6.90639">
        <ele>639.0</ele>
        <time>2022-06-19T08:13:33.111Z</time>
      </trkpt>
      <trkpt lat="43.210595" lon="-6.90651167">
        <ele>639.0</ele>
        <time>2022-06-19T08:13:34.127Z</time>
      </trkpt>
      <trkpt lat="43.210595" lon="-6.90651167">
        <ele>639.0</ele>
        <time>2022-06-19T08:13:35.102Z</time>
      </trkpt>
      <trkpt lat="43.21062667" lon="-6.90662667">
        <ele>639.0</ele>
        <time>2022-06-19T08:13:36.107Z</time>
      </trkpt>
      <trkpt lat="43.21065167" lon="-6.90667667">
        <ele>639.0</ele>
        <time>2022-06-19T08:13:37.106Z</time>
      </trkpt>
      <trkpt lat="43.21065167" lon="-6.90667667">
        <ele>639.0</ele>
        <time>2022-06-19T08:13:38.096Z</time>
      </trkpt>
      <trkpt lat="43.21070667" lon="-6.90678333">
        <ele>639.0</ele>
        <time>2022-06-19T08:13:39.105Z</time>
      </trkpt>
      <trkpt lat="43.21070667" lon="-6.90678333">
        <ele>639.0</ele>
        <time>2022-06-19T08:13:40.129Z</time>
      </trkpt>
      <trkpt lat="43.21076167" lon="-6.906895">
        <ele>638.0</ele>
        <time>2022-06-19T08:13:41.106Z</time>
      </trkpt>
      <trkpt lat="43.21076167" lon="-6.906895">
        <ele>638.0</ele>
        <time>2022-06-19T08:13:42.094Z</time>
      </trkpt>
      <trkpt lat="43.210815" lon="-6.90701167">
        <ele>638.0</ele>
        <time>2022-06-19T08:13:43.100Z</time>
      </trkpt>
      <trkpt lat="43.21084" lon="-6.90706833">
        <ele>638.0</ele>
        <time>2022-06-19T08:13:44.115Z</time>
      </trkpt>
      <trkpt lat="43.21084" lon="-6.90706833">
        <ele>638.0</ele>
        <time>2022-06-19T08:13:45.123Z</time>
      </trkpt>
      <trkpt lat="43.21088833" lon="-6.90717333">
        <ele>638.0</ele>
        <time>2022-06-19T08:13:46.095Z</time>
      </trkpt>
      <trkpt lat="43.21088833" lon="-6.90717333">
        <ele>638.0</ele>
        <time>2022-06-19T08:13:47.102Z</time>
      </trkpt>
      <trkpt lat="43.210935" lon="-6.90728167">
        <ele>638.0</ele>
        <time>2022-06-19T08:13:48.115Z</time>
      </trkpt>
      <trkpt lat="43.21096167" lon="-6.90733667">
        <ele>638.0</ele>
        <time>2022-06-19T08:13:49.098Z</time>
      </trkpt>
      <trkpt lat="43.21096167" lon="-6.90733667">
        <ele>638.0</ele>
        <time>2022-06-19T08:13:50.114Z</time>
      </trkpt>
      <trkpt lat="43.21101" lon="-6.90744333">
        <ele>638.0</ele>
        <time>2022-06-19T08:13:51.112Z</time>
      </trkpt>
      <trkpt lat="43.21101" lon="-6.90744333">
        <ele>638.0</ele>
        <time>2022-06-19T08:13:52.108Z</time>
      </trkpt>
      <trkpt lat="43.21105333" lon="-6.90754333">
        <ele>638.0</ele>
        <time>2022-06-19T08:13:53.120Z</time>
      </trkpt>
      <trkpt lat="43.211075" lon="-6.90759">
        <ele>638.0</ele>
        <time>2022-06-19T08:13:54.097Z</time>
      </trkpt>
      <trkpt lat="43.211075" lon="-6.90759">
        <ele>638.0</ele>
        <time>2022-06-19T08:13:55.112Z</time>
      </trkpt>
      <trkpt lat="43.21111833" lon="-6.90769">
        <ele>638.0</ele>
        <time>2022-06-19T08:13:56.101Z</time>
      </trkpt>
      <trkpt lat="43.21111833" lon="-6.90769">
        <ele>638.0</ele>
        <time>2022-06-19T08:13:57.128Z</time>
      </trkpt>
      <trkpt lat="43.21116333" lon="-6.90779167">
        <ele>638.0</ele>
        <time>2022-06-19T08:13:58.095Z</time>
      </trkpt>
      <trkpt lat="43.21116333" lon="-6.90779167">
        <ele>638.0</ele>
        <time>2022-06-19T08:13:59.111Z</time>
      </trkpt>
      <trkpt lat="43.21120667" lon="-6.90789">
        <ele>638.0</ele>
        <time>2022-06-19T08:14:00.119Z</time>
      </trkpt>
      <trkpt lat="43.21120667" lon="-6.90789">
        <ele>638.0</ele>
        <time>2022-06-19T08:14:01.130Z</time>
      </trkpt>
      <trkpt lat="43.21125333" lon="-6.90798333">
        <ele>638.0</ele>
        <time>2022-06-19T08:14:02.190Z</time>
      </trkpt>
      <trkpt lat="43.21125333" lon="-6.90798333">
        <ele>638.0</ele>
        <time>2022-06-19T08:14:03.112Z</time>
      </trkpt>
      <trkpt lat="43.21130167" lon="-6.90807167">
        <ele>638.0</ele>
        <time>2022-06-19T08:14:04.118Z</time>
      </trkpt>
      <trkpt lat="43.21130167" lon="-6.90807167">
        <ele>638.0</ele>
        <time>2022-06-19T08:14:05.092Z</time>
      </trkpt>
      <trkpt lat="43.21131667" lon="-6.90816">
        <ele>638.0</ele>
        <time>2022-06-19T08:14:06.106Z</time>
      </trkpt>
      <trkpt lat="43.21131" lon="-6.90820833">
        <ele>638.0</ele>
        <time>2022-06-19T08:14:07.092Z</time>
      </trkpt>
      <trkpt lat="43.21131" lon="-6.90820833">
        <ele>638.0</ele>
        <time>2022-06-19T08:14:08.110Z</time>
      </trkpt>
      <trkpt lat="43.21128667" lon="-6.90829333">
        <ele>638.0</ele>
        <time>2022-06-19T08:14:09.121Z</time>
      </trkpt>
      <trkpt lat="43.21127333" lon="-6.908335">
        <ele>638.0</ele>
        <time>2022-06-19T08:14:10.117Z</time>
      </trkpt>
      <trkpt lat="43.21127333" lon="-6.908335">
        <ele>638.0</ele>
        <time>2022-06-19T08:14:11.127Z</time>
      </trkpt>
      <trkpt lat="43.21125" lon="-6.90842333">
        <ele>638.0</ele>
        <time>2022-06-19T08:14:12.115Z</time>
      </trkpt>
      <trkpt lat="43.21123667" lon="-6.90846667">
        <ele>638.0</ele>
        <time>2022-06-19T08:14:13.102Z</time>
      </trkpt>
      <trkpt lat="43.21123667" lon="-6.90846667">
        <ele>638.0</ele>
        <time>2022-06-19T08:14:14.128Z</time>
      </trkpt>
      <trkpt lat="43.21121" lon="-6.90855333">
        <ele>638.0</ele>
        <time>2022-06-19T08:14:15.095Z</time>
      </trkpt>
      <trkpt lat="43.21121" lon="-6.90855333">
        <ele>638.0</ele>
        <time>2022-06-19T08:14:16.115Z</time>
      </trkpt>
      <trkpt lat="43.21118333" lon="-6.90864167">
        <ele>638.0</ele>
        <time>2022-06-19T08:14:17.112Z</time>
      </trkpt>
      <trkpt lat="43.21118333" lon="-6.90864167">
        <ele>638.0</ele>
        <time>2022-06-19T08:14:18.112Z</time>
      </trkpt>
      <trkpt lat="43.21116" lon="-6.90872667">
        <ele>638.0</ele>
        <time>2022-06-19T08:14:19.122Z</time>
      </trkpt>
      <trkpt lat="43.21116" lon="-6.90872667">
        <ele>638.0</ele>
        <time>2022-06-19T08:14:20.100Z</time>
      </trkpt>
      <trkpt lat="43.21114" lon="-6.90881333">
        <ele>639.0</ele>
        <time>2022-06-19T08:14:21.113Z</time>
      </trkpt>
      <trkpt lat="43.21112833" lon="-6.90885667">
        <ele>639.0</ele>
        <time>2022-06-19T08:14:22.129Z</time>
      </trkpt>
      <trkpt lat="43.21112833" lon="-6.90885667">
        <ele>639.0</ele>
        <time>2022-06-19T08:14:23.122Z</time>
      </trkpt>
      <trkpt lat="43.21110833" lon="-6.90893667">
        <ele>639.0</ele>
        <time>2022-06-19T08:14:24.130Z</time>
      </trkpt>
      <trkpt lat="43.21109833" lon="-6.90897167">
        <ele>639.0</ele>
        <time>2022-06-19T08:14:25.115Z</time>
      </trkpt>
      <trkpt lat="43.21109833" lon="-6.90897167">
        <ele>639.0</ele>
        <time>2022-06-19T08:14:26.094Z</time>
      </trkpt>
      <trkpt lat="43.21108167" lon="-6.90904833">
        <ele>639.0</ele>
        <time>2022-06-19T08:14:27.100Z</time>
      </trkpt>
      <trkpt lat="43.21107" lon="-6.90908667">
        <ele>639.0</ele>
        <time>2022-06-19T08:14:28.104Z</time>
      </trkpt>
      <trkpt lat="43.21107" lon="-6.90908667">
        <ele>639.0</ele>
        <time>2022-06-19T08:14:29.124Z</time>
      </trkpt>
      <trkpt lat="43.211045" lon="-6.90916333">
        <ele>639.0</ele>
        <time>2022-06-19T08:14:30.092Z</time>
      </trkpt>
      <trkpt lat="43.21103333" lon="-6.9092">
        <ele>639.0</ele>
        <time>2022-06-19T08:14:31.103Z</time>
      </trkpt>
      <trkpt lat="43.21103333" lon="-6.9092">
        <ele>639.0</ele>
        <time>2022-06-19T08:14:32.118Z</time>
      </trkpt>
      <trkpt lat="43.21101333" lon="-6.90928">
        <ele>639.0</ele>
        <time>2022-06-19T08:14:33.129Z</time>
      </trkpt>
      <trkpt lat="43.21100333" lon="-6.90932167">
        <ele>639.0</ele>
        <time>2022-06-19T08:14:34.126Z</time>
      </trkpt>
      <trkpt lat="43.21100333" lon="-6.90932167">
        <ele>639.0</ele>
        <time>2022-06-19T08:14:35.098Z</time>
      </trkpt>
      <trkpt lat="43.21098167" lon="-6.90940333">
        <ele>639.0</ele>
        <time>2022-06-19T08:14:36.115Z</time>
      </trkpt>
      <trkpt lat="43.21098167" lon="-6.90940333">
        <ele>639.0</ele>
        <time>2022-06-19T08:14:37.095Z</time>
      </trkpt>
      <trkpt lat="43.21095833" lon="-6.909485">
        <ele>639.0</ele>
        <time>2022-06-19T08:14:38.106Z</time>
      </trkpt>
      <trkpt lat="43.21095833" lon="-6.909485">
        <ele>639.0</ele>
        <time>2022-06-19T08:14:39.129Z</time>
      </trkpt>
      <trkpt lat="43.21093667" lon="-6.90956833">
        <ele>639.0</ele>
        <time>2022-06-19T08:14:40.098Z</time>
      </trkpt>
      <trkpt lat="43.210925" lon="-6.90960667">
        <ele>639.0</ele>
        <time>2022-06-19T08:14:41.119Z</time>
      </trkpt>
      <trkpt lat="43.210915" lon="-6.90964667">
        <ele>639.0</ele>
        <time>2022-06-19T08:14:42.129Z</time>
      </trkpt>
      <trkpt lat="43.210915" lon="-6.90964667">
        <ele>639.0</ele>
        <time>2022-06-19T08:14:43.112Z</time>
      </trkpt>
      <trkpt lat="43.21089" lon="-6.90972833">
        <ele>639.0</ele>
        <time>2022-06-19T08:14:44.128Z</time>
      </trkpt>
      <trkpt lat="43.21089" lon="-6.90972833">
        <ele>639.0</ele>
        <time>2022-06-19T08:14:45.112Z</time>
      </trkpt>
      <trkpt lat="43.21086667" lon="-6.90981">
        <ele>639.0</ele>
        <time>2022-06-19T08:14:46.121Z</time>
      </trkpt>
      <trkpt lat="43.21085333" lon="-6.90985">
        <ele>639.0</ele>
        <time>2022-06-19T08:14:47.097Z</time>
      </trkpt>
      <trkpt lat="43.21085333" lon="-6.90985">
        <ele>639.0</ele>
        <time>2022-06-19T08:14:48.115Z</time>
      </trkpt>
      <trkpt lat="43.21083167" lon="-6.90993">
        <ele>639.0</ele>
        <time>2022-06-19T08:14:49.132Z</time>
      </trkpt>
      <trkpt lat="43.21083167" lon="-6.90993">
        <ele>639.0</ele>
        <time>2022-06-19T08:14:50.113Z</time>
      </trkpt>
      <trkpt lat="43.21080833" lon="-6.91001167">
        <ele>640.0</ele>
        <time>2022-06-19T08:14:51.106Z</time>
      </trkpt>
      <trkpt lat="43.21080833" lon="-6.91001167">
        <ele>640.0</ele>
        <time>2022-06-19T08:14:52.119Z</time>
      </trkpt>
      <trkpt lat="43.21078667" lon="-6.91009667">
        <ele>640.0</ele>
        <time>2022-06-19T08:14:53.128Z</time>
      </trkpt>
      <trkpt lat="43.21077667" lon="-6.91014">
        <ele>640.0</ele>
        <time>2022-06-19T08:14:54.121Z</time>
      </trkpt>
      <trkpt lat="43.210765" lon="-6.910185">
        <ele>640.0</ele>
        <time>2022-06-19T08:14:55.117Z</time>
      </trkpt>
      <trkpt lat="43.210765" lon="-6.910185">
        <ele>640.0</ele>
        <time>2022-06-19T08:14:56.126Z</time>
      </trkpt>
      <trkpt lat="43.21073833" lon="-6.91026667">
        <ele>640.0</ele>
        <time>2022-06-19T08:14:57.101Z</time>
      </trkpt>
      <trkpt lat="43.21073833" lon="-6.91026667">
        <ele>640.0</ele>
        <time>2022-06-19T08:14:58.117Z</time>
      </trkpt>
      <trkpt lat="43.21071333" lon="-6.91035">
        <ele>640.0</ele>
        <time>2022-06-19T08:14:59.102Z</time>
      </trkpt>
      <trkpt lat="43.21071333" lon="-6.91035">
        <ele>640.0</ele>
        <time>2022-06-19T08:15:00.117Z</time>
      </trkpt>
      <trkpt lat="43.21068833" lon="-6.91043667">
        <ele>640.0</ele>
        <time>2022-06-19T08:15:01.123Z</time>
      </trkpt>
      <trkpt lat="43.21068833" lon="-6.91043667">
        <ele>640.0</ele>
        <time>2022-06-19T08:15:02.117Z</time>
      </trkpt>
      <trkpt lat="43.21066167" lon="-6.91052">
        <ele>640.0</ele>
        <time>2022-06-19T08:15:03.131Z</time>
      </trkpt>
      <trkpt lat="43.21064667" lon="-6.91056333">
        <ele>640.0</ele>
        <time>2022-06-19T08:15:04.117Z</time>
      </trkpt>
      <trkpt lat="43.21064667" lon="-6.91056333">
        <ele>640.0</ele>
        <time>2022-06-19T08:15:05.127Z</time>
      </trkpt>
      <trkpt lat="43.21062167" lon="-6.91065333">
        <ele>640.0</ele>
        <time>2022-06-19T08:15:06.094Z</time>
      </trkpt>
      <trkpt lat="43.21060833" lon="-6.91069833">
        <ele>641.0</ele>
        <time>2022-06-19T08:15:07.115Z</time>
      </trkpt>
      <trkpt lat="43.21059667" lon="-6.91074167">
        <ele>641.0</ele>
        <time>2022-06-19T08:15:08.095Z</time>
      </trkpt>
      <trkpt lat="43.21059667" lon="-6.91074167">
        <ele>641.0</ele>
        <time>2022-06-19T08:15:09.113Z</time>
      </trkpt>
      <trkpt lat="43.210575" lon="-6.91082167">
        <ele>641.0</ele>
        <time>2022-06-19T08:15:10.335Z</time>
      </trkpt>
      <trkpt lat="43.210575" lon="-6.91082167">
        <ele>641.0</ele>
        <time>2022-06-19T08:15:11.109Z</time>
      </trkpt>
      <trkpt lat="43.21055167" lon="-6.91091167">
        <ele>641.0</ele>
        <time>2022-06-19T08:15:12.119Z</time>
      </trkpt>
      <trkpt lat="43.21053167" lon="-6.91096">
        <ele>641.0</ele>
        <time>2022-06-19T08:15:13.132Z</time>
      </trkpt>
      <trkpt lat="43.21053167" lon="-6.91096">
        <ele>641.0</ele>
        <time>2022-06-19T08:15:14.112Z</time>
      </trkpt>
      <trkpt lat="43.21050667" lon="-6.91105833">
        <ele>641.0</ele>
        <time>2022-06-19T08:15:15.093Z</time>
      </trkpt>
      <trkpt lat="43.21049167" lon="-6.91110667">
        <ele>641.0</ele>
        <time>2022-06-19T08:15:16.108Z</time>
      </trkpt>
      <trkpt lat="43.21049167" lon="-6.91110667">
        <ele>641.0</ele>
        <time>2022-06-19T08:15:17.119Z</time>
      </trkpt>
      <trkpt lat="43.21045667" lon="-6.91120333">
        <ele>641.0</ele>
        <time>2022-06-19T08:15:18.128Z</time>
      </trkpt>
      <trkpt lat="43.21043833" lon="-6.91125333">
        <ele>642.0</ele>
        <time>2022-06-19T08:15:19.117Z</time>
      </trkpt>
      <trkpt lat="43.21043833" lon="-6.91125333">
        <ele>642.0</ele>
        <time>2022-06-19T08:15:20.127Z</time>
      </trkpt>
      <trkpt lat="43.21040833" lon="-6.91136667">
        <ele>642.0</ele>
        <time>2022-06-19T08:15:21.103Z</time>
      </trkpt>
      <trkpt lat="43.21039833" lon="-6.91141667">
        <ele>642.0</ele>
        <time>2022-06-19T08:15:22.125Z</time>
      </trkpt>
      <trkpt lat="43.21039833" lon="-6.91141667">
        <ele>642.0</ele>
        <time>2022-06-19T08:15:23.102Z</time>
      </trkpt>
      <trkpt lat="43.21036833" lon="-6.91153167">
        <ele>643.0</ele>
        <time>2022-06-19T08:15:24.109Z</time>
      </trkpt>
      <trkpt lat="43.21036833" lon="-6.91153167">
        <ele>643.0</ele>
        <time>2022-06-19T08:15:25.123Z</time>
      </trkpt>
      <trkpt lat="43.21032333" lon="-6.91160167">
        <ele>643.0</ele>
        <time>2022-06-19T08:15:26.096Z</time>
      </trkpt>
      <trkpt lat="43.21030167" lon="-6.91164667">
        <ele>643.0</ele>
        <time>2022-06-19T08:15:27.112Z</time>
      </trkpt>
      <trkpt lat="43.21028" lon="-6.91169167">
        <ele>643.0</ele>
        <time>2022-06-19T08:15:28.131Z</time>
      </trkpt>
      <trkpt lat="43.21028" lon="-6.91169167">
        <ele>643.0</ele>
        <time>2022-06-19T08:15:29.099Z</time>
      </trkpt>
      <trkpt lat="43.210235" lon="-6.91177667">
        <ele>644.0</ele>
        <time>2022-06-19T08:15:30.111Z</time>
      </trkpt>
      <trkpt lat="43.210235" lon="-6.91177667">
        <ele>644.0</ele>
        <time>2022-06-19T08:15:31.126Z</time>
      </trkpt>
      <trkpt lat="43.21019333" lon="-6.91186833">
        <ele>644.0</ele>
        <time>2022-06-19T08:15:32.098Z</time>
      </trkpt>
      <trkpt lat="43.21017167" lon="-6.91190833">
        <ele>644.0</ele>
        <time>2022-06-19T08:15:33.107Z</time>
      </trkpt>
      <trkpt lat="43.210145" lon="-6.91192667">
        <ele>644.0</ele>
        <time>2022-06-19T08:15:34.127Z</time>
      </trkpt>
      <trkpt lat="43.210145" lon="-6.91192667">
        <ele>644.0</ele>
        <time>2022-06-19T08:15:35.105Z</time>
      </trkpt>
      <trkpt lat="43.21007833" lon="-6.91189167">
        <ele>644.0</ele>
        <time>2022-06-19T08:15:36.110Z</time>
      </trkpt>
      <trkpt lat="43.21004167" lon="-6.911865">
        <ele>644.0</ele>
        <time>2022-06-19T08:15:37.128Z</time>
      </trkpt>
      <trkpt lat="43.21000167" lon="-6.911845">
        <ele>644.0</ele>
        <time>2022-06-19T08:15:38.111Z</time>
      </trkpt>
      <trkpt lat="43.21000167" lon="-6.911845">
        <ele>644.0</ele>
        <time>2022-06-19T08:15:39.125Z</time>
      </trkpt>
      <trkpt lat="43.209925" lon="-6.91181667">
        <ele>644.0</ele>
        <time>2022-06-19T08:15:40.093Z</time>
      </trkpt>
      <trkpt lat="43.209925" lon="-6.91181667">
        <ele>644.0</ele>
        <time>2022-06-19T08:15:41.111Z</time>
      </trkpt>
      <trkpt lat="43.20984333" lon="-6.91179167">
        <ele>644.0</ele>
        <time>2022-06-19T08:15:42.095Z</time>
      </trkpt>
      <trkpt lat="43.20980333" lon="-6.91177833">
        <ele>644.0</ele>
        <time>2022-06-19T08:15:43.125Z</time>
      </trkpt>
      <trkpt lat="43.20980333" lon="-6.91177833">
        <ele>644.0</ele>
        <time>2022-06-19T08:15:44.098Z</time>
      </trkpt>
      <trkpt lat="43.20972667" lon="-6.91176">
        <ele>644.0</ele>
        <time>2022-06-19T08:15:45.107Z</time>
      </trkpt>
      <trkpt lat="43.20972667" lon="-6.91176">
        <ele>644.0</ele>
        <time>2022-06-19T08:15:46.098Z</time>
      </trkpt>
      <trkpt lat="43.20965" lon="-6.91175">
        <ele>643.0</ele>
        <time>2022-06-19T08:15:47.120Z</time>
      </trkpt>
      <trkpt lat="43.20960833" lon="-6.91174833">
        <ele>643.0</ele>
        <time>2022-06-19T08:15:48.137Z</time>
      </trkpt>
      <trkpt lat="43.20960833" lon="-6.91174833">
        <ele>643.0</ele>
        <time>2022-06-19T08:15:49.116Z</time>
      </trkpt>
      <trkpt lat="43.209525" lon="-6.91175167">
        <ele>643.0</ele>
        <time>2022-06-19T08:15:50.126Z</time>
      </trkpt>
      <trkpt lat="43.209525" lon="-6.91175167">
        <ele>643.0</ele>
        <time>2022-06-19T08:15:51.092Z</time>
      </trkpt>
      <trkpt lat="43.20944" lon="-6.91174667">
        <ele>643.0</ele>
        <time>2022-06-19T08:15:52.113Z</time>
      </trkpt>
      <trkpt lat="43.20944" lon="-6.91174667">
        <ele>643.0</ele>
        <time>2022-06-19T08:15:53.093Z</time>
      </trkpt>
      <trkpt lat="43.20934333" lon="-6.91173167">
        <ele>643.0</ele>
        <time>2022-06-19T08:15:54.106Z</time>
      </trkpt>
      <trkpt lat="43.20929833" lon="-6.91173833">
        <ele>643.0</ele>
        <time>2022-06-19T08:15:55.127Z</time>
      </trkpt>
      <trkpt lat="43.20929833" lon="-6.91173833">
        <ele>643.0</ele>
        <time>2022-06-19T08:15:56.103Z</time>
      </trkpt>
      <trkpt lat="43.20920667" lon="-6.911765">
        <ele>643.0</ele>
        <time>2022-06-19T08:15:57.115Z</time>
      </trkpt>
      <trkpt lat="43.20920667" lon="-6.911765">
        <ele>643.0</ele>
        <time>2022-06-19T08:15:58.092Z</time>
      </trkpt>
      <trkpt lat="43.20913" lon="-6.911785">
        <ele>643.0</ele>
        <time>2022-06-19T08:15:59.106Z</time>
      </trkpt>
      <trkpt lat="43.20913" lon="-6.911785">
        <ele>643.0</ele>
        <time>2022-06-19T08:16:00.116Z</time>
      </trkpt>
      <trkpt lat="43.20905333" lon="-6.91182833">
        <ele>643.0</ele>
        <time>2022-06-19T08:16:01.097Z</time>
      </trkpt>
      <trkpt lat="43.20902167" lon="-6.91185167">
        <ele>643.0</ele>
        <time>2022-06-19T08:16:02.138Z</time>
      </trkpt>
      <trkpt lat="43.20902167" lon="-6.91185167">
        <ele>643.0</ele>
        <time>2022-06-19T08:16:03.098Z</time>
      </trkpt>
      <trkpt lat="43.208955" lon="-6.91188">
        <ele>643.0</ele>
        <time>2022-06-19T08:16:04.106Z</time>
      </trkpt>
      <trkpt lat="43.20893333" lon="-6.91190833">
        <ele>643.0</ele>
        <time>2022-06-19T08:16:05.119Z</time>
      </trkpt>
      <trkpt lat="43.20893333" lon="-6.91190833">
        <ele>643.0</ele>
        <time>2022-06-19T08:16:06.131Z</time>
      </trkpt>
      <trkpt lat="43.20887333" lon="-6.911975">
        <ele>643.0</ele>
        <time>2022-06-19T08:16:07.100Z</time>
      </trkpt>
      <trkpt lat="43.20887333" lon="-6.911975">
        <ele>643.0</ele>
        <time>2022-06-19T08:16:08.113Z</time>
      </trkpt>
      <trkpt lat="43.208825" lon="-6.91205667">
        <ele>643.0</ele>
        <time>2022-06-19T08:16:09.094Z</time>
      </trkpt>
      <trkpt lat="43.2088" lon="-6.91209333">
        <ele>643.0</ele>
        <time>2022-06-19T08:16:10.112Z</time>
      </trkpt>
      <trkpt lat="43.2088" lon="-6.91209333">
        <ele>643.0</ele>
        <time>2022-06-19T08:16:11.092Z</time>
      </trkpt>
      <trkpt lat="43.20874833" lon="-6.91218167">
        <ele>644.0</ele>
        <time>2022-06-19T08:16:12.100Z</time>
      </trkpt>
      <trkpt lat="43.20872333" lon="-6.91222333">
        <ele>644.0</ele>
        <time>2022-06-19T08:16:13.107Z</time>
      </trkpt>
      <trkpt lat="43.20872333" lon="-6.91222333">
        <ele>644.0</ele>
        <time>2022-06-19T08:16:14.119Z</time>
      </trkpt>
      <trkpt lat="43.208655" lon="-6.912325">
        <ele>644.0</ele>
        <time>2022-06-19T08:16:15.104Z</time>
      </trkpt>
      <trkpt lat="43.20862667" lon="-6.91236667">
        <ele>644.0</ele>
        <time>2022-06-19T08:16:16.099Z</time>
      </trkpt>
      <trkpt lat="43.20862667" lon="-6.91236667">
        <ele>644.0</ele>
        <time>2022-06-19T08:16:17.114Z</time>
      </trkpt>
      <trkpt lat="43.20857167" lon="-6.91244833">
        <ele>645.0</ele>
        <time>2022-06-19T08:16:18.123Z</time>
      </trkpt>
      <trkpt lat="43.20854667" lon="-6.91248333">
        <ele>645.0</ele>
        <time>2022-06-19T08:16:19.118Z</time>
      </trkpt>
      <trkpt lat="43.20854667" lon="-6.91248333">
        <ele>645.0</ele>
        <time>2022-06-19T08:16:20.128Z</time>
      </trkpt>
      <trkpt lat="43.20850167" lon="-6.91257">
        <ele>646.0</ele>
        <time>2022-06-19T08:16:21.111Z</time>
      </trkpt>
      <trkpt lat="43.20850167" lon="-6.91257">
        <ele>646.0</ele>
        <time>2022-06-19T08:16:22.095Z</time>
      </trkpt>
      <trkpt lat="43.20844667" lon="-6.91265">
        <ele>646.0</ele>
        <time>2022-06-19T08:16:23.103Z</time>
      </trkpt>
      <trkpt lat="43.20844667" lon="-6.91265">
        <ele>646.0</ele>
        <time>2022-06-19T08:16:24.128Z</time>
      </trkpt>
      <trkpt lat="43.20839167" lon="-6.91272667">
        <ele>646.0</ele>
        <time>2022-06-19T08:16:25.094Z</time>
      </trkpt>
      <trkpt lat="43.20839167" lon="-6.91272667">
        <ele>646.0</ele>
        <time>2022-06-19T08:16:26.110Z</time>
      </trkpt>
      <trkpt lat="43.208325" lon="-6.91280833">
        <ele>646.0</ele>
        <time>2022-06-19T08:16:27.123Z</time>
      </trkpt>
      <trkpt lat="43.208325" lon="-6.91280833">
        <ele>646.0</ele>
        <time>2022-06-19T08:16:28.108Z</time>
      </trkpt>
      <trkpt lat="43.20827" lon="-6.91289167">
        <ele>646.0</ele>
        <time>2022-06-19T08:16:29.103Z</time>
      </trkpt>
      <trkpt lat="43.20827" lon="-6.91289167">
        <ele>646.0</ele>
        <time>2022-06-19T08:16:30.102Z</time>
      </trkpt>
      <trkpt lat="43.20821667" lon="-6.91296667">
        <ele>646.0</ele>
        <time>2022-06-19T08:16:31.117Z</time>
      </trkpt>
      <trkpt lat="43.20821667" lon="-6.91296667">
        <ele>646.0</ele>
        <time>2022-06-19T08:16:32.094Z</time>
      </trkpt>
      <trkpt lat="43.20817667" lon="-6.91303667">
        <ele>646.0</ele>
        <time>2022-06-19T08:16:33.100Z</time>
      </trkpt>
      <trkpt lat="43.20817667" lon="-6.91303667">
        <ele>646.0</ele>
        <time>2022-06-19T08:16:34.117Z</time>
      </trkpt>
      <trkpt lat="43.208135" lon="-6.91309">
        <ele>646.0</ele>
        <time>2022-06-19T08:16:35.102Z</time>
      </trkpt>
      <trkpt lat="43.208135" lon="-6.91309">
        <ele>646.0</ele>
        <time>2022-06-19T08:16:36.114Z</time>
      </trkpt>
      <trkpt lat="43.20810333" lon="-6.91315833">
        <ele>647.0</ele>
        <time>2022-06-19T08:16:37.093Z</time>
      </trkpt>
      <trkpt lat="43.20810333" lon="-6.91315833">
        <ele>647.0</ele>
        <time>2022-06-19T08:16:38.117Z</time>
      </trkpt>
      <trkpt lat="43.20805167" lon="-6.91322667">
        <ele>647.0</ele>
        <time>2022-06-19T08:16:39.127Z</time>
      </trkpt>
      <trkpt lat="43.20805167" lon="-6.91322667">
        <ele>647.0</ele>
        <time>2022-06-19T08:16:40.094Z</time>
      </trkpt>
      <trkpt lat="43.208005" lon="-6.913315">
        <ele>647.0</ele>
        <time>2022-06-19T08:16:41.103Z</time>
      </trkpt>
      <trkpt lat="43.208005" lon="-6.913315">
        <ele>647.0</ele>
        <time>2022-06-19T08:16:42.118Z</time>
      </trkpt>
      <trkpt lat="43.20796833" lon="-6.91341">
        <ele>647.0</ele>
        <time>2022-06-19T08:16:43.094Z</time>
      </trkpt>
      <trkpt lat="43.20796833" lon="-6.91341">
        <ele>647.0</ele>
        <time>2022-06-19T08:16:44.120Z</time>
      </trkpt>
      <trkpt lat="43.20793667" lon="-6.91350667">
        <ele>648.0</ele>
        <time>2022-06-19T08:16:45.128Z</time>
      </trkpt>
      <trkpt lat="43.20790167" lon="-6.91355667">
        <ele>648.0</ele>
        <time>2022-06-19T08:16:46.101Z</time>
      </trkpt>
      <trkpt lat="43.20790167" lon="-6.91355667">
        <ele>648.0</ele>
        <time>2022-06-19T08:16:47.115Z</time>
      </trkpt>
      <trkpt lat="43.20785333" lon="-6.913655">
        <ele>649.0</ele>
        <time>2022-06-19T08:16:48.123Z</time>
      </trkpt>
      <trkpt lat="43.207835" lon="-6.91369667">
        <ele>649.0</ele>
        <time>2022-06-19T08:16:49.122Z</time>
      </trkpt>
      <trkpt lat="43.207835" lon="-6.91369667">
        <ele>649.0</ele>
        <time>2022-06-19T08:16:50.106Z</time>
      </trkpt>
      <trkpt lat="43.207805" lon="-6.91378">
        <ele>650.0</ele>
        <time>2022-06-19T08:16:51.131Z</time>
      </trkpt>
      <trkpt lat="43.207805" lon="-6.91378">
        <ele>650.0</ele>
        <time>2022-06-19T08:16:52.110Z</time>
      </trkpt>
      <trkpt lat="43.20777833" lon="-6.91385833">
        <ele>651.0</ele>
        <time>2022-06-19T08:16:53.117Z</time>
      </trkpt>
      <trkpt lat="43.20777833" lon="-6.91385833">
        <ele>651.0</ele>
        <time>2022-06-19T08:16:54.130Z</time>
      </trkpt>
      <trkpt lat="43.20775333" lon="-6.91393667">
        <ele>651.0</ele>
        <time>2022-06-19T08:16:55.101Z</time>
      </trkpt>
      <trkpt lat="43.20775333" lon="-6.91393667">
        <ele>651.0</ele>
        <time>2022-06-19T08:16:56.126Z</time>
      </trkpt>
      <trkpt lat="43.20773833" lon="-6.91399667">
        <ele>652.0</ele>
        <time>2022-06-19T08:16:57.099Z</time>
      </trkpt>
      <trkpt lat="43.20772167" lon="-6.91402167">
        <ele>652.0</ele>
        <time>2022-06-19T08:16:58.098Z</time>
      </trkpt>
      <trkpt lat="43.20770667" lon="-6.91405">
        <ele>652.0</ele>
        <time>2022-06-19T08:16:59.116Z</time>
      </trkpt>
      <trkpt lat="43.20770667" lon="-6.91405">
        <ele>652.0</ele>
        <time>2022-06-19T08:17:00.127Z</time>
      </trkpt>
      <trkpt lat="43.20768833" lon="-6.9141">
        <ele>653.0</ele>
        <time>2022-06-19T08:17:01.094Z</time>
      </trkpt>
      <trkpt lat="43.20768833" lon="-6.9141">
        <ele>653.0</ele>
        <time>2022-06-19T08:17:02.117Z</time>
      </trkpt>
      <trkpt lat="43.20764667" lon="-6.91416167">
        <ele>653.0</ele>
        <time>2022-06-19T08:17:03.127Z</time>
      </trkpt>
      <trkpt lat="43.20762167" lon="-6.9142">
        <ele>654.0</ele>
        <time>2022-06-19T08:17:04.097Z</time>
      </trkpt>
      <trkpt lat="43.20762167" lon="-6.9142">
        <ele>654.0</ele>
        <time>2022-06-19T08:17:05.114Z</time>
      </trkpt>
      <trkpt lat="43.20758" lon="-6.91428833">
        <ele>655.0</ele>
        <time>2022-06-19T08:17:06.126Z</time>
      </trkpt>
      <trkpt lat="43.20755" lon="-6.91432">
        <ele>655.0</ele>
        <time>2022-06-19T08:17:07.098Z</time>
      </trkpt>
      <trkpt lat="43.20755" lon="-6.91432">
        <ele>655.0</ele>
        <time>2022-06-19T08:17:08.102Z</time>
      </trkpt>
      <trkpt lat="43.20748667" lon="-6.914375">
        <ele>655.0</ele>
        <time>2022-06-19T08:17:09.115Z</time>
      </trkpt>
      <trkpt lat="43.207455" lon="-6.91441333">
        <ele>655.0</ele>
        <time>2022-06-19T08:17:10.131Z</time>
      </trkpt>
      <trkpt lat="43.207455" lon="-6.91441333">
        <ele>655.0</ele>
        <time>2022-06-19T08:17:11.098Z</time>
      </trkpt>
      <trkpt lat="43.207405" lon="-6.91448167">
        <ele>656.0</ele>
        <time>2022-06-19T08:17:12.124Z</time>
      </trkpt>
      <trkpt lat="43.20738" lon="-6.91451667">
        <ele>656.0</ele>
        <time>2022-06-19T08:17:13.099Z</time>
      </trkpt>
      <trkpt lat="43.20738" lon="-6.91451667">
        <ele>656.0</ele>
        <time>2022-06-19T08:17:14.113Z</time>
      </trkpt>
      <trkpt lat="43.20733833" lon="-6.914585">
        <ele>656.0</ele>
        <time>2022-06-19T08:17:15.124Z</time>
      </trkpt>
      <trkpt lat="43.20732" lon="-6.91461333">
        <ele>656.0</ele>
        <time>2022-06-19T08:17:16.094Z</time>
      </trkpt>
      <trkpt lat="43.20732" lon="-6.91461333">
        <ele>656.0</ele>
        <time>2022-06-19T08:17:17.113Z</time>
      </trkpt>
      <trkpt lat="43.20728" lon="-6.91467333">
        <ele>657.0</ele>
        <time>2022-06-19T08:17:18.124Z</time>
      </trkpt>
      <trkpt lat="43.20726333" lon="-6.91470667">
        <ele>657.0</ele>
        <time>2022-06-19T08:17:19.101Z</time>
      </trkpt>
      <trkpt lat="43.20726333" lon="-6.91470667">
        <ele>657.0</ele>
        <time>2022-06-19T08:17:20.120Z</time>
      </trkpt>
      <trkpt lat="43.20722833" lon="-6.91477667">
        <ele>657.0</ele>
        <time>2022-06-19T08:17:21.105Z</time>
      </trkpt>
      <trkpt lat="43.20722833" lon="-6.91477667">
        <ele>657.0</ele>
        <time>2022-06-19T08:17:22.108Z</time>
      </trkpt>
      <trkpt lat="43.20719333" lon="-6.91484833">
        <ele>658.0</ele>
        <time>2022-06-19T08:17:23.116Z</time>
      </trkpt>
      <trkpt lat="43.20719333" lon="-6.91484833">
        <ele>658.0</ele>
        <time>2022-06-19T08:17:24.125Z</time>
      </trkpt>
      <trkpt lat="43.20715333" lon="-6.91491167">
        <ele>658.0</ele>
        <time>2022-06-19T08:17:25.095Z</time>
      </trkpt>
      <trkpt lat="43.20715333" lon="-6.91491167">
        <ele>658.0</ele>
        <time>2022-06-19T08:17:26.110Z</time>
      </trkpt>
      <trkpt lat="43.20712167" lon="-6.91496833">
        <ele>658.0</ele>
        <time>2022-06-19T08:17:27.117Z</time>
      </trkpt>
      <trkpt lat="43.20710833" lon="-6.914985">
        <ele>658.0</ele>
        <time>2022-06-19T08:17:28.092Z</time>
      </trkpt>
      <trkpt lat="43.20710833" lon="-6.914985">
        <ele>658.0</ele>
        <time>2022-06-19T08:17:29.109Z</time>
      </trkpt>
      <trkpt lat="43.20706833" lon="-6.915025">
        <ele>658.0</ele>
        <time>2022-06-19T08:17:30.116Z</time>
      </trkpt>
      <trkpt lat="43.20704667" lon="-6.91505333">
        <ele>658.0</ele>
        <time>2022-06-19T08:17:31.127Z</time>
      </trkpt>
      <trkpt lat="43.20704667" lon="-6.91505333">
        <ele>658.0</ele>
        <time>2022-06-19T08:17:32.110Z</time>
      </trkpt>
      <trkpt lat="43.20700333" lon="-6.91513">
        <ele>659.0</ele>
        <time>2022-06-19T08:17:33.095Z</time>
      </trkpt>
      <trkpt lat="43.20698333" lon="-6.91516833">
        <ele>659.0</ele>
        <time>2022-06-19T08:17:34.117Z</time>
      </trkpt>
      <trkpt lat="43.20698333" lon="-6.91516833">
        <ele>659.0</ele>
        <time>2022-06-19T08:17:35.131Z</time>
      </trkpt>
      <trkpt lat="43.20695333" lon="-6.915235">
        <ele>659.0</ele>
        <time>2022-06-19T08:17:36.100Z</time>
      </trkpt>
      <trkpt lat="43.20693833" lon="-6.91527">
        <ele>660.0</ele>
        <time>2022-06-19T08:17:37.117Z</time>
      </trkpt>
      <trkpt lat="43.20693833" lon="-6.91527">
        <ele>660.0</ele>
        <time>2022-06-19T08:17:38.096Z</time>
      </trkpt>
      <trkpt lat="43.20689667" lon="-6.91533667">
        <ele>660.0</ele>
        <time>2022-06-19T08:17:39.104Z</time>
      </trkpt>
      <trkpt lat="43.206875" lon="-6.91536833">
        <ele>660.0</ele>
        <time>2022-06-19T08:17:40.128Z</time>
      </trkpt>
      <trkpt lat="43.206875" lon="-6.91536833">
        <ele>660.0</ele>
        <time>2022-06-19T08:17:41.110Z</time>
      </trkpt>
      <trkpt lat="43.20683833" lon="-6.915445">
        <ele>660.0</ele>
        <time>2022-06-19T08:17:42.117Z</time>
      </trkpt>
      <trkpt lat="43.20682167" lon="-6.91548333">
        <ele>661.0</ele>
        <time>2022-06-19T08:17:43.131Z</time>
      </trkpt>
      <trkpt lat="43.20682167" lon="-6.91548333">
        <ele>661.0</ele>
        <time>2022-06-19T08:17:44.101Z</time>
      </trkpt>
      <trkpt lat="43.20677833" lon="-6.91557167">
        <ele>661.0</ele>
        <time>2022-06-19T08:17:45.108Z</time>
      </trkpt>
      <trkpt lat="43.20677833" lon="-6.91557167">
        <ele>661.0</ele>
        <time>2022-06-19T08:17:46.127Z</time>
      </trkpt>
      <trkpt lat="43.20672833" lon="-6.91567">
        <ele>662.0</ele>
        <time>2022-06-19T08:17:47.097Z</time>
      </trkpt>
      <trkpt lat="43.20670333" lon="-6.91571667">
        <ele>662.0</ele>
        <time>2022-06-19T08:17:48.128Z</time>
      </trkpt>
      <trkpt lat="43.20667667" lon="-6.91575667">
        <ele>662.0</ele>
        <time>2022-06-19T08:17:49.119Z</time>
      </trkpt>
      <trkpt lat="43.20667667" lon="-6.91575667">
        <ele>662.0</ele>
        <time>2022-06-19T08:17:50.128Z</time>
      </trkpt>
      <trkpt lat="43.20663833" lon="-6.91584">
        <ele>663.0</ele>
        <time>2022-06-19T08:17:51.110Z</time>
      </trkpt>
      <trkpt lat="43.20660833" lon="-6.91589">
        <ele>663.0</ele>
        <time>2022-06-19T08:17:52.124Z</time>
      </trkpt>
      <trkpt lat="43.20660833" lon="-6.91589">
        <ele>663.0</ele>
        <time>2022-06-19T08:17:53.097Z</time>
      </trkpt>
      <trkpt lat="43.20653667" lon="-6.91599833">
        <ele>663.0</ele>
        <time>2022-06-19T08:17:54.105Z</time>
      </trkpt>
      <trkpt lat="43.20653667" lon="-6.91599833">
        <ele>663.0</ele>
        <time>2022-06-19T08:17:55.122Z</time>
      </trkpt>
      <trkpt lat="43.206475" lon="-6.91610333">
        <ele>664.0</ele>
        <time>2022-06-19T08:17:56.120Z</time>
      </trkpt>
      <trkpt lat="43.206475" lon="-6.91610333">
        <ele>664.0</ele>
        <time>2022-06-19T08:17:57.116Z</time>
      </trkpt>
      <trkpt lat="43.20640833" lon="-6.91620667">
        <ele>664.0</ele>
        <time>2022-06-19T08:17:58.133Z</time>
      </trkpt>
      <trkpt lat="43.20637667" lon="-6.91625667">
        <ele>664.0</ele>
        <time>2022-06-19T08:17:59.104Z</time>
      </trkpt>
      <trkpt lat="43.20637667" lon="-6.91625667">
        <ele>664.0</ele>
        <time>2022-06-19T08:18:00.095Z</time>
      </trkpt>
      <trkpt lat="43.20631667" lon="-6.91634833">
        <ele>665.0</ele>
        <time>2022-06-19T08:18:01.116Z</time>
      </trkpt>
      <trkpt lat="43.20631667" lon="-6.91634833">
        <ele>665.0</ele>
        <time>2022-06-19T08:18:02.130Z</time>
      </trkpt>
      <trkpt lat="43.20626167" lon="-6.91644333">
        <ele>665.0</ele>
        <time>2022-06-19T08:18:03.096Z</time>
      </trkpt>
      <trkpt lat="43.206235" lon="-6.91648667">
        <ele>665.0</ele>
        <time>2022-06-19T08:18:04.131Z</time>
      </trkpt>
      <trkpt lat="43.206235" lon="-6.91648667">
        <ele>665.0</ele>
        <time>2022-06-19T08:18:05.127Z</time>
      </trkpt>
      <trkpt lat="43.20617833" lon="-6.91656833">
        <ele>665.0</ele>
        <time>2022-06-19T08:18:06.096Z</time>
      </trkpt>
      <trkpt lat="43.20615" lon="-6.91661667">
        <ele>665.0</ele>
        <time>2022-06-19T08:18:07.095Z</time>
      </trkpt>
      <trkpt lat="43.20615" lon="-6.91661667">
        <ele>665.0</ele>
        <time>2022-06-19T08:18:08.120Z</time>
      </trkpt>
      <trkpt lat="43.20610833" lon="-6.91670167">
        <ele>665.0</ele>
        <time>2022-06-19T08:18:09.127Z</time>
      </trkpt>
      <trkpt lat="43.20610833" lon="-6.91670167">
        <ele>665.0</ele>
        <time>2022-06-19T08:18:10.105Z</time>
      </trkpt>
      <trkpt lat="43.20605833" lon="-6.91676167">
        <ele>665.0</ele>
        <time>2022-06-19T08:18:11.113Z</time>
      </trkpt>
      <trkpt lat="43.20605833" lon="-6.91676167">
        <ele>665.0</ele>
        <time>2022-06-19T08:18:12.126Z</time>
      </trkpt>
      <trkpt lat="43.20600833" lon="-6.91680167">
        <ele>665.0</ele>
        <time>2022-06-19T08:18:13.136Z</time>
      </trkpt>
      <trkpt lat="43.20600833" lon="-6.91680167">
        <ele>665.0</ele>
        <time>2022-06-19T08:18:14.097Z</time>
      </trkpt>
      <trkpt lat="43.20595667" lon="-6.916855">
        <ele>665.0</ele>
        <time>2022-06-19T08:18:15.104Z</time>
      </trkpt>
      <trkpt lat="43.20593167" lon="-6.91688833">
        <ele>665.0</ele>
        <time>2022-06-19T08:18:16.119Z</time>
      </trkpt>
      <trkpt lat="43.20593167" lon="-6.91688833">
        <ele>665.0</ele>
        <time>2022-06-19T08:18:17.128Z</time>
      </trkpt>
      <trkpt lat="43.20587167" lon="-6.916965">
        <ele>665.0</ele>
        <time>2022-06-19T08:18:18.099Z</time>
      </trkpt>
      <trkpt lat="43.20584167" lon="-6.91701">
        <ele>665.0</ele>
        <time>2022-06-19T08:18:19.118Z</time>
      </trkpt>
      <trkpt lat="43.20584167" lon="-6.91701">
        <ele>665.0</ele>
        <time>2022-06-19T08:18:20.092Z</time>
      </trkpt>
      <trkpt lat="43.20576" lon="-6.91710667">
        <ele>665.0</ele>
        <time>2022-06-19T08:18:21.100Z</time>
      </trkpt>
      <trkpt lat="43.20576" lon="-6.91710667">
        <ele>665.0</ele>
        <time>2022-06-19T08:18:22.113Z</time>
      </trkpt>
      <trkpt lat="43.20568833" lon="-6.91719">
        <ele>666.0</ele>
        <time>2022-06-19T08:18:23.138Z</time>
      </trkpt>
      <trkpt lat="43.20568833" lon="-6.91719">
        <ele>666.0</ele>
        <time>2022-06-19T08:18:24.094Z</time>
      </trkpt>
      <trkpt lat="43.20562833" lon="-6.91726333">
        <ele>666.0</ele>
        <time>2022-06-19T08:18:25.100Z</time>
      </trkpt>
      <trkpt lat="43.20562833" lon="-6.91726333">
        <ele>666.0</ele>
        <time>2022-06-19T08:18:26.119Z</time>
      </trkpt>
      <trkpt lat="43.20556" lon="-6.91734333">
        <ele>666.0</ele>
        <time>2022-06-19T08:18:27.112Z</time>
      </trkpt>
      <trkpt lat="43.20556" lon="-6.91734333">
        <ele>666.0</ele>
        <time>2022-06-19T08:18:28.131Z</time>
      </trkpt>
      <trkpt lat="43.20549" lon="-6.91741667">
        <ele>666.0</ele>
        <time>2022-06-19T08:18:29.105Z</time>
      </trkpt>
      <trkpt lat="43.20546333" lon="-6.91744833">
        <ele>666.0</ele>
        <time>2022-06-19T08:18:30.117Z</time>
      </trkpt>
      <trkpt lat="43.20542333" lon="-6.91749">
        <ele>666.0</ele>
        <time>2022-06-19T08:18:31.098Z</time>
      </trkpt>
      <trkpt lat="43.20542333" lon="-6.91749">
        <ele>666.0</ele>
        <time>2022-06-19T08:18:32.111Z</time>
      </trkpt>
      <trkpt lat="43.20533333" lon="-6.91757">
        <ele>666.0</ele>
        <time>2022-06-19T08:18:33.123Z</time>
      </trkpt>
      <trkpt lat="43.20529" lon="-6.91760833">
        <ele>666.0</ele>
        <time>2022-06-19T08:18:34.102Z</time>
      </trkpt>
      <trkpt lat="43.20524333" lon="-6.91766333">
        <ele>666.0</ele>
        <time>2022-06-19T08:18:35.100Z</time>
      </trkpt>
      <trkpt lat="43.20524333" lon="-6.91766333">
        <ele>666.0</ele>
        <time>2022-06-19T08:18:36.120Z</time>
      </trkpt>
      <trkpt lat="43.20515333" lon="-6.91775333">
        <ele>666.0</ele>
        <time>2022-06-19T08:18:37.127Z</time>
      </trkpt>
      <trkpt lat="43.205095" lon="-6.9178">
        <ele>666.0</ele>
        <time>2022-06-19T08:18:38.110Z</time>
      </trkpt>
      <trkpt lat="43.205095" lon="-6.9178">
        <ele>666.0</ele>
        <time>2022-06-19T08:18:39.120Z</time>
      </trkpt>
      <trkpt lat="43.20502167" lon="-6.91787167">
        <ele>667.0</ele>
        <time>2022-06-19T08:18:40.131Z</time>
      </trkpt>
      <trkpt lat="43.20502167" lon="-6.91787167">
        <ele>667.0</ele>
        <time>2022-06-19T08:18:41.120Z</time>
      </trkpt>
      <trkpt lat="43.20495167" lon="-6.91791667">
        <ele>667.0</ele>
        <time>2022-06-19T08:18:42.140Z</time>
      </trkpt>
      <trkpt lat="43.20490333" lon="-6.917955">
        <ele>667.0</ele>
        <time>2022-06-19T08:18:43.127Z</time>
      </trkpt>
      <trkpt lat="43.20490333" lon="-6.917955">
        <ele>667.0</ele>
        <time>2022-06-19T08:18:44.112Z</time>
      </trkpt>
      <trkpt lat="43.20479833" lon="-6.918025">
        <ele>667.0</ele>
        <time>2022-06-19T08:18:45.108Z</time>
      </trkpt>
      <trkpt lat="43.20475" lon="-6.91806833">
        <ele>667.0</ele>
        <time>2022-06-19T08:18:46.119Z</time>
      </trkpt>
      <trkpt lat="43.20475" lon="-6.91806833">
        <ele>667.0</ele>
        <time>2022-06-19T08:18:47.132Z</time>
      </trkpt>
      <trkpt lat="43.204665" lon="-6.91816167">
        <ele>666.0</ele>
        <time>2022-06-19T08:18:48.103Z</time>
      </trkpt>
      <trkpt lat="43.204665" lon="-6.91816167">
        <ele>666.0</ele>
        <time>2022-06-19T08:18:49.117Z</time>
      </trkpt>
      <trkpt lat="43.20458833" lon="-6.91823333">
        <ele>667.0</ele>
        <time>2022-06-19T08:18:50.130Z</time>
      </trkpt>
      <trkpt lat="43.20458833" lon="-6.91823333">
        <ele>667.0</ele>
        <time>2022-06-19T08:18:51.100Z</time>
      </trkpt>
      <trkpt lat="43.204515" lon="-6.91828">
        <ele>667.0</ele>
        <time>2022-06-19T08:18:52.118Z</time>
      </trkpt>
      <trkpt lat="43.20447667" lon="-6.918305">
        <ele>667.0</ele>
        <time>2022-06-19T08:18:53.112Z</time>
      </trkpt>
      <trkpt lat="43.20442833" lon="-6.91834">
        <ele>667.0</ele>
        <time>2022-06-19T08:18:54.094Z</time>
      </trkpt>
      <trkpt lat="43.20442833" lon="-6.91834">
        <ele>667.0</ele>
        <time>2022-06-19T08:18:55.105Z</time>
      </trkpt>
      <trkpt lat="43.20436167" lon="-6.91838333">
        <ele>667.0</ele>
        <time>2022-06-19T08:18:56.114Z</time>
      </trkpt>
      <trkpt lat="43.20436167" lon="-6.91838333">
        <ele>667.0</ele>
        <time>2022-06-19T08:18:57.092Z</time>
      </trkpt>
      <trkpt lat="43.20427833" lon="-6.91841">
        <ele>667.0</ele>
        <time>2022-06-19T08:18:58.101Z</time>
      </trkpt>
      <trkpt lat="43.20424" lon="-6.91842333">
        <ele>667.0</ele>
        <time>2022-06-19T08:18:59.102Z</time>
      </trkpt>
      <trkpt lat="43.20424" lon="-6.91842333">
        <ele>667.0</ele>
        <time>2022-06-19T08:19:00.116Z</time>
      </trkpt>
      <trkpt lat="43.204175" lon="-6.91843833">
        <ele>668.0</ele>
        <time>2022-06-19T08:19:01.129Z</time>
      </trkpt>
      <trkpt lat="43.204175" lon="-6.91843833">
        <ele>668.0</ele>
        <time>2022-06-19T08:19:02.128Z</time>
      </trkpt>
      <trkpt lat="43.20410833" lon="-6.91847">
        <ele>668.0</ele>
        <time>2022-06-19T08:19:03.095Z</time>
      </trkpt>
      <trkpt lat="43.20410833" lon="-6.91847">
        <ele>668.0</ele>
        <time>2022-06-19T08:19:04.120Z</time>
      </trkpt>
      <trkpt lat="43.20403667" lon="-6.91849333">
        <ele>668.0</ele>
        <time>2022-06-19T08:19:05.128Z</time>
      </trkpt>
      <trkpt lat="43.204" lon="-6.918495">
        <ele>668.0</ele>
        <time>2022-06-19T08:19:06.101Z</time>
      </trkpt>
      <trkpt lat="43.204" lon="-6.918495">
        <ele>668.0</ele>
        <time>2022-06-19T08:19:07.109Z</time>
      </trkpt>
      <trkpt lat="43.20394667" lon="-6.91848833">
        <ele>667.0</ele>
        <time>2022-06-19T08:19:08.118Z</time>
      </trkpt>
      <trkpt lat="43.20394667" lon="-6.91848833">
        <ele>667.0</ele>
        <time>2022-06-19T08:19:09.129Z</time>
      </trkpt>
      <trkpt lat="43.203905" lon="-6.91850167">
        <ele>667.0</ele>
        <time>2022-06-19T08:19:10.103Z</time>
      </trkpt>
      <trkpt lat="43.20388833" lon="-6.918505">
        <ele>667.0</ele>
        <time>2022-06-19T08:19:11.117Z</time>
      </trkpt>
      <trkpt lat="43.20388833" lon="-6.918505">
        <ele>667.0</ele>
        <time>2022-06-19T08:19:12.129Z</time>
      </trkpt>
      <trkpt lat="43.20384667" lon="-6.91851667">
        <ele>667.0</ele>
        <time>2022-06-19T08:19:13.095Z</time>
      </trkpt>
      <trkpt lat="43.20384667" lon="-6.91851667">
        <ele>667.0</ele>
        <time>2022-06-19T08:19:14.111Z</time>
      </trkpt>
      <trkpt lat="43.20378" lon="-6.91852667">
        <ele>666.0</ele>
        <time>2022-06-19T08:19:15.102Z</time>
      </trkpt>
      <trkpt lat="43.20378" lon="-6.91852667">
        <ele>666.0</ele>
        <time>2022-06-19T08:19:16.095Z</time>
      </trkpt>
      <trkpt lat="43.20373167" lon="-6.91852833">
        <ele>666.0</ele>
        <time>2022-06-19T08:19:17.104Z</time>
      </trkpt>
      <trkpt lat="43.20373167" lon="-6.91852833">
        <ele>666.0</ele>
        <time>2022-06-19T08:19:18.092Z</time>
      </trkpt>
      <trkpt lat="43.20367667" lon="-6.91853">
        <ele>666.0</ele>
        <time>2022-06-19T08:19:19.103Z</time>
      </trkpt>
      <trkpt lat="43.20367667" lon="-6.91853">
        <ele>666.0</ele>
        <time>2022-06-19T08:19:20.118Z</time>
      </trkpt>
      <trkpt lat="43.20361167" lon="-6.91854333">
        <ele>666.0</ele>
        <time>2022-06-19T08:19:21.111Z</time>
      </trkpt>
      <trkpt lat="43.20361167" lon="-6.91854333">
        <ele>666.0</ele>
        <time>2022-06-19T08:19:22.098Z</time>
      </trkpt>
      <trkpt lat="43.20355" lon="-6.918555">
        <ele>666.0</ele>
        <time>2022-06-19T08:19:23.105Z</time>
      </trkpt>
      <trkpt lat="43.203515" lon="-6.91855333">
        <ele>666.0</ele>
        <time>2022-06-19T08:19:24.142Z</time>
      </trkpt>
      <trkpt lat="43.20349167" lon="-6.91855833">
        <ele>666.0</ele>
        <time>2022-06-19T08:19:25.114Z</time>
      </trkpt>
      <trkpt lat="43.20349167" lon="-6.91855833">
        <ele>666.0</ele>
        <time>2022-06-19T08:19:26.122Z</time>
      </trkpt>
      <trkpt lat="43.203435" lon="-6.918575">
        <ele>666.0</ele>
        <time>2022-06-19T08:19:27.130Z</time>
      </trkpt>
      <trkpt lat="43.203435" lon="-6.918575">
        <ele>666.0</ele>
        <time>2022-06-19T08:19:28.102Z</time>
      </trkpt>
      <trkpt lat="43.20337167" lon="-6.91859167">
        <ele>665.0</ele>
        <time>2022-06-19T08:19:29.127Z</time>
      </trkpt>
      <trkpt lat="43.203345" lon="-6.91860167">
        <ele>665.0</ele>
        <time>2022-06-19T08:19:30.117Z</time>
      </trkpt>
      <trkpt lat="43.203315" lon="-6.91861167">
        <ele>665.0</ele>
        <time>2022-06-19T08:19:31.131Z</time>
      </trkpt>
      <trkpt lat="43.203315" lon="-6.91861167">
        <ele>665.0</ele>
        <time>2022-06-19T08:19:32.126Z</time>
      </trkpt>
      <trkpt lat="43.20324833" lon="-6.918625">
        <ele>665.0</ele>
        <time>2022-06-19T08:19:33.097Z</time>
      </trkpt>
      <trkpt lat="43.20322" lon="-6.918625">
        <ele>665.0</ele>
        <time>2022-06-19T08:19:34.121Z</time>
      </trkpt>
      <trkpt lat="43.20322" lon="-6.918625">
        <ele>665.0</ele>
        <time>2022-06-19T08:19:35.131Z</time>
      </trkpt>
      <trkpt lat="43.20316333" lon="-6.91863">
        <ele>665.0</ele>
        <time>2022-06-19T08:19:36.114Z</time>
      </trkpt>
      <trkpt lat="43.203135" lon="-6.91863333">
        <ele>665.0</ele>
        <time>2022-06-19T08:19:37.099Z</time>
      </trkpt>
      <trkpt lat="43.203135" lon="-6.91863333">
        <ele>665.0</ele>
        <time>2022-06-19T08:19:38.123Z</time>
      </trkpt>
      <trkpt lat="43.20308" lon="-6.918645">
        <ele>665.0</ele>
        <time>2022-06-19T08:19:39.132Z</time>
      </trkpt>
      <trkpt lat="43.203045" lon="-6.918655">
        <ele>665.0</ele>
        <time>2022-06-19T08:19:40.109Z</time>
      </trkpt>
      <trkpt lat="43.203045" lon="-6.918655">
        <ele>665.0</ele>
        <time>2022-06-19T08:19:41.121Z</time>
      </trkpt>
      <trkpt lat="43.20297667" lon="-6.91867">
        <ele>665.0</ele>
        <time>2022-06-19T08:19:42.100Z</time>
      </trkpt>
      <trkpt lat="43.20297667" lon="-6.91867">
        <ele>665.0</ele>
        <time>2022-06-19T08:19:43.100Z</time>
      </trkpt>
      <trkpt lat="43.20291667" lon="-6.91869667">
        <ele>665.0</ele>
        <time>2022-06-19T08:19:44.130Z</time>
      </trkpt>
      <trkpt lat="43.20291667" lon="-6.91869667">
        <ele>665.0</ele>
        <time>2022-06-19T08:19:45.103Z</time>
      </trkpt>
      <trkpt lat="43.20285667" lon="-6.91873333">
        <ele>664.0</ele>
        <time>2022-06-19T08:19:46.110Z</time>
      </trkpt>
      <trkpt lat="43.20283" lon="-6.91874667">
        <ele>664.0</ele>
        <time>2022-06-19T08:19:47.099Z</time>
      </trkpt>
      <trkpt lat="43.20283" lon="-6.91874667">
        <ele>664.0</ele>
        <time>2022-06-19T08:19:48.118Z</time>
      </trkpt>
      <trkpt lat="43.20277833" lon="-6.91876333">
        <ele>664.0</ele>
        <time>2022-06-19T08:19:49.126Z</time>
      </trkpt>
      <trkpt lat="43.20274333" lon="-6.918785">
        <ele>664.0</ele>
        <time>2022-06-19T08:19:50.109Z</time>
      </trkpt>
      <trkpt lat="43.20274333" lon="-6.918785">
        <ele>664.0</ele>
        <time>2022-06-19T08:19:51.109Z</time>
      </trkpt>
      <trkpt lat="43.20267167" lon="-6.91882667">
        <ele>665.0</ele>
        <time>2022-06-19T08:19:52.119Z</time>
      </trkpt>
      <trkpt lat="43.20264167" lon="-6.91883833">
        <ele>665.0</ele>
        <time>2022-06-19T08:19:53.120Z</time>
      </trkpt>
      <trkpt lat="43.20264167" lon="-6.91883833">
        <ele>665.0</ele>
        <time>2022-06-19T08:19:54.109Z</time>
      </trkpt>
      <trkpt lat="43.20259833" lon="-6.91885833">
        <ele>665.0</ele>
        <time>2022-06-19T08:19:55.116Z</time>
      </trkpt>
      <trkpt lat="43.20259833" lon="-6.91885833">
        <ele>665.0</ele>
        <time>2022-06-19T08:19:56.092Z</time>
      </trkpt>
      <trkpt lat="43.20255667" lon="-6.91889167">
        <ele>666.0</ele>
        <time>2022-06-19T08:19:57.099Z</time>
      </trkpt>
      <trkpt lat="43.20251167" lon="-6.91891833">
        <ele>666.0</ele>
        <time>2022-06-19T08:19:58.115Z</time>
      </trkpt>
      <trkpt lat="43.20251167" lon="-6.91891833">
        <ele>666.0</ele>
        <time>2022-06-19T08:19:59.095Z</time>
      </trkpt>
      <trkpt lat="43.20243833" lon="-6.91896667">
        <ele>666.0</ele>
        <time>2022-06-19T08:20:00.118Z</time>
      </trkpt>
      <trkpt lat="43.20240167" lon="-6.91899">
        <ele>666.0</ele>
        <time>2022-06-19T08:20:01.101Z</time>
      </trkpt>
      <trkpt lat="43.20240167" lon="-6.91899">
        <ele>666.0</ele>
        <time>2022-06-19T08:20:02.112Z</time>
      </trkpt>
      <trkpt lat="43.20234" lon="-6.919035">
        <ele>667.0</ele>
        <time>2022-06-19T08:20:03.100Z</time>
      </trkpt>
      <trkpt lat="43.20234" lon="-6.919035">
        <ele>667.0</ele>
        <time>2022-06-19T08:20:04.103Z</time>
      </trkpt>
      <trkpt lat="43.202285" lon="-6.91908667">
        <ele>667.0</ele>
        <time>2022-06-19T08:20:05.112Z</time>
      </trkpt>
      <trkpt lat="43.202285" lon="-6.91908667">
        <ele>667.0</ele>
        <time>2022-06-19T08:20:06.127Z</time>
      </trkpt>
      <trkpt lat="43.20223333" lon="-6.919135">
        <ele>667.0</ele>
        <time>2022-06-19T08:20:07.095Z</time>
      </trkpt>
      <trkpt lat="43.20220667" lon="-6.91916">
        <ele>667.0</ele>
        <time>2022-06-19T08:20:08.102Z</time>
      </trkpt>
      <trkpt lat="43.20220667" lon="-6.91916">
        <ele>667.0</ele>
        <time>2022-06-19T08:20:09.126Z</time>
      </trkpt>
      <trkpt lat="43.20215333" lon="-6.919215">
        <ele>667.0</ele>
        <time>2022-06-19T08:20:10.095Z</time>
      </trkpt>
      <trkpt lat="43.20211667" lon="-6.91924833">
        <ele>667.0</ele>
        <time>2022-06-19T08:20:11.115Z</time>
      </trkpt>
      <trkpt lat="43.20211667" lon="-6.91924833">
        <ele>667.0</ele>
        <time>2022-06-19T08:20:12.125Z</time>
      </trkpt>
      <trkpt lat="43.20204333" lon="-6.91931">
        <ele>667.0</ele>
        <time>2022-06-19T08:20:13.120Z</time>
      </trkpt>
      <trkpt lat="43.20204333" lon="-6.91931">
        <ele>667.0</ele>
        <time>2022-06-19T08:20:14.112Z</time>
      </trkpt>
      <trkpt lat="43.20198" lon="-6.91936333">
        <ele>667.0</ele>
        <time>2022-06-19T08:20:15.122Z</time>
      </trkpt>
      <trkpt lat="43.20198" lon="-6.91936333">
        <ele>667.0</ele>
        <time>2022-06-19T08:20:16.109Z</time>
      </trkpt>
      <trkpt lat="43.20192667" lon="-6.91941833">
        <ele>667.0</ele>
        <time>2022-06-19T08:20:17.118Z</time>
      </trkpt>
      <trkpt lat="43.20192667" lon="-6.91941833">
        <ele>667.0</ele>
        <time>2022-06-19T08:20:18.100Z</time>
      </trkpt>
      <trkpt lat="43.20188" lon="-6.919475">
        <ele>667.0</ele>
        <time>2022-06-19T08:20:19.099Z</time>
      </trkpt>
      <trkpt lat="43.20188" lon="-6.919475">
        <ele>667.0</ele>
        <time>2022-06-19T08:20:20.129Z</time>
      </trkpt>
      <trkpt lat="43.20184333" lon="-6.91954">
        <ele>668.0</ele>
        <time>2022-06-19T08:20:21.095Z</time>
      </trkpt>
      <trkpt lat="43.20184333" lon="-6.91954">
        <ele>668.0</ele>
        <time>2022-06-19T08:20:22.113Z</time>
      </trkpt>
      <trkpt lat="43.20180333" lon="-6.91959833">
        <ele>668.0</ele>
        <time>2022-06-19T08:20:23.121Z</time>
      </trkpt>
      <trkpt lat="43.20180333" lon="-6.91959833">
        <ele>668.0</ele>
        <time>2022-06-19T08:20:24.100Z</time>
      </trkpt>
      <trkpt lat="43.201765" lon="-6.91965333">
        <ele>668.0</ele>
        <time>2022-06-19T08:20:25.108Z</time>
      </trkpt>
      <trkpt lat="43.201765" lon="-6.91965333">
        <ele>668.0</ele>
        <time>2022-06-19T08:20:26.112Z</time>
      </trkpt>
      <trkpt lat="43.201725" lon="-6.91970333">
        <ele>668.0</ele>
        <time>2022-06-19T08:20:27.119Z</time>
      </trkpt>
      <trkpt lat="43.201705" lon="-6.919725">
        <ele>668.0</ele>
        <time>2022-06-19T08:20:28.103Z</time>
      </trkpt>
      <trkpt lat="43.201705" lon="-6.919725">
        <ele>668.0</ele>
        <time>2022-06-19T08:20:29.110Z</time>
      </trkpt>
      <trkpt lat="43.20167" lon="-6.91977667">
        <ele>669.0</ele>
        <time>2022-06-19T08:20:30.128Z</time>
      </trkpt>
      <trkpt lat="43.20165333" lon="-6.91980167">
        <ele>669.0</ele>
        <time>2022-06-19T08:20:31.102Z</time>
      </trkpt>
      <trkpt lat="43.20165333" lon="-6.91980167">
        <ele>669.0</ele>
        <time>2022-06-19T08:20:32.116Z</time>
      </trkpt>
      <trkpt lat="43.20162" lon="-6.91984833">
        <ele>669.0</ele>
        <time>2022-06-19T08:20:33.125Z</time>
      </trkpt>
      <trkpt lat="43.20162" lon="-6.91984833">
        <ele>669.0</ele>
        <time>2022-06-19T08:20:34.101Z</time>
      </trkpt>
      <trkpt lat="43.201585" lon="-6.91989833">
        <ele>670.0</ele>
        <time>2022-06-19T08:20:35.111Z</time>
      </trkpt>
      <trkpt lat="43.201585" lon="-6.91989833">
        <ele>670.0</ele>
        <time>2022-06-19T08:20:36.118Z</time>
      </trkpt>
      <trkpt lat="43.20155167" lon="-6.91995">
        <ele>670.0</ele>
        <time>2022-06-19T08:20:37.093Z</time>
      </trkpt>
      <trkpt lat="43.20155167" lon="-6.91995">
        <ele>670.0</ele>
        <time>2022-06-19T08:20:38.115Z</time>
      </trkpt>
      <trkpt lat="43.201515" lon="-6.92">
        <ele>670.0</ele>
        <time>2022-06-19T08:20:39.128Z</time>
      </trkpt>
      <trkpt lat="43.201515" lon="-6.92">
        <ele>670.0</ele>
        <time>2022-06-19T08:20:40.105Z</time>
      </trkpt>
      <trkpt lat="43.20147833" lon="-6.92005">
        <ele>670.0</ele>
        <time>2022-06-19T08:20:41.114Z</time>
      </trkpt>
      <trkpt lat="43.20147833" lon="-6.92005">
        <ele>670.0</ele>
        <time>2022-06-19T08:20:42.124Z</time>
      </trkpt>
      <trkpt lat="43.201445" lon="-6.92010833">
        <ele>670.0</ele>
        <time>2022-06-19T08:20:43.099Z</time>
      </trkpt>
      <trkpt lat="43.201445" lon="-6.92010833">
        <ele>670.0</ele>
        <time>2022-06-19T08:20:44.123Z</time>
      </trkpt>
      <trkpt lat="43.20141" lon="-6.92016667">
        <ele>670.0</ele>
        <time>2022-06-19T08:20:45.130Z</time>
      </trkpt>
      <trkpt lat="43.20141" lon="-6.92016667">
        <ele>670.0</ele>
        <time>2022-06-19T08:20:46.113Z</time>
      </trkpt>
      <trkpt lat="43.20137833" lon="-6.92022167">
        <ele>670.0</ele>
        <time>2022-06-19T08:20:47.119Z</time>
      </trkpt>
      <trkpt lat="43.20137833" lon="-6.92022167">
        <ele>670.0</ele>
        <time>2022-06-19T08:20:48.131Z</time>
      </trkpt>
      <trkpt lat="43.20134333" lon="-6.92027">
        <ele>670.0</ele>
        <time>2022-06-19T08:20:49.117Z</time>
      </trkpt>
      <trkpt lat="43.20134333" lon="-6.92027">
        <ele>670.0</ele>
        <time>2022-06-19T08:20:50.129Z</time>
      </trkpt>
      <trkpt lat="43.201305" lon="-6.92032167">
        <ele>670.0</ele>
        <time>2022-06-19T08:20:51.120Z</time>
      </trkpt>
      <trkpt lat="43.201305" lon="-6.92032167">
        <ele>670.0</ele>
        <time>2022-06-19T08:20:52.097Z</time>
      </trkpt>
      <trkpt lat="43.20126833" lon="-6.92037333">
        <ele>670.0</ele>
        <time>2022-06-19T08:20:53.104Z</time>
      </trkpt>
      <trkpt lat="43.20126833" lon="-6.92037333">
        <ele>670.0</ele>
        <time>2022-06-19T08:20:54.094Z</time>
      </trkpt>
      <trkpt lat="43.20123333" lon="-6.92042667">
        <ele>670.0</ele>
        <time>2022-06-19T08:20:55.102Z</time>
      </trkpt>
      <trkpt lat="43.20123333" lon="-6.92042667">
        <ele>670.0</ele>
        <time>2022-06-19T08:20:56.129Z</time>
      </trkpt>
      <trkpt lat="43.20119833" lon="-6.92048">
        <ele>670.0</ele>
        <time>2022-06-19T08:20:57.096Z</time>
      </trkpt>
      <trkpt lat="43.20119833" lon="-6.92048">
        <ele>670.0</ele>
        <time>2022-06-19T08:20:58.112Z</time>
      </trkpt>
      <trkpt lat="43.20116167" lon="-6.92053167">
        <ele>670.0</ele>
        <time>2022-06-19T08:20:59.126Z</time>
      </trkpt>
      <trkpt lat="43.20116167" lon="-6.92053167">
        <ele>670.0</ele>
        <time>2022-06-19T08:21:00.103Z</time>
      </trkpt>
      <trkpt lat="43.20112667" lon="-6.920585">
        <ele>670.0</ele>
        <time>2022-06-19T08:21:01.101Z</time>
      </trkpt>
      <trkpt lat="43.20112667" lon="-6.920585">
        <ele>670.0</ele>
        <time>2022-06-19T08:21:02.105Z</time>
      </trkpt>
      <trkpt lat="43.20109333" lon="-6.92063667">
        <ele>671.0</ele>
        <time>2022-06-19T08:21:03.113Z</time>
      </trkpt>
      <trkpt lat="43.201075" lon="-6.92066167">
        <ele>671.0</ele>
        <time>2022-06-19T08:21:04.092Z</time>
      </trkpt>
      <trkpt lat="43.201075" lon="-6.92066167">
        <ele>671.0</ele>
        <time>2022-06-19T08:21:05.115Z</time>
      </trkpt>
      <trkpt lat="43.20103833" lon="-6.92070833">
        <ele>671.0</ele>
        <time>2022-06-19T08:21:06.122Z</time>
      </trkpt>
      <trkpt lat="43.20102167" lon="-6.92073333">
        <ele>671.0</ele>
        <time>2022-06-19T08:21:07.096Z</time>
      </trkpt>
      <trkpt lat="43.20102167" lon="-6.92073333">
        <ele>671.0</ele>
        <time>2022-06-19T08:21:08.115Z</time>
      </trkpt>
      <trkpt lat="43.20098667" lon="-6.92077833">
        <ele>671.0</ele>
        <time>2022-06-19T08:21:09.126Z</time>
      </trkpt>
      <trkpt lat="43.20098667" lon="-6.92077833">
        <ele>671.0</ele>
        <time>2022-06-19T08:21:10.102Z</time>
      </trkpt>
      <trkpt lat="43.20095" lon="-6.92082">
        <ele>672.0</ele>
        <time>2022-06-19T08:21:11.138Z</time>
      </trkpt>
      <trkpt lat="43.20095" lon="-6.92082">
        <ele>672.0</ele>
        <time>2022-06-19T08:21:12.092Z</time>
      </trkpt>
      <trkpt lat="43.20091833" lon="-6.920865">
        <ele>672.0</ele>
        <time>2022-06-19T08:21:13.098Z</time>
      </trkpt>
      <trkpt lat="43.20091833" lon="-6.920865">
        <ele>672.0</ele>
        <time>2022-06-19T08:21:14.114Z</time>
      </trkpt>
      <trkpt lat="43.20088667" lon="-6.92090833">
        <ele>673.0</ele>
        <time>2022-06-19T08:21:15.126Z</time>
      </trkpt>
      <trkpt lat="43.20088667" lon="-6.92090833">
        <ele>673.0</ele>
        <time>2022-06-19T08:21:16.096Z</time>
      </trkpt>
      <trkpt lat="43.20086167" lon="-6.92094833">
        <ele>673.0</ele>
        <time>2022-06-19T08:21:17.114Z</time>
      </trkpt>
      <trkpt lat="43.20086167" lon="-6.92094833">
        <ele>673.0</ele>
        <time>2022-06-19T08:21:18.097Z</time>
      </trkpt>
      <trkpt lat="43.20083333" lon="-6.92098">
        <ele>673.0</ele>
        <time>2022-06-19T08:21:19.105Z</time>
      </trkpt>
      <trkpt lat="43.20083333" lon="-6.92098">
        <ele>673.0</ele>
        <time>2022-06-19T08:21:20.117Z</time>
      </trkpt>
      <trkpt lat="43.20080667" lon="-6.92101167">
        <ele>674.0</ele>
        <time>2022-06-19T08:21:21.124Z</time>
      </trkpt>
      <trkpt lat="43.20080667" lon="-6.92101167">
        <ele>674.0</ele>
        <time>2022-06-19T08:21:22.101Z</time>
      </trkpt>
      <trkpt lat="43.20078" lon="-6.921045">
        <ele>674.0</ele>
        <time>2022-06-19T08:21:23.097Z</time>
      </trkpt>
      <trkpt lat="43.20078" lon="-6.921045">
        <ele>674.0</ele>
        <time>2022-06-19T08:21:24.106Z</time>
      </trkpt>
      <trkpt lat="43.20075167" lon="-6.921075">
        <ele>675.0</ele>
        <time>2022-06-19T08:21:25.114Z</time>
      </trkpt>
      <trkpt lat="43.20073833" lon="-6.92108833">
        <ele>675.0</ele>
        <time>2022-06-19T08:21:26.132Z</time>
      </trkpt>
      <trkpt lat="43.20073833" lon="-6.92108833">
        <ele>675.0</ele>
        <time>2022-06-19T08:21:27.100Z</time>
      </trkpt>
      <trkpt lat="43.20071167" lon="-6.92111667">
        <ele>675.0</ele>
        <time>2022-06-19T08:21:28.127Z</time>
      </trkpt>
      <trkpt lat="43.20071167" lon="-6.92111667">
        <ele>675.0</ele>
        <time>2022-06-19T08:21:29.131Z</time>
      </trkpt>
      <trkpt lat="43.20068833" lon="-6.921145">
        <ele>676.0</ele>
        <time>2022-06-19T08:21:30.101Z</time>
      </trkpt>
      <trkpt lat="43.20067833" lon="-6.92116">
        <ele>676.0</ele>
        <time>2022-06-19T08:21:31.113Z</time>
      </trkpt>
      <trkpt lat="43.20067833" lon="-6.92116">
        <ele>676.0</ele>
        <time>2022-06-19T08:21:32.126Z</time>
      </trkpt>
      <trkpt lat="43.20066167" lon="-6.92118833">
        <ele>676.0</ele>
        <time>2022-06-19T08:21:33.096Z</time>
      </trkpt>
      <trkpt lat="43.20065167" lon="-6.9212">
        <ele>676.0</ele>
        <time>2022-06-19T08:21:34.117Z</time>
      </trkpt>
      <trkpt lat="43.20065167" lon="-6.9212">
        <ele>676.0</ele>
        <time>2022-06-19T08:21:35.129Z</time>
      </trkpt>
      <trkpt lat="43.200625" lon="-6.92122">
        <ele>677.0</ele>
        <time>2022-06-19T08:21:36.096Z</time>
      </trkpt>
      <trkpt lat="43.200625" lon="-6.92122">
        <ele>677.0</ele>
        <time>2022-06-19T08:21:37.117Z</time>
      </trkpt>
      <trkpt lat="43.20060167" lon="-6.921235">
        <ele>677.0</ele>
        <time>2022-06-19T08:21:38.115Z</time>
      </trkpt>
      <trkpt lat="43.20060167" lon="-6.921235">
        <ele>677.0</ele>
        <time>2022-06-19T08:21:39.113Z</time>
      </trkpt>
      <trkpt lat="43.20058167" lon="-6.92125833">
        <ele>677.0</ele>
        <time>2022-06-19T08:21:40.122Z</time>
      </trkpt>
      <trkpt lat="43.20057333" lon="-6.92127167">
        <ele>678.0</ele>
        <time>2022-06-19T08:21:41.095Z</time>
      </trkpt>
      <trkpt lat="43.20057333" lon="-6.92127167">
        <ele>678.0</ele>
        <time>2022-06-19T08:21:42.105Z</time>
      </trkpt>
      <trkpt lat="43.20055333" lon="-6.92130833">
        <ele>678.0</ele>
        <time>2022-06-19T08:21:43.123Z</time>
      </trkpt>
      <trkpt lat="43.20055333" lon="-6.92130833">
        <ele>678.0</ele>
        <time>2022-06-19T08:21:44.099Z</time>
      </trkpt>
      <trkpt lat="43.200535" lon="-6.92133833">
        <ele>678.0</ele>
        <time>2022-06-19T08:21:45.106Z</time>
      </trkpt>
      <trkpt lat="43.20051833" lon="-6.92134667">
        <ele>678.0</ele>
        <time>2022-06-19T08:21:46.134Z</time>
      </trkpt>
      <trkpt lat="43.20051833" lon="-6.92134667">
        <ele>678.0</ele>
        <time>2022-06-19T08:21:47.112Z</time>
      </trkpt>
      <trkpt lat="43.20049167" lon="-6.92136833">
        <ele>678.0</ele>
        <time>2022-06-19T08:21:48.093Z</time>
      </trkpt>
      <trkpt lat="43.20048167" lon="-6.921385">
        <ele>679.0</ele>
        <time>2022-06-19T08:21:49.118Z</time>
      </trkpt>
      <trkpt lat="43.20047333" lon="-6.9214">
        <ele>679.0</ele>
        <time>2022-06-19T08:21:50.101Z</time>
      </trkpt>
      <trkpt lat="43.20047333" lon="-6.9214">
        <ele>679.0</ele>
        <time>2022-06-19T08:21:51.129Z</time>
      </trkpt>
      <trkpt lat="43.20044833" lon="-6.92142333">
        <ele>679.0</ele>
        <time>2022-06-19T08:21:52.098Z</time>
      </trkpt>
      <trkpt lat="43.20043667" lon="-6.921435">
        <ele>679.0</ele>
        <time>2022-06-19T08:21:53.116Z</time>
      </trkpt>
      <trkpt lat="43.20043667" lon="-6.921435">
        <ele>679.0</ele>
        <time>2022-06-19T08:21:54.126Z</time>
      </trkpt>
      <trkpt lat="43.20041167" lon="-6.92146167">
        <ele>679.0</ele>
        <time>2022-06-19T08:21:55.096Z</time>
      </trkpt>
      <trkpt lat="43.20041167" lon="-6.92146167">
        <ele>679.0</ele>
        <time>2022-06-19T08:21:56.115Z</time>
      </trkpt>
      <trkpt lat="43.20039167" lon="-6.921495">
        <ele>679.0</ele>
        <time>2022-06-19T08:21:57.121Z</time>
      </trkpt>
      <trkpt lat="43.20038333" lon="-6.92151333">
        <ele>679.0</ele>
        <time>2022-06-19T08:21:58.111Z</time>
      </trkpt>
      <trkpt lat="43.20038333" lon="-6.92151333">
        <ele>679.0</ele>
        <time>2022-06-19T08:21:59.102Z</time>
      </trkpt>
      <trkpt lat="43.20036333" lon="-6.92154">
        <ele>679.0</ele>
        <time>2022-06-19T08:22:00.110Z</time>
      </trkpt>
      <trkpt lat="43.200345" lon="-6.92154833">
        <ele>679.0</ele>
        <time>2022-06-19T08:22:01.097Z</time>
      </trkpt>
      <trkpt lat="43.200345" lon="-6.92154833">
        <ele>679.0</ele>
        <time>2022-06-19T08:22:02.113Z</time>
      </trkpt>
      <trkpt lat="43.20031" lon="-6.92158333">
        <ele>678.0</ele>
        <time>2022-06-19T08:22:03.096Z</time>
      </trkpt>
      <trkpt lat="43.20029" lon="-6.9216">
        <ele>678.0</ele>
        <time>2022-06-19T08:22:04.120Z</time>
      </trkpt>
      <trkpt lat="43.20029" lon="-6.9216">
        <ele>678.0</ele>
        <time>2022-06-19T08:22:05.131Z</time>
      </trkpt>
      <trkpt lat="43.20027167" lon="-6.921625">
        <ele>678.0</ele>
        <time>2022-06-19T08:22:06.100Z</time>
      </trkpt>
      <trkpt lat="43.20027167" lon="-6.921625">
        <ele>678.0</ele>
        <time>2022-06-19T08:22:07.130Z</time>
      </trkpt>
      <trkpt lat="43.20024333" lon="-6.92163167">
        <ele>678.0</ele>
        <time>2022-06-19T08:22:08.092Z</time>
      </trkpt>
      <trkpt lat="43.20024333" lon="-6.92163167">
        <ele>678.0</ele>
        <time>2022-06-19T08:22:09.107Z</time>
      </trkpt>
      <trkpt lat="43.20019667" lon="-6.92163167">
        <ele>677.0</ele>
        <time>2022-06-19T08:22:10.115Z</time>
      </trkpt>
      <trkpt lat="43.20019667" lon="-6.92163167">
        <ele>677.0</ele>
        <time>2022-06-19T08:22:11.092Z</time>
      </trkpt>
      <trkpt lat="43.20013333" lon="-6.921635">
        <ele>677.0</ele>
        <time>2022-06-19T08:22:12.101Z</time>
      </trkpt>
      <trkpt lat="43.2001" lon="-6.92164167">
        <ele>677.0</ele>
        <time>2022-06-19T08:22:13.124Z</time>
      </trkpt>
      <trkpt lat="43.2001" lon="-6.92164167">
        <ele>677.0</ele>
        <time>2022-06-19T08:22:14.102Z</time>
      </trkpt>
      <trkpt lat="43.20003833" lon="-6.92167167">
        <ele>677.0</ele>
        <time>2022-06-19T08:22:15.113Z</time>
      </trkpt>
      <trkpt lat="43.20000667" lon="-6.92167833">
        <ele>677.0</ele>
        <time>2022-06-19T08:22:16.130Z</time>
      </trkpt>
      <trkpt lat="43.20000667" lon="-6.92167833">
        <ele>677.0</ele>
        <time>2022-06-19T08:22:17.104Z</time>
      </trkpt>
      <trkpt lat="43.19993333" lon="-6.92168833">
        <ele>677.0</ele>
        <time>2022-06-19T08:22:18.131Z</time>
      </trkpt>
      <trkpt lat="43.199895" lon="-6.921695">
        <ele>676.0</ele>
        <time>2022-06-19T08:22:19.098Z</time>
      </trkpt>
      <trkpt lat="43.199895" lon="-6.921695">
        <ele>676.0</ele>
        <time>2022-06-19T08:22:20.129Z</time>
      </trkpt>
      <trkpt lat="43.19982" lon="-6.921705">
        <ele>676.0</ele>
        <time>2022-06-19T08:22:21.103Z</time>
      </trkpt>
      <trkpt lat="43.19982" lon="-6.921705">
        <ele>676.0</ele>
        <time>2022-06-19T08:22:22.118Z</time>
      </trkpt>
      <trkpt lat="43.19973833" lon="-6.92171167">
        <ele>676.0</ele>
        <time>2022-06-19T08:22:23.126Z</time>
      </trkpt>
      <trkpt lat="43.19969667" lon="-6.92172167">
        <ele>676.0</ele>
        <time>2022-06-19T08:22:24.098Z</time>
      </trkpt>
      <trkpt lat="43.199655" lon="-6.92173">
        <ele>675.0</ele>
        <time>2022-06-19T08:22:25.112Z</time>
      </trkpt>
      <trkpt lat="43.199655" lon="-6.92173">
        <ele>675.0</ele>
        <time>2022-06-19T08:22:26.130Z</time>
      </trkpt>
      <trkpt lat="43.19956833" lon="-6.92175667">
        <ele>675.0</ele>
        <time>2022-06-19T08:22:27.104Z</time>
      </trkpt>
      <trkpt lat="43.19952667" lon="-6.92177333">
        <ele>675.0</ele>
        <time>2022-06-19T08:22:28.120Z</time>
      </trkpt>
      <trkpt lat="43.19952667" lon="-6.92177333">
        <ele>675.0</ele>
        <time>2022-06-19T08:22:29.105Z</time>
      </trkpt>
      <trkpt lat="43.19943333" lon="-6.92181833">
        <ele>674.0</ele>
        <time>2022-06-19T08:22:30.113Z</time>
      </trkpt>
      <trkpt lat="43.19943333" lon="-6.92181833">
        <ele>674.0</ele>
        <time>2022-06-19T08:22:31.119Z</time>
      </trkpt>
      <trkpt lat="43.19933667" lon="-6.92187167">
        <ele>674.0</ele>
        <time>2022-06-19T08:22:32.128Z</time>
      </trkpt>
      <trkpt lat="43.19929167" lon="-6.921895">
        <ele>674.0</ele>
        <time>2022-06-19T08:22:33.107Z</time>
      </trkpt>
      <trkpt lat="43.19929167" lon="-6.921895">
        <ele>674.0</ele>
        <time>2022-06-19T08:22:34.123Z</time>
      </trkpt>
      <trkpt lat="43.19920833" lon="-6.92193333">
        <ele>673.0</ele>
        <time>2022-06-19T08:22:35.092Z</time>
      </trkpt>
      <trkpt lat="43.19920833" lon="-6.92193333">
        <ele>673.0</ele>
        <time>2022-06-19T08:22:36.102Z</time>
      </trkpt>
      <trkpt lat="43.19913" lon="-6.92197833">
        <ele>673.0</ele>
        <time>2022-06-19T08:22:37.105Z</time>
      </trkpt>
      <trkpt lat="43.19913" lon="-6.92197833">
        <ele>673.0</ele>
        <time>2022-06-19T08:22:38.097Z</time>
      </trkpt>
      <trkpt lat="43.19906167" lon="-6.92202833">
        <ele>674.0</ele>
        <time>2022-06-19T08:22:39.106Z</time>
      </trkpt>
      <trkpt lat="43.19906167" lon="-6.92202833">
        <ele>674.0</ele>
        <time>2022-06-19T08:22:40.117Z</time>
      </trkpt>
      <trkpt lat="43.19900333" lon="-6.92209333">
        <ele>674.0</ele>
        <time>2022-06-19T08:22:41.105Z</time>
      </trkpt>
      <trkpt lat="43.19900333" lon="-6.92209333">
        <ele>674.0</ele>
        <time>2022-06-19T08:22:42.131Z</time>
      </trkpt>
      <trkpt lat="43.19895333" lon="-6.922165">
        <ele>674.0</ele>
        <time>2022-06-19T08:22:43.131Z</time>
      </trkpt>
      <trkpt lat="43.19895333" lon="-6.922165">
        <ele>674.0</ele>
        <time>2022-06-19T08:22:44.104Z</time>
      </trkpt>
      <trkpt lat="43.19891" lon="-6.922245">
        <ele>675.0</ele>
        <time>2022-06-19T08:22:45.111Z</time>
      </trkpt>
      <trkpt lat="43.19891" lon="-6.922245">
        <ele>675.0</ele>
        <time>2022-06-19T08:22:46.122Z</time>
      </trkpt>
      <trkpt lat="43.19886333" lon="-6.922315">
        <ele>675.0</ele>
        <time>2022-06-19T08:22:47.131Z</time>
      </trkpt>
      <trkpt lat="43.198835" lon="-6.92234333">
        <ele>675.0</ele>
        <time>2022-06-19T08:22:48.096Z</time>
      </trkpt>
      <trkpt lat="43.198835" lon="-6.92234333">
        <ele>675.0</ele>
        <time>2022-06-19T08:22:49.117Z</time>
      </trkpt>
      <trkpt lat="43.19878167" lon="-6.9224">
        <ele>675.0</ele>
        <time>2022-06-19T08:22:50.128Z</time>
      </trkpt>
      <trkpt lat="43.19878167" lon="-6.9224">
        <ele>675.0</ele>
        <time>2022-06-19T08:22:51.097Z</time>
      </trkpt>
      <trkpt lat="43.19873" lon="-6.92245167">
        <ele>675.0</ele>
        <time>2022-06-19T08:22:52.107Z</time>
      </trkpt>
      <trkpt lat="43.19870167" lon="-6.92247333">
        <ele>675.0</ele>
        <time>2022-06-19T08:22:53.122Z</time>
      </trkpt>
      <trkpt lat="43.19870167" lon="-6.92247333">
        <ele>675.0</ele>
        <time>2022-06-19T08:22:54.098Z</time>
      </trkpt>
      <trkpt lat="43.19864" lon="-6.92251333">
        <ele>676.0</ele>
        <time>2022-06-19T08:22:55.106Z</time>
      </trkpt>
      <trkpt lat="43.19864" lon="-6.92251333">
        <ele>676.0</ele>
        <time>2022-06-19T08:22:56.114Z</time>
      </trkpt>
      <trkpt lat="43.198575" lon="-6.92253833">
        <ele>676.0</ele>
        <time>2022-06-19T08:22:57.121Z</time>
      </trkpt>
      <trkpt lat="43.198545" lon="-6.92254333">
        <ele>675.0</ele>
        <time>2022-06-19T08:22:58.109Z</time>
      </trkpt>
      <trkpt lat="43.198545" lon="-6.92254333">
        <ele>675.0</ele>
        <time>2022-06-19T08:22:59.103Z</time>
      </trkpt>
      <trkpt lat="43.198475" lon="-6.92256167">
        <ele>675.0</ele>
        <time>2022-06-19T08:23:00.120Z</time>
      </trkpt>
      <trkpt lat="43.19843667" lon="-6.92256667">
        <ele>675.0</ele>
        <time>2022-06-19T08:23:01.103Z</time>
      </trkpt>
      <trkpt lat="43.19843667" lon="-6.92256667">
        <ele>675.0</ele>
        <time>2022-06-19T08:23:02.097Z</time>
      </trkpt>
      <trkpt lat="43.19835667" lon="-6.922555">
        <ele>675.0</ele>
        <time>2022-06-19T08:23:03.099Z</time>
      </trkpt>
      <trkpt lat="43.198315" lon="-6.92254333">
        <ele>675.0</ele>
        <time>2022-06-19T08:23:04.124Z</time>
      </trkpt>
      <trkpt lat="43.198315" lon="-6.92254333">
        <ele>675.0</ele>
        <time>2022-06-19T08:23:05.111Z</time>
      </trkpt>
      <trkpt lat="43.19823" lon="-6.92252667">
        <ele>674.0</ele>
        <time>2022-06-19T08:23:06.120Z</time>
      </trkpt>
      <trkpt lat="43.19818667" lon="-6.92253">
        <ele>674.0</ele>
        <time>2022-06-19T08:23:07.095Z</time>
      </trkpt>
      <trkpt lat="43.19818667" lon="-6.92253">
        <ele>674.0</ele>
        <time>2022-06-19T08:23:08.114Z</time>
      </trkpt>
      <trkpt lat="43.19810167" lon="-6.922575">
        <ele>675.0</ele>
        <time>2022-06-19T08:23:09.125Z</time>
      </trkpt>
      <trkpt lat="43.19810167" lon="-6.922575">
        <ele>675.0</ele>
        <time>2022-06-19T08:23:10.093Z</time>
      </trkpt>
      <trkpt lat="43.19802667" lon="-6.92262667">
        <ele>675.0</ele>
        <time>2022-06-19T08:23:11.093Z</time>
      </trkpt>
      <trkpt lat="43.19802667" lon="-6.92262667">
        <ele>675.0</ele>
        <time>2022-06-19T08:23:12.125Z</time>
      </trkpt>
      <trkpt lat="43.19795167" lon="-6.922685">
        <ele>675.0</ele>
        <time>2022-06-19T08:23:13.092Z</time>
      </trkpt>
      <trkpt lat="43.19795167" lon="-6.922685">
        <ele>675.0</ele>
        <time>2022-06-19T08:23:14.106Z</time>
      </trkpt>
      <trkpt lat="43.19788167" lon="-6.92274833">
        <ele>676.0</ele>
        <time>2022-06-19T08:23:15.116Z</time>
      </trkpt>
      <trkpt lat="43.19785" lon="-6.92278333">
        <ele>676.0</ele>
        <time>2022-06-19T08:23:16.108Z</time>
      </trkpt>
      <trkpt lat="43.19785" lon="-6.92278333">
        <ele>676.0</ele>
        <time>2022-06-19T08:23:17.108Z</time>
      </trkpt>
      <trkpt lat="43.19778667" lon="-6.92283833">
        <ele>676.0</ele>
        <time>2022-06-19T08:23:18.120Z</time>
      </trkpt>
      <trkpt lat="43.197755" lon="-6.92286167">
        <ele>676.0</ele>
        <time>2022-06-19T08:23:19.097Z</time>
      </trkpt>
      <trkpt lat="43.19772333" lon="-6.92288833">
        <ele>676.0</ele>
        <time>2022-06-19T08:23:20.115Z</time>
      </trkpt>
      <trkpt lat="43.19772333" lon="-6.92288833">
        <ele>676.0</ele>
        <time>2022-06-19T08:23:21.127Z</time>
      </trkpt>
      <trkpt lat="43.19765333" lon="-6.92293833">
        <ele>677.0</ele>
        <time>2022-06-19T08:23:22.095Z</time>
      </trkpt>
      <trkpt lat="43.19762" lon="-6.92296167">
        <ele>677.0</ele>
        <time>2022-06-19T08:23:23.128Z</time>
      </trkpt>
      <trkpt lat="43.19762" lon="-6.92296167">
        <ele>677.0</ele>
        <time>2022-06-19T08:23:24.100Z</time>
      </trkpt>
      <trkpt lat="43.19755167" lon="-6.92300333">
        <ele>677.0</ele>
        <time>2022-06-19T08:23:25.108Z</time>
      </trkpt>
      <trkpt lat="43.19755167" lon="-6.92300333">
        <ele>677.0</ele>
        <time>2022-06-19T08:23:26.104Z</time>
      </trkpt>
      <trkpt lat="43.19748667" lon="-6.92303">
        <ele>677.0</ele>
        <time>2022-06-19T08:23:27.112Z</time>
      </trkpt>
      <trkpt lat="43.19745667" lon="-6.92304">
        <ele>677.0</ele>
        <time>2022-06-19T08:23:28.124Z</time>
      </trkpt>
      <trkpt lat="43.19745667" lon="-6.92304">
        <ele>677.0</ele>
        <time>2022-06-19T08:23:29.095Z</time>
      </trkpt>
      <trkpt lat="43.1974" lon="-6.92305333">
        <ele>678.0</ele>
        <time>2022-06-19T08:23:30.104Z</time>
      </trkpt>
      <trkpt lat="43.19736833" lon="-6.923055">
        <ele>678.0</ele>
        <time>2022-06-19T08:23:31.120Z</time>
      </trkpt>
      <trkpt lat="43.19736833" lon="-6.923055">
        <ele>678.0</ele>
        <time>2022-06-19T08:23:32.097Z</time>
      </trkpt>
      <trkpt lat="43.197305" lon="-6.92304833">
        <ele>678.0</ele>
        <time>2022-06-19T08:23:33.104Z</time>
      </trkpt>
      <trkpt lat="43.197305" lon="-6.92304833">
        <ele>678.0</ele>
        <time>2022-06-19T08:23:34.122Z</time>
      </trkpt>
      <trkpt lat="43.19726" lon="-6.92304333">
        <ele>678.0</ele>
        <time>2022-06-19T08:23:35.129Z</time>
      </trkpt>
      <trkpt lat="43.19726" lon="-6.92304333">
        <ele>678.0</ele>
        <time>2022-06-19T08:23:36.114Z</time>
      </trkpt>
      <trkpt lat="43.19721667" lon="-6.92304167">
        <ele>678.0</ele>
        <time>2022-06-19T08:23:37.122Z</time>
      </trkpt>
      <trkpt lat="43.19721667" lon="-6.92304167">
        <ele>678.0</ele>
        <time>2022-06-19T08:23:38.103Z</time>
      </trkpt>
      <trkpt lat="43.197175" lon="-6.92303167">
        <ele>678.0</ele>
        <time>2022-06-19T08:23:39.117Z</time>
      </trkpt>
      <trkpt lat="43.197175" lon="-6.92303167">
        <ele>678.0</ele>
        <time>2022-06-19T08:23:40.130Z</time>
      </trkpt>
      <trkpt lat="43.19713167" lon="-6.92302833">
        <ele>678.0</ele>
        <time>2022-06-19T08:23:41.137Z</time>
      </trkpt>
      <trkpt lat="43.19713167" lon="-6.92302833">
        <ele>678.0</ele>
        <time>2022-06-19T08:23:42.092Z</time>
      </trkpt>
      <trkpt lat="43.19707667" lon="-6.92302833">
        <ele>678.0</ele>
        <time>2022-06-19T08:23:43.103Z</time>
      </trkpt>
      <trkpt lat="43.19704667" lon="-6.92302833">
        <ele>678.0</ele>
        <time>2022-06-19T08:23:44.114Z</time>
      </trkpt>
      <trkpt lat="43.19704667" lon="-6.92302833">
        <ele>678.0</ele>
        <time>2022-06-19T08:23:45.123Z</time>
      </trkpt>
      <trkpt lat="43.19698333" lon="-6.92303">
        <ele>679.0</ele>
        <time>2022-06-19T08:23:46.096Z</time>
      </trkpt>
      <trkpt lat="43.19698333" lon="-6.92303">
        <ele>679.0</ele>
        <time>2022-06-19T08:23:47.120Z</time>
      </trkpt>
      <trkpt lat="43.19692833" lon="-6.92302833">
        <ele>679.0</ele>
        <time>2022-06-19T08:23:48.120Z</time>
      </trkpt>
      <trkpt lat="43.19689833" lon="-6.923025">
        <ele>679.0</ele>
        <time>2022-06-19T08:23:49.099Z</time>
      </trkpt>
      <trkpt lat="43.19689833" lon="-6.923025">
        <ele>679.0</ele>
        <time>2022-06-19T08:23:50.119Z</time>
      </trkpt>
      <trkpt lat="43.196845" lon="-6.92302">
        <ele>679.0</ele>
        <time>2022-06-19T08:23:51.107Z</time>
      </trkpt>
      <trkpt lat="43.196845" lon="-6.92302">
        <ele>679.0</ele>
        <time>2022-06-19T08:23:52.122Z</time>
      </trkpt>
      <trkpt lat="43.196785" lon="-6.92301">
        <ele>679.0</ele>
        <time>2022-06-19T08:23:53.093Z</time>
      </trkpt>
      <trkpt lat="43.196785" lon="-6.92301">
        <ele>679.0</ele>
        <time>2022-06-19T08:23:54.101Z</time>
      </trkpt>
      <trkpt lat="43.19671833" lon="-6.923">
        <ele>680.0</ele>
        <time>2022-06-19T08:23:55.144Z</time>
      </trkpt>
      <trkpt lat="43.19671833" lon="-6.923">
        <ele>680.0</ele>
        <time>2022-06-19T08:23:56.104Z</time>
      </trkpt>
      <trkpt lat="43.196655" lon="-6.92299667">
        <ele>680.0</ele>
        <time>2022-06-19T08:23:57.114Z</time>
      </trkpt>
      <trkpt lat="43.196655" lon="-6.92299667">
        <ele>680.0</ele>
        <time>2022-06-19T08:23:58.096Z</time>
      </trkpt>
      <trkpt lat="43.19658833" lon="-6.923">
        <ele>681.0</ele>
        <time>2022-06-19T08:23:59.104Z</time>
      </trkpt>
      <trkpt lat="43.19658833" lon="-6.923">
        <ele>681.0</ele>
        <time>2022-06-19T08:24:00.116Z</time>
      </trkpt>
      <trkpt lat="43.19652" lon="-6.92299667">
        <ele>681.0</ele>
        <time>2022-06-19T08:24:01.113Z</time>
      </trkpt>
      <trkpt lat="43.19652" lon="-6.92299667">
        <ele>681.0</ele>
        <time>2022-06-19T08:24:02.102Z</time>
      </trkpt>
      <trkpt lat="43.196465" lon="-6.92298833">
        <ele>681.0</ele>
        <time>2022-06-19T08:24:03.113Z</time>
      </trkpt>
      <trkpt lat="43.19643667" lon="-6.92298333">
        <ele>682.0</ele>
        <time>2022-06-19T08:24:04.095Z</time>
      </trkpt>
      <trkpt lat="43.19643667" lon="-6.92298333">
        <ele>682.0</ele>
        <time>2022-06-19T08:24:05.113Z</time>
      </trkpt>
      <trkpt lat="43.19637333" lon="-6.92296167">
        <ele>682.0</ele>
        <time>2022-06-19T08:24:06.118Z</time>
      </trkpt>
      <trkpt lat="43.19633833" lon="-6.92294167">
        <ele>682.0</ele>
        <time>2022-06-19T08:24:07.131Z</time>
      </trkpt>
      <trkpt lat="43.19633833" lon="-6.92294167">
        <ele>682.0</ele>
        <time>2022-06-19T08:24:08.111Z</time>
      </trkpt>
      <trkpt lat="43.19627167" lon="-6.92290667">
        <ele>683.0</ele>
        <time>2022-06-19T08:24:09.119Z</time>
      </trkpt>
      <trkpt lat="43.19627167" lon="-6.92290667">
        <ele>683.0</ele>
        <time>2022-06-19T08:24:10.108Z</time>
      </trkpt>
      <trkpt lat="43.19620833" lon="-6.92283667">
        <ele>683.0</ele>
        <time>2022-06-19T08:24:11.115Z</time>
      </trkpt>
      <trkpt lat="43.19620833" lon="-6.92283667">
        <ele>683.0</ele>
        <time>2022-06-19T08:24:12.127Z</time>
      </trkpt>
      <trkpt lat="43.19614833" lon="-6.922785">
        <ele>683.0</ele>
        <time>2022-06-19T08:24:13.097Z</time>
      </trkpt>
      <trkpt lat="43.19614833" lon="-6.922785">
        <ele>683.0</ele>
        <time>2022-06-19T08:24:14.116Z</time>
      </trkpt>
      <trkpt lat="43.19609667" lon="-6.92273">
        <ele>683.0</ele>
        <time>2022-06-19T08:24:15.124Z</time>
      </trkpt>
      <trkpt lat="43.19609667" lon="-6.92273">
        <ele>683.0</ele>
        <time>2022-06-19T08:24:16.094Z</time>
      </trkpt>
      <trkpt lat="43.19604833" lon="-6.92268167">
        <ele>683.0</ele>
        <time>2022-06-19T08:24:17.100Z</time>
      </trkpt>
      <trkpt lat="43.19604833" lon="-6.92268167">
        <ele>683.0</ele>
        <time>2022-06-19T08:24:18.096Z</time>
      </trkpt>
      <trkpt lat="43.19599" lon="-6.92265167">
        <ele>683.0</ele>
        <time>2022-06-19T08:24:19.108Z</time>
      </trkpt>
      <trkpt lat="43.19599" lon="-6.92265167">
        <ele>683.0</ele>
        <time>2022-06-19T08:24:20.119Z</time>
      </trkpt>
      <trkpt lat="43.195945" lon="-6.92263167">
        <ele>683.0</ele>
        <time>2022-06-19T08:24:21.126Z</time>
      </trkpt>
      <trkpt lat="43.19592333" lon="-6.92262333">
        <ele>683.0</ele>
        <time>2022-06-19T08:24:22.099Z</time>
      </trkpt>
      <trkpt lat="43.19592333" lon="-6.92262333">
        <ele>683.0</ele>
        <time>2022-06-19T08:24:23.099Z</time>
      </trkpt>
      <trkpt lat="43.19587667" lon="-6.92260333">
        <ele>684.0</ele>
        <time>2022-06-19T08:24:24.110Z</time>
      </trkpt>
      <trkpt lat="43.19585833" lon="-6.92260333">
        <ele>684.0</ele>
        <time>2022-06-19T08:24:25.092Z</time>
      </trkpt>
      <trkpt lat="43.19585833" lon="-6.92260333">
        <ele>684.0</ele>
        <time>2022-06-19T08:24:26.115Z</time>
      </trkpt>
      <trkpt lat="43.19582333" lon="-6.92259167">
        <ele>684.0</ele>
        <time>2022-06-19T08:24:27.124Z</time>
      </trkpt>
      <trkpt lat="43.19580667" lon="-6.92258333">
        <ele>684.0</ele>
        <time>2022-06-19T08:24:28.107Z</time>
      </trkpt>
      <trkpt lat="43.19580667" lon="-6.92258333">
        <ele>684.0</ele>
        <time>2022-06-19T08:24:29.120Z</time>
      </trkpt>
      <trkpt lat="43.19577333" lon="-6.92255667">
        <ele>685.0</ele>
        <time>2022-06-19T08:24:30.127Z</time>
      </trkpt>
      <trkpt lat="43.195755" lon="-6.92254">
        <ele>685.0</ele>
        <time>2022-06-19T08:24:31.125Z</time>
      </trkpt>
      <trkpt lat="43.195755" lon="-6.92254">
        <ele>685.0</ele>
        <time>2022-06-19T08:24:32.103Z</time>
      </trkpt>
      <trkpt lat="43.195715" lon="-6.92251667">
        <ele>686.0</ele>
        <time>2022-06-19T08:24:33.117Z</time>
      </trkpt>
      <trkpt lat="43.195715" lon="-6.92251667">
        <ele>686.0</ele>
        <time>2022-06-19T08:24:34.093Z</time>
      </trkpt>
      <trkpt lat="43.19567833" lon="-6.922495">
        <ele>686.0</ele>
        <time>2022-06-19T08:24:35.099Z</time>
      </trkpt>
      <trkpt lat="43.19567833" lon="-6.922495">
        <ele>686.0</ele>
        <time>2022-06-19T08:24:36.107Z</time>
      </trkpt>
      <trkpt lat="43.19564" lon="-6.92246833">
        <ele>686.0</ele>
        <time>2022-06-19T08:24:37.120Z</time>
      </trkpt>
      <trkpt lat="43.19564" lon="-6.92246833">
        <ele>686.0</ele>
        <time>2022-06-19T08:24:38.103Z</time>
      </trkpt>
      <trkpt lat="43.19560667" lon="-6.92246">
        <ele>686.0</ele>
        <time>2022-06-19T08:24:39.118Z</time>
      </trkpt>
      <trkpt lat="43.19559333" lon="-6.92246">
        <ele>686.0</ele>
        <time>2022-06-19T08:24:40.093Z</time>
      </trkpt>
      <trkpt lat="43.19559333" lon="-6.92246">
        <ele>686.0</ele>
        <time>2022-06-19T08:24:41.095Z</time>
      </trkpt>
      <trkpt lat="43.19555833" lon="-6.92245167">
        <ele>686.0</ele>
        <time>2022-06-19T08:24:42.106Z</time>
      </trkpt>
      <trkpt lat="43.19554167" lon="-6.92245">
        <ele>686.0</ele>
        <time>2022-06-19T08:24:43.096Z</time>
      </trkpt>
      <trkpt lat="43.19554167" lon="-6.92245">
        <ele>686.0</ele>
        <time>2022-06-19T08:24:44.106Z</time>
      </trkpt>
      <trkpt lat="43.19551" lon="-6.92242833">
        <ele>687.0</ele>
        <time>2022-06-19T08:24:45.116Z</time>
      </trkpt>
      <trkpt lat="43.19551" lon="-6.92242833">
        <ele>687.0</ele>
        <time>2022-06-19T08:24:46.125Z</time>
      </trkpt>
      <trkpt lat="43.195475" lon="-6.92241167">
        <ele>687.0</ele>
        <time>2022-06-19T08:24:47.105Z</time>
      </trkpt>
      <trkpt lat="43.195475" lon="-6.92241167">
        <ele>687.0</ele>
        <time>2022-06-19T08:24:48.123Z</time>
      </trkpt>
      <trkpt lat="43.19543833" lon="-6.922405">
        <ele>687.0</ele>
        <time>2022-06-19T08:24:49.130Z</time>
      </trkpt>
      <trkpt lat="43.19543833" lon="-6.922405">
        <ele>687.0</ele>
        <time>2022-06-19T08:24:50.106Z</time>
      </trkpt>
      <trkpt lat="43.19539833" lon="-6.92239333">
        <ele>687.0</ele>
        <time>2022-06-19T08:24:51.126Z</time>
      </trkpt>
      <trkpt lat="43.19539833" lon="-6.92239333">
        <ele>687.0</ele>
        <time>2022-06-19T08:24:52.120Z</time>
      </trkpt>
      <trkpt lat="43.19536167" lon="-6.92237">
        <ele>687.0</ele>
        <time>2022-06-19T08:24:53.102Z</time>
      </trkpt>
      <trkpt lat="43.19536167" lon="-6.92237">
        <ele>687.0</ele>
        <time>2022-06-19T08:24:54.101Z</time>
      </trkpt>
      <trkpt lat="43.19533167" lon="-6.92235167">
        <ele>687.0</ele>
        <time>2022-06-19T08:24:55.108Z</time>
      </trkpt>
      <trkpt lat="43.19533167" lon="-6.92235167">
        <ele>687.0</ele>
        <time>2022-06-19T08:24:56.117Z</time>
      </trkpt>
      <trkpt lat="43.195305" lon="-6.92233833">
        <ele>687.0</ele>
        <time>2022-06-19T08:24:57.125Z</time>
      </trkpt>
      <trkpt lat="43.195305" lon="-6.92233833">
        <ele>687.0</ele>
        <time>2022-06-19T08:24:58.103Z</time>
      </trkpt>
      <trkpt lat="43.195275" lon="-6.92232333">
        <ele>687.0</ele>
        <time>2022-06-19T08:24:59.107Z</time>
      </trkpt>
      <trkpt lat="43.195275" lon="-6.92232333">
        <ele>687.0</ele>
        <time>2022-06-19T08:25:00.100Z</time>
      </trkpt>
      <trkpt lat="43.19523833" lon="-6.92230167">
        <ele>687.0</ele>
        <time>2022-06-19T08:25:01.111Z</time>
      </trkpt>
      <trkpt lat="43.19523833" lon="-6.92230167">
        <ele>687.0</ele>
        <time>2022-06-19T08:25:02.130Z</time>
      </trkpt>
      <trkpt lat="43.195205" lon="-6.92227833">
        <ele>687.0</ele>
        <time>2022-06-19T08:25:03.101Z</time>
      </trkpt>
      <trkpt lat="43.195205" lon="-6.92227833">
        <ele>687.0</ele>
        <time>2022-06-19T08:25:04.112Z</time>
      </trkpt>
      <trkpt lat="43.19518" lon="-6.92225167">
        <ele>687.0</ele>
        <time>2022-06-19T08:25:05.121Z</time>
      </trkpt>
      <trkpt lat="43.19516333" lon="-6.92224333">
        <ele>687.0</ele>
        <time>2022-06-19T08:25:06.101Z</time>
      </trkpt>
      <trkpt lat="43.19516333" lon="-6.92224333">
        <ele>687.0</ele>
        <time>2022-06-19T08:25:07.115Z</time>
      </trkpt>
      <trkpt lat="43.19513167" lon="-6.92223">
        <ele>687.0</ele>
        <time>2022-06-19T08:25:08.126Z</time>
      </trkpt>
      <trkpt lat="43.19513167" lon="-6.92223">
        <ele>687.0</ele>
        <time>2022-06-19T08:25:09.094Z</time>
      </trkpt>
      <trkpt lat="43.19510833" lon="-6.92221">
        <ele>688.0</ele>
        <time>2022-06-19T08:25:10.100Z</time>
      </trkpt>
      <trkpt lat="43.19510833" lon="-6.92221">
        <ele>688.0</ele>
        <time>2022-06-19T08:25:11.110Z</time>
      </trkpt>
      <trkpt lat="43.19507833" lon="-6.92219333">
        <ele>688.0</ele>
        <time>2022-06-19T08:25:12.095Z</time>
      </trkpt>
      <trkpt lat="43.19506167" lon="-6.92218667">
        <ele>688.0</ele>
        <time>2022-06-19T08:25:13.121Z</time>
      </trkpt>
      <trkpt lat="43.19506167" lon="-6.92218667">
        <ele>688.0</ele>
        <time>2022-06-19T08:25:14.118Z</time>
      </trkpt>
      <trkpt lat="43.19501667" lon="-6.92217333">
        <ele>688.0</ele>
        <time>2022-06-19T08:25:15.129Z</time>
      </trkpt>
      <trkpt lat="43.19499333" lon="-6.92217">
        <ele>688.0</ele>
        <time>2022-06-19T08:25:16.104Z</time>
      </trkpt>
      <trkpt lat="43.19499333" lon="-6.92217">
        <ele>688.0</ele>
        <time>2022-06-19T08:25:17.121Z</time>
      </trkpt>
      <trkpt lat="43.194955" lon="-6.922165">
        <ele>689.0</ele>
        <time>2022-06-19T08:25:18.127Z</time>
      </trkpt>
      <trkpt lat="43.194955" lon="-6.922165">
        <ele>689.0</ele>
        <time>2022-06-19T08:25:19.096Z</time>
      </trkpt>
      <trkpt lat="43.19491" lon="-6.92215667">
        <ele>689.0</ele>
        <time>2022-06-19T08:25:20.103Z</time>
      </trkpt>
      <trkpt lat="43.19491" lon="-6.92215667">
        <ele>689.0</ele>
        <time>2022-06-19T08:25:21.119Z</time>
      </trkpt>
      <trkpt lat="43.19485667" lon="-6.922135">
        <ele>689.0</ele>
        <time>2022-06-19T08:25:22.126Z</time>
      </trkpt>
      <trkpt lat="43.19485667" lon="-6.922135">
        <ele>689.0</ele>
        <time>2022-06-19T08:25:23.100Z</time>
      </trkpt>
      <trkpt lat="43.19480167" lon="-6.92211667">
        <ele>689.0</ele>
        <time>2022-06-19T08:25:24.107Z</time>
      </trkpt>
      <trkpt lat="43.194775" lon="-6.92210667">
        <ele>689.0</ele>
        <time>2022-06-19T08:25:25.123Z</time>
      </trkpt>
      <trkpt lat="43.194775" lon="-6.92210667">
        <ele>689.0</ele>
        <time>2022-06-19T08:25:26.097Z</time>
      </trkpt>
      <trkpt lat="43.19474333" lon="-6.92210833">
        <ele>689.0</ele>
        <time>2022-06-19T08:25:27.109Z</time>
      </trkpt>
      <trkpt lat="43.19474333" lon="-6.92210833">
        <ele>689.0</ele>
        <time>2022-06-19T08:25:28.130Z</time>
      </trkpt>
      <trkpt lat="43.19470667" lon="-6.92210667">
        <ele>690.0</ele>
        <time>2022-06-19T08:25:29.099Z</time>
      </trkpt>
      <trkpt lat="43.19470667" lon="-6.92210667">
        <ele>690.0</ele>
        <time>2022-06-19T08:25:30.126Z</time>
      </trkpt>
      <trkpt lat="43.19467167" lon="-6.92209833">
        <ele>690.0</ele>
        <time>2022-06-19T08:25:31.092Z</time>
      </trkpt>
      <trkpt lat="43.19465833" lon="-6.92209667">
        <ele>690.0</ele>
        <time>2022-06-19T08:25:32.103Z</time>
      </trkpt>
      <trkpt lat="43.19465833" lon="-6.92209667">
        <ele>690.0</ele>
        <time>2022-06-19T08:25:33.104Z</time>
      </trkpt>
      <trkpt lat="43.19462333" lon="-6.92209667">
        <ele>691.0</ele>
        <time>2022-06-19T08:25:34.113Z</time>
      </trkpt>
      <trkpt lat="43.1946" lon="-6.9221">
        <ele>691.0</ele>
        <time>2022-06-19T08:25:35.130Z</time>
      </trkpt>
      <trkpt lat="43.1946" lon="-6.9221">
        <ele>691.0</ele>
        <time>2022-06-19T08:25:36.101Z</time>
      </trkpt>
      <trkpt lat="43.19456167" lon="-6.922095">
        <ele>691.0</ele>
        <time>2022-06-19T08:25:37.109Z</time>
      </trkpt>
      <trkpt lat="43.19456167" lon="-6.922095">
        <ele>691.0</ele>
        <time>2022-06-19T08:25:38.126Z</time>
      </trkpt>
      <trkpt lat="43.19452333" lon="-6.92209333">
        <ele>691.0</ele>
        <time>2022-06-19T08:25:39.093Z</time>
      </trkpt>
      <trkpt lat="43.19452333" lon="-6.92209333">
        <ele>691.0</ele>
        <time>2022-06-19T08:25:40.128Z</time>
      </trkpt>
      <trkpt lat="43.19448" lon="-6.92209">
        <ele>692.0</ele>
        <time>2022-06-19T08:25:41.107Z</time>
      </trkpt>
      <trkpt lat="43.19448" lon="-6.92209">
        <ele>692.0</ele>
        <time>2022-06-19T08:25:42.117Z</time>
      </trkpt>
      <trkpt lat="43.19443167" lon="-6.92208833">
        <ele>692.0</ele>
        <time>2022-06-19T08:25:43.105Z</time>
      </trkpt>
      <trkpt lat="43.19443167" lon="-6.92208833">
        <ele>692.0</ele>
        <time>2022-06-19T08:25:44.095Z</time>
      </trkpt>
      <trkpt lat="43.19438167" lon="-6.92209667">
        <ele>692.0</ele>
        <time>2022-06-19T08:25:45.101Z</time>
      </trkpt>
      <trkpt lat="43.19438167" lon="-6.92209667">
        <ele>692.0</ele>
        <time>2022-06-19T08:25:46.116Z</time>
      </trkpt>
      <trkpt lat="43.19434667" lon="-6.92211">
        <ele>692.0</ele>
        <time>2022-06-19T08:25:47.126Z</time>
      </trkpt>
      <trkpt lat="43.19434667" lon="-6.92211">
        <ele>692.0</ele>
        <time>2022-06-19T08:25:48.107Z</time>
      </trkpt>
      <trkpt lat="43.19431" lon="-6.92211">
        <ele>693.0</ele>
        <time>2022-06-19T08:25:49.122Z</time>
      </trkpt>
      <trkpt lat="43.19431" lon="-6.92211">
        <ele>693.0</ele>
        <time>2022-06-19T08:25:50.116Z</time>
      </trkpt>
      <trkpt lat="43.19427" lon="-6.92212">
        <ele>693.0</ele>
        <time>2022-06-19T08:25:51.096Z</time>
      </trkpt>
      <trkpt lat="43.19427" lon="-6.92212">
        <ele>693.0</ele>
        <time>2022-06-19T08:25:52.115Z</time>
      </trkpt>
      <trkpt lat="43.19422833" lon="-6.92211">
        <ele>693.0</ele>
        <time>2022-06-19T08:25:53.121Z</time>
      </trkpt>
      <trkpt lat="43.19422833" lon="-6.92211">
        <ele>693.0</ele>
        <time>2022-06-19T08:25:54.118Z</time>
      </trkpt>
      <trkpt lat="43.19418333" lon="-6.92211833">
        <ele>694.0</ele>
        <time>2022-06-19T08:25:55.129Z</time>
      </trkpt>
      <trkpt lat="43.19418333" lon="-6.92211833">
        <ele>694.0</ele>
        <time>2022-06-19T08:25:56.117Z</time>
      </trkpt>
      <trkpt lat="43.19413" lon="-6.92212333">
        <ele>694.0</ele>
        <time>2022-06-19T08:25:57.117Z</time>
      </trkpt>
      <trkpt lat="43.19413" lon="-6.92212333">
        <ele>694.0</ele>
        <time>2022-06-19T08:25:58.101Z</time>
      </trkpt>
      <trkpt lat="43.19408333" lon="-6.922135">
        <ele>695.0</ele>
        <time>2022-06-19T08:25:59.113Z</time>
      </trkpt>
      <trkpt lat="43.19406" lon="-6.92214333">
        <ele>695.0</ele>
        <time>2022-06-19T08:26:00.125Z</time>
      </trkpt>
      <trkpt lat="43.194035" lon="-6.92214667">
        <ele>696.0</ele>
        <time>2022-06-19T08:26:01.100Z</time>
      </trkpt>
      <trkpt lat="43.194035" lon="-6.92214667">
        <ele>696.0</ele>
        <time>2022-06-19T08:26:02.113Z</time>
      </trkpt>
      <trkpt lat="43.19398167" lon="-6.922155">
        <ele>696.0</ele>
        <time>2022-06-19T08:26:03.120Z</time>
      </trkpt>
      <trkpt lat="43.19395833" lon="-6.92216333">
        <ele>697.0</ele>
        <time>2022-06-19T08:26:04.133Z</time>
      </trkpt>
      <trkpt lat="43.19395833" lon="-6.92216333">
        <ele>697.0</ele>
        <time>2022-06-19T08:26:05.099Z</time>
      </trkpt>
      <trkpt lat="43.19391667" lon="-6.92216833">
        <ele>697.0</ele>
        <time>2022-06-19T08:26:06.106Z</time>
      </trkpt>
      <trkpt lat="43.19389167" lon="-6.92217167">
        <ele>697.0</ele>
        <time>2022-06-19T08:26:07.106Z</time>
      </trkpt>
      <trkpt lat="43.19389167" lon="-6.92217167">
        <ele>697.0</ele>
        <time>2022-06-19T08:26:08.113Z</time>
      </trkpt>
      <trkpt lat="43.19384333" lon="-6.92218667">
        <ele>698.0</ele>
        <time>2022-06-19T08:26:09.129Z</time>
      </trkpt>
      <trkpt lat="43.19381667" lon="-6.92219167">
        <ele>698.0</ele>
        <time>2022-06-19T08:26:10.104Z</time>
      </trkpt>
      <trkpt lat="43.19381667" lon="-6.92219167">
        <ele>698.0</ele>
        <time>2022-06-19T08:26:11.112Z</time>
      </trkpt>
      <trkpt lat="43.193775" lon="-6.92220667">
        <ele>698.0</ele>
        <time>2022-06-19T08:26:12.118Z</time>
      </trkpt>
      <trkpt lat="43.193775" lon="-6.92220667">
        <ele>698.0</ele>
        <time>2022-06-19T08:26:13.103Z</time>
      </trkpt>
      <trkpt lat="43.193735" lon="-6.922205">
        <ele>699.0</ele>
        <time>2022-06-19T08:26:14.110Z</time>
      </trkpt>
      <trkpt lat="43.193735" lon="-6.922205">
        <ele>699.0</ele>
        <time>2022-06-19T08:26:15.127Z</time>
      </trkpt>
      <trkpt lat="43.19369833" lon="-6.92221833">
        <ele>699.0</ele>
        <time>2022-06-19T08:26:16.098Z</time>
      </trkpt>
      <trkpt lat="43.19369833" lon="-6.92221833">
        <ele>699.0</ele>
        <time>2022-06-19T08:26:17.093Z</time>
      </trkpt>
      <trkpt lat="43.19365" lon="-6.92223167">
        <ele>699.0</ele>
        <time>2022-06-19T08:26:18.103Z</time>
      </trkpt>
      <trkpt lat="43.193635" lon="-6.92224">
        <ele>699.0</ele>
        <time>2022-06-19T08:26:19.124Z</time>
      </trkpt>
      <trkpt lat="43.193635" lon="-6.92224">
        <ele>699.0</ele>
        <time>2022-06-19T08:26:20.102Z</time>
      </trkpt>
      <trkpt lat="43.19359667" lon="-6.92225333">
        <ele>700.0</ele>
        <time>2022-06-19T08:26:21.110Z</time>
      </trkpt>
      <trkpt lat="43.19359667" lon="-6.92225333">
        <ele>700.0</ele>
        <time>2022-06-19T08:26:22.095Z</time>
      </trkpt>
      <trkpt lat="43.19354" lon="-6.92227667">
        <ele>700.0</ele>
        <time>2022-06-19T08:26:23.105Z</time>
      </trkpt>
      <trkpt lat="43.19351667" lon="-6.92228167">
        <ele>700.0</ele>
        <time>2022-06-19T08:26:24.096Z</time>
      </trkpt>
      <trkpt lat="43.19351667" lon="-6.92228167">
        <ele>700.0</ele>
        <time>2022-06-19T08:26:25.117Z</time>
      </trkpt>
      <trkpt lat="43.193475" lon="-6.922285">
        <ele>700.0</ele>
        <time>2022-06-19T08:26:26.128Z</time>
      </trkpt>
      <trkpt lat="43.19346333" lon="-6.92229333">
        <ele>700.0</ele>
        <time>2022-06-19T08:26:27.122Z</time>
      </trkpt>
      <trkpt lat="43.19346333" lon="-6.92229333">
        <ele>700.0</ele>
        <time>2022-06-19T08:26:28.129Z</time>
      </trkpt>
      <trkpt lat="43.19343333" lon="-6.92229667">
        <ele>700.0</ele>
        <time>2022-06-19T08:26:29.104Z</time>
      </trkpt>
      <trkpt lat="43.19343333" lon="-6.92229667">
        <ele>700.0</ele>
        <time>2022-06-19T08:26:30.129Z</time>
      </trkpt>
      <trkpt lat="43.19337667" lon="-6.92230667">
        <ele>700.0</ele>
        <time>2022-06-19T08:26:31.107Z</time>
      </trkpt>
      <trkpt lat="43.19337667" lon="-6.92230667">
        <ele>700.0</ele>
        <time>2022-06-19T08:26:32.096Z</time>
      </trkpt>
      <trkpt lat="43.193335" lon="-6.922315">
        <ele>700.0</ele>
        <time>2022-06-19T08:26:33.104Z</time>
      </trkpt>
      <trkpt lat="43.193335" lon="-6.922315">
        <ele>700.0</ele>
        <time>2022-06-19T08:26:34.123Z</time>
      </trkpt>
      <trkpt lat="43.19328833" lon="-6.922325">
        <ele>700.0</ele>
        <time>2022-06-19T08:26:35.094Z</time>
      </trkpt>
      <trkpt lat="43.19328833" lon="-6.922325">
        <ele>700.0</ele>
        <time>2022-06-19T08:26:36.105Z</time>
      </trkpt>
      <trkpt lat="43.19325" lon="-6.92233667">
        <ele>700.0</ele>
        <time>2022-06-19T08:26:37.095Z</time>
      </trkpt>
      <trkpt lat="43.19325" lon="-6.92233667">
        <ele>700.0</ele>
        <time>2022-06-19T08:26:38.113Z</time>
      </trkpt>
      <trkpt lat="43.19320333" lon="-6.92235167">
        <ele>700.0</ele>
        <time>2022-06-19T08:26:39.126Z</time>
      </trkpt>
      <trkpt lat="43.19320333" lon="-6.92235167">
        <ele>700.0</ele>
        <time>2022-06-19T08:26:40.107Z</time>
      </trkpt>
      <trkpt lat="43.19316" lon="-6.922365">
        <ele>700.0</ele>
        <time>2022-06-19T08:26:41.123Z</time>
      </trkpt>
      <trkpt lat="43.19316" lon="-6.922365">
        <ele>700.0</ele>
        <time>2022-06-19T08:26:42.116Z</time>
      </trkpt>
      <trkpt lat="43.19312" lon="-6.92236667">
        <ele>700.0</ele>
        <time>2022-06-19T08:26:43.122Z</time>
      </trkpt>
      <trkpt lat="43.19310167" lon="-6.92237167">
        <ele>700.0</ele>
        <time>2022-06-19T08:26:44.120Z</time>
      </trkpt>
      <trkpt lat="43.19310167" lon="-6.92237167">
        <ele>700.0</ele>
        <time>2022-06-19T08:26:45.093Z</time>
      </trkpt>
      <trkpt lat="43.19306667" lon="-6.92238667">
        <ele>701.0</ele>
        <time>2022-06-19T08:26:46.102Z</time>
      </trkpt>
      <trkpt lat="43.19304333" lon="-6.92238833">
        <ele>700.0</ele>
        <time>2022-06-19T08:26:47.097Z</time>
      </trkpt>
      <trkpt lat="43.19304333" lon="-6.92238833">
        <ele>700.0</ele>
        <time>2022-06-19T08:26:48.129Z</time>
      </trkpt>
      <trkpt lat="43.19299667" lon="-6.92238833">
        <ele>700.0</ele>
        <time>2022-06-19T08:26:49.119Z</time>
      </trkpt>
      <trkpt lat="43.19299667" lon="-6.92238833">
        <ele>700.0</ele>
        <time>2022-06-19T08:26:50.125Z</time>
      </trkpt>
      <trkpt lat="43.19295333" lon="-6.92237667">
        <ele>700.0</ele>
        <time>2022-06-19T08:26:51.094Z</time>
      </trkpt>
      <trkpt lat="43.19293167" lon="-6.92237667">
        <ele>700.0</ele>
        <time>2022-06-19T08:26:52.109Z</time>
      </trkpt>
      <trkpt lat="43.19293167" lon="-6.92237667">
        <ele>700.0</ele>
        <time>2022-06-19T08:26:53.123Z</time>
      </trkpt>
      <trkpt lat="43.192875" lon="-6.92238833">
        <ele>700.0</ele>
        <time>2022-06-19T08:26:54.097Z</time>
      </trkpt>
      <trkpt lat="43.19284833" lon="-6.922385">
        <ele>700.0</ele>
        <time>2022-06-19T08:26:55.118Z</time>
      </trkpt>
      <trkpt lat="43.19284833" lon="-6.922385">
        <ele>700.0</ele>
        <time>2022-06-19T08:26:56.093Z</time>
      </trkpt>
      <trkpt lat="43.19280833" lon="-6.92237833">
        <ele>700.0</ele>
        <time>2022-06-19T08:26:57.114Z</time>
      </trkpt>
      <trkpt lat="43.19279167" lon="-6.922375">
        <ele>700.0</ele>
        <time>2022-06-19T08:26:58.096Z</time>
      </trkpt>
      <trkpt lat="43.19279167" lon="-6.922375">
        <ele>700.0</ele>
        <time>2022-06-19T08:26:59.112Z</time>
      </trkpt>
      <trkpt lat="43.19275667" lon="-6.92237333">
        <ele>700.0</ele>
        <time>2022-06-19T08:27:00.092Z</time>
      </trkpt>
      <trkpt lat="43.19273833" lon="-6.92237">
        <ele>700.0</ele>
        <time>2022-06-19T08:27:01.124Z</time>
      </trkpt>
      <trkpt lat="43.19273833" lon="-6.92237">
        <ele>700.0</ele>
        <time>2022-06-19T08:27:02.097Z</time>
      </trkpt>
      <trkpt lat="43.192705" lon="-6.92236833">
        <ele>700.0</ele>
        <time>2022-06-19T08:27:03.123Z</time>
      </trkpt>
      <trkpt lat="43.192705" lon="-6.92236833">
        <ele>700.0</ele>
        <time>2022-06-19T08:27:04.128Z</time>
      </trkpt>
      <trkpt lat="43.19267" lon="-6.92236667">
        <ele>700.0</ele>
        <time>2022-06-19T08:27:05.100Z</time>
      </trkpt>
      <trkpt lat="43.19265" lon="-6.92236333">
        <ele>700.0</ele>
        <time>2022-06-19T08:27:06.126Z</time>
      </trkpt>
      <trkpt lat="43.19265" lon="-6.92236333">
        <ele>700.0</ele>
        <time>2022-06-19T08:27:07.102Z</time>
      </trkpt>
      <trkpt lat="43.19261" lon="-6.92236667">
        <ele>700.0</ele>
        <time>2022-06-19T08:27:08.115Z</time>
      </trkpt>
      <trkpt lat="43.19261" lon="-6.92236667">
        <ele>700.0</ele>
        <time>2022-06-19T08:27:09.125Z</time>
      </trkpt>
      <trkpt lat="43.192585" lon="-6.922375">
        <ele>700.0</ele>
        <time>2022-06-19T08:27:10.092Z</time>
      </trkpt>
      <trkpt lat="43.192585" lon="-6.922375">
        <ele>700.0</ele>
        <time>2022-06-19T08:27:11.107Z</time>
      </trkpt>
      <trkpt lat="43.19256333" lon="-6.92239167">
        <ele>701.0</ele>
        <time>2022-06-19T08:27:12.101Z</time>
      </trkpt>
      <trkpt lat="43.19254333" lon="-6.92239333">
        <ele>701.0</ele>
        <time>2022-06-19T08:27:13.113Z</time>
      </trkpt>
      <trkpt lat="43.19254333" lon="-6.92239333">
        <ele>701.0</ele>
        <time>2022-06-19T08:27:14.094Z</time>
      </trkpt>
      <trkpt lat="43.19250667" lon="-6.92239333">
        <ele>700.0</ele>
        <time>2022-06-19T08:27:15.116Z</time>
      </trkpt>
      <trkpt lat="43.19248333" lon="-6.92239167">
        <ele>700.0</ele>
        <time>2022-06-19T08:27:16.118Z</time>
      </trkpt>
      <trkpt lat="43.19246333" lon="-6.922395">
        <ele>700.0</ele>
        <time>2022-06-19T08:27:17.093Z</time>
      </trkpt>
      <trkpt lat="43.19246333" lon="-6.922395">
        <ele>700.0</ele>
        <time>2022-06-19T08:27:18.106Z</time>
      </trkpt>
      <trkpt lat="43.19242167" lon="-6.922405">
        <ele>700.0</ele>
        <time>2022-06-19T08:27:19.113Z</time>
      </trkpt>
      <trkpt lat="43.19242167" lon="-6.922405">
        <ele>700.0</ele>
        <time>2022-06-19T08:27:20.127Z</time>
      </trkpt>
      <trkpt lat="43.19238667" lon="-6.92241">
        <ele>701.0</ele>
        <time>2022-06-19T08:27:21.094Z</time>
      </trkpt>
      <trkpt lat="43.19238667" lon="-6.92241">
        <ele>701.0</ele>
        <time>2022-06-19T08:27:22.102Z</time>
      </trkpt>
      <trkpt lat="43.19234833" lon="-6.92241833">
        <ele>701.0</ele>
        <time>2022-06-19T08:27:23.110Z</time>
      </trkpt>
      <trkpt lat="43.19232" lon="-6.92241">
        <ele>702.0</ele>
        <time>2022-06-19T08:27:24.129Z</time>
      </trkpt>
      <trkpt lat="43.19232" lon="-6.92241">
        <ele>702.0</ele>
        <time>2022-06-19T08:27:25.098Z</time>
      </trkpt>
      <trkpt lat="43.19226667" lon="-6.922425">
        <ele>702.0</ele>
        <time>2022-06-19T08:27:26.107Z</time>
      </trkpt>
      <trkpt lat="43.19226667" lon="-6.922425">
        <ele>702.0</ele>
        <time>2022-06-19T08:27:27.119Z</time>
      </trkpt>
      <trkpt lat="43.19220333" lon="-6.92242333">
        <ele>702.0</ele>
        <time>2022-06-19T08:27:28.130Z</time>
      </trkpt>
      <trkpt lat="43.19217167" lon="-6.922425">
        <ele>702.0</ele>
        <time>2022-06-19T08:27:29.119Z</time>
      </trkpt>
      <trkpt lat="43.19214667" lon="-6.92243833">
        <ele>701.0</ele>
        <time>2022-06-19T08:27:30.096Z</time>
      </trkpt>
      <trkpt lat="43.19211667" lon="-6.92244333">
        <ele>701.0</ele>
        <time>2022-06-19T08:27:31.112Z</time>
      </trkpt>
      <trkpt lat="43.19211667" lon="-6.92244333">
        <ele>701.0</ele>
        <time>2022-06-19T08:27:32.126Z</time>
      </trkpt>
      <trkpt lat="43.19206167" lon="-6.922455">
        <ele>702.0</ele>
        <time>2022-06-19T08:27:33.095Z</time>
      </trkpt>
      <trkpt lat="43.19206167" lon="-6.922455">
        <ele>702.0</ele>
        <time>2022-06-19T08:27:34.119Z</time>
      </trkpt>
      <trkpt lat="43.19200167" lon="-6.92246167">
        <ele>702.0</ele>
        <time>2022-06-19T08:27:35.134Z</time>
      </trkpt>
      <trkpt lat="43.19200167" lon="-6.92246167">
        <ele>702.0</ele>
        <time>2022-06-19T08:27:36.124Z</time>
      </trkpt>
      <trkpt lat="43.19194667" lon="-6.92246333">
        <ele>702.0</ele>
        <time>2022-06-19T08:27:37.092Z</time>
      </trkpt>
      <trkpt lat="43.19192" lon="-6.92246167">
        <ele>702.0</ele>
        <time>2022-06-19T08:27:38.108Z</time>
      </trkpt>
      <trkpt lat="43.19192" lon="-6.92246167">
        <ele>702.0</ele>
        <time>2022-06-19T08:27:39.119Z</time>
      </trkpt>
      <trkpt lat="43.19187167" lon="-6.92247167">
        <ele>702.0</ele>
        <time>2022-06-19T08:27:40.128Z</time>
      </trkpt>
      <trkpt lat="43.19187167" lon="-6.92247167">
        <ele>702.0</ele>
        <time>2022-06-19T08:27:41.101Z</time>
      </trkpt>
      <trkpt lat="43.19182667" lon="-6.92248167">
        <ele>702.0</ele>
        <time>2022-06-19T08:27:42.109Z</time>
      </trkpt>
      <trkpt lat="43.19182667" lon="-6.92248167">
        <ele>702.0</ele>
        <time>2022-06-19T08:27:43.122Z</time>
      </trkpt>
      <trkpt lat="43.19177833" lon="-6.922485">
        <ele>703.0</ele>
        <time>2022-06-19T08:27:44.100Z</time>
      </trkpt>
      <trkpt lat="43.19177833" lon="-6.922485">
        <ele>703.0</ele>
        <time>2022-06-19T08:27:45.092Z</time>
      </trkpt>
      <trkpt lat="43.191725" lon="-6.92249667">
        <ele>703.0</ele>
        <time>2022-06-19T08:27:46.101Z</time>
      </trkpt>
      <trkpt lat="43.191725" lon="-6.92249667">
        <ele>703.0</ele>
        <time>2022-06-19T08:27:47.124Z</time>
      </trkpt>
      <trkpt lat="43.19167333" lon="-6.92249667">
        <ele>703.0</ele>
        <time>2022-06-19T08:27:48.096Z</time>
      </trkpt>
      <trkpt lat="43.19164833" lon="-6.92249833">
        <ele>703.0</ele>
        <time>2022-06-19T08:27:49.124Z</time>
      </trkpt>
      <trkpt lat="43.19164833" lon="-6.92249833">
        <ele>703.0</ele>
        <time>2022-06-19T08:27:50.097Z</time>
      </trkpt>
      <trkpt lat="43.1916" lon="-6.922495">
        <ele>703.0</ele>
        <time>2022-06-19T08:27:51.123Z</time>
      </trkpt>
      <trkpt lat="43.1916" lon="-6.922495">
        <ele>703.0</ele>
        <time>2022-06-19T08:27:52.125Z</time>
      </trkpt>
      <trkpt lat="43.19155167" lon="-6.92250167">
        <ele>704.0</ele>
        <time>2022-06-19T08:27:53.112Z</time>
      </trkpt>
      <trkpt lat="43.19155167" lon="-6.92250167">
        <ele>704.0</ele>
        <time>2022-06-19T08:27:54.121Z</time>
      </trkpt>
      <trkpt lat="43.19149" lon="-6.9225">
        <ele>705.0</ele>
        <time>2022-06-19T08:27:55.131Z</time>
      </trkpt>
      <trkpt lat="43.19149" lon="-6.9225">
        <ele>705.0</ele>
        <time>2022-06-19T08:27:56.108Z</time>
      </trkpt>
      <trkpt lat="43.19144" lon="-6.92250833">
        <ele>705.0</ele>
        <time>2022-06-19T08:27:57.119Z</time>
      </trkpt>
      <trkpt lat="43.19144" lon="-6.92250833">
        <ele>705.0</ele>
        <time>2022-06-19T08:27:58.093Z</time>
      </trkpt>
      <trkpt lat="43.19139167" lon="-6.92251667">
        <ele>706.0</ele>
        <time>2022-06-19T08:27:59.113Z</time>
      </trkpt>
      <trkpt lat="43.19139167" lon="-6.92251667">
        <ele>706.0</ele>
        <time>2022-06-19T08:28:00.124Z</time>
      </trkpt>
      <trkpt lat="43.19134667" lon="-6.92252667">
        <ele>706.0</ele>
        <time>2022-06-19T08:28:01.103Z</time>
      </trkpt>
      <trkpt lat="43.19134667" lon="-6.92252667">
        <ele>706.0</ele>
        <time>2022-06-19T08:28:02.125Z</time>
      </trkpt>
      <trkpt lat="43.191305" lon="-6.92253">
        <ele>707.0</ele>
        <time>2022-06-19T08:28:03.094Z</time>
      </trkpt>
      <trkpt lat="43.19128167" lon="-6.92253667">
        <ele>707.0</ele>
        <time>2022-06-19T08:28:04.107Z</time>
      </trkpt>
      <trkpt lat="43.19125833" lon="-6.92254667">
        <ele>707.0</ele>
        <time>2022-06-19T08:28:05.100Z</time>
      </trkpt>
      <trkpt lat="43.19125833" lon="-6.92254667">
        <ele>707.0</ele>
        <time>2022-06-19T08:28:06.126Z</time>
      </trkpt>
      <trkpt lat="43.19121167" lon="-6.92257333">
        <ele>707.0</ele>
        <time>2022-06-19T08:28:07.098Z</time>
      </trkpt>
      <trkpt lat="43.19121167" lon="-6.92257333">
        <ele>707.0</ele>
        <time>2022-06-19T08:28:08.094Z</time>
      </trkpt>
      <trkpt lat="43.191175" lon="-6.92259667">
        <ele>708.0</ele>
        <time>2022-06-19T08:28:09.093Z</time>
      </trkpt>
      <trkpt lat="43.191175" lon="-6.92259667">
        <ele>708.0</ele>
        <time>2022-06-19T08:28:10.094Z</time>
      </trkpt>
      <trkpt lat="43.19113833" lon="-6.92262">
        <ele>708.0</ele>
        <time>2022-06-19T08:28:11.104Z</time>
      </trkpt>
      <trkpt lat="43.19113833" lon="-6.92262">
        <ele>708.0</ele>
        <time>2022-06-19T08:28:12.124Z</time>
      </trkpt>
      <trkpt lat="43.1911" lon="-6.92263667">
        <ele>709.0</ele>
        <time>2022-06-19T08:28:13.093Z</time>
      </trkpt>
      <trkpt lat="43.1911" lon="-6.92263667">
        <ele>709.0</ele>
        <time>2022-06-19T08:28:14.117Z</time>
      </trkpt>
      <trkpt lat="43.191065" lon="-6.92265167">
        <ele>709.0</ele>
        <time>2022-06-19T08:28:15.127Z</time>
      </trkpt>
      <trkpt lat="43.191065" lon="-6.92265167">
        <ele>709.0</ele>
        <time>2022-06-19T08:28:16.109Z</time>
      </trkpt>
      <trkpt lat="43.19103" lon="-6.92265667">
        <ele>710.0</ele>
        <time>2022-06-19T08:28:17.112Z</time>
      </trkpt>
      <trkpt lat="43.19101" lon="-6.92266">
        <ele>710.0</ele>
        <time>2022-06-19T08:28:18.102Z</time>
      </trkpt>
      <trkpt lat="43.19099333" lon="-6.922665">
        <ele>710.0</ele>
        <time>2022-06-19T08:28:19.114Z</time>
      </trkpt>
      <trkpt lat="43.19099333" lon="-6.922665">
        <ele>710.0</ele>
        <time>2022-06-19T08:28:20.129Z</time>
      </trkpt>
      <trkpt lat="43.19096333" lon="-6.922675">
        <ele>711.0</ele>
        <time>2022-06-19T08:28:21.098Z</time>
      </trkpt>
      <trkpt lat="43.190945" lon="-6.92268">
        <ele>711.0</ele>
        <time>2022-06-19T08:28:22.121Z</time>
      </trkpt>
      <trkpt lat="43.190945" lon="-6.92268">
        <ele>711.0</ele>
        <time>2022-06-19T08:28:23.096Z</time>
      </trkpt>
      <trkpt lat="43.190905" lon="-6.92269167">
        <ele>712.0</ele>
        <time>2022-06-19T08:28:24.106Z</time>
      </trkpt>
      <trkpt lat="43.190885" lon="-6.92269833">
        <ele>712.0</ele>
        <time>2022-06-19T08:28:25.094Z</time>
      </trkpt>
      <trkpt lat="43.190885" lon="-6.92269833">
        <ele>712.0</ele>
        <time>2022-06-19T08:28:26.116Z</time>
      </trkpt>
      <trkpt lat="43.19084833" lon="-6.922735">
        <ele>712.0</ele>
        <time>2022-06-19T08:28:27.127Z</time>
      </trkpt>
      <trkpt lat="43.19084833" lon="-6.922735">
        <ele>712.0</ele>
        <time>2022-06-19T08:28:28.118Z</time>
      </trkpt>
      <trkpt lat="43.19081167" lon="-6.922755">
        <ele>713.0</ele>
        <time>2022-06-19T08:28:29.125Z</time>
      </trkpt>
      <trkpt lat="43.19081167" lon="-6.922755">
        <ele>713.0</ele>
        <time>2022-06-19T08:28:30.100Z</time>
      </trkpt>
      <trkpt lat="43.190775" lon="-6.92277167">
        <ele>713.0</ele>
        <time>2022-06-19T08:28:31.119Z</time>
      </trkpt>
      <trkpt lat="43.190775" lon="-6.92277167">
        <ele>713.0</ele>
        <time>2022-06-19T08:28:32.126Z</time>
      </trkpt>
      <trkpt lat="43.19072833" lon="-6.92277833">
        <ele>714.0</ele>
        <time>2022-06-19T08:28:33.093Z</time>
      </trkpt>
      <trkpt lat="43.19072833" lon="-6.92277833">
        <ele>714.0</ele>
        <time>2022-06-19T08:28:34.105Z</time>
      </trkpt>
      <trkpt lat="43.19068333" lon="-6.92278167">
        <ele>714.0</ele>
        <time>2022-06-19T08:28:35.112Z</time>
      </trkpt>
      <trkpt lat="43.19068333" lon="-6.92278167">
        <ele>714.0</ele>
        <time>2022-06-19T08:28:36.095Z</time>
      </trkpt>
      <trkpt lat="43.19063833" lon="-6.922785">
        <ele>714.0</ele>
        <time>2022-06-19T08:28:37.105Z</time>
      </trkpt>
      <trkpt lat="43.19063833" lon="-6.922785">
        <ele>714.0</ele>
        <time>2022-06-19T08:28:38.122Z</time>
      </trkpt>
      <trkpt lat="43.19060167" lon="-6.92278833">
        <ele>715.0</ele>
        <time>2022-06-19T08:28:39.138Z</time>
      </trkpt>
      <trkpt lat="43.19060167" lon="-6.92278833">
        <ele>715.0</ele>
        <time>2022-06-19T08:28:40.122Z</time>
      </trkpt>
      <trkpt lat="43.19056667" lon="-6.92278667">
        <ele>715.0</ele>
        <time>2022-06-19T08:28:41.131Z</time>
      </trkpt>
      <trkpt lat="43.19056667" lon="-6.92278667">
        <ele>715.0</ele>
        <time>2022-06-19T08:28:42.110Z</time>
      </trkpt>
      <trkpt lat="43.190525" lon="-6.92280833">
        <ele>715.0</ele>
        <time>2022-06-19T08:28:43.119Z</time>
      </trkpt>
      <trkpt lat="43.190525" lon="-6.92280833">
        <ele>715.0</ele>
        <time>2022-06-19T08:28:44.095Z</time>
      </trkpt>
      <trkpt lat="43.19048" lon="-6.92284167">
        <ele>716.0</ele>
        <time>2022-06-19T08:28:45.106Z</time>
      </trkpt>
      <trkpt lat="43.19048" lon="-6.92284167">
        <ele>716.0</ele>
        <time>2022-06-19T08:28:46.102Z</time>
      </trkpt>
      <trkpt lat="43.19041333" lon="-6.92286167">
        <ele>716.0</ele>
        <time>2022-06-19T08:28:47.109Z</time>
      </trkpt>
      <trkpt lat="43.19038667" lon="-6.922875">
        <ele>717.0</ele>
        <time>2022-06-19T08:28:48.140Z</time>
      </trkpt>
      <trkpt lat="43.19035833" lon="-6.92288833">
        <ele>717.0</ele>
        <time>2022-06-19T08:28:49.107Z</time>
      </trkpt>
      <trkpt lat="43.19035833" lon="-6.92288833">
        <ele>717.0</ele>
        <time>2022-06-19T08:28:50.119Z</time>
      </trkpt>
      <trkpt lat="43.19030833" lon="-6.92291167">
        <ele>718.0</ele>
        <time>2022-06-19T08:28:51.105Z</time>
      </trkpt>
      <trkpt lat="43.19030833" lon="-6.92291167">
        <ele>718.0</ele>
        <time>2022-06-19T08:28:52.122Z</time>
      </trkpt>
      <trkpt lat="43.19024667" lon="-6.92294333">
        <ele>718.0</ele>
        <time>2022-06-19T08:28:53.137Z</time>
      </trkpt>
      <trkpt lat="43.19021833" lon="-6.92296">
        <ele>718.0</ele>
        <time>2022-06-19T08:28:54.117Z</time>
      </trkpt>
      <trkpt lat="43.19019" lon="-6.922975">
        <ele>718.0</ele>
        <time>2022-06-19T08:28:55.111Z</time>
      </trkpt>
      <trkpt lat="43.19019" lon="-6.922975">
        <ele>718.0</ele>
        <time>2022-06-19T08:28:56.131Z</time>
      </trkpt>
      <trkpt lat="43.19014167" lon="-6.92301333">
        <ele>719.0</ele>
        <time>2022-06-19T08:28:57.098Z</time>
      </trkpt>
      <trkpt lat="43.19011833" lon="-6.92303167">
        <ele>719.0</ele>
        <time>2022-06-19T08:28:58.111Z</time>
      </trkpt>
      <trkpt lat="43.19011833" lon="-6.92303167">
        <ele>719.0</ele>
        <time>2022-06-19T08:28:59.129Z</time>
      </trkpt>
      <trkpt lat="43.19006167" lon="-6.92305">
        <ele>719.0</ele>
        <time>2022-06-19T08:29:00.101Z</time>
      </trkpt>
      <trkpt lat="43.19006167" lon="-6.92305">
        <ele>719.0</ele>
        <time>2022-06-19T08:29:01.117Z</time>
      </trkpt>
      <trkpt lat="43.19000333" lon="-6.92307">
        <ele>720.0</ele>
        <time>2022-06-19T08:29:02.099Z</time>
      </trkpt>
      <trkpt lat="43.18997333" lon="-6.92307667">
        <ele>720.0</ele>
        <time>2022-06-19T08:29:03.127Z</time>
      </trkpt>
      <trkpt lat="43.18997333" lon="-6.92307667">
        <ele>720.0</ele>
        <time>2022-06-19T08:29:04.102Z</time>
      </trkpt>
      <trkpt lat="43.18991" lon="-6.923085">
        <ele>720.0</ele>
        <time>2022-06-19T08:29:05.113Z</time>
      </trkpt>
      <trkpt lat="43.18991" lon="-6.923085">
        <ele>720.0</ele>
        <time>2022-06-19T08:29:06.100Z</time>
      </trkpt>
      <trkpt lat="43.18984833" lon="-6.92309667">
        <ele>720.0</ele>
        <time>2022-06-19T08:29:07.106Z</time>
      </trkpt>
      <trkpt lat="43.18984833" lon="-6.92309667">
        <ele>720.0</ele>
        <time>2022-06-19T08:29:08.119Z</time>
      </trkpt>
      <trkpt lat="43.18978667" lon="-6.92310833">
        <ele>720.0</ele>
        <time>2022-06-19T08:29:09.126Z</time>
      </trkpt>
      <trkpt lat="43.18978667" lon="-6.92310833">
        <ele>720.0</ele>
        <time>2022-06-19T08:29:10.101Z</time>
      </trkpt>
      <trkpt lat="43.18972667" lon="-6.92311833">
        <ele>720.0</ele>
        <time>2022-06-19T08:29:11.111Z</time>
      </trkpt>
      <trkpt lat="43.18969833" lon="-6.92312333">
        <ele>721.0</ele>
        <time>2022-06-19T08:29:12.092Z</time>
      </trkpt>
      <trkpt lat="43.18969833" lon="-6.92312333">
        <ele>721.0</ele>
        <time>2022-06-19T08:29:13.122Z</time>
      </trkpt>
      <trkpt lat="43.18964833" lon="-6.92313167">
        <ele>721.0</ele>
        <time>2022-06-19T08:29:14.092Z</time>
      </trkpt>
      <trkpt lat="43.18964833" lon="-6.92313167">
        <ele>721.0</ele>
        <time>2022-06-19T08:29:15.116Z</time>
      </trkpt>
      <trkpt lat="43.18959833" lon="-6.92313833">
        <ele>721.0</ele>
        <time>2022-06-19T08:29:16.122Z</time>
      </trkpt>
      <trkpt lat="43.18957833" lon="-6.92314167">
        <ele>721.0</ele>
        <time>2022-06-19T08:29:17.098Z</time>
      </trkpt>
      <trkpt lat="43.18957833" lon="-6.92314167">
        <ele>721.0</ele>
        <time>2022-06-19T08:29:18.120Z</time>
      </trkpt>
      <trkpt lat="43.18954167" lon="-6.92314667">
        <ele>721.0</ele>
        <time>2022-06-19T08:29:19.094Z</time>
      </trkpt>
      <trkpt lat="43.18954167" lon="-6.92314667">
        <ele>721.0</ele>
        <time>2022-06-19T08:29:20.109Z</time>
      </trkpt>
      <trkpt lat="43.18951167" lon="-6.92315333">
        <ele>722.0</ele>
        <time>2022-06-19T08:29:21.120Z</time>
      </trkpt>
      <trkpt lat="43.18951167" lon="-6.92315333">
        <ele>722.0</ele>
        <time>2022-06-19T08:29:22.118Z</time>
      </trkpt>
      <trkpt lat="43.18948167" lon="-6.92314833">
        <ele>723.0</ele>
        <time>2022-06-19T08:29:23.117Z</time>
      </trkpt>
      <trkpt lat="43.18947167" lon="-6.92314667">
        <ele>723.0</ele>
        <time>2022-06-19T08:29:24.125Z</time>
      </trkpt>
      <trkpt lat="43.18945833" lon="-6.92314167">
        <ele>724.0</ele>
        <time>2022-06-19T08:29:25.109Z</time>
      </trkpt>
      <trkpt lat="43.18945833" lon="-6.92314167">
        <ele>724.0</ele>
        <time>2022-06-19T08:29:26.127Z</time>
      </trkpt>
      <trkpt lat="43.18942333" lon="-6.92312167">
        <ele>724.0</ele>
        <time>2022-06-19T08:29:27.095Z</time>
      </trkpt>
      <trkpt lat="43.18939833" lon="-6.923115">
        <ele>724.0</ele>
        <time>2022-06-19T08:29:28.123Z</time>
      </trkpt>
      <trkpt lat="43.18937667" lon="-6.923115">
        <ele>725.0</ele>
        <time>2022-06-19T08:29:29.102Z</time>
      </trkpt>
      <trkpt lat="43.18937667" lon="-6.923115">
        <ele>725.0</ele>
        <time>2022-06-19T08:29:30.119Z</time>
      </trkpt>
      <trkpt lat="43.18933167" lon="-6.92310667">
        <ele>725.0</ele>
        <time>2022-06-19T08:29:31.131Z</time>
      </trkpt>
      <trkpt lat="43.18933167" lon="-6.92310667">
        <ele>725.0</ele>
        <time>2022-06-19T08:29:32.119Z</time>
      </trkpt>
      <trkpt lat="43.18930333" lon="-6.92309667">
        <ele>726.0</ele>
        <time>2022-06-19T08:29:33.127Z</time>
      </trkpt>
      <trkpt lat="43.18930333" lon="-6.92309667">
        <ele>726.0</ele>
        <time>2022-06-19T08:29:34.106Z</time>
      </trkpt>
      <trkpt lat="43.18926833" lon="-6.92307333">
        <ele>726.0</ele>
        <time>2022-06-19T08:29:35.135Z</time>
      </trkpt>
      <trkpt lat="43.18926833" lon="-6.92307333">
        <ele>726.0</ele>
        <time>2022-06-19T08:29:36.123Z</time>
      </trkpt>
      <trkpt lat="43.189235" lon="-6.92305167">
        <ele>727.0</ele>
        <time>2022-06-19T08:29:37.092Z</time>
      </trkpt>
      <trkpt lat="43.189235" lon="-6.92305167">
        <ele>727.0</ele>
        <time>2022-06-19T08:29:38.125Z</time>
      </trkpt>
      <trkpt lat="43.18919667" lon="-6.92303667">
        <ele>727.0</ele>
        <time>2022-06-19T08:29:39.109Z</time>
      </trkpt>
      <trkpt lat="43.18919667" lon="-6.92303667">
        <ele>727.0</ele>
        <time>2022-06-19T08:29:40.119Z</time>
      </trkpt>
      <trkpt lat="43.18916167" lon="-6.92301333">
        <ele>728.0</ele>
        <time>2022-06-19T08:29:41.130Z</time>
      </trkpt>
      <trkpt lat="43.18916167" lon="-6.92301333">
        <ele>728.0</ele>
        <time>2022-06-19T08:29:42.120Z</time>
      </trkpt>
      <trkpt lat="43.18912333" lon="-6.92299333">
        <ele>728.0</ele>
        <time>2022-06-19T08:29:43.130Z</time>
      </trkpt>
      <trkpt lat="43.18912333" lon="-6.92299333">
        <ele>728.0</ele>
        <time>2022-06-19T08:29:44.128Z</time>
      </trkpt>
      <trkpt lat="43.18907667" lon="-6.92297333">
        <ele>728.0</ele>
        <time>2022-06-19T08:29:45.096Z</time>
      </trkpt>
      <trkpt lat="43.18907667" lon="-6.92297333">
        <ele>728.0</ele>
        <time>2022-06-19T08:29:46.108Z</time>
      </trkpt>
      <trkpt lat="43.18903667" lon="-6.922945">
        <ele>728.0</ele>
        <time>2022-06-19T08:29:47.116Z</time>
      </trkpt>
      <trkpt lat="43.18903667" lon="-6.922945">
        <ele>728.0</ele>
        <time>2022-06-19T08:29:48.098Z</time>
      </trkpt>
      <trkpt lat="43.18899667" lon="-6.92292167">
        <ele>729.0</ele>
        <time>2022-06-19T08:29:49.098Z</time>
      </trkpt>
      <trkpt lat="43.18899667" lon="-6.92292167">
        <ele>729.0</ele>
        <time>2022-06-19T08:29:50.103Z</time>
      </trkpt>
      <trkpt lat="43.18895" lon="-6.922915">
        <ele>729.0</ele>
        <time>2022-06-19T08:29:51.127Z</time>
      </trkpt>
      <trkpt lat="43.18895" lon="-6.922915">
        <ele>729.0</ele>
        <time>2022-06-19T08:29:52.101Z</time>
      </trkpt>
      <trkpt lat="43.18891333" lon="-6.92289667">
        <ele>729.0</ele>
        <time>2022-06-19T08:29:53.107Z</time>
      </trkpt>
      <trkpt lat="43.18891333" lon="-6.92289667">
        <ele>729.0</ele>
        <time>2022-06-19T08:29:54.120Z</time>
      </trkpt>
      <trkpt lat="43.18886" lon="-6.92287833">
        <ele>729.0</ele>
        <time>2022-06-19T08:29:55.127Z</time>
      </trkpt>
      <trkpt lat="43.18886" lon="-6.92287833">
        <ele>729.0</ele>
        <time>2022-06-19T08:29:56.122Z</time>
      </trkpt>
      <trkpt lat="43.1888" lon="-6.92284167">
        <ele>729.0</ele>
        <time>2022-06-19T08:29:57.130Z</time>
      </trkpt>
      <trkpt lat="43.1888" lon="-6.92284167">
        <ele>729.0</ele>
        <time>2022-06-19T08:29:58.108Z</time>
      </trkpt>
      <trkpt lat="43.188725" lon="-6.92280667">
        <ele>729.0</ele>
        <time>2022-06-19T08:29:59.119Z</time>
      </trkpt>
      <trkpt lat="43.188725" lon="-6.92280667">
        <ele>729.0</ele>
        <time>2022-06-19T08:30:00.095Z</time>
      </trkpt>
      <trkpt lat="43.18865167" lon="-6.92279">
        <ele>729.0</ele>
        <time>2022-06-19T08:30:01.102Z</time>
      </trkpt>
      <trkpt lat="43.18865167" lon="-6.92279">
        <ele>729.0</ele>
        <time>2022-06-19T08:30:02.099Z</time>
      </trkpt>
      <trkpt lat="43.18859667" lon="-6.92277833">
        <ele>729.0</ele>
        <time>2022-06-19T08:30:03.107Z</time>
      </trkpt>
      <trkpt lat="43.18859667" lon="-6.92277833">
        <ele>729.0</ele>
        <time>2022-06-19T08:30:04.108Z</time>
      </trkpt>
      <trkpt lat="43.18855" lon="-6.922785">
        <ele>729.0</ele>
        <time>2022-06-19T08:30:05.123Z</time>
      </trkpt>
      <trkpt lat="43.188525" lon="-6.92279167">
        <ele>729.0</ele>
        <time>2022-06-19T08:30:06.101Z</time>
      </trkpt>
      <trkpt lat="43.188525" lon="-6.92279167">
        <ele>729.0</ele>
        <time>2022-06-19T08:30:07.121Z</time>
      </trkpt>
      <trkpt lat="43.18846667" lon="-6.922795">
        <ele>729.0</ele>
        <time>2022-06-19T08:30:08.093Z</time>
      </trkpt>
      <trkpt lat="43.18846667" lon="-6.922795">
        <ele>729.0</ele>
        <time>2022-06-19T08:30:09.107Z</time>
      </trkpt>
      <trkpt lat="43.18840833" lon="-6.922795">
        <ele>729.0</ele>
        <time>2022-06-19T08:30:10.114Z</time>
      </trkpt>
      <trkpt lat="43.18840833" lon="-6.922795">
        <ele>729.0</ele>
        <time>2022-06-19T08:30:11.092Z</time>
      </trkpt>
      <trkpt lat="43.18835" lon="-6.92280333">
        <ele>729.0</ele>
        <time>2022-06-19T08:30:12.100Z</time>
      </trkpt>
      <trkpt lat="43.18832167" lon="-6.92281">
        <ele>729.0</ele>
        <time>2022-06-19T08:30:13.127Z</time>
      </trkpt>
      <trkpt lat="43.18832167" lon="-6.92281">
        <ele>729.0</ele>
        <time>2022-06-19T08:30:14.103Z</time>
      </trkpt>
      <trkpt lat="43.188275" lon="-6.92280833">
        <ele>729.0</ele>
        <time>2022-06-19T08:30:15.111Z</time>
      </trkpt>
      <trkpt lat="43.188275" lon="-6.92280833">
        <ele>729.0</ele>
        <time>2022-06-19T08:30:16.125Z</time>
      </trkpt>
      <trkpt lat="43.18821" lon="-6.92281167">
        <ele>728.0</ele>
        <time>2022-06-19T08:30:17.129Z</time>
      </trkpt>
      <trkpt lat="43.18821" lon="-6.92281167">
        <ele>728.0</ele>
        <time>2022-06-19T08:30:18.123Z</time>
      </trkpt>
      <trkpt lat="43.18815667" lon="-6.92281667">
        <ele>728.0</ele>
        <time>2022-06-19T08:30:19.092Z</time>
      </trkpt>
      <trkpt lat="43.18815667" lon="-6.92281667">
        <ele>728.0</ele>
        <time>2022-06-19T08:30:20.104Z</time>
      </trkpt>
      <trkpt lat="43.18809667" lon="-6.92281">
        <ele>727.0</ele>
        <time>2022-06-19T08:30:21.113Z</time>
      </trkpt>
      <trkpt lat="43.18809667" lon="-6.92281">
        <ele>727.0</ele>
        <time>2022-06-19T08:30:22.094Z</time>
      </trkpt>
      <trkpt lat="43.18804667" lon="-6.92281833">
        <ele>727.0</ele>
        <time>2022-06-19T08:30:23.092Z</time>
      </trkpt>
      <trkpt lat="43.18804667" lon="-6.92281833">
        <ele>727.0</ele>
        <time>2022-06-19T08:30:24.121Z</time>
      </trkpt>
      <trkpt lat="43.188005" lon="-6.92283833">
        <ele>727.0</ele>
        <time>2022-06-19T08:30:25.130Z</time>
      </trkpt>
      <trkpt lat="43.188005" lon="-6.92283833">
        <ele>727.0</ele>
        <time>2022-06-19T08:30:26.102Z</time>
      </trkpt>
      <trkpt lat="43.18798167" lon="-6.92285">
        <ele>727.0</ele>
        <time>2022-06-19T08:30:27.112Z</time>
      </trkpt>
      <trkpt lat="43.18797333" lon="-6.92285">
        <ele>727.0</ele>
        <time>2022-06-19T08:30:28.130Z</time>
      </trkpt>
      <trkpt lat="43.18797333" lon="-6.92285">
        <ele>727.0</ele>
        <time>2022-06-19T08:30:29.102Z</time>
      </trkpt>
      <trkpt lat="43.18794667" lon="-6.92285">
        <ele>727.0</ele>
        <time>2022-06-19T08:30:30.109Z</time>
      </trkpt>
      <trkpt lat="43.18793667" lon="-6.92285">
        <ele>727.0</ele>
        <time>2022-06-19T08:30:31.128Z</time>
      </trkpt>
      <trkpt lat="43.18793667" lon="-6.92285">
        <ele>727.0</ele>
        <time>2022-06-19T08:30:32.100Z</time>
      </trkpt>
      <trkpt lat="43.18790833" lon="-6.92285333">
        <ele>727.0</ele>
        <time>2022-06-19T08:30:33.116Z</time>
      </trkpt>
      <trkpt lat="43.187895" lon="-6.92285333">
        <ele>727.0</ele>
        <time>2022-06-19T08:30:34.094Z</time>
      </trkpt>
      <trkpt lat="43.187895" lon="-6.92285333">
        <ele>727.0</ele>
        <time>2022-06-19T08:30:35.116Z</time>
      </trkpt>
      <trkpt lat="43.18784833" lon="-6.92284833">
        <ele>726.0</ele>
        <time>2022-06-19T08:30:36.124Z</time>
      </trkpt>
      <trkpt lat="43.187825" lon="-6.92284667">
        <ele>726.0</ele>
        <time>2022-06-19T08:30:37.097Z</time>
      </trkpt>
      <trkpt lat="43.187825" lon="-6.92284667">
        <ele>726.0</ele>
        <time>2022-06-19T08:30:38.117Z</time>
      </trkpt>
      <trkpt lat="43.18777833" lon="-6.92286167">
        <ele>726.0</ele>
        <time>2022-06-19T08:30:39.130Z</time>
      </trkpt>
      <trkpt lat="43.18777833" lon="-6.92286167">
        <ele>726.0</ele>
        <time>2022-06-19T08:30:40.093Z</time>
      </trkpt>
      <trkpt lat="43.18772167" lon="-6.92289333">
        <ele>726.0</ele>
        <time>2022-06-19T08:30:41.101Z</time>
      </trkpt>
      <trkpt lat="43.18772167" lon="-6.92289333">
        <ele>726.0</ele>
        <time>2022-06-19T08:30:42.119Z</time>
      </trkpt>
      <trkpt lat="43.187655" lon="-6.92291833">
        <ele>726.0</ele>
        <time>2022-06-19T08:30:43.128Z</time>
      </trkpt>
      <trkpt lat="43.187655" lon="-6.92291833">
        <ele>726.0</ele>
        <time>2022-06-19T08:30:44.101Z</time>
      </trkpt>
      <trkpt lat="43.18759667" lon="-6.92294167">
        <ele>727.0</ele>
        <time>2022-06-19T08:30:45.159Z</time>
      </trkpt>
      <trkpt lat="43.18759667" lon="-6.92294167">
        <ele>727.0</ele>
        <time>2022-06-19T08:30:46.114Z</time>
      </trkpt>
      <trkpt lat="43.187535" lon="-6.92296333">
        <ele>727.0</ele>
        <time>2022-06-19T08:30:47.123Z</time>
      </trkpt>
      <trkpt lat="43.18751167" lon="-6.92297333">
        <ele>727.0</ele>
        <time>2022-06-19T08:30:48.120Z</time>
      </trkpt>
      <trkpt lat="43.18751167" lon="-6.92297333">
        <ele>727.0</ele>
        <time>2022-06-19T08:30:49.095Z</time>
      </trkpt>
      <trkpt lat="43.18745333" lon="-6.92299667">
        <ele>727.0</ele>
        <time>2022-06-19T08:30:50.130Z</time>
      </trkpt>
      <trkpt lat="43.18742333" lon="-6.92299667">
        <ele>727.0</ele>
        <time>2022-06-19T08:30:51.098Z</time>
      </trkpt>
      <trkpt lat="43.18739167" lon="-6.923005">
        <ele>727.0</ele>
        <time>2022-06-19T08:30:52.118Z</time>
      </trkpt>
      <trkpt lat="43.18739167" lon="-6.923005">
        <ele>727.0</ele>
        <time>2022-06-19T08:30:53.092Z</time>
      </trkpt>
      <trkpt lat="43.18733833" lon="-6.92302167">
        <ele>727.0</ele>
        <time>2022-06-19T08:30:54.103Z</time>
      </trkpt>
      <trkpt lat="43.18733833" lon="-6.92302167">
        <ele>727.0</ele>
        <time>2022-06-19T08:30:55.131Z</time>
      </trkpt>
      <trkpt lat="43.187275" lon="-6.92304833">
        <ele>727.0</ele>
        <time>2022-06-19T08:30:56.110Z</time>
      </trkpt>
      <trkpt lat="43.18725167" lon="-6.92306167">
        <ele>727.0</ele>
        <time>2022-06-19T08:30:57.131Z</time>
      </trkpt>
      <trkpt lat="43.18725167" lon="-6.92306167">
        <ele>727.0</ele>
        <time>2022-06-19T08:30:58.108Z</time>
      </trkpt>
      <trkpt lat="43.18721333" lon="-6.92307667">
        <ele>727.0</ele>
        <time>2022-06-19T08:30:59.137Z</time>
      </trkpt>
      <trkpt lat="43.18721333" lon="-6.92307667">
        <ele>727.0</ele>
        <time>2022-06-19T08:31:00.108Z</time>
      </trkpt>
      <trkpt lat="43.18716167" lon="-6.92309333">
        <ele>727.0</ele>
        <time>2022-06-19T08:31:01.122Z</time>
      </trkpt>
      <trkpt lat="43.18716167" lon="-6.92309333">
        <ele>727.0</ele>
        <time>2022-06-19T08:31:02.092Z</time>
      </trkpt>
      <trkpt lat="43.18710333" lon="-6.92311">
        <ele>727.0</ele>
        <time>2022-06-19T08:31:03.110Z</time>
      </trkpt>
      <trkpt lat="43.18710333" lon="-6.92311">
        <ele>727.0</ele>
        <time>2022-06-19T08:31:04.127Z</time>
      </trkpt>
      <trkpt lat="43.18704333" lon="-6.92313667">
        <ele>727.0</ele>
        <time>2022-06-19T08:31:05.105Z</time>
      </trkpt>
      <trkpt lat="43.18704333" lon="-6.92313667">
        <ele>727.0</ele>
        <time>2022-06-19T08:31:06.118Z</time>
      </trkpt>
      <trkpt lat="43.18698333" lon="-6.92317333">
        <ele>728.0</ele>
        <time>2022-06-19T08:31:07.099Z</time>
      </trkpt>
      <trkpt lat="43.18698333" lon="-6.92317333">
        <ele>728.0</ele>
        <time>2022-06-19T08:31:08.129Z</time>
      </trkpt>
      <trkpt lat="43.18692333" lon="-6.92317">
        <ele>728.0</ele>
        <time>2022-06-19T08:31:09.139Z</time>
      </trkpt>
      <trkpt lat="43.18692333" lon="-6.92317">
        <ele>728.0</ele>
        <time>2022-06-19T08:31:10.125Z</time>
      </trkpt>
      <trkpt lat="43.18685833" lon="-6.92315667">
        <ele>728.0</ele>
        <time>2022-06-19T08:31:11.093Z</time>
      </trkpt>
      <trkpt lat="43.18685833" lon="-6.92315667">
        <ele>728.0</ele>
        <time>2022-06-19T08:31:12.127Z</time>
      </trkpt>
      <trkpt lat="43.18681333" lon="-6.92316167">
        <ele>728.0</ele>
        <time>2022-06-19T08:31:13.096Z</time>
      </trkpt>
      <trkpt lat="43.18681333" lon="-6.92316167">
        <ele>728.0</ele>
        <time>2022-06-19T08:31:14.115Z</time>
      </trkpt>
      <trkpt lat="43.18679167" lon="-6.92318333">
        <ele>728.0</ele>
        <time>2022-06-19T08:31:15.124Z</time>
      </trkpt>
      <trkpt lat="43.186785" lon="-6.92318667">
        <ele>728.0</ele>
        <time>2022-06-19T08:31:16.097Z</time>
      </trkpt>
      <trkpt lat="43.18678" lon="-6.92318833">
        <ele>728.0</ele>
        <time>2022-06-19T08:31:17.115Z</time>
      </trkpt>
      <trkpt lat="43.18678" lon="-6.92318833">
        <ele>728.0</ele>
        <time>2022-06-19T08:31:18.125Z</time>
      </trkpt>
      <trkpt lat="43.18678" lon="-6.92318833">
        <ele>728.0</ele>
        <time>2022-06-19T08:32:29.579Z</time>
      </trkpt>
      <trkpt lat="43.18673" lon="-6.923115">
        <ele>730.0</ele>
        <time>2022-06-19T08:32:30.609Z</time>
      </trkpt>
      <trkpt lat="43.18668667" lon="-6.92313333">
        <ele>730.0</ele>
        <time>2022-06-19T08:32:31.574Z</time>
      </trkpt>
      <trkpt lat="43.18668667" lon="-6.92313333">
        <ele>730.0</ele>
        <time>2022-06-19T08:32:32.607Z</time>
      </trkpt>
      <trkpt lat="43.18661333" lon="-6.92314167">
        <ele>730.0</ele>
        <time>2022-06-19T08:32:33.580Z</time>
      </trkpt>
      <trkpt lat="43.18661333" lon="-6.92314167">
        <ele>730.0</ele>
        <time>2022-06-19T08:32:34.585Z</time>
      </trkpt>
      <trkpt lat="43.18653667" lon="-6.92315333">
        <ele>730.0</ele>
        <time>2022-06-19T08:32:35.595Z</time>
      </trkpt>
      <trkpt lat="43.18653667" lon="-6.92315333">
        <ele>730.0</ele>
        <time>2022-06-19T08:32:36.602Z</time>
      </trkpt>
      <trkpt lat="43.18646" lon="-6.92315333">
        <ele>730.0</ele>
        <time>2022-06-19T08:32:37.611Z</time>
      </trkpt>
      <trkpt lat="43.18642" lon="-6.923155">
        <ele>730.0</ele>
        <time>2022-06-19T08:32:38.610Z</time>
      </trkpt>
      <trkpt lat="43.18642" lon="-6.923155">
        <ele>730.0</ele>
        <time>2022-06-19T08:32:39.575Z</time>
      </trkpt>
      <trkpt lat="43.18634" lon="-6.92315833">
        <ele>730.0</ele>
        <time>2022-06-19T08:32:40.592Z</time>
      </trkpt>
      <trkpt lat="43.18630833" lon="-6.923165">
        <ele>730.0</ele>
        <time>2022-06-19T08:32:41.610Z</time>
      </trkpt>
      <trkpt lat="43.18630833" lon="-6.923165">
        <ele>730.0</ele>
        <time>2022-06-19T08:32:42.576Z</time>
      </trkpt>
      <trkpt lat="43.18624667" lon="-6.92316333">
        <ele>730.0</ele>
        <time>2022-06-19T08:32:43.608Z</time>
      </trkpt>
      <trkpt lat="43.18624667" lon="-6.92316333">
        <ele>730.0</ele>
        <time>2022-06-19T08:32:44.573Z</time>
      </trkpt>
      <trkpt lat="43.18618167" lon="-6.92316667">
        <ele>730.0</ele>
        <time>2022-06-19T08:32:45.591Z</time>
      </trkpt>
      <trkpt lat="43.18615167" lon="-6.92316167">
        <ele>729.0</ele>
        <time>2022-06-19T08:32:46.609Z</time>
      </trkpt>
      <trkpt lat="43.18615167" lon="-6.92316167">
        <ele>729.0</ele>
        <time>2022-06-19T08:32:47.574Z</time>
      </trkpt>
      <trkpt lat="43.18609667" lon="-6.92314833">
        <ele>729.0</ele>
        <time>2022-06-19T08:32:48.595Z</time>
      </trkpt>
      <trkpt lat="43.18609667" lon="-6.92314833">
        <ele>729.0</ele>
        <time>2022-06-19T08:32:49.603Z</time>
      </trkpt>
      <trkpt lat="43.186035" lon="-6.923125">
        <ele>729.0</ele>
        <time>2022-06-19T08:32:50.593Z</time>
      </trkpt>
      <trkpt lat="43.18599833" lon="-6.92311333">
        <ele>729.0</ele>
        <time>2022-06-19T08:32:51.612Z</time>
      </trkpt>
      <trkpt lat="43.18599833" lon="-6.92311333">
        <ele>729.0</ele>
        <time>2022-06-19T08:32:52.577Z</time>
      </trkpt>
      <trkpt lat="43.185945" lon="-6.92308333">
        <ele>729.0</ele>
        <time>2022-06-19T08:32:53.592Z</time>
      </trkpt>
      <trkpt lat="43.185915" lon="-6.92306833">
        <ele>729.0</ele>
        <time>2022-06-19T08:32:54.576Z</time>
      </trkpt>
      <trkpt lat="43.185915" lon="-6.92306833">
        <ele>729.0</ele>
        <time>2022-06-19T08:32:55.582Z</time>
      </trkpt>
      <trkpt lat="43.18585667" lon="-6.92303667">
        <ele>729.0</ele>
        <time>2022-06-19T08:32:56.602Z</time>
      </trkpt>
      <trkpt lat="43.18585667" lon="-6.92303667">
        <ele>729.0</ele>
        <time>2022-06-19T08:32:57.608Z</time>
      </trkpt>
      <trkpt lat="43.18579667" lon="-6.92300333">
        <ele>728.0</ele>
        <time>2022-06-19T08:32:58.589Z</time>
      </trkpt>
      <trkpt lat="43.18579667" lon="-6.92300333">
        <ele>728.0</ele>
        <time>2022-06-19T08:32:59.600Z</time>
      </trkpt>
      <trkpt lat="43.185725" lon="-6.92298333">
        <ele>728.0</ele>
        <time>2022-06-19T08:33:00.580Z</time>
      </trkpt>
      <trkpt lat="43.185725" lon="-6.92298333">
        <ele>728.0</ele>
        <time>2022-06-19T08:33:01.578Z</time>
      </trkpt>
      <trkpt lat="43.18564667" lon="-6.92296">
        <ele>728.0</ele>
        <time>2022-06-19T08:33:02.609Z</time>
      </trkpt>
      <trkpt lat="43.18564667" lon="-6.92296">
        <ele>728.0</ele>
        <time>2022-06-19T08:33:03.576Z</time>
      </trkpt>
      <trkpt lat="43.18555" lon="-6.92293333">
        <ele>727.0</ele>
        <time>2022-06-19T08:33:04.578Z</time>
      </trkpt>
      <trkpt lat="43.18555" lon="-6.92293333">
        <ele>727.0</ele>
        <time>2022-06-19T08:33:05.606Z</time>
      </trkpt>
      <trkpt lat="43.18545667" lon="-6.92290167">
        <ele>727.0</ele>
        <time>2022-06-19T08:33:06.596Z</time>
      </trkpt>
      <trkpt lat="43.18540833" lon="-6.92289333">
        <ele>727.0</ele>
        <time>2022-06-19T08:33:07.610Z</time>
      </trkpt>
      <trkpt lat="43.18540833" lon="-6.92289333">
        <ele>727.0</ele>
        <time>2022-06-19T08:33:08.575Z</time>
      </trkpt>
      <trkpt lat="43.18532167" lon="-6.922875">
        <ele>726.0</ele>
        <time>2022-06-19T08:33:09.595Z</time>
      </trkpt>
      <trkpt lat="43.18532167" lon="-6.922875">
        <ele>726.0</ele>
        <time>2022-06-19T08:33:10.600Z</time>
      </trkpt>
      <trkpt lat="43.185235" lon="-6.92286">
        <ele>725.0</ele>
        <time>2022-06-19T08:33:11.580Z</time>
      </trkpt>
      <trkpt lat="43.185235" lon="-6.92286">
        <ele>725.0</ele>
        <time>2022-06-19T08:33:12.585Z</time>
      </trkpt>
      <trkpt lat="43.18514667" lon="-6.92285">
        <ele>725.0</ele>
        <time>2022-06-19T08:33:13.594Z</time>
      </trkpt>
      <trkpt lat="43.18514667" lon="-6.92285">
        <ele>725.0</ele>
        <time>2022-06-19T08:33:14.602Z</time>
      </trkpt>
      <trkpt lat="43.185055" lon="-6.922855">
        <ele>724.0</ele>
        <time>2022-06-19T08:33:15.573Z</time>
      </trkpt>
      <trkpt lat="43.185055" lon="-6.922855">
        <ele>724.0</ele>
        <time>2022-06-19T08:33:16.580Z</time>
      </trkpt>
      <trkpt lat="43.18497167" lon="-6.92285833">
        <ele>724.0</ele>
        <time>2022-06-19T08:33:17.601Z</time>
      </trkpt>
      <trkpt lat="43.18497167" lon="-6.92285833">
        <ele>724.0</ele>
        <time>2022-06-19T08:33:18.588Z</time>
      </trkpt>
      <trkpt lat="43.18489" lon="-6.922865">
        <ele>723.0</ele>
        <time>2022-06-19T08:33:19.602Z</time>
      </trkpt>
      <trkpt lat="43.18489" lon="-6.922865">
        <ele>723.0</ele>
        <time>2022-06-19T08:33:20.607Z</time>
      </trkpt>
      <trkpt lat="43.18480667" lon="-6.92286333">
        <ele>723.0</ele>
        <time>2022-06-19T08:33:21.579Z</time>
      </trkpt>
      <trkpt lat="43.18480667" lon="-6.92286333">
        <ele>723.0</ele>
        <time>2022-06-19T08:33:22.584Z</time>
      </trkpt>
      <trkpt lat="43.18474667" lon="-6.92284833">
        <ele>723.0</ele>
        <time>2022-06-19T08:33:23.600Z</time>
      </trkpt>
      <trkpt lat="43.18474667" lon="-6.92284833">
        <ele>723.0</ele>
        <time>2022-06-19T08:33:24.605Z</time>
      </trkpt>
      <trkpt lat="43.18467833" lon="-6.92284833">
        <ele>722.0</ele>
        <time>2022-06-19T08:33:25.609Z</time>
      </trkpt>
      <trkpt lat="43.18467833" lon="-6.92284833">
        <ele>722.0</ele>
        <time>2022-06-19T08:33:26.575Z</time>
      </trkpt>
      <trkpt lat="43.18460333" lon="-6.92284667">
        <ele>721.0</ele>
        <time>2022-06-19T08:33:27.595Z</time>
      </trkpt>
      <trkpt lat="43.18456667" lon="-6.92284667">
        <ele>721.0</ele>
        <time>2022-06-19T08:33:28.611Z</time>
      </trkpt>
      <trkpt lat="43.18456667" lon="-6.92284667">
        <ele>721.0</ele>
        <time>2022-06-19T08:33:29.579Z</time>
      </trkpt>
      <trkpt lat="43.18449833" lon="-6.92285167">
        <ele>721.0</ele>
        <time>2022-06-19T08:33:30.599Z</time>
      </trkpt>
      <trkpt lat="43.18446333" lon="-6.92285833">
        <ele>721.0</ele>
        <time>2022-06-19T08:33:31.574Z</time>
      </trkpt>
      <trkpt lat="43.18446333" lon="-6.92285833">
        <ele>721.0</ele>
        <time>2022-06-19T08:33:32.583Z</time>
      </trkpt>
      <trkpt lat="43.18438833" lon="-6.92286167">
        <ele>720.0</ele>
        <time>2022-06-19T08:33:33.597Z</time>
      </trkpt>
      <trkpt lat="43.18434667" lon="-6.92285667">
        <ele>720.0</ele>
        <time>2022-06-19T08:33:34.613Z</time>
      </trkpt>
      <trkpt lat="43.18434667" lon="-6.92285667">
        <ele>720.0</ele>
        <time>2022-06-19T08:33:35.578Z</time>
      </trkpt>
      <trkpt lat="43.18427667" lon="-6.922845">
        <ele>720.0</ele>
        <time>2022-06-19T08:33:36.592Z</time>
      </trkpt>
      <trkpt lat="43.18427667" lon="-6.922845">
        <ele>720.0</ele>
        <time>2022-06-19T08:33:37.600Z</time>
      </trkpt>
      <trkpt lat="43.18421" lon="-6.92284667">
        <ele>720.0</ele>
        <time>2022-06-19T08:33:38.585Z</time>
      </trkpt>
      <trkpt lat="43.18421" lon="-6.92284667">
        <ele>720.0</ele>
        <time>2022-06-19T08:33:39.592Z</time>
      </trkpt>
      <trkpt lat="43.18412833" lon="-6.92286667">
        <ele>719.0</ele>
        <time>2022-06-19T08:33:40.612Z</time>
      </trkpt>
      <trkpt lat="43.18412833" lon="-6.92286667">
        <ele>719.0</ele>
        <time>2022-06-19T08:33:41.577Z</time>
      </trkpt>
      <trkpt lat="43.18404667" lon="-6.92288833">
        <ele>720.0</ele>
        <time>2022-06-19T08:33:42.575Z</time>
      </trkpt>
      <trkpt lat="43.18399833" lon="-6.92291167">
        <ele>720.0</ele>
        <time>2022-06-19T08:33:43.602Z</time>
      </trkpt>
      <trkpt lat="43.18399833" lon="-6.92291167">
        <ele>720.0</ele>
        <time>2022-06-19T08:33:44.607Z</time>
      </trkpt>
      <trkpt lat="43.18389667" lon="-6.92293667">
        <ele>720.0</ele>
        <time>2022-06-19T08:33:45.597Z</time>
      </trkpt>
      <trkpt lat="43.18384667" lon="-6.92295">
        <ele>720.0</ele>
        <time>2022-06-19T08:33:46.612Z</time>
      </trkpt>
      <trkpt lat="43.18384667" lon="-6.92295">
        <ele>720.0</ele>
        <time>2022-06-19T08:33:47.578Z</time>
      </trkpt>
      <trkpt lat="43.18374833" lon="-6.92296833">
        <ele>720.0</ele>
        <time>2022-06-19T08:33:48.593Z</time>
      </trkpt>
      <trkpt lat="43.18374833" lon="-6.92296833">
        <ele>720.0</ele>
        <time>2022-06-19T08:33:49.602Z</time>
      </trkpt>
      <trkpt lat="43.18366" lon="-6.92300333">
        <ele>721.0</ele>
        <time>2022-06-19T08:33:50.587Z</time>
      </trkpt>
      <trkpt lat="43.18366" lon="-6.92300333">
        <ele>721.0</ele>
        <time>2022-06-19T08:33:51.592Z</time>
      </trkpt>
      <trkpt lat="43.183575" lon="-6.92302833">
        <ele>721.0</ele>
        <time>2022-06-19T08:33:52.579Z</time>
      </trkpt>
      <trkpt lat="43.18353333" lon="-6.92303167">
        <ele>721.0</ele>
        <time>2022-06-19T08:33:53.579Z</time>
      </trkpt>
      <trkpt lat="43.18353333" lon="-6.92303167">
        <ele>721.0</ele>
        <time>2022-06-19T08:33:54.599Z</time>
      </trkpt>
      <trkpt lat="43.18344667" lon="-6.92303167">
        <ele>721.0</ele>
        <time>2022-06-19T08:33:55.576Z</time>
      </trkpt>
      <trkpt lat="43.18344667" lon="-6.92303167">
        <ele>721.0</ele>
        <time>2022-06-19T08:33:56.581Z</time>
      </trkpt>
      <trkpt lat="43.18336667" lon="-6.92301">
        <ele>720.0</ele>
        <time>2022-06-19T08:33:57.600Z</time>
      </trkpt>
      <trkpt lat="43.18336667" lon="-6.92301">
        <ele>720.0</ele>
        <time>2022-06-19T08:33:58.605Z</time>
      </trkpt>
      <trkpt lat="43.18329667" lon="-6.92298">
        <ele>720.0</ele>
        <time>2022-06-19T08:33:59.593Z</time>
      </trkpt>
      <trkpt lat="43.18329667" lon="-6.92298">
        <ele>720.0</ele>
        <time>2022-06-19T08:34:00.609Z</time>
      </trkpt>
      <trkpt lat="43.18323333" lon="-6.92295167">
        <ele>720.0</ele>
        <time>2022-06-19T08:34:01.602Z</time>
      </trkpt>
      <trkpt lat="43.18323333" lon="-6.92295167">
        <ele>720.0</ele>
        <time>2022-06-19T08:34:02.608Z</time>
      </trkpt>
      <trkpt lat="43.18317" lon="-6.92294">
        <ele>720.0</ele>
        <time>2022-06-19T08:34:03.595Z</time>
      </trkpt>
      <trkpt lat="43.183125" lon="-6.92292833">
        <ele>720.0</ele>
        <time>2022-06-19T08:34:04.606Z</time>
      </trkpt>
      <trkpt lat="43.183125" lon="-6.92292833">
        <ele>720.0</ele>
        <time>2022-06-19T08:34:05.602Z</time>
      </trkpt>
      <trkpt lat="43.18305167" lon="-6.922905">
        <ele>720.0</ele>
        <time>2022-06-19T08:34:06.579Z</time>
      </trkpt>
      <trkpt lat="43.18305167" lon="-6.922905">
        <ele>720.0</ele>
        <time>2022-06-19T08:34:07.585Z</time>
      </trkpt>
      <trkpt lat="43.18297833" lon="-6.92288">
        <ele>720.0</ele>
        <time>2022-06-19T08:34:08.600Z</time>
      </trkpt>
      <trkpt lat="43.182945" lon="-6.92287">
        <ele>720.0</ele>
        <time>2022-06-19T08:34:09.573Z</time>
      </trkpt>
      <trkpt lat="43.182945" lon="-6.92287">
        <ele>720.0</ele>
        <time>2022-06-19T08:34:10.578Z</time>
      </trkpt>
      <trkpt lat="43.18288" lon="-6.92285333">
        <ele>720.0</ele>
        <time>2022-06-19T08:34:11.608Z</time>
      </trkpt>
      <trkpt lat="43.18288" lon="-6.92285333">
        <ele>720.0</ele>
        <time>2022-06-19T08:34:12.573Z</time>
      </trkpt>
      <trkpt lat="43.18281" lon="-6.92284333">
        <ele>720.0</ele>
        <time>2022-06-19T08:34:13.590Z</time>
      </trkpt>
      <trkpt lat="43.18281" lon="-6.92284333">
        <ele>720.0</ele>
        <time>2022-06-19T08:34:14.602Z</time>
      </trkpt>
      <trkpt lat="43.18273" lon="-6.92283167">
        <ele>720.0</ele>
        <time>2022-06-19T08:34:15.579Z</time>
      </trkpt>
      <trkpt lat="43.18273" lon="-6.92283167">
        <ele>720.0</ele>
        <time>2022-06-19T08:34:16.584Z</time>
      </trkpt>
      <trkpt lat="43.182655" lon="-6.92282833">
        <ele>719.0</ele>
        <time>2022-06-19T08:34:17.598Z</time>
      </trkpt>
      <trkpt lat="43.18261333" lon="-6.92281833">
        <ele>719.0</ele>
        <time>2022-06-19T08:34:18.592Z</time>
      </trkpt>
      <trkpt lat="43.18261333" lon="-6.92281833">
        <ele>719.0</ele>
        <time>2022-06-19T08:34:19.602Z</time>
      </trkpt>
      <trkpt lat="43.18251833" lon="-6.92281167">
        <ele>719.0</ele>
        <time>2022-06-19T08:34:20.578Z</time>
      </trkpt>
      <trkpt lat="43.18251833" lon="-6.92281167">
        <ele>719.0</ele>
        <time>2022-06-19T08:34:21.591Z</time>
      </trkpt>
      <trkpt lat="43.18242833" lon="-6.92280667">
        <ele>719.0</ele>
        <time>2022-06-19T08:34:22.579Z</time>
      </trkpt>
      <trkpt lat="43.182385" lon="-6.92280333">
        <ele>718.0</ele>
        <time>2022-06-19T08:34:23.578Z</time>
      </trkpt>
      <trkpt lat="43.182385" lon="-6.92280333">
        <ele>718.0</ele>
        <time>2022-06-19T08:34:24.583Z</time>
      </trkpt>
      <trkpt lat="43.18229833" lon="-6.92279333">
        <ele>718.0</ele>
        <time>2022-06-19T08:34:25.599Z</time>
      </trkpt>
      <trkpt lat="43.18229833" lon="-6.92279333">
        <ele>718.0</ele>
        <time>2022-06-19T08:34:26.604Z</time>
      </trkpt>
      <trkpt lat="43.18220833" lon="-6.92278">
        <ele>717.0</ele>
        <time>2022-06-19T08:34:27.597Z</time>
      </trkpt>
      <trkpt lat="43.18220833" lon="-6.92278">
        <ele>717.0</ele>
        <time>2022-06-19T08:34:28.607Z</time>
      </trkpt>
      <trkpt lat="43.18212333" lon="-6.92275333">
        <ele>717.0</ele>
        <time>2022-06-19T08:34:29.573Z</time>
      </trkpt>
      <trkpt lat="43.18212333" lon="-6.92275333">
        <ele>717.0</ele>
        <time>2022-06-19T08:34:30.578Z</time>
      </trkpt>
      <trkpt lat="43.18203833" lon="-6.92273167">
        <ele>717.0</ele>
        <time>2022-06-19T08:34:31.597Z</time>
      </trkpt>
      <trkpt lat="43.182" lon="-6.92272">
        <ele>716.0</ele>
        <time>2022-06-19T08:34:32.574Z</time>
      </trkpt>
      <trkpt lat="43.182" lon="-6.92272">
        <ele>716.0</ele>
        <time>2022-06-19T08:34:33.579Z</time>
      </trkpt>
      <trkpt lat="43.181925" lon="-6.922705">
        <ele>716.0</ele>
        <time>2022-06-19T08:34:34.587Z</time>
      </trkpt>
      <trkpt lat="43.181925" lon="-6.922705">
        <ele>716.0</ele>
        <time>2022-06-19T08:34:35.600Z</time>
      </trkpt>
      <trkpt lat="43.18184667" lon="-6.92270833">
        <ele>716.0</ele>
        <time>2022-06-19T08:34:36.577Z</time>
      </trkpt>
      <trkpt lat="43.18181" lon="-6.92271167">
        <ele>715.0</ele>
        <time>2022-06-19T08:34:37.597Z</time>
      </trkpt>
      <trkpt lat="43.18181" lon="-6.92271167">
        <ele>715.0</ele>
        <time>2022-06-19T08:34:38.603Z</time>
      </trkpt>
      <trkpt lat="43.18172333" lon="-6.92269833">
        <ele>715.0</ele>
        <time>2022-06-19T08:34:39.574Z</time>
      </trkpt>
      <trkpt lat="43.18172333" lon="-6.92269833">
        <ele>715.0</ele>
        <time>2022-06-19T08:34:40.579Z</time>
      </trkpt>
      <trkpt lat="43.18163333" lon="-6.92266667">
        <ele>715.0</ele>
        <time>2022-06-19T08:34:41.603Z</time>
      </trkpt>
      <trkpt lat="43.18159833" lon="-6.92265667">
        <ele>715.0</ele>
        <time>2022-06-19T08:34:42.579Z</time>
      </trkpt>
      <trkpt lat="43.18155333" lon="-6.92264">
        <ele>715.0</ele>
        <time>2022-06-19T08:34:43.593Z</time>
      </trkpt>
      <trkpt lat="43.18155333" lon="-6.92264">
        <ele>715.0</ele>
        <time>2022-06-19T08:34:44.603Z</time>
      </trkpt>
      <trkpt lat="43.18147667" lon="-6.92257833">
        <ele>716.0</ele>
        <time>2022-06-19T08:34:45.587Z</time>
      </trkpt>
      <trkpt lat="43.18143167" lon="-6.92254833">
        <ele>716.0</ele>
        <time>2022-06-19T08:34:46.610Z</time>
      </trkpt>
      <trkpt lat="43.18143167" lon="-6.92254833">
        <ele>716.0</ele>
        <time>2022-06-19T08:34:47.575Z</time>
      </trkpt>
      <trkpt lat="43.181355" lon="-6.92249333">
        <ele>717.0</ele>
        <time>2022-06-19T08:34:48.597Z</time>
      </trkpt>
      <trkpt lat="43.181315" lon="-6.92246833">
        <ele>717.0</ele>
        <time>2022-06-19T08:34:49.583Z</time>
      </trkpt>
      <trkpt lat="43.181315" lon="-6.92246833">
        <ele>717.0</ele>
        <time>2022-06-19T08:34:50.589Z</time>
      </trkpt>
      <trkpt lat="43.181265" lon="-6.92243">
        <ele>717.0</ele>
        <time>2022-06-19T08:34:51.576Z</time>
      </trkpt>
      <trkpt lat="43.181265" lon="-6.92243">
        <ele>717.0</ele>
        <time>2022-06-19T08:34:52.582Z</time>
      </trkpt>
      <trkpt lat="43.181235" lon="-6.92240833">
        <ele>718.0</ele>
        <time>2022-06-19T08:34:53.596Z</time>
      </trkpt>
      <trkpt lat="43.181235" lon="-6.92240833">
        <ele>718.0</ele>
        <time>2022-06-19T08:34:54.602Z</time>
      </trkpt>
      <trkpt lat="43.18119833" lon="-6.922385">
        <ele>719.0</ele>
        <time>2022-06-19T08:34:55.581Z</time>
      </trkpt>
      <trkpt lat="43.18119833" lon="-6.922385">
        <ele>719.0</ele>
        <time>2022-06-19T08:34:56.586Z</time>
      </trkpt>
      <trkpt lat="43.18117167" lon="-6.92236333">
        <ele>720.0</ele>
        <time>2022-06-19T08:34:57.603Z</time>
      </trkpt>
      <trkpt lat="43.18117167" lon="-6.92236333">
        <ele>720.0</ele>
        <time>2022-06-19T08:34:58.612Z</time>
      </trkpt>
      <trkpt lat="43.18114167" lon="-6.92234167">
        <ele>721.0</ele>
        <time>2022-06-19T08:34:59.587Z</time>
      </trkpt>
      <trkpt lat="43.18114167" lon="-6.92234167">
        <ele>721.0</ele>
        <time>2022-06-19T08:35:00.593Z</time>
      </trkpt>
      <trkpt lat="43.181105" lon="-6.92232333">
        <ele>722.0</ele>
        <time>2022-06-19T08:35:01.581Z</time>
      </trkpt>
      <trkpt lat="43.181105" lon="-6.92232333">
        <ele>722.0</ele>
        <time>2022-06-19T08:35:02.587Z</time>
      </trkpt>
      <trkpt lat="43.18106833" lon="-6.9223">
        <ele>723.0</ele>
        <time>2022-06-19T08:35:03.602Z</time>
      </trkpt>
      <trkpt lat="43.18106833" lon="-6.9223">
        <ele>723.0</ele>
        <time>2022-06-19T08:35:04.607Z</time>
      </trkpt>
      <trkpt lat="43.18103167" lon="-6.92227">
        <ele>724.0</ele>
        <time>2022-06-19T08:35:05.612Z</time>
      </trkpt>
      <trkpt lat="43.18103167" lon="-6.92227">
        <ele>724.0</ele>
        <time>2022-06-19T08:35:06.577Z</time>
      </trkpt>
      <trkpt lat="43.18098667" lon="-6.922245">
        <ele>724.0</ele>
        <time>2022-06-19T08:35:07.608Z</time>
      </trkpt>
      <trkpt lat="43.18098667" lon="-6.922245">
        <ele>724.0</ele>
        <time>2022-06-19T08:35:08.596Z</time>
      </trkpt>
      <trkpt lat="43.18095167" lon="-6.92222167">
        <ele>725.0</ele>
        <time>2022-06-19T08:35:09.591Z</time>
      </trkpt>
      <trkpt lat="43.18095167" lon="-6.92222167">
        <ele>725.0</ele>
        <time>2022-06-19T08:35:10.603Z</time>
      </trkpt>
      <trkpt lat="43.18090667" lon="-6.9222">
        <ele>725.0</ele>
        <time>2022-06-19T08:35:11.593Z</time>
      </trkpt>
      <trkpt lat="43.18090667" lon="-6.9222">
        <ele>725.0</ele>
        <time>2022-06-19T08:35:12.601Z</time>
      </trkpt>
      <trkpt lat="43.180865" lon="-6.92218333">
        <ele>726.0</ele>
        <time>2022-06-19T08:35:13.612Z</time>
      </trkpt>
      <trkpt lat="43.180865" lon="-6.92218333">
        <ele>726.0</ele>
        <time>2022-06-19T08:35:14.578Z</time>
      </trkpt>
      <trkpt lat="43.18081833" lon="-6.92216833">
        <ele>726.0</ele>
        <time>2022-06-19T08:35:15.591Z</time>
      </trkpt>
      <trkpt lat="43.18081833" lon="-6.92216833">
        <ele>726.0</ele>
        <time>2022-06-19T08:35:16.604Z</time>
      </trkpt>
      <trkpt lat="43.18078" lon="-6.92215333">
        <ele>727.0</ele>
        <time>2022-06-19T08:35:17.610Z</time>
      </trkpt>
      <trkpt lat="43.18078" lon="-6.92215333">
        <ele>727.0</ele>
        <time>2022-06-19T08:35:18.575Z</time>
      </trkpt>
      <trkpt lat="43.180725" lon="-6.922125">
        <ele>727.0</ele>
        <time>2022-06-19T08:35:19.598Z</time>
      </trkpt>
      <trkpt lat="43.180725" lon="-6.922125">
        <ele>727.0</ele>
        <time>2022-06-19T08:35:20.603Z</time>
      </trkpt>
      <trkpt lat="43.18065833" lon="-6.92210833">
        <ele>727.0</ele>
        <time>2022-06-19T08:35:21.578Z</time>
      </trkpt>
      <trkpt lat="43.18062167" lon="-6.9221">
        <ele>727.0</ele>
        <time>2022-06-19T08:35:22.602Z</time>
      </trkpt>
      <trkpt lat="43.18058667" lon="-6.92209167">
        <ele>728.0</ele>
        <time>2022-06-19T08:35:23.576Z</time>
      </trkpt>
      <trkpt lat="43.18058667" lon="-6.92209167">
        <ele>728.0</ele>
        <time>2022-06-19T08:35:24.581Z</time>
      </trkpt>
      <trkpt lat="43.180515" lon="-6.92207333">
        <ele>729.0</ele>
        <time>2022-06-19T08:35:25.600Z</time>
      </trkpt>
      <trkpt lat="43.180515" lon="-6.92207333">
        <ele>729.0</ele>
        <time>2022-06-19T08:35:26.605Z</time>
      </trkpt>
      <trkpt lat="43.18045667" lon="-6.92206167">
        <ele>729.0</ele>
        <time>2022-06-19T08:35:27.585Z</time>
      </trkpt>
      <trkpt lat="43.18045667" lon="-6.92206167">
        <ele>729.0</ele>
        <time>2022-06-19T08:35:28.590Z</time>
      </trkpt>
      <trkpt lat="43.18039667" lon="-6.92205">
        <ele>730.0</ele>
        <time>2022-06-19T08:35:29.608Z</time>
      </trkpt>
      <trkpt lat="43.18039667" lon="-6.92205">
        <ele>730.0</ele>
        <time>2022-06-19T08:35:30.577Z</time>
      </trkpt>
      <trkpt lat="43.18033" lon="-6.92203667">
        <ele>730.0</ele>
        <time>2022-06-19T08:35:31.589Z</time>
      </trkpt>
      <trkpt lat="43.18033" lon="-6.92203667">
        <ele>730.0</ele>
        <time>2022-06-19T08:35:32.576Z</time>
      </trkpt>
      <trkpt lat="43.180265" lon="-6.92203167">
        <ele>730.0</ele>
        <time>2022-06-19T08:35:33.609Z</time>
      </trkpt>
      <trkpt lat="43.180265" lon="-6.92203167">
        <ele>730.0</ele>
        <time>2022-06-19T08:35:34.578Z</time>
      </trkpt>
      <trkpt lat="43.18020167" lon="-6.92202167">
        <ele>730.0</ele>
        <time>2022-06-19T08:35:35.600Z</time>
      </trkpt>
      <trkpt lat="43.18017333" lon="-6.92202">
        <ele>730.0</ele>
        <time>2022-06-19T08:35:36.581Z</time>
      </trkpt>
      <trkpt lat="43.18017333" lon="-6.92202">
        <ele>730.0</ele>
        <time>2022-06-19T08:35:37.586Z</time>
      </trkpt>
      <trkpt lat="43.18012833" lon="-6.921995">
        <ele>730.0</ele>
        <time>2022-06-19T08:35:38.599Z</time>
      </trkpt>
      <trkpt lat="43.18012833" lon="-6.921995">
        <ele>730.0</ele>
        <time>2022-06-19T08:35:39.604Z</time>
      </trkpt>
      <trkpt lat="43.180065" lon="-6.92199167">
        <ele>730.0</ele>
        <time>2022-06-19T08:35:40.589Z</time>
      </trkpt>
      <trkpt lat="43.180065" lon="-6.92199167">
        <ele>730.0</ele>
        <time>2022-06-19T08:35:41.602Z</time>
      </trkpt>
      <trkpt lat="43.17999333" lon="-6.92199167">
        <ele>730.0</ele>
        <time>2022-06-19T08:35:42.599Z</time>
      </trkpt>
      <trkpt lat="43.17999333" lon="-6.92199167">
        <ele>730.0</ele>
        <time>2022-06-19T08:35:43.574Z</time>
      </trkpt>
      <trkpt lat="43.17992" lon="-6.92198667">
        <ele>730.0</ele>
        <time>2022-06-19T08:35:44.594Z</time>
      </trkpt>
      <trkpt lat="43.17992" lon="-6.92198667">
        <ele>730.0</ele>
        <time>2022-06-19T08:35:45.601Z</time>
      </trkpt>
      <trkpt lat="43.179845" lon="-6.92197333">
        <ele>730.0</ele>
        <time>2022-06-19T08:35:46.612Z</time>
      </trkpt>
      <trkpt lat="43.179845" lon="-6.92197333">
        <ele>730.0</ele>
        <time>2022-06-19T08:35:47.577Z</time>
      </trkpt>
      <trkpt lat="43.17978333" lon="-6.92197333">
        <ele>730.0</ele>
        <time>2022-06-19T08:35:48.598Z</time>
      </trkpt>
      <trkpt lat="43.17975" lon="-6.92196333">
        <ele>730.0</ele>
        <time>2022-06-19T08:35:49.576Z</time>
      </trkpt>
      <trkpt lat="43.17975" lon="-6.92196333">
        <ele>730.0</ele>
        <time>2022-06-19T08:35:50.581Z</time>
      </trkpt>
      <trkpt lat="43.17969167" lon="-6.921945">
        <ele>730.0</ele>
        <time>2022-06-19T08:35:51.584Z</time>
      </trkpt>
      <trkpt lat="43.17969167" lon="-6.921945">
        <ele>730.0</ele>
        <time>2022-06-19T08:35:52.602Z</time>
      </trkpt>
      <trkpt lat="43.17964" lon="-6.92193167">
        <ele>730.0</ele>
        <time>2022-06-19T08:35:53.579Z</time>
      </trkpt>
      <trkpt lat="43.17964" lon="-6.92193167">
        <ele>730.0</ele>
        <time>2022-06-19T08:35:54.584Z</time>
      </trkpt>
      <trkpt lat="43.17959333" lon="-6.92192667">
        <ele>730.0</ele>
        <time>2022-06-19T08:35:55.601Z</time>
      </trkpt>
      <trkpt lat="43.17959333" lon="-6.92192667">
        <ele>730.0</ele>
        <time>2022-06-19T08:35:56.606Z</time>
      </trkpt>
      <trkpt lat="43.17955667" lon="-6.92192">
        <ele>730.0</ele>
        <time>2022-06-19T08:35:57.601Z</time>
      </trkpt>
      <trkpt lat="43.17954" lon="-6.921915">
        <ele>729.0</ele>
        <time>2022-06-19T08:35:58.579Z</time>
      </trkpt>
      <trkpt lat="43.17954" lon="-6.921915">
        <ele>729.0</ele>
        <time>2022-06-19T08:35:59.584Z</time>
      </trkpt>
      <trkpt lat="43.17950333" lon="-6.92190667">
        <ele>729.0</ele>
        <time>2022-06-19T08:36:00.608Z</time>
      </trkpt>
      <trkpt lat="43.17947667" lon="-6.92190667">
        <ele>729.0</ele>
        <time>2022-06-19T08:36:01.599Z</time>
      </trkpt>
      <trkpt lat="43.17947667" lon="-6.92190667">
        <ele>729.0</ele>
        <time>2022-06-19T08:36:02.608Z</time>
      </trkpt>
      <trkpt lat="43.17941" lon="-6.92189333">
        <ele>729.0</ele>
        <time>2022-06-19T08:36:03.584Z</time>
      </trkpt>
      <trkpt lat="43.17941" lon="-6.92189333">
        <ele>729.0</ele>
        <time>2022-06-19T08:36:04.599Z</time>
      </trkpt>
      <trkpt lat="43.17933833" lon="-6.92187667">
        <ele>729.0</ele>
        <time>2022-06-19T08:36:05.591Z</time>
      </trkpt>
      <trkpt lat="43.17933833" lon="-6.92187667">
        <ele>729.0</ele>
        <time>2022-06-19T08:36:06.605Z</time>
      </trkpt>
      <trkpt lat="43.17928" lon="-6.92184333">
        <ele>729.0</ele>
        <time>2022-06-19T08:36:07.602Z</time>
      </trkpt>
      <trkpt lat="43.17928" lon="-6.92184333">
        <ele>729.0</ele>
        <time>2022-06-19T08:36:08.579Z</time>
      </trkpt>
      <trkpt lat="43.17921333" lon="-6.92182167">
        <ele>729.0</ele>
        <time>2022-06-19T08:36:09.608Z</time>
      </trkpt>
      <trkpt lat="43.17921333" lon="-6.92182167">
        <ele>729.0</ele>
        <time>2022-06-19T08:36:10.573Z</time>
      </trkpt>
      <trkpt lat="43.17919" lon="-6.92181833">
        <ele>729.0</ele>
        <time>2022-06-19T08:36:11.593Z</time>
      </trkpt>
      <trkpt lat="43.17919" lon="-6.92181833">
        <ele>729.0</ele>
        <time>2022-06-19T08:36:12.601Z</time>
      </trkpt>
      <trkpt lat="43.17918667" lon="-6.92181333">
        <ele>729.0</ele>
        <time>2022-06-19T08:36:22.596Z</time>
      </trkpt>
      <trkpt lat="43.17920333" lon="-6.92189167">
        <ele>727.0</ele>
        <time>2022-06-19T08:36:23.579Z</time>
      </trkpt>
      <trkpt lat="43.17920333" lon="-6.92189167">
        <ele>727.0</ele>
        <time>2022-06-19T08:36:24.567Z</time>
      </trkpt>
      <trkpt lat="43.17919" lon="-6.921945">
        <ele>727.0</ele>
        <time>2022-06-19T08:36:25.592Z</time>
      </trkpt>
      <trkpt lat="43.17919" lon="-6.921945">
        <ele>727.0</ele>
        <time>2022-06-19T08:36:26.572Z</time>
      </trkpt>
      <trkpt lat="43.17915333" lon="-6.922005">
        <ele>727.0</ele>
        <time>2022-06-19T08:36:27.603Z</time>
      </trkpt>
      <trkpt lat="43.17915333" lon="-6.922005">
        <ele>727.0</ele>
        <time>2022-06-19T08:36:28.568Z</time>
      </trkpt>
      <trkpt lat="43.17910833" lon="-6.92206667">
        <ele>727.0</ele>
        <time>2022-06-19T08:36:29.596Z</time>
      </trkpt>
      <trkpt lat="43.17908667" lon="-6.92209667">
        <ele>727.0</ele>
        <time>2022-06-19T08:36:30.572Z</time>
      </trkpt>
      <trkpt lat="43.17908667" lon="-6.92209667">
        <ele>727.0</ele>
        <time>2022-06-19T08:36:31.578Z</time>
      </trkpt>
      <trkpt lat="43.179045" lon="-6.922155">
        <ele>726.0</ele>
        <time>2022-06-19T08:36:32.571Z</time>
      </trkpt>
      <trkpt lat="43.179045" lon="-6.922155">
        <ele>726.0</ele>
        <time>2022-06-19T08:36:33.576Z</time>
      </trkpt>
      <trkpt lat="43.179015" lon="-6.92220667">
        <ele>726.0</ele>
        <time>2022-06-19T08:36:34.593Z</time>
      </trkpt>
      <trkpt lat="43.17899667" lon="-6.92223333">
        <ele>726.0</ele>
        <time>2022-06-19T08:36:35.581Z</time>
      </trkpt>
      <trkpt lat="43.17899667" lon="-6.92223333">
        <ele>726.0</ele>
        <time>2022-06-19T08:36:36.601Z</time>
      </trkpt>
      <trkpt lat="43.17897" lon="-6.92229">
        <ele>727.0</ele>
        <time>2022-06-19T08:36:37.590Z</time>
      </trkpt>
      <trkpt lat="43.17897" lon="-6.92229">
        <ele>727.0</ele>
        <time>2022-06-19T08:36:38.597Z</time>
      </trkpt>
      <trkpt lat="43.17894333" lon="-6.92234667">
        <ele>727.0</ele>
        <time>2022-06-19T08:36:39.591Z</time>
      </trkpt>
      <trkpt lat="43.17894333" lon="-6.92234667">
        <ele>727.0</ele>
        <time>2022-06-19T08:36:40.598Z</time>
      </trkpt>
      <trkpt lat="43.17891667" lon="-6.9224">
        <ele>727.0</ele>
        <time>2022-06-19T08:36:41.576Z</time>
      </trkpt>
      <trkpt lat="43.17891667" lon="-6.9224">
        <ele>727.0</ele>
        <time>2022-06-19T08:36:42.581Z</time>
      </trkpt>
      <trkpt lat="43.17888667" lon="-6.92245333">
        <ele>727.0</ele>
        <time>2022-06-19T08:36:43.596Z</time>
      </trkpt>
      <trkpt lat="43.17887333" lon="-6.92247833">
        <ele>727.0</ele>
        <time>2022-06-19T08:36:44.575Z</time>
      </trkpt>
      <trkpt lat="43.17887333" lon="-6.92247833">
        <ele>727.0</ele>
        <time>2022-06-19T08:36:45.580Z</time>
      </trkpt>
      <trkpt lat="43.17885" lon="-6.92252667">
        <ele>728.0</ele>
        <time>2022-06-19T08:36:46.569Z</time>
      </trkpt>
      <trkpt lat="43.17883333" lon="-6.92254667">
        <ele>728.0</ele>
        <time>2022-06-19T08:36:47.584Z</time>
      </trkpt>
      <trkpt lat="43.17883333" lon="-6.92254667">
        <ele>728.0</ele>
        <time>2022-06-19T08:36:48.589Z</time>
      </trkpt>
      <trkpt lat="43.17878833" lon="-6.92256667">
        <ele>728.0</ele>
        <time>2022-06-19T08:36:49.585Z</time>
      </trkpt>
      <trkpt lat="43.17876833" lon="-6.922585">
        <ele>728.0</ele>
        <time>2022-06-19T08:36:50.564Z</time>
      </trkpt>
      <trkpt lat="43.17876833" lon="-6.922585">
        <ele>728.0</ele>
        <time>2022-06-19T08:36:51.571Z</time>
      </trkpt>
      <trkpt lat="43.17872667" lon="-6.92261167">
        <ele>728.0</ele>
        <time>2022-06-19T08:36:52.595Z</time>
      </trkpt>
      <trkpt lat="43.17872667" lon="-6.92261167">
        <ele>728.0</ele>
        <time>2022-06-19T08:36:53.601Z</time>
      </trkpt>
      <trkpt lat="43.178685" lon="-6.92266">
        <ele>729.0</ele>
        <time>2022-06-19T08:36:54.573Z</time>
      </trkpt>
      <trkpt lat="43.178685" lon="-6.92266">
        <ele>729.0</ele>
        <time>2022-06-19T08:36:55.587Z</time>
      </trkpt>
      <trkpt lat="43.17863833" lon="-6.922715">
        <ele>729.0</ele>
        <time>2022-06-19T08:36:56.600Z</time>
      </trkpt>
      <trkpt lat="43.17863833" lon="-6.922715">
        <ele>729.0</ele>
        <time>2022-06-19T08:36:57.565Z</time>
      </trkpt>
      <trkpt lat="43.17858833" lon="-6.92277">
        <ele>730.0</ele>
        <time>2022-06-19T08:36:58.586Z</time>
      </trkpt>
      <trkpt lat="43.17856333" lon="-6.922795">
        <ele>730.0</ele>
        <time>2022-06-19T08:36:59.600Z</time>
      </trkpt>
      <trkpt lat="43.17856333" lon="-6.922795">
        <ele>730.0</ele>
        <time>2022-06-19T08:37:00.566Z</time>
      </trkpt>
      <trkpt lat="43.17851333" lon="-6.92284167">
        <ele>730.0</ele>
        <time>2022-06-19T08:37:01.597Z</time>
      </trkpt>
      <trkpt lat="43.17851333" lon="-6.92284167">
        <ele>730.0</ele>
        <time>2022-06-19T08:37:02.602Z</time>
      </trkpt>
      <trkpt lat="43.17846667" lon="-6.92288833">
        <ele>730.0</ele>
        <time>2022-06-19T08:37:03.587Z</time>
      </trkpt>
      <trkpt lat="43.17844" lon="-6.92291167">
        <ele>731.0</ele>
        <time>2022-06-19T08:37:04.566Z</time>
      </trkpt>
      <trkpt lat="43.17844" lon="-6.92291167">
        <ele>731.0</ele>
        <time>2022-06-19T08:37:05.571Z</time>
      </trkpt>
      <trkpt lat="43.17838333" lon="-6.92293833">
        <ele>731.0</ele>
        <time>2022-06-19T08:37:06.586Z</time>
      </trkpt>
      <trkpt lat="43.17836" lon="-6.922955">
        <ele>732.0</ele>
        <time>2022-06-19T08:37:07.602Z</time>
      </trkpt>
      <trkpt lat="43.17836" lon="-6.922955">
        <ele>732.0</ele>
        <time>2022-06-19T08:37:08.567Z</time>
      </trkpt>
      <trkpt lat="43.17832167" lon="-6.92299333">
        <ele>732.0</ele>
        <time>2022-06-19T08:37:09.586Z</time>
      </trkpt>
      <trkpt lat="43.17830333" lon="-6.92301">
        <ele>732.0</ele>
        <time>2022-06-19T08:37:10.594Z</time>
      </trkpt>
      <trkpt lat="43.17830333" lon="-6.92301">
        <ele>732.0</ele>
        <time>2022-06-19T08:37:11.565Z</time>
      </trkpt>
      <trkpt lat="43.17826" lon="-6.92304833">
        <ele>732.0</ele>
        <time>2022-06-19T08:37:12.585Z</time>
      </trkpt>
      <trkpt lat="43.17823667" lon="-6.92306833">
        <ele>733.0</ele>
        <time>2022-06-19T08:37:13.574Z</time>
      </trkpt>
      <trkpt lat="43.17823667" lon="-6.92306833">
        <ele>733.0</ele>
        <time>2022-06-19T08:37:14.579Z</time>
      </trkpt>
      <trkpt lat="43.178195" lon="-6.92310167">
        <ele>733.0</ele>
        <time>2022-06-19T08:37:15.600Z</time>
      </trkpt>
      <trkpt lat="43.17817" lon="-6.92311833">
        <ele>733.0</ele>
        <time>2022-06-19T08:37:16.574Z</time>
      </trkpt>
      <trkpt lat="43.17817" lon="-6.92311833">
        <ele>733.0</ele>
        <time>2022-06-19T08:37:17.579Z</time>
      </trkpt>
      <trkpt lat="43.17812167" lon="-6.92315333">
        <ele>733.0</ele>
        <time>2022-06-19T08:37:18.595Z</time>
      </trkpt>
      <trkpt lat="43.17809667" lon="-6.92317333">
        <ele>733.0</ele>
        <time>2022-06-19T08:37:19.586Z</time>
      </trkpt>
      <trkpt lat="43.17807167" lon="-6.923195">
        <ele>733.0</ele>
        <time>2022-06-19T08:37:20.565Z</time>
      </trkpt>
      <trkpt lat="43.17807167" lon="-6.923195">
        <ele>733.0</ele>
        <time>2022-06-19T08:37:21.577Z</time>
      </trkpt>
      <trkpt lat="43.17802167" lon="-6.92323333">
        <ele>733.0</ele>
        <time>2022-06-19T08:37:22.597Z</time>
      </trkpt>
      <trkpt lat="43.17799667" lon="-6.92325167">
        <ele>733.0</ele>
        <time>2022-06-19T08:37:23.576Z</time>
      </trkpt>
      <trkpt lat="43.17799667" lon="-6.92325167">
        <ele>733.0</ele>
        <time>2022-06-19T08:37:24.581Z</time>
      </trkpt>
      <trkpt lat="43.17795" lon="-6.92328833">
        <ele>733.0</ele>
        <time>2022-06-19T08:37:25.592Z</time>
      </trkpt>
      <trkpt lat="43.17795" lon="-6.92328833">
        <ele>733.0</ele>
        <time>2022-06-19T08:37:26.598Z</time>
      </trkpt>
      <trkpt lat="43.177905" lon="-6.92332667">
        <ele>734.0</ele>
        <time>2022-06-19T08:37:27.577Z</time>
      </trkpt>
      <trkpt lat="43.17788167" lon="-6.92334667">
        <ele>734.0</ele>
        <time>2022-06-19T08:37:28.594Z</time>
      </trkpt>
      <trkpt lat="43.17788167" lon="-6.92334667">
        <ele>734.0</ele>
        <time>2022-06-19T08:37:29.601Z</time>
      </trkpt>
      <trkpt lat="43.17783167" lon="-6.92338167">
        <ele>734.0</ele>
        <time>2022-06-19T08:37:30.576Z</time>
      </trkpt>
      <trkpt lat="43.17780833" lon="-6.9234">
        <ele>734.0</ele>
        <time>2022-06-19T08:37:31.598Z</time>
      </trkpt>
      <trkpt lat="43.17780833" lon="-6.9234">
        <ele>734.0</ele>
        <time>2022-06-19T08:37:32.604Z</time>
      </trkpt>
      <trkpt lat="43.17775667" lon="-6.923435">
        <ele>734.0</ele>
        <time>2022-06-19T08:37:33.590Z</time>
      </trkpt>
      <trkpt lat="43.17775667" lon="-6.923435">
        <ele>734.0</ele>
        <time>2022-06-19T08:37:34.564Z</time>
      </trkpt>
      <trkpt lat="43.177705" lon="-6.92346667">
        <ele>734.0</ele>
        <time>2022-06-19T08:37:35.567Z</time>
      </trkpt>
      <trkpt lat="43.17768" lon="-6.92348333">
        <ele>734.0</ele>
        <time>2022-06-19T08:37:36.591Z</time>
      </trkpt>
      <trkpt lat="43.17768" lon="-6.92348333">
        <ele>734.0</ele>
        <time>2022-06-19T08:37:37.599Z</time>
      </trkpt>
      <trkpt lat="43.17763" lon="-6.923515">
        <ele>734.0</ele>
        <time>2022-06-19T08:37:38.574Z</time>
      </trkpt>
      <trkpt lat="43.17763" lon="-6.923515">
        <ele>734.0</ele>
        <time>2022-06-19T08:37:39.579Z</time>
      </trkpt>
      <trkpt lat="43.17757833" lon="-6.92354333">
        <ele>734.0</ele>
        <time>2022-06-19T08:37:40.603Z</time>
      </trkpt>
      <trkpt lat="43.17755167" lon="-6.92356">
        <ele>734.0</ele>
        <time>2022-06-19T08:37:41.575Z</time>
      </trkpt>
      <trkpt lat="43.17755167" lon="-6.92356">
        <ele>734.0</ele>
        <time>2022-06-19T08:37:42.583Z</time>
      </trkpt>
      <trkpt lat="43.17749667" lon="-6.923585">
        <ele>734.0</ele>
        <time>2022-06-19T08:37:43.603Z</time>
      </trkpt>
      <trkpt lat="43.17749667" lon="-6.923585">
        <ele>734.0</ele>
        <time>2022-06-19T08:37:44.568Z</time>
      </trkpt>
      <trkpt lat="43.17744" lon="-6.92360333">
        <ele>734.0</ele>
        <time>2022-06-19T08:37:45.587Z</time>
      </trkpt>
      <trkpt lat="43.17741" lon="-6.92361">
        <ele>735.0</ele>
        <time>2022-06-19T08:37:46.565Z</time>
      </trkpt>
      <trkpt lat="43.17741" lon="-6.92361">
        <ele>735.0</ele>
        <time>2022-06-19T08:37:47.598Z</time>
      </trkpt>
      <trkpt lat="43.17735167" lon="-6.92362333">
        <ele>735.0</ele>
        <time>2022-06-19T08:37:48.582Z</time>
      </trkpt>
      <trkpt lat="43.17735167" lon="-6.92362333">
        <ele>735.0</ele>
        <time>2022-06-19T08:37:49.587Z</time>
      </trkpt>
      <trkpt lat="43.17729333" lon="-6.923635">
        <ele>735.0</ele>
        <time>2022-06-19T08:37:50.566Z</time>
      </trkpt>
      <trkpt lat="43.17729333" lon="-6.923635">
        <ele>735.0</ele>
        <time>2022-06-19T08:37:51.575Z</time>
      </trkpt>
      <trkpt lat="43.17723833" lon="-6.92365333">
        <ele>735.0</ele>
        <time>2022-06-19T08:37:52.602Z</time>
      </trkpt>
      <trkpt lat="43.17723833" lon="-6.92365333">
        <ele>735.0</ele>
        <time>2022-06-19T08:37:53.568Z</time>
      </trkpt>
      <trkpt lat="43.17718333" lon="-6.92368">
        <ele>735.0</ele>
        <time>2022-06-19T08:37:54.587Z</time>
      </trkpt>
      <trkpt lat="43.17718333" lon="-6.92368">
        <ele>735.0</ele>
        <time>2022-06-19T08:37:55.593Z</time>
      </trkpt>
      <trkpt lat="43.17713" lon="-6.92371">
        <ele>735.0</ele>
        <time>2022-06-19T08:37:56.573Z</time>
      </trkpt>
      <trkpt lat="43.17713" lon="-6.92371">
        <ele>735.0</ele>
        <time>2022-06-19T08:37:57.577Z</time>
      </trkpt>
      <trkpt lat="43.17708" lon="-6.92374167">
        <ele>736.0</ele>
        <time>2022-06-19T08:37:58.577Z</time>
      </trkpt>
      <trkpt lat="43.17708" lon="-6.92374167">
        <ele>736.0</ele>
        <time>2022-06-19T08:37:59.588Z</time>
      </trkpt>
      <trkpt lat="43.17702833" lon="-6.92377833">
        <ele>736.0</ele>
        <time>2022-06-19T08:38:00.572Z</time>
      </trkpt>
      <trkpt lat="43.17702833" lon="-6.92377833">
        <ele>736.0</ele>
        <time>2022-06-19T08:38:01.577Z</time>
      </trkpt>
      <trkpt lat="43.17697833" lon="-6.92381167">
        <ele>737.0</ele>
        <time>2022-06-19T08:38:02.591Z</time>
      </trkpt>
      <trkpt lat="43.17697833" lon="-6.92381167">
        <ele>737.0</ele>
        <time>2022-06-19T08:38:03.564Z</time>
      </trkpt>
      <trkpt lat="43.17692667" lon="-6.92385167">
        <ele>737.0</ele>
        <time>2022-06-19T08:38:04.581Z</time>
      </trkpt>
      <trkpt lat="43.17692667" lon="-6.92385167">
        <ele>737.0</ele>
        <time>2022-06-19T08:38:05.587Z</time>
      </trkpt>
      <trkpt lat="43.17687833" lon="-6.92389833">
        <ele>737.0</ele>
        <time>2022-06-19T08:38:06.566Z</time>
      </trkpt>
      <trkpt lat="43.17687833" lon="-6.92389833">
        <ele>737.0</ele>
        <time>2022-06-19T08:38:07.579Z</time>
      </trkpt>
      <trkpt lat="43.17683333" lon="-6.92394333">
        <ele>737.0</ele>
        <time>2022-06-19T08:38:08.592Z</time>
      </trkpt>
      <trkpt lat="43.17683333" lon="-6.92394333">
        <ele>737.0</ele>
        <time>2022-06-19T08:38:09.572Z</time>
      </trkpt>
      <trkpt lat="43.17679167" lon="-6.92399">
        <ele>737.0</ele>
        <time>2022-06-19T08:38:10.583Z</time>
      </trkpt>
      <trkpt lat="43.17679167" lon="-6.92399">
        <ele>737.0</ele>
        <time>2022-06-19T08:38:11.588Z</time>
      </trkpt>
      <trkpt lat="43.17675333" lon="-6.92404167">
        <ele>737.0</ele>
        <time>2022-06-19T08:38:12.591Z</time>
      </trkpt>
      <trkpt lat="43.17673667" lon="-6.92407">
        <ele>737.0</ele>
        <time>2022-06-19T08:38:13.588Z</time>
      </trkpt>
      <trkpt lat="43.17673667" lon="-6.92407">
        <ele>737.0</ele>
        <time>2022-06-19T08:38:14.592Z</time>
      </trkpt>
      <trkpt lat="43.17670333" lon="-6.924135">
        <ele>737.0</ele>
        <time>2022-06-19T08:38:15.571Z</time>
      </trkpt>
      <trkpt lat="43.17670333" lon="-6.924135">
        <ele>737.0</ele>
        <time>2022-06-19T08:38:16.582Z</time>
      </trkpt>
      <trkpt lat="43.17667667" lon="-6.924225">
        <ele>738.0</ele>
        <time>2022-06-19T08:38:17.599Z</time>
      </trkpt>
      <trkpt lat="43.17667667" lon="-6.924225">
        <ele>738.0</ele>
        <time>2022-06-19T08:38:18.580Z</time>
      </trkpt>
      <trkpt lat="43.17667" lon="-6.92431">
        <ele>738.0</ele>
        <time>2022-06-19T08:38:19.598Z</time>
      </trkpt>
      <trkpt lat="43.17667" lon="-6.92431">
        <ele>738.0</ele>
        <time>2022-06-19T08:38:20.564Z</time>
      </trkpt>
      <trkpt lat="43.17667167" lon="-6.92438167">
        <ele>739.0</ele>
        <time>2022-06-19T08:38:21.579Z</time>
      </trkpt>
      <trkpt lat="43.17667167" lon="-6.92438167">
        <ele>739.0</ele>
        <time>2022-06-19T08:38:22.584Z</time>
      </trkpt>
      <trkpt lat="43.176655" lon="-6.92444">
        <ele>740.0</ele>
        <time>2022-06-19T08:38:23.564Z</time>
      </trkpt>
      <trkpt lat="43.176655" lon="-6.92444">
        <ele>740.0</ele>
        <time>2022-06-19T08:38:24.573Z</time>
      </trkpt>
      <trkpt lat="43.17663333" lon="-6.92450333">
        <ele>740.0</ele>
        <time>2022-06-19T08:38:25.592Z</time>
      </trkpt>
      <trkpt lat="43.17663333" lon="-6.92450333">
        <ele>740.0</ele>
        <time>2022-06-19T08:38:26.599Z</time>
      </trkpt>
      <trkpt lat="43.176585" lon="-6.92455833">
        <ele>739.0</ele>
        <time>2022-06-19T08:38:27.575Z</time>
      </trkpt>
      <trkpt lat="43.176555" lon="-6.92457333">
        <ele>739.0</ele>
        <time>2022-06-19T08:38:28.566Z</time>
      </trkpt>
      <trkpt lat="43.176555" lon="-6.92457333">
        <ele>739.0</ele>
        <time>2022-06-19T08:38:29.570Z</time>
      </trkpt>
      <trkpt lat="43.17649" lon="-6.924595">
        <ele>739.0</ele>
        <time>2022-06-19T08:38:30.583Z</time>
      </trkpt>
      <trkpt lat="43.17649" lon="-6.924595">
        <ele>739.0</ele>
        <time>2022-06-19T08:38:31.589Z</time>
      </trkpt>
      <trkpt lat="43.176425" lon="-6.92461667">
        <ele>739.0</ele>
        <time>2022-06-19T08:38:32.575Z</time>
      </trkpt>
      <trkpt lat="43.176395" lon="-6.92462833">
        <ele>739.0</ele>
        <time>2022-06-19T08:38:33.589Z</time>
      </trkpt>
      <trkpt lat="43.176395" lon="-6.92462833">
        <ele>739.0</ele>
        <time>2022-06-19T08:38:34.594Z</time>
      </trkpt>
      <trkpt lat="43.17633333" lon="-6.92465667">
        <ele>740.0</ele>
        <time>2022-06-19T08:38:35.573Z</time>
      </trkpt>
      <trkpt lat="43.17633333" lon="-6.92465667">
        <ele>740.0</ele>
        <time>2022-06-19T08:38:36.578Z</time>
      </trkpt>
      <trkpt lat="43.17627" lon="-6.92468167">
        <ele>739.0</ele>
        <time>2022-06-19T08:38:37.595Z</time>
      </trkpt>
      <trkpt lat="43.17627" lon="-6.92468167">
        <ele>739.0</ele>
        <time>2022-06-19T08:38:38.568Z</time>
      </trkpt>
      <trkpt lat="43.17621" lon="-6.92470167">
        <ele>739.0</ele>
        <time>2022-06-19T08:38:39.578Z</time>
      </trkpt>
      <trkpt lat="43.17621" lon="-6.92470167">
        <ele>739.0</ele>
        <time>2022-06-19T08:38:40.585Z</time>
      </trkpt>
      <trkpt lat="43.17615333" lon="-6.924725">
        <ele>740.0</ele>
        <time>2022-06-19T08:38:41.603Z</time>
      </trkpt>
      <trkpt lat="43.17615333" lon="-6.924725">
        <ele>740.0</ele>
        <time>2022-06-19T08:38:42.568Z</time>
      </trkpt>
      <trkpt lat="43.17609833" lon="-6.92475333">
        <ele>740.0</ele>
        <time>2022-06-19T08:38:43.597Z</time>
      </trkpt>
      <trkpt lat="43.17609833" lon="-6.92475333">
        <ele>740.0</ele>
        <time>2022-06-19T08:38:44.603Z</time>
      </trkpt>
      <trkpt lat="43.17604" lon="-6.92477833">
        <ele>740.0</ele>
        <time>2022-06-19T08:38:45.568Z</time>
      </trkpt>
      <trkpt lat="43.17604" lon="-6.92477833">
        <ele>740.0</ele>
        <time>2022-06-19T08:38:46.583Z</time>
      </trkpt>
      <trkpt lat="43.175985" lon="-6.92480167">
        <ele>741.0</ele>
        <time>2022-06-19T08:38:47.599Z</time>
      </trkpt>
      <trkpt lat="43.175985" lon="-6.92480167">
        <ele>741.0</ele>
        <time>2022-06-19T08:38:48.564Z</time>
      </trkpt>
      <trkpt lat="43.17593" lon="-6.92482833">
        <ele>741.0</ele>
        <time>2022-06-19T08:38:49.593Z</time>
      </trkpt>
      <trkpt lat="43.17593" lon="-6.92482833">
        <ele>741.0</ele>
        <time>2022-06-19T08:38:50.581Z</time>
      </trkpt>
      <trkpt lat="43.175885" lon="-6.92485">
        <ele>741.0</ele>
        <time>2022-06-19T08:38:51.576Z</time>
      </trkpt>
      <trkpt lat="43.175885" lon="-6.92485">
        <ele>741.0</ele>
        <time>2022-06-19T08:38:52.592Z</time>
      </trkpt>
      <trkpt lat="43.17583333" lon="-6.92487333">
        <ele>742.0</ele>
        <time>2022-06-19T08:38:53.577Z</time>
      </trkpt>
      <trkpt lat="43.17580667" lon="-6.92488167">
        <ele>742.0</ele>
        <time>2022-06-19T08:38:54.568Z</time>
      </trkpt>
      <trkpt lat="43.17580667" lon="-6.92488167">
        <ele>742.0</ele>
        <time>2022-06-19T08:38:55.591Z</time>
      </trkpt>
      <trkpt lat="43.17575667" lon="-6.92489833">
        <ele>742.0</ele>
        <time>2022-06-19T08:38:56.565Z</time>
      </trkpt>
      <trkpt lat="43.17575667" lon="-6.92489833">
        <ele>742.0</ele>
        <time>2022-06-19T08:38:57.572Z</time>
      </trkpt>
      <trkpt lat="43.17570333" lon="-6.92492167">
        <ele>743.0</ele>
        <time>2022-06-19T08:38:58.587Z</time>
      </trkpt>
      <trkpt lat="43.17568" lon="-6.924935">
        <ele>743.0</ele>
        <time>2022-06-19T08:38:59.564Z</time>
      </trkpt>
      <trkpt lat="43.17568" lon="-6.924935">
        <ele>743.0</ele>
        <time>2022-06-19T08:39:00.579Z</time>
      </trkpt>
      <trkpt lat="43.17563167" lon="-6.92496333">
        <ele>743.0</ele>
        <time>2022-06-19T08:39:01.579Z</time>
      </trkpt>
      <trkpt lat="43.17561" lon="-6.92497667">
        <ele>743.0</ele>
        <time>2022-06-19T08:39:02.585Z</time>
      </trkpt>
      <trkpt lat="43.17561" lon="-6.92497667">
        <ele>743.0</ele>
        <time>2022-06-19T08:39:03.591Z</time>
      </trkpt>
      <trkpt lat="43.175565" lon="-6.92499667">
        <ele>743.0</ele>
        <time>2022-06-19T08:39:04.566Z</time>
      </trkpt>
      <trkpt lat="43.175565" lon="-6.92499667">
        <ele>743.0</ele>
        <time>2022-06-19T08:39:05.574Z</time>
      </trkpt>
      <trkpt lat="43.17551833" lon="-6.92501833">
        <ele>744.0</ele>
        <time>2022-06-19T08:39:06.879Z</time>
      </trkpt>
      <trkpt lat="43.17551833" lon="-6.92501833">
        <ele>744.0</ele>
        <time>2022-06-19T08:39:07.649Z</time>
      </trkpt>
      <trkpt lat="43.17551833" lon="-6.92501833">
        <ele>744.0</ele>
        <time>2022-06-19T08:39:08.572Z</time>
      </trkpt>
      <trkpt lat="43.17544333" lon="-6.92504667">
        <ele>744.0</ele>
        <time>2022-06-19T08:39:09.582Z</time>
      </trkpt>
      <trkpt lat="43.17541667" lon="-6.92505667">
        <ele>744.0</ele>
        <time>2022-06-19T08:39:10.601Z</time>
      </trkpt>
      <trkpt lat="43.17539" lon="-6.92506667">
        <ele>744.0</ele>
        <time>2022-06-19T08:39:11.572Z</time>
      </trkpt>
      <trkpt lat="43.17539" lon="-6.92506667">
        <ele>744.0</ele>
        <time>2022-06-19T08:39:12.580Z</time>
      </trkpt>
      <trkpt lat="43.17533833" lon="-6.92509333">
        <ele>744.0</ele>
        <time>2022-06-19T08:39:13.596Z</time>
      </trkpt>
      <trkpt lat="43.17533833" lon="-6.92509333">
        <ele>744.0</ele>
        <time>2022-06-19T08:39:14.570Z</time>
      </trkpt>
      <trkpt lat="43.17528833" lon="-6.92512333">
        <ele>743.0</ele>
        <time>2022-06-19T08:39:15.593Z</time>
      </trkpt>
      <trkpt lat="43.17526333" lon="-6.92513833">
        <ele>743.0</ele>
        <time>2022-06-19T08:39:16.572Z</time>
      </trkpt>
      <trkpt lat="43.17526333" lon="-6.92513833">
        <ele>743.0</ele>
        <time>2022-06-19T08:39:17.577Z</time>
      </trkpt>
      <trkpt lat="43.17521667" lon="-6.925165">
        <ele>743.0</ele>
        <time>2022-06-19T08:39:18.594Z</time>
      </trkpt>
      <trkpt lat="43.17519333" lon="-6.92518167">
        <ele>743.0</ele>
        <time>2022-06-19T08:39:19.579Z</time>
      </trkpt>
      <trkpt lat="43.17519333" lon="-6.92518167">
        <ele>743.0</ele>
        <time>2022-06-19T08:39:20.586Z</time>
      </trkpt>
      <trkpt lat="43.175145" lon="-6.92521167">
        <ele>743.0</ele>
        <time>2022-06-19T08:39:21.566Z</time>
      </trkpt>
      <trkpt lat="43.17512" lon="-6.925225">
        <ele>743.0</ele>
        <time>2022-06-19T08:39:22.585Z</time>
      </trkpt>
      <trkpt lat="43.17509333" lon="-6.92523667">
        <ele>743.0</ele>
        <time>2022-06-19T08:39:23.598Z</time>
      </trkpt>
      <trkpt lat="43.17509333" lon="-6.92523667">
        <ele>743.0</ele>
        <time>2022-06-19T08:39:24.603Z</time>
      </trkpt>
      <trkpt lat="43.17503833" lon="-6.92526333">
        <ele>744.0</ele>
        <time>2022-06-19T08:39:25.581Z</time>
      </trkpt>
      <trkpt lat="43.17503833" lon="-6.92526333">
        <ele>744.0</ele>
        <time>2022-06-19T08:39:26.586Z</time>
      </trkpt>
      <trkpt lat="43.17498833" lon="-6.92528667">
        <ele>744.0</ele>
        <time>2022-06-19T08:39:27.608Z</time>
      </trkpt>
      <trkpt lat="43.17496667" lon="-6.92529667">
        <ele>744.0</ele>
        <time>2022-06-19T08:39:28.721Z</time>
      </trkpt>
      <trkpt lat="43.17496667" lon="-6.92529667">
        <ele>744.0</ele>
        <time>2022-06-19T08:39:29.643Z</time>
      </trkpt>
      <trkpt lat="43.17491833" lon="-6.92532">
        <ele>744.0</ele>
        <time>2022-06-19T08:39:30.572Z</time>
      </trkpt>
      <trkpt lat="43.17489333" lon="-6.925335">
        <ele>745.0</ele>
        <time>2022-06-19T08:39:31.599Z</time>
      </trkpt>
      <trkpt lat="43.17489333" lon="-6.925335">
        <ele>745.0</ele>
        <time>2022-06-19T08:39:32.578Z</time>
      </trkpt>
      <trkpt lat="43.17484167" lon="-6.92535667">
        <ele>745.0</ele>
        <time>2022-06-19T08:39:33.602Z</time>
      </trkpt>
      <trkpt lat="43.17484167" lon="-6.92535667">
        <ele>745.0</ele>
        <time>2022-06-19T08:39:34.567Z</time>
      </trkpt>
      <trkpt lat="43.17479333" lon="-6.92538">
        <ele>745.0</ele>
        <time>2022-06-19T08:39:35.601Z</time>
      </trkpt>
      <trkpt lat="43.17479333" lon="-6.92538">
        <ele>745.0</ele>
        <time>2022-06-19T08:39:36.566Z</time>
      </trkpt>
      <trkpt lat="43.17475" lon="-6.92541167">
        <ele>746.0</ele>
        <time>2022-06-19T08:39:37.580Z</time>
      </trkpt>
      <trkpt lat="43.17475" lon="-6.92541167">
        <ele>746.0</ele>
        <time>2022-06-19T08:39:38.587Z</time>
      </trkpt>
      <trkpt lat="43.17470333" lon="-6.92543833">
        <ele>747.0</ele>
        <time>2022-06-19T08:39:39.597Z</time>
      </trkpt>
      <trkpt lat="43.17470333" lon="-6.92543833">
        <ele>747.0</ele>
        <time>2022-06-19T08:39:40.604Z</time>
      </trkpt>
      <trkpt lat="43.17465667" lon="-6.925465">
        <ele>748.0</ele>
        <time>2022-06-19T08:39:41.578Z</time>
      </trkpt>
      <trkpt lat="43.17463167" lon="-6.925475">
        <ele>748.0</ele>
        <time>2022-06-19T08:39:42.592Z</time>
      </trkpt>
      <trkpt lat="43.17460667" lon="-6.92548333">
        <ele>749.0</ele>
        <time>2022-06-19T08:39:43.571Z</time>
      </trkpt>
      <trkpt lat="43.17460667" lon="-6.92548333">
        <ele>749.0</ele>
        <time>2022-06-19T08:39:44.577Z</time>
      </trkpt>
      <trkpt lat="43.17455667" lon="-6.925505">
        <ele>749.0</ele>
        <time>2022-06-19T08:39:45.598Z</time>
      </trkpt>
      <trkpt lat="43.17453167" lon="-6.92552">
        <ele>750.0</ele>
        <time>2022-06-19T08:39:46.575Z</time>
      </trkpt>
      <trkpt lat="43.17453167" lon="-6.92552">
        <ele>750.0</ele>
        <time>2022-06-19T08:39:47.581Z</time>
      </trkpt>
      <trkpt lat="43.174485" lon="-6.92555">
        <ele>750.0</ele>
        <time>2022-06-19T08:39:48.589Z</time>
      </trkpt>
      <trkpt lat="43.17446333" lon="-6.925565">
        <ele>751.0</ele>
        <time>2022-06-19T08:39:49.601Z</time>
      </trkpt>
      <trkpt lat="43.17444333" lon="-6.92559167">
        <ele>751.0</ele>
        <time>2022-06-19T08:39:50.582Z</time>
      </trkpt>
      <trkpt lat="43.17444333" lon="-6.92559167">
        <ele>751.0</ele>
        <time>2022-06-19T08:39:51.587Z</time>
      </trkpt>
      <trkpt lat="43.17439167" lon="-6.92561">
        <ele>752.0</ele>
        <time>2022-06-19T08:39:52.588Z</time>
      </trkpt>
      <trkpt lat="43.17439167" lon="-6.92561">
        <ele>752.0</ele>
        <time>2022-06-19T08:39:53.564Z</time>
      </trkpt>
      <trkpt lat="43.17434" lon="-6.92563">
        <ele>752.0</ele>
        <time>2022-06-19T08:39:54.579Z</time>
      </trkpt>
      <trkpt lat="43.17434" lon="-6.92563">
        <ele>752.0</ele>
        <time>2022-06-19T08:39:55.564Z</time>
      </trkpt>
      <trkpt lat="43.17429333" lon="-6.92565333">
        <ele>752.0</ele>
        <time>2022-06-19T08:39:56.582Z</time>
      </trkpt>
      <trkpt lat="43.17429333" lon="-6.92565333">
        <ele>752.0</ele>
        <time>2022-06-19T08:39:57.588Z</time>
      </trkpt>
      <trkpt lat="43.17424333" lon="-6.92567">
        <ele>753.0</ele>
        <time>2022-06-19T08:39:58.573Z</time>
      </trkpt>
      <trkpt lat="43.17424333" lon="-6.92567">
        <ele>753.0</ele>
        <time>2022-06-19T08:39:59.601Z</time>
      </trkpt>
      <trkpt lat="43.174195" lon="-6.92569167">
        <ele>753.0</ele>
        <time>2022-06-19T08:40:00.587Z</time>
      </trkpt>
      <trkpt lat="43.174195" lon="-6.92569167">
        <ele>753.0</ele>
        <time>2022-06-19T08:40:01.591Z</time>
      </trkpt>
      <trkpt lat="43.17415" lon="-6.92572">
        <ele>753.0</ele>
        <time>2022-06-19T08:40:02.571Z</time>
      </trkpt>
      <trkpt lat="43.174125" lon="-6.92573333">
        <ele>754.0</ele>
        <time>2022-06-19T08:40:03.595Z</time>
      </trkpt>
      <trkpt lat="43.174125" lon="-6.92573333">
        <ele>754.0</ele>
        <time>2022-06-19T08:40:04.564Z</time>
      </trkpt>
      <trkpt lat="43.174075" lon="-6.92575667">
        <ele>754.0</ele>
        <time>2022-06-19T08:40:05.576Z</time>
      </trkpt>
      <trkpt lat="43.174075" lon="-6.92575667">
        <ele>754.0</ele>
        <time>2022-06-19T08:40:06.586Z</time>
      </trkpt>
      <trkpt lat="43.174025" lon="-6.92578167">
        <ele>754.0</ele>
        <time>2022-06-19T08:40:07.565Z</time>
      </trkpt>
      <trkpt lat="43.174025" lon="-6.92578167">
        <ele>754.0</ele>
        <time>2022-06-19T08:40:08.573Z</time>
      </trkpt>
      <trkpt lat="43.17397667" lon="-6.92580667">
        <ele>754.0</ele>
        <time>2022-06-19T08:40:09.595Z</time>
      </trkpt>
      <trkpt lat="43.17397667" lon="-6.92580667">
        <ele>754.0</ele>
        <time>2022-06-19T08:40:10.570Z</time>
      </trkpt>
      <trkpt lat="43.173925" lon="-6.92582833">
        <ele>754.0</ele>
        <time>2022-06-19T08:40:11.603Z</time>
      </trkpt>
      <trkpt lat="43.173925" lon="-6.92582833">
        <ele>754.0</ele>
        <time>2022-06-19T08:40:12.568Z</time>
      </trkpt>
      <trkpt lat="43.173875" lon="-6.925855">
        <ele>754.0</ele>
        <time>2022-06-19T08:40:13.578Z</time>
      </trkpt>
      <trkpt lat="43.173875" lon="-6.925855">
        <ele>754.0</ele>
        <time>2022-06-19T08:40:14.585Z</time>
      </trkpt>
      <trkpt lat="43.17382833" lon="-6.92588167">
        <ele>755.0</ele>
        <time>2022-06-19T08:40:15.598Z</time>
      </trkpt>
      <trkpt lat="43.17382833" lon="-6.92588167">
        <ele>755.0</ele>
        <time>2022-06-19T08:40:16.565Z</time>
      </trkpt>
      <trkpt lat="43.17377833" lon="-6.925905">
        <ele>755.0</ele>
        <time>2022-06-19T08:40:17.580Z</time>
      </trkpt>
      <trkpt lat="43.17377833" lon="-6.925905">
        <ele>755.0</ele>
        <time>2022-06-19T08:40:18.585Z</time>
      </trkpt>
      <trkpt lat="43.17372833" lon="-6.92592833">
        <ele>755.0</ele>
        <time>2022-06-19T08:40:19.602Z</time>
      </trkpt>
      <trkpt lat="43.17372833" lon="-6.92592833">
        <ele>755.0</ele>
        <time>2022-06-19T08:40:20.567Z</time>
      </trkpt>
      <trkpt lat="43.17368167" lon="-6.92595833">
        <ele>756.0</ele>
        <time>2022-06-19T08:40:21.587Z</time>
      </trkpt>
      <trkpt lat="43.17365833" lon="-6.92596667">
        <ele>757.0</ele>
        <time>2022-06-19T08:40:22.569Z</time>
      </trkpt>
      <trkpt lat="43.17365833" lon="-6.92596667">
        <ele>757.0</ele>
        <time>2022-06-19T08:40:23.574Z</time>
      </trkpt>
      <trkpt lat="43.17360833" lon="-6.92599333">
        <ele>757.0</ele>
        <time>2022-06-19T08:40:24.595Z</time>
      </trkpt>
      <trkpt lat="43.17360833" lon="-6.92599333">
        <ele>757.0</ele>
        <time>2022-06-19T08:40:25.601Z</time>
      </trkpt>
      <trkpt lat="43.17356" lon="-6.92601833">
        <ele>758.0</ele>
        <time>2022-06-19T08:40:26.602Z</time>
      </trkpt>
      <trkpt lat="43.17353667" lon="-6.92603167">
        <ele>758.0</ele>
        <time>2022-06-19T08:40:27.588Z</time>
      </trkpt>
      <trkpt lat="43.17353667" lon="-6.92603167">
        <ele>758.0</ele>
        <time>2022-06-19T08:40:28.564Z</time>
      </trkpt>
      <trkpt lat="43.17349167" lon="-6.926055">
        <ele>758.0</ele>
        <time>2022-06-19T08:40:29.586Z</time>
      </trkpt>
      <trkpt lat="43.17349167" lon="-6.926055">
        <ele>758.0</ele>
        <time>2022-06-19T08:40:30.594Z</time>
      </trkpt>
      <trkpt lat="43.17344167" lon="-6.92608333">
        <ele>759.0</ele>
        <time>2022-06-19T08:40:31.574Z</time>
      </trkpt>
      <trkpt lat="43.17341667" lon="-6.92609667">
        <ele>759.0</ele>
        <time>2022-06-19T08:40:32.596Z</time>
      </trkpt>
      <trkpt lat="43.17341667" lon="-6.92609667">
        <ele>759.0</ele>
        <time>2022-06-19T08:40:33.603Z</time>
      </trkpt>
      <trkpt lat="43.17336833" lon="-6.92612667">
        <ele>760.0</ele>
        <time>2022-06-19T08:40:34.584Z</time>
      </trkpt>
      <trkpt lat="43.17336833" lon="-6.92612667">
        <ele>760.0</ele>
        <time>2022-06-19T08:40:35.592Z</time>
      </trkpt>
      <trkpt lat="43.17332" lon="-6.92615333">
        <ele>761.0</ele>
        <time>2022-06-19T08:40:36.571Z</time>
      </trkpt>
      <trkpt lat="43.17332" lon="-6.92615333">
        <ele>761.0</ele>
        <time>2022-06-19T08:40:37.576Z</time>
      </trkpt>
      <trkpt lat="43.17327167" lon="-6.92618">
        <ele>761.0</ele>
        <time>2022-06-19T08:40:38.574Z</time>
      </trkpt>
      <trkpt lat="43.17327167" lon="-6.92618">
        <ele>761.0</ele>
        <time>2022-06-19T08:40:39.580Z</time>
      </trkpt>
      <trkpt lat="43.17322333" lon="-6.92621167">
        <ele>761.0</ele>
        <time>2022-06-19T08:40:40.600Z</time>
      </trkpt>
      <trkpt lat="43.17322333" lon="-6.92621167">
        <ele>761.0</ele>
        <time>2022-06-19T08:40:41.568Z</time>
      </trkpt>
      <trkpt lat="43.173175" lon="-6.92623833">
        <ele>762.0</ele>
        <time>2022-06-19T08:40:42.589Z</time>
      </trkpt>
      <trkpt lat="43.17315" lon="-6.92625167">
        <ele>762.0</ele>
        <time>2022-06-19T08:40:43.568Z</time>
      </trkpt>
      <trkpt lat="43.17312833" lon="-6.92626333">
        <ele>762.0</ele>
        <time>2022-06-19T08:40:44.590Z</time>
      </trkpt>
      <trkpt lat="43.17312833" lon="-6.92626333">
        <ele>762.0</ele>
        <time>2022-06-19T08:40:45.598Z</time>
      </trkpt>
      <trkpt lat="43.17307833" lon="-6.92628667">
        <ele>763.0</ele>
        <time>2022-06-19T08:40:46.574Z</time>
      </trkpt>
      <trkpt lat="43.17307833" lon="-6.92628667">
        <ele>763.0</ele>
        <time>2022-06-19T08:40:47.579Z</time>
      </trkpt>
      <trkpt lat="43.17303" lon="-6.92631">
        <ele>763.0</ele>
        <time>2022-06-19T08:40:48.596Z</time>
      </trkpt>
      <trkpt lat="43.17303" lon="-6.92631">
        <ele>763.0</ele>
        <time>2022-06-19T08:40:49.603Z</time>
      </trkpt>
      <trkpt lat="43.172985" lon="-6.92634">
        <ele>763.0</ele>
        <time>2022-06-19T08:40:50.587Z</time>
      </trkpt>
      <trkpt lat="43.172985" lon="-6.92634">
        <ele>763.0</ele>
        <time>2022-06-19T08:40:51.593Z</time>
      </trkpt>
      <trkpt lat="43.17293833" lon="-6.926385">
        <ele>764.0</ele>
        <time>2022-06-19T08:40:52.567Z</time>
      </trkpt>
      <trkpt lat="43.17291667" lon="-6.92640667">
        <ele>764.0</ele>
        <time>2022-06-19T08:40:53.588Z</time>
      </trkpt>
      <trkpt lat="43.17291667" lon="-6.92640667">
        <ele>764.0</ele>
        <time>2022-06-19T08:40:54.593Z</time>
      </trkpt>
      <trkpt lat="43.17286667" lon="-6.92643833">
        <ele>765.0</ele>
        <time>2022-06-19T08:40:55.577Z</time>
      </trkpt>
      <trkpt lat="43.17286667" lon="-6.92643833">
        <ele>765.0</ele>
        <time>2022-06-19T08:40:56.583Z</time>
      </trkpt>
      <trkpt lat="43.17281833" lon="-6.92647">
        <ele>765.0</ele>
        <time>2022-06-19T08:40:57.587Z</time>
      </trkpt>
      <trkpt lat="43.17281833" lon="-6.92647">
        <ele>765.0</ele>
        <time>2022-06-19T08:40:58.603Z</time>
      </trkpt>
      <trkpt lat="43.17277167" lon="-6.92650333">
        <ele>765.0</ele>
        <time>2022-06-19T08:40:59.604Z</time>
      </trkpt>
      <trkpt lat="43.17277167" lon="-6.92650333">
        <ele>765.0</ele>
        <time>2022-06-19T08:41:00.571Z</time>
      </trkpt>
      <trkpt lat="43.172725" lon="-6.92653167">
        <ele>765.0</ele>
        <time>2022-06-19T08:41:01.590Z</time>
      </trkpt>
      <trkpt lat="43.172725" lon="-6.92653167">
        <ele>765.0</ele>
        <time>2022-06-19T08:41:02.597Z</time>
      </trkpt>
      <trkpt lat="43.17268" lon="-6.92656167">
        <ele>766.0</ele>
        <time>2022-06-19T08:41:03.571Z</time>
      </trkpt>
      <trkpt lat="43.17265667" lon="-6.92657667">
        <ele>766.0</ele>
        <time>2022-06-19T08:41:04.584Z</time>
      </trkpt>
      <trkpt lat="43.17265667" lon="-6.92657667">
        <ele>766.0</ele>
        <time>2022-06-19T08:41:05.589Z</time>
      </trkpt>
      <trkpt lat="43.17261167" lon="-6.92661167">
        <ele>766.0</ele>
        <time>2022-06-19T08:41:06.570Z</time>
      </trkpt>
      <trkpt lat="43.17261167" lon="-6.92661167">
        <ele>766.0</ele>
        <time>2022-06-19T08:41:07.574Z</time>
      </trkpt>
      <trkpt lat="43.17256667" lon="-6.926645">
        <ele>767.0</ele>
        <time>2022-06-19T08:41:08.600Z</time>
      </trkpt>
      <trkpt lat="43.17256667" lon="-6.926645">
        <ele>767.0</ele>
        <time>2022-06-19T08:41:09.565Z</time>
      </trkpt>
      <trkpt lat="43.17252333" lon="-6.92667833">
        <ele>767.0</ele>
        <time>2022-06-19T08:41:10.593Z</time>
      </trkpt>
      <trkpt lat="43.17252333" lon="-6.92667833">
        <ele>767.0</ele>
        <time>2022-06-19T08:41:11.601Z</time>
      </trkpt>
      <trkpt lat="43.17247833" lon="-6.92671167">
        <ele>768.0</ele>
        <time>2022-06-19T08:41:12.587Z</time>
      </trkpt>
      <trkpt lat="43.17245667" lon="-6.92672667">
        <ele>768.0</ele>
        <time>2022-06-19T08:41:13.564Z</time>
      </trkpt>
      <trkpt lat="43.17245667" lon="-6.92672667">
        <ele>768.0</ele>
        <time>2022-06-19T08:41:14.579Z</time>
      </trkpt>
      <trkpt lat="43.17241" lon="-6.92676">
        <ele>768.0</ele>
        <time>2022-06-19T08:41:15.917Z</time>
      </trkpt>
      <trkpt lat="43.17241" lon="-6.92676">
        <ele>768.0</ele>
        <time>2022-06-19T08:41:16.588Z</time>
      </trkpt>
      <trkpt lat="43.172365" lon="-6.92679333">
        <ele>769.0</ele>
        <time>2022-06-19T08:41:17.594Z</time>
      </trkpt>
      <trkpt lat="43.172365" lon="-6.92679333">
        <ele>769.0</ele>
        <time>2022-06-19T08:41:18.584Z</time>
      </trkpt>
      <trkpt lat="43.17232167" lon="-6.92683">
        <ele>769.0</ele>
        <time>2022-06-19T08:41:19.606Z</time>
      </trkpt>
      <trkpt lat="43.17232167" lon="-6.92683">
        <ele>769.0</ele>
        <time>2022-06-19T08:41:20.573Z</time>
      </trkpt>
      <trkpt lat="43.17228" lon="-6.92686333">
        <ele>769.0</ele>
        <time>2022-06-19T08:41:21.567Z</time>
      </trkpt>
      <trkpt lat="43.17228" lon="-6.92686333">
        <ele>769.0</ele>
        <time>2022-06-19T08:41:22.575Z</time>
      </trkpt>
      <trkpt lat="43.17223667" lon="-6.92689">
        <ele>770.0</ele>
        <time>2022-06-19T08:41:23.602Z</time>
      </trkpt>
      <trkpt lat="43.17223667" lon="-6.92689">
        <ele>770.0</ele>
        <time>2022-06-19T08:41:24.584Z</time>
      </trkpt>
      <trkpt lat="43.17219833" lon="-6.92692667">
        <ele>770.0</ele>
        <time>2022-06-19T08:41:25.588Z</time>
      </trkpt>
      <trkpt lat="43.17218" lon="-6.92694667">
        <ele>770.0</ele>
        <time>2022-06-19T08:41:26.602Z</time>
      </trkpt>
      <trkpt lat="43.17218" lon="-6.92694667">
        <ele>770.0</ele>
        <time>2022-06-19T08:41:27.589Z</time>
      </trkpt>
      <trkpt lat="43.172145" lon="-6.92698167">
        <ele>771.0</ele>
        <time>2022-06-19T08:41:28.584Z</time>
      </trkpt>
      <trkpt lat="43.172125" lon="-6.92699833">
        <ele>771.0</ele>
        <time>2022-06-19T08:41:29.595Z</time>
      </trkpt>
      <trkpt lat="43.172105" lon="-6.927015">
        <ele>771.0</ele>
        <time>2022-06-19T08:41:30.608Z</time>
      </trkpt>
      <trkpt lat="43.172105" lon="-6.927015">
        <ele>771.0</ele>
        <time>2022-06-19T08:41:31.601Z</time>
      </trkpt>
      <trkpt lat="43.17206167" lon="-6.927045">
        <ele>771.0</ele>
        <time>2022-06-19T08:41:32.569Z</time>
      </trkpt>
      <trkpt lat="43.17204333" lon="-6.92706333">
        <ele>771.0</ele>
        <time>2022-06-19T08:41:33.568Z</time>
      </trkpt>
      <trkpt lat="43.17202167" lon="-6.92707833">
        <ele>772.0</ele>
        <time>2022-06-19T08:41:34.577Z</time>
      </trkpt>
      <trkpt lat="43.17199833" lon="-6.92709667">
        <ele>772.0</ele>
        <time>2022-06-19T08:41:35.568Z</time>
      </trkpt>
      <trkpt lat="43.17199833" lon="-6.92709667">
        <ele>772.0</ele>
        <time>2022-06-19T08:41:36.603Z</time>
      </trkpt>
      <trkpt lat="43.17196167" lon="-6.92714167">
        <ele>772.0</ele>
        <time>2022-06-19T08:41:37.581Z</time>
      </trkpt>
      <trkpt lat="43.17194" lon="-6.92716167">
        <ele>772.0</ele>
        <time>2022-06-19T08:41:38.572Z</time>
      </trkpt>
      <trkpt lat="43.17194" lon="-6.92716167">
        <ele>772.0</ele>
        <time>2022-06-19T08:41:39.566Z</time>
      </trkpt>
      <trkpt lat="43.17190167" lon="-6.92720333">
        <ele>772.0</ele>
        <time>2022-06-19T08:41:40.576Z</time>
      </trkpt>
      <trkpt lat="43.17190167" lon="-6.92720333">
        <ele>772.0</ele>
        <time>2022-06-19T08:41:41.571Z</time>
      </trkpt>
      <trkpt lat="43.171855" lon="-6.92724167">
        <ele>772.0</ele>
        <time>2022-06-19T08:41:42.572Z</time>
      </trkpt>
      <trkpt lat="43.171855" lon="-6.92724167">
        <ele>772.0</ele>
        <time>2022-06-19T08:41:43.565Z</time>
      </trkpt>
      <trkpt lat="43.171815" lon="-6.92727833">
        <ele>772.0</ele>
        <time>2022-06-19T08:41:44.590Z</time>
      </trkpt>
      <trkpt lat="43.171815" lon="-6.92727833">
        <ele>772.0</ele>
        <time>2022-06-19T08:41:45.565Z</time>
      </trkpt>
      <trkpt lat="43.17178167" lon="-6.92732">
        <ele>773.0</ele>
        <time>2022-06-19T08:41:46.598Z</time>
      </trkpt>
      <trkpt lat="43.17178167" lon="-6.92732">
        <ele>773.0</ele>
        <time>2022-06-19T08:41:47.574Z</time>
      </trkpt>
      <trkpt lat="43.17174333" lon="-6.92736333">
        <ele>773.0</ele>
        <time>2022-06-19T08:41:48.599Z</time>
      </trkpt>
      <trkpt lat="43.17174333" lon="-6.92736333">
        <ele>773.0</ele>
        <time>2022-06-19T08:41:49.576Z</time>
      </trkpt>
      <trkpt lat="43.17171167" lon="-6.92741">
        <ele>773.0</ele>
        <time>2022-06-19T08:41:50.568Z</time>
      </trkpt>
      <trkpt lat="43.17171167" lon="-6.92741">
        <ele>773.0</ele>
        <time>2022-06-19T08:41:51.585Z</time>
      </trkpt>
      <trkpt lat="43.171675" lon="-6.927455">
        <ele>774.0</ele>
        <time>2022-06-19T08:41:52.574Z</time>
      </trkpt>
      <trkpt lat="43.171675" lon="-6.927455">
        <ele>774.0</ele>
        <time>2022-06-19T08:41:53.591Z</time>
      </trkpt>
      <trkpt lat="43.17164" lon="-6.92750167">
        <ele>774.0</ele>
        <time>2022-06-19T08:41:54.565Z</time>
      </trkpt>
      <trkpt lat="43.17164" lon="-6.92750167">
        <ele>774.0</ele>
        <time>2022-06-19T08:41:55.581Z</time>
      </trkpt>
      <trkpt lat="43.17160167" lon="-6.92755167">
        <ele>775.0</ele>
        <time>2022-06-19T08:41:56.568Z</time>
      </trkpt>
      <trkpt lat="43.17158167" lon="-6.927575">
        <ele>775.0</ele>
        <time>2022-06-19T08:41:57.596Z</time>
      </trkpt>
      <trkpt lat="43.17158167" lon="-6.927575">
        <ele>775.0</ele>
        <time>2022-06-19T08:41:58.568Z</time>
      </trkpt>
      <trkpt lat="43.17154167" lon="-6.927625">
        <ele>776.0</ele>
        <time>2022-06-19T08:41:59.595Z</time>
      </trkpt>
      <trkpt lat="43.17152333" lon="-6.92765167">
        <ele>776.0</ele>
        <time>2022-06-19T08:42:00.587Z</time>
      </trkpt>
      <trkpt lat="43.171505" lon="-6.92767667">
        <ele>776.0</ele>
        <time>2022-06-19T08:42:01.576Z</time>
      </trkpt>
      <trkpt lat="43.171505" lon="-6.92767667">
        <ele>776.0</ele>
        <time>2022-06-19T08:42:02.591Z</time>
      </trkpt>
      <trkpt lat="43.171465" lon="-6.92772667">
        <ele>777.0</ele>
        <time>2022-06-19T08:42:03.593Z</time>
      </trkpt>
      <trkpt lat="43.171445" lon="-6.92775">
        <ele>777.0</ele>
        <time>2022-06-19T08:42:04.586Z</time>
      </trkpt>
      <trkpt lat="43.171445" lon="-6.92775">
        <ele>777.0</ele>
        <time>2022-06-19T08:42:05.603Z</time>
      </trkpt>
      <trkpt lat="43.17140333" lon="-6.9278">
        <ele>777.0</ele>
        <time>2022-06-19T08:42:06.588Z</time>
      </trkpt>
      <trkpt lat="43.171385" lon="-6.92782333">
        <ele>777.0</ele>
        <time>2022-06-19T08:42:07.589Z</time>
      </trkpt>
      <trkpt lat="43.171385" lon="-6.92782333">
        <ele>777.0</ele>
        <time>2022-06-19T08:42:08.602Z</time>
      </trkpt>
      <trkpt lat="43.171345" lon="-6.927875">
        <ele>778.0</ele>
        <time>2022-06-19T08:42:09.573Z</time>
      </trkpt>
      <trkpt lat="43.17132833" lon="-6.92790167">
        <ele>778.0</ele>
        <time>2022-06-19T08:42:10.578Z</time>
      </trkpt>
      <trkpt lat="43.17132833" lon="-6.92790167">
        <ele>778.0</ele>
        <time>2022-06-19T08:42:11.591Z</time>
      </trkpt>
      <trkpt lat="43.17129" lon="-6.92795833">
        <ele>778.0</ele>
        <time>2022-06-19T08:42:12.582Z</time>
      </trkpt>
      <trkpt lat="43.17126833" lon="-6.92798">
        <ele>778.0</ele>
        <time>2022-06-19T08:42:13.600Z</time>
      </trkpt>
      <trkpt lat="43.17126833" lon="-6.92798">
        <ele>778.0</ele>
        <time>2022-06-19T08:42:14.565Z</time>
      </trkpt>
      <trkpt lat="43.17122833" lon="-6.92803333">
        <ele>778.0</ele>
        <time>2022-06-19T08:42:15.567Z</time>
      </trkpt>
      <trkpt lat="43.17122833" lon="-6.92803333">
        <ele>778.0</ele>
        <time>2022-06-19T08:42:16.584Z</time>
      </trkpt>
      <trkpt lat="43.17118833" lon="-6.92808667">
        <ele>779.0</ele>
        <time>2022-06-19T08:42:17.582Z</time>
      </trkpt>
      <trkpt lat="43.17118833" lon="-6.92808667">
        <ele>779.0</ele>
        <time>2022-06-19T08:42:18.588Z</time>
      </trkpt>
      <trkpt lat="43.17114833" lon="-6.92814">
        <ele>779.0</ele>
        <time>2022-06-19T08:42:19.567Z</time>
      </trkpt>
      <trkpt lat="43.17114833" lon="-6.92814">
        <ele>779.0</ele>
        <time>2022-06-19T08:42:20.580Z</time>
      </trkpt>
      <trkpt lat="43.17111333" lon="-6.928195">
        <ele>779.0</ele>
        <time>2022-06-19T08:42:21.590Z</time>
      </trkpt>
      <trkpt lat="43.17111333" lon="-6.928195">
        <ele>779.0</ele>
        <time>2022-06-19T08:42:22.565Z</time>
      </trkpt>
      <trkpt lat="43.17108" lon="-6.92825167">
        <ele>779.0</ele>
        <time>2022-06-19T08:42:23.588Z</time>
      </trkpt>
      <trkpt lat="43.17106" lon="-6.92828">
        <ele>779.0</ele>
        <time>2022-06-19T08:42:24.584Z</time>
      </trkpt>
      <trkpt lat="43.17106" lon="-6.92828">
        <ele>779.0</ele>
        <time>2022-06-19T08:42:25.566Z</time>
      </trkpt>
      <trkpt lat="43.17102" lon="-6.928335">
        <ele>780.0</ele>
        <time>2022-06-19T08:42:26.600Z</time>
      </trkpt>
      <trkpt lat="43.17102" lon="-6.928335">
        <ele>780.0</ele>
        <time>2022-06-19T08:42:27.573Z</time>
      </trkpt>
      <trkpt lat="43.17098" lon="-6.92839333">
        <ele>780.0</ele>
        <time>2022-06-19T08:42:28.572Z</time>
      </trkpt>
      <trkpt lat="43.17096167" lon="-6.92842333">
        <ele>780.0</ele>
        <time>2022-06-19T08:42:29.573Z</time>
      </trkpt>
      <trkpt lat="43.17094167" lon="-6.92845167">
        <ele>780.0</ele>
        <time>2022-06-19T08:42:30.601Z</time>
      </trkpt>
      <trkpt lat="43.17094167" lon="-6.92845167">
        <ele>780.0</ele>
        <time>2022-06-19T08:42:31.568Z</time>
      </trkpt>
      <trkpt lat="43.170905" lon="-6.92851">
        <ele>780.0</ele>
        <time>2022-06-19T08:42:32.582Z</time>
      </trkpt>
      <trkpt lat="43.17088667" lon="-6.92853833">
        <ele>780.0</ele>
        <time>2022-06-19T08:42:33.588Z</time>
      </trkpt>
      <trkpt lat="43.17086833" lon="-6.928565">
        <ele>781.0</ele>
        <time>2022-06-19T08:42:34.595Z</time>
      </trkpt>
      <trkpt lat="43.17086833" lon="-6.928565">
        <ele>781.0</ele>
        <time>2022-06-19T08:42:35.569Z</time>
      </trkpt>
      <trkpt lat="43.17083" lon="-6.92862333">
        <ele>781.0</ele>
        <time>2022-06-19T08:42:36.564Z</time>
      </trkpt>
      <trkpt lat="43.17081" lon="-6.92865">
        <ele>781.0</ele>
        <time>2022-06-19T08:42:37.587Z</time>
      </trkpt>
      <trkpt lat="43.17081" lon="-6.92865">
        <ele>781.0</ele>
        <time>2022-06-19T08:42:38.592Z</time>
      </trkpt>
      <trkpt lat="43.17077" lon="-6.92870333">
        <ele>782.0</ele>
        <time>2022-06-19T08:42:39.601Z</time>
      </trkpt>
      <trkpt lat="43.17075167" lon="-6.92873">
        <ele>782.0</ele>
        <time>2022-06-19T08:42:40.595Z</time>
      </trkpt>
      <trkpt lat="43.17075167" lon="-6.92873">
        <ele>782.0</ele>
        <time>2022-06-19T08:42:41.566Z</time>
      </trkpt>
      <trkpt lat="43.17071167" lon="-6.92878833">
        <ele>782.0</ele>
        <time>2022-06-19T08:42:42.590Z</time>
      </trkpt>
      <trkpt lat="43.17069333" lon="-6.92882">
        <ele>782.0</ele>
        <time>2022-06-19T08:42:43.578Z</time>
      </trkpt>
      <trkpt lat="43.17069333" lon="-6.92882">
        <ele>782.0</ele>
        <time>2022-06-19T08:42:44.589Z</time>
      </trkpt>
      <trkpt lat="43.170655" lon="-6.92887833">
        <ele>782.0</ele>
        <time>2022-06-19T08:42:45.574Z</time>
      </trkpt>
      <trkpt lat="43.17063667" lon="-6.92890667">
        <ele>782.0</ele>
        <time>2022-06-19T08:42:46.573Z</time>
      </trkpt>
      <trkpt lat="43.17063667" lon="-6.92890667">
        <ele>782.0</ele>
        <time>2022-06-19T08:42:47.589Z</time>
      </trkpt>
      <trkpt lat="43.17060167" lon="-6.92896833">
        <ele>783.0</ele>
        <time>2022-06-19T08:42:48.574Z</time>
      </trkpt>
      <trkpt lat="43.17058167" lon="-6.92899667">
        <ele>783.0</ele>
        <time>2022-06-19T08:42:49.566Z</time>
      </trkpt>
      <trkpt lat="43.17056333" lon="-6.929025">
        <ele>783.0</ele>
        <time>2022-06-19T08:42:50.598Z</time>
      </trkpt>
      <trkpt lat="43.17056333" lon="-6.929025">
        <ele>783.0</ele>
        <time>2022-06-19T08:42:51.567Z</time>
      </trkpt>
      <trkpt lat="43.17052667" lon="-6.92908333">
        <ele>783.0</ele>
        <time>2022-06-19T08:42:52.608Z</time>
      </trkpt>
      <trkpt lat="43.170505" lon="-6.92911167">
        <ele>783.0</ele>
        <time>2022-06-19T08:42:53.568Z</time>
      </trkpt>
      <trkpt lat="43.17048667" lon="-6.92914">
        <ele>783.0</ele>
        <time>2022-06-19T08:42:54.598Z</time>
      </trkpt>
      <trkpt lat="43.17048667" lon="-6.92914">
        <ele>783.0</ele>
        <time>2022-06-19T08:42:55.567Z</time>
      </trkpt>
      <trkpt lat="43.17044833" lon="-6.92919667">
        <ele>783.0</ele>
        <time>2022-06-19T08:42:56.599Z</time>
      </trkpt>
      <trkpt lat="43.17044833" lon="-6.92919667">
        <ele>783.0</ele>
        <time>2022-06-19T08:42:57.565Z</time>
      </trkpt>
      <trkpt lat="43.17041" lon="-6.92925667">
        <ele>783.0</ele>
        <time>2022-06-19T08:42:58.578Z</time>
      </trkpt>
      <trkpt lat="43.17041" lon="-6.92925667">
        <ele>783.0</ele>
        <time>2022-06-19T08:42:59.566Z</time>
      </trkpt>
      <trkpt lat="43.17037167" lon="-6.92931833">
        <ele>784.0</ele>
        <time>2022-06-19T08:43:00.595Z</time>
      </trkpt>
      <trkpt lat="43.17037167" lon="-6.92931833">
        <ele>784.0</ele>
        <time>2022-06-19T08:43:01.565Z</time>
      </trkpt>
      <trkpt lat="43.17033" lon="-6.92937833">
        <ele>784.0</ele>
        <time>2022-06-19T08:43:02.591Z</time>
      </trkpt>
      <trkpt lat="43.17031" lon="-6.92940667">
        <ele>784.0</ele>
        <time>2022-06-19T08:43:03.587Z</time>
      </trkpt>
      <trkpt lat="43.17029" lon="-6.92943667">
        <ele>784.0</ele>
        <time>2022-06-19T08:43:04.581Z</time>
      </trkpt>
      <trkpt lat="43.17027167" lon="-6.92946667">
        <ele>784.0</ele>
        <time>2022-06-19T08:43:05.599Z</time>
      </trkpt>
      <trkpt lat="43.17027167" lon="-6.92946667">
        <ele>784.0</ele>
        <time>2022-06-19T08:43:06.566Z</time>
      </trkpt>
      <trkpt lat="43.17023333" lon="-6.929525">
        <ele>785.0</ele>
        <time>2022-06-19T08:43:07.591Z</time>
      </trkpt>
      <trkpt lat="43.17023333" lon="-6.929525">
        <ele>785.0</ele>
        <time>2022-06-19T08:43:08.596Z</time>
      </trkpt>
      <trkpt lat="43.17019333" lon="-6.92958667">
        <ele>785.0</ele>
        <time>2022-06-19T08:43:09.578Z</time>
      </trkpt>
      <trkpt lat="43.170175" lon="-6.92961667">
        <ele>785.0</ele>
        <time>2022-06-19T08:43:10.574Z</time>
      </trkpt>
      <trkpt lat="43.170175" lon="-6.92961667">
        <ele>785.0</ele>
        <time>2022-06-19T08:43:11.579Z</time>
      </trkpt>
      <trkpt lat="43.17013333" lon="-6.929675">
        <ele>785.0</ele>
        <time>2022-06-19T08:43:12.576Z</time>
      </trkpt>
      <trkpt lat="43.17011333" lon="-6.92970333">
        <ele>785.0</ele>
        <time>2022-06-19T08:43:13.589Z</time>
      </trkpt>
      <trkpt lat="43.17011333" lon="-6.92970333">
        <ele>785.0</ele>
        <time>2022-06-19T08:43:14.601Z</time>
      </trkpt>
      <trkpt lat="43.17007167" lon="-6.92976">
        <ele>786.0</ele>
        <time>2022-06-19T08:43:15.589Z</time>
      </trkpt>
      <trkpt lat="43.17005167" lon="-6.92979">
        <ele>786.0</ele>
        <time>2022-06-19T08:43:16.582Z</time>
      </trkpt>
      <trkpt lat="43.17005167" lon="-6.92979">
        <ele>786.0</ele>
        <time>2022-06-19T08:43:17.595Z</time>
      </trkpt>
      <trkpt lat="43.17001333" lon="-6.92985">
        <ele>786.0</ele>
        <time>2022-06-19T08:43:18.597Z</time>
      </trkpt>
      <trkpt lat="43.169995" lon="-6.92988">
        <ele>786.0</ele>
        <time>2022-06-19T08:43:19.589Z</time>
      </trkpt>
      <trkpt lat="43.169995" lon="-6.92988">
        <ele>786.0</ele>
        <time>2022-06-19T08:43:20.594Z</time>
      </trkpt>
      <trkpt lat="43.169955" lon="-6.92993667">
        <ele>786.0</ele>
        <time>2022-06-19T08:43:21.596Z</time>
      </trkpt>
      <trkpt lat="43.169935" lon="-6.92996167">
        <ele>786.0</ele>
        <time>2022-06-19T08:43:22.593Z</time>
      </trkpt>
      <trkpt lat="43.169935" lon="-6.92996167">
        <ele>786.0</ele>
        <time>2022-06-19T08:43:23.572Z</time>
      </trkpt>
      <trkpt lat="43.16989833" lon="-6.93002333">
        <ele>787.0</ele>
        <time>2022-06-19T08:43:24.587Z</time>
      </trkpt>
      <trkpt lat="43.16987833" lon="-6.93005167">
        <ele>787.0</ele>
        <time>2022-06-19T08:43:25.575Z</time>
      </trkpt>
      <trkpt lat="43.16987833" lon="-6.93005167">
        <ele>787.0</ele>
        <time>2022-06-19T08:43:26.580Z</time>
      </trkpt>
      <trkpt lat="43.16983667" lon="-6.930105">
        <ele>787.0</ele>
        <time>2022-06-19T08:43:27.594Z</time>
      </trkpt>
      <trkpt lat="43.169815" lon="-6.93012833">
        <ele>787.0</ele>
        <time>2022-06-19T08:43:28.585Z</time>
      </trkpt>
      <trkpt lat="43.169815" lon="-6.93012833">
        <ele>787.0</ele>
        <time>2022-06-19T08:43:29.590Z</time>
      </trkpt>
      <trkpt lat="43.16976833" lon="-6.93017667">
        <ele>788.0</ele>
        <time>2022-06-19T08:43:30.572Z</time>
      </trkpt>
      <trkpt lat="43.16974833" lon="-6.9302">
        <ele>788.0</ele>
        <time>2022-06-19T08:43:31.597Z</time>
      </trkpt>
      <trkpt lat="43.16974833" lon="-6.9302">
        <ele>788.0</ele>
        <time>2022-06-19T08:43:32.603Z</time>
      </trkpt>
      <trkpt lat="43.16970333" lon="-6.93024833">
        <ele>789.0</ele>
        <time>2022-06-19T08:43:33.601Z</time>
      </trkpt>
      <trkpt lat="43.16970333" lon="-6.93024833">
        <ele>789.0</ele>
        <time>2022-06-19T08:43:34.567Z</time>
      </trkpt>
      <trkpt lat="43.16966" lon="-6.93029333">
        <ele>789.0</ele>
        <time>2022-06-19T08:43:35.565Z</time>
      </trkpt>
      <trkpt lat="43.16966" lon="-6.93029333">
        <ele>789.0</ele>
        <time>2022-06-19T08:43:36.570Z</time>
      </trkpt>
      <trkpt lat="43.16961667" lon="-6.930335">
        <ele>790.0</ele>
        <time>2022-06-19T08:43:37.588Z</time>
      </trkpt>
      <trkpt lat="43.16961667" lon="-6.930335">
        <ele>790.0</ele>
        <time>2022-06-19T08:43:38.594Z</time>
      </trkpt>
      <trkpt lat="43.16956833" lon="-6.930375">
        <ele>791.0</ele>
        <time>2022-06-19T08:43:39.587Z</time>
      </trkpt>
      <trkpt lat="43.16954167" lon="-6.93039167">
        <ele>791.0</ele>
        <time>2022-06-19T08:43:40.592Z</time>
      </trkpt>
      <trkpt lat="43.16954167" lon="-6.93039167">
        <ele>791.0</ele>
        <time>2022-06-19T08:43:41.579Z</time>
      </trkpt>
      <trkpt lat="43.16949" lon="-6.93042167">
        <ele>792.0</ele>
        <time>2022-06-19T08:43:42.570Z</time>
      </trkpt>
      <trkpt lat="43.169465" lon="-6.93043667">
        <ele>792.0</ele>
        <time>2022-06-19T08:43:43.603Z</time>
      </trkpt>
      <trkpt lat="43.169465" lon="-6.93043667">
        <ele>792.0</ele>
        <time>2022-06-19T08:43:44.567Z</time>
      </trkpt>
      <trkpt lat="43.16941667" lon="-6.93047167">
        <ele>792.0</ele>
        <time>2022-06-19T08:43:45.569Z</time>
      </trkpt>
      <trkpt lat="43.16941667" lon="-6.93047167">
        <ele>792.0</ele>
        <time>2022-06-19T08:43:46.574Z</time>
      </trkpt>
      <trkpt lat="43.16937" lon="-6.93050667">
        <ele>793.0</ele>
        <time>2022-06-19T08:43:47.603Z</time>
      </trkpt>
      <trkpt lat="43.16937" lon="-6.93050667">
        <ele>793.0</ele>
        <time>2022-06-19T08:43:48.568Z</time>
      </trkpt>
      <trkpt lat="43.16932833" lon="-6.930545">
        <ele>794.0</ele>
        <time>2022-06-19T08:43:49.569Z</time>
      </trkpt>
      <trkpt lat="43.169305" lon="-6.930565">
        <ele>794.0</ele>
        <time>2022-06-19T08:43:50.602Z</time>
      </trkpt>
      <trkpt lat="43.169305" lon="-6.930565">
        <ele>794.0</ele>
        <time>2022-06-19T08:43:51.568Z</time>
      </trkpt>
      <trkpt lat="43.16926" lon="-6.93059833">
        <ele>794.0</ele>
        <time>2022-06-19T08:43:52.594Z</time>
      </trkpt>
      <trkpt lat="43.16923833" lon="-6.93061667">
        <ele>794.0</ele>
        <time>2022-06-19T08:43:53.593Z</time>
      </trkpt>
      <trkpt lat="43.169215" lon="-6.93063333">
        <ele>795.0</ele>
        <time>2022-06-19T08:43:54.573Z</time>
      </trkpt>
      <trkpt lat="43.169215" lon="-6.93063333">
        <ele>795.0</ele>
        <time>2022-06-19T08:43:55.578Z</time>
      </trkpt>
      <trkpt lat="43.16918" lon="-6.93066833">
        <ele>795.0</ele>
        <time>2022-06-19T08:43:56.602Z</time>
      </trkpt>
      <trkpt lat="43.16918" lon="-6.93066833">
        <ele>795.0</ele>
        <time>2022-06-19T08:43:57.568Z</time>
      </trkpt>
      <trkpt lat="43.16913667" lon="-6.93070333">
        <ele>795.0</ele>
        <time>2022-06-19T08:43:58.592Z</time>
      </trkpt>
      <trkpt lat="43.16913667" lon="-6.93070333">
        <ele>795.0</ele>
        <time>2022-06-19T08:43:59.600Z</time>
      </trkpt>
      <trkpt lat="43.16909667" lon="-6.93074333">
        <ele>796.0</ele>
        <time>2022-06-19T08:44:00.591Z</time>
      </trkpt>
      <trkpt lat="43.16909667" lon="-6.93074333">
        <ele>796.0</ele>
        <time>2022-06-19T08:44:01.564Z</time>
      </trkpt>
      <trkpt lat="43.16905" lon="-6.93077167">
        <ele>796.0</ele>
        <time>2022-06-19T08:44:02.585Z</time>
      </trkpt>
      <trkpt lat="43.16902667" lon="-6.93079167">
        <ele>797.0</ele>
        <time>2022-06-19T08:44:03.587Z</time>
      </trkpt>
      <trkpt lat="43.16902667" lon="-6.93079167">
        <ele>797.0</ele>
        <time>2022-06-19T08:44:04.597Z</time>
      </trkpt>
      <trkpt lat="43.16898167" lon="-6.93083167">
        <ele>797.0</ele>
        <time>2022-06-19T08:44:05.588Z</time>
      </trkpt>
      <trkpt lat="43.16898167" lon="-6.93083167">
        <ele>797.0</ele>
        <time>2022-06-19T08:44:06.593Z</time>
      </trkpt>
      <trkpt lat="43.16893667" lon="-6.93087">
        <ele>797.0</ele>
        <time>2022-06-19T08:44:07.579Z</time>
      </trkpt>
      <trkpt lat="43.16893667" lon="-6.93087">
        <ele>797.0</ele>
        <time>2022-06-19T08:44:08.584Z</time>
      </trkpt>
      <trkpt lat="43.16889" lon="-6.93090167">
        <ele>797.0</ele>
        <time>2022-06-19T08:44:09.579Z</time>
      </trkpt>
      <trkpt lat="43.16889" lon="-6.93090167">
        <ele>797.0</ele>
        <time>2022-06-19T08:44:10.568Z</time>
      </trkpt>
      <trkpt lat="43.16884333" lon="-6.93093">
        <ele>797.0</ele>
        <time>2022-06-19T08:44:11.603Z</time>
      </trkpt>
      <trkpt lat="43.16884333" lon="-6.93093">
        <ele>797.0</ele>
        <time>2022-06-19T08:44:12.569Z</time>
      </trkpt>
      <trkpt lat="43.16879667" lon="-6.93096167">
        <ele>796.0</ele>
        <time>2022-06-19T08:44:13.596Z</time>
      </trkpt>
      <trkpt lat="43.16879667" lon="-6.93096167">
        <ele>796.0</ele>
        <time>2022-06-19T08:44:14.567Z</time>
      </trkpt>
      <trkpt lat="43.168755" lon="-6.930995">
        <ele>797.0</ele>
        <time>2022-06-19T08:44:15.585Z</time>
      </trkpt>
      <trkpt lat="43.16873333" lon="-6.93101167">
        <ele>797.0</ele>
        <time>2022-06-19T08:44:16.593Z</time>
      </trkpt>
      <trkpt lat="43.16873333" lon="-6.93101167">
        <ele>797.0</ele>
        <time>2022-06-19T08:44:17.567Z</time>
      </trkpt>
      <trkpt lat="43.16868833" lon="-6.93104667">
        <ele>797.0</ele>
        <time>2022-06-19T08:44:18.588Z</time>
      </trkpt>
      <trkpt lat="43.16866667" lon="-6.93106667">
        <ele>797.0</ele>
        <time>2022-06-19T08:44:19.575Z</time>
      </trkpt>
      <trkpt lat="43.16866667" lon="-6.93106667">
        <ele>797.0</ele>
        <time>2022-06-19T08:44:20.580Z</time>
      </trkpt>
      <trkpt lat="43.16861833" lon="-6.9311">
        <ele>797.0</ele>
        <time>2022-06-19T08:44:21.602Z</time>
      </trkpt>
      <trkpt lat="43.168595" lon="-6.93111667">
        <ele>797.0</ele>
        <time>2022-06-19T08:44:22.593Z</time>
      </trkpt>
      <trkpt lat="43.168595" lon="-6.93111667">
        <ele>797.0</ele>
        <time>2022-06-19T08:44:23.602Z</time>
      </trkpt>
      <trkpt lat="43.16854833" lon="-6.931145">
        <ele>797.0</ele>
        <time>2022-06-19T08:44:24.589Z</time>
      </trkpt>
      <trkpt lat="43.16852833" lon="-6.93116333">
        <ele>797.0</ele>
        <time>2022-06-19T08:44:25.587Z</time>
      </trkpt>
      <trkpt lat="43.16852833" lon="-6.93116333">
        <ele>797.0</ele>
        <time>2022-06-19T08:44:26.592Z</time>
      </trkpt>
      <trkpt lat="43.16848833" lon="-6.93119333">
        <ele>797.0</ele>
        <time>2022-06-19T08:44:27.593Z</time>
      </trkpt>
      <trkpt lat="43.16846667" lon="-6.93120833">
        <ele>798.0</ele>
        <time>2022-06-19T08:44:28.583Z</time>
      </trkpt>
      <trkpt lat="43.16846667" lon="-6.93120833">
        <ele>798.0</ele>
        <time>2022-06-19T08:44:29.595Z</time>
      </trkpt>
      <trkpt lat="43.16843833" lon="-6.93124333">
        <ele>798.0</ele>
        <time>2022-06-19T08:44:30.589Z</time>
      </trkpt>
      <trkpt lat="43.16842167" lon="-6.93125833">
        <ele>799.0</ele>
        <time>2022-06-19T08:44:31.568Z</time>
      </trkpt>
      <trkpt lat="43.16842167" lon="-6.93125833">
        <ele>799.0</ele>
        <time>2022-06-19T08:44:32.591Z</time>
      </trkpt>
      <trkpt lat="43.16838" lon="-6.931285">
        <ele>799.0</ele>
        <time>2022-06-19T08:44:33.595Z</time>
      </trkpt>
      <trkpt lat="43.16835833" lon="-6.93129833">
        <ele>800.0</ele>
        <time>2022-06-19T08:44:34.588Z</time>
      </trkpt>
      <trkpt lat="43.16835833" lon="-6.93129833">
        <ele>800.0</ele>
        <time>2022-06-19T08:44:35.593Z</time>
      </trkpt>
      <trkpt lat="43.168325" lon="-6.93133167">
        <ele>800.0</ele>
        <time>2022-06-19T08:44:36.578Z</time>
      </trkpt>
      <trkpt lat="43.168325" lon="-6.93133167">
        <ele>800.0</ele>
        <time>2022-06-19T08:44:37.591Z</time>
      </trkpt>
      <trkpt lat="43.16828333" lon="-6.93136">
        <ele>801.0</ele>
        <time>2022-06-19T08:44:38.573Z</time>
      </trkpt>
      <trkpt lat="43.16826" lon="-6.93137333">
        <ele>802.0</ele>
        <time>2022-06-19T08:44:39.599Z</time>
      </trkpt>
      <trkpt lat="43.16826" lon="-6.93137333">
        <ele>802.0</ele>
        <time>2022-06-19T08:44:40.564Z</time>
      </trkpt>
      <trkpt lat="43.16821833" lon="-6.93140167">
        <ele>802.0</ele>
        <time>2022-06-19T08:44:41.593Z</time>
      </trkpt>
      <trkpt lat="43.16821833" lon="-6.93140167">
        <ele>802.0</ele>
        <time>2022-06-19T08:44:42.598Z</time>
      </trkpt>
      <trkpt lat="43.16817833" lon="-6.93143333">
        <ele>803.0</ele>
        <time>2022-06-19T08:44:43.596Z</time>
      </trkpt>
      <trkpt lat="43.16817833" lon="-6.93143333">
        <ele>803.0</ele>
        <time>2022-06-19T08:44:44.602Z</time>
      </trkpt>
      <trkpt lat="43.16813833" lon="-6.93147167">
        <ele>803.0</ele>
        <time>2022-06-19T08:44:45.603Z</time>
      </trkpt>
      <trkpt lat="43.16813833" lon="-6.93147167">
        <ele>803.0</ele>
        <time>2022-06-19T08:44:46.568Z</time>
      </trkpt>
      <trkpt lat="43.1681" lon="-6.93150833">
        <ele>803.0</ele>
        <time>2022-06-19T08:44:47.597Z</time>
      </trkpt>
      <trkpt lat="43.1681" lon="-6.93150833">
        <ele>803.0</ele>
        <time>2022-06-19T08:44:48.565Z</time>
      </trkpt>
      <trkpt lat="43.16805667" lon="-6.93153667">
        <ele>804.0</ele>
        <time>2022-06-19T08:44:49.591Z</time>
      </trkpt>
      <trkpt lat="43.16805667" lon="-6.93153667">
        <ele>804.0</ele>
        <time>2022-06-19T08:44:50.598Z</time>
      </trkpt>
      <trkpt lat="43.16801667" lon="-6.93156667">
        <ele>804.0</ele>
        <time>2022-06-19T08:44:51.583Z</time>
      </trkpt>
      <trkpt lat="43.16801667" lon="-6.93156667">
        <ele>804.0</ele>
        <time>2022-06-19T08:44:52.591Z</time>
      </trkpt>
      <trkpt lat="43.167975" lon="-6.931595">
        <ele>805.0</ele>
        <time>2022-06-19T08:44:53.574Z</time>
      </trkpt>
      <trkpt lat="43.16795333" lon="-6.93160833">
        <ele>805.0</ele>
        <time>2022-06-19T08:44:54.572Z</time>
      </trkpt>
      <trkpt lat="43.16793" lon="-6.93162167">
        <ele>805.0</ele>
        <time>2022-06-19T08:44:55.587Z</time>
      </trkpt>
      <trkpt lat="43.16790667" lon="-6.93163167">
        <ele>805.0</ele>
        <time>2022-06-19T08:44:56.571Z</time>
      </trkpt>
      <trkpt lat="43.16790667" lon="-6.93163167">
        <ele>805.0</ele>
        <time>2022-06-19T08:44:57.582Z</time>
      </trkpt>
      <trkpt lat="43.16785667" lon="-6.93166">
        <ele>806.0</ele>
        <time>2022-06-19T08:44:58.570Z</time>
      </trkpt>
      <trkpt lat="43.16781667" lon="-6.93166333">
        <ele>806.0</ele>
        <time>2022-06-19T08:44:59.601Z</time>
      </trkpt>
      <trkpt lat="43.16781667" lon="-6.93166333">
        <ele>806.0</ele>
        <time>2022-06-19T08:45:00.568Z</time>
      </trkpt>
      <trkpt lat="43.16776667" lon="-6.93169167">
        <ele>805.0</ele>
        <time>2022-06-19T08:45:01.590Z</time>
      </trkpt>
      <trkpt lat="43.16776667" lon="-6.93169167">
        <ele>805.0</ele>
        <time>2022-06-19T08:45:02.598Z</time>
      </trkpt>
      <trkpt lat="43.16773" lon="-6.931725">
        <ele>806.0</ele>
        <time>2022-06-19T08:45:03.591Z</time>
      </trkpt>
      <trkpt lat="43.16771" lon="-6.93174">
        <ele>806.0</ele>
        <time>2022-06-19T08:45:04.576Z</time>
      </trkpt>
      <trkpt lat="43.16771" lon="-6.93174">
        <ele>806.0</ele>
        <time>2022-06-19T08:45:05.582Z</time>
      </trkpt>
      <trkpt lat="43.16767167" lon="-6.93177167">
        <ele>807.0</ele>
        <time>2022-06-19T08:45:06.579Z</time>
      </trkpt>
      <trkpt lat="43.167655" lon="-6.93179">
        <ele>807.0</ele>
        <time>2022-06-19T08:45:07.571Z</time>
      </trkpt>
      <trkpt lat="43.167655" lon="-6.93179">
        <ele>807.0</ele>
        <time>2022-06-19T08:45:08.595Z</time>
      </trkpt>
      <trkpt lat="43.16761333" lon="-6.93182667">
        <ele>807.0</ele>
        <time>2022-06-19T08:45:09.585Z</time>
      </trkpt>
      <trkpt lat="43.16759167" lon="-6.93184667">
        <ele>807.0</ele>
        <time>2022-06-19T08:45:10.598Z</time>
      </trkpt>
      <trkpt lat="43.16759167" lon="-6.93184667">
        <ele>807.0</ele>
        <time>2022-06-19T08:45:11.569Z</time>
      </trkpt>
      <trkpt lat="43.16755167" lon="-6.93187833">
        <ele>808.0</ele>
        <time>2022-06-19T08:45:12.599Z</time>
      </trkpt>
      <trkpt lat="43.16755167" lon="-6.93187833">
        <ele>808.0</ele>
        <time>2022-06-19T08:45:13.571Z</time>
      </trkpt>
      <trkpt lat="43.16751" lon="-6.93191333">
        <ele>808.0</ele>
        <time>2022-06-19T08:45:14.596Z</time>
      </trkpt>
      <trkpt lat="43.16751" lon="-6.93191333">
        <ele>808.0</ele>
        <time>2022-06-19T08:45:15.603Z</time>
      </trkpt>
      <trkpt lat="43.16747167" lon="-6.931945">
        <ele>809.0</ele>
        <time>2022-06-19T08:45:16.578Z</time>
      </trkpt>
      <trkpt lat="43.16747167" lon="-6.931945">
        <ele>809.0</ele>
        <time>2022-06-19T08:45:17.585Z</time>
      </trkpt>
      <trkpt lat="43.16743" lon="-6.93198167">
        <ele>809.0</ele>
        <time>2022-06-19T08:45:18.568Z</time>
      </trkpt>
      <trkpt lat="43.16741" lon="-6.93199833">
        <ele>810.0</ele>
        <time>2022-06-19T08:45:19.584Z</time>
      </trkpt>
      <trkpt lat="43.16741" lon="-6.93199833">
        <ele>810.0</ele>
        <time>2022-06-19T08:45:20.592Z</time>
      </trkpt>
      <trkpt lat="43.16737" lon="-6.93203167">
        <ele>810.0</ele>
        <time>2022-06-19T08:45:21.570Z</time>
      </trkpt>
      <trkpt lat="43.16737" lon="-6.93203167">
        <ele>810.0</ele>
        <time>2022-06-19T08:45:22.577Z</time>
      </trkpt>
      <trkpt lat="43.16732667" lon="-6.93206333">
        <ele>811.0</ele>
        <time>2022-06-19T08:45:23.565Z</time>
      </trkpt>
      <trkpt lat="43.16732667" lon="-6.93206333">
        <ele>811.0</ele>
        <time>2022-06-19T08:45:24.588Z</time>
      </trkpt>
      <trkpt lat="43.16728667" lon="-6.9321">
        <ele>811.0</ele>
        <time>2022-06-19T08:45:25.572Z</time>
      </trkpt>
      <trkpt lat="43.16728667" lon="-6.9321">
        <ele>811.0</ele>
        <time>2022-06-19T08:45:26.577Z</time>
      </trkpt>
      <trkpt lat="43.16724333" lon="-6.93213167">
        <ele>811.0</ele>
        <time>2022-06-19T08:45:27.565Z</time>
      </trkpt>
      <trkpt lat="43.16724333" lon="-6.93213167">
        <ele>811.0</ele>
        <time>2022-06-19T08:45:28.569Z</time>
      </trkpt>
      <trkpt lat="43.16719833" lon="-6.93215833">
        <ele>812.0</ele>
        <time>2022-06-19T08:45:29.600Z</time>
      </trkpt>
      <trkpt lat="43.16719833" lon="-6.93215833">
        <ele>812.0</ele>
        <time>2022-06-19T08:45:30.567Z</time>
      </trkpt>
      <trkpt lat="43.16715333" lon="-6.93219833">
        <ele>812.0</ele>
        <time>2022-06-19T08:45:31.603Z</time>
      </trkpt>
      <trkpt lat="43.16715333" lon="-6.93219833">
        <ele>812.0</ele>
        <time>2022-06-19T08:45:32.568Z</time>
      </trkpt>
      <trkpt lat="43.16711333" lon="-6.93223167">
        <ele>812.0</ele>
        <time>2022-06-19T08:45:33.568Z</time>
      </trkpt>
      <trkpt lat="43.16711333" lon="-6.93223167">
        <ele>812.0</ele>
        <time>2022-06-19T08:45:34.574Z</time>
      </trkpt>
      <trkpt lat="43.16707" lon="-6.93226333">
        <ele>813.0</ele>
        <time>2022-06-19T08:45:35.598Z</time>
      </trkpt>
      <trkpt lat="43.16707" lon="-6.93226333">
        <ele>813.0</ele>
        <time>2022-06-19T08:45:36.566Z</time>
      </trkpt>
      <trkpt lat="43.16702833" lon="-6.932295">
        <ele>813.0</ele>
        <time>2022-06-19T08:45:37.574Z</time>
      </trkpt>
      <trkpt lat="43.16702833" lon="-6.932295">
        <ele>813.0</ele>
        <time>2022-06-19T08:45:38.579Z</time>
      </trkpt>
      <trkpt lat="43.16698667" lon="-6.932335">
        <ele>813.0</ele>
        <time>2022-06-19T08:45:39.598Z</time>
      </trkpt>
      <trkpt lat="43.166965" lon="-6.93234833">
        <ele>814.0</ele>
        <time>2022-06-19T08:45:40.582Z</time>
      </trkpt>
      <trkpt lat="43.166965" lon="-6.93234833">
        <ele>814.0</ele>
        <time>2022-06-19T08:45:41.587Z</time>
      </trkpt>
      <trkpt lat="43.16692" lon="-6.93238">
        <ele>814.0</ele>
        <time>2022-06-19T08:45:42.577Z</time>
      </trkpt>
      <trkpt lat="43.1669" lon="-6.93239167">
        <ele>815.0</ele>
        <time>2022-06-19T08:45:43.603Z</time>
      </trkpt>
      <trkpt lat="43.1669" lon="-6.93239167">
        <ele>815.0</ele>
        <time>2022-06-19T08:45:44.568Z</time>
      </trkpt>
      <trkpt lat="43.16685833" lon="-6.93241667">
        <ele>815.0</ele>
        <time>2022-06-19T08:45:45.567Z</time>
      </trkpt>
      <trkpt lat="43.16685833" lon="-6.93241667">
        <ele>815.0</ele>
        <time>2022-06-19T08:45:46.577Z</time>
      </trkpt>
      <trkpt lat="43.166815" lon="-6.93245167">
        <ele>816.0</ele>
        <time>2022-06-19T08:45:47.565Z</time>
      </trkpt>
      <trkpt lat="43.166815" lon="-6.93245167">
        <ele>816.0</ele>
        <time>2022-06-19T08:45:48.570Z</time>
      </trkpt>
      <trkpt lat="43.16677" lon="-6.93248167">
        <ele>816.0</ele>
        <time>2022-06-19T08:45:49.593Z</time>
      </trkpt>
      <trkpt lat="43.16677" lon="-6.93248167">
        <ele>816.0</ele>
        <time>2022-06-19T08:45:50.597Z</time>
      </trkpt>
      <trkpt lat="43.16672833" lon="-6.93251667">
        <ele>816.0</ele>
        <time>2022-06-19T08:45:51.576Z</time>
      </trkpt>
      <trkpt lat="43.16672833" lon="-6.93251667">
        <ele>816.0</ele>
        <time>2022-06-19T08:45:52.573Z</time>
      </trkpt>
      <trkpt lat="43.16668667" lon="-6.93254667">
        <ele>816.0</ele>
        <time>2022-06-19T08:45:53.600Z</time>
      </trkpt>
      <trkpt lat="43.16666667" lon="-6.93256167">
        <ele>816.0</ele>
        <time>2022-06-19T08:45:54.573Z</time>
      </trkpt>
      <trkpt lat="43.16666667" lon="-6.93256167">
        <ele>816.0</ele>
        <time>2022-06-19T08:45:55.578Z</time>
      </trkpt>
      <trkpt lat="43.16662333" lon="-6.93259667">
        <ele>816.0</ele>
        <time>2022-06-19T08:45:56.597Z</time>
      </trkpt>
      <trkpt lat="43.16660333" lon="-6.932615">
        <ele>816.0</ele>
        <time>2022-06-19T08:45:57.588Z</time>
      </trkpt>
      <trkpt lat="43.16660333" lon="-6.932615">
        <ele>816.0</ele>
        <time>2022-06-19T08:45:58.571Z</time>
      </trkpt>
      <trkpt lat="43.16656" lon="-6.93265333">
        <ele>816.0</ele>
        <time>2022-06-19T08:45:59.596Z</time>
      </trkpt>
      <trkpt lat="43.16656" lon="-6.93265333">
        <ele>816.0</ele>
        <time>2022-06-19T08:46:00.576Z</time>
      </trkpt>
      <trkpt lat="43.16651667" lon="-6.93269167">
        <ele>816.0</ele>
        <time>2022-06-19T08:46:01.590Z</time>
      </trkpt>
      <trkpt lat="43.16651667" lon="-6.93269167">
        <ele>816.0</ele>
        <time>2022-06-19T08:46:02.602Z</time>
      </trkpt>
      <trkpt lat="43.16647667" lon="-6.93271667">
        <ele>816.0</ele>
        <time>2022-06-19T08:46:03.604Z</time>
      </trkpt>
      <trkpt lat="43.16647667" lon="-6.93271667">
        <ele>816.0</ele>
        <time>2022-06-19T08:46:04.580Z</time>
      </trkpt>
      <trkpt lat="43.16643833" lon="-6.932745">
        <ele>816.0</ele>
        <time>2022-06-19T08:46:05.573Z</time>
      </trkpt>
      <trkpt lat="43.16643833" lon="-6.932745">
        <ele>816.0</ele>
        <time>2022-06-19T08:46:06.578Z</time>
      </trkpt>
      <trkpt lat="43.166395" lon="-6.93277333">
        <ele>816.0</ele>
        <time>2022-06-19T08:46:07.566Z</time>
      </trkpt>
      <trkpt lat="43.166395" lon="-6.93277333">
        <ele>816.0</ele>
        <time>2022-06-19T08:46:08.572Z</time>
      </trkpt>
      <trkpt lat="43.16635667" lon="-6.93281167">
        <ele>817.0</ele>
        <time>2022-06-19T08:46:09.591Z</time>
      </trkpt>
      <trkpt lat="43.166335" lon="-6.93282667">
        <ele>816.0</ele>
        <time>2022-06-19T08:46:10.597Z</time>
      </trkpt>
      <trkpt lat="43.166335" lon="-6.93282667">
        <ele>816.0</ele>
        <time>2022-06-19T08:46:11.568Z</time>
      </trkpt>
      <trkpt lat="43.16629167" lon="-6.93285333">
        <ele>816.0</ele>
        <time>2022-06-19T08:46:12.596Z</time>
      </trkpt>
      <trkpt lat="43.16627167" lon="-6.93286667">
        <ele>816.0</ele>
        <time>2022-06-19T08:46:13.576Z</time>
      </trkpt>
      <trkpt lat="43.16627167" lon="-6.93286667">
        <ele>816.0</ele>
        <time>2022-06-19T08:46:14.597Z</time>
      </trkpt>
      <trkpt lat="43.16623" lon="-6.932895">
        <ele>816.0</ele>
        <time>2022-06-19T08:46:15.572Z</time>
      </trkpt>
      <trkpt lat="43.16620833" lon="-6.93290833">
        <ele>817.0</ele>
        <time>2022-06-19T08:46:16.566Z</time>
      </trkpt>
      <trkpt lat="43.16620833" lon="-6.93290833">
        <ele>817.0</ele>
        <time>2022-06-19T08:46:17.580Z</time>
      </trkpt>
      <trkpt lat="43.16617" lon="-6.93294">
        <ele>817.0</ele>
        <time>2022-06-19T08:46:18.568Z</time>
      </trkpt>
      <trkpt lat="43.16615" lon="-6.93296">
        <ele>817.0</ele>
        <time>2022-06-19T08:46:19.599Z</time>
      </trkpt>
      <trkpt lat="43.16615" lon="-6.93296">
        <ele>817.0</ele>
        <time>2022-06-19T08:46:20.568Z</time>
      </trkpt>
      <trkpt lat="43.16611167" lon="-6.93299333">
        <ele>818.0</ele>
        <time>2022-06-19T08:46:21.595Z</time>
      </trkpt>
      <trkpt lat="43.16611167" lon="-6.93299333">
        <ele>818.0</ele>
        <time>2022-06-19T08:46:22.602Z</time>
      </trkpt>
      <trkpt lat="43.166075" lon="-6.93301833">
        <ele>818.0</ele>
        <time>2022-06-19T08:46:23.578Z</time>
      </trkpt>
      <trkpt lat="43.166075" lon="-6.93301833">
        <ele>818.0</ele>
        <time>2022-06-19T08:46:24.583Z</time>
      </trkpt>
      <trkpt lat="43.16603667" lon="-6.93304833">
        <ele>818.0</ele>
        <time>2022-06-19T08:46:25.569Z</time>
      </trkpt>
      <trkpt lat="43.16603667" lon="-6.93304833">
        <ele>818.0</ele>
        <time>2022-06-19T08:46:26.574Z</time>
      </trkpt>
      <trkpt lat="43.16599667" lon="-6.93307667">
        <ele>819.0</ele>
        <time>2022-06-19T08:46:27.589Z</time>
      </trkpt>
      <trkpt lat="43.16599667" lon="-6.93307667">
        <ele>819.0</ele>
        <time>2022-06-19T08:46:28.594Z</time>
      </trkpt>
      <trkpt lat="43.16596" lon="-6.93311167">
        <ele>820.0</ele>
        <time>2022-06-19T08:46:29.573Z</time>
      </trkpt>
      <trkpt lat="43.16596" lon="-6.93311167">
        <ele>820.0</ele>
        <time>2022-06-19T08:46:30.578Z</time>
      </trkpt>
      <trkpt lat="43.16592333" lon="-6.93315167">
        <ele>820.0</ele>
        <time>2022-06-19T08:46:31.583Z</time>
      </trkpt>
      <trkpt lat="43.16592333" lon="-6.93315167">
        <ele>820.0</ele>
        <time>2022-06-19T08:46:32.588Z</time>
      </trkpt>
      <trkpt lat="43.16588167" lon="-6.93317167">
        <ele>820.0</ele>
        <time>2022-06-19T08:46:33.565Z</time>
      </trkpt>
      <trkpt lat="43.16588167" lon="-6.93317167">
        <ele>820.0</ele>
        <time>2022-06-19T08:46:34.582Z</time>
      </trkpt>
      <trkpt lat="43.16584333" lon="-6.9332">
        <ele>820.0</ele>
        <time>2022-06-19T08:46:35.581Z</time>
      </trkpt>
      <trkpt lat="43.16584333" lon="-6.9332">
        <ele>820.0</ele>
        <time>2022-06-19T08:46:36.586Z</time>
      </trkpt>
      <trkpt lat="43.165805" lon="-6.933225">
        <ele>820.0</ele>
        <time>2022-06-19T08:46:37.576Z</time>
      </trkpt>
      <trkpt lat="43.165805" lon="-6.933225">
        <ele>820.0</ele>
        <time>2022-06-19T08:46:38.575Z</time>
      </trkpt>
      <trkpt lat="43.16576333" lon="-6.933245">
        <ele>820.0</ele>
        <time>2022-06-19T08:46:39.590Z</time>
      </trkpt>
      <trkpt lat="43.16576333" lon="-6.933245">
        <ele>820.0</ele>
        <time>2022-06-19T08:46:40.594Z</time>
      </trkpt>
      <trkpt lat="43.165725" lon="-6.93327333">
        <ele>820.0</ele>
        <time>2022-06-19T08:46:41.593Z</time>
      </trkpt>
      <trkpt lat="43.16570333" lon="-6.93329">
        <ele>820.0</ele>
        <time>2022-06-19T08:46:42.570Z</time>
      </trkpt>
      <trkpt lat="43.16570333" lon="-6.93329">
        <ele>820.0</ele>
        <time>2022-06-19T08:46:43.575Z</time>
      </trkpt>
      <trkpt lat="43.16566167" lon="-6.933325">
        <ele>820.0</ele>
        <time>2022-06-19T08:46:44.575Z</time>
      </trkpt>
      <trkpt lat="43.16566167" lon="-6.933325">
        <ele>820.0</ele>
        <time>2022-06-19T08:46:45.581Z</time>
      </trkpt>
      <trkpt lat="43.16561667" lon="-6.933345">
        <ele>821.0</ele>
        <time>2022-06-19T08:46:46.599Z</time>
      </trkpt>
      <trkpt lat="43.16561667" lon="-6.933345">
        <ele>821.0</ele>
        <time>2022-06-19T08:46:47.565Z</time>
      </trkpt>
      <trkpt lat="43.165585" lon="-6.933375">
        <ele>823.0</ele>
        <time>2022-06-19T08:46:48.588Z</time>
      </trkpt>
      <trkpt lat="43.165565" lon="-6.93339167">
        <ele>823.0</ele>
        <time>2022-06-19T08:46:49.578Z</time>
      </trkpt>
      <trkpt lat="43.165565" lon="-6.93339167">
        <ele>823.0</ele>
        <time>2022-06-19T08:46:50.583Z</time>
      </trkpt>
      <trkpt lat="43.16552333" lon="-6.93341667">
        <ele>824.0</ele>
        <time>2022-06-19T08:46:51.602Z</time>
      </trkpt>
      <trkpt lat="43.16552333" lon="-6.93341667">
        <ele>824.0</ele>
        <time>2022-06-19T08:46:52.573Z</time>
      </trkpt>
      <trkpt lat="43.16548" lon="-6.93343667">
        <ele>825.0</ele>
        <time>2022-06-19T08:46:53.590Z</time>
      </trkpt>
      <trkpt lat="43.16548" lon="-6.93343667">
        <ele>825.0</ele>
        <time>2022-06-19T08:46:54.595Z</time>
      </trkpt>
      <trkpt lat="43.16544" lon="-6.93346833">
        <ele>825.0</ele>
        <time>2022-06-19T08:46:55.593Z</time>
      </trkpt>
      <trkpt lat="43.16544" lon="-6.93346833">
        <ele>825.0</ele>
        <time>2022-06-19T08:46:56.598Z</time>
      </trkpt>
      <trkpt lat="43.16540333" lon="-6.93350333">
        <ele>826.0</ele>
        <time>2022-06-19T08:46:57.581Z</time>
      </trkpt>
      <trkpt lat="43.16538167" lon="-6.933515">
        <ele>826.0</ele>
        <time>2022-06-19T08:46:58.566Z</time>
      </trkpt>
      <trkpt lat="43.16538167" lon="-6.933515">
        <ele>826.0</ele>
        <time>2022-06-19T08:46:59.584Z</time>
      </trkpt>
      <trkpt lat="43.16533667" lon="-6.93353833">
        <ele>826.0</ele>
        <time>2022-06-19T08:47:00.567Z</time>
      </trkpt>
      <trkpt lat="43.16531167" lon="-6.93354833">
        <ele>826.0</ele>
        <time>2022-06-19T08:47:01.575Z</time>
      </trkpt>
      <trkpt lat="43.16531167" lon="-6.93354833">
        <ele>826.0</ele>
        <time>2022-06-19T08:47:02.584Z</time>
      </trkpt>
      <trkpt lat="43.16527167" lon="-6.93357333">
        <ele>827.0</ele>
        <time>2022-06-19T08:47:03.594Z</time>
      </trkpt>
      <trkpt lat="43.16527167" lon="-6.93357333">
        <ele>827.0</ele>
        <time>2022-06-19T08:47:04.570Z</time>
      </trkpt>
      <trkpt lat="43.16523" lon="-6.93359833">
        <ele>827.0</ele>
        <time>2022-06-19T08:47:05.592Z</time>
      </trkpt>
      <trkpt lat="43.16523" lon="-6.93359833">
        <ele>827.0</ele>
        <time>2022-06-19T08:47:06.597Z</time>
      </trkpt>
      <trkpt lat="43.16519" lon="-6.93362833">
        <ele>827.0</ele>
        <time>2022-06-19T08:47:07.580Z</time>
      </trkpt>
      <trkpt lat="43.16519" lon="-6.93362833">
        <ele>827.0</ele>
        <time>2022-06-19T08:47:08.592Z</time>
      </trkpt>
      <trkpt lat="43.165145" lon="-6.93364667">
        <ele>827.0</ele>
        <time>2022-06-19T08:47:09.575Z</time>
      </trkpt>
      <trkpt lat="43.16512333" lon="-6.933655">
        <ele>828.0</ele>
        <time>2022-06-19T08:47:10.583Z</time>
      </trkpt>
      <trkpt lat="43.16512333" lon="-6.933655">
        <ele>828.0</ele>
        <time>2022-06-19T08:47:11.590Z</time>
      </trkpt>
      <trkpt lat="43.16508" lon="-6.93368667">
        <ele>827.0</ele>
        <time>2022-06-19T08:47:12.579Z</time>
      </trkpt>
      <trkpt lat="43.16506" lon="-6.9337">
        <ele>827.0</ele>
        <time>2022-06-19T08:47:13.595Z</time>
      </trkpt>
      <trkpt lat="43.16504" lon="-6.93371333">
        <ele>827.0</ele>
        <time>2022-06-19T08:47:14.589Z</time>
      </trkpt>
      <trkpt lat="43.16504" lon="-6.93371333">
        <ele>827.0</ele>
        <time>2022-06-19T08:47:15.594Z</time>
      </trkpt>
      <trkpt lat="43.164995" lon="-6.933735">
        <ele>827.0</ele>
        <time>2022-06-19T08:47:16.581Z</time>
      </trkpt>
      <trkpt lat="43.164995" lon="-6.933735">
        <ele>827.0</ele>
        <time>2022-06-19T08:47:17.586Z</time>
      </trkpt>
      <trkpt lat="43.16494833" lon="-6.93375833">
        <ele>827.0</ele>
        <time>2022-06-19T08:47:18.576Z</time>
      </trkpt>
      <trkpt lat="43.164925" lon="-6.93376667">
        <ele>828.0</ele>
        <time>2022-06-19T08:47:19.597Z</time>
      </trkpt>
      <trkpt lat="43.164925" lon="-6.93376667">
        <ele>828.0</ele>
        <time>2022-06-19T08:47:20.566Z</time>
      </trkpt>
      <trkpt lat="43.16488167" lon="-6.93378167">
        <ele>828.0</ele>
        <time>2022-06-19T08:47:21.599Z</time>
      </trkpt>
      <trkpt lat="43.16488167" lon="-6.93378167">
        <ele>828.0</ele>
        <time>2022-06-19T08:47:22.565Z</time>
      </trkpt>
      <trkpt lat="43.16484167" lon="-6.93380833">
        <ele>828.0</ele>
        <time>2022-06-19T08:47:23.591Z</time>
      </trkpt>
      <trkpt lat="43.16482167" lon="-6.93381833">
        <ele>828.0</ele>
        <time>2022-06-19T08:47:24.585Z</time>
      </trkpt>
      <trkpt lat="43.16482167" lon="-6.93381833">
        <ele>828.0</ele>
        <time>2022-06-19T08:47:25.595Z</time>
      </trkpt>
      <trkpt lat="43.16477667" lon="-6.93383667">
        <ele>828.0</ele>
        <time>2022-06-19T08:47:26.587Z</time>
      </trkpt>
      <trkpt lat="43.16477667" lon="-6.93383667">
        <ele>828.0</ele>
        <time>2022-06-19T08:47:27.592Z</time>
      </trkpt>
      <trkpt lat="43.16473333" lon="-6.93385333">
        <ele>828.0</ele>
        <time>2022-06-19T08:47:28.575Z</time>
      </trkpt>
      <trkpt lat="43.16473333" lon="-6.93385333">
        <ele>828.0</ele>
        <time>2022-06-19T08:47:29.585Z</time>
      </trkpt>
      <trkpt lat="43.16469" lon="-6.93387">
        <ele>829.0</ele>
        <time>2022-06-19T08:47:30.585Z</time>
      </trkpt>
      <trkpt lat="43.16466667" lon="-6.93387833">
        <ele>829.0</ele>
        <time>2022-06-19T08:47:31.573Z</time>
      </trkpt>
      <trkpt lat="43.16466667" lon="-6.93387833">
        <ele>829.0</ele>
        <time>2022-06-19T08:47:32.586Z</time>
      </trkpt>
      <trkpt lat="43.16461667" lon="-6.93389167">
        <ele>830.0</ele>
        <time>2022-06-19T08:47:33.601Z</time>
      </trkpt>
      <trkpt lat="43.16459333" lon="-6.9339">
        <ele>830.0</ele>
        <time>2022-06-19T08:47:34.592Z</time>
      </trkpt>
      <trkpt lat="43.16459333" lon="-6.9339">
        <ele>830.0</ele>
        <time>2022-06-19T08:47:35.597Z</time>
      </trkpt>
      <trkpt lat="43.16454667" lon="-6.93391833">
        <ele>830.0</ele>
        <time>2022-06-19T08:47:36.582Z</time>
      </trkpt>
      <trkpt lat="43.164525" lon="-6.93393167">
        <ele>830.0</ele>
        <time>2022-06-19T08:47:37.588Z</time>
      </trkpt>
      <trkpt lat="43.164525" lon="-6.93393167">
        <ele>830.0</ele>
        <time>2022-06-19T08:47:38.593Z</time>
      </trkpt>
      <trkpt lat="43.16448333" lon="-6.933955">
        <ele>830.0</ele>
        <time>2022-06-19T08:47:39.576Z</time>
      </trkpt>
      <trkpt lat="43.16448333" lon="-6.933955">
        <ele>830.0</ele>
        <time>2022-06-19T08:47:40.584Z</time>
      </trkpt>
      <trkpt lat="43.16444" lon="-6.93397667">
        <ele>830.0</ele>
        <time>2022-06-19T08:47:41.577Z</time>
      </trkpt>
      <trkpt lat="43.16444" lon="-6.93397667">
        <ele>830.0</ele>
        <time>2022-06-19T08:47:42.587Z</time>
      </trkpt>
      <trkpt lat="43.164395" lon="-6.93400333">
        <ele>830.0</ele>
        <time>2022-06-19T08:47:43.567Z</time>
      </trkpt>
      <trkpt lat="43.16437333" lon="-6.93402">
        <ele>830.0</ele>
        <time>2022-06-19T08:47:44.576Z</time>
      </trkpt>
      <trkpt lat="43.16437333" lon="-6.93402">
        <ele>830.0</ele>
        <time>2022-06-19T08:47:45.584Z</time>
      </trkpt>
      <trkpt lat="43.16432667" lon="-6.93404833">
        <ele>830.0</ele>
        <time>2022-06-19T08:47:46.588Z</time>
      </trkpt>
      <trkpt lat="43.1643" lon="-6.93405667">
        <ele>830.0</ele>
        <time>2022-06-19T08:47:47.586Z</time>
      </trkpt>
      <trkpt lat="43.1643" lon="-6.93405667">
        <ele>830.0</ele>
        <time>2022-06-19T08:47:48.591Z</time>
      </trkpt>
      <trkpt lat="43.16425333" lon="-6.93407">
        <ele>831.0</ele>
        <time>2022-06-19T08:47:49.574Z</time>
      </trkpt>
      <trkpt lat="43.16425333" lon="-6.93407">
        <ele>831.0</ele>
        <time>2022-06-19T08:47:50.593Z</time>
      </trkpt>
      <trkpt lat="43.16420667" lon="-6.93408333">
        <ele>831.0</ele>
        <time>2022-06-19T08:47:51.584Z</time>
      </trkpt>
      <trkpt lat="43.16420667" lon="-6.93408333">
        <ele>831.0</ele>
        <time>2022-06-19T08:47:52.597Z</time>
      </trkpt>
      <trkpt lat="43.16416167" lon="-6.9341">
        <ele>832.0</ele>
        <time>2022-06-19T08:47:53.583Z</time>
      </trkpt>
      <trkpt lat="43.16416167" lon="-6.9341">
        <ele>832.0</ele>
        <time>2022-06-19T08:47:54.589Z</time>
      </trkpt>
      <trkpt lat="43.16411333" lon="-6.93411333">
        <ele>832.0</ele>
        <time>2022-06-19T08:47:55.579Z</time>
      </trkpt>
      <trkpt lat="43.16411333" lon="-6.93411333">
        <ele>832.0</ele>
        <time>2022-06-19T08:47:56.588Z</time>
      </trkpt>
      <trkpt lat="43.16406667" lon="-6.934125">
        <ele>833.0</ele>
        <time>2022-06-19T08:47:57.567Z</time>
      </trkpt>
      <trkpt lat="43.16406667" lon="-6.934125">
        <ele>833.0</ele>
        <time>2022-06-19T08:47:58.574Z</time>
      </trkpt>
      <trkpt lat="43.16402167" lon="-6.934135">
        <ele>834.0</ele>
        <time>2022-06-19T08:47:59.564Z</time>
      </trkpt>
      <trkpt lat="43.16402167" lon="-6.934135">
        <ele>834.0</ele>
        <time>2022-06-19T08:48:00.570Z</time>
      </trkpt>
      <trkpt lat="43.16397667" lon="-6.93414833">
        <ele>834.0</ele>
        <time>2022-06-19T08:48:01.599Z</time>
      </trkpt>
      <trkpt lat="43.16397667" lon="-6.93414833">
        <ele>834.0</ele>
        <time>2022-06-19T08:48:02.568Z</time>
      </trkpt>
      <trkpt lat="43.16393167" lon="-6.93416">
        <ele>834.0</ele>
        <time>2022-06-19T08:48:03.600Z</time>
      </trkpt>
      <trkpt lat="43.16391167" lon="-6.93416667">
        <ele>835.0</ele>
        <time>2022-06-19T08:48:04.588Z</time>
      </trkpt>
      <trkpt lat="43.16391167" lon="-6.93416667">
        <ele>835.0</ele>
        <time>2022-06-19T08:48:05.594Z</time>
      </trkpt>
      <trkpt lat="43.163875" lon="-6.93418667">
        <ele>836.0</ele>
        <time>2022-06-19T08:48:06.580Z</time>
      </trkpt>
      <trkpt lat="43.16385667" lon="-6.9342">
        <ele>836.0</ele>
        <time>2022-06-19T08:48:07.565Z</time>
      </trkpt>
      <trkpt lat="43.16385667" lon="-6.9342">
        <ele>836.0</ele>
        <time>2022-06-19T08:48:08.573Z</time>
      </trkpt>
      <trkpt lat="43.16382" lon="-6.934235">
        <ele>836.0</ele>
        <time>2022-06-19T08:48:09.600Z</time>
      </trkpt>
      <trkpt lat="43.16382" lon="-6.934235">
        <ele>836.0</ele>
        <time>2022-06-19T08:48:10.574Z</time>
      </trkpt>
      <trkpt lat="43.16378833" lon="-6.934275">
        <ele>836.0</ele>
        <time>2022-06-19T08:48:11.564Z</time>
      </trkpt>
      <trkpt lat="43.16378833" lon="-6.934275">
        <ele>836.0</ele>
        <time>2022-06-19T08:48:12.570Z</time>
      </trkpt>
      <trkpt lat="43.163755" lon="-6.93431333">
        <ele>837.0</ele>
        <time>2022-06-19T08:48:13.604Z</time>
      </trkpt>
      <trkpt lat="43.163755" lon="-6.93431333">
        <ele>837.0</ele>
        <time>2022-06-19T08:48:14.569Z</time>
      </trkpt>
      <trkpt lat="43.16372" lon="-6.934345">
        <ele>837.0</ele>
        <time>2022-06-19T08:48:15.598Z</time>
      </trkpt>
      <trkpt lat="43.16372" lon="-6.934345">
        <ele>837.0</ele>
        <time>2022-06-19T08:48:16.567Z</time>
      </trkpt>
      <trkpt lat="43.16368" lon="-6.934375">
        <ele>838.0</ele>
        <time>2022-06-19T08:48:17.568Z</time>
      </trkpt>
      <trkpt lat="43.16368" lon="-6.934375">
        <ele>838.0</ele>
        <time>2022-06-19T08:48:18.572Z</time>
      </trkpt>
      <trkpt lat="43.16364167" lon="-6.934405">
        <ele>839.0</ele>
        <time>2022-06-19T08:48:19.586Z</time>
      </trkpt>
      <trkpt lat="43.16364167" lon="-6.934405">
        <ele>839.0</ele>
        <time>2022-06-19T08:48:20.594Z</time>
      </trkpt>
      <trkpt lat="43.16360167" lon="-6.93442667">
        <ele>840.0</ele>
        <time>2022-06-19T08:48:21.585Z</time>
      </trkpt>
      <trkpt lat="43.16358" lon="-6.93443333">
        <ele>840.0</ele>
        <time>2022-06-19T08:48:22.603Z</time>
      </trkpt>
      <trkpt lat="43.16358" lon="-6.93443333">
        <ele>840.0</ele>
        <time>2022-06-19T08:48:23.570Z</time>
      </trkpt>
      <trkpt lat="43.16353833" lon="-6.93444667">
        <ele>840.0</ele>
        <time>2022-06-19T08:48:24.598Z</time>
      </trkpt>
      <trkpt lat="43.16353833" lon="-6.93444667">
        <ele>840.0</ele>
        <time>2022-06-19T08:48:25.569Z</time>
      </trkpt>
      <trkpt lat="43.163495" lon="-6.934455">
        <ele>841.0</ele>
        <time>2022-06-19T08:48:26.596Z</time>
      </trkpt>
      <trkpt lat="43.163495" lon="-6.934455">
        <ele>841.0</ele>
        <time>2022-06-19T08:48:27.566Z</time>
      </trkpt>
      <trkpt lat="43.163455" lon="-6.93446">
        <ele>841.0</ele>
        <time>2022-06-19T08:48:28.594Z</time>
      </trkpt>
      <trkpt lat="43.163455" lon="-6.93446">
        <ele>841.0</ele>
        <time>2022-06-19T08:48:29.600Z</time>
      </trkpt>
      <trkpt lat="43.163415" lon="-6.93447">
        <ele>842.0</ele>
        <time>2022-06-19T08:48:30.588Z</time>
      </trkpt>
      <trkpt lat="43.16339333" lon="-6.93447333">
        <ele>843.0</ele>
        <time>2022-06-19T08:48:31.570Z</time>
      </trkpt>
      <trkpt lat="43.16339333" lon="-6.93447333">
        <ele>843.0</ele>
        <time>2022-06-19T08:48:32.587Z</time>
      </trkpt>
      <trkpt lat="43.16336" lon="-6.93447333">
        <ele>843.0</ele>
        <time>2022-06-19T08:48:33.572Z</time>
      </trkpt>
      <trkpt lat="43.16336" lon="-6.93447333">
        <ele>843.0</ele>
        <time>2022-06-19T08:48:34.582Z</time>
      </trkpt>
      <trkpt lat="43.16335333" lon="-6.93449333">
        <ele>844.0</ele>
        <time>2022-06-19T08:48:35.572Z</time>
      </trkpt>
      <trkpt lat="43.16336" lon="-6.934515">
        <ele>844.0</ele>
        <time>2022-06-19T08:48:36.598Z</time>
      </trkpt>
      <trkpt lat="43.16336833" lon="-6.934535">
        <ele>844.0</ele>
        <time>2022-06-19T08:48:37.581Z</time>
      </trkpt>
      <trkpt lat="43.16336833" lon="-6.934535">
        <ele>844.0</ele>
        <time>2022-06-19T08:48:38.587Z</time>
      </trkpt>
      <trkpt lat="43.16339" lon="-6.93456833">
        <ele>844.0</ele>
        <time>2022-06-19T08:48:39.583Z</time>
      </trkpt>
      <trkpt lat="43.1634" lon="-6.934585">
        <ele>844.0</ele>
        <time>2022-06-19T08:48:40.568Z</time>
      </trkpt>
      <trkpt lat="43.1634" lon="-6.934585">
        <ele>844.0</ele>
        <time>2022-06-19T08:48:41.573Z</time>
      </trkpt>
      <trkpt lat="43.16341333" lon="-6.93461833">
        <ele>844.0</ele>
        <time>2022-06-19T08:48:42.603Z</time>
      </trkpt>
      <trkpt lat="43.16342" lon="-6.934635">
        <ele>844.0</ele>
        <time>2022-06-19T08:48:43.596Z</time>
      </trkpt>
      <trkpt lat="43.16342" lon="-6.934635">
        <ele>844.0</ele>
        <time>2022-06-19T08:48:44.600Z</time>
      </trkpt>
      <trkpt lat="43.16343167" lon="-6.93466833">
        <ele>845.0</ele>
        <time>2022-06-19T08:48:45.571Z</time>
      </trkpt>
      <trkpt lat="43.16343167" lon="-6.934685">
        <ele>845.0</ele>
        <time>2022-06-19T08:48:46.570Z</time>
      </trkpt>
      <trkpt lat="43.16343833" lon="-6.93470167">
        <ele>845.0</ele>
        <time>2022-06-19T08:48:47.603Z</time>
      </trkpt>
      <trkpt lat="43.16343833" lon="-6.93470167">
        <ele>845.0</ele>
        <time>2022-06-19T08:48:48.569Z</time>
      </trkpt>
      <trkpt lat="43.16344667" lon="-6.93473667">
        <ele>846.0</ele>
        <time>2022-06-19T08:48:49.566Z</time>
      </trkpt>
      <trkpt lat="43.16344667" lon="-6.93473667">
        <ele>846.0</ele>
        <time>2022-06-19T08:48:50.571Z</time>
      </trkpt>
      <trkpt lat="43.16345667" lon="-6.934765">
        <ele>846.0</ele>
        <time>2022-06-19T08:48:51.577Z</time>
      </trkpt>
      <trkpt lat="43.16345667" lon="-6.934765">
        <ele>846.0</ele>
        <time>2022-06-19T08:48:52.589Z</time>
      </trkpt>
      <trkpt lat="43.16347333" lon="-6.93479333">
        <ele>846.0</ele>
        <time>2022-06-19T08:48:53.577Z</time>
      </trkpt>
      <trkpt lat="43.16347333" lon="-6.93479333">
        <ele>846.0</ele>
        <time>2022-06-19T08:48:54.582Z</time>
      </trkpt>
      <trkpt lat="43.16348833" lon="-6.93481833">
        <ele>846.0</ele>
        <time>2022-06-19T08:48:55.572Z</time>
      </trkpt>
      <trkpt lat="43.16348833" lon="-6.93481833">
        <ele>846.0</ele>
        <time>2022-06-19T08:48:56.576Z</time>
      </trkpt>
      <trkpt lat="43.16350167" lon="-6.93485167">
        <ele>847.0</ele>
        <time>2022-06-19T08:48:57.579Z</time>
      </trkpt>
      <trkpt lat="43.16350833" lon="-6.93486667">
        <ele>847.0</ele>
        <time>2022-06-19T08:48:58.577Z</time>
      </trkpt>
      <trkpt lat="43.16351333" lon="-6.93488167">
        <ele>847.0</ele>
        <time>2022-06-19T08:48:59.576Z</time>
      </trkpt>
      <trkpt lat="43.16351333" lon="-6.93488167">
        <ele>847.0</ele>
        <time>2022-06-19T08:49:00.581Z</time>
      </trkpt>
      <trkpt lat="43.163525" lon="-6.93491">
        <ele>848.0</ele>
        <time>2022-06-19T08:49:01.565Z</time>
      </trkpt>
      <trkpt lat="43.163525" lon="-6.93491">
        <ele>848.0</ele>
        <time>2022-06-19T08:49:02.570Z</time>
      </trkpt>
      <trkpt lat="43.16353167" lon="-6.93494667">
        <ele>848.0</ele>
        <time>2022-06-19T08:49:03.591Z</time>
      </trkpt>
      <trkpt lat="43.16353167" lon="-6.93494667">
        <ele>848.0</ele>
        <time>2022-06-19T08:49:04.596Z</time>
      </trkpt>
      <trkpt lat="43.16352833" lon="-6.93498667">
        <ele>848.0</ele>
        <time>2022-06-19T08:49:05.604Z</time>
      </trkpt>
      <trkpt lat="43.16352333" lon="-6.93500667">
        <ele>848.0</ele>
        <time>2022-06-19T08:49:06.596Z</time>
      </trkpt>
      <trkpt lat="43.16352333" lon="-6.93500667">
        <ele>848.0</ele>
        <time>2022-06-19T08:49:07.601Z</time>
      </trkpt>
      <trkpt lat="43.16349667" lon="-6.935035">
        <ele>848.0</ele>
        <time>2022-06-19T08:49:08.587Z</time>
      </trkpt>
      <trkpt lat="43.16349667" lon="-6.935035">
        <ele>848.0</ele>
        <time>2022-06-19T08:49:09.592Z</time>
      </trkpt>
      <trkpt lat="43.16346333" lon="-6.93503833">
        <ele>849.0</ele>
        <time>2022-06-19T08:49:10.596Z</time>
      </trkpt>
      <trkpt lat="43.16346333" lon="-6.93503833">
        <ele>849.0</ele>
        <time>2022-06-19T08:49:11.603Z</time>
      </trkpt>
      <trkpt lat="43.16344167" lon="-6.93505">
        <ele>849.0</ele>
        <time>2022-06-19T08:49:12.592Z</time>
      </trkpt>
      <trkpt lat="43.16343167" lon="-6.93505667">
        <ele>849.0</ele>
        <time>2022-06-19T08:49:13.581Z</time>
      </trkpt>
      <trkpt lat="43.16343167" lon="-6.93505667">
        <ele>849.0</ele>
        <time>2022-06-19T08:49:14.587Z</time>
      </trkpt>
      <trkpt lat="43.16340667" lon="-6.93507167">
        <ele>850.0</ele>
        <time>2022-06-19T08:49:15.567Z</time>
      </trkpt>
      <trkpt lat="43.16340667" lon="-6.93507167">
        <ele>850.0</ele>
        <time>2022-06-19T08:49:16.582Z</time>
      </trkpt>
      <trkpt lat="43.16337833" lon="-6.93508333">
        <ele>850.0</ele>
        <time>2022-06-19T08:49:17.568Z</time>
      </trkpt>
      <trkpt lat="43.16337833" lon="-6.93508333">
        <ele>850.0</ele>
        <time>2022-06-19T08:49:18.575Z</time>
      </trkpt>
      <trkpt lat="43.16334333" lon="-6.93508333">
        <ele>850.0</ele>
        <time>2022-06-19T08:49:19.575Z</time>
      </trkpt>
      <trkpt lat="43.16332833" lon="-6.935085">
        <ele>851.0</ele>
        <time>2022-06-19T08:49:20.590Z</time>
      </trkpt>
      <trkpt lat="43.16332833" lon="-6.935085">
        <ele>851.0</ele>
        <time>2022-06-19T08:49:21.595Z</time>
      </trkpt>
      <trkpt lat="43.16330333" lon="-6.93508833">
        <ele>851.0</ele>
        <time>2022-06-19T08:49:22.570Z</time>
      </trkpt>
      <trkpt lat="43.16330333" lon="-6.93508833">
        <ele>851.0</ele>
        <time>2022-06-19T08:49:23.575Z</time>
      </trkpt>
      <trkpt lat="43.163275" lon="-6.93509667">
        <ele>851.0</ele>
        <time>2022-06-19T08:49:24.567Z</time>
      </trkpt>
      <trkpt lat="43.16326" lon="-6.9351">
        <ele>852.0</ele>
        <time>2022-06-19T08:49:25.566Z</time>
      </trkpt>
      <trkpt lat="43.16326" lon="-6.9351">
        <ele>852.0</ele>
        <time>2022-06-19T08:49:26.583Z</time>
      </trkpt>
      <trkpt lat="43.16322167" lon="-6.935095">
        <ele>852.0</ele>
        <time>2022-06-19T08:49:27.579Z</time>
      </trkpt>
      <trkpt lat="43.16320167" lon="-6.93509667">
        <ele>852.0</ele>
        <time>2022-06-19T08:49:28.604Z</time>
      </trkpt>
      <trkpt lat="43.16320167" lon="-6.93509667">
        <ele>852.0</ele>
        <time>2022-06-19T08:49:29.574Z</time>
      </trkpt>
      <trkpt lat="43.16316167" lon="-6.9351">
        <ele>852.0</ele>
        <time>2022-06-19T08:49:30.570Z</time>
      </trkpt>
      <trkpt lat="43.16316167" lon="-6.9351">
        <ele>852.0</ele>
        <time>2022-06-19T08:49:31.575Z</time>
      </trkpt>
      <trkpt lat="43.16311667" lon="-6.93509">
        <ele>852.0</ele>
        <time>2022-06-19T08:49:32.596Z</time>
      </trkpt>
      <trkpt lat="43.16309667" lon="-6.935085">
        <ele>852.0</ele>
        <time>2022-06-19T08:49:33.596Z</time>
      </trkpt>
      <trkpt lat="43.16309667" lon="-6.935085">
        <ele>852.0</ele>
        <time>2022-06-19T08:49:34.566Z</time>
      </trkpt>
      <trkpt lat="43.16305333" lon="-6.93507667">
        <ele>853.0</ele>
        <time>2022-06-19T08:49:35.583Z</time>
      </trkpt>
      <trkpt lat="43.16305333" lon="-6.93507667">
        <ele>853.0</ele>
        <time>2022-06-19T08:49:36.588Z</time>
      </trkpt>
      <trkpt lat="43.163" lon="-6.93507">
        <ele>853.0</ele>
        <time>2022-06-19T08:49:37.577Z</time>
      </trkpt>
      <trkpt lat="43.163" lon="-6.93507">
        <ele>853.0</ele>
        <time>2022-06-19T08:49:38.569Z</time>
      </trkpt>
      <trkpt lat="43.16294167" lon="-6.93508">
        <ele>854.0</ele>
        <time>2022-06-19T08:49:39.588Z</time>
      </trkpt>
      <trkpt lat="43.16291167" lon="-6.93507167">
        <ele>854.0</ele>
        <time>2022-06-19T08:49:40.570Z</time>
      </trkpt>
      <trkpt lat="43.16291167" lon="-6.93507167">
        <ele>854.0</ele>
        <time>2022-06-19T08:49:41.579Z</time>
      </trkpt>
      <trkpt lat="43.162855" lon="-6.93504333">
        <ele>854.0</ele>
        <time>2022-06-19T08:49:42.581Z</time>
      </trkpt>
      <trkpt lat="43.162835" lon="-6.93503333">
        <ele>854.0</ele>
        <time>2022-06-19T08:49:43.566Z</time>
      </trkpt>
      <trkpt lat="43.16281667" lon="-6.93502333">
        <ele>854.0</ele>
        <time>2022-06-19T08:49:44.594Z</time>
      </trkpt>
      <trkpt lat="43.16281667" lon="-6.93502333">
        <ele>854.0</ele>
        <time>2022-06-19T08:49:45.599Z</time>
      </trkpt>
      <trkpt lat="43.16277333" lon="-6.93501">
        <ele>854.0</ele>
        <time>2022-06-19T08:49:46.585Z</time>
      </trkpt>
      <trkpt lat="43.16274833" lon="-6.93500667">
        <ele>854.0</ele>
        <time>2022-06-19T08:49:47.584Z</time>
      </trkpt>
      <trkpt lat="43.16274833" lon="-6.93500667">
        <ele>854.0</ele>
        <time>2022-06-19T08:49:48.593Z</time>
      </trkpt>
      <trkpt lat="43.16269833" lon="-6.935005">
        <ele>854.0</ele>
        <time>2022-06-19T08:49:49.578Z</time>
      </trkpt>
      <trkpt lat="43.16269833" lon="-6.935005">
        <ele>854.0</ele>
        <time>2022-06-19T08:49:50.599Z</time>
      </trkpt>
      <trkpt lat="43.16266167" lon="-6.93500667">
        <ele>855.0</ele>
        <time>2022-06-19T08:49:51.585Z</time>
      </trkpt>
      <trkpt lat="43.16266167" lon="-6.93500667">
        <ele>855.0</ele>
        <time>2022-06-19T08:49:52.592Z</time>
      </trkpt>
      <trkpt lat="43.16263667" lon="-6.935005">
        <ele>857.0</ele>
        <time>2022-06-19T08:49:53.583Z</time>
      </trkpt>
      <trkpt lat="43.16261833" lon="-6.93500167">
        <ele>858.0</ele>
        <time>2022-06-19T08:49:54.566Z</time>
      </trkpt>
      <trkpt lat="43.16261833" lon="-6.93500167">
        <ele>858.0</ele>
        <time>2022-06-19T08:49:55.571Z</time>
      </trkpt>
      <trkpt lat="43.16256833" lon="-6.93500167">
        <ele>858.0</ele>
        <time>2022-06-19T08:49:56.564Z</time>
      </trkpt>
      <trkpt lat="43.16256833" lon="-6.93500167">
        <ele>858.0</ele>
        <time>2022-06-19T08:49:57.569Z</time>
      </trkpt>
      <trkpt lat="43.16251167" lon="-6.93499833">
        <ele>858.0</ele>
        <time>2022-06-19T08:49:58.586Z</time>
      </trkpt>
      <trkpt lat="43.16251167" lon="-6.93499833">
        <ele>858.0</ele>
        <time>2022-06-19T08:49:59.591Z</time>
      </trkpt>
      <trkpt lat="43.16245" lon="-6.93499667">
        <ele>858.0</ele>
        <time>2022-06-19T08:50:00.591Z</time>
      </trkpt>
      <trkpt lat="43.16245" lon="-6.93499667">
        <ele>858.0</ele>
        <time>2022-06-19T08:50:01.568Z</time>
      </trkpt>
      <trkpt lat="43.16239833" lon="-6.934995">
        <ele>858.0</ele>
        <time>2022-06-19T08:50:02.599Z</time>
      </trkpt>
      <trkpt lat="43.16239833" lon="-6.934995">
        <ele>858.0</ele>
        <time>2022-06-19T08:50:03.566Z</time>
      </trkpt>
      <trkpt lat="43.16235167" lon="-6.935">
        <ele>858.0</ele>
        <time>2022-06-19T08:50:04.596Z</time>
      </trkpt>
      <trkpt lat="43.16235167" lon="-6.935">
        <ele>858.0</ele>
        <time>2022-06-19T08:50:05.567Z</time>
      </trkpt>
      <trkpt lat="43.16230333" lon="-6.93501">
        <ele>859.0</ele>
        <time>2022-06-19T08:50:06.594Z</time>
      </trkpt>
      <trkpt lat="43.16228167" lon="-6.93501333">
        <ele>859.0</ele>
        <time>2022-06-19T08:50:07.579Z</time>
      </trkpt>
      <trkpt lat="43.16228167" lon="-6.93501333">
        <ele>859.0</ele>
        <time>2022-06-19T08:50:08.591Z</time>
      </trkpt>
      <trkpt lat="43.16223333" lon="-6.93502333">
        <ele>859.0</ele>
        <time>2022-06-19T08:50:09.578Z</time>
      </trkpt>
      <trkpt lat="43.16220667" lon="-6.93502833">
        <ele>859.0</ele>
        <time>2022-06-19T08:50:10.581Z</time>
      </trkpt>
      <trkpt lat="43.16220667" lon="-6.93502833">
        <ele>859.0</ele>
        <time>2022-06-19T08:50:11.586Z</time>
      </trkpt>
      <trkpt lat="43.16216167" lon="-6.93503833">
        <ele>860.0</ele>
        <time>2022-06-19T08:50:12.565Z</time>
      </trkpt>
      <trkpt lat="43.16216167" lon="-6.93503833">
        <ele>860.0</ele>
        <time>2022-06-19T08:50:13.571Z</time>
      </trkpt>
      <trkpt lat="43.16213167" lon="-6.93504">
        <ele>860.0</ele>
        <time>2022-06-19T08:50:14.597Z</time>
      </trkpt>
      <trkpt lat="43.16213167" lon="-6.93504">
        <ele>860.0</ele>
        <time>2022-06-19T08:50:15.564Z</time>
      </trkpt>
      <trkpt lat="43.162095" lon="-6.93504333">
        <ele>860.0</ele>
        <time>2022-06-19T08:50:16.589Z</time>
      </trkpt>
      <trkpt lat="43.16207333" lon="-6.93505">
        <ele>860.0</ele>
        <time>2022-06-19T08:50:17.576Z</time>
      </trkpt>
      <trkpt lat="43.16207333" lon="-6.93505">
        <ele>860.0</ele>
        <time>2022-06-19T08:50:18.590Z</time>
      </trkpt>
      <trkpt lat="43.16202833" lon="-6.93505667">
        <ele>860.0</ele>
        <time>2022-06-19T08:50:19.573Z</time>
      </trkpt>
      <trkpt lat="43.16202833" lon="-6.93505667">
        <ele>860.0</ele>
        <time>2022-06-19T08:50:20.579Z</time>
      </trkpt>
      <trkpt lat="43.16198333" lon="-6.935065">
        <ele>860.0</ele>
        <time>2022-06-19T08:50:21.567Z</time>
      </trkpt>
      <trkpt lat="43.161965" lon="-6.93507333">
        <ele>860.0</ele>
        <time>2022-06-19T08:50:22.572Z</time>
      </trkpt>
      <trkpt lat="43.161965" lon="-6.93507333">
        <ele>860.0</ele>
        <time>2022-06-19T08:50:23.577Z</time>
      </trkpt>
      <trkpt lat="43.16192667" lon="-6.93508667">
        <ele>860.0</ele>
        <time>2022-06-19T08:50:24.565Z</time>
      </trkpt>
      <trkpt lat="43.16191" lon="-6.93509333">
        <ele>860.0</ele>
        <time>2022-06-19T08:50:25.597Z</time>
      </trkpt>
      <trkpt lat="43.16191" lon="-6.93509333">
        <ele>860.0</ele>
        <time>2022-06-19T08:50:26.603Z</time>
      </trkpt>
      <trkpt lat="43.161875" lon="-6.93510667">
        <ele>860.0</ele>
        <time>2022-06-19T08:50:27.586Z</time>
      </trkpt>
      <trkpt lat="43.16185667" lon="-6.93511333">
        <ele>861.0</ele>
        <time>2022-06-19T08:50:28.571Z</time>
      </trkpt>
      <trkpt lat="43.16185667" lon="-6.93511333">
        <ele>861.0</ele>
        <time>2022-06-19T08:50:29.576Z</time>
      </trkpt>
      <trkpt lat="43.16181667" lon="-6.93512667">
        <ele>861.0</ele>
        <time>2022-06-19T08:50:30.593Z</time>
      </trkpt>
      <trkpt lat="43.16180167" lon="-6.93513">
        <ele>861.0</ele>
        <time>2022-06-19T08:50:31.571Z</time>
      </trkpt>
      <trkpt lat="43.16180167" lon="-6.93513">
        <ele>861.0</ele>
        <time>2022-06-19T08:50:32.582Z</time>
      </trkpt>
      <trkpt lat="43.16176833" lon="-6.93513833">
        <ele>861.0</ele>
        <time>2022-06-19T08:50:33.567Z</time>
      </trkpt>
      <trkpt lat="43.161755" lon="-6.93514333">
        <ele>861.0</ele>
        <time>2022-06-19T08:50:34.585Z</time>
      </trkpt>
      <trkpt lat="43.161755" lon="-6.93514333">
        <ele>861.0</ele>
        <time>2022-06-19T08:50:35.569Z</time>
      </trkpt>
      <trkpt lat="43.16173333" lon="-6.93516333">
        <ele>862.0</ele>
        <time>2022-06-19T08:50:36.603Z</time>
      </trkpt>
      <trkpt lat="43.16172167" lon="-6.93517">
        <ele>863.0</ele>
        <time>2022-06-19T08:50:37.588Z</time>
      </trkpt>
      <trkpt lat="43.16172167" lon="-6.93517">
        <ele>863.0</ele>
        <time>2022-06-19T08:50:38.564Z</time>
      </trkpt>
      <trkpt lat="43.16169" lon="-6.93518">
        <ele>863.0</ele>
        <time>2022-06-19T08:50:39.590Z</time>
      </trkpt>
      <trkpt lat="43.16167333" lon="-6.93518333">
        <ele>864.0</ele>
        <time>2022-06-19T08:50:40.581Z</time>
      </trkpt>
      <trkpt lat="43.16167333" lon="-6.93518333">
        <ele>864.0</ele>
        <time>2022-06-19T08:50:41.586Z</time>
      </trkpt>
      <trkpt lat="43.161645" lon="-6.93519333">
        <ele>864.0</ele>
        <time>2022-06-19T08:50:42.570Z</time>
      </trkpt>
      <trkpt lat="43.16163" lon="-6.93519667">
        <ele>865.0</ele>
        <time>2022-06-19T08:50:43.582Z</time>
      </trkpt>
      <trkpt lat="43.16163" lon="-6.93519667">
        <ele>865.0</ele>
        <time>2022-06-19T08:50:44.595Z</time>
      </trkpt>
      <trkpt lat="43.1616" lon="-6.93521167">
        <ele>866.0</ele>
        <time>2022-06-19T08:50:45.576Z</time>
      </trkpt>
      <trkpt lat="43.1616" lon="-6.93521167">
        <ele>866.0</ele>
        <time>2022-06-19T08:50:46.581Z</time>
      </trkpt>
      <trkpt lat="43.16156833" lon="-6.93522667">
        <ele>866.0</ele>
        <time>2022-06-19T08:50:47.567Z</time>
      </trkpt>
      <trkpt lat="43.16156833" lon="-6.93522667">
        <ele>866.0</ele>
        <time>2022-06-19T08:50:48.572Z</time>
      </trkpt>
      <trkpt lat="43.16153833" lon="-6.93524167">
        <ele>866.0</ele>
        <time>2022-06-19T08:50:49.773Z</time>
      </trkpt>
      <trkpt lat="43.16153833" lon="-6.93524167">
        <ele>866.0</ele>
        <time>2022-06-19T08:50:50.569Z</time>
      </trkpt>
      <trkpt lat="43.161505" lon="-6.935245">
        <ele>867.0</ele>
        <time>2022-06-19T08:50:51.601Z</time>
      </trkpt>
      <trkpt lat="43.16149167" lon="-6.935245">
        <ele>867.0</ele>
        <time>2022-06-19T08:50:52.584Z</time>
      </trkpt>
      <trkpt lat="43.16149167" lon="-6.935245">
        <ele>867.0</ele>
        <time>2022-06-19T08:50:53.598Z</time>
      </trkpt>
      <trkpt lat="43.161475" lon="-6.93524667">
        <ele>867.0</ele>
        <time>2022-06-19T08:50:54.600Z</time>
      </trkpt>
      <trkpt lat="43.161465" lon="-6.93524667">
        <ele>868.0</ele>
        <time>2022-06-19T08:50:55.565Z</time>
      </trkpt>
      <trkpt lat="43.161465" lon="-6.93524667">
        <ele>868.0</ele>
        <time>2022-06-19T08:50:56.571Z</time>
      </trkpt>
      <trkpt lat="43.16143333" lon="-6.935245">
        <ele>868.0</ele>
        <time>2022-06-19T08:50:57.596Z</time>
      </trkpt>
      <trkpt lat="43.16143333" lon="-6.935245">
        <ele>868.0</ele>
        <time>2022-06-19T08:50:58.567Z</time>
      </trkpt>
      <trkpt lat="43.16139833" lon="-6.93523167">
        <ele>868.0</ele>
        <time>2022-06-19T08:50:59.593Z</time>
      </trkpt>
      <trkpt lat="43.16138167" lon="-6.93522833">
        <ele>868.0</ele>
        <time>2022-06-19T08:51:00.591Z</time>
      </trkpt>
      <trkpt lat="43.16138167" lon="-6.93522833">
        <ele>868.0</ele>
        <time>2022-06-19T08:51:01.598Z</time>
      </trkpt>
      <trkpt lat="43.161345" lon="-6.935215">
        <ele>869.0</ele>
        <time>2022-06-19T08:51:02.605Z</time>
      </trkpt>
      <trkpt lat="43.161345" lon="-6.935215">
        <ele>869.0</ele>
        <time>2022-06-19T08:51:03.571Z</time>
      </trkpt>
      <trkpt lat="43.16132" lon="-6.93521167">
        <ele>869.0</ele>
        <time>2022-06-19T08:51:04.595Z</time>
      </trkpt>
      <trkpt lat="43.16130833" lon="-6.93521">
        <ele>869.0</ele>
        <time>2022-06-19T08:51:05.575Z</time>
      </trkpt>
      <trkpt lat="43.16130833" lon="-6.93521">
        <ele>869.0</ele>
        <time>2022-06-19T08:51:06.579Z</time>
      </trkpt>
      <trkpt lat="43.16128167" lon="-6.93520833">
        <ele>869.0</ele>
        <time>2022-06-19T08:51:07.571Z</time>
      </trkpt>
      <trkpt lat="43.16128167" lon="-6.93520833">
        <ele>869.0</ele>
        <time>2022-06-19T08:51:08.575Z</time>
      </trkpt>
      <trkpt lat="43.16125" lon="-6.93520167">
        <ele>870.0</ele>
        <time>2022-06-19T08:51:09.591Z</time>
      </trkpt>
      <trkpt lat="43.16123833" lon="-6.93520333">
        <ele>870.0</ele>
        <time>2022-06-19T08:51:10.567Z</time>
      </trkpt>
      <trkpt lat="43.16122667" lon="-6.9352">
        <ele>870.0</ele>
        <time>2022-06-19T08:51:11.588Z</time>
      </trkpt>
      <trkpt lat="43.16122667" lon="-6.9352">
        <ele>870.0</ele>
        <time>2022-06-19T08:51:12.592Z</time>
      </trkpt>
      <trkpt lat="43.16120333" lon="-6.93519">
        <ele>870.0</ele>
        <time>2022-06-19T08:51:13.583Z</time>
      </trkpt>
      <trkpt lat="43.16120333" lon="-6.93519">
        <ele>870.0</ele>
        <time>2022-06-19T08:51:14.588Z</time>
      </trkpt>
      <trkpt lat="43.16118667" lon="-6.93518167">
        <ele>871.0</ele>
        <time>2022-06-19T08:51:15.571Z</time>
      </trkpt>
      <trkpt lat="43.16117833" lon="-6.93518">
        <ele>871.0</ele>
        <time>2022-06-19T08:51:16.568Z</time>
      </trkpt>
      <trkpt lat="43.16117833" lon="-6.93518">
        <ele>871.0</ele>
        <time>2022-06-19T08:51:17.600Z</time>
      </trkpt>
      <trkpt lat="43.161155" lon="-6.93518333">
        <ele>871.0</ele>
        <time>2022-06-19T08:51:18.591Z</time>
      </trkpt>
      <trkpt lat="43.16114167" lon="-6.93518667">
        <ele>871.0</ele>
        <time>2022-06-19T08:51:19.577Z</time>
      </trkpt>
      <trkpt lat="43.16114167" lon="-6.93518667">
        <ele>871.0</ele>
        <time>2022-06-19T08:51:20.582Z</time>
      </trkpt>
      <trkpt lat="43.16111667" lon="-6.93519">
        <ele>872.0</ele>
        <time>2022-06-19T08:51:21.603Z</time>
      </trkpt>
      <trkpt lat="43.16111667" lon="-6.93519">
        <ele>872.0</ele>
        <time>2022-06-19T08:51:22.570Z</time>
      </trkpt>
      <trkpt lat="43.16109167" lon="-6.93518833">
        <ele>872.0</ele>
        <time>2022-06-19T08:51:23.596Z</time>
      </trkpt>
      <trkpt lat="43.16109167" lon="-6.93518833">
        <ele>872.0</ele>
        <time>2022-06-19T08:51:24.570Z</time>
      </trkpt>
      <trkpt lat="43.16105667" lon="-6.93518833">
        <ele>872.0</ele>
        <time>2022-06-19T08:51:25.598Z</time>
      </trkpt>
      <trkpt lat="43.161045" lon="-6.93518667">
        <ele>872.0</ele>
        <time>2022-06-19T08:51:26.597Z</time>
      </trkpt>
      <trkpt lat="43.16103167" lon="-6.93518333">
        <ele>873.0</ele>
        <time>2022-06-19T08:51:27.579Z</time>
      </trkpt>
      <trkpt lat="43.16103167" lon="-6.93518333">
        <ele>873.0</ele>
        <time>2022-06-19T08:51:28.583Z</time>
      </trkpt>
      <trkpt lat="43.16100833" lon="-6.93518">
        <ele>873.0</ele>
        <time>2022-06-19T08:51:29.568Z</time>
      </trkpt>
      <trkpt lat="43.16100833" lon="-6.93518">
        <ele>873.0</ele>
        <time>2022-06-19T08:51:30.590Z</time>
      </trkpt>
      <trkpt lat="43.16098" lon="-6.93517833">
        <ele>873.0</ele>
        <time>2022-06-19T08:51:31.568Z</time>
      </trkpt>
      <trkpt lat="43.16098" lon="-6.93517833">
        <ele>873.0</ele>
        <time>2022-06-19T08:51:32.577Z</time>
      </trkpt>
      <trkpt lat="43.16095667" lon="-6.935175">
        <ele>874.0</ele>
        <time>2022-06-19T08:51:33.570Z</time>
      </trkpt>
      <trkpt lat="43.16095667" lon="-6.935175">
        <ele>874.0</ele>
        <time>2022-06-19T08:51:34.581Z</time>
      </trkpt>
      <trkpt lat="43.160935" lon="-6.935175">
        <ele>874.0</ele>
        <time>2022-06-19T08:51:35.568Z</time>
      </trkpt>
      <trkpt lat="43.16092333" lon="-6.93517667">
        <ele>874.0</ele>
        <time>2022-06-19T08:51:36.575Z</time>
      </trkpt>
      <trkpt lat="43.16092333" lon="-6.93517667">
        <ele>874.0</ele>
        <time>2022-06-19T08:51:37.585Z</time>
      </trkpt>
      <trkpt lat="43.160905" lon="-6.93518">
        <ele>875.0</ele>
        <time>2022-06-19T08:51:38.572Z</time>
      </trkpt>
      <trkpt lat="43.160905" lon="-6.93518">
        <ele>875.0</ele>
        <time>2022-06-19T08:51:39.595Z</time>
      </trkpt>
      <trkpt lat="43.16088333" lon="-6.935185">
        <ele>875.0</ele>
        <time>2022-06-19T08:51:40.585Z</time>
      </trkpt>
      <trkpt lat="43.16088333" lon="-6.935185">
        <ele>875.0</ele>
        <time>2022-06-19T08:51:41.598Z</time>
      </trkpt>
      <trkpt lat="43.16085333" lon="-6.93519">
        <ele>875.0</ele>
        <time>2022-06-19T08:51:42.594Z</time>
      </trkpt>
      <trkpt lat="43.16084667" lon="-6.93519167">
        <ele>876.0</ele>
        <time>2022-06-19T08:51:43.574Z</time>
      </trkpt>
      <trkpt lat="43.16084667" lon="-6.93519167">
        <ele>876.0</ele>
        <time>2022-06-19T08:51:44.584Z</time>
      </trkpt>
      <trkpt lat="43.16084333" lon="-6.93519">
        <ele>876.0</ele>
        <time>2022-06-19T08:51:45.568Z</time>
      </trkpt>
      <trkpt lat="43.16084333" lon="-6.93519">
        <ele>876.0</ele>
        <time>2022-06-19T08:51:46.578Z</time>
      </trkpt>
      <trkpt lat="43.16081833" lon="-6.93517833">
        <ele>876.0</ele>
        <time>2022-06-19T08:51:47.586Z</time>
      </trkpt>
      <trkpt lat="43.16080833" lon="-6.93518">
        <ele>876.0</ele>
        <time>2022-06-19T08:51:48.574Z</time>
      </trkpt>
      <trkpt lat="43.16079833" lon="-6.935185">
        <ele>876.0</ele>
        <time>2022-06-19T08:51:49.592Z</time>
      </trkpt>
      <trkpt lat="43.16079833" lon="-6.935185">
        <ele>876.0</ele>
        <time>2022-06-19T08:51:50.597Z</time>
      </trkpt>
      <trkpt lat="43.16078667" lon="-6.93519167">
        <ele>876.0</ele>
        <time>2022-06-19T08:51:51.585Z</time>
      </trkpt>
      <trkpt lat="43.16078667" lon="-6.93519167">
        <ele>876.0</ele>
        <time>2022-06-19T08:51:52.590Z</time>
      </trkpt>
      <trkpt lat="43.16077" lon="-6.93519167">
        <ele>877.0</ele>
        <time>2022-06-19T08:51:53.571Z</time>
      </trkpt>
      <trkpt lat="43.16077" lon="-6.93519167">
        <ele>877.0</ele>
        <time>2022-06-19T08:51:54.576Z</time>
      </trkpt>
      <trkpt lat="43.16075333" lon="-6.935185">
        <ele>877.0</ele>
        <time>2022-06-19T08:51:55.598Z</time>
      </trkpt>
      <trkpt lat="43.16075333" lon="-6.935185">
        <ele>877.0</ele>
        <time>2022-06-19T08:51:56.570Z</time>
      </trkpt>
      <trkpt lat="43.16074167" lon="-6.93517833">
        <ele>878.0</ele>
        <time>2022-06-19T08:51:57.568Z</time>
      </trkpt>
      <trkpt lat="43.16073667" lon="-6.93517667">
        <ele>878.0</ele>
        <time>2022-06-19T08:51:58.595Z</time>
      </trkpt>
      <trkpt lat="43.16073667" lon="-6.93517667">
        <ele>878.0</ele>
        <time>2022-06-19T08:51:59.601Z</time>
      </trkpt>
      <trkpt lat="43.16072667" lon="-6.93516833">
        <ele>878.0</ele>
        <time>2022-06-19T08:52:00.585Z</time>
      </trkpt>
      <trkpt lat="43.16072333" lon="-6.93516667">
        <ele>878.0</ele>
        <time>2022-06-19T08:52:01.567Z</time>
      </trkpt>
      <trkpt lat="43.16072333" lon="-6.93516667">
        <ele>878.0</ele>
        <time>2022-06-19T08:52:02.574Z</time>
      </trkpt>
      <trkpt lat="43.16071167" lon="-6.935165">
        <ele>878.0</ele>
        <time>2022-06-19T08:52:03.597Z</time>
      </trkpt>
      <trkpt lat="43.1607" lon="-6.93516167">
        <ele>878.0</ele>
        <time>2022-06-19T08:52:04.599Z</time>
      </trkpt>
      <trkpt lat="43.1607" lon="-6.93516167">
        <ele>878.0</ele>
        <time>2022-06-19T08:52:05.570Z</time>
      </trkpt>
      <trkpt lat="43.16068167" lon="-6.93516333">
        <ele>879.0</ele>
        <time>2022-06-19T08:52:06.601Z</time>
      </trkpt>
      <trkpt lat="43.16068167" lon="-6.93516333">
        <ele>879.0</ele>
        <time>2022-06-19T08:52:07.569Z</time>
      </trkpt>
      <trkpt lat="43.16067" lon="-6.93516667">
        <ele>879.0</ele>
        <time>2022-06-19T08:52:08.570Z</time>
      </trkpt>
      <trkpt lat="43.16067" lon="-6.93516667">
        <ele>879.0</ele>
        <time>2022-06-19T08:52:09.577Z</time>
      </trkpt>
      <trkpt lat="43.160655" lon="-6.93517167">
        <ele>879.0</ele>
        <time>2022-06-19T08:52:10.586Z</time>
      </trkpt>
      <trkpt lat="43.160655" lon="-6.93517167">
        <ele>879.0</ele>
        <time>2022-06-19T08:52:11.600Z</time>
      </trkpt>
      <trkpt lat="43.16064" lon="-6.935175">
        <ele>879.0</ele>
        <time>2022-06-19T08:52:12.597Z</time>
      </trkpt>
      <trkpt lat="43.16063333" lon="-6.935175">
        <ele>879.0</ele>
        <time>2022-06-19T08:52:13.577Z</time>
      </trkpt>
      <trkpt lat="43.16063333" lon="-6.935175">
        <ele>879.0</ele>
        <time>2022-06-19T08:52:14.584Z</time>
      </trkpt>
      <trkpt lat="43.16062" lon="-6.93517667">
        <ele>880.0</ele>
        <time>2022-06-19T08:52:15.573Z</time>
      </trkpt>
      <trkpt lat="43.160615" lon="-6.93517833">
        <ele>880.0</ele>
        <time>2022-06-19T08:52:16.590Z</time>
      </trkpt>
      <trkpt lat="43.160615" lon="-6.93517833">
        <ele>880.0</ele>
        <time>2022-06-19T08:52:17.595Z</time>
      </trkpt>
      <trkpt lat="43.16060333" lon="-6.93518167">
        <ele>880.0</ele>
        <time>2022-06-19T08:52:18.585Z</time>
      </trkpt>
      <trkpt lat="43.160595" lon="-6.93518333">
        <ele>880.0</ele>
        <time>2022-06-19T08:52:19.570Z</time>
      </trkpt>
      <trkpt lat="43.160595" lon="-6.93518333">
        <ele>880.0</ele>
        <time>2022-06-19T08:52:20.575Z</time>
      </trkpt>
      <trkpt lat="43.16058333" lon="-6.935185">
        <ele>880.0</ele>
        <time>2022-06-19T08:52:21.564Z</time>
      </trkpt>
      <trkpt lat="43.16058333" lon="-6.935185">
        <ele>880.0</ele>
        <time>2022-06-19T08:52:22.582Z</time>
      </trkpt>
      <trkpt lat="43.16057" lon="-6.93518833">
        <ele>881.0</ele>
        <time>2022-06-19T08:52:23.577Z</time>
      </trkpt>
      <trkpt lat="43.16057" lon="-6.93518833">
        <ele>881.0</ele>
        <time>2022-06-19T08:52:24.584Z</time>
      </trkpt>
      <trkpt lat="43.16055833" lon="-6.935195">
        <ele>881.0</ele>
        <time>2022-06-19T08:52:25.593Z</time>
      </trkpt>
      <trkpt lat="43.16055833" lon="-6.935195">
        <ele>881.0</ele>
        <time>2022-06-19T08:52:26.571Z</time>
      </trkpt>
      <trkpt lat="43.160545" lon="-6.9352">
        <ele>881.0</ele>
        <time>2022-06-19T08:52:27.598Z</time>
      </trkpt>
      <trkpt lat="43.16053833" lon="-6.935205">
        <ele>882.0</ele>
        <time>2022-06-19T08:52:28.591Z</time>
      </trkpt>
      <trkpt lat="43.16053167" lon="-6.93521">
        <ele>882.0</ele>
        <time>2022-06-19T08:52:29.584Z</time>
      </trkpt>
      <trkpt lat="43.16053167" lon="-6.93521">
        <ele>882.0</ele>
        <time>2022-06-19T08:52:30.599Z</time>
      </trkpt>
      <trkpt lat="43.16051667" lon="-6.935215">
        <ele>882.0</ele>
        <time>2022-06-19T08:52:31.565Z</time>
      </trkpt>
      <trkpt lat="43.16051667" lon="-6.935215">
        <ele>882.0</ele>
        <time>2022-06-19T08:52:32.580Z</time>
      </trkpt>
      <trkpt lat="43.16051" lon="-6.93522333">
        <ele>883.0</ele>
        <time>2022-06-19T08:52:33.566Z</time>
      </trkpt>
      <trkpt lat="43.16050667" lon="-6.93522833">
        <ele>883.0</ele>
        <time>2022-06-19T08:52:34.564Z</time>
      </trkpt>
      <trkpt lat="43.16050667" lon="-6.93522833">
        <ele>883.0</ele>
        <time>2022-06-19T08:52:35.583Z</time>
      </trkpt>
      <trkpt lat="43.160495" lon="-6.93524">
        <ele>883.0</ele>
        <time>2022-06-19T08:52:36.572Z</time>
      </trkpt>
      <trkpt lat="43.16049" lon="-6.93524333">
        <ele>883.0</ele>
        <time>2022-06-19T08:52:37.598Z</time>
      </trkpt>
      <trkpt lat="43.16049" lon="-6.93524333">
        <ele>883.0</ele>
        <time>2022-06-19T08:52:38.572Z</time>
      </trkpt>
      <trkpt lat="43.16047333" lon="-6.935245">
        <ele>884.0</ele>
        <time>2022-06-19T08:52:39.580Z</time>
      </trkpt>
      <trkpt lat="43.16046667" lon="-6.93524667">
        <ele>884.0</ele>
        <time>2022-06-19T08:52:40.566Z</time>
      </trkpt>
      <trkpt lat="43.16046667" lon="-6.93524667">
        <ele>884.0</ele>
        <time>2022-06-19T08:52:41.571Z</time>
      </trkpt>
      <trkpt lat="43.16045167" lon="-6.93524833">
        <ele>884.0</ele>
        <time>2022-06-19T08:52:42.570Z</time>
      </trkpt>
      <trkpt lat="43.16044333" lon="-6.93525">
        <ele>884.0</ele>
        <time>2022-06-19T08:52:43.594Z</time>
      </trkpt>
      <trkpt lat="43.16044333" lon="-6.93525">
        <ele>884.0</ele>
        <time>2022-06-19T08:52:44.599Z</time>
      </trkpt>
      <trkpt lat="43.16042667" lon="-6.93525833">
        <ele>885.0</ele>
        <time>2022-06-19T08:52:45.579Z</time>
      </trkpt>
      <trkpt lat="43.16041833" lon="-6.93526333">
        <ele>885.0</ele>
        <time>2022-06-19T08:52:46.598Z</time>
      </trkpt>
      <trkpt lat="43.16041833" lon="-6.93526333">
        <ele>885.0</ele>
        <time>2022-06-19T08:52:47.572Z</time>
      </trkpt>
      <trkpt lat="43.160395" lon="-6.93527667">
        <ele>885.0</ele>
        <time>2022-06-19T08:52:48.599Z</time>
      </trkpt>
      <trkpt lat="43.160385" lon="-6.93528">
        <ele>885.0</ele>
        <time>2022-06-19T08:52:49.581Z</time>
      </trkpt>
      <trkpt lat="43.160385" lon="-6.93528">
        <ele>885.0</ele>
        <time>2022-06-19T08:52:50.604Z</time>
      </trkpt>
      <trkpt lat="43.16037333" lon="-6.93529167">
        <ele>886.0</ele>
        <time>2022-06-19T08:52:51.571Z</time>
      </trkpt>
      <trkpt lat="43.16037333" lon="-6.93529167">
        <ele>886.0</ele>
        <time>2022-06-19T08:52:52.576Z</time>
      </trkpt>
      <trkpt lat="43.160355" lon="-6.93530167">
        <ele>886.0</ele>
        <time>2022-06-19T08:52:53.574Z</time>
      </trkpt>
      <trkpt lat="43.160355" lon="-6.93530167">
        <ele>886.0</ele>
        <time>2022-06-19T08:52:54.589Z</time>
      </trkpt>
      <trkpt lat="43.16034167" lon="-6.93531667">
        <ele>887.0</ele>
        <time>2022-06-19T08:52:55.575Z</time>
      </trkpt>
      <trkpt lat="43.16034167" lon="-6.93531667">
        <ele>887.0</ele>
        <time>2022-06-19T08:52:56.580Z</time>
      </trkpt>
      <trkpt lat="43.16032833" lon="-6.93532667">
        <ele>887.0</ele>
        <time>2022-06-19T08:52:57.581Z</time>
      </trkpt>
      <trkpt lat="43.16032167" lon="-6.93533">
        <ele>887.0</ele>
        <time>2022-06-19T08:52:58.571Z</time>
      </trkpt>
      <trkpt lat="43.16032167" lon="-6.93533">
        <ele>887.0</ele>
        <time>2022-06-19T08:52:59.576Z</time>
      </trkpt>
      <trkpt lat="43.160305" lon="-6.93533167">
        <ele>887.0</ele>
        <time>2022-06-19T08:53:00.603Z</time>
      </trkpt>
      <trkpt lat="43.16029667" lon="-6.935335">
        <ele>887.0</ele>
        <time>2022-06-19T08:53:01.591Z</time>
      </trkpt>
      <trkpt lat="43.16029667" lon="-6.935335">
        <ele>887.0</ele>
        <time>2022-06-19T08:53:02.571Z</time>
      </trkpt>
      <trkpt lat="43.16027667" lon="-6.93534">
        <ele>888.0</ele>
        <time>2022-06-19T08:53:03.595Z</time>
      </trkpt>
      <trkpt lat="43.16027" lon="-6.935345">
        <ele>888.0</ele>
        <time>2022-06-19T08:53:04.595Z</time>
      </trkpt>
      <trkpt lat="43.16027" lon="-6.935345">
        <ele>888.0</ele>
        <time>2022-06-19T08:53:05.600Z</time>
      </trkpt>
      <trkpt lat="43.16025667" lon="-6.93535833">
        <ele>888.0</ele>
        <time>2022-06-19T08:53:06.577Z</time>
      </trkpt>
      <trkpt lat="43.16025" lon="-6.935365">
        <ele>888.0</ele>
        <time>2022-06-19T08:53:07.565Z</time>
      </trkpt>
      <trkpt lat="43.16025" lon="-6.935365">
        <ele>888.0</ele>
        <time>2022-06-19T08:53:08.571Z</time>
      </trkpt>
      <trkpt lat="43.160235" lon="-6.93537667">
        <ele>889.0</ele>
        <time>2022-06-19T08:53:09.598Z</time>
      </trkpt>
      <trkpt lat="43.16022667" lon="-6.935385">
        <ele>889.0</ele>
        <time>2022-06-19T08:53:10.589Z</time>
      </trkpt>
      <trkpt lat="43.16022667" lon="-6.935385">
        <ele>889.0</ele>
        <time>2022-06-19T08:53:11.598Z</time>
      </trkpt>
      <trkpt lat="43.16021333" lon="-6.93538833">
        <ele>889.0</ele>
        <time>2022-06-19T08:53:12.590Z</time>
      </trkpt>
      <trkpt lat="43.16021333" lon="-6.93539">
        <ele>889.0</ele>
        <time>2022-06-19T08:53:13.578Z</time>
      </trkpt>
      <trkpt lat="43.16021333" lon="-6.93539">
        <ele>889.0</ele>
        <time>2022-06-19T08:53:14.582Z</time>
      </trkpt>
      <trkpt lat="43.16021333" lon="-6.93539">
        <ele>889.0</ele>
        <time>2022-06-19T08:53:15.574Z</time>
      </trkpt>
      <trkpt lat="43.16021333" lon="-6.93539">
        <ele>889.0</ele>
        <time>2022-06-19T08:53:16.588Z</time>
      </trkpt>
      <trkpt lat="43.16018833" lon="-6.9354">
        <ele>889.0</ele>
        <time>2022-06-19T08:53:19.091Z</time>
      </trkpt>
      <trkpt lat="43.16017167" lon="-6.93540333">
        <ele>889.0</ele>
        <time>2022-06-19T08:53:20.092Z</time>
      </trkpt>
      <trkpt lat="43.16017167" lon="-6.93540333">
        <ele>889.0</ele>
        <time>2022-06-19T08:53:21.098Z</time>
      </trkpt>
      <trkpt lat="43.16014333" lon="-6.93541">
        <ele>889.0</ele>
        <time>2022-06-19T08:53:22.107Z</time>
      </trkpt>
      <trkpt lat="43.16013" lon="-6.93541333">
        <ele>889.0</ele>
        <time>2022-06-19T08:53:23.103Z</time>
      </trkpt>
      <trkpt lat="43.16013" lon="-6.93541333">
        <ele>889.0</ele>
        <time>2022-06-19T08:53:24.100Z</time>
      </trkpt>
      <trkpt lat="43.16010167" lon="-6.93542333">
        <ele>890.0</ele>
        <time>2022-06-19T08:53:25.074Z</time>
      </trkpt>
      <trkpt lat="43.16010167" lon="-6.93542333">
        <ele>890.0</ele>
        <time>2022-06-19T08:53:26.095Z</time>
      </trkpt>
      <trkpt lat="43.16007333" lon="-6.93543333">
        <ele>890.0</ele>
        <time>2022-06-19T08:53:27.103Z</time>
      </trkpt>
      <trkpt lat="43.16006167" lon="-6.93543667">
        <ele>891.0</ele>
        <time>2022-06-19T08:53:28.081Z</time>
      </trkpt>
      <trkpt lat="43.16006167" lon="-6.93543667">
        <ele>891.0</ele>
        <time>2022-06-19T08:53:29.079Z</time>
      </trkpt>
      <trkpt lat="43.16004" lon="-6.935445">
        <ele>892.0</ele>
        <time>2022-06-19T08:53:30.089Z</time>
      </trkpt>
      <trkpt lat="43.16004" lon="-6.935445">
        <ele>892.0</ele>
        <time>2022-06-19T08:53:31.105Z</time>
      </trkpt>
      <trkpt lat="43.16001667" lon="-6.93546">
        <ele>892.0</ele>
        <time>2022-06-19T08:53:32.085Z</time>
      </trkpt>
      <trkpt lat="43.160005" lon="-6.93546333">
        <ele>893.0</ele>
        <time>2022-06-19T08:53:33.102Z</time>
      </trkpt>
      <trkpt lat="43.160005" lon="-6.93546333">
        <ele>893.0</ele>
        <time>2022-06-19T08:53:34.102Z</time>
      </trkpt>
      <trkpt lat="43.15998333" lon="-6.93547333">
        <ele>893.0</ele>
        <time>2022-06-19T08:53:35.070Z</time>
      </trkpt>
      <trkpt lat="43.15998333" lon="-6.93547333">
        <ele>893.0</ele>
        <time>2022-06-19T08:53:36.069Z</time>
      </trkpt>
      <trkpt lat="43.15996167" lon="-6.93548167">
        <ele>894.0</ele>
        <time>2022-06-19T08:53:37.078Z</time>
      </trkpt>
      <trkpt lat="43.15996167" lon="-6.93548167">
        <ele>894.0</ele>
        <time>2022-06-19T08:53:38.066Z</time>
      </trkpt>
      <trkpt lat="43.159945" lon="-6.9355">
        <ele>895.0</ele>
        <time>2022-06-19T08:53:39.074Z</time>
      </trkpt>
      <trkpt lat="43.159945" lon="-6.9355">
        <ele>895.0</ele>
        <time>2022-06-19T08:53:40.071Z</time>
      </trkpt>
      <trkpt lat="43.15992667" lon="-6.93552333">
        <ele>894.0</ele>
        <time>2022-06-19T08:53:41.078Z</time>
      </trkpt>
      <trkpt lat="43.159915" lon="-6.935535">
        <ele>894.0</ele>
        <time>2022-06-19T08:53:42.068Z</time>
      </trkpt>
      <trkpt lat="43.15990333" lon="-6.93554667">
        <ele>895.0</ele>
        <time>2022-06-19T08:53:43.096Z</time>
      </trkpt>
      <trkpt lat="43.15990333" lon="-6.93554667">
        <ele>895.0</ele>
        <time>2022-06-19T08:53:44.087Z</time>
      </trkpt>
      <trkpt lat="43.15988" lon="-6.93556333">
        <ele>895.0</ele>
        <time>2022-06-19T08:53:45.079Z</time>
      </trkpt>
      <trkpt lat="43.15988" lon="-6.93556333">
        <ele>895.0</ele>
        <time>2022-06-19T08:53:46.079Z</time>
      </trkpt>
      <trkpt lat="43.15986167" lon="-6.93557333">
        <ele>895.0</ele>
        <time>2022-06-19T08:53:47.088Z</time>
      </trkpt>
      <trkpt lat="43.15986167" lon="-6.93557333">
        <ele>895.0</ele>
        <time>2022-06-19T08:53:48.080Z</time>
      </trkpt>
      <trkpt lat="43.15984167" lon="-6.93558">
        <ele>895.0</ele>
        <time>2022-06-19T08:53:49.102Z</time>
      </trkpt>
      <trkpt lat="43.15983" lon="-6.93558333">
        <ele>896.0</ele>
        <time>2022-06-19T08:53:50.088Z</time>
      </trkpt>
      <trkpt lat="43.15983" lon="-6.93558333">
        <ele>896.0</ele>
        <time>2022-06-19T08:53:51.081Z</time>
      </trkpt>
      <trkpt lat="43.15980667" lon="-6.93558833">
        <ele>896.0</ele>
        <time>2022-06-19T08:53:52.102Z</time>
      </trkpt>
      <trkpt lat="43.15980667" lon="-6.93558833">
        <ele>896.0</ele>
        <time>2022-06-19T08:53:53.092Z</time>
      </trkpt>
      <trkpt lat="43.15978333" lon="-6.93560167">
        <ele>896.0</ele>
        <time>2022-06-19T08:53:54.066Z</time>
      </trkpt>
      <trkpt lat="43.159775" lon="-6.93560833">
        <ele>897.0</ele>
        <time>2022-06-19T08:53:55.080Z</time>
      </trkpt>
      <trkpt lat="43.159775" lon="-6.93560833">
        <ele>897.0</ele>
        <time>2022-06-19T08:53:56.102Z</time>
      </trkpt>
      <trkpt lat="43.15975667" lon="-6.935625">
        <ele>897.0</ele>
        <time>2022-06-19T08:53:57.072Z</time>
      </trkpt>
      <trkpt lat="43.15975667" lon="-6.935625">
        <ele>897.0</ele>
        <time>2022-06-19T08:53:58.098Z</time>
      </trkpt>
      <trkpt lat="43.15973667" lon="-6.935645">
        <ele>897.0</ele>
        <time>2022-06-19T08:53:59.067Z</time>
      </trkpt>
      <trkpt lat="43.159725" lon="-6.935655">
        <ele>898.0</ele>
        <time>2022-06-19T08:54:00.081Z</time>
      </trkpt>
      <trkpt lat="43.159725" lon="-6.935655">
        <ele>898.0</ele>
        <time>2022-06-19T08:54:01.077Z</time>
      </trkpt>
      <trkpt lat="43.1597" lon="-6.93567">
        <ele>898.0</ele>
        <time>2022-06-19T08:54:02.098Z</time>
      </trkpt>
      <trkpt lat="43.1597" lon="-6.93567">
        <ele>898.0</ele>
        <time>2022-06-19T08:54:03.088Z</time>
      </trkpt>
      <trkpt lat="43.159675" lon="-6.93567667">
        <ele>898.0</ele>
        <time>2022-06-19T08:54:04.095Z</time>
      </trkpt>
      <trkpt lat="43.159675" lon="-6.93567667">
        <ele>898.0</ele>
        <time>2022-06-19T08:54:05.078Z</time>
      </trkpt>
      <trkpt lat="43.15964667" lon="-6.935675">
        <ele>899.0</ele>
        <time>2022-06-19T08:54:06.094Z</time>
      </trkpt>
      <trkpt lat="43.15963667" lon="-6.93567833">
        <ele>899.0</ele>
        <time>2022-06-19T08:54:07.073Z</time>
      </trkpt>
      <trkpt lat="43.15962667" lon="-6.935685">
        <ele>899.0</ele>
        <time>2022-06-19T08:54:08.070Z</time>
      </trkpt>
      <trkpt lat="43.15961667" lon="-6.935695">
        <ele>899.0</ele>
        <time>2022-06-19T08:54:09.068Z</time>
      </trkpt>
      <trkpt lat="43.15961667" lon="-6.935695">
        <ele>899.0</ele>
        <time>2022-06-19T08:54:10.101Z</time>
      </trkpt>
      <trkpt lat="43.15958167" lon="-6.935725">
        <ele>900.0</ele>
        <time>2022-06-19T08:54:11.068Z</time>
      </trkpt>
      <trkpt lat="43.15958167" lon="-6.935725">
        <ele>900.0</ele>
        <time>2022-06-19T08:54:12.098Z</time>
      </trkpt>
      <trkpt lat="43.15955" lon="-6.93573667">
        <ele>900.0</ele>
        <time>2022-06-19T08:54:13.068Z</time>
      </trkpt>
      <trkpt lat="43.15955" lon="-6.93573667">
        <ele>900.0</ele>
        <time>2022-06-19T08:54:14.096Z</time>
      </trkpt>
      <trkpt lat="43.15952667" lon="-6.93574167">
        <ele>900.0</ele>
        <time>2022-06-19T08:54:15.069Z</time>
      </trkpt>
      <trkpt lat="43.15952667" lon="-6.93574167">
        <ele>900.0</ele>
        <time>2022-06-19T08:54:16.068Z</time>
      </trkpt>
      <trkpt lat="43.1595" lon="-6.93574833">
        <ele>900.0</ele>
        <time>2022-06-19T08:54:17.075Z</time>
      </trkpt>
      <trkpt lat="43.1595" lon="-6.93574833">
        <ele>900.0</ele>
        <time>2022-06-19T08:54:18.094Z</time>
      </trkpt>
      <trkpt lat="43.15947833" lon="-6.93576667">
        <ele>900.0</ele>
        <time>2022-06-19T08:54:19.106Z</time>
      </trkpt>
      <trkpt lat="43.15947833" lon="-6.93576667">
        <ele>900.0</ele>
        <time>2022-06-19T08:54:20.099Z</time>
      </trkpt>
      <trkpt lat="43.15946167" lon="-6.93578667">
        <ele>900.0</ele>
        <time>2022-06-19T08:54:21.072Z</time>
      </trkpt>
      <trkpt lat="43.15946167" lon="-6.93578667">
        <ele>900.0</ele>
        <time>2022-06-19T08:54:22.105Z</time>
      </trkpt>
      <trkpt lat="43.15944667" lon="-6.93580667">
        <ele>901.0</ele>
        <time>2022-06-19T08:54:23.077Z</time>
      </trkpt>
      <trkpt lat="43.15944667" lon="-6.93580667">
        <ele>901.0</ele>
        <time>2022-06-19T08:54:24.091Z</time>
      </trkpt>
      <trkpt lat="43.15942" lon="-6.935825">
        <ele>901.0</ele>
        <time>2022-06-19T08:54:25.106Z</time>
      </trkpt>
      <trkpt lat="43.15942" lon="-6.935825">
        <ele>901.0</ele>
        <time>2022-06-19T08:54:26.100Z</time>
      </trkpt>
      <trkpt lat="43.15939167" lon="-6.93584">
        <ele>901.0</ele>
        <time>2022-06-19T08:54:27.067Z</time>
      </trkpt>
      <trkpt lat="43.15939167" lon="-6.93584">
        <ele>901.0</ele>
        <time>2022-06-19T08:54:28.099Z</time>
      </trkpt>
      <trkpt lat="43.15938" lon="-6.935845">
        <ele>902.0</ele>
        <time>2022-06-19T08:54:29.081Z</time>
      </trkpt>
      <trkpt lat="43.15938" lon="-6.935845">
        <ele>902.0</ele>
        <time>2022-06-19T08:54:30.078Z</time>
      </trkpt>
      <trkpt lat="43.15936" lon="-6.93585167">
        <ele>902.0</ele>
        <time>2022-06-19T08:54:31.094Z</time>
      </trkpt>
      <trkpt lat="43.15936" lon="-6.93585167">
        <ele>902.0</ele>
        <time>2022-06-19T08:54:32.069Z</time>
      </trkpt>
      <trkpt lat="43.15933667" lon="-6.93586833">
        <ele>902.0</ele>
        <time>2022-06-19T08:54:33.077Z</time>
      </trkpt>
      <trkpt lat="43.15933667" lon="-6.93586833">
        <ele>902.0</ele>
        <time>2022-06-19T08:54:34.099Z</time>
      </trkpt>
      <trkpt lat="43.15931667" lon="-6.93588667">
        <ele>902.0</ele>
        <time>2022-06-19T08:54:35.069Z</time>
      </trkpt>
      <trkpt lat="43.15930667" lon="-6.93589833">
        <ele>902.0</ele>
        <time>2022-06-19T08:54:36.097Z</time>
      </trkpt>
      <trkpt lat="43.15930667" lon="-6.93589833">
        <ele>902.0</ele>
        <time>2022-06-19T08:54:37.079Z</time>
      </trkpt>
      <trkpt lat="43.15928833" lon="-6.935915">
        <ele>902.0</ele>
        <time>2022-06-19T08:54:38.095Z</time>
      </trkpt>
      <trkpt lat="43.15928833" lon="-6.935915">
        <ele>902.0</ele>
        <time>2022-06-19T08:54:39.076Z</time>
      </trkpt>
      <trkpt lat="43.15926" lon="-6.93593167">
        <ele>902.0</ele>
        <time>2022-06-19T08:54:40.091Z</time>
      </trkpt>
      <trkpt lat="43.15926" lon="-6.93593167">
        <ele>902.0</ele>
        <time>2022-06-19T08:54:41.100Z</time>
      </trkpt>
      <trkpt lat="43.15922667" lon="-6.93596">
        <ele>902.0</ele>
        <time>2022-06-19T08:54:42.098Z</time>
      </trkpt>
      <trkpt lat="43.15921833" lon="-6.935975">
        <ele>903.0</ele>
        <time>2022-06-19T08:54:43.106Z</time>
      </trkpt>
      <trkpt lat="43.15921833" lon="-6.935975">
        <ele>903.0</ele>
        <time>2022-06-19T08:54:44.071Z</time>
      </trkpt>
      <trkpt lat="43.15921167" lon="-6.93602167">
        <ele>903.0</ele>
        <time>2022-06-19T08:54:45.079Z</time>
      </trkpt>
      <trkpt lat="43.15920333" lon="-6.93603">
        <ele>903.0</ele>
        <time>2022-06-19T08:54:46.071Z</time>
      </trkpt>
      <trkpt lat="43.15920333" lon="-6.93603">
        <ele>903.0</ele>
        <time>2022-06-19T08:54:47.069Z</time>
      </trkpt>
      <trkpt lat="43.15917667" lon="-6.936055">
        <ele>903.0</ele>
        <time>2022-06-19T08:54:48.081Z</time>
      </trkpt>
      <trkpt lat="43.15916333" lon="-6.93606167">
        <ele>904.0</ele>
        <time>2022-06-19T08:54:49.068Z</time>
      </trkpt>
      <trkpt lat="43.15916333" lon="-6.93606167">
        <ele>904.0</ele>
        <time>2022-06-19T08:54:50.099Z</time>
      </trkpt>
      <trkpt lat="43.15913833" lon="-6.93608">
        <ele>904.0</ele>
        <time>2022-06-19T08:54:51.083Z</time>
      </trkpt>
      <trkpt lat="43.15913833" lon="-6.93608">
        <ele>904.0</ele>
        <time>2022-06-19T08:54:52.087Z</time>
      </trkpt>
      <trkpt lat="43.15911667" lon="-6.93610833">
        <ele>904.0</ele>
        <time>2022-06-19T08:54:53.095Z</time>
      </trkpt>
      <trkpt lat="43.15911167" lon="-6.936125">
        <ele>905.0</ele>
        <time>2022-06-19T08:54:54.077Z</time>
      </trkpt>
      <trkpt lat="43.15911167" lon="-6.936125">
        <ele>905.0</ele>
        <time>2022-06-19T08:54:55.079Z</time>
      </trkpt>
      <trkpt lat="43.15909833" lon="-6.93615667">
        <ele>905.0</ele>
        <time>2022-06-19T08:54:56.087Z</time>
      </trkpt>
      <trkpt lat="43.15909833" lon="-6.93615667">
        <ele>905.0</ele>
        <time>2022-06-19T08:54:57.090Z</time>
      </trkpt>
      <trkpt lat="43.15907667" lon="-6.936175">
        <ele>906.0</ele>
        <time>2022-06-19T08:54:58.098Z</time>
      </trkpt>
      <trkpt lat="43.15907667" lon="-6.936175">
        <ele>906.0</ele>
        <time>2022-06-19T08:54:59.086Z</time>
      </trkpt>
      <trkpt lat="43.15905833" lon="-6.93619333">
        <ele>906.0</ele>
        <time>2022-06-19T08:55:00.094Z</time>
      </trkpt>
      <trkpt lat="43.15905833" lon="-6.93619333">
        <ele>906.0</ele>
        <time>2022-06-19T08:55:01.077Z</time>
      </trkpt>
      <trkpt lat="43.15903167" lon="-6.93620667">
        <ele>906.0</ele>
        <time>2022-06-19T08:55:02.088Z</time>
      </trkpt>
      <trkpt lat="43.15903167" lon="-6.93620667">
        <ele>906.0</ele>
        <time>2022-06-19T08:55:03.088Z</time>
      </trkpt>
      <trkpt lat="43.159005" lon="-6.936225">
        <ele>907.0</ele>
        <time>2022-06-19T08:55:04.099Z</time>
      </trkpt>
      <trkpt lat="43.159005" lon="-6.936225">
        <ele>907.0</ele>
        <time>2022-06-19T08:55:05.099Z</time>
      </trkpt>
      <trkpt lat="43.15898667" lon="-6.93625">
        <ele>907.0</ele>
        <time>2022-06-19T08:55:06.097Z</time>
      </trkpt>
      <trkpt lat="43.15898" lon="-6.936265">
        <ele>907.0</ele>
        <time>2022-06-19T08:55:07.078Z</time>
      </trkpt>
      <trkpt lat="43.15898" lon="-6.936265">
        <ele>907.0</ele>
        <time>2022-06-19T08:55:08.066Z</time>
      </trkpt>
      <trkpt lat="43.15896667" lon="-6.93629667">
        <ele>908.0</ele>
        <time>2022-06-19T08:55:09.075Z</time>
      </trkpt>
      <trkpt lat="43.158955" lon="-6.93630833">
        <ele>909.0</ele>
        <time>2022-06-19T08:55:10.077Z</time>
      </trkpt>
      <trkpt lat="43.158955" lon="-6.93630833">
        <ele>909.0</ele>
        <time>2022-06-19T08:55:11.101Z</time>
      </trkpt>
      <trkpt lat="43.15893333" lon="-6.93633">
        <ele>909.0</ele>
        <time>2022-06-19T08:55:12.084Z</time>
      </trkpt>
      <trkpt lat="43.15892667" lon="-6.93635833">
        <ele>909.0</ele>
        <time>2022-06-19T08:55:13.104Z</time>
      </trkpt>
      <trkpt lat="43.15892667" lon="-6.93635833">
        <ele>909.0</ele>
        <time>2022-06-19T08:55:14.088Z</time>
      </trkpt>
      <trkpt lat="43.15891" lon="-6.93638833">
        <ele>909.0</ele>
        <time>2022-06-19T08:55:15.094Z</time>
      </trkpt>
      <trkpt lat="43.15891" lon="-6.93638833">
        <ele>909.0</ele>
        <time>2022-06-19T08:55:16.069Z</time>
      </trkpt>
      <trkpt lat="43.15889" lon="-6.93641">
        <ele>910.0</ele>
        <time>2022-06-19T08:55:17.118Z</time>
      </trkpt>
      <trkpt lat="43.15889" lon="-6.93641">
        <ele>910.0</ele>
        <time>2022-06-19T08:55:18.079Z</time>
      </trkpt>
      <trkpt lat="43.15886833" lon="-6.93643">
        <ele>910.0</ele>
        <time>2022-06-19T08:55:19.087Z</time>
      </trkpt>
      <trkpt lat="43.15885667" lon="-6.93643833">
        <ele>911.0</ele>
        <time>2022-06-19T08:55:20.068Z</time>
      </trkpt>
      <trkpt lat="43.15885667" lon="-6.93643833">
        <ele>911.0</ele>
        <time>2022-06-19T08:55:21.077Z</time>
      </trkpt>
      <trkpt lat="43.15883833" lon="-6.93645667">
        <ele>911.0</ele>
        <time>2022-06-19T08:55:22.091Z</time>
      </trkpt>
      <trkpt lat="43.15883" lon="-6.936465">
        <ele>911.0</ele>
        <time>2022-06-19T08:55:23.066Z</time>
      </trkpt>
      <trkpt lat="43.15883" lon="-6.936465">
        <ele>911.0</ele>
        <time>2022-06-19T08:55:24.099Z</time>
      </trkpt>
      <trkpt lat="43.15881333" lon="-6.93648667">
        <ele>911.0</ele>
        <time>2022-06-19T08:55:25.068Z</time>
      </trkpt>
      <trkpt lat="43.15881333" lon="-6.93648667">
        <ele>911.0</ele>
        <time>2022-06-19T08:55:26.069Z</time>
      </trkpt>
      <trkpt lat="43.15879333" lon="-6.93650333">
        <ele>912.0</ele>
        <time>2022-06-19T08:55:27.084Z</time>
      </trkpt>
      <trkpt lat="43.15879333" lon="-6.93650333">
        <ele>912.0</ele>
        <time>2022-06-19T08:55:28.090Z</time>
      </trkpt>
      <trkpt lat="43.15877333" lon="-6.93651833">
        <ele>912.0</ele>
        <time>2022-06-19T08:55:29.097Z</time>
      </trkpt>
      <trkpt lat="43.15877333" lon="-6.93651833">
        <ele>912.0</ele>
        <time>2022-06-19T08:55:30.087Z</time>
      </trkpt>
      <trkpt lat="43.15875667" lon="-6.93653667">
        <ele>913.0</ele>
        <time>2022-06-19T08:55:31.101Z</time>
      </trkpt>
      <trkpt lat="43.15875667" lon="-6.93653667">
        <ele>913.0</ele>
        <time>2022-06-19T08:55:32.080Z</time>
      </trkpt>
      <trkpt lat="43.15874167" lon="-6.93655333">
        <ele>913.0</ele>
        <time>2022-06-19T08:55:33.068Z</time>
      </trkpt>
      <trkpt lat="43.15874167" lon="-6.93655333">
        <ele>913.0</ele>
        <time>2022-06-19T08:55:34.097Z</time>
      </trkpt>
      <trkpt lat="43.158725" lon="-6.936565">
        <ele>914.0</ele>
        <time>2022-06-19T08:55:35.105Z</time>
      </trkpt>
      <trkpt lat="43.158725" lon="-6.936565">
        <ele>914.0</ele>
        <time>2022-06-19T08:55:36.087Z</time>
      </trkpt>
      <trkpt lat="43.15871" lon="-6.93659167">
        <ele>914.0</ele>
        <time>2022-06-19T08:55:37.095Z</time>
      </trkpt>
      <trkpt lat="43.15871" lon="-6.93659167">
        <ele>914.0</ele>
        <time>2022-06-19T08:55:38.073Z</time>
      </trkpt>
      <trkpt lat="43.1587" lon="-6.93662333">
        <ele>915.0</ele>
        <time>2022-06-19T08:55:39.085Z</time>
      </trkpt>
      <trkpt lat="43.1587" lon="-6.93662333">
        <ele>915.0</ele>
        <time>2022-06-19T08:55:40.106Z</time>
      </trkpt>
      <trkpt lat="43.15868667" lon="-6.936655">
        <ele>915.0</ele>
        <time>2022-06-19T08:55:41.096Z</time>
      </trkpt>
      <trkpt lat="43.15868667" lon="-6.936655">
        <ele>915.0</ele>
        <time>2022-06-19T08:55:42.094Z</time>
      </trkpt>
      <trkpt lat="43.15867" lon="-6.93668">
        <ele>916.0</ele>
        <time>2022-06-19T08:55:43.068Z</time>
      </trkpt>
      <trkpt lat="43.15867" lon="-6.93668">
        <ele>916.0</ele>
        <time>2022-06-19T08:55:44.088Z</time>
      </trkpt>
      <trkpt lat="43.15865167" lon="-6.93670667">
        <ele>917.0</ele>
        <time>2022-06-19T08:55:45.108Z</time>
      </trkpt>
      <trkpt lat="43.15865167" lon="-6.93670667">
        <ele>917.0</ele>
        <time>2022-06-19T08:55:46.092Z</time>
      </trkpt>
      <trkpt lat="43.158635" lon="-6.93672">
        <ele>917.0</ele>
        <time>2022-06-19T08:55:47.104Z</time>
      </trkpt>
      <trkpt lat="43.15862833" lon="-6.936725">
        <ele>917.0</ele>
        <time>2022-06-19T08:55:48.101Z</time>
      </trkpt>
      <trkpt lat="43.15862833" lon="-6.936725">
        <ele>917.0</ele>
        <time>2022-06-19T08:55:49.092Z</time>
      </trkpt>
      <trkpt lat="43.15862" lon="-6.93674667">
        <ele>917.0</ele>
        <time>2022-06-19T08:55:50.105Z</time>
      </trkpt>
      <trkpt lat="43.15862" lon="-6.93674667">
        <ele>917.0</ele>
        <time>2022-06-19T08:55:51.081Z</time>
      </trkpt>
      <trkpt lat="43.158605" lon="-6.936765">
        <ele>918.0</ele>
        <time>2022-06-19T08:55:52.092Z</time>
      </trkpt>
      <trkpt lat="43.158605" lon="-6.936765">
        <ele>918.0</ele>
        <time>2022-06-19T08:55:53.075Z</time>
      </trkpt>
      <trkpt lat="43.15859167" lon="-6.93678333">
        <ele>918.0</ele>
        <time>2022-06-19T08:55:54.082Z</time>
      </trkpt>
      <trkpt lat="43.158585" lon="-6.93679333">
        <ele>918.0</ele>
        <time>2022-06-19T08:55:55.068Z</time>
      </trkpt>
      <trkpt lat="43.158585" lon="-6.93679333">
        <ele>918.0</ele>
        <time>2022-06-19T08:55:56.100Z</time>
      </trkpt>
      <trkpt lat="43.15857" lon="-6.93681">
        <ele>918.0</ele>
        <time>2022-06-19T08:55:57.075Z</time>
      </trkpt>
      <trkpt lat="43.15856" lon="-6.93681833">
        <ele>918.0</ele>
        <time>2022-06-19T08:55:58.098Z</time>
      </trkpt>
      <trkpt lat="43.15856" lon="-6.93681833">
        <ele>918.0</ele>
        <time>2022-06-19T08:55:59.105Z</time>
      </trkpt>
      <trkpt lat="43.15855333" lon="-6.93684167">
        <ele>919.0</ele>
        <time>2022-06-19T08:56:00.073Z</time>
      </trkpt>
      <trkpt lat="43.158545" lon="-6.93685667">
        <ele>919.0</ele>
        <time>2022-06-19T08:56:01.099Z</time>
      </trkpt>
      <trkpt lat="43.158545" lon="-6.93685667">
        <ele>919.0</ele>
        <time>2022-06-19T08:56:02.091Z</time>
      </trkpt>
      <trkpt lat="43.15853" lon="-6.93687833">
        <ele>919.0</ele>
        <time>2022-06-19T08:56:03.098Z</time>
      </trkpt>
      <trkpt lat="43.15852333" lon="-6.93688833">
        <ele>920.0</ele>
        <time>2022-06-19T08:56:04.104Z</time>
      </trkpt>
      <trkpt lat="43.15852333" lon="-6.93688833">
        <ele>920.0</ele>
        <time>2022-06-19T08:56:05.098Z</time>
      </trkpt>
      <trkpt lat="43.15850833" lon="-6.936905">
        <ele>920.0</ele>
        <time>2022-06-19T08:56:06.068Z</time>
      </trkpt>
      <trkpt lat="43.15850333" lon="-6.93691167">
        <ele>920.0</ele>
        <time>2022-06-19T08:56:07.076Z</time>
      </trkpt>
      <trkpt lat="43.15850333" lon="-6.93691167">
        <ele>920.0</ele>
        <time>2022-06-19T08:56:08.069Z</time>
      </trkpt>
      <trkpt lat="43.15849167" lon="-6.93693167">
        <ele>920.0</ele>
        <time>2022-06-19T08:56:09.078Z</time>
      </trkpt>
      <trkpt lat="43.15848667" lon="-6.93694">
        <ele>921.0</ele>
        <time>2022-06-19T08:56:10.097Z</time>
      </trkpt>
      <trkpt lat="43.15848667" lon="-6.93694">
        <ele>921.0</ele>
        <time>2022-06-19T08:56:11.101Z</time>
      </trkpt>
      <trkpt lat="43.15847833" lon="-6.93695833">
        <ele>921.0</ele>
        <time>2022-06-19T08:56:12.080Z</time>
      </trkpt>
      <trkpt lat="43.15847333" lon="-6.93697">
        <ele>921.0</ele>
        <time>2022-06-19T08:56:13.080Z</time>
      </trkpt>
      <trkpt lat="43.15847" lon="-6.93698167">
        <ele>921.0</ele>
        <time>2022-06-19T08:56:14.073Z</time>
      </trkpt>
      <trkpt lat="43.15847" lon="-6.93698167">
        <ele>921.0</ele>
        <time>2022-06-19T08:56:15.103Z</time>
      </trkpt>
      <trkpt lat="43.15846167" lon="-6.937005">
        <ele>922.0</ele>
        <time>2022-06-19T08:56:16.078Z</time>
      </trkpt>
      <trkpt lat="43.15845333" lon="-6.93701667">
        <ele>922.0</ele>
        <time>2022-06-19T08:56:17.076Z</time>
      </trkpt>
      <trkpt lat="43.15845333" lon="-6.93701667">
        <ele>922.0</ele>
        <time>2022-06-19T08:56:18.099Z</time>
      </trkpt>
      <trkpt lat="43.15844333" lon="-6.93704167">
        <ele>922.0</ele>
        <time>2022-06-19T08:56:19.067Z</time>
      </trkpt>
      <trkpt lat="43.15843" lon="-6.93706333">
        <ele>922.0</ele>
        <time>2022-06-19T08:56:20.085Z</time>
      </trkpt>
      <trkpt lat="43.15843" lon="-6.93706333">
        <ele>922.0</ele>
        <time>2022-06-19T08:56:21.068Z</time>
      </trkpt>
      <trkpt lat="43.15840167" lon="-6.93711">
        <ele>923.0</ele>
        <time>2022-06-19T08:56:22.075Z</time>
      </trkpt>
      <trkpt lat="43.15839333" lon="-6.93712667">
        <ele>923.0</ele>
        <time>2022-06-19T08:56:23.100Z</time>
      </trkpt>
      <trkpt lat="43.15839333" lon="-6.93712667">
        <ele>923.0</ele>
        <time>2022-06-19T08:56:24.077Z</time>
      </trkpt>
      <trkpt lat="43.15837333" lon="-6.93716167">
        <ele>923.0</ele>
        <time>2022-06-19T08:56:25.089Z</time>
      </trkpt>
      <trkpt lat="43.15837333" lon="-6.93716167">
        <ele>923.0</ele>
        <time>2022-06-19T08:56:26.105Z</time>
      </trkpt>
      <trkpt lat="43.15837333" lon="-6.93716167">
        <ele>923.0</ele>
        <time>2022-06-19T08:56:27.219Z</time>
      </trkpt>
      <trkpt lat="43.158355" lon="-6.93718667">
        <ele>924.0</ele>
        <time>2022-06-19T08:56:28.071Z</time>
      </trkpt>
      <trkpt lat="43.15834167" lon="-6.93720667">
        <ele>924.0</ele>
        <time>2022-06-19T08:56:29.081Z</time>
      </trkpt>
      <trkpt lat="43.15834167" lon="-6.93720667">
        <ele>924.0</ele>
        <time>2022-06-19T08:56:30.071Z</time>
      </trkpt>
      <trkpt lat="43.15833167" lon="-6.93723333">
        <ele>925.0</ele>
        <time>2022-06-19T08:56:31.089Z</time>
      </trkpt>
      <trkpt lat="43.158325" lon="-6.93725">
        <ele>925.0</ele>
        <time>2022-06-19T08:56:32.082Z</time>
      </trkpt>
      <trkpt lat="43.158325" lon="-6.93725">
        <ele>925.0</ele>
        <time>2022-06-19T08:56:33.080Z</time>
      </trkpt>
      <trkpt lat="43.15831667" lon="-6.93728">
        <ele>925.0</ele>
        <time>2022-06-19T08:56:34.092Z</time>
      </trkpt>
      <trkpt lat="43.15831667" lon="-6.93728">
        <ele>925.0</ele>
        <time>2022-06-19T08:56:35.092Z</time>
      </trkpt>
      <trkpt lat="43.15830167" lon="-6.93730333">
        <ele>926.0</ele>
        <time>2022-06-19T08:56:36.099Z</time>
      </trkpt>
      <trkpt lat="43.15829333" lon="-6.93731667">
        <ele>926.0</ele>
        <time>2022-06-19T08:56:37.098Z</time>
      </trkpt>
      <trkpt lat="43.15829333" lon="-6.93731667">
        <ele>926.0</ele>
        <time>2022-06-19T08:56:38.104Z</time>
      </trkpt>
      <trkpt lat="43.158275" lon="-6.937345">
        <ele>926.0</ele>
        <time>2022-06-19T08:56:39.079Z</time>
      </trkpt>
      <trkpt lat="43.158275" lon="-6.937345">
        <ele>926.0</ele>
        <time>2022-06-19T08:56:40.074Z</time>
      </trkpt>
      <trkpt lat="43.15826167" lon="-6.93737333">
        <ele>927.0</ele>
        <time>2022-06-19T08:56:41.080Z</time>
      </trkpt>
      <trkpt lat="43.15826167" lon="-6.93737333">
        <ele>927.0</ele>
        <time>2022-06-19T08:56:42.100Z</time>
      </trkpt>
      <trkpt lat="43.15824833" lon="-6.937405">
        <ele>927.0</ele>
        <time>2022-06-19T08:56:43.074Z</time>
      </trkpt>
      <trkpt lat="43.15824333" lon="-6.93742167">
        <ele>927.0</ele>
        <time>2022-06-19T08:56:44.093Z</time>
      </trkpt>
      <trkpt lat="43.15824333" lon="-6.93742167">
        <ele>927.0</ele>
        <time>2022-06-19T08:56:45.072Z</time>
      </trkpt>
      <trkpt lat="43.15823333" lon="-6.93745">
        <ele>927.0</ele>
        <time>2022-06-19T08:56:46.085Z</time>
      </trkpt>
      <trkpt lat="43.15823333" lon="-6.93745">
        <ele>927.0</ele>
        <time>2022-06-19T08:56:47.089Z</time>
      </trkpt>
      <trkpt lat="43.15822" lon="-6.93747667">
        <ele>928.0</ele>
        <time>2022-06-19T08:56:48.119Z</time>
      </trkpt>
      <trkpt lat="43.158215" lon="-6.93749">
        <ele>928.0</ele>
        <time>2022-06-19T08:56:49.080Z</time>
      </trkpt>
      <trkpt lat="43.158215" lon="-6.93749">
        <ele>928.0</ele>
        <time>2022-06-19T08:56:50.068Z</time>
      </trkpt>
      <trkpt lat="43.15820167" lon="-6.93751833">
        <ele>928.0</ele>
        <time>2022-06-19T08:56:51.076Z</time>
      </trkpt>
      <trkpt lat="43.15820167" lon="-6.93751833">
        <ele>928.0</ele>
        <time>2022-06-19T08:56:52.080Z</time>
      </trkpt>
      <trkpt lat="43.15819167" lon="-6.937555">
        <ele>928.0</ele>
        <time>2022-06-19T08:56:53.095Z</time>
      </trkpt>
      <trkpt lat="43.15819333" lon="-6.93757167">
        <ele>928.0</ele>
        <time>2022-06-19T08:56:54.080Z</time>
      </trkpt>
      <trkpt lat="43.15819333" lon="-6.93757167">
        <ele>928.0</ele>
        <time>2022-06-19T08:56:55.083Z</time>
      </trkpt>
      <trkpt lat="43.158185" lon="-6.937595">
        <ele>929.0</ele>
        <time>2022-06-19T08:56:56.079Z</time>
      </trkpt>
      <trkpt lat="43.15818" lon="-6.9376">
        <ele>929.0</ele>
        <time>2022-06-19T08:56:57.102Z</time>
      </trkpt>
      <trkpt lat="43.15818" lon="-6.9376">
        <ele>929.0</ele>
        <time>2022-06-19T08:56:58.091Z</time>
      </trkpt>
      <trkpt lat="43.15816" lon="-6.937625">
        <ele>929.0</ele>
        <time>2022-06-19T08:56:59.102Z</time>
      </trkpt>
      <trkpt lat="43.15815" lon="-6.93764">
        <ele>930.0</ele>
        <time>2022-06-19T08:57:00.096Z</time>
      </trkpt>
      <trkpt lat="43.15813833" lon="-6.93765667">
        <ele>930.0</ele>
        <time>2022-06-19T08:57:01.079Z</time>
      </trkpt>
      <trkpt lat="43.15813833" lon="-6.93765667">
        <ele>930.0</ele>
        <time>2022-06-19T08:57:02.078Z</time>
      </trkpt>
      <trkpt lat="43.15811833" lon="-6.93769333">
        <ele>930.0</ele>
        <time>2022-06-19T08:57:03.093Z</time>
      </trkpt>
      <trkpt lat="43.15811833" lon="-6.93769333">
        <ele>930.0</ele>
        <time>2022-06-19T08:57:04.092Z</time>
      </trkpt>
      <trkpt lat="43.158095" lon="-6.93772667">
        <ele>930.0</ele>
        <time>2022-06-19T08:57:05.112Z</time>
      </trkpt>
      <trkpt lat="43.15808667" lon="-6.93774333">
        <ele>930.0</ele>
        <time>2022-06-19T08:57:06.074Z</time>
      </trkpt>
      <trkpt lat="43.15807667" lon="-6.93776">
        <ele>930.0</ele>
        <time>2022-06-19T08:57:07.076Z</time>
      </trkpt>
      <trkpt lat="43.15807667" lon="-6.93776">
        <ele>930.0</ele>
        <time>2022-06-19T08:57:08.102Z</time>
      </trkpt>
      <trkpt lat="43.15806167" lon="-6.93779667">
        <ele>930.0</ele>
        <time>2022-06-19T08:57:09.079Z</time>
      </trkpt>
      <trkpt lat="43.15806167" lon="-6.93779667">
        <ele>930.0</ele>
        <time>2022-06-19T08:57:10.068Z</time>
      </trkpt>
      <trkpt lat="43.15804667" lon="-6.93783333">
        <ele>930.0</ele>
        <time>2022-06-19T08:57:11.076Z</time>
      </trkpt>
      <trkpt lat="43.15804667" lon="-6.93783333">
        <ele>930.0</ele>
        <time>2022-06-19T08:57:12.093Z</time>
      </trkpt>
      <trkpt lat="43.15802833" lon="-6.93786833">
        <ele>930.0</ele>
        <time>2022-06-19T08:57:13.105Z</time>
      </trkpt>
      <trkpt lat="43.15802833" lon="-6.93786833">
        <ele>930.0</ele>
        <time>2022-06-19T08:57:14.089Z</time>
      </trkpt>
      <trkpt lat="43.15801167" lon="-6.9379">
        <ele>930.0</ele>
        <time>2022-06-19T08:57:15.100Z</time>
      </trkpt>
      <trkpt lat="43.15801167" lon="-6.9379">
        <ele>930.0</ele>
        <time>2022-06-19T08:57:16.101Z</time>
      </trkpt>
      <trkpt lat="43.157995" lon="-6.93793167">
        <ele>931.0</ele>
        <time>2022-06-19T08:57:17.071Z</time>
      </trkpt>
      <trkpt lat="43.15799" lon="-6.93795">
        <ele>931.0</ele>
        <time>2022-06-19T08:57:18.087Z</time>
      </trkpt>
      <trkpt lat="43.15799" lon="-6.93795">
        <ele>931.0</ele>
        <time>2022-06-19T08:57:19.091Z</time>
      </trkpt>
      <trkpt lat="43.15797833" lon="-6.93798833">
        <ele>931.0</ele>
        <time>2022-06-19T08:57:20.101Z</time>
      </trkpt>
      <trkpt lat="43.15797833" lon="-6.93798833">
        <ele>931.0</ele>
        <time>2022-06-19T08:57:21.091Z</time>
      </trkpt>
      <trkpt lat="43.15796" lon="-6.93802667">
        <ele>931.0</ele>
        <time>2022-06-19T08:57:22.098Z</time>
      </trkpt>
      <trkpt lat="43.15796" lon="-6.93802667">
        <ele>931.0</ele>
        <time>2022-06-19T08:57:23.094Z</time>
      </trkpt>
      <trkpt lat="43.15794167" lon="-6.93807">
        <ele>931.0</ele>
        <time>2022-06-19T08:57:24.101Z</time>
      </trkpt>
      <trkpt lat="43.15793167" lon="-6.93809167">
        <ele>931.0</ele>
        <time>2022-06-19T08:57:25.106Z</time>
      </trkpt>
      <trkpt lat="43.15793167" lon="-6.93809167">
        <ele>931.0</ele>
        <time>2022-06-19T08:57:26.079Z</time>
      </trkpt>
      <trkpt lat="43.15790833" lon="-6.938125">
        <ele>931.0</ele>
        <time>2022-06-19T08:57:27.091Z</time>
      </trkpt>
      <trkpt lat="43.15790833" lon="-6.938125">
        <ele>931.0</ele>
        <time>2022-06-19T08:57:28.091Z</time>
      </trkpt>
      <trkpt lat="43.15789333" lon="-6.93815833">
        <ele>931.0</ele>
        <time>2022-06-19T08:57:29.074Z</time>
      </trkpt>
      <trkpt lat="43.15789333" lon="-6.93815833">
        <ele>931.0</ele>
        <time>2022-06-19T08:57:30.070Z</time>
      </trkpt>
      <trkpt lat="43.15788167" lon="-6.93819">
        <ele>931.0</ele>
        <time>2022-06-19T08:57:31.078Z</time>
      </trkpt>
      <trkpt lat="43.15788167" lon="-6.93819">
        <ele>931.0</ele>
        <time>2022-06-19T08:57:32.104Z</time>
      </trkpt>
      <trkpt lat="43.15786833" lon="-6.938225">
        <ele>931.0</ele>
        <time>2022-06-19T08:57:33.075Z</time>
      </trkpt>
      <trkpt lat="43.15786833" lon="-6.938225">
        <ele>931.0</ele>
        <time>2022-06-19T08:57:34.073Z</time>
      </trkpt>
      <trkpt lat="43.15785667" lon="-6.938265">
        <ele>932.0</ele>
        <time>2022-06-19T08:57:35.099Z</time>
      </trkpt>
      <trkpt lat="43.15785667" lon="-6.938265">
        <ele>932.0</ele>
        <time>2022-06-19T08:57:36.090Z</time>
      </trkpt>
      <trkpt lat="43.15784333" lon="-6.9383">
        <ele>932.0</ele>
        <time>2022-06-19T08:57:37.097Z</time>
      </trkpt>
      <trkpt lat="43.15784333" lon="-6.9383">
        <ele>932.0</ele>
        <time>2022-06-19T08:57:38.104Z</time>
      </trkpt>
      <trkpt lat="43.15783333" lon="-6.93833667">
        <ele>932.0</ele>
        <time>2022-06-19T08:57:39.076Z</time>
      </trkpt>
      <trkpt lat="43.15783" lon="-6.93835667">
        <ele>933.0</ele>
        <time>2022-06-19T08:57:40.088Z</time>
      </trkpt>
      <trkpt lat="43.15783" lon="-6.93835667">
        <ele>933.0</ele>
        <time>2022-06-19T08:57:41.089Z</time>
      </trkpt>
      <trkpt lat="43.15781833" lon="-6.938395">
        <ele>933.0</ele>
        <time>2022-06-19T08:57:42.100Z</time>
      </trkpt>
      <trkpt lat="43.15781" lon="-6.93841667">
        <ele>934.0</ele>
        <time>2022-06-19T08:57:43.081Z</time>
      </trkpt>
      <trkpt lat="43.15781" lon="-6.93841667">
        <ele>934.0</ele>
        <time>2022-06-19T08:57:44.098Z</time>
      </trkpt>
      <trkpt lat="43.15779667" lon="-6.938455">
        <ele>934.0</ele>
        <time>2022-06-19T08:57:45.069Z</time>
      </trkpt>
      <trkpt lat="43.15779" lon="-6.938475">
        <ele>934.0</ele>
        <time>2022-06-19T08:57:46.091Z</time>
      </trkpt>
      <trkpt lat="43.15779" lon="-6.938475">
        <ele>934.0</ele>
        <time>2022-06-19T08:57:47.095Z</time>
      </trkpt>
      <trkpt lat="43.15777167" lon="-6.93851">
        <ele>935.0</ele>
        <time>2022-06-19T08:57:48.069Z</time>
      </trkpt>
      <trkpt lat="43.15776333" lon="-6.93852667">
        <ele>935.0</ele>
        <time>2022-06-19T08:57:49.097Z</time>
      </trkpt>
      <trkpt lat="43.15776333" lon="-6.93852667">
        <ele>935.0</ele>
        <time>2022-06-19T08:57:50.090Z</time>
      </trkpt>
      <trkpt lat="43.15775167" lon="-6.93855333">
        <ele>935.0</ele>
        <time>2022-06-19T08:57:51.101Z</time>
      </trkpt>
      <trkpt lat="43.15775167" lon="-6.93855333">
        <ele>935.0</ele>
        <time>2022-06-19T08:57:52.095Z</time>
      </trkpt>
      <trkpt lat="43.15773833" lon="-6.93858667">
        <ele>935.0</ele>
        <time>2022-06-19T08:57:53.105Z</time>
      </trkpt>
      <trkpt lat="43.15773833" lon="-6.93858667">
        <ele>935.0</ele>
        <time>2022-06-19T08:57:54.070Z</time>
      </trkpt>
      <trkpt lat="43.157725" lon="-6.93863333">
        <ele>935.0</ele>
        <time>2022-06-19T08:57:55.078Z</time>
      </trkpt>
      <trkpt lat="43.157725" lon="-6.93863333">
        <ele>935.0</ele>
        <time>2022-06-19T08:57:56.067Z</time>
      </trkpt>
      <trkpt lat="43.157705" lon="-6.93867333">
        <ele>936.0</ele>
        <time>2022-06-19T08:57:57.080Z</time>
      </trkpt>
      <trkpt lat="43.157705" lon="-6.93867333">
        <ele>936.0</ele>
        <time>2022-06-19T08:57:58.081Z</time>
      </trkpt>
      <trkpt lat="43.15768667" lon="-6.938715">
        <ele>936.0</ele>
        <time>2022-06-19T08:57:59.095Z</time>
      </trkpt>
      <trkpt lat="43.15767333" lon="-6.93874">
        <ele>936.0</ele>
        <time>2022-06-19T08:58:00.104Z</time>
      </trkpt>
      <trkpt lat="43.15767333" lon="-6.93874">
        <ele>936.0</ele>
        <time>2022-06-19T08:58:01.090Z</time>
      </trkpt>
      <trkpt lat="43.15764833" lon="-6.93877333">
        <ele>936.0</ele>
        <time>2022-06-19T08:58:02.100Z</time>
      </trkpt>
      <trkpt lat="43.15764833" lon="-6.93877333">
        <ele>936.0</ele>
        <time>2022-06-19T08:58:03.098Z</time>
      </trkpt>
      <trkpt lat="43.15762333" lon="-6.93880667">
        <ele>936.0</ele>
        <time>2022-06-19T08:58:04.067Z</time>
      </trkpt>
      <trkpt lat="43.15762333" lon="-6.93880667">
        <ele>936.0</ele>
        <time>2022-06-19T08:58:05.067Z</time>
      </trkpt>
      <trkpt lat="43.157595" lon="-6.93883667">
        <ele>937.0</ele>
        <time>2022-06-19T08:58:06.075Z</time>
      </trkpt>
      <trkpt lat="43.157595" lon="-6.93883667">
        <ele>937.0</ele>
        <time>2022-06-19T08:58:07.100Z</time>
      </trkpt>
      <trkpt lat="43.15758" lon="-6.93887333">
        <ele>937.0</ele>
        <time>2022-06-19T08:58:08.073Z</time>
      </trkpt>
      <trkpt lat="43.15758" lon="-6.93887333">
        <ele>937.0</ele>
        <time>2022-06-19T08:58:09.072Z</time>
      </trkpt>
      <trkpt lat="43.15756833" lon="-6.938905">
        <ele>937.0</ele>
        <time>2022-06-19T08:58:10.081Z</time>
      </trkpt>
      <trkpt lat="43.15756333" lon="-6.938915">
        <ele>937.0</ele>
        <time>2022-06-19T08:58:11.098Z</time>
      </trkpt>
      <trkpt lat="43.15756333" lon="-6.938915">
        <ele>937.0</ele>
        <time>2022-06-19T08:58:12.101Z</time>
      </trkpt>
      <trkpt lat="43.157545" lon="-6.93894667">
        <ele>938.0</ele>
        <time>2022-06-19T08:58:13.068Z</time>
      </trkpt>
      <trkpt lat="43.157545" lon="-6.93894667">
        <ele>938.0</ele>
        <time>2022-06-19T08:58:14.070Z</time>
      </trkpt>
      <trkpt lat="43.15752667" lon="-6.93897667">
        <ele>938.0</ele>
        <time>2022-06-19T08:58:15.079Z</time>
      </trkpt>
      <trkpt lat="43.15752667" lon="-6.93897667">
        <ele>938.0</ele>
        <time>2022-06-19T08:58:16.069Z</time>
      </trkpt>
      <trkpt lat="43.15750333" lon="-6.93901333">
        <ele>938.0</ele>
        <time>2022-06-19T08:58:17.075Z</time>
      </trkpt>
      <trkpt lat="43.15749" lon="-6.93903333">
        <ele>938.0</ele>
        <time>2022-06-19T08:58:18.069Z</time>
      </trkpt>
      <trkpt lat="43.157475" lon="-6.93905333">
        <ele>939.0</ele>
        <time>2022-06-19T08:58:19.100Z</time>
      </trkpt>
      <trkpt lat="43.157475" lon="-6.93905333">
        <ele>939.0</ele>
        <time>2022-06-19T08:58:20.078Z</time>
      </trkpt>
      <trkpt lat="43.15744833" lon="-6.93908833">
        <ele>939.0</ele>
        <time>2022-06-19T08:58:21.087Z</time>
      </trkpt>
      <trkpt lat="43.15744833" lon="-6.93908833">
        <ele>939.0</ele>
        <time>2022-06-19T08:58:22.096Z</time>
      </trkpt>
      <trkpt lat="43.15742" lon="-6.939135">
        <ele>939.0</ele>
        <time>2022-06-19T08:58:23.066Z</time>
      </trkpt>
      <trkpt lat="43.15742" lon="-6.939135">
        <ele>939.0</ele>
        <time>2022-06-19T08:58:24.095Z</time>
      </trkpt>
      <trkpt lat="43.15739167" lon="-6.939175">
        <ele>939.0</ele>
        <time>2022-06-19T08:58:25.068Z</time>
      </trkpt>
      <trkpt lat="43.15739167" lon="-6.939175">
        <ele>939.0</ele>
        <time>2022-06-19T08:58:26.076Z</time>
      </trkpt>
      <trkpt lat="43.157365" lon="-6.93921">
        <ele>940.0</ele>
        <time>2022-06-19T08:58:27.085Z</time>
      </trkpt>
      <trkpt lat="43.15735167" lon="-6.93922167">
        <ele>940.0</ele>
        <time>2022-06-19T08:58:28.068Z</time>
      </trkpt>
      <trkpt lat="43.15735167" lon="-6.93922167">
        <ele>940.0</ele>
        <time>2022-06-19T08:58:29.072Z</time>
      </trkpt>
      <trkpt lat="43.157335" lon="-6.93924833">
        <ele>941.0</ele>
        <time>2022-06-19T08:58:30.080Z</time>
      </trkpt>
      <trkpt lat="43.157335" lon="-6.93924833">
        <ele>941.0</ele>
        <time>2022-06-19T08:58:31.079Z</time>
      </trkpt>
      <trkpt lat="43.15731667" lon="-6.93927167">
        <ele>941.0</ele>
        <time>2022-06-19T08:58:32.087Z</time>
      </trkpt>
      <trkpt lat="43.15731667" lon="-6.93927167">
        <ele>941.0</ele>
        <time>2022-06-19T08:58:33.073Z</time>
      </trkpt>
      <trkpt lat="43.15729667" lon="-6.93930333">
        <ele>942.0</ele>
        <time>2022-06-19T08:58:34.095Z</time>
      </trkpt>
      <trkpt lat="43.15729667" lon="-6.93930333">
        <ele>942.0</ele>
        <time>2022-06-19T08:58:35.099Z</time>
      </trkpt>
      <trkpt lat="43.15727" lon="-6.93932">
        <ele>942.0</ele>
        <time>2022-06-19T08:58:36.085Z</time>
      </trkpt>
      <trkpt lat="43.15725833" lon="-6.93933333">
        <ele>942.0</ele>
        <time>2022-06-19T08:58:37.078Z</time>
      </trkpt>
      <trkpt lat="43.15725833" lon="-6.93933333">
        <ele>942.0</ele>
        <time>2022-06-19T08:58:38.098Z</time>
      </trkpt>
      <trkpt lat="43.15723333" lon="-6.93936333">
        <ele>943.0</ele>
        <time>2022-06-19T08:58:39.105Z</time>
      </trkpt>
      <trkpt lat="43.15722167" lon="-6.93937333">
        <ele>943.0</ele>
        <time>2022-06-19T08:58:40.084Z</time>
      </trkpt>
      <trkpt lat="43.15722167" lon="-6.93937333">
        <ele>943.0</ele>
        <time>2022-06-19T08:58:41.075Z</time>
      </trkpt>
      <trkpt lat="43.15719" lon="-6.93939833">
        <ele>944.0</ele>
        <time>2022-06-19T08:58:42.084Z</time>
      </trkpt>
      <trkpt lat="43.157175" lon="-6.93941">
        <ele>944.0</ele>
        <time>2022-06-19T08:58:43.075Z</time>
      </trkpt>
      <trkpt lat="43.157175" lon="-6.93941">
        <ele>944.0</ele>
        <time>2022-06-19T08:58:44.070Z</time>
      </trkpt>
      <trkpt lat="43.15714667" lon="-6.93943333">
        <ele>944.0</ele>
        <time>2022-06-19T08:58:45.078Z</time>
      </trkpt>
      <trkpt lat="43.15714667" lon="-6.93943333">
        <ele>944.0</ele>
        <time>2022-06-19T08:58:46.070Z</time>
      </trkpt>
      <trkpt lat="43.15711833" lon="-6.93944833">
        <ele>945.0</ele>
        <time>2022-06-19T08:58:47.078Z</time>
      </trkpt>
      <trkpt lat="43.15711833" lon="-6.93944833">
        <ele>945.0</ele>
        <time>2022-06-19T08:58:48.103Z</time>
      </trkpt>
      <trkpt lat="43.15709333" lon="-6.93946667">
        <ele>945.0</ele>
        <time>2022-06-19T08:58:49.078Z</time>
      </trkpt>
      <trkpt lat="43.15709333" lon="-6.93946667">
        <ele>945.0</ele>
        <time>2022-06-19T08:58:50.099Z</time>
      </trkpt>
      <trkpt lat="43.15706667" lon="-6.93949333">
        <ele>945.0</ele>
        <time>2022-06-19T08:58:51.071Z</time>
      </trkpt>
      <trkpt lat="43.15706667" lon="-6.93949333">
        <ele>945.0</ele>
        <time>2022-06-19T08:58:52.092Z</time>
      </trkpt>
      <trkpt lat="43.15704" lon="-6.93951333">
        <ele>946.0</ele>
        <time>2022-06-19T08:58:53.103Z</time>
      </trkpt>
      <trkpt lat="43.15704" lon="-6.93951333">
        <ele>946.0</ele>
        <time>2022-06-19T08:58:54.105Z</time>
      </trkpt>
      <trkpt lat="43.15701" lon="-6.93952667">
        <ele>946.0</ele>
        <time>2022-06-19T08:58:55.086Z</time>
      </trkpt>
      <trkpt lat="43.15701" lon="-6.93952667">
        <ele>946.0</ele>
        <time>2022-06-19T08:58:56.097Z</time>
      </trkpt>
      <trkpt lat="43.15696667" lon="-6.93954667">
        <ele>947.0</ele>
        <time>2022-06-19T08:58:57.104Z</time>
      </trkpt>
      <trkpt lat="43.15696667" lon="-6.93954667">
        <ele>947.0</ele>
        <time>2022-06-19T08:58:58.091Z</time>
      </trkpt>
      <trkpt lat="43.15693" lon="-6.93957">
        <ele>947.0</ele>
        <time>2022-06-19T08:58:59.106Z</time>
      </trkpt>
      <trkpt lat="43.156915" lon="-6.93957667">
        <ele>947.0</ele>
        <time>2022-06-19T08:59:00.098Z</time>
      </trkpt>
      <trkpt lat="43.156915" lon="-6.93957667">
        <ele>947.0</ele>
        <time>2022-06-19T08:59:01.087Z</time>
      </trkpt>
      <trkpt lat="43.15688833" lon="-6.93958333">
        <ele>947.0</ele>
        <time>2022-06-19T08:59:02.100Z</time>
      </trkpt>
      <trkpt lat="43.15688833" lon="-6.93958333">
        <ele>947.0</ele>
        <time>2022-06-19T08:59:03.077Z</time>
      </trkpt>
      <trkpt lat="43.15686333" lon="-6.93959333">
        <ele>947.0</ele>
        <time>2022-06-19T08:59:04.085Z</time>
      </trkpt>
      <trkpt lat="43.15686333" lon="-6.93959333">
        <ele>947.0</ele>
        <time>2022-06-19T08:59:05.078Z</time>
      </trkpt>
      <trkpt lat="43.15683833" lon="-6.93960833">
        <ele>948.0</ele>
        <time>2022-06-19T08:59:06.092Z</time>
      </trkpt>
      <trkpt lat="43.15682667" lon="-6.93961333">
        <ele>948.0</ele>
        <time>2022-06-19T08:59:07.074Z</time>
      </trkpt>
      <trkpt lat="43.15682667" lon="-6.93961333">
        <ele>948.0</ele>
        <time>2022-06-19T08:59:08.078Z</time>
      </trkpt>
      <trkpt lat="43.15681" lon="-6.939625">
        <ele>948.0</ele>
        <time>2022-06-19T08:59:09.088Z</time>
      </trkpt>
      <trkpt lat="43.15681" lon="-6.939625">
        <ele>948.0</ele>
        <time>2022-06-19T08:59:10.099Z</time>
      </trkpt>
      <trkpt lat="43.15678667" lon="-6.93964333">
        <ele>949.0</ele>
        <time>2022-06-19T08:59:11.067Z</time>
      </trkpt>
      <trkpt lat="43.15677833" lon="-6.93965167">
        <ele>949.0</ele>
        <time>2022-06-19T08:59:12.095Z</time>
      </trkpt>
      <trkpt lat="43.15676833" lon="-6.939665">
        <ele>949.0</ele>
        <time>2022-06-19T08:59:13.085Z</time>
      </trkpt>
      <trkpt lat="43.15676833" lon="-6.939665">
        <ele>949.0</ele>
        <time>2022-06-19T08:59:14.072Z</time>
      </trkpt>
      <trkpt lat="43.15674667" lon="-6.93969">
        <ele>949.0</ele>
        <time>2022-06-19T08:59:15.080Z</time>
      </trkpt>
      <trkpt lat="43.15672833" lon="-6.93970167">
        <ele>949.0</ele>
        <time>2022-06-19T08:59:16.073Z</time>
      </trkpt>
      <trkpt lat="43.15671333" lon="-6.939715">
        <ele>949.0</ele>
        <time>2022-06-19T08:59:17.106Z</time>
      </trkpt>
      <trkpt lat="43.15671333" lon="-6.939715">
        <ele>949.0</ele>
        <time>2022-06-19T08:59:18.090Z</time>
      </trkpt>
      <trkpt lat="43.156675" lon="-6.93972">
        <ele>949.0</ele>
        <time>2022-06-19T08:59:19.098Z</time>
      </trkpt>
      <trkpt lat="43.156675" lon="-6.93972">
        <ele>949.0</ele>
        <time>2022-06-19T08:59:20.083Z</time>
      </trkpt>
      <trkpt lat="43.15664667" lon="-6.93974167">
        <ele>949.0</ele>
        <time>2022-06-19T08:59:21.098Z</time>
      </trkpt>
      <trkpt lat="43.15664667" lon="-6.93974167">
        <ele>949.0</ele>
        <time>2022-06-19T08:59:22.084Z</time>
      </trkpt>
      <trkpt lat="43.156615" lon="-6.93974333">
        <ele>949.0</ele>
        <time>2022-06-19T08:59:23.093Z</time>
      </trkpt>
      <trkpt lat="43.156615" lon="-6.93974333">
        <ele>949.0</ele>
        <time>2022-06-19T08:59:24.095Z</time>
      </trkpt>
      <trkpt lat="43.15658667" lon="-6.93976333">
        <ele>950.0</ele>
        <time>2022-06-19T08:59:25.066Z</time>
      </trkpt>
      <trkpt lat="43.15658667" lon="-6.93976333">
        <ele>950.0</ele>
        <time>2022-06-19T08:59:26.073Z</time>
      </trkpt>
      <trkpt lat="43.15656" lon="-6.93978167">
        <ele>950.0</ele>
        <time>2022-06-19T08:59:27.085Z</time>
      </trkpt>
      <trkpt lat="43.15653667" lon="-6.93979333">
        <ele>950.0</ele>
        <time>2022-06-19T08:59:28.086Z</time>
      </trkpt>
      <trkpt lat="43.15653667" lon="-6.93979333">
        <ele>950.0</ele>
        <time>2022-06-19T08:59:29.066Z</time>
      </trkpt>
      <trkpt lat="43.15650333" lon="-6.9398">
        <ele>950.0</ele>
        <time>2022-06-19T08:59:30.074Z</time>
      </trkpt>
      <trkpt lat="43.15650333" lon="-6.9398">
        <ele>950.0</ele>
        <time>2022-06-19T08:59:31.091Z</time>
      </trkpt>
      <trkpt lat="43.15647667" lon="-6.93980667">
        <ele>951.0</ele>
        <time>2022-06-19T08:59:32.070Z</time>
      </trkpt>
      <trkpt lat="43.15647667" lon="-6.93980667">
        <ele>951.0</ele>
        <time>2022-06-19T08:59:33.075Z</time>
      </trkpt>
      <trkpt lat="43.15646667" lon="-6.93983667">
        <ele>951.0</ele>
        <time>2022-06-19T08:59:34.086Z</time>
      </trkpt>
      <trkpt lat="43.15646667" lon="-6.93983667">
        <ele>951.0</ele>
        <time>2022-06-19T08:59:35.068Z</time>
      </trkpt>
      <trkpt lat="43.15644333" lon="-6.93985833">
        <ele>951.0</ele>
        <time>2022-06-19T08:59:36.076Z</time>
      </trkpt>
      <trkpt lat="43.156435" lon="-6.93987333">
        <ele>951.0</ele>
        <time>2022-06-19T08:59:37.074Z</time>
      </trkpt>
      <trkpt lat="43.156435" lon="-6.93987333">
        <ele>951.0</ele>
        <time>2022-06-19T08:59:38.089Z</time>
      </trkpt>
      <trkpt lat="43.156415" lon="-6.9399">
        <ele>951.0</ele>
        <time>2022-06-19T08:59:39.101Z</time>
      </trkpt>
      <trkpt lat="43.156415" lon="-6.9399">
        <ele>951.0</ele>
        <time>2022-06-19T08:59:40.088Z</time>
      </trkpt>
      <trkpt lat="43.15639" lon="-6.93992333">
        <ele>952.0</ele>
        <time>2022-06-19T08:59:41.101Z</time>
      </trkpt>
      <trkpt lat="43.15639" lon="-6.93992333">
        <ele>952.0</ele>
        <time>2022-06-19T08:59:42.067Z</time>
      </trkpt>
      <trkpt lat="43.15636667" lon="-6.93994">
        <ele>952.0</ele>
        <time>2022-06-19T08:59:43.076Z</time>
      </trkpt>
      <trkpt lat="43.15636667" lon="-6.93994">
        <ele>952.0</ele>
        <time>2022-06-19T08:59:44.072Z</time>
      </trkpt>
      <trkpt lat="43.15633833" lon="-6.93995333">
        <ele>952.0</ele>
        <time>2022-06-19T08:59:45.087Z</time>
      </trkpt>
      <trkpt lat="43.15633833" lon="-6.93995333">
        <ele>952.0</ele>
        <time>2022-06-19T08:59:46.074Z</time>
      </trkpt>
      <trkpt lat="43.15632" lon="-6.93997167">
        <ele>952.0</ele>
        <time>2022-06-19T08:59:47.071Z</time>
      </trkpt>
      <trkpt lat="43.15631167" lon="-6.93998">
        <ele>952.0</ele>
        <time>2022-06-19T08:59:48.078Z</time>
      </trkpt>
      <trkpt lat="43.15631167" lon="-6.93998">
        <ele>952.0</ele>
        <time>2022-06-19T08:59:49.100Z</time>
      </trkpt>
      <trkpt lat="43.15629167" lon="-6.94">
        <ele>953.0</ele>
        <time>2022-06-19T08:59:50.070Z</time>
      </trkpt>
      <trkpt lat="43.15629167" lon="-6.94">
        <ele>953.0</ele>
        <time>2022-06-19T08:59:51.096Z</time>
      </trkpt>
      <trkpt lat="43.15627167" lon="-6.94001667">
        <ele>953.0</ele>
        <time>2022-06-19T08:59:52.072Z</time>
      </trkpt>
      <trkpt lat="43.15627167" lon="-6.94001667">
        <ele>953.0</ele>
        <time>2022-06-19T08:59:53.098Z</time>
      </trkpt>
      <trkpt lat="43.156245" lon="-6.94003333">
        <ele>953.0</ele>
        <time>2022-06-19T08:59:54.067Z</time>
      </trkpt>
      <trkpt lat="43.156235" lon="-6.94004333">
        <ele>953.0</ele>
        <time>2022-06-19T08:59:55.093Z</time>
      </trkpt>
      <trkpt lat="43.156235" lon="-6.94004333">
        <ele>953.0</ele>
        <time>2022-06-19T08:59:56.085Z</time>
      </trkpt>
      <trkpt lat="43.15621333" lon="-6.94006167">
        <ele>954.0</ele>
        <time>2022-06-19T08:59:57.098Z</time>
      </trkpt>
      <trkpt lat="43.15621333" lon="-6.94006167">
        <ele>954.0</ele>
        <time>2022-06-19T08:59:58.097Z</time>
      </trkpt>
      <trkpt lat="43.15618833" lon="-6.94008333">
        <ele>955.0</ele>
        <time>2022-06-19T08:59:59.107Z</time>
      </trkpt>
      <trkpt lat="43.15618833" lon="-6.94008333">
        <ele>955.0</ele>
        <time>2022-06-19T09:00:00.075Z</time>
      </trkpt>
      <trkpt lat="43.15616667" lon="-6.94010833">
        <ele>955.0</ele>
        <time>2022-06-19T09:00:01.089Z</time>
      </trkpt>
      <trkpt lat="43.15615167" lon="-6.94011667">
        <ele>955.0</ele>
        <time>2022-06-19T09:00:02.105Z</time>
      </trkpt>
      <trkpt lat="43.15615167" lon="-6.94011667">
        <ele>955.0</ele>
        <time>2022-06-19T09:00:03.088Z</time>
      </trkpt>
      <trkpt lat="43.156135" lon="-6.94014">
        <ele>956.0</ele>
        <time>2022-06-19T09:00:04.118Z</time>
      </trkpt>
      <trkpt lat="43.156135" lon="-6.94014">
        <ele>956.0</ele>
        <time>2022-06-19T09:00:05.091Z</time>
      </trkpt>
      <trkpt lat="43.15610667" lon="-6.94016167">
        <ele>956.0</ele>
        <time>2022-06-19T09:00:06.100Z</time>
      </trkpt>
      <trkpt lat="43.15609167" lon="-6.94016833">
        <ele>956.0</ele>
        <time>2022-06-19T09:00:07.083Z</time>
      </trkpt>
      <trkpt lat="43.15609167" lon="-6.94016833">
        <ele>956.0</ele>
        <time>2022-06-19T09:00:08.074Z</time>
      </trkpt>
      <trkpt lat="43.15606333" lon="-6.94018333">
        <ele>957.0</ele>
        <time>2022-06-19T09:00:09.109Z</time>
      </trkpt>
      <trkpt lat="43.15605" lon="-6.94019333">
        <ele>957.0</ele>
        <time>2022-06-19T09:00:10.099Z</time>
      </trkpt>
      <trkpt lat="43.15605" lon="-6.94019333">
        <ele>957.0</ele>
        <time>2022-06-19T09:00:11.099Z</time>
      </trkpt>
      <trkpt lat="43.15602667" lon="-6.940215">
        <ele>958.0</ele>
        <time>2022-06-19T09:00:12.073Z</time>
      </trkpt>
      <trkpt lat="43.156015" lon="-6.94023">
        <ele>958.0</ele>
        <time>2022-06-19T09:00:13.071Z</time>
      </trkpt>
      <trkpt lat="43.156015" lon="-6.94023">
        <ele>958.0</ele>
        <time>2022-06-19T09:00:14.102Z</time>
      </trkpt>
      <trkpt lat="43.15599167" lon="-6.940255">
        <ele>958.0</ele>
        <time>2022-06-19T09:00:15.071Z</time>
      </trkpt>
      <trkpt lat="43.15598167" lon="-6.94027">
        <ele>958.0</ele>
        <time>2022-06-19T09:00:16.081Z</time>
      </trkpt>
      <trkpt lat="43.15598167" lon="-6.94027">
        <ele>958.0</ele>
        <time>2022-06-19T09:00:17.094Z</time>
      </trkpt>
      <trkpt lat="43.15596333" lon="-6.94029667">
        <ele>958.0</ele>
        <time>2022-06-19T09:00:18.101Z</time>
      </trkpt>
      <trkpt lat="43.15596333" lon="-6.94029667">
        <ele>958.0</ele>
        <time>2022-06-19T09:00:19.102Z</time>
      </trkpt>
      <trkpt lat="43.15594333" lon="-6.94032167">
        <ele>959.0</ele>
        <time>2022-06-19T09:00:20.068Z</time>
      </trkpt>
      <trkpt lat="43.15593167" lon="-6.94033">
        <ele>959.0</ele>
        <time>2022-06-19T09:00:21.066Z</time>
      </trkpt>
      <trkpt lat="43.15593167" lon="-6.94033">
        <ele>959.0</ele>
        <time>2022-06-19T09:00:22.091Z</time>
      </trkpt>
      <trkpt lat="43.15590667" lon="-6.94035">
        <ele>959.0</ele>
        <time>2022-06-19T09:00:23.098Z</time>
      </trkpt>
      <trkpt lat="43.15590667" lon="-6.94035">
        <ele>959.0</ele>
        <time>2022-06-19T09:00:24.092Z</time>
      </trkpt>
      <trkpt lat="43.15588167" lon="-6.940375">
        <ele>959.0</ele>
        <time>2022-06-19T09:00:25.107Z</time>
      </trkpt>
      <trkpt lat="43.15587167" lon="-6.94038833">
        <ele>959.0</ele>
        <time>2022-06-19T09:00:26.102Z</time>
      </trkpt>
      <trkpt lat="43.15587167" lon="-6.94038833">
        <ele>959.0</ele>
        <time>2022-06-19T09:00:27.096Z</time>
      </trkpt>
      <trkpt lat="43.15585167" lon="-6.94041333">
        <ele>960.0</ele>
        <time>2022-06-19T09:00:28.227Z</time>
      </trkpt>
      <trkpt lat="43.15585167" lon="-6.94041333">
        <ele>960.0</ele>
        <time>2022-06-19T09:00:29.105Z</time>
      </trkpt>
      <trkpt lat="43.15582333" lon="-6.94044167">
        <ele>960.0</ele>
        <time>2022-06-19T09:00:30.077Z</time>
      </trkpt>
      <trkpt lat="43.15581167" lon="-6.94045833">
        <ele>960.0</ele>
        <time>2022-06-19T09:00:31.066Z</time>
      </trkpt>
      <trkpt lat="43.15581167" lon="-6.94045833">
        <ele>960.0</ele>
        <time>2022-06-19T09:00:32.090Z</time>
      </trkpt>
      <trkpt lat="43.15579833" lon="-6.94048667">
        <ele>960.0</ele>
        <time>2022-06-19T09:00:33.068Z</time>
      </trkpt>
      <trkpt lat="43.15578333" lon="-6.94050167">
        <ele>960.0</ele>
        <time>2022-06-19T09:00:34.106Z</time>
      </trkpt>
      <trkpt lat="43.15578333" lon="-6.94050167">
        <ele>960.0</ele>
        <time>2022-06-19T09:00:35.073Z</time>
      </trkpt>
      <trkpt lat="43.155755" lon="-6.94052167">
        <ele>961.0</ele>
        <time>2022-06-19T09:00:36.080Z</time>
      </trkpt>
      <trkpt lat="43.15574167" lon="-6.94053">
        <ele>961.0</ele>
        <time>2022-06-19T09:00:37.104Z</time>
      </trkpt>
      <trkpt lat="43.15574167" lon="-6.94053">
        <ele>961.0</ele>
        <time>2022-06-19T09:00:38.094Z</time>
      </trkpt>
      <trkpt lat="43.15571833" lon="-6.94054833">
        <ele>961.0</ele>
        <time>2022-06-19T09:00:39.102Z</time>
      </trkpt>
      <trkpt lat="43.15571833" lon="-6.94054833">
        <ele>961.0</ele>
        <time>2022-06-19T09:00:40.090Z</time>
      </trkpt>
      <trkpt lat="43.155695" lon="-6.94057167">
        <ele>961.0</ele>
        <time>2022-06-19T09:00:41.102Z</time>
      </trkpt>
      <trkpt lat="43.155695" lon="-6.94057167">
        <ele>961.0</ele>
        <time>2022-06-19T09:00:42.094Z</time>
      </trkpt>
      <trkpt lat="43.15566833" lon="-6.94059167">
        <ele>962.0</ele>
        <time>2022-06-19T09:00:43.066Z</time>
      </trkpt>
      <trkpt lat="43.15566833" lon="-6.94059167">
        <ele>962.0</ele>
        <time>2022-06-19T09:00:44.089Z</time>
      </trkpt>
      <trkpt lat="43.15564833" lon="-6.94061667">
        <ele>962.0</ele>
        <time>2022-06-19T09:00:45.108Z</time>
      </trkpt>
      <trkpt lat="43.15564833" lon="-6.94061667">
        <ele>962.0</ele>
        <time>2022-06-19T09:00:46.105Z</time>
      </trkpt>
      <trkpt lat="43.15562167" lon="-6.94064833">
        <ele>962.0</ele>
        <time>2022-06-19T09:00:47.079Z</time>
      </trkpt>
      <trkpt lat="43.15561" lon="-6.94067167">
        <ele>962.0</ele>
        <time>2022-06-19T09:00:48.175Z</time>
      </trkpt>
      <trkpt lat="43.15561" lon="-6.94067167">
        <ele>962.0</ele>
        <time>2022-06-19T09:00:49.079Z</time>
      </trkpt>
      <trkpt lat="43.15559167" lon="-6.94071667">
        <ele>962.0</ele>
        <time>2022-06-19T09:00:50.068Z</time>
      </trkpt>
      <trkpt lat="43.15558333" lon="-6.94073833">
        <ele>962.0</ele>
        <time>2022-06-19T09:00:51.076Z</time>
      </trkpt>
      <trkpt lat="43.15558333" lon="-6.94073833">
        <ele>962.0</ele>
        <time>2022-06-19T09:00:52.094Z</time>
      </trkpt>
      <trkpt lat="43.155565" lon="-6.94077667">
        <ele>962.0</ele>
        <time>2022-06-19T09:00:53.101Z</time>
      </trkpt>
      <trkpt lat="43.155565" lon="-6.94077667">
        <ele>962.0</ele>
        <time>2022-06-19T09:00:54.099Z</time>
      </trkpt>
      <trkpt lat="43.15555333" lon="-6.940815">
        <ele>962.0</ele>
        <time>2022-06-19T09:00:55.068Z</time>
      </trkpt>
      <trkpt lat="43.15555333" lon="-6.940815">
        <ele>962.0</ele>
        <time>2022-06-19T09:00:56.105Z</time>
      </trkpt>
      <trkpt lat="43.15553667" lon="-6.940865">
        <ele>962.0</ele>
        <time>2022-06-19T09:00:57.074Z</time>
      </trkpt>
      <trkpt lat="43.15553" lon="-6.94088667">
        <ele>963.0</ele>
        <time>2022-06-19T09:00:58.074Z</time>
      </trkpt>
      <trkpt lat="43.15552167" lon="-6.94091">
        <ele>963.0</ele>
        <time>2022-06-19T09:00:59.101Z</time>
      </trkpt>
      <trkpt lat="43.15552167" lon="-6.94091">
        <ele>963.0</ele>
        <time>2022-06-19T09:01:00.088Z</time>
      </trkpt>
      <trkpt lat="43.15551" lon="-6.94097">
        <ele>963.0</ele>
        <time>2022-06-19T09:01:01.070Z</time>
      </trkpt>
      <trkpt lat="43.15551" lon="-6.94097">
        <ele>963.0</ele>
        <time>2022-06-19T09:01:02.070Z</time>
      </trkpt>
      <trkpt lat="43.155495" lon="-6.94102167">
        <ele>964.0</ele>
        <time>2022-06-19T09:01:03.080Z</time>
      </trkpt>
      <trkpt lat="43.15548167" lon="-6.94104667">
        <ele>964.0</ele>
        <time>2022-06-19T09:01:04.072Z</time>
      </trkpt>
      <trkpt lat="43.15548167" lon="-6.94104667">
        <ele>964.0</ele>
        <time>2022-06-19T09:01:05.067Z</time>
      </trkpt>
      <trkpt lat="43.15545667" lon="-6.9411">
        <ele>964.0</ele>
        <time>2022-06-19T09:01:06.073Z</time>
      </trkpt>
      <trkpt lat="43.15544667" lon="-6.94112833">
        <ele>964.0</ele>
        <time>2022-06-19T09:01:07.075Z</time>
      </trkpt>
      <trkpt lat="43.15544667" lon="-6.94112833">
        <ele>964.0</ele>
        <time>2022-06-19T09:01:08.104Z</time>
      </trkpt>
      <trkpt lat="43.155425" lon="-6.941185">
        <ele>965.0</ele>
        <time>2022-06-19T09:01:09.080Z</time>
      </trkpt>
      <trkpt lat="43.155425" lon="-6.941185">
        <ele>965.0</ele>
        <time>2022-06-19T09:01:10.066Z</time>
      </trkpt>
      <trkpt lat="43.15540167" lon="-6.94124167">
        <ele>965.0</ele>
        <time>2022-06-19T09:01:11.080Z</time>
      </trkpt>
      <trkpt lat="43.15540167" lon="-6.94124167">
        <ele>965.0</ele>
        <time>2022-06-19T09:01:12.068Z</time>
      </trkpt>
      <trkpt lat="43.15538333" lon="-6.94129833">
        <ele>966.0</ele>
        <time>2022-06-19T09:01:13.087Z</time>
      </trkpt>
      <trkpt lat="43.15538333" lon="-6.94129833">
        <ele>966.0</ele>
        <time>2022-06-19T09:01:14.105Z</time>
      </trkpt>
      <trkpt lat="43.15537167" lon="-6.94135667">
        <ele>966.0</ele>
        <time>2022-06-19T09:01:15.071Z</time>
      </trkpt>
      <trkpt lat="43.15537167" lon="-6.94135667">
        <ele>966.0</ele>
        <time>2022-06-19T09:01:16.100Z</time>
      </trkpt>
      <trkpt lat="43.15537167" lon="-6.94135667">
        <ele>966.0</ele>
        <time>2022-06-19T09:01:17.222Z</time>
      </trkpt>
      <trkpt lat="43.15535333" lon="-6.94140833">
        <ele>966.0</ele>
        <time>2022-06-19T09:01:18.094Z</time>
      </trkpt>
      <trkpt lat="43.155335" lon="-6.94145833">
        <ele>966.0</ele>
        <time>2022-06-19T09:01:19.106Z</time>
      </trkpt>
      <trkpt lat="43.155335" lon="-6.94145833">
        <ele>966.0</ele>
        <time>2022-06-19T09:01:20.094Z</time>
      </trkpt>
      <trkpt lat="43.15532167" lon="-6.94150667">
        <ele>967.0</ele>
        <time>2022-06-19T09:01:21.103Z</time>
      </trkpt>
      <trkpt lat="43.15532167" lon="-6.94150667">
        <ele>967.0</ele>
        <time>2022-06-19T09:01:22.100Z</time>
      </trkpt>
      <trkpt lat="43.15530167" lon="-6.94154833">
        <ele>967.0</ele>
        <time>2022-06-19T09:01:23.066Z</time>
      </trkpt>
      <trkpt lat="43.15530167" lon="-6.94154833">
        <ele>967.0</ele>
        <time>2022-06-19T09:01:24.078Z</time>
      </trkpt>
      <trkpt lat="43.15528167" lon="-6.94159333">
        <ele>968.0</ele>
        <time>2022-06-19T09:01:25.089Z</time>
      </trkpt>
      <trkpt lat="43.15528167" lon="-6.94159333">
        <ele>968.0</ele>
        <time>2022-06-19T09:01:26.073Z</time>
      </trkpt>
      <trkpt lat="43.15526667" lon="-6.941645">
        <ele>968.0</ele>
        <time>2022-06-19T09:01:27.084Z</time>
      </trkpt>
      <trkpt lat="43.15526667" lon="-6.941645">
        <ele>968.0</ele>
        <time>2022-06-19T09:01:28.083Z</time>
      </trkpt>
      <trkpt lat="43.15524833" lon="-6.941695">
        <ele>968.0</ele>
        <time>2022-06-19T09:01:29.099Z</time>
      </trkpt>
      <trkpt lat="43.15524833" lon="-6.941695">
        <ele>968.0</ele>
        <time>2022-06-19T09:01:30.094Z</time>
      </trkpt>
      <trkpt lat="43.15523333" lon="-6.94174833">
        <ele>968.0</ele>
        <time>2022-06-19T09:01:31.067Z</time>
      </trkpt>
      <trkpt lat="43.15523333" lon="-6.94174833">
        <ele>968.0</ele>
        <time>2022-06-19T09:01:32.104Z</time>
      </trkpt>
      <trkpt lat="43.15521667" lon="-6.94181">
        <ele>969.0</ele>
        <time>2022-06-19T09:01:33.073Z</time>
      </trkpt>
      <trkpt lat="43.15521667" lon="-6.94181">
        <ele>969.0</ele>
        <time>2022-06-19T09:01:34.068Z</time>
      </trkpt>
      <trkpt lat="43.15520167" lon="-6.94186833">
        <ele>969.0</ele>
        <time>2022-06-19T09:01:35.076Z</time>
      </trkpt>
      <trkpt lat="43.15520167" lon="-6.94186833">
        <ele>969.0</ele>
        <time>2022-06-19T09:01:36.103Z</time>
      </trkpt>
      <trkpt lat="43.15519333" lon="-6.94191667">
        <ele>969.0</ele>
        <time>2022-06-19T09:01:37.089Z</time>
      </trkpt>
      <trkpt lat="43.15519167" lon="-6.94194333">
        <ele>969.0</ele>
        <time>2022-06-19T09:01:38.101Z</time>
      </trkpt>
      <trkpt lat="43.15519167" lon="-6.94194333">
        <ele>969.0</ele>
        <time>2022-06-19T09:01:39.078Z</time>
      </trkpt>
      <trkpt lat="43.155195" lon="-6.94199833">
        <ele>969.0</ele>
        <time>2022-06-19T09:01:40.088Z</time>
      </trkpt>
      <trkpt lat="43.155195" lon="-6.94199833">
        <ele>969.0</ele>
        <time>2022-06-19T09:01:41.084Z</time>
      </trkpt>
      <trkpt lat="43.155195" lon="-6.94205833">
        <ele>969.0</ele>
        <time>2022-06-19T09:01:42.093Z</time>
      </trkpt>
      <trkpt lat="43.155195" lon="-6.94209167">
        <ele>969.0</ele>
        <time>2022-06-19T09:01:43.101Z</time>
      </trkpt>
      <trkpt lat="43.155195" lon="-6.94209167">
        <ele>969.0</ele>
        <time>2022-06-19T09:01:44.100Z</time>
      </trkpt>
      <trkpt lat="43.15519167" lon="-6.94216333">
        <ele>969.0</ele>
        <time>2022-06-19T09:01:45.076Z</time>
      </trkpt>
      <trkpt lat="43.15519167" lon="-6.94216333">
        <ele>969.0</ele>
        <time>2022-06-19T09:01:46.067Z</time>
      </trkpt>
      <trkpt lat="43.15518833" lon="-6.94223333">
        <ele>969.0</ele>
        <time>2022-06-19T09:01:47.092Z</time>
      </trkpt>
      <trkpt lat="43.15518833" lon="-6.94223333">
        <ele>969.0</ele>
        <time>2022-06-19T09:01:48.089Z</time>
      </trkpt>
      <trkpt lat="43.15518833" lon="-6.94230167">
        <ele>969.0</ele>
        <time>2022-06-19T09:01:49.097Z</time>
      </trkpt>
      <trkpt lat="43.15518833" lon="-6.94230167">
        <ele>969.0</ele>
        <time>2022-06-19T09:01:50.074Z</time>
      </trkpt>
      <trkpt lat="43.155185" lon="-6.94237167">
        <ele>969.0</ele>
        <time>2022-06-19T09:01:51.083Z</time>
      </trkpt>
      <trkpt lat="43.155185" lon="-6.94237167">
        <ele>969.0</ele>
        <time>2022-06-19T09:01:52.066Z</time>
      </trkpt>
      <trkpt lat="43.15518167" lon="-6.94244167">
        <ele>968.0</ele>
        <time>2022-06-19T09:01:53.085Z</time>
      </trkpt>
      <trkpt lat="43.15518" lon="-6.94247167">
        <ele>968.0</ele>
        <time>2022-06-19T09:01:54.075Z</time>
      </trkpt>
      <trkpt lat="43.15517667" lon="-6.94250167">
        <ele>968.0</ele>
        <time>2022-06-19T09:01:55.098Z</time>
      </trkpt>
      <trkpt lat="43.15517333" lon="-6.94253333">
        <ele>968.0</ele>
        <time>2022-06-19T09:01:56.083Z</time>
      </trkpt>
      <trkpt lat="43.15517333" lon="-6.94253333">
        <ele>968.0</ele>
        <time>2022-06-19T09:01:57.066Z</time>
      </trkpt>
      <trkpt lat="43.15517" lon="-6.94259833">
        <ele>968.0</ele>
        <time>2022-06-19T09:01:58.077Z</time>
      </trkpt>
      <trkpt lat="43.15517" lon="-6.94259833">
        <ele>968.0</ele>
        <time>2022-06-19T09:01:59.081Z</time>
      </trkpt>
      <trkpt lat="43.15517333" lon="-6.94265167">
        <ele>968.0</ele>
        <time>2022-06-19T09:02:00.100Z</time>
      </trkpt>
      <trkpt lat="43.15517333" lon="-6.94265167">
        <ele>968.0</ele>
        <time>2022-06-19T09:02:01.086Z</time>
      </trkpt>
      <trkpt lat="43.15517333" lon="-6.94269667">
        <ele>968.0</ele>
        <time>2022-06-19T09:02:02.105Z</time>
      </trkpt>
      <trkpt lat="43.15517333" lon="-6.94269667">
        <ele>968.0</ele>
        <time>2022-06-19T09:02:03.088Z</time>
      </trkpt>
      <trkpt lat="43.15517167" lon="-6.942745">
        <ele>967.0</ele>
        <time>2022-06-19T09:02:04.096Z</time>
      </trkpt>
      <trkpt lat="43.15517167" lon="-6.942745">
        <ele>967.0</ele>
        <time>2022-06-19T09:02:05.085Z</time>
      </trkpt>
      <trkpt lat="43.15516667" lon="-6.94279167">
        <ele>968.0</ele>
        <time>2022-06-19T09:02:06.106Z</time>
      </trkpt>
      <trkpt lat="43.15516667" lon="-6.94279167">
        <ele>968.0</ele>
        <time>2022-06-19T09:02:07.096Z</time>
      </trkpt>
      <trkpt lat="43.155165" lon="-6.94283833">
        <ele>968.0</ele>
        <time>2022-06-19T09:02:08.069Z</time>
      </trkpt>
      <trkpt lat="43.155165" lon="-6.94283833">
        <ele>968.0</ele>
        <time>2022-06-19T09:02:09.069Z</time>
      </trkpt>
      <trkpt lat="43.15516167" lon="-6.94288833">
        <ele>968.0</ele>
        <time>2022-06-19T09:02:10.076Z</time>
      </trkpt>
      <trkpt lat="43.15516167" lon="-6.94288833">
        <ele>968.0</ele>
        <time>2022-06-19T09:02:11.080Z</time>
      </trkpt>
      <trkpt lat="43.15516167" lon="-6.94293833">
        <ele>969.0</ele>
        <time>2022-06-19T09:02:12.100Z</time>
      </trkpt>
      <trkpt lat="43.15516167" lon="-6.94296167">
        <ele>969.0</ele>
        <time>2022-06-19T09:02:13.066Z</time>
      </trkpt>
      <trkpt lat="43.15516167" lon="-6.94296167">
        <ele>969.0</ele>
        <time>2022-06-19T09:02:14.067Z</time>
      </trkpt>
      <trkpt lat="43.15516" lon="-6.943">
        <ele>969.0</ele>
        <time>2022-06-19T09:02:15.075Z</time>
      </trkpt>
      <trkpt lat="43.15516" lon="-6.943">
        <ele>969.0</ele>
        <time>2022-06-19T09:02:16.066Z</time>
      </trkpt>
      <trkpt lat="43.15516167" lon="-6.94304333">
        <ele>970.0</ele>
        <time>2022-06-19T09:02:17.079Z</time>
      </trkpt>
      <trkpt lat="43.15516" lon="-6.94306833">
        <ele>970.0</ele>
        <time>2022-06-19T09:02:18.100Z</time>
      </trkpt>
      <trkpt lat="43.15516" lon="-6.94306833">
        <ele>970.0</ele>
        <time>2022-06-19T09:02:19.076Z</time>
      </trkpt>
      <trkpt lat="43.15515167" lon="-6.94311167">
        <ele>970.0</ele>
        <time>2022-06-19T09:02:20.072Z</time>
      </trkpt>
      <trkpt lat="43.15515167" lon="-6.94311167">
        <ele>970.0</ele>
        <time>2022-06-19T09:02:21.084Z</time>
      </trkpt>
      <trkpt lat="43.15514833" lon="-6.94315833">
        <ele>970.0</ele>
        <time>2022-06-19T09:02:22.078Z</time>
      </trkpt>
      <trkpt lat="43.15514667" lon="-6.94318167">
        <ele>970.0</ele>
        <time>2022-06-19T09:02:23.077Z</time>
      </trkpt>
      <trkpt lat="43.15514667" lon="-6.94318167">
        <ele>970.0</ele>
        <time>2022-06-19T09:02:24.071Z</time>
      </trkpt>
      <trkpt lat="43.15514167" lon="-6.94322167">
        <ele>970.0</ele>
        <time>2022-06-19T09:02:25.079Z</time>
      </trkpt>
      <trkpt lat="43.15514167" lon="-6.94322167">
        <ele>970.0</ele>
        <time>2022-06-19T09:02:26.093Z</time>
      </trkpt>
      <trkpt lat="43.15513333" lon="-6.94327167">
        <ele>970.0</ele>
        <time>2022-06-19T09:02:27.100Z</time>
      </trkpt>
      <trkpt lat="43.15512833" lon="-6.94329833">
        <ele>970.0</ele>
        <time>2022-06-19T09:02:28.084Z</time>
      </trkpt>
      <trkpt lat="43.15512333" lon="-6.94332333">
        <ele>970.0</ele>
        <time>2022-06-19T09:02:29.080Z</time>
      </trkpt>
      <trkpt lat="43.15512333" lon="-6.94332333">
        <ele>970.0</ele>
        <time>2022-06-19T09:02:30.077Z</time>
      </trkpt>
      <trkpt lat="43.155115" lon="-6.94336667">
        <ele>970.0</ele>
        <time>2022-06-19T09:02:31.088Z</time>
      </trkpt>
      <trkpt lat="43.155115" lon="-6.94336667">
        <ele>970.0</ele>
        <time>2022-06-19T09:02:32.096Z</time>
      </trkpt>
      <trkpt lat="43.155105" lon="-6.94341">
        <ele>970.0</ele>
        <time>2022-06-19T09:02:33.103Z</time>
      </trkpt>
      <trkpt lat="43.15510167" lon="-6.94343167">
        <ele>970.0</ele>
        <time>2022-06-19T09:02:34.104Z</time>
      </trkpt>
      <trkpt lat="43.15510167" lon="-6.94343167">
        <ele>970.0</ele>
        <time>2022-06-19T09:02:35.081Z</time>
      </trkpt>
      <trkpt lat="43.15510167" lon="-6.94348">
        <ele>970.0</ele>
        <time>2022-06-19T09:02:36.098Z</time>
      </trkpt>
      <trkpt lat="43.1551" lon="-6.94350333">
        <ele>970.0</ele>
        <time>2022-06-19T09:02:37.075Z</time>
      </trkpt>
      <trkpt lat="43.1551" lon="-6.94350333">
        <ele>970.0</ele>
        <time>2022-06-19T09:02:38.078Z</time>
      </trkpt>
      <trkpt lat="43.15509167" lon="-6.94354833">
        <ele>970.0</ele>
        <time>2022-06-19T09:02:39.090Z</time>
      </trkpt>
      <trkpt lat="43.15508833" lon="-6.94357667">
        <ele>970.0</ele>
        <time>2022-06-19T09:02:40.067Z</time>
      </trkpt>
      <trkpt lat="43.15508833" lon="-6.94357667">
        <ele>970.0</ele>
        <time>2022-06-19T09:02:41.069Z</time>
      </trkpt>
      <trkpt lat="43.155085" lon="-6.94363">
        <ele>970.0</ele>
        <time>2022-06-19T09:02:42.079Z</time>
      </trkpt>
      <trkpt lat="43.15507667" lon="-6.94365333">
        <ele>970.0</ele>
        <time>2022-06-19T09:02:43.082Z</time>
      </trkpt>
      <trkpt lat="43.15507667" lon="-6.94365333">
        <ele>970.0</ele>
        <time>2022-06-19T09:02:44.087Z</time>
      </trkpt>
      <trkpt lat="43.155065" lon="-6.943715">
        <ele>970.0</ele>
        <time>2022-06-19T09:02:45.096Z</time>
      </trkpt>
      <trkpt lat="43.155065" lon="-6.943715">
        <ele>970.0</ele>
        <time>2022-06-19T09:02:46.108Z</time>
      </trkpt>
      <trkpt lat="43.15506" lon="-6.94377667">
        <ele>970.0</ele>
        <time>2022-06-19T09:02:47.068Z</time>
      </trkpt>
      <trkpt lat="43.15506" lon="-6.94377667">
        <ele>970.0</ele>
        <time>2022-06-19T09:02:48.066Z</time>
      </trkpt>
      <trkpt lat="43.15506" lon="-6.94382833">
        <ele>970.0</ele>
        <time>2022-06-19T09:02:49.079Z</time>
      </trkpt>
      <trkpt lat="43.15506" lon="-6.94382833">
        <ele>970.0</ele>
        <time>2022-06-19T09:02:50.067Z</time>
      </trkpt>
      <trkpt lat="43.15505333" lon="-6.94387833">
        <ele>971.0</ele>
        <time>2022-06-19T09:02:51.078Z</time>
      </trkpt>
      <trkpt lat="43.15505333" lon="-6.94387833">
        <ele>971.0</ele>
        <time>2022-06-19T09:02:52.102Z</time>
      </trkpt>
      <trkpt lat="43.15505" lon="-6.94393333">
        <ele>971.0</ele>
        <time>2022-06-19T09:02:53.070Z</time>
      </trkpt>
      <trkpt lat="43.15505" lon="-6.94393333">
        <ele>971.0</ele>
        <time>2022-06-19T09:02:54.095Z</time>
      </trkpt>
      <trkpt lat="43.15505333" lon="-6.94398">
        <ele>972.0</ele>
        <time>2022-06-19T09:02:55.102Z</time>
      </trkpt>
      <trkpt lat="43.15505333" lon="-6.94398">
        <ele>972.0</ele>
        <time>2022-06-19T09:02:56.082Z</time>
      </trkpt>
      <trkpt lat="43.15505" lon="-6.94401167">
        <ele>971.0</ele>
        <time>2022-06-19T09:02:57.098Z</time>
      </trkpt>
      <trkpt lat="43.15505" lon="-6.94401167">
        <ele>971.0</ele>
        <time>2022-06-19T09:02:58.080Z</time>
      </trkpt>
      <trkpt lat="43.15505167" lon="-6.94405167">
        <ele>972.0</ele>
        <time>2022-06-19T09:02:59.087Z</time>
      </trkpt>
      <trkpt lat="43.15505167" lon="-6.94405167">
        <ele>972.0</ele>
        <time>2022-06-19T09:03:00.079Z</time>
      </trkpt>
      <trkpt lat="43.15505333" lon="-6.94409167">
        <ele>972.0</ele>
        <time>2022-06-19T09:03:01.087Z</time>
      </trkpt>
      <trkpt lat="43.15505333" lon="-6.94409167">
        <ele>972.0</ele>
        <time>2022-06-19T09:03:02.103Z</time>
      </trkpt>
      <trkpt lat="43.15504" lon="-6.94413167">
        <ele>972.0</ele>
        <time>2022-06-19T09:03:03.072Z</time>
      </trkpt>
      <trkpt lat="43.15503833" lon="-6.94415">
        <ele>972.0</ele>
        <time>2022-06-19T09:03:04.095Z</time>
      </trkpt>
      <trkpt lat="43.15503833" lon="-6.94415">
        <ele>972.0</ele>
        <time>2022-06-19T09:03:05.096Z</time>
      </trkpt>
      <trkpt lat="43.15503" lon="-6.944185">
        <ele>972.0</ele>
        <time>2022-06-19T09:03:06.103Z</time>
      </trkpt>
      <trkpt lat="43.15503" lon="-6.94420833">
        <ele>972.0</ele>
        <time>2022-06-19T09:03:07.097Z</time>
      </trkpt>
      <trkpt lat="43.15503" lon="-6.94420833">
        <ele>972.0</ele>
        <time>2022-06-19T09:03:08.094Z</time>
      </trkpt>
      <trkpt lat="43.15502167" lon="-6.944245">
        <ele>972.0</ele>
        <time>2022-06-19T09:03:09.102Z</time>
      </trkpt>
      <trkpt lat="43.15501833" lon="-6.94426667">
        <ele>972.0</ele>
        <time>2022-06-19T09:03:10.083Z</time>
      </trkpt>
      <trkpt lat="43.15501833" lon="-6.94426667">
        <ele>972.0</ele>
        <time>2022-06-19T09:03:11.072Z</time>
      </trkpt>
      <trkpt lat="43.15501" lon="-6.944325">
        <ele>972.0</ele>
        <time>2022-06-19T09:03:12.094Z</time>
      </trkpt>
      <trkpt lat="43.15500833" lon="-6.94435">
        <ele>972.0</ele>
        <time>2022-06-19T09:03:13.070Z</time>
      </trkpt>
      <trkpt lat="43.15500833" lon="-6.94435">
        <ele>972.0</ele>
        <time>2022-06-19T09:03:14.069Z</time>
      </trkpt>
      <trkpt lat="43.15499167" lon="-6.94440667">
        <ele>972.0</ele>
        <time>2022-06-19T09:03:15.078Z</time>
      </trkpt>
      <trkpt lat="43.15499167" lon="-6.94440667">
        <ele>972.0</ele>
        <time>2022-06-19T09:03:16.100Z</time>
      </trkpt>
      <trkpt lat="43.154985" lon="-6.944455">
        <ele>972.0</ele>
        <time>2022-06-19T09:03:17.076Z</time>
      </trkpt>
      <trkpt lat="43.154985" lon="-6.944455">
        <ele>972.0</ele>
        <time>2022-06-19T09:03:18.095Z</time>
      </trkpt>
      <trkpt lat="43.15498667" lon="-6.94449667">
        <ele>972.0</ele>
        <time>2022-06-19T09:03:19.085Z</time>
      </trkpt>
      <trkpt lat="43.15498667" lon="-6.94449667">
        <ele>972.0</ele>
        <time>2022-06-19T09:03:20.099Z</time>
      </trkpt>
      <trkpt lat="43.15498667" lon="-6.94454333">
        <ele>972.0</ele>
        <time>2022-06-19T09:03:21.069Z</time>
      </trkpt>
      <trkpt lat="43.15498667" lon="-6.94454333">
        <ele>972.0</ele>
        <time>2022-06-19T09:03:22.077Z</time>
      </trkpt>
      <trkpt lat="43.15498833" lon="-6.94459333">
        <ele>972.0</ele>
        <time>2022-06-19T09:03:23.086Z</time>
      </trkpt>
      <trkpt lat="43.15498833" lon="-6.94459333">
        <ele>972.0</ele>
        <time>2022-06-19T09:03:24.102Z</time>
      </trkpt>
      <trkpt lat="43.154985" lon="-6.94464333">
        <ele>972.0</ele>
        <time>2022-06-19T09:03:25.068Z</time>
      </trkpt>
      <trkpt lat="43.154985" lon="-6.94464333">
        <ele>972.0</ele>
        <time>2022-06-19T09:03:26.099Z</time>
      </trkpt>
      <trkpt lat="43.15497333" lon="-6.94468667">
        <ele>973.0</ele>
        <time>2022-06-19T09:03:27.110Z</time>
      </trkpt>
      <trkpt lat="43.15496667" lon="-6.94470833">
        <ele>973.0</ele>
        <time>2022-06-19T09:03:28.070Z</time>
      </trkpt>
      <trkpt lat="43.15496667" lon="-6.94470833">
        <ele>973.0</ele>
        <time>2022-06-19T09:03:29.075Z</time>
      </trkpt>
      <trkpt lat="43.15494833" lon="-6.94474833">
        <ele>973.0</ele>
        <time>2022-06-19T09:03:30.070Z</time>
      </trkpt>
      <trkpt lat="43.15494167" lon="-6.94476833">
        <ele>973.0</ele>
        <time>2022-06-19T09:03:31.099Z</time>
      </trkpt>
      <trkpt lat="43.15494167" lon="-6.94476833">
        <ele>973.0</ele>
        <time>2022-06-19T09:03:32.079Z</time>
      </trkpt>
      <trkpt lat="43.15494333" lon="-6.94481">
        <ele>973.0</ele>
        <time>2022-06-19T09:03:33.090Z</time>
      </trkpt>
      <trkpt lat="43.15494333" lon="-6.94483333">
        <ele>973.0</ele>
        <time>2022-06-19T09:03:34.077Z</time>
      </trkpt>
      <trkpt lat="43.15494333" lon="-6.94483333">
        <ele>973.0</ele>
        <time>2022-06-19T09:03:35.066Z</time>
      </trkpt>
      <trkpt lat="43.15494333" lon="-6.94483333">
        <ele>973.0</ele>
        <time>2022-06-19T09:03:36.228Z</time>
      </trkpt>
      <trkpt lat="43.15493667" lon="-6.94490333">
        <ele>973.0</ele>
        <time>2022-06-19T09:03:37.076Z</time>
      </trkpt>
      <trkpt lat="43.15493667" lon="-6.94490333">
        <ele>973.0</ele>
        <time>2022-06-19T09:03:38.105Z</time>
      </trkpt>
      <trkpt lat="43.15493" lon="-6.94495">
        <ele>974.0</ele>
        <time>2022-06-19T09:03:39.075Z</time>
      </trkpt>
      <trkpt lat="43.15493" lon="-6.94495">
        <ele>974.0</ele>
        <time>2022-06-19T09:03:40.105Z</time>
      </trkpt>
      <trkpt lat="43.154925" lon="-6.94499833">
        <ele>975.0</ele>
        <time>2022-06-19T09:03:41.099Z</time>
      </trkpt>
      <trkpt lat="43.15491833" lon="-6.94502167">
        <ele>975.0</ele>
        <time>2022-06-19T09:03:42.067Z</time>
      </trkpt>
      <trkpt lat="43.15491833" lon="-6.94502167">
        <ele>975.0</ele>
        <time>2022-06-19T09:03:43.067Z</time>
      </trkpt>
      <trkpt lat="43.15492" lon="-6.94506667">
        <ele>975.0</ele>
        <time>2022-06-19T09:03:44.082Z</time>
      </trkpt>
      <trkpt lat="43.15492" lon="-6.94506667">
        <ele>975.0</ele>
        <time>2022-06-19T09:03:45.068Z</time>
      </trkpt>
      <trkpt lat="43.15491167" lon="-6.94511667">
        <ele>976.0</ele>
        <time>2022-06-19T09:03:46.098Z</time>
      </trkpt>
      <trkpt lat="43.15491167" lon="-6.94511667">
        <ele>976.0</ele>
        <time>2022-06-19T09:03:47.095Z</time>
      </trkpt>
      <trkpt lat="43.15491833" lon="-6.94516833">
        <ele>976.0</ele>
        <time>2022-06-19T09:03:48.079Z</time>
      </trkpt>
      <trkpt lat="43.15491833" lon="-6.94516833">
        <ele>976.0</ele>
        <time>2022-06-19T09:03:49.082Z</time>
      </trkpt>
      <trkpt lat="43.15493" lon="-6.945215">
        <ele>977.0</ele>
        <time>2022-06-19T09:03:50.100Z</time>
      </trkpt>
      <trkpt lat="43.15493" lon="-6.945215">
        <ele>977.0</ele>
        <time>2022-06-19T09:03:51.096Z</time>
      </trkpt>
      <trkpt lat="43.15493" lon="-6.94526">
        <ele>977.0</ele>
        <time>2022-06-19T09:03:52.075Z</time>
      </trkpt>
      <trkpt lat="43.15493" lon="-6.94526">
        <ele>977.0</ele>
        <time>2022-06-19T09:03:53.093Z</time>
      </trkpt>
      <trkpt lat="43.15492833" lon="-6.94531167">
        <ele>978.0</ele>
        <time>2022-06-19T09:03:54.106Z</time>
      </trkpt>
      <trkpt lat="43.15492833" lon="-6.945335">
        <ele>978.0</ele>
        <time>2022-06-19T09:03:55.103Z</time>
      </trkpt>
      <trkpt lat="43.15492667" lon="-6.94535833">
        <ele>979.0</ele>
        <time>2022-06-19T09:03:56.073Z</time>
      </trkpt>
      <trkpt lat="43.15492667" lon="-6.94535833">
        <ele>979.0</ele>
        <time>2022-06-19T09:03:57.072Z</time>
      </trkpt>
      <trkpt lat="43.15492667" lon="-6.94541833">
        <ele>980.0</ele>
        <time>2022-06-19T09:03:58.080Z</time>
      </trkpt>
      <trkpt lat="43.15492833" lon="-6.94545">
        <ele>980.0</ele>
        <time>2022-06-19T09:03:59.078Z</time>
      </trkpt>
      <trkpt lat="43.15492833" lon="-6.94545">
        <ele>980.0</ele>
        <time>2022-06-19T09:04:00.081Z</time>
      </trkpt>
      <trkpt lat="43.15493833" lon="-6.94550833">
        <ele>980.0</ele>
        <time>2022-06-19T09:04:01.091Z</time>
      </trkpt>
      <trkpt lat="43.15493833" lon="-6.94550833">
        <ele>980.0</ele>
        <time>2022-06-19T09:04:02.090Z</time>
      </trkpt>
      <trkpt lat="43.15495333" lon="-6.94557167">
        <ele>981.0</ele>
        <time>2022-06-19T09:04:03.136Z</time>
      </trkpt>
      <trkpt lat="43.15495333" lon="-6.94557167">
        <ele>981.0</ele>
        <time>2022-06-19T09:04:04.083Z</time>
      </trkpt>
      <trkpt lat="43.15497167" lon="-6.945635">
        <ele>981.0</ele>
        <time>2022-06-19T09:04:05.108Z</time>
      </trkpt>
      <trkpt lat="43.15497167" lon="-6.945635">
        <ele>981.0</ele>
        <time>2022-06-19T09:04:06.095Z</time>
      </trkpt>
      <trkpt lat="43.15499167" lon="-6.94570333">
        <ele>982.0</ele>
        <time>2022-06-19T09:04:07.082Z</time>
      </trkpt>
      <trkpt lat="43.15499167" lon="-6.94570333">
        <ele>982.0</ele>
        <time>2022-06-19T09:04:08.090Z</time>
      </trkpt>
      <trkpt lat="43.15502" lon="-6.94577">
        <ele>982.0</ele>
        <time>2022-06-19T09:04:09.102Z</time>
      </trkpt>
      <trkpt lat="43.15502" lon="-6.94577">
        <ele>982.0</ele>
        <time>2022-06-19T09:04:10.076Z</time>
      </trkpt>
      <trkpt lat="43.155045" lon="-6.94583167">
        <ele>983.0</ele>
        <time>2022-06-19T09:04:11.088Z</time>
      </trkpt>
      <trkpt lat="43.155045" lon="-6.94583167">
        <ele>983.0</ele>
        <time>2022-06-19T09:04:12.095Z</time>
      </trkpt>
      <trkpt lat="43.15506833" lon="-6.94588833">
        <ele>983.0</ele>
        <time>2022-06-19T09:04:13.067Z</time>
      </trkpt>
      <trkpt lat="43.15506833" lon="-6.94588833">
        <ele>983.0</ele>
        <time>2022-06-19T09:04:14.089Z</time>
      </trkpt>
      <trkpt lat="43.155095" lon="-6.94594833">
        <ele>983.0</ele>
        <time>2022-06-19T09:04:15.067Z</time>
      </trkpt>
      <trkpt lat="43.15511333" lon="-6.94598167">
        <ele>983.0</ele>
        <time>2022-06-19T09:04:16.069Z</time>
      </trkpt>
      <trkpt lat="43.15511333" lon="-6.94598167">
        <ele>983.0</ele>
        <time>2022-06-19T09:04:17.067Z</time>
      </trkpt>
      <trkpt lat="43.15515333" lon="-6.94605167">
        <ele>983.0</ele>
        <time>2022-06-19T09:04:18.074Z</time>
      </trkpt>
      <trkpt lat="43.15517" lon="-6.94608">
        <ele>983.0</ele>
        <time>2022-06-19T09:04:19.081Z</time>
      </trkpt>
      <trkpt lat="43.15517" lon="-6.94608">
        <ele>983.0</ele>
        <time>2022-06-19T09:04:20.097Z</time>
      </trkpt>
      <trkpt lat="43.15520167" lon="-6.94613667">
        <ele>983.0</ele>
        <time>2022-06-19T09:04:21.078Z</time>
      </trkpt>
      <trkpt lat="43.15520167" lon="-6.94613667">
        <ele>983.0</ele>
        <time>2022-06-19T09:04:22.097Z</time>
      </trkpt>
      <trkpt lat="43.15523667" lon="-6.94619167">
        <ele>984.0</ele>
        <time>2022-06-19T09:04:23.066Z</time>
      </trkpt>
      <trkpt lat="43.15523667" lon="-6.94619167">
        <ele>984.0</ele>
        <time>2022-06-19T09:04:24.067Z</time>
      </trkpt>
      <trkpt lat="43.15527667" lon="-6.94626">
        <ele>984.0</ele>
        <time>2022-06-19T09:04:25.073Z</time>
      </trkpt>
      <trkpt lat="43.15527667" lon="-6.94626">
        <ele>984.0</ele>
        <time>2022-06-19T09:04:26.080Z</time>
      </trkpt>
      <trkpt lat="43.15531833" lon="-6.946325">
        <ele>985.0</ele>
        <time>2022-06-19T09:04:27.101Z</time>
      </trkpt>
      <trkpt lat="43.15531833" lon="-6.946325">
        <ele>985.0</ele>
        <time>2022-06-19T09:04:28.103Z</time>
      </trkpt>
      <trkpt lat="43.155355" lon="-6.94639">
        <ele>985.0</ele>
        <time>2022-06-19T09:04:29.075Z</time>
      </trkpt>
      <trkpt lat="43.155355" lon="-6.94639">
        <ele>985.0</ele>
        <time>2022-06-19T09:04:30.072Z</time>
      </trkpt>
      <trkpt lat="43.155395" lon="-6.94644667">
        <ele>985.0</ele>
        <time>2022-06-19T09:04:31.224Z</time>
      </trkpt>
      <trkpt lat="43.155395" lon="-6.94644667">
        <ele>985.0</ele>
        <time>2022-06-19T09:04:32.100Z</time>
      </trkpt>
      <trkpt lat="43.15543833" lon="-6.94650167">
        <ele>986.0</ele>
        <time>2022-06-19T09:04:33.072Z</time>
      </trkpt>
      <trkpt lat="43.15546" lon="-6.94653">
        <ele>986.0</ele>
        <time>2022-06-19T09:04:34.088Z</time>
      </trkpt>
      <trkpt lat="43.15546" lon="-6.94653">
        <ele>986.0</ele>
        <time>2022-06-19T09:04:35.080Z</time>
      </trkpt>
      <trkpt lat="43.15550333" lon="-6.94658667">
        <ele>986.0</ele>
        <time>2022-06-19T09:04:36.090Z</time>
      </trkpt>
      <trkpt lat="43.155525" lon="-6.94661667">
        <ele>986.0</ele>
        <time>2022-06-19T09:04:37.100Z</time>
      </trkpt>
      <trkpt lat="43.155525" lon="-6.94661667">
        <ele>986.0</ele>
        <time>2022-06-19T09:04:38.073Z</time>
      </trkpt>
      <trkpt lat="43.15557167" lon="-6.94667333">
        <ele>987.0</ele>
        <time>2022-06-19T09:04:39.090Z</time>
      </trkpt>
      <trkpt lat="43.155595" lon="-6.94670333">
        <ele>987.0</ele>
        <time>2022-06-19T09:04:40.089Z</time>
      </trkpt>
      <trkpt lat="43.155595" lon="-6.94670333">
        <ele>987.0</ele>
        <time>2022-06-19T09:04:41.097Z</time>
      </trkpt>
      <trkpt lat="43.15564167" lon="-6.94676167">
        <ele>987.0</ele>
        <time>2022-06-19T09:04:42.070Z</time>
      </trkpt>
      <trkpt lat="43.15566667" lon="-6.94679">
        <ele>987.0</ele>
        <time>2022-06-19T09:04:43.066Z</time>
      </trkpt>
      <trkpt lat="43.15566667" lon="-6.94679">
        <ele>987.0</ele>
        <time>2022-06-19T09:04:44.100Z</time>
      </trkpt>
      <trkpt lat="43.15571167" lon="-6.946855">
        <ele>987.0</ele>
        <time>2022-06-19T09:04:45.104Z</time>
      </trkpt>
      <trkpt lat="43.15571167" lon="-6.946855">
        <ele>987.0</ele>
        <time>2022-06-19T09:04:46.097Z</time>
      </trkpt>
      <trkpt lat="43.15575667" lon="-6.94691833">
        <ele>987.0</ele>
        <time>2022-06-19T09:04:47.066Z</time>
      </trkpt>
      <trkpt lat="43.15575667" lon="-6.94691833">
        <ele>987.0</ele>
        <time>2022-06-19T09:04:48.070Z</time>
      </trkpt>
      <trkpt lat="43.15580167" lon="-6.94698167">
        <ele>988.0</ele>
        <time>2022-06-19T09:04:49.084Z</time>
      </trkpt>
      <trkpt lat="43.15580167" lon="-6.94698167">
        <ele>988.0</ele>
        <time>2022-06-19T09:04:50.096Z</time>
      </trkpt>
      <trkpt lat="43.15584667" lon="-6.94704667">
        <ele>988.0</ele>
        <time>2022-06-19T09:04:51.072Z</time>
      </trkpt>
      <trkpt lat="43.15584667" lon="-6.94704667">
        <ele>988.0</ele>
        <time>2022-06-19T09:04:52.069Z</time>
      </trkpt>
      <trkpt lat="43.15589167" lon="-6.947115">
        <ele>988.0</ele>
        <time>2022-06-19T09:04:53.079Z</time>
      </trkpt>
      <trkpt lat="43.15589167" lon="-6.947115">
        <ele>988.0</ele>
        <time>2022-06-19T09:04:54.079Z</time>
      </trkpt>
      <trkpt lat="43.15593333" lon="-6.94718333">
        <ele>988.0</ele>
        <time>2022-06-19T09:04:55.086Z</time>
      </trkpt>
      <trkpt lat="43.15593333" lon="-6.94718333">
        <ele>988.0</ele>
        <time>2022-06-19T09:04:56.078Z</time>
      </trkpt>
      <trkpt lat="43.155975" lon="-6.94725167">
        <ele>988.0</ele>
        <time>2022-06-19T09:04:57.085Z</time>
      </trkpt>
      <trkpt lat="43.155975" lon="-6.94725167">
        <ele>988.0</ele>
        <time>2022-06-19T09:04:58.079Z</time>
      </trkpt>
      <trkpt lat="43.15601333" lon="-6.94732">
        <ele>989.0</ele>
        <time>2022-06-19T09:04:59.105Z</time>
      </trkpt>
      <trkpt lat="43.15602667" lon="-6.947355">
        <ele>989.0</ele>
        <time>2022-06-19T09:05:00.104Z</time>
      </trkpt>
      <trkpt lat="43.15602667" lon="-6.947355">
        <ele>989.0</ele>
        <time>2022-06-19T09:05:01.084Z</time>
      </trkpt>
      <trkpt lat="43.15605333" lon="-6.94742333">
        <ele>989.0</ele>
        <time>2022-06-19T09:05:02.098Z</time>
      </trkpt>
      <trkpt lat="43.15605333" lon="-6.94742333">
        <ele>989.0</ele>
        <time>2022-06-19T09:05:03.097Z</time>
      </trkpt>
      <trkpt lat="43.15607667" lon="-6.947485">
        <ele>989.0</ele>
        <time>2022-06-19T09:05:04.078Z</time>
      </trkpt>
      <trkpt lat="43.15608667" lon="-6.94751167">
        <ele>990.0</ele>
        <time>2022-06-19T09:05:05.079Z</time>
      </trkpt>
      <trkpt lat="43.15609667" lon="-6.94754167">
        <ele>990.0</ele>
        <time>2022-06-19T09:05:06.088Z</time>
      </trkpt>
      <trkpt lat="43.15609667" lon="-6.94754167">
        <ele>990.0</ele>
        <time>2022-06-19T09:05:07.087Z</time>
      </trkpt>
      <trkpt lat="43.15611" lon="-6.94761">
        <ele>990.0</ele>
        <time>2022-06-19T09:05:08.102Z</time>
      </trkpt>
      <trkpt lat="43.15611" lon="-6.94761">
        <ele>990.0</ele>
        <time>2022-06-19T09:05:09.093Z</time>
      </trkpt>
      <trkpt lat="43.15612167" lon="-6.94768333">
        <ele>990.0</ele>
        <time>2022-06-19T09:05:10.105Z</time>
      </trkpt>
      <trkpt lat="43.15612167" lon="-6.94768333">
        <ele>990.0</ele>
        <time>2022-06-19T09:05:11.079Z</time>
      </trkpt>
      <trkpt lat="43.156135" lon="-6.947755">
        <ele>991.0</ele>
        <time>2022-06-19T09:05:12.099Z</time>
      </trkpt>
      <trkpt lat="43.15614167" lon="-6.94779333">
        <ele>991.0</ele>
        <time>2022-06-19T09:05:13.081Z</time>
      </trkpt>
      <trkpt lat="43.15614167" lon="-6.94779333">
        <ele>991.0</ele>
        <time>2022-06-19T09:05:14.095Z</time>
      </trkpt>
      <trkpt lat="43.156155" lon="-6.94786667">
        <ele>991.0</ele>
        <time>2022-06-19T09:05:15.235Z</time>
      </trkpt>
      <trkpt lat="43.156155" lon="-6.94786667">
        <ele>991.0</ele>
        <time>2022-06-19T09:05:16.090Z</time>
      </trkpt>
      <trkpt lat="43.15616833" lon="-6.94792333">
        <ele>991.0</ele>
        <time>2022-06-19T09:05:17.067Z</time>
      </trkpt>
      <trkpt lat="43.15616833" lon="-6.94792333">
        <ele>991.0</ele>
        <time>2022-06-19T09:05:18.099Z</time>
      </trkpt>
      <trkpt lat="43.15617667" lon="-6.94797333">
        <ele>991.0</ele>
        <time>2022-06-19T09:05:19.066Z</time>
      </trkpt>
      <trkpt lat="43.15617667" lon="-6.94797333">
        <ele>991.0</ele>
        <time>2022-06-19T09:05:20.096Z</time>
      </trkpt>
      <trkpt lat="43.156185" lon="-6.94802167">
        <ele>991.0</ele>
        <time>2022-06-19T09:05:21.108Z</time>
      </trkpt>
      <trkpt lat="43.156185" lon="-6.94802167">
        <ele>991.0</ele>
        <time>2022-06-19T09:05:22.066Z</time>
      </trkpt>
      <trkpt lat="43.15618833" lon="-6.948065">
        <ele>992.0</ele>
        <time>2022-06-19T09:05:23.075Z</time>
      </trkpt>
      <trkpt lat="43.15618833" lon="-6.948065">
        <ele>992.0</ele>
        <time>2022-06-19T09:05:24.103Z</time>
      </trkpt>
      <trkpt lat="43.15619" lon="-6.94810833">
        <ele>992.0</ele>
        <time>2022-06-19T09:05:25.070Z</time>
      </trkpt>
      <trkpt lat="43.15619" lon="-6.94810833">
        <ele>992.0</ele>
        <time>2022-06-19T09:05:26.086Z</time>
      </trkpt>
      <trkpt lat="43.15619333" lon="-6.948145">
        <ele>992.0</ele>
        <time>2022-06-19T09:05:27.100Z</time>
      </trkpt>
      <trkpt lat="43.15619333" lon="-6.94816667">
        <ele>992.0</ele>
        <time>2022-06-19T09:05:28.072Z</time>
      </trkpt>
      <trkpt lat="43.156195" lon="-6.94818833">
        <ele>992.0</ele>
        <time>2022-06-19T09:05:29.103Z</time>
      </trkpt>
      <trkpt lat="43.156195" lon="-6.94818833">
        <ele>992.0</ele>
        <time>2022-06-19T09:05:30.070Z</time>
      </trkpt>
      <trkpt lat="43.15619167" lon="-6.94824">
        <ele>991.0</ele>
        <time>2022-06-19T09:05:31.079Z</time>
      </trkpt>
      <trkpt lat="43.15619167" lon="-6.94824">
        <ele>991.0</ele>
        <time>2022-06-19T09:05:32.067Z</time>
      </trkpt>
      <trkpt lat="43.15619" lon="-6.94829333">
        <ele>991.0</ele>
        <time>2022-06-19T09:05:33.074Z</time>
      </trkpt>
      <trkpt lat="43.15619" lon="-6.94829333">
        <ele>991.0</ele>
        <time>2022-06-19T09:05:34.099Z</time>
      </trkpt>
      <trkpt lat="43.15618833" lon="-6.948345">
        <ele>992.0</ele>
        <time>2022-06-19T09:05:35.069Z</time>
      </trkpt>
      <trkpt lat="43.15618833" lon="-6.948345">
        <ele>992.0</ele>
        <time>2022-06-19T09:05:36.090Z</time>
      </trkpt>
      <trkpt lat="43.156185" lon="-6.94839833">
        <ele>992.0</ele>
        <time>2022-06-19T09:05:37.105Z</time>
      </trkpt>
      <trkpt lat="43.156185" lon="-6.94839833">
        <ele>992.0</ele>
        <time>2022-06-19T09:05:38.071Z</time>
      </trkpt>
      <trkpt lat="43.15618333" lon="-6.94845333">
        <ele>992.0</ele>
        <time>2022-06-19T09:05:39.080Z</time>
      </trkpt>
      <trkpt lat="43.15618333" lon="-6.94845333">
        <ele>992.0</ele>
        <time>2022-06-19T09:05:40.102Z</time>
      </trkpt>
      <trkpt lat="43.15617667" lon="-6.94850667">
        <ele>993.0</ele>
        <time>2022-06-19T09:05:41.069Z</time>
      </trkpt>
      <trkpt lat="43.156175" lon="-6.94853333">
        <ele>993.0</ele>
        <time>2022-06-19T09:05:42.103Z</time>
      </trkpt>
      <trkpt lat="43.15618" lon="-6.94856667">
        <ele>993.0</ele>
        <time>2022-06-19T09:05:43.086Z</time>
      </trkpt>
      <trkpt lat="43.15618" lon="-6.94856667">
        <ele>993.0</ele>
        <time>2022-06-19T09:05:44.092Z</time>
      </trkpt>
      <trkpt lat="43.156175" lon="-6.948605">
        <ele>993.0</ele>
        <time>2022-06-19T09:05:45.100Z</time>
      </trkpt>
      <trkpt lat="43.156175" lon="-6.948605">
        <ele>993.0</ele>
        <time>2022-06-19T09:05:46.074Z</time>
      </trkpt>
      <trkpt lat="43.156175" lon="-6.94865">
        <ele>994.0</ele>
        <time>2022-06-19T09:05:47.084Z</time>
      </trkpt>
      <trkpt lat="43.156175" lon="-6.94865">
        <ele>994.0</ele>
        <time>2022-06-19T09:05:48.083Z</time>
      </trkpt>
      <trkpt lat="43.15614833" lon="-6.948695">
        <ele>994.0</ele>
        <time>2022-06-19T09:05:49.098Z</time>
      </trkpt>
      <trkpt lat="43.15614833" lon="-6.948695">
        <ele>994.0</ele>
        <time>2022-06-19T09:05:50.080Z</time>
      </trkpt>
      <trkpt lat="43.15611167" lon="-6.94874333">
        <ele>994.0</ele>
        <time>2022-06-19T09:05:51.100Z</time>
      </trkpt>
      <trkpt lat="43.15611167" lon="-6.94874333">
        <ele>994.0</ele>
        <time>2022-06-19T09:05:52.074Z</time>
      </trkpt>
      <trkpt lat="43.15607" lon="-6.948765">
        <ele>994.0</ele>
        <time>2022-06-19T09:05:53.083Z</time>
      </trkpt>
      <trkpt lat="43.15607" lon="-6.948765">
        <ele>994.0</ele>
        <time>2022-06-19T09:05:54.075Z</time>
      </trkpt>
      <trkpt lat="43.15602" lon="-6.94877333">
        <ele>994.0</ele>
        <time>2022-06-19T09:05:55.086Z</time>
      </trkpt>
      <trkpt lat="43.15602" lon="-6.94877333">
        <ele>994.0</ele>
        <time>2022-06-19T09:05:56.085Z</time>
      </trkpt>
      <trkpt lat="43.15596333" lon="-6.948775">
        <ele>994.0</ele>
        <time>2022-06-19T09:05:57.096Z</time>
      </trkpt>
      <trkpt lat="43.15593333" lon="-6.94877667">
        <ele>994.0</ele>
        <time>2022-06-19T09:05:58.077Z</time>
      </trkpt>
      <trkpt lat="43.15593333" lon="-6.94877667">
        <ele>994.0</ele>
        <time>2022-06-19T09:05:59.095Z</time>
      </trkpt>
      <trkpt lat="43.15587833" lon="-6.94878833">
        <ele>994.0</ele>
        <time>2022-06-19T09:06:00.103Z</time>
      </trkpt>
      <trkpt lat="43.15587833" lon="-6.94878833">
        <ele>994.0</ele>
        <time>2022-06-19T09:06:01.105Z</time>
      </trkpt>
      <trkpt lat="43.15586" lon="-6.948815">
        <ele>993.0</ele>
        <time>2022-06-19T09:06:02.072Z</time>
      </trkpt>
      <trkpt lat="43.15586" lon="-6.948815">
        <ele>993.0</ele>
        <time>2022-06-19T09:06:03.085Z</time>
      </trkpt>
      <trkpt lat="43.15586167" lon="-6.94881667">
        <ele>993.0</ele>
        <time>2022-06-19T09:06:04.100Z</time>
      </trkpt>
      <trkpt lat="43.15586167" lon="-6.94881667">
        <ele>993.0</ele>
        <time>2022-06-19T09:06:05.100Z</time>
      </trkpt>
      <trkpt lat="43.15586167" lon="-6.94881667">
        <ele>993.0</ele>
        <time>2022-06-19T09:06:13.684Z</time>
      </trkpt>
      <trkpt lat="43.15586167" lon="-6.94881667">
        <ele>993.0</ele>
        <time>2022-06-19T09:06:14.694Z</time>
      </trkpt>
      <trkpt lat="43.15586333" lon="-6.94881667">
        <ele>993.0</ele>
        <time>2022-06-19T09:06:15.703Z</time>
      </trkpt>
      <trkpt lat="43.15586333" lon="-6.94881667">
        <ele>993.0</ele>
        <time>2022-06-19T09:06:16.717Z</time>
      </trkpt>
      <trkpt lat="43.15586333" lon="-6.94881667">
        <ele>993.0</ele>
        <time>2022-06-19T09:06:17.711Z</time>
      </trkpt>
      <trkpt lat="43.15586333" lon="-6.94881667">
        <ele>993.0</ele>
        <time>2022-06-19T09:06:18.697Z</time>
      </trkpt>
      <trkpt lat="43.15586333" lon="-6.94881667">
        <ele>993.0</ele>
        <time>2022-06-19T09:06:19.700Z</time>
      </trkpt>
      <trkpt lat="43.15586333" lon="-6.94881667">
        <ele>993.0</ele>
        <time>2022-06-19T09:06:20.722Z</time>
      </trkpt>
      <trkpt lat="43.15586333" lon="-6.94881667">
        <ele>993.0</ele>
        <time>2022-06-19T09:06:21.708Z</time>
      </trkpt>
      <trkpt lat="43.15586333" lon="-6.94881667">
        <ele>993.0</ele>
        <time>2022-06-19T09:06:22.694Z</time>
      </trkpt>
      <trkpt lat="43.15586333" lon="-6.94881667">
        <ele>993.0</ele>
        <time>2022-06-19T09:06:23.703Z</time>
      </trkpt>
      <trkpt lat="43.15586333" lon="-6.94881667">
        <ele>993.0</ele>
        <time>2022-06-19T09:06:24.720Z</time>
      </trkpt>
      <trkpt lat="43.15586333" lon="-6.94881667">
        <ele>993.0</ele>
        <time>2022-06-19T09:06:25.709Z</time>
      </trkpt>
      <trkpt lat="43.15586333" lon="-6.94881667">
        <ele>993.0</ele>
        <time>2022-06-19T09:06:26.692Z</time>
      </trkpt>
      <trkpt lat="43.15586333" lon="-6.94881667">
        <ele>993.0</ele>
        <time>2022-06-19T09:06:27.705Z</time>
      </trkpt>
      <trkpt lat="43.15586333" lon="-6.94881667">
        <ele>993.0</ele>
        <time>2022-06-19T09:06:28.725Z</time>
      </trkpt>
      <trkpt lat="43.15586333" lon="-6.94881667">
        <ele>993.0</ele>
        <time>2022-06-19T09:06:29.705Z</time>
      </trkpt>
      <trkpt lat="43.15586333" lon="-6.94881667">
        <ele>993.0</ele>
        <time>2022-06-19T09:06:30.698Z</time>
      </trkpt>
      <trkpt lat="43.15586333" lon="-6.94881667">
        <ele>993.0</ele>
        <time>2022-06-19T09:06:31.709Z</time>
      </trkpt>
      <trkpt lat="43.15586333" lon="-6.94881667">
        <ele>993.0</ele>
        <time>2022-06-19T09:06:32.717Z</time>
      </trkpt>
      <trkpt lat="43.15586333" lon="-6.94881667">
        <ele>993.0</ele>
        <time>2022-06-19T09:06:33.682Z</time>
      </trkpt>
      <trkpt lat="43.15586333" lon="-6.94881667">
        <ele>993.0</ele>
        <time>2022-06-19T09:06:34.700Z</time>
      </trkpt>
      <trkpt lat="43.15586333" lon="-6.94881667">
        <ele>993.0</ele>
        <time>2022-06-19T09:06:35.721Z</time>
      </trkpt>
      <trkpt lat="43.15586333" lon="-6.94881667">
        <ele>993.0</ele>
        <time>2022-06-19T09:06:36.691Z</time>
      </trkpt>
      <trkpt lat="43.15586333" lon="-6.94881667">
        <ele>993.0</ele>
        <time>2022-06-19T09:06:37.698Z</time>
      </trkpt>
      <trkpt lat="43.15586333" lon="-6.94881667">
        <ele>993.0</ele>
        <time>2022-06-19T09:06:38.722Z</time>
      </trkpt>
      <trkpt lat="43.15586333" lon="-6.94881667">
        <ele>993.0</ele>
        <time>2022-06-19T09:06:39.713Z</time>
      </trkpt>
      <trkpt lat="43.15586333" lon="-6.94881667">
        <ele>993.0</ele>
        <time>2022-06-19T09:06:40.804Z</time>
      </trkpt>
      <trkpt lat="43.15586333" lon="-6.94881667">
        <ele>993.0</ele>
        <time>2022-06-19T09:06:41.702Z</time>
      </trkpt>
      <trkpt lat="43.15586333" lon="-6.94881667">
        <ele>993.0</ele>
        <time>2022-06-19T09:06:42.714Z</time>
      </trkpt>
      <trkpt lat="43.15586333" lon="-6.94881667">
        <ele>993.0</ele>
        <time>2022-06-19T09:06:43.716Z</time>
      </trkpt>
      <trkpt lat="43.15586333" lon="-6.94881667">
        <ele>993.0</ele>
        <time>2022-06-19T09:06:44.720Z</time>
      </trkpt>
      <trkpt lat="43.15586333" lon="-6.94881667">
        <ele>993.0</ele>
        <time>2022-06-19T09:06:45.689Z</time>
      </trkpt>
      <trkpt lat="43.15586333" lon="-6.94881667">
        <ele>993.0</ele>
        <time>2022-06-19T09:06:46.689Z</time>
      </trkpt>
      <trkpt lat="43.15586333" lon="-6.94881667">
        <ele>993.0</ele>
        <time>2022-06-19T09:06:47.682Z</time>
      </trkpt>
      <trkpt lat="43.15586333" lon="-6.94881667">
        <ele>993.0</ele>
        <time>2022-06-19T09:06:48.708Z</time>
      </trkpt>
      <trkpt lat="43.15586333" lon="-6.94881667">
        <ele>993.0</ele>
        <time>2022-06-19T09:06:49.695Z</time>
      </trkpt>
      <trkpt lat="43.15586333" lon="-6.94881667">
        <ele>993.0</ele>
        <time>2022-06-19T09:06:50.702Z</time>
      </trkpt>
      <trkpt lat="43.15586333" lon="-6.94881667">
        <ele>993.0</ele>
        <time>2022-06-19T09:06:51.718Z</time>
      </trkpt>
      <trkpt lat="43.15586333" lon="-6.94881667">
        <ele>993.0</ele>
        <time>2022-06-19T09:06:52.762Z</time>
      </trkpt>
      <trkpt lat="43.15586333" lon="-6.94881667">
        <ele>993.0</ele>
        <time>2022-06-19T09:06:53.713Z</time>
      </trkpt>
      <trkpt lat="43.15586333" lon="-6.94881667">
        <ele>993.0</ele>
        <time>2022-06-19T09:06:54.702Z</time>
      </trkpt>
      <trkpt lat="43.15586333" lon="-6.94881667">
        <ele>993.0</ele>
        <time>2022-06-19T09:06:55.719Z</time>
      </trkpt>
      <trkpt lat="43.15586333" lon="-6.94881667">
        <ele>993.0</ele>
        <time>2022-06-19T09:06:56.720Z</time>
      </trkpt>
      <trkpt lat="43.15586333" lon="-6.94881667">
        <ele>993.0</ele>
        <time>2022-06-19T09:06:57.721Z</time>
      </trkpt>
      <trkpt lat="43.15586333" lon="-6.94881667">
        <ele>993.0</ele>
        <time>2022-06-19T09:06:58.687Z</time>
      </trkpt>
      <trkpt lat="43.15586333" lon="-6.94881667">
        <ele>993.0</ele>
        <time>2022-06-19T09:06:59.701Z</time>
      </trkpt>
      <trkpt lat="43.15586333" lon="-6.94881667">
        <ele>993.0</ele>
        <time>2022-06-19T09:07:00.714Z</time>
      </trkpt>
      <trkpt lat="43.15586333" lon="-6.94881667">
        <ele>993.0</ele>
        <time>2022-06-19T09:07:01.721Z</time>
      </trkpt>
      <trkpt lat="43.15586333" lon="-6.94881667">
        <ele>993.0</ele>
        <time>2022-06-19T09:07:02.709Z</time>
      </trkpt>
      <trkpt lat="43.15589167" lon="-6.94882833">
        <ele>992.0</ele>
        <time>2022-06-19T09:07:03.708Z</time>
      </trkpt>
      <trkpt lat="43.15589167" lon="-6.94882833">
        <ele>992.0</ele>
        <time>2022-06-19T09:07:04.703Z</time>
      </trkpt>
      <trkpt lat="43.15593667" lon="-6.948795">
        <ele>992.0</ele>
        <time>2022-06-19T09:07:05.713Z</time>
      </trkpt>
      <trkpt lat="43.15593667" lon="-6.948795">
        <ele>992.0</ele>
        <time>2022-06-19T09:07:06.719Z</time>
      </trkpt>
      <trkpt lat="43.155975" lon="-6.94875833">
        <ele>992.0</ele>
        <time>2022-06-19T09:07:07.687Z</time>
      </trkpt>
      <trkpt lat="43.155975" lon="-6.94875833">
        <ele>992.0</ele>
        <time>2022-06-19T09:07:08.697Z</time>
      </trkpt>
      <trkpt lat="43.15600833" lon="-6.94872333">
        <ele>993.0</ele>
        <time>2022-06-19T09:07:09.722Z</time>
      </trkpt>
      <trkpt lat="43.15600833" lon="-6.94872333">
        <ele>993.0</ele>
        <time>2022-06-19T09:07:10.687Z</time>
      </trkpt>
      <trkpt lat="43.15605167" lon="-6.948695">
        <ele>993.0</ele>
        <time>2022-06-19T09:07:11.693Z</time>
      </trkpt>
      <trkpt lat="43.15605167" lon="-6.948695">
        <ele>993.0</ele>
        <time>2022-06-19T09:07:12.702Z</time>
      </trkpt>
      <trkpt lat="43.15609333" lon="-6.948685">
        <ele>993.0</ele>
        <time>2022-06-19T09:07:13.684Z</time>
      </trkpt>
      <trkpt lat="43.15609333" lon="-6.948685">
        <ele>993.0</ele>
        <time>2022-06-19T09:07:14.689Z</time>
      </trkpt>
      <trkpt lat="43.15614167" lon="-6.94868">
        <ele>994.0</ele>
        <time>2022-06-19T09:07:15.688Z</time>
      </trkpt>
      <trkpt lat="43.15614167" lon="-6.94868">
        <ele>994.0</ele>
        <time>2022-06-19T09:07:16.695Z</time>
      </trkpt>
      <trkpt lat="43.156185" lon="-6.9487">
        <ele>994.0</ele>
        <time>2022-06-19T09:07:17.703Z</time>
      </trkpt>
      <trkpt lat="43.156185" lon="-6.9487">
        <ele>994.0</ele>
        <time>2022-06-19T09:07:18.708Z</time>
      </trkpt>
      <trkpt lat="43.15621333" lon="-6.94875167">
        <ele>995.0</ele>
        <time>2022-06-19T09:07:19.692Z</time>
      </trkpt>
      <trkpt lat="43.15621333" lon="-6.94875167">
        <ele>995.0</ele>
        <time>2022-06-19T09:07:20.698Z</time>
      </trkpt>
      <trkpt lat="43.156235" lon="-6.94881167">
        <ele>995.0</ele>
        <time>2022-06-19T09:07:21.841Z</time>
      </trkpt>
      <trkpt lat="43.156235" lon="-6.94881167">
        <ele>995.0</ele>
        <time>2022-06-19T09:07:22.684Z</time>
      </trkpt>
      <trkpt lat="43.156255" lon="-6.94887">
        <ele>996.0</ele>
        <time>2022-06-19T09:07:23.682Z</time>
      </trkpt>
      <trkpt lat="43.156265" lon="-6.94889667">
        <ele>997.0</ele>
        <time>2022-06-19T09:07:24.710Z</time>
      </trkpt>
      <trkpt lat="43.15627333" lon="-6.94892333">
        <ele>997.0</ele>
        <time>2022-06-19T09:07:25.702Z</time>
      </trkpt>
      <trkpt lat="43.15627333" lon="-6.94892333">
        <ele>997.0</ele>
        <time>2022-06-19T09:07:26.708Z</time>
      </trkpt>
      <trkpt lat="43.156295" lon="-6.94898">
        <ele>998.0</ele>
        <time>2022-06-19T09:07:27.720Z</time>
      </trkpt>
      <trkpt lat="43.156295" lon="-6.94898">
        <ele>998.0</ele>
        <time>2022-06-19T09:07:28.686Z</time>
      </trkpt>
      <trkpt lat="43.156315" lon="-6.94904">
        <ele>998.0</ele>
        <time>2022-06-19T09:07:29.682Z</time>
      </trkpt>
      <trkpt lat="43.156315" lon="-6.94904">
        <ele>998.0</ele>
        <time>2022-06-19T09:07:30.688Z</time>
      </trkpt>
      <trkpt lat="43.15633667" lon="-6.94910167">
        <ele>998.0</ele>
        <time>2022-06-19T09:07:31.705Z</time>
      </trkpt>
      <trkpt lat="43.15633667" lon="-6.94910167">
        <ele>998.0</ele>
        <time>2022-06-19T09:07:32.713Z</time>
      </trkpt>
      <trkpt lat="43.156355" lon="-6.94916">
        <ele>998.0</ele>
        <time>2022-06-19T09:07:33.717Z</time>
      </trkpt>
      <trkpt lat="43.156365" lon="-6.94919">
        <ele>998.0</ele>
        <time>2022-06-19T09:07:34.706Z</time>
      </trkpt>
      <trkpt lat="43.156365" lon="-6.94919">
        <ele>998.0</ele>
        <time>2022-06-19T09:07:35.712Z</time>
      </trkpt>
      <trkpt lat="43.15639167" lon="-6.94925333">
        <ele>999.0</ele>
        <time>2022-06-19T09:07:36.717Z</time>
      </trkpt>
      <trkpt lat="43.156405" lon="-6.94928333">
        <ele>999.0</ele>
        <time>2022-06-19T09:07:37.717Z</time>
      </trkpt>
      <trkpt lat="43.156405" lon="-6.94928333">
        <ele>999.0</ele>
        <time>2022-06-19T09:07:38.706Z</time>
      </trkpt>
      <trkpt lat="43.15643" lon="-6.94935">
        <ele>999.0</ele>
        <time>2022-06-19T09:07:39.688Z</time>
      </trkpt>
      <trkpt lat="43.15643" lon="-6.94935">
        <ele>999.0</ele>
        <time>2022-06-19T09:07:40.696Z</time>
      </trkpt>
      <trkpt lat="43.15645167" lon="-6.94941167">
        <ele>1000.0</ele>
        <time>2022-06-19T09:07:41.707Z</time>
      </trkpt>
      <trkpt lat="43.15645167" lon="-6.94941167">
        <ele>1000.0</ele>
        <time>2022-06-19T09:07:42.712Z</time>
      </trkpt>
      <trkpt lat="43.15647333" lon="-6.949475">
        <ele>1000.0</ele>
        <time>2022-06-19T09:07:43.710Z</time>
      </trkpt>
      <trkpt lat="43.15647333" lon="-6.949475">
        <ele>1000.0</ele>
        <time>2022-06-19T09:07:44.706Z</time>
      </trkpt>
      <trkpt lat="43.15650167" lon="-6.94954">
        <ele>1000.0</ele>
        <time>2022-06-19T09:07:45.705Z</time>
      </trkpt>
      <trkpt lat="43.15650167" lon="-6.94954">
        <ele>1000.0</ele>
        <time>2022-06-19T09:07:46.710Z</time>
      </trkpt>
      <trkpt lat="43.15652833" lon="-6.949605">
        <ele>1001.0</ele>
        <time>2022-06-19T09:07:47.717Z</time>
      </trkpt>
      <trkpt lat="43.15652833" lon="-6.949605">
        <ele>1001.0</ele>
        <time>2022-06-19T09:07:48.682Z</time>
      </trkpt>
      <trkpt lat="43.15655333" lon="-6.94966833">
        <ele>1002.0</ele>
        <time>2022-06-19T09:07:49.687Z</time>
      </trkpt>
      <trkpt lat="43.15655333" lon="-6.94966833">
        <ele>1002.0</ele>
        <time>2022-06-19T09:07:50.703Z</time>
      </trkpt>
      <trkpt lat="43.15657833" lon="-6.94973167">
        <ele>1002.0</ele>
        <time>2022-06-19T09:07:51.713Z</time>
      </trkpt>
      <trkpt lat="43.15657833" lon="-6.94973167">
        <ele>1002.0</ele>
        <time>2022-06-19T09:07:52.722Z</time>
      </trkpt>
      <trkpt lat="43.15660167" lon="-6.94979167">
        <ele>1003.0</ele>
        <time>2022-06-19T09:07:53.691Z</time>
      </trkpt>
      <trkpt lat="43.15660167" lon="-6.94979167">
        <ele>1003.0</ele>
        <time>2022-06-19T09:07:54.700Z</time>
      </trkpt>
      <trkpt lat="43.15662667" lon="-6.94985667">
        <ele>1003.0</ele>
        <time>2022-06-19T09:07:55.712Z</time>
      </trkpt>
      <trkpt lat="43.15662667" lon="-6.94985667">
        <ele>1003.0</ele>
        <time>2022-06-19T09:07:56.717Z</time>
      </trkpt>
      <trkpt lat="43.15665" lon="-6.94992167">
        <ele>1003.0</ele>
        <time>2022-06-19T09:07:57.688Z</time>
      </trkpt>
      <trkpt lat="43.15666333" lon="-6.94995333">
        <ele>1003.0</ele>
        <time>2022-06-19T09:07:58.695Z</time>
      </trkpt>
      <trkpt lat="43.15667333" lon="-6.94998667">
        <ele>1003.0</ele>
        <time>2022-06-19T09:07:59.707Z</time>
      </trkpt>
      <trkpt lat="43.15667333" lon="-6.94998667">
        <ele>1003.0</ele>
        <time>2022-06-19T09:08:00.716Z</time>
      </trkpt>
      <trkpt lat="43.15669667" lon="-6.95005">
        <ele>1003.0</ele>
        <time>2022-06-19T09:08:01.706Z</time>
      </trkpt>
      <trkpt lat="43.15669667" lon="-6.95005">
        <ele>1003.0</ele>
        <time>2022-06-19T09:08:02.712Z</time>
      </trkpt>
      <trkpt lat="43.15672" lon="-6.95011167">
        <ele>1003.0</ele>
        <time>2022-06-19T09:08:03.684Z</time>
      </trkpt>
      <trkpt lat="43.15673167" lon="-6.95014167">
        <ele>1003.0</ele>
        <time>2022-06-19T09:08:04.711Z</time>
      </trkpt>
      <trkpt lat="43.15673167" lon="-6.95014167">
        <ele>1003.0</ele>
        <time>2022-06-19T09:08:05.718Z</time>
      </trkpt>
      <trkpt lat="43.15675833" lon="-6.950205">
        <ele>1003.0</ele>
        <time>2022-06-19T09:08:06.694Z</time>
      </trkpt>
      <trkpt lat="43.15677167" lon="-6.95024">
        <ele>1003.0</ele>
        <time>2022-06-19T09:08:07.689Z</time>
      </trkpt>
      <trkpt lat="43.15677167" lon="-6.95024">
        <ele>1003.0</ele>
        <time>2022-06-19T09:08:08.696Z</time>
      </trkpt>
      <trkpt lat="43.15679833" lon="-6.950305">
        <ele>1003.0</ele>
        <time>2022-06-19T09:08:09.705Z</time>
      </trkpt>
      <trkpt lat="43.15679833" lon="-6.950305">
        <ele>1003.0</ele>
        <time>2022-06-19T09:08:10.711Z</time>
      </trkpt>
      <trkpt lat="43.15682333" lon="-6.95037">
        <ele>1003.0</ele>
        <time>2022-06-19T09:08:11.697Z</time>
      </trkpt>
      <trkpt lat="43.15682333" lon="-6.95037">
        <ele>1003.0</ele>
        <time>2022-06-19T09:08:12.712Z</time>
      </trkpt>
      <trkpt lat="43.15685167" lon="-6.950435">
        <ele>1003.0</ele>
        <time>2022-06-19T09:08:13.708Z</time>
      </trkpt>
      <trkpt lat="43.15685167" lon="-6.950435">
        <ele>1003.0</ele>
        <time>2022-06-19T09:08:14.714Z</time>
      </trkpt>
      <trkpt lat="43.15688" lon="-6.95049833">
        <ele>1003.0</ele>
        <time>2022-06-19T09:08:15.702Z</time>
      </trkpt>
      <trkpt lat="43.15688" lon="-6.95049833">
        <ele>1003.0</ele>
        <time>2022-06-19T09:08:16.708Z</time>
      </trkpt>
      <trkpt lat="43.15691167" lon="-6.95056">
        <ele>1004.0</ele>
        <time>2022-06-19T09:08:17.717Z</time>
      </trkpt>
      <trkpt lat="43.15691167" lon="-6.95056">
        <ele>1004.0</ele>
        <time>2022-06-19T09:08:18.682Z</time>
      </trkpt>
      <trkpt lat="43.15694" lon="-6.95062333">
        <ele>1003.0</ele>
        <time>2022-06-19T09:08:19.703Z</time>
      </trkpt>
      <trkpt lat="43.15694" lon="-6.95062333">
        <ele>1003.0</ele>
        <time>2022-06-19T09:08:20.712Z</time>
      </trkpt>
      <trkpt lat="43.15697" lon="-6.950685">
        <ele>1003.0</ele>
        <time>2022-06-19T09:08:21.720Z</time>
      </trkpt>
      <trkpt lat="43.15697" lon="-6.950685">
        <ele>1003.0</ele>
        <time>2022-06-19T09:08:22.685Z</time>
      </trkpt>
      <trkpt lat="43.15700167" lon="-6.95074333">
        <ele>1004.0</ele>
        <time>2022-06-19T09:08:23.696Z</time>
      </trkpt>
      <trkpt lat="43.15701667" lon="-6.95077167">
        <ele>1004.0</ele>
        <time>2022-06-19T09:08:24.697Z</time>
      </trkpt>
      <trkpt lat="43.15703167" lon="-6.95079667">
        <ele>1004.0</ele>
        <time>2022-06-19T09:08:25.687Z</time>
      </trkpt>
      <trkpt lat="43.15703167" lon="-6.95079667">
        <ele>1004.0</ele>
        <time>2022-06-19T09:08:26.707Z</time>
      </trkpt>
      <trkpt lat="43.15706333" lon="-6.95085167">
        <ele>1004.0</ele>
        <time>2022-06-19T09:08:27.705Z</time>
      </trkpt>
      <trkpt lat="43.15706333" lon="-6.95085167">
        <ele>1004.0</ele>
        <time>2022-06-19T09:08:28.685Z</time>
      </trkpt>
      <trkpt lat="43.157095" lon="-6.950905">
        <ele>1005.0</ele>
        <time>2022-06-19T09:08:29.701Z</time>
      </trkpt>
      <trkpt lat="43.157095" lon="-6.950905">
        <ele>1005.0</ele>
        <time>2022-06-19T09:08:30.706Z</time>
      </trkpt>
      <trkpt lat="43.15712667" lon="-6.95095667">
        <ele>1005.0</ele>
        <time>2022-06-19T09:08:31.718Z</time>
      </trkpt>
      <trkpt lat="43.15712667" lon="-6.95095667">
        <ele>1005.0</ele>
        <time>2022-06-19T09:08:32.684Z</time>
      </trkpt>
      <trkpt lat="43.157165" lon="-6.95101167">
        <ele>1004.0</ele>
        <time>2022-06-19T09:08:33.715Z</time>
      </trkpt>
      <trkpt lat="43.15718167" lon="-6.95103667">
        <ele>1005.0</ele>
        <time>2022-06-19T09:08:34.712Z</time>
      </trkpt>
      <trkpt lat="43.15718167" lon="-6.95103667">
        <ele>1005.0</ele>
        <time>2022-06-19T09:08:35.711Z</time>
      </trkpt>
      <trkpt lat="43.15721667" lon="-6.951085">
        <ele>1005.0</ele>
        <time>2022-06-19T09:08:36.704Z</time>
      </trkpt>
      <trkpt lat="43.15723833" lon="-6.95110667">
        <ele>1006.0</ele>
        <time>2022-06-19T09:08:37.701Z</time>
      </trkpt>
      <trkpt lat="43.15723833" lon="-6.95110667">
        <ele>1006.0</ele>
        <time>2022-06-19T09:08:38.685Z</time>
      </trkpt>
      <trkpt lat="43.15728" lon="-6.95115">
        <ele>1007.0</ele>
        <time>2022-06-19T09:08:39.698Z</time>
      </trkpt>
      <trkpt lat="43.15728" lon="-6.95115">
        <ele>1007.0</ele>
        <time>2022-06-19T09:08:40.714Z</time>
      </trkpt>
      <trkpt lat="43.157315" lon="-6.9512">
        <ele>1008.0</ele>
        <time>2022-06-19T09:08:41.699Z</time>
      </trkpt>
      <trkpt lat="43.15733333" lon="-6.95122333">
        <ele>1008.0</ele>
        <time>2022-06-19T09:08:42.717Z</time>
      </trkpt>
      <trkpt lat="43.15735" lon="-6.95124667">
        <ele>1009.0</ele>
        <time>2022-06-19T09:08:43.697Z</time>
      </trkpt>
      <trkpt lat="43.15735" lon="-6.95124667">
        <ele>1009.0</ele>
        <time>2022-06-19T09:08:44.703Z</time>
      </trkpt>
      <trkpt lat="43.157385" lon="-6.95129">
        <ele>1010.0</ele>
        <time>2022-06-19T09:08:45.715Z</time>
      </trkpt>
      <trkpt lat="43.157385" lon="-6.95129">
        <ele>1010.0</ele>
        <time>2022-06-19T09:08:46.720Z</time>
      </trkpt>
      <trkpt lat="43.15742167" lon="-6.95133333">
        <ele>1011.0</ele>
        <time>2022-06-19T09:08:47.697Z</time>
      </trkpt>
      <trkpt lat="43.15742167" lon="-6.95133333">
        <ele>1011.0</ele>
        <time>2022-06-19T09:08:48.712Z</time>
      </trkpt>
      <trkpt lat="43.15745833" lon="-6.951375">
        <ele>1011.0</ele>
        <time>2022-06-19T09:08:49.712Z</time>
      </trkpt>
      <trkpt lat="43.15745833" lon="-6.951375">
        <ele>1011.0</ele>
        <time>2022-06-19T09:08:50.714Z</time>
      </trkpt>
      <trkpt lat="43.15749667" lon="-6.95141167">
        <ele>1012.0</ele>
        <time>2022-06-19T09:08:51.692Z</time>
      </trkpt>
      <trkpt lat="43.15749667" lon="-6.95141167">
        <ele>1012.0</ele>
        <time>2022-06-19T09:08:52.697Z</time>
      </trkpt>
      <trkpt lat="43.15753167" lon="-6.95144667">
        <ele>1013.0</ele>
        <time>2022-06-19T09:08:53.707Z</time>
      </trkpt>
      <trkpt lat="43.15753167" lon="-6.95144667">
        <ele>1013.0</ele>
        <time>2022-06-19T09:08:54.716Z</time>
      </trkpt>
      <trkpt lat="43.15757" lon="-6.95148167">
        <ele>1013.0</ele>
        <time>2022-06-19T09:08:55.693Z</time>
      </trkpt>
      <trkpt lat="43.15757" lon="-6.95148167">
        <ele>1013.0</ele>
        <time>2022-06-19T09:08:56.692Z</time>
      </trkpt>
      <trkpt lat="43.157605" lon="-6.95151833">
        <ele>1013.0</ele>
        <time>2022-06-19T09:08:57.706Z</time>
      </trkpt>
      <trkpt lat="43.157605" lon="-6.95151833">
        <ele>1013.0</ele>
        <time>2022-06-19T09:08:58.712Z</time>
      </trkpt>
      <trkpt lat="43.15764167" lon="-6.95156">
        <ele>1013.0</ele>
        <time>2022-06-19T09:08:59.714Z</time>
      </trkpt>
      <trkpt lat="43.15766" lon="-6.95157667">
        <ele>1013.0</ele>
        <time>2022-06-19T09:09:00.718Z</time>
      </trkpt>
      <trkpt lat="43.15766" lon="-6.95157667">
        <ele>1013.0</ele>
        <time>2022-06-19T09:09:01.685Z</time>
      </trkpt>
      <trkpt lat="43.15769833" lon="-6.951615">
        <ele>1014.0</ele>
        <time>2022-06-19T09:09:02.694Z</time>
      </trkpt>
      <trkpt lat="43.15769833" lon="-6.951615">
        <ele>1014.0</ele>
        <time>2022-06-19T09:09:03.714Z</time>
      </trkpt>
      <trkpt lat="43.15773667" lon="-6.951655">
        <ele>1015.0</ele>
        <time>2022-06-19T09:09:04.684Z</time>
      </trkpt>
      <trkpt lat="43.15773667" lon="-6.951655">
        <ele>1015.0</ele>
        <time>2022-06-19T09:09:05.689Z</time>
      </trkpt>
      <trkpt lat="43.157775" lon="-6.95169">
        <ele>1015.0</ele>
        <time>2022-06-19T09:09:06.696Z</time>
      </trkpt>
      <trkpt lat="43.15779333" lon="-6.95171167">
        <ele>1016.0</ele>
        <time>2022-06-19T09:09:07.683Z</time>
      </trkpt>
      <trkpt lat="43.15779333" lon="-6.95171167">
        <ele>1016.0</ele>
        <time>2022-06-19T09:09:08.689Z</time>
      </trkpt>
      <trkpt lat="43.15783" lon="-6.95175667">
        <ele>1017.0</ele>
        <time>2022-06-19T09:09:09.704Z</time>
      </trkpt>
      <trkpt lat="43.15783" lon="-6.95175667">
        <ele>1017.0</ele>
        <time>2022-06-19T09:09:10.709Z</time>
      </trkpt>
      <trkpt lat="43.15786667" lon="-6.95179833">
        <ele>1017.0</ele>
        <time>2022-06-19T09:09:11.703Z</time>
      </trkpt>
      <trkpt lat="43.15786667" lon="-6.95179833">
        <ele>1017.0</ele>
        <time>2022-06-19T09:09:12.721Z</time>
      </trkpt>
      <trkpt lat="43.15790333" lon="-6.95184833">
        <ele>1018.0</ele>
        <time>2022-06-19T09:09:13.715Z</time>
      </trkpt>
      <trkpt lat="43.15790333" lon="-6.95184833">
        <ele>1018.0</ele>
        <time>2022-06-19T09:09:14.706Z</time>
      </trkpt>
      <trkpt lat="43.15793833" lon="-6.95189167">
        <ele>1018.0</ele>
        <time>2022-06-19T09:09:15.698Z</time>
      </trkpt>
      <trkpt lat="43.15793833" lon="-6.95189167">
        <ele>1018.0</ele>
        <time>2022-06-19T09:09:16.704Z</time>
      </trkpt>
      <trkpt lat="43.157975" lon="-6.951935">
        <ele>1019.0</ele>
        <time>2022-06-19T09:09:17.698Z</time>
      </trkpt>
      <trkpt lat="43.15799" lon="-6.95195833">
        <ele>1020.0</ele>
        <time>2022-06-19T09:09:18.707Z</time>
      </trkpt>
      <trkpt lat="43.15799" lon="-6.95195833">
        <ele>1020.0</ele>
        <time>2022-06-19T09:09:19.709Z</time>
      </trkpt>
      <trkpt lat="43.15802167" lon="-6.95200333">
        <ele>1022.0</ele>
        <time>2022-06-19T09:09:20.699Z</time>
      </trkpt>
      <trkpt lat="43.15802167" lon="-6.95200333">
        <ele>1022.0</ele>
        <time>2022-06-19T09:09:21.705Z</time>
      </trkpt>
      <trkpt lat="43.158045" lon="-6.95205167">
        <ele>1024.0</ele>
        <time>2022-06-19T09:09:22.720Z</time>
      </trkpt>
      <trkpt lat="43.158045" lon="-6.95205167">
        <ele>1024.0</ele>
        <time>2022-06-19T09:09:23.685Z</time>
      </trkpt>
      <trkpt lat="43.15807167" lon="-6.952095">
        <ele>1025.0</ele>
        <time>2022-06-19T09:09:24.688Z</time>
      </trkpt>
      <trkpt lat="43.15807167" lon="-6.952095">
        <ele>1025.0</ele>
        <time>2022-06-19T09:09:25.697Z</time>
      </trkpt>
      <trkpt lat="43.15809667" lon="-6.95214333">
        <ele>1026.0</ele>
        <time>2022-06-19T09:09:26.713Z</time>
      </trkpt>
      <trkpt lat="43.15811" lon="-6.952165">
        <ele>1026.0</ele>
        <time>2022-06-19T09:09:27.704Z</time>
      </trkpt>
      <trkpt lat="43.15812" lon="-6.95218833">
        <ele>1026.0</ele>
        <time>2022-06-19T09:09:28.713Z</time>
      </trkpt>
      <trkpt lat="43.15812" lon="-6.95218833">
        <ele>1026.0</ele>
        <time>2022-06-19T09:09:29.719Z</time>
      </trkpt>
      <trkpt lat="43.158145" lon="-6.95223833">
        <ele>1025.0</ele>
        <time>2022-06-19T09:09:30.706Z</time>
      </trkpt>
      <trkpt lat="43.158155" lon="-6.95226167">
        <ele>1025.0</ele>
        <time>2022-06-19T09:09:31.691Z</time>
      </trkpt>
      <trkpt lat="43.158155" lon="-6.95226167">
        <ele>1025.0</ele>
        <time>2022-06-19T09:09:32.696Z</time>
      </trkpt>
      <trkpt lat="43.15817333" lon="-6.952315">
        <ele>1026.0</ele>
        <time>2022-06-19T09:09:33.720Z</time>
      </trkpt>
      <trkpt lat="43.15817333" lon="-6.952315">
        <ele>1026.0</ele>
        <time>2022-06-19T09:09:34.690Z</time>
      </trkpt>
      <trkpt lat="43.15819" lon="-6.95237">
        <ele>1026.0</ele>
        <time>2022-06-19T09:09:35.686Z</time>
      </trkpt>
      <trkpt lat="43.15819" lon="-6.95237">
        <ele>1026.0</ele>
        <time>2022-06-19T09:09:36.716Z</time>
      </trkpt>
      <trkpt lat="43.1582" lon="-6.95243">
        <ele>1027.0</ele>
        <time>2022-06-19T09:09:37.697Z</time>
      </trkpt>
      <trkpt lat="43.1582" lon="-6.95243">
        <ele>1027.0</ele>
        <time>2022-06-19T09:09:38.713Z</time>
      </trkpt>
      <trkpt lat="43.15820667" lon="-6.95249833">
        <ele>1027.0</ele>
        <time>2022-06-19T09:09:39.688Z</time>
      </trkpt>
      <trkpt lat="43.15820667" lon="-6.95249833">
        <ele>1027.0</ele>
        <time>2022-06-19T09:09:40.694Z</time>
      </trkpt>
      <trkpt lat="43.15821" lon="-6.952565">
        <ele>1027.0</ele>
        <time>2022-06-19T09:09:41.704Z</time>
      </trkpt>
      <trkpt lat="43.158215" lon="-6.95260167">
        <ele>1027.0</ele>
        <time>2022-06-19T09:09:42.686Z</time>
      </trkpt>
      <trkpt lat="43.158215" lon="-6.95260167">
        <ele>1027.0</ele>
        <time>2022-06-19T09:09:43.702Z</time>
      </trkpt>
      <trkpt lat="43.15822" lon="-6.95267">
        <ele>1028.0</ele>
        <time>2022-06-19T09:09:44.701Z</time>
      </trkpt>
      <trkpt lat="43.15822" lon="-6.95267">
        <ele>1028.0</ele>
        <time>2022-06-19T09:09:45.708Z</time>
      </trkpt>
      <trkpt lat="43.158225" lon="-6.95273667">
        <ele>1028.0</ele>
        <time>2022-06-19T09:09:46.692Z</time>
      </trkpt>
      <trkpt lat="43.15822333" lon="-6.95277167">
        <ele>1028.0</ele>
        <time>2022-06-19T09:09:47.719Z</time>
      </trkpt>
      <trkpt lat="43.15821667" lon="-6.952805">
        <ele>1028.0</ele>
        <time>2022-06-19T09:09:48.701Z</time>
      </trkpt>
      <trkpt lat="43.15821667" lon="-6.952805">
        <ele>1028.0</ele>
        <time>2022-06-19T09:09:49.707Z</time>
      </trkpt>
      <trkpt lat="43.15820833" lon="-6.95287667">
        <ele>1028.0</ele>
        <time>2022-06-19T09:09:50.690Z</time>
      </trkpt>
      <trkpt lat="43.15820833" lon="-6.95287667">
        <ele>1028.0</ele>
        <time>2022-06-19T09:09:51.683Z</time>
      </trkpt>
      <trkpt lat="43.15819" lon="-6.95294833">
        <ele>1028.0</ele>
        <time>2022-06-19T09:09:52.708Z</time>
      </trkpt>
      <trkpt lat="43.15819" lon="-6.95294833">
        <ele>1028.0</ele>
        <time>2022-06-19T09:09:53.714Z</time>
      </trkpt>
      <trkpt lat="43.15816667" lon="-6.95302167">
        <ele>1028.0</ele>
        <time>2022-06-19T09:09:54.698Z</time>
      </trkpt>
      <trkpt lat="43.158155" lon="-6.95305667">
        <ele>1028.0</ele>
        <time>2022-06-19T09:09:55.692Z</time>
      </trkpt>
      <trkpt lat="43.158155" lon="-6.95305667">
        <ele>1028.0</ele>
        <time>2022-06-19T09:09:56.700Z</time>
      </trkpt>
      <trkpt lat="43.15812667" lon="-6.953125">
        <ele>1028.0</ele>
        <time>2022-06-19T09:09:57.697Z</time>
      </trkpt>
      <trkpt lat="43.15811167" lon="-6.95316167">
        <ele>1028.0</ele>
        <time>2022-06-19T09:09:58.702Z</time>
      </trkpt>
      <trkpt lat="43.15811167" lon="-6.95316167">
        <ele>1028.0</ele>
        <time>2022-06-19T09:09:59.707Z</time>
      </trkpt>
      <trkpt lat="43.15808333" lon="-6.95323333">
        <ele>1028.0</ele>
        <time>2022-06-19T09:10:00.712Z</time>
      </trkpt>
      <trkpt lat="43.15808333" lon="-6.95323333">
        <ele>1028.0</ele>
        <time>2022-06-19T09:10:01.717Z</time>
      </trkpt>
      <trkpt lat="43.15805" lon="-6.953305">
        <ele>1029.0</ele>
        <time>2022-06-19T09:10:02.697Z</time>
      </trkpt>
      <trkpt lat="43.15803167" lon="-6.95333833">
        <ele>1029.0</ele>
        <time>2022-06-19T09:10:03.691Z</time>
      </trkpt>
      <trkpt lat="43.15803167" lon="-6.95333833">
        <ele>1029.0</ele>
        <time>2022-06-19T09:10:04.697Z</time>
      </trkpt>
      <trkpt lat="43.15799" lon="-6.95340667">
        <ele>1029.0</ele>
        <time>2022-06-19T09:10:05.695Z</time>
      </trkpt>
      <trkpt lat="43.15799" lon="-6.95340667">
        <ele>1029.0</ele>
        <time>2022-06-19T09:10:06.701Z</time>
      </trkpt>
      <trkpt lat="43.15794833" lon="-6.953475">
        <ele>1029.0</ele>
        <time>2022-06-19T09:10:07.682Z</time>
      </trkpt>
      <trkpt lat="43.15792667" lon="-6.95350667">
        <ele>1029.0</ele>
        <time>2022-06-19T09:10:08.703Z</time>
      </trkpt>
      <trkpt lat="43.15792667" lon="-6.95350667">
        <ele>1029.0</ele>
        <time>2022-06-19T09:10:09.708Z</time>
      </trkpt>
      <trkpt lat="43.157885" lon="-6.95358333">
        <ele>1028.0</ele>
        <time>2022-06-19T09:10:10.693Z</time>
      </trkpt>
      <trkpt lat="43.157885" lon="-6.95358333">
        <ele>1028.0</ele>
        <time>2022-06-19T09:10:11.698Z</time>
      </trkpt>
      <trkpt lat="43.15785167" lon="-6.95363667">
        <ele>1027.0</ele>
        <time>2022-06-19T09:10:12.682Z</time>
      </trkpt>
      <trkpt lat="43.157845" lon="-6.953645">
        <ele>1027.0</ele>
        <time>2022-06-19T09:10:13.690Z</time>
      </trkpt>
      <trkpt lat="43.157845" lon="-6.953645">
        <ele>1027.0</ele>
        <time>2022-06-19T09:10:14.701Z</time>
      </trkpt>
      <trkpt lat="43.15784333" lon="-6.95364667">
        <ele>1027.0</ele>
        <time>2022-06-19T09:10:15.694Z</time>
      </trkpt>
      <trkpt lat="43.15784333" lon="-6.95364667">
        <ele>1027.0</ele>
        <time>2022-06-19T09:10:49.719Z</time>
      </trkpt>
      <trkpt lat="43.15784333" lon="-6.95364667">
        <ele>1027.0</ele>
        <time>2022-06-19T09:10:50.707Z</time>
      </trkpt>
      <trkpt lat="43.15775667" lon="-6.95365333">
        <ele>1025.0</ele>
        <time>2022-06-19T09:10:51.713Z</time>
      </trkpt>
      <trkpt lat="43.15775667" lon="-6.95365333">
        <ele>1025.0</ele>
        <time>2022-06-19T09:10:52.703Z</time>
      </trkpt>
      <trkpt lat="43.15771" lon="-6.95370167">
        <ele>1025.0</ele>
        <time>2022-06-19T09:10:53.706Z</time>
      </trkpt>
      <trkpt lat="43.15771" lon="-6.95370167">
        <ele>1025.0</ele>
        <time>2022-06-19T09:10:54.712Z</time>
      </trkpt>
      <trkpt lat="43.15767333" lon="-6.95377333">
        <ele>1026.0</ele>
        <time>2022-06-19T09:10:55.707Z</time>
      </trkpt>
      <trkpt lat="43.15767333" lon="-6.95377333">
        <ele>1026.0</ele>
        <time>2022-06-19T09:10:56.712Z</time>
      </trkpt>
      <trkpt lat="43.15762833" lon="-6.95384167">
        <ele>1026.0</ele>
        <time>2022-06-19T09:10:57.708Z</time>
      </trkpt>
      <trkpt lat="43.15760333" lon="-6.95387333">
        <ele>1026.0</ele>
        <time>2022-06-19T09:10:58.696Z</time>
      </trkpt>
      <trkpt lat="43.15760333" lon="-6.95387333">
        <ele>1026.0</ele>
        <time>2022-06-19T09:10:59.702Z</time>
      </trkpt>
      <trkpt lat="43.15755333" lon="-6.953935">
        <ele>1026.0</ele>
        <time>2022-06-19T09:11:00.708Z</time>
      </trkpt>
      <trkpt lat="43.157525" lon="-6.95396333">
        <ele>1027.0</ele>
        <time>2022-06-19T09:11:01.713Z</time>
      </trkpt>
      <trkpt lat="43.157525" lon="-6.95396333">
        <ele>1027.0</ele>
        <time>2022-06-19T09:11:02.718Z</time>
      </trkpt>
      <trkpt lat="43.157465" lon="-6.95402">
        <ele>1026.0</ele>
        <time>2022-06-19T09:11:03.697Z</time>
      </trkpt>
      <trkpt lat="43.157465" lon="-6.95402">
        <ele>1026.0</ele>
        <time>2022-06-19T09:11:04.703Z</time>
      </trkpt>
      <trkpt lat="43.15740333" lon="-6.95408">
        <ele>1027.0</ele>
        <time>2022-06-19T09:11:05.712Z</time>
      </trkpt>
      <trkpt lat="43.15740333" lon="-6.95408">
        <ele>1027.0</ele>
        <time>2022-06-19T09:11:06.718Z</time>
      </trkpt>
      <trkpt lat="43.15734333" lon="-6.95413833">
        <ele>1027.0</ele>
        <time>2022-06-19T09:11:07.696Z</time>
      </trkpt>
      <trkpt lat="43.15731" lon="-6.95416667">
        <ele>1027.0</ele>
        <time>2022-06-19T09:11:08.716Z</time>
      </trkpt>
      <trkpt lat="43.15731" lon="-6.95416667">
        <ele>1027.0</ele>
        <time>2022-06-19T09:11:09.721Z</time>
      </trkpt>
      <trkpt lat="43.15724167" lon="-6.95422">
        <ele>1026.0</ele>
        <time>2022-06-19T09:11:10.706Z</time>
      </trkpt>
      <trkpt lat="43.15724167" lon="-6.95422">
        <ele>1026.0</ele>
        <time>2022-06-19T09:11:11.713Z</time>
      </trkpt>
      <trkpt lat="43.15717667" lon="-6.95427333">
        <ele>1026.0</ele>
        <time>2022-06-19T09:11:12.706Z</time>
      </trkpt>
      <trkpt lat="43.15714167" lon="-6.95430167">
        <ele>1026.0</ele>
        <time>2022-06-19T09:11:13.694Z</time>
      </trkpt>
      <trkpt lat="43.15714167" lon="-6.95430167">
        <ele>1026.0</ele>
        <time>2022-06-19T09:11:14.700Z</time>
      </trkpt>
      <trkpt lat="43.15707833" lon="-6.95435667">
        <ele>1027.0</ele>
        <time>2022-06-19T09:11:15.698Z</time>
      </trkpt>
      <trkpt lat="43.15704333" lon="-6.954385">
        <ele>1027.0</ele>
        <time>2022-06-19T09:11:16.723Z</time>
      </trkpt>
      <trkpt lat="43.15704333" lon="-6.954385">
        <ele>1027.0</ele>
        <time>2022-06-19T09:11:17.690Z</time>
      </trkpt>
      <trkpt lat="43.15697333" lon="-6.95444833">
        <ele>1027.0</ele>
        <time>2022-06-19T09:11:18.718Z</time>
      </trkpt>
      <trkpt lat="43.15694" lon="-6.95448">
        <ele>1027.0</ele>
        <time>2022-06-19T09:11:19.711Z</time>
      </trkpt>
      <trkpt lat="43.15694" lon="-6.95448">
        <ele>1027.0</ele>
        <time>2022-06-19T09:11:20.717Z</time>
      </trkpt>
      <trkpt lat="43.15687167" lon="-6.954545">
        <ele>1027.0</ele>
        <time>2022-06-19T09:11:21.730Z</time>
      </trkpt>
      <trkpt lat="43.15687167" lon="-6.954545">
        <ele>1027.0</ele>
        <time>2022-06-19T09:11:22.698Z</time>
      </trkpt>
      <trkpt lat="43.156805" lon="-6.954615">
        <ele>1028.0</ele>
        <time>2022-06-19T09:11:23.698Z</time>
      </trkpt>
      <trkpt lat="43.15677167" lon="-6.95465167">
        <ele>1028.0</ele>
        <time>2022-06-19T09:11:24.720Z</time>
      </trkpt>
      <trkpt lat="43.15673833" lon="-6.95468833">
        <ele>1028.0</ele>
        <time>2022-06-19T09:11:25.711Z</time>
      </trkpt>
      <trkpt lat="43.15673833" lon="-6.95468833">
        <ele>1028.0</ele>
        <time>2022-06-19T09:11:26.716Z</time>
      </trkpt>
      <trkpt lat="43.15667333" lon="-6.95475333">
        <ele>1029.0</ele>
        <time>2022-06-19T09:11:27.708Z</time>
      </trkpt>
      <trkpt lat="43.15667333" lon="-6.95475333">
        <ele>1029.0</ele>
        <time>2022-06-19T09:11:28.696Z</time>
      </trkpt>
      <trkpt lat="43.15660833" lon="-6.95483333">
        <ele>1029.0</ele>
        <time>2022-06-19T09:11:29.690Z</time>
      </trkpt>
      <trkpt lat="43.15657167" lon="-6.954875">
        <ele>1029.0</ele>
        <time>2022-06-19T09:11:30.720Z</time>
      </trkpt>
      <trkpt lat="43.15657167" lon="-6.954875">
        <ele>1029.0</ele>
        <time>2022-06-19T09:11:31.726Z</time>
      </trkpt>
      <trkpt lat="43.156505" lon="-6.95495667">
        <ele>1029.0</ele>
        <time>2022-06-19T09:11:32.727Z</time>
      </trkpt>
      <trkpt lat="43.156505" lon="-6.95495667">
        <ele>1029.0</ele>
        <time>2022-06-19T09:11:33.693Z</time>
      </trkpt>
      <trkpt lat="43.15644667" lon="-6.95504333">
        <ele>1029.0</ele>
        <time>2022-06-19T09:11:34.710Z</time>
      </trkpt>
      <trkpt lat="43.15641667" lon="-6.95509">
        <ele>1029.0</ele>
        <time>2022-06-19T09:11:35.693Z</time>
      </trkpt>
      <trkpt lat="43.15641667" lon="-6.95509">
        <ele>1029.0</ele>
        <time>2022-06-19T09:11:36.700Z</time>
      </trkpt>
      <trkpt lat="43.15635667" lon="-6.95518167">
        <ele>1030.0</ele>
        <time>2022-06-19T09:11:37.723Z</time>
      </trkpt>
      <trkpt lat="43.15635667" lon="-6.95518167">
        <ele>1030.0</ele>
        <time>2022-06-19T09:11:38.688Z</time>
      </trkpt>
      <trkpt lat="43.15629667" lon="-6.95527333">
        <ele>1031.0</ele>
        <time>2022-06-19T09:11:39.722Z</time>
      </trkpt>
      <trkpt lat="43.15626667" lon="-6.95531667">
        <ele>1031.0</ele>
        <time>2022-06-19T09:11:40.689Z</time>
      </trkpt>
      <trkpt lat="43.15624" lon="-6.955365">
        <ele>1031.0</ele>
        <time>2022-06-19T09:11:41.725Z</time>
      </trkpt>
      <trkpt lat="43.15624" lon="-6.955365">
        <ele>1031.0</ele>
        <time>2022-06-19T09:11:42.695Z</time>
      </trkpt>
      <trkpt lat="43.15618667" lon="-6.955465">
        <ele>1031.0</ele>
        <time>2022-06-19T09:11:43.725Z</time>
      </trkpt>
      <trkpt lat="43.15618667" lon="-6.955465">
        <ele>1031.0</ele>
        <time>2022-06-19T09:11:44.692Z</time>
      </trkpt>
      <trkpt lat="43.15613667" lon="-6.95556333">
        <ele>1032.0</ele>
        <time>2022-06-19T09:11:45.723Z</time>
      </trkpt>
      <trkpt lat="43.15613667" lon="-6.95556333">
        <ele>1032.0</ele>
        <time>2022-06-19T09:11:46.689Z</time>
      </trkpt>
      <trkpt lat="43.15609167" lon="-6.95565167">
        <ele>1032.0</ele>
        <time>2022-06-19T09:11:47.696Z</time>
      </trkpt>
      <trkpt lat="43.15609167" lon="-6.95565167">
        <ele>1032.0</ele>
        <time>2022-06-19T09:11:48.701Z</time>
      </trkpt>
      <trkpt lat="43.15604833" lon="-6.95574167">
        <ele>1033.0</ele>
        <time>2022-06-19T09:11:49.727Z</time>
      </trkpt>
      <trkpt lat="43.15604833" lon="-6.95574167">
        <ele>1033.0</ele>
        <time>2022-06-19T09:11:50.697Z</time>
      </trkpt>
      <trkpt lat="43.15601167" lon="-6.95584333">
        <ele>1033.0</ele>
        <time>2022-06-19T09:11:51.701Z</time>
      </trkpt>
      <trkpt lat="43.15601167" lon="-6.95584333">
        <ele>1033.0</ele>
        <time>2022-06-19T09:11:52.716Z</time>
      </trkpt>
      <trkpt lat="43.15597833" lon="-6.95594167">
        <ele>1033.0</ele>
        <time>2022-06-19T09:11:53.706Z</time>
      </trkpt>
      <trkpt lat="43.15597833" lon="-6.95594167">
        <ele>1033.0</ele>
        <time>2022-06-19T09:11:54.711Z</time>
      </trkpt>
      <trkpt lat="43.155955" lon="-6.95605167">
        <ele>1033.0</ele>
        <time>2022-06-19T09:11:55.717Z</time>
      </trkpt>
      <trkpt lat="43.155955" lon="-6.95605167">
        <ele>1033.0</ele>
        <time>2022-06-19T09:11:56.725Z</time>
      </trkpt>
      <trkpt lat="43.15593" lon="-6.95616167">
        <ele>1033.0</ele>
        <time>2022-06-19T09:11:57.719Z</time>
      </trkpt>
      <trkpt lat="43.15593" lon="-6.95616167">
        <ele>1033.0</ele>
        <time>2022-06-19T09:11:58.725Z</time>
      </trkpt>
      <trkpt lat="43.155895" lon="-6.95627">
        <ele>1033.0</ele>
        <time>2022-06-19T09:11:59.717Z</time>
      </trkpt>
      <trkpt lat="43.15588" lon="-6.956325">
        <ele>1033.0</ele>
        <time>2022-06-19T09:12:00.689Z</time>
      </trkpt>
      <trkpt lat="43.15587" lon="-6.95638">
        <ele>1033.0</ele>
        <time>2022-06-19T09:12:01.727Z</time>
      </trkpt>
      <trkpt lat="43.15587" lon="-6.95638">
        <ele>1033.0</ele>
        <time>2022-06-19T09:12:02.699Z</time>
      </trkpt>
      <trkpt lat="43.15585" lon="-6.95649167">
        <ele>1034.0</ele>
        <time>2022-06-19T09:12:03.688Z</time>
      </trkpt>
      <trkpt lat="43.15584333" lon="-6.95654667">
        <ele>1034.0</ele>
        <time>2022-06-19T09:12:04.711Z</time>
      </trkpt>
      <trkpt lat="43.15584333" lon="-6.95654667">
        <ele>1034.0</ele>
        <time>2022-06-19T09:12:05.717Z</time>
      </trkpt>
      <trkpt lat="43.15582667" lon="-6.95665667">
        <ele>1034.0</ele>
        <time>2022-06-19T09:12:06.709Z</time>
      </trkpt>
      <trkpt lat="43.15581667" lon="-6.95671">
        <ele>1035.0</ele>
        <time>2022-06-19T09:12:07.696Z</time>
      </trkpt>
      <trkpt lat="43.15581667" lon="-6.95671">
        <ele>1035.0</ele>
        <time>2022-06-19T09:12:08.701Z</time>
      </trkpt>
      <trkpt lat="43.15578167" lon="-6.95681833">
        <ele>1035.0</ele>
        <time>2022-06-19T09:12:09.691Z</time>
      </trkpt>
      <trkpt lat="43.15578167" lon="-6.95681833">
        <ele>1035.0</ele>
        <time>2022-06-19T09:12:10.697Z</time>
      </trkpt>
      <trkpt lat="43.155755" lon="-6.95692">
        <ele>1035.0</ele>
        <time>2022-06-19T09:12:11.722Z</time>
      </trkpt>
      <trkpt lat="43.155755" lon="-6.95692">
        <ele>1035.0</ele>
        <time>2022-06-19T09:12:12.688Z</time>
      </trkpt>
      <trkpt lat="43.15572833" lon="-6.957015">
        <ele>1035.0</ele>
        <time>2022-06-19T09:12:13.721Z</time>
      </trkpt>
      <trkpt lat="43.15572833" lon="-6.957015">
        <ele>1035.0</ele>
        <time>2022-06-19T09:12:14.727Z</time>
      </trkpt>
      <trkpt lat="43.15569" lon="-6.95711">
        <ele>1036.0</ele>
        <time>2022-06-19T09:12:15.716Z</time>
      </trkpt>
      <trkpt lat="43.15567333" lon="-6.95715667">
        <ele>1035.0</ele>
        <time>2022-06-19T09:12:16.705Z</time>
      </trkpt>
      <trkpt lat="43.15565667" lon="-6.957205">
        <ele>1035.0</ele>
        <time>2022-06-19T09:12:17.691Z</time>
      </trkpt>
      <trkpt lat="43.15565667" lon="-6.957205">
        <ele>1035.0</ele>
        <time>2022-06-19T09:12:18.699Z</time>
      </trkpt>
      <trkpt lat="43.15563167" lon="-6.95730667">
        <ele>1035.0</ele>
        <time>2022-06-19T09:12:19.721Z</time>
      </trkpt>
      <trkpt lat="43.15563167" lon="-6.95730667">
        <ele>1035.0</ele>
        <time>2022-06-19T09:12:20.727Z</time>
      </trkpt>
      <trkpt lat="43.15560333" lon="-6.95741167">
        <ele>1036.0</ele>
        <time>2022-06-19T09:12:21.714Z</time>
      </trkpt>
      <trkpt lat="43.15558833" lon="-6.95746667">
        <ele>1036.0</ele>
        <time>2022-06-19T09:12:22.726Z</time>
      </trkpt>
      <trkpt lat="43.15558833" lon="-6.95746667">
        <ele>1036.0</ele>
        <time>2022-06-19T09:12:23.698Z</time>
      </trkpt>
      <trkpt lat="43.15555667" lon="-6.95758">
        <ele>1036.0</ele>
        <time>2022-06-19T09:12:24.726Z</time>
      </trkpt>
      <trkpt lat="43.155535" lon="-6.957635">
        <ele>1036.0</ele>
        <time>2022-06-19T09:12:25.705Z</time>
      </trkpt>
      <trkpt lat="43.155535" lon="-6.957635">
        <ele>1036.0</ele>
        <time>2022-06-19T09:12:26.711Z</time>
      </trkpt>
      <trkpt lat="43.15549667" lon="-6.957745">
        <ele>1036.0</ele>
        <time>2022-06-19T09:12:27.710Z</time>
      </trkpt>
      <trkpt lat="43.15549667" lon="-6.957745">
        <ele>1036.0</ele>
        <time>2022-06-19T09:12:28.715Z</time>
      </trkpt>
      <trkpt lat="43.15543333" lon="-6.95786167">
        <ele>1035.0</ele>
        <time>2022-06-19T09:12:29.702Z</time>
      </trkpt>
      <trkpt lat="43.15543333" lon="-6.95786167">
        <ele>1035.0</ele>
        <time>2022-06-19T09:12:30.707Z</time>
      </trkpt>
      <trkpt lat="43.155375" lon="-6.95796833">
        <ele>1035.0</ele>
        <time>2022-06-19T09:12:31.693Z</time>
      </trkpt>
      <trkpt lat="43.155375" lon="-6.95796833">
        <ele>1035.0</ele>
        <time>2022-06-19T09:12:32.699Z</time>
      </trkpt>
      <trkpt lat="43.15532333" lon="-6.958065">
        <ele>1034.0</ele>
        <time>2022-06-19T09:12:33.727Z</time>
      </trkpt>
      <trkpt lat="43.15532333" lon="-6.958065">
        <ele>1034.0</ele>
        <time>2022-06-19T09:12:34.694Z</time>
      </trkpt>
      <trkpt lat="43.15526833" lon="-6.95816333">
        <ele>1034.0</ele>
        <time>2022-06-19T09:12:35.719Z</time>
      </trkpt>
      <trkpt lat="43.155235" lon="-6.95820667">
        <ele>1033.0</ele>
        <time>2022-06-19T09:12:36.702Z</time>
      </trkpt>
      <trkpt lat="43.155235" lon="-6.95820667">
        <ele>1033.0</ele>
        <time>2022-06-19T09:12:37.707Z</time>
      </trkpt>
      <trkpt lat="43.15516" lon="-6.95829">
        <ele>1033.0</ele>
        <time>2022-06-19T09:12:38.702Z</time>
      </trkpt>
      <trkpt lat="43.15516" lon="-6.95829">
        <ele>1033.0</ele>
        <time>2022-06-19T09:12:39.707Z</time>
      </trkpt>
      <trkpt lat="43.15507667" lon="-6.95837">
        <ele>1032.0</ele>
        <time>2022-06-19T09:12:40.696Z</time>
      </trkpt>
      <trkpt lat="43.15507667" lon="-6.95837">
        <ele>1032.0</ele>
        <time>2022-06-19T09:12:41.702Z</time>
      </trkpt>
      <trkpt lat="43.15498167" lon="-6.95844">
        <ele>1031.0</ele>
        <time>2022-06-19T09:12:42.717Z</time>
      </trkpt>
      <trkpt lat="43.15498167" lon="-6.95844">
        <ele>1031.0</ele>
        <time>2022-06-19T09:12:43.722Z</time>
      </trkpt>
      <trkpt lat="43.15488" lon="-6.9585">
        <ele>1030.0</ele>
        <time>2022-06-19T09:12:44.717Z</time>
      </trkpt>
      <trkpt lat="43.15488" lon="-6.9585">
        <ele>1030.0</ele>
        <time>2022-06-19T09:12:45.723Z</time>
      </trkpt>
      <trkpt lat="43.15477167" lon="-6.958555">
        <ele>1029.0</ele>
        <time>2022-06-19T09:12:46.714Z</time>
      </trkpt>
      <trkpt lat="43.15477167" lon="-6.958555">
        <ele>1029.0</ele>
        <time>2022-06-19T09:12:47.720Z</time>
      </trkpt>
      <trkpt lat="43.15466" lon="-6.958605">
        <ele>1028.0</ele>
        <time>2022-06-19T09:12:48.696Z</time>
      </trkpt>
      <trkpt lat="43.15460167" lon="-6.958625">
        <ele>1028.0</ele>
        <time>2022-06-19T09:12:49.724Z</time>
      </trkpt>
      <trkpt lat="43.15460167" lon="-6.958625">
        <ele>1028.0</ele>
        <time>2022-06-19T09:12:50.690Z</time>
      </trkpt>
      <trkpt lat="43.15448667" lon="-6.958665">
        <ele>1027.0</ele>
        <time>2022-06-19T09:12:51.723Z</time>
      </trkpt>
      <trkpt lat="43.15442833" lon="-6.95868167">
        <ele>1026.0</ele>
        <time>2022-06-19T09:12:52.691Z</time>
      </trkpt>
      <trkpt lat="43.15442833" lon="-6.95868167">
        <ele>1026.0</ele>
        <time>2022-06-19T09:12:53.699Z</time>
      </trkpt>
      <trkpt lat="43.15431667" lon="-6.958705">
        <ele>1025.0</ele>
        <time>2022-06-19T09:12:54.689Z</time>
      </trkpt>
      <trkpt lat="43.15425333" lon="-6.95870833">
        <ele>1025.0</ele>
        <time>2022-06-19T09:12:55.724Z</time>
      </trkpt>
      <trkpt lat="43.15425333" lon="-6.95870833">
        <ele>1025.0</ele>
        <time>2022-06-19T09:12:56.690Z</time>
      </trkpt>
      <trkpt lat="43.15412333" lon="-6.95871833">
        <ele>1024.0</ele>
        <time>2022-06-19T09:12:57.710Z</time>
      </trkpt>
      <trkpt lat="43.154055" lon="-6.958725">
        <ele>1024.0</ele>
        <time>2022-06-19T09:12:58.689Z</time>
      </trkpt>
      <trkpt lat="43.154055" lon="-6.958725">
        <ele>1024.0</ele>
        <time>2022-06-19T09:12:59.710Z</time>
      </trkpt>
      <trkpt lat="43.15391667" lon="-6.95873">
        <ele>1023.0</ele>
        <time>2022-06-19T09:13:00.698Z</time>
      </trkpt>
      <trkpt lat="43.15384667" lon="-6.95872667">
        <ele>1022.0</ele>
        <time>2022-06-19T09:13:01.713Z</time>
      </trkpt>
      <trkpt lat="43.15384667" lon="-6.95872667">
        <ele>1022.0</ele>
        <time>2022-06-19T09:13:02.719Z</time>
      </trkpt>
      <trkpt lat="43.15370667" lon="-6.95871667">
        <ele>1021.0</ele>
        <time>2022-06-19T09:13:03.709Z</time>
      </trkpt>
      <trkpt lat="43.153635" lon="-6.95870833">
        <ele>1021.0</ele>
        <time>2022-06-19T09:13:04.711Z</time>
      </trkpt>
      <trkpt lat="43.15356" lon="-6.95870167">
        <ele>1020.0</ele>
        <time>2022-06-19T09:13:05.697Z</time>
      </trkpt>
      <trkpt lat="43.15356" lon="-6.95870167">
        <ele>1020.0</ele>
        <time>2022-06-19T09:13:06.703Z</time>
      </trkpt>
      <trkpt lat="43.15340833" lon="-6.95868667">
        <ele>1019.0</ele>
        <time>2022-06-19T09:13:07.720Z</time>
      </trkpt>
      <trkpt lat="43.15340833" lon="-6.95868667">
        <ele>1019.0</ele>
        <time>2022-06-19T09:13:08.700Z</time>
      </trkpt>
      <trkpt lat="43.153255" lon="-6.95866667">
        <ele>1018.0</ele>
        <time>2022-06-19T09:13:09.689Z</time>
      </trkpt>
      <trkpt lat="43.153255" lon="-6.95866667">
        <ele>1018.0</ele>
        <time>2022-06-19T09:13:10.699Z</time>
      </trkpt>
      <trkpt lat="43.15309" lon="-6.95864167">
        <ele>1017.0</ele>
        <time>2022-06-19T09:13:11.726Z</time>
      </trkpt>
      <trkpt lat="43.15309" lon="-6.95864167">
        <ele>1017.0</ele>
        <time>2022-06-19T09:13:12.693Z</time>
      </trkpt>
      <trkpt lat="43.15292167" lon="-6.95862667">
        <ele>1016.0</ele>
        <time>2022-06-19T09:13:13.717Z</time>
      </trkpt>
      <trkpt lat="43.15283" lon="-6.95862">
        <ele>1016.0</ele>
        <time>2022-06-19T09:13:14.711Z</time>
      </trkpt>
      <trkpt lat="43.15283" lon="-6.95862">
        <ele>1016.0</ele>
        <time>2022-06-19T09:13:15.716Z</time>
      </trkpt>
      <trkpt lat="43.15265167" lon="-6.95862667">
        <ele>1014.0</ele>
        <time>2022-06-19T09:13:16.716Z</time>
      </trkpt>
      <trkpt lat="43.152565" lon="-6.95863167">
        <ele>1014.0</ele>
        <time>2022-06-19T09:13:17.696Z</time>
      </trkpt>
      <trkpt lat="43.152565" lon="-6.95863167">
        <ele>1014.0</ele>
        <time>2022-06-19T09:13:18.701Z</time>
      </trkpt>
      <trkpt lat="43.15238167" lon="-6.95864167">
        <ele>1013.0</ele>
        <time>2022-06-19T09:13:19.726Z</time>
      </trkpt>
      <trkpt lat="43.15238167" lon="-6.95864167">
        <ele>1013.0</ele>
        <time>2022-06-19T09:13:20.697Z</time>
      </trkpt>
      <trkpt lat="43.15220833" lon="-6.958655">
        <ele>1011.0</ele>
        <time>2022-06-19T09:13:21.688Z</time>
      </trkpt>
      <trkpt lat="43.15220833" lon="-6.958655">
        <ele>1011.0</ele>
        <time>2022-06-19T09:13:22.694Z</time>
      </trkpt>
      <trkpt lat="43.15203167" lon="-6.958675">
        <ele>1010.0</ele>
        <time>2022-06-19T09:13:23.697Z</time>
      </trkpt>
      <trkpt lat="43.15203167" lon="-6.958675">
        <ele>1010.0</ele>
        <time>2022-06-19T09:13:24.702Z</time>
      </trkpt>
      <trkpt lat="43.15184667" lon="-6.95868333">
        <ele>1009.0</ele>
        <time>2022-06-19T09:13:25.700Z</time>
      </trkpt>
      <trkpt lat="43.15184667" lon="-6.95868333">
        <ele>1009.0</ele>
        <time>2022-06-19T09:13:26.706Z</time>
      </trkpt>
      <trkpt lat="43.151655" lon="-6.95870333">
        <ele>1008.0</ele>
        <time>2022-06-19T09:13:27.689Z</time>
      </trkpt>
      <trkpt lat="43.151655" lon="-6.95870333">
        <ele>1008.0</ele>
        <time>2022-06-19T09:13:28.703Z</time>
      </trkpt>
      <trkpt lat="43.15146167" lon="-6.95873333">
        <ele>1007.0</ele>
        <time>2022-06-19T09:13:29.716Z</time>
      </trkpt>
      <trkpt lat="43.15146167" lon="-6.95873333">
        <ele>1007.0</ele>
        <time>2022-06-19T09:13:30.721Z</time>
      </trkpt>
      <trkpt lat="43.15127833" lon="-6.958805">
        <ele>1005.0</ele>
        <time>2022-06-19T09:13:31.711Z</time>
      </trkpt>
      <trkpt lat="43.15118667" lon="-6.95886333">
        <ele>1005.0</ele>
        <time>2022-06-19T09:13:32.703Z</time>
      </trkpt>
      <trkpt lat="43.15118667" lon="-6.95886333">
        <ele>1005.0</ele>
        <time>2022-06-19T09:13:33.710Z</time>
      </trkpt>
      <trkpt lat="43.15101833" lon="-6.95902">
        <ele>1003.0</ele>
        <time>2022-06-19T09:13:34.691Z</time>
      </trkpt>
      <trkpt lat="43.15101833" lon="-6.95902">
        <ele>1003.0</ele>
        <time>2022-06-19T09:13:35.701Z</time>
      </trkpt>
      <trkpt lat="43.15087667" lon="-6.95923667">
        <ele>1002.0</ele>
        <time>2022-06-19T09:13:36.696Z</time>
      </trkpt>
      <trkpt lat="43.15087667" lon="-6.95923667">
        <ele>1002.0</ele>
        <time>2022-06-19T09:13:37.704Z</time>
      </trkpt>
      <trkpt lat="43.15077167" lon="-6.959505">
        <ele>1002.0</ele>
        <time>2022-06-19T09:13:38.703Z</time>
      </trkpt>
      <trkpt lat="43.15077167" lon="-6.959505">
        <ele>1002.0</ele>
        <time>2022-06-19T09:13:39.709Z</time>
      </trkpt>
      <trkpt lat="43.15071167" lon="-6.95978167">
        <ele>1001.0</ele>
        <time>2022-06-19T09:13:40.698Z</time>
      </trkpt>
      <trkpt lat="43.1507" lon="-6.95992167">
        <ele>1001.0</ele>
        <time>2022-06-19T09:13:41.697Z</time>
      </trkpt>
      <trkpt lat="43.1507" lon="-6.95992167">
        <ele>1001.0</ele>
        <time>2022-06-19T09:13:42.702Z</time>
      </trkpt>
      <trkpt lat="43.15070333" lon="-6.96017667">
        <ele>1001.0</ele>
        <time>2022-06-19T09:13:43.700Z</time>
      </trkpt>
      <trkpt lat="43.15070333" lon="-6.96017667">
        <ele>1001.0</ele>
        <time>2022-06-19T09:13:44.705Z</time>
      </trkpt>
      <trkpt lat="43.15075167" lon="-6.96040333">
        <ele>1001.0</ele>
        <time>2022-06-19T09:13:45.694Z</time>
      </trkpt>
      <trkpt lat="43.15075167" lon="-6.96040333">
        <ele>1001.0</ele>
        <time>2022-06-19T09:13:46.714Z</time>
      </trkpt>
      <trkpt lat="43.150845" lon="-6.96060667">
        <ele>1001.0</ele>
        <time>2022-06-19T09:13:47.705Z</time>
      </trkpt>
      <trkpt lat="43.150845" lon="-6.96060667">
        <ele>1001.0</ele>
        <time>2022-06-19T09:13:48.711Z</time>
      </trkpt>
      <trkpt lat="43.15095167" lon="-6.96076833">
        <ele>1001.0</ele>
        <time>2022-06-19T09:13:49.705Z</time>
      </trkpt>
      <trkpt lat="43.15095167" lon="-6.96076833">
        <ele>1001.0</ele>
        <time>2022-06-19T09:13:50.710Z</time>
      </trkpt>
      <trkpt lat="43.15107167" lon="-6.96089667">
        <ele>1001.0</ele>
        <time>2022-06-19T09:13:51.702Z</time>
      </trkpt>
      <trkpt lat="43.15107167" lon="-6.96089667">
        <ele>1001.0</ele>
        <time>2022-06-19T09:13:52.718Z</time>
      </trkpt>
      <trkpt lat="43.1512" lon="-6.96099167">
        <ele>1001.0</ele>
        <time>2022-06-19T09:13:53.699Z</time>
      </trkpt>
      <trkpt lat="43.1512" lon="-6.96099167">
        <ele>1001.0</ele>
        <time>2022-06-19T09:13:54.705Z</time>
      </trkpt>
      <trkpt lat="43.15132833" lon="-6.96106167">
        <ele>1001.0</ele>
        <time>2022-06-19T09:13:55.697Z</time>
      </trkpt>
      <trkpt lat="43.15132833" lon="-6.96106167">
        <ele>1001.0</ele>
        <time>2022-06-19T09:13:56.703Z</time>
      </trkpt>
      <trkpt lat="43.15145167" lon="-6.96112333">
        <ele>1001.0</ele>
        <time>2022-06-19T09:13:57.688Z</time>
      </trkpt>
      <trkpt lat="43.15145167" lon="-6.96112333">
        <ele>1001.0</ele>
        <time>2022-06-19T09:13:58.700Z</time>
      </trkpt>
      <trkpt lat="43.15156833" lon="-6.96118333">
        <ele>1001.0</ele>
        <time>2022-06-19T09:13:59.727Z</time>
      </trkpt>
      <trkpt lat="43.151625" lon="-6.96121">
        <ele>1000.0</ele>
        <time>2022-06-19T09:14:00.721Z</time>
      </trkpt>
      <trkpt lat="43.151625" lon="-6.96121">
        <ele>1000.0</ele>
        <time>2022-06-19T09:14:01.726Z</time>
      </trkpt>
      <trkpt lat="43.15172667" lon="-6.96127333">
        <ele>1001.0</ele>
        <time>2022-06-19T09:14:02.719Z</time>
      </trkpt>
      <trkpt lat="43.15177833" lon="-6.96131">
        <ele>1001.0</ele>
        <time>2022-06-19T09:14:03.716Z</time>
      </trkpt>
      <trkpt lat="43.15177833" lon="-6.96131">
        <ele>1001.0</ele>
        <time>2022-06-19T09:14:04.722Z</time>
      </trkpt>
      <trkpt lat="43.15188167" lon="-6.96139">
        <ele>1001.0</ele>
        <time>2022-06-19T09:14:05.708Z</time>
      </trkpt>
      <trkpt lat="43.15192833" lon="-6.961435">
        <ele>1001.0</ele>
        <time>2022-06-19T09:14:06.709Z</time>
      </trkpt>
      <trkpt lat="43.15197" lon="-6.961485">
        <ele>1002.0</ele>
        <time>2022-06-19T09:14:07.699Z</time>
      </trkpt>
      <trkpt lat="43.15197" lon="-6.961485">
        <ele>1002.0</ele>
        <time>2022-06-19T09:14:08.705Z</time>
      </trkpt>
      <trkpt lat="43.15204" lon="-6.96159833">
        <ele>1003.0</ele>
        <time>2022-06-19T09:14:09.704Z</time>
      </trkpt>
      <trkpt lat="43.15207667" lon="-6.96166167">
        <ele>1003.0</ele>
        <time>2022-06-19T09:14:10.727Z</time>
      </trkpt>
      <trkpt lat="43.15207667" lon="-6.96166167">
        <ele>1003.0</ele>
        <time>2022-06-19T09:14:11.703Z</time>
      </trkpt>
      <trkpt lat="43.15213333" lon="-6.9618">
        <ele>1004.0</ele>
        <time>2022-06-19T09:14:12.695Z</time>
      </trkpt>
      <trkpt lat="43.15215667" lon="-6.96187333">
        <ele>1004.0</ele>
        <time>2022-06-19T09:14:13.725Z</time>
      </trkpt>
      <trkpt lat="43.15215667" lon="-6.96187333">
        <ele>1004.0</ele>
        <time>2022-06-19T09:14:14.691Z</time>
      </trkpt>
      <trkpt lat="43.15219333" lon="-6.96202833">
        <ele>1004.0</ele>
        <time>2022-06-19T09:14:15.696Z</time>
      </trkpt>
      <trkpt lat="43.152215" lon="-6.96210833">
        <ele>1005.0</ele>
        <time>2022-06-19T09:14:16.727Z</time>
      </trkpt>
      <trkpt lat="43.152215" lon="-6.96210833">
        <ele>1005.0</ele>
        <time>2022-06-19T09:14:17.701Z</time>
      </trkpt>
      <trkpt lat="43.15226667" lon="-6.96227833">
        <ele>1005.0</ele>
        <time>2022-06-19T09:14:18.690Z</time>
      </trkpt>
      <trkpt lat="43.15226667" lon="-6.96227833">
        <ele>1005.0</ele>
        <time>2022-06-19T09:14:19.709Z</time>
      </trkpt>
      <trkpt lat="43.15230333" lon="-6.96244667">
        <ele>1005.0</ele>
        <time>2022-06-19T09:14:20.698Z</time>
      </trkpt>
      <trkpt lat="43.15230333" lon="-6.96244667">
        <ele>1005.0</ele>
        <time>2022-06-19T09:14:21.703Z</time>
      </trkpt>
      <trkpt lat="43.15233167" lon="-6.96260667">
        <ele>1005.0</ele>
        <time>2022-06-19T09:14:22.699Z</time>
      </trkpt>
      <trkpt lat="43.152345" lon="-6.96268667">
        <ele>1005.0</ele>
        <time>2022-06-19T09:14:23.715Z</time>
      </trkpt>
      <trkpt lat="43.152345" lon="-6.96268667">
        <ele>1005.0</ele>
        <time>2022-06-19T09:14:24.721Z</time>
      </trkpt>
      <trkpt lat="43.15237833" lon="-6.96285167">
        <ele>1005.0</ele>
        <time>2022-06-19T09:14:25.711Z</time>
      </trkpt>
      <trkpt lat="43.15237833" lon="-6.96285167">
        <ele>1005.0</ele>
        <time>2022-06-19T09:14:26.717Z</time>
      </trkpt>
      <trkpt lat="43.15241167" lon="-6.96302">
        <ele>1004.0</ele>
        <time>2022-06-19T09:14:27.701Z</time>
      </trkpt>
      <trkpt lat="43.15243333" lon="-6.96310167">
        <ele>1005.0</ele>
        <time>2022-06-19T09:14:28.695Z</time>
      </trkpt>
      <trkpt lat="43.15243333" lon="-6.96310167">
        <ele>1005.0</ele>
        <time>2022-06-19T09:14:29.701Z</time>
      </trkpt>
      <trkpt lat="43.15247167" lon="-6.963275">
        <ele>1004.0</ele>
        <time>2022-06-19T09:14:30.721Z</time>
      </trkpt>
      <trkpt lat="43.15247167" lon="-6.963275">
        <ele>1004.0</ele>
        <time>2022-06-19T09:14:31.727Z</time>
      </trkpt>
      <trkpt lat="43.15250833" lon="-6.96344833">
        <ele>1004.0</ele>
        <time>2022-06-19T09:14:32.715Z</time>
      </trkpt>
      <trkpt lat="43.15252667" lon="-6.96353667">
        <ele>1004.0</ele>
        <time>2022-06-19T09:14:33.694Z</time>
      </trkpt>
      <trkpt lat="43.15255" lon="-6.963625">
        <ele>1004.0</ele>
        <time>2022-06-19T09:14:34.712Z</time>
      </trkpt>
      <trkpt lat="43.15255" lon="-6.963625">
        <ele>1004.0</ele>
        <time>2022-06-19T09:14:35.718Z</time>
      </trkpt>
      <trkpt lat="43.15258667" lon="-6.96379833">
        <ele>1003.0</ele>
        <time>2022-06-19T09:14:36.698Z</time>
      </trkpt>
      <trkpt lat="43.15260833" lon="-6.96388833">
        <ele>1003.0</ele>
        <time>2022-06-19T09:14:37.726Z</time>
      </trkpt>
      <trkpt lat="43.15260833" lon="-6.96388833">
        <ele>1003.0</ele>
        <time>2022-06-19T09:14:38.692Z</time>
      </trkpt>
      <trkpt lat="43.15261667" lon="-6.96406">
        <ele>1003.0</ele>
        <time>2022-06-19T09:14:39.723Z</time>
      </trkpt>
      <trkpt lat="43.15262667" lon="-6.96415">
        <ele>1003.0</ele>
        <time>2022-06-19T09:14:40.707Z</time>
      </trkpt>
      <trkpt lat="43.15262667" lon="-6.96415">
        <ele>1003.0</ele>
        <time>2022-06-19T09:14:41.713Z</time>
      </trkpt>
      <trkpt lat="43.15262833" lon="-6.96432833">
        <ele>1002.0</ele>
        <time>2022-06-19T09:14:42.718Z</time>
      </trkpt>
      <trkpt lat="43.152615" lon="-6.96441167">
        <ele>1002.0</ele>
        <time>2022-06-19T09:14:43.706Z</time>
      </trkpt>
      <trkpt lat="43.152615" lon="-6.96441167">
        <ele>1002.0</ele>
        <time>2022-06-19T09:14:44.712Z</time>
      </trkpt>
      <trkpt lat="43.152575" lon="-6.964575">
        <ele>1002.0</ele>
        <time>2022-06-19T09:14:45.709Z</time>
      </trkpt>
      <trkpt lat="43.15255" lon="-6.964655">
        <ele>1002.0</ele>
        <time>2022-06-19T09:14:46.696Z</time>
      </trkpt>
      <trkpt lat="43.15255" lon="-6.964655">
        <ele>1002.0</ele>
        <time>2022-06-19T09:14:47.702Z</time>
      </trkpt>
      <trkpt lat="43.15248667" lon="-6.96479833">
        <ele>1002.0</ele>
        <time>2022-06-19T09:14:48.698Z</time>
      </trkpt>
      <trkpt lat="43.15248667" lon="-6.96479833">
        <ele>1002.0</ele>
        <time>2022-06-19T09:14:49.705Z</time>
      </trkpt>
      <trkpt lat="43.15241667" lon="-6.96492667">
        <ele>1002.0</ele>
        <time>2022-06-19T09:14:50.706Z</time>
      </trkpt>
      <trkpt lat="43.15241667" lon="-6.96492667">
        <ele>1002.0</ele>
        <time>2022-06-19T09:14:51.712Z</time>
      </trkpt>
      <trkpt lat="43.15234333" lon="-6.96503333">
        <ele>1002.0</ele>
        <time>2022-06-19T09:14:52.716Z</time>
      </trkpt>
      <trkpt lat="43.1523" lon="-6.96508">
        <ele>1002.0</ele>
        <time>2022-06-19T09:14:53.723Z</time>
      </trkpt>
      <trkpt lat="43.1523" lon="-6.96508">
        <ele>1002.0</ele>
        <time>2022-06-19T09:14:54.689Z</time>
      </trkpt>
      <trkpt lat="43.15220667" lon="-6.965155">
        <ele>1002.0</ele>
        <time>2022-06-19T09:14:55.719Z</time>
      </trkpt>
      <trkpt lat="43.15220667" lon="-6.965155">
        <ele>1002.0</ele>
        <time>2022-06-19T09:14:56.725Z</time>
      </trkpt>
      <trkpt lat="43.15211667" lon="-6.96520833">
        <ele>1002.0</ele>
        <time>2022-06-19T09:14:57.714Z</time>
      </trkpt>
      <trkpt lat="43.15211667" lon="-6.96520833">
        <ele>1002.0</ele>
        <time>2022-06-19T09:14:58.719Z</time>
      </trkpt>
      <trkpt lat="43.152025" lon="-6.96525833">
        <ele>1002.0</ele>
        <time>2022-06-19T09:14:59.709Z</time>
      </trkpt>
      <trkpt lat="43.151985" lon="-6.96528333">
        <ele>1002.0</ele>
        <time>2022-06-19T09:15:00.700Z</time>
      </trkpt>
      <trkpt lat="43.151945" lon="-6.96530833">
        <ele>1002.0</ele>
        <time>2022-06-19T09:15:01.728Z</time>
      </trkpt>
      <trkpt lat="43.151945" lon="-6.96530833">
        <ele>1002.0</ele>
        <time>2022-06-19T09:15:02.693Z</time>
      </trkpt>
      <trkpt lat="43.15186833" lon="-6.965355">
        <ele>1002.0</ele>
        <time>2022-06-19T09:15:03.727Z</time>
      </trkpt>
      <trkpt lat="43.15183167" lon="-6.96537667">
        <ele>1002.0</ele>
        <time>2022-06-19T09:15:04.706Z</time>
      </trkpt>
      <trkpt lat="43.15183167" lon="-6.96537667">
        <ele>1002.0</ele>
        <time>2022-06-19T09:15:05.711Z</time>
      </trkpt>
      <trkpt lat="43.15175833" lon="-6.96542">
        <ele>1002.0</ele>
        <time>2022-06-19T09:15:06.696Z</time>
      </trkpt>
      <trkpt lat="43.15172167" lon="-6.96544333">
        <ele>1003.0</ele>
        <time>2022-06-19T09:15:07.724Z</time>
      </trkpt>
      <trkpt lat="43.15172167" lon="-6.96544333">
        <ele>1003.0</ele>
        <time>2022-06-19T09:15:08.689Z</time>
      </trkpt>
      <trkpt lat="43.15164833" lon="-6.96548167">
        <ele>1003.0</ele>
        <time>2022-06-19T09:15:09.723Z</time>
      </trkpt>
      <trkpt lat="43.151615" lon="-6.9655">
        <ele>1003.0</ele>
        <time>2022-06-19T09:15:10.712Z</time>
      </trkpt>
      <trkpt lat="43.15158167" lon="-6.96551833">
        <ele>1003.0</ele>
        <time>2022-06-19T09:15:11.696Z</time>
      </trkpt>
      <trkpt lat="43.15158167" lon="-6.96551833">
        <ele>1003.0</ele>
        <time>2022-06-19T09:15:12.702Z</time>
      </trkpt>
      <trkpt lat="43.151515" lon="-6.96555667">
        <ele>1003.0</ele>
        <time>2022-06-19T09:15:13.688Z</time>
      </trkpt>
      <trkpt lat="43.151515" lon="-6.96555667">
        <ele>1003.0</ele>
        <time>2022-06-19T09:15:14.701Z</time>
      </trkpt>
      <trkpt lat="43.151445" lon="-6.965595">
        <ele>1002.0</ele>
        <time>2022-06-19T09:15:15.690Z</time>
      </trkpt>
      <trkpt lat="43.151445" lon="-6.965595">
        <ele>1002.0</ele>
        <time>2022-06-19T09:15:16.698Z</time>
      </trkpt>
      <trkpt lat="43.151375" lon="-6.96562667">
        <ele>1003.0</ele>
        <time>2022-06-19T09:15:17.689Z</time>
      </trkpt>
      <trkpt lat="43.15134" lon="-6.96564333">
        <ele>1003.0</ele>
        <time>2022-06-19T09:15:18.709Z</time>
      </trkpt>
      <trkpt lat="43.15130333" lon="-6.96565833">
        <ele>1003.0</ele>
        <time>2022-06-19T09:15:19.692Z</time>
      </trkpt>
      <trkpt lat="43.15130333" lon="-6.96565833">
        <ele>1003.0</ele>
        <time>2022-06-19T09:15:20.698Z</time>
      </trkpt>
      <trkpt lat="43.151235" lon="-6.965705">
        <ele>1003.0</ele>
        <time>2022-06-19T09:15:21.721Z</time>
      </trkpt>
      <trkpt lat="43.1512" lon="-6.965725">
        <ele>1003.0</ele>
        <time>2022-06-19T09:15:22.700Z</time>
      </trkpt>
      <trkpt lat="43.1512" lon="-6.965725">
        <ele>1003.0</ele>
        <time>2022-06-19T09:15:23.706Z</time>
      </trkpt>
      <trkpt lat="43.15112833" lon="-6.96575667">
        <ele>1004.0</ele>
        <time>2022-06-19T09:15:24.692Z</time>
      </trkpt>
      <trkpt lat="43.15109167" lon="-6.96577167">
        <ele>1005.0</ele>
        <time>2022-06-19T09:15:25.712Z</time>
      </trkpt>
      <trkpt lat="43.15109167" lon="-6.96577167">
        <ele>1005.0</ele>
        <time>2022-06-19T09:15:26.718Z</time>
      </trkpt>
      <trkpt lat="43.15101667" lon="-6.96579">
        <ele>1005.0</ele>
        <time>2022-06-19T09:15:27.706Z</time>
      </trkpt>
      <trkpt lat="43.15097833" lon="-6.96579833">
        <ele>1006.0</ele>
        <time>2022-06-19T09:15:28.727Z</time>
      </trkpt>
      <trkpt lat="43.15094" lon="-6.96580667">
        <ele>1006.0</ele>
        <time>2022-06-19T09:15:29.709Z</time>
      </trkpt>
      <trkpt lat="43.15094" lon="-6.96580667">
        <ele>1006.0</ele>
        <time>2022-06-19T09:15:30.715Z</time>
      </trkpt>
      <trkpt lat="43.15086333" lon="-6.96581167">
        <ele>1006.0</ele>
        <time>2022-06-19T09:15:31.719Z</time>
      </trkpt>
      <trkpt lat="43.15086333" lon="-6.96581167">
        <ele>1006.0</ele>
        <time>2022-06-19T09:15:32.725Z</time>
      </trkpt>
      <trkpt lat="43.15079" lon="-6.96581">
        <ele>1007.0</ele>
        <time>2022-06-19T09:15:33.717Z</time>
      </trkpt>
      <trkpt lat="43.15075333" lon="-6.96580833">
        <ele>1007.0</ele>
        <time>2022-06-19T09:15:34.695Z</time>
      </trkpt>
      <trkpt lat="43.15071333" lon="-6.965805">
        <ele>1007.0</ele>
        <time>2022-06-19T09:15:35.720Z</time>
      </trkpt>
      <trkpt lat="43.15071333" lon="-6.965805">
        <ele>1007.0</ele>
        <time>2022-06-19T09:15:36.726Z</time>
      </trkpt>
      <trkpt lat="43.15063667" lon="-6.96580833">
        <ele>1007.0</ele>
        <time>2022-06-19T09:15:37.718Z</time>
      </trkpt>
      <trkpt lat="43.15063667" lon="-6.96580833">
        <ele>1007.0</ele>
        <time>2022-06-19T09:15:38.725Z</time>
      </trkpt>
      <trkpt lat="43.15056167" lon="-6.96580667">
        <ele>1008.0</ele>
        <time>2022-06-19T09:15:39.715Z</time>
      </trkpt>
      <trkpt lat="43.15052167" lon="-6.96579667">
        <ele>1008.0</ele>
        <time>2022-06-19T09:15:40.690Z</time>
      </trkpt>
      <trkpt lat="43.15052167" lon="-6.96579667">
        <ele>1008.0</ele>
        <time>2022-06-19T09:15:41.701Z</time>
      </trkpt>
      <trkpt lat="43.15044667" lon="-6.96578167">
        <ele>1009.0</ele>
        <time>2022-06-19T09:15:42.693Z</time>
      </trkpt>
      <trkpt lat="43.15040667" lon="-6.96577667">
        <ele>1009.0</ele>
        <time>2022-06-19T09:15:43.719Z</time>
      </trkpt>
      <trkpt lat="43.15040667" lon="-6.96577667">
        <ele>1009.0</ele>
        <time>2022-06-19T09:15:44.725Z</time>
      </trkpt>
      <trkpt lat="43.15033167" lon="-6.96575667">
        <ele>1009.0</ele>
        <time>2022-06-19T09:15:45.742Z</time>
      </trkpt>
      <trkpt lat="43.15029167" lon="-6.96574167">
        <ele>1009.0</ele>
        <time>2022-06-19T09:15:46.719Z</time>
      </trkpt>
      <trkpt lat="43.15029167" lon="-6.96574167">
        <ele>1009.0</ele>
        <time>2022-06-19T09:15:47.725Z</time>
      </trkpt>
      <trkpt lat="43.15021833" lon="-6.96572">
        <ele>1010.0</ele>
        <time>2022-06-19T09:15:48.712Z</time>
      </trkpt>
      <trkpt lat="43.15021833" lon="-6.96572">
        <ele>1010.0</ele>
        <time>2022-06-19T09:15:49.718Z</time>
      </trkpt>
      <trkpt lat="43.15014167" lon="-6.96569167">
        <ele>1010.0</ele>
        <time>2022-06-19T09:15:50.703Z</time>
      </trkpt>
      <trkpt lat="43.15014167" lon="-6.96569167">
        <ele>1010.0</ele>
        <time>2022-06-19T09:15:51.709Z</time>
      </trkpt>
      <trkpt lat="43.150075" lon="-6.96567833">
        <ele>1011.0</ele>
        <time>2022-06-19T09:15:52.706Z</time>
      </trkpt>
      <trkpt lat="43.15004167" lon="-6.96567">
        <ele>1011.0</ele>
        <time>2022-06-19T09:15:53.690Z</time>
      </trkpt>
      <trkpt lat="43.15004167" lon="-6.96567">
        <ele>1011.0</ele>
        <time>2022-06-19T09:15:54.701Z</time>
      </trkpt>
      <trkpt lat="43.14996667" lon="-6.96564833">
        <ele>1011.0</ele>
        <time>2022-06-19T09:15:55.693Z</time>
      </trkpt>
      <trkpt lat="43.14996667" lon="-6.96564833">
        <ele>1011.0</ele>
        <time>2022-06-19T09:15:56.700Z</time>
      </trkpt>
      <trkpt lat="43.14989333" lon="-6.96559667">
        <ele>1012.0</ele>
        <time>2022-06-19T09:15:57.727Z</time>
      </trkpt>
      <trkpt lat="43.14989333" lon="-6.96559667">
        <ele>1012.0</ele>
        <time>2022-06-19T09:15:58.701Z</time>
      </trkpt>
      <trkpt lat="43.14983833" lon="-6.96557667">
        <ele>1012.0</ele>
        <time>2022-06-19T09:15:59.727Z</time>
      </trkpt>
      <trkpt lat="43.14980667" lon="-6.96556">
        <ele>1012.0</ele>
        <time>2022-06-19T09:16:00.705Z</time>
      </trkpt>
      <trkpt lat="43.14980667" lon="-6.96556">
        <ele>1012.0</ele>
        <time>2022-06-19T09:16:01.711Z</time>
      </trkpt>
      <trkpt lat="43.149745" lon="-6.96552333">
        <ele>1013.0</ele>
        <time>2022-06-19T09:16:02.701Z</time>
      </trkpt>
      <trkpt lat="43.14971167" lon="-6.965505">
        <ele>1013.0</ele>
        <time>2022-06-19T09:16:03.702Z</time>
      </trkpt>
      <trkpt lat="43.14971167" lon="-6.965505">
        <ele>1013.0</ele>
        <time>2022-06-19T09:16:04.708Z</time>
      </trkpt>
      <trkpt lat="43.14965167" lon="-6.96546833">
        <ele>1013.0</ele>
        <time>2022-06-19T09:16:05.706Z</time>
      </trkpt>
      <trkpt lat="43.14961667" lon="-6.96544667">
        <ele>1014.0</ele>
        <time>2022-06-19T09:16:06.696Z</time>
      </trkpt>
      <trkpt lat="43.14961667" lon="-6.96544667">
        <ele>1014.0</ele>
        <time>2022-06-19T09:16:07.702Z</time>
      </trkpt>
      <trkpt lat="43.14955333" lon="-6.965405">
        <ele>1014.0</ele>
        <time>2022-06-19T09:16:08.690Z</time>
      </trkpt>
      <trkpt lat="43.14955333" lon="-6.965405">
        <ele>1014.0</ele>
        <time>2022-06-19T09:16:09.696Z</time>
      </trkpt>
      <trkpt lat="43.14945833" lon="-6.965375">
        <ele>1015.0</ele>
        <time>2022-06-19T09:16:10.717Z</time>
      </trkpt>
      <trkpt lat="43.14945833" lon="-6.965375">
        <ele>1015.0</ele>
        <time>2022-06-19T09:16:11.708Z</time>
      </trkpt>
      <trkpt lat="43.14936167" lon="-6.96533167">
        <ele>1015.0</ele>
        <time>2022-06-19T09:16:12.694Z</time>
      </trkpt>
      <trkpt lat="43.14930833" lon="-6.965315">
        <ele>1015.0</ele>
        <time>2022-06-19T09:16:13.721Z</time>
      </trkpt>
      <trkpt lat="43.14926" lon="-6.9653">
        <ele>1015.0</ele>
        <time>2022-06-19T09:16:14.705Z</time>
      </trkpt>
      <trkpt lat="43.14926" lon="-6.9653">
        <ele>1015.0</ele>
        <time>2022-06-19T09:16:15.711Z</time>
      </trkpt>
      <trkpt lat="43.14917" lon="-6.96526667">
        <ele>1016.0</ele>
        <time>2022-06-19T09:16:16.702Z</time>
      </trkpt>
      <trkpt lat="43.14912833" lon="-6.96524833">
        <ele>1016.0</ele>
        <time>2022-06-19T09:16:17.695Z</time>
      </trkpt>
      <trkpt lat="43.14912833" lon="-6.96524833">
        <ele>1016.0</ele>
        <time>2022-06-19T09:16:18.709Z</time>
      </trkpt>
      <trkpt lat="43.14904333" lon="-6.965215">
        <ele>1016.0</ele>
        <time>2022-06-19T09:16:19.694Z</time>
      </trkpt>
      <trkpt lat="43.14904333" lon="-6.965215">
        <ele>1016.0</ele>
        <time>2022-06-19T09:16:20.700Z</time>
      </trkpt>
      <trkpt lat="43.14895833" lon="-6.96518833">
        <ele>1016.0</ele>
        <time>2022-06-19T09:16:21.710Z</time>
      </trkpt>
      <trkpt lat="43.14895833" lon="-6.96518833">
        <ele>1016.0</ele>
        <time>2022-06-19T09:16:22.716Z</time>
      </trkpt>
      <trkpt lat="43.148855" lon="-6.96517333">
        <ele>1017.0</ele>
        <time>2022-06-19T09:16:23.709Z</time>
      </trkpt>
      <trkpt lat="43.14881167" lon="-6.96516833">
        <ele>1017.0</ele>
        <time>2022-06-19T09:16:24.694Z</time>
      </trkpt>
      <trkpt lat="43.14876333" lon="-6.965165">
        <ele>1017.0</ele>
        <time>2022-06-19T09:16:25.722Z</time>
      </trkpt>
      <trkpt lat="43.14876333" lon="-6.965165">
        <ele>1017.0</ele>
        <time>2022-06-19T09:16:26.727Z</time>
      </trkpt>
      <trkpt lat="43.14867833" lon="-6.96516833">
        <ele>1017.0</ele>
        <time>2022-06-19T09:16:27.719Z</time>
      </trkpt>
      <trkpt lat="43.14867833" lon="-6.96516833">
        <ele>1017.0</ele>
        <time>2022-06-19T09:16:28.724Z</time>
      </trkpt>
      <trkpt lat="43.14859333" lon="-6.96518333">
        <ele>1017.0</ele>
        <time>2022-06-19T09:16:29.712Z</time>
      </trkpt>
      <trkpt lat="43.14859333" lon="-6.96518333">
        <ele>1017.0</ele>
        <time>2022-06-19T09:16:30.718Z</time>
      </trkpt>
      <trkpt lat="43.14851667" lon="-6.96521833">
        <ele>1018.0</ele>
        <time>2022-06-19T09:16:31.700Z</time>
      </trkpt>
      <trkpt lat="43.14851667" lon="-6.96521833">
        <ele>1018.0</ele>
        <time>2022-06-19T09:16:32.705Z</time>
      </trkpt>
      <trkpt lat="43.14844333" lon="-6.96526167">
        <ele>1018.0</ele>
        <time>2022-06-19T09:16:33.700Z</time>
      </trkpt>
      <trkpt lat="43.14844333" lon="-6.96526167">
        <ele>1018.0</ele>
        <time>2022-06-19T09:16:34.705Z</time>
      </trkpt>
      <trkpt lat="43.14837667" lon="-6.96531333">
        <ele>1019.0</ele>
        <time>2022-06-19T09:16:35.689Z</time>
      </trkpt>
      <trkpt lat="43.14834333" lon="-6.96533833">
        <ele>1019.0</ele>
        <time>2022-06-19T09:16:36.727Z</time>
      </trkpt>
      <trkpt lat="43.14834333" lon="-6.96533833">
        <ele>1019.0</ele>
        <time>2022-06-19T09:16:37.692Z</time>
      </trkpt>
      <trkpt lat="43.148285" lon="-6.96539667">
        <ele>1019.0</ele>
        <time>2022-06-19T09:16:38.707Z</time>
      </trkpt>
      <trkpt lat="43.148285" lon="-6.96539667">
        <ele>1019.0</ele>
        <time>2022-06-19T09:16:39.712Z</time>
      </trkpt>
      <trkpt lat="43.14823" lon="-6.96546333">
        <ele>1020.0</ele>
        <time>2022-06-19T09:16:40.718Z</time>
      </trkpt>
      <trkpt lat="43.14823" lon="-6.96546333">
        <ele>1020.0</ele>
        <time>2022-06-19T09:16:41.724Z</time>
      </trkpt>
      <trkpt lat="43.14817833" lon="-6.96553">
        <ele>1020.0</ele>
        <time>2022-06-19T09:16:42.718Z</time>
      </trkpt>
      <trkpt lat="43.14815333" lon="-6.96556">
        <ele>1020.0</ele>
        <time>2022-06-19T09:16:43.701Z</time>
      </trkpt>
      <trkpt lat="43.14815333" lon="-6.96556">
        <ele>1020.0</ele>
        <time>2022-06-19T09:16:44.707Z</time>
      </trkpt>
      <trkpt lat="43.14811167" lon="-6.96561">
        <ele>1019.0</ele>
        <time>2022-06-19T09:16:45.695Z</time>
      </trkpt>
      <trkpt lat="43.14811167" lon="-6.96561">
        <ele>1019.0</ele>
        <time>2022-06-19T09:16:46.702Z</time>
      </trkpt>
      <trkpt lat="43.14807" lon="-6.96566167">
        <ele>1020.0</ele>
        <time>2022-06-19T09:16:47.688Z</time>
      </trkpt>
      <trkpt lat="43.14805" lon="-6.96569167">
        <ele>1020.0</ele>
        <time>2022-06-19T09:16:48.712Z</time>
      </trkpt>
      <trkpt lat="43.14803167" lon="-6.96571833">
        <ele>1020.0</ele>
        <time>2022-06-19T09:16:49.705Z</time>
      </trkpt>
      <trkpt lat="43.14803167" lon="-6.96571833">
        <ele>1020.0</ele>
        <time>2022-06-19T09:16:50.711Z</time>
      </trkpt>
      <trkpt lat="43.14799" lon="-6.96577333">
        <ele>1020.0</ele>
        <time>2022-06-19T09:16:51.706Z</time>
      </trkpt>
      <trkpt lat="43.14799" lon="-6.96577333">
        <ele>1020.0</ele>
        <time>2022-06-19T09:16:52.723Z</time>
      </trkpt>
      <trkpt lat="43.14795167" lon="-6.965825">
        <ele>1020.0</ele>
        <time>2022-06-19T09:16:53.727Z</time>
      </trkpt>
      <trkpt lat="43.14795167" lon="-6.965825">
        <ele>1020.0</ele>
        <time>2022-06-19T09:16:54.692Z</time>
      </trkpt>
      <trkpt lat="43.14791167" lon="-6.96587">
        <ele>1020.0</ele>
        <time>2022-06-19T09:16:55.712Z</time>
      </trkpt>
      <trkpt lat="43.14791167" lon="-6.96587">
        <ele>1020.0</ele>
        <time>2022-06-19T09:16:56.717Z</time>
      </trkpt>
      <trkpt lat="43.14787" lon="-6.96592167">
        <ele>1021.0</ele>
        <time>2022-06-19T09:16:57.713Z</time>
      </trkpt>
      <trkpt lat="43.14787" lon="-6.96592167">
        <ele>1021.0</ele>
        <time>2022-06-19T09:16:58.719Z</time>
      </trkpt>
      <trkpt lat="43.147825" lon="-6.96597">
        <ele>1021.0</ele>
        <time>2022-06-19T09:16:59.706Z</time>
      </trkpt>
      <trkpt lat="43.14780167" lon="-6.96598833">
        <ele>1021.0</ele>
        <time>2022-06-19T09:17:00.704Z</time>
      </trkpt>
      <trkpt lat="43.14780167" lon="-6.96598833">
        <ele>1021.0</ele>
        <time>2022-06-19T09:17:01.709Z</time>
      </trkpt>
      <trkpt lat="43.14775" lon="-6.966025">
        <ele>1021.0</ele>
        <time>2022-06-19T09:17:02.707Z</time>
      </trkpt>
      <trkpt lat="43.147725" lon="-6.96604333">
        <ele>1021.0</ele>
        <time>2022-06-19T09:17:03.703Z</time>
      </trkpt>
      <trkpt lat="43.147725" lon="-6.96604333">
        <ele>1021.0</ele>
        <time>2022-06-19T09:17:04.709Z</time>
      </trkpt>
      <trkpt lat="43.14767" lon="-6.966085">
        <ele>1021.0</ele>
        <time>2022-06-19T09:17:05.694Z</time>
      </trkpt>
      <trkpt lat="43.14767" lon="-6.966085">
        <ele>1021.0</ele>
        <time>2022-06-19T09:17:06.703Z</time>
      </trkpt>
      <trkpt lat="43.14760667" lon="-6.96612">
        <ele>1021.0</ele>
        <time>2022-06-19T09:17:07.698Z</time>
      </trkpt>
      <trkpt lat="43.14760667" lon="-6.96612">
        <ele>1021.0</ele>
        <time>2022-06-19T09:17:08.704Z</time>
      </trkpt>
      <trkpt lat="43.14754" lon="-6.96615167">
        <ele>1021.0</ele>
        <time>2022-06-19T09:17:09.692Z</time>
      </trkpt>
      <trkpt lat="43.14750667" lon="-6.96616667">
        <ele>1021.0</ele>
        <time>2022-06-19T09:17:10.688Z</time>
      </trkpt>
      <trkpt lat="43.14746667" lon="-6.96617333">
        <ele>1021.0</ele>
        <time>2022-06-19T09:17:11.716Z</time>
      </trkpt>
      <trkpt lat="43.14746667" lon="-6.96617333">
        <ele>1021.0</ele>
        <time>2022-06-19T09:17:12.723Z</time>
      </trkpt>
      <trkpt lat="43.14739667" lon="-6.96619333">
        <ele>1021.0</ele>
        <time>2022-06-19T09:17:13.710Z</time>
      </trkpt>
      <trkpt lat="43.14739667" lon="-6.96619333">
        <ele>1021.0</ele>
        <time>2022-06-19T09:17:14.716Z</time>
      </trkpt>
      <trkpt lat="43.14732" lon="-6.96619667">
        <ele>1021.0</ele>
        <time>2022-06-19T09:17:15.699Z</time>
      </trkpt>
      <trkpt lat="43.14732" lon="-6.96619667">
        <ele>1021.0</ele>
        <time>2022-06-19T09:17:16.705Z</time>
      </trkpt>
      <trkpt lat="43.14724" lon="-6.96619">
        <ele>1021.0</ele>
        <time>2022-06-19T09:17:17.695Z</time>
      </trkpt>
      <trkpt lat="43.14720167" lon="-6.96618667">
        <ele>1021.0</ele>
        <time>2022-06-19T09:17:18.725Z</time>
      </trkpt>
      <trkpt lat="43.14720167" lon="-6.96618667">
        <ele>1021.0</ele>
        <time>2022-06-19T09:17:19.691Z</time>
      </trkpt>
      <trkpt lat="43.147125" lon="-6.96617333">
        <ele>1021.0</ele>
        <time>2022-06-19T09:17:20.716Z</time>
      </trkpt>
      <trkpt lat="43.147125" lon="-6.96617333">
        <ele>1021.0</ele>
        <time>2022-06-19T09:17:21.722Z</time>
      </trkpt>
      <trkpt lat="43.147045" lon="-6.966155">
        <ele>1021.0</ele>
        <time>2022-06-19T09:17:22.709Z</time>
      </trkpt>
      <trkpt lat="43.147045" lon="-6.966155">
        <ele>1021.0</ele>
        <time>2022-06-19T09:17:23.714Z</time>
      </trkpt>
      <trkpt lat="43.14695667" lon="-6.96611833">
        <ele>1021.0</ele>
        <time>2022-06-19T09:17:24.700Z</time>
      </trkpt>
      <trkpt lat="43.146915" lon="-6.96610167">
        <ele>1021.0</ele>
        <time>2022-06-19T09:17:25.724Z</time>
      </trkpt>
      <trkpt lat="43.146915" lon="-6.96610167">
        <ele>1021.0</ele>
        <time>2022-06-19T09:17:26.690Z</time>
      </trkpt>
      <trkpt lat="43.14682667" lon="-6.96605">
        <ele>1021.0</ele>
        <time>2022-06-19T09:17:27.719Z</time>
      </trkpt>
      <trkpt lat="43.14678167" lon="-6.96603">
        <ele>1021.0</ele>
        <time>2022-06-19T09:17:28.706Z</time>
      </trkpt>
      <trkpt lat="43.14673667" lon="-6.96600833">
        <ele>1021.0</ele>
        <time>2022-06-19T09:17:29.699Z</time>
      </trkpt>
      <trkpt lat="43.14673667" lon="-6.96600833">
        <ele>1021.0</ele>
        <time>2022-06-19T09:17:30.705Z</time>
      </trkpt>
      <trkpt lat="43.146645" lon="-6.965965">
        <ele>1021.0</ele>
        <time>2022-06-19T09:17:31.698Z</time>
      </trkpt>
      <trkpt lat="43.146645" lon="-6.965965">
        <ele>1021.0</ele>
        <time>2022-06-19T09:17:32.704Z</time>
      </trkpt>
      <trkpt lat="43.146555" lon="-6.96593333">
        <ele>1021.0</ele>
        <time>2022-06-19T09:17:33.691Z</time>
      </trkpt>
      <trkpt lat="43.146555" lon="-6.96593333">
        <ele>1021.0</ele>
        <time>2022-06-19T09:17:34.701Z</time>
      </trkpt>
      <trkpt lat="43.14646667" lon="-6.965905">
        <ele>1021.0</ele>
        <time>2022-06-19T09:17:35.725Z</time>
      </trkpt>
      <trkpt lat="43.14646667" lon="-6.965905">
        <ele>1021.0</ele>
        <time>2022-06-19T09:17:36.691Z</time>
      </trkpt>
      <trkpt lat="43.14637833" lon="-6.96589">
        <ele>1022.0</ele>
        <time>2022-06-19T09:17:37.694Z</time>
      </trkpt>
      <trkpt lat="43.14637833" lon="-6.96589">
        <ele>1022.0</ele>
        <time>2022-06-19T09:17:38.701Z</time>
      </trkpt>
      <trkpt lat="43.14628167" lon="-6.96589333">
        <ele>1022.0</ele>
        <time>2022-06-19T09:17:39.721Z</time>
      </trkpt>
      <trkpt lat="43.14628167" lon="-6.96589333">
        <ele>1022.0</ele>
        <time>2022-06-19T09:17:40.727Z</time>
      </trkpt>
      <trkpt lat="43.14617667" lon="-6.96591333">
        <ele>1022.0</ele>
        <time>2022-06-19T09:17:41.713Z</time>
      </trkpt>
      <trkpt lat="43.14613" lon="-6.96593167">
        <ele>1022.0</ele>
        <time>2022-06-19T09:17:42.702Z</time>
      </trkpt>
      <trkpt lat="43.14613" lon="-6.96593167">
        <ele>1022.0</ele>
        <time>2022-06-19T09:17:43.708Z</time>
      </trkpt>
      <trkpt lat="43.14603167" lon="-6.96598333">
        <ele>1022.0</ele>
        <time>2022-06-19T09:17:44.715Z</time>
      </trkpt>
      <trkpt lat="43.14603167" lon="-6.96598333">
        <ele>1022.0</ele>
        <time>2022-06-19T09:17:45.721Z</time>
      </trkpt>
      <trkpt lat="43.14594" lon="-6.96604833">
        <ele>1022.0</ele>
        <time>2022-06-19T09:17:46.695Z</time>
      </trkpt>
      <trkpt lat="43.145895" lon="-6.96608667">
        <ele>1022.0</ele>
        <time>2022-06-19T09:17:47.721Z</time>
      </trkpt>
      <trkpt lat="43.145895" lon="-6.96608667">
        <ele>1022.0</ele>
        <time>2022-06-19T09:17:48.727Z</time>
      </trkpt>
      <trkpt lat="43.14582667" lon="-6.96617167">
        <ele>1022.0</ele>
        <time>2022-06-19T09:17:49.711Z</time>
      </trkpt>
      <trkpt lat="43.14582667" lon="-6.96617167">
        <ele>1022.0</ele>
        <time>2022-06-19T09:17:50.716Z</time>
      </trkpt>
      <trkpt lat="43.14576167" lon="-6.96626167">
        <ele>1022.0</ele>
        <time>2022-06-19T09:17:51.714Z</time>
      </trkpt>
      <trkpt lat="43.14573333" lon="-6.96630667">
        <ele>1022.0</ele>
        <time>2022-06-19T09:17:52.702Z</time>
      </trkpt>
      <trkpt lat="43.14570667" lon="-6.96635167">
        <ele>1023.0</ele>
        <time>2022-06-19T09:17:53.702Z</time>
      </trkpt>
      <trkpt lat="43.14568833" lon="-6.96639667">
        <ele>1023.0</ele>
        <time>2022-06-19T09:17:54.706Z</time>
      </trkpt>
      <trkpt lat="43.14568833" lon="-6.96639667">
        <ele>1023.0</ele>
        <time>2022-06-19T09:17:55.711Z</time>
      </trkpt>
      <trkpt lat="43.14565" lon="-6.96648">
        <ele>1024.0</ele>
        <time>2022-06-19T09:17:56.715Z</time>
      </trkpt>
      <trkpt lat="43.14565" lon="-6.96648">
        <ele>1024.0</ele>
        <time>2022-06-19T09:17:57.720Z</time>
      </trkpt>
      <trkpt lat="43.14562833" lon="-6.96656833">
        <ele>1024.0</ele>
        <time>2022-06-19T09:17:58.725Z</time>
      </trkpt>
      <trkpt lat="43.14561833" lon="-6.96660833">
        <ele>1025.0</ele>
        <time>2022-06-19T09:17:59.727Z</time>
      </trkpt>
      <trkpt lat="43.14561833" lon="-6.96660833">
        <ele>1025.0</ele>
        <time>2022-06-19T09:18:00.693Z</time>
      </trkpt>
      <trkpt lat="43.14559333" lon="-6.96668667">
        <ele>1025.0</ele>
        <time>2022-06-19T09:18:01.694Z</time>
      </trkpt>
      <trkpt lat="43.14559333" lon="-6.96668667">
        <ele>1025.0</ele>
        <time>2022-06-19T09:18:02.701Z</time>
      </trkpt>
      <trkpt lat="43.14555833" lon="-6.96676167">
        <ele>1025.0</ele>
        <time>2022-06-19T09:18:03.689Z</time>
      </trkpt>
      <trkpt lat="43.145545" lon="-6.966795">
        <ele>1026.0</ele>
        <time>2022-06-19T09:18:04.726Z</time>
      </trkpt>
      <trkpt lat="43.145545" lon="-6.966795">
        <ele>1026.0</ele>
        <time>2022-06-19T09:18:05.692Z</time>
      </trkpt>
      <trkpt lat="43.14552" lon="-6.96686833">
        <ele>1026.0</ele>
        <time>2022-06-19T09:18:06.703Z</time>
      </trkpt>
      <trkpt lat="43.145505" lon="-6.966905">
        <ele>1026.0</ele>
        <time>2022-06-19T09:18:07.710Z</time>
      </trkpt>
      <trkpt lat="43.14548667" lon="-6.96694167">
        <ele>1026.0</ele>
        <time>2022-06-19T09:18:08.694Z</time>
      </trkpt>
      <trkpt lat="43.14548667" lon="-6.96694167">
        <ele>1026.0</ele>
        <time>2022-06-19T09:18:09.702Z</time>
      </trkpt>
      <trkpt lat="43.14546" lon="-6.96702333">
        <ele>1027.0</ele>
        <time>2022-06-19T09:18:10.696Z</time>
      </trkpt>
      <trkpt lat="43.14546" lon="-6.96702333">
        <ele>1027.0</ele>
        <time>2022-06-19T09:18:11.702Z</time>
      </trkpt>
      <trkpt lat="43.14543167" lon="-6.96709833">
        <ele>1027.0</ele>
        <time>2022-06-19T09:18:12.689Z</time>
      </trkpt>
      <trkpt lat="43.14541333" lon="-6.96713167">
        <ele>1027.0</ele>
        <time>2022-06-19T09:18:13.723Z</time>
      </trkpt>
      <trkpt lat="43.14539333" lon="-6.967165">
        <ele>1027.0</ele>
        <time>2022-06-19T09:18:14.700Z</time>
      </trkpt>
      <trkpt lat="43.14539333" lon="-6.967165">
        <ele>1027.0</ele>
        <time>2022-06-19T09:18:15.706Z</time>
      </trkpt>
      <trkpt lat="43.14535" lon="-6.96724">
        <ele>1026.0</ele>
        <time>2022-06-19T09:18:16.714Z</time>
      </trkpt>
      <trkpt lat="43.14532667" lon="-6.96727667">
        <ele>1027.0</ele>
        <time>2022-06-19T09:18:17.706Z</time>
      </trkpt>
      <trkpt lat="43.1453" lon="-6.967315">
        <ele>1027.0</ele>
        <time>2022-06-19T09:18:18.690Z</time>
      </trkpt>
      <trkpt lat="43.1453" lon="-6.967315">
        <ele>1027.0</ele>
        <time>2022-06-19T09:18:19.701Z</time>
      </trkpt>
      <trkpt lat="43.14524" lon="-6.96738667">
        <ele>1027.0</ele>
        <time>2022-06-19T09:18:20.694Z</time>
      </trkpt>
      <trkpt lat="43.14524" lon="-6.96738667">
        <ele>1027.0</ele>
        <time>2022-06-19T09:18:21.702Z</time>
      </trkpt>
      <trkpt lat="43.14517167" lon="-6.96745333">
        <ele>1026.0</ele>
        <time>2022-06-19T09:18:22.690Z</time>
      </trkpt>
      <trkpt lat="43.14517167" lon="-6.96745333">
        <ele>1026.0</ele>
        <time>2022-06-19T09:18:23.700Z</time>
      </trkpt>
      <trkpt lat="43.1451" lon="-6.967515">
        <ele>1025.0</ele>
        <time>2022-06-19T09:18:24.693Z</time>
      </trkpt>
      <trkpt lat="43.14506167" lon="-6.96754333">
        <ele>1025.0</ele>
        <time>2022-06-19T09:18:25.716Z</time>
      </trkpt>
      <trkpt lat="43.14506167" lon="-6.96754333">
        <ele>1025.0</ele>
        <time>2022-06-19T09:18:26.722Z</time>
      </trkpt>
      <trkpt lat="43.14497" lon="-6.96758667">
        <ele>1024.0</ele>
        <time>2022-06-19T09:18:27.706Z</time>
      </trkpt>
      <trkpt lat="43.14497" lon="-6.96758667">
        <ele>1024.0</ele>
        <time>2022-06-19T09:18:28.711Z</time>
      </trkpt>
      <trkpt lat="43.144875" lon="-6.96761833">
        <ele>1024.0</ele>
        <time>2022-06-19T09:18:29.710Z</time>
      </trkpt>
      <trkpt lat="43.144875" lon="-6.96761833">
        <ele>1024.0</ele>
        <time>2022-06-19T09:18:30.715Z</time>
      </trkpt>
      <trkpt lat="43.14477833" lon="-6.96765667">
        <ele>1024.0</ele>
        <time>2022-06-19T09:18:31.708Z</time>
      </trkpt>
      <trkpt lat="43.14477833" lon="-6.96765667">
        <ele>1024.0</ele>
        <time>2022-06-19T09:18:32.713Z</time>
      </trkpt>
      <trkpt lat="43.144675" lon="-6.96769">
        <ele>1024.0</ele>
        <time>2022-06-19T09:18:33.716Z</time>
      </trkpt>
      <trkpt lat="43.14462333" lon="-6.96770667">
        <ele>1024.0</ele>
        <time>2022-06-19T09:18:34.709Z</time>
      </trkpt>
      <trkpt lat="43.14462333" lon="-6.96770667">
        <ele>1024.0</ele>
        <time>2022-06-19T09:18:35.714Z</time>
      </trkpt>
      <trkpt lat="43.14452167" lon="-6.967745">
        <ele>1023.0</ele>
        <time>2022-06-19T09:18:36.696Z</time>
      </trkpt>
      <trkpt lat="43.14452167" lon="-6.967745">
        <ele>1023.0</ele>
        <time>2022-06-19T09:18:37.703Z</time>
      </trkpt>
      <trkpt lat="43.14442" lon="-6.96780167">
        <ele>1022.0</ele>
        <time>2022-06-19T09:18:38.700Z</time>
      </trkpt>
      <trkpt lat="43.14442" lon="-6.96780167">
        <ele>1022.0</ele>
        <time>2022-06-19T09:18:39.705Z</time>
      </trkpt>
      <trkpt lat="43.14431167" lon="-6.967865">
        <ele>1021.0</ele>
        <time>2022-06-19T09:18:40.707Z</time>
      </trkpt>
      <trkpt lat="43.14431167" lon="-6.967865">
        <ele>1021.0</ele>
        <time>2022-06-19T09:18:41.713Z</time>
      </trkpt>
      <trkpt lat="43.14421167" lon="-6.96794833">
        <ele>1021.0</ele>
        <time>2022-06-19T09:18:42.716Z</time>
      </trkpt>
      <trkpt lat="43.14417167" lon="-6.96799833">
        <ele>1021.0</ele>
        <time>2022-06-19T09:18:43.714Z</time>
      </trkpt>
      <trkpt lat="43.14417167" lon="-6.96799833">
        <ele>1021.0</ele>
        <time>2022-06-19T09:18:44.720Z</time>
      </trkpt>
      <trkpt lat="43.14409667" lon="-6.96811">
        <ele>1020.0</ele>
        <time>2022-06-19T09:18:45.705Z</time>
      </trkpt>
      <trkpt lat="43.14409667" lon="-6.96811">
        <ele>1020.0</ele>
        <time>2022-06-19T09:18:46.711Z</time>
      </trkpt>
      <trkpt lat="43.144035" lon="-6.96823333">
        <ele>1020.0</ele>
        <time>2022-06-19T09:18:47.700Z</time>
      </trkpt>
      <trkpt lat="43.144035" lon="-6.96823333">
        <ele>1020.0</ele>
        <time>2022-06-19T09:18:48.705Z</time>
      </trkpt>
      <trkpt lat="43.14399333" lon="-6.968365">
        <ele>1020.0</ele>
        <time>2022-06-19T09:18:49.693Z</time>
      </trkpt>
      <trkpt lat="43.14399333" lon="-6.968365">
        <ele>1020.0</ele>
        <time>2022-06-19T09:18:50.698Z</time>
      </trkpt>
      <trkpt lat="43.14397333" lon="-6.9685">
        <ele>1021.0</ele>
        <time>2022-06-19T09:18:51.700Z</time>
      </trkpt>
      <trkpt lat="43.14396667" lon="-6.968565">
        <ele>1021.0</ele>
        <time>2022-06-19T09:18:52.691Z</time>
      </trkpt>
      <trkpt lat="43.14396667" lon="-6.968565">
        <ele>1021.0</ele>
        <time>2022-06-19T09:18:53.708Z</time>
      </trkpt>
      <trkpt lat="43.14396" lon="-6.96869833">
        <ele>1021.0</ele>
        <time>2022-06-19T09:18:54.711Z</time>
      </trkpt>
      <trkpt lat="43.14396167" lon="-6.96876667">
        <ele>1022.0</ele>
        <time>2022-06-19T09:18:55.696Z</time>
      </trkpt>
      <trkpt lat="43.14396167" lon="-6.96876667">
        <ele>1022.0</ele>
        <time>2022-06-19T09:18:56.703Z</time>
      </trkpt>
      <trkpt lat="43.14397" lon="-6.968895">
        <ele>1022.0</ele>
        <time>2022-06-19T09:18:57.692Z</time>
      </trkpt>
      <trkpt lat="43.14397" lon="-6.968895">
        <ele>1022.0</ele>
        <time>2022-06-19T09:18:58.698Z</time>
      </trkpt>
      <trkpt lat="43.14399" lon="-6.96901833">
        <ele>1023.0</ele>
        <time>2022-06-19T09:18:59.725Z</time>
      </trkpt>
      <trkpt lat="43.14400333" lon="-6.96907333">
        <ele>1023.0</ele>
        <time>2022-06-19T09:19:00.694Z</time>
      </trkpt>
      <trkpt lat="43.14402167" lon="-6.96912667">
        <ele>1023.0</ele>
        <time>2022-06-19T09:19:01.721Z</time>
      </trkpt>
      <trkpt lat="43.14402167" lon="-6.96912667">
        <ele>1023.0</ele>
        <time>2022-06-19T09:19:02.689Z</time>
      </trkpt>
      <trkpt lat="43.14406833" lon="-6.96921333">
        <ele>1023.0</ele>
        <time>2022-06-19T09:19:03.723Z</time>
      </trkpt>
      <trkpt lat="43.14406833" lon="-6.96921333">
        <ele>1023.0</ele>
        <time>2022-06-19T09:19:04.690Z</time>
      </trkpt>
      <trkpt lat="43.14411167" lon="-6.96929333">
        <ele>1024.0</ele>
        <time>2022-06-19T09:19:05.695Z</time>
      </trkpt>
      <trkpt lat="43.14411167" lon="-6.96929333">
        <ele>1024.0</ele>
        <time>2022-06-19T09:19:06.702Z</time>
      </trkpt>
      <trkpt lat="43.144155" lon="-6.96936833">
        <ele>1024.0</ele>
        <time>2022-06-19T09:19:07.706Z</time>
      </trkpt>
      <trkpt lat="43.14417333" lon="-6.96940167">
        <ele>1025.0</ele>
        <time>2022-06-19T09:19:08.722Z</time>
      </trkpt>
      <trkpt lat="43.14417333" lon="-6.96940167">
        <ele>1025.0</ele>
        <time>2022-06-19T09:19:09.727Z</time>
      </trkpt>
      <trkpt lat="43.14420667" lon="-6.969465">
        <ele>1025.0</ele>
        <time>2022-06-19T09:19:10.726Z</time>
      </trkpt>
      <trkpt lat="43.14420667" lon="-6.969465">
        <ele>1025.0</ele>
        <time>2022-06-19T09:19:11.693Z</time>
      </trkpt>
      <trkpt lat="43.144235" lon="-6.969525">
        <ele>1026.0</ele>
        <time>2022-06-19T09:19:12.690Z</time>
      </trkpt>
      <trkpt lat="43.14425167" lon="-6.96955333">
        <ele>1026.0</ele>
        <time>2022-06-19T09:19:13.691Z</time>
      </trkpt>
      <trkpt lat="43.14425167" lon="-6.96955333">
        <ele>1026.0</ele>
        <time>2022-06-19T09:19:14.702Z</time>
      </trkpt>
      <trkpt lat="43.14429167" lon="-6.969605">
        <ele>1027.0</ele>
        <time>2022-06-19T09:19:15.710Z</time>
      </trkpt>
      <trkpt lat="43.14429167" lon="-6.969605">
        <ele>1027.0</ele>
        <time>2022-06-19T09:19:16.715Z</time>
      </trkpt>
      <trkpt lat="43.14433" lon="-6.96965167">
        <ele>1027.0</ele>
        <time>2022-06-19T09:19:17.711Z</time>
      </trkpt>
      <trkpt lat="43.14433" lon="-6.96965167">
        <ele>1027.0</ele>
        <time>2022-06-19T09:19:18.716Z</time>
      </trkpt>
      <trkpt lat="43.14437167" lon="-6.96969667">
        <ele>1028.0</ele>
        <time>2022-06-19T09:19:19.706Z</time>
      </trkpt>
      <trkpt lat="43.14437167" lon="-6.96969667">
        <ele>1028.0</ele>
        <time>2022-06-19T09:19:20.714Z</time>
      </trkpt>
      <trkpt lat="43.14441333" lon="-6.96974667">
        <ele>1028.0</ele>
        <time>2022-06-19T09:19:21.700Z</time>
      </trkpt>
      <trkpt lat="43.14441333" lon="-6.96974667">
        <ele>1028.0</ele>
        <time>2022-06-19T09:19:22.706Z</time>
      </trkpt>
      <trkpt lat="43.14445833" lon="-6.96979667">
        <ele>1028.0</ele>
        <time>2022-06-19T09:19:23.705Z</time>
      </trkpt>
      <trkpt lat="43.14448167" lon="-6.96982333">
        <ele>1028.0</ele>
        <time>2022-06-19T09:19:24.691Z</time>
      </trkpt>
      <trkpt lat="43.14450333" lon="-6.96985">
        <ele>1028.0</ele>
        <time>2022-06-19T09:19:25.688Z</time>
      </trkpt>
      <trkpt lat="43.14450333" lon="-6.96985">
        <ele>1028.0</ele>
        <time>2022-06-19T09:19:26.708Z</time>
      </trkpt>
      <trkpt lat="43.14454667" lon="-6.9699">
        <ele>1029.0</ele>
        <time>2022-06-19T09:19:27.706Z</time>
      </trkpt>
      <trkpt lat="43.14454667" lon="-6.9699">
        <ele>1029.0</ele>
        <time>2022-06-19T09:19:28.712Z</time>
      </trkpt>
      <trkpt lat="43.14459167" lon="-6.96995">
        <ele>1029.0</ele>
        <time>2022-06-19T09:19:29.695Z</time>
      </trkpt>
      <trkpt lat="43.14459167" lon="-6.96995">
        <ele>1029.0</ele>
        <time>2022-06-19T09:19:30.707Z</time>
      </trkpt>
      <trkpt lat="43.144635" lon="-6.970005">
        <ele>1030.0</ele>
        <time>2022-06-19T09:19:31.709Z</time>
      </trkpt>
      <trkpt lat="43.144635" lon="-6.970005">
        <ele>1030.0</ele>
        <time>2022-06-19T09:19:32.720Z</time>
      </trkpt>
      <trkpt lat="43.14467833" lon="-6.97006">
        <ele>1031.0</ele>
        <time>2022-06-19T09:19:33.714Z</time>
      </trkpt>
      <trkpt lat="43.1447" lon="-6.97008833">
        <ele>1031.0</ele>
        <time>2022-06-19T09:19:34.709Z</time>
      </trkpt>
      <trkpt lat="43.1447" lon="-6.97008833">
        <ele>1031.0</ele>
        <time>2022-06-19T09:19:35.721Z</time>
      </trkpt>
      <trkpt lat="43.14474333" lon="-6.97014">
        <ele>1032.0</ele>
        <time>2022-06-19T09:19:36.716Z</time>
      </trkpt>
      <trkpt lat="43.14476667" lon="-6.97016667">
        <ele>1032.0</ele>
        <time>2022-06-19T09:19:37.715Z</time>
      </trkpt>
      <trkpt lat="43.14476667" lon="-6.97016667">
        <ele>1032.0</ele>
        <time>2022-06-19T09:19:38.723Z</time>
      </trkpt>
      <trkpt lat="43.14481333" lon="-6.970215">
        <ele>1033.0</ele>
        <time>2022-06-19T09:19:39.714Z</time>
      </trkpt>
      <trkpt lat="43.14483667" lon="-6.97023833">
        <ele>1033.0</ele>
        <time>2022-06-19T09:19:40.711Z</time>
      </trkpt>
      <trkpt lat="43.14483667" lon="-6.97023833">
        <ele>1033.0</ele>
        <time>2022-06-19T09:19:41.718Z</time>
      </trkpt>
      <trkpt lat="43.14488333" lon="-6.97029">
        <ele>1033.0</ele>
        <time>2022-06-19T09:19:42.722Z</time>
      </trkpt>
      <trkpt lat="43.14490833" lon="-6.970315">
        <ele>1034.0</ele>
        <time>2022-06-19T09:19:43.717Z</time>
      </trkpt>
      <trkpt lat="43.14490833" lon="-6.970315">
        <ele>1034.0</ele>
        <time>2022-06-19T09:19:44.724Z</time>
      </trkpt>
      <trkpt lat="43.14495333" lon="-6.97037167">
        <ele>1035.0</ele>
        <time>2022-06-19T09:19:45.710Z</time>
      </trkpt>
      <trkpt lat="43.14495333" lon="-6.97037167">
        <ele>1035.0</ele>
        <time>2022-06-19T09:19:46.721Z</time>
      </trkpt>
      <trkpt lat="43.14499667" lon="-6.97042667">
        <ele>1035.0</ele>
        <time>2022-06-19T09:19:47.716Z</time>
      </trkpt>
      <trkpt lat="43.14499667" lon="-6.97042667">
        <ele>1035.0</ele>
        <time>2022-06-19T09:19:48.723Z</time>
      </trkpt>
      <trkpt lat="43.14504" lon="-6.97048333">
        <ele>1036.0</ele>
        <time>2022-06-19T09:19:49.701Z</time>
      </trkpt>
      <trkpt lat="43.14504" lon="-6.97048333">
        <ele>1036.0</ele>
        <time>2022-06-19T09:19:50.708Z</time>
      </trkpt>
      <trkpt lat="43.14508667" lon="-6.97053333">
        <ele>1036.0</ele>
        <time>2022-06-19T09:19:51.708Z</time>
      </trkpt>
      <trkpt lat="43.14508667" lon="-6.97053333">
        <ele>1036.0</ele>
        <time>2022-06-19T09:19:52.693Z</time>
      </trkpt>
      <trkpt lat="43.14513167" lon="-6.970585">
        <ele>1036.0</ele>
        <time>2022-06-19T09:19:53.720Z</time>
      </trkpt>
      <trkpt lat="43.14513167" lon="-6.970585">
        <ele>1036.0</ele>
        <time>2022-06-19T09:19:54.688Z</time>
      </trkpt>
      <trkpt lat="43.145175" lon="-6.97063333">
        <ele>1036.0</ele>
        <time>2022-06-19T09:19:55.689Z</time>
      </trkpt>
      <trkpt lat="43.145175" lon="-6.97063333">
        <ele>1036.0</ele>
        <time>2022-06-19T09:19:56.697Z</time>
      </trkpt>
      <trkpt lat="43.14521667" lon="-6.97068">
        <ele>1037.0</ele>
        <time>2022-06-19T09:19:57.690Z</time>
      </trkpt>
      <trkpt lat="43.14521667" lon="-6.97068">
        <ele>1037.0</ele>
        <time>2022-06-19T09:19:58.714Z</time>
      </trkpt>
      <trkpt lat="43.14525833" lon="-6.97072667">
        <ele>1037.0</ele>
        <time>2022-06-19T09:19:59.696Z</time>
      </trkpt>
      <trkpt lat="43.14525833" lon="-6.97072667">
        <ele>1037.0</ele>
        <time>2022-06-19T09:20:00.705Z</time>
      </trkpt>
      <trkpt lat="43.14529833" lon="-6.97076833">
        <ele>1038.0</ele>
        <time>2022-06-19T09:20:01.726Z</time>
      </trkpt>
      <trkpt lat="43.14529833" lon="-6.97076833">
        <ele>1038.0</ele>
        <time>2022-06-19T09:20:02.699Z</time>
      </trkpt>
      <trkpt lat="43.14534333" lon="-6.97081333">
        <ele>1038.0</ele>
        <time>2022-06-19T09:20:03.697Z</time>
      </trkpt>
      <trkpt lat="43.14534333" lon="-6.97081333">
        <ele>1038.0</ele>
        <time>2022-06-19T09:20:04.705Z</time>
      </trkpt>
      <trkpt lat="43.14538667" lon="-6.97086167">
        <ele>1039.0</ele>
        <time>2022-06-19T09:20:05.697Z</time>
      </trkpt>
      <trkpt lat="43.14538667" lon="-6.97086167">
        <ele>1039.0</ele>
        <time>2022-06-19T09:20:06.704Z</time>
      </trkpt>
      <trkpt lat="43.14542833" lon="-6.97090667">
        <ele>1040.0</ele>
        <time>2022-06-19T09:20:07.690Z</time>
      </trkpt>
      <trkpt lat="43.14542833" lon="-6.97090667">
        <ele>1040.0</ele>
        <time>2022-06-19T09:20:08.698Z</time>
      </trkpt>
      <trkpt lat="43.14547" lon="-6.97095167">
        <ele>1040.0</ele>
        <time>2022-06-19T09:20:09.689Z</time>
      </trkpt>
      <trkpt lat="43.14547" lon="-6.97095167">
        <ele>1040.0</ele>
        <time>2022-06-19T09:20:10.702Z</time>
      </trkpt>
      <trkpt lat="43.14551" lon="-6.97099833">
        <ele>1040.0</ele>
        <time>2022-06-19T09:20:11.727Z</time>
      </trkpt>
      <trkpt lat="43.14551" lon="-6.97099833">
        <ele>1040.0</ele>
        <time>2022-06-19T09:20:12.705Z</time>
      </trkpt>
      <trkpt lat="43.14555667" lon="-6.97104667">
        <ele>1040.0</ele>
        <time>2022-06-19T09:20:13.697Z</time>
      </trkpt>
      <trkpt lat="43.14555667" lon="-6.97104667">
        <ele>1040.0</ele>
        <time>2022-06-19T09:20:14.705Z</time>
      </trkpt>
      <trkpt lat="43.1456" lon="-6.97111333">
        <ele>1040.0</ele>
        <time>2022-06-19T09:20:15.712Z</time>
      </trkpt>
      <trkpt lat="43.14562167" lon="-6.97114333">
        <ele>1040.0</ele>
        <time>2022-06-19T09:20:16.698Z</time>
      </trkpt>
      <trkpt lat="43.14562167" lon="-6.97114333">
        <ele>1040.0</ele>
        <time>2022-06-19T09:20:17.704Z</time>
      </trkpt>
      <trkpt lat="43.145665" lon="-6.97119667">
        <ele>1040.0</ele>
        <time>2022-06-19T09:20:18.709Z</time>
      </trkpt>
      <trkpt lat="43.14568833" lon="-6.97122167">
        <ele>1040.0</ele>
        <time>2022-06-19T09:20:19.726Z</time>
      </trkpt>
      <trkpt lat="43.14568833" lon="-6.97122167">
        <ele>1040.0</ele>
        <time>2022-06-19T09:20:20.691Z</time>
      </trkpt>
      <trkpt lat="43.14572667" lon="-6.97127">
        <ele>1040.0</ele>
        <time>2022-06-19T09:20:21.691Z</time>
      </trkpt>
      <trkpt lat="43.145745" lon="-6.97129167">
        <ele>1040.0</ele>
        <time>2022-06-19T09:20:22.722Z</time>
      </trkpt>
      <trkpt lat="43.145745" lon="-6.97129167">
        <ele>1040.0</ele>
        <time>2022-06-19T09:20:23.690Z</time>
      </trkpt>
      <trkpt lat="43.14578333" lon="-6.97134">
        <ele>1041.0</ele>
        <time>2022-06-19T09:20:24.724Z</time>
      </trkpt>
      <trkpt lat="43.145805" lon="-6.971365">
        <ele>1041.0</ele>
        <time>2022-06-19T09:20:25.709Z</time>
      </trkpt>
      <trkpt lat="43.145805" lon="-6.971365">
        <ele>1041.0</ele>
        <time>2022-06-19T09:20:26.717Z</time>
      </trkpt>
      <trkpt lat="43.14584667" lon="-6.97140833">
        <ele>1041.0</ele>
        <time>2022-06-19T09:20:27.711Z</time>
      </trkpt>
      <trkpt lat="43.14584667" lon="-6.97140833">
        <ele>1041.0</ele>
        <time>2022-06-19T09:20:28.718Z</time>
      </trkpt>
      <trkpt lat="43.14588667" lon="-6.97145167">
        <ele>1042.0</ele>
        <time>2022-06-19T09:20:29.704Z</time>
      </trkpt>
      <trkpt lat="43.14590667" lon="-6.97147333">
        <ele>1043.0</ele>
        <time>2022-06-19T09:20:30.716Z</time>
      </trkpt>
      <trkpt lat="43.14590667" lon="-6.97147333">
        <ele>1043.0</ele>
        <time>2022-06-19T09:20:31.722Z</time>
      </trkpt>
      <trkpt lat="43.14594667" lon="-6.97152167">
        <ele>1043.0</ele>
        <time>2022-06-19T09:20:32.722Z</time>
      </trkpt>
      <trkpt lat="43.14594667" lon="-6.97152167">
        <ele>1043.0</ele>
        <time>2022-06-19T09:20:33.688Z</time>
      </trkpt>
      <trkpt lat="43.14598667" lon="-6.97156833">
        <ele>1044.0</ele>
        <time>2022-06-19T09:20:34.708Z</time>
      </trkpt>
      <trkpt lat="43.14598667" lon="-6.97156833">
        <ele>1044.0</ele>
        <time>2022-06-19T09:20:35.713Z</time>
      </trkpt>
      <trkpt lat="43.14602" lon="-6.97160833">
        <ele>1045.0</ele>
        <time>2022-06-19T09:20:36.711Z</time>
      </trkpt>
      <trkpt lat="43.146035" lon="-6.97162667">
        <ele>1045.0</ele>
        <time>2022-06-19T09:20:37.708Z</time>
      </trkpt>
      <trkpt lat="43.146035" lon="-6.97162667">
        <ele>1045.0</ele>
        <time>2022-06-19T09:20:38.715Z</time>
      </trkpt>
      <trkpt lat="43.146065" lon="-6.97166333">
        <ele>1045.0</ele>
        <time>2022-06-19T09:20:39.706Z</time>
      </trkpt>
      <trkpt lat="43.146065" lon="-6.97166333">
        <ele>1045.0</ele>
        <time>2022-06-19T09:20:40.712Z</time>
      </trkpt>
      <trkpt lat="43.14609667" lon="-6.97170167">
        <ele>1045.0</ele>
        <time>2022-06-19T09:20:41.694Z</time>
      </trkpt>
      <trkpt lat="43.14609667" lon="-6.97170167">
        <ele>1045.0</ele>
        <time>2022-06-19T09:20:42.701Z</time>
      </trkpt>
      <trkpt lat="43.14612333" lon="-6.971735">
        <ele>1047.0</ele>
        <time>2022-06-19T09:20:43.690Z</time>
      </trkpt>
      <trkpt lat="43.14612333" lon="-6.971735">
        <ele>1047.0</ele>
        <time>2022-06-19T09:20:44.695Z</time>
      </trkpt>
      <trkpt lat="43.14616167" lon="-6.97177167">
        <ele>1048.0</ele>
        <time>2022-06-19T09:20:45.690Z</time>
      </trkpt>
      <trkpt lat="43.14616167" lon="-6.97177167">
        <ele>1048.0</ele>
        <time>2022-06-19T09:20:46.698Z</time>
      </trkpt>
      <trkpt lat="43.146195" lon="-6.97180667">
        <ele>1048.0</ele>
        <time>2022-06-19T09:20:47.721Z</time>
      </trkpt>
      <trkpt lat="43.14621" lon="-6.97182667">
        <ele>1048.0</ele>
        <time>2022-06-19T09:20:48.697Z</time>
      </trkpt>
      <trkpt lat="43.14621" lon="-6.97182667">
        <ele>1048.0</ele>
        <time>2022-06-19T09:20:49.704Z</time>
      </trkpt>
      <trkpt lat="43.14624" lon="-6.97186833">
        <ele>1048.0</ele>
        <time>2022-06-19T09:20:50.695Z</time>
      </trkpt>
      <trkpt lat="43.14624" lon="-6.97186833">
        <ele>1048.0</ele>
        <time>2022-06-19T09:20:51.715Z</time>
      </trkpt>
      <trkpt lat="43.14627333" lon="-6.97190833">
        <ele>1048.0</ele>
        <time>2022-06-19T09:20:52.693Z</time>
      </trkpt>
      <trkpt lat="43.14629" lon="-6.971925">
        <ele>1048.0</ele>
        <time>2022-06-19T09:20:53.716Z</time>
      </trkpt>
      <trkpt lat="43.14630667" lon="-6.97194667">
        <ele>1048.0</ele>
        <time>2022-06-19T09:20:54.703Z</time>
      </trkpt>
      <trkpt lat="43.14630667" lon="-6.97194667">
        <ele>1048.0</ele>
        <time>2022-06-19T09:20:55.708Z</time>
      </trkpt>
      <trkpt lat="43.14634" lon="-6.97199">
        <ele>1048.0</ele>
        <time>2022-06-19T09:20:56.702Z</time>
      </trkpt>
      <trkpt lat="43.14634" lon="-6.97199">
        <ele>1048.0</ele>
        <time>2022-06-19T09:20:57.708Z</time>
      </trkpt>
      <trkpt lat="43.146375" lon="-6.97203667">
        <ele>1049.0</ele>
        <time>2022-06-19T09:20:58.691Z</time>
      </trkpt>
      <trkpt lat="43.14639167" lon="-6.97206">
        <ele>1049.0</ele>
        <time>2022-06-19T09:20:59.717Z</time>
      </trkpt>
      <trkpt lat="43.14639167" lon="-6.97206">
        <ele>1049.0</ele>
        <time>2022-06-19T09:21:00.723Z</time>
      </trkpt>
      <trkpt lat="43.14642333" lon="-6.97210667">
        <ele>1049.0</ele>
        <time>2022-06-19T09:21:01.711Z</time>
      </trkpt>
      <trkpt lat="43.14642333" lon="-6.97210667">
        <ele>1049.0</ele>
        <time>2022-06-19T09:21:02.716Z</time>
      </trkpt>
      <trkpt lat="43.14645" lon="-6.97215833">
        <ele>1049.0</ele>
        <time>2022-06-19T09:21:03.708Z</time>
      </trkpt>
      <trkpt lat="43.146465" lon="-6.97218167">
        <ele>1049.0</ele>
        <time>2022-06-19T09:21:04.698Z</time>
      </trkpt>
      <trkpt lat="43.146465" lon="-6.97218167">
        <ele>1049.0</ele>
        <time>2022-06-19T09:21:05.706Z</time>
      </trkpt>
      <trkpt lat="43.14649667" lon="-6.97223333">
        <ele>1050.0</ele>
        <time>2022-06-19T09:21:06.695Z</time>
      </trkpt>
      <trkpt lat="43.14651167" lon="-6.97226167">
        <ele>1050.0</ele>
        <time>2022-06-19T09:21:07.698Z</time>
      </trkpt>
      <trkpt lat="43.14651167" lon="-6.97226167">
        <ele>1050.0</ele>
        <time>2022-06-19T09:21:08.705Z</time>
      </trkpt>
      <trkpt lat="43.14655167" lon="-6.972315">
        <ele>1050.0</ele>
        <time>2022-06-19T09:21:09.717Z</time>
      </trkpt>
      <trkpt lat="43.14655167" lon="-6.972315">
        <ele>1050.0</ele>
        <time>2022-06-19T09:21:10.726Z</time>
      </trkpt>
      <trkpt lat="43.14658667" lon="-6.97236667">
        <ele>1050.0</ele>
        <time>2022-06-19T09:21:11.719Z</time>
      </trkpt>
      <trkpt lat="43.14658667" lon="-6.97236667">
        <ele>1050.0</ele>
        <time>2022-06-19T09:21:12.726Z</time>
      </trkpt>
      <trkpt lat="43.14661833" lon="-6.97242333">
        <ele>1050.0</ele>
        <time>2022-06-19T09:21:13.711Z</time>
      </trkpt>
      <trkpt lat="43.14661833" lon="-6.97242333">
        <ele>1050.0</ele>
        <time>2022-06-19T09:21:14.718Z</time>
      </trkpt>
      <trkpt lat="43.14664667" lon="-6.97248667">
        <ele>1050.0</ele>
        <time>2022-06-19T09:21:15.709Z</time>
      </trkpt>
      <trkpt lat="43.14665833" lon="-6.97252">
        <ele>1050.0</ele>
        <time>2022-06-19T09:21:16.700Z</time>
      </trkpt>
      <trkpt lat="43.14665833" lon="-6.97252">
        <ele>1050.0</ele>
        <time>2022-06-19T09:21:17.706Z</time>
      </trkpt>
      <trkpt lat="43.14668167" lon="-6.97259">
        <ele>1051.0</ele>
        <time>2022-06-19T09:21:18.695Z</time>
      </trkpt>
      <trkpt lat="43.146695" lon="-6.972625">
        <ele>1051.0</ele>
        <time>2022-06-19T09:21:19.726Z</time>
      </trkpt>
      <trkpt lat="43.146695" lon="-6.972625">
        <ele>1051.0</ele>
        <time>2022-06-19T09:21:20.693Z</time>
      </trkpt>
      <trkpt lat="43.14671667" lon="-6.97269667">
        <ele>1051.0</ele>
        <time>2022-06-19T09:21:21.724Z</time>
      </trkpt>
      <trkpt lat="43.14671667" lon="-6.97269667">
        <ele>1051.0</ele>
        <time>2022-06-19T09:21:22.691Z</time>
      </trkpt>
      <trkpt lat="43.14673833" lon="-6.97277167">
        <ele>1051.0</ele>
        <time>2022-06-19T09:21:23.724Z</time>
      </trkpt>
      <trkpt lat="43.14673833" lon="-6.97277167">
        <ele>1051.0</ele>
        <time>2022-06-19T09:21:24.690Z</time>
      </trkpt>
      <trkpt lat="43.14675667" lon="-6.97285167">
        <ele>1051.0</ele>
        <time>2022-06-19T09:21:25.704Z</time>
      </trkpt>
      <trkpt lat="43.14675667" lon="-6.97285167">
        <ele>1051.0</ele>
        <time>2022-06-19T09:21:26.710Z</time>
      </trkpt>
      <trkpt lat="43.14677667" lon="-6.97293667">
        <ele>1051.0</ele>
        <time>2022-06-19T09:21:27.693Z</time>
      </trkpt>
      <trkpt lat="43.14678333" lon="-6.97298167">
        <ele>1051.0</ele>
        <time>2022-06-19T09:21:28.725Z</time>
      </trkpt>
      <trkpt lat="43.14678333" lon="-6.97298167">
        <ele>1051.0</ele>
        <time>2022-06-19T09:21:29.692Z</time>
      </trkpt>
      <trkpt lat="43.14679667" lon="-6.97307333">
        <ele>1050.0</ele>
        <time>2022-06-19T09:21:30.697Z</time>
      </trkpt>
      <trkpt lat="43.14679667" lon="-6.97307333">
        <ele>1050.0</ele>
        <time>2022-06-19T09:21:31.704Z</time>
      </trkpt>
      <trkpt lat="43.146805" lon="-6.973165">
        <ele>1050.0</ele>
        <time>2022-06-19T09:21:32.700Z</time>
      </trkpt>
      <trkpt lat="43.146805" lon="-6.973165">
        <ele>1050.0</ele>
        <time>2022-06-19T09:21:33.705Z</time>
      </trkpt>
      <trkpt lat="43.14680667" lon="-6.97327">
        <ele>1050.0</ele>
        <time>2022-06-19T09:21:34.700Z</time>
      </trkpt>
      <trkpt lat="43.14680667" lon="-6.97332333">
        <ele>1050.0</ele>
        <time>2022-06-19T09:21:35.726Z</time>
      </trkpt>
      <trkpt lat="43.14680667" lon="-6.97332333">
        <ele>1050.0</ele>
        <time>2022-06-19T09:21:36.693Z</time>
      </trkpt>
      <trkpt lat="43.1468" lon="-6.973435">
        <ele>1049.0</ele>
        <time>2022-06-19T09:21:37.727Z</time>
      </trkpt>
      <trkpt lat="43.146795" lon="-6.97349">
        <ele>1050.0</ele>
        <time>2022-06-19T09:21:38.702Z</time>
      </trkpt>
      <trkpt lat="43.146795" lon="-6.97349">
        <ele>1050.0</ele>
        <time>2022-06-19T09:21:39.709Z</time>
      </trkpt>
      <trkpt lat="43.14678833" lon="-6.973605">
        <ele>1049.0</ele>
        <time>2022-06-19T09:21:40.696Z</time>
      </trkpt>
      <trkpt lat="43.14678167" lon="-6.97366167">
        <ele>1049.0</ele>
        <time>2022-06-19T09:21:41.690Z</time>
      </trkpt>
      <trkpt lat="43.14678167" lon="-6.97366167">
        <ele>1049.0</ele>
        <time>2022-06-19T09:21:42.699Z</time>
      </trkpt>
      <trkpt lat="43.14676" lon="-6.97378167">
        <ele>1049.0</ele>
        <time>2022-06-19T09:21:43.692Z</time>
      </trkpt>
      <trkpt lat="43.14676" lon="-6.97378167">
        <ele>1049.0</ele>
        <time>2022-06-19T09:21:44.700Z</time>
      </trkpt>
      <trkpt lat="43.14672833" lon="-6.973905">
        <ele>1048.0</ele>
        <time>2022-06-19T09:21:45.691Z</time>
      </trkpt>
      <trkpt lat="43.14671167" lon="-6.97396833">
        <ele>1048.0</ele>
        <time>2022-06-19T09:21:46.688Z</time>
      </trkpt>
      <trkpt lat="43.14669167" lon="-6.97403333">
        <ele>1048.0</ele>
        <time>2022-06-19T09:21:47.716Z</time>
      </trkpt>
      <trkpt lat="43.14669167" lon="-6.97403333">
        <ele>1048.0</ele>
        <time>2022-06-19T09:21:48.722Z</time>
      </trkpt>
      <trkpt lat="43.14665" lon="-6.97417167">
        <ele>1048.0</ele>
        <time>2022-06-19T09:21:49.712Z</time>
      </trkpt>
      <trkpt lat="43.14665" lon="-6.97417167">
        <ele>1048.0</ele>
        <time>2022-06-19T09:21:50.718Z</time>
      </trkpt>
      <trkpt lat="43.14659667" lon="-6.974305">
        <ele>1047.0</ele>
        <time>2022-06-19T09:21:51.708Z</time>
      </trkpt>
      <trkpt lat="43.14659667" lon="-6.974305">
        <ele>1047.0</ele>
        <time>2022-06-19T09:21:52.726Z</time>
      </trkpt>
      <trkpt lat="43.14652667" lon="-6.97442833">
        <ele>1047.0</ele>
        <time>2022-06-19T09:21:53.695Z</time>
      </trkpt>
      <trkpt lat="43.14648667" lon="-6.97448667">
        <ele>1047.0</ele>
        <time>2022-06-19T09:21:54.694Z</time>
      </trkpt>
      <trkpt lat="43.14644667" lon="-6.97454667">
        <ele>1046.0</ele>
        <time>2022-06-19T09:21:55.697Z</time>
      </trkpt>
      <trkpt lat="43.14644667" lon="-6.97454667">
        <ele>1046.0</ele>
        <time>2022-06-19T09:21:56.704Z</time>
      </trkpt>
      <trkpt lat="43.14635667" lon="-6.97466167">
        <ele>1046.0</ele>
        <time>2022-06-19T09:21:57.713Z</time>
      </trkpt>
      <trkpt lat="43.14630833" lon="-6.97472">
        <ele>1045.0</ele>
        <time>2022-06-19T09:21:58.715Z</time>
      </trkpt>
      <trkpt lat="43.14630833" lon="-6.97472">
        <ele>1045.0</ele>
        <time>2022-06-19T09:21:59.721Z</time>
      </trkpt>
      <trkpt lat="43.14621333" lon="-6.97483167">
        <ele>1045.0</ele>
        <time>2022-06-19T09:22:00.725Z</time>
      </trkpt>
      <trkpt lat="43.14621333" lon="-6.97483167">
        <ele>1045.0</ele>
        <time>2022-06-19T09:22:01.690Z</time>
      </trkpt>
      <trkpt lat="43.14611333" lon="-6.97494833">
        <ele>1044.0</ele>
        <time>2022-06-19T09:22:02.701Z</time>
      </trkpt>
      <trkpt lat="43.14606333" lon="-6.97500667">
        <ele>1044.0</ele>
        <time>2022-06-19T09:22:03.723Z</time>
      </trkpt>
      <trkpt lat="43.14606333" lon="-6.97500667">
        <ele>1044.0</ele>
        <time>2022-06-19T09:22:04.688Z</time>
      </trkpt>
      <trkpt lat="43.14596" lon="-6.97512333">
        <ele>1043.0</ele>
        <time>2022-06-19T09:22:05.722Z</time>
      </trkpt>
      <trkpt lat="43.14596" lon="-6.97512333">
        <ele>1043.0</ele>
        <time>2022-06-19T09:22:06.688Z</time>
      </trkpt>
      <trkpt lat="43.14585333" lon="-6.97524167">
        <ele>1042.0</ele>
        <time>2022-06-19T09:22:07.722Z</time>
      </trkpt>
      <trkpt lat="43.14579667" lon="-6.97530167">
        <ele>1042.0</ele>
        <time>2022-06-19T09:22:08.711Z</time>
      </trkpt>
      <trkpt lat="43.14579667" lon="-6.97530167">
        <ele>1042.0</ele>
        <time>2022-06-19T09:22:09.716Z</time>
      </trkpt>
      <trkpt lat="43.14569" lon="-6.97542833">
        <ele>1041.0</ele>
        <time>2022-06-19T09:22:10.710Z</time>
      </trkpt>
      <trkpt lat="43.14569" lon="-6.97542833">
        <ele>1041.0</ele>
        <time>2022-06-19T09:22:11.716Z</time>
      </trkpt>
      <trkpt lat="43.14558167" lon="-6.975555">
        <ele>1041.0</ele>
        <time>2022-06-19T09:22:12.698Z</time>
      </trkpt>
      <trkpt lat="43.14552833" lon="-6.97561833">
        <ele>1041.0</ele>
        <time>2022-06-19T09:22:13.725Z</time>
      </trkpt>
      <trkpt lat="43.14552833" lon="-6.97561833">
        <ele>1041.0</ele>
        <time>2022-06-19T09:22:14.690Z</time>
      </trkpt>
      <trkpt lat="43.14541833" lon="-6.97574333">
        <ele>1040.0</ele>
        <time>2022-06-19T09:22:15.725Z</time>
      </trkpt>
      <trkpt lat="43.14541833" lon="-6.97574333">
        <ele>1040.0</ele>
        <time>2022-06-19T09:22:16.691Z</time>
      </trkpt>
      <trkpt lat="43.14531" lon="-6.97586833">
        <ele>1039.0</ele>
        <time>2022-06-19T09:22:17.726Z</time>
      </trkpt>
      <trkpt lat="43.14531" lon="-6.97586833">
        <ele>1039.0</ele>
        <time>2022-06-19T09:22:18.692Z</time>
      </trkpt>
      <trkpt lat="43.1452" lon="-6.97599333">
        <ele>1038.0</ele>
        <time>2022-06-19T09:22:19.721Z</time>
      </trkpt>
      <trkpt lat="43.145145" lon="-6.976055">
        <ele>1038.0</ele>
        <time>2022-06-19T09:22:20.706Z</time>
      </trkpt>
      <trkpt lat="43.145145" lon="-6.976055">
        <ele>1038.0</ele>
        <time>2022-06-19T09:22:21.712Z</time>
      </trkpt>
      <trkpt lat="43.14503667" lon="-6.97617833">
        <ele>1037.0</ele>
        <time>2022-06-19T09:22:22.696Z</time>
      </trkpt>
      <trkpt lat="43.14503667" lon="-6.97617833">
        <ele>1037.0</ele>
        <time>2022-06-19T09:22:23.706Z</time>
      </trkpt>
      <trkpt lat="43.14493" lon="-6.97630167">
        <ele>1037.0</ele>
        <time>2022-06-19T09:22:24.715Z</time>
      </trkpt>
      <trkpt lat="43.14493" lon="-6.97630167">
        <ele>1037.0</ele>
        <time>2022-06-19T09:22:25.722Z</time>
      </trkpt>
      <trkpt lat="43.144825" lon="-6.976425">
        <ele>1036.0</ele>
        <time>2022-06-19T09:22:26.716Z</time>
      </trkpt>
      <trkpt lat="43.144825" lon="-6.976425">
        <ele>1036.0</ele>
        <time>2022-06-19T09:22:27.722Z</time>
      </trkpt>
      <trkpt lat="43.14471667" lon="-6.97654833">
        <ele>1036.0</ele>
        <time>2022-06-19T09:22:28.721Z</time>
      </trkpt>
      <trkpt lat="43.14466333" lon="-6.97661">
        <ele>1035.0</ele>
        <time>2022-06-19T09:22:29.716Z</time>
      </trkpt>
      <trkpt lat="43.14466333" lon="-6.97661">
        <ele>1035.0</ele>
        <time>2022-06-19T09:22:30.721Z</time>
      </trkpt>
      <trkpt lat="43.144555" lon="-6.97673333">
        <ele>1035.0</ele>
        <time>2022-06-19T09:22:31.694Z</time>
      </trkpt>
      <trkpt lat="43.144555" lon="-6.97673333">
        <ele>1035.0</ele>
        <time>2022-06-19T09:22:32.710Z</time>
      </trkpt>
      <trkpt lat="43.144445" lon="-6.97686167">
        <ele>1034.0</ele>
        <time>2022-06-19T09:22:33.727Z</time>
      </trkpt>
      <trkpt lat="43.144445" lon="-6.97686167">
        <ele>1034.0</ele>
        <time>2022-06-19T09:22:34.693Z</time>
      </trkpt>
      <trkpt lat="43.14433167" lon="-6.97699">
        <ele>1034.0</ele>
        <time>2022-06-19T09:22:35.693Z</time>
      </trkpt>
      <trkpt lat="43.14433167" lon="-6.97699">
        <ele>1034.0</ele>
        <time>2022-06-19T09:22:36.704Z</time>
      </trkpt>
      <trkpt lat="43.14421833" lon="-6.97712">
        <ele>1033.0</ele>
        <time>2022-06-19T09:22:37.835Z</time>
      </trkpt>
      <trkpt lat="43.14421833" lon="-6.97712">
        <ele>1033.0</ele>
        <time>2022-06-19T09:22:38.698Z</time>
      </trkpt>
      <trkpt lat="43.14410667" lon="-6.97724833">
        <ele>1033.0</ele>
        <time>2022-06-19T09:22:39.718Z</time>
      </trkpt>
      <trkpt lat="43.14410667" lon="-6.97724833">
        <ele>1033.0</ele>
        <time>2022-06-19T09:22:40.723Z</time>
      </trkpt>
      <trkpt lat="43.14399333" lon="-6.97738333">
        <ele>1032.0</ele>
        <time>2022-06-19T09:22:41.716Z</time>
      </trkpt>
      <trkpt lat="43.14399333" lon="-6.97738333">
        <ele>1032.0</ele>
        <time>2022-06-19T09:22:42.722Z</time>
      </trkpt>
      <trkpt lat="43.14387833" lon="-6.977515">
        <ele>1031.0</ele>
        <time>2022-06-19T09:22:43.716Z</time>
      </trkpt>
      <trkpt lat="43.14387833" lon="-6.977515">
        <ele>1031.0</ele>
        <time>2022-06-19T09:22:44.721Z</time>
      </trkpt>
      <trkpt lat="43.143765" lon="-6.97764167">
        <ele>1031.0</ele>
        <time>2022-06-19T09:22:45.714Z</time>
      </trkpt>
      <trkpt lat="43.14370667" lon="-6.977705">
        <ele>1031.0</ele>
        <time>2022-06-19T09:22:46.714Z</time>
      </trkpt>
      <trkpt lat="43.14365" lon="-6.97776833">
        <ele>1030.0</ele>
        <time>2022-06-19T09:22:47.697Z</time>
      </trkpt>
      <trkpt lat="43.14365" lon="-6.97776833">
        <ele>1030.0</ele>
        <time>2022-06-19T09:22:48.706Z</time>
      </trkpt>
      <trkpt lat="43.14353667" lon="-6.97789667">
        <ele>1030.0</ele>
        <time>2022-06-19T09:22:49.704Z</time>
      </trkpt>
      <trkpt lat="43.14353667" lon="-6.97789667">
        <ele>1030.0</ele>
        <time>2022-06-19T09:22:50.720Z</time>
      </trkpt>
      <trkpt lat="43.143425" lon="-6.97802167">
        <ele>1029.0</ele>
        <time>2022-06-19T09:22:51.714Z</time>
      </trkpt>
      <trkpt lat="43.143425" lon="-6.97802167">
        <ele>1029.0</ele>
        <time>2022-06-19T09:22:52.688Z</time>
      </trkpt>
      <trkpt lat="43.14331" lon="-6.97814833">
        <ele>1029.0</ele>
        <time>2022-06-19T09:22:53.720Z</time>
      </trkpt>
      <trkpt lat="43.14331" lon="-6.97814833">
        <ele>1029.0</ele>
        <time>2022-06-19T09:22:54.725Z</time>
      </trkpt>
      <trkpt lat="43.14320167" lon="-6.978275">
        <ele>1028.0</ele>
        <time>2022-06-19T09:22:55.703Z</time>
      </trkpt>
      <trkpt lat="43.14320167" lon="-6.978275">
        <ele>1028.0</ele>
        <time>2022-06-19T09:22:56.709Z</time>
      </trkpt>
      <trkpt lat="43.14309333" lon="-6.97840167">
        <ele>1028.0</ele>
        <time>2022-06-19T09:22:57.697Z</time>
      </trkpt>
      <trkpt lat="43.14303833" lon="-6.97846333">
        <ele>1027.0</ele>
        <time>2022-06-19T09:22:58.727Z</time>
      </trkpt>
      <trkpt lat="43.142985" lon="-6.978525">
        <ele>1027.0</ele>
        <time>2022-06-19T09:22:59.716Z</time>
      </trkpt>
      <trkpt lat="43.14293" lon="-6.97858667">
        <ele>1027.0</ele>
        <time>2022-06-19T09:23:00.701Z</time>
      </trkpt>
      <trkpt lat="43.14293" lon="-6.97858667">
        <ele>1027.0</ele>
        <time>2022-06-19T09:23:01.707Z</time>
      </trkpt>
      <trkpt lat="43.14282333" lon="-6.97871">
        <ele>1026.0</ele>
        <time>2022-06-19T09:23:02.701Z</time>
      </trkpt>
      <trkpt lat="43.14276833" lon="-6.97877167">
        <ele>1026.0</ele>
        <time>2022-06-19T09:23:03.725Z</time>
      </trkpt>
      <trkpt lat="43.14276833" lon="-6.97877167">
        <ele>1026.0</ele>
        <time>2022-06-19T09:23:04.707Z</time>
      </trkpt>
      <trkpt lat="43.14265833" lon="-6.97889333">
        <ele>1025.0</ele>
        <time>2022-06-19T09:23:05.692Z</time>
      </trkpt>
      <trkpt lat="43.14265833" lon="-6.97889333">
        <ele>1025.0</ele>
        <time>2022-06-19T09:23:06.703Z</time>
      </trkpt>
      <trkpt lat="43.14255" lon="-6.97901667">
        <ele>1025.0</ele>
        <time>2022-06-19T09:23:07.709Z</time>
      </trkpt>
      <trkpt lat="43.14255" lon="-6.97901667">
        <ele>1025.0</ele>
        <time>2022-06-19T09:23:08.714Z</time>
      </trkpt>
      <trkpt lat="43.14244" lon="-6.97914167">
        <ele>1024.0</ele>
        <time>2022-06-19T09:23:09.701Z</time>
      </trkpt>
      <trkpt lat="43.14244" lon="-6.97914167">
        <ele>1024.0</ele>
        <time>2022-06-19T09:23:10.707Z</time>
      </trkpt>
      <trkpt lat="43.14233" lon="-6.97926833">
        <ele>1024.0</ele>
        <time>2022-06-19T09:23:11.693Z</time>
      </trkpt>
      <trkpt lat="43.14233" lon="-6.97926833">
        <ele>1024.0</ele>
        <time>2022-06-19T09:23:12.699Z</time>
      </trkpt>
      <trkpt lat="43.14222167" lon="-6.97939833">
        <ele>1023.0</ele>
        <time>2022-06-19T09:23:13.692Z</time>
      </trkpt>
      <trkpt lat="43.14222167" lon="-6.97939833">
        <ele>1023.0</ele>
        <time>2022-06-19T09:23:14.698Z</time>
      </trkpt>
      <trkpt lat="43.14211167" lon="-6.97952167">
        <ele>1023.0</ele>
        <time>2022-06-19T09:23:15.710Z</time>
      </trkpt>
      <trkpt lat="43.142055" lon="-6.97958333">
        <ele>1023.0</ele>
        <time>2022-06-19T09:23:16.703Z</time>
      </trkpt>
      <trkpt lat="43.142055" lon="-6.97958333">
        <ele>1023.0</ele>
        <time>2022-06-19T09:23:17.709Z</time>
      </trkpt>
      <trkpt lat="43.14194333" lon="-6.97970833">
        <ele>1022.0</ele>
        <time>2022-06-19T09:23:18.690Z</time>
      </trkpt>
      <trkpt lat="43.14188667" lon="-6.979775">
        <ele>1022.0</ele>
        <time>2022-06-19T09:23:19.723Z</time>
      </trkpt>
      <trkpt lat="43.14188667" lon="-6.979775">
        <ele>1022.0</ele>
        <time>2022-06-19T09:23:20.688Z</time>
      </trkpt>
      <trkpt lat="43.14177667" lon="-6.97990333">
        <ele>1022.0</ele>
        <time>2022-06-19T09:23:21.720Z</time>
      </trkpt>
      <trkpt lat="43.14177667" lon="-6.97990333">
        <ele>1022.0</ele>
        <time>2022-06-19T09:23:22.726Z</time>
      </trkpt>
      <trkpt lat="43.14166833" lon="-6.98003">
        <ele>1021.0</ele>
        <time>2022-06-19T09:23:23.709Z</time>
      </trkpt>
      <trkpt lat="43.14166833" lon="-6.98003">
        <ele>1021.0</ele>
        <time>2022-06-19T09:23:24.715Z</time>
      </trkpt>
      <trkpt lat="43.14155833" lon="-6.98015333">
        <ele>1021.0</ele>
        <time>2022-06-19T09:23:25.696Z</time>
      </trkpt>
      <trkpt lat="43.14155833" lon="-6.98015333">
        <ele>1021.0</ele>
        <time>2022-06-19T09:23:26.703Z</time>
      </trkpt>
      <trkpt lat="43.14144833" lon="-6.98028333">
        <ele>1020.0</ele>
        <time>2022-06-19T09:23:27.717Z</time>
      </trkpt>
      <trkpt lat="43.14139167" lon="-6.98034667">
        <ele>1020.0</ele>
        <time>2022-06-19T09:23:28.712Z</time>
      </trkpt>
      <trkpt lat="43.14133333" lon="-6.98041333">
        <ele>1019.0</ele>
        <time>2022-06-19T09:23:29.698Z</time>
      </trkpt>
      <trkpt lat="43.14133333" lon="-6.98041333">
        <ele>1019.0</ele>
        <time>2022-06-19T09:23:30.704Z</time>
      </trkpt>
      <trkpt lat="43.14121667" lon="-6.98054667">
        <ele>1019.0</ele>
        <time>2022-06-19T09:23:31.726Z</time>
      </trkpt>
      <trkpt lat="43.14121667" lon="-6.98054667">
        <ele>1019.0</ele>
        <time>2022-06-19T09:23:32.692Z</time>
      </trkpt>
      <trkpt lat="43.14109833" lon="-6.98068167">
        <ele>1018.0</ele>
        <time>2022-06-19T09:23:33.693Z</time>
      </trkpt>
      <trkpt lat="43.14109833" lon="-6.98068167">
        <ele>1018.0</ele>
        <time>2022-06-19T09:23:34.702Z</time>
      </trkpt>
      <trkpt lat="43.14097833" lon="-6.98082167">
        <ele>1017.0</ele>
        <time>2022-06-19T09:23:35.693Z</time>
      </trkpt>
      <trkpt lat="43.14091667" lon="-6.98089">
        <ele>1016.0</ele>
        <time>2022-06-19T09:23:36.704Z</time>
      </trkpt>
      <trkpt lat="43.14091667" lon="-6.98089">
        <ele>1016.0</ele>
        <time>2022-06-19T09:23:37.711Z</time>
      </trkpt>
      <trkpt lat="43.14079167" lon="-6.98102833">
        <ele>1015.0</ele>
        <time>2022-06-19T09:23:38.718Z</time>
      </trkpt>
      <trkpt lat="43.14073" lon="-6.98110167">
        <ele>1015.0</ele>
        <time>2022-06-19T09:23:39.704Z</time>
      </trkpt>
      <trkpt lat="43.140665" lon="-6.981175">
        <ele>1014.0</ele>
        <time>2022-06-19T09:23:40.707Z</time>
      </trkpt>
      <trkpt lat="43.140665" lon="-6.981175">
        <ele>1014.0</ele>
        <time>2022-06-19T09:23:41.712Z</time>
      </trkpt>
      <trkpt lat="43.14053667" lon="-6.98132667">
        <ele>1013.0</ele>
        <time>2022-06-19T09:23:42.691Z</time>
      </trkpt>
      <trkpt lat="43.14047333" lon="-6.98140333">
        <ele>1012.0</ele>
        <time>2022-06-19T09:23:43.713Z</time>
      </trkpt>
      <trkpt lat="43.14041167" lon="-6.98147833">
        <ele>1012.0</ele>
        <time>2022-06-19T09:23:44.710Z</time>
      </trkpt>
      <trkpt lat="43.14041167" lon="-6.98147833">
        <ele>1012.0</ele>
        <time>2022-06-19T09:23:45.716Z</time>
      </trkpt>
      <trkpt lat="43.140285" lon="-6.981625">
        <ele>1011.0</ele>
        <time>2022-06-19T09:23:46.707Z</time>
      </trkpt>
      <trkpt lat="43.140285" lon="-6.981625">
        <ele>1011.0</ele>
        <time>2022-06-19T09:23:47.712Z</time>
      </trkpt>
      <trkpt lat="43.14015667" lon="-6.98176167">
        <ele>1010.0</ele>
        <time>2022-06-19T09:23:48.714Z</time>
      </trkpt>
      <trkpt lat="43.14015667" lon="-6.98176167">
        <ele>1010.0</ele>
        <time>2022-06-19T09:23:49.720Z</time>
      </trkpt>
      <trkpt lat="43.14003833" lon="-6.98189667">
        <ele>1009.0</ele>
        <time>2022-06-19T09:23:50.725Z</time>
      </trkpt>
      <trkpt lat="43.14003833" lon="-6.98189667">
        <ele>1009.0</ele>
        <time>2022-06-19T09:23:51.691Z</time>
      </trkpt>
      <trkpt lat="43.13992" lon="-6.98202167">
        <ele>1008.0</ele>
        <time>2022-06-19T09:23:52.690Z</time>
      </trkpt>
      <trkpt lat="43.13992" lon="-6.98202167">
        <ele>1008.0</ele>
        <time>2022-06-19T09:23:53.691Z</time>
      </trkpt>
      <trkpt lat="43.139805" lon="-6.982145">
        <ele>1007.0</ele>
        <time>2022-06-19T09:23:54.719Z</time>
      </trkpt>
      <trkpt lat="43.139805" lon="-6.982145">
        <ele>1007.0</ele>
        <time>2022-06-19T09:23:55.726Z</time>
      </trkpt>
      <trkpt lat="43.13968833" lon="-6.98225167">
        <ele>1006.0</ele>
        <time>2022-06-19T09:23:56.704Z</time>
      </trkpt>
      <trkpt lat="43.13963167" lon="-6.98230333">
        <ele>1006.0</ele>
        <time>2022-06-19T09:23:57.710Z</time>
      </trkpt>
      <trkpt lat="43.13963167" lon="-6.98230333">
        <ele>1006.0</ele>
        <time>2022-06-19T09:23:58.716Z</time>
      </trkpt>
      <trkpt lat="43.13951167" lon="-6.98239333">
        <ele>1005.0</ele>
        <time>2022-06-19T09:23:59.703Z</time>
      </trkpt>
      <trkpt lat="43.13951167" lon="-6.98239333">
        <ele>1005.0</ele>
        <time>2022-06-19T09:24:00.710Z</time>
      </trkpt>
      <trkpt lat="43.139395" lon="-6.98249167">
        <ele>1004.0</ele>
        <time>2022-06-19T09:24:01.716Z</time>
      </trkpt>
      <trkpt lat="43.139395" lon="-6.98249167">
        <ele>1004.0</ele>
        <time>2022-06-19T09:24:02.722Z</time>
      </trkpt>
      <trkpt lat="43.13927833" lon="-6.98257833">
        <ele>1003.0</ele>
        <time>2022-06-19T09:24:03.711Z</time>
      </trkpt>
      <trkpt lat="43.13922" lon="-6.98262">
        <ele>1002.0</ele>
        <time>2022-06-19T09:24:04.696Z</time>
      </trkpt>
      <trkpt lat="43.13922" lon="-6.98262">
        <ele>1002.0</ele>
        <time>2022-06-19T09:24:05.706Z</time>
      </trkpt>
      <trkpt lat="43.1391" lon="-6.98269667">
        <ele>1001.0</ele>
        <time>2022-06-19T09:24:06.689Z</time>
      </trkpt>
      <trkpt lat="43.13904" lon="-6.98273667">
        <ele>1001.0</ele>
        <time>2022-06-19T09:24:07.718Z</time>
      </trkpt>
      <trkpt lat="43.13904" lon="-6.98273667">
        <ele>1001.0</ele>
        <time>2022-06-19T09:24:08.724Z</time>
      </trkpt>
      <trkpt lat="43.13891667" lon="-6.98280667">
        <ele>1000.0</ele>
        <time>2022-06-19T09:24:09.693Z</time>
      </trkpt>
      <trkpt lat="43.13891667" lon="-6.98280667">
        <ele>1000.0</ele>
        <time>2022-06-19T09:24:10.700Z</time>
      </trkpt>
      <trkpt lat="43.13879" lon="-6.98288">
        <ele>999.0</ele>
        <time>2022-06-19T09:24:11.721Z</time>
      </trkpt>
      <trkpt lat="43.13872667" lon="-6.98291833">
        <ele>999.0</ele>
        <time>2022-06-19T09:24:12.713Z</time>
      </trkpt>
      <trkpt lat="43.13866333" lon="-6.982955">
        <ele>998.0</ele>
        <time>2022-06-19T09:24:13.694Z</time>
      </trkpt>
      <trkpt lat="43.13866333" lon="-6.982955">
        <ele>998.0</ele>
        <time>2022-06-19T09:24:14.700Z</time>
      </trkpt>
      <trkpt lat="43.13854167" lon="-6.98303">
        <ele>998.0</ele>
        <time>2022-06-19T09:24:15.688Z</time>
      </trkpt>
      <trkpt lat="43.13854167" lon="-6.98303">
        <ele>998.0</ele>
        <time>2022-06-19T09:24:16.694Z</time>
      </trkpt>
      <trkpt lat="43.13842333" lon="-6.98310833">
        <ele>997.0</ele>
        <time>2022-06-19T09:24:17.688Z</time>
      </trkpt>
      <trkpt lat="43.13836333" lon="-6.98314667">
        <ele>997.0</ele>
        <time>2022-06-19T09:24:18.723Z</time>
      </trkpt>
      <trkpt lat="43.138305" lon="-6.98318167">
        <ele>996.0</ele>
        <time>2022-06-19T09:24:19.716Z</time>
      </trkpt>
      <trkpt lat="43.138305" lon="-6.98318167">
        <ele>996.0</ele>
        <time>2022-06-19T09:24:20.722Z</time>
      </trkpt>
      <trkpt lat="43.138195" lon="-6.98325">
        <ele>995.0</ele>
        <time>2022-06-19T09:24:21.707Z</time>
      </trkpt>
      <trkpt lat="43.138195" lon="-6.98325">
        <ele>995.0</ele>
        <time>2022-06-19T09:24:22.713Z</time>
      </trkpt>
      <trkpt lat="43.13808833" lon="-6.983325">
        <ele>995.0</ele>
        <time>2022-06-19T09:24:23.701Z</time>
      </trkpt>
      <trkpt lat="43.13803667" lon="-6.98336167">
        <ele>995.0</ele>
        <time>2022-06-19T09:24:24.724Z</time>
      </trkpt>
      <trkpt lat="43.13798333" lon="-6.98339667">
        <ele>994.0</ele>
        <time>2022-06-19T09:24:25.703Z</time>
      </trkpt>
      <trkpt lat="43.13798333" lon="-6.98339667">
        <ele>994.0</ele>
        <time>2022-06-19T09:24:26.709Z</time>
      </trkpt>
      <trkpt lat="43.13786833" lon="-6.98346833">
        <ele>993.0</ele>
        <time>2022-06-19T09:24:27.723Z</time>
      </trkpt>
      <trkpt lat="43.13786833" lon="-6.98346833">
        <ele>993.0</ele>
        <time>2022-06-19T09:24:28.690Z</time>
      </trkpt>
      <trkpt lat="43.13774833" lon="-6.98353667">
        <ele>993.0</ele>
        <time>2022-06-19T09:24:29.716Z</time>
      </trkpt>
      <trkpt lat="43.13774833" lon="-6.98353667">
        <ele>993.0</ele>
        <time>2022-06-19T09:24:30.722Z</time>
      </trkpt>
      <trkpt lat="43.13762" lon="-6.98361167">
        <ele>992.0</ele>
        <time>2022-06-19T09:24:31.712Z</time>
      </trkpt>
      <trkpt lat="43.13762" lon="-6.98361167">
        <ele>992.0</ele>
        <time>2022-06-19T09:24:32.718Z</time>
      </trkpt>
      <trkpt lat="43.13749167" lon="-6.98369667">
        <ele>991.0</ele>
        <time>2022-06-19T09:24:33.702Z</time>
      </trkpt>
      <trkpt lat="43.13749167" lon="-6.98369667">
        <ele>991.0</ele>
        <time>2022-06-19T09:24:34.708Z</time>
      </trkpt>
      <trkpt lat="43.13735833" lon="-6.98378333">
        <ele>990.0</ele>
        <time>2022-06-19T09:24:35.695Z</time>
      </trkpt>
      <trkpt lat="43.13735833" lon="-6.98378333">
        <ele>990.0</ele>
        <time>2022-06-19T09:24:36.703Z</time>
      </trkpt>
      <trkpt lat="43.13722667" lon="-6.98387167">
        <ele>989.0</ele>
        <time>2022-06-19T09:24:37.693Z</time>
      </trkpt>
      <trkpt lat="43.13722667" lon="-6.98387167">
        <ele>989.0</ele>
        <time>2022-06-19T09:24:38.699Z</time>
      </trkpt>
      <trkpt lat="43.1371" lon="-6.98397">
        <ele>988.0</ele>
        <time>2022-06-19T09:24:39.727Z</time>
      </trkpt>
      <trkpt lat="43.13704" lon="-6.98402667">
        <ele>987.0</ele>
        <time>2022-06-19T09:24:40.718Z</time>
      </trkpt>
      <trkpt lat="43.13704" lon="-6.98402667">
        <ele>987.0</ele>
        <time>2022-06-19T09:24:41.724Z</time>
      </trkpt>
      <trkpt lat="43.13692167" lon="-6.98414833">
        <ele>987.0</ele>
        <time>2022-06-19T09:24:42.712Z</time>
      </trkpt>
      <trkpt lat="43.13686333" lon="-6.98421333">
        <ele>986.0</ele>
        <time>2022-06-19T09:24:43.698Z</time>
      </trkpt>
      <trkpt lat="43.13686333" lon="-6.98421333">
        <ele>986.0</ele>
        <time>2022-06-19T09:24:44.704Z</time>
      </trkpt>
      <trkpt lat="43.13675333" lon="-6.98435333">
        <ele>986.0</ele>
        <time>2022-06-19T09:24:45.726Z</time>
      </trkpt>
      <trkpt lat="43.13675333" lon="-6.98435333">
        <ele>986.0</ele>
        <time>2022-06-19T09:24:46.692Z</time>
      </trkpt>
      <trkpt lat="43.136655" lon="-6.98450333">
        <ele>985.0</ele>
        <time>2022-06-19T09:24:47.696Z</time>
      </trkpt>
      <trkpt lat="43.136655" lon="-6.98450333">
        <ele>985.0</ele>
        <time>2022-06-19T09:24:48.707Z</time>
      </trkpt>
      <trkpt lat="43.13656333" lon="-6.98466667">
        <ele>984.0</ele>
        <time>2022-06-19T09:24:49.708Z</time>
      </trkpt>
      <trkpt lat="43.13656333" lon="-6.98466667">
        <ele>984.0</ele>
        <time>2022-06-19T09:24:50.713Z</time>
      </trkpt>
      <trkpt lat="43.13647833" lon="-6.98483833">
        <ele>983.0</ele>
        <time>2022-06-19T09:24:51.701Z</time>
      </trkpt>
      <trkpt lat="43.13644" lon="-6.98492667">
        <ele>983.0</ele>
        <time>2022-06-19T09:24:52.714Z</time>
      </trkpt>
      <trkpt lat="43.13640333" lon="-6.98501667">
        <ele>983.0</ele>
        <time>2022-06-19T09:24:53.703Z</time>
      </trkpt>
      <trkpt lat="43.13637167" lon="-6.98510833">
        <ele>983.0</ele>
        <time>2022-06-19T09:24:54.722Z</time>
      </trkpt>
      <trkpt lat="43.13637167" lon="-6.98510833">
        <ele>983.0</ele>
        <time>2022-06-19T09:24:55.694Z</time>
      </trkpt>
      <trkpt lat="43.13632333" lon="-6.98529167">
        <ele>983.0</ele>
        <time>2022-06-19T09:24:56.718Z</time>
      </trkpt>
      <trkpt lat="43.13632333" lon="-6.98529167">
        <ele>983.0</ele>
        <time>2022-06-19T09:24:57.724Z</time>
      </trkpt>
      <trkpt lat="43.136285" lon="-6.98547333">
        <ele>983.0</ele>
        <time>2022-06-19T09:24:58.695Z</time>
      </trkpt>
      <trkpt lat="43.136285" lon="-6.98547333">
        <ele>983.0</ele>
        <time>2022-06-19T09:24:59.704Z</time>
      </trkpt>
      <trkpt lat="43.13626" lon="-6.98565333">
        <ele>983.0</ele>
        <time>2022-06-19T09:25:00.692Z</time>
      </trkpt>
      <trkpt lat="43.13625" lon="-6.98574">
        <ele>983.0</ele>
        <time>2022-06-19T09:25:01.718Z</time>
      </trkpt>
      <trkpt lat="43.13625" lon="-6.98574">
        <ele>983.0</ele>
        <time>2022-06-19T09:25:02.723Z</time>
      </trkpt>
      <trkpt lat="43.13623833" lon="-6.98590833">
        <ele>983.0</ele>
        <time>2022-06-19T09:25:03.705Z</time>
      </trkpt>
      <trkpt lat="43.13623833" lon="-6.98590833">
        <ele>983.0</ele>
        <time>2022-06-19T09:25:04.711Z</time>
      </trkpt>
      <trkpt lat="43.13623333" lon="-6.98607167">
        <ele>983.0</ele>
        <time>2022-06-19T09:25:05.706Z</time>
      </trkpt>
      <trkpt lat="43.13623333" lon="-6.98607167">
        <ele>983.0</ele>
        <time>2022-06-19T09:25:06.711Z</time>
      </trkpt>
      <trkpt lat="43.13623167" lon="-6.98623667">
        <ele>983.0</ele>
        <time>2022-06-19T09:25:07.709Z</time>
      </trkpt>
      <trkpt lat="43.13623167" lon="-6.98623667">
        <ele>983.0</ele>
        <time>2022-06-19T09:25:08.715Z</time>
      </trkpt>
      <trkpt lat="43.13624" lon="-6.9864">
        <ele>983.0</ele>
        <time>2022-06-19T09:25:09.719Z</time>
      </trkpt>
      <trkpt lat="43.13624" lon="-6.9864">
        <ele>983.0</ele>
        <time>2022-06-19T09:25:10.725Z</time>
      </trkpt>
      <trkpt lat="43.13625667" lon="-6.98656167">
        <ele>984.0</ele>
        <time>2022-06-19T09:25:11.707Z</time>
      </trkpt>
      <trkpt lat="43.13625667" lon="-6.98656167">
        <ele>984.0</ele>
        <time>2022-06-19T09:25:12.713Z</time>
      </trkpt>
      <trkpt lat="43.13628" lon="-6.98671667">
        <ele>984.0</ele>
        <time>2022-06-19T09:25:13.702Z</time>
      </trkpt>
      <trkpt lat="43.13628" lon="-6.98671667">
        <ele>984.0</ele>
        <time>2022-06-19T09:25:14.708Z</time>
      </trkpt>
      <trkpt lat="43.13631" lon="-6.98686833">
        <ele>984.0</ele>
        <time>2022-06-19T09:25:15.710Z</time>
      </trkpt>
      <trkpt lat="43.13632667" lon="-6.98694">
        <ele>984.0</ele>
        <time>2022-06-19T09:25:16.719Z</time>
      </trkpt>
      <trkpt lat="43.13632667" lon="-6.98694">
        <ele>984.0</ele>
        <time>2022-06-19T09:25:17.725Z</time>
      </trkpt>
      <trkpt lat="43.13636667" lon="-6.98708167">
        <ele>984.0</ele>
        <time>2022-06-19T09:25:18.694Z</time>
      </trkpt>
      <trkpt lat="43.13639" lon="-6.98714833">
        <ele>984.0</ele>
        <time>2022-06-19T09:25:19.693Z</time>
      </trkpt>
      <trkpt lat="43.13639" lon="-6.98714833">
        <ele>984.0</ele>
        <time>2022-06-19T09:25:20.699Z</time>
      </trkpt>
      <trkpt lat="43.13643833" lon="-6.98728167">
        <ele>985.0</ele>
        <time>2022-06-19T09:25:21.689Z</time>
      </trkpt>
      <trkpt lat="43.13646167" lon="-6.987345">
        <ele>985.0</ele>
        <time>2022-06-19T09:25:22.715Z</time>
      </trkpt>
      <trkpt lat="43.13646167" lon="-6.987345">
        <ele>985.0</ele>
        <time>2022-06-19T09:25:23.725Z</time>
      </trkpt>
      <trkpt lat="43.136515" lon="-6.987475">
        <ele>985.0</ele>
        <time>2022-06-19T09:25:24.715Z</time>
      </trkpt>
      <trkpt lat="43.136515" lon="-6.987475">
        <ele>985.0</ele>
        <time>2022-06-19T09:25:25.722Z</time>
      </trkpt>
      <trkpt lat="43.13657" lon="-6.98759833">
        <ele>985.0</ele>
        <time>2022-06-19T09:25:26.713Z</time>
      </trkpt>
      <trkpt lat="43.13657" lon="-6.98759833">
        <ele>985.0</ele>
        <time>2022-06-19T09:25:27.719Z</time>
      </trkpt>
      <trkpt lat="43.13662833" lon="-6.98772833">
        <ele>985.0</ele>
        <time>2022-06-19T09:25:28.727Z</time>
      </trkpt>
      <trkpt lat="43.13662833" lon="-6.98772833">
        <ele>985.0</ele>
        <time>2022-06-19T09:25:29.709Z</time>
      </trkpt>
      <trkpt lat="43.13668833" lon="-6.98785833">
        <ele>986.0</ele>
        <time>2022-06-19T09:25:30.724Z</time>
      </trkpt>
      <trkpt lat="43.13668833" lon="-6.98785833">
        <ele>986.0</ele>
        <time>2022-06-19T09:25:31.690Z</time>
      </trkpt>
      <trkpt lat="43.13674667" lon="-6.98798833">
        <ele>986.0</ele>
        <time>2022-06-19T09:25:32.726Z</time>
      </trkpt>
      <trkpt lat="43.136775" lon="-6.98805333">
        <ele>986.0</ele>
        <time>2022-06-19T09:25:33.713Z</time>
      </trkpt>
      <trkpt lat="43.136775" lon="-6.98805333">
        <ele>986.0</ele>
        <time>2022-06-19T09:25:34.689Z</time>
      </trkpt>
      <trkpt lat="43.13683333" lon="-6.98818167">
        <ele>986.0</ele>
        <time>2022-06-19T09:25:35.725Z</time>
      </trkpt>
      <trkpt lat="43.13683333" lon="-6.98818167">
        <ele>986.0</ele>
        <time>2022-06-19T09:25:36.690Z</time>
      </trkpt>
      <trkpt lat="43.13689167" lon="-6.98830833">
        <ele>986.0</ele>
        <time>2022-06-19T09:25:37.722Z</time>
      </trkpt>
      <trkpt lat="43.13689167" lon="-6.98830833">
        <ele>986.0</ele>
        <time>2022-06-19T09:25:38.688Z</time>
      </trkpt>
      <trkpt lat="43.13694833" lon="-6.98843667">
        <ele>986.0</ele>
        <time>2022-06-19T09:25:39.718Z</time>
      </trkpt>
      <trkpt lat="43.136975" lon="-6.9885">
        <ele>986.0</ele>
        <time>2022-06-19T09:25:40.708Z</time>
      </trkpt>
      <trkpt lat="43.136975" lon="-6.9885">
        <ele>986.0</ele>
        <time>2022-06-19T09:25:41.713Z</time>
      </trkpt>
      <trkpt lat="43.13703333" lon="-6.98862333">
        <ele>986.0</ele>
        <time>2022-06-19T09:25:42.714Z</time>
      </trkpt>
      <trkpt lat="43.13706333" lon="-6.988685">
        <ele>986.0</ele>
        <time>2022-06-19T09:25:43.705Z</time>
      </trkpt>
      <trkpt lat="43.13706333" lon="-6.988685">
        <ele>986.0</ele>
        <time>2022-06-19T09:25:44.710Z</time>
      </trkpt>
      <trkpt lat="43.13712333" lon="-6.98880667">
        <ele>986.0</ele>
        <time>2022-06-19T09:25:45.703Z</time>
      </trkpt>
      <trkpt lat="43.137155" lon="-6.98886833">
        <ele>986.0</ele>
        <time>2022-06-19T09:25:46.727Z</time>
      </trkpt>
      <trkpt lat="43.137155" lon="-6.98886833">
        <ele>986.0</ele>
        <time>2022-06-19T09:25:47.693Z</time>
      </trkpt>
      <trkpt lat="43.13721833" lon="-6.98898667">
        <ele>986.0</ele>
        <time>2022-06-19T09:25:48.694Z</time>
      </trkpt>
      <trkpt lat="43.13725167" lon="-6.98904167">
        <ele>986.0</ele>
        <time>2022-06-19T09:25:49.692Z</time>
      </trkpt>
      <trkpt lat="43.13725167" lon="-6.98904167">
        <ele>986.0</ele>
        <time>2022-06-19T09:25:50.697Z</time>
      </trkpt>
      <trkpt lat="43.13732" lon="-6.98915">
        <ele>987.0</ele>
        <time>2022-06-19T09:25:51.690Z</time>
      </trkpt>
      <trkpt lat="43.13732" lon="-6.98915">
        <ele>987.0</ele>
        <time>2022-06-19T09:25:52.717Z</time>
      </trkpt>
      <trkpt lat="43.137395" lon="-6.98925833">
        <ele>987.0</ele>
        <time>2022-06-19T09:25:53.726Z</time>
      </trkpt>
      <trkpt lat="43.13743333" lon="-6.98930833">
        <ele>987.0</ele>
        <time>2022-06-19T09:25:54.688Z</time>
      </trkpt>
      <trkpt lat="43.13743333" lon="-6.98930833">
        <ele>987.0</ele>
        <time>2022-06-19T09:25:55.694Z</time>
      </trkpt>
      <trkpt lat="43.13751333" lon="-6.98940167">
        <ele>987.0</ele>
        <time>2022-06-19T09:25:56.691Z</time>
      </trkpt>
      <trkpt lat="43.13751333" lon="-6.98940167">
        <ele>987.0</ele>
        <time>2022-06-19T09:25:57.697Z</time>
      </trkpt>
      <trkpt lat="43.13759" lon="-6.98948667">
        <ele>987.0</ele>
        <time>2022-06-19T09:25:58.726Z</time>
      </trkpt>
      <trkpt lat="43.13759" lon="-6.98948667">
        <ele>987.0</ele>
        <time>2022-06-19T09:25:59.692Z</time>
      </trkpt>
      <trkpt lat="43.13766667" lon="-6.98956833">
        <ele>988.0</ele>
        <time>2022-06-19T09:26:00.688Z</time>
      </trkpt>
      <trkpt lat="43.13766667" lon="-6.98956833">
        <ele>988.0</ele>
        <time>2022-06-19T09:26:01.693Z</time>
      </trkpt>
      <trkpt lat="43.13774667" lon="-6.98964667">
        <ele>989.0</ele>
        <time>2022-06-19T09:26:02.705Z</time>
      </trkpt>
      <trkpt lat="43.13774667" lon="-6.98964667">
        <ele>989.0</ele>
        <time>2022-06-19T09:26:03.711Z</time>
      </trkpt>
      <trkpt lat="43.13782667" lon="-6.98972">
        <ele>989.0</ele>
        <time>2022-06-19T09:26:04.703Z</time>
      </trkpt>
      <trkpt lat="43.13786833" lon="-6.98975667">
        <ele>989.0</ele>
        <time>2022-06-19T09:26:05.692Z</time>
      </trkpt>
      <trkpt lat="43.13786833" lon="-6.98975667">
        <ele>989.0</ele>
        <time>2022-06-19T09:26:06.699Z</time>
      </trkpt>
      <trkpt lat="43.137945" lon="-6.98982833">
        <ele>990.0</ele>
        <time>2022-06-19T09:26:07.703Z</time>
      </trkpt>
      <trkpt lat="43.137945" lon="-6.98982833">
        <ele>990.0</ele>
        <time>2022-06-19T09:26:08.693Z</time>
      </trkpt>
      <trkpt lat="43.13801833" lon="-6.98990333">
        <ele>991.0</ele>
        <time>2022-06-19T09:26:09.727Z</time>
      </trkpt>
      <trkpt lat="43.13805833" lon="-6.98993833">
        <ele>991.0</ele>
        <time>2022-06-19T09:26:10.723Z</time>
      </trkpt>
      <trkpt lat="43.13805833" lon="-6.98993833">
        <ele>991.0</ele>
        <time>2022-06-19T09:26:11.688Z</time>
      </trkpt>
      <trkpt lat="43.13813333" lon="-6.99001">
        <ele>991.0</ele>
        <time>2022-06-19T09:26:12.723Z</time>
      </trkpt>
      <trkpt lat="43.13817" lon="-6.99004667">
        <ele>991.0</ele>
        <time>2022-06-19T09:26:13.712Z</time>
      </trkpt>
      <trkpt lat="43.13817" lon="-6.99004667">
        <ele>991.0</ele>
        <time>2022-06-19T09:26:14.718Z</time>
      </trkpt>
      <trkpt lat="43.13824333" lon="-6.99012333">
        <ele>992.0</ele>
        <time>2022-06-19T09:26:15.717Z</time>
      </trkpt>
      <trkpt lat="43.13824333" lon="-6.99012333">
        <ele>992.0</ele>
        <time>2022-06-19T09:26:16.723Z</time>
      </trkpt>
      <trkpt lat="43.13831333" lon="-6.99020167">
        <ele>992.0</ele>
        <time>2022-06-19T09:26:17.697Z</time>
      </trkpt>
      <trkpt lat="43.13835" lon="-6.99024333">
        <ele>992.0</ele>
        <time>2022-06-19T09:26:18.696Z</time>
      </trkpt>
      <trkpt lat="43.13835" lon="-6.99024333">
        <ele>992.0</ele>
        <time>2022-06-19T09:26:19.709Z</time>
      </trkpt>
      <trkpt lat="43.13841667" lon="-6.990335">
        <ele>992.0</ele>
        <time>2022-06-19T09:26:20.705Z</time>
      </trkpt>
      <trkpt lat="43.13841667" lon="-6.990335">
        <ele>992.0</ele>
        <time>2022-06-19T09:26:21.721Z</time>
      </trkpt>
      <trkpt lat="43.13847833" lon="-6.99043">
        <ele>992.0</ele>
        <time>2022-06-19T09:26:22.711Z</time>
      </trkpt>
      <trkpt lat="43.13850667" lon="-6.99047833">
        <ele>993.0</ele>
        <time>2022-06-19T09:26:23.707Z</time>
      </trkpt>
      <trkpt lat="43.13850667" lon="-6.99047833">
        <ele>993.0</ele>
        <time>2022-06-19T09:26:24.713Z</time>
      </trkpt>
      <trkpt lat="43.13856667" lon="-6.99057">
        <ele>993.0</ele>
        <time>2022-06-19T09:26:25.688Z</time>
      </trkpt>
      <trkpt lat="43.138595" lon="-6.99061833">
        <ele>993.0</ele>
        <time>2022-06-19T09:26:26.721Z</time>
      </trkpt>
      <trkpt lat="43.138595" lon="-6.99061833">
        <ele>993.0</ele>
        <time>2022-06-19T09:26:27.726Z</time>
      </trkpt>
      <trkpt lat="43.13864833" lon="-6.99072333">
        <ele>993.0</ele>
        <time>2022-06-19T09:26:28.725Z</time>
      </trkpt>
      <trkpt lat="43.138675" lon="-6.99077667">
        <ele>993.0</ele>
        <time>2022-06-19T09:26:29.716Z</time>
      </trkpt>
      <trkpt lat="43.138675" lon="-6.99077667">
        <ele>993.0</ele>
        <time>2022-06-19T09:26:30.722Z</time>
      </trkpt>
      <trkpt lat="43.13871833" lon="-6.99089">
        <ele>993.0</ele>
        <time>2022-06-19T09:26:31.717Z</time>
      </trkpt>
      <trkpt lat="43.13871833" lon="-6.99089">
        <ele>993.0</ele>
        <time>2022-06-19T09:26:32.708Z</time>
      </trkpt>
      <trkpt lat="43.13875333" lon="-6.99100667">
        <ele>993.0</ele>
        <time>2022-06-19T09:26:33.707Z</time>
      </trkpt>
      <trkpt lat="43.13875333" lon="-6.99100667">
        <ele>993.0</ele>
        <time>2022-06-19T09:26:34.712Z</time>
      </trkpt>
      <trkpt lat="43.13878667" lon="-6.99112667">
        <ele>993.0</ele>
        <time>2022-06-19T09:26:35.711Z</time>
      </trkpt>
      <trkpt lat="43.13878667" lon="-6.99112667">
        <ele>993.0</ele>
        <time>2022-06-19T09:26:36.716Z</time>
      </trkpt>
      <trkpt lat="43.13882" lon="-6.991245">
        <ele>993.0</ele>
        <time>2022-06-19T09:26:37.722Z</time>
      </trkpt>
      <trkpt lat="43.13883833" lon="-6.99130667">
        <ele>993.0</ele>
        <time>2022-06-19T09:26:38.702Z</time>
      </trkpt>
      <trkpt lat="43.13883833" lon="-6.99130667">
        <ele>993.0</ele>
        <time>2022-06-19T09:26:39.707Z</time>
      </trkpt>
      <trkpt lat="43.13886833" lon="-6.99142833">
        <ele>993.0</ele>
        <time>2022-06-19T09:26:40.697Z</time>
      </trkpt>
      <trkpt lat="43.13886833" lon="-6.99142833">
        <ele>993.0</ele>
        <time>2022-06-19T09:26:41.702Z</time>
      </trkpt>
      <trkpt lat="43.13889333" lon="-6.99155">
        <ele>993.0</ele>
        <time>2022-06-19T09:26:42.691Z</time>
      </trkpt>
      <trkpt lat="43.13890333" lon="-6.99161167">
        <ele>993.0</ele>
        <time>2022-06-19T09:26:43.727Z</time>
      </trkpt>
      <trkpt lat="43.13891167" lon="-6.99167333">
        <ele>993.0</ele>
        <time>2022-06-19T09:26:44.721Z</time>
      </trkpt>
      <trkpt lat="43.13891167" lon="-6.99167333">
        <ele>993.0</ele>
        <time>2022-06-19T09:26:45.726Z</time>
      </trkpt>
      <trkpt lat="43.13892167" lon="-6.991795">
        <ele>994.0</ele>
        <time>2022-06-19T09:26:46.726Z</time>
      </trkpt>
      <trkpt lat="43.13892167" lon="-6.991795">
        <ele>994.0</ele>
        <time>2022-06-19T09:26:47.691Z</time>
      </trkpt>
      <trkpt lat="43.13893833" lon="-6.99192333">
        <ele>994.0</ele>
        <time>2022-06-19T09:26:48.725Z</time>
      </trkpt>
      <trkpt lat="43.13894333" lon="-6.99198667">
        <ele>994.0</ele>
        <time>2022-06-19T09:26:49.716Z</time>
      </trkpt>
      <trkpt lat="43.13894333" lon="-6.99198667">
        <ele>994.0</ele>
        <time>2022-06-19T09:26:50.722Z</time>
      </trkpt>
      <trkpt lat="43.138955" lon="-6.992115">
        <ele>995.0</ele>
        <time>2022-06-19T09:26:51.699Z</time>
      </trkpt>
      <trkpt lat="43.13896333" lon="-6.99218">
        <ele>994.0</ele>
        <time>2022-06-19T09:26:52.709Z</time>
      </trkpt>
      <trkpt lat="43.13897167" lon="-6.992245">
        <ele>994.0</ele>
        <time>2022-06-19T09:26:53.719Z</time>
      </trkpt>
      <trkpt lat="43.13897167" lon="-6.992245">
        <ele>994.0</ele>
        <time>2022-06-19T09:26:54.724Z</time>
      </trkpt>
      <trkpt lat="43.138985" lon="-6.992375">
        <ele>995.0</ele>
        <time>2022-06-19T09:26:55.716Z</time>
      </trkpt>
      <trkpt lat="43.138985" lon="-6.992375">
        <ele>995.0</ele>
        <time>2022-06-19T09:26:56.722Z</time>
      </trkpt>
      <trkpt lat="43.139" lon="-6.99250833">
        <ele>994.0</ele>
        <time>2022-06-19T09:26:57.710Z</time>
      </trkpt>
      <trkpt lat="43.139" lon="-6.99250833">
        <ele>994.0</ele>
        <time>2022-06-19T09:26:58.715Z</time>
      </trkpt>
      <trkpt lat="43.139015" lon="-6.99263333">
        <ele>995.0</ele>
        <time>2022-06-19T09:26:59.716Z</time>
      </trkpt>
      <trkpt lat="43.13902667" lon="-6.99269667">
        <ele>994.0</ele>
        <time>2022-06-19T09:27:00.718Z</time>
      </trkpt>
      <trkpt lat="43.13903667" lon="-6.99276">
        <ele>995.0</ele>
        <time>2022-06-19T09:27:01.706Z</time>
      </trkpt>
      <trkpt lat="43.13903667" lon="-6.99276">
        <ele>995.0</ele>
        <time>2022-06-19T09:27:02.713Z</time>
      </trkpt>
      <trkpt lat="43.13907" lon="-6.99288667">
        <ele>995.0</ele>
        <time>2022-06-19T09:27:03.706Z</time>
      </trkpt>
      <trkpt lat="43.13907" lon="-6.99288667">
        <ele>995.0</ele>
        <time>2022-06-19T09:27:04.712Z</time>
      </trkpt>
      <trkpt lat="43.13910167" lon="-6.99301167">
        <ele>995.0</ele>
        <time>2022-06-19T09:27:05.716Z</time>
      </trkpt>
      <trkpt lat="43.13910167" lon="-6.99301167">
        <ele>995.0</ele>
        <time>2022-06-19T09:27:06.723Z</time>
      </trkpt>
      <trkpt lat="43.13913667" lon="-6.99313667">
        <ele>995.0</ele>
        <time>2022-06-19T09:27:07.715Z</time>
      </trkpt>
      <trkpt lat="43.13913667" lon="-6.99313667">
        <ele>995.0</ele>
        <time>2022-06-19T09:27:08.721Z</time>
      </trkpt>
      <trkpt lat="43.13916833" lon="-6.99325333">
        <ele>995.0</ele>
        <time>2022-06-19T09:27:09.726Z</time>
      </trkpt>
      <trkpt lat="43.13919167" lon="-6.99331">
        <ele>995.0</ele>
        <time>2022-06-19T09:27:10.720Z</time>
      </trkpt>
      <trkpt lat="43.13919167" lon="-6.99331">
        <ele>995.0</ele>
        <time>2022-06-19T09:27:11.726Z</time>
      </trkpt>
      <trkpt lat="43.13922667" lon="-6.99342333">
        <ele>995.0</ele>
        <time>2022-06-19T09:27:12.707Z</time>
      </trkpt>
      <trkpt lat="43.139245" lon="-6.99347833">
        <ele>995.0</ele>
        <time>2022-06-19T09:27:13.692Z</time>
      </trkpt>
      <trkpt lat="43.139245" lon="-6.99347833">
        <ele>995.0</ele>
        <time>2022-06-19T09:27:14.697Z</time>
      </trkpt>
      <trkpt lat="43.13929" lon="-6.993585">
        <ele>995.0</ele>
        <time>2022-06-19T09:27:15.693Z</time>
      </trkpt>
      <trkpt lat="43.13929" lon="-6.993585">
        <ele>995.0</ele>
        <time>2022-06-19T09:27:16.705Z</time>
      </trkpt>
      <trkpt lat="43.13934" lon="-6.99369">
        <ele>995.0</ele>
        <time>2022-06-19T09:27:17.706Z</time>
      </trkpt>
      <trkpt lat="43.13934" lon="-6.99369">
        <ele>995.0</ele>
        <time>2022-06-19T09:27:18.711Z</time>
      </trkpt>
      <trkpt lat="43.13939833" lon="-6.99379167">
        <ele>995.0</ele>
        <time>2022-06-19T09:27:19.708Z</time>
      </trkpt>
      <trkpt lat="43.13943" lon="-6.99384">
        <ele>995.0</ele>
        <time>2022-06-19T09:27:20.695Z</time>
      </trkpt>
      <trkpt lat="43.13943" lon="-6.99384">
        <ele>995.0</ele>
        <time>2022-06-19T09:27:21.700Z</time>
      </trkpt>
      <trkpt lat="43.13950167" lon="-6.99394167">
        <ele>995.0</ele>
        <time>2022-06-19T09:27:22.695Z</time>
      </trkpt>
      <trkpt lat="43.13950167" lon="-6.99394167">
        <ele>995.0</ele>
        <time>2022-06-19T09:27:23.706Z</time>
      </trkpt>
      <trkpt lat="43.139575" lon="-6.99403833">
        <ele>995.0</ele>
        <time>2022-06-19T09:27:24.712Z</time>
      </trkpt>
      <trkpt lat="43.13961333" lon="-6.994085">
        <ele>995.0</ele>
        <time>2022-06-19T09:27:25.709Z</time>
      </trkpt>
      <trkpt lat="43.13965333" lon="-6.99413167">
        <ele>995.0</ele>
        <time>2022-06-19T09:27:26.703Z</time>
      </trkpt>
      <trkpt lat="43.13965333" lon="-6.99413167">
        <ele>995.0</ele>
        <time>2022-06-19T09:27:27.709Z</time>
      </trkpt>
      <trkpt lat="43.13972667" lon="-6.99422333">
        <ele>995.0</ele>
        <time>2022-06-19T09:27:28.698Z</time>
      </trkpt>
      <trkpt lat="43.13976" lon="-6.99427167">
        <ele>995.0</ele>
        <time>2022-06-19T09:27:29.690Z</time>
      </trkpt>
      <trkpt lat="43.13976" lon="-6.99427167">
        <ele>995.0</ele>
        <time>2022-06-19T09:27:30.696Z</time>
      </trkpt>
      <trkpt lat="43.13980833" lon="-6.99438">
        <ele>996.0</ele>
        <time>2022-06-19T09:27:31.726Z</time>
      </trkpt>
      <trkpt lat="43.13980833" lon="-6.99438">
        <ele>996.0</ele>
        <time>2022-06-19T09:27:32.692Z</time>
      </trkpt>
      <trkpt lat="43.13982167" lon="-6.99448333">
        <ele>996.0</ele>
        <time>2022-06-19T09:27:33.715Z</time>
      </trkpt>
      <trkpt lat="43.13982167" lon="-6.99448333">
        <ele>996.0</ele>
        <time>2022-06-19T09:27:34.721Z</time>
      </trkpt>
      <trkpt lat="43.13981167" lon="-6.99455167">
        <ele>996.0</ele>
        <time>2022-06-19T09:27:35.694Z</time>
      </trkpt>
      <trkpt lat="43.13981167" lon="-6.99455167">
        <ele>996.0</ele>
        <time>2022-06-19T09:27:36.705Z</time>
      </trkpt>
      <trkpt lat="43.13981167" lon="-6.99462167">
        <ele>996.0</ele>
        <time>2022-06-19T09:27:37.703Z</time>
      </trkpt>
      <trkpt lat="43.13981167" lon="-6.99462167">
        <ele>996.0</ele>
        <time>2022-06-19T09:27:38.709Z</time>
      </trkpt>
      <trkpt lat="43.139835" lon="-6.99467833">
        <ele>996.0</ele>
        <time>2022-06-19T09:27:39.703Z</time>
      </trkpt>
      <trkpt lat="43.139835" lon="-6.99467833">
        <ele>996.0</ele>
        <time>2022-06-19T09:27:40.708Z</time>
      </trkpt>
      <trkpt lat="43.13988" lon="-6.994715">
        <ele>997.0</ele>
        <time>2022-06-19T09:27:41.696Z</time>
      </trkpt>
      <trkpt lat="43.13988" lon="-6.994715">
        <ele>997.0</ele>
        <time>2022-06-19T09:27:42.704Z</time>
      </trkpt>
      <trkpt lat="43.13996167" lon="-6.99475">
        <ele>996.0</ele>
        <time>2022-06-19T09:27:43.703Z</time>
      </trkpt>
      <trkpt lat="43.13996167" lon="-6.99475">
        <ele>996.0</ele>
        <time>2022-06-19T09:27:44.709Z</time>
      </trkpt>
      <trkpt lat="43.14005167" lon="-6.994815">
        <ele>995.0</ele>
        <time>2022-06-19T09:27:45.716Z</time>
      </trkpt>
      <trkpt lat="43.14010333" lon="-6.99485333">
        <ele>994.0</ele>
        <time>2022-06-19T09:27:46.689Z</time>
      </trkpt>
      <trkpt lat="43.14010333" lon="-6.99485333">
        <ele>994.0</ele>
        <time>2022-06-19T09:27:47.694Z</time>
      </trkpt>
      <trkpt lat="43.14022167" lon="-6.994935">
        <ele>993.0</ele>
        <time>2022-06-19T09:27:48.706Z</time>
      </trkpt>
      <trkpt lat="43.14022167" lon="-6.994935">
        <ele>993.0</ele>
        <time>2022-06-19T09:27:49.725Z</time>
      </trkpt>
      <trkpt lat="43.14036" lon="-6.99502667">
        <ele>993.0</ele>
        <time>2022-06-19T09:27:50.720Z</time>
      </trkpt>
      <trkpt lat="43.14036" lon="-6.99502667">
        <ele>993.0</ele>
        <time>2022-06-19T09:27:51.725Z</time>
      </trkpt>
      <trkpt lat="43.14049833" lon="-6.99512167">
        <ele>992.0</ele>
        <time>2022-06-19T09:27:52.692Z</time>
      </trkpt>
      <trkpt lat="43.140545" lon="-6.99516">
        <ele>991.0</ele>
        <time>2022-06-19T09:27:53.693Z</time>
      </trkpt>
      <trkpt lat="43.140545" lon="-6.99516">
        <ele>991.0</ele>
        <time>2022-06-19T09:27:54.707Z</time>
      </trkpt>
      <trkpt lat="43.14060667" lon="-6.99521">
        <ele>990.0</ele>
        <time>2022-06-19T09:27:55.707Z</time>
      </trkpt>
      <trkpt lat="43.14060667" lon="-6.99521">
        <ele>990.0</ele>
        <time>2022-06-19T09:27:56.712Z</time>
      </trkpt>
      <trkpt lat="43.14068333" lon="-6.99527167">
        <ele>989.0</ele>
        <time>2022-06-19T09:27:57.717Z</time>
      </trkpt>
      <trkpt lat="43.14068333" lon="-6.99527167">
        <ele>989.0</ele>
        <time>2022-06-19T09:27:58.725Z</time>
      </trkpt>
      <trkpt lat="43.14073333" lon="-6.99538">
        <ele>989.0</ele>
        <time>2022-06-19T09:27:59.709Z</time>
      </trkpt>
      <trkpt lat="43.14075667" lon="-6.99543667">
        <ele>989.0</ele>
        <time>2022-06-19T09:28:00.692Z</time>
      </trkpt>
      <trkpt lat="43.14077833" lon="-6.99549833">
        <ele>989.0</ele>
        <time>2022-06-19T09:28:01.720Z</time>
      </trkpt>
      <trkpt lat="43.14077833" lon="-6.99549833">
        <ele>989.0</ele>
        <time>2022-06-19T09:28:02.726Z</time>
      </trkpt>
      <trkpt lat="43.14082333" lon="-6.99562833">
        <ele>989.0</ele>
        <time>2022-06-19T09:28:03.714Z</time>
      </trkpt>
      <trkpt lat="43.14082333" lon="-6.99562833">
        <ele>989.0</ele>
        <time>2022-06-19T09:28:04.720Z</time>
      </trkpt>
      <trkpt lat="43.140885" lon="-6.99575">
        <ele>988.0</ele>
        <time>2022-06-19T09:28:05.689Z</time>
      </trkpt>
      <trkpt lat="43.140885" lon="-6.99575">
        <ele>988.0</ele>
        <time>2022-06-19T09:28:06.697Z</time>
      </trkpt>
      <trkpt lat="43.14096167" lon="-6.99586333">
        <ele>988.0</ele>
        <time>2022-06-19T09:28:07.691Z</time>
      </trkpt>
      <trkpt lat="43.14096167" lon="-6.99586333">
        <ele>988.0</ele>
        <time>2022-06-19T09:28:08.696Z</time>
      </trkpt>
      <trkpt lat="43.14105" lon="-6.99597667">
        <ele>987.0</ele>
        <time>2022-06-19T09:28:09.727Z</time>
      </trkpt>
      <trkpt lat="43.14105" lon="-6.99597667">
        <ele>987.0</ele>
        <time>2022-06-19T09:28:10.693Z</time>
      </trkpt>
      <trkpt lat="43.141155" lon="-6.99606667">
        <ele>985.0</ele>
        <time>2022-06-19T09:28:11.695Z</time>
      </trkpt>
      <trkpt lat="43.141155" lon="-6.99606667">
        <ele>985.0</ele>
        <time>2022-06-19T09:28:12.706Z</time>
      </trkpt>
      <trkpt lat="43.14124" lon="-6.99612167">
        <ele>985.0</ele>
        <time>2022-06-19T09:28:13.692Z</time>
      </trkpt>
      <trkpt lat="43.14124" lon="-6.99612167">
        <ele>985.0</ele>
        <time>2022-06-19T09:28:14.697Z</time>
      </trkpt>
      <trkpt lat="43.1413" lon="-6.99615333">
        <ele>984.0</ele>
        <time>2022-06-19T09:28:15.698Z</time>
      </trkpt>
      <trkpt lat="43.14132333" lon="-6.99616833">
        <ele>984.0</ele>
        <time>2022-06-19T09:28:16.706Z</time>
      </trkpt>
      <trkpt lat="43.14134667" lon="-6.99617833">
        <ele>984.0</ele>
        <time>2022-06-19T09:28:17.700Z</time>
      </trkpt>
      <trkpt lat="43.14134667" lon="-6.99617833">
        <ele>984.0</ele>
        <time>2022-06-19T09:28:18.705Z</time>
      </trkpt>
      <trkpt lat="43.14139167" lon="-6.99619333">
        <ele>983.0</ele>
        <time>2022-06-19T09:28:19.705Z</time>
      </trkpt>
      <trkpt lat="43.14139167" lon="-6.99619333">
        <ele>983.0</ele>
        <time>2022-06-19T09:28:20.710Z</time>
      </trkpt>
      <trkpt lat="43.14141833" lon="-6.99620667">
        <ele>983.0</ele>
        <time>2022-06-19T09:28:21.706Z</time>
      </trkpt>
      <trkpt lat="43.14141833" lon="-6.99620667">
        <ele>983.0</ele>
        <time>2022-06-19T09:28:22.712Z</time>
      </trkpt>
      <trkpt lat="43.14146" lon="-6.99621833">
        <ele>983.0</ele>
        <time>2022-06-19T09:28:23.693Z</time>
      </trkpt>
      <trkpt lat="43.14146" lon="-6.99621833">
        <ele>983.0</ele>
        <time>2022-06-19T09:28:24.699Z</time>
      </trkpt>
      <trkpt lat="43.14154167" lon="-6.99622">
        <ele>983.0</ele>
        <time>2022-06-19T09:28:25.696Z</time>
      </trkpt>
      <trkpt lat="43.14154167" lon="-6.99622">
        <ele>983.0</ele>
        <time>2022-06-19T09:28:26.708Z</time>
      </trkpt>
      <trkpt lat="43.14163167" lon="-6.99624667">
        <ele>982.0</ele>
        <time>2022-06-19T09:28:27.706Z</time>
      </trkpt>
      <trkpt lat="43.14163167" lon="-6.99624667">
        <ele>982.0</ele>
        <time>2022-06-19T09:28:28.713Z</time>
      </trkpt>
      <trkpt lat="43.14173333" lon="-6.99627167">
        <ele>981.0</ele>
        <time>2022-06-19T09:28:29.710Z</time>
      </trkpt>
      <trkpt lat="43.14179333" lon="-6.99629">
        <ele>980.0</ele>
        <time>2022-06-19T09:28:30.691Z</time>
      </trkpt>
      <trkpt lat="43.14179333" lon="-6.99629">
        <ele>980.0</ele>
        <time>2022-06-19T09:28:31.697Z</time>
      </trkpt>
      <trkpt lat="43.14193" lon="-6.99634333">
        <ele>978.0</ele>
        <time>2022-06-19T09:28:32.693Z</time>
      </trkpt>
      <trkpt lat="43.14193" lon="-6.99634333">
        <ele>978.0</ele>
        <time>2022-06-19T09:28:33.698Z</time>
      </trkpt>
      <trkpt lat="43.14208" lon="-6.996435">
        <ele>976.0</ele>
        <time>2022-06-19T09:28:34.689Z</time>
      </trkpt>
      <trkpt lat="43.14208" lon="-6.996435">
        <ele>976.0</ele>
        <time>2022-06-19T09:28:35.694Z</time>
      </trkpt>
      <trkpt lat="43.14223167" lon="-6.99656167">
        <ele>974.0</ele>
        <time>2022-06-19T09:28:36.706Z</time>
      </trkpt>
      <trkpt lat="43.14228167" lon="-6.996605">
        <ele>973.0</ele>
        <time>2022-06-19T09:28:37.718Z</time>
      </trkpt>
      <trkpt lat="43.14231833" lon="-6.99662167">
        <ele>973.0</ele>
        <time>2022-06-19T09:28:38.712Z</time>
      </trkpt>
      <trkpt lat="43.14231833" lon="-6.99662167">
        <ele>973.0</ele>
        <time>2022-06-19T09:28:39.718Z</time>
      </trkpt>
      <trkpt lat="43.14238" lon="-6.99665167">
        <ele>972.0</ele>
        <time>2022-06-19T09:28:40.706Z</time>
      </trkpt>
      <trkpt lat="43.14238" lon="-6.99665167">
        <ele>972.0</ele>
        <time>2022-06-19T09:28:41.712Z</time>
      </trkpt>
      <trkpt lat="43.14243167" lon="-6.99668167">
        <ele>971.0</ele>
        <time>2022-06-19T09:28:42.691Z</time>
      </trkpt>
      <trkpt lat="43.14245167" lon="-6.99670167">
        <ele>971.0</ele>
        <time>2022-06-19T09:28:43.723Z</time>
      </trkpt>
      <trkpt lat="43.14245167" lon="-6.99670167">
        <ele>971.0</ele>
        <time>2022-06-19T09:28:44.688Z</time>
      </trkpt>
      <trkpt lat="43.14250167" lon="-6.99674333">
        <ele>970.0</ele>
        <time>2022-06-19T09:28:45.696Z</time>
      </trkpt>
      <trkpt lat="43.14250167" lon="-6.99674333">
        <ele>970.0</ele>
        <time>2022-06-19T09:28:46.721Z</time>
      </trkpt>
      <trkpt lat="43.14255667" lon="-6.99678333">
        <ele>969.0</ele>
        <time>2022-06-19T09:28:47.706Z</time>
      </trkpt>
      <trkpt lat="43.14258667" lon="-6.996805">
        <ele>969.0</ele>
        <time>2022-06-19T09:28:48.695Z</time>
      </trkpt>
      <trkpt lat="43.14258667" lon="-6.996805">
        <ele>969.0</ele>
        <time>2022-06-19T09:28:49.700Z</time>
      </trkpt>
      <trkpt lat="43.14265667" lon="-6.99685167">
        <ele>968.0</ele>
        <time>2022-06-19T09:28:50.727Z</time>
      </trkpt>
      <trkpt lat="43.14265667" lon="-6.99685167">
        <ele>968.0</ele>
        <time>2022-06-19T09:28:51.693Z</time>
      </trkpt>
      <trkpt lat="43.142715" lon="-6.996905">
        <ele>967.0</ele>
        <time>2022-06-19T09:28:52.700Z</time>
      </trkpt>
      <trkpt lat="43.142715" lon="-6.996905">
        <ele>967.0</ele>
        <time>2022-06-19T09:28:53.716Z</time>
      </trkpt>
      <trkpt lat="43.142795" lon="-6.99695">
        <ele>968.0</ele>
        <time>2022-06-19T09:28:54.716Z</time>
      </trkpt>
      <trkpt lat="43.14283167" lon="-6.99697667">
        <ele>968.0</ele>
        <time>2022-06-19T09:28:55.709Z</time>
      </trkpt>
      <trkpt lat="43.14283167" lon="-6.99697667">
        <ele>968.0</ele>
        <time>2022-06-19T09:28:56.715Z</time>
      </trkpt>
      <trkpt lat="43.14289" lon="-6.99703167">
        <ele>968.0</ele>
        <time>2022-06-19T09:28:57.708Z</time>
      </trkpt>
      <trkpt lat="43.14289" lon="-6.99703167">
        <ele>968.0</ele>
        <time>2022-06-19T09:28:58.714Z</time>
      </trkpt>
      <trkpt lat="43.14296833" lon="-6.997115">
        <ele>968.0</ele>
        <time>2022-06-19T09:28:59.697Z</time>
      </trkpt>
      <trkpt lat="43.143015" lon="-6.99716">
        <ele>968.0</ele>
        <time>2022-06-19T09:29:00.721Z</time>
      </trkpt>
      <trkpt lat="43.143015" lon="-6.99716">
        <ele>968.0</ele>
        <time>2022-06-19T09:29:01.727Z</time>
      </trkpt>
      <trkpt lat="43.14311333" lon="-6.99724">
        <ele>967.0</ele>
        <time>2022-06-19T09:29:02.720Z</time>
      </trkpt>
      <trkpt lat="43.14317" lon="-6.997275">
        <ele>967.0</ele>
        <time>2022-06-19T09:29:03.711Z</time>
      </trkpt>
      <trkpt lat="43.14317" lon="-6.997275">
        <ele>967.0</ele>
        <time>2022-06-19T09:29:04.716Z</time>
      </trkpt>
      <trkpt lat="43.143295" lon="-6.99734167">
        <ele>967.0</ele>
        <time>2022-06-19T09:29:05.706Z</time>
      </trkpt>
      <trkpt lat="43.143295" lon="-6.99734167">
        <ele>967.0</ele>
        <time>2022-06-19T09:29:06.711Z</time>
      </trkpt>
      <trkpt lat="43.143435" lon="-6.99739833">
        <ele>966.0</ele>
        <time>2022-06-19T09:29:07.700Z</time>
      </trkpt>
      <trkpt lat="43.143435" lon="-6.99739833">
        <ele>966.0</ele>
        <time>2022-06-19T09:29:08.709Z</time>
      </trkpt>
      <trkpt lat="43.14358667" lon="-6.99747667">
        <ele>965.0</ele>
        <time>2022-06-19T09:29:09.706Z</time>
      </trkpt>
      <trkpt lat="43.14367" lon="-6.99751667">
        <ele>964.0</ele>
        <time>2022-06-19T09:29:10.713Z</time>
      </trkpt>
      <trkpt lat="43.14375833" lon="-6.99755167">
        <ele>964.0</ele>
        <time>2022-06-19T09:29:11.721Z</time>
      </trkpt>
      <trkpt lat="43.14375833" lon="-6.99755167">
        <ele>964.0</ele>
        <time>2022-06-19T09:29:12.727Z</time>
      </trkpt>
      <trkpt lat="43.14394167" lon="-6.99760667">
        <ele>963.0</ele>
        <time>2022-06-19T09:29:13.714Z</time>
      </trkpt>
      <trkpt lat="43.14394167" lon="-6.99760667">
        <ele>963.0</ele>
        <time>2022-06-19T09:29:14.720Z</time>
      </trkpt>
      <trkpt lat="43.14410667" lon="-6.99767833">
        <ele>962.0</ele>
        <time>2022-06-19T09:29:15.709Z</time>
      </trkpt>
      <trkpt lat="43.14417167" lon="-6.99770333">
        <ele>961.0</ele>
        <time>2022-06-19T09:29:16.691Z</time>
      </trkpt>
      <trkpt lat="43.14417167" lon="-6.99770333">
        <ele>961.0</ele>
        <time>2022-06-19T09:29:17.697Z</time>
      </trkpt>
      <trkpt lat="43.14427833" lon="-6.99773167">
        <ele>960.0</ele>
        <time>2022-06-19T09:29:18.702Z</time>
      </trkpt>
      <trkpt lat="43.14427833" lon="-6.99773167">
        <ele>960.0</ele>
        <time>2022-06-19T09:29:19.708Z</time>
      </trkpt>
      <trkpt lat="43.144355" lon="-6.99775">
        <ele>960.0</ele>
        <time>2022-06-19T09:29:20.696Z</time>
      </trkpt>
      <trkpt lat="43.144355" lon="-6.99775">
        <ele>960.0</ele>
        <time>2022-06-19T09:29:21.707Z</time>
      </trkpt>
      <trkpt lat="43.14440167" lon="-6.99775333">
        <ele>960.0</ele>
        <time>2022-06-19T09:29:22.716Z</time>
      </trkpt>
      <trkpt lat="43.14442167" lon="-6.99775833">
        <ele>959.0</ele>
        <time>2022-06-19T09:29:23.716Z</time>
      </trkpt>
      <trkpt lat="43.14442167" lon="-6.99775833">
        <ele>959.0</ele>
        <time>2022-06-19T09:29:24.721Z</time>
      </trkpt>
      <trkpt lat="43.14446833" lon="-6.99776833">
        <ele>959.0</ele>
        <time>2022-06-19T09:29:25.724Z</time>
      </trkpt>
      <trkpt lat="43.14446833" lon="-6.99776833">
        <ele>959.0</ele>
        <time>2022-06-19T09:29:26.689Z</time>
      </trkpt>
      <trkpt lat="43.14454833" lon="-6.99777">
        <ele>959.0</ele>
        <time>2022-06-19T09:29:27.706Z</time>
      </trkpt>
      <trkpt lat="43.14459167" lon="-6.99777">
        <ele>958.0</ele>
        <time>2022-06-19T09:29:28.694Z</time>
      </trkpt>
      <trkpt lat="43.14459167" lon="-6.99777">
        <ele>958.0</ele>
        <time>2022-06-19T09:29:29.705Z</time>
      </trkpt>
      <trkpt lat="43.14468833" lon="-6.997775">
        <ele>957.0</ele>
        <time>2022-06-19T09:29:30.696Z</time>
      </trkpt>
      <trkpt lat="43.144745" lon="-6.997785">
        <ele>957.0</ele>
        <time>2022-06-19T09:29:31.698Z</time>
      </trkpt>
      <trkpt lat="43.144745" lon="-6.997785">
        <ele>957.0</ele>
        <time>2022-06-19T09:29:32.704Z</time>
      </trkpt>
      <trkpt lat="43.14486667" lon="-6.99782333">
        <ele>955.0</ele>
        <time>2022-06-19T09:29:33.693Z</time>
      </trkpt>
      <trkpt lat="43.14493833" lon="-6.99785">
        <ele>955.0</ele>
        <time>2022-06-19T09:29:34.707Z</time>
      </trkpt>
      <trkpt lat="43.14493833" lon="-6.99785">
        <ele>955.0</ele>
        <time>2022-06-19T09:29:35.712Z</time>
      </trkpt>
      <trkpt lat="43.14510333" lon="-6.99789167">
        <ele>953.0</ele>
        <time>2022-06-19T09:29:36.706Z</time>
      </trkpt>
      <trkpt lat="43.14519333" lon="-6.99791333">
        <ele>953.0</ele>
        <time>2022-06-19T09:29:37.691Z</time>
      </trkpt>
      <trkpt lat="43.14519333" lon="-6.99791333">
        <ele>953.0</ele>
        <time>2022-06-19T09:29:38.697Z</time>
      </trkpt>
      <trkpt lat="43.145375" lon="-6.99795333">
        <ele>951.0</ele>
        <time>2022-06-19T09:29:39.689Z</time>
      </trkpt>
      <trkpt lat="43.145375" lon="-6.99795333">
        <ele>951.0</ele>
        <time>2022-06-19T09:29:40.694Z</time>
      </trkpt>
      <trkpt lat="43.14556" lon="-6.99798833">
        <ele>950.0</ele>
        <time>2022-06-19T09:29:41.727Z</time>
      </trkpt>
      <trkpt lat="43.14556" lon="-6.99798833">
        <ele>950.0</ele>
        <time>2022-06-19T09:29:42.693Z</time>
      </trkpt>
      <trkpt lat="43.14573833" lon="-6.99802">
        <ele>949.0</ele>
        <time>2022-06-19T09:29:43.693Z</time>
      </trkpt>
      <trkpt lat="43.145825" lon="-6.998025">
        <ele>949.0</ele>
        <time>2022-06-19T09:29:44.721Z</time>
      </trkpt>
      <trkpt lat="43.145825" lon="-6.998025">
        <ele>949.0</ele>
        <time>2022-06-19T09:29:45.727Z</time>
      </trkpt>
      <trkpt lat="43.14598" lon="-6.998025">
        <ele>948.0</ele>
        <time>2022-06-19T09:29:46.707Z</time>
      </trkpt>
      <trkpt lat="43.14605833" lon="-6.99803167">
        <ele>948.0</ele>
        <time>2022-06-19T09:29:47.720Z</time>
      </trkpt>
      <trkpt lat="43.14605833" lon="-6.99803167">
        <ele>948.0</ele>
        <time>2022-06-19T09:29:48.726Z</time>
      </trkpt>
      <trkpt lat="43.14621" lon="-6.99805">
        <ele>948.0</ele>
        <time>2022-06-19T09:29:49.717Z</time>
      </trkpt>
      <trkpt lat="43.14621" lon="-6.99805">
        <ele>948.0</ele>
        <time>2022-06-19T09:29:50.723Z</time>
      </trkpt>
      <trkpt lat="43.14635667" lon="-6.99806667">
        <ele>950.0</ele>
        <time>2022-06-19T09:29:51.696Z</time>
      </trkpt>
      <trkpt lat="43.14635667" lon="-6.99806667">
        <ele>950.0</ele>
        <time>2022-06-19T09:29:52.697Z</time>
      </trkpt>
      <trkpt lat="43.146505" lon="-6.99809667">
        <ele>953.0</ele>
        <time>2022-06-19T09:29:53.727Z</time>
      </trkpt>
      <trkpt lat="43.146505" lon="-6.99809667">
        <ele>953.0</ele>
        <time>2022-06-19T09:29:54.693Z</time>
      </trkpt>
      <trkpt lat="43.14666333" lon="-6.99811">
        <ele>954.0</ele>
        <time>2022-06-19T09:29:55.721Z</time>
      </trkpt>
      <trkpt lat="43.14666333" lon="-6.99811">
        <ele>954.0</ele>
        <time>2022-06-19T09:29:56.688Z</time>
      </trkpt>
      <trkpt lat="43.14682" lon="-6.99814667">
        <ele>953.0</ele>
        <time>2022-06-19T09:29:57.716Z</time>
      </trkpt>
      <trkpt lat="43.146915" lon="-6.998175">
        <ele>952.0</ele>
        <time>2022-06-19T09:29:58.722Z</time>
      </trkpt>
      <trkpt lat="43.146915" lon="-6.998175">
        <ele>952.0</ele>
        <time>2022-06-19T09:29:59.727Z</time>
      </trkpt>
      <trkpt lat="43.14708167" lon="-6.99823333">
        <ele>951.0</ele>
        <time>2022-06-19T09:30:00.717Z</time>
      </trkpt>
      <trkpt lat="43.14708167" lon="-6.99823333">
        <ele>951.0</ele>
        <time>2022-06-19T09:30:01.722Z</time>
      </trkpt>
      <trkpt lat="43.147245" lon="-6.99831333">
        <ele>951.0</ele>
        <time>2022-06-19T09:30:02.706Z</time>
      </trkpt>
      <trkpt lat="43.147245" lon="-6.99831333">
        <ele>951.0</ele>
        <time>2022-06-19T09:30:03.711Z</time>
      </trkpt>
      <trkpt lat="43.14739667" lon="-6.99841667">
        <ele>950.0</ele>
        <time>2022-06-19T09:30:04.699Z</time>
      </trkpt>
      <trkpt lat="43.14746" lon="-6.99846667">
        <ele>950.0</ele>
        <time>2022-06-19T09:30:05.689Z</time>
      </trkpt>
      <trkpt lat="43.14746" lon="-6.99846667">
        <ele>950.0</ele>
        <time>2022-06-19T09:30:06.694Z</time>
      </trkpt>
      <trkpt lat="43.14753833" lon="-6.99858333">
        <ele>949.0</ele>
        <time>2022-06-19T09:30:07.709Z</time>
      </trkpt>
      <trkpt lat="43.14753833" lon="-6.99858333">
        <ele>949.0</ele>
        <time>2022-06-19T09:30:08.714Z</time>
      </trkpt>
      <trkpt lat="43.14758833" lon="-6.99869833">
        <ele>948.0</ele>
        <time>2022-06-19T09:30:09.706Z</time>
      </trkpt>
      <trkpt lat="43.14758833" lon="-6.99869833">
        <ele>948.0</ele>
        <time>2022-06-19T09:30:10.719Z</time>
      </trkpt>
      <trkpt lat="43.14762167" lon="-6.99878">
        <ele>947.0</ele>
        <time>2022-06-19T09:30:11.715Z</time>
      </trkpt>
      <trkpt lat="43.14762167" lon="-6.99878">
        <ele>947.0</ele>
        <time>2022-06-19T09:30:12.721Z</time>
      </trkpt>
      <trkpt lat="43.14763167" lon="-6.99883833">
        <ele>946.0</ele>
        <time>2022-06-19T09:30:13.726Z</time>
      </trkpt>
      <trkpt lat="43.14763167" lon="-6.99883833">
        <ele>946.0</ele>
        <time>2022-06-19T09:30:14.697Z</time>
      </trkpt>
      <trkpt lat="43.14759667" lon="-6.998875">
        <ele>945.0</ele>
        <time>2022-06-19T09:30:15.720Z</time>
      </trkpt>
      <trkpt lat="43.14759667" lon="-6.998875">
        <ele>945.0</ele>
        <time>2022-06-19T09:30:16.726Z</time>
      </trkpt>
      <trkpt lat="43.14753667" lon="-6.99888">
        <ele>944.0</ele>
        <time>2022-06-19T09:30:17.717Z</time>
      </trkpt>
      <trkpt lat="43.14753667" lon="-6.99888">
        <ele>944.0</ele>
        <time>2022-06-19T09:30:18.722Z</time>
      </trkpt>
      <trkpt lat="43.14749833" lon="-6.99890833">
        <ele>943.0</ele>
        <time>2022-06-19T09:30:19.711Z</time>
      </trkpt>
      <trkpt lat="43.14749833" lon="-6.99890833">
        <ele>943.0</ele>
        <time>2022-06-19T09:30:20.716Z</time>
      </trkpt>
      <trkpt lat="43.14752167" lon="-6.99895667">
        <ele>942.0</ele>
        <time>2022-06-19T09:30:21.707Z</time>
      </trkpt>
      <trkpt lat="43.14752167" lon="-6.99895667">
        <ele>942.0</ele>
        <time>2022-06-19T09:30:22.712Z</time>
      </trkpt>
      <trkpt lat="43.147585" lon="-6.99897167">
        <ele>942.0</ele>
        <time>2022-06-19T09:30:23.714Z</time>
      </trkpt>
      <trkpt lat="43.147585" lon="-6.99897167">
        <ele>942.0</ele>
        <time>2022-06-19T09:30:24.719Z</time>
      </trkpt>
      <trkpt lat="43.147655" lon="-6.99899333">
        <ele>942.0</ele>
        <time>2022-06-19T09:30:25.707Z</time>
      </trkpt>
      <trkpt lat="43.147655" lon="-6.99899333">
        <ele>942.0</ele>
        <time>2022-06-19T09:30:26.705Z</time>
      </trkpt>
      <trkpt lat="43.14773167" lon="-6.99902333">
        <ele>941.0</ele>
        <time>2022-06-19T09:30:27.692Z</time>
      </trkpt>
      <trkpt lat="43.14773167" lon="-6.99902333">
        <ele>941.0</ele>
        <time>2022-06-19T09:30:28.698Z</time>
      </trkpt>
      <trkpt lat="43.14780667" lon="-6.99906333">
        <ele>941.0</ele>
        <time>2022-06-19T09:30:29.725Z</time>
      </trkpt>
      <trkpt lat="43.14781667" lon="-6.99909667">
        <ele>941.0</ele>
        <time>2022-06-19T09:30:30.710Z</time>
      </trkpt>
      <trkpt lat="43.14781667" lon="-6.99909667">
        <ele>941.0</ele>
        <time>2022-06-19T09:30:31.716Z</time>
      </trkpt>
      <trkpt lat="43.1478" lon="-6.99920667">
        <ele>940.0</ele>
        <time>2022-06-19T09:30:32.699Z</time>
      </trkpt>
      <trkpt lat="43.1478" lon="-6.99920667">
        <ele>940.0</ele>
        <time>2022-06-19T09:30:33.709Z</time>
      </trkpt>
      <trkpt lat="43.14779833" lon="-6.99933667">
        <ele>939.0</ele>
        <time>2022-06-19T09:30:34.700Z</time>
      </trkpt>
      <trkpt lat="43.14780333" lon="-6.99939">
        <ele>939.0</ele>
        <time>2022-06-19T09:30:35.695Z</time>
      </trkpt>
      <trkpt lat="43.14780333" lon="-6.99939">
        <ele>939.0</ele>
        <time>2022-06-19T09:30:36.706Z</time>
      </trkpt>
      <trkpt lat="43.14782167" lon="-6.99946667">
        <ele>939.0</ele>
        <time>2022-06-19T09:30:37.697Z</time>
      </trkpt>
      <trkpt lat="43.14782167" lon="-6.99946667">
        <ele>939.0</ele>
        <time>2022-06-19T09:30:38.705Z</time>
      </trkpt>
      <trkpt lat="43.14785833" lon="-6.99956">
        <ele>939.0</ele>
        <time>2022-06-19T09:30:39.693Z</time>
      </trkpt>
      <trkpt lat="43.14785833" lon="-6.99956">
        <ele>939.0</ele>
        <time>2022-06-19T09:30:40.698Z</time>
      </trkpt>
      <trkpt lat="43.14791" lon="-6.99966333">
        <ele>939.0</ele>
        <time>2022-06-19T09:30:41.707Z</time>
      </trkpt>
      <trkpt lat="43.14793667" lon="-6.99972">
        <ele>939.0</ele>
        <time>2022-06-19T09:30:42.701Z</time>
      </trkpt>
      <trkpt lat="43.14793667" lon="-6.99972">
        <ele>939.0</ele>
        <time>2022-06-19T09:30:43.709Z</time>
      </trkpt>
      <trkpt lat="43.147995" lon="-6.999835">
        <ele>939.0</ele>
        <time>2022-06-19T09:30:44.698Z</time>
      </trkpt>
      <trkpt lat="43.14802333" lon="-6.99989333">
        <ele>939.0</ele>
        <time>2022-06-19T09:30:45.698Z</time>
      </trkpt>
      <trkpt lat="43.14802333" lon="-6.99989333">
        <ele>939.0</ele>
        <time>2022-06-19T09:30:46.710Z</time>
      </trkpt>
      <trkpt lat="43.14808" lon="-7.00001167">
        <ele>939.0</ele>
        <time>2022-06-19T09:30:47.704Z</time>
      </trkpt>
      <trkpt lat="43.14810833" lon="-7.00007333">
        <ele>939.0</ele>
        <time>2022-06-19T09:30:48.720Z</time>
      </trkpt>
      <trkpt lat="43.14813667" lon="-7.00013333">
        <ele>940.0</ele>
        <time>2022-06-19T09:30:49.711Z</time>
      </trkpt>
      <trkpt lat="43.14813667" lon="-7.00013333">
        <ele>940.0</ele>
        <time>2022-06-19T09:30:50.716Z</time>
      </trkpt>
      <trkpt lat="43.14819333" lon="-7.00025167">
        <ele>940.0</ele>
        <time>2022-06-19T09:30:51.707Z</time>
      </trkpt>
      <trkpt lat="43.14819333" lon="-7.00025167">
        <ele>940.0</ele>
        <time>2022-06-19T09:30:52.724Z</time>
      </trkpt>
      <trkpt lat="43.148245" lon="-7.00037">
        <ele>940.0</ele>
        <time>2022-06-19T09:30:53.703Z</time>
      </trkpt>
      <trkpt lat="43.14826333" lon="-7.00042333">
        <ele>940.0</ele>
        <time>2022-06-19T09:30:54.689Z</time>
      </trkpt>
      <trkpt lat="43.148275" lon="-7.000465">
        <ele>940.0</ele>
        <time>2022-06-19T09:30:55.721Z</time>
      </trkpt>
      <trkpt lat="43.148275" lon="-7.000465">
        <ele>940.0</ele>
        <time>2022-06-19T09:30:56.727Z</time>
      </trkpt>
      <trkpt lat="43.14829333" lon="-7.00055167">
        <ele>940.0</ele>
        <time>2022-06-19T09:30:57.716Z</time>
      </trkpt>
      <trkpt lat="43.14829333" lon="-7.00055167">
        <ele>940.0</ele>
        <time>2022-06-19T09:30:58.695Z</time>
      </trkpt>
      <trkpt lat="43.14831167" lon="-7.00064833">
        <ele>941.0</ele>
        <time>2022-06-19T09:30:59.713Z</time>
      </trkpt>
      <trkpt lat="43.14831833" lon="-7.0007">
        <ele>941.0</ele>
        <time>2022-06-19T09:31:00.706Z</time>
      </trkpt>
      <trkpt lat="43.14831833" lon="-7.0007">
        <ele>941.0</ele>
        <time>2022-06-19T09:31:01.711Z</time>
      </trkpt>
      <trkpt lat="43.14832833" lon="-7.000805">
        <ele>941.0</ele>
        <time>2022-06-19T09:31:02.690Z</time>
      </trkpt>
      <trkpt lat="43.14832833" lon="-7.000805">
        <ele>941.0</ele>
        <time>2022-06-19T09:31:03.695Z</time>
      </trkpt>
      <trkpt lat="43.14833667" lon="-7.00090667">
        <ele>941.0</ele>
        <time>2022-06-19T09:31:04.718Z</time>
      </trkpt>
      <trkpt lat="43.14833667" lon="-7.00090667">
        <ele>941.0</ele>
        <time>2022-06-19T09:31:05.723Z</time>
      </trkpt>
      <trkpt lat="43.14834167" lon="-7.001005">
        <ele>941.0</ele>
        <time>2022-06-19T09:31:06.722Z</time>
      </trkpt>
      <trkpt lat="43.14833833" lon="-7.00105333">
        <ele>941.0</ele>
        <time>2022-06-19T09:31:07.697Z</time>
      </trkpt>
      <trkpt lat="43.148335" lon="-7.00109667">
        <ele>941.0</ele>
        <time>2022-06-19T09:31:08.690Z</time>
      </trkpt>
      <trkpt lat="43.148335" lon="-7.00109667">
        <ele>941.0</ele>
        <time>2022-06-19T09:31:09.699Z</time>
      </trkpt>
      <trkpt lat="43.148345" lon="-7.00117667">
        <ele>942.0</ele>
        <time>2022-06-19T09:31:10.719Z</time>
      </trkpt>
      <trkpt lat="43.148345" lon="-7.00117667">
        <ele>942.0</ele>
        <time>2022-06-19T09:31:11.724Z</time>
      </trkpt>
      <trkpt lat="43.14836333" lon="-7.001255">
        <ele>942.0</ele>
        <time>2022-06-19T09:31:12.691Z</time>
      </trkpt>
      <trkpt lat="43.148375" lon="-7.00128833">
        <ele>942.0</ele>
        <time>2022-06-19T09:31:13.702Z</time>
      </trkpt>
      <trkpt lat="43.148375" lon="-7.00128833">
        <ele>942.0</ele>
        <time>2022-06-19T09:31:14.710Z</time>
      </trkpt>
      <trkpt lat="43.14839333" lon="-7.001345">
        <ele>942.0</ele>
        <time>2022-06-19T09:31:15.719Z</time>
      </trkpt>
      <trkpt lat="43.14839333" lon="-7.001345">
        <ele>942.0</ele>
        <time>2022-06-19T09:31:16.724Z</time>
      </trkpt>
      <trkpt lat="43.148415" lon="-7.00139167">
        <ele>943.0</ele>
        <time>2022-06-19T09:31:17.692Z</time>
      </trkpt>
      <trkpt lat="43.148425" lon="-7.00141667">
        <ele>943.0</ele>
        <time>2022-06-19T09:31:18.721Z</time>
      </trkpt>
      <trkpt lat="43.14843667" lon="-7.00144167">
        <ele>943.0</ele>
        <time>2022-06-19T09:31:19.716Z</time>
      </trkpt>
      <trkpt lat="43.14843667" lon="-7.00144167">
        <ele>943.0</ele>
        <time>2022-06-19T09:31:20.721Z</time>
      </trkpt>
      <trkpt lat="43.14846667" lon="-7.00149">
        <ele>943.0</ele>
        <time>2022-06-19T09:31:21.693Z</time>
      </trkpt>
      <trkpt lat="43.14846667" lon="-7.00149">
        <ele>943.0</ele>
        <time>2022-06-19T09:31:22.701Z</time>
      </trkpt>
      <trkpt lat="43.14849333" lon="-7.00153333">
        <ele>943.0</ele>
        <time>2022-06-19T09:31:23.691Z</time>
      </trkpt>
      <trkpt lat="43.14849333" lon="-7.00153333">
        <ele>943.0</ele>
        <time>2022-06-19T09:31:24.696Z</time>
      </trkpt>
      <trkpt lat="43.14851333" lon="-7.00158333">
        <ele>944.0</ele>
        <time>2022-06-19T09:31:25.692Z</time>
      </trkpt>
      <trkpt lat="43.14851333" lon="-7.00158333">
        <ele>944.0</ele>
        <time>2022-06-19T09:31:26.697Z</time>
      </trkpt>
      <trkpt lat="43.14852167" lon="-7.00163333">
        <ele>945.0</ele>
        <time>2022-06-19T09:31:27.706Z</time>
      </trkpt>
      <trkpt lat="43.14852167" lon="-7.00163333">
        <ele>945.0</ele>
        <time>2022-06-19T09:31:28.716Z</time>
      </trkpt>
      <trkpt lat="43.14853333" lon="-7.00167667">
        <ele>946.0</ele>
        <time>2022-06-19T09:31:29.722Z</time>
      </trkpt>
      <trkpt lat="43.14853333" lon="-7.00167667">
        <ele>946.0</ele>
        <time>2022-06-19T09:31:30.688Z</time>
      </trkpt>
      <trkpt lat="43.14854" lon="-7.001715">
        <ele>947.0</ele>
        <time>2022-06-19T09:31:31.725Z</time>
      </trkpt>
      <trkpt lat="43.14854" lon="-7.001715">
        <ele>947.0</ele>
        <time>2022-06-19T09:31:32.691Z</time>
      </trkpt>
      <trkpt lat="43.14855333" lon="-7.00173167">
        <ele>947.0</ele>
        <time>2022-06-19T09:31:33.719Z</time>
      </trkpt>
      <trkpt lat="43.14856667" lon="-7.00172333">
        <ele>948.0</ele>
        <time>2022-06-19T09:31:34.705Z</time>
      </trkpt>
      <trkpt lat="43.14856667" lon="-7.00172333">
        <ele>948.0</ele>
        <time>2022-06-19T09:31:35.711Z</time>
      </trkpt>
      <trkpt lat="43.1486" lon="-7.00168333">
        <ele>949.0</ele>
        <time>2022-06-19T09:31:36.706Z</time>
      </trkpt>
      <trkpt lat="43.14862" lon="-7.00166667">
        <ele>949.0</ele>
        <time>2022-06-19T09:31:37.689Z</time>
      </trkpt>
      <trkpt lat="43.14862" lon="-7.00166667">
        <ele>949.0</ele>
        <time>2022-06-19T09:31:38.694Z</time>
      </trkpt>
      <trkpt lat="43.14865667" lon="-7.00165">
        <ele>950.0</ele>
        <time>2022-06-19T09:31:39.699Z</time>
      </trkpt>
      <trkpt lat="43.14868" lon="-7.00165333">
        <ele>950.0</ele>
        <time>2022-06-19T09:31:40.717Z</time>
      </trkpt>
      <trkpt lat="43.14868" lon="-7.00165333">
        <ele>950.0</ele>
        <time>2022-06-19T09:31:41.722Z</time>
      </trkpt>
      <trkpt lat="43.148735" lon="-7.00170167">
        <ele>950.0</ele>
        <time>2022-06-19T09:31:42.716Z</time>
      </trkpt>
      <trkpt lat="43.14875167" lon="-7.001745">
        <ele>950.0</ele>
        <time>2022-06-19T09:31:43.726Z</time>
      </trkpt>
      <trkpt lat="43.14875167" lon="-7.001745">
        <ele>950.0</ele>
        <time>2022-06-19T09:31:44.691Z</time>
      </trkpt>
      <trkpt lat="43.14876833" lon="-7.00185">
        <ele>950.0</ele>
        <time>2022-06-19T09:31:45.716Z</time>
      </trkpt>
      <trkpt lat="43.148775" lon="-7.00190667">
        <ele>950.0</ele>
        <time>2022-06-19T09:31:46.715Z</time>
      </trkpt>
      <trkpt lat="43.148785" lon="-7.001965">
        <ele>950.0</ele>
        <time>2022-06-19T09:31:47.726Z</time>
      </trkpt>
      <trkpt lat="43.148785" lon="-7.001965">
        <ele>950.0</ele>
        <time>2022-06-19T09:31:48.691Z</time>
      </trkpt>
      <trkpt lat="43.14881" lon="-7.00208333">
        <ele>949.0</ele>
        <time>2022-06-19T09:31:49.704Z</time>
      </trkpt>
      <trkpt lat="43.14881" lon="-7.00208333">
        <ele>949.0</ele>
        <time>2022-06-19T09:31:50.710Z</time>
      </trkpt>
      <trkpt lat="43.14883833" lon="-7.00221167">
        <ele>949.0</ele>
        <time>2022-06-19T09:31:51.711Z</time>
      </trkpt>
      <trkpt lat="43.14883833" lon="-7.00221167">
        <ele>949.0</ele>
        <time>2022-06-19T09:31:52.693Z</time>
      </trkpt>
      <trkpt lat="43.14887167" lon="-7.00234167">
        <ele>949.0</ele>
        <time>2022-06-19T09:31:53.716Z</time>
      </trkpt>
      <trkpt lat="43.14889333" lon="-7.002405">
        <ele>949.0</ele>
        <time>2022-06-19T09:31:54.726Z</time>
      </trkpt>
      <trkpt lat="43.14889333" lon="-7.002405">
        <ele>949.0</ele>
        <time>2022-06-19T09:31:55.691Z</time>
      </trkpt>
      <trkpt lat="43.14893" lon="-7.00253">
        <ele>948.0</ele>
        <time>2022-06-19T09:31:56.706Z</time>
      </trkpt>
      <trkpt lat="43.14893" lon="-7.00253">
        <ele>948.0</ele>
        <time>2022-06-19T09:31:57.711Z</time>
      </trkpt>
      <trkpt lat="43.14896833" lon="-7.00265333">
        <ele>948.0</ele>
        <time>2022-06-19T09:31:58.723Z</time>
      </trkpt>
      <trkpt lat="43.14896833" lon="-7.00265333">
        <ele>948.0</ele>
        <time>2022-06-19T09:31:59.701Z</time>
      </trkpt>
      <trkpt lat="43.14900167" lon="-7.00276333">
        <ele>948.0</ele>
        <time>2022-06-19T09:32:00.727Z</time>
      </trkpt>
      <trkpt lat="43.14900167" lon="-7.00276333">
        <ele>948.0</ele>
        <time>2022-06-19T09:32:01.692Z</time>
      </trkpt>
      <trkpt lat="43.14903333" lon="-7.00285833">
        <ele>947.0</ele>
        <time>2022-06-19T09:32:02.705Z</time>
      </trkpt>
      <trkpt lat="43.14904833" lon="-7.002905">
        <ele>947.0</ele>
        <time>2022-06-19T09:32:03.717Z</time>
      </trkpt>
      <trkpt lat="43.14904833" lon="-7.002905">
        <ele>947.0</ele>
        <time>2022-06-19T09:32:04.722Z</time>
      </trkpt>
      <trkpt lat="43.149085" lon="-7.003">
        <ele>948.0</ele>
        <time>2022-06-19T09:32:05.711Z</time>
      </trkpt>
      <trkpt lat="43.149085" lon="-7.003">
        <ele>948.0</ele>
        <time>2022-06-19T09:32:06.717Z</time>
      </trkpt>
      <trkpt lat="43.14912" lon="-7.00310667">
        <ele>947.0</ele>
        <time>2022-06-19T09:32:07.697Z</time>
      </trkpt>
      <trkpt lat="43.14912" lon="-7.00310667">
        <ele>947.0</ele>
        <time>2022-06-19T09:32:08.702Z</time>
      </trkpt>
      <trkpt lat="43.149145" lon="-7.00322667">
        <ele>947.0</ele>
        <time>2022-06-19T09:32:09.714Z</time>
      </trkpt>
      <trkpt lat="43.149145" lon="-7.00322667">
        <ele>947.0</ele>
        <time>2022-06-19T09:32:10.720Z</time>
      </trkpt>
      <trkpt lat="43.14914" lon="-7.00335833">
        <ele>947.0</ele>
        <time>2022-06-19T09:32:11.700Z</time>
      </trkpt>
      <trkpt lat="43.14914" lon="-7.00335833">
        <ele>947.0</ele>
        <time>2022-06-19T09:32:12.706Z</time>
      </trkpt>
      <trkpt lat="43.14916667" lon="-7.00348667">
        <ele>947.0</ele>
        <time>2022-06-19T09:32:13.706Z</time>
      </trkpt>
      <trkpt lat="43.14916667" lon="-7.00348667">
        <ele>947.0</ele>
        <time>2022-06-19T09:32:14.711Z</time>
      </trkpt>
      <trkpt lat="43.14921" lon="-7.00361167">
        <ele>947.0</ele>
        <time>2022-06-19T09:32:15.699Z</time>
      </trkpt>
      <trkpt lat="43.14923333" lon="-7.00367667">
        <ele>947.0</ele>
        <time>2022-06-19T09:32:16.690Z</time>
      </trkpt>
      <trkpt lat="43.14923333" lon="-7.00367667">
        <ele>947.0</ele>
        <time>2022-06-19T09:32:17.695Z</time>
      </trkpt>
      <trkpt lat="43.14928" lon="-7.00380833">
        <ele>947.0</ele>
        <time>2022-06-19T09:32:18.688Z</time>
      </trkpt>
      <trkpt lat="43.149305" lon="-7.00387333">
        <ele>946.0</ele>
        <time>2022-06-19T09:32:19.723Z</time>
      </trkpt>
      <trkpt lat="43.14933" lon="-7.00393667">
        <ele>946.0</ele>
        <time>2022-06-19T09:32:20.714Z</time>
      </trkpt>
      <trkpt lat="43.14933" lon="-7.00393667">
        <ele>946.0</ele>
        <time>2022-06-19T09:32:21.719Z</time>
      </trkpt>
      <trkpt lat="43.14937833" lon="-7.00405167">
        <ele>946.0</ele>
        <time>2022-06-19T09:32:22.725Z</time>
      </trkpt>
      <trkpt lat="43.14939833" lon="-7.00410833">
        <ele>946.0</ele>
        <time>2022-06-19T09:32:23.708Z</time>
      </trkpt>
      <trkpt lat="43.14939833" lon="-7.00410833">
        <ele>946.0</ele>
        <time>2022-06-19T09:32:24.715Z</time>
      </trkpt>
      <trkpt lat="43.149435" lon="-7.00421667">
        <ele>946.0</ele>
        <time>2022-06-19T09:32:25.699Z</time>
      </trkpt>
      <trkpt lat="43.149435" lon="-7.00421667">
        <ele>946.0</ele>
        <time>2022-06-19T09:32:26.714Z</time>
      </trkpt>
      <trkpt lat="43.14946667" lon="-7.004315">
        <ele>946.0</ele>
        <time>2022-06-19T09:32:27.726Z</time>
      </trkpt>
      <trkpt lat="43.149485" lon="-7.00436">
        <ele>946.0</ele>
        <time>2022-06-19T09:32:28.712Z</time>
      </trkpt>
      <trkpt lat="43.149485" lon="-7.00436">
        <ele>946.0</ele>
        <time>2022-06-19T09:32:29.719Z</time>
      </trkpt>
      <trkpt lat="43.14952667" lon="-7.00444167">
        <ele>946.0</ele>
        <time>2022-06-19T09:32:30.709Z</time>
      </trkpt>
      <trkpt lat="43.14955333" lon="-7.00448167">
        <ele>946.0</ele>
        <time>2022-06-19T09:32:31.710Z</time>
      </trkpt>
      <trkpt lat="43.14955333" lon="-7.00448167">
        <ele>946.0</ele>
        <time>2022-06-19T09:32:32.716Z</time>
      </trkpt>
      <trkpt lat="43.14961833" lon="-7.00456667">
        <ele>946.0</ele>
        <time>2022-06-19T09:32:33.703Z</time>
      </trkpt>
      <trkpt lat="43.14961833" lon="-7.00456667">
        <ele>946.0</ele>
        <time>2022-06-19T09:32:34.709Z</time>
      </trkpt>
      <trkpt lat="43.149665" lon="-7.00466833">
        <ele>946.0</ele>
        <time>2022-06-19T09:32:35.689Z</time>
      </trkpt>
      <trkpt lat="43.149665" lon="-7.00466833">
        <ele>946.0</ele>
        <time>2022-06-19T09:32:36.714Z</time>
      </trkpt>
      <trkpt lat="43.14970333" lon="-7.004765">
        <ele>946.0</ele>
        <time>2022-06-19T09:32:37.711Z</time>
      </trkpt>
      <trkpt lat="43.14972167" lon="-7.00481">
        <ele>947.0</ele>
        <time>2022-06-19T09:32:38.699Z</time>
      </trkpt>
      <trkpt lat="43.14972167" lon="-7.00481">
        <ele>947.0</ele>
        <time>2022-06-19T09:32:39.706Z</time>
      </trkpt>
      <trkpt lat="43.14974667" lon="-7.00489333">
        <ele>947.0</ele>
        <time>2022-06-19T09:32:40.699Z</time>
      </trkpt>
      <trkpt lat="43.14974667" lon="-7.00489333">
        <ele>947.0</ele>
        <time>2022-06-19T09:32:41.705Z</time>
      </trkpt>
      <trkpt lat="43.14971667" lon="-7.004895">
        <ele>947.0</ele>
        <time>2022-06-19T09:32:42.693Z</time>
      </trkpt>
      <trkpt lat="43.14970167" lon="-7.00486">
        <ele>947.0</ele>
        <time>2022-06-19T09:32:43.726Z</time>
      </trkpt>
      <trkpt lat="43.14970167" lon="-7.00486">
        <ele>947.0</ele>
        <time>2022-06-19T09:32:44.692Z</time>
      </trkpt>
      <trkpt lat="43.14968" lon="-7.00477167">
        <ele>946.0</ele>
        <time>2022-06-19T09:32:45.697Z</time>
      </trkpt>
      <trkpt lat="43.14968" lon="-7.00477167">
        <ele>946.0</ele>
        <time>2022-06-19T09:32:46.707Z</time>
      </trkpt>
      <trkpt lat="43.14965667" lon="-7.00468">
        <ele>946.0</ele>
        <time>2022-06-19T09:32:47.696Z</time>
      </trkpt>
      <trkpt lat="43.14965667" lon="-7.00468">
        <ele>946.0</ele>
        <time>2022-06-19T09:32:48.710Z</time>
      </trkpt>
      <trkpt lat="43.14962833" lon="-7.00463">
        <ele>945.0</ele>
        <time>2022-06-19T09:32:49.718Z</time>
      </trkpt>
      <trkpt lat="43.14962833" lon="-7.00463">
        <ele>945.0</ele>
        <time>2022-06-19T09:32:50.724Z</time>
      </trkpt>
      <trkpt lat="43.14961167" lon="-7.00467667">
        <ele>946.0</ele>
        <time>2022-06-19T09:32:51.695Z</time>
      </trkpt>
      <trkpt lat="43.14961167" lon="-7.00467667">
        <ele>946.0</ele>
        <time>2022-06-19T09:32:52.717Z</time>
      </trkpt>
      <trkpt lat="43.14960833" lon="-7.00473">
        <ele>946.0</ele>
        <time>2022-06-19T09:32:53.725Z</time>
      </trkpt>
      <trkpt lat="43.14960833" lon="-7.00473">
        <ele>946.0</ele>
        <time>2022-06-19T09:32:54.691Z</time>
      </trkpt>
      <trkpt lat="43.14960833" lon="-7.00479333">
        <ele>946.0</ele>
        <time>2022-06-19T09:32:55.726Z</time>
      </trkpt>
      <trkpt lat="43.14960833" lon="-7.00479333">
        <ele>946.0</ele>
        <time>2022-06-19T09:32:56.692Z</time>
      </trkpt>
      <trkpt lat="43.14960167" lon="-7.00485833">
        <ele>947.0</ele>
        <time>2022-06-19T09:32:57.698Z</time>
      </trkpt>
      <trkpt lat="43.14960167" lon="-7.00485833">
        <ele>947.0</ele>
        <time>2022-06-19T09:32:58.709Z</time>
      </trkpt>
      <trkpt lat="43.149595" lon="-7.00492667">
        <ele>947.0</ele>
        <time>2022-06-19T09:32:59.721Z</time>
      </trkpt>
      <trkpt lat="43.149595" lon="-7.00492667">
        <ele>947.0</ele>
        <time>2022-06-19T09:33:00.726Z</time>
      </trkpt>
      <trkpt lat="43.149585" lon="-7.00499833">
        <ele>948.0</ele>
        <time>2022-06-19T09:33:01.717Z</time>
      </trkpt>
      <trkpt lat="43.149585" lon="-7.00499833">
        <ele>948.0</ele>
        <time>2022-06-19T09:33:02.722Z</time>
      </trkpt>
      <trkpt lat="43.14957667" lon="-7.00508333">
        <ele>948.0</ele>
        <time>2022-06-19T09:33:03.708Z</time>
      </trkpt>
      <trkpt lat="43.14957" lon="-7.00512833">
        <ele>948.0</ele>
        <time>2022-06-19T09:33:04.726Z</time>
      </trkpt>
      <trkpt lat="43.14957" lon="-7.00512833">
        <ele>948.0</ele>
        <time>2022-06-19T09:33:05.691Z</time>
      </trkpt>
      <trkpt lat="43.14955833" lon="-7.00522167">
        <ele>948.0</ele>
        <time>2022-06-19T09:33:06.722Z</time>
      </trkpt>
      <trkpt lat="43.14955167" lon="-7.00526667">
        <ele>949.0</ele>
        <time>2022-06-19T09:33:07.723Z</time>
      </trkpt>
      <trkpt lat="43.14955167" lon="-7.00526667">
        <ele>949.0</ele>
        <time>2022-06-19T09:33:08.689Z</time>
      </trkpt>
      <trkpt lat="43.149545" lon="-7.00535667">
        <ele>949.0</ele>
        <time>2022-06-19T09:33:09.721Z</time>
      </trkpt>
      <trkpt lat="43.149545" lon="-7.00535667">
        <ele>949.0</ele>
        <time>2022-06-19T09:33:10.728Z</time>
      </trkpt>
      <trkpt lat="43.14954333" lon="-7.00544667">
        <ele>949.0</ele>
        <time>2022-06-19T09:33:11.718Z</time>
      </trkpt>
      <trkpt lat="43.14954333" lon="-7.00544667">
        <ele>949.0</ele>
        <time>2022-06-19T09:33:12.724Z</time>
      </trkpt>
      <trkpt lat="43.149535" lon="-7.00553167">
        <ele>950.0</ele>
        <time>2022-06-19T09:33:13.716Z</time>
      </trkpt>
      <trkpt lat="43.149535" lon="-7.00553167">
        <ele>950.0</ele>
        <time>2022-06-19T09:33:14.722Z</time>
      </trkpt>
      <trkpt lat="43.149525" lon="-7.00561667">
        <ele>950.0</ele>
        <time>2022-06-19T09:33:15.711Z</time>
      </trkpt>
      <trkpt lat="43.14952167" lon="-7.00566167">
        <ele>950.0</ele>
        <time>2022-06-19T09:33:16.695Z</time>
      </trkpt>
      <trkpt lat="43.14952167" lon="-7.00566167">
        <ele>950.0</ele>
        <time>2022-06-19T09:33:17.701Z</time>
      </trkpt>
      <trkpt lat="43.14950167" lon="-7.00575667">
        <ele>950.0</ele>
        <time>2022-06-19T09:33:18.694Z</time>
      </trkpt>
      <trkpt lat="43.14949" lon="-7.00580667">
        <ele>950.0</ele>
        <time>2022-06-19T09:33:19.726Z</time>
      </trkpt>
      <trkpt lat="43.14949" lon="-7.00580667">
        <ele>950.0</ele>
        <time>2022-06-19T09:33:20.692Z</time>
      </trkpt>
      <trkpt lat="43.14946" lon="-7.00592">
        <ele>950.0</ele>
        <time>2022-06-19T09:33:21.719Z</time>
      </trkpt>
      <trkpt lat="43.14946" lon="-7.00592">
        <ele>950.0</ele>
        <time>2022-06-19T09:33:22.725Z</time>
      </trkpt>
      <trkpt lat="43.14943667" lon="-7.00603333">
        <ele>950.0</ele>
        <time>2022-06-19T09:33:23.714Z</time>
      </trkpt>
      <trkpt lat="43.14943667" lon="-7.00603333">
        <ele>950.0</ele>
        <time>2022-06-19T09:33:24.688Z</time>
      </trkpt>
      <trkpt lat="43.14940667" lon="-7.00614167">
        <ele>950.0</ele>
        <time>2022-06-19T09:33:25.722Z</time>
      </trkpt>
      <trkpt lat="43.14940667" lon="-7.00614167">
        <ele>950.0</ele>
        <time>2022-06-19T09:33:26.688Z</time>
      </trkpt>
      <trkpt lat="43.14937" lon="-7.006245">
        <ele>950.0</ele>
        <time>2022-06-19T09:33:27.696Z</time>
      </trkpt>
      <trkpt lat="43.14935167" lon="-7.0063">
        <ele>950.0</ele>
        <time>2022-06-19T09:33:28.688Z</time>
      </trkpt>
      <trkpt lat="43.14935167" lon="-7.0063">
        <ele>950.0</ele>
        <time>2022-06-19T09:33:29.694Z</time>
      </trkpt>
      <trkpt lat="43.149315" lon="-7.00640667">
        <ele>950.0</ele>
        <time>2022-06-19T09:33:30.688Z</time>
      </trkpt>
      <trkpt lat="43.14929667" lon="-7.00646">
        <ele>950.0</ele>
        <time>2022-06-19T09:33:31.710Z</time>
      </trkpt>
      <trkpt lat="43.14929667" lon="-7.00646">
        <ele>950.0</ele>
        <time>2022-06-19T09:33:32.716Z</time>
      </trkpt>
      <trkpt lat="43.14925667" lon="-7.006565">
        <ele>950.0</ele>
        <time>2022-06-19T09:33:33.706Z</time>
      </trkpt>
      <trkpt lat="43.14923167" lon="-7.006615">
        <ele>950.0</ele>
        <time>2022-06-19T09:33:34.707Z</time>
      </trkpt>
      <trkpt lat="43.14923167" lon="-7.006615">
        <ele>950.0</ele>
        <time>2022-06-19T09:33:35.712Z</time>
      </trkpt>
      <trkpt lat="43.14917667" lon="-7.00671">
        <ele>950.0</ele>
        <time>2022-06-19T09:33:36.705Z</time>
      </trkpt>
      <trkpt lat="43.14915167" lon="-7.00675667">
        <ele>950.0</ele>
        <time>2022-06-19T09:33:37.714Z</time>
      </trkpt>
      <trkpt lat="43.14915167" lon="-7.00675667">
        <ele>950.0</ele>
        <time>2022-06-19T09:33:38.719Z</time>
      </trkpt>
      <trkpt lat="43.149105" lon="-7.006845">
        <ele>950.0</ele>
        <time>2022-06-19T09:33:39.708Z</time>
      </trkpt>
      <trkpt lat="43.149105" lon="-7.006845">
        <ele>950.0</ele>
        <time>2022-06-19T09:33:40.713Z</time>
      </trkpt>
      <trkpt lat="43.149055" lon="-7.00692833">
        <ele>950.0</ele>
        <time>2022-06-19T09:33:41.696Z</time>
      </trkpt>
      <trkpt lat="43.149055" lon="-7.00692833">
        <ele>950.0</ele>
        <time>2022-06-19T09:33:42.709Z</time>
      </trkpt>
      <trkpt lat="43.14901" lon="-7.00701167">
        <ele>950.0</ele>
        <time>2022-06-19T09:33:43.710Z</time>
      </trkpt>
      <trkpt lat="43.14901" lon="-7.00701167">
        <ele>950.0</ele>
        <time>2022-06-19T09:33:44.717Z</time>
      </trkpt>
      <trkpt lat="43.14896667" lon="-7.00708333">
        <ele>950.0</ele>
        <time>2022-06-19T09:33:45.718Z</time>
      </trkpt>
      <trkpt lat="43.14894833" lon="-7.00712167">
        <ele>950.0</ele>
        <time>2022-06-19T09:33:46.696Z</time>
      </trkpt>
      <trkpt lat="43.14894833" lon="-7.00712167">
        <ele>950.0</ele>
        <time>2022-06-19T09:33:47.701Z</time>
      </trkpt>
      <trkpt lat="43.148925" lon="-7.00719">
        <ele>950.0</ele>
        <time>2022-06-19T09:33:48.689Z</time>
      </trkpt>
      <trkpt lat="43.148905" lon="-7.007225">
        <ele>950.0</ele>
        <time>2022-06-19T09:33:49.723Z</time>
      </trkpt>
      <trkpt lat="43.148905" lon="-7.007225">
        <ele>950.0</ele>
        <time>2022-06-19T09:33:50.690Z</time>
      </trkpt>
      <trkpt lat="43.148875" lon="-7.00728333">
        <ele>950.0</ele>
        <time>2022-06-19T09:33:51.690Z</time>
      </trkpt>
      <trkpt lat="43.148875" lon="-7.00728333">
        <ele>950.0</ele>
        <time>2022-06-19T09:33:52.718Z</time>
      </trkpt>
      <trkpt lat="43.14886" lon="-7.00733167">
        <ele>951.0</ele>
        <time>2022-06-19T09:33:53.696Z</time>
      </trkpt>
      <trkpt lat="43.14885167" lon="-7.00736">
        <ele>951.0</ele>
        <time>2022-06-19T09:33:54.694Z</time>
      </trkpt>
      <trkpt lat="43.14883667" lon="-7.00738833">
        <ele>951.0</ele>
        <time>2022-06-19T09:33:55.726Z</time>
      </trkpt>
      <trkpt lat="43.14883667" lon="-7.00738833">
        <ele>951.0</ele>
        <time>2022-06-19T09:33:56.692Z</time>
      </trkpt>
      <trkpt lat="43.14877833" lon="-7.00746667">
        <ele>951.0</ele>
        <time>2022-06-19T09:33:57.701Z</time>
      </trkpt>
      <trkpt lat="43.14875833" lon="-7.00751">
        <ele>951.0</ele>
        <time>2022-06-19T09:33:58.688Z</time>
      </trkpt>
      <trkpt lat="43.14875833" lon="-7.00751">
        <ele>951.0</ele>
        <time>2022-06-19T09:33:59.693Z</time>
      </trkpt>
      <trkpt lat="43.148725" lon="-7.00758667">
        <ele>951.0</ele>
        <time>2022-06-19T09:34:00.726Z</time>
      </trkpt>
      <trkpt lat="43.148725" lon="-7.00758667">
        <ele>951.0</ele>
        <time>2022-06-19T09:34:01.692Z</time>
      </trkpt>
      <trkpt lat="43.1487" lon="-7.007655">
        <ele>951.0</ele>
        <time>2022-06-19T09:34:02.728Z</time>
      </trkpt>
      <trkpt lat="43.1487" lon="-7.007655">
        <ele>951.0</ele>
        <time>2022-06-19T09:34:03.693Z</time>
      </trkpt>
      <trkpt lat="43.148665" lon="-7.00773333">
        <ele>952.0</ele>
        <time>2022-06-19T09:34:04.695Z</time>
      </trkpt>
      <trkpt lat="43.14863833" lon="-7.007785">
        <ele>952.0</ele>
        <time>2022-06-19T09:34:05.703Z</time>
      </trkpt>
      <trkpt lat="43.14861667" lon="-7.00782833">
        <ele>952.0</ele>
        <time>2022-06-19T09:34:06.692Z</time>
      </trkpt>
      <trkpt lat="43.14859667" lon="-7.00785833">
        <ele>952.0</ele>
        <time>2022-06-19T09:34:07.711Z</time>
      </trkpt>
      <trkpt lat="43.14859667" lon="-7.00785833">
        <ele>952.0</ele>
        <time>2022-06-19T09:34:08.717Z</time>
      </trkpt>
      <trkpt lat="43.14854333" lon="-7.00793">
        <ele>952.0</ele>
        <time>2022-06-19T09:34:09.689Z</time>
      </trkpt>
      <trkpt lat="43.14854333" lon="-7.00793">
        <ele>952.0</ele>
        <time>2022-06-19T09:34:10.695Z</time>
      </trkpt>
      <trkpt lat="43.14851167" lon="-7.007985">
        <ele>953.0</ele>
        <time>2022-06-19T09:34:11.724Z</time>
      </trkpt>
      <trkpt lat="43.14851167" lon="-7.007985">
        <ele>953.0</ele>
        <time>2022-06-19T09:34:12.696Z</time>
      </trkpt>
      <trkpt lat="43.14845667" lon="-7.00805833">
        <ele>953.0</ele>
        <time>2022-06-19T09:34:13.717Z</time>
      </trkpt>
      <trkpt lat="43.14845667" lon="-7.00805833">
        <ele>953.0</ele>
        <time>2022-06-19T09:34:14.723Z</time>
      </trkpt>
      <trkpt lat="43.14838667" lon="-7.008125">
        <ele>954.0</ele>
        <time>2022-06-19T09:34:15.720Z</time>
      </trkpt>
      <trkpt lat="43.14835833" lon="-7.00815167">
        <ele>954.0</ele>
        <time>2022-06-19T09:34:16.704Z</time>
      </trkpt>
      <trkpt lat="43.14831" lon="-7.00819333">
        <ele>954.0</ele>
        <time>2022-06-19T09:34:17.696Z</time>
      </trkpt>
      <trkpt lat="43.14831" lon="-7.00819333">
        <ele>954.0</ele>
        <time>2022-06-19T09:34:18.708Z</time>
      </trkpt>
      <trkpt lat="43.14822167" lon="-7.008275">
        <ele>955.0</ele>
        <time>2022-06-19T09:34:19.721Z</time>
      </trkpt>
      <trkpt lat="43.14822167" lon="-7.008275">
        <ele>955.0</ele>
        <time>2022-06-19T09:34:20.727Z</time>
      </trkpt>
      <trkpt lat="43.14812833" lon="-7.00835167">
        <ele>955.0</ele>
        <time>2022-06-19T09:34:21.690Z</time>
      </trkpt>
      <trkpt lat="43.14812833" lon="-7.00835167">
        <ele>955.0</ele>
        <time>2022-06-19T09:34:22.696Z</time>
      </trkpt>
      <trkpt lat="43.14804" lon="-7.00841167">
        <ele>955.0</ele>
        <time>2022-06-19T09:34:23.696Z</time>
      </trkpt>
      <trkpt lat="43.14799833" lon="-7.00844333">
        <ele>955.0</ele>
        <time>2022-06-19T09:34:24.692Z</time>
      </trkpt>
      <trkpt lat="43.14795833" lon="-7.00847667">
        <ele>955.0</ele>
        <time>2022-06-19T09:34:25.721Z</time>
      </trkpt>
      <trkpt lat="43.14795833" lon="-7.00847667">
        <ele>955.0</ele>
        <time>2022-06-19T09:34:26.726Z</time>
      </trkpt>
      <trkpt lat="43.14788667" lon="-7.00854">
        <ele>956.0</ele>
        <time>2022-06-19T09:34:27.726Z</time>
      </trkpt>
      <trkpt lat="43.147845" lon="-7.00857667">
        <ele>956.0</ele>
        <time>2022-06-19T09:34:28.689Z</time>
      </trkpt>
      <trkpt lat="43.147845" lon="-7.00857667">
        <ele>956.0</ele>
        <time>2022-06-19T09:34:29.694Z</time>
      </trkpt>
      <trkpt lat="43.14778167" lon="-7.00863833">
        <ele>957.0</ele>
        <time>2022-06-19T09:34:30.723Z</time>
      </trkpt>
      <trkpt lat="43.14778167" lon="-7.00863833">
        <ele>957.0</ele>
        <time>2022-06-19T09:34:31.688Z</time>
      </trkpt>
      <trkpt lat="43.14773333" lon="-7.008695">
        <ele>957.0</ele>
        <time>2022-06-19T09:34:32.688Z</time>
      </trkpt>
      <trkpt lat="43.14773333" lon="-7.008695">
        <ele>957.0</ele>
        <time>2022-06-19T09:34:33.694Z</time>
      </trkpt>
      <trkpt lat="43.14769" lon="-7.00873667">
        <ele>957.0</ele>
        <time>2022-06-19T09:34:34.689Z</time>
      </trkpt>
      <trkpt lat="43.14766667" lon="-7.00875667">
        <ele>957.0</ele>
        <time>2022-06-19T09:34:35.721Z</time>
      </trkpt>
      <trkpt lat="43.14766667" lon="-7.00875667">
        <ele>957.0</ele>
        <time>2022-06-19T09:34:36.727Z</time>
      </trkpt>
      <trkpt lat="43.14761833" lon="-7.00881167">
        <ele>957.0</ele>
        <time>2022-06-19T09:34:37.718Z</time>
      </trkpt>
      <trkpt lat="43.14761833" lon="-7.00881167">
        <ele>957.0</ele>
        <time>2022-06-19T09:34:38.688Z</time>
      </trkpt>
      <trkpt lat="43.14756" lon="-7.00887">
        <ele>957.0</ele>
        <time>2022-06-19T09:34:39.723Z</time>
      </trkpt>
      <trkpt lat="43.14756" lon="-7.00887">
        <ele>957.0</ele>
        <time>2022-06-19T09:34:40.688Z</time>
      </trkpt>
      <trkpt lat="43.14750833" lon="-7.00893">
        <ele>957.0</ele>
        <time>2022-06-19T09:34:41.706Z</time>
      </trkpt>
      <trkpt lat="43.14750833" lon="-7.00893">
        <ele>957.0</ele>
        <time>2022-06-19T09:34:42.712Z</time>
      </trkpt>
      <trkpt lat="43.147465" lon="-7.00899333">
        <ele>957.0</ele>
        <time>2022-06-19T09:34:43.701Z</time>
      </trkpt>
      <trkpt lat="43.147465" lon="-7.00899333">
        <ele>957.0</ele>
        <time>2022-06-19T09:34:44.710Z</time>
      </trkpt>
      <trkpt lat="43.14742333" lon="-7.00905333">
        <ele>958.0</ele>
        <time>2022-06-19T09:34:45.720Z</time>
      </trkpt>
      <trkpt lat="43.14742333" lon="-7.00905333">
        <ele>958.0</ele>
        <time>2022-06-19T09:34:46.726Z</time>
      </trkpt>
      <trkpt lat="43.14738" lon="-7.0091">
        <ele>957.0</ele>
        <time>2022-06-19T09:34:47.720Z</time>
      </trkpt>
      <trkpt lat="43.14738" lon="-7.0091">
        <ele>957.0</ele>
        <time>2022-06-19T09:34:48.726Z</time>
      </trkpt>
      <trkpt lat="43.14733667" lon="-7.00914833">
        <ele>957.0</ele>
        <time>2022-06-19T09:34:49.716Z</time>
      </trkpt>
      <trkpt lat="43.14733667" lon="-7.00914833">
        <ele>957.0</ele>
        <time>2022-06-19T09:34:50.722Z</time>
      </trkpt>
      <trkpt lat="43.1473" lon="-7.0092">
        <ele>957.0</ele>
        <time>2022-06-19T09:34:51.709Z</time>
      </trkpt>
      <trkpt lat="43.1473" lon="-7.0092">
        <ele>957.0</ele>
        <time>2022-06-19T09:34:52.726Z</time>
      </trkpt>
      <trkpt lat="43.14726333" lon="-7.00925167">
        <ele>957.0</ele>
        <time>2022-06-19T09:34:53.719Z</time>
      </trkpt>
      <trkpt lat="43.14724333" lon="-7.00927833">
        <ele>958.0</ele>
        <time>2022-06-19T09:34:54.716Z</time>
      </trkpt>
      <trkpt lat="43.147225" lon="-7.00930667">
        <ele>958.0</ele>
        <time>2022-06-19T09:34:55.702Z</time>
      </trkpt>
      <trkpt lat="43.147225" lon="-7.00930667">
        <ele>958.0</ele>
        <time>2022-06-19T09:34:56.707Z</time>
      </trkpt>
      <trkpt lat="43.14719333" lon="-7.00935833">
        <ele>959.0</ele>
        <time>2022-06-19T09:34:57.693Z</time>
      </trkpt>
      <trkpt lat="43.14718" lon="-7.00938667">
        <ele>959.0</ele>
        <time>2022-06-19T09:34:58.726Z</time>
      </trkpt>
      <trkpt lat="43.14718" lon="-7.00938667">
        <ele>959.0</ele>
        <time>2022-06-19T09:34:59.691Z</time>
      </trkpt>
      <trkpt lat="43.14716" lon="-7.00946333">
        <ele>959.0</ele>
        <time>2022-06-19T09:35:00.691Z</time>
      </trkpt>
      <trkpt lat="43.14716" lon="-7.00946333">
        <ele>959.0</ele>
        <time>2022-06-19T09:35:01.696Z</time>
      </trkpt>
      <trkpt lat="43.14714" lon="-7.00953">
        <ele>960.0</ele>
        <time>2022-06-19T09:35:02.689Z</time>
      </trkpt>
      <trkpt lat="43.14713167" lon="-7.009565">
        <ele>960.0</ele>
        <time>2022-06-19T09:35:03.723Z</time>
      </trkpt>
      <trkpt lat="43.14713167" lon="-7.009565">
        <ele>960.0</ele>
        <time>2022-06-19T09:35:04.688Z</time>
      </trkpt>
      <trkpt lat="43.147115" lon="-7.00963667">
        <ele>961.0</ele>
        <time>2022-06-19T09:35:05.706Z</time>
      </trkpt>
      <trkpt lat="43.147115" lon="-7.00963667">
        <ele>961.0</ele>
        <time>2022-06-19T09:35:06.714Z</time>
      </trkpt>
      <trkpt lat="43.14709167" lon="-7.00971833">
        <ele>961.0</ele>
        <time>2022-06-19T09:35:07.712Z</time>
      </trkpt>
      <trkpt lat="43.14707833" lon="-7.00976">
        <ele>962.0</ele>
        <time>2022-06-19T09:35:08.691Z</time>
      </trkpt>
      <trkpt lat="43.14707833" lon="-7.00976">
        <ele>962.0</ele>
        <time>2022-06-19T09:35:09.696Z</time>
      </trkpt>
      <trkpt lat="43.14705" lon="-7.00985167">
        <ele>962.0</ele>
        <time>2022-06-19T09:35:10.698Z</time>
      </trkpt>
      <trkpt lat="43.14705" lon="-7.00985167">
        <ele>962.0</ele>
        <time>2022-06-19T09:35:11.703Z</time>
      </trkpt>
      <trkpt lat="43.14702167" lon="-7.00994167">
        <ele>962.0</ele>
        <time>2022-06-19T09:35:12.692Z</time>
      </trkpt>
      <trkpt lat="43.147005" lon="-7.00998833">
        <ele>962.0</ele>
        <time>2022-06-19T09:35:13.787Z</time>
      </trkpt>
      <trkpt lat="43.147005" lon="-7.00998833">
        <ele>962.0</ele>
        <time>2022-06-19T09:35:14.688Z</time>
      </trkpt>
      <trkpt lat="43.14697" lon="-7.010075">
        <ele>962.0</ele>
        <time>2022-06-19T09:35:15.716Z</time>
      </trkpt>
      <trkpt lat="43.14694667" lon="-7.01011833">
        <ele>963.0</ele>
        <time>2022-06-19T09:35:16.726Z</time>
      </trkpt>
      <trkpt lat="43.14694667" lon="-7.01011833">
        <ele>963.0</ele>
        <time>2022-06-19T09:35:17.692Z</time>
      </trkpt>
      <trkpt lat="43.146895" lon="-7.01020333">
        <ele>963.0</ele>
        <time>2022-06-19T09:35:18.720Z</time>
      </trkpt>
      <trkpt lat="43.14686667" lon="-7.01024833">
        <ele>963.0</ele>
        <time>2022-06-19T09:35:19.725Z</time>
      </trkpt>
      <trkpt lat="43.14686667" lon="-7.01024833">
        <ele>963.0</ele>
        <time>2022-06-19T09:35:20.691Z</time>
      </trkpt>
      <trkpt lat="43.14682167" lon="-7.01034333">
        <ele>964.0</ele>
        <time>2022-06-19T09:35:21.703Z</time>
      </trkpt>
      <trkpt lat="43.14682167" lon="-7.01034333">
        <ele>964.0</ele>
        <time>2022-06-19T09:35:22.710Z</time>
      </trkpt>
      <trkpt lat="43.14678667" lon="-7.01043667">
        <ele>963.0</ele>
        <time>2022-06-19T09:35:23.706Z</time>
      </trkpt>
      <trkpt lat="43.14677" lon="-7.01048333">
        <ele>964.0</ele>
        <time>2022-06-19T09:35:24.700Z</time>
      </trkpt>
      <trkpt lat="43.14675333" lon="-7.01052833">
        <ele>963.0</ele>
        <time>2022-06-19T09:35:25.699Z</time>
      </trkpt>
      <trkpt lat="43.14675333" lon="-7.01052833">
        <ele>963.0</ele>
        <time>2022-06-19T09:35:26.708Z</time>
      </trkpt>
      <trkpt lat="43.14672" lon="-7.01063">
        <ele>963.0</ele>
        <time>2022-06-19T09:35:27.700Z</time>
      </trkpt>
      <trkpt lat="43.14670333" lon="-7.01068167">
        <ele>964.0</ele>
        <time>2022-06-19T09:35:28.706Z</time>
      </trkpt>
      <trkpt lat="43.14670333" lon="-7.01068167">
        <ele>964.0</ele>
        <time>2022-06-19T09:35:29.712Z</time>
      </trkpt>
      <trkpt lat="43.14666667" lon="-7.01078667">
        <ele>963.0</ele>
        <time>2022-06-19T09:35:30.714Z</time>
      </trkpt>
      <trkpt lat="43.14664833" lon="-7.01084">
        <ele>963.0</ele>
        <time>2022-06-19T09:35:31.723Z</time>
      </trkpt>
      <trkpt lat="43.14664833" lon="-7.01084">
        <ele>963.0</ele>
        <time>2022-06-19T09:35:32.690Z</time>
      </trkpt>
      <trkpt lat="43.14662167" lon="-7.01095">
        <ele>963.0</ele>
        <time>2022-06-19T09:35:33.718Z</time>
      </trkpt>
      <trkpt lat="43.14662167" lon="-7.01095">
        <ele>963.0</ele>
        <time>2022-06-19T09:35:34.723Z</time>
      </trkpt>
      <trkpt lat="43.14659833" lon="-7.01106">
        <ele>963.0</ele>
        <time>2022-06-19T09:35:35.691Z</time>
      </trkpt>
      <trkpt lat="43.14659833" lon="-7.01106">
        <ele>963.0</ele>
        <time>2022-06-19T09:35:36.696Z</time>
      </trkpt>
      <trkpt lat="43.14657333" lon="-7.01117167">
        <ele>963.0</ele>
        <time>2022-06-19T09:35:37.690Z</time>
      </trkpt>
      <trkpt lat="43.14657333" lon="-7.01117167">
        <ele>963.0</ele>
        <time>2022-06-19T09:35:38.695Z</time>
      </trkpt>
      <trkpt lat="43.14655333" lon="-7.01128833">
        <ele>964.0</ele>
        <time>2022-06-19T09:35:39.725Z</time>
      </trkpt>
      <trkpt lat="43.14654333" lon="-7.01134167">
        <ele>964.0</ele>
        <time>2022-06-19T09:35:40.708Z</time>
      </trkpt>
      <trkpt lat="43.14654333" lon="-7.01134167">
        <ele>964.0</ele>
        <time>2022-06-19T09:35:41.723Z</time>
      </trkpt>
      <trkpt lat="43.14652667" lon="-7.01144833">
        <ele>965.0</ele>
        <time>2022-06-19T09:35:42.696Z</time>
      </trkpt>
      <trkpt lat="43.14652" lon="-7.011505">
        <ele>965.0</ele>
        <time>2022-06-19T09:35:43.711Z</time>
      </trkpt>
      <trkpt lat="43.14652" lon="-7.011505">
        <ele>965.0</ele>
        <time>2022-06-19T09:35:44.716Z</time>
      </trkpt>
      <trkpt lat="43.146515" lon="-7.01163">
        <ele>965.0</ele>
        <time>2022-06-19T09:35:45.712Z</time>
      </trkpt>
      <trkpt lat="43.146515" lon="-7.01163">
        <ele>965.0</ele>
        <time>2022-06-19T09:35:46.718Z</time>
      </trkpt>
      <trkpt lat="43.14651667" lon="-7.01176333">
        <ele>965.0</ele>
        <time>2022-06-19T09:35:47.716Z</time>
      </trkpt>
      <trkpt lat="43.14651167" lon="-7.01181833">
        <ele>965.0</ele>
        <time>2022-06-19T09:35:48.698Z</time>
      </trkpt>
      <trkpt lat="43.14651167" lon="-7.01187833">
        <ele>964.0</ele>
        <time>2022-06-19T09:35:49.707Z</time>
      </trkpt>
      <trkpt lat="43.14651167" lon="-7.01187833">
        <ele>964.0</ele>
        <time>2022-06-19T09:35:50.712Z</time>
      </trkpt>
      <trkpt lat="43.14652" lon="-7.012">
        <ele>964.0</ele>
        <time>2022-06-19T09:35:51.717Z</time>
      </trkpt>
      <trkpt lat="43.14652" lon="-7.012">
        <ele>964.0</ele>
        <time>2022-06-19T09:35:52.698Z</time>
      </trkpt>
      <trkpt lat="43.14654167" lon="-7.01212833">
        <ele>964.0</ele>
        <time>2022-06-19T09:35:53.699Z</time>
      </trkpt>
      <trkpt lat="43.14655333" lon="-7.01219333">
        <ele>964.0</ele>
        <time>2022-06-19T09:35:54.692Z</time>
      </trkpt>
      <trkpt lat="43.14656333" lon="-7.01225167">
        <ele>964.0</ele>
        <time>2022-06-19T09:35:55.722Z</time>
      </trkpt>
      <trkpt lat="43.14656333" lon="-7.01225167">
        <ele>964.0</ele>
        <time>2022-06-19T09:35:56.688Z</time>
      </trkpt>
      <trkpt lat="43.14657333" lon="-7.01231167">
        <ele>964.0</ele>
        <time>2022-06-19T09:35:57.727Z</time>
      </trkpt>
      <trkpt lat="43.14657333" lon="-7.01231167">
        <ele>964.0</ele>
        <time>2022-06-19T09:35:58.691Z</time>
      </trkpt>
      <trkpt lat="43.14657" lon="-7.012315">
        <ele>964.0</ele>
        <time>2022-06-19T09:35:59.715Z</time>
      </trkpt>
      <trkpt lat="43.14657" lon="-7.012315">
        <ele>964.0</ele>
        <time>2022-06-19T09:36:00.720Z</time>
      </trkpt>
      <trkpt lat="43.14657" lon="-7.012315">
        <ele>964.0</ele>
        <time>2022-06-19T09:40:21.308Z</time>
      </trkpt>
      <trkpt lat="43.14657" lon="-7.012315">
        <ele>964.0</ele>
        <time>2022-06-19T09:40:22.329Z</time>
      </trkpt>
      <trkpt lat="43.146585" lon="-7.012435">
        <ele>961.0</ele>
        <time>2022-06-19T09:40:23.324Z</time>
      </trkpt>
      <trkpt lat="43.14659667" lon="-7.01246833">
        <ele>960.0</ele>
        <time>2022-06-19T09:40:24.323Z</time>
      </trkpt>
      <trkpt lat="43.14661333" lon="-7.01250333">
        <ele>960.0</ele>
        <time>2022-06-19T09:40:25.305Z</time>
      </trkpt>
      <trkpt lat="43.14661333" lon="-7.01250333">
        <ele>960.0</ele>
        <time>2022-06-19T09:40:26.314Z</time>
      </trkpt>
      <trkpt lat="43.14664667" lon="-7.01257833">
        <ele>960.0</ele>
        <time>2022-06-19T09:40:27.338Z</time>
      </trkpt>
      <trkpt lat="43.14666333" lon="-7.01262">
        <ele>959.0</ele>
        <time>2022-06-19T09:40:28.329Z</time>
      </trkpt>
      <trkpt lat="43.14666333" lon="-7.01262">
        <ele>959.0</ele>
        <time>2022-06-19T09:40:29.331Z</time>
      </trkpt>
      <trkpt lat="43.146695" lon="-7.01268833">
        <ele>959.0</ele>
        <time>2022-06-19T09:40:30.312Z</time>
      </trkpt>
      <trkpt lat="43.14670833" lon="-7.01272">
        <ele>958.0</ele>
        <time>2022-06-19T09:40:31.341Z</time>
      </trkpt>
      <trkpt lat="43.14670833" lon="-7.01272">
        <ele>958.0</ele>
        <time>2022-06-19T09:40:32.338Z</time>
      </trkpt>
      <trkpt lat="43.14673167" lon="-7.01277833">
        <ele>958.0</ele>
        <time>2022-06-19T09:40:33.318Z</time>
      </trkpt>
      <trkpt lat="43.146745" lon="-7.01281833">
        <ele>958.0</ele>
        <time>2022-06-19T09:40:34.311Z</time>
      </trkpt>
      <trkpt lat="43.146745" lon="-7.01281833">
        <ele>958.0</ele>
        <time>2022-06-19T09:40:35.332Z</time>
      </trkpt>
      <trkpt lat="43.146785" lon="-7.01291">
        <ele>957.0</ele>
        <time>2022-06-19T09:40:36.320Z</time>
      </trkpt>
      <trkpt lat="43.14681667" lon="-7.01296667">
        <ele>957.0</ele>
        <time>2022-06-19T09:40:37.341Z</time>
      </trkpt>
      <trkpt lat="43.14681667" lon="-7.01296667">
        <ele>957.0</ele>
        <time>2022-06-19T09:40:38.336Z</time>
      </trkpt>
      <trkpt lat="43.146875" lon="-7.01309667">
        <ele>956.0</ele>
        <time>2022-06-19T09:40:39.314Z</time>
      </trkpt>
      <trkpt lat="43.146875" lon="-7.01309667">
        <ele>956.0</ele>
        <time>2022-06-19T09:40:40.322Z</time>
      </trkpt>
      <trkpt lat="43.14693" lon="-7.01323167">
        <ele>954.0</ele>
        <time>2022-06-19T09:40:41.337Z</time>
      </trkpt>
      <trkpt lat="43.14693" lon="-7.01323167">
        <ele>954.0</ele>
        <time>2022-06-19T09:40:42.329Z</time>
      </trkpt>
      <trkpt lat="43.14697833" lon="-7.01336333">
        <ele>953.0</ele>
        <time>2022-06-19T09:40:43.306Z</time>
      </trkpt>
      <trkpt lat="43.14697833" lon="-7.01336333">
        <ele>953.0</ele>
        <time>2022-06-19T09:40:44.311Z</time>
      </trkpt>
      <trkpt lat="43.147035" lon="-7.01348833">
        <ele>952.0</ele>
        <time>2022-06-19T09:40:45.336Z</time>
      </trkpt>
      <trkpt lat="43.14707" lon="-7.01355333">
        <ele>951.0</ele>
        <time>2022-06-19T09:40:46.339Z</time>
      </trkpt>
      <trkpt lat="43.14707" lon="-7.01355333">
        <ele>951.0</ele>
        <time>2022-06-19T09:40:47.325Z</time>
      </trkpt>
      <trkpt lat="43.14716167" lon="-7.01371">
        <ele>949.0</ele>
        <time>2022-06-19T09:40:48.343Z</time>
      </trkpt>
      <trkpt lat="43.14722" lon="-7.01379333">
        <ele>949.0</ele>
        <time>2022-06-19T09:40:49.336Z</time>
      </trkpt>
      <trkpt lat="43.14722" lon="-7.01379333">
        <ele>949.0</ele>
        <time>2022-06-19T09:40:50.314Z</time>
      </trkpt>
      <trkpt lat="43.14734333" lon="-7.01397">
        <ele>947.0</ele>
        <time>2022-06-19T09:40:51.331Z</time>
      </trkpt>
      <trkpt lat="43.14734333" lon="-7.01397">
        <ele>947.0</ele>
        <time>2022-06-19T09:40:52.326Z</time>
      </trkpt>
      <trkpt lat="43.14747333" lon="-7.014165">
        <ele>945.0</ele>
        <time>2022-06-19T09:40:53.345Z</time>
      </trkpt>
      <trkpt lat="43.14747333" lon="-7.014165">
        <ele>945.0</ele>
        <time>2022-06-19T09:40:54.335Z</time>
      </trkpt>
      <trkpt lat="43.14761167" lon="-7.01436833">
        <ele>942.0</ele>
        <time>2022-06-19T09:40:55.309Z</time>
      </trkpt>
      <trkpt lat="43.14761167" lon="-7.01436833">
        <ele>942.0</ele>
        <time>2022-06-19T09:40:56.338Z</time>
      </trkpt>
      <trkpt lat="43.147745" lon="-7.014555">
        <ele>940.0</ele>
        <time>2022-06-19T09:40:57.316Z</time>
      </trkpt>
      <trkpt lat="43.14781167" lon="-7.01464333">
        <ele>939.0</ele>
        <time>2022-06-19T09:40:58.307Z</time>
      </trkpt>
      <trkpt lat="43.14781167" lon="-7.01464333">
        <ele>939.0</ele>
        <time>2022-06-19T09:40:59.311Z</time>
      </trkpt>
      <trkpt lat="43.147915" lon="-7.01481667">
        <ele>938.0</ele>
        <time>2022-06-19T09:41:00.326Z</time>
      </trkpt>
      <trkpt lat="43.147915" lon="-7.01481667">
        <ele>938.0</ele>
        <time>2022-06-19T09:41:01.343Z</time>
      </trkpt>
      <trkpt lat="43.148" lon="-7.015005">
        <ele>936.0</ele>
        <time>2022-06-19T09:41:02.328Z</time>
      </trkpt>
      <trkpt lat="43.14803667" lon="-7.01511333">
        <ele>935.0</ele>
        <time>2022-06-19T09:41:03.308Z</time>
      </trkpt>
      <trkpt lat="43.14803667" lon="-7.01511333">
        <ele>935.0</ele>
        <time>2022-06-19T09:41:04.334Z</time>
      </trkpt>
      <trkpt lat="43.14811167" lon="-7.01533667">
        <ele>933.0</ele>
        <time>2022-06-19T09:41:05.347Z</time>
      </trkpt>
      <trkpt lat="43.148155" lon="-7.01545167">
        <ele>932.0</ele>
        <time>2022-06-19T09:41:06.341Z</time>
      </trkpt>
      <trkpt lat="43.148155" lon="-7.01545167">
        <ele>932.0</ele>
        <time>2022-06-19T09:41:07.333Z</time>
      </trkpt>
      <trkpt lat="43.14824333" lon="-7.015675">
        <ele>931.0</ele>
        <time>2022-06-19T09:41:08.332Z</time>
      </trkpt>
      <trkpt lat="43.14824333" lon="-7.015675">
        <ele>931.0</ele>
        <time>2022-06-19T09:41:09.325Z</time>
      </trkpt>
      <trkpt lat="43.14834667" lon="-7.01588833">
        <ele>930.0</ele>
        <time>2022-06-19T09:41:10.310Z</time>
      </trkpt>
      <trkpt lat="43.14834667" lon="-7.01588833">
        <ele>930.0</ele>
        <time>2022-06-19T09:41:11.311Z</time>
      </trkpt>
      <trkpt lat="43.14845" lon="-7.01610167">
        <ele>928.0</ele>
        <time>2022-06-19T09:41:12.342Z</time>
      </trkpt>
      <trkpt lat="43.14845" lon="-7.01610167">
        <ele>928.0</ele>
        <time>2022-06-19T09:41:13.326Z</time>
      </trkpt>
      <trkpt lat="43.148555" lon="-7.01631167">
        <ele>927.0</ele>
        <time>2022-06-19T09:41:14.336Z</time>
      </trkpt>
      <trkpt lat="43.14861" lon="-7.01641833">
        <ele>927.0</ele>
        <time>2022-06-19T09:41:15.327Z</time>
      </trkpt>
      <trkpt lat="43.148665" lon="-7.01652333">
        <ele>926.0</ele>
        <time>2022-06-19T09:41:16.631Z</time>
      </trkpt>
      <trkpt lat="43.148665" lon="-7.01652333">
        <ele>926.0</ele>
        <time>2022-06-19T09:41:17.327Z</time>
      </trkpt>
      <trkpt lat="43.14877333" lon="-7.01673167">
        <ele>925.0</ele>
        <time>2022-06-19T09:41:18.344Z</time>
      </trkpt>
      <trkpt lat="43.14882833" lon="-7.01683167">
        <ele>924.0</ele>
        <time>2022-06-19T09:41:19.340Z</time>
      </trkpt>
      <trkpt lat="43.14882833" lon="-7.01683167">
        <ele>924.0</ele>
        <time>2022-06-19T09:41:20.319Z</time>
      </trkpt>
      <trkpt lat="43.14893" lon="-7.01703833">
        <ele>923.0</ele>
        <time>2022-06-19T09:41:21.345Z</time>
      </trkpt>
      <trkpt lat="43.14893" lon="-7.01703833">
        <ele>923.0</ele>
        <time>2022-06-19T09:41:22.340Z</time>
      </trkpt>
      <trkpt lat="43.14901833" lon="-7.01724333">
        <ele>922.0</ele>
        <time>2022-06-19T09:41:23.310Z</time>
      </trkpt>
      <trkpt lat="43.14901833" lon="-7.01724333">
        <ele>922.0</ele>
        <time>2022-06-19T09:41:24.340Z</time>
      </trkpt>
      <trkpt lat="43.14908833" lon="-7.01741667">
        <ele>922.0</ele>
        <time>2022-06-19T09:41:25.319Z</time>
      </trkpt>
      <trkpt lat="43.149105" lon="-7.01747667">
        <ele>921.0</ele>
        <time>2022-06-19T09:41:26.321Z</time>
      </trkpt>
      <trkpt lat="43.149105" lon="-7.01747667">
        <ele>921.0</ele>
        <time>2022-06-19T09:41:27.331Z</time>
      </trkpt>
      <trkpt lat="43.1491" lon="-7.01757833">
        <ele>921.0</ele>
        <time>2022-06-19T09:41:28.309Z</time>
      </trkpt>
      <trkpt lat="43.1491" lon="-7.01757833">
        <ele>921.0</ele>
        <time>2022-06-19T09:41:29.313Z</time>
      </trkpt>
      <trkpt lat="43.149065" lon="-7.01767333">
        <ele>921.0</ele>
        <time>2022-06-19T09:41:30.326Z</time>
      </trkpt>
      <trkpt lat="43.14904333" lon="-7.01771667">
        <ele>920.0</ele>
        <time>2022-06-19T09:41:31.338Z</time>
      </trkpt>
      <trkpt lat="43.14904333" lon="-7.01771667">
        <ele>920.0</ele>
        <time>2022-06-19T09:41:32.337Z</time>
      </trkpt>
      <trkpt lat="43.14899167" lon="-7.01780833">
        <ele>920.0</ele>
        <time>2022-06-19T09:41:33.308Z</time>
      </trkpt>
      <trkpt lat="43.14899167" lon="-7.01780833">
        <ele>920.0</ele>
        <time>2022-06-19T09:41:34.321Z</time>
      </trkpt>
      <trkpt lat="43.148935" lon="-7.01790833">
        <ele>920.0</ele>
        <time>2022-06-19T09:41:35.351Z</time>
      </trkpt>
      <trkpt lat="43.148935" lon="-7.01790833">
        <ele>920.0</ele>
        <time>2022-06-19T09:41:36.316Z</time>
      </trkpt>
      <trkpt lat="43.148875" lon="-7.01801333">
        <ele>920.0</ele>
        <time>2022-06-19T09:41:37.330Z</time>
      </trkpt>
      <trkpt lat="43.148875" lon="-7.01801333">
        <ele>920.0</ele>
        <time>2022-06-19T09:41:38.332Z</time>
      </trkpt>
      <trkpt lat="43.14882" lon="-7.01811833">
        <ele>920.0</ele>
        <time>2022-06-19T09:41:39.306Z</time>
      </trkpt>
      <trkpt lat="43.148795" lon="-7.01817167">
        <ele>919.0</ele>
        <time>2022-06-19T09:41:40.329Z</time>
      </trkpt>
      <trkpt lat="43.148795" lon="-7.01817167">
        <ele>919.0</ele>
        <time>2022-06-19T09:41:41.344Z</time>
      </trkpt>
      <trkpt lat="43.14876833" lon="-7.01827833">
        <ele>919.0</ele>
        <time>2022-06-19T09:41:42.319Z</time>
      </trkpt>
      <trkpt lat="43.14878167" lon="-7.018315">
        <ele>919.0</ele>
        <time>2022-06-19T09:41:43.328Z</time>
      </trkpt>
      <trkpt lat="43.14878167" lon="-7.018315">
        <ele>919.0</ele>
        <time>2022-06-19T09:41:44.344Z</time>
      </trkpt>
      <trkpt lat="43.14882" lon="-7.01832833">
        <ele>920.0</ele>
        <time>2022-06-19T09:41:45.334Z</time>
      </trkpt>
      <trkpt lat="43.14882" lon="-7.01832833">
        <ele>920.0</ele>
        <time>2022-06-19T09:41:46.328Z</time>
      </trkpt>
      <trkpt lat="43.14883833" lon="-7.01835">
        <ele>921.0</ele>
        <time>2022-06-19T09:41:47.309Z</time>
      </trkpt>
      <trkpt lat="43.14884167" lon="-7.018385">
        <ele>921.0</ele>
        <time>2022-06-19T09:41:48.316Z</time>
      </trkpt>
      <trkpt lat="43.14884167" lon="-7.018385">
        <ele>921.0</ele>
        <time>2022-06-19T09:41:49.314Z</time>
      </trkpt>
      <trkpt lat="43.148845" lon="-7.01847">
        <ele>921.0</ele>
        <time>2022-06-19T09:41:50.345Z</time>
      </trkpt>
      <trkpt lat="43.148845" lon="-7.01847">
        <ele>921.0</ele>
        <time>2022-06-19T09:41:51.344Z</time>
      </trkpt>
      <trkpt lat="43.14887167" lon="-7.01854667">
        <ele>922.0</ele>
        <time>2022-06-19T09:41:52.318Z</time>
      </trkpt>
      <trkpt lat="43.148875" lon="-7.01858833">
        <ele>921.0</ele>
        <time>2022-06-19T09:41:53.314Z</time>
      </trkpt>
      <trkpt lat="43.148865" lon="-7.01862833">
        <ele>921.0</ele>
        <time>2022-06-19T09:41:54.310Z</time>
      </trkpt>
      <trkpt lat="43.14885" lon="-7.01866333">
        <ele>921.0</ele>
        <time>2022-06-19T09:41:55.327Z</time>
      </trkpt>
      <trkpt lat="43.14885" lon="-7.01866333">
        <ele>921.0</ele>
        <time>2022-06-19T09:41:56.327Z</time>
      </trkpt>
      <trkpt lat="43.14881667" lon="-7.018745">
        <ele>921.0</ele>
        <time>2022-06-19T09:41:57.341Z</time>
      </trkpt>
      <trkpt lat="43.14881667" lon="-7.018745">
        <ele>921.0</ele>
        <time>2022-06-19T09:41:58.715Z</time>
      </trkpt>
      <trkpt lat="43.14878167" lon="-7.01882333">
        <ele>921.0</ele>
        <time>2022-06-19T09:41:59.340Z</time>
      </trkpt>
      <trkpt lat="43.14876667" lon="-7.01886333">
        <ele>921.0</ele>
        <time>2022-06-19T09:42:00.333Z</time>
      </trkpt>
      <trkpt lat="43.14875333" lon="-7.0189">
        <ele>922.0</ele>
        <time>2022-06-19T09:42:01.328Z</time>
      </trkpt>
      <trkpt lat="43.14875333" lon="-7.0189">
        <ele>922.0</ele>
        <time>2022-06-19T09:42:02.325Z</time>
      </trkpt>
      <trkpt lat="43.14872333" lon="-7.018985">
        <ele>921.0</ele>
        <time>2022-06-19T09:42:03.342Z</time>
      </trkpt>
      <trkpt lat="43.14870667" lon="-7.01903167">
        <ele>921.0</ele>
        <time>2022-06-19T09:42:04.341Z</time>
      </trkpt>
      <trkpt lat="43.14870667" lon="-7.01903167">
        <ele>921.0</ele>
        <time>2022-06-19T09:42:05.316Z</time>
      </trkpt>
      <trkpt lat="43.14867" lon="-7.01912833">
        <ele>921.0</ele>
        <time>2022-06-19T09:42:06.331Z</time>
      </trkpt>
      <trkpt lat="43.14865167" lon="-7.01918">
        <ele>921.0</ele>
        <time>2022-06-19T09:42:07.315Z</time>
      </trkpt>
      <trkpt lat="43.14865167" lon="-7.01918">
        <ele>921.0</ele>
        <time>2022-06-19T09:42:08.313Z</time>
      </trkpt>
      <trkpt lat="43.14861167" lon="-7.01928333">
        <ele>921.0</ele>
        <time>2022-06-19T09:42:09.342Z</time>
      </trkpt>
      <trkpt lat="43.14861167" lon="-7.01928333">
        <ele>921.0</ele>
        <time>2022-06-19T09:42:10.331Z</time>
      </trkpt>
      <trkpt lat="43.14857333" lon="-7.01939">
        <ele>921.0</ele>
        <time>2022-06-19T09:42:11.312Z</time>
      </trkpt>
      <trkpt lat="43.14857333" lon="-7.01939">
        <ele>921.0</ele>
        <time>2022-06-19T09:42:12.308Z</time>
      </trkpt>
      <trkpt lat="43.148535" lon="-7.0195">
        <ele>921.0</ele>
        <time>2022-06-19T09:42:13.345Z</time>
      </trkpt>
      <trkpt lat="43.148535" lon="-7.0195">
        <ele>921.0</ele>
        <time>2022-06-19T09:42:14.327Z</time>
      </trkpt>
      <trkpt lat="43.14849667" lon="-7.01960833">
        <ele>921.0</ele>
        <time>2022-06-19T09:42:15.305Z</time>
      </trkpt>
      <trkpt lat="43.14847833" lon="-7.01966">
        <ele>921.0</ele>
        <time>2022-06-19T09:42:16.334Z</time>
      </trkpt>
      <trkpt lat="43.14846" lon="-7.01971167">
        <ele>921.0</ele>
        <time>2022-06-19T09:42:17.346Z</time>
      </trkpt>
      <trkpt lat="43.14846" lon="-7.01971167">
        <ele>921.0</ele>
        <time>2022-06-19T09:42:18.335Z</time>
      </trkpt>
      <trkpt lat="43.148425" lon="-7.01980667">
        <ele>921.0</ele>
        <time>2022-06-19T09:42:19.312Z</time>
      </trkpt>
      <trkpt lat="43.148425" lon="-7.01980667">
        <ele>921.0</ele>
        <time>2022-06-19T09:42:20.322Z</time>
      </trkpt>
      <trkpt lat="43.14838833" lon="-7.01991333">
        <ele>921.0</ele>
        <time>2022-06-19T09:42:21.341Z</time>
      </trkpt>
      <trkpt lat="43.14838833" lon="-7.01991333">
        <ele>921.0</ele>
        <time>2022-06-19T09:42:22.313Z</time>
      </trkpt>
      <trkpt lat="43.148345" lon="-7.02002667">
        <ele>921.0</ele>
        <time>2022-06-19T09:42:23.337Z</time>
      </trkpt>
      <trkpt lat="43.14832833" lon="-7.02009167">
        <ele>921.0</ele>
        <time>2022-06-19T09:42:24.314Z</time>
      </trkpt>
      <trkpt lat="43.14832833" lon="-7.02009167">
        <ele>921.0</ele>
        <time>2022-06-19T09:42:25.314Z</time>
      </trkpt>
      <trkpt lat="43.14830167" lon="-7.020215">
        <ele>921.0</ele>
        <time>2022-06-19T09:42:26.338Z</time>
      </trkpt>
      <trkpt lat="43.14830167" lon="-7.020215">
        <ele>921.0</ele>
        <time>2022-06-19T09:42:27.337Z</time>
      </trkpt>
      <trkpt lat="43.14827333" lon="-7.02034167">
        <ele>920.0</ele>
        <time>2022-06-19T09:42:28.322Z</time>
      </trkpt>
      <trkpt lat="43.14827333" lon="-7.02034167">
        <ele>920.0</ele>
        <time>2022-06-19T09:42:29.341Z</time>
      </trkpt>
      <trkpt lat="43.14823833" lon="-7.02046167">
        <ele>921.0</ele>
        <time>2022-06-19T09:42:30.326Z</time>
      </trkpt>
      <trkpt lat="43.14821833" lon="-7.02051667">
        <ele>921.0</ele>
        <time>2022-06-19T09:42:31.318Z</time>
      </trkpt>
      <trkpt lat="43.14821833" lon="-7.02051667">
        <ele>921.0</ele>
        <time>2022-06-19T09:42:32.334Z</time>
      </trkpt>
      <trkpt lat="43.148185" lon="-7.020625">
        <ele>921.0</ele>
        <time>2022-06-19T09:42:33.313Z</time>
      </trkpt>
      <trkpt lat="43.14816833" lon="-7.02067667">
        <ele>921.0</ele>
        <time>2022-06-19T09:42:34.327Z</time>
      </trkpt>
      <trkpt lat="43.14816833" lon="-7.02067667">
        <ele>921.0</ele>
        <time>2022-06-19T09:42:35.308Z</time>
      </trkpt>
      <trkpt lat="43.14813667" lon="-7.02077333">
        <ele>921.0</ele>
        <time>2022-06-19T09:42:36.322Z</time>
      </trkpt>
      <trkpt lat="43.14813667" lon="-7.02077333">
        <ele>921.0</ele>
        <time>2022-06-19T09:42:37.337Z</time>
      </trkpt>
      <trkpt lat="43.14810833" lon="-7.02085833">
        <ele>922.0</ele>
        <time>2022-06-19T09:42:38.312Z</time>
      </trkpt>
      <trkpt lat="43.14810833" lon="-7.02085833">
        <ele>922.0</ele>
        <time>2022-06-19T09:42:39.328Z</time>
      </trkpt>
      <trkpt lat="43.14807667" lon="-7.02093667">
        <ele>922.0</ele>
        <time>2022-06-19T09:42:40.307Z</time>
      </trkpt>
      <trkpt lat="43.14806" lon="-7.02097833">
        <ele>922.0</ele>
        <time>2022-06-19T09:42:41.376Z</time>
      </trkpt>
      <trkpt lat="43.14806" lon="-7.02097833">
        <ele>922.0</ele>
        <time>2022-06-19T09:42:42.322Z</time>
      </trkpt>
      <trkpt lat="43.14802667" lon="-7.02107167">
        <ele>922.0</ele>
        <time>2022-06-19T09:42:43.342Z</time>
      </trkpt>
      <trkpt lat="43.14802667" lon="-7.02107167">
        <ele>922.0</ele>
        <time>2022-06-19T09:42:44.340Z</time>
      </trkpt>
      <trkpt lat="43.14799333" lon="-7.021165">
        <ele>922.0</ele>
        <time>2022-06-19T09:42:45.327Z</time>
      </trkpt>
      <trkpt lat="43.14799333" lon="-7.021165">
        <ele>922.0</ele>
        <time>2022-06-19T09:42:46.322Z</time>
      </trkpt>
      <trkpt lat="43.14795167" lon="-7.02124167">
        <ele>922.0</ele>
        <time>2022-06-19T09:42:47.337Z</time>
      </trkpt>
      <trkpt lat="43.14795167" lon="-7.02124167">
        <ele>922.0</ele>
        <time>2022-06-19T09:42:48.330Z</time>
      </trkpt>
      <trkpt lat="43.14791667" lon="-7.021305">
        <ele>922.0</ele>
        <time>2022-06-19T09:42:49.308Z</time>
      </trkpt>
      <trkpt lat="43.14791667" lon="-7.021305">
        <ele>922.0</ele>
        <time>2022-06-19T09:42:50.312Z</time>
      </trkpt>
      <trkpt lat="43.147885" lon="-7.021355">
        <ele>922.0</ele>
        <time>2022-06-19T09:42:51.336Z</time>
      </trkpt>
      <trkpt lat="43.147885" lon="-7.021355">
        <ele>922.0</ele>
        <time>2022-06-19T09:42:52.330Z</time>
      </trkpt>
      <trkpt lat="43.14786" lon="-7.02140333">
        <ele>922.0</ele>
        <time>2022-06-19T09:42:53.312Z</time>
      </trkpt>
      <trkpt lat="43.14785" lon="-7.02142833">
        <ele>922.0</ele>
        <time>2022-06-19T09:42:54.347Z</time>
      </trkpt>
      <trkpt lat="43.14785" lon="-7.02142833">
        <ele>922.0</ele>
        <time>2022-06-19T09:42:55.329Z</time>
      </trkpt>
      <trkpt lat="43.14782667" lon="-7.02147">
        <ele>922.0</ele>
        <time>2022-06-19T09:42:56.340Z</time>
      </trkpt>
      <trkpt lat="43.14782667" lon="-7.02147">
        <ele>922.0</ele>
        <time>2022-06-19T09:42:57.328Z</time>
      </trkpt>
      <trkpt lat="43.147805" lon="-7.0215">
        <ele>922.0</ele>
        <time>2022-06-19T09:42:58.320Z</time>
      </trkpt>
      <trkpt lat="43.14779833" lon="-7.02151333">
        <ele>922.0</ele>
        <time>2022-06-19T09:42:59.330Z</time>
      </trkpt>
      <trkpt lat="43.14779333" lon="-7.02152667">
        <ele>922.0</ele>
        <time>2022-06-19T09:43:00.324Z</time>
      </trkpt>
      <trkpt lat="43.14779333" lon="-7.02152667">
        <ele>922.0</ele>
        <time>2022-06-19T09:43:01.330Z</time>
      </trkpt>
      <trkpt lat="43.14776667" lon="-7.021565">
        <ele>922.0</ele>
        <time>2022-06-19T09:43:02.316Z</time>
      </trkpt>
      <trkpt lat="43.14774833" lon="-7.02159">
        <ele>922.0</ele>
        <time>2022-06-19T09:43:03.334Z</time>
      </trkpt>
      <trkpt lat="43.14774833" lon="-7.02159">
        <ele>922.0</ele>
        <time>2022-06-19T09:43:04.308Z</time>
      </trkpt>
      <trkpt lat="43.14770833" lon="-7.02164667">
        <ele>922.0</ele>
        <time>2022-06-19T09:43:05.335Z</time>
      </trkpt>
      <trkpt lat="43.14770833" lon="-7.02164667">
        <ele>922.0</ele>
        <time>2022-06-19T09:43:06.316Z</time>
      </trkpt>
      <trkpt lat="43.147665" lon="-7.0217">
        <ele>921.0</ele>
        <time>2022-06-19T09:43:07.328Z</time>
      </trkpt>
      <trkpt lat="43.147665" lon="-7.0217">
        <ele>921.0</ele>
        <time>2022-06-19T09:43:08.315Z</time>
      </trkpt>
      <trkpt lat="43.14760833" lon="-7.02175167">
        <ele>920.0</ele>
        <time>2022-06-19T09:43:09.333Z</time>
      </trkpt>
      <trkpt lat="43.14760833" lon="-7.02175167">
        <ele>920.0</ele>
        <time>2022-06-19T09:43:10.319Z</time>
      </trkpt>
      <trkpt lat="43.14753833" lon="-7.02181333">
        <ele>919.0</ele>
        <time>2022-06-19T09:43:11.336Z</time>
      </trkpt>
      <trkpt lat="43.14753833" lon="-7.02181333">
        <ele>919.0</ele>
        <time>2022-06-19T09:43:12.305Z</time>
      </trkpt>
      <trkpt lat="43.147455" lon="-7.02188833">
        <ele>917.0</ele>
        <time>2022-06-19T09:43:13.330Z</time>
      </trkpt>
      <trkpt lat="43.147455" lon="-7.02188833">
        <ele>917.0</ele>
        <time>2022-06-19T09:43:14.317Z</time>
      </trkpt>
      <trkpt lat="43.14740667" lon="-7.02202667">
        <ele>916.0</ele>
        <time>2022-06-19T09:43:15.340Z</time>
      </trkpt>
      <trkpt lat="43.14739167" lon="-7.02210333">
        <ele>916.0</ele>
        <time>2022-06-19T09:43:16.342Z</time>
      </trkpt>
      <trkpt lat="43.14739167" lon="-7.02210333">
        <ele>916.0</ele>
        <time>2022-06-19T09:43:17.326Z</time>
      </trkpt>
      <trkpt lat="43.14737" lon="-7.02226167">
        <ele>916.0</ele>
        <time>2022-06-19T09:43:18.344Z</time>
      </trkpt>
      <trkpt lat="43.14736" lon="-7.02233667">
        <ele>916.0</ele>
        <time>2022-06-19T09:43:19.334Z</time>
      </trkpt>
      <trkpt lat="43.14736" lon="-7.02233667">
        <ele>916.0</ele>
        <time>2022-06-19T09:43:20.313Z</time>
      </trkpt>
      <trkpt lat="43.14734" lon="-7.02249667">
        <ele>915.0</ele>
        <time>2022-06-19T09:43:21.331Z</time>
      </trkpt>
      <trkpt lat="43.14734" lon="-7.02249667">
        <ele>915.0</ele>
        <time>2022-06-19T09:43:22.322Z</time>
      </trkpt>
      <trkpt lat="43.14730833" lon="-7.02267667">
        <ele>915.0</ele>
        <time>2022-06-19T09:43:23.335Z</time>
      </trkpt>
      <trkpt lat="43.14730833" lon="-7.02267667">
        <ele>915.0</ele>
        <time>2022-06-19T09:43:24.332Z</time>
      </trkpt>
      <trkpt lat="43.14727833" lon="-7.02284333">
        <ele>915.0</ele>
        <time>2022-06-19T09:43:25.319Z</time>
      </trkpt>
      <trkpt lat="43.14727833" lon="-7.02284333">
        <ele>915.0</ele>
        <time>2022-06-19T09:43:26.344Z</time>
      </trkpt>
      <trkpt lat="43.14725833" lon="-7.02295167">
        <ele>915.0</ele>
        <time>2022-06-19T09:43:27.335Z</time>
      </trkpt>
      <trkpt lat="43.147255" lon="-7.023005">
        <ele>915.0</ele>
        <time>2022-06-19T09:43:28.312Z</time>
      </trkpt>
      <trkpt lat="43.147255" lon="-7.023005">
        <ele>915.0</ele>
        <time>2022-06-19T09:43:29.329Z</time>
      </trkpt>
      <trkpt lat="43.14725833" lon="-7.02313167">
        <ele>915.0</ele>
        <time>2022-06-19T09:43:30.305Z</time>
      </trkpt>
      <trkpt lat="43.14725833" lon="-7.02313167">
        <ele>915.0</ele>
        <time>2022-06-19T09:43:31.337Z</time>
      </trkpt>
      <trkpt lat="43.14726167" lon="-7.02327">
        <ele>915.0</ele>
        <time>2022-06-19T09:43:32.316Z</time>
      </trkpt>
      <trkpt lat="43.14724833" lon="-7.023335">
        <ele>914.0</ele>
        <time>2022-06-19T09:43:33.321Z</time>
      </trkpt>
      <trkpt lat="43.14724833" lon="-7.023335">
        <ele>914.0</ele>
        <time>2022-06-19T09:43:34.307Z</time>
      </trkpt>
      <trkpt lat="43.14718833" lon="-7.02345667">
        <ele>914.0</ele>
        <time>2022-06-19T09:43:35.343Z</time>
      </trkpt>
      <trkpt lat="43.14716167" lon="-7.02351833">
        <ele>914.0</ele>
        <time>2022-06-19T09:43:36.336Z</time>
      </trkpt>
      <trkpt lat="43.14713667" lon="-7.02357667">
        <ele>914.0</ele>
        <time>2022-06-19T09:43:37.324Z</time>
      </trkpt>
      <trkpt lat="43.14713667" lon="-7.02357667">
        <ele>914.0</ele>
        <time>2022-06-19T09:43:38.340Z</time>
      </trkpt>
      <trkpt lat="43.14709" lon="-7.02370167">
        <ele>914.0</ele>
        <time>2022-06-19T09:43:39.313Z</time>
      </trkpt>
      <trkpt lat="43.14707" lon="-7.02376833">
        <ele>915.0</ele>
        <time>2022-06-19T09:43:40.318Z</time>
      </trkpt>
      <trkpt lat="43.14707" lon="-7.02376833">
        <ele>915.0</ele>
        <time>2022-06-19T09:43:41.322Z</time>
      </trkpt>
      <trkpt lat="43.147035" lon="-7.02390833">
        <ele>915.0</ele>
        <time>2022-06-19T09:43:42.343Z</time>
      </trkpt>
      <trkpt lat="43.147015" lon="-7.02398">
        <ele>915.0</ele>
        <time>2022-06-19T09:43:43.311Z</time>
      </trkpt>
      <trkpt lat="43.147015" lon="-7.02398">
        <ele>915.0</ele>
        <time>2022-06-19T09:43:44.328Z</time>
      </trkpt>
      <trkpt lat="43.14697333" lon="-7.02411667">
        <ele>915.0</ele>
        <time>2022-06-19T09:43:45.306Z</time>
      </trkpt>
      <trkpt lat="43.14697333" lon="-7.02411667">
        <ele>915.0</ele>
        <time>2022-06-19T09:43:46.336Z</time>
      </trkpt>
      <trkpt lat="43.146935" lon="-7.02425">
        <ele>916.0</ele>
        <time>2022-06-19T09:43:47.312Z</time>
      </trkpt>
      <trkpt lat="43.146935" lon="-7.02425">
        <ele>916.0</ele>
        <time>2022-06-19T09:43:48.337Z</time>
      </trkpt>
      <trkpt lat="43.146905" lon="-7.024385">
        <ele>916.0</ele>
        <time>2022-06-19T09:43:49.315Z</time>
      </trkpt>
      <trkpt lat="43.146905" lon="-7.024385">
        <ele>916.0</ele>
        <time>2022-06-19T09:43:50.313Z</time>
      </trkpt>
      <trkpt lat="43.14687667" lon="-7.02452">
        <ele>916.0</ele>
        <time>2022-06-19T09:43:51.337Z</time>
      </trkpt>
      <trkpt lat="43.14687667" lon="-7.02452">
        <ele>916.0</ele>
        <time>2022-06-19T09:43:52.336Z</time>
      </trkpt>
      <trkpt lat="43.146845" lon="-7.024655">
        <ele>916.0</ele>
        <time>2022-06-19T09:43:53.310Z</time>
      </trkpt>
      <trkpt lat="43.146845" lon="-7.024655">
        <ele>916.0</ele>
        <time>2022-06-19T09:43:54.328Z</time>
      </trkpt>
      <trkpt lat="43.14680833" lon="-7.02480167">
        <ele>916.0</ele>
        <time>2022-06-19T09:43:55.343Z</time>
      </trkpt>
      <trkpt lat="43.14680833" lon="-7.02480167">
        <ele>916.0</ele>
        <time>2022-06-19T09:43:56.342Z</time>
      </trkpt>
      <trkpt lat="43.14677667" lon="-7.02496333">
        <ele>916.0</ele>
        <time>2022-06-19T09:43:57.319Z</time>
      </trkpt>
      <trkpt lat="43.14677667" lon="-7.02496333">
        <ele>916.0</ele>
        <time>2022-06-19T09:43:58.305Z</time>
      </trkpt>
      <trkpt lat="43.14672667" lon="-7.02513667">
        <ele>915.0</ele>
        <time>2022-06-19T09:43:59.328Z</time>
      </trkpt>
      <trkpt lat="43.14669333" lon="-7.02521667">
        <ele>915.0</ele>
        <time>2022-06-19T09:44:00.309Z</time>
      </trkpt>
      <trkpt lat="43.14669333" lon="-7.02521667">
        <ele>915.0</ele>
        <time>2022-06-19T09:44:01.326Z</time>
      </trkpt>
      <trkpt lat="43.14663167" lon="-7.0254">
        <ele>914.0</ele>
        <time>2022-06-19T09:44:02.343Z</time>
      </trkpt>
      <trkpt lat="43.14659833" lon="-7.0255">
        <ele>913.0</ele>
        <time>2022-06-19T09:44:03.306Z</time>
      </trkpt>
      <trkpt lat="43.146565" lon="-7.02560167">
        <ele>912.0</ele>
        <time>2022-06-19T09:44:04.329Z</time>
      </trkpt>
      <trkpt lat="43.146565" lon="-7.02560167">
        <ele>912.0</ele>
        <time>2022-06-19T09:44:05.342Z</time>
      </trkpt>
      <trkpt lat="43.14649167" lon="-7.02581">
        <ele>911.0</ele>
        <time>2022-06-19T09:44:06.344Z</time>
      </trkpt>
      <trkpt lat="43.14645667" lon="-7.02591667">
        <ele>911.0</ele>
        <time>2022-06-19T09:44:07.310Z</time>
      </trkpt>
      <trkpt lat="43.14645667" lon="-7.02591667">
        <ele>911.0</ele>
        <time>2022-06-19T09:44:08.326Z</time>
      </trkpt>
      <trkpt lat="43.146375" lon="-7.02612833">
        <ele>909.0</ele>
        <time>2022-06-19T09:44:09.322Z</time>
      </trkpt>
      <trkpt lat="43.146375" lon="-7.02612833">
        <ele>909.0</ele>
        <time>2022-06-19T09:44:10.333Z</time>
      </trkpt>
      <trkpt lat="43.14631833" lon="-7.02632667">
        <ele>908.0</ele>
        <time>2022-06-19T09:44:11.316Z</time>
      </trkpt>
      <trkpt lat="43.14629" lon="-7.02642333">
        <ele>907.0</ele>
        <time>2022-06-19T09:44:12.311Z</time>
      </trkpt>
      <trkpt lat="43.14629" lon="-7.02642333">
        <ele>907.0</ele>
        <time>2022-06-19T09:44:13.340Z</time>
      </trkpt>
      <trkpt lat="43.146235" lon="-7.02663">
        <ele>905.0</ele>
        <time>2022-06-19T09:44:14.326Z</time>
      </trkpt>
      <trkpt lat="43.146235" lon="-7.02663">
        <ele>905.0</ele>
        <time>2022-06-19T09:44:15.340Z</time>
      </trkpt>
      <trkpt lat="43.14617333" lon="-7.02685667">
        <ele>903.0</ele>
        <time>2022-06-19T09:44:16.335Z</time>
      </trkpt>
      <trkpt lat="43.14614333" lon="-7.026975">
        <ele>902.0</ele>
        <time>2022-06-19T09:44:17.335Z</time>
      </trkpt>
      <trkpt lat="43.14611333" lon="-7.027095">
        <ele>902.0</ele>
        <time>2022-06-19T09:44:18.340Z</time>
      </trkpt>
      <trkpt lat="43.14607833" lon="-7.02721">
        <ele>902.0</ele>
        <time>2022-06-19T09:44:19.334Z</time>
      </trkpt>
      <trkpt lat="43.14607833" lon="-7.02721">
        <ele>902.0</ele>
        <time>2022-06-19T09:44:20.340Z</time>
      </trkpt>
      <trkpt lat="43.146005" lon="-7.02743167">
        <ele>901.0</ele>
        <time>2022-06-19T09:44:21.322Z</time>
      </trkpt>
      <trkpt lat="43.146005" lon="-7.02743167">
        <ele>901.0</ele>
        <time>2022-06-19T09:44:22.309Z</time>
      </trkpt>
      <trkpt lat="43.14593167" lon="-7.027635">
        <ele>899.0</ele>
        <time>2022-06-19T09:44:23.331Z</time>
      </trkpt>
      <trkpt lat="43.14593167" lon="-7.027635">
        <ele>899.0</ele>
        <time>2022-06-19T09:44:24.306Z</time>
      </trkpt>
      <trkpt lat="43.14586" lon="-7.02775667">
        <ele>898.0</ele>
        <time>2022-06-19T09:44:25.326Z</time>
      </trkpt>
      <trkpt lat="43.14586" lon="-7.02775667">
        <ele>898.0</ele>
        <time>2022-06-19T09:44:26.315Z</time>
      </trkpt>
      <trkpt lat="43.14579667" lon="-7.02783167">
        <ele>897.0</ele>
        <time>2022-06-19T09:44:27.330Z</time>
      </trkpt>
      <trkpt lat="43.14579667" lon="-7.02783167">
        <ele>897.0</ele>
        <time>2022-06-19T09:44:28.314Z</time>
      </trkpt>
      <trkpt lat="43.14571" lon="-7.027945">
        <ele>895.0</ele>
        <time>2022-06-19T09:44:29.332Z</time>
      </trkpt>
      <trkpt lat="43.14565833" lon="-7.028005">
        <ele>895.0</ele>
        <time>2022-06-19T09:44:30.316Z</time>
      </trkpt>
      <trkpt lat="43.14560167" lon="-7.02805833">
        <ele>894.0</ele>
        <time>2022-06-19T09:44:31.330Z</time>
      </trkpt>
      <trkpt lat="43.14560167" lon="-7.02805833">
        <ele>894.0</ele>
        <time>2022-06-19T09:44:32.335Z</time>
      </trkpt>
      <trkpt lat="43.145495" lon="-7.02815833">
        <ele>893.0</ele>
        <time>2022-06-19T09:44:33.343Z</time>
      </trkpt>
      <trkpt lat="43.14544333" lon="-7.02820833">
        <ele>892.0</ele>
        <time>2022-06-19T09:44:34.311Z</time>
      </trkpt>
      <trkpt lat="43.14544333" lon="-7.02820833">
        <ele>892.0</ele>
        <time>2022-06-19T09:44:35.331Z</time>
      </trkpt>
      <trkpt lat="43.14532667" lon="-7.028295">
        <ele>891.0</ele>
        <time>2022-06-19T09:44:36.344Z</time>
      </trkpt>
      <trkpt lat="43.14526667" lon="-7.028335">
        <ele>891.0</ele>
        <time>2022-06-19T09:44:37.331Z</time>
      </trkpt>
      <trkpt lat="43.14526667" lon="-7.028335">
        <ele>891.0</ele>
        <time>2022-06-19T09:44:38.312Z</time>
      </trkpt>
      <trkpt lat="43.145145" lon="-7.02839167">
        <ele>890.0</ele>
        <time>2022-06-19T09:44:39.331Z</time>
      </trkpt>
      <trkpt lat="43.14509167" lon="-7.02842333">
        <ele>890.0</ele>
        <time>2022-06-19T09:44:40.305Z</time>
      </trkpt>
      <trkpt lat="43.14509167" lon="-7.02842333">
        <ele>890.0</ele>
        <time>2022-06-19T09:44:41.317Z</time>
      </trkpt>
      <trkpt lat="43.14497833" lon="-7.02847667">
        <ele>890.0</ele>
        <time>2022-06-19T09:44:42.340Z</time>
      </trkpt>
      <trkpt lat="43.14492" lon="-7.02849833">
        <ele>890.0</ele>
        <time>2022-06-19T09:44:43.332Z</time>
      </trkpt>
      <trkpt lat="43.14492" lon="-7.02849833">
        <ele>890.0</ele>
        <time>2022-06-19T09:44:44.313Z</time>
      </trkpt>
      <trkpt lat="43.14481167" lon="-7.02854833">
        <ele>890.0</ele>
        <time>2022-06-19T09:44:45.328Z</time>
      </trkpt>
      <trkpt lat="43.14477167" lon="-7.02856167">
        <ele>889.0</ele>
        <time>2022-06-19T09:44:46.334Z</time>
      </trkpt>
      <trkpt lat="43.14477167" lon="-7.02856167">
        <ele>889.0</ele>
        <time>2022-06-19T09:44:47.341Z</time>
      </trkpt>
      <trkpt lat="43.144685" lon="-7.02857333">
        <ele>888.0</ele>
        <time>2022-06-19T09:44:48.322Z</time>
      </trkpt>
      <trkpt lat="43.144635" lon="-7.028595">
        <ele>888.0</ele>
        <time>2022-06-19T09:44:49.315Z</time>
      </trkpt>
      <trkpt lat="43.144635" lon="-7.028595">
        <ele>888.0</ele>
        <time>2022-06-19T09:44:50.326Z</time>
      </trkpt>
      <trkpt lat="43.14455" lon="-7.02866333">
        <ele>888.0</ele>
        <time>2022-06-19T09:44:51.310Z</time>
      </trkpt>
      <trkpt lat="43.144515" lon="-7.028705">
        <ele>888.0</ele>
        <time>2022-06-19T09:44:52.312Z</time>
      </trkpt>
      <trkpt lat="43.14448167" lon="-7.02875167">
        <ele>888.0</ele>
        <time>2022-06-19T09:44:53.324Z</time>
      </trkpt>
      <trkpt lat="43.14448167" lon="-7.02875167">
        <ele>888.0</ele>
        <time>2022-06-19T09:44:54.309Z</time>
      </trkpt>
      <trkpt lat="43.14440167" lon="-7.02884">
        <ele>888.0</ele>
        <time>2022-06-19T09:44:55.329Z</time>
      </trkpt>
      <trkpt lat="43.14440167" lon="-7.02884">
        <ele>888.0</ele>
        <time>2022-06-19T09:44:56.343Z</time>
      </trkpt>
      <trkpt lat="43.14431833" lon="-7.02893667">
        <ele>887.0</ele>
        <time>2022-06-19T09:44:57.305Z</time>
      </trkpt>
      <trkpt lat="43.14427667" lon="-7.028985">
        <ele>887.0</ele>
        <time>2022-06-19T09:44:58.328Z</time>
      </trkpt>
      <trkpt lat="43.14427667" lon="-7.028985">
        <ele>887.0</ele>
        <time>2022-06-19T09:44:59.312Z</time>
      </trkpt>
      <trkpt lat="43.144195" lon="-7.02910333">
        <ele>886.0</ele>
        <time>2022-06-19T09:45:00.335Z</time>
      </trkpt>
      <trkpt lat="43.144195" lon="-7.02910333">
        <ele>886.0</ele>
        <time>2022-06-19T09:45:01.325Z</time>
      </trkpt>
      <trkpt lat="43.144095" lon="-7.029205">
        <ele>886.0</ele>
        <time>2022-06-19T09:45:02.309Z</time>
      </trkpt>
      <trkpt lat="43.144095" lon="-7.029205">
        <ele>886.0</ele>
        <time>2022-06-19T09:45:03.311Z</time>
      </trkpt>
      <trkpt lat="43.14398167" lon="-7.02929333">
        <ele>885.0</ele>
        <time>2022-06-19T09:45:04.327Z</time>
      </trkpt>
      <trkpt lat="43.14392167" lon="-7.02933">
        <ele>885.0</ele>
        <time>2022-06-19T09:45:05.332Z</time>
      </trkpt>
      <trkpt lat="43.14392167" lon="-7.02933">
        <ele>885.0</ele>
        <time>2022-06-19T09:45:06.311Z</time>
      </trkpt>
      <trkpt lat="43.14380833" lon="-7.029385">
        <ele>885.0</ele>
        <time>2022-06-19T09:45:07.323Z</time>
      </trkpt>
      <trkpt lat="43.14380833" lon="-7.029385">
        <ele>885.0</ele>
        <time>2022-06-19T09:45:08.309Z</time>
      </trkpt>
      <trkpt lat="43.143715" lon="-7.02942333">
        <ele>884.0</ele>
        <time>2022-06-19T09:45:09.326Z</time>
      </trkpt>
      <trkpt lat="43.14366333" lon="-7.02945">
        <ele>883.0</ele>
        <time>2022-06-19T09:45:10.322Z</time>
      </trkpt>
      <trkpt lat="43.14366333" lon="-7.02945">
        <ele>883.0</ele>
        <time>2022-06-19T09:45:11.319Z</time>
      </trkpt>
      <trkpt lat="43.14355333" lon="-7.02951">
        <ele>881.0</ele>
        <time>2022-06-19T09:45:12.322Z</time>
      </trkpt>
      <trkpt lat="43.14355333" lon="-7.02951">
        <ele>881.0</ele>
        <time>2022-06-19T09:45:13.328Z</time>
      </trkpt>
      <trkpt lat="43.14344667" lon="-7.02958167">
        <ele>878.0</ele>
        <time>2022-06-19T09:45:14.317Z</time>
      </trkpt>
      <trkpt lat="43.14344667" lon="-7.02958167">
        <ele>878.0</ele>
        <time>2022-06-19T09:45:15.339Z</time>
      </trkpt>
      <trkpt lat="43.14334667" lon="-7.02965667">
        <ele>875.0</ele>
        <time>2022-06-19T09:45:16.320Z</time>
      </trkpt>
      <trkpt lat="43.14334667" lon="-7.02965667">
        <ele>875.0</ele>
        <time>2022-06-19T09:45:17.328Z</time>
      </trkpt>
      <trkpt lat="43.14327167" lon="-7.02972667">
        <ele>873.0</ele>
        <time>2022-06-19T09:45:18.311Z</time>
      </trkpt>
      <trkpt lat="43.14324" lon="-7.02976167">
        <ele>872.0</ele>
        <time>2022-06-19T09:45:19.336Z</time>
      </trkpt>
      <trkpt lat="43.14324" lon="-7.02976167">
        <ele>872.0</ele>
        <time>2022-06-19T09:45:20.309Z</time>
      </trkpt>
      <trkpt lat="43.14317333" lon="-7.029855">
        <ele>871.0</ele>
        <time>2022-06-19T09:45:21.308Z</time>
      </trkpt>
      <trkpt lat="43.14317333" lon="-7.029855">
        <ele>871.0</ele>
        <time>2022-06-19T09:45:22.328Z</time>
      </trkpt>
      <trkpt lat="43.143105" lon="-7.02997667">
        <ele>870.0</ele>
        <time>2022-06-19T09:45:23.345Z</time>
      </trkpt>
      <trkpt lat="43.143105" lon="-7.02997667">
        <ele>870.0</ele>
        <time>2022-06-19T09:45:24.313Z</time>
      </trkpt>
      <trkpt lat="43.14304" lon="-7.03011">
        <ele>869.0</ele>
        <time>2022-06-19T09:45:25.332Z</time>
      </trkpt>
      <trkpt lat="43.14304" lon="-7.03011">
        <ele>869.0</ele>
        <time>2022-06-19T09:45:26.333Z</time>
      </trkpt>
      <trkpt lat="43.14297167" lon="-7.03025">
        <ele>869.0</ele>
        <time>2022-06-19T09:45:27.309Z</time>
      </trkpt>
      <trkpt lat="43.14297167" lon="-7.03025">
        <ele>869.0</ele>
        <time>2022-06-19T09:45:28.324Z</time>
      </trkpt>
      <trkpt lat="43.14292" lon="-7.03037833">
        <ele>868.0</ele>
        <time>2022-06-19T09:45:29.337Z</time>
      </trkpt>
      <trkpt lat="43.14292" lon="-7.03037833">
        <ele>868.0</ele>
        <time>2022-06-19T09:45:30.316Z</time>
      </trkpt>
      <trkpt lat="43.14289667" lon="-7.03052667">
        <ele>868.0</ele>
        <time>2022-06-19T09:45:31.332Z</time>
      </trkpt>
      <trkpt lat="43.14289667" lon="-7.03052667">
        <ele>868.0</ele>
        <time>2022-06-19T09:45:32.338Z</time>
      </trkpt>
      <trkpt lat="43.14289333" lon="-7.03069">
        <ele>868.0</ele>
        <time>2022-06-19T09:45:33.316Z</time>
      </trkpt>
      <trkpt lat="43.14289333" lon="-7.03069">
        <ele>868.0</ele>
        <time>2022-06-19T09:45:34.309Z</time>
      </trkpt>
      <trkpt lat="43.142895" lon="-7.03086167">
        <ele>867.0</ele>
        <time>2022-06-19T09:45:35.326Z</time>
      </trkpt>
      <trkpt lat="43.14289167" lon="-7.03094833">
        <ele>867.0</ele>
        <time>2022-06-19T09:45:36.335Z</time>
      </trkpt>
      <trkpt lat="43.14289167" lon="-7.03094833">
        <ele>867.0</ele>
        <time>2022-06-19T09:45:37.338Z</time>
      </trkpt>
      <trkpt lat="43.14288333" lon="-7.03113333">
        <ele>866.0</ele>
        <time>2022-06-19T09:45:38.322Z</time>
      </trkpt>
      <trkpt lat="43.14288333" lon="-7.03113333">
        <ele>866.0</ele>
        <time>2022-06-19T09:45:39.333Z</time>
      </trkpt>
      <trkpt lat="43.14288167" lon="-7.03133167">
        <ele>865.0</ele>
        <time>2022-06-19T09:45:40.312Z</time>
      </trkpt>
      <trkpt lat="43.14288167" lon="-7.03133167">
        <ele>865.0</ele>
        <time>2022-06-19T09:45:41.331Z</time>
      </trkpt>
      <trkpt lat="43.14288833" lon="-7.03153167">
        <ele>865.0</ele>
        <time>2022-06-19T09:45:42.305Z</time>
      </trkpt>
      <trkpt lat="43.14289667" lon="-7.03163167">
        <ele>865.0</ele>
        <time>2022-06-19T09:45:43.353Z</time>
      </trkpt>
      <trkpt lat="43.14289667" lon="-7.03163167">
        <ele>865.0</ele>
        <time>2022-06-19T09:45:44.320Z</time>
      </trkpt>
      <trkpt lat="43.142915" lon="-7.03180167">
        <ele>865.0</ele>
        <time>2022-06-19T09:45:45.335Z</time>
      </trkpt>
      <trkpt lat="43.142915" lon="-7.03180167">
        <ele>865.0</ele>
        <time>2022-06-19T09:45:46.307Z</time>
      </trkpt>
      <trkpt lat="43.14294" lon="-7.031945">
        <ele>865.0</ele>
        <time>2022-06-19T09:45:47.335Z</time>
      </trkpt>
      <trkpt lat="43.14294" lon="-7.031945">
        <ele>865.0</ele>
        <time>2022-06-19T09:45:48.309Z</time>
      </trkpt>
      <trkpt lat="43.142975" lon="-7.03206833">
        <ele>865.0</ele>
        <time>2022-06-19T09:45:49.322Z</time>
      </trkpt>
      <trkpt lat="43.14299333" lon="-7.03212167">
        <ele>865.0</ele>
        <time>2022-06-19T09:45:50.312Z</time>
      </trkpt>
      <trkpt lat="43.14299333" lon="-7.03212167">
        <ele>865.0</ele>
        <time>2022-06-19T09:45:51.306Z</time>
      </trkpt>
      <trkpt lat="43.14301833" lon="-7.03221167">
        <ele>865.0</ele>
        <time>2022-06-19T09:45:52.319Z</time>
      </trkpt>
      <trkpt lat="43.14301167" lon="-7.03225167">
        <ele>865.0</ele>
        <time>2022-06-19T09:45:53.348Z</time>
      </trkpt>
      <trkpt lat="43.14299667" lon="-7.03228333">
        <ele>866.0</ele>
        <time>2022-06-19T09:45:54.306Z</time>
      </trkpt>
      <trkpt lat="43.14297333" lon="-7.032305">
        <ele>866.0</ele>
        <time>2022-06-19T09:45:55.320Z</time>
      </trkpt>
      <trkpt lat="43.14297333" lon="-7.032305">
        <ele>866.0</ele>
        <time>2022-06-19T09:45:56.333Z</time>
      </trkpt>
      <trkpt lat="43.142925" lon="-7.03230333">
        <ele>866.0</ele>
        <time>2022-06-19T09:45:57.318Z</time>
      </trkpt>
      <trkpt lat="43.1429" lon="-7.032295">
        <ele>866.0</ele>
        <time>2022-06-19T09:45:58.312Z</time>
      </trkpt>
      <trkpt lat="43.1429" lon="-7.032295">
        <ele>866.0</ele>
        <time>2022-06-19T09:45:59.323Z</time>
      </trkpt>
      <trkpt lat="43.142855" lon="-7.032295">
        <ele>866.0</ele>
        <time>2022-06-19T09:46:00.338Z</time>
      </trkpt>
      <trkpt lat="43.14283333" lon="-7.03230667">
        <ele>866.0</ele>
        <time>2022-06-19T09:46:01.341Z</time>
      </trkpt>
      <trkpt lat="43.14283333" lon="-7.03230667">
        <ele>866.0</ele>
        <time>2022-06-19T09:46:02.311Z</time>
      </trkpt>
      <trkpt lat="43.14281167" lon="-7.03237833">
        <ele>866.0</ele>
        <time>2022-06-19T09:46:03.327Z</time>
      </trkpt>
      <trkpt lat="43.14281167" lon="-7.03237833">
        <ele>866.0</ele>
        <time>2022-06-19T09:46:04.314Z</time>
      </trkpt>
      <trkpt lat="43.142815" lon="-7.03246667">
        <ele>866.0</ele>
        <time>2022-06-19T09:46:05.336Z</time>
      </trkpt>
      <trkpt lat="43.142815" lon="-7.03246667">
        <ele>866.0</ele>
        <time>2022-06-19T09:46:06.326Z</time>
      </trkpt>
      <trkpt lat="43.14281833" lon="-7.03256167">
        <ele>866.0</ele>
        <time>2022-06-19T09:46:07.308Z</time>
      </trkpt>
      <trkpt lat="43.14281833" lon="-7.03256167">
        <ele>866.0</ele>
        <time>2022-06-19T09:46:08.328Z</time>
      </trkpt>
      <trkpt lat="43.142825" lon="-7.03266167">
        <ele>866.0</ele>
        <time>2022-06-19T09:46:09.306Z</time>
      </trkpt>
      <trkpt lat="43.14282333" lon="-7.03271667">
        <ele>866.0</ele>
        <time>2022-06-19T09:46:10.316Z</time>
      </trkpt>
      <trkpt lat="43.14282333" lon="-7.03271667">
        <ele>866.0</ele>
        <time>2022-06-19T09:46:11.315Z</time>
      </trkpt>
      <trkpt lat="43.142825" lon="-7.03282667">
        <ele>866.0</ele>
        <time>2022-06-19T09:46:12.340Z</time>
      </trkpt>
      <trkpt lat="43.14282667" lon="-7.03288667">
        <ele>866.0</ele>
        <time>2022-06-19T09:46:13.331Z</time>
      </trkpt>
      <trkpt lat="43.14282667" lon="-7.03288667">
        <ele>866.0</ele>
        <time>2022-06-19T09:46:14.314Z</time>
      </trkpt>
      <trkpt lat="43.14282833" lon="-7.03301">
        <ele>867.0</ele>
        <time>2022-06-19T09:46:15.329Z</time>
      </trkpt>
      <trkpt lat="43.14282667" lon="-7.033075">
        <ele>867.0</ele>
        <time>2022-06-19T09:46:16.333Z</time>
      </trkpt>
      <trkpt lat="43.14282667" lon="-7.033075">
        <ele>867.0</ele>
        <time>2022-06-19T09:46:17.314Z</time>
      </trkpt>
      <trkpt lat="43.14282333" lon="-7.03320667">
        <ele>867.0</ele>
        <time>2022-06-19T09:46:18.335Z</time>
      </trkpt>
      <trkpt lat="43.14282333" lon="-7.03327167">
        <ele>867.0</ele>
        <time>2022-06-19T09:46:19.308Z</time>
      </trkpt>
      <trkpt lat="43.14282333" lon="-7.03327167">
        <ele>867.0</ele>
        <time>2022-06-19T09:46:20.340Z</time>
      </trkpt>
      <trkpt lat="43.14281833" lon="-7.03340667">
        <ele>867.0</ele>
        <time>2022-06-19T09:46:21.315Z</time>
      </trkpt>
      <trkpt lat="43.14281833" lon="-7.03340667">
        <ele>867.0</ele>
        <time>2022-06-19T09:46:22.328Z</time>
      </trkpt>
      <trkpt lat="43.142815" lon="-7.03354167">
        <ele>867.0</ele>
        <time>2022-06-19T09:46:23.313Z</time>
      </trkpt>
      <trkpt lat="43.142815" lon="-7.03354167">
        <ele>867.0</ele>
        <time>2022-06-19T09:46:24.323Z</time>
      </trkpt>
      <trkpt lat="43.14281833" lon="-7.03367167">
        <ele>867.0</ele>
        <time>2022-06-19T09:46:25.307Z</time>
      </trkpt>
      <trkpt lat="43.14281833" lon="-7.03367167">
        <ele>867.0</ele>
        <time>2022-06-19T09:46:26.333Z</time>
      </trkpt>
      <trkpt lat="43.14282667" lon="-7.03379833">
        <ele>867.0</ele>
        <time>2022-06-19T09:46:27.311Z</time>
      </trkpt>
      <trkpt lat="43.14282667" lon="-7.03379833">
        <ele>867.0</ele>
        <time>2022-06-19T09:46:28.331Z</time>
      </trkpt>
      <trkpt lat="43.14283167" lon="-7.03392167">
        <ele>867.0</ele>
        <time>2022-06-19T09:46:29.313Z</time>
      </trkpt>
      <trkpt lat="43.14283167" lon="-7.03392167">
        <ele>867.0</ele>
        <time>2022-06-19T09:46:30.309Z</time>
      </trkpt>
      <trkpt lat="43.14283333" lon="-7.034045">
        <ele>867.0</ele>
        <time>2022-06-19T09:46:31.327Z</time>
      </trkpt>
      <trkpt lat="43.142845" lon="-7.03411">
        <ele>867.0</ele>
        <time>2022-06-19T09:46:32.314Z</time>
      </trkpt>
      <trkpt lat="43.142845" lon="-7.03411">
        <ele>867.0</ele>
        <time>2022-06-19T09:46:33.328Z</time>
      </trkpt>
      <trkpt lat="43.14287333" lon="-7.03423">
        <ele>867.0</ele>
        <time>2022-06-19T09:46:34.310Z</time>
      </trkpt>
      <trkpt lat="43.14288333" lon="-7.03427833">
        <ele>867.0</ele>
        <time>2022-06-19T09:46:35.309Z</time>
      </trkpt>
      <trkpt lat="43.14288333" lon="-7.03427833">
        <ele>867.0</ele>
        <time>2022-06-19T09:46:36.328Z</time>
      </trkpt>
      <trkpt lat="43.14288833" lon="-7.03433833">
        <ele>867.0</ele>
        <time>2022-06-19T09:46:37.344Z</time>
      </trkpt>
      <trkpt lat="43.14288833" lon="-7.03433833">
        <ele>867.0</ele>
        <time>2022-06-19T09:46:38.316Z</time>
      </trkpt>
      <trkpt lat="43.14286667" lon="-7.03433167">
        <ele>867.0</ele>
        <time>2022-06-19T09:46:39.312Z</time>
      </trkpt>
      <trkpt lat="43.14286667" lon="-7.03433167">
        <ele>867.0</ele>
        <time>2022-06-19T09:46:40.328Z</time>
      </trkpt>
      <trkpt lat="43.14284333" lon="-7.03428667">
        <ele>867.0</ele>
        <time>2022-06-19T09:46:41.307Z</time>
      </trkpt>
      <trkpt lat="43.142825" lon="-7.03426167">
        <ele>866.0</ele>
        <time>2022-06-19T09:46:42.315Z</time>
      </trkpt>
      <trkpt lat="43.1428" lon="-7.03424833">
        <ele>866.0</ele>
        <time>2022-06-19T09:46:43.315Z</time>
      </trkpt>
      <trkpt lat="43.1428" lon="-7.03424833">
        <ele>866.0</ele>
        <time>2022-06-19T09:46:44.316Z</time>
      </trkpt>
      <trkpt lat="43.14274833" lon="-7.03426833">
        <ele>866.0</ele>
        <time>2022-06-19T09:46:45.322Z</time>
      </trkpt>
      <trkpt lat="43.14274833" lon="-7.03426833">
        <ele>866.0</ele>
        <time>2022-06-19T09:46:46.328Z</time>
      </trkpt>
      <trkpt lat="43.14269333" lon="-7.03426833">
        <ele>866.0</ele>
        <time>2022-06-19T09:46:47.323Z</time>
      </trkpt>
      <trkpt lat="43.14266333" lon="-7.03425333">
        <ele>866.0</ele>
        <time>2022-06-19T09:46:48.336Z</time>
      </trkpt>
      <trkpt lat="43.142635" lon="-7.03423833">
        <ele>866.0</ele>
        <time>2022-06-19T09:46:49.344Z</time>
      </trkpt>
      <trkpt lat="43.142635" lon="-7.03423833">
        <ele>866.0</ele>
        <time>2022-06-19T09:46:50.305Z</time>
      </trkpt>
      <trkpt lat="43.14257833" lon="-7.034225">
        <ele>866.0</ele>
        <time>2022-06-19T09:46:51.326Z</time>
      </trkpt>
      <trkpt lat="43.14257833" lon="-7.034225">
        <ele>866.0</ele>
        <time>2022-06-19T09:46:52.315Z</time>
      </trkpt>
      <trkpt lat="43.14256" lon="-7.03429">
        <ele>867.0</ele>
        <time>2022-06-19T09:46:53.327Z</time>
      </trkpt>
      <trkpt lat="43.14256" lon="-7.03429">
        <ele>867.0</ele>
        <time>2022-06-19T09:46:54.344Z</time>
      </trkpt>
      <trkpt lat="43.14256167" lon="-7.03437">
        <ele>868.0</ele>
        <time>2022-06-19T09:46:55.321Z</time>
      </trkpt>
      <trkpt lat="43.14256167" lon="-7.03437">
        <ele>868.0</ele>
        <time>2022-06-19T09:46:56.313Z</time>
      </trkpt>
      <trkpt lat="43.14255667" lon="-7.03444167">
        <ele>869.0</ele>
        <time>2022-06-19T09:46:57.335Z</time>
      </trkpt>
      <trkpt lat="43.14254667" lon="-7.03447167">
        <ele>869.0</ele>
        <time>2022-06-19T09:46:58.339Z</time>
      </trkpt>
      <trkpt lat="43.14253333" lon="-7.034495">
        <ele>869.0</ele>
        <time>2022-06-19T09:46:59.352Z</time>
      </trkpt>
      <trkpt lat="43.14253333" lon="-7.034495">
        <ele>869.0</ele>
        <time>2022-06-19T09:47:00.327Z</time>
      </trkpt>
      <trkpt lat="43.1425" lon="-7.03454">
        <ele>870.0</ele>
        <time>2022-06-19T09:47:01.315Z</time>
      </trkpt>
      <trkpt lat="43.1425" lon="-7.03454">
        <ele>870.0</ele>
        <time>2022-06-19T09:47:02.342Z</time>
      </trkpt>
      <trkpt lat="43.142475" lon="-7.03459167">
        <ele>870.0</ele>
        <time>2022-06-19T09:47:03.319Z</time>
      </trkpt>
      <trkpt lat="43.142465" lon="-7.03462">
        <ele>871.0</ele>
        <time>2022-06-19T09:47:04.343Z</time>
      </trkpt>
      <trkpt lat="43.142465" lon="-7.03462">
        <ele>871.0</ele>
        <time>2022-06-19T09:47:05.338Z</time>
      </trkpt>
      <trkpt lat="43.142435" lon="-7.03467833">
        <ele>871.0</ele>
        <time>2022-06-19T09:47:06.321Z</time>
      </trkpt>
      <trkpt lat="43.14241667" lon="-7.03470667">
        <ele>871.0</ele>
        <time>2022-06-19T09:47:07.310Z</time>
      </trkpt>
      <trkpt lat="43.14241667" lon="-7.03470667">
        <ele>871.0</ele>
        <time>2022-06-19T09:47:08.329Z</time>
      </trkpt>
      <trkpt lat="43.14238167" lon="-7.03475833">
        <ele>871.0</ele>
        <time>2022-06-19T09:47:09.315Z</time>
      </trkpt>
      <trkpt lat="43.142365" lon="-7.03477833">
        <ele>871.0</ele>
        <time>2022-06-19T09:47:10.325Z</time>
      </trkpt>
      <trkpt lat="43.14235" lon="-7.03479333">
        <ele>871.0</ele>
        <time>2022-06-19T09:47:11.323Z</time>
      </trkpt>
      <trkpt lat="43.14235" lon="-7.03479333">
        <ele>871.0</ele>
        <time>2022-06-19T09:47:12.330Z</time>
      </trkpt>
      <trkpt lat="43.14231" lon="-7.03481667">
        <ele>871.0</ele>
        <time>2022-06-19T09:47:13.307Z</time>
      </trkpt>
      <trkpt lat="43.14231" lon="-7.03481667">
        <ele>871.0</ele>
        <time>2022-06-19T09:47:14.330Z</time>
      </trkpt>
      <trkpt lat="43.14227833" lon="-7.03483667">
        <ele>872.0</ele>
        <time>2022-06-19T09:47:15.346Z</time>
      </trkpt>
      <trkpt lat="43.14226333" lon="-7.03484833">
        <ele>872.0</ele>
        <time>2022-06-19T09:47:16.337Z</time>
      </trkpt>
      <trkpt lat="43.14226333" lon="-7.03484833">
        <ele>872.0</ele>
        <time>2022-06-19T09:47:17.318Z</time>
      </trkpt>
      <trkpt lat="43.14223333" lon="-7.03486667">
        <ele>873.0</ele>
        <time>2022-06-19T09:47:18.335Z</time>
      </trkpt>
      <trkpt lat="43.14222" lon="-7.03488167">
        <ele>873.0</ele>
        <time>2022-06-19T09:47:19.323Z</time>
      </trkpt>
      <trkpt lat="43.14222" lon="-7.03488167">
        <ele>873.0</ele>
        <time>2022-06-19T09:47:20.328Z</time>
      </trkpt>
      <trkpt lat="43.142195" lon="-7.03490333">
        <ele>873.0</ele>
        <time>2022-06-19T09:47:21.345Z</time>
      </trkpt>
      <trkpt lat="43.14218333" lon="-7.034915">
        <ele>873.0</ele>
        <time>2022-06-19T09:47:22.332Z</time>
      </trkpt>
      <trkpt lat="43.14218333" lon="-7.034915">
        <ele>873.0</ele>
        <time>2022-06-19T09:47:23.317Z</time>
      </trkpt>
      <trkpt lat="43.142165" lon="-7.03493667">
        <ele>873.0</ele>
        <time>2022-06-19T09:47:24.340Z</time>
      </trkpt>
      <trkpt lat="43.14215167" lon="-7.034955">
        <ele>873.0</ele>
        <time>2022-06-19T09:47:25.326Z</time>
      </trkpt>
      <trkpt lat="43.14215167" lon="-7.034955">
        <ele>873.0</ele>
        <time>2022-06-19T09:47:26.314Z</time>
      </trkpt>
      <trkpt lat="43.14211833" lon="-7.03498167">
        <ele>873.0</ele>
        <time>2022-06-19T09:47:27.340Z</time>
      </trkpt>
      <trkpt lat="43.1421" lon="-7.034995">
        <ele>874.0</ele>
        <time>2022-06-19T09:47:28.324Z</time>
      </trkpt>
      <trkpt lat="43.1421" lon="-7.034995">
        <ele>874.0</ele>
        <time>2022-06-19T09:47:29.306Z</time>
      </trkpt>
      <trkpt lat="43.14206833" lon="-7.03503167">
        <ele>874.0</ele>
        <time>2022-06-19T09:47:30.332Z</time>
      </trkpt>
      <trkpt lat="43.14205167" lon="-7.03504333">
        <ele>874.0</ele>
        <time>2022-06-19T09:47:31.329Z</time>
      </trkpt>
      <trkpt lat="43.14205167" lon="-7.03504333">
        <ele>874.0</ele>
        <time>2022-06-19T09:47:32.307Z</time>
      </trkpt>
      <trkpt lat="43.14201667" lon="-7.03506333">
        <ele>874.0</ele>
        <time>2022-06-19T09:47:33.332Z</time>
      </trkpt>
      <trkpt lat="43.14201667" lon="-7.03506333">
        <ele>874.0</ele>
        <time>2022-06-19T09:47:34.337Z</time>
      </trkpt>
      <trkpt lat="43.141985" lon="-7.03508333">
        <ele>875.0</ele>
        <time>2022-06-19T09:47:35.320Z</time>
      </trkpt>
      <trkpt lat="43.141985" lon="-7.03508333">
        <ele>875.0</ele>
        <time>2022-06-19T09:47:36.339Z</time>
      </trkpt>
      <trkpt lat="43.14195333" lon="-7.0351">
        <ele>875.0</ele>
        <time>2022-06-19T09:47:37.316Z</time>
      </trkpt>
      <trkpt lat="43.14195333" lon="-7.0351">
        <ele>875.0</ele>
        <time>2022-06-19T09:47:38.318Z</time>
      </trkpt>
      <trkpt lat="43.14192833" lon="-7.03510833">
        <ele>875.0</ele>
        <time>2022-06-19T09:47:39.345Z</time>
      </trkpt>
      <trkpt lat="43.14192833" lon="-7.03510833">
        <ele>875.0</ele>
        <time>2022-06-19T09:47:40.334Z</time>
      </trkpt>
      <trkpt lat="43.14190667" lon="-7.03512167">
        <ele>875.0</ele>
        <time>2022-06-19T09:47:41.311Z</time>
      </trkpt>
      <trkpt lat="43.14190667" lon="-7.03512167">
        <ele>875.0</ele>
        <time>2022-06-19T09:47:42.305Z</time>
      </trkpt>
      <trkpt lat="43.14188333" lon="-7.03513667">
        <ele>876.0</ele>
        <time>2022-06-19T09:47:43.336Z</time>
      </trkpt>
      <trkpt lat="43.14188333" lon="-7.03513667">
        <ele>876.0</ele>
        <time>2022-06-19T09:47:44.325Z</time>
      </trkpt>
      <trkpt lat="43.14185833" lon="-7.03515167">
        <ele>876.0</ele>
        <time>2022-06-19T09:47:45.344Z</time>
      </trkpt>
      <trkpt lat="43.14184333" lon="-7.03515833">
        <ele>876.0</ele>
        <time>2022-06-19T09:47:46.326Z</time>
      </trkpt>
      <trkpt lat="43.14184333" lon="-7.03515833">
        <ele>876.0</ele>
        <time>2022-06-19T09:47:47.337Z</time>
      </trkpt>
      <trkpt lat="43.141815" lon="-7.03517167">
        <ele>877.0</ele>
        <time>2022-06-19T09:47:48.330Z</time>
      </trkpt>
      <trkpt lat="43.14180167" lon="-7.03518">
        <ele>877.0</ele>
        <time>2022-06-19T09:47:49.331Z</time>
      </trkpt>
      <trkpt lat="43.14180167" lon="-7.03518">
        <ele>877.0</ele>
        <time>2022-06-19T09:47:50.319Z</time>
      </trkpt>
      <trkpt lat="43.14177167" lon="-7.03520167">
        <ele>877.0</ele>
        <time>2022-06-19T09:47:51.336Z</time>
      </trkpt>
      <trkpt lat="43.14175667" lon="-7.03521">
        <ele>877.0</ele>
        <time>2022-06-19T09:47:52.338Z</time>
      </trkpt>
      <trkpt lat="43.14175667" lon="-7.03521">
        <ele>877.0</ele>
        <time>2022-06-19T09:47:53.320Z</time>
      </trkpt>
      <trkpt lat="43.14173" lon="-7.03523">
        <ele>878.0</ele>
        <time>2022-06-19T09:47:54.312Z</time>
      </trkpt>
      <trkpt lat="43.14173" lon="-7.03523">
        <ele>878.0</ele>
        <time>2022-06-19T09:47:55.338Z</time>
      </trkpt>
      <trkpt lat="43.14169833" lon="-7.035255">
        <ele>878.0</ele>
        <time>2022-06-19T09:47:56.312Z</time>
      </trkpt>
      <trkpt lat="43.14169833" lon="-7.035255">
        <ele>878.0</ele>
        <time>2022-06-19T09:47:57.322Z</time>
      </trkpt>
      <trkpt lat="43.14166" lon="-7.035265">
        <ele>878.0</ele>
        <time>2022-06-19T09:47:58.342Z</time>
      </trkpt>
      <trkpt lat="43.141645" lon="-7.03527167">
        <ele>878.0</ele>
        <time>2022-06-19T09:47:59.341Z</time>
      </trkpt>
      <trkpt lat="43.14163167" lon="-7.03527833">
        <ele>879.0</ele>
        <time>2022-06-19T09:48:00.332Z</time>
      </trkpt>
      <trkpt lat="43.14163167" lon="-7.03527833">
        <ele>879.0</ele>
        <time>2022-06-19T09:48:01.336Z</time>
      </trkpt>
      <trkpt lat="43.14161333" lon="-7.03529833">
        <ele>879.0</ele>
        <time>2022-06-19T09:48:02.309Z</time>
      </trkpt>
      <trkpt lat="43.14160167" lon="-7.03530667">
        <ele>879.0</ele>
        <time>2022-06-19T09:48:03.313Z</time>
      </trkpt>
      <trkpt lat="43.14160167" lon="-7.03530667">
        <ele>879.0</ele>
        <time>2022-06-19T09:48:04.337Z</time>
      </trkpt>
      <trkpt lat="43.14158" lon="-7.03532667">
        <ele>880.0</ele>
        <time>2022-06-19T09:48:05.310Z</time>
      </trkpt>
      <trkpt lat="43.14158" lon="-7.03532667">
        <ele>880.0</ele>
        <time>2022-06-19T09:48:06.324Z</time>
      </trkpt>
      <trkpt lat="43.14155833" lon="-7.035335">
        <ele>881.0</ele>
        <time>2022-06-19T09:48:07.306Z</time>
      </trkpt>
      <trkpt lat="43.14155833" lon="-7.035335">
        <ele>881.0</ele>
        <time>2022-06-19T09:48:08.306Z</time>
      </trkpt>
      <trkpt lat="43.14153667" lon="-7.035345">
        <ele>881.0</ele>
        <time>2022-06-19T09:48:09.325Z</time>
      </trkpt>
      <trkpt lat="43.14153667" lon="-7.035345">
        <ele>881.0</ele>
        <time>2022-06-19T09:48:10.331Z</time>
      </trkpt>
      <trkpt lat="43.14152" lon="-7.03535833">
        <ele>882.0</ele>
        <time>2022-06-19T09:48:11.315Z</time>
      </trkpt>
      <trkpt lat="43.14150667" lon="-7.03536667">
        <ele>882.0</ele>
        <time>2022-06-19T09:48:12.334Z</time>
      </trkpt>
      <trkpt lat="43.14150667" lon="-7.03536667">
        <ele>882.0</ele>
        <time>2022-06-19T09:48:13.326Z</time>
      </trkpt>
      <trkpt lat="43.14147833" lon="-7.03538667">
        <ele>883.0</ele>
        <time>2022-06-19T09:48:14.338Z</time>
      </trkpt>
      <trkpt lat="43.14147833" lon="-7.03538667">
        <ele>883.0</ele>
        <time>2022-06-19T09:48:15.334Z</time>
      </trkpt>
      <trkpt lat="43.14145833" lon="-7.0354">
        <ele>884.0</ele>
        <time>2022-06-19T09:48:16.313Z</time>
      </trkpt>
      <trkpt lat="43.14145833" lon="-7.0354">
        <ele>884.0</ele>
        <time>2022-06-19T09:48:17.318Z</time>
      </trkpt>
      <trkpt lat="43.14143333" lon="-7.03542">
        <ele>885.0</ele>
        <time>2022-06-19T09:48:18.333Z</time>
      </trkpt>
      <trkpt lat="43.14141833" lon="-7.03542667">
        <ele>885.0</ele>
        <time>2022-06-19T09:48:19.326Z</time>
      </trkpt>
      <trkpt lat="43.14141833" lon="-7.03542667">
        <ele>885.0</ele>
        <time>2022-06-19T09:48:20.319Z</time>
      </trkpt>
      <trkpt lat="43.141395" lon="-7.035445">
        <ele>886.0</ele>
        <time>2022-06-19T09:48:21.342Z</time>
      </trkpt>
      <trkpt lat="43.141395" lon="-7.035445">
        <ele>886.0</ele>
        <time>2022-06-19T09:48:22.307Z</time>
      </trkpt>
      <trkpt lat="43.14136833" lon="-7.03546333">
        <ele>887.0</ele>
        <time>2022-06-19T09:48:23.325Z</time>
      </trkpt>
      <trkpt lat="43.14136833" lon="-7.03546333">
        <ele>887.0</ele>
        <time>2022-06-19T09:48:24.335Z</time>
      </trkpt>
      <trkpt lat="43.14135167" lon="-7.03548333">
        <ele>888.0</ele>
        <time>2022-06-19T09:48:25.313Z</time>
      </trkpt>
      <trkpt lat="43.14135167" lon="-7.03548333">
        <ele>888.0</ele>
        <time>2022-06-19T09:48:26.316Z</time>
      </trkpt>
      <trkpt lat="43.14133833" lon="-7.03550833">
        <ele>888.0</ele>
        <time>2022-06-19T09:48:27.332Z</time>
      </trkpt>
      <trkpt lat="43.14133833" lon="-7.03550833">
        <ele>888.0</ele>
        <time>2022-06-19T09:48:28.339Z</time>
      </trkpt>
      <trkpt lat="43.14131667" lon="-7.03553">
        <ele>889.0</ele>
        <time>2022-06-19T09:48:29.325Z</time>
      </trkpt>
      <trkpt lat="43.14131667" lon="-7.03553">
        <ele>889.0</ele>
        <time>2022-06-19T09:48:30.337Z</time>
      </trkpt>
      <trkpt lat="43.14129" lon="-7.03555167">
        <ele>890.0</ele>
        <time>2022-06-19T09:48:31.324Z</time>
      </trkpt>
      <trkpt lat="43.14129" lon="-7.03555167">
        <ele>890.0</ele>
        <time>2022-06-19T09:48:32.323Z</time>
      </trkpt>
      <trkpt lat="43.14126333" lon="-7.03557167">
        <ele>891.0</ele>
        <time>2022-06-19T09:48:33.337Z</time>
      </trkpt>
      <trkpt lat="43.14125333" lon="-7.03558">
        <ele>891.0</ele>
        <time>2022-06-19T09:48:34.334Z</time>
      </trkpt>
      <trkpt lat="43.14125333" lon="-7.03558">
        <ele>891.0</ele>
        <time>2022-06-19T09:48:35.316Z</time>
      </trkpt>
      <trkpt lat="43.141225" lon="-7.03560333">
        <ele>891.0</ele>
        <time>2022-06-19T09:48:36.335Z</time>
      </trkpt>
      <trkpt lat="43.14121" lon="-7.03561167">
        <ele>892.0</ele>
        <time>2022-06-19T09:48:37.306Z</time>
      </trkpt>
      <trkpt lat="43.14121" lon="-7.03561167">
        <ele>892.0</ele>
        <time>2022-06-19T09:48:38.340Z</time>
      </trkpt>
      <trkpt lat="43.14118333" lon="-7.03562833">
        <ele>892.0</ele>
        <time>2022-06-19T09:48:39.315Z</time>
      </trkpt>
      <trkpt lat="43.14118333" lon="-7.03562833">
        <ele>892.0</ele>
        <time>2022-06-19T09:48:40.311Z</time>
      </trkpt>
      <trkpt lat="43.141165" lon="-7.03564667">
        <ele>893.0</ele>
        <time>2022-06-19T09:48:41.333Z</time>
      </trkpt>
      <trkpt lat="43.141165" lon="-7.03564667">
        <ele>893.0</ele>
        <time>2022-06-19T09:48:42.318Z</time>
      </trkpt>
      <trkpt lat="43.14114667" lon="-7.035665">
        <ele>893.0</ele>
        <time>2022-06-19T09:48:43.335Z</time>
      </trkpt>
      <trkpt lat="43.14114667" lon="-7.035665">
        <ele>893.0</ele>
        <time>2022-06-19T09:48:44.342Z</time>
      </trkpt>
      <trkpt lat="43.14112333" lon="-7.03568333">
        <ele>894.0</ele>
        <time>2022-06-19T09:48:45.316Z</time>
      </trkpt>
      <trkpt lat="43.14112333" lon="-7.03568333">
        <ele>894.0</ele>
        <time>2022-06-19T09:48:46.334Z</time>
      </trkpt>
      <trkpt lat="43.14110333" lon="-7.035695">
        <ele>894.0</ele>
        <time>2022-06-19T09:48:47.324Z</time>
      </trkpt>
      <trkpt lat="43.14108833" lon="-7.03570667">
        <ele>894.0</ele>
        <time>2022-06-19T09:48:48.331Z</time>
      </trkpt>
      <trkpt lat="43.14108833" lon="-7.03570667">
        <ele>894.0</ele>
        <time>2022-06-19T09:48:49.309Z</time>
      </trkpt>
      <trkpt lat="43.14105833" lon="-7.03572833">
        <ele>894.0</ele>
        <time>2022-06-19T09:48:50.332Z</time>
      </trkpt>
      <trkpt lat="43.14105833" lon="-7.03572833">
        <ele>894.0</ele>
        <time>2022-06-19T09:48:51.322Z</time>
      </trkpt>
      <trkpt lat="43.14103333" lon="-7.03574833">
        <ele>895.0</ele>
        <time>2022-06-19T09:48:52.344Z</time>
      </trkpt>
      <trkpt lat="43.14102" lon="-7.03575833">
        <ele>895.0</ele>
        <time>2022-06-19T09:48:53.326Z</time>
      </trkpt>
      <trkpt lat="43.14102" lon="-7.03575833">
        <ele>895.0</ele>
        <time>2022-06-19T09:48:54.333Z</time>
      </trkpt>
      <trkpt lat="43.14099333" lon="-7.03578">
        <ele>895.0</ele>
        <time>2022-06-19T09:48:55.323Z</time>
      </trkpt>
      <trkpt lat="43.14099333" lon="-7.03578">
        <ele>895.0</ele>
        <time>2022-06-19T09:48:56.338Z</time>
      </trkpt>
      <trkpt lat="43.14094167" lon="-7.03582">
        <ele>895.0</ele>
        <time>2022-06-19T09:48:57.310Z</time>
      </trkpt>
      <trkpt lat="43.140915" lon="-7.03584667">
        <ele>895.0</ele>
        <time>2022-06-19T09:48:58.309Z</time>
      </trkpt>
      <trkpt lat="43.140905" lon="-7.03586167">
        <ele>895.0</ele>
        <time>2022-06-19T09:48:59.307Z</time>
      </trkpt>
      <trkpt lat="43.14087833" lon="-7.03588">
        <ele>895.0</ele>
        <time>2022-06-19T09:49:00.307Z</time>
      </trkpt>
      <trkpt lat="43.14087833" lon="-7.03588">
        <ele>895.0</ele>
        <time>2022-06-19T09:49:01.329Z</time>
      </trkpt>
      <trkpt lat="43.14083667" lon="-7.035915">
        <ele>896.0</ele>
        <time>2022-06-19T09:49:02.312Z</time>
      </trkpt>
      <trkpt lat="43.14083667" lon="-7.035915">
        <ele>896.0</ele>
        <time>2022-06-19T09:49:03.338Z</time>
      </trkpt>
      <trkpt lat="43.14079167" lon="-7.03595667">
        <ele>895.0</ele>
        <time>2022-06-19T09:49:04.316Z</time>
      </trkpt>
      <trkpt lat="43.14079167" lon="-7.03595667">
        <ele>895.0</ele>
        <time>2022-06-19T09:49:05.338Z</time>
      </trkpt>
      <trkpt lat="43.14075667" lon="-7.03599667">
        <ele>896.0</ele>
        <time>2022-06-19T09:49:06.310Z</time>
      </trkpt>
      <trkpt lat="43.14074167" lon="-7.03601667">
        <ele>896.0</ele>
        <time>2022-06-19T09:49:07.329Z</time>
      </trkpt>
      <trkpt lat="43.14074167" lon="-7.03601667">
        <ele>896.0</ele>
        <time>2022-06-19T09:49:08.315Z</time>
      </trkpt>
      <trkpt lat="43.14071667" lon="-7.036055">
        <ele>896.0</ele>
        <time>2022-06-19T09:49:09.314Z</time>
      </trkpt>
      <trkpt lat="43.14071667" lon="-7.036055">
        <ele>896.0</ele>
        <time>2022-06-19T09:49:10.317Z</time>
      </trkpt>
      <trkpt lat="43.14069" lon="-7.03609667">
        <ele>896.0</ele>
        <time>2022-06-19T09:49:11.306Z</time>
      </trkpt>
      <trkpt lat="43.14069" lon="-7.03609667">
        <ele>896.0</ele>
        <time>2022-06-19T09:49:12.339Z</time>
      </trkpt>
      <trkpt lat="43.140665" lon="-7.03614333">
        <ele>896.0</ele>
        <time>2022-06-19T09:49:13.343Z</time>
      </trkpt>
      <trkpt lat="43.140665" lon="-7.03614333">
        <ele>896.0</ele>
        <time>2022-06-19T09:49:14.328Z</time>
      </trkpt>
      <trkpt lat="43.14064333" lon="-7.03618667">
        <ele>896.0</ele>
        <time>2022-06-19T09:49:15.341Z</time>
      </trkpt>
      <trkpt lat="43.14064333" lon="-7.03618667">
        <ele>896.0</ele>
        <time>2022-06-19T09:49:16.324Z</time>
      </trkpt>
      <trkpt lat="43.14061333" lon="-7.03622833">
        <ele>897.0</ele>
        <time>2022-06-19T09:49:17.321Z</time>
      </trkpt>
      <trkpt lat="43.14061333" lon="-7.03622833">
        <ele>897.0</ele>
        <time>2022-06-19T09:49:18.314Z</time>
      </trkpt>
      <trkpt lat="43.14058833" lon="-7.036255">
        <ele>897.0</ele>
        <time>2022-06-19T09:49:19.306Z</time>
      </trkpt>
      <trkpt lat="43.14057333" lon="-7.036265">
        <ele>897.0</ele>
        <time>2022-06-19T09:49:20.337Z</time>
      </trkpt>
      <trkpt lat="43.14057333" lon="-7.036265">
        <ele>897.0</ele>
        <time>2022-06-19T09:49:21.315Z</time>
      </trkpt>
      <trkpt lat="43.14053167" lon="-7.03628333">
        <ele>898.0</ele>
        <time>2022-06-19T09:49:22.316Z</time>
      </trkpt>
      <trkpt lat="43.14051167" lon="-7.03629">
        <ele>898.0</ele>
        <time>2022-06-19T09:49:23.311Z</time>
      </trkpt>
      <trkpt lat="43.14051167" lon="-7.03629">
        <ele>898.0</ele>
        <time>2022-06-19T09:49:24.343Z</time>
      </trkpt>
      <trkpt lat="43.14047167" lon="-7.0363">
        <ele>899.0</ele>
        <time>2022-06-19T09:49:25.317Z</time>
      </trkpt>
      <trkpt lat="43.14047167" lon="-7.0363">
        <ele>899.0</ele>
        <time>2022-06-19T09:49:26.318Z</time>
      </trkpt>
      <trkpt lat="43.14042833" lon="-7.03630333">
        <ele>900.0</ele>
        <time>2022-06-19T09:49:27.332Z</time>
      </trkpt>
      <trkpt lat="43.14042833" lon="-7.03630333">
        <ele>900.0</ele>
        <time>2022-06-19T09:49:28.334Z</time>
      </trkpt>
      <trkpt lat="43.14039167" lon="-7.03629833">
        <ele>899.0</ele>
        <time>2022-06-19T09:49:29.319Z</time>
      </trkpt>
      <trkpt lat="43.14036833" lon="-7.03629833">
        <ele>900.0</ele>
        <time>2022-06-19T09:49:30.336Z</time>
      </trkpt>
      <trkpt lat="43.14034833" lon="-7.03630833">
        <ele>900.0</ele>
        <time>2022-06-19T09:49:31.326Z</time>
      </trkpt>
      <trkpt lat="43.14034833" lon="-7.03630833">
        <ele>900.0</ele>
        <time>2022-06-19T09:49:32.334Z</time>
      </trkpt>
      <trkpt lat="43.14031" lon="-7.036335">
        <ele>900.0</ele>
        <time>2022-06-19T09:49:33.306Z</time>
      </trkpt>
      <trkpt lat="43.14029167" lon="-7.03634833">
        <ele>900.0</ele>
        <time>2022-06-19T09:49:34.327Z</time>
      </trkpt>
      <trkpt lat="43.14029167" lon="-7.03634833">
        <ele>900.0</ele>
        <time>2022-06-19T09:49:35.343Z</time>
      </trkpt>
      <trkpt lat="43.14025333" lon="-7.03637">
        <ele>901.0</ele>
        <time>2022-06-19T09:49:36.323Z</time>
      </trkpt>
      <trkpt lat="43.14023" lon="-7.036385">
        <ele>901.0</ele>
        <time>2022-06-19T09:49:37.316Z</time>
      </trkpt>
      <trkpt lat="43.14023" lon="-7.036385">
        <ele>901.0</ele>
        <time>2022-06-19T09:49:38.315Z</time>
      </trkpt>
      <trkpt lat="43.14019667" lon="-7.03640833">
        <ele>901.0</ele>
        <time>2022-06-19T09:49:39.340Z</time>
      </trkpt>
      <trkpt lat="43.14019667" lon="-7.03640833">
        <ele>901.0</ele>
        <time>2022-06-19T09:49:40.337Z</time>
      </trkpt>
      <trkpt lat="43.140165" lon="-7.03642333">
        <ele>902.0</ele>
        <time>2022-06-19T09:49:41.311Z</time>
      </trkpt>
      <trkpt lat="43.14015" lon="-7.03643">
        <ele>902.0</ele>
        <time>2022-06-19T09:49:42.322Z</time>
      </trkpt>
      <trkpt lat="43.14013167" lon="-7.03643667">
        <ele>902.0</ele>
        <time>2022-06-19T09:49:43.320Z</time>
      </trkpt>
      <trkpt lat="43.14013167" lon="-7.03643667">
        <ele>902.0</ele>
        <time>2022-06-19T09:49:44.331Z</time>
      </trkpt>
      <trkpt lat="43.14009833" lon="-7.036455">
        <ele>903.0</ele>
        <time>2022-06-19T09:49:45.309Z</time>
      </trkpt>
      <trkpt lat="43.14009833" lon="-7.036455">
        <ele>903.0</ele>
        <time>2022-06-19T09:49:46.317Z</time>
      </trkpt>
      <trkpt lat="43.14006333" lon="-7.03646833">
        <ele>904.0</ele>
        <time>2022-06-19T09:49:47.331Z</time>
      </trkpt>
      <trkpt lat="43.14006333" lon="-7.03646833">
        <ele>904.0</ele>
        <time>2022-06-19T09:49:48.330Z</time>
      </trkpt>
      <trkpt lat="43.14002833" lon="-7.03648333">
        <ele>905.0</ele>
        <time>2022-06-19T09:49:49.314Z</time>
      </trkpt>
      <trkpt lat="43.14002833" lon="-7.03648333">
        <ele>905.0</ele>
        <time>2022-06-19T09:49:50.345Z</time>
      </trkpt>
      <trkpt lat="43.13999667" lon="-7.03650167">
        <ele>906.0</ele>
        <time>2022-06-19T09:49:51.329Z</time>
      </trkpt>
      <trkpt lat="43.13999667" lon="-7.03650167">
        <ele>906.0</ele>
        <time>2022-06-19T09:49:52.318Z</time>
      </trkpt>
      <trkpt lat="43.13996333" lon="-7.036525">
        <ele>906.0</ele>
        <time>2022-06-19T09:49:53.332Z</time>
      </trkpt>
      <trkpt lat="43.13996333" lon="-7.036525">
        <ele>906.0</ele>
        <time>2022-06-19T09:49:54.309Z</time>
      </trkpt>
      <trkpt lat="43.139925" lon="-7.03655167">
        <ele>907.0</ele>
        <time>2022-06-19T09:49:55.326Z</time>
      </trkpt>
      <trkpt lat="43.139925" lon="-7.03655167">
        <ele>907.0</ele>
        <time>2022-06-19T09:49:56.339Z</time>
      </trkpt>
      <trkpt lat="43.13987833" lon="-7.03657833">
        <ele>907.0</ele>
        <time>2022-06-19T09:49:57.351Z</time>
      </trkpt>
      <trkpt lat="43.13987833" lon="-7.03657833">
        <ele>907.0</ele>
        <time>2022-06-19T09:49:58.315Z</time>
      </trkpt>
      <trkpt lat="43.13983" lon="-7.03661">
        <ele>907.0</ele>
        <time>2022-06-19T09:49:59.306Z</time>
      </trkpt>
      <trkpt lat="43.13981333" lon="-7.03663">
        <ele>908.0</ele>
        <time>2022-06-19T09:50:00.356Z</time>
      </trkpt>
      <trkpt lat="43.13978167" lon="-7.03665167">
        <ele>908.0</ele>
        <time>2022-06-19T09:50:01.327Z</time>
      </trkpt>
      <trkpt lat="43.13978167" lon="-7.03665167">
        <ele>908.0</ele>
        <time>2022-06-19T09:50:02.344Z</time>
      </trkpt>
      <trkpt lat="43.13973167" lon="-7.036695">
        <ele>908.0</ele>
        <time>2022-06-19T09:50:03.305Z</time>
      </trkpt>
      <trkpt lat="43.13973167" lon="-7.036695">
        <ele>908.0</ele>
        <time>2022-06-19T09:50:04.330Z</time>
      </trkpt>
      <trkpt lat="43.13968" lon="-7.03674">
        <ele>908.0</ele>
        <time>2022-06-19T09:50:05.311Z</time>
      </trkpt>
      <trkpt lat="43.13968" lon="-7.03674">
        <ele>908.0</ele>
        <time>2022-06-19T09:50:06.319Z</time>
      </trkpt>
      <trkpt lat="43.13963333" lon="-7.03677667">
        <ele>908.0</ele>
        <time>2022-06-19T09:50:07.305Z</time>
      </trkpt>
      <trkpt lat="43.13963333" lon="-7.03677667">
        <ele>908.0</ele>
        <time>2022-06-19T09:50:08.307Z</time>
      </trkpt>
      <trkpt lat="43.13958" lon="-7.03681333">
        <ele>908.0</ele>
        <time>2022-06-19T09:50:09.344Z</time>
      </trkpt>
      <trkpt lat="43.13958" lon="-7.03681333">
        <ele>908.0</ele>
        <time>2022-06-19T09:50:10.343Z</time>
      </trkpt>
      <trkpt lat="43.13953833" lon="-7.03684833">
        <ele>908.0</ele>
        <time>2022-06-19T09:50:11.322Z</time>
      </trkpt>
      <trkpt lat="43.13951667" lon="-7.03686333">
        <ele>908.0</ele>
        <time>2022-06-19T09:50:12.321Z</time>
      </trkpt>
      <trkpt lat="43.13949333" lon="-7.03688167">
        <ele>908.0</ele>
        <time>2022-06-19T09:50:13.331Z</time>
      </trkpt>
      <trkpt lat="43.13949333" lon="-7.03688167">
        <ele>908.0</ele>
        <time>2022-06-19T09:50:14.322Z</time>
      </trkpt>
      <trkpt lat="43.13945" lon="-7.03691333">
        <ele>908.0</ele>
        <time>2022-06-19T09:50:15.336Z</time>
      </trkpt>
      <trkpt lat="43.13945" lon="-7.03691333">
        <ele>908.0</ele>
        <time>2022-06-19T09:50:16.317Z</time>
      </trkpt>
      <trkpt lat="43.13940833" lon="-7.03697167">
        <ele>907.0</ele>
        <time>2022-06-19T09:50:17.325Z</time>
      </trkpt>
      <trkpt lat="43.13940833" lon="-7.03697167">
        <ele>907.0</ele>
        <time>2022-06-19T09:50:18.305Z</time>
      </trkpt>
      <trkpt lat="43.13935167" lon="-7.03703167">
        <ele>907.0</ele>
        <time>2022-06-19T09:50:19.336Z</time>
      </trkpt>
      <trkpt lat="43.13935167" lon="-7.03703167">
        <ele>907.0</ele>
        <time>2022-06-19T09:50:20.328Z</time>
      </trkpt>
      <trkpt lat="43.13929833" lon="-7.03708167">
        <ele>907.0</ele>
        <time>2022-06-19T09:50:21.339Z</time>
      </trkpt>
      <trkpt lat="43.13929833" lon="-7.03708167">
        <ele>907.0</ele>
        <time>2022-06-19T09:50:22.317Z</time>
      </trkpt>
      <trkpt lat="43.13924667" lon="-7.03714">
        <ele>906.0</ele>
        <time>2022-06-19T09:50:23.348Z</time>
      </trkpt>
      <trkpt lat="43.13924667" lon="-7.03714">
        <ele>906.0</ele>
        <time>2022-06-19T09:50:24.337Z</time>
      </trkpt>
      <trkpt lat="43.13918833" lon="-7.0372">
        <ele>906.0</ele>
        <time>2022-06-19T09:50:25.319Z</time>
      </trkpt>
      <trkpt lat="43.13918833" lon="-7.0372">
        <ele>906.0</ele>
        <time>2022-06-19T09:50:26.307Z</time>
      </trkpt>
      <trkpt lat="43.13912667" lon="-7.03726333">
        <ele>905.0</ele>
        <time>2022-06-19T09:50:27.328Z</time>
      </trkpt>
      <trkpt lat="43.13912667" lon="-7.03726333">
        <ele>905.0</ele>
        <time>2022-06-19T09:50:28.305Z</time>
      </trkpt>
      <trkpt lat="43.13905333" lon="-7.03733333">
        <ele>904.0</ele>
        <time>2022-06-19T09:50:29.331Z</time>
      </trkpt>
      <trkpt lat="43.13899667" lon="-7.03738333">
        <ele>904.0</ele>
        <time>2022-06-19T09:50:30.325Z</time>
      </trkpt>
      <trkpt lat="43.13893" lon="-7.03743167">
        <ele>903.0</ele>
        <time>2022-06-19T09:50:31.305Z</time>
      </trkpt>
      <trkpt lat="43.13893" lon="-7.03743167">
        <ele>903.0</ele>
        <time>2022-06-19T09:50:32.320Z</time>
      </trkpt>
      <trkpt lat="43.138855" lon="-7.03752">
        <ele>902.0</ele>
        <time>2022-06-19T09:50:33.343Z</time>
      </trkpt>
      <trkpt lat="43.138855" lon="-7.03752">
        <ele>902.0</ele>
        <time>2022-06-19T09:50:34.332Z</time>
      </trkpt>
      <trkpt lat="43.13873833" lon="-7.03761667">
        <ele>900.0</ele>
        <time>2022-06-19T09:50:35.311Z</time>
      </trkpt>
      <trkpt lat="43.13873833" lon="-7.03761667">
        <ele>900.0</ele>
        <time>2022-06-19T09:50:36.340Z</time>
      </trkpt>
      <trkpt lat="43.13864333" lon="-7.03772333">
        <ele>898.0</ele>
        <time>2022-06-19T09:50:37.316Z</time>
      </trkpt>
      <trkpt lat="43.13864333" lon="-7.03772333">
        <ele>898.0</ele>
        <time>2022-06-19T09:50:38.329Z</time>
      </trkpt>
      <trkpt lat="43.13855" lon="-7.03782833">
        <ele>896.0</ele>
        <time>2022-06-19T09:50:39.345Z</time>
      </trkpt>
      <trkpt lat="43.13850167" lon="-7.037885">
        <ele>895.0</ele>
        <time>2022-06-19T09:50:40.314Z</time>
      </trkpt>
      <trkpt lat="43.13850167" lon="-7.037885">
        <ele>895.0</ele>
        <time>2022-06-19T09:50:41.317Z</time>
      </trkpt>
      <trkpt lat="43.13839167" lon="-7.03799833">
        <ele>894.0</ele>
        <time>2022-06-19T09:50:42.331Z</time>
      </trkpt>
      <trkpt lat="43.13833333" lon="-7.03805667">
        <ele>893.0</ele>
        <time>2022-06-19T09:50:43.322Z</time>
      </trkpt>
      <trkpt lat="43.13833333" lon="-7.03805667">
        <ele>893.0</ele>
        <time>2022-06-19T09:50:44.331Z</time>
      </trkpt>
      <trkpt lat="43.13821833" lon="-7.03816667">
        <ele>892.0</ele>
        <time>2022-06-19T09:50:45.307Z</time>
      </trkpt>
      <trkpt lat="43.13821833" lon="-7.03816667">
        <ele>892.0</ele>
        <time>2022-06-19T09:50:46.328Z</time>
      </trkpt>
      <trkpt lat="43.13811167" lon="-7.03828667">
        <ele>890.0</ele>
        <time>2022-06-19T09:50:47.339Z</time>
      </trkpt>
      <trkpt lat="43.13811167" lon="-7.03828667">
        <ele>890.0</ele>
        <time>2022-06-19T09:50:48.316Z</time>
      </trkpt>
      <trkpt lat="43.13801" lon="-7.038415">
        <ele>890.0</ele>
        <time>2022-06-19T09:50:49.335Z</time>
      </trkpt>
      <trkpt lat="43.13801" lon="-7.038415">
        <ele>890.0</ele>
        <time>2022-06-19T09:50:50.329Z</time>
      </trkpt>
      <trkpt lat="43.13791333" lon="-7.03854833">
        <ele>889.0</ele>
        <time>2022-06-19T09:50:51.312Z</time>
      </trkpt>
      <trkpt lat="43.13791333" lon="-7.03854833">
        <ele>889.0</ele>
        <time>2022-06-19T09:50:52.318Z</time>
      </trkpt>
      <trkpt lat="43.13782333" lon="-7.03868833">
        <ele>888.0</ele>
        <time>2022-06-19T09:50:53.337Z</time>
      </trkpt>
      <trkpt lat="43.13778" lon="-7.03875667">
        <ele>888.0</ele>
        <time>2022-06-19T09:50:54.344Z</time>
      </trkpt>
      <trkpt lat="43.13778" lon="-7.03875667">
        <ele>888.0</ele>
        <time>2022-06-19T09:50:55.314Z</time>
      </trkpt>
      <trkpt lat="43.13768833" lon="-7.03887333">
        <ele>887.0</ele>
        <time>2022-06-19T09:50:56.313Z</time>
      </trkpt>
      <trkpt lat="43.13764167" lon="-7.03892">
        <ele>887.0</ele>
        <time>2022-06-19T09:50:57.327Z</time>
      </trkpt>
      <trkpt lat="43.13764167" lon="-7.03892">
        <ele>887.0</ele>
        <time>2022-06-19T09:50:58.307Z</time>
      </trkpt>
      <trkpt lat="43.13754833" lon="-7.03900833">
        <ele>887.0</ele>
        <time>2022-06-19T09:50:59.330Z</time>
      </trkpt>
      <trkpt lat="43.137505" lon="-7.03905333">
        <ele>887.0</ele>
        <time>2022-06-19T09:51:00.322Z</time>
      </trkpt>
      <trkpt lat="43.137505" lon="-7.03905333">
        <ele>887.0</ele>
        <time>2022-06-19T09:51:01.329Z</time>
      </trkpt>
      <trkpt lat="43.13741667" lon="-7.03914">
        <ele>886.0</ele>
        <time>2022-06-19T09:51:02.346Z</time>
      </trkpt>
      <trkpt lat="43.13741667" lon="-7.03914">
        <ele>886.0</ele>
        <time>2022-06-19T09:51:03.331Z</time>
      </trkpt>
      <trkpt lat="43.137335" lon="-7.03923">
        <ele>886.0</ele>
        <time>2022-06-19T09:51:04.312Z</time>
      </trkpt>
      <trkpt lat="43.137335" lon="-7.03923">
        <ele>886.0</ele>
        <time>2022-06-19T09:51:05.341Z</time>
      </trkpt>
      <trkpt lat="43.137265" lon="-7.039325">
        <ele>886.0</ele>
        <time>2022-06-19T09:51:06.317Z</time>
      </trkpt>
      <trkpt lat="43.13724" lon="-7.03936833">
        <ele>886.0</ele>
        <time>2022-06-19T09:51:07.312Z</time>
      </trkpt>
      <trkpt lat="43.13724" lon="-7.03936833">
        <ele>886.0</ele>
        <time>2022-06-19T09:51:08.319Z</time>
      </trkpt>
      <trkpt lat="43.13720167" lon="-7.03946">
        <ele>885.0</ele>
        <time>2022-06-19T09:51:09.306Z</time>
      </trkpt>
      <trkpt lat="43.13718" lon="-7.03951167">
        <ele>885.0</ele>
        <time>2022-06-19T09:51:10.307Z</time>
      </trkpt>
      <trkpt lat="43.13718" lon="-7.03951167">
        <ele>885.0</ele>
        <time>2022-06-19T09:51:11.309Z</time>
      </trkpt>
      <trkpt lat="43.13713167" lon="-7.03961667">
        <ele>885.0</ele>
        <time>2022-06-19T09:51:12.340Z</time>
      </trkpt>
      <trkpt lat="43.13710333" lon="-7.03966833">
        <ele>884.0</ele>
        <time>2022-06-19T09:51:13.312Z</time>
      </trkpt>
      <trkpt lat="43.13710333" lon="-7.03966833">
        <ele>884.0</ele>
        <time>2022-06-19T09:51:14.330Z</time>
      </trkpt>
      <trkpt lat="43.137055" lon="-7.03977333">
        <ele>884.0</ele>
        <time>2022-06-19T09:51:15.314Z</time>
      </trkpt>
      <trkpt lat="43.137055" lon="-7.03977333">
        <ele>884.0</ele>
        <time>2022-06-19T09:51:16.318Z</time>
      </trkpt>
      <trkpt lat="43.13701333" lon="-7.03989">
        <ele>884.0</ele>
        <time>2022-06-19T09:51:17.344Z</time>
      </trkpt>
      <trkpt lat="43.13701333" lon="-7.03989">
        <ele>884.0</ele>
        <time>2022-06-19T09:51:18.306Z</time>
      </trkpt>
      <trkpt lat="43.13697667" lon="-7.04001333">
        <ele>884.0</ele>
        <time>2022-06-19T09:51:19.326Z</time>
      </trkpt>
      <trkpt lat="43.13697667" lon="-7.04001333">
        <ele>884.0</ele>
        <time>2022-06-19T09:51:20.334Z</time>
      </trkpt>
      <trkpt lat="43.13694667" lon="-7.04014">
        <ele>885.0</ele>
        <time>2022-06-19T09:51:21.311Z</time>
      </trkpt>
      <trkpt lat="43.13694667" lon="-7.04014">
        <ele>885.0</ele>
        <time>2022-06-19T09:51:22.330Z</time>
      </trkpt>
      <trkpt lat="43.13691833" lon="-7.04026833">
        <ele>885.0</ele>
        <time>2022-06-19T09:51:23.339Z</time>
      </trkpt>
      <trkpt lat="43.13691833" lon="-7.04026833">
        <ele>885.0</ele>
        <time>2022-06-19T09:51:24.339Z</time>
      </trkpt>
      <trkpt lat="43.13690333" lon="-7.04039667">
        <ele>886.0</ele>
        <time>2022-06-19T09:51:25.309Z</time>
      </trkpt>
      <trkpt lat="43.1369" lon="-7.04046167">
        <ele>886.0</ele>
        <time>2022-06-19T09:51:26.327Z</time>
      </trkpt>
      <trkpt lat="43.1369" lon="-7.04046167">
        <ele>886.0</ele>
        <time>2022-06-19T09:51:27.339Z</time>
      </trkpt>
      <trkpt lat="43.13690167" lon="-7.04059167">
        <ele>886.0</ele>
        <time>2022-06-19T09:51:28.312Z</time>
      </trkpt>
      <trkpt lat="43.13690167" lon="-7.04059167">
        <ele>886.0</ele>
        <time>2022-06-19T09:51:29.331Z</time>
      </trkpt>
      <trkpt lat="43.136915" lon="-7.04072">
        <ele>887.0</ele>
        <time>2022-06-19T09:51:30.332Z</time>
      </trkpt>
      <trkpt lat="43.13692167" lon="-7.04078167">
        <ele>887.0</ele>
        <time>2022-06-19T09:51:31.308Z</time>
      </trkpt>
      <trkpt lat="43.13692167" lon="-7.04078167">
        <ele>887.0</ele>
        <time>2022-06-19T09:51:32.317Z</time>
      </trkpt>
      <trkpt lat="43.13693167" lon="-7.04089667">
        <ele>887.0</ele>
        <time>2022-06-19T09:51:33.334Z</time>
      </trkpt>
      <trkpt lat="43.13693167" lon="-7.04089667">
        <ele>887.0</ele>
        <time>2022-06-19T09:51:34.337Z</time>
      </trkpt>
      <trkpt lat="43.13693667" lon="-7.041">
        <ele>888.0</ele>
        <time>2022-06-19T09:51:35.311Z</time>
      </trkpt>
      <trkpt lat="43.13693667" lon="-7.041">
        <ele>888.0</ele>
        <time>2022-06-19T09:51:36.327Z</time>
      </trkpt>
      <trkpt lat="43.136935" lon="-7.04108667">
        <ele>888.0</ele>
        <time>2022-06-19T09:51:37.306Z</time>
      </trkpt>
      <trkpt lat="43.136935" lon="-7.04108667">
        <ele>888.0</ele>
        <time>2022-06-19T09:51:38.325Z</time>
      </trkpt>
      <trkpt lat="43.13693" lon="-7.04117167">
        <ele>889.0</ele>
        <time>2022-06-19T09:51:39.336Z</time>
      </trkpt>
      <trkpt lat="43.13693" lon="-7.04117167">
        <ele>889.0</ele>
        <time>2022-06-19T09:51:40.329Z</time>
      </trkpt>
      <trkpt lat="43.13692333" lon="-7.04126">
        <ele>889.0</ele>
        <time>2022-06-19T09:51:41.340Z</time>
      </trkpt>
      <trkpt lat="43.13692" lon="-7.04130333">
        <ele>889.0</ele>
        <time>2022-06-19T09:51:42.332Z</time>
      </trkpt>
      <trkpt lat="43.13691833" lon="-7.04134833">
        <ele>889.0</ele>
        <time>2022-06-19T09:51:43.341Z</time>
      </trkpt>
      <trkpt lat="43.13691833" lon="-7.04134833">
        <ele>889.0</ele>
        <time>2022-06-19T09:51:44.326Z</time>
      </trkpt>
      <trkpt lat="43.13692" lon="-7.041445">
        <ele>889.0</ele>
        <time>2022-06-19T09:51:45.307Z</time>
      </trkpt>
      <trkpt lat="43.13692" lon="-7.04149833">
        <ele>889.0</ele>
        <time>2022-06-19T09:51:46.325Z</time>
      </trkpt>
      <trkpt lat="43.13692" lon="-7.04149833">
        <ele>889.0</ele>
        <time>2022-06-19T09:51:47.342Z</time>
      </trkpt>
      <trkpt lat="43.13691667" lon="-7.04161167">
        <ele>889.0</ele>
        <time>2022-06-19T09:51:48.314Z</time>
      </trkpt>
      <trkpt lat="43.13691333" lon="-7.04167">
        <ele>889.0</ele>
        <time>2022-06-19T09:51:49.309Z</time>
      </trkpt>
      <trkpt lat="43.13691333" lon="-7.04167">
        <ele>889.0</ele>
        <time>2022-06-19T09:51:50.308Z</time>
      </trkpt>
      <trkpt lat="43.13690667" lon="-7.04179333">
        <ele>889.0</ele>
        <time>2022-06-19T09:51:51.328Z</time>
      </trkpt>
      <trkpt lat="43.13690667" lon="-7.04179333">
        <ele>889.0</ele>
        <time>2022-06-19T09:51:52.342Z</time>
      </trkpt>
      <trkpt lat="43.1369" lon="-7.041915">
        <ele>889.0</ele>
        <time>2022-06-19T09:51:53.324Z</time>
      </trkpt>
      <trkpt lat="43.1369" lon="-7.041915">
        <ele>889.0</ele>
        <time>2022-06-19T09:51:54.310Z</time>
      </trkpt>
      <trkpt lat="43.13689167" lon="-7.04204167">
        <ele>888.0</ele>
        <time>2022-06-19T09:51:55.330Z</time>
      </trkpt>
      <trkpt lat="43.13689167" lon="-7.04204167">
        <ele>888.0</ele>
        <time>2022-06-19T09:51:56.343Z</time>
      </trkpt>
      <trkpt lat="43.13688333" lon="-7.04218167">
        <ele>888.0</ele>
        <time>2022-06-19T09:51:57.306Z</time>
      </trkpt>
      <trkpt lat="43.13687833" lon="-7.04225167">
        <ele>888.0</ele>
        <time>2022-06-19T09:51:58.334Z</time>
      </trkpt>
      <trkpt lat="43.13687833" lon="-7.04225167">
        <ele>888.0</ele>
        <time>2022-06-19T09:51:59.319Z</time>
      </trkpt>
      <trkpt lat="43.13687167" lon="-7.042385">
        <ele>888.0</ele>
        <time>2022-06-19T09:52:00.336Z</time>
      </trkpt>
      <trkpt lat="43.13687167" lon="-7.042385">
        <ele>888.0</ele>
        <time>2022-06-19T09:52:01.325Z</time>
      </trkpt>
      <trkpt lat="43.13685833" lon="-7.04250667">
        <ele>888.0</ele>
        <time>2022-06-19T09:52:02.343Z</time>
      </trkpt>
      <trkpt lat="43.13685167" lon="-7.04256667">
        <ele>888.0</ele>
        <time>2022-06-19T09:52:03.317Z</time>
      </trkpt>
      <trkpt lat="43.13684333" lon="-7.042625">
        <ele>888.0</ele>
        <time>2022-06-19T09:52:04.324Z</time>
      </trkpt>
      <trkpt lat="43.13684333" lon="-7.042625">
        <ele>888.0</ele>
        <time>2022-06-19T09:52:05.307Z</time>
      </trkpt>
      <trkpt lat="43.136835" lon="-7.04274167">
        <ele>888.0</ele>
        <time>2022-06-19T09:52:06.324Z</time>
      </trkpt>
      <trkpt lat="43.13683" lon="-7.04280167">
        <ele>888.0</ele>
        <time>2022-06-19T09:52:07.323Z</time>
      </trkpt>
      <trkpt lat="43.13683" lon="-7.04280167">
        <ele>888.0</ele>
        <time>2022-06-19T09:52:08.317Z</time>
      </trkpt>
      <trkpt lat="43.136825" lon="-7.04291667">
        <ele>888.0</ele>
        <time>2022-06-19T09:52:09.338Z</time>
      </trkpt>
      <trkpt lat="43.136825" lon="-7.04291667">
        <ele>888.0</ele>
        <time>2022-06-19T09:52:10.340Z</time>
      </trkpt>
      <trkpt lat="43.13682" lon="-7.04303167">
        <ele>889.0</ele>
        <time>2022-06-19T09:52:11.320Z</time>
      </trkpt>
      <trkpt lat="43.13682" lon="-7.04303167">
        <ele>889.0</ele>
        <time>2022-06-19T09:52:12.309Z</time>
      </trkpt>
      <trkpt lat="43.13681333" lon="-7.04314833">
        <ele>889.0</ele>
        <time>2022-06-19T09:52:13.336Z</time>
      </trkpt>
      <trkpt lat="43.13681333" lon="-7.04314833">
        <ele>889.0</ele>
        <time>2022-06-19T09:52:14.341Z</time>
      </trkpt>
      <trkpt lat="43.13680667" lon="-7.04326667">
        <ele>889.0</ele>
        <time>2022-06-19T09:52:15.316Z</time>
      </trkpt>
      <trkpt lat="43.13680167" lon="-7.043325">
        <ele>889.0</ele>
        <time>2022-06-19T09:52:16.315Z</time>
      </trkpt>
      <trkpt lat="43.13679833" lon="-7.04338333">
        <ele>889.0</ele>
        <time>2022-06-19T09:52:17.330Z</time>
      </trkpt>
      <trkpt lat="43.13679833" lon="-7.04338333">
        <ele>889.0</ele>
        <time>2022-06-19T09:52:18.340Z</time>
      </trkpt>
      <trkpt lat="43.13679333" lon="-7.04349667">
        <ele>889.0</ele>
        <time>2022-06-19T09:52:19.317Z</time>
      </trkpt>
      <trkpt lat="43.13679333" lon="-7.04349667">
        <ele>889.0</ele>
        <time>2022-06-19T09:52:20.316Z</time>
      </trkpt>
      <trkpt lat="43.13679" lon="-7.043605">
        <ele>889.0</ele>
        <time>2022-06-19T09:52:21.332Z</time>
      </trkpt>
      <trkpt lat="43.136785" lon="-7.04365667">
        <ele>889.0</ele>
        <time>2022-06-19T09:52:22.321Z</time>
      </trkpt>
      <trkpt lat="43.136785" lon="-7.04365667">
        <ele>889.0</ele>
        <time>2022-06-19T09:52:23.307Z</time>
      </trkpt>
      <trkpt lat="43.136785" lon="-7.043755">
        <ele>889.0</ele>
        <time>2022-06-19T09:52:24.328Z</time>
      </trkpt>
      <trkpt lat="43.13678833" lon="-7.04380167">
        <ele>889.0</ele>
        <time>2022-06-19T09:52:25.318Z</time>
      </trkpt>
      <trkpt lat="43.13678833" lon="-7.04380167">
        <ele>889.0</ele>
        <time>2022-06-19T09:52:26.336Z</time>
      </trkpt>
      <trkpt lat="43.13679167" lon="-7.04389">
        <ele>890.0</ele>
        <time>2022-06-19T09:52:27.320Z</time>
      </trkpt>
      <trkpt lat="43.136795" lon="-7.04393167">
        <ele>890.0</ele>
        <time>2022-06-19T09:52:28.315Z</time>
      </trkpt>
      <trkpt lat="43.136795" lon="-7.04393167">
        <ele>890.0</ele>
        <time>2022-06-19T09:52:29.318Z</time>
      </trkpt>
      <trkpt lat="43.1368" lon="-7.04401">
        <ele>890.0</ele>
        <time>2022-06-19T09:52:30.339Z</time>
      </trkpt>
      <trkpt lat="43.13680333" lon="-7.04404667">
        <ele>890.0</ele>
        <time>2022-06-19T09:52:31.349Z</time>
      </trkpt>
      <trkpt lat="43.13680333" lon="-7.04404667">
        <ele>890.0</ele>
        <time>2022-06-19T09:52:32.345Z</time>
      </trkpt>
      <trkpt lat="43.13681167" lon="-7.04411333">
        <ele>890.0</ele>
        <time>2022-06-19T09:52:33.321Z</time>
      </trkpt>
      <trkpt lat="43.13681167" lon="-7.04411333">
        <ele>890.0</ele>
        <time>2022-06-19T09:52:34.339Z</time>
      </trkpt>
      <trkpt lat="43.13682" lon="-7.04417">
        <ele>891.0</ele>
        <time>2022-06-19T09:52:35.305Z</time>
      </trkpt>
      <trkpt lat="43.13682" lon="-7.04417">
        <ele>891.0</ele>
        <time>2022-06-19T09:52:36.322Z</time>
      </trkpt>
      <trkpt lat="43.13683" lon="-7.04421167">
        <ele>891.0</ele>
        <time>2022-06-19T09:52:37.338Z</time>
      </trkpt>
      <trkpt lat="43.13683" lon="-7.04421167">
        <ele>891.0</ele>
        <time>2022-06-19T09:52:38.340Z</time>
      </trkpt>
      <trkpt lat="43.13684167" lon="-7.04425333">
        <ele>891.0</ele>
        <time>2022-06-19T09:52:39.323Z</time>
      </trkpt>
      <trkpt lat="43.13684833" lon="-7.04427333">
        <ele>891.0</ele>
        <time>2022-06-19T09:52:40.320Z</time>
      </trkpt>
      <trkpt lat="43.13685167" lon="-7.04429333">
        <ele>892.0</ele>
        <time>2022-06-19T09:52:41.305Z</time>
      </trkpt>
      <trkpt lat="43.13685167" lon="-7.04429333">
        <ele>892.0</ele>
        <time>2022-06-19T09:52:42.325Z</time>
      </trkpt>
      <trkpt lat="43.13685833" lon="-7.04433">
        <ele>892.0</ele>
        <time>2022-06-19T09:52:43.342Z</time>
      </trkpt>
      <trkpt lat="43.13685833" lon="-7.04433">
        <ele>892.0</ele>
        <time>2022-06-19T09:52:44.330Z</time>
      </trkpt>
      <trkpt lat="43.13687" lon="-7.044365">
        <ele>893.0</ele>
        <time>2022-06-19T09:52:45.315Z</time>
      </trkpt>
      <trkpt lat="43.136875" lon="-7.04436333">
        <ele>893.0</ele>
        <time>2022-06-19T09:52:46.332Z</time>
      </trkpt>
      <trkpt lat="43.136875" lon="-7.04436333">
        <ele>893.0</ele>
        <time>2022-06-19T09:52:47.328Z</time>
      </trkpt>
      <trkpt lat="43.13687167" lon="-7.04436167">
        <ele>893.0</ele>
        <time>2022-06-19T09:52:48.307Z</time>
      </trkpt>
      <trkpt lat="43.13687167" lon="-7.04436167">
        <ele>893.0</ele>
        <time>2022-06-19T09:53:04.339Z</time>
      </trkpt>
      <trkpt lat="43.13688167" lon="-7.04442167">
        <ele>894.0</ele>
        <time>2022-06-19T09:53:05.329Z</time>
      </trkpt>
      <trkpt lat="43.13688333" lon="-7.04442833">
        <ele>894.0</ele>
        <time>2022-06-19T09:53:06.332Z</time>
      </trkpt>
      <trkpt lat="43.13688667" lon="-7.04443833">
        <ele>895.0</ele>
        <time>2022-06-19T09:53:07.311Z</time>
      </trkpt>
      <trkpt lat="43.13688667" lon="-7.04443833">
        <ele>895.0</ele>
        <time>2022-06-19T09:53:08.325Z</time>
      </trkpt>
      <trkpt lat="43.13689333" lon="-7.04445667">
        <ele>895.0</ele>
        <time>2022-06-19T09:53:09.310Z</time>
      </trkpt>
      <trkpt lat="43.13689333" lon="-7.04445667">
        <ele>895.0</ele>
        <time>2022-06-19T09:53:10.321Z</time>
      </trkpt>
      <trkpt lat="43.1369" lon="-7.04447833">
        <ele>896.0</ele>
        <time>2022-06-19T09:53:11.344Z</time>
      </trkpt>
      <trkpt lat="43.1369" lon="-7.04447833">
        <ele>896.0</ele>
        <time>2022-06-19T09:53:12.337Z</time>
      </trkpt>
      <trkpt lat="43.136905" lon="-7.0445">
        <ele>896.0</ele>
        <time>2022-06-19T09:53:13.332Z</time>
      </trkpt>
      <trkpt lat="43.136905" lon="-7.0445">
        <ele>896.0</ele>
        <time>2022-06-19T09:53:14.332Z</time>
      </trkpt>
      <trkpt lat="43.13691" lon="-7.04452167">
        <ele>896.0</ele>
        <time>2022-06-19T09:53:15.310Z</time>
      </trkpt>
      <trkpt lat="43.13691" lon="-7.04452167">
        <ele>896.0</ele>
        <time>2022-06-19T09:53:16.323Z</time>
      </trkpt>
      <trkpt lat="43.136915" lon="-7.04453833">
        <ele>897.0</ele>
        <time>2022-06-19T09:53:17.337Z</time>
      </trkpt>
      <trkpt lat="43.136915" lon="-7.04453833">
        <ele>897.0</ele>
        <time>2022-06-19T09:53:18.335Z</time>
      </trkpt>
      <trkpt lat="43.13691833" lon="-7.04455833">
        <ele>897.0</ele>
        <time>2022-06-19T09:53:19.322Z</time>
      </trkpt>
      <trkpt lat="43.13691833" lon="-7.04455833">
        <ele>897.0</ele>
        <time>2022-06-19T09:53:20.324Z</time>
      </trkpt>
      <trkpt lat="43.13692167" lon="-7.04458167">
        <ele>897.0</ele>
        <time>2022-06-19T09:53:21.344Z</time>
      </trkpt>
      <trkpt lat="43.13692167" lon="-7.04458167">
        <ele>897.0</ele>
        <time>2022-06-19T09:53:22.345Z</time>
      </trkpt>
      <trkpt lat="43.13692833" lon="-7.04460333">
        <ele>898.0</ele>
        <time>2022-06-19T09:53:23.342Z</time>
      </trkpt>
      <trkpt lat="43.13692833" lon="-7.04460333">
        <ele>898.0</ele>
        <time>2022-06-19T09:53:24.317Z</time>
      </trkpt>
      <trkpt lat="43.136935" lon="-7.04463167">
        <ele>898.0</ele>
        <time>2022-06-19T09:53:25.336Z</time>
      </trkpt>
      <trkpt lat="43.136935" lon="-7.04463167">
        <ele>898.0</ele>
        <time>2022-06-19T09:53:26.326Z</time>
      </trkpt>
      <trkpt lat="43.13694333" lon="-7.04466333">
        <ele>898.0</ele>
        <time>2022-06-19T09:53:27.314Z</time>
      </trkpt>
      <trkpt lat="43.13694667" lon="-7.04467333">
        <ele>898.0</ele>
        <time>2022-06-19T09:53:28.313Z</time>
      </trkpt>
      <trkpt lat="43.13694667" lon="-7.04467333">
        <ele>898.0</ele>
        <time>2022-06-19T09:53:29.318Z</time>
      </trkpt>
      <trkpt lat="43.13694667" lon="-7.04467833">
        <ele>898.0</ele>
        <time>2022-06-19T09:53:30.330Z</time>
      </trkpt>
      <trkpt lat="43.13694667" lon="-7.04467833">
        <ele>898.0</ele>
        <time>2022-06-19T09:53:38.843Z</time>
      </trkpt>
      <trkpt lat="43.136985" lon="-7.04479333">
        <ele>898.0</ele>
        <time>2022-06-19T09:53:39.824Z</time>
      </trkpt>
      <trkpt lat="43.136985" lon="-7.04479333">
        <ele>898.0</ele>
        <time>2022-06-19T09:53:40.808Z</time>
      </trkpt>
      <trkpt lat="43.137" lon="-7.044875">
        <ele>898.0</ele>
        <time>2022-06-19T09:53:49.329Z</time>
      </trkpt>
      <trkpt lat="43.137" lon="-7.044875">
        <ele>898.0</ele>
        <time>2022-06-19T09:53:50.322Z</time>
      </trkpt>
      <trkpt lat="43.137025" lon="-7.044935">
        <ele>899.0</ele>
        <time>2022-06-19T09:53:51.345Z</time>
      </trkpt>
      <trkpt lat="43.137025" lon="-7.044935">
        <ele>899.0</ele>
        <time>2022-06-19T09:53:52.336Z</time>
      </trkpt>
      <trkpt lat="43.137055" lon="-7.045">
        <ele>899.0</ele>
        <time>2022-06-19T09:53:53.330Z</time>
      </trkpt>
      <trkpt lat="43.137055" lon="-7.045">
        <ele>899.0</ele>
        <time>2022-06-19T09:53:54.335Z</time>
      </trkpt>
      <trkpt lat="43.137085" lon="-7.04507167">
        <ele>899.0</ele>
        <time>2022-06-19T09:53:55.354Z</time>
      </trkpt>
      <trkpt lat="43.137085" lon="-7.04507167">
        <ele>899.0</ele>
        <time>2022-06-19T09:53:56.344Z</time>
      </trkpt>
      <trkpt lat="43.13711667" lon="-7.04514333">
        <ele>899.0</ele>
        <time>2022-06-19T09:53:57.332Z</time>
      </trkpt>
      <trkpt lat="43.137135" lon="-7.04518333">
        <ele>899.0</ele>
        <time>2022-06-19T09:53:58.317Z</time>
      </trkpt>
      <trkpt lat="43.13715333" lon="-7.045225">
        <ele>899.0</ele>
        <time>2022-06-19T09:53:59.356Z</time>
      </trkpt>
      <trkpt lat="43.13715333" lon="-7.045225">
        <ele>899.0</ele>
        <time>2022-06-19T09:54:00.330Z</time>
      </trkpt>
      <trkpt lat="43.13719167" lon="-7.04531167">
        <ele>898.0</ele>
        <time>2022-06-19T09:54:01.345Z</time>
      </trkpt>
      <trkpt lat="43.13719167" lon="-7.04531167">
        <ele>898.0</ele>
        <time>2022-06-19T09:54:02.332Z</time>
      </trkpt>
      <trkpt lat="43.137235" lon="-7.04541167">
        <ele>898.0</ele>
        <time>2022-06-19T09:54:03.333Z</time>
      </trkpt>
      <trkpt lat="43.137235" lon="-7.04541167">
        <ele>898.0</ele>
        <time>2022-06-19T09:54:04.336Z</time>
      </trkpt>
      <trkpt lat="43.13727667" lon="-7.04550667">
        <ele>898.0</ele>
        <time>2022-06-19T09:54:05.319Z</time>
      </trkpt>
      <trkpt lat="43.13727667" lon="-7.04550667">
        <ele>898.0</ele>
        <time>2022-06-19T09:54:06.331Z</time>
      </trkpt>
      <trkpt lat="43.13730667" lon="-7.04559167">
        <ele>899.0</ele>
        <time>2022-06-19T09:54:07.355Z</time>
      </trkpt>
      <trkpt lat="43.13730667" lon="-7.04559167">
        <ele>899.0</ele>
        <time>2022-06-19T09:54:08.338Z</time>
      </trkpt>
      <trkpt lat="43.13732333" lon="-7.04567">
        <ele>899.0</ele>
        <time>2022-06-19T09:54:09.357Z</time>
      </trkpt>
      <trkpt lat="43.13732333" lon="-7.04567">
        <ele>899.0</ele>
        <time>2022-06-19T09:54:10.334Z</time>
      </trkpt>
      <trkpt lat="43.13733333" lon="-7.045745">
        <ele>900.0</ele>
        <time>2022-06-19T09:54:11.351Z</time>
      </trkpt>
      <trkpt lat="43.13734167" lon="-7.04578333">
        <ele>900.0</ele>
        <time>2022-06-19T09:54:12.344Z</time>
      </trkpt>
      <trkpt lat="43.13734167" lon="-7.04578333">
        <ele>900.0</ele>
        <time>2022-06-19T09:54:13.316Z</time>
      </trkpt>
      <trkpt lat="43.137355" lon="-7.04586">
        <ele>900.0</ele>
        <time>2022-06-19T09:54:14.353Z</time>
      </trkpt>
      <trkpt lat="43.137355" lon="-7.04586">
        <ele>900.0</ele>
        <time>2022-06-19T09:54:15.333Z</time>
      </trkpt>
      <trkpt lat="43.13737" lon="-7.04593833">
        <ele>900.0</ele>
        <time>2022-06-19T09:54:16.323Z</time>
      </trkpt>
      <trkpt lat="43.13737" lon="-7.04593833">
        <ele>900.0</ele>
        <time>2022-06-19T09:54:17.323Z</time>
      </trkpt>
      <trkpt lat="43.13738167" lon="-7.04602333">
        <ele>901.0</ele>
        <time>2022-06-19T09:54:18.345Z</time>
      </trkpt>
      <trkpt lat="43.13738667" lon="-7.04607">
        <ele>901.0</ele>
        <time>2022-06-19T09:54:19.356Z</time>
      </trkpt>
      <trkpt lat="43.13738667" lon="-7.04607">
        <ele>901.0</ele>
        <time>2022-06-19T09:54:20.345Z</time>
      </trkpt>
      <trkpt lat="43.13739" lon="-7.04615833">
        <ele>901.0</ele>
        <time>2022-06-19T09:54:21.333Z</time>
      </trkpt>
      <trkpt lat="43.13739" lon="-7.04615833">
        <ele>901.0</ele>
        <time>2022-06-19T09:54:22.334Z</time>
      </trkpt>
      <trkpt lat="43.13739" lon="-7.04623833">
        <ele>902.0</ele>
        <time>2022-06-19T09:54:23.328Z</time>
      </trkpt>
      <trkpt lat="43.13739" lon="-7.04623833">
        <ele>902.0</ele>
        <time>2022-06-19T09:54:24.342Z</time>
      </trkpt>
      <trkpt lat="43.13738333" lon="-7.04630833">
        <ele>903.0</ele>
        <time>2022-06-19T09:54:25.321Z</time>
      </trkpt>
      <trkpt lat="43.13738333" lon="-7.04630833">
        <ele>903.0</ele>
        <time>2022-06-19T09:54:26.322Z</time>
      </trkpt>
      <trkpt lat="43.13737667" lon="-7.04638333">
        <ele>903.0</ele>
        <time>2022-06-19T09:54:27.342Z</time>
      </trkpt>
      <trkpt lat="43.13737667" lon="-7.04638333">
        <ele>903.0</ele>
        <time>2022-06-19T09:54:28.324Z</time>
      </trkpt>
      <trkpt lat="43.13736667" lon="-7.04647333">
        <ele>903.0</ele>
        <time>2022-06-19T09:54:29.345Z</time>
      </trkpt>
      <trkpt lat="43.13736667" lon="-7.04647333">
        <ele>903.0</ele>
        <time>2022-06-19T09:54:30.319Z</time>
      </trkpt>
      <trkpt lat="43.137345" lon="-7.04657333">
        <ele>904.0</ele>
        <time>2022-06-19T09:54:31.344Z</time>
      </trkpt>
      <trkpt lat="43.13733" lon="-7.04662333">
        <ele>904.0</ele>
        <time>2022-06-19T09:54:32.354Z</time>
      </trkpt>
      <trkpt lat="43.137315" lon="-7.04667167">
        <ele>904.0</ele>
        <time>2022-06-19T09:54:33.329Z</time>
      </trkpt>
      <trkpt lat="43.137315" lon="-7.04667167">
        <ele>904.0</ele>
        <time>2022-06-19T09:54:34.320Z</time>
      </trkpt>
      <trkpt lat="43.13728833" lon="-7.04676833">
        <ele>904.0</ele>
        <time>2022-06-19T09:54:35.344Z</time>
      </trkpt>
      <trkpt lat="43.13727" lon="-7.04682167">
        <ele>903.0</ele>
        <time>2022-06-19T09:54:36.345Z</time>
      </trkpt>
      <trkpt lat="43.13725" lon="-7.046875">
        <ele>903.0</ele>
        <time>2022-06-19T09:54:37.318Z</time>
      </trkpt>
      <trkpt lat="43.13725" lon="-7.046875">
        <ele>903.0</ele>
        <time>2022-06-19T09:54:38.325Z</time>
      </trkpt>
      <trkpt lat="43.13719833" lon="-7.04699">
        <ele>902.0</ele>
        <time>2022-06-19T09:54:39.345Z</time>
      </trkpt>
      <trkpt lat="43.13716833" lon="-7.04705">
        <ele>902.0</ele>
        <time>2022-06-19T09:54:40.332Z</time>
      </trkpt>
      <trkpt lat="43.13716833" lon="-7.04705">
        <ele>902.0</ele>
        <time>2022-06-19T09:54:41.340Z</time>
      </trkpt>
      <trkpt lat="43.137095" lon="-7.04716667">
        <ele>901.0</ele>
        <time>2022-06-19T09:54:42.361Z</time>
      </trkpt>
      <trkpt lat="43.13705667" lon="-7.04722">
        <ele>900.0</ele>
        <time>2022-06-19T09:54:43.356Z</time>
      </trkpt>
      <trkpt lat="43.13705667" lon="-7.04722">
        <ele>900.0</ele>
        <time>2022-06-19T09:54:44.327Z</time>
      </trkpt>
      <trkpt lat="43.13695833" lon="-7.04731167">
        <ele>899.0</ele>
        <time>2022-06-19T09:54:45.342Z</time>
      </trkpt>
      <trkpt lat="43.13690667" lon="-7.04735333">
        <ele>898.0</ele>
        <time>2022-06-19T09:54:46.347Z</time>
      </trkpt>
      <trkpt lat="43.13690667" lon="-7.04735333">
        <ele>898.0</ele>
        <time>2022-06-19T09:54:47.333Z</time>
      </trkpt>
      <trkpt lat="43.13679167" lon="-7.04742667">
        <ele>897.0</ele>
        <time>2022-06-19T09:54:48.349Z</time>
      </trkpt>
      <trkpt lat="43.13673" lon="-7.04746333">
        <ele>896.0</ele>
        <time>2022-06-19T09:54:49.335Z</time>
      </trkpt>
      <trkpt lat="43.13673" lon="-7.04746333">
        <ele>896.0</ele>
        <time>2022-06-19T09:54:50.353Z</time>
      </trkpt>
      <trkpt lat="43.136605" lon="-7.04753667">
        <ele>895.0</ele>
        <time>2022-06-19T09:54:51.327Z</time>
      </trkpt>
      <trkpt lat="43.136605" lon="-7.04753667">
        <ele>895.0</ele>
        <time>2022-06-19T09:54:52.321Z</time>
      </trkpt>
      <trkpt lat="43.13648" lon="-7.0476">
        <ele>894.0</ele>
        <time>2022-06-19T09:54:53.335Z</time>
      </trkpt>
      <trkpt lat="43.13648" lon="-7.0476">
        <ele>894.0</ele>
        <time>2022-06-19T09:54:54.317Z</time>
      </trkpt>
      <trkpt lat="43.13635333" lon="-7.04764667">
        <ele>893.0</ele>
        <time>2022-06-19T09:54:55.339Z</time>
      </trkpt>
      <trkpt lat="43.13635333" lon="-7.04764667">
        <ele>893.0</ele>
        <time>2022-06-19T09:54:56.320Z</time>
      </trkpt>
      <trkpt lat="43.13623333" lon="-7.04766667">
        <ele>893.0</ele>
        <time>2022-06-19T09:54:57.333Z</time>
      </trkpt>
      <trkpt lat="43.13623333" lon="-7.04766667">
        <ele>893.0</ele>
        <time>2022-06-19T09:54:58.316Z</time>
      </trkpt>
      <trkpt lat="43.13612333" lon="-7.04768333">
        <ele>892.0</ele>
        <time>2022-06-19T09:54:59.329Z</time>
      </trkpt>
      <trkpt lat="43.136065" lon="-7.04768833">
        <ele>892.0</ele>
        <time>2022-06-19T09:55:00.353Z</time>
      </trkpt>
      <trkpt lat="43.13601" lon="-7.04769167">
        <ele>892.0</ele>
        <time>2022-06-19T09:55:01.326Z</time>
      </trkpt>
      <trkpt lat="43.13601" lon="-7.04769167">
        <ele>892.0</ele>
        <time>2022-06-19T09:55:02.328Z</time>
      </trkpt>
      <trkpt lat="43.13590333" lon="-7.04770667">
        <ele>892.0</ele>
        <time>2022-06-19T09:55:03.346Z</time>
      </trkpt>
      <trkpt lat="43.13590333" lon="-7.04770667">
        <ele>892.0</ele>
        <time>2022-06-19T09:55:04.342Z</time>
      </trkpt>
      <trkpt lat="43.13579167" lon="-7.04773833">
        <ele>891.0</ele>
        <time>2022-06-19T09:55:05.321Z</time>
      </trkpt>
      <trkpt lat="43.13579167" lon="-7.04773833">
        <ele>891.0</ele>
        <time>2022-06-19T09:55:06.355Z</time>
      </trkpt>
      <trkpt lat="43.13568833" lon="-7.04776833">
        <ele>891.0</ele>
        <time>2022-06-19T09:55:07.348Z</time>
      </trkpt>
      <trkpt lat="43.13568833" lon="-7.04776833">
        <ele>891.0</ele>
        <time>2022-06-19T09:55:08.315Z</time>
      </trkpt>
      <trkpt lat="43.13557833" lon="-7.04782167">
        <ele>891.0</ele>
        <time>2022-06-19T09:55:09.349Z</time>
      </trkpt>
      <trkpt lat="43.13557833" lon="-7.04782167">
        <ele>891.0</ele>
        <time>2022-06-19T09:55:10.336Z</time>
      </trkpt>
      <trkpt lat="43.135465" lon="-7.0479">
        <ele>891.0</ele>
        <time>2022-06-19T09:55:11.355Z</time>
      </trkpt>
      <trkpt lat="43.13540167" lon="-7.047955">
        <ele>890.0</ele>
        <time>2022-06-19T09:55:12.323Z</time>
      </trkpt>
      <trkpt lat="43.13534167" lon="-7.048015">
        <ele>890.0</ele>
        <time>2022-06-19T09:55:13.329Z</time>
      </trkpt>
      <trkpt lat="43.13534167" lon="-7.048015">
        <ele>890.0</ele>
        <time>2022-06-19T09:55:14.345Z</time>
      </trkpt>
      <trkpt lat="43.13521667" lon="-7.048145">
        <ele>890.0</ele>
        <time>2022-06-19T09:55:15.347Z</time>
      </trkpt>
      <trkpt lat="43.135155" lon="-7.048215">
        <ele>889.0</ele>
        <time>2022-06-19T09:55:16.333Z</time>
      </trkpt>
      <trkpt lat="43.13507833" lon="-7.04828333">
        <ele>889.0</ele>
        <time>2022-06-19T09:55:17.340Z</time>
      </trkpt>
      <trkpt lat="43.13507833" lon="-7.04828333">
        <ele>889.0</ele>
        <time>2022-06-19T09:55:18.328Z</time>
      </trkpt>
      <trkpt lat="43.13494" lon="-7.04843333">
        <ele>888.0</ele>
        <time>2022-06-19T09:55:19.343Z</time>
      </trkpt>
      <trkpt lat="43.13494" lon="-7.04843333">
        <ele>888.0</ele>
        <time>2022-06-19T09:55:20.320Z</time>
      </trkpt>
      <trkpt lat="43.13485833" lon="-7.04863667">
        <ele>887.0</ele>
        <time>2022-06-19T09:55:21.343Z</time>
      </trkpt>
      <trkpt lat="43.13482833" lon="-7.04874">
        <ele>886.0</ele>
        <time>2022-06-19T09:55:22.356Z</time>
      </trkpt>
      <trkpt lat="43.13482833" lon="-7.04874">
        <ele>886.0</ele>
        <time>2022-06-19T09:55:23.346Z</time>
      </trkpt>
      <trkpt lat="43.13479667" lon="-7.04888167">
        <ele>886.0</ele>
        <time>2022-06-19T09:55:24.324Z</time>
      </trkpt>
      <trkpt lat="43.13478333" lon="-7.048945">
        <ele>885.0</ele>
        <time>2022-06-19T09:55:25.336Z</time>
      </trkpt>
      <trkpt lat="43.13478333" lon="-7.048945">
        <ele>885.0</ele>
        <time>2022-06-19T09:55:26.330Z</time>
      </trkpt>
      <trkpt lat="43.134745" lon="-7.04909167">
        <ele>885.0</ele>
        <time>2022-06-19T09:55:27.347Z</time>
      </trkpt>
      <trkpt lat="43.134745" lon="-7.04909167">
        <ele>885.0</ele>
        <time>2022-06-19T09:55:28.329Z</time>
      </trkpt>
      <trkpt lat="43.13471" lon="-7.04925167">
        <ele>884.0</ele>
        <time>2022-06-19T09:55:29.317Z</time>
      </trkpt>
      <trkpt lat="43.13471" lon="-7.04925167">
        <ele>884.0</ele>
        <time>2022-06-19T09:55:30.342Z</time>
      </trkpt>
      <trkpt lat="43.13469167" lon="-7.04941333">
        <ele>884.0</ele>
        <time>2022-06-19T09:55:31.322Z</time>
      </trkpt>
      <trkpt lat="43.13469167" lon="-7.04941333">
        <ele>884.0</ele>
        <time>2022-06-19T09:55:32.315Z</time>
      </trkpt>
      <trkpt lat="43.13471667" lon="-7.04955667">
        <ele>883.0</ele>
        <time>2022-06-19T09:55:33.328Z</time>
      </trkpt>
      <trkpt lat="43.13473667" lon="-7.04961667">
        <ele>883.0</ele>
        <time>2022-06-19T09:55:34.354Z</time>
      </trkpt>
      <trkpt lat="43.13473667" lon="-7.04961667">
        <ele>883.0</ele>
        <time>2022-06-19T09:55:35.338Z</time>
      </trkpt>
      <trkpt lat="43.13479" lon="-7.049725">
        <ele>883.0</ele>
        <time>2022-06-19T09:55:36.328Z</time>
      </trkpt>
      <trkpt lat="43.13481833" lon="-7.04978167">
        <ele>883.0</ele>
        <time>2022-06-19T09:55:37.336Z</time>
      </trkpt>
      <trkpt lat="43.13481833" lon="-7.04978167">
        <ele>883.0</ele>
        <time>2022-06-19T09:55:38.319Z</time>
      </trkpt>
      <trkpt lat="43.13488667" lon="-7.04990333">
        <ele>882.0</ele>
        <time>2022-06-19T09:55:39.337Z</time>
      </trkpt>
      <trkpt lat="43.13491333" lon="-7.04997333">
        <ele>882.0</ele>
        <time>2022-06-19T09:55:40.341Z</time>
      </trkpt>
      <trkpt lat="43.134935" lon="-7.05005167">
        <ele>881.0</ele>
        <time>2022-06-19T09:55:41.343Z</time>
      </trkpt>
      <trkpt lat="43.134935" lon="-7.05005167">
        <ele>881.0</ele>
        <time>2022-06-19T09:55:42.337Z</time>
      </trkpt>
      <trkpt lat="43.13498333" lon="-7.05020833">
        <ele>881.0</ele>
        <time>2022-06-19T09:55:43.325Z</time>
      </trkpt>
      <trkpt lat="43.13501333" lon="-7.050285">
        <ele>881.0</ele>
        <time>2022-06-19T09:55:44.353Z</time>
      </trkpt>
      <trkpt lat="43.13501333" lon="-7.050285">
        <ele>881.0</ele>
        <time>2022-06-19T09:55:45.339Z</time>
      </trkpt>
      <trkpt lat="43.13508333" lon="-7.05043167">
        <ele>880.0</ele>
        <time>2022-06-19T09:55:46.316Z</time>
      </trkpt>
      <trkpt lat="43.135125" lon="-7.05050167">
        <ele>880.0</ele>
        <time>2022-06-19T09:55:47.340Z</time>
      </trkpt>
      <trkpt lat="43.135125" lon="-7.05050167">
        <ele>880.0</ele>
        <time>2022-06-19T09:55:48.323Z</time>
      </trkpt>
      <trkpt lat="43.135215" lon="-7.05063167">
        <ele>879.0</ele>
        <time>2022-06-19T09:55:49.340Z</time>
      </trkpt>
      <trkpt lat="43.135215" lon="-7.05063167">
        <ele>879.0</ele>
        <time>2022-06-19T09:55:50.321Z</time>
      </trkpt>
      <trkpt lat="43.13532667" lon="-7.05073833">
        <ele>879.0</ele>
        <time>2022-06-19T09:55:51.332Z</time>
      </trkpt>
      <trkpt lat="43.13532667" lon="-7.05073833">
        <ele>879.0</ele>
        <time>2022-06-19T09:55:52.339Z</time>
      </trkpt>
      <trkpt lat="43.13544833" lon="-7.05083333">
        <ele>879.0</ele>
        <time>2022-06-19T09:55:53.363Z</time>
      </trkpt>
      <trkpt lat="43.13544833" lon="-7.05083333">
        <ele>879.0</ele>
        <time>2022-06-19T09:55:54.325Z</time>
      </trkpt>
      <trkpt lat="43.135575" lon="-7.05092333">
        <ele>879.0</ele>
        <time>2022-06-19T09:55:55.331Z</time>
      </trkpt>
      <trkpt lat="43.135575" lon="-7.05092333">
        <ele>879.0</ele>
        <time>2022-06-19T09:55:56.329Z</time>
      </trkpt>
      <trkpt lat="43.13569833" lon="-7.05100667">
        <ele>878.0</ele>
        <time>2022-06-19T09:55:57.348Z</time>
      </trkpt>
      <trkpt lat="43.13574333" lon="-7.05105833">
        <ele>878.0</ele>
        <time>2022-06-19T09:55:58.351Z</time>
      </trkpt>
      <trkpt lat="43.13574333" lon="-7.05105833">
        <ele>878.0</ele>
        <time>2022-06-19T09:55:59.345Z</time>
      </trkpt>
      <trkpt lat="43.13581667" lon="-7.05117">
        <ele>878.0</ele>
        <time>2022-06-19T09:56:00.331Z</time>
      </trkpt>
      <trkpt lat="43.13585833" lon="-7.05121667">
        <ele>878.0</ele>
        <time>2022-06-19T09:56:01.343Z</time>
      </trkpt>
      <trkpt lat="43.13585833" lon="-7.05121667">
        <ele>878.0</ele>
        <time>2022-06-19T09:56:02.345Z</time>
      </trkpt>
      <trkpt lat="43.13595167" lon="-7.051285">
        <ele>878.0</ele>
        <time>2022-06-19T09:56:03.333Z</time>
      </trkpt>
      <trkpt lat="43.13600333" lon="-7.05131833">
        <ele>878.0</ele>
        <time>2022-06-19T09:56:04.329Z</time>
      </trkpt>
      <trkpt lat="43.13600333" lon="-7.05131833">
        <ele>878.0</ele>
        <time>2022-06-19T09:56:05.321Z</time>
      </trkpt>
      <trkpt lat="43.13610833" lon="-7.051385">
        <ele>878.0</ele>
        <time>2022-06-19T09:56:06.336Z</time>
      </trkpt>
      <trkpt lat="43.13617333" lon="-7.05142167">
        <ele>878.0</ele>
        <time>2022-06-19T09:56:07.315Z</time>
      </trkpt>
      <trkpt lat="43.13617333" lon="-7.05142167">
        <ele>878.0</ele>
        <time>2022-06-19T09:56:08.319Z</time>
      </trkpt>
      <trkpt lat="43.13628" lon="-7.05147167">
        <ele>878.0</ele>
        <time>2022-06-19T09:56:09.338Z</time>
      </trkpt>
      <trkpt lat="43.13632833" lon="-7.05149167">
        <ele>878.0</ele>
        <time>2022-06-19T09:56:10.333Z</time>
      </trkpt>
      <trkpt lat="43.13632833" lon="-7.05149167">
        <ele>878.0</ele>
        <time>2022-06-19T09:56:11.319Z</time>
      </trkpt>
      <trkpt lat="43.13640667" lon="-7.05156333">
        <ele>879.0</ele>
        <time>2022-06-19T09:56:12.353Z</time>
      </trkpt>
      <trkpt lat="43.13643833" lon="-7.05159333">
        <ele>880.0</ele>
        <time>2022-06-19T09:56:13.346Z</time>
      </trkpt>
      <trkpt lat="43.13643833" lon="-7.05159333">
        <ele>880.0</ele>
        <time>2022-06-19T09:56:14.335Z</time>
      </trkpt>
      <trkpt lat="43.13649" lon="-7.051625">
        <ele>880.0</ele>
        <time>2022-06-19T09:56:15.354Z</time>
      </trkpt>
      <trkpt lat="43.136515" lon="-7.05163833">
        <ele>881.0</ele>
        <time>2022-06-19T09:56:16.351Z</time>
      </trkpt>
      <trkpt lat="43.136515" lon="-7.05163833">
        <ele>881.0</ele>
        <time>2022-06-19T09:56:17.323Z</time>
      </trkpt>
      <trkpt lat="43.13656" lon="-7.051675">
        <ele>881.0</ele>
        <time>2022-06-19T09:56:18.338Z</time>
      </trkpt>
      <trkpt lat="43.136585" lon="-7.05169333">
        <ele>881.0</ele>
        <time>2022-06-19T09:56:19.328Z</time>
      </trkpt>
      <trkpt lat="43.136585" lon="-7.05169333">
        <ele>881.0</ele>
        <time>2022-06-19T09:56:20.347Z</time>
      </trkpt>
      <trkpt lat="43.136635" lon="-7.05172333">
        <ele>882.0</ele>
        <time>2022-06-19T09:56:21.332Z</time>
      </trkpt>
      <trkpt lat="43.136635" lon="-7.05172333">
        <ele>882.0</ele>
        <time>2022-06-19T09:56:22.335Z</time>
      </trkpt>
      <trkpt lat="43.13668333" lon="-7.05176667">
        <ele>882.0</ele>
        <time>2022-06-19T09:56:23.318Z</time>
      </trkpt>
      <trkpt lat="43.13670667" lon="-7.05178833">
        <ele>882.0</ele>
        <time>2022-06-19T09:56:24.322Z</time>
      </trkpt>
      <trkpt lat="43.13673167" lon="-7.05181">
        <ele>883.0</ele>
        <time>2022-06-19T09:56:25.328Z</time>
      </trkpt>
      <trkpt lat="43.13673167" lon="-7.05181">
        <ele>883.0</ele>
        <time>2022-06-19T09:56:26.348Z</time>
      </trkpt>
      <trkpt lat="43.136785" lon="-7.05185833">
        <ele>883.0</ele>
        <time>2022-06-19T09:56:27.348Z</time>
      </trkpt>
      <trkpt lat="43.136785" lon="-7.05185833">
        <ele>883.0</ele>
        <time>2022-06-19T09:56:28.335Z</time>
      </trkpt>
      <trkpt lat="43.13683667" lon="-7.05191833">
        <ele>882.0</ele>
        <time>2022-06-19T09:56:29.325Z</time>
      </trkpt>
      <trkpt lat="43.13686333" lon="-7.05195167">
        <ele>882.0</ele>
        <time>2022-06-19T09:56:30.319Z</time>
      </trkpt>
      <trkpt lat="43.13686333" lon="-7.05195167">
        <ele>882.0</ele>
        <time>2022-06-19T09:56:31.334Z</time>
      </trkpt>
      <trkpt lat="43.13690833" lon="-7.052025">
        <ele>883.0</ele>
        <time>2022-06-19T09:56:32.355Z</time>
      </trkpt>
      <trkpt lat="43.13692333" lon="-7.05207">
        <ele>883.0</ele>
        <time>2022-06-19T09:56:33.349Z</time>
      </trkpt>
      <trkpt lat="43.13692333" lon="-7.05207">
        <ele>883.0</ele>
        <time>2022-06-19T09:56:34.323Z</time>
      </trkpt>
      <trkpt lat="43.13692167" lon="-7.05217167">
        <ele>882.0</ele>
        <time>2022-06-19T09:56:35.339Z</time>
      </trkpt>
      <trkpt lat="43.13692167" lon="-7.05217167">
        <ele>882.0</ele>
        <time>2022-06-19T09:56:36.325Z</time>
      </trkpt>
      <trkpt lat="43.13687333" lon="-7.052275">
        <ele>882.0</ele>
        <time>2022-06-19T09:56:37.344Z</time>
      </trkpt>
      <trkpt lat="43.13687333" lon="-7.052275">
        <ele>882.0</ele>
        <time>2022-06-19T09:56:38.333Z</time>
      </trkpt>
      <trkpt lat="43.13680833" lon="-7.05237167">
        <ele>881.0</ele>
        <time>2022-06-19T09:56:39.334Z</time>
      </trkpt>
      <trkpt lat="43.13680833" lon="-7.05237167">
        <ele>881.0</ele>
        <time>2022-06-19T09:56:40.349Z</time>
      </trkpt>
      <trkpt lat="43.13673833" lon="-7.05242833">
        <ele>880.0</ele>
        <time>2022-06-19T09:56:41.331Z</time>
      </trkpt>
      <trkpt lat="43.13669833" lon="-7.05246">
        <ele>880.0</ele>
        <time>2022-06-19T09:56:42.331Z</time>
      </trkpt>
      <trkpt lat="43.13665667" lon="-7.05249667">
        <ele>879.0</ele>
        <time>2022-06-19T09:56:43.336Z</time>
      </trkpt>
      <trkpt lat="43.13665667" lon="-7.05249667">
        <ele>879.0</ele>
        <time>2022-06-19T09:56:44.348Z</time>
      </trkpt>
      <trkpt lat="43.136575" lon="-7.05257">
        <ele>878.0</ele>
        <time>2022-06-19T09:56:45.327Z</time>
      </trkpt>
      <trkpt lat="43.136575" lon="-7.05257">
        <ele>878.0</ele>
        <time>2022-06-19T09:56:46.316Z</time>
      </trkpt>
      <trkpt lat="43.13649667" lon="-7.05265333">
        <ele>878.0</ele>
        <time>2022-06-19T09:56:47.334Z</time>
      </trkpt>
      <trkpt lat="43.13649667" lon="-7.05265333">
        <ele>878.0</ele>
        <time>2022-06-19T09:56:48.348Z</time>
      </trkpt>
      <trkpt lat="43.136415" lon="-7.05276">
        <ele>877.0</ele>
        <time>2022-06-19T09:56:49.326Z</time>
      </trkpt>
      <trkpt lat="43.136415" lon="-7.05276">
        <ele>877.0</ele>
        <time>2022-06-19T09:56:50.324Z</time>
      </trkpt>
      <trkpt lat="43.13631833" lon="-7.05288167">
        <ele>876.0</ele>
        <time>2022-06-19T09:56:51.338Z</time>
      </trkpt>
      <trkpt lat="43.13631833" lon="-7.05288167">
        <ele>876.0</ele>
        <time>2022-06-19T09:56:52.327Z</time>
      </trkpt>
      <trkpt lat="43.13622333" lon="-7.05300167">
        <ele>875.0</ele>
        <time>2022-06-19T09:56:53.343Z</time>
      </trkpt>
      <trkpt lat="43.13622333" lon="-7.05300167">
        <ele>875.0</ele>
        <time>2022-06-19T09:56:54.318Z</time>
      </trkpt>
      <trkpt lat="43.13613833" lon="-7.053105">
        <ele>874.0</ele>
        <time>2022-06-19T09:56:55.334Z</time>
      </trkpt>
      <trkpt lat="43.13613833" lon="-7.053105">
        <ele>874.0</ele>
        <time>2022-06-19T09:56:56.318Z</time>
      </trkpt>
      <trkpt lat="43.136065" lon="-7.05319333">
        <ele>873.0</ele>
        <time>2022-06-19T09:56:57.345Z</time>
      </trkpt>
      <trkpt lat="43.136065" lon="-7.05319333">
        <ele>873.0</ele>
        <time>2022-06-19T09:56:58.316Z</time>
      </trkpt>
      <trkpt lat="43.13596167" lon="-7.053315">
        <ele>872.0</ele>
        <time>2022-06-19T09:56:59.341Z</time>
      </trkpt>
      <trkpt lat="43.13596167" lon="-7.053315">
        <ele>872.0</ele>
        <time>2022-06-19T09:57:00.335Z</time>
      </trkpt>
      <trkpt lat="43.13586667" lon="-7.05342167">
        <ele>871.0</ele>
        <time>2022-06-19T09:57:01.323Z</time>
      </trkpt>
      <trkpt lat="43.13586667" lon="-7.05342167">
        <ele>871.0</ele>
        <time>2022-06-19T09:57:02.339Z</time>
      </trkpt>
      <trkpt lat="43.13581167" lon="-7.05351167">
        <ele>870.0</ele>
        <time>2022-06-19T09:57:03.328Z</time>
      </trkpt>
      <trkpt lat="43.13577167" lon="-7.05357167">
        <ele>869.0</ele>
        <time>2022-06-19T09:57:04.332Z</time>
      </trkpt>
      <trkpt lat="43.13577167" lon="-7.05357167">
        <ele>869.0</ele>
        <time>2022-06-19T09:57:05.318Z</time>
      </trkpt>
      <trkpt lat="43.13569667" lon="-7.05369333">
        <ele>868.0</ele>
        <time>2022-06-19T09:57:06.343Z</time>
      </trkpt>
      <trkpt lat="43.13566" lon="-7.05375167">
        <ele>868.0</ele>
        <time>2022-06-19T09:57:07.333Z</time>
      </trkpt>
      <trkpt lat="43.13566" lon="-7.05375167">
        <ele>868.0</ele>
        <time>2022-06-19T09:57:08.328Z</time>
      </trkpt>
      <trkpt lat="43.13558" lon="-7.05386667">
        <ele>867.0</ele>
        <time>2022-06-19T09:57:09.317Z</time>
      </trkpt>
      <trkpt lat="43.13555167" lon="-7.053915">
        <ele>867.0</ele>
        <time>2022-06-19T09:57:10.318Z</time>
      </trkpt>
      <trkpt lat="43.13555167" lon="-7.053915">
        <ele>867.0</ele>
        <time>2022-06-19T09:57:11.316Z</time>
      </trkpt>
      <trkpt lat="43.13550833" lon="-7.05397333">
        <ele>866.0</ele>
        <time>2022-06-19T09:57:12.339Z</time>
      </trkpt>
      <trkpt lat="43.13550167" lon="-7.053995">
        <ele>865.0</ele>
        <time>2022-06-19T09:57:13.334Z</time>
      </trkpt>
      <trkpt lat="43.13550167" lon="-7.053995">
        <ele>865.0</ele>
        <time>2022-06-19T09:57:14.338Z</time>
      </trkpt>
      <trkpt lat="43.135485" lon="-7.054055">
        <ele>864.0</ele>
        <time>2022-06-19T09:57:15.353Z</time>
      </trkpt>
      <trkpt lat="43.135485" lon="-7.054055">
        <ele>864.0</ele>
        <time>2022-06-19T09:57:16.338Z</time>
      </trkpt>
      <trkpt lat="43.13543333" lon="-7.05415">
        <ele>864.0</ele>
        <time>2022-06-19T09:57:17.315Z</time>
      </trkpt>
      <trkpt lat="43.13543333" lon="-7.05415">
        <ele>864.0</ele>
        <time>2022-06-19T09:57:18.347Z</time>
      </trkpt>
      <trkpt lat="43.135375" lon="-7.054285">
        <ele>863.0</ele>
        <time>2022-06-19T09:57:19.326Z</time>
      </trkpt>
      <trkpt lat="43.135375" lon="-7.054285">
        <ele>863.0</ele>
        <time>2022-06-19T09:57:20.337Z</time>
      </trkpt>
      <trkpt lat="43.135325" lon="-7.054395">
        <ele>862.0</ele>
        <time>2022-06-19T09:57:21.317Z</time>
      </trkpt>
      <trkpt lat="43.135325" lon="-7.054395">
        <ele>862.0</ele>
        <time>2022-06-19T09:57:22.352Z</time>
      </trkpt>
      <trkpt lat="43.13524833" lon="-7.05453667">
        <ele>861.0</ele>
        <time>2022-06-19T09:57:23.331Z</time>
      </trkpt>
      <trkpt lat="43.13524833" lon="-7.05453667">
        <ele>861.0</ele>
        <time>2022-06-19T09:57:24.317Z</time>
      </trkpt>
      <trkpt lat="43.13519833" lon="-7.05463667">
        <ele>861.0</ele>
        <time>2022-06-19T09:57:25.336Z</time>
      </trkpt>
      <trkpt lat="43.13519833" lon="-7.05463667">
        <ele>861.0</ele>
        <time>2022-06-19T09:57:26.339Z</time>
      </trkpt>
      <trkpt lat="43.13517" lon="-7.05473667">
        <ele>860.0</ele>
        <time>2022-06-19T09:57:27.353Z</time>
      </trkpt>
      <trkpt lat="43.13514833" lon="-7.05478">
        <ele>860.0</ele>
        <time>2022-06-19T09:57:28.315Z</time>
      </trkpt>
      <trkpt lat="43.13514833" lon="-7.05478">
        <ele>860.0</ele>
        <time>2022-06-19T09:57:29.343Z</time>
      </trkpt>
      <trkpt lat="43.13511333" lon="-7.05488167">
        <ele>859.0</ele>
        <time>2022-06-19T09:57:30.324Z</time>
      </trkpt>
      <trkpt lat="43.135085" lon="-7.05494667">
        <ele>859.0</ele>
        <time>2022-06-19T09:57:31.353Z</time>
      </trkpt>
      <trkpt lat="43.135085" lon="-7.05494667">
        <ele>859.0</ele>
        <time>2022-06-19T09:57:32.342Z</time>
      </trkpt>
      <trkpt lat="43.13505" lon="-7.05505833">
        <ele>858.0</ele>
        <time>2022-06-19T09:57:33.318Z</time>
      </trkpt>
      <trkpt lat="43.13505" lon="-7.05505833">
        <ele>858.0</ele>
        <time>2022-06-19T09:57:34.345Z</time>
      </trkpt>
      <trkpt lat="43.135015" lon="-7.05513833">
        <ele>856.0</ele>
        <time>2022-06-19T09:57:35.334Z</time>
      </trkpt>
      <trkpt lat="43.135015" lon="-7.05513833">
        <ele>856.0</ele>
        <time>2022-06-19T09:57:36.320Z</time>
      </trkpt>
      <trkpt lat="43.134995" lon="-7.055195">
        <ele>855.0</ele>
        <time>2022-06-19T09:57:37.332Z</time>
      </trkpt>
      <trkpt lat="43.134995" lon="-7.055195">
        <ele>855.0</ele>
        <time>2022-06-19T09:57:38.332Z</time>
      </trkpt>
      <trkpt lat="43.13497833" lon="-7.05522667">
        <ele>853.0</ele>
        <time>2022-06-19T09:57:39.360Z</time>
      </trkpt>
      <trkpt lat="43.13497833" lon="-7.05522667">
        <ele>853.0</ele>
        <time>2022-06-19T09:57:40.319Z</time>
      </trkpt>
      <trkpt lat="43.13496" lon="-7.05524167">
        <ele>853.0</ele>
        <time>2022-06-19T09:57:41.347Z</time>
      </trkpt>
      <trkpt lat="43.13496" lon="-7.05524167">
        <ele>853.0</ele>
        <time>2022-06-19T09:57:42.331Z</time>
      </trkpt>
      <trkpt lat="43.13494833" lon="-7.05525167">
        <ele>852.0</ele>
        <time>2022-06-19T09:57:43.325Z</time>
      </trkpt>
      <trkpt lat="43.13494833" lon="-7.05525167">
        <ele>852.0</ele>
        <time>2022-06-19T09:57:44.332Z</time>
      </trkpt>
      <trkpt lat="43.13494833" lon="-7.05525167">
        <ele>852.0</ele>
        <time>2022-06-19T09:57:58.850Z</time>
      </trkpt>
      <trkpt lat="43.13494833" lon="-7.05525167">
        <ele>852.0</ele>
        <time>2022-06-19T09:57:59.848Z</time>
      </trkpt>
      <trkpt lat="43.1349" lon="-7.05537333">
        <ele>851.0</ele>
        <time>2022-06-19T09:58:00.868Z</time>
      </trkpt>
      <trkpt lat="43.1349" lon="-7.05537333">
        <ele>851.0</ele>
        <time>2022-06-19T09:58:01.875Z</time>
      </trkpt>
      <trkpt lat="43.134905" lon="-7.05543">
        <ele>851.0</ele>
        <time>2022-06-19T09:58:02.876Z</time>
      </trkpt>
      <trkpt lat="43.134905" lon="-7.05543">
        <ele>851.0</ele>
        <time>2022-06-19T09:58:03.881Z</time>
      </trkpt>
      <trkpt lat="43.13492167" lon="-7.05551333">
        <ele>850.0</ele>
        <time>2022-06-19T09:58:04.867Z</time>
      </trkpt>
      <trkpt lat="43.13493167" lon="-7.05555833">
        <ele>850.0</ele>
        <time>2022-06-19T09:58:05.856Z</time>
      </trkpt>
      <trkpt lat="43.13493167" lon="-7.05555833">
        <ele>850.0</ele>
        <time>2022-06-19T09:58:06.863Z</time>
      </trkpt>
      <trkpt lat="43.13493667" lon="-7.05567833">
        <ele>850.0</ele>
        <time>2022-06-19T09:58:07.845Z</time>
      </trkpt>
      <trkpt lat="43.13493667" lon="-7.05567833">
        <ele>850.0</ele>
        <time>2022-06-19T09:58:08.852Z</time>
      </trkpt>
      <trkpt lat="43.13496167" lon="-7.055805">
        <ele>849.0</ele>
        <time>2022-06-19T09:58:09.865Z</time>
      </trkpt>
      <trkpt lat="43.13496167" lon="-7.055805">
        <ele>849.0</ele>
        <time>2022-06-19T09:58:10.872Z</time>
      </trkpt>
      <trkpt lat="43.13498167" lon="-7.05594167">
        <ele>849.0</ele>
        <time>2022-06-19T09:58:11.848Z</time>
      </trkpt>
      <trkpt lat="43.13499667" lon="-7.05601167">
        <ele>848.0</ele>
        <time>2022-06-19T09:58:12.878Z</time>
      </trkpt>
      <trkpt lat="43.13501167" lon="-7.05607">
        <ele>848.0</ele>
        <time>2022-06-19T09:58:13.862Z</time>
      </trkpt>
      <trkpt lat="43.13501167" lon="-7.05607">
        <ele>848.0</ele>
        <time>2022-06-19T09:58:14.870Z</time>
      </trkpt>
      <trkpt lat="43.13506333" lon="-7.05614167">
        <ele>847.0</ele>
        <time>2022-06-19T09:58:15.855Z</time>
      </trkpt>
      <trkpt lat="43.13506333" lon="-7.05614167">
        <ele>847.0</ele>
        <time>2022-06-19T09:58:16.861Z</time>
      </trkpt>
      <trkpt lat="43.13512667" lon="-7.05616333">
        <ele>847.0</ele>
        <time>2022-06-19T09:58:17.883Z</time>
      </trkpt>
      <trkpt lat="43.13512667" lon="-7.05616333">
        <ele>847.0</ele>
        <time>2022-06-19T09:58:18.850Z</time>
      </trkpt>
      <trkpt lat="43.13517667" lon="-7.05621">
        <ele>847.0</ele>
        <time>2022-06-19T09:58:19.879Z</time>
      </trkpt>
      <trkpt lat="43.13517667" lon="-7.05621">
        <ele>847.0</ele>
        <time>2022-06-19T09:58:20.846Z</time>
      </trkpt>
      <trkpt lat="43.13520167" lon="-7.05631167">
        <ele>847.0</ele>
        <time>2022-06-19T09:58:21.879Z</time>
      </trkpt>
      <trkpt lat="43.13520167" lon="-7.05631167">
        <ele>847.0</ele>
        <time>2022-06-19T09:58:22.845Z</time>
      </trkpt>
      <trkpt lat="43.13518667" lon="-7.056425">
        <ele>847.0</ele>
        <time>2022-06-19T09:58:23.871Z</time>
      </trkpt>
      <trkpt lat="43.13517667" lon="-7.05647833">
        <ele>847.0</ele>
        <time>2022-06-19T09:58:24.863Z</time>
      </trkpt>
      <trkpt lat="43.13517" lon="-7.05653333">
        <ele>847.0</ele>
        <time>2022-06-19T09:58:25.860Z</time>
      </trkpt>
      <trkpt lat="43.13517" lon="-7.05653333">
        <ele>847.0</ele>
        <time>2022-06-19T09:58:26.867Z</time>
      </trkpt>
      <trkpt lat="43.135155" lon="-7.05664333">
        <ele>847.0</ele>
        <time>2022-06-19T09:58:27.855Z</time>
      </trkpt>
      <trkpt lat="43.13514667" lon="-7.0567">
        <ele>847.0</ele>
        <time>2022-06-19T09:58:28.864Z</time>
      </trkpt>
      <trkpt lat="43.13514667" lon="-7.0567">
        <ele>847.0</ele>
        <time>2022-06-19T09:58:29.871Z</time>
      </trkpt>
      <trkpt lat="43.13512667" lon="-7.05680667">
        <ele>847.0</ele>
        <time>2022-06-19T09:58:30.857Z</time>
      </trkpt>
      <trkpt lat="43.13512167" lon="-7.05685833">
        <ele>847.0</ele>
        <time>2022-06-19T09:58:31.846Z</time>
      </trkpt>
      <trkpt lat="43.13512167" lon="-7.05685833">
        <ele>847.0</ele>
        <time>2022-06-19T09:58:32.854Z</time>
      </trkpt>
      <trkpt lat="43.13510833" lon="-7.05696667">
        <ele>847.0</ele>
        <time>2022-06-19T09:58:33.856Z</time>
      </trkpt>
      <trkpt lat="43.13510833" lon="-7.05696667">
        <ele>847.0</ele>
        <time>2022-06-19T09:58:34.863Z</time>
      </trkpt>
      <trkpt lat="43.13509" lon="-7.05706833">
        <ele>847.0</ele>
        <time>2022-06-19T09:58:35.849Z</time>
      </trkpt>
      <trkpt lat="43.13507833" lon="-7.05711833">
        <ele>847.0</ele>
        <time>2022-06-19T09:58:36.878Z</time>
      </trkpt>
      <trkpt lat="43.13507" lon="-7.05716667">
        <ele>847.0</ele>
        <time>2022-06-19T09:58:37.867Z</time>
      </trkpt>
      <trkpt lat="43.13507" lon="-7.05716667">
        <ele>847.0</ele>
        <time>2022-06-19T09:58:38.875Z</time>
      </trkpt>
      <trkpt lat="43.13505" lon="-7.05726">
        <ele>847.0</ele>
        <time>2022-06-19T09:58:39.872Z</time>
      </trkpt>
      <trkpt lat="43.13505" lon="-7.05726">
        <ele>847.0</ele>
        <time>2022-06-19T09:58:40.879Z</time>
      </trkpt>
      <trkpt lat="43.13503333" lon="-7.05735333">
        <ele>847.0</ele>
        <time>2022-06-19T09:58:41.860Z</time>
      </trkpt>
      <trkpt lat="43.13503333" lon="-7.05735333">
        <ele>847.0</ele>
        <time>2022-06-19T09:58:42.868Z</time>
      </trkpt>
      <trkpt lat="43.13501667" lon="-7.057445">
        <ele>847.0</ele>
        <time>2022-06-19T09:58:43.861Z</time>
      </trkpt>
      <trkpt lat="43.13501667" lon="-7.057445">
        <ele>847.0</ele>
        <time>2022-06-19T09:58:44.868Z</time>
      </trkpt>
      <trkpt lat="43.135" lon="-7.05753833">
        <ele>847.0</ele>
        <time>2022-06-19T09:58:45.854Z</time>
      </trkpt>
      <trkpt lat="43.13499167" lon="-7.05758333">
        <ele>847.0</ele>
        <time>2022-06-19T09:58:46.881Z</time>
      </trkpt>
      <trkpt lat="43.13499167" lon="-7.05758333">
        <ele>847.0</ele>
        <time>2022-06-19T09:58:47.848Z</time>
      </trkpt>
      <trkpt lat="43.13497833" lon="-7.05767667">
        <ele>847.0</ele>
        <time>2022-06-19T09:58:48.871Z</time>
      </trkpt>
      <trkpt lat="43.13497" lon="-7.057725">
        <ele>847.0</ele>
        <time>2022-06-19T09:58:49.873Z</time>
      </trkpt>
      <trkpt lat="43.13497" lon="-7.057725">
        <ele>847.0</ele>
        <time>2022-06-19T09:58:50.881Z</time>
      </trkpt>
      <trkpt lat="43.13495333" lon="-7.05781667">
        <ele>848.0</ele>
        <time>2022-06-19T09:58:51.865Z</time>
      </trkpt>
      <trkpt lat="43.134945" lon="-7.05786167">
        <ele>848.0</ele>
        <time>2022-06-19T09:58:52.855Z</time>
      </trkpt>
      <trkpt lat="43.134945" lon="-7.05786167">
        <ele>848.0</ele>
        <time>2022-06-19T09:58:53.862Z</time>
      </trkpt>
      <trkpt lat="43.134925" lon="-7.05795167">
        <ele>848.0</ele>
        <time>2022-06-19T09:58:54.847Z</time>
      </trkpt>
      <trkpt lat="43.134915" lon="-7.05799333">
        <ele>848.0</ele>
        <time>2022-06-19T09:58:55.861Z</time>
      </trkpt>
      <trkpt lat="43.134915" lon="-7.05799333">
        <ele>848.0</ele>
        <time>2022-06-19T09:58:56.850Z</time>
      </trkpt>
      <trkpt lat="43.13489167" lon="-7.05807333">
        <ele>848.0</ele>
        <time>2022-06-19T09:58:57.883Z</time>
      </trkpt>
      <trkpt lat="43.13489167" lon="-7.05807333">
        <ele>848.0</ele>
        <time>2022-06-19T09:58:58.850Z</time>
      </trkpt>
      <trkpt lat="43.13487" lon="-7.05815167">
        <ele>848.0</ele>
        <time>2022-06-19T09:58:59.880Z</time>
      </trkpt>
      <trkpt lat="43.13486" lon="-7.05819167">
        <ele>848.0</ele>
        <time>2022-06-19T09:59:00.860Z</time>
      </trkpt>
      <trkpt lat="43.13484833" lon="-7.05823">
        <ele>848.0</ele>
        <time>2022-06-19T09:59:01.862Z</time>
      </trkpt>
      <trkpt lat="43.13484833" lon="-7.05823">
        <ele>848.0</ele>
        <time>2022-06-19T09:59:02.869Z</time>
      </trkpt>
      <trkpt lat="43.13482333" lon="-7.05829833">
        <ele>848.0</ele>
        <time>2022-06-19T09:59:03.852Z</time>
      </trkpt>
      <trkpt lat="43.13481333" lon="-7.05832833">
        <ele>849.0</ele>
        <time>2022-06-19T09:59:04.878Z</time>
      </trkpt>
      <trkpt lat="43.13481333" lon="-7.05832833">
        <ele>849.0</ele>
        <time>2022-06-19T09:59:05.845Z</time>
      </trkpt>
      <trkpt lat="43.13478833" lon="-7.05838167">
        <ele>849.0</ele>
        <time>2022-06-19T09:59:06.877Z</time>
      </trkpt>
      <trkpt lat="43.13477833" lon="-7.05840667">
        <ele>849.0</ele>
        <time>2022-06-19T09:59:07.857Z</time>
      </trkpt>
      <trkpt lat="43.13477833" lon="-7.05840667">
        <ele>849.0</ele>
        <time>2022-06-19T09:59:08.863Z</time>
      </trkpt>
      <trkpt lat="43.13475667" lon="-7.05845667">
        <ele>849.0</ele>
        <time>2022-06-19T09:59:09.858Z</time>
      </trkpt>
      <trkpt lat="43.13474" lon="-7.05848667">
        <ele>850.0</ele>
        <time>2022-06-19T09:59:10.876Z</time>
      </trkpt>
      <trkpt lat="43.13474" lon="-7.05848667">
        <ele>850.0</ele>
        <time>2022-06-19T09:59:11.883Z</time>
      </trkpt>
      <trkpt lat="43.13471167" lon="-7.05854">
        <ele>850.0</ele>
        <time>2022-06-19T09:59:12.863Z</time>
      </trkpt>
      <trkpt lat="43.13469833" lon="-7.05856833">
        <ele>850.0</ele>
        <time>2022-06-19T09:59:13.869Z</time>
      </trkpt>
      <trkpt lat="43.13469833" lon="-7.05856833">
        <ele>850.0</ele>
        <time>2022-06-19T09:59:14.876Z</time>
      </trkpt>
      <trkpt lat="43.13467333" lon="-7.05861667">
        <ele>851.0</ele>
        <time>2022-06-19T09:59:15.865Z</time>
      </trkpt>
      <trkpt lat="43.13466333" lon="-7.05864">
        <ele>851.0</ele>
        <time>2022-06-19T09:59:16.854Z</time>
      </trkpt>
      <trkpt lat="43.13466333" lon="-7.05864">
        <ele>851.0</ele>
        <time>2022-06-19T09:59:17.860Z</time>
      </trkpt>
      <trkpt lat="43.134635" lon="-7.05868833">
        <ele>851.0</ele>
        <time>2022-06-19T09:59:18.852Z</time>
      </trkpt>
      <trkpt lat="43.13462167" lon="-7.05871333">
        <ele>851.0</ele>
        <time>2022-06-19T09:59:19.850Z</time>
      </trkpt>
      <trkpt lat="43.13462167" lon="-7.05871333">
        <ele>851.0</ele>
        <time>2022-06-19T09:59:20.856Z</time>
      </trkpt>
      <trkpt lat="43.13459667" lon="-7.05875833">
        <ele>852.0</ele>
        <time>2022-06-19T09:59:21.848Z</time>
      </trkpt>
      <trkpt lat="43.13459667" lon="-7.05875833">
        <ele>852.0</ele>
        <time>2022-06-19T09:59:22.856Z</time>
      </trkpt>
      <trkpt lat="43.13456667" lon="-7.05880333">
        <ele>852.0</ele>
        <time>2022-06-19T09:59:23.881Z</time>
      </trkpt>
      <trkpt lat="43.13455333" lon="-7.058825">
        <ele>852.0</ele>
        <time>2022-06-19T09:59:24.871Z</time>
      </trkpt>
      <trkpt lat="43.13453667" lon="-7.05884833">
        <ele>852.0</ele>
        <time>2022-06-19T09:59:25.855Z</time>
      </trkpt>
      <trkpt lat="43.13453667" lon="-7.05884833">
        <ele>852.0</ele>
        <time>2022-06-19T09:59:26.863Z</time>
      </trkpt>
      <trkpt lat="43.13451" lon="-7.05889833">
        <ele>853.0</ele>
        <time>2022-06-19T09:59:27.847Z</time>
      </trkpt>
      <trkpt lat="43.13451" lon="-7.05889833">
        <ele>853.0</ele>
        <time>2022-06-19T09:59:28.853Z</time>
      </trkpt>
      <trkpt lat="43.13449333" lon="-7.05893">
        <ele>853.0</ele>
        <time>2022-06-19T09:59:29.877Z</time>
      </trkpt>
      <trkpt lat="43.13449333" lon="-7.05893">
        <ele>853.0</ele>
        <time>2022-06-19T09:59:30.844Z</time>
      </trkpt>
      <trkpt lat="43.13450667" lon="-7.05896833">
        <ele>854.0</ele>
        <time>2022-06-19T09:59:31.866Z</time>
      </trkpt>
      <trkpt lat="43.13450667" lon="-7.05896833">
        <ele>854.0</ele>
        <time>2022-06-19T09:59:32.879Z</time>
      </trkpt>
      <trkpt lat="43.13452167" lon="-7.05900333">
        <ele>854.0</ele>
        <time>2022-06-19T09:59:33.867Z</time>
      </trkpt>
      <trkpt lat="43.13452167" lon="-7.05900333">
        <ele>854.0</ele>
        <time>2022-06-19T09:59:34.873Z</time>
      </trkpt>
      <trkpt lat="43.13452167" lon="-7.05903833">
        <ele>854.0</ele>
        <time>2022-06-19T09:59:35.851Z</time>
      </trkpt>
      <trkpt lat="43.13452167" lon="-7.05903833">
        <ele>854.0</ele>
        <time>2022-06-19T09:59:36.858Z</time>
      </trkpt>
      <trkpt lat="43.13452167" lon="-7.05907833">
        <ele>855.0</ele>
        <time>2022-06-19T09:59:37.876Z</time>
      </trkpt>
      <trkpt lat="43.13452167" lon="-7.05907833">
        <ele>855.0</ele>
        <time>2022-06-19T09:59:38.845Z</time>
      </trkpt>
      <trkpt lat="43.13450833" lon="-7.0591">
        <ele>855.0</ele>
        <time>2022-06-19T09:59:39.882Z</time>
      </trkpt>
      <trkpt lat="43.13450833" lon="-7.0591">
        <ele>855.0</ele>
        <time>2022-06-19T09:59:40.849Z</time>
      </trkpt>
      <trkpt lat="43.13449333" lon="-7.05912667">
        <ele>855.0</ele>
        <time>2022-06-19T09:59:41.851Z</time>
      </trkpt>
      <trkpt lat="43.13449" lon="-7.05914667">
        <ele>856.0</ele>
        <time>2022-06-19T09:59:42.876Z</time>
      </trkpt>
      <trkpt lat="43.13448833" lon="-7.05916333">
        <ele>856.0</ele>
        <time>2022-06-19T09:59:43.855Z</time>
      </trkpt>
      <trkpt lat="43.13448833" lon="-7.05916333">
        <ele>856.0</ele>
        <time>2022-06-19T09:59:44.863Z</time>
      </trkpt>
      <trkpt lat="43.134485" lon="-7.059195">
        <ele>856.0</ele>
        <time>2022-06-19T09:59:45.879Z</time>
      </trkpt>
      <trkpt lat="43.13448667" lon="-7.05921">
        <ele>856.0</ele>
        <time>2022-06-19T09:59:46.880Z</time>
      </trkpt>
      <trkpt lat="43.13448667" lon="-7.05921">
        <ele>856.0</ele>
        <time>2022-06-19T09:59:47.848Z</time>
      </trkpt>
      <trkpt lat="43.13448833" lon="-7.05924167">
        <ele>856.0</ele>
        <time>2022-06-19T09:59:48.881Z</time>
      </trkpt>
      <trkpt lat="43.13448833" lon="-7.05924167">
        <ele>856.0</ele>
        <time>2022-06-19T09:59:49.870Z</time>
      </trkpt>
      <trkpt lat="43.13448667" lon="-7.05928">
        <ele>857.0</ele>
        <time>2022-06-19T09:59:50.873Z</time>
      </trkpt>
      <trkpt lat="43.13448667" lon="-7.05928">
        <ele>857.0</ele>
        <time>2022-06-19T09:59:51.880Z</time>
      </trkpt>
      <trkpt lat="43.13448667" lon="-7.05931333">
        <ele>857.0</ele>
        <time>2022-06-19T09:59:52.877Z</time>
      </trkpt>
      <trkpt lat="43.13448667" lon="-7.05931333">
        <ele>857.0</ele>
        <time>2022-06-19T09:59:53.883Z</time>
      </trkpt>
      <trkpt lat="43.134485" lon="-7.05934167">
        <ele>858.0</ele>
        <time>2022-06-19T09:59:54.875Z</time>
      </trkpt>
      <trkpt lat="43.13448" lon="-7.05935667">
        <ele>858.0</ele>
        <time>2022-06-19T09:59:55.878Z</time>
      </trkpt>
      <trkpt lat="43.13448" lon="-7.05935667">
        <ele>858.0</ele>
        <time>2022-06-19T09:59:56.852Z</time>
      </trkpt>
      <trkpt lat="43.13447167" lon="-7.05938833">
        <ele>859.0</ele>
        <time>2022-06-19T09:59:57.849Z</time>
      </trkpt>
      <trkpt lat="43.13447167" lon="-7.05938833">
        <ele>859.0</ele>
        <time>2022-06-19T09:59:58.854Z</time>
      </trkpt>
      <trkpt lat="43.13447" lon="-7.05942333">
        <ele>859.0</ele>
        <time>2022-06-19T09:59:59.882Z</time>
      </trkpt>
      <trkpt lat="43.13447167" lon="-7.059435">
        <ele>860.0</ele>
        <time>2022-06-19T10:00:00.870Z</time>
      </trkpt>
      <trkpt lat="43.134475" lon="-7.05944333">
        <ele>860.0</ele>
        <time>2022-06-19T10:00:01.877Z</time>
      </trkpt>
      <trkpt lat="43.134475" lon="-7.05944333">
        <ele>860.0</ele>
        <time>2022-06-19T10:00:02.883Z</time>
      </trkpt>
      <trkpt lat="43.13446333" lon="-7.05947833">
        <ele>861.0</ele>
        <time>2022-06-19T10:00:03.870Z</time>
      </trkpt>
      <trkpt lat="43.13446" lon="-7.05949167">
        <ele>861.0</ele>
        <time>2022-06-19T10:00:04.862Z</time>
      </trkpt>
      <trkpt lat="43.13446" lon="-7.05949167">
        <ele>861.0</ele>
        <time>2022-06-19T10:00:05.867Z</time>
      </trkpt>
      <trkpt lat="43.13446" lon="-7.05952167">
        <ele>862.0</ele>
        <time>2022-06-19T10:00:06.860Z</time>
      </trkpt>
      <trkpt lat="43.13446667" lon="-7.059545">
        <ele>862.0</ele>
        <time>2022-06-19T10:00:07.845Z</time>
      </trkpt>
      <trkpt lat="43.13446667" lon="-7.059545">
        <ele>862.0</ele>
        <time>2022-06-19T10:00:08.851Z</time>
      </trkpt>
      <trkpt lat="43.13445667" lon="-7.059585">
        <ele>862.0</ele>
        <time>2022-06-19T10:00:09.850Z</time>
      </trkpt>
      <trkpt lat="43.13445667" lon="-7.059585">
        <ele>862.0</ele>
        <time>2022-06-19T10:00:10.857Z</time>
      </trkpt>
      <trkpt lat="43.13444667" lon="-7.05961167">
        <ele>863.0</ele>
        <time>2022-06-19T10:00:11.845Z</time>
      </trkpt>
      <trkpt lat="43.13444667" lon="-7.05961167">
        <ele>863.0</ele>
        <time>2022-06-19T10:00:12.851Z</time>
      </trkpt>
      <trkpt lat="43.13444" lon="-7.05963833">
        <ele>863.0</ele>
        <time>2022-06-19T10:00:13.855Z</time>
      </trkpt>
      <trkpt lat="43.13444667" lon="-7.05965167">
        <ele>864.0</ele>
        <time>2022-06-19T10:00:14.883Z</time>
      </trkpt>
      <trkpt lat="43.13444667" lon="-7.05965167">
        <ele>864.0</ele>
        <time>2022-06-19T10:00:15.849Z</time>
      </trkpt>
      <trkpt lat="43.13444833" lon="-7.05967667">
        <ele>864.0</ele>
        <time>2022-06-19T10:00:16.850Z</time>
      </trkpt>
      <trkpt lat="43.13444833" lon="-7.05967667">
        <ele>864.0</ele>
        <time>2022-06-19T10:00:17.855Z</time>
      </trkpt>
      <trkpt lat="43.13445" lon="-7.05971">
        <ele>865.0</ele>
        <time>2022-06-19T10:00:18.858Z</time>
      </trkpt>
      <trkpt lat="43.13445167" lon="-7.05972333">
        <ele>865.0</ele>
        <time>2022-06-19T10:00:19.867Z</time>
      </trkpt>
      <trkpt lat="43.13445167" lon="-7.05972333">
        <ele>865.0</ele>
        <time>2022-06-19T10:00:20.875Z</time>
      </trkpt>
      <trkpt lat="43.13445" lon="-7.059755">
        <ele>866.0</ele>
        <time>2022-06-19T10:00:21.867Z</time>
      </trkpt>
      <trkpt lat="43.13445" lon="-7.059755">
        <ele>866.0</ele>
        <time>2022-06-19T10:00:22.873Z</time>
      </trkpt>
      <trkpt lat="43.13444333" lon="-7.05979167">
        <ele>866.0</ele>
        <time>2022-06-19T10:00:23.868Z</time>
      </trkpt>
      <trkpt lat="43.13444333" lon="-7.05979167">
        <ele>866.0</ele>
        <time>2022-06-19T10:00:24.876Z</time>
      </trkpt>
      <trkpt lat="43.13443833" lon="-7.05982667">
        <ele>867.0</ele>
        <time>2022-06-19T10:00:25.866Z</time>
      </trkpt>
      <trkpt lat="43.13443833" lon="-7.05982667">
        <ele>867.0</ele>
        <time>2022-06-19T10:00:26.871Z</time>
      </trkpt>
      <trkpt lat="43.13443833" lon="-7.05985167">
        <ele>867.0</ele>
        <time>2022-06-19T10:00:27.861Z</time>
      </trkpt>
      <trkpt lat="43.13443833" lon="-7.05985167">
        <ele>867.0</ele>
        <time>2022-06-19T10:00:28.867Z</time>
      </trkpt>
      <trkpt lat="43.13444" lon="-7.05988333">
        <ele>867.0</ele>
        <time>2022-06-19T10:00:29.865Z</time>
      </trkpt>
      <trkpt lat="43.13444333" lon="-7.05990167">
        <ele>868.0</ele>
        <time>2022-06-19T10:00:30.874Z</time>
      </trkpt>
      <trkpt lat="43.13444333" lon="-7.05990167">
        <ele>868.0</ele>
        <time>2022-06-19T10:00:31.880Z</time>
      </trkpt>
      <trkpt lat="43.13445167" lon="-7.059935">
        <ele>868.0</ele>
        <time>2022-06-19T10:00:32.878Z</time>
      </trkpt>
      <trkpt lat="43.13445167" lon="-7.059935">
        <ele>868.0</ele>
        <time>2022-06-19T10:00:33.844Z</time>
      </trkpt>
      <trkpt lat="43.13445167" lon="-7.05997167">
        <ele>868.0</ele>
        <time>2022-06-19T10:00:34.877Z</time>
      </trkpt>
      <trkpt lat="43.13445167" lon="-7.05997167">
        <ele>868.0</ele>
        <time>2022-06-19T10:00:35.883Z</time>
      </trkpt>
      <trkpt lat="43.13445333" lon="-7.05999833">
        <ele>869.0</ele>
        <time>2022-06-19T10:00:36.870Z</time>
      </trkpt>
      <trkpt lat="43.134455" lon="-7.060015">
        <ele>869.0</ele>
        <time>2022-06-19T10:00:37.857Z</time>
      </trkpt>
      <trkpt lat="43.134455" lon="-7.060015">
        <ele>869.0</ele>
        <time>2022-06-19T10:00:38.863Z</time>
      </trkpt>
      <trkpt lat="43.13446333" lon="-7.06004333">
        <ele>870.0</ele>
        <time>2022-06-19T10:00:39.850Z</time>
      </trkpt>
      <trkpt lat="43.13446833" lon="-7.06006167">
        <ele>870.0</ele>
        <time>2022-06-19T10:00:40.875Z</time>
      </trkpt>
      <trkpt lat="43.13447" lon="-7.060085">
        <ele>870.0</ele>
        <time>2022-06-19T10:00:41.869Z</time>
      </trkpt>
      <trkpt lat="43.13447" lon="-7.060085">
        <ele>870.0</ele>
        <time>2022-06-19T10:00:42.878Z</time>
      </trkpt>
      <trkpt lat="43.13447833" lon="-7.06012333">
        <ele>871.0</ele>
        <time>2022-06-19T10:00:43.879Z</time>
      </trkpt>
      <trkpt lat="43.13447833" lon="-7.06012333">
        <ele>871.0</ele>
        <time>2022-06-19T10:00:44.846Z</time>
      </trkpt>
      <trkpt lat="43.134485" lon="-7.06015833">
        <ele>871.0</ele>
        <time>2022-06-19T10:00:45.869Z</time>
      </trkpt>
      <trkpt lat="43.13449" lon="-7.06017167">
        <ele>871.0</ele>
        <time>2022-06-19T10:00:46.865Z</time>
      </trkpt>
      <trkpt lat="43.13449" lon="-7.06017167">
        <ele>871.0</ele>
        <time>2022-06-19T10:00:47.870Z</time>
      </trkpt>
      <trkpt lat="43.1345" lon="-7.06020333">
        <ele>872.0</ele>
        <time>2022-06-19T10:00:48.868Z</time>
      </trkpt>
      <trkpt lat="43.13450833" lon="-7.06022">
        <ele>872.0</ele>
        <time>2022-06-19T10:00:49.863Z</time>
      </trkpt>
      <trkpt lat="43.13451167" lon="-7.06023667">
        <ele>872.0</ele>
        <time>2022-06-19T10:00:50.855Z</time>
      </trkpt>
      <trkpt lat="43.13451167" lon="-7.06023667">
        <ele>872.0</ele>
        <time>2022-06-19T10:00:51.861Z</time>
      </trkpt>
      <trkpt lat="43.13451833" lon="-7.06027667">
        <ele>872.0</ele>
        <time>2022-06-19T10:00:52.845Z</time>
      </trkpt>
      <trkpt lat="43.13452167" lon="-7.06029833">
        <ele>872.0</ele>
        <time>2022-06-19T10:00:53.870Z</time>
      </trkpt>
      <trkpt lat="43.13452167" lon="-7.06029833">
        <ele>872.0</ele>
        <time>2022-06-19T10:00:54.877Z</time>
      </trkpt>
      <trkpt lat="43.13453333" lon="-7.060335">
        <ele>873.0</ele>
        <time>2022-06-19T10:00:55.875Z</time>
      </trkpt>
      <trkpt lat="43.13453333" lon="-7.060335">
        <ele>873.0</ele>
        <time>2022-06-19T10:00:56.879Z</time>
      </trkpt>
      <trkpt lat="43.13454167" lon="-7.06037167">
        <ele>873.0</ele>
        <time>2022-06-19T10:00:57.855Z</time>
      </trkpt>
      <trkpt lat="43.13454167" lon="-7.06037167">
        <ele>873.0</ele>
        <time>2022-06-19T10:00:58.861Z</time>
      </trkpt>
      <trkpt lat="43.13455333" lon="-7.06040667">
        <ele>874.0</ele>
        <time>2022-06-19T10:00:59.856Z</time>
      </trkpt>
      <trkpt lat="43.13456333" lon="-7.06042">
        <ele>874.0</ele>
        <time>2022-06-19T10:01:00.882Z</time>
      </trkpt>
      <trkpt lat="43.13456333" lon="-7.06042">
        <ele>874.0</ele>
        <time>2022-06-19T10:01:01.848Z</time>
      </trkpt>
      <trkpt lat="43.13458833" lon="-7.060445">
        <ele>875.0</ele>
        <time>2022-06-19T10:01:02.881Z</time>
      </trkpt>
      <trkpt lat="43.13458833" lon="-7.060445">
        <ele>875.0</ele>
        <time>2022-06-19T10:01:03.846Z</time>
      </trkpt>
      <trkpt lat="43.13460833" lon="-7.06047">
        <ele>876.0</ele>
        <time>2022-06-19T10:01:04.883Z</time>
      </trkpt>
      <trkpt lat="43.13461833" lon="-7.06048333">
        <ele>876.0</ele>
        <time>2022-06-19T10:01:05.872Z</time>
      </trkpt>
      <trkpt lat="43.13461833" lon="-7.06048333">
        <ele>876.0</ele>
        <time>2022-06-19T10:01:06.880Z</time>
      </trkpt>
      <trkpt lat="43.13464333" lon="-7.06050833">
        <ele>876.0</ele>
        <time>2022-06-19T10:01:07.875Z</time>
      </trkpt>
      <trkpt lat="43.13464333" lon="-7.06050833">
        <ele>876.0</ele>
        <time>2022-06-19T10:01:08.881Z</time>
      </trkpt>
      <trkpt lat="43.13467" lon="-7.06054">
        <ele>876.0</ele>
        <time>2022-06-19T10:01:09.873Z</time>
      </trkpt>
      <trkpt lat="43.13468667" lon="-7.06055333">
        <ele>877.0</ele>
        <time>2022-06-19T10:01:10.853Z</time>
      </trkpt>
      <trkpt lat="43.13468667" lon="-7.06055333">
        <ele>877.0</ele>
        <time>2022-06-19T10:01:11.859Z</time>
      </trkpt>
      <trkpt lat="43.13470167" lon="-7.06058">
        <ele>877.0</ele>
        <time>2022-06-19T10:01:12.863Z</time>
      </trkpt>
      <trkpt lat="43.134705" lon="-7.06059667">
        <ele>877.0</ele>
        <time>2022-06-19T10:01:13.883Z</time>
      </trkpt>
      <trkpt lat="43.134705" lon="-7.06059667">
        <ele>877.0</ele>
        <time>2022-06-19T10:01:14.849Z</time>
      </trkpt>
      <trkpt lat="43.134715" lon="-7.06062667">
        <ele>878.0</ele>
        <time>2022-06-19T10:01:15.879Z</time>
      </trkpt>
      <trkpt lat="43.134715" lon="-7.06062667">
        <ele>878.0</ele>
        <time>2022-06-19T10:01:16.845Z</time>
      </trkpt>
      <trkpt lat="43.13473667" lon="-7.060655">
        <ele>878.0</ele>
        <time>2022-06-19T10:01:17.855Z</time>
      </trkpt>
      <trkpt lat="43.13473667" lon="-7.060655">
        <ele>878.0</ele>
        <time>2022-06-19T10:01:18.860Z</time>
      </trkpt>
      <trkpt lat="43.13476167" lon="-7.060685">
        <ele>878.0</ele>
        <time>2022-06-19T10:01:19.849Z</time>
      </trkpt>
      <trkpt lat="43.13476167" lon="-7.060685">
        <ele>878.0</ele>
        <time>2022-06-19T10:01:20.854Z</time>
      </trkpt>
      <trkpt lat="43.13478333" lon="-7.060715">
        <ele>879.0</ele>
        <time>2022-06-19T10:01:21.850Z</time>
      </trkpt>
      <trkpt lat="43.134795" lon="-7.06073">
        <ele>879.0</ele>
        <time>2022-06-19T10:01:22.871Z</time>
      </trkpt>
      <trkpt lat="43.134795" lon="-7.06073">
        <ele>879.0</ele>
        <time>2022-06-19T10:01:23.878Z</time>
      </trkpt>
      <trkpt lat="43.13481667" lon="-7.06076333">
        <ele>879.0</ele>
        <time>2022-06-19T10:01:24.876Z</time>
      </trkpt>
      <trkpt lat="43.13482667" lon="-7.06078">
        <ele>879.0</ele>
        <time>2022-06-19T10:01:25.846Z</time>
      </trkpt>
      <trkpt lat="43.13482667" lon="-7.06078">
        <ele>879.0</ele>
        <time>2022-06-19T10:01:26.852Z</time>
      </trkpt>
      <trkpt lat="43.13484333" lon="-7.06080833">
        <ele>880.0</ele>
        <time>2022-06-19T10:01:27.852Z</time>
      </trkpt>
      <trkpt lat="43.13484833" lon="-7.060825">
        <ele>880.0</ele>
        <time>2022-06-19T10:01:28.876Z</time>
      </trkpt>
      <trkpt lat="43.13485333" lon="-7.060845">
        <ele>880.0</ele>
        <time>2022-06-19T10:01:29.861Z</time>
      </trkpt>
      <trkpt lat="43.13485333" lon="-7.060845">
        <ele>880.0</ele>
        <time>2022-06-19T10:01:30.867Z</time>
      </trkpt>
      <trkpt lat="43.134865" lon="-7.06087833">
        <ele>880.0</ele>
        <time>2022-06-19T10:01:31.865Z</time>
      </trkpt>
      <trkpt lat="43.134865" lon="-7.06087833">
        <ele>880.0</ele>
        <time>2022-06-19T10:01:32.871Z</time>
      </trkpt>
      <trkpt lat="43.13488667" lon="-7.06091167">
        <ele>881.0</ele>
        <time>2022-06-19T10:01:33.865Z</time>
      </trkpt>
      <trkpt lat="43.13488667" lon="-7.06091167">
        <ele>881.0</ele>
        <time>2022-06-19T10:01:34.871Z</time>
      </trkpt>
      <trkpt lat="43.13490333" lon="-7.06094833">
        <ele>881.0</ele>
        <time>2022-06-19T10:01:35.860Z</time>
      </trkpt>
      <trkpt lat="43.134915" lon="-7.06096333">
        <ele>881.0</ele>
        <time>2022-06-19T10:01:36.851Z</time>
      </trkpt>
      <trkpt lat="43.13492833" lon="-7.06097667">
        <ele>881.0</ele>
        <time>2022-06-19T10:01:37.882Z</time>
      </trkpt>
      <trkpt lat="43.13492833" lon="-7.06097667">
        <ele>881.0</ele>
        <time>2022-06-19T10:01:38.848Z</time>
      </trkpt>
      <trkpt lat="43.13495667" lon="-7.061005">
        <ele>881.0</ele>
        <time>2022-06-19T10:01:39.878Z</time>
      </trkpt>
      <trkpt lat="43.13495667" lon="-7.061005">
        <ele>881.0</ele>
        <time>2022-06-19T10:01:40.884Z</time>
      </trkpt>
      <trkpt lat="43.13498667" lon="-7.06103833">
        <ele>881.0</ele>
        <time>2022-06-19T10:01:41.875Z</time>
      </trkpt>
      <trkpt lat="43.13498667" lon="-7.06103833">
        <ele>881.0</ele>
        <time>2022-06-19T10:01:42.881Z</time>
      </trkpt>
      <trkpt lat="43.13500833" lon="-7.06107667">
        <ele>880.0</ele>
        <time>2022-06-19T10:01:43.872Z</time>
      </trkpt>
      <trkpt lat="43.13500833" lon="-7.06107667">
        <ele>880.0</ele>
        <time>2022-06-19T10:01:44.881Z</time>
      </trkpt>
      <trkpt lat="43.13503" lon="-7.06111333">
        <ele>880.0</ele>
        <time>2022-06-19T10:01:45.861Z</time>
      </trkpt>
      <trkpt lat="43.13504" lon="-7.06112667">
        <ele>881.0</ele>
        <time>2022-06-19T10:01:46.858Z</time>
      </trkpt>
      <trkpt lat="43.13504" lon="-7.06112667">
        <ele>881.0</ele>
        <time>2022-06-19T10:01:47.864Z</time>
      </trkpt>
      <trkpt lat="43.13505333" lon="-7.06118333">
        <ele>881.0</ele>
        <time>2022-06-19T10:01:48.851Z</time>
      </trkpt>
      <trkpt lat="43.135065" lon="-7.06120167">
        <ele>881.0</ele>
        <time>2022-06-19T10:01:49.861Z</time>
      </trkpt>
      <trkpt lat="43.135065" lon="-7.06120167">
        <ele>881.0</ele>
        <time>2022-06-19T10:01:50.867Z</time>
      </trkpt>
      <trkpt lat="43.13508" lon="-7.06124333">
        <ele>881.0</ele>
        <time>2022-06-19T10:01:51.848Z</time>
      </trkpt>
      <trkpt lat="43.13508" lon="-7.06124333">
        <ele>881.0</ele>
        <time>2022-06-19T10:01:52.854Z</time>
      </trkpt>
      <trkpt lat="43.13509667" lon="-7.06128667">
        <ele>882.0</ele>
        <time>2022-06-19T10:01:53.854Z</time>
      </trkpt>
      <trkpt lat="43.13509667" lon="-7.06128667">
        <ele>882.0</ele>
        <time>2022-06-19T10:01:54.860Z</time>
      </trkpt>
      <trkpt lat="43.13511333" lon="-7.06132833">
        <ele>882.0</ele>
        <time>2022-06-19T10:01:55.876Z</time>
      </trkpt>
      <trkpt lat="43.13511333" lon="-7.06132833">
        <ele>882.0</ele>
        <time>2022-06-19T10:01:56.859Z</time>
      </trkpt>
      <trkpt lat="43.13513" lon="-7.06137167">
        <ele>882.0</ele>
        <time>2022-06-19T10:01:57.844Z</time>
      </trkpt>
      <trkpt lat="43.13513" lon="-7.06137167">
        <ele>882.0</ele>
        <time>2022-06-19T10:01:58.849Z</time>
      </trkpt>
      <trkpt lat="43.135145" lon="-7.06141667">
        <ele>882.0</ele>
        <time>2022-06-19T10:01:59.845Z</time>
      </trkpt>
      <trkpt lat="43.13515333" lon="-7.06144167">
        <ele>882.0</ele>
        <time>2022-06-19T10:02:00.867Z</time>
      </trkpt>
      <trkpt lat="43.13515333" lon="-7.06144167">
        <ele>882.0</ele>
        <time>2022-06-19T10:02:01.873Z</time>
      </trkpt>
      <trkpt lat="43.13517333" lon="-7.06149">
        <ele>882.0</ele>
        <time>2022-06-19T10:02:02.847Z</time>
      </trkpt>
      <trkpt lat="43.13517333" lon="-7.06149">
        <ele>882.0</ele>
        <time>2022-06-19T10:02:03.852Z</time>
      </trkpt>
      <trkpt lat="43.13519667" lon="-7.06153333">
        <ele>882.0</ele>
        <time>2022-06-19T10:02:04.846Z</time>
      </trkpt>
      <trkpt lat="43.13519667" lon="-7.06153333">
        <ele>882.0</ele>
        <time>2022-06-19T10:02:05.851Z</time>
      </trkpt>
      <trkpt lat="43.13522" lon="-7.06158167">
        <ele>883.0</ele>
        <time>2022-06-19T10:02:06.875Z</time>
      </trkpt>
      <trkpt lat="43.13523333" lon="-7.06160167">
        <ele>883.0</ele>
        <time>2022-06-19T10:02:07.868Z</time>
      </trkpt>
      <trkpt lat="43.13523333" lon="-7.06160167">
        <ele>883.0</ele>
        <time>2022-06-19T10:02:08.874Z</time>
      </trkpt>
      <trkpt lat="43.13526167" lon="-7.061645">
        <ele>884.0</ele>
        <time>2022-06-19T10:02:09.871Z</time>
      </trkpt>
      <trkpt lat="43.13526167" lon="-7.061645">
        <ele>884.0</ele>
        <time>2022-06-19T10:02:10.879Z</time>
      </trkpt>
      <trkpt lat="43.135295" lon="-7.06168">
        <ele>885.0</ele>
        <time>2022-06-19T10:02:11.870Z</time>
      </trkpt>
      <trkpt lat="43.135295" lon="-7.06168">
        <ele>885.0</ele>
        <time>2022-06-19T10:02:12.880Z</time>
      </trkpt>
      <trkpt lat="43.13531333" lon="-7.06172333">
        <ele>886.0</ele>
        <time>2022-06-19T10:02:13.866Z</time>
      </trkpt>
      <trkpt lat="43.13531333" lon="-7.06172333">
        <ele>886.0</ele>
        <time>2022-06-19T10:02:14.872Z</time>
      </trkpt>
      <trkpt lat="43.13532833" lon="-7.06177333">
        <ele>887.0</ele>
        <time>2022-06-19T10:02:15.845Z</time>
      </trkpt>
      <trkpt lat="43.13532833" lon="-7.06177333">
        <ele>887.0</ele>
        <time>2022-06-19T10:02:16.860Z</time>
      </trkpt>
      <trkpt lat="43.13533667" lon="-7.061825">
        <ele>888.0</ele>
        <time>2022-06-19T10:02:17.850Z</time>
      </trkpt>
      <trkpt lat="43.13533667" lon="-7.061825">
        <ele>888.0</ele>
        <time>2022-06-19T10:02:18.855Z</time>
      </trkpt>
      <trkpt lat="43.13534833" lon="-7.06187167">
        <ele>889.0</ele>
        <time>2022-06-19T10:02:19.850Z</time>
      </trkpt>
      <trkpt lat="43.13534833" lon="-7.06187167">
        <ele>889.0</ele>
        <time>2022-06-19T10:02:20.856Z</time>
      </trkpt>
      <trkpt lat="43.13535833" lon="-7.06192">
        <ele>889.0</ele>
        <time>2022-06-19T10:02:21.850Z</time>
      </trkpt>
      <trkpt lat="43.13536167" lon="-7.06194333">
        <ele>889.0</ele>
        <time>2022-06-19T10:02:22.845Z</time>
      </trkpt>
      <trkpt lat="43.13536167" lon="-7.06194333">
        <ele>889.0</ele>
        <time>2022-06-19T10:02:23.851Z</time>
      </trkpt>
      <trkpt lat="43.13537" lon="-7.06199333">
        <ele>890.0</ele>
        <time>2022-06-19T10:02:24.845Z</time>
      </trkpt>
      <trkpt lat="43.13537167" lon="-7.06202167">
        <ele>890.0</ele>
        <time>2022-06-19T10:02:25.879Z</time>
      </trkpt>
      <trkpt lat="43.13537167" lon="-7.06202167">
        <ele>890.0</ele>
        <time>2022-06-19T10:02:26.845Z</time>
      </trkpt>
      <trkpt lat="43.13538167" lon="-7.06206833">
        <ele>890.0</ele>
        <time>2022-06-19T10:02:27.876Z</time>
      </trkpt>
      <trkpt lat="43.135385" lon="-7.062095">
        <ele>891.0</ele>
        <time>2022-06-19T10:02:28.871Z</time>
      </trkpt>
      <trkpt lat="43.135385" lon="-7.062095">
        <ele>891.0</ele>
        <time>2022-06-19T10:02:29.878Z</time>
      </trkpt>
      <trkpt lat="43.13538833" lon="-7.06215">
        <ele>891.0</ele>
        <time>2022-06-19T10:02:30.873Z</time>
      </trkpt>
      <trkpt lat="43.13538833" lon="-7.06217333">
        <ele>892.0</ele>
        <time>2022-06-19T10:02:31.873Z</time>
      </trkpt>
      <trkpt lat="43.13539" lon="-7.06219833">
        <ele>892.0</ele>
        <time>2022-06-19T10:02:32.871Z</time>
      </trkpt>
      <trkpt lat="43.13539" lon="-7.06219833">
        <ele>892.0</ele>
        <time>2022-06-19T10:02:33.848Z</time>
      </trkpt>
      <trkpt lat="43.13539667" lon="-7.06225167">
        <ele>892.0</ele>
        <time>2022-06-19T10:02:34.847Z</time>
      </trkpt>
      <trkpt lat="43.13539667" lon="-7.06225167">
        <ele>892.0</ele>
        <time>2022-06-19T10:02:35.853Z</time>
      </trkpt>
      <trkpt lat="43.1354" lon="-7.06230333">
        <ele>892.0</ele>
        <time>2022-06-19T10:02:36.858Z</time>
      </trkpt>
      <trkpt lat="43.13540333" lon="-7.06232833">
        <ele>892.0</ele>
        <time>2022-06-19T10:02:37.860Z</time>
      </trkpt>
      <trkpt lat="43.13540333" lon="-7.06232833">
        <ele>892.0</ele>
        <time>2022-06-19T10:02:38.865Z</time>
      </trkpt>
      <trkpt lat="43.13540667" lon="-7.06237833">
        <ele>893.0</ele>
        <time>2022-06-19T10:02:39.869Z</time>
      </trkpt>
      <trkpt lat="43.13540667" lon="-7.06237833">
        <ele>893.0</ele>
        <time>2022-06-19T10:02:40.880Z</time>
      </trkpt>
      <trkpt lat="43.13540833" lon="-7.06243167">
        <ele>893.0</ele>
        <time>2022-06-19T10:02:41.849Z</time>
      </trkpt>
      <trkpt lat="43.13540833" lon="-7.06243167">
        <ele>893.0</ele>
        <time>2022-06-19T10:02:42.860Z</time>
      </trkpt>
      <trkpt lat="43.13541333" lon="-7.06247833">
        <ele>893.0</ele>
        <time>2022-06-19T10:02:43.854Z</time>
      </trkpt>
      <trkpt lat="43.13541333" lon="-7.06247833">
        <ele>893.0</ele>
        <time>2022-06-19T10:02:44.859Z</time>
      </trkpt>
      <trkpt lat="43.13541667" lon="-7.06254167">
        <ele>894.0</ele>
        <time>2022-06-19T10:02:45.854Z</time>
      </trkpt>
      <trkpt lat="43.13541667" lon="-7.06254167">
        <ele>894.0</ele>
        <time>2022-06-19T10:02:46.860Z</time>
      </trkpt>
      <trkpt lat="43.135425" lon="-7.06259167">
        <ele>894.0</ele>
        <time>2022-06-19T10:02:47.861Z</time>
      </trkpt>
      <trkpt lat="43.135425" lon="-7.06259167">
        <ele>894.0</ele>
        <time>2022-06-19T10:02:48.867Z</time>
      </trkpt>
      <trkpt lat="43.13543167" lon="-7.06264667">
        <ele>894.0</ele>
        <time>2022-06-19T10:02:49.859Z</time>
      </trkpt>
      <trkpt lat="43.13543167" lon="-7.06264667">
        <ele>894.0</ele>
        <time>2022-06-19T10:02:50.865Z</time>
      </trkpt>
      <trkpt lat="43.13543833" lon="-7.06269833">
        <ele>895.0</ele>
        <time>2022-06-19T10:02:51.849Z</time>
      </trkpt>
      <trkpt lat="43.13543833" lon="-7.06269833">
        <ele>895.0</ele>
        <time>2022-06-19T10:02:52.857Z</time>
      </trkpt>
      <trkpt lat="43.13544333" lon="-7.06275">
        <ele>895.0</ele>
        <time>2022-06-19T10:02:53.852Z</time>
      </trkpt>
      <trkpt lat="43.13544333" lon="-7.06275">
        <ele>895.0</ele>
        <time>2022-06-19T10:02:54.857Z</time>
      </trkpt>
      <trkpt lat="43.13544167" lon="-7.06280167">
        <ele>896.0</ele>
        <time>2022-06-19T10:02:55.845Z</time>
      </trkpt>
      <trkpt lat="43.13544167" lon="-7.06280167">
        <ele>896.0</ele>
        <time>2022-06-19T10:02:56.868Z</time>
      </trkpt>
      <trkpt lat="43.13544333" lon="-7.062845">
        <ele>896.0</ele>
        <time>2022-06-19T10:02:57.870Z</time>
      </trkpt>
      <trkpt lat="43.13544333" lon="-7.062845">
        <ele>896.0</ele>
        <time>2022-06-19T10:02:58.881Z</time>
      </trkpt>
      <trkpt lat="43.13544667" lon="-7.06289167">
        <ele>896.0</ele>
        <time>2022-06-19T10:02:59.872Z</time>
      </trkpt>
      <trkpt lat="43.13544667" lon="-7.062915">
        <ele>896.0</ele>
        <time>2022-06-19T10:03:00.872Z</time>
      </trkpt>
      <trkpt lat="43.13544667" lon="-7.062915">
        <ele>896.0</ele>
        <time>2022-06-19T10:03:01.879Z</time>
      </trkpt>
      <trkpt lat="43.13545167" lon="-7.062965">
        <ele>896.0</ele>
        <time>2022-06-19T10:03:02.859Z</time>
      </trkpt>
      <trkpt lat="43.13545167" lon="-7.062965">
        <ele>896.0</ele>
        <time>2022-06-19T10:03:03.865Z</time>
      </trkpt>
      <trkpt lat="43.13546" lon="-7.06301">
        <ele>897.0</ele>
        <time>2022-06-19T10:03:04.851Z</time>
      </trkpt>
      <trkpt lat="43.13546" lon="-7.06301">
        <ele>897.0</ele>
        <time>2022-06-19T10:03:05.857Z</time>
      </trkpt>
      <trkpt lat="43.135465" lon="-7.063055">
        <ele>897.0</ele>
        <time>2022-06-19T10:03:06.845Z</time>
      </trkpt>
      <trkpt lat="43.135465" lon="-7.06308167">
        <ele>897.0</ele>
        <time>2022-06-19T10:03:07.851Z</time>
      </trkpt>
      <trkpt lat="43.135465" lon="-7.06308167">
        <ele>897.0</ele>
        <time>2022-06-19T10:03:08.857Z</time>
      </trkpt>
      <trkpt lat="43.13546833" lon="-7.06314">
        <ele>897.0</ele>
        <time>2022-06-19T10:03:09.850Z</time>
      </trkpt>
      <trkpt lat="43.13546833" lon="-7.06314">
        <ele>897.0</ele>
        <time>2022-06-19T10:03:10.855Z</time>
      </trkpt>
      <trkpt lat="43.135475" lon="-7.06319667">
        <ele>897.0</ele>
        <time>2022-06-19T10:03:11.859Z</time>
      </trkpt>
      <trkpt lat="43.135475" lon="-7.06319667">
        <ele>897.0</ele>
        <time>2022-06-19T10:03:12.865Z</time>
      </trkpt>
      <trkpt lat="43.13548333" lon="-7.06326">
        <ele>898.0</ele>
        <time>2022-06-19T10:03:13.864Z</time>
      </trkpt>
      <trkpt lat="43.13548333" lon="-7.06326">
        <ele>898.0</ele>
        <time>2022-06-19T10:03:14.870Z</time>
      </trkpt>
      <trkpt lat="43.13549" lon="-7.06331833">
        <ele>898.0</ele>
        <time>2022-06-19T10:03:15.861Z</time>
      </trkpt>
      <trkpt lat="43.13549" lon="-7.06331833">
        <ele>898.0</ele>
        <time>2022-06-19T10:03:16.844Z</time>
      </trkpt>
      <trkpt lat="43.13549667" lon="-7.063375">
        <ele>898.0</ele>
        <time>2022-06-19T10:03:17.883Z</time>
      </trkpt>
      <trkpt lat="43.13549667" lon="-7.063375">
        <ele>898.0</ele>
        <time>2022-06-19T10:03:18.850Z</time>
      </trkpt>
      <trkpt lat="43.13550333" lon="-7.06343">
        <ele>898.0</ele>
        <time>2022-06-19T10:03:19.878Z</time>
      </trkpt>
      <trkpt lat="43.13550333" lon="-7.06343">
        <ele>898.0</ele>
        <time>2022-06-19T10:03:20.849Z</time>
      </trkpt>
      <trkpt lat="43.13550667" lon="-7.06348667">
        <ele>899.0</ele>
        <time>2022-06-19T10:03:21.847Z</time>
      </trkpt>
      <trkpt lat="43.13550833" lon="-7.063515">
        <ele>899.0</ele>
        <time>2022-06-19T10:03:22.871Z</time>
      </trkpt>
      <trkpt lat="43.13550833" lon="-7.063515">
        <ele>899.0</ele>
        <time>2022-06-19T10:03:23.879Z</time>
      </trkpt>
      <trkpt lat="43.13551333" lon="-7.06357">
        <ele>900.0</ele>
        <time>2022-06-19T10:03:24.852Z</time>
      </trkpt>
      <trkpt lat="43.13551667" lon="-7.063595">
        <ele>900.0</ele>
        <time>2022-06-19T10:03:25.882Z</time>
      </trkpt>
      <trkpt lat="43.13551667" lon="-7.063595">
        <ele>900.0</ele>
        <time>2022-06-19T10:03:26.850Z</time>
      </trkpt>
      <trkpt lat="43.13551667" lon="-7.06365">
        <ele>900.0</ele>
        <time>2022-06-19T10:03:27.868Z</time>
      </trkpt>
      <trkpt lat="43.13551667" lon="-7.06365">
        <ele>900.0</ele>
        <time>2022-06-19T10:03:28.876Z</time>
      </trkpt>
      <trkpt lat="43.13552167" lon="-7.06370333">
        <ele>901.0</ele>
        <time>2022-06-19T10:03:29.866Z</time>
      </trkpt>
      <trkpt lat="43.13552167" lon="-7.06370333">
        <ele>901.0</ele>
        <time>2022-06-19T10:03:30.872Z</time>
      </trkpt>
      <trkpt lat="43.13552667" lon="-7.06375667">
        <ele>901.0</ele>
        <time>2022-06-19T10:03:31.863Z</time>
      </trkpt>
      <trkpt lat="43.13552667" lon="-7.06375667">
        <ele>901.0</ele>
        <time>2022-06-19T10:03:32.871Z</time>
      </trkpt>
      <trkpt lat="43.135525" lon="-7.063815">
        <ele>902.0</ele>
        <time>2022-06-19T10:03:33.868Z</time>
      </trkpt>
      <trkpt lat="43.135525" lon="-7.063815">
        <ele>902.0</ele>
        <time>2022-06-19T10:03:34.877Z</time>
      </trkpt>
      <trkpt lat="43.13551833" lon="-7.06387333">
        <ele>902.0</ele>
        <time>2022-06-19T10:03:35.852Z</time>
      </trkpt>
      <trkpt lat="43.13551667" lon="-7.06389833">
        <ele>902.0</ele>
        <time>2022-06-19T10:03:36.873Z</time>
      </trkpt>
      <trkpt lat="43.13551667" lon="-7.06389833">
        <ele>902.0</ele>
        <time>2022-06-19T10:03:37.883Z</time>
      </trkpt>
      <trkpt lat="43.13551167" lon="-7.06395167">
        <ele>903.0</ele>
        <time>2022-06-19T10:03:38.864Z</time>
      </trkpt>
      <trkpt lat="43.13551167" lon="-7.06395167">
        <ele>903.0</ele>
        <time>2022-06-19T10:03:39.871Z</time>
      </trkpt>
      <trkpt lat="43.13550333" lon="-7.06401167">
        <ele>903.0</ele>
        <time>2022-06-19T10:03:40.883Z</time>
      </trkpt>
      <trkpt lat="43.13550333" lon="-7.06401167">
        <ele>903.0</ele>
        <time>2022-06-19T10:03:41.849Z</time>
      </trkpt>
      <trkpt lat="43.13550167" lon="-7.064065">
        <ele>903.0</ele>
        <time>2022-06-19T10:03:42.874Z</time>
      </trkpt>
      <trkpt lat="43.13550167" lon="-7.06409167">
        <ele>903.0</ele>
        <time>2022-06-19T10:03:43.884Z</time>
      </trkpt>
      <trkpt lat="43.13550167" lon="-7.06409167">
        <ele>903.0</ele>
        <time>2022-06-19T10:03:44.857Z</time>
      </trkpt>
      <trkpt lat="43.13550167" lon="-7.06414833">
        <ele>904.0</ele>
        <time>2022-06-19T10:03:45.849Z</time>
      </trkpt>
      <trkpt lat="43.13550167" lon="-7.06417333">
        <ele>904.0</ele>
        <time>2022-06-19T10:03:46.878Z</time>
      </trkpt>
      <trkpt lat="43.13550167" lon="-7.06417333">
        <ele>904.0</ele>
        <time>2022-06-19T10:03:47.845Z</time>
      </trkpt>
      <trkpt lat="43.135505" lon="-7.064225">
        <ele>904.0</ele>
        <time>2022-06-19T10:03:48.875Z</time>
      </trkpt>
      <trkpt lat="43.135505" lon="-7.064225">
        <ele>904.0</ele>
        <time>2022-06-19T10:03:49.847Z</time>
      </trkpt>
      <trkpt lat="43.13550667" lon="-7.06427667">
        <ele>904.0</ele>
        <time>2022-06-19T10:03:50.872Z</time>
      </trkpt>
      <trkpt lat="43.13550667" lon="-7.06427667">
        <ele>904.0</ele>
        <time>2022-06-19T10:03:51.880Z</time>
      </trkpt>
      <trkpt lat="43.13550167" lon="-7.06432833">
        <ele>905.0</ele>
        <time>2022-06-19T10:03:52.858Z</time>
      </trkpt>
      <trkpt lat="43.13549833" lon="-7.064355">
        <ele>905.0</ele>
        <time>2022-06-19T10:03:53.874Z</time>
      </trkpt>
      <trkpt lat="43.13549833" lon="-7.064355">
        <ele>905.0</ele>
        <time>2022-06-19T10:03:54.882Z</time>
      </trkpt>
      <trkpt lat="43.13549667" lon="-7.06441">
        <ele>905.0</ele>
        <time>2022-06-19T10:03:55.862Z</time>
      </trkpt>
      <trkpt lat="43.13549667" lon="-7.06441">
        <ele>905.0</ele>
        <time>2022-06-19T10:03:56.880Z</time>
      </trkpt>
      <trkpt lat="43.13548667" lon="-7.06446667">
        <ele>905.0</ele>
        <time>2022-06-19T10:03:57.870Z</time>
      </trkpt>
      <trkpt lat="43.13548667" lon="-7.06446667">
        <ele>905.0</ele>
        <time>2022-06-19T10:03:58.877Z</time>
      </trkpt>
      <trkpt lat="43.13547667" lon="-7.06452333">
        <ele>905.0</ele>
        <time>2022-06-19T10:03:59.867Z</time>
      </trkpt>
      <trkpt lat="43.13547667" lon="-7.06455">
        <ele>906.0</ele>
        <time>2022-06-19T10:04:00.881Z</time>
      </trkpt>
      <trkpt lat="43.13547667" lon="-7.06455">
        <ele>906.0</ele>
        <time>2022-06-19T10:04:01.848Z</time>
      </trkpt>
      <trkpt lat="43.13547" lon="-7.06460333">
        <ele>906.0</ele>
        <time>2022-06-19T10:04:02.871Z</time>
      </trkpt>
      <trkpt lat="43.13547" lon="-7.06460333">
        <ele>906.0</ele>
        <time>2022-06-19T10:04:03.844Z</time>
      </trkpt>
      <trkpt lat="43.13546333" lon="-7.06465167">
        <ele>906.0</ele>
        <time>2022-06-19T10:04:04.864Z</time>
      </trkpt>
      <trkpt lat="43.13546167" lon="-7.06467667">
        <ele>906.0</ele>
        <time>2022-06-19T10:04:05.847Z</time>
      </trkpt>
      <trkpt lat="43.13546167" lon="-7.06467667">
        <ele>906.0</ele>
        <time>2022-06-19T10:04:06.854Z</time>
      </trkpt>
      <trkpt lat="43.13546" lon="-7.06472833">
        <ele>906.0</ele>
        <time>2022-06-19T10:04:07.844Z</time>
      </trkpt>
      <trkpt lat="43.13546" lon="-7.06472833">
        <ele>906.0</ele>
        <time>2022-06-19T10:04:08.851Z</time>
      </trkpt>
      <trkpt lat="43.13546" lon="-7.06477833">
        <ele>906.0</ele>
        <time>2022-06-19T10:04:09.849Z</time>
      </trkpt>
      <trkpt lat="43.13546" lon="-7.06477833">
        <ele>906.0</ele>
        <time>2022-06-19T10:04:10.856Z</time>
      </trkpt>
      <trkpt lat="43.13546" lon="-7.06482833">
        <ele>906.0</ele>
        <time>2022-06-19T10:04:11.880Z</time>
      </trkpt>
      <trkpt lat="43.13545667" lon="-7.064855">
        <ele>907.0</ele>
        <time>2022-06-19T10:04:12.865Z</time>
      </trkpt>
      <trkpt lat="43.135455" lon="-7.06488">
        <ele>907.0</ele>
        <time>2022-06-19T10:04:13.883Z</time>
      </trkpt>
      <trkpt lat="43.135455" lon="-7.06488">
        <ele>907.0</ele>
        <time>2022-06-19T10:04:14.850Z</time>
      </trkpt>
      <trkpt lat="43.13544167" lon="-7.06492667">
        <ele>907.0</ele>
        <time>2022-06-19T10:04:15.974Z</time>
      </trkpt>
      <trkpt lat="43.13544167" lon="-7.06492667">
        <ele>907.0</ele>
        <time>2022-06-19T10:04:16.858Z</time>
      </trkpt>
      <trkpt lat="43.13543333" lon="-7.064975">
        <ele>907.0</ele>
        <time>2022-06-19T10:04:17.846Z</time>
      </trkpt>
      <trkpt lat="43.13543333" lon="-7.064975">
        <ele>907.0</ele>
        <time>2022-06-19T10:04:18.854Z</time>
      </trkpt>
      <trkpt lat="43.13542667" lon="-7.06502833">
        <ele>907.0</ele>
        <time>2022-06-19T10:04:19.867Z</time>
      </trkpt>
      <trkpt lat="43.13542667" lon="-7.06502833">
        <ele>907.0</ele>
        <time>2022-06-19T10:04:20.875Z</time>
      </trkpt>
      <trkpt lat="43.13541833" lon="-7.065075">
        <ele>908.0</ele>
        <time>2022-06-19T10:04:21.860Z</time>
      </trkpt>
      <trkpt lat="43.13541833" lon="-7.065075">
        <ele>908.0</ele>
        <time>2022-06-19T10:04:22.867Z</time>
      </trkpt>
      <trkpt lat="43.13541167" lon="-7.06512667">
        <ele>908.0</ele>
        <time>2022-06-19T10:04:23.852Z</time>
      </trkpt>
      <trkpt lat="43.13541167" lon="-7.06512667">
        <ele>908.0</ele>
        <time>2022-06-19T10:04:24.858Z</time>
      </trkpt>
      <trkpt lat="43.13540167" lon="-7.06519667">
        <ele>908.0</ele>
        <time>2022-06-19T10:04:25.883Z</time>
      </trkpt>
      <trkpt lat="43.13540167" lon="-7.06519667">
        <ele>908.0</ele>
        <time>2022-06-19T10:04:26.855Z</time>
      </trkpt>
      <trkpt lat="43.13539167" lon="-7.06525833">
        <ele>908.0</ele>
        <time>2022-06-19T10:04:27.883Z</time>
      </trkpt>
      <trkpt lat="43.13539167" lon="-7.06525833">
        <ele>908.0</ele>
        <time>2022-06-19T10:04:28.849Z</time>
      </trkpt>
      <trkpt lat="43.135375" lon="-7.06532333">
        <ele>908.0</ele>
        <time>2022-06-19T10:04:29.873Z</time>
      </trkpt>
      <trkpt lat="43.135375" lon="-7.06532333">
        <ele>908.0</ele>
        <time>2022-06-19T10:04:30.882Z</time>
      </trkpt>
      <trkpt lat="43.13535833" lon="-7.06539667">
        <ele>908.0</ele>
        <time>2022-06-19T10:04:31.858Z</time>
      </trkpt>
      <trkpt lat="43.13535833" lon="-7.06539667">
        <ele>908.0</ele>
        <time>2022-06-19T10:04:32.869Z</time>
      </trkpt>
      <trkpt lat="43.13534" lon="-7.06546667">
        <ele>908.0</ele>
        <time>2022-06-19T10:04:33.853Z</time>
      </trkpt>
      <trkpt lat="43.13534" lon="-7.06546667">
        <ele>908.0</ele>
        <time>2022-06-19T10:04:34.859Z</time>
      </trkpt>
      <trkpt lat="43.13533333" lon="-7.06553">
        <ele>908.0</ele>
        <time>2022-06-19T10:04:35.849Z</time>
      </trkpt>
      <trkpt lat="43.13533333" lon="-7.06553">
        <ele>908.0</ele>
        <time>2022-06-19T10:04:36.856Z</time>
      </trkpt>
      <trkpt lat="43.135355" lon="-7.06557667">
        <ele>908.0</ele>
        <time>2022-06-19T10:04:37.853Z</time>
      </trkpt>
      <trkpt lat="43.135355" lon="-7.06557667">
        <ele>908.0</ele>
        <time>2022-06-19T10:04:38.859Z</time>
      </trkpt>
      <trkpt lat="43.13538167" lon="-7.06561667">
        <ele>908.0</ele>
        <time>2022-06-19T10:04:39.875Z</time>
      </trkpt>
      <trkpt lat="43.13539833" lon="-7.06563667">
        <ele>908.0</ele>
        <time>2022-06-19T10:04:40.863Z</time>
      </trkpt>
      <trkpt lat="43.13541167" lon="-7.06566">
        <ele>908.0</ele>
        <time>2022-06-19T10:04:41.853Z</time>
      </trkpt>
      <trkpt lat="43.13542667" lon="-7.06569167">
        <ele>908.0</ele>
        <time>2022-06-19T10:04:42.881Z</time>
      </trkpt>
      <trkpt lat="43.13542667" lon="-7.06569167">
        <ele>908.0</ele>
        <time>2022-06-19T10:04:43.848Z</time>
      </trkpt>
      <trkpt lat="43.13545833" lon="-7.06576833">
        <ele>908.0</ele>
        <time>2022-06-19T10:04:44.881Z</time>
      </trkpt>
      <trkpt lat="43.13545833" lon="-7.06576833">
        <ele>908.0</ele>
        <time>2022-06-19T10:04:45.847Z</time>
      </trkpt>
      <trkpt lat="43.13546833" lon="-7.065855">
        <ele>907.0</ele>
        <time>2022-06-19T10:04:46.852Z</time>
      </trkpt>
      <trkpt lat="43.13547667" lon="-7.06591">
        <ele>907.0</ele>
        <time>2022-06-19T10:04:47.848Z</time>
      </trkpt>
      <trkpt lat="43.13547667" lon="-7.06591">
        <ele>907.0</ele>
        <time>2022-06-19T10:04:48.854Z</time>
      </trkpt>
      <trkpt lat="43.1355" lon="-7.06599333">
        <ele>907.0</ele>
        <time>2022-06-19T10:04:49.873Z</time>
      </trkpt>
      <trkpt lat="43.1355" lon="-7.06599333">
        <ele>907.0</ele>
        <time>2022-06-19T10:04:50.882Z</time>
      </trkpt>
      <trkpt lat="43.13552667" lon="-7.06608">
        <ele>906.0</ele>
        <time>2022-06-19T10:04:51.867Z</time>
      </trkpt>
      <trkpt lat="43.13552667" lon="-7.06608">
        <ele>906.0</ele>
        <time>2022-06-19T10:04:52.873Z</time>
      </trkpt>
      <trkpt lat="43.13555667" lon="-7.06615333">
        <ele>906.0</ele>
        <time>2022-06-19T10:04:53.862Z</time>
      </trkpt>
      <trkpt lat="43.13555667" lon="-7.06615333">
        <ele>906.0</ele>
        <time>2022-06-19T10:04:54.868Z</time>
      </trkpt>
      <trkpt lat="43.13558833" lon="-7.066215">
        <ele>905.0</ele>
        <time>2022-06-19T10:04:55.875Z</time>
      </trkpt>
      <trkpt lat="43.13558833" lon="-7.066215">
        <ele>905.0</ele>
        <time>2022-06-19T10:04:56.879Z</time>
      </trkpt>
      <trkpt lat="43.13559667" lon="-7.06630167">
        <ele>905.0</ele>
        <time>2022-06-19T10:04:57.863Z</time>
      </trkpt>
      <trkpt lat="43.13559667" lon="-7.06630167">
        <ele>905.0</ele>
        <time>2022-06-19T10:04:58.869Z</time>
      </trkpt>
      <trkpt lat="43.135615" lon="-7.06640333">
        <ele>904.0</ele>
        <time>2022-06-19T10:04:59.849Z</time>
      </trkpt>
      <trkpt lat="43.13563167" lon="-7.06645833">
        <ele>904.0</ele>
        <time>2022-06-19T10:05:00.867Z</time>
      </trkpt>
      <trkpt lat="43.13564167" lon="-7.06651">
        <ele>904.0</ele>
        <time>2022-06-19T10:05:01.847Z</time>
      </trkpt>
      <trkpt lat="43.13564167" lon="-7.06651">
        <ele>904.0</ele>
        <time>2022-06-19T10:05:02.854Z</time>
      </trkpt>
      <trkpt lat="43.13565167" lon="-7.06660167">
        <ele>903.0</ele>
        <time>2022-06-19T10:05:03.880Z</time>
      </trkpt>
      <trkpt lat="43.13565" lon="-7.06664667">
        <ele>903.0</ele>
        <time>2022-06-19T10:05:04.866Z</time>
      </trkpt>
      <trkpt lat="43.13565" lon="-7.06664667">
        <ele>903.0</ele>
        <time>2022-06-19T10:05:05.872Z</time>
      </trkpt>
      <trkpt lat="43.13565667" lon="-7.066745">
        <ele>903.0</ele>
        <time>2022-06-19T10:05:06.864Z</time>
      </trkpt>
      <trkpt lat="43.135665" lon="-7.06679333">
        <ele>903.0</ele>
        <time>2022-06-19T10:05:07.849Z</time>
      </trkpt>
      <trkpt lat="43.135665" lon="-7.06679333">
        <ele>903.0</ele>
        <time>2022-06-19T10:05:08.856Z</time>
      </trkpt>
      <trkpt lat="43.13566833" lon="-7.066885">
        <ele>902.0</ele>
        <time>2022-06-19T10:05:09.883Z</time>
      </trkpt>
      <trkpt lat="43.13566833" lon="-7.066885">
        <ele>902.0</ele>
        <time>2022-06-19T10:05:10.852Z</time>
      </trkpt>
      <trkpt lat="43.13566333" lon="-7.06699833">
        <ele>902.0</ele>
        <time>2022-06-19T10:05:11.872Z</time>
      </trkpt>
      <trkpt lat="43.13566333" lon="-7.06699833">
        <ele>902.0</ele>
        <time>2022-06-19T10:05:12.880Z</time>
      </trkpt>
      <trkpt lat="43.13565167" lon="-7.06707667">
        <ele>902.0</ele>
        <time>2022-06-19T10:05:13.870Z</time>
      </trkpt>
      <trkpt lat="43.13565167" lon="-7.06707667">
        <ele>902.0</ele>
        <time>2022-06-19T10:05:14.878Z</time>
      </trkpt>
      <trkpt lat="43.13564" lon="-7.06712833">
        <ele>901.0</ele>
        <time>2022-06-19T10:05:15.862Z</time>
      </trkpt>
      <trkpt lat="43.13564" lon="-7.06712833">
        <ele>901.0</ele>
        <time>2022-06-19T10:05:16.868Z</time>
      </trkpt>
      <trkpt lat="43.13564167" lon="-7.06720833">
        <ele>901.0</ele>
        <time>2022-06-19T10:05:17.847Z</time>
      </trkpt>
      <trkpt lat="43.13564167" lon="-7.06720833">
        <ele>901.0</ele>
        <time>2022-06-19T10:05:18.854Z</time>
      </trkpt>
      <trkpt lat="43.135615" lon="-7.06732167">
        <ele>900.0</ele>
        <time>2022-06-19T10:05:19.876Z</time>
      </trkpt>
      <trkpt lat="43.13559833" lon="-7.06738167">
        <ele>900.0</ele>
        <time>2022-06-19T10:05:20.865Z</time>
      </trkpt>
      <trkpt lat="43.13559833" lon="-7.06738167">
        <ele>900.0</ele>
        <time>2022-06-19T10:05:21.871Z</time>
      </trkpt>
      <trkpt lat="43.13557167" lon="-7.06749">
        <ele>899.0</ele>
        <time>2022-06-19T10:05:22.867Z</time>
      </trkpt>
      <trkpt lat="43.13557167" lon="-7.06749">
        <ele>899.0</ele>
        <time>2022-06-19T10:05:23.874Z</time>
      </trkpt>
      <trkpt lat="43.13553333" lon="-7.06758">
        <ele>899.0</ele>
        <time>2022-06-19T10:05:24.863Z</time>
      </trkpt>
      <trkpt lat="43.13551833" lon="-7.06761667">
        <ele>898.0</ele>
        <time>2022-06-19T10:05:25.846Z</time>
      </trkpt>
      <trkpt lat="43.13551833" lon="-7.06761667">
        <ele>898.0</ele>
        <time>2022-06-19T10:05:26.853Z</time>
      </trkpt>
      <trkpt lat="43.13548333" lon="-7.06769833">
        <ele>897.0</ele>
        <time>2022-06-19T10:05:27.844Z</time>
      </trkpt>
      <trkpt lat="43.13548333" lon="-7.06769833">
        <ele>897.0</ele>
        <time>2022-06-19T10:05:28.849Z</time>
      </trkpt>
      <trkpt lat="43.13543333" lon="-7.06779">
        <ele>896.0</ele>
        <time>2022-06-19T10:05:29.857Z</time>
      </trkpt>
      <trkpt lat="43.13541167" lon="-7.06783167">
        <ele>896.0</ele>
        <time>2022-06-19T10:05:30.855Z</time>
      </trkpt>
      <trkpt lat="43.13541167" lon="-7.06783167">
        <ele>896.0</ele>
        <time>2022-06-19T10:05:31.862Z</time>
      </trkpt>
      <trkpt lat="43.13538167" lon="-7.067925">
        <ele>896.0</ele>
        <time>2022-06-19T10:05:32.883Z</time>
      </trkpt>
      <trkpt lat="43.13535333" lon="-7.06798667">
        <ele>895.0</ele>
        <time>2022-06-19T10:05:33.882Z</time>
      </trkpt>
      <trkpt lat="43.13535333" lon="-7.06798667">
        <ele>895.0</ele>
        <time>2022-06-19T10:05:34.849Z</time>
      </trkpt>
      <trkpt lat="43.13531833" lon="-7.06807167">
        <ele>894.0</ele>
        <time>2022-06-19T10:05:35.865Z</time>
      </trkpt>
      <trkpt lat="43.13531833" lon="-7.06807167">
        <ele>894.0</ele>
        <time>2022-06-19T10:05:36.875Z</time>
      </trkpt>
      <trkpt lat="43.13528167" lon="-7.06815667">
        <ele>893.0</ele>
        <time>2022-06-19T10:05:37.860Z</time>
      </trkpt>
      <trkpt lat="43.13528167" lon="-7.06815667">
        <ele>893.0</ele>
        <time>2022-06-19T10:05:38.868Z</time>
      </trkpt>
      <trkpt lat="43.13522667" lon="-7.06824167">
        <ele>893.0</ele>
        <time>2022-06-19T10:05:39.870Z</time>
      </trkpt>
      <trkpt lat="43.13522667" lon="-7.06824167">
        <ele>893.0</ele>
        <time>2022-06-19T10:05:40.877Z</time>
      </trkpt>
      <trkpt lat="43.135175" lon="-7.06833">
        <ele>891.0</ele>
        <time>2022-06-19T10:05:41.870Z</time>
      </trkpt>
      <trkpt lat="43.135155" lon="-7.068365">
        <ele>891.0</ele>
        <time>2022-06-19T10:05:42.857Z</time>
      </trkpt>
      <trkpt lat="43.13513833" lon="-7.068395">
        <ele>890.0</ele>
        <time>2022-06-19T10:05:43.852Z</time>
      </trkpt>
      <trkpt lat="43.13513833" lon="-7.068395">
        <ele>890.0</ele>
        <time>2022-06-19T10:05:44.860Z</time>
      </trkpt>
      <trkpt lat="43.135095" lon="-7.06844667">
        <ele>890.0</ele>
        <time>2022-06-19T10:05:45.854Z</time>
      </trkpt>
      <trkpt lat="43.135095" lon="-7.06844667">
        <ele>890.0</ele>
        <time>2022-06-19T10:05:46.862Z</time>
      </trkpt>
      <trkpt lat="43.13504667" lon="-7.06849333">
        <ele>889.0</ele>
        <time>2022-06-19T10:05:47.850Z</time>
      </trkpt>
      <trkpt lat="43.13504667" lon="-7.06849333">
        <ele>889.0</ele>
        <time>2022-06-19T10:05:48.857Z</time>
      </trkpt>
      <trkpt lat="43.13498833" lon="-7.06854667">
        <ele>889.0</ele>
        <time>2022-06-19T10:05:49.876Z</time>
      </trkpt>
      <trkpt lat="43.13498833" lon="-7.06854667">
        <ele>889.0</ele>
        <time>2022-06-19T10:05:50.883Z</time>
      </trkpt>
      <trkpt lat="43.13493667" lon="-7.06858333">
        <ele>888.0</ele>
        <time>2022-06-19T10:05:51.882Z</time>
      </trkpt>
      <trkpt lat="43.13493667" lon="-7.06858333">
        <ele>888.0</ele>
        <time>2022-06-19T10:05:52.850Z</time>
      </trkpt>
      <trkpt lat="43.134905" lon="-7.068615">
        <ele>888.0</ele>
        <time>2022-06-19T10:05:53.870Z</time>
      </trkpt>
      <trkpt lat="43.134905" lon="-7.068615">
        <ele>888.0</ele>
        <time>2022-06-19T10:05:54.880Z</time>
      </trkpt>
      <trkpt lat="43.13486333" lon="-7.06865333">
        <ele>888.0</ele>
        <time>2022-06-19T10:05:55.844Z</time>
      </trkpt>
      <trkpt lat="43.13486333" lon="-7.06865333">
        <ele>888.0</ele>
        <time>2022-06-19T10:05:56.872Z</time>
      </trkpt>
      <trkpt lat="43.13482833" lon="-7.068685">
        <ele>888.0</ele>
        <time>2022-06-19T10:05:57.853Z</time>
      </trkpt>
      <trkpt lat="43.13482833" lon="-7.068685">
        <ele>888.0</ele>
        <time>2022-06-19T10:05:58.860Z</time>
      </trkpt>
      <trkpt lat="43.13478333" lon="-7.06872167">
        <ele>888.0</ele>
        <time>2022-06-19T10:05:59.882Z</time>
      </trkpt>
      <trkpt lat="43.13476167" lon="-7.06874">
        <ele>888.0</ele>
        <time>2022-06-19T10:06:00.868Z</time>
      </trkpt>
      <trkpt lat="43.13476167" lon="-7.06874">
        <ele>888.0</ele>
        <time>2022-06-19T10:06:01.877Z</time>
      </trkpt>
      <trkpt lat="43.134735" lon="-7.06877333">
        <ele>888.0</ele>
        <time>2022-06-19T10:06:02.851Z</time>
      </trkpt>
      <trkpt lat="43.134735" lon="-7.06877333">
        <ele>888.0</ele>
        <time>2022-06-19T10:06:03.858Z</time>
      </trkpt>
      <trkpt lat="43.13470833" lon="-7.06881667">
        <ele>888.0</ele>
        <time>2022-06-19T10:06:04.850Z</time>
      </trkpt>
      <trkpt lat="43.13470833" lon="-7.06881667">
        <ele>888.0</ele>
        <time>2022-06-19T10:06:05.856Z</time>
      </trkpt>
      <trkpt lat="43.13469" lon="-7.06886167">
        <ele>888.0</ele>
        <time>2022-06-19T10:06:06.858Z</time>
      </trkpt>
      <trkpt lat="43.13468" lon="-7.06888667">
        <ele>888.0</ele>
        <time>2022-06-19T10:06:07.883Z</time>
      </trkpt>
      <trkpt lat="43.13468" lon="-7.06888667">
        <ele>888.0</ele>
        <time>2022-06-19T10:06:08.849Z</time>
      </trkpt>
      <trkpt lat="43.13466667" lon="-7.06893">
        <ele>888.0</ele>
        <time>2022-06-19T10:06:09.871Z</time>
      </trkpt>
      <trkpt lat="43.13466667" lon="-7.06893">
        <ele>888.0</ele>
        <time>2022-06-19T10:06:10.878Z</time>
      </trkpt>
      <trkpt lat="43.13464833" lon="-7.06896833">
        <ele>889.0</ele>
        <time>2022-06-19T10:06:11.857Z</time>
      </trkpt>
      <trkpt lat="43.13464833" lon="-7.06896833">
        <ele>889.0</ele>
        <time>2022-06-19T10:06:12.865Z</time>
      </trkpt>
      <trkpt lat="43.13463167" lon="-7.06901167">
        <ele>889.0</ele>
        <time>2022-06-19T10:06:13.851Z</time>
      </trkpt>
      <trkpt lat="43.13463167" lon="-7.06901167">
        <ele>889.0</ele>
        <time>2022-06-19T10:06:14.857Z</time>
      </trkpt>
      <trkpt lat="43.13461333" lon="-7.06905333">
        <ele>889.0</ele>
        <time>2022-06-19T10:06:15.881Z</time>
      </trkpt>
      <trkpt lat="43.13461333" lon="-7.06905333">
        <ele>889.0</ele>
        <time>2022-06-19T10:06:16.848Z</time>
      </trkpt>
      <trkpt lat="43.13458" lon="-7.06908667">
        <ele>889.0</ele>
        <time>2022-06-19T10:06:17.871Z</time>
      </trkpt>
      <trkpt lat="43.13458" lon="-7.06908667">
        <ele>889.0</ele>
        <time>2022-06-19T10:06:18.879Z</time>
      </trkpt>
      <trkpt lat="43.134545" lon="-7.06911667">
        <ele>890.0</ele>
        <time>2022-06-19T10:06:19.873Z</time>
      </trkpt>
      <trkpt lat="43.134545" lon="-7.06911667">
        <ele>890.0</ele>
        <time>2022-06-19T10:06:20.881Z</time>
      </trkpt>
      <trkpt lat="43.13451833" lon="-7.06914667">
        <ele>890.0</ele>
        <time>2022-06-19T10:06:21.858Z</time>
      </trkpt>
      <trkpt lat="43.13451833" lon="-7.06914667">
        <ele>890.0</ele>
        <time>2022-06-19T10:06:22.865Z</time>
      </trkpt>
      <trkpt lat="43.13448167" lon="-7.06917667">
        <ele>890.0</ele>
        <time>2022-06-19T10:06:23.846Z</time>
      </trkpt>
      <trkpt lat="43.13448167" lon="-7.06917667">
        <ele>890.0</ele>
        <time>2022-06-19T10:06:24.852Z</time>
      </trkpt>
      <trkpt lat="43.13445833" lon="-7.069215">
        <ele>890.0</ele>
        <time>2022-06-19T10:06:25.855Z</time>
      </trkpt>
      <trkpt lat="43.13445833" lon="-7.069215">
        <ele>890.0</ele>
        <time>2022-06-19T10:06:26.862Z</time>
      </trkpt>
      <trkpt lat="43.13444167" lon="-7.06924667">
        <ele>891.0</ele>
        <time>2022-06-19T10:06:27.880Z</time>
      </trkpt>
      <trkpt lat="43.13444167" lon="-7.06924667">
        <ele>891.0</ele>
        <time>2022-06-19T10:06:28.859Z</time>
      </trkpt>
      <trkpt lat="43.13442667" lon="-7.069275">
        <ele>891.0</ele>
        <time>2022-06-19T10:06:29.845Z</time>
      </trkpt>
      <trkpt lat="43.13442667" lon="-7.069275">
        <ele>891.0</ele>
        <time>2022-06-19T10:06:30.851Z</time>
      </trkpt>
      <trkpt lat="43.13438667" lon="-7.06931167">
        <ele>891.0</ele>
        <time>2022-06-19T10:06:31.847Z</time>
      </trkpt>
      <trkpt lat="43.13438667" lon="-7.06931167">
        <ele>891.0</ele>
        <time>2022-06-19T10:06:32.855Z</time>
      </trkpt>
      <trkpt lat="43.13435667" lon="-7.06934833">
        <ele>892.0</ele>
        <time>2022-06-19T10:06:33.873Z</time>
      </trkpt>
      <trkpt lat="43.13434" lon="-7.06936167">
        <ele>892.0</ele>
        <time>2022-06-19T10:06:34.857Z</time>
      </trkpt>
      <trkpt lat="43.13434" lon="-7.06936167">
        <ele>892.0</ele>
        <time>2022-06-19T10:06:35.863Z</time>
      </trkpt>
      <trkpt lat="43.13430667" lon="-7.06939333">
        <ele>893.0</ele>
        <time>2022-06-19T10:06:36.847Z</time>
      </trkpt>
      <trkpt lat="43.13429167" lon="-7.06941333">
        <ele>893.0</ele>
        <time>2022-06-19T10:06:37.867Z</time>
      </trkpt>
      <trkpt lat="43.13429167" lon="-7.06941333">
        <ele>893.0</ele>
        <time>2022-06-19T10:06:38.874Z</time>
      </trkpt>
      <trkpt lat="43.134265" lon="-7.06945167">
        <ele>893.0</ele>
        <time>2022-06-19T10:06:39.854Z</time>
      </trkpt>
      <trkpt lat="43.134265" lon="-7.06945167">
        <ele>893.0</ele>
        <time>2022-06-19T10:06:40.862Z</time>
      </trkpt>
      <trkpt lat="43.13423667" lon="-7.06948">
        <ele>894.0</ele>
        <time>2022-06-19T10:06:41.845Z</time>
      </trkpt>
      <trkpt lat="43.13423667" lon="-7.06948">
        <ele>894.0</ele>
        <time>2022-06-19T10:06:42.853Z</time>
      </trkpt>
      <trkpt lat="43.13421" lon="-7.06952167">
        <ele>894.0</ele>
        <time>2022-06-19T10:06:43.847Z</time>
      </trkpt>
      <trkpt lat="43.13421" lon="-7.06952167">
        <ele>894.0</ele>
        <time>2022-06-19T10:06:44.854Z</time>
      </trkpt>
      <trkpt lat="43.13418333" lon="-7.06956">
        <ele>895.0</ele>
        <time>2022-06-19T10:06:45.853Z</time>
      </trkpt>
      <trkpt lat="43.13418333" lon="-7.06956">
        <ele>895.0</ele>
        <time>2022-06-19T10:06:46.858Z</time>
      </trkpt>
      <trkpt lat="43.13414833" lon="-7.0696">
        <ele>896.0</ele>
        <time>2022-06-19T10:06:47.844Z</time>
      </trkpt>
      <trkpt lat="43.13414833" lon="-7.0696">
        <ele>896.0</ele>
        <time>2022-06-19T10:06:48.850Z</time>
      </trkpt>
      <trkpt lat="43.13411333" lon="-7.06964333">
        <ele>896.0</ele>
        <time>2022-06-19T10:06:49.880Z</time>
      </trkpt>
      <trkpt lat="43.13410167" lon="-7.06967833">
        <ele>896.0</ele>
        <time>2022-06-19T10:06:50.866Z</time>
      </trkpt>
      <trkpt lat="43.13409167" lon="-7.069705">
        <ele>897.0</ele>
        <time>2022-06-19T10:06:51.883Z</time>
      </trkpt>
      <trkpt lat="43.13409167" lon="-7.069705">
        <ele>897.0</ele>
        <time>2022-06-19T10:06:52.849Z</time>
      </trkpt>
      <trkpt lat="43.13406667" lon="-7.06975333">
        <ele>897.0</ele>
        <time>2022-06-19T10:06:53.846Z</time>
      </trkpt>
      <trkpt lat="43.13406667" lon="-7.06975333">
        <ele>897.0</ele>
        <time>2022-06-19T10:06:54.853Z</time>
      </trkpt>
      <trkpt lat="43.13403333" lon="-7.06978667">
        <ele>898.0</ele>
        <time>2022-06-19T10:06:55.879Z</time>
      </trkpt>
      <trkpt lat="43.13403333" lon="-7.06978667">
        <ele>898.0</ele>
        <time>2022-06-19T10:06:56.877Z</time>
      </trkpt>
      <trkpt lat="43.134005" lon="-7.06981833">
        <ele>899.0</ele>
        <time>2022-06-19T10:06:57.862Z</time>
      </trkpt>
      <trkpt lat="43.13399" lon="-7.069835">
        <ele>899.0</ele>
        <time>2022-06-19T10:06:58.847Z</time>
      </trkpt>
      <trkpt lat="43.13399" lon="-7.069835">
        <ele>899.0</ele>
        <time>2022-06-19T10:06:59.854Z</time>
      </trkpt>
      <trkpt lat="43.13397167" lon="-7.06987">
        <ele>900.0</ele>
        <time>2022-06-19T10:07:00.876Z</time>
      </trkpt>
      <trkpt lat="43.13395667" lon="-7.069885">
        <ele>900.0</ele>
        <time>2022-06-19T10:07:01.866Z</time>
      </trkpt>
      <trkpt lat="43.13395667" lon="-7.069885">
        <ele>900.0</ele>
        <time>2022-06-19T10:07:02.872Z</time>
      </trkpt>
      <trkpt lat="43.13393667" lon="-7.06990833">
        <ele>901.0</ele>
        <time>2022-06-19T10:07:03.911Z</time>
      </trkpt>
      <trkpt lat="43.13393667" lon="-7.06990833">
        <ele>901.0</ele>
        <time>2022-06-19T10:07:04.868Z</time>
      </trkpt>
      <trkpt lat="43.13391" lon="-7.06992667">
        <ele>902.0</ele>
        <time>2022-06-19T10:07:05.856Z</time>
      </trkpt>
      <trkpt lat="43.13391" lon="-7.06992667">
        <ele>902.0</ele>
        <time>2022-06-19T10:07:06.863Z</time>
      </trkpt>
      <trkpt lat="43.13388" lon="-7.06995167">
        <ele>903.0</ele>
        <time>2022-06-19T10:07:07.879Z</time>
      </trkpt>
      <trkpt lat="43.13388" lon="-7.06995167">
        <ele>903.0</ele>
        <time>2022-06-19T10:07:08.847Z</time>
      </trkpt>
      <trkpt lat="43.133855" lon="-7.06997">
        <ele>904.0</ele>
        <time>2022-06-19T10:07:09.881Z</time>
      </trkpt>
      <trkpt lat="43.133855" lon="-7.06997">
        <ele>904.0</ele>
        <time>2022-06-19T10:07:10.849Z</time>
      </trkpt>
      <trkpt lat="43.13382333" lon="-7.06999667">
        <ele>904.0</ele>
        <time>2022-06-19T10:07:11.867Z</time>
      </trkpt>
      <trkpt lat="43.13380833" lon="-7.07001">
        <ele>905.0</ele>
        <time>2022-06-19T10:07:12.847Z</time>
      </trkpt>
      <trkpt lat="43.13380833" lon="-7.07001">
        <ele>905.0</ele>
        <time>2022-06-19T10:07:13.854Z</time>
      </trkpt>
      <trkpt lat="43.13378333" lon="-7.07003167">
        <ele>905.0</ele>
        <time>2022-06-19T10:07:14.881Z</time>
      </trkpt>
      <trkpt lat="43.13377167" lon="-7.07004333">
        <ele>905.0</ele>
        <time>2022-06-19T10:07:15.866Z</time>
      </trkpt>
      <trkpt lat="43.13377167" lon="-7.07004333">
        <ele>905.0</ele>
        <time>2022-06-19T10:07:16.874Z</time>
      </trkpt>
      <trkpt lat="43.13373667" lon="-7.07006667">
        <ele>906.0</ele>
        <time>2022-06-19T10:07:17.849Z</time>
      </trkpt>
      <trkpt lat="43.13373667" lon="-7.07006667">
        <ele>906.0</ele>
        <time>2022-06-19T10:07:18.861Z</time>
      </trkpt>
      <trkpt lat="43.13370167" lon="-7.07009">
        <ele>907.0</ele>
        <time>2022-06-19T10:07:19.848Z</time>
      </trkpt>
      <trkpt lat="43.13370167" lon="-7.07009">
        <ele>907.0</ele>
        <time>2022-06-19T10:07:20.855Z</time>
      </trkpt>
      <trkpt lat="43.13368167" lon="-7.07011">
        <ele>908.0</ele>
        <time>2022-06-19T10:07:21.873Z</time>
      </trkpt>
      <trkpt lat="43.13367" lon="-7.07012333">
        <ele>908.0</ele>
        <time>2022-06-19T10:07:22.869Z</time>
      </trkpt>
      <trkpt lat="43.13367" lon="-7.07012333">
        <ele>908.0</ele>
        <time>2022-06-19T10:07:23.877Z</time>
      </trkpt>
      <trkpt lat="43.13363167" lon="-7.07015">
        <ele>908.0</ele>
        <time>2022-06-19T10:07:24.846Z</time>
      </trkpt>
      <trkpt lat="43.13363167" lon="-7.07015">
        <ele>908.0</ele>
        <time>2022-06-19T10:07:25.854Z</time>
      </trkpt>
      <trkpt lat="43.133585" lon="-7.07018167">
        <ele>909.0</ele>
        <time>2022-06-19T10:07:26.872Z</time>
      </trkpt>
      <trkpt lat="43.133585" lon="-7.07018167">
        <ele>909.0</ele>
        <time>2022-06-19T10:07:27.880Z</time>
      </trkpt>
      <trkpt lat="43.13355" lon="-7.07020833">
        <ele>909.0</ele>
        <time>2022-06-19T10:07:28.858Z</time>
      </trkpt>
      <trkpt lat="43.13355" lon="-7.07020833">
        <ele>909.0</ele>
        <time>2022-06-19T10:07:29.865Z</time>
      </trkpt>
      <trkpt lat="43.13350833" lon="-7.07024167">
        <ele>909.0</ele>
        <time>2022-06-19T10:07:30.857Z</time>
      </trkpt>
      <trkpt lat="43.13350833" lon="-7.07024167">
        <ele>909.0</ele>
        <time>2022-06-19T10:07:31.869Z</time>
      </trkpt>
      <trkpt lat="43.13346" lon="-7.07026667">
        <ele>909.0</ele>
        <time>2022-06-19T10:07:32.851Z</time>
      </trkpt>
      <trkpt lat="43.13346" lon="-7.07026667">
        <ele>909.0</ele>
        <time>2022-06-19T10:07:33.883Z</time>
      </trkpt>
      <trkpt lat="43.133425" lon="-7.07029667">
        <ele>910.0</ele>
        <time>2022-06-19T10:07:34.869Z</time>
      </trkpt>
      <trkpt lat="43.133405" lon="-7.07031">
        <ele>910.0</ele>
        <time>2022-06-19T10:07:35.860Z</time>
      </trkpt>
      <trkpt lat="43.133405" lon="-7.07031">
        <ele>910.0</ele>
        <time>2022-06-19T10:07:36.867Z</time>
      </trkpt>
      <trkpt lat="43.13336667" lon="-7.07033667">
        <ele>910.0</ele>
        <time>2022-06-19T10:07:37.853Z</time>
      </trkpt>
      <trkpt lat="43.13336667" lon="-7.07033667">
        <ele>910.0</ele>
        <time>2022-06-19T10:07:38.860Z</time>
      </trkpt>
      <trkpt lat="43.13333167" lon="-7.070365">
        <ele>910.0</ele>
        <time>2022-06-19T10:07:39.883Z</time>
      </trkpt>
      <trkpt lat="43.13333167" lon="-7.070365">
        <ele>910.0</ele>
        <time>2022-06-19T10:07:40.849Z</time>
      </trkpt>
      <trkpt lat="43.13329833" lon="-7.07039">
        <ele>910.0</ele>
        <time>2022-06-19T10:07:41.875Z</time>
      </trkpt>
      <trkpt lat="43.13329833" lon="-7.07039">
        <ele>910.0</ele>
        <time>2022-06-19T10:07:42.882Z</time>
      </trkpt>
      <trkpt lat="43.13327167" lon="-7.070415">
        <ele>911.0</ele>
        <time>2022-06-19T10:07:43.872Z</time>
      </trkpt>
      <trkpt lat="43.13327167" lon="-7.070415">
        <ele>911.0</ele>
        <time>2022-06-19T10:07:44.878Z</time>
      </trkpt>
      <trkpt lat="43.133245" lon="-7.07044">
        <ele>911.0</ele>
        <time>2022-06-19T10:07:45.859Z</time>
      </trkpt>
      <trkpt lat="43.13323167" lon="-7.07045333">
        <ele>911.0</ele>
        <time>2022-06-19T10:07:46.850Z</time>
      </trkpt>
      <trkpt lat="43.13323167" lon="-7.07045333">
        <ele>911.0</ele>
        <time>2022-06-19T10:07:47.857Z</time>
      </trkpt>
      <trkpt lat="43.13320167" lon="-7.07048333">
        <ele>911.0</ele>
        <time>2022-06-19T10:07:48.879Z</time>
      </trkpt>
      <trkpt lat="43.13318833" lon="-7.07049833">
        <ele>911.0</ele>
        <time>2022-06-19T10:07:49.861Z</time>
      </trkpt>
      <trkpt lat="43.13318833" lon="-7.07049833">
        <ele>911.0</ele>
        <time>2022-06-19T10:07:50.868Z</time>
      </trkpt>
      <trkpt lat="43.13316333" lon="-7.07052167">
        <ele>911.0</ele>
        <time>2022-06-19T10:07:51.874Z</time>
      </trkpt>
      <trkpt lat="43.13316333" lon="-7.07052167">
        <ele>911.0</ele>
        <time>2022-06-19T10:07:52.847Z</time>
      </trkpt>
      <trkpt lat="43.13313333" lon="-7.07057667">
        <ele>911.0</ele>
        <time>2022-06-19T10:07:53.863Z</time>
      </trkpt>
      <trkpt lat="43.13313333" lon="-7.07057667">
        <ele>911.0</ele>
        <time>2022-06-19T10:07:54.870Z</time>
      </trkpt>
      <trkpt lat="43.13310333" lon="-7.07061333">
        <ele>911.0</ele>
        <time>2022-06-19T10:07:55.852Z</time>
      </trkpt>
      <trkpt lat="43.13310333" lon="-7.07061333">
        <ele>911.0</ele>
        <time>2022-06-19T10:07:56.846Z</time>
      </trkpt>
      <trkpt lat="43.13307667" lon="-7.07064333">
        <ele>911.0</ele>
        <time>2022-06-19T10:07:57.879Z</time>
      </trkpt>
      <trkpt lat="43.13306833" lon="-7.07065667">
        <ele>911.0</ele>
        <time>2022-06-19T10:07:58.856Z</time>
      </trkpt>
      <trkpt lat="43.13306833" lon="-7.07065667">
        <ele>911.0</ele>
        <time>2022-06-19T10:07:59.862Z</time>
      </trkpt>
      <trkpt lat="43.13304167" lon="-7.070685">
        <ele>911.0</ele>
        <time>2022-06-19T10:08:00.883Z</time>
      </trkpt>
      <trkpt lat="43.13303167" lon="-7.07070167">
        <ele>911.0</ele>
        <time>2022-06-19T10:08:01.867Z</time>
      </trkpt>
      <trkpt lat="43.13303167" lon="-7.07070167">
        <ele>911.0</ele>
        <time>2022-06-19T10:08:02.872Z</time>
      </trkpt>
      <trkpt lat="43.13300667" lon="-7.07072833">
        <ele>912.0</ele>
        <time>2022-06-19T10:08:03.848Z</time>
      </trkpt>
      <trkpt lat="43.13300667" lon="-7.07072833">
        <ele>912.0</ele>
        <time>2022-06-19T10:08:04.855Z</time>
      </trkpt>
      <trkpt lat="43.13297833" lon="-7.070755">
        <ele>912.0</ele>
        <time>2022-06-19T10:08:05.846Z</time>
      </trkpt>
      <trkpt lat="43.13297833" lon="-7.070755">
        <ele>912.0</ele>
        <time>2022-06-19T10:08:06.853Z</time>
      </trkpt>
      <trkpt lat="43.132955" lon="-7.07078167">
        <ele>912.0</ele>
        <time>2022-06-19T10:08:07.847Z</time>
      </trkpt>
      <trkpt lat="43.132955" lon="-7.07078167">
        <ele>912.0</ele>
        <time>2022-06-19T10:08:08.856Z</time>
      </trkpt>
      <trkpt lat="43.13292333" lon="-7.07080833">
        <ele>912.0</ele>
        <time>2022-06-19T10:08:09.857Z</time>
      </trkpt>
      <trkpt lat="43.13292333" lon="-7.07080833">
        <ele>912.0</ele>
        <time>2022-06-19T10:08:10.864Z</time>
      </trkpt>
      <trkpt lat="43.13290333" lon="-7.07084">
        <ele>912.0</ele>
        <time>2022-06-19T10:08:11.849Z</time>
      </trkpt>
      <trkpt lat="43.13290333" lon="-7.07084">
        <ele>912.0</ele>
        <time>2022-06-19T10:08:12.857Z</time>
      </trkpt>
      <trkpt lat="43.13288" lon="-7.07087667">
        <ele>913.0</ele>
        <time>2022-06-19T10:08:13.846Z</time>
      </trkpt>
      <trkpt lat="43.13288" lon="-7.07087667">
        <ele>913.0</ele>
        <time>2022-06-19T10:08:14.853Z</time>
      </trkpt>
      <trkpt lat="43.13285" lon="-7.07092167">
        <ele>913.0</ele>
        <time>2022-06-19T10:08:15.876Z</time>
      </trkpt>
      <trkpt lat="43.13285" lon="-7.07092167">
        <ele>913.0</ele>
        <time>2022-06-19T10:08:16.844Z</time>
      </trkpt>
      <trkpt lat="43.13282667" lon="-7.07096667">
        <ele>913.0</ele>
        <time>2022-06-19T10:08:17.866Z</time>
      </trkpt>
      <trkpt lat="43.13282667" lon="-7.07096667">
        <ele>913.0</ele>
        <time>2022-06-19T10:08:18.872Z</time>
      </trkpt>
      <trkpt lat="43.13280667" lon="-7.07100667">
        <ele>913.0</ele>
        <time>2022-06-19T10:08:19.883Z</time>
      </trkpt>
      <trkpt lat="43.132795" lon="-7.07102">
        <ele>913.0</ele>
        <time>2022-06-19T10:08:20.867Z</time>
      </trkpt>
      <trkpt lat="43.132795" lon="-7.07102">
        <ele>913.0</ele>
        <time>2022-06-19T10:08:21.875Z</time>
      </trkpt>
      <trkpt lat="43.13276667" lon="-7.07105167">
        <ele>912.0</ele>
        <time>2022-06-19T10:08:22.867Z</time>
      </trkpt>
      <trkpt lat="43.132755" lon="-7.07106667">
        <ele>912.0</ele>
        <time>2022-06-19T10:08:23.881Z</time>
      </trkpt>
      <trkpt lat="43.132755" lon="-7.07106667">
        <ele>912.0</ele>
        <time>2022-06-19T10:08:24.848Z</time>
      </trkpt>
      <trkpt lat="43.13271833" lon="-7.07109333">
        <ele>912.0</ele>
        <time>2022-06-19T10:08:25.879Z</time>
      </trkpt>
      <trkpt lat="43.13271833" lon="-7.07109333">
        <ele>912.0</ele>
        <time>2022-06-19T10:08:26.847Z</time>
      </trkpt>
      <trkpt lat="43.13267167" lon="-7.07109333">
        <ele>912.0</ele>
        <time>2022-06-19T10:08:27.878Z</time>
      </trkpt>
      <trkpt lat="43.13267167" lon="-7.07109333">
        <ele>912.0</ele>
        <time>2022-06-19T10:08:28.846Z</time>
      </trkpt>
      <trkpt lat="43.13263833" lon="-7.07108333">
        <ele>912.0</ele>
        <time>2022-06-19T10:08:29.877Z</time>
      </trkpt>
      <trkpt lat="43.13263833" lon="-7.07108333">
        <ele>912.0</ele>
        <time>2022-06-19T10:08:30.844Z</time>
      </trkpt>
      <trkpt lat="43.13261167" lon="-7.07107">
        <ele>911.0</ele>
        <time>2022-06-19T10:08:31.861Z</time>
      </trkpt>
      <trkpt lat="43.13261167" lon="-7.07107">
        <ele>911.0</ele>
        <time>2022-06-19T10:08:32.869Z</time>
      </trkpt>
      <trkpt lat="43.13258167" lon="-7.07104833">
        <ele>911.0</ele>
        <time>2022-06-19T10:08:33.850Z</time>
      </trkpt>
      <trkpt lat="43.13258167" lon="-7.07104833">
        <ele>911.0</ele>
        <time>2022-06-19T10:08:34.857Z</time>
      </trkpt>
      <trkpt lat="43.13255" lon="-7.071035">
        <ele>910.0</ele>
        <time>2022-06-19T10:08:35.878Z</time>
      </trkpt>
      <trkpt lat="43.13255" lon="-7.071035">
        <ele>910.0</ele>
        <time>2022-06-19T10:08:36.846Z</time>
      </trkpt>
      <trkpt lat="43.13251667" lon="-7.07102333">
        <ele>910.0</ele>
        <time>2022-06-19T10:08:37.862Z</time>
      </trkpt>
      <trkpt lat="43.13251667" lon="-7.07102333">
        <ele>910.0</ele>
        <time>2022-06-19T10:08:38.870Z</time>
      </trkpt>
      <trkpt lat="43.13248333" lon="-7.07101">
        <ele>910.0</ele>
        <time>2022-06-19T10:08:39.859Z</time>
      </trkpt>
      <trkpt lat="43.13246833" lon="-7.07100167">
        <ele>910.0</ele>
        <time>2022-06-19T10:08:40.882Z</time>
      </trkpt>
      <trkpt lat="43.13245333" lon="-7.070995">
        <ele>910.0</ele>
        <time>2022-06-19T10:08:41.864Z</time>
      </trkpt>
      <trkpt lat="43.13245333" lon="-7.070995">
        <ele>910.0</ele>
        <time>2022-06-19T10:08:42.870Z</time>
      </trkpt>
      <trkpt lat="43.13242333" lon="-7.07097667">
        <ele>910.0</ele>
        <time>2022-06-19T10:08:43.861Z</time>
      </trkpt>
      <trkpt lat="43.13242333" lon="-7.07097667">
        <ele>910.0</ele>
        <time>2022-06-19T10:08:44.867Z</time>
      </trkpt>
      <trkpt lat="43.13239333" lon="-7.07095167">
        <ele>910.0</ele>
        <time>2022-06-19T10:08:45.849Z</time>
      </trkpt>
      <trkpt lat="43.13237667" lon="-7.07094">
        <ele>910.0</ele>
        <time>2022-06-19T10:08:46.880Z</time>
      </trkpt>
      <trkpt lat="43.13237667" lon="-7.07094">
        <ele>910.0</ele>
        <time>2022-06-19T10:08:47.847Z</time>
      </trkpt>
      <trkpt lat="43.132345" lon="-7.07092333">
        <ele>910.0</ele>
        <time>2022-06-19T10:08:48.850Z</time>
      </trkpt>
      <trkpt lat="43.132345" lon="-7.07092333">
        <ele>910.0</ele>
        <time>2022-06-19T10:08:49.856Z</time>
      </trkpt>
      <trkpt lat="43.13231" lon="-7.07090667">
        <ele>910.0</ele>
        <time>2022-06-19T10:08:50.878Z</time>
      </trkpt>
      <trkpt lat="43.13231" lon="-7.07090667">
        <ele>910.0</ele>
        <time>2022-06-19T10:08:51.846Z</time>
      </trkpt>
      <trkpt lat="43.13227667" lon="-7.07089333">
        <ele>911.0</ele>
        <time>2022-06-19T10:08:52.858Z</time>
      </trkpt>
      <trkpt lat="43.13227667" lon="-7.07089333">
        <ele>911.0</ele>
        <time>2022-06-19T10:08:53.844Z</time>
      </trkpt>
      <trkpt lat="43.13224833" lon="-7.07088167">
        <ele>911.0</ele>
        <time>2022-06-19T10:08:54.870Z</time>
      </trkpt>
      <trkpt lat="43.13224833" lon="-7.07088167">
        <ele>911.0</ele>
        <time>2022-06-19T10:08:55.852Z</time>
      </trkpt>
      <trkpt lat="43.13222" lon="-7.07086833">
        <ele>911.0</ele>
        <time>2022-06-19T10:08:56.870Z</time>
      </trkpt>
      <trkpt lat="43.13222" lon="-7.07086833">
        <ele>911.0</ele>
        <time>2022-06-19T10:08:57.845Z</time>
      </trkpt>
      <trkpt lat="43.13219167" lon="-7.07084833">
        <ele>912.0</ele>
        <time>2022-06-19T10:08:58.868Z</time>
      </trkpt>
      <trkpt lat="43.13217833" lon="-7.07084333">
        <ele>912.0</ele>
        <time>2022-06-19T10:08:59.850Z</time>
      </trkpt>
      <trkpt lat="43.13217833" lon="-7.07084333">
        <ele>912.0</ele>
        <time>2022-06-19T10:09:00.858Z</time>
      </trkpt>
      <trkpt lat="43.13215333" lon="-7.07082833">
        <ele>912.0</ele>
        <time>2022-06-19T10:09:01.883Z</time>
      </trkpt>
      <trkpt lat="43.13215333" lon="-7.07082833">
        <ele>912.0</ele>
        <time>2022-06-19T10:09:02.851Z</time>
      </trkpt>
      <trkpt lat="43.13212833" lon="-7.07081333">
        <ele>912.0</ele>
        <time>2022-06-19T10:09:03.873Z</time>
      </trkpt>
      <trkpt lat="43.13211333" lon="-7.070805">
        <ele>912.0</ele>
        <time>2022-06-19T10:09:04.872Z</time>
      </trkpt>
      <trkpt lat="43.13211333" lon="-7.070805">
        <ele>912.0</ele>
        <time>2022-06-19T10:09:05.880Z</time>
      </trkpt>
      <trkpt lat="43.13208667" lon="-7.07079167">
        <ele>912.0</ele>
        <time>2022-06-19T10:09:06.863Z</time>
      </trkpt>
      <trkpt lat="43.13207667" lon="-7.07078167">
        <ele>913.0</ele>
        <time>2022-06-19T10:09:07.851Z</time>
      </trkpt>
      <trkpt lat="43.13207667" lon="-7.07078167">
        <ele>913.0</ele>
        <time>2022-06-19T10:09:08.858Z</time>
      </trkpt>
      <trkpt lat="43.13205333" lon="-7.070765">
        <ele>913.0</ele>
        <time>2022-06-19T10:09:09.882Z</time>
      </trkpt>
      <trkpt lat="43.13205333" lon="-7.070765">
        <ele>913.0</ele>
        <time>2022-06-19T10:09:10.848Z</time>
      </trkpt>
      <trkpt lat="43.13202833" lon="-7.07075167">
        <ele>913.0</ele>
        <time>2022-06-19T10:09:11.873Z</time>
      </trkpt>
      <trkpt lat="43.13202833" lon="-7.07075167">
        <ele>913.0</ele>
        <time>2022-06-19T10:09:12.881Z</time>
      </trkpt>
      <trkpt lat="43.132015" lon="-7.07074167">
        <ele>913.0</ele>
        <time>2022-06-19T10:09:13.857Z</time>
      </trkpt>
      <trkpt lat="43.132015" lon="-7.07074167">
        <ele>913.0</ele>
        <time>2022-06-19T10:09:14.865Z</time>
      </trkpt>
      <trkpt lat="43.13199" lon="-7.07072667">
        <ele>914.0</ele>
        <time>2022-06-19T10:09:15.845Z</time>
      </trkpt>
      <trkpt lat="43.13198" lon="-7.07071">
        <ele>914.0</ele>
        <time>2022-06-19T10:09:16.873Z</time>
      </trkpt>
      <trkpt lat="43.13198" lon="-7.07071">
        <ele>914.0</ele>
        <time>2022-06-19T10:09:17.882Z</time>
      </trkpt>
      <trkpt lat="43.13196" lon="-7.07068">
        <ele>914.0</ele>
        <time>2022-06-19T10:09:18.863Z</time>
      </trkpt>
      <trkpt lat="43.13196" lon="-7.07068">
        <ele>914.0</ele>
        <time>2022-06-19T10:09:19.870Z</time>
      </trkpt>
      <trkpt lat="43.13193333" lon="-7.07066">
        <ele>915.0</ele>
        <time>2022-06-19T10:09:20.852Z</time>
      </trkpt>
      <trkpt lat="43.13192" lon="-7.07065333">
        <ele>915.0</ele>
        <time>2022-06-19T10:09:21.877Z</time>
      </trkpt>
      <trkpt lat="43.13192" lon="-7.07065333">
        <ele>915.0</ele>
        <time>2022-06-19T10:09:22.844Z</time>
      </trkpt>
      <trkpt lat="43.13189167" lon="-7.07063833">
        <ele>915.0</ele>
        <time>2022-06-19T10:09:23.866Z</time>
      </trkpt>
      <trkpt lat="43.13189167" lon="-7.07063833">
        <ele>915.0</ele>
        <time>2022-06-19T10:09:24.872Z</time>
      </trkpt>
      <trkpt lat="43.13186333" lon="-7.070605">
        <ele>915.0</ele>
        <time>2022-06-19T10:09:25.876Z</time>
      </trkpt>
      <trkpt lat="43.13186333" lon="-7.070605">
        <ele>915.0</ele>
        <time>2022-06-19T10:09:26.844Z</time>
      </trkpt>
      <trkpt lat="43.13183333" lon="-7.07058167">
        <ele>916.0</ele>
        <time>2022-06-19T10:09:27.869Z</time>
      </trkpt>
      <trkpt lat="43.13183333" lon="-7.07058167">
        <ele>916.0</ele>
        <time>2022-06-19T10:09:28.876Z</time>
      </trkpt>
      <trkpt lat="43.13180833" lon="-7.07055833">
        <ele>916.0</ele>
        <time>2022-06-19T10:09:29.854Z</time>
      </trkpt>
      <trkpt lat="43.13180833" lon="-7.07055833">
        <ele>916.0</ele>
        <time>2022-06-19T10:09:30.850Z</time>
      </trkpt>
      <trkpt lat="43.13178167" lon="-7.07054">
        <ele>916.0</ele>
        <time>2022-06-19T10:09:31.880Z</time>
      </trkpt>
      <trkpt lat="43.13178167" lon="-7.07054">
        <ele>916.0</ele>
        <time>2022-06-19T10:09:32.848Z</time>
      </trkpt>
      <trkpt lat="43.13175667" lon="-7.07052167">
        <ele>916.0</ele>
        <time>2022-06-19T10:09:33.873Z</time>
      </trkpt>
      <trkpt lat="43.13175667" lon="-7.07052167">
        <ele>916.0</ele>
        <time>2022-06-19T10:09:34.879Z</time>
      </trkpt>
      <trkpt lat="43.13174" lon="-7.07049333">
        <ele>917.0</ele>
        <time>2022-06-19T10:09:35.863Z</time>
      </trkpt>
      <trkpt lat="43.13174" lon="-7.07049333">
        <ele>917.0</ele>
        <time>2022-06-19T10:09:36.870Z</time>
      </trkpt>
      <trkpt lat="43.13171667" lon="-7.070465">
        <ele>917.0</ele>
        <time>2022-06-19T10:09:37.856Z</time>
      </trkpt>
      <trkpt lat="43.13171667" lon="-7.070465">
        <ele>917.0</ele>
        <time>2022-06-19T10:09:38.862Z</time>
      </trkpt>
      <trkpt lat="43.13168833" lon="-7.07044">
        <ele>917.0</ele>
        <time>2022-06-19T10:09:39.854Z</time>
      </trkpt>
      <trkpt lat="43.13168833" lon="-7.07044">
        <ele>917.0</ele>
        <time>2022-06-19T10:09:40.874Z</time>
      </trkpt>
      <trkpt lat="43.13165833" lon="-7.07041833">
        <ele>918.0</ele>
        <time>2022-06-19T10:09:41.855Z</time>
      </trkpt>
      <trkpt lat="43.13165833" lon="-7.07041833">
        <ele>918.0</ele>
        <time>2022-06-19T10:09:42.865Z</time>
      </trkpt>
      <trkpt lat="43.13162833" lon="-7.070395">
        <ele>918.0</ele>
        <time>2022-06-19T10:09:43.864Z</time>
      </trkpt>
      <trkpt lat="43.13162833" lon="-7.070395">
        <ele>918.0</ele>
        <time>2022-06-19T10:09:44.870Z</time>
      </trkpt>
      <trkpt lat="43.131605" lon="-7.07037167">
        <ele>918.0</ele>
        <time>2022-06-19T10:09:45.861Z</time>
      </trkpt>
      <trkpt lat="43.131605" lon="-7.07037167">
        <ele>918.0</ele>
        <time>2022-06-19T10:09:46.867Z</time>
      </trkpt>
      <trkpt lat="43.13158167" lon="-7.070345">
        <ele>919.0</ele>
        <time>2022-06-19T10:09:47.855Z</time>
      </trkpt>
      <trkpt lat="43.13158167" lon="-7.070345">
        <ele>919.0</ele>
        <time>2022-06-19T10:09:48.862Z</time>
      </trkpt>
      <trkpt lat="43.131555" lon="-7.07031833">
        <ele>919.0</ele>
        <time>2022-06-19T10:09:49.848Z</time>
      </trkpt>
      <trkpt lat="43.131555" lon="-7.07031833">
        <ele>919.0</ele>
        <time>2022-06-19T10:09:50.855Z</time>
      </trkpt>
      <trkpt lat="43.13152667" lon="-7.070295">
        <ele>919.0</ele>
        <time>2022-06-19T10:09:51.870Z</time>
      </trkpt>
      <trkpt lat="43.13152667" lon="-7.070295">
        <ele>919.0</ele>
        <time>2022-06-19T10:09:52.876Z</time>
      </trkpt>
      <trkpt lat="43.13150167" lon="-7.07027167">
        <ele>919.0</ele>
        <time>2022-06-19T10:09:53.872Z</time>
      </trkpt>
      <trkpt lat="43.13150167" lon="-7.07027167">
        <ele>919.0</ele>
        <time>2022-06-19T10:09:54.879Z</time>
      </trkpt>
      <trkpt lat="43.13147667" lon="-7.07024833">
        <ele>920.0</ele>
        <time>2022-06-19T10:09:55.851Z</time>
      </trkpt>
      <trkpt lat="43.13147667" lon="-7.07024833">
        <ele>920.0</ele>
        <time>2022-06-19T10:09:56.850Z</time>
      </trkpt>
      <trkpt lat="43.13144833" lon="-7.07022333">
        <ele>920.0</ele>
        <time>2022-06-19T10:09:57.862Z</time>
      </trkpt>
      <trkpt lat="43.13143167" lon="-7.07021333">
        <ele>920.0</ele>
        <time>2022-06-19T10:09:58.847Z</time>
      </trkpt>
      <trkpt lat="43.13143167" lon="-7.07021333">
        <ele>920.0</ele>
        <time>2022-06-19T10:09:59.855Z</time>
      </trkpt>
      <trkpt lat="43.131405" lon="-7.070195">
        <ele>920.0</ele>
        <time>2022-06-19T10:10:00.876Z</time>
      </trkpt>
      <trkpt lat="43.13139167" lon="-7.070185">
        <ele>920.0</ele>
        <time>2022-06-19T10:10:01.861Z</time>
      </trkpt>
      <trkpt lat="43.13139167" lon="-7.070185">
        <ele>920.0</ele>
        <time>2022-06-19T10:10:02.868Z</time>
      </trkpt>
      <trkpt lat="43.13137" lon="-7.07015833">
        <ele>921.0</ele>
        <time>2022-06-19T10:10:03.861Z</time>
      </trkpt>
      <trkpt lat="43.13137" lon="-7.07015833">
        <ele>921.0</ele>
        <time>2022-06-19T10:10:04.869Z</time>
      </trkpt>
      <trkpt lat="43.13135167" lon="-7.070135">
        <ele>921.0</ele>
        <time>2022-06-19T10:10:05.848Z</time>
      </trkpt>
      <trkpt lat="43.13135167" lon="-7.070135">
        <ele>921.0</ele>
        <time>2022-06-19T10:10:06.854Z</time>
      </trkpt>
      <trkpt lat="43.13132667" lon="-7.07011">
        <ele>921.0</ele>
        <time>2022-06-19T10:10:07.874Z</time>
      </trkpt>
      <trkpt lat="43.13132667" lon="-7.07011">
        <ele>921.0</ele>
        <time>2022-06-19T10:10:08.882Z</time>
      </trkpt>
      <trkpt lat="43.13129833" lon="-7.07008333">
        <ele>921.0</ele>
        <time>2022-06-19T10:10:09.866Z</time>
      </trkpt>
      <trkpt lat="43.13128667" lon="-7.07007">
        <ele>921.0</ele>
        <time>2022-06-19T10:10:10.855Z</time>
      </trkpt>
      <trkpt lat="43.13128667" lon="-7.07007">
        <ele>921.0</ele>
        <time>2022-06-19T10:10:11.862Z</time>
      </trkpt>
      <trkpt lat="43.13126833" lon="-7.07004667">
        <ele>922.0</ele>
        <time>2022-06-19T10:10:12.850Z</time>
      </trkpt>
      <trkpt lat="43.13126833" lon="-7.07004667">
        <ele>922.0</ele>
        <time>2022-06-19T10:10:13.858Z</time>
      </trkpt>
      <trkpt lat="43.13124667" lon="-7.07002333">
        <ele>922.0</ele>
        <time>2022-06-19T10:10:14.848Z</time>
      </trkpt>
      <trkpt lat="43.131235" lon="-7.07001">
        <ele>922.0</ele>
        <time>2022-06-19T10:10:15.868Z</time>
      </trkpt>
      <trkpt lat="43.131235" lon="-7.07001">
        <ele>922.0</ele>
        <time>2022-06-19T10:10:16.875Z</time>
      </trkpt>
      <trkpt lat="43.13121" lon="-7.069985">
        <ele>922.0</ele>
        <time>2022-06-19T10:10:17.877Z</time>
      </trkpt>
      <trkpt lat="43.13121" lon="-7.069985">
        <ele>922.0</ele>
        <time>2022-06-19T10:10:18.845Z</time>
      </trkpt>
      <trkpt lat="43.13118667" lon="-7.06995333">
        <ele>923.0</ele>
        <time>2022-06-19T10:10:19.862Z</time>
      </trkpt>
      <trkpt lat="43.13118667" lon="-7.06995333">
        <ele>923.0</ele>
        <time>2022-06-19T10:10:20.870Z</time>
      </trkpt>
      <trkpt lat="43.131165" lon="-7.06992167">
        <ele>923.0</ele>
        <time>2022-06-19T10:10:21.847Z</time>
      </trkpt>
      <trkpt lat="43.131165" lon="-7.06992167">
        <ele>923.0</ele>
        <time>2022-06-19T10:10:22.853Z</time>
      </trkpt>
      <trkpt lat="43.13113833" lon="-7.069905">
        <ele>923.0</ele>
        <time>2022-06-19T10:10:23.845Z</time>
      </trkpt>
      <trkpt lat="43.13113833" lon="-7.069905">
        <ele>923.0</ele>
        <time>2022-06-19T10:10:24.852Z</time>
      </trkpt>
      <trkpt lat="43.13111" lon="-7.06988667">
        <ele>924.0</ele>
        <time>2022-06-19T10:10:25.879Z</time>
      </trkpt>
      <trkpt lat="43.13111" lon="-7.06988667">
        <ele>924.0</ele>
        <time>2022-06-19T10:10:26.847Z</time>
      </trkpt>
      <trkpt lat="43.13109" lon="-7.06986">
        <ele>924.0</ele>
        <time>2022-06-19T10:10:27.869Z</time>
      </trkpt>
      <trkpt lat="43.13109" lon="-7.06986">
        <ele>924.0</ele>
        <time>2022-06-19T10:10:28.876Z</time>
      </trkpt>
      <trkpt lat="43.131065" lon="-7.069835">
        <ele>924.0</ele>
        <time>2022-06-19T10:10:29.863Z</time>
      </trkpt>
      <trkpt lat="43.131065" lon="-7.069835">
        <ele>924.0</ele>
        <time>2022-06-19T10:10:30.870Z</time>
      </trkpt>
      <trkpt lat="43.13103667" lon="-7.06981167">
        <ele>925.0</ele>
        <time>2022-06-19T10:10:31.861Z</time>
      </trkpt>
      <trkpt lat="43.13103667" lon="-7.06981167">
        <ele>925.0</ele>
        <time>2022-06-19T10:10:32.872Z</time>
      </trkpt>
      <trkpt lat="43.131015" lon="-7.06979">
        <ele>925.0</ele>
        <time>2022-06-19T10:10:33.853Z</time>
      </trkpt>
      <trkpt lat="43.131015" lon="-7.06979">
        <ele>925.0</ele>
        <time>2022-06-19T10:10:34.860Z</time>
      </trkpt>
      <trkpt lat="43.130995" lon="-7.06976">
        <ele>926.0</ele>
        <time>2022-06-19T10:10:35.850Z</time>
      </trkpt>
      <trkpt lat="43.130995" lon="-7.06976">
        <ele>926.0</ele>
        <time>2022-06-19T10:10:36.858Z</time>
      </trkpt>
      <trkpt lat="43.13097667" lon="-7.069735">
        <ele>926.0</ele>
        <time>2022-06-19T10:10:37.844Z</time>
      </trkpt>
      <trkpt lat="43.13097667" lon="-7.069735">
        <ele>926.0</ele>
        <time>2022-06-19T10:10:38.852Z</time>
      </trkpt>
      <trkpt lat="43.130945" lon="-7.06971333">
        <ele>927.0</ele>
        <time>2022-06-19T10:10:39.875Z</time>
      </trkpt>
      <trkpt lat="43.130945" lon="-7.06971333">
        <ele>927.0</ele>
        <time>2022-06-19T10:10:40.844Z</time>
      </trkpt>
      <trkpt lat="43.13091833" lon="-7.06968833">
        <ele>927.0</ele>
        <time>2022-06-19T10:10:41.863Z</time>
      </trkpt>
      <trkpt lat="43.13091833" lon="-7.06968833">
        <ele>927.0</ele>
        <time>2022-06-19T10:10:42.871Z</time>
      </trkpt>
      <trkpt lat="43.130895" lon="-7.069665">
        <ele>927.0</ele>
        <time>2022-06-19T10:10:43.854Z</time>
      </trkpt>
      <trkpt lat="43.130895" lon="-7.069665">
        <ele>927.0</ele>
        <time>2022-06-19T10:10:44.861Z</time>
      </trkpt>
      <trkpt lat="43.130865" lon="-7.06963667">
        <ele>928.0</ele>
        <time>2022-06-19T10:10:45.848Z</time>
      </trkpt>
      <trkpt lat="43.130865" lon="-7.06963667">
        <ele>928.0</ele>
        <time>2022-06-19T10:10:46.855Z</time>
      </trkpt>
      <trkpt lat="43.13083167" lon="-7.06960833">
        <ele>928.0</ele>
        <time>2022-06-19T10:10:47.875Z</time>
      </trkpt>
      <trkpt lat="43.13083167" lon="-7.06960833">
        <ele>928.0</ele>
        <time>2022-06-19T10:10:48.882Z</time>
      </trkpt>
      <trkpt lat="43.1308" lon="-7.06957667">
        <ele>928.0</ele>
        <time>2022-06-19T10:10:49.865Z</time>
      </trkpt>
      <trkpt lat="43.1308" lon="-7.06957667">
        <ele>928.0</ele>
        <time>2022-06-19T10:10:50.872Z</time>
      </trkpt>
      <trkpt lat="43.13077" lon="-7.06954167">
        <ele>929.0</ele>
        <time>2022-06-19T10:10:51.846Z</time>
      </trkpt>
      <trkpt lat="43.13077" lon="-7.06954167">
        <ele>929.0</ele>
        <time>2022-06-19T10:10:52.853Z</time>
      </trkpt>
      <trkpt lat="43.13073667" lon="-7.06951">
        <ele>929.0</ele>
        <time>2022-06-19T10:10:53.871Z</time>
      </trkpt>
      <trkpt lat="43.13071833" lon="-7.06949667">
        <ele>929.0</ele>
        <time>2022-06-19T10:10:54.862Z</time>
      </trkpt>
      <trkpt lat="43.13071833" lon="-7.06949667">
        <ele>929.0</ele>
        <time>2022-06-19T10:10:55.883Z</time>
      </trkpt>
      <trkpt lat="43.13068667" lon="-7.06947">
        <ele>930.0</ele>
        <time>2022-06-19T10:10:56.885Z</time>
      </trkpt>
      <trkpt lat="43.13068667" lon="-7.06947">
        <ele>930.0</ele>
        <time>2022-06-19T10:10:57.880Z</time>
      </trkpt>
      <trkpt lat="43.13064667" lon="-7.069445">
        <ele>930.0</ele>
        <time>2022-06-19T10:10:58.862Z</time>
      </trkpt>
      <trkpt lat="43.13064667" lon="-7.069445">
        <ele>930.0</ele>
        <time>2022-06-19T10:10:59.870Z</time>
      </trkpt>
      <trkpt lat="43.13060833" lon="-7.06941833">
        <ele>931.0</ele>
        <time>2022-06-19T10:11:00.859Z</time>
      </trkpt>
      <trkpt lat="43.13060833" lon="-7.06941833">
        <ele>931.0</ele>
        <time>2022-06-19T10:11:01.868Z</time>
      </trkpt>
      <trkpt lat="43.13057667" lon="-7.06939167">
        <ele>931.0</ele>
        <time>2022-06-19T10:11:02.846Z</time>
      </trkpt>
      <trkpt lat="43.13057667" lon="-7.06939167">
        <ele>931.0</ele>
        <time>2022-06-19T10:11:03.853Z</time>
      </trkpt>
      <trkpt lat="43.13055" lon="-7.06936333">
        <ele>931.0</ele>
        <time>2022-06-19T10:11:04.871Z</time>
      </trkpt>
      <trkpt lat="43.13055" lon="-7.06936333">
        <ele>931.0</ele>
        <time>2022-06-19T10:11:05.879Z</time>
      </trkpt>
      <trkpt lat="43.13052833" lon="-7.06933333">
        <ele>931.0</ele>
        <time>2022-06-19T10:11:06.884Z</time>
      </trkpt>
      <trkpt lat="43.13052833" lon="-7.06933333">
        <ele>931.0</ele>
        <time>2022-06-19T10:11:07.874Z</time>
      </trkpt>
      <trkpt lat="43.13049667" lon="-7.06931">
        <ele>931.0</ele>
        <time>2022-06-19T10:11:08.862Z</time>
      </trkpt>
      <trkpt lat="43.13049667" lon="-7.06931">
        <ele>931.0</ele>
        <time>2022-06-19T10:11:09.869Z</time>
      </trkpt>
      <trkpt lat="43.130465" lon="-7.06928333">
        <ele>931.0</ele>
        <time>2022-06-19T10:11:10.848Z</time>
      </trkpt>
      <trkpt lat="43.13044833" lon="-7.06927167">
        <ele>931.0</ele>
        <time>2022-06-19T10:11:11.866Z</time>
      </trkpt>
      <trkpt lat="43.13044833" lon="-7.06927167">
        <ele>931.0</ele>
        <time>2022-06-19T10:11:12.874Z</time>
      </trkpt>
      <trkpt lat="43.13041667" lon="-7.06924">
        <ele>931.0</ele>
        <time>2022-06-19T10:11:13.854Z</time>
      </trkpt>
      <trkpt lat="43.13041667" lon="-7.06924">
        <ele>931.0</ele>
        <time>2022-06-19T10:11:14.861Z</time>
      </trkpt>
      <trkpt lat="43.13038667" lon="-7.06920667">
        <ele>932.0</ele>
        <time>2022-06-19T10:11:15.881Z</time>
      </trkpt>
      <trkpt lat="43.13038667" lon="-7.06920667">
        <ele>932.0</ele>
        <time>2022-06-19T10:11:16.850Z</time>
      </trkpt>
      <trkpt lat="43.13036" lon="-7.06917667">
        <ele>932.0</ele>
        <time>2022-06-19T10:11:17.868Z</time>
      </trkpt>
      <trkpt lat="43.13036" lon="-7.06917667">
        <ele>932.0</ele>
        <time>2022-06-19T10:11:18.875Z</time>
      </trkpt>
      <trkpt lat="43.13033667" lon="-7.06914667">
        <ele>932.0</ele>
        <time>2022-06-19T10:11:19.883Z</time>
      </trkpt>
      <trkpt lat="43.13033667" lon="-7.06914667">
        <ele>932.0</ele>
        <time>2022-06-19T10:11:20.849Z</time>
      </trkpt>
      <trkpt lat="43.13031167" lon="-7.069115">
        <ele>932.0</ele>
        <time>2022-06-19T10:11:21.871Z</time>
      </trkpt>
      <trkpt lat="43.13031167" lon="-7.069115">
        <ele>932.0</ele>
        <time>2022-06-19T10:11:22.877Z</time>
      </trkpt>
      <trkpt lat="43.130285" lon="-7.06909167">
        <ele>932.0</ele>
        <time>2022-06-19T10:11:23.870Z</time>
      </trkpt>
      <trkpt lat="43.130285" lon="-7.06909167">
        <ele>932.0</ele>
        <time>2022-06-19T10:11:24.876Z</time>
      </trkpt>
      <trkpt lat="43.13025333" lon="-7.06906333">
        <ele>932.0</ele>
        <time>2022-06-19T10:11:25.866Z</time>
      </trkpt>
      <trkpt lat="43.13025333" lon="-7.06906333">
        <ele>932.0</ele>
        <time>2022-06-19T10:11:26.872Z</time>
      </trkpt>
      <trkpt lat="43.13022167" lon="-7.06902833">
        <ele>933.0</ele>
        <time>2022-06-19T10:11:27.864Z</time>
      </trkpt>
      <trkpt lat="43.13022167" lon="-7.06902833">
        <ele>933.0</ele>
        <time>2022-06-19T10:11:28.870Z</time>
      </trkpt>
      <trkpt lat="43.13018167" lon="-7.06900667">
        <ele>933.0</ele>
        <time>2022-06-19T10:11:29.868Z</time>
      </trkpt>
      <trkpt lat="43.13018167" lon="-7.06900667">
        <ele>933.0</ele>
        <time>2022-06-19T10:11:30.874Z</time>
      </trkpt>
      <trkpt lat="43.130145" lon="-7.06897333">
        <ele>933.0</ele>
        <time>2022-06-19T10:11:31.869Z</time>
      </trkpt>
      <trkpt lat="43.130145" lon="-7.06897333">
        <ele>933.0</ele>
        <time>2022-06-19T10:11:32.875Z</time>
      </trkpt>
      <trkpt lat="43.13011167" lon="-7.068945">
        <ele>933.0</ele>
        <time>2022-06-19T10:11:33.877Z</time>
      </trkpt>
      <trkpt lat="43.13011167" lon="-7.068945">
        <ele>933.0</ele>
        <time>2022-06-19T10:11:34.883Z</time>
      </trkpt>
      <trkpt lat="43.13007" lon="-7.06891">
        <ele>934.0</ele>
        <time>2022-06-19T10:11:35.878Z</time>
      </trkpt>
      <trkpt lat="43.13005" lon="-7.06889167">
        <ele>934.0</ele>
        <time>2022-06-19T10:11:36.868Z</time>
      </trkpt>
      <trkpt lat="43.13003" lon="-7.06887333">
        <ele>934.0</ele>
        <time>2022-06-19T10:11:37.855Z</time>
      </trkpt>
      <trkpt lat="43.13003" lon="-7.06887333">
        <ele>934.0</ele>
        <time>2022-06-19T10:11:38.861Z</time>
      </trkpt>
      <trkpt lat="43.12999" lon="-7.06884">
        <ele>934.0</ele>
        <time>2022-06-19T10:11:39.852Z</time>
      </trkpt>
      <trkpt lat="43.12997" lon="-7.068825">
        <ele>934.0</ele>
        <time>2022-06-19T10:11:40.882Z</time>
      </trkpt>
      <trkpt lat="43.12997" lon="-7.068825">
        <ele>934.0</ele>
        <time>2022-06-19T10:11:41.847Z</time>
      </trkpt>
      <trkpt lat="43.129935" lon="-7.068795">
        <ele>934.0</ele>
        <time>2022-06-19T10:11:42.879Z</time>
      </trkpt>
      <trkpt lat="43.12991833" lon="-7.06878">
        <ele>934.0</ele>
        <time>2022-06-19T10:11:43.862Z</time>
      </trkpt>
      <trkpt lat="43.12991833" lon="-7.06878">
        <ele>934.0</ele>
        <time>2022-06-19T10:11:44.868Z</time>
      </trkpt>
      <trkpt lat="43.12988167" lon="-7.06874333">
        <ele>934.0</ele>
        <time>2022-06-19T10:11:45.858Z</time>
      </trkpt>
      <trkpt lat="43.12988167" lon="-7.06874333">
        <ele>934.0</ele>
        <time>2022-06-19T10:11:46.865Z</time>
      </trkpt>
      <trkpt lat="43.129845" lon="-7.06870833">
        <ele>935.0</ele>
        <time>2022-06-19T10:11:47.853Z</time>
      </trkpt>
      <trkpt lat="43.129845" lon="-7.06870833">
        <ele>935.0</ele>
        <time>2022-06-19T10:11:48.859Z</time>
      </trkpt>
      <trkpt lat="43.129805" lon="-7.068675">
        <ele>935.0</ele>
        <time>2022-06-19T10:11:49.854Z</time>
      </trkpt>
      <trkpt lat="43.129805" lon="-7.068675">
        <ele>935.0</ele>
        <time>2022-06-19T10:11:50.860Z</time>
      </trkpt>
      <trkpt lat="43.12976333" lon="-7.068645">
        <ele>935.0</ele>
        <time>2022-06-19T10:11:51.860Z</time>
      </trkpt>
      <trkpt lat="43.12976333" lon="-7.068645">
        <ele>935.0</ele>
        <time>2022-06-19T10:11:52.867Z</time>
      </trkpt>
      <trkpt lat="43.12971833" lon="-7.068615">
        <ele>935.0</ele>
        <time>2022-06-19T10:11:53.859Z</time>
      </trkpt>
      <trkpt lat="43.12971833" lon="-7.068615">
        <ele>935.0</ele>
        <time>2022-06-19T10:11:54.865Z</time>
      </trkpt>
      <trkpt lat="43.12967333" lon="-7.068585">
        <ele>935.0</ele>
        <time>2022-06-19T10:11:55.851Z</time>
      </trkpt>
      <trkpt lat="43.12967333" lon="-7.068585">
        <ele>935.0</ele>
        <time>2022-06-19T10:11:56.850Z</time>
      </trkpt>
      <trkpt lat="43.12963" lon="-7.068555">
        <ele>935.0</ele>
        <time>2022-06-19T10:11:57.858Z</time>
      </trkpt>
      <trkpt lat="43.12963" lon="-7.068555">
        <ele>935.0</ele>
        <time>2022-06-19T10:11:58.864Z</time>
      </trkpt>
      <trkpt lat="43.12958167" lon="-7.06852667">
        <ele>935.0</ele>
        <time>2022-06-19T10:11:59.861Z</time>
      </trkpt>
      <trkpt lat="43.12955333" lon="-7.06851667">
        <ele>935.0</ele>
        <time>2022-06-19T10:12:00.879Z</time>
      </trkpt>
      <trkpt lat="43.12955333" lon="-7.06851667">
        <ele>935.0</ele>
        <time>2022-06-19T10:12:01.846Z</time>
      </trkpt>
      <trkpt lat="43.12950167" lon="-7.06848333">
        <ele>935.0</ele>
        <time>2022-06-19T10:12:02.851Z</time>
      </trkpt>
      <trkpt lat="43.12950167" lon="-7.06848333">
        <ele>935.0</ele>
        <time>2022-06-19T10:12:03.857Z</time>
      </trkpt>
      <trkpt lat="43.129445" lon="-7.06844667">
        <ele>935.0</ele>
        <time>2022-06-19T10:12:04.881Z</time>
      </trkpt>
      <trkpt lat="43.129445" lon="-7.06844667">
        <ele>935.0</ele>
        <time>2022-06-19T10:12:05.847Z</time>
      </trkpt>
      <trkpt lat="43.12939167" lon="-7.06841167">
        <ele>935.0</ele>
        <time>2022-06-19T10:12:06.851Z</time>
      </trkpt>
      <trkpt lat="43.12939167" lon="-7.06841167">
        <ele>935.0</ele>
        <time>2022-06-19T10:12:07.857Z</time>
      </trkpt>
      <trkpt lat="43.12933833" lon="-7.06837333">
        <ele>935.0</ele>
        <time>2022-06-19T10:12:08.869Z</time>
      </trkpt>
      <trkpt lat="43.12933833" lon="-7.06837333">
        <ele>935.0</ele>
        <time>2022-06-19T10:12:09.875Z</time>
      </trkpt>
      <trkpt lat="43.12928667" lon="-7.06834167">
        <ele>935.0</ele>
        <time>2022-06-19T10:12:10.873Z</time>
      </trkpt>
      <trkpt lat="43.12928667" lon="-7.06834167">
        <ele>935.0</ele>
        <time>2022-06-19T10:12:11.844Z</time>
      </trkpt>
      <trkpt lat="43.12923333" lon="-7.06831">
        <ele>935.0</ele>
        <time>2022-06-19T10:12:12.876Z</time>
      </trkpt>
      <trkpt lat="43.12920833" lon="-7.068295">
        <ele>936.0</ele>
        <time>2022-06-19T10:12:13.875Z</time>
      </trkpt>
      <trkpt lat="43.12920833" lon="-7.068295">
        <ele>936.0</ele>
        <time>2022-06-19T10:12:14.881Z</time>
      </trkpt>
      <trkpt lat="43.129155" lon="-7.06826833">
        <ele>936.0</ele>
        <time>2022-06-19T10:12:15.868Z</time>
      </trkpt>
      <trkpt lat="43.12913" lon="-7.06825167">
        <ele>936.0</ele>
        <time>2022-06-19T10:12:16.857Z</time>
      </trkpt>
      <trkpt lat="43.12913" lon="-7.06825167">
        <ele>936.0</ele>
        <time>2022-06-19T10:12:17.863Z</time>
      </trkpt>
      <trkpt lat="43.12907833" lon="-7.06822">
        <ele>937.0</ele>
        <time>2022-06-19T10:12:18.852Z</time>
      </trkpt>
      <trkpt lat="43.12905167" lon="-7.06820333">
        <ele>937.0</ele>
        <time>2022-06-19T10:12:19.854Z</time>
      </trkpt>
      <trkpt lat="43.12905167" lon="-7.06820333">
        <ele>937.0</ele>
        <time>2022-06-19T10:12:20.860Z</time>
      </trkpt>
      <trkpt lat="43.12900167" lon="-7.06816833">
        <ele>938.0</ele>
        <time>2022-06-19T10:12:21.868Z</time>
      </trkpt>
      <trkpt lat="43.12900167" lon="-7.06816833">
        <ele>938.0</ele>
        <time>2022-06-19T10:12:22.874Z</time>
      </trkpt>
      <trkpt lat="43.12894833" lon="-7.06813">
        <ele>938.0</ele>
        <time>2022-06-19T10:12:23.871Z</time>
      </trkpt>
      <trkpt lat="43.12894833" lon="-7.06813">
        <ele>938.0</ele>
        <time>2022-06-19T10:12:24.877Z</time>
      </trkpt>
      <trkpt lat="43.128895" lon="-7.06808833">
        <ele>939.0</ele>
        <time>2022-06-19T10:12:25.871Z</time>
      </trkpt>
      <trkpt lat="43.12886833" lon="-7.06806667">
        <ele>939.0</ele>
        <time>2022-06-19T10:12:26.852Z</time>
      </trkpt>
      <trkpt lat="43.12886833" lon="-7.06806667">
        <ele>939.0</ele>
        <time>2022-06-19T10:12:27.858Z</time>
      </trkpt>
      <trkpt lat="43.128815" lon="-7.06802333">
        <ele>939.0</ele>
        <time>2022-06-19T10:12:28.852Z</time>
      </trkpt>
      <trkpt lat="43.128815" lon="-7.06802333">
        <ele>939.0</ele>
        <time>2022-06-19T10:12:29.858Z</time>
      </trkpt>
      <trkpt lat="43.12876333" lon="-7.06798333">
        <ele>940.0</ele>
        <time>2022-06-19T10:12:30.856Z</time>
      </trkpt>
      <trkpt lat="43.12873833" lon="-7.067965">
        <ele>940.0</ele>
        <time>2022-06-19T10:12:31.883Z</time>
      </trkpt>
      <trkpt lat="43.12873833" lon="-7.067965">
        <ele>940.0</ele>
        <time>2022-06-19T10:12:32.848Z</time>
      </trkpt>
      <trkpt lat="43.12868833" lon="-7.06792167">
        <ele>940.0</ele>
        <time>2022-06-19T10:12:33.847Z</time>
      </trkpt>
      <trkpt lat="43.12868833" lon="-7.06792167">
        <ele>940.0</ele>
        <time>2022-06-19T10:12:34.853Z</time>
      </trkpt>
      <trkpt lat="43.128645" lon="-7.06788333">
        <ele>940.0</ele>
        <time>2022-06-19T10:12:35.852Z</time>
      </trkpt>
      <trkpt lat="43.12862333" lon="-7.06786167">
        <ele>941.0</ele>
        <time>2022-06-19T10:12:36.854Z</time>
      </trkpt>
      <trkpt lat="43.12860167" lon="-7.06783833">
        <ele>941.0</ele>
        <time>2022-06-19T10:12:37.883Z</time>
      </trkpt>
      <trkpt lat="43.12860167" lon="-7.06783833">
        <ele>941.0</ele>
        <time>2022-06-19T10:12:38.849Z</time>
      </trkpt>
      <trkpt lat="43.12856167" lon="-7.06779333">
        <ele>941.0</ele>
        <time>2022-06-19T10:12:39.883Z</time>
      </trkpt>
      <trkpt lat="43.12853833" lon="-7.067775">
        <ele>941.0</ele>
        <time>2022-06-19T10:12:40.877Z</time>
      </trkpt>
      <trkpt lat="43.12853833" lon="-7.067775">
        <ele>941.0</ele>
        <time>2022-06-19T10:12:41.846Z</time>
      </trkpt>
      <trkpt lat="43.12849833" lon="-7.067735">
        <ele>942.0</ele>
        <time>2022-06-19T10:12:42.869Z</time>
      </trkpt>
      <trkpt lat="43.12847333" lon="-7.06772167">
        <ele>942.0</ele>
        <time>2022-06-19T10:12:43.865Z</time>
      </trkpt>
      <trkpt lat="43.12844833" lon="-7.067705">
        <ele>942.0</ele>
        <time>2022-06-19T10:12:44.873Z</time>
      </trkpt>
      <trkpt lat="43.12844833" lon="-7.067705">
        <ele>942.0</ele>
        <time>2022-06-19T10:12:45.879Z</time>
      </trkpt>
      <trkpt lat="43.12839667" lon="-7.06767833">
        <ele>942.0</ele>
        <time>2022-06-19T10:12:46.864Z</time>
      </trkpt>
      <trkpt lat="43.12837" lon="-7.06766333">
        <ele>942.0</ele>
        <time>2022-06-19T10:12:47.854Z</time>
      </trkpt>
      <trkpt lat="43.12834667" lon="-7.06764333">
        <ele>942.0</ele>
        <time>2022-06-19T10:12:48.851Z</time>
      </trkpt>
      <trkpt lat="43.12834667" lon="-7.06764333">
        <ele>942.0</ele>
        <time>2022-06-19T10:12:49.856Z</time>
      </trkpt>
      <trkpt lat="43.128295" lon="-7.06761">
        <ele>942.0</ele>
        <time>2022-06-19T10:12:50.850Z</time>
      </trkpt>
      <trkpt lat="43.128295" lon="-7.06761">
        <ele>942.0</ele>
        <time>2022-06-19T10:12:51.872Z</time>
      </trkpt>
      <trkpt lat="43.12824" lon="-7.067585">
        <ele>942.0</ele>
        <time>2022-06-19T10:12:52.866Z</time>
      </trkpt>
      <trkpt lat="43.12824" lon="-7.067585">
        <ele>942.0</ele>
        <time>2022-06-19T10:12:53.872Z</time>
      </trkpt>
      <trkpt lat="43.12819167" lon="-7.067575">
        <ele>942.0</ele>
        <time>2022-06-19T10:12:54.869Z</time>
      </trkpt>
      <trkpt lat="43.12817167" lon="-7.067575">
        <ele>942.0</ele>
        <time>2022-06-19T10:12:55.882Z</time>
      </trkpt>
      <trkpt lat="43.12817167" lon="-7.067575">
        <ele>942.0</ele>
        <time>2022-06-19T10:12:56.850Z</time>
      </trkpt>
      <trkpt lat="43.128145" lon="-7.06756333">
        <ele>942.0</ele>
        <time>2022-06-19T10:12:57.847Z</time>
      </trkpt>
      <trkpt lat="43.128145" lon="-7.06756333">
        <ele>942.0</ele>
        <time>2022-06-19T10:12:58.853Z</time>
      </trkpt>
      <trkpt lat="43.128115" lon="-7.06756">
        <ele>943.0</ele>
        <time>2022-06-19T10:12:59.883Z</time>
      </trkpt>
      <trkpt lat="43.128115" lon="-7.06756">
        <ele>943.0</ele>
        <time>2022-06-19T10:13:00.850Z</time>
      </trkpt>
      <trkpt lat="43.12807167" lon="-7.06756667">
        <ele>943.0</ele>
        <time>2022-06-19T10:13:01.849Z</time>
      </trkpt>
      <trkpt lat="43.12807167" lon="-7.06756667">
        <ele>943.0</ele>
        <time>2022-06-19T10:13:02.857Z</time>
      </trkpt>
      <trkpt lat="43.12801167" lon="-7.067575">
        <ele>944.0</ele>
        <time>2022-06-19T10:13:03.848Z</time>
      </trkpt>
      <trkpt lat="43.12801167" lon="-7.067575">
        <ele>944.0</ele>
        <time>2022-06-19T10:13:04.854Z</time>
      </trkpt>
      <trkpt lat="43.12795" lon="-7.067575">
        <ele>945.0</ele>
        <time>2022-06-19T10:13:05.864Z</time>
      </trkpt>
      <trkpt lat="43.12795" lon="-7.067575">
        <ele>945.0</ele>
        <time>2022-06-19T10:13:06.870Z</time>
      </trkpt>
      <trkpt lat="43.12788833" lon="-7.067575">
        <ele>946.0</ele>
        <time>2022-06-19T10:13:07.860Z</time>
      </trkpt>
      <trkpt lat="43.12785833" lon="-7.06758">
        <ele>946.0</ele>
        <time>2022-06-19T10:13:08.856Z</time>
      </trkpt>
      <trkpt lat="43.12785833" lon="-7.06758">
        <ele>946.0</ele>
        <time>2022-06-19T10:13:09.863Z</time>
      </trkpt>
      <trkpt lat="43.12779333" lon="-7.06758">
        <ele>947.0</ele>
        <time>2022-06-19T10:13:10.857Z</time>
      </trkpt>
      <trkpt lat="43.12779333" lon="-7.06758">
        <ele>947.0</ele>
        <time>2022-06-19T10:13:11.863Z</time>
      </trkpt>
      <trkpt lat="43.12772333" lon="-7.067575">
        <ele>947.0</ele>
        <time>2022-06-19T10:13:12.870Z</time>
      </trkpt>
      <trkpt lat="43.127685" lon="-7.06757333">
        <ele>947.0</ele>
        <time>2022-06-19T10:13:13.854Z</time>
      </trkpt>
      <trkpt lat="43.127685" lon="-7.06757333">
        <ele>947.0</ele>
        <time>2022-06-19T10:13:14.860Z</time>
      </trkpt>
      <trkpt lat="43.12761167" lon="-7.06756833">
        <ele>948.0</ele>
        <time>2022-06-19T10:13:15.857Z</time>
      </trkpt>
      <trkpt lat="43.12761167" lon="-7.06756833">
        <ele>948.0</ele>
        <time>2022-06-19T10:13:16.862Z</time>
      </trkpt>
      <trkpt lat="43.12755" lon="-7.06754333">
        <ele>950.0</ele>
        <time>2022-06-19T10:13:17.855Z</time>
      </trkpt>
      <trkpt lat="43.12755" lon="-7.06754333">
        <ele>950.0</ele>
        <time>2022-06-19T10:13:18.861Z</time>
      </trkpt>
      <trkpt lat="43.127485" lon="-7.06753333">
        <ele>951.0</ele>
        <time>2022-06-19T10:13:19.857Z</time>
      </trkpt>
      <trkpt lat="43.127485" lon="-7.06753333">
        <ele>951.0</ele>
        <time>2022-06-19T10:13:20.863Z</time>
      </trkpt>
      <trkpt lat="43.127415" lon="-7.06752333">
        <ele>951.0</ele>
        <time>2022-06-19T10:13:21.866Z</time>
      </trkpt>
      <trkpt lat="43.127415" lon="-7.06752333">
        <ele>951.0</ele>
        <time>2022-06-19T10:13:22.866Z</time>
      </trkpt>
      <trkpt lat="43.12734667" lon="-7.06751333">
        <ele>951.0</ele>
        <time>2022-06-19T10:13:23.847Z</time>
      </trkpt>
      <trkpt lat="43.12734667" lon="-7.06751333">
        <ele>951.0</ele>
        <time>2022-06-19T10:13:24.853Z</time>
      </trkpt>
      <trkpt lat="43.12727667" lon="-7.06750333">
        <ele>951.0</ele>
        <time>2022-06-19T10:13:25.845Z</time>
      </trkpt>
      <trkpt lat="43.12727667" lon="-7.06750333">
        <ele>951.0</ele>
        <time>2022-06-19T10:13:26.850Z</time>
      </trkpt>
      <trkpt lat="43.127215" lon="-7.06749667">
        <ele>951.0</ele>
        <time>2022-06-19T10:13:27.852Z</time>
      </trkpt>
      <trkpt lat="43.127215" lon="-7.06749667">
        <ele>951.0</ele>
        <time>2022-06-19T10:13:28.858Z</time>
      </trkpt>
      <trkpt lat="43.12716" lon="-7.06749167">
        <ele>951.0</ele>
        <time>2022-06-19T10:13:29.882Z</time>
      </trkpt>
      <trkpt lat="43.12713333" lon="-7.06748667">
        <ele>951.0</ele>
        <time>2022-06-19T10:13:30.871Z</time>
      </trkpt>
      <trkpt lat="43.12711167" lon="-7.067485">
        <ele>952.0</ele>
        <time>2022-06-19T10:13:31.858Z</time>
      </trkpt>
      <trkpt lat="43.12711167" lon="-7.067485">
        <ele>952.0</ele>
        <time>2022-06-19T10:13:32.863Z</time>
      </trkpt>
      <trkpt lat="43.12708" lon="-7.067485">
        <ele>952.0</ele>
        <time>2022-06-19T10:13:33.861Z</time>
      </trkpt>
      <trkpt lat="43.127065" lon="-7.06748167">
        <ele>952.0</ele>
        <time>2022-06-19T10:13:34.856Z</time>
      </trkpt>
      <trkpt lat="43.127065" lon="-7.06748167">
        <ele>952.0</ele>
        <time>2022-06-19T10:13:35.862Z</time>
      </trkpt>
      <trkpt lat="43.12703167" lon="-7.06746">
        <ele>952.0</ele>
        <time>2022-06-19T10:13:36.853Z</time>
      </trkpt>
      <trkpt lat="43.12701833" lon="-7.06746">
        <ele>953.0</ele>
        <time>2022-06-19T10:13:37.865Z</time>
      </trkpt>
      <trkpt lat="43.12701833" lon="-7.06746">
        <ele>953.0</ele>
        <time>2022-06-19T10:13:38.870Z</time>
      </trkpt>
      <trkpt lat="43.12698833" lon="-7.06744833">
        <ele>953.0</ele>
        <time>2022-06-19T10:13:39.851Z</time>
      </trkpt>
      <trkpt lat="43.12698833" lon="-7.06744833">
        <ele>953.0</ele>
        <time>2022-06-19T10:13:40.857Z</time>
      </trkpt>
      <trkpt lat="43.12695667" lon="-7.06743833">
        <ele>953.0</ele>
        <time>2022-06-19T10:13:41.854Z</time>
      </trkpt>
      <trkpt lat="43.12695667" lon="-7.06743833">
        <ele>953.0</ele>
        <time>2022-06-19T10:13:42.860Z</time>
      </trkpt>
      <trkpt lat="43.12692833" lon="-7.06741333">
        <ele>953.0</ele>
        <time>2022-06-19T10:13:43.851Z</time>
      </trkpt>
      <trkpt lat="43.12692833" lon="-7.06741333">
        <ele>953.0</ele>
        <time>2022-06-19T10:13:44.857Z</time>
      </trkpt>
      <trkpt lat="43.12688333" lon="-7.06741">
        <ele>954.0</ele>
        <time>2022-06-19T10:13:45.855Z</time>
      </trkpt>
      <trkpt lat="43.12686667" lon="-7.06740167">
        <ele>954.0</ele>
        <time>2022-06-19T10:13:46.846Z</time>
      </trkpt>
      <trkpt lat="43.12685" lon="-7.06739167">
        <ele>954.0</ele>
        <time>2022-06-19T10:13:47.845Z</time>
      </trkpt>
      <trkpt lat="43.12685" lon="-7.06739167">
        <ele>954.0</ele>
        <time>2022-06-19T10:13:48.851Z</time>
      </trkpt>
      <trkpt lat="43.126825" lon="-7.06737833">
        <ele>953.0</ele>
        <time>2022-06-19T10:13:49.848Z</time>
      </trkpt>
      <trkpt lat="43.126825" lon="-7.06737833">
        <ele>953.0</ele>
        <time>2022-06-19T10:13:50.854Z</time>
      </trkpt>
      <trkpt lat="43.12680167" lon="-7.06736833">
        <ele>954.0</ele>
        <time>2022-06-19T10:13:51.877Z</time>
      </trkpt>
      <trkpt lat="43.12680167" lon="-7.06736833">
        <ele>954.0</ele>
        <time>2022-06-19T10:13:52.844Z</time>
      </trkpt>
      <trkpt lat="43.126775" lon="-7.067365">
        <ele>954.0</ele>
        <time>2022-06-19T10:13:53.846Z</time>
      </trkpt>
      <trkpt lat="43.126775" lon="-7.067365">
        <ele>954.0</ele>
        <time>2022-06-19T10:13:54.858Z</time>
      </trkpt>
      <trkpt lat="43.12674333" lon="-7.06736167">
        <ele>954.0</ele>
        <time>2022-06-19T10:13:55.855Z</time>
      </trkpt>
      <trkpt lat="43.12674333" lon="-7.06736167">
        <ele>954.0</ele>
        <time>2022-06-19T10:13:56.848Z</time>
      </trkpt>
      <trkpt lat="43.12670833" lon="-7.06735833">
        <ele>954.0</ele>
        <time>2022-06-19T10:13:57.859Z</time>
      </trkpt>
      <trkpt lat="43.12669167" lon="-7.06736333">
        <ele>955.0</ele>
        <time>2022-06-19T10:13:58.851Z</time>
      </trkpt>
      <trkpt lat="43.12669167" lon="-7.06736333">
        <ele>955.0</ele>
        <time>2022-06-19T10:13:59.857Z</time>
      </trkpt>
      <trkpt lat="43.12667167" lon="-7.06739333">
        <ele>955.0</ele>
        <time>2022-06-19T10:14:00.844Z</time>
      </trkpt>
      <trkpt lat="43.12667167" lon="-7.06739333">
        <ele>955.0</ele>
        <time>2022-06-19T10:14:01.850Z</time>
      </trkpt>
      <trkpt lat="43.126655" lon="-7.067395">
        <ele>956.0</ele>
        <time>2022-06-19T10:14:02.851Z</time>
      </trkpt>
      <trkpt lat="43.126645" lon="-7.06738833">
        <ele>957.0</ele>
        <time>2022-06-19T10:14:03.871Z</time>
      </trkpt>
      <trkpt lat="43.12662833" lon="-7.06738167">
        <ele>957.0</ele>
        <time>2022-06-19T10:14:04.855Z</time>
      </trkpt>
      <trkpt lat="43.12661" lon="-7.06737667">
        <ele>957.0</ele>
        <time>2022-06-19T10:14:05.872Z</time>
      </trkpt>
      <trkpt lat="43.12661" lon="-7.06737667">
        <ele>957.0</ele>
        <time>2022-06-19T10:14:06.845Z</time>
      </trkpt>
      <trkpt lat="43.12656333" lon="-7.06738333">
        <ele>957.0</ele>
        <time>2022-06-19T10:14:07.881Z</time>
      </trkpt>
      <trkpt lat="43.12656333" lon="-7.06738333">
        <ele>957.0</ele>
        <time>2022-06-19T10:14:08.848Z</time>
      </trkpt>
      <trkpt lat="43.12652333" lon="-7.06739333">
        <ele>958.0</ele>
        <time>2022-06-19T10:14:09.857Z</time>
      </trkpt>
      <trkpt lat="43.12652333" lon="-7.06739333">
        <ele>958.0</ele>
        <time>2022-06-19T10:14:10.863Z</time>
      </trkpt>
      <trkpt lat="43.12648167" lon="-7.06739833">
        <ele>958.0</ele>
        <time>2022-06-19T10:14:11.860Z</time>
      </trkpt>
      <trkpt lat="43.12648167" lon="-7.06739833">
        <ele>958.0</ele>
        <time>2022-06-19T10:14:12.866Z</time>
      </trkpt>
      <trkpt lat="43.12644167" lon="-7.06738833">
        <ele>959.0</ele>
        <time>2022-06-19T10:14:13.868Z</time>
      </trkpt>
      <trkpt lat="43.12644167" lon="-7.06738833">
        <ele>959.0</ele>
        <time>2022-06-19T10:14:14.873Z</time>
      </trkpt>
      <trkpt lat="43.12640167" lon="-7.06739">
        <ele>959.0</ele>
        <time>2022-06-19T10:14:15.871Z</time>
      </trkpt>
      <trkpt lat="43.12640167" lon="-7.06739">
        <ele>959.0</ele>
        <time>2022-06-19T10:14:16.877Z</time>
      </trkpt>
      <trkpt lat="43.12635333" lon="-7.06737833">
        <ele>959.0</ele>
        <time>2022-06-19T10:14:17.872Z</time>
      </trkpt>
      <trkpt lat="43.12632833" lon="-7.067375">
        <ele>960.0</ele>
        <time>2022-06-19T10:14:18.877Z</time>
      </trkpt>
      <trkpt lat="43.12632833" lon="-7.067375">
        <ele>960.0</ele>
        <time>2022-06-19T10:14:19.847Z</time>
      </trkpt>
      <trkpt lat="43.12627833" lon="-7.06737333">
        <ele>960.0</ele>
        <time>2022-06-19T10:14:20.884Z</time>
      </trkpt>
      <trkpt lat="43.12625833" lon="-7.06737">
        <ele>960.0</ele>
        <time>2022-06-19T10:14:21.873Z</time>
      </trkpt>
      <trkpt lat="43.12625833" lon="-7.06737">
        <ele>960.0</ele>
        <time>2022-06-19T10:14:22.879Z</time>
      </trkpt>
      <trkpt lat="43.12621167" lon="-7.06736833">
        <ele>961.0</ele>
        <time>2022-06-19T10:14:23.867Z</time>
      </trkpt>
      <trkpt lat="43.12618667" lon="-7.06736833">
        <ele>961.0</ele>
        <time>2022-06-19T10:14:24.874Z</time>
      </trkpt>
      <trkpt lat="43.12618667" lon="-7.06736833">
        <ele>961.0</ele>
        <time>2022-06-19T10:14:25.880Z</time>
      </trkpt>
      <trkpt lat="43.12615667" lon="-7.06736667">
        <ele>963.0</ele>
        <time>2022-06-19T10:14:26.871Z</time>
      </trkpt>
      <trkpt lat="43.12615667" lon="-7.06736667">
        <ele>963.0</ele>
        <time>2022-06-19T10:14:27.877Z</time>
      </trkpt>
      <trkpt lat="43.12614667" lon="-7.06736667">
        <ele>963.0</ele>
        <time>2022-06-19T10:14:28.859Z</time>
      </trkpt>
      <trkpt lat="43.12614667" lon="-7.06736667">
        <ele>963.0</ele>
        <time>2022-06-19T10:14:29.865Z</time>
      </trkpt>
      <trkpt lat="43.126135" lon="-7.067375">
        <ele>964.0</ele>
        <time>2022-06-19T10:14:30.849Z</time>
      </trkpt>
      <trkpt lat="43.12612333" lon="-7.06735333">
        <ele>964.0</ele>
        <time>2022-06-19T10:14:31.881Z</time>
      </trkpt>
      <trkpt lat="43.12611167" lon="-7.06735">
        <ele>965.0</ele>
        <time>2022-06-19T10:14:32.872Z</time>
      </trkpt>
      <trkpt lat="43.12611167" lon="-7.06735">
        <ele>965.0</ele>
        <time>2022-06-19T10:14:33.878Z</time>
      </trkpt>
      <trkpt lat="43.12609333" lon="-7.06734667">
        <ele>965.0</ele>
        <time>2022-06-19T10:14:34.875Z</time>
      </trkpt>
      <trkpt lat="43.12609333" lon="-7.06734667">
        <ele>965.0</ele>
        <time>2022-06-19T10:14:35.846Z</time>
      </trkpt>
      <trkpt lat="43.126075" lon="-7.06737167">
        <ele>966.0</ele>
        <time>2022-06-19T10:14:36.882Z</time>
      </trkpt>
      <trkpt lat="43.12606833" lon="-7.06740167">
        <ele>965.0</ele>
        <time>2022-06-19T10:14:37.872Z</time>
      </trkpt>
      <trkpt lat="43.12606833" lon="-7.06740167">
        <ele>965.0</ele>
        <time>2022-06-19T10:14:38.878Z</time>
      </trkpt>
      <trkpt lat="43.12607667" lon="-7.06745833">
        <ele>966.0</ele>
        <time>2022-06-19T10:14:39.879Z</time>
      </trkpt>
      <trkpt lat="43.12608167" lon="-7.06747833">
        <ele>965.0</ele>
        <time>2022-06-19T10:14:40.850Z</time>
      </trkpt>
      <trkpt lat="43.12608167" lon="-7.06747833">
        <ele>965.0</ele>
        <time>2022-06-19T10:14:41.856Z</time>
      </trkpt>
      <trkpt lat="43.12608667" lon="-7.06751333">
        <ele>965.0</ele>
        <time>2022-06-19T10:14:42.853Z</time>
      </trkpt>
      <trkpt lat="43.12608" lon="-7.067525">
        <ele>965.0</ele>
        <time>2022-06-19T10:14:43.879Z</time>
      </trkpt>
      <trkpt lat="43.12608" lon="-7.067525">
        <ele>965.0</ele>
        <time>2022-06-19T10:14:44.846Z</time>
      </trkpt>
      <trkpt lat="43.12605833" lon="-7.06753333">
        <ele>964.0</ele>
        <time>2022-06-19T10:14:45.875Z</time>
      </trkpt>
      <trkpt lat="43.12605333" lon="-7.06753667">
        <ele>964.0</ele>
        <time>2022-06-19T10:14:46.852Z</time>
      </trkpt>
      <trkpt lat="43.12605333" lon="-7.06753667">
        <ele>964.0</ele>
        <time>2022-06-19T10:14:47.857Z</time>
      </trkpt>
      <trkpt lat="43.126055" lon="-7.06754">
        <ele>963.0</ele>
        <time>2022-06-19T10:14:54.817Z</time>
      </trkpt>
      <trkpt lat="43.125985" lon="-7.06752667">
        <ele>962.0</ele>
        <time>2022-06-19T10:14:55.820Z</time>
      </trkpt>
      <trkpt lat="43.125985" lon="-7.06752667">
        <ele>962.0</ele>
        <time>2022-06-19T10:14:56.850Z</time>
      </trkpt>
      <trkpt lat="43.12595333" lon="-7.067525">
        <ele>962.0</ele>
        <time>2022-06-19T10:14:57.831Z</time>
      </trkpt>
      <trkpt lat="43.12593833" lon="-7.067525">
        <ele>962.0</ele>
        <time>2022-06-19T10:14:58.830Z</time>
      </trkpt>
      <trkpt lat="43.12593833" lon="-7.067525">
        <ele>962.0</ele>
        <time>2022-06-19T10:14:59.836Z</time>
      </trkpt>
      <trkpt lat="43.125905" lon="-7.06752667">
        <ele>962.0</ele>
        <time>2022-06-19T10:15:00.980Z</time>
      </trkpt>
      <trkpt lat="43.125905" lon="-7.06752667">
        <ele>962.0</ele>
        <time>2022-06-19T10:15:01.838Z</time>
      </trkpt>
      <trkpt lat="43.12587333" lon="-7.067545">
        <ele>962.0</ele>
        <time>2022-06-19T10:15:02.848Z</time>
      </trkpt>
      <trkpt lat="43.125865" lon="-7.06755">
        <ele>963.0</ele>
        <time>2022-06-19T10:15:03.821Z</time>
      </trkpt>
      <trkpt lat="43.12585167" lon="-7.06755167">
        <ele>963.0</ele>
        <time>2022-06-19T10:15:04.852Z</time>
      </trkpt>
      <trkpt lat="43.12584" lon="-7.06755667">
        <ele>963.0</ele>
        <time>2022-06-19T10:15:05.817Z</time>
      </trkpt>
      <trkpt lat="43.12584" lon="-7.06755667">
        <ele>963.0</ele>
        <time>2022-06-19T10:15:06.826Z</time>
      </trkpt>
      <trkpt lat="43.12583" lon="-7.06756833">
        <ele>963.0</ele>
        <time>2022-06-19T10:15:07.829Z</time>
      </trkpt>
      <trkpt lat="43.12583" lon="-7.06756833">
        <ele>963.0</ele>
        <time>2022-06-19T10:15:08.839Z</time>
      </trkpt>
      <trkpt lat="43.12582" lon="-7.067565">
        <ele>963.0</ele>
        <time>2022-06-19T10:15:09.845Z</time>
      </trkpt>
      <trkpt lat="43.12582" lon="-7.067565">
        <ele>963.0</ele>
        <time>2022-06-19T10:15:10.852Z</time>
      </trkpt>
      <trkpt lat="43.12579167" lon="-7.06751833">
        <ele>963.0</ele>
        <time>2022-06-19T10:15:11.852Z</time>
      </trkpt>
      <trkpt lat="43.12579167" lon="-7.06751833">
        <ele>963.0</ele>
        <time>2022-06-19T10:15:12.820Z</time>
      </trkpt>
      <trkpt lat="43.12576667" lon="-7.06750333">
        <ele>964.0</ele>
        <time>2022-06-19T10:15:13.821Z</time>
      </trkpt>
      <trkpt lat="43.12576667" lon="-7.06750333">
        <ele>964.0</ele>
        <time>2022-06-19T10:15:14.831Z</time>
      </trkpt>
      <trkpt lat="43.12574833" lon="-7.06747333">
        <ele>964.0</ele>
        <time>2022-06-19T10:15:15.836Z</time>
      </trkpt>
      <trkpt lat="43.12574833" lon="-7.06747333">
        <ele>964.0</ele>
        <time>2022-06-19T10:15:16.850Z</time>
      </trkpt>
      <trkpt lat="43.12572333" lon="-7.06746167">
        <ele>964.0</ele>
        <time>2022-06-19T10:15:17.823Z</time>
      </trkpt>
      <trkpt lat="43.12571333" lon="-7.06746667">
        <ele>964.0</ele>
        <time>2022-06-19T10:15:18.831Z</time>
      </trkpt>
      <trkpt lat="43.12571333" lon="-7.06746667">
        <ele>964.0</ele>
        <time>2022-06-19T10:15:19.851Z</time>
      </trkpt>
      <trkpt lat="43.12570667" lon="-7.06748333">
        <ele>964.0</ele>
        <time>2022-06-19T10:15:20.854Z</time>
      </trkpt>
      <trkpt lat="43.12569667" lon="-7.067495">
        <ele>965.0</ele>
        <time>2022-06-19T10:15:21.821Z</time>
      </trkpt>
      <trkpt lat="43.12568167" lon="-7.06750667">
        <ele>965.0</ele>
        <time>2022-06-19T10:15:22.834Z</time>
      </trkpt>
      <trkpt lat="43.12568167" lon="-7.06750667">
        <ele>965.0</ele>
        <time>2022-06-19T10:15:23.846Z</time>
      </trkpt>
      <trkpt lat="43.12565833" lon="-7.06752167">
        <ele>965.0</ele>
        <time>2022-06-19T10:15:24.836Z</time>
      </trkpt>
      <trkpt lat="43.12564833" lon="-7.06753167">
        <ele>965.0</ele>
        <time>2022-06-19T10:15:25.826Z</time>
      </trkpt>
      <trkpt lat="43.12564833" lon="-7.06753167">
        <ele>965.0</ele>
        <time>2022-06-19T10:15:26.835Z</time>
      </trkpt>
      <trkpt lat="43.12562333" lon="-7.06755167">
        <ele>966.0</ele>
        <time>2022-06-19T10:15:27.826Z</time>
      </trkpt>
      <trkpt lat="43.12562333" lon="-7.06755167">
        <ele>966.0</ele>
        <time>2022-06-19T10:15:28.833Z</time>
      </trkpt>
      <trkpt lat="43.12559667" lon="-7.06756833">
        <ele>966.0</ele>
        <time>2022-06-19T10:15:29.817Z</time>
      </trkpt>
      <trkpt lat="43.12559667" lon="-7.06756833">
        <ele>966.0</ele>
        <time>2022-06-19T10:15:30.826Z</time>
      </trkpt>
      <trkpt lat="43.12557833" lon="-7.06759167">
        <ele>967.0</ele>
        <time>2022-06-19T10:15:31.827Z</time>
      </trkpt>
      <trkpt lat="43.12557833" lon="-7.06759167">
        <ele>967.0</ele>
        <time>2022-06-19T10:15:32.827Z</time>
      </trkpt>
      <trkpt lat="43.12557833" lon="-7.06761167">
        <ele>968.0</ele>
        <time>2022-06-19T10:15:33.829Z</time>
      </trkpt>
      <trkpt lat="43.12557833" lon="-7.06761167">
        <ele>968.0</ele>
        <time>2022-06-19T10:15:34.837Z</time>
      </trkpt>
      <trkpt lat="43.12556833" lon="-7.06763667">
        <ele>968.0</ele>
        <time>2022-06-19T10:15:35.838Z</time>
      </trkpt>
      <trkpt lat="43.12556833" lon="-7.06763667">
        <ele>968.0</ele>
        <time>2022-06-19T10:15:36.846Z</time>
      </trkpt>
      <trkpt lat="43.12554833" lon="-7.067665">
        <ele>969.0</ele>
        <time>2022-06-19T10:15:37.850Z</time>
      </trkpt>
      <trkpt lat="43.12554167" lon="-7.06768333">
        <ele>969.0</ele>
        <time>2022-06-19T10:15:38.843Z</time>
      </trkpt>
      <trkpt lat="43.12554167" lon="-7.06768333">
        <ele>969.0</ele>
        <time>2022-06-19T10:15:39.852Z</time>
      </trkpt>
      <trkpt lat="43.12551" lon="-7.06772">
        <ele>970.0</ele>
        <time>2022-06-19T10:15:40.838Z</time>
      </trkpt>
      <trkpt lat="43.12551" lon="-7.06772">
        <ele>970.0</ele>
        <time>2022-06-19T10:15:41.850Z</time>
      </trkpt>
      <trkpt lat="43.12548667" lon="-7.06775">
        <ele>970.0</ele>
        <time>2022-06-19T10:15:42.841Z</time>
      </trkpt>
      <trkpt lat="43.12548" lon="-7.06775667">
        <ele>971.0</ele>
        <time>2022-06-19T10:15:43.819Z</time>
      </trkpt>
      <trkpt lat="43.12548" lon="-7.06775667">
        <ele>971.0</ele>
        <time>2022-06-19T10:15:44.840Z</time>
      </trkpt>
      <trkpt lat="43.125455" lon="-7.06777">
        <ele>971.0</ele>
        <time>2022-06-19T10:15:45.848Z</time>
      </trkpt>
      <trkpt lat="43.12544333" lon="-7.06777833">
        <ele>972.0</ele>
        <time>2022-06-19T10:15:46.847Z</time>
      </trkpt>
      <trkpt lat="43.12544333" lon="-7.06777833">
        <ele>972.0</ele>
        <time>2022-06-19T10:15:47.855Z</time>
      </trkpt>
      <trkpt lat="43.12542167" lon="-7.06779">
        <ele>972.0</ele>
        <time>2022-06-19T10:15:48.838Z</time>
      </trkpt>
      <trkpt lat="43.12540833" lon="-7.06779833">
        <ele>973.0</ele>
        <time>2022-06-19T10:15:49.836Z</time>
      </trkpt>
      <trkpt lat="43.12540833" lon="-7.06779833">
        <ele>973.0</ele>
        <time>2022-06-19T10:15:50.847Z</time>
      </trkpt>
      <trkpt lat="43.125355" lon="-7.06783333">
        <ele>973.0</ele>
        <time>2022-06-19T10:15:51.839Z</time>
      </trkpt>
      <trkpt lat="43.125355" lon="-7.06783333">
        <ele>973.0</ele>
        <time>2022-06-19T10:15:52.846Z</time>
      </trkpt>
      <trkpt lat="43.12532333" lon="-7.06785">
        <ele>974.0</ele>
        <time>2022-06-19T10:15:53.850Z</time>
      </trkpt>
      <trkpt lat="43.12532333" lon="-7.06785">
        <ele>974.0</ele>
        <time>2022-06-19T10:15:54.817Z</time>
      </trkpt>
      <trkpt lat="43.125295" lon="-7.06787">
        <ele>974.0</ele>
        <time>2022-06-19T10:15:55.827Z</time>
      </trkpt>
      <trkpt lat="43.125295" lon="-7.06787">
        <ele>974.0</ele>
        <time>2022-06-19T10:15:56.836Z</time>
      </trkpt>
      <trkpt lat="43.12527667" lon="-7.06787667">
        <ele>975.0</ele>
        <time>2022-06-19T10:15:57.830Z</time>
      </trkpt>
      <trkpt lat="43.12527667" lon="-7.06787667">
        <ele>975.0</ele>
        <time>2022-06-19T10:15:58.837Z</time>
      </trkpt>
      <trkpt lat="43.125265" lon="-7.067885">
        <ele>975.0</ele>
        <time>2022-06-19T10:15:59.826Z</time>
      </trkpt>
      <trkpt lat="43.12526667" lon="-7.06788833">
        <ele>976.0</ele>
        <time>2022-06-19T10:16:00.831Z</time>
      </trkpt>
      <trkpt lat="43.12526667" lon="-7.06788833">
        <ele>976.0</ele>
        <time>2022-06-19T10:16:01.849Z</time>
      </trkpt>
      <trkpt lat="43.12526667" lon="-7.06788833">
        <ele>976.0</ele>
        <time>2022-06-19T10:16:20.839Z</time>
      </trkpt>
      <trkpt lat="43.12526667" lon="-7.06788833">
        <ele>976.0</ele>
        <time>2022-06-19T10:16:21.859Z</time>
      </trkpt>
      <trkpt lat="43.12520333" lon="-7.067935">
        <ele>980.0</ele>
        <time>2022-06-19T10:16:22.858Z</time>
      </trkpt>
      <trkpt lat="43.12519833" lon="-7.06801667">
        <ele>976.0</ele>
        <time>2022-06-19T10:16:43.348Z</time>
      </trkpt>
      <trkpt lat="43.12519833" lon="-7.06801667">
        <ele>976.0</ele>
        <time>2022-06-19T10:16:45.868Z</time>
      </trkpt>
      <trkpt lat="43.12519833" lon="-7.06801667">
        <ele>976.0</ele>
        <time>2022-06-19T10:16:46.852Z</time>
      </trkpt>
      <trkpt lat="43.12516333" lon="-7.06793167">
        <ele>976.0</ele>
        <time>2022-06-19T10:16:47.859Z</time>
      </trkpt>
      <trkpt lat="43.12516333" lon="-7.06793167">
        <ele>976.0</ele>
        <time>2022-06-19T10:16:48.852Z</time>
      </trkpt>
      <trkpt lat="43.1251" lon="-7.06792833">
        <ele>976.0</ele>
        <time>2022-06-19T10:16:49.868Z</time>
      </trkpt>
      <trkpt lat="43.1251" lon="-7.06792833">
        <ele>976.0</ele>
        <time>2022-06-19T10:16:50.835Z</time>
      </trkpt>
      <trkpt lat="43.12506" lon="-7.06792167">
        <ele>976.0</ele>
        <time>2022-06-19T10:16:51.873Z</time>
      </trkpt>
      <trkpt lat="43.12506" lon="-7.06792167">
        <ele>976.0</ele>
        <time>2022-06-19T10:16:52.845Z</time>
      </trkpt>
      <trkpt lat="43.12502" lon="-7.06793333">
        <ele>976.0</ele>
        <time>2022-06-19T10:16:53.869Z</time>
      </trkpt>
      <trkpt lat="43.12499667" lon="-7.06793">
        <ele>976.0</ele>
        <time>2022-06-19T10:16:54.864Z</time>
      </trkpt>
      <trkpt lat="43.124975" lon="-7.06792833">
        <ele>976.0</ele>
        <time>2022-06-19T10:16:55.873Z</time>
      </trkpt>
      <trkpt lat="43.124975" lon="-7.06792833">
        <ele>976.0</ele>
        <time>2022-06-19T10:16:56.841Z</time>
      </trkpt>
      <trkpt lat="43.12492833" lon="-7.06792833">
        <ele>976.0</ele>
        <time>2022-06-19T10:16:57.866Z</time>
      </trkpt>
      <trkpt lat="43.12490333" lon="-7.06793167">
        <ele>976.0</ele>
        <time>2022-06-19T10:16:58.866Z</time>
      </trkpt>
      <trkpt lat="43.12490333" lon="-7.06793167">
        <ele>976.0</ele>
        <time>2022-06-19T10:16:59.872Z</time>
      </trkpt>
      <trkpt lat="43.12485667" lon="-7.06794667">
        <ele>977.0</ele>
        <time>2022-06-19T10:17:00.856Z</time>
      </trkpt>
      <trkpt lat="43.12483833" lon="-7.06795833">
        <ele>977.0</ele>
        <time>2022-06-19T10:17:01.850Z</time>
      </trkpt>
      <trkpt lat="43.12483833" lon="-7.06795833">
        <ele>977.0</ele>
        <time>2022-06-19T10:17:02.856Z</time>
      </trkpt>
      <trkpt lat="43.12478833" lon="-7.06796333">
        <ele>977.0</ele>
        <time>2022-06-19T10:17:03.836Z</time>
      </trkpt>
      <trkpt lat="43.12478833" lon="-7.06796333">
        <ele>977.0</ele>
        <time>2022-06-19T10:17:04.843Z</time>
      </trkpt>
      <trkpt lat="43.12474167" lon="-7.06798">
        <ele>977.0</ele>
        <time>2022-06-19T10:17:05.839Z</time>
      </trkpt>
      <trkpt lat="43.12472167" lon="-7.067995">
        <ele>977.0</ele>
        <time>2022-06-19T10:17:06.844Z</time>
      </trkpt>
      <trkpt lat="43.12471" lon="-7.06801167">
        <ele>977.0</ele>
        <time>2022-06-19T10:17:07.839Z</time>
      </trkpt>
      <trkpt lat="43.12471" lon="-7.06801167">
        <ele>977.0</ele>
        <time>2022-06-19T10:17:08.848Z</time>
      </trkpt>
      <trkpt lat="43.12467333" lon="-7.06803167">
        <ele>978.0</ele>
        <time>2022-06-19T10:17:09.856Z</time>
      </trkpt>
      <trkpt lat="43.12467333" lon="-7.06803167">
        <ele>978.0</ele>
        <time>2022-06-19T10:17:10.862Z</time>
      </trkpt>
      <trkpt lat="43.12463167" lon="-7.068065">
        <ele>978.0</ele>
        <time>2022-06-19T10:17:11.862Z</time>
      </trkpt>
      <trkpt lat="43.12463167" lon="-7.068065">
        <ele>978.0</ele>
        <time>2022-06-19T10:17:12.868Z</time>
      </trkpt>
      <trkpt lat="43.12459333" lon="-7.068105">
        <ele>978.0</ele>
        <time>2022-06-19T10:17:13.870Z</time>
      </trkpt>
      <trkpt lat="43.12459333" lon="-7.068105">
        <ele>978.0</ele>
        <time>2022-06-19T10:17:14.836Z</time>
      </trkpt>
      <trkpt lat="43.124525" lon="-7.06818833">
        <ele>979.0</ele>
        <time>2022-06-19T10:17:15.866Z</time>
      </trkpt>
      <trkpt lat="43.12449" lon="-7.068225">
        <ele>979.0</ele>
        <time>2022-06-19T10:17:16.870Z</time>
      </trkpt>
      <trkpt lat="43.12449" lon="-7.068225">
        <ele>979.0</ele>
        <time>2022-06-19T10:17:17.836Z</time>
      </trkpt>
      <trkpt lat="43.12441833" lon="-7.068285">
        <ele>979.0</ele>
        <time>2022-06-19T10:17:18.864Z</time>
      </trkpt>
      <trkpt lat="43.124385" lon="-7.06831">
        <ele>979.0</ele>
        <time>2022-06-19T10:17:19.873Z</time>
      </trkpt>
      <trkpt lat="43.124385" lon="-7.06831">
        <ele>979.0</ele>
        <time>2022-06-19T10:17:20.842Z</time>
      </trkpt>
      <trkpt lat="43.124325" lon="-7.06836167">
        <ele>980.0</ele>
        <time>2022-06-19T10:17:21.870Z</time>
      </trkpt>
      <trkpt lat="43.124325" lon="-7.06836167">
        <ele>980.0</ele>
        <time>2022-06-19T10:17:22.836Z</time>
      </trkpt>
      <trkpt lat="43.12425833" lon="-7.06841167">
        <ele>980.0</ele>
        <time>2022-06-19T10:17:23.842Z</time>
      </trkpt>
      <trkpt lat="43.12425833" lon="-7.06841167">
        <ele>980.0</ele>
        <time>2022-06-19T10:17:24.848Z</time>
      </trkpt>
      <trkpt lat="43.12417833" lon="-7.06847167">
        <ele>980.0</ele>
        <time>2022-06-19T10:17:25.834Z</time>
      </trkpt>
      <trkpt lat="43.12417833" lon="-7.06847167">
        <ele>980.0</ele>
        <time>2022-06-19T10:17:26.841Z</time>
      </trkpt>
      <trkpt lat="43.12405" lon="-7.06855667">
        <ele>978.0</ele>
        <time>2022-06-19T10:17:27.834Z</time>
      </trkpt>
      <trkpt lat="43.12405" lon="-7.06855667">
        <ele>978.0</ele>
        <time>2022-06-19T10:17:28.845Z</time>
      </trkpt>
      <trkpt lat="43.12394" lon="-7.06861667">
        <ele>975.0</ele>
        <time>2022-06-19T10:17:29.871Z</time>
      </trkpt>
      <trkpt lat="43.12394" lon="-7.06861667">
        <ele>975.0</ele>
        <time>2022-06-19T10:17:30.837Z</time>
      </trkpt>
      <trkpt lat="43.12389167" lon="-7.06862833">
        <ele>974.0</ele>
        <time>2022-06-19T10:17:31.839Z</time>
      </trkpt>
      <trkpt lat="43.12389167" lon="-7.06862833">
        <ele>974.0</ele>
        <time>2022-06-19T10:17:32.846Z</time>
      </trkpt>
      <trkpt lat="43.12384333" lon="-7.06864833">
        <ele>972.0</ele>
        <time>2022-06-19T10:17:33.849Z</time>
      </trkpt>
      <trkpt lat="43.12381833" lon="-7.06866">
        <ele>971.0</ele>
        <time>2022-06-19T10:17:34.859Z</time>
      </trkpt>
      <trkpt lat="43.12381833" lon="-7.06866">
        <ele>971.0</ele>
        <time>2022-06-19T10:17:35.865Z</time>
      </trkpt>
      <trkpt lat="43.12375833" lon="-7.068675">
        <ele>971.0</ele>
        <time>2022-06-19T10:17:36.858Z</time>
      </trkpt>
      <trkpt lat="43.123725" lon="-7.068685">
        <ele>971.0</ele>
        <time>2022-06-19T10:17:37.865Z</time>
      </trkpt>
      <trkpt lat="43.123725" lon="-7.068685">
        <ele>971.0</ele>
        <time>2022-06-19T10:17:38.871Z</time>
      </trkpt>
      <trkpt lat="43.12365667" lon="-7.068665">
        <ele>970.0</ele>
        <time>2022-06-19T10:17:39.862Z</time>
      </trkpt>
      <trkpt lat="43.12365667" lon="-7.068665">
        <ele>970.0</ele>
        <time>2022-06-19T10:17:40.843Z</time>
      </trkpt>
      <trkpt lat="43.12358333" lon="-7.068645">
        <ele>969.0</ele>
        <time>2022-06-19T10:17:41.839Z</time>
      </trkpt>
      <trkpt lat="43.12354167" lon="-7.06863">
        <ele>969.0</ele>
        <time>2022-06-19T10:17:42.864Z</time>
      </trkpt>
      <trkpt lat="43.12354167" lon="-7.06863">
        <ele>969.0</ele>
        <time>2022-06-19T10:17:43.871Z</time>
      </trkpt>
      <trkpt lat="43.12345167" lon="-7.06860833">
        <ele>968.0</ele>
        <time>2022-06-19T10:17:44.873Z</time>
      </trkpt>
      <trkpt lat="43.12345167" lon="-7.06860833">
        <ele>968.0</ele>
        <time>2022-06-19T10:17:45.839Z</time>
      </trkpt>
      <trkpt lat="43.12336333" lon="-7.06857667">
        <ele>969.0</ele>
        <time>2022-06-19T10:17:46.866Z</time>
      </trkpt>
      <trkpt lat="43.12331" lon="-7.06855833">
        <ele>968.0</ele>
        <time>2022-06-19T10:17:47.859Z</time>
      </trkpt>
      <trkpt lat="43.12325667" lon="-7.06854">
        <ele>967.0</ele>
        <time>2022-06-19T10:17:48.844Z</time>
      </trkpt>
      <trkpt lat="43.12319833" lon="-7.06852333">
        <ele>967.0</ele>
        <time>2022-06-19T10:17:49.871Z</time>
      </trkpt>
      <trkpt lat="43.12319833" lon="-7.06852333">
        <ele>967.0</ele>
        <time>2022-06-19T10:17:50.837Z</time>
      </trkpt>
      <trkpt lat="43.123095" lon="-7.068535">
        <ele>966.0</ele>
        <time>2022-06-19T10:17:51.852Z</time>
      </trkpt>
      <trkpt lat="43.123095" lon="-7.068535">
        <ele>966.0</ele>
        <time>2022-06-19T10:17:52.858Z</time>
      </trkpt>
      <trkpt lat="43.123005" lon="-7.06851167">
        <ele>964.0</ele>
        <time>2022-06-19T10:17:53.840Z</time>
      </trkpt>
      <trkpt lat="43.12297167" lon="-7.06849167">
        <ele>963.0</ele>
        <time>2022-06-19T10:17:54.837Z</time>
      </trkpt>
      <trkpt lat="43.12297167" lon="-7.06849167">
        <ele>963.0</ele>
        <time>2022-06-19T10:17:55.844Z</time>
      </trkpt>
      <trkpt lat="43.12290167" lon="-7.06844833">
        <ele>962.0</ele>
        <time>2022-06-19T10:17:56.851Z</time>
      </trkpt>
      <trkpt lat="43.12290167" lon="-7.06844833">
        <ele>962.0</ele>
        <time>2022-06-19T10:17:57.857Z</time>
      </trkpt>
      <trkpt lat="43.12281667" lon="-7.068435">
        <ele>960.0</ele>
        <time>2022-06-19T10:17:58.860Z</time>
      </trkpt>
      <trkpt lat="43.12281667" lon="-7.068435">
        <ele>960.0</ele>
        <time>2022-06-19T10:17:59.866Z</time>
      </trkpt>
      <trkpt lat="43.12271167" lon="-7.06844">
        <ele>958.0</ele>
        <time>2022-06-19T10:18:00.847Z</time>
      </trkpt>
      <trkpt lat="43.12271167" lon="-7.06844">
        <ele>958.0</ele>
        <time>2022-06-19T10:18:01.853Z</time>
      </trkpt>
      <trkpt lat="43.12260333" lon="-7.06847167">
        <ele>956.0</ele>
        <time>2022-06-19T10:18:02.864Z</time>
      </trkpt>
      <trkpt lat="43.12260333" lon="-7.06847167">
        <ele>956.0</ele>
        <time>2022-06-19T10:18:03.869Z</time>
      </trkpt>
      <trkpt lat="43.12251" lon="-7.06852167">
        <ele>955.0</ele>
        <time>2022-06-19T10:18:04.861Z</time>
      </trkpt>
      <trkpt lat="43.12246833" lon="-7.068545">
        <ele>954.0</ele>
        <time>2022-06-19T10:18:05.869Z</time>
      </trkpt>
      <trkpt lat="43.12246833" lon="-7.068545">
        <ele>954.0</ele>
        <time>2022-06-19T10:18:06.835Z</time>
      </trkpt>
      <trkpt lat="43.12237667" lon="-7.06860333">
        <ele>953.0</ele>
        <time>2022-06-19T10:18:07.843Z</time>
      </trkpt>
      <trkpt lat="43.12237667" lon="-7.06860333">
        <ele>953.0</ele>
        <time>2022-06-19T10:18:08.848Z</time>
      </trkpt>
      <trkpt lat="43.12227167" lon="-7.06867667">
        <ele>951.0</ele>
        <time>2022-06-19T10:18:09.839Z</time>
      </trkpt>
      <trkpt lat="43.12227167" lon="-7.06867667">
        <ele>951.0</ele>
        <time>2022-06-19T10:18:10.846Z</time>
      </trkpt>
      <trkpt lat="43.12216333" lon="-7.068765">
        <ele>950.0</ele>
        <time>2022-06-19T10:18:11.850Z</time>
      </trkpt>
      <trkpt lat="43.12210167" lon="-7.06881167">
        <ele>950.0</ele>
        <time>2022-06-19T10:18:12.840Z</time>
      </trkpt>
      <trkpt lat="43.12210167" lon="-7.06881167">
        <ele>950.0</ele>
        <time>2022-06-19T10:18:13.849Z</time>
      </trkpt>
      <trkpt lat="43.122005" lon="-7.06890667">
        <ele>949.0</ele>
        <time>2022-06-19T10:18:14.836Z</time>
      </trkpt>
      <trkpt lat="43.122005" lon="-7.06890667">
        <ele>949.0</ele>
        <time>2022-06-19T10:18:15.844Z</time>
      </trkpt>
      <trkpt lat="43.121965" lon="-7.06897">
        <ele>948.0</ele>
        <time>2022-06-19T10:18:16.839Z</time>
      </trkpt>
      <trkpt lat="43.121965" lon="-7.06897">
        <ele>948.0</ele>
        <time>2022-06-19T10:18:17.847Z</time>
      </trkpt>
      <trkpt lat="43.12197167" lon="-7.06901333">
        <ele>947.0</ele>
        <time>2022-06-19T10:18:18.849Z</time>
      </trkpt>
      <trkpt lat="43.12197833" lon="-7.06902333">
        <ele>946.0</ele>
        <time>2022-06-19T10:18:19.850Z</time>
      </trkpt>
      <trkpt lat="43.12197833" lon="-7.06902333">
        <ele>946.0</ele>
        <time>2022-06-19T10:18:20.857Z</time>
      </trkpt>
      <trkpt lat="43.12199333" lon="-7.06902833">
        <ele>946.0</ele>
        <time>2022-06-19T10:18:21.846Z</time>
      </trkpt>
      <trkpt lat="43.12199833" lon="-7.069035">
        <ele>946.0</ele>
        <time>2022-06-19T10:18:22.856Z</time>
      </trkpt>
      <trkpt lat="43.12199833" lon="-7.069035">
        <ele>946.0</ele>
        <time>2022-06-19T10:18:23.863Z</time>
      </trkpt>
      <trkpt lat="43.12200167" lon="-7.06906167">
        <ele>945.0</ele>
        <time>2022-06-19T10:18:24.871Z</time>
      </trkpt>
      <trkpt lat="43.12200667" lon="-7.06908667">
        <ele>945.0</ele>
        <time>2022-06-19T10:18:25.860Z</time>
      </trkpt>
      <trkpt lat="43.12200667" lon="-7.06908667">
        <ele>945.0</ele>
        <time>2022-06-19T10:18:26.853Z</time>
      </trkpt>
      <trkpt lat="43.121995" lon="-7.06917">
        <ele>944.0</ele>
        <time>2022-06-19T10:18:27.858Z</time>
      </trkpt>
      <trkpt lat="43.121995" lon="-7.06917">
        <ele>944.0</ele>
        <time>2022-06-19T10:18:28.851Z</time>
      </trkpt>
      <trkpt lat="43.12194333" lon="-7.06925833">
        <ele>944.0</ele>
        <time>2022-06-19T10:18:29.873Z</time>
      </trkpt>
      <trkpt lat="43.12194333" lon="-7.06925833">
        <ele>944.0</ele>
        <time>2022-06-19T10:18:30.856Z</time>
      </trkpt>
      <trkpt lat="43.121875" lon="-7.06933333">
        <ele>943.0</ele>
        <time>2022-06-19T10:18:31.835Z</time>
      </trkpt>
      <trkpt lat="43.121875" lon="-7.06933333">
        <ele>943.0</ele>
        <time>2022-06-19T10:18:32.842Z</time>
      </trkpt>
      <trkpt lat="43.121795" lon="-7.06941833">
        <ele>942.0</ele>
        <time>2022-06-19T10:18:33.843Z</time>
      </trkpt>
      <trkpt lat="43.121795" lon="-7.06941833">
        <ele>942.0</ele>
        <time>2022-06-19T10:18:34.850Z</time>
      </trkpt>
      <trkpt lat="43.12173" lon="-7.06951667">
        <ele>941.0</ele>
        <time>2022-06-19T10:18:35.856Z</time>
      </trkpt>
      <trkpt lat="43.12173" lon="-7.06951667">
        <ele>941.0</ele>
        <time>2022-06-19T10:18:36.862Z</time>
      </trkpt>
      <trkpt lat="43.121705" lon="-7.06961667">
        <ele>940.0</ele>
        <time>2022-06-19T10:18:37.858Z</time>
      </trkpt>
      <trkpt lat="43.121705" lon="-7.06961667">
        <ele>940.0</ele>
        <time>2022-06-19T10:18:38.863Z</time>
      </trkpt>
      <trkpt lat="43.12170333" lon="-7.06967667">
        <ele>939.0</ele>
        <time>2022-06-19T10:18:39.852Z</time>
      </trkpt>
      <trkpt lat="43.12170333" lon="-7.06967667">
        <ele>939.0</ele>
        <time>2022-06-19T10:18:40.873Z</time>
      </trkpt>
      <trkpt lat="43.12170333" lon="-7.06971167">
        <ele>939.0</ele>
        <time>2022-06-19T10:18:41.850Z</time>
      </trkpt>
      <trkpt lat="43.12170333" lon="-7.06971167">
        <ele>939.0</ele>
        <time>2022-06-19T10:18:42.839Z</time>
      </trkpt>
      <trkpt lat="43.12170333" lon="-7.06972167">
        <ele>938.0</ele>
        <time>2022-06-19T10:18:43.836Z</time>
      </trkpt>
      <trkpt lat="43.12170333" lon="-7.06972167">
        <ele>938.0</ele>
        <time>2022-06-19T10:18:56.864Z</time>
      </trkpt>
      <trkpt lat="43.12170333" lon="-7.06972167">
        <ele>938.0</ele>
        <time>2022-06-19T10:18:57.847Z</time>
      </trkpt>
      <trkpt lat="43.12164667" lon="-7.06976833">
        <ele>936.0</ele>
        <time>2022-06-19T10:18:58.863Z</time>
      </trkpt>
      <trkpt lat="43.12164667" lon="-7.06976833">
        <ele>936.0</ele>
        <time>2022-06-19T10:18:59.869Z</time>
      </trkpt>
      <trkpt lat="43.12163667" lon="-7.069765">
        <ele>936.0</ele>
        <time>2022-06-19T10:19:00.869Z</time>
      </trkpt>
      <trkpt lat="43.12163" lon="-7.06976333">
        <ele>936.0</ele>
        <time>2022-06-19T10:19:01.856Z</time>
      </trkpt>
      <trkpt lat="43.12163" lon="-7.06976333">
        <ele>936.0</ele>
        <time>2022-06-19T10:19:02.863Z</time>
      </trkpt>
      <trkpt lat="43.12162167" lon="-7.06976667">
        <ele>936.0</ele>
        <time>2022-06-19T10:19:03.869Z</time>
      </trkpt>
      <trkpt lat="43.12162167" lon="-7.06976667">
        <ele>936.0</ele>
        <time>2022-06-19T10:19:04.875Z</time>
      </trkpt>
      <trkpt lat="43.12159167" lon="-7.06969">
        <ele>930.0</ele>
        <time>2022-06-19T10:19:22.333Z</time>
      </trkpt>
      <trkpt lat="43.12159667" lon="-7.06968833">
        <ele>930.0</ele>
        <time>2022-06-19T10:19:23.335Z</time>
      </trkpt>
      <trkpt lat="43.12159667" lon="-7.06968833">
        <ele>930.0</ele>
        <time>2022-06-19T10:19:24.331Z</time>
      </trkpt>
      <trkpt lat="43.12159667" lon="-7.06968833">
        <ele>930.0</ele>
        <time>2022-06-19T10:19:26.863Z</time>
      </trkpt>
      <trkpt lat="43.12159667" lon="-7.06968833">
        <ele>930.0</ele>
        <time>2022-06-19T10:19:27.852Z</time>
      </trkpt>
      <trkpt lat="43.12161167" lon="-7.06968833">
        <ele>930.0</ele>
        <time>2022-06-19T10:19:28.874Z</time>
      </trkpt>
      <trkpt lat="43.12161167" lon="-7.06968833">
        <ele>930.0</ele>
        <time>2022-06-19T10:19:29.841Z</time>
      </trkpt>
      <trkpt lat="43.12160167" lon="-7.06971667">
        <ele>930.0</ele>
        <time>2022-06-19T10:19:30.845Z</time>
      </trkpt>
      <trkpt lat="43.121605" lon="-7.069715">
        <ele>930.0</ele>
        <time>2022-06-19T10:19:31.843Z</time>
      </trkpt>
      <trkpt lat="43.121605" lon="-7.069715">
        <ele>930.0</ele>
        <time>2022-06-19T10:19:32.851Z</time>
      </trkpt>
      <trkpt lat="43.12160333" lon="-7.06972167">
        <ele>930.0</ele>
        <time>2022-06-19T10:19:33.849Z</time>
      </trkpt>
      <trkpt lat="43.12169667" lon="-7.06965667">
        <ele>920.0</ele>
        <time>2022-06-19T10:33:18.530Z</time>
      </trkpt>
      <trkpt lat="43.12169667" lon="-7.06965667">
        <ele>920.0</ele>
        <time>2022-06-19T10:33:19.546Z</time>
      </trkpt>
      <trkpt lat="43.12169" lon="-7.06966333">
        <ele>920.0</ele>
        <time>2022-06-19T10:33:20.514Z</time>
      </trkpt>
      <trkpt lat="43.12169" lon="-7.06966167">
        <ele>920.0</ele>
        <time>2022-06-19T10:33:21.535Z</time>
      </trkpt>
      <trkpt lat="43.12168833" lon="-7.069665">
        <ele>920.0</ele>
        <time>2022-06-19T10:33:37.501Z</time>
      </trkpt>
      <trkpt lat="43.12168833" lon="-7.069665">
        <ele>920.0</ele>
        <time>2022-06-19T10:33:38.494Z</time>
      </trkpt>
      <trkpt lat="43.121575" lon="-7.06968833">
        <ele>920.0</ele>
        <time>2022-06-19T10:33:39.498Z</time>
      </trkpt>
      <trkpt lat="43.121575" lon="-7.06968833">
        <ele>920.0</ele>
        <time>2022-06-19T10:33:40.493Z</time>
      </trkpt>
      <trkpt lat="43.12154333" lon="-7.06973167">
        <ele>921.0</ele>
        <time>2022-06-19T10:33:41.509Z</time>
      </trkpt>
      <trkpt lat="43.12154333" lon="-7.06973167">
        <ele>921.0</ele>
        <time>2022-06-19T10:33:42.504Z</time>
      </trkpt>
      <trkpt lat="43.12152333" lon="-7.06978333">
        <ele>924.0</ele>
        <time>2022-06-19T10:33:43.513Z</time>
      </trkpt>
      <trkpt lat="43.12152333" lon="-7.06978333">
        <ele>924.0</ele>
        <time>2022-06-19T10:33:44.490Z</time>
      </trkpt>
      <trkpt lat="43.1215" lon="-7.06979">
        <ele>925.0</ele>
        <time>2022-06-19T10:33:45.483Z</time>
      </trkpt>
      <trkpt lat="43.1215" lon="-7.06979">
        <ele>925.0</ele>
        <time>2022-06-19T10:33:46.495Z</time>
      </trkpt>
      <trkpt lat="43.12148667" lon="-7.06977833">
        <ele>927.0</ele>
        <time>2022-06-19T10:33:47.494Z</time>
      </trkpt>
      <trkpt lat="43.12148667" lon="-7.06977833">
        <ele>927.0</ele>
        <time>2022-06-19T10:33:48.487Z</time>
      </trkpt>
      <trkpt lat="43.12146833" lon="-7.069775">
        <ele>929.0</ele>
        <time>2022-06-19T10:33:49.502Z</time>
      </trkpt>
      <trkpt lat="43.12146833" lon="-7.069775">
        <ele>929.0</ele>
        <time>2022-06-19T10:33:50.487Z</time>
      </trkpt>
      <trkpt lat="43.12145" lon="-7.06977333">
        <ele>931.0</ele>
        <time>2022-06-19T10:33:51.483Z</time>
      </trkpt>
      <trkpt lat="43.12144" lon="-7.069775">
        <ele>932.0</ele>
        <time>2022-06-19T10:33:52.504Z</time>
      </trkpt>
      <trkpt lat="43.12144" lon="-7.069775">
        <ele>932.0</ele>
        <time>2022-06-19T10:33:53.511Z</time>
      </trkpt>
      <trkpt lat="43.121425" lon="-7.069785">
        <ele>933.0</ele>
        <time>2022-06-19T10:33:54.499Z</time>
      </trkpt>
      <trkpt lat="43.121415" lon="-7.06979">
        <ele>933.0</ele>
        <time>2022-06-19T10:33:55.517Z</time>
      </trkpt>
      <trkpt lat="43.121415" lon="-7.06979">
        <ele>933.0</ele>
        <time>2022-06-19T10:33:56.489Z</time>
      </trkpt>
      <trkpt lat="43.1214" lon="-7.06979667">
        <ele>934.0</ele>
        <time>2022-06-19T10:33:57.515Z</time>
      </trkpt>
      <trkpt lat="43.1214" lon="-7.06979667">
        <ele>934.0</ele>
        <time>2022-06-19T10:33:58.488Z</time>
      </trkpt>
      <trkpt lat="43.12138667" lon="-7.06980667">
        <ele>935.0</ele>
        <time>2022-06-19T10:33:59.516Z</time>
      </trkpt>
      <trkpt lat="43.12138667" lon="-7.06980667">
        <ele>935.0</ele>
        <time>2022-06-19T10:34:00.500Z</time>
      </trkpt>
      <trkpt lat="43.12138167" lon="-7.06981667">
        <ele>935.0</ele>
        <time>2022-06-19T10:34:01.486Z</time>
      </trkpt>
      <trkpt lat="43.12138167" lon="-7.06981667">
        <ele>935.0</ele>
        <time>2022-06-19T10:34:02.505Z</time>
      </trkpt>
      <trkpt lat="43.12138" lon="-7.06983">
        <ele>935.0</ele>
        <time>2022-06-19T10:34:03.494Z</time>
      </trkpt>
      <trkpt lat="43.12138" lon="-7.06983">
        <ele>935.0</ele>
        <time>2022-06-19T10:34:04.489Z</time>
      </trkpt>
      <trkpt lat="43.121375" lon="-7.06984">
        <ele>936.0</ele>
        <time>2022-06-19T10:34:05.509Z</time>
      </trkpt>
      <trkpt lat="43.121375" lon="-7.06984">
        <ele>936.0</ele>
        <time>2022-06-19T10:34:06.478Z</time>
      </trkpt>
      <trkpt lat="43.121375" lon="-7.06983167">
        <ele>936.0</ele>
        <time>2022-06-19T10:34:07.509Z</time>
      </trkpt>
      <trkpt lat="43.121375" lon="-7.06983">
        <ele>936.0</ele>
        <time>2022-06-19T10:34:08.492Z</time>
      </trkpt>
      <trkpt lat="43.121375" lon="-7.06983">
        <ele>936.0</ele>
        <time>2022-06-19T10:34:09.512Z</time>
      </trkpt>
      <trkpt lat="43.121375" lon="-7.06983">
        <ele>936.0</ele>
        <time>2022-06-19T10:34:10.490Z</time>
      </trkpt>
      <trkpt lat="43.121375" lon="-7.06983">
        <ele>936.0</ele>
        <time>2022-06-19T10:34:11.499Z</time>
      </trkpt>
      <trkpt lat="43.121375" lon="-7.06983">
        <ele>936.0</ele>
        <time>2022-06-19T10:34:20.020Z</time>
      </trkpt>
      <trkpt lat="43.121375" lon="-7.06983">
        <ele>936.0</ele>
        <time>2022-06-19T10:34:21.018Z</time>
      </trkpt>
      <trkpt lat="43.121395" lon="-7.06978667">
        <ele>937.0</ele>
        <time>2022-06-19T10:34:21.985Z</time>
      </trkpt>
      <trkpt lat="43.121395" lon="-7.06978667">
        <ele>937.0</ele>
        <time>2022-06-19T10:34:23.002Z</time>
      </trkpt>
      <trkpt lat="43.12141333" lon="-7.06978333">
        <ele>937.0</ele>
        <time>2022-06-19T10:34:23.989Z</time>
      </trkpt>
      <trkpt lat="43.12141333" lon="-7.06978333">
        <ele>937.0</ele>
        <time>2022-06-19T10:34:24.997Z</time>
      </trkpt>
      <trkpt lat="43.12144167" lon="-7.06978333">
        <ele>937.0</ele>
        <time>2022-06-19T10:34:25.989Z</time>
      </trkpt>
      <trkpt lat="43.12144167" lon="-7.06978333">
        <ele>937.0</ele>
        <time>2022-06-19T10:34:26.995Z</time>
      </trkpt>
      <trkpt lat="43.121465" lon="-7.069795">
        <ele>937.0</ele>
        <time>2022-06-19T10:34:28.010Z</time>
      </trkpt>
      <trkpt lat="43.12147333" lon="-7.06980333">
        <ele>936.0</ele>
        <time>2022-06-19T10:34:29.002Z</time>
      </trkpt>
      <trkpt lat="43.12147333" lon="-7.06980333">
        <ele>936.0</ele>
        <time>2022-06-19T10:34:30.008Z</time>
      </trkpt>
      <trkpt lat="43.12150167" lon="-7.06981">
        <ele>936.0</ele>
        <time>2022-06-19T10:34:31.020Z</time>
      </trkpt>
      <trkpt lat="43.12152167" lon="-7.069805">
        <ele>936.0</ele>
        <time>2022-06-19T10:34:31.990Z</time>
      </trkpt>
      <trkpt lat="43.12152167" lon="-7.069805">
        <ele>936.0</ele>
        <time>2022-06-19T10:34:32.999Z</time>
      </trkpt>
      <trkpt lat="43.12155833" lon="-7.069805">
        <ele>936.0</ele>
        <time>2022-06-19T10:34:33.991Z</time>
      </trkpt>
      <trkpt lat="43.12155833" lon="-7.069805">
        <ele>936.0</ele>
        <time>2022-06-19T10:34:34.997Z</time>
      </trkpt>
      <trkpt lat="43.12158333" lon="-7.069805">
        <ele>936.0</ele>
        <time>2022-06-19T10:34:36.006Z</time>
      </trkpt>
      <trkpt lat="43.12158833" lon="-7.069805">
        <ele>936.0</ele>
        <time>2022-06-19T10:34:37.007Z</time>
      </trkpt>
      <trkpt lat="43.12158833" lon="-7.069805">
        <ele>936.0</ele>
        <time>2022-06-19T10:34:38.012Z</time>
      </trkpt>
      <trkpt lat="43.12158" lon="-7.06981333">
        <ele>936.0</ele>
        <time>2022-06-19T10:34:38.985Z</time>
      </trkpt>
      <trkpt lat="43.12158" lon="-7.06981333">
        <ele>936.0</ele>
        <time>2022-06-19T10:34:39.992Z</time>
      </trkpt>
      <trkpt lat="43.121585" lon="-7.06981">
        <ele>936.0</ele>
        <time>2022-06-19T10:34:40.983Z</time>
      </trkpt>
      <trkpt lat="43.121585" lon="-7.06981">
        <ele>936.0</ele>
        <time>2022-06-19T10:34:41.989Z</time>
      </trkpt>
      <trkpt lat="43.121585" lon="-7.06981">
        <ele>936.0</ele>
        <time>2022-06-19T10:34:43.013Z</time>
      </trkpt>
      <trkpt lat="43.121585" lon="-7.06981">
        <ele>936.0</ele>
        <time>2022-06-19T10:39:29.033Z</time>
      </trkpt>
      <trkpt lat="43.12146167" lon="-7.069775">
        <ele>933.0</ele>
        <time>2022-06-19T10:39:30.056Z</time>
      </trkpt>
      <trkpt lat="43.12146167" lon="-7.069775">
        <ele>933.0</ele>
        <time>2022-06-19T10:39:31.034Z</time>
      </trkpt>
      <trkpt lat="43.12138833" lon="-7.06976333">
        <ele>933.0</ele>
        <time>2022-06-19T10:39:32.032Z</time>
      </trkpt>
      <trkpt lat="43.12138833" lon="-7.06976333">
        <ele>933.0</ele>
        <time>2022-06-19T10:39:33.033Z</time>
      </trkpt>
      <trkpt lat="43.12130167" lon="-7.06977667">
        <ele>933.0</ele>
        <time>2022-06-19T10:39:34.053Z</time>
      </trkpt>
      <trkpt lat="43.12130167" lon="-7.06977667">
        <ele>933.0</ele>
        <time>2022-06-19T10:39:35.018Z</time>
      </trkpt>
      <trkpt lat="43.12120667" lon="-7.069795">
        <ele>933.0</ele>
        <time>2022-06-19T10:39:36.050Z</time>
      </trkpt>
      <trkpt lat="43.12120667" lon="-7.069795">
        <ele>933.0</ele>
        <time>2022-06-19T10:39:37.016Z</time>
      </trkpt>
      <trkpt lat="43.12110833" lon="-7.06982167">
        <ele>932.0</ele>
        <time>2022-06-19T10:39:38.048Z</time>
      </trkpt>
      <trkpt lat="43.12110833" lon="-7.06982167">
        <ele>932.0</ele>
        <time>2022-06-19T10:39:39.055Z</time>
      </trkpt>
      <trkpt lat="43.12094" lon="-7.06987">
        <ele>931.0</ele>
        <time>2022-06-19T10:39:40.046Z</time>
      </trkpt>
      <trkpt lat="43.12094" lon="-7.06987">
        <ele>931.0</ele>
        <time>2022-06-19T10:39:41.029Z</time>
      </trkpt>
      <trkpt lat="43.12094" lon="-7.06987">
        <ele>931.0</ele>
        <time>2022-06-19T10:39:42.069Z</time>
      </trkpt>
      <trkpt lat="43.120815" lon="-7.06992">
        <ele>930.0</ele>
        <time>2022-06-19T10:39:43.053Z</time>
      </trkpt>
      <trkpt lat="43.12075333" lon="-7.069955">
        <ele>930.0</ele>
        <time>2022-06-19T10:39:44.035Z</time>
      </trkpt>
      <trkpt lat="43.12075333" lon="-7.069955">
        <ele>930.0</ele>
        <time>2022-06-19T10:39:45.050Z</time>
      </trkpt>
      <trkpt lat="43.12063833" lon="-7.07005667">
        <ele>929.0</ele>
        <time>2022-06-19T10:39:46.028Z</time>
      </trkpt>
      <trkpt lat="43.12063833" lon="-7.07005667">
        <ele>929.0</ele>
        <time>2022-06-19T10:39:47.036Z</time>
      </trkpt>
      <trkpt lat="43.12052333" lon="-7.07019833">
        <ele>927.0</ele>
        <time>2022-06-19T10:39:48.022Z</time>
      </trkpt>
      <trkpt lat="43.12052333" lon="-7.07019833">
        <ele>927.0</ele>
        <time>2022-06-19T10:39:49.021Z</time>
      </trkpt>
      <trkpt lat="43.12041167" lon="-7.07036">
        <ele>925.0</ele>
        <time>2022-06-19T10:39:50.022Z</time>
      </trkpt>
      <trkpt lat="43.12041167" lon="-7.07036">
        <ele>925.0</ele>
        <time>2022-06-19T10:39:51.029Z</time>
      </trkpt>
      <trkpt lat="43.12030167" lon="-7.070525">
        <ele>924.0</ele>
        <time>2022-06-19T10:39:52.037Z</time>
      </trkpt>
      <trkpt lat="43.120245" lon="-7.07060833">
        <ele>923.0</ele>
        <time>2022-06-19T10:39:53.029Z</time>
      </trkpt>
      <trkpt lat="43.120245" lon="-7.07060833">
        <ele>923.0</ele>
        <time>2022-06-19T10:39:54.035Z</time>
      </trkpt>
      <trkpt lat="43.12013167" lon="-7.07076667">
        <ele>922.0</ele>
        <time>2022-06-19T10:39:55.048Z</time>
      </trkpt>
      <trkpt lat="43.12007333" lon="-7.070835">
        <ele>921.0</ele>
        <time>2022-06-19T10:39:56.023Z</time>
      </trkpt>
      <trkpt lat="43.12007333" lon="-7.070835">
        <ele>921.0</ele>
        <time>2022-06-19T10:39:57.026Z</time>
      </trkpt>
      <trkpt lat="43.11995167" lon="-7.07095167">
        <ele>920.0</ele>
        <time>2022-06-19T10:39:58.048Z</time>
      </trkpt>
      <trkpt lat="43.11995167" lon="-7.07095167">
        <ele>920.0</ele>
        <time>2022-06-19T10:39:59.059Z</time>
      </trkpt>
      <trkpt lat="43.11981333" lon="-7.07105833">
        <ele>919.0</ele>
        <time>2022-06-19T10:40:00.028Z</time>
      </trkpt>
      <trkpt lat="43.11981333" lon="-7.07105833">
        <ele>919.0</ele>
        <time>2022-06-19T10:40:01.016Z</time>
      </trkpt>
      <trkpt lat="43.11966167" lon="-7.07116333">
        <ele>918.0</ele>
        <time>2022-06-19T10:40:02.032Z</time>
      </trkpt>
      <trkpt lat="43.11966167" lon="-7.07116333">
        <ele>918.0</ele>
        <time>2022-06-19T10:40:03.017Z</time>
      </trkpt>
      <trkpt lat="43.11950667" lon="-7.07128667">
        <ele>916.0</ele>
        <time>2022-06-19T10:40:04.025Z</time>
      </trkpt>
      <trkpt lat="43.11944167" lon="-7.07136">
        <ele>916.0</ele>
        <time>2022-06-19T10:40:05.032Z</time>
      </trkpt>
      <trkpt lat="43.11938833" lon="-7.07143833">
        <ele>915.0</ele>
        <time>2022-06-19T10:40:06.046Z</time>
      </trkpt>
      <trkpt lat="43.11931667" lon="-7.07161667">
        <ele>914.0</ele>
        <time>2022-06-19T10:40:07.059Z</time>
      </trkpt>
      <trkpt lat="43.11931667" lon="-7.07161667">
        <ele>914.0</ele>
        <time>2022-06-19T10:40:08.026Z</time>
      </trkpt>
      <trkpt lat="43.11931667" lon="-7.07161667">
        <ele>914.0</ele>
        <time>2022-06-19T10:40:09.026Z</time>
      </trkpt>
      <trkpt lat="43.11926667" lon="-7.07182167">
        <ele>912.0</ele>
        <time>2022-06-19T10:40:10.044Z</time>
      </trkpt>
      <trkpt lat="43.11924833" lon="-7.072035">
        <ele>910.0</ele>
        <time>2022-06-19T10:40:11.061Z</time>
      </trkpt>
      <trkpt lat="43.11924833" lon="-7.072035">
        <ele>910.0</ele>
        <time>2022-06-19T10:40:12.067Z</time>
      </trkpt>
      <trkpt lat="43.11924" lon="-7.07213833">
        <ele>909.0</ele>
        <time>2022-06-19T10:40:13.022Z</time>
      </trkpt>
      <trkpt lat="43.11924" lon="-7.07213833">
        <ele>909.0</ele>
        <time>2022-06-19T10:40:14.028Z</time>
      </trkpt>
      <trkpt lat="43.11921833" lon="-7.07235">
        <ele>908.0</ele>
        <time>2022-06-19T10:40:15.037Z</time>
      </trkpt>
      <trkpt lat="43.119205" lon="-7.07246167">
        <ele>907.0</ele>
        <time>2022-06-19T10:40:16.053Z</time>
      </trkpt>
      <trkpt lat="43.119205" lon="-7.07246167">
        <ele>907.0</ele>
        <time>2022-06-19T10:40:17.019Z</time>
      </trkpt>
      <trkpt lat="43.11918" lon="-7.07269333">
        <ele>906.0</ele>
        <time>2022-06-19T10:40:18.024Z</time>
      </trkpt>
      <trkpt lat="43.11918" lon="-7.07269333">
        <ele>906.0</ele>
        <time>2022-06-19T10:40:19.031Z</time>
      </trkpt>
      <trkpt lat="43.11915667" lon="-7.07292333">
        <ele>905.0</ele>
        <time>2022-06-19T10:40:20.022Z</time>
      </trkpt>
      <trkpt lat="43.11915667" lon="-7.07292333">
        <ele>905.0</ele>
        <time>2022-06-19T10:40:21.028Z</time>
      </trkpt>
      <trkpt lat="43.11913667" lon="-7.07315667">
        <ele>903.0</ele>
        <time>2022-06-19T10:40:22.054Z</time>
      </trkpt>
      <trkpt lat="43.11913667" lon="-7.07315667">
        <ele>903.0</ele>
        <time>2022-06-19T10:40:23.020Z</time>
      </trkpt>
      <trkpt lat="43.11911333" lon="-7.07341">
        <ele>902.0</ele>
        <time>2022-06-19T10:40:24.055Z</time>
      </trkpt>
      <trkpt lat="43.11911333" lon="-7.07341">
        <ele>902.0</ele>
        <time>2022-06-19T10:40:25.032Z</time>
      </trkpt>
      <trkpt lat="43.11908333" lon="-7.07367667">
        <ele>900.0</ele>
        <time>2022-06-19T10:40:26.027Z</time>
      </trkpt>
      <trkpt lat="43.11908333" lon="-7.07367667">
        <ele>900.0</ele>
        <time>2022-06-19T10:40:27.033Z</time>
      </trkpt>
      <trkpt lat="43.119055" lon="-7.073955">
        <ele>898.0</ele>
        <time>2022-06-19T10:40:28.030Z</time>
      </trkpt>
      <trkpt lat="43.119055" lon="-7.073955">
        <ele>898.0</ele>
        <time>2022-06-19T10:40:29.037Z</time>
      </trkpt>
      <trkpt lat="43.119025" lon="-7.07424667">
        <ele>896.0</ele>
        <time>2022-06-19T10:40:30.043Z</time>
      </trkpt>
      <trkpt lat="43.119025" lon="-7.07424667">
        <ele>896.0</ele>
        <time>2022-06-19T10:40:31.055Z</time>
      </trkpt>
      <trkpt lat="43.11898833" lon="-7.07454333">
        <ele>894.0</ele>
        <time>2022-06-19T10:40:32.046Z</time>
      </trkpt>
      <trkpt lat="43.11898833" lon="-7.07454333">
        <ele>894.0</ele>
        <time>2022-06-19T10:40:33.057Z</time>
      </trkpt>
      <trkpt lat="43.11893333" lon="-7.0748">
        <ele>891.0</ele>
        <time>2022-06-19T10:40:34.052Z</time>
      </trkpt>
      <trkpt lat="43.11893333" lon="-7.0748">
        <ele>891.0</ele>
        <time>2022-06-19T10:40:35.018Z</time>
      </trkpt>
      <trkpt lat="43.11886" lon="-7.075005">
        <ele>891.0</ele>
        <time>2022-06-19T10:40:36.052Z</time>
      </trkpt>
      <trkpt lat="43.11886" lon="-7.075005">
        <ele>891.0</ele>
        <time>2022-06-19T10:40:37.017Z</time>
      </trkpt>
      <trkpt lat="43.11876333" lon="-7.07517667">
        <ele>889.0</ele>
        <time>2022-06-19T10:40:38.024Z</time>
      </trkpt>
      <trkpt lat="43.11876333" lon="-7.07517667">
        <ele>889.0</ele>
        <time>2022-06-19T10:40:39.029Z</time>
      </trkpt>
      <trkpt lat="43.11864167" lon="-7.07531333">
        <ele>888.0</ele>
        <time>2022-06-19T10:40:40.023Z</time>
      </trkpt>
      <trkpt lat="43.11864167" lon="-7.07531333">
        <ele>888.0</ele>
        <time>2022-06-19T10:40:41.028Z</time>
      </trkpt>
      <trkpt lat="43.11850333" lon="-7.07544333">
        <ele>886.0</ele>
        <time>2022-06-19T10:40:42.055Z</time>
      </trkpt>
      <trkpt lat="43.11850333" lon="-7.07544333">
        <ele>886.0</ele>
        <time>2022-06-19T10:40:43.021Z</time>
      </trkpt>
      <trkpt lat="43.11835833" lon="-7.07556333">
        <ele>885.0</ele>
        <time>2022-06-19T10:40:44.028Z</time>
      </trkpt>
      <trkpt lat="43.11835833" lon="-7.07556333">
        <ele>885.0</ele>
        <time>2022-06-19T10:40:45.034Z</time>
      </trkpt>
      <trkpt lat="43.11820833" lon="-7.07567333">
        <ele>884.0</ele>
        <time>2022-06-19T10:40:46.017Z</time>
      </trkpt>
      <trkpt lat="43.11812833" lon="-7.07573167">
        <ele>883.0</ele>
        <time>2022-06-19T10:40:47.017Z</time>
      </trkpt>
      <trkpt lat="43.11805" lon="-7.07579333">
        <ele>882.0</ele>
        <time>2022-06-19T10:40:48.045Z</time>
      </trkpt>
      <trkpt lat="43.11805" lon="-7.07579333">
        <ele>882.0</ele>
        <time>2022-06-19T10:40:49.051Z</time>
      </trkpt>
      <trkpt lat="43.11788" lon="-7.07591833">
        <ele>881.0</ele>
        <time>2022-06-19T10:40:50.021Z</time>
      </trkpt>
      <trkpt lat="43.11788" lon="-7.07591833">
        <ele>881.0</ele>
        <time>2022-06-19T10:40:51.035Z</time>
      </trkpt>
      <trkpt lat="43.117705" lon="-7.07603333">
        <ele>880.0</ele>
        <time>2022-06-19T10:40:52.034Z</time>
      </trkpt>
      <trkpt lat="43.117705" lon="-7.07603333">
        <ele>880.0</ele>
        <time>2022-06-19T10:40:53.042Z</time>
      </trkpt>
      <trkpt lat="43.11754833" lon="-7.07614833">
        <ele>879.0</ele>
        <time>2022-06-19T10:40:54.053Z</time>
      </trkpt>
      <trkpt lat="43.11754833" lon="-7.07614833">
        <ele>879.0</ele>
        <time>2022-06-19T10:40:55.019Z</time>
      </trkpt>
      <trkpt lat="43.11743333" lon="-7.07625667">
        <ele>879.0</ele>
        <time>2022-06-19T10:40:56.025Z</time>
      </trkpt>
      <trkpt lat="43.11743333" lon="-7.07625667">
        <ele>879.0</ele>
        <time>2022-06-19T10:40:57.031Z</time>
      </trkpt>
      <trkpt lat="43.11736" lon="-7.076395">
        <ele>879.0</ele>
        <time>2022-06-19T10:40:58.032Z</time>
      </trkpt>
      <trkpt lat="43.11736" lon="-7.076395">
        <ele>879.0</ele>
        <time>2022-06-19T10:40:59.038Z</time>
      </trkpt>
      <trkpt lat="43.11732167" lon="-7.07656">
        <ele>878.0</ele>
        <time>2022-06-19T10:41:00.039Z</time>
      </trkpt>
      <trkpt lat="43.11732167" lon="-7.07656">
        <ele>878.0</ele>
        <time>2022-06-19T10:41:01.020Z</time>
      </trkpt>
      <trkpt lat="43.11732333" lon="-7.07672667">
        <ele>877.0</ele>
        <time>2022-06-19T10:41:02.035Z</time>
      </trkpt>
      <trkpt lat="43.11732333" lon="-7.07672667">
        <ele>877.0</ele>
        <time>2022-06-19T10:41:03.020Z</time>
      </trkpt>
      <trkpt lat="43.11734833" lon="-7.07687833">
        <ele>877.0</ele>
        <time>2022-06-19T10:41:04.022Z</time>
      </trkpt>
      <trkpt lat="43.11734833" lon="-7.07687833">
        <ele>877.0</ele>
        <time>2022-06-19T10:41:05.028Z</time>
      </trkpt>
      <trkpt lat="43.11737833" lon="-7.07700167">
        <ele>877.0</ele>
        <time>2022-06-19T10:41:06.025Z</time>
      </trkpt>
      <trkpt lat="43.11737833" lon="-7.07700167">
        <ele>877.0</ele>
        <time>2022-06-19T10:41:07.031Z</time>
      </trkpt>
      <trkpt lat="43.11741333" lon="-7.07709">
        <ele>876.0</ele>
        <time>2022-06-19T10:41:08.022Z</time>
      </trkpt>
      <trkpt lat="43.11741333" lon="-7.07709">
        <ele>876.0</ele>
        <time>2022-06-19T10:41:09.028Z</time>
      </trkpt>
      <trkpt lat="43.11744667" lon="-7.07716">
        <ele>877.0</ele>
        <time>2022-06-19T10:41:10.022Z</time>
      </trkpt>
      <trkpt lat="43.11744667" lon="-7.07716">
        <ele>877.0</ele>
        <time>2022-06-19T10:41:11.028Z</time>
      </trkpt>
      <trkpt lat="43.11747167" lon="-7.07722333">
        <ele>877.0</ele>
        <time>2022-06-19T10:41:12.026Z</time>
      </trkpt>
      <trkpt lat="43.11747167" lon="-7.07722333">
        <ele>877.0</ele>
        <time>2022-06-19T10:41:13.032Z</time>
      </trkpt>
      <trkpt lat="43.11749333" lon="-7.07729167">
        <ele>877.0</ele>
        <time>2022-06-19T10:41:14.024Z</time>
      </trkpt>
      <trkpt lat="43.11749333" lon="-7.07729167">
        <ele>877.0</ele>
        <time>2022-06-19T10:41:15.030Z</time>
      </trkpt>
      <trkpt lat="43.11751667" lon="-7.07734167">
        <ele>878.0</ele>
        <time>2022-06-19T10:41:16.022Z</time>
      </trkpt>
      <trkpt lat="43.11751667" lon="-7.07734167">
        <ele>878.0</ele>
        <time>2022-06-19T10:41:17.028Z</time>
      </trkpt>
      <trkpt lat="43.117525" lon="-7.07739">
        <ele>878.0</ele>
        <time>2022-06-19T10:41:18.022Z</time>
      </trkpt>
      <trkpt lat="43.117525" lon="-7.07739">
        <ele>878.0</ele>
        <time>2022-06-19T10:41:19.028Z</time>
      </trkpt>
      <trkpt lat="43.11752333" lon="-7.07743833">
        <ele>879.0</ele>
        <time>2022-06-19T10:41:20.020Z</time>
      </trkpt>
      <trkpt lat="43.11752333" lon="-7.07743833">
        <ele>879.0</ele>
        <time>2022-06-19T10:41:21.027Z</time>
      </trkpt>
      <trkpt lat="43.117515" lon="-7.07748167">
        <ele>880.0</ele>
        <time>2022-06-19T10:41:22.018Z</time>
      </trkpt>
      <trkpt lat="43.11750667" lon="-7.07750167">
        <ele>880.0</ele>
        <time>2022-06-19T10:41:23.055Z</time>
      </trkpt>
      <trkpt lat="43.11750667" lon="-7.07750167">
        <ele>880.0</ele>
        <time>2022-06-19T10:41:24.021Z</time>
      </trkpt>
      <trkpt lat="43.11749" lon="-7.07753833">
        <ele>881.0</ele>
        <time>2022-06-19T10:41:25.051Z</time>
      </trkpt>
      <trkpt lat="43.11748167" lon="-7.07755667">
        <ele>881.0</ele>
        <time>2022-06-19T10:41:26.024Z</time>
      </trkpt>
      <trkpt lat="43.11748167" lon="-7.07755667">
        <ele>881.0</ele>
        <time>2022-06-19T10:41:27.031Z</time>
      </trkpt>
      <trkpt lat="43.11746333" lon="-7.077595">
        <ele>882.0</ele>
        <time>2022-06-19T10:41:28.054Z</time>
      </trkpt>
      <trkpt lat="43.11746333" lon="-7.077595">
        <ele>882.0</ele>
        <time>2022-06-19T10:41:29.020Z</time>
      </trkpt>
      <trkpt lat="43.11744333" lon="-7.07764">
        <ele>882.0</ele>
        <time>2022-06-19T10:41:30.019Z</time>
      </trkpt>
      <trkpt lat="43.11744333" lon="-7.07764">
        <ele>882.0</ele>
        <time>2022-06-19T10:41:31.025Z</time>
      </trkpt>
      <trkpt lat="43.11741833" lon="-7.07768167">
        <ele>883.0</ele>
        <time>2022-06-19T10:41:32.016Z</time>
      </trkpt>
      <trkpt lat="43.11741833" lon="-7.07768167">
        <ele>883.0</ele>
        <time>2022-06-19T10:41:33.022Z</time>
      </trkpt>
      <trkpt lat="43.11739" lon="-7.07772">
        <ele>883.0</ele>
        <time>2022-06-19T10:41:34.050Z</time>
      </trkpt>
      <trkpt lat="43.11739" lon="-7.07772">
        <ele>883.0</ele>
        <time>2022-06-19T10:41:35.016Z</time>
      </trkpt>
      <trkpt lat="43.11736667" lon="-7.07775667">
        <ele>884.0</ele>
        <time>2022-06-19T10:41:36.057Z</time>
      </trkpt>
      <trkpt lat="43.11736667" lon="-7.07775667">
        <ele>884.0</ele>
        <time>2022-06-19T10:41:37.029Z</time>
      </trkpt>
      <trkpt lat="43.11733833" lon="-7.07778833">
        <ele>884.0</ele>
        <time>2022-06-19T10:41:38.026Z</time>
      </trkpt>
      <trkpt lat="43.11733833" lon="-7.07778833">
        <ele>884.0</ele>
        <time>2022-06-19T10:41:39.032Z</time>
      </trkpt>
      <trkpt lat="43.117315" lon="-7.07782667">
        <ele>885.0</ele>
        <time>2022-06-19T10:41:40.031Z</time>
      </trkpt>
      <trkpt lat="43.117315" lon="-7.07782667">
        <ele>885.0</ele>
        <time>2022-06-19T10:41:41.037Z</time>
      </trkpt>
      <trkpt lat="43.11729333" lon="-7.07787">
        <ele>885.0</ele>
        <time>2022-06-19T10:41:42.034Z</time>
      </trkpt>
      <trkpt lat="43.11729333" lon="-7.07787">
        <ele>885.0</ele>
        <time>2022-06-19T10:41:43.041Z</time>
      </trkpt>
      <trkpt lat="43.11728" lon="-7.07792167">
        <ele>885.0</ele>
        <time>2022-06-19T10:41:44.049Z</time>
      </trkpt>
      <trkpt lat="43.11728" lon="-7.07792167">
        <ele>885.0</ele>
        <time>2022-06-19T10:41:45.057Z</time>
      </trkpt>
      <trkpt lat="43.11726333" lon="-7.07798333">
        <ele>885.0</ele>
        <time>2022-06-19T10:41:46.047Z</time>
      </trkpt>
      <trkpt lat="43.11726333" lon="-7.07798333">
        <ele>885.0</ele>
        <time>2022-06-19T10:41:47.053Z</time>
      </trkpt>
      <trkpt lat="43.11722833" lon="-7.07805667">
        <ele>885.0</ele>
        <time>2022-06-19T10:41:48.053Z</time>
      </trkpt>
      <trkpt lat="43.11722833" lon="-7.07805667">
        <ele>885.0</ele>
        <time>2022-06-19T10:41:49.019Z</time>
      </trkpt>
      <trkpt lat="43.11719333" lon="-7.07814">
        <ele>885.0</ele>
        <time>2022-06-19T10:41:50.022Z</time>
      </trkpt>
      <trkpt lat="43.11719333" lon="-7.07814">
        <ele>885.0</ele>
        <time>2022-06-19T10:41:51.027Z</time>
      </trkpt>
      <trkpt lat="43.11717333" lon="-7.07825333">
        <ele>885.0</ele>
        <time>2022-06-19T10:41:52.047Z</time>
      </trkpt>
      <trkpt lat="43.11717333" lon="-7.07825333">
        <ele>885.0</ele>
        <time>2022-06-19T10:41:53.052Z</time>
      </trkpt>
      <trkpt lat="43.11715833" lon="-7.07836">
        <ele>885.0</ele>
        <time>2022-06-19T10:41:54.048Z</time>
      </trkpt>
      <trkpt lat="43.11715833" lon="-7.07836">
        <ele>885.0</ele>
        <time>2022-06-19T10:41:55.058Z</time>
      </trkpt>
      <trkpt lat="43.11713" lon="-7.07844833">
        <ele>886.0</ele>
        <time>2022-06-19T10:41:56.049Z</time>
      </trkpt>
      <trkpt lat="43.11713" lon="-7.07844833">
        <ele>886.0</ele>
        <time>2022-06-19T10:41:57.055Z</time>
      </trkpt>
      <trkpt lat="43.117075" lon="-7.07853333">
        <ele>886.0</ele>
        <time>2022-06-19T10:41:58.036Z</time>
      </trkpt>
      <trkpt lat="43.117035" lon="-7.07856167">
        <ele>886.0</ele>
        <time>2022-06-19T10:41:59.029Z</time>
      </trkpt>
      <trkpt lat="43.117035" lon="-7.07856167">
        <ele>886.0</ele>
        <time>2022-06-19T10:42:00.035Z</time>
      </trkpt>
      <trkpt lat="43.11696833" lon="-7.07862333">
        <ele>887.0</ele>
        <time>2022-06-19T10:42:01.020Z</time>
      </trkpt>
      <trkpt lat="43.11693833" lon="-7.078655">
        <ele>887.0</ele>
        <time>2022-06-19T10:42:02.029Z</time>
      </trkpt>
      <trkpt lat="43.11693833" lon="-7.078655">
        <ele>887.0</ele>
        <time>2022-06-19T10:42:03.026Z</time>
      </trkpt>
      <trkpt lat="43.11686833" lon="-7.07873667">
        <ele>886.0</ele>
        <time>2022-06-19T10:42:04.054Z</time>
      </trkpt>
      <trkpt lat="43.11686833" lon="-7.07873667">
        <ele>886.0</ele>
        <time>2022-06-19T10:42:05.020Z</time>
      </trkpt>
      <trkpt lat="43.1168" lon="-7.07883333">
        <ele>886.0</ele>
        <time>2022-06-19T10:42:06.027Z</time>
      </trkpt>
      <trkpt lat="43.1168" lon="-7.07883333">
        <ele>886.0</ele>
        <time>2022-06-19T10:42:07.034Z</time>
      </trkpt>
      <trkpt lat="43.11675667" lon="-7.07896">
        <ele>885.0</ele>
        <time>2022-06-19T10:42:08.027Z</time>
      </trkpt>
      <trkpt lat="43.11675667" lon="-7.07896">
        <ele>885.0</ele>
        <time>2022-06-19T10:42:09.033Z</time>
      </trkpt>
      <trkpt lat="43.116725" lon="-7.07910833">
        <ele>885.0</ele>
        <time>2022-06-19T10:42:10.039Z</time>
      </trkpt>
      <trkpt lat="43.11671" lon="-7.07925167">
        <ele>884.0</ele>
        <time>2022-06-19T10:42:11.068Z</time>
      </trkpt>
      <trkpt lat="43.11671" lon="-7.07925167">
        <ele>884.0</ele>
        <time>2022-06-19T10:42:12.022Z</time>
      </trkpt>
      <trkpt lat="43.116705" lon="-7.07932333">
        <ele>884.0</ele>
        <time>2022-06-19T10:42:13.016Z</time>
      </trkpt>
      <trkpt lat="43.116705" lon="-7.07932333">
        <ele>884.0</ele>
        <time>2022-06-19T10:42:14.022Z</time>
      </trkpt>
      <trkpt lat="43.116705" lon="-7.079465">
        <ele>883.0</ele>
        <time>2022-06-19T10:42:15.050Z</time>
      </trkpt>
      <trkpt lat="43.116705" lon="-7.079465">
        <ele>883.0</ele>
        <time>2022-06-19T10:42:16.016Z</time>
      </trkpt>
      <trkpt lat="43.11671" lon="-7.07960667">
        <ele>882.0</ele>
        <time>2022-06-19T10:42:17.043Z</time>
      </trkpt>
      <trkpt lat="43.11671" lon="-7.07960667">
        <ele>882.0</ele>
        <time>2022-06-19T10:42:18.053Z</time>
      </trkpt>
      <trkpt lat="43.11671833" lon="-7.07974167">
        <ele>882.0</ele>
        <time>2022-06-19T10:42:19.030Z</time>
      </trkpt>
      <trkpt lat="43.11672167" lon="-7.079805">
        <ele>882.0</ele>
        <time>2022-06-19T10:42:20.023Z</time>
      </trkpt>
      <trkpt lat="43.11672167" lon="-7.079805">
        <ele>882.0</ele>
        <time>2022-06-19T10:42:21.029Z</time>
      </trkpt>
      <trkpt lat="43.11673333" lon="-7.079925">
        <ele>882.0</ele>
        <time>2022-06-19T10:42:22.055Z</time>
      </trkpt>
      <trkpt lat="43.11674333" lon="-7.079975">
        <ele>882.0</ele>
        <time>2022-06-19T10:42:23.020Z</time>
      </trkpt>
      <trkpt lat="43.11674333" lon="-7.079975">
        <ele>882.0</ele>
        <time>2022-06-19T10:42:24.026Z</time>
      </trkpt>
      <trkpt lat="43.11676167" lon="-7.08007667">
        <ele>881.0</ele>
        <time>2022-06-19T10:42:25.022Z</time>
      </trkpt>
      <trkpt lat="43.116765" lon="-7.08012167">
        <ele>881.0</ele>
        <time>2022-06-19T10:42:26.053Z</time>
      </trkpt>
      <trkpt lat="43.116765" lon="-7.08012167">
        <ele>881.0</ele>
        <time>2022-06-19T10:42:27.019Z</time>
      </trkpt>
      <trkpt lat="43.11677667" lon="-7.08018667">
        <ele>881.0</ele>
        <time>2022-06-19T10:42:28.044Z</time>
      </trkpt>
      <trkpt lat="43.11677667" lon="-7.08018667">
        <ele>881.0</ele>
        <time>2022-06-19T10:42:29.055Z</time>
      </trkpt>
      <trkpt lat="43.11677667" lon="-7.08024833">
        <ele>881.0</ele>
        <time>2022-06-19T10:42:30.035Z</time>
      </trkpt>
      <trkpt lat="43.116775" lon="-7.08029">
        <ele>881.0</ele>
        <time>2022-06-19T10:42:31.035Z</time>
      </trkpt>
      <trkpt lat="43.116775" lon="-7.080325">
        <ele>881.0</ele>
        <time>2022-06-19T10:42:32.042Z</time>
      </trkpt>
      <trkpt lat="43.116775" lon="-7.080325">
        <ele>881.0</ele>
        <time>2022-06-19T10:42:33.055Z</time>
      </trkpt>
      <trkpt lat="43.11678667" lon="-7.08039833">
        <ele>880.0</ele>
        <time>2022-06-19T10:42:34.051Z</time>
      </trkpt>
      <trkpt lat="43.1168" lon="-7.080435">
        <ele>880.0</ele>
        <time>2022-06-19T10:42:35.049Z</time>
      </trkpt>
      <trkpt lat="43.11682167" lon="-7.08051667">
        <ele>880.0</ele>
        <time>2022-06-19T10:42:36.272Z</time>
      </trkpt>
      <trkpt lat="43.11682167" lon="-7.08051667">
        <ele>880.0</ele>
        <time>2022-06-19T10:42:37.041Z</time>
      </trkpt>
      <trkpt lat="43.11683" lon="-7.08056667">
        <ele>880.0</ele>
        <time>2022-06-19T10:42:38.036Z</time>
      </trkpt>
      <trkpt lat="43.11683" lon="-7.08056667">
        <ele>880.0</ele>
        <time>2022-06-19T10:42:39.046Z</time>
      </trkpt>
      <trkpt lat="43.11686" lon="-7.08066167">
        <ele>879.0</ele>
        <time>2022-06-19T10:42:40.024Z</time>
      </trkpt>
      <trkpt lat="43.11687167" lon="-7.08071167">
        <ele>879.0</ele>
        <time>2022-06-19T10:42:41.055Z</time>
      </trkpt>
      <trkpt lat="43.11687833" lon="-7.08076333">
        <ele>879.0</ele>
        <time>2022-06-19T10:42:42.021Z</time>
      </trkpt>
      <trkpt lat="43.11687833" lon="-7.08076333">
        <ele>879.0</ele>
        <time>2022-06-19T10:42:43.025Z</time>
      </trkpt>
      <trkpt lat="43.11690167" lon="-7.08084667">
        <ele>879.0</ele>
        <time>2022-06-19T10:42:44.039Z</time>
      </trkpt>
      <trkpt lat="43.11690167" lon="-7.08084667">
        <ele>879.0</ele>
        <time>2022-06-19T10:42:45.017Z</time>
      </trkpt>
      <trkpt lat="43.11691167" lon="-7.080935">
        <ele>879.0</ele>
        <time>2022-06-19T10:42:46.054Z</time>
      </trkpt>
      <trkpt lat="43.11691167" lon="-7.080935">
        <ele>879.0</ele>
        <time>2022-06-19T10:42:47.020Z</time>
      </trkpt>
      <trkpt lat="43.11691167" lon="-7.081055">
        <ele>879.0</ele>
        <time>2022-06-19T10:42:48.052Z</time>
      </trkpt>
      <trkpt lat="43.11691167" lon="-7.081055">
        <ele>879.0</ele>
        <time>2022-06-19T10:42:49.017Z</time>
      </trkpt>
      <trkpt lat="43.116915" lon="-7.08115167">
        <ele>879.0</ele>
        <time>2022-06-19T10:42:50.035Z</time>
      </trkpt>
      <trkpt lat="43.116915" lon="-7.08115167">
        <ele>879.0</ele>
        <time>2022-06-19T10:42:51.048Z</time>
      </trkpt>
      <trkpt lat="43.11690667" lon="-7.08125167">
        <ele>879.0</ele>
        <time>2022-06-19T10:42:52.039Z</time>
      </trkpt>
      <trkpt lat="43.11690667" lon="-7.08125167">
        <ele>879.0</ele>
        <time>2022-06-19T10:42:53.051Z</time>
      </trkpt>
      <trkpt lat="43.11688167" lon="-7.08135833">
        <ele>880.0</ele>
        <time>2022-06-19T10:42:54.029Z</time>
      </trkpt>
      <trkpt lat="43.11688167" lon="-7.08135833">
        <ele>880.0</ele>
        <time>2022-06-19T10:42:55.035Z</time>
      </trkpt>
      <trkpt lat="43.116825" lon="-7.08146833">
        <ele>880.0</ele>
        <time>2022-06-19T10:42:56.023Z</time>
      </trkpt>
      <trkpt lat="43.116825" lon="-7.08146833">
        <ele>880.0</ele>
        <time>2022-06-19T10:42:57.029Z</time>
      </trkpt>
      <trkpt lat="43.11675" lon="-7.08155667">
        <ele>881.0</ele>
        <time>2022-06-19T10:42:58.054Z</time>
      </trkpt>
      <trkpt lat="43.11675" lon="-7.08155667">
        <ele>881.0</ele>
        <time>2022-06-19T10:42:59.020Z</time>
      </trkpt>
      <trkpt lat="43.116665" lon="-7.08163">
        <ele>881.0</ele>
        <time>2022-06-19T10:43:00.019Z</time>
      </trkpt>
      <trkpt lat="43.116665" lon="-7.08163">
        <ele>881.0</ele>
        <time>2022-06-19T10:43:01.026Z</time>
      </trkpt>
      <trkpt lat="43.11658167" lon="-7.08169833">
        <ele>882.0</ele>
        <time>2022-06-19T10:43:02.049Z</time>
      </trkpt>
      <trkpt lat="43.11658167" lon="-7.08169833">
        <ele>882.0</ele>
        <time>2022-06-19T10:43:03.024Z</time>
      </trkpt>
      <trkpt lat="43.11650333" lon="-7.08175333">
        <ele>882.0</ele>
        <time>2022-06-19T10:43:04.052Z</time>
      </trkpt>
      <trkpt lat="43.11647167" lon="-7.081775">
        <ele>882.0</ele>
        <time>2022-06-19T10:43:05.018Z</time>
      </trkpt>
      <trkpt lat="43.11647167" lon="-7.081775">
        <ele>882.0</ele>
        <time>2022-06-19T10:43:06.024Z</time>
      </trkpt>
      <trkpt lat="43.11637833" lon="-7.08185833">
        <ele>882.0</ele>
        <time>2022-06-19T10:43:07.043Z</time>
      </trkpt>
      <trkpt lat="43.11633833" lon="-7.081895">
        <ele>882.0</ele>
        <time>2022-06-19T10:43:08.043Z</time>
      </trkpt>
      <trkpt lat="43.11633833" lon="-7.081895">
        <ele>882.0</ele>
        <time>2022-06-19T10:43:09.052Z</time>
      </trkpt>
      <trkpt lat="43.11625333" lon="-7.08195667">
        <ele>882.0</ele>
        <time>2022-06-19T10:43:10.022Z</time>
      </trkpt>
      <trkpt lat="43.11621833" lon="-7.08198167">
        <ele>883.0</ele>
        <time>2022-06-19T10:43:11.021Z</time>
      </trkpt>
      <trkpt lat="43.11621833" lon="-7.08198167">
        <ele>883.0</ele>
        <time>2022-06-19T10:43:12.027Z</time>
      </trkpt>
      <trkpt lat="43.11613333" lon="-7.08204">
        <ele>883.0</ele>
        <time>2022-06-19T10:43:13.051Z</time>
      </trkpt>
      <trkpt lat="43.11608667" lon="-7.08207">
        <ele>883.0</ele>
        <time>2022-06-19T10:43:14.051Z</time>
      </trkpt>
      <trkpt lat="43.11608667" lon="-7.08207">
        <ele>883.0</ele>
        <time>2022-06-19T10:43:15.016Z</time>
      </trkpt>
      <trkpt lat="43.11599167" lon="-7.08211333">
        <ele>882.0</ele>
        <time>2022-06-19T10:43:16.050Z</time>
      </trkpt>
      <trkpt lat="43.11594333" lon="-7.082135">
        <ele>882.0</ele>
        <time>2022-06-19T10:43:17.022Z</time>
      </trkpt>
      <trkpt lat="43.11594333" lon="-7.082135">
        <ele>882.0</ele>
        <time>2022-06-19T10:43:18.028Z</time>
      </trkpt>
      <trkpt lat="43.11581167" lon="-7.08222167">
        <ele>882.0</ele>
        <time>2022-06-19T10:43:19.042Z</time>
      </trkpt>
      <trkpt lat="43.115755" lon="-7.08225167">
        <ele>883.0</ele>
        <time>2022-06-19T10:43:20.039Z</time>
      </trkpt>
      <trkpt lat="43.115755" lon="-7.08225167">
        <ele>883.0</ele>
        <time>2022-06-19T10:43:21.019Z</time>
      </trkpt>
      <trkpt lat="43.11564667" lon="-7.08232167">
        <ele>882.0</ele>
        <time>2022-06-19T10:43:22.019Z</time>
      </trkpt>
      <trkpt lat="43.11559667" lon="-7.08235667">
        <ele>882.0</ele>
        <time>2022-06-19T10:43:23.025Z</time>
      </trkpt>
      <trkpt lat="43.11559667" lon="-7.08235667">
        <ele>882.0</ele>
        <time>2022-06-19T10:43:24.031Z</time>
      </trkpt>
      <trkpt lat="43.11548167" lon="-7.08241667">
        <ele>882.0</ele>
        <time>2022-06-19T10:43:25.026Z</time>
      </trkpt>
      <trkpt lat="43.11543" lon="-7.08244667">
        <ele>882.0</ele>
        <time>2022-06-19T10:43:26.051Z</time>
      </trkpt>
      <trkpt lat="43.11543" lon="-7.08244667">
        <ele>882.0</ele>
        <time>2022-06-19T10:43:27.016Z</time>
      </trkpt>
      <trkpt lat="43.11532833" lon="-7.08251167">
        <ele>882.0</ele>
        <time>2022-06-19T10:43:28.052Z</time>
      </trkpt>
      <trkpt lat="43.11528667" lon="-7.08253">
        <ele>882.0</ele>
        <time>2022-06-19T10:43:29.022Z</time>
      </trkpt>
      <trkpt lat="43.11528667" lon="-7.08253">
        <ele>882.0</ele>
        <time>2022-06-19T10:43:30.028Z</time>
      </trkpt>
      <trkpt lat="43.11522667" lon="-7.082565">
        <ele>882.0</ele>
        <time>2022-06-19T10:43:31.047Z</time>
      </trkpt>
      <trkpt lat="43.11519667" lon="-7.08257667">
        <ele>882.0</ele>
        <time>2022-06-19T10:43:32.021Z</time>
      </trkpt>
      <trkpt lat="43.11519667" lon="-7.08257667">
        <ele>882.0</ele>
        <time>2022-06-19T10:43:33.026Z</time>
      </trkpt>
      <trkpt lat="43.11514" lon="-7.08261833">
        <ele>882.0</ele>
        <time>2022-06-19T10:43:34.018Z</time>
      </trkpt>
      <trkpt lat="43.11514" lon="-7.08261833">
        <ele>882.0</ele>
        <time>2022-06-19T10:43:35.024Z</time>
      </trkpt>
      <trkpt lat="43.11507" lon="-7.082655">
        <ele>882.0</ele>
        <time>2022-06-19T10:43:36.051Z</time>
      </trkpt>
      <trkpt lat="43.11507" lon="-7.082655">
        <ele>882.0</ele>
        <time>2022-06-19T10:43:37.017Z</time>
      </trkpt>
      <trkpt lat="43.115005" lon="-7.08269833">
        <ele>882.0</ele>
        <time>2022-06-19T10:43:38.048Z</time>
      </trkpt>
      <trkpt lat="43.115005" lon="-7.08269833">
        <ele>882.0</ele>
        <time>2022-06-19T10:43:39.017Z</time>
      </trkpt>
      <trkpt lat="43.11494833" lon="-7.08273167">
        <ele>881.0</ele>
        <time>2022-06-19T10:43:40.039Z</time>
      </trkpt>
      <trkpt lat="43.11491333" lon="-7.08274333">
        <ele>881.0</ele>
        <time>2022-06-19T10:43:41.020Z</time>
      </trkpt>
      <trkpt lat="43.11487833" lon="-7.08276">
        <ele>881.0</ele>
        <time>2022-06-19T10:43:42.054Z</time>
      </trkpt>
      <trkpt lat="43.11487833" lon="-7.08276">
        <ele>881.0</ele>
        <time>2022-06-19T10:43:43.020Z</time>
      </trkpt>
      <trkpt lat="43.114805" lon="-7.082805">
        <ele>880.0</ele>
        <time>2022-06-19T10:43:44.016Z</time>
      </trkpt>
      <trkpt lat="43.114805" lon="-7.082805">
        <ele>880.0</ele>
        <time>2022-06-19T10:43:45.021Z</time>
      </trkpt>
      <trkpt lat="43.11473833" lon="-7.082835">
        <ele>880.0</ele>
        <time>2022-06-19T10:43:46.019Z</time>
      </trkpt>
      <trkpt lat="43.11470333" lon="-7.082855">
        <ele>880.0</ele>
        <time>2022-06-19T10:43:47.017Z</time>
      </trkpt>
      <trkpt lat="43.11470333" lon="-7.082855">
        <ele>880.0</ele>
        <time>2022-06-19T10:43:48.025Z</time>
      </trkpt>
      <trkpt lat="43.11462833" lon="-7.08289">
        <ele>880.0</ele>
        <time>2022-06-19T10:43:49.054Z</time>
      </trkpt>
      <trkpt lat="43.11459167" lon="-7.08290667">
        <ele>880.0</ele>
        <time>2022-06-19T10:43:50.020Z</time>
      </trkpt>
      <trkpt lat="43.11459167" lon="-7.08290667">
        <ele>880.0</ele>
        <time>2022-06-19T10:43:51.025Z</time>
      </trkpt>
      <trkpt lat="43.11450333" lon="-7.08296">
        <ele>879.0</ele>
        <time>2022-06-19T10:43:52.026Z</time>
      </trkpt>
      <trkpt lat="43.11450333" lon="-7.08296">
        <ele>879.0</ele>
        <time>2022-06-19T10:43:53.031Z</time>
      </trkpt>
      <trkpt lat="43.11442333" lon="-7.08300833">
        <ele>878.0</ele>
        <time>2022-06-19T10:43:54.026Z</time>
      </trkpt>
      <trkpt lat="43.11442333" lon="-7.08300833">
        <ele>878.0</ele>
        <time>2022-06-19T10:43:55.031Z</time>
      </trkpt>
      <trkpt lat="43.11436167" lon="-7.08305167">
        <ele>878.0</ele>
        <time>2022-06-19T10:43:56.023Z</time>
      </trkpt>
      <trkpt lat="43.11436167" lon="-7.08305167">
        <ele>878.0</ele>
        <time>2022-06-19T10:43:57.028Z</time>
      </trkpt>
      <trkpt lat="43.11430833" lon="-7.08308167">
        <ele>878.0</ele>
        <time>2022-06-19T10:43:58.032Z</time>
      </trkpt>
      <trkpt lat="43.11430833" lon="-7.08308167">
        <ele>878.0</ele>
        <time>2022-06-19T10:43:59.038Z</time>
      </trkpt>
      <trkpt lat="43.11425667" lon="-7.08311167">
        <ele>878.0</ele>
        <time>2022-06-19T10:44:00.034Z</time>
      </trkpt>
      <trkpt lat="43.11425667" lon="-7.08311167">
        <ele>878.0</ele>
        <time>2022-06-19T10:44:01.039Z</time>
      </trkpt>
      <trkpt lat="43.1142" lon="-7.08314167">
        <ele>878.0</ele>
        <time>2022-06-19T10:44:02.017Z</time>
      </trkpt>
      <trkpt lat="43.1142" lon="-7.08314167">
        <ele>878.0</ele>
        <time>2022-06-19T10:44:03.029Z</time>
      </trkpt>
      <trkpt lat="43.11414167" lon="-7.08317833">
        <ele>878.0</ele>
        <time>2022-06-19T10:44:04.018Z</time>
      </trkpt>
      <trkpt lat="43.11414167" lon="-7.08317833">
        <ele>878.0</ele>
        <time>2022-06-19T10:44:05.025Z</time>
      </trkpt>
      <trkpt lat="43.11407667" lon="-7.08322">
        <ele>876.0</ele>
        <time>2022-06-19T10:44:06.054Z</time>
      </trkpt>
      <trkpt lat="43.11407667" lon="-7.08322">
        <ele>876.0</ele>
        <time>2022-06-19T10:44:07.020Z</time>
      </trkpt>
      <trkpt lat="43.11400833" lon="-7.08326667">
        <ele>875.0</ele>
        <time>2022-06-19T10:44:08.055Z</time>
      </trkpt>
      <trkpt lat="43.11400833" lon="-7.08326667">
        <ele>875.0</ele>
        <time>2022-06-19T10:44:09.038Z</time>
      </trkpt>
      <trkpt lat="43.11394333" lon="-7.08331167">
        <ele>875.0</ele>
        <time>2022-06-19T10:44:10.021Z</time>
      </trkpt>
      <trkpt lat="43.11394333" lon="-7.08331167">
        <ele>875.0</ele>
        <time>2022-06-19T10:44:11.027Z</time>
      </trkpt>
      <trkpt lat="43.11387833" lon="-7.08336">
        <ele>874.0</ele>
        <time>2022-06-19T10:44:12.048Z</time>
      </trkpt>
      <trkpt lat="43.11387833" lon="-7.08336">
        <ele>874.0</ele>
        <time>2022-06-19T10:44:13.017Z</time>
      </trkpt>
      <trkpt lat="43.11381833" lon="-7.08341333">
        <ele>874.0</ele>
        <time>2022-06-19T10:44:14.031Z</time>
      </trkpt>
      <trkpt lat="43.11381833" lon="-7.08341333">
        <ele>874.0</ele>
        <time>2022-06-19T10:44:15.037Z</time>
      </trkpt>
      <trkpt lat="43.11375833" lon="-7.08347667">
        <ele>873.0</ele>
        <time>2022-06-19T10:44:16.049Z</time>
      </trkpt>
      <trkpt lat="43.11375833" lon="-7.08347667">
        <ele>873.0</ele>
        <time>2022-06-19T10:44:17.017Z</time>
      </trkpt>
      <trkpt lat="43.11370167" lon="-7.08354833">
        <ele>872.0</ele>
        <time>2022-06-19T10:44:18.051Z</time>
      </trkpt>
      <trkpt lat="43.11370167" lon="-7.08354833">
        <ele>872.0</ele>
        <time>2022-06-19T10:44:19.016Z</time>
      </trkpt>
      <trkpt lat="43.113645" lon="-7.08363167">
        <ele>871.0</ele>
        <time>2022-06-19T10:44:20.050Z</time>
      </trkpt>
      <trkpt lat="43.113645" lon="-7.08363167">
        <ele>871.0</ele>
        <time>2022-06-19T10:44:21.016Z</time>
      </trkpt>
      <trkpt lat="43.11358833" lon="-7.08372333">
        <ele>870.0</ele>
        <time>2022-06-19T10:44:22.054Z</time>
      </trkpt>
      <trkpt lat="43.11358833" lon="-7.08372333">
        <ele>870.0</ele>
        <time>2022-06-19T10:44:23.020Z</time>
      </trkpt>
      <trkpt lat="43.11353667" lon="-7.08380833">
        <ele>870.0</ele>
        <time>2022-06-19T10:44:24.045Z</time>
      </trkpt>
      <trkpt lat="43.11353667" lon="-7.08380833">
        <ele>870.0</ele>
        <time>2022-06-19T10:44:25.019Z</time>
      </trkpt>
      <trkpt lat="43.11349333" lon="-7.083885">
        <ele>869.0</ele>
        <time>2022-06-19T10:44:26.050Z</time>
      </trkpt>
      <trkpt lat="43.11349333" lon="-7.083885">
        <ele>869.0</ele>
        <time>2022-06-19T10:44:27.016Z</time>
      </trkpt>
      <trkpt lat="43.113445" lon="-7.08396333">
        <ele>869.0</ele>
        <time>2022-06-19T10:44:28.033Z</time>
      </trkpt>
      <trkpt lat="43.113445" lon="-7.08396333">
        <ele>869.0</ele>
        <time>2022-06-19T10:44:29.039Z</time>
      </trkpt>
      <trkpt lat="43.11340833" lon="-7.084055">
        <ele>868.0</ele>
        <time>2022-06-19T10:44:30.047Z</time>
      </trkpt>
      <trkpt lat="43.11340833" lon="-7.084055">
        <ele>868.0</ele>
        <time>2022-06-19T10:44:31.053Z</time>
      </trkpt>
      <trkpt lat="43.11337833" lon="-7.08415833">
        <ele>868.0</ele>
        <time>2022-06-19T10:44:32.032Z</time>
      </trkpt>
      <trkpt lat="43.11337833" lon="-7.08415833">
        <ele>868.0</ele>
        <time>2022-06-19T10:44:33.038Z</time>
      </trkpt>
      <trkpt lat="43.11335167" lon="-7.08426333">
        <ele>867.0</ele>
        <time>2022-06-19T10:44:34.032Z</time>
      </trkpt>
      <trkpt lat="43.11335167" lon="-7.08426333">
        <ele>867.0</ele>
        <time>2022-06-19T10:44:35.038Z</time>
      </trkpt>
      <trkpt lat="43.11333" lon="-7.08437">
        <ele>867.0</ele>
        <time>2022-06-19T10:44:36.049Z</time>
      </trkpt>
      <trkpt lat="43.11333" lon="-7.08437">
        <ele>867.0</ele>
        <time>2022-06-19T10:44:37.016Z</time>
      </trkpt>
      <trkpt lat="43.11331" lon="-7.08447667">
        <ele>867.0</ele>
        <time>2022-06-19T10:44:38.022Z</time>
      </trkpt>
      <trkpt lat="43.11331" lon="-7.08447667">
        <ele>867.0</ele>
        <time>2022-06-19T10:44:39.028Z</time>
      </trkpt>
      <trkpt lat="43.11329" lon="-7.08458333">
        <ele>867.0</ele>
        <time>2022-06-19T10:44:40.054Z</time>
      </trkpt>
      <trkpt lat="43.11329" lon="-7.08458333">
        <ele>867.0</ele>
        <time>2022-06-19T10:44:41.032Z</time>
      </trkpt>
      <trkpt lat="43.11327333" lon="-7.08469167">
        <ele>866.0</ele>
        <time>2022-06-19T10:44:42.042Z</time>
      </trkpt>
      <trkpt lat="43.11327333" lon="-7.08469167">
        <ele>866.0</ele>
        <time>2022-06-19T10:44:43.054Z</time>
      </trkpt>
      <trkpt lat="43.11325667" lon="-7.08480167">
        <ele>866.0</ele>
        <time>2022-06-19T10:44:44.049Z</time>
      </trkpt>
      <trkpt lat="43.11325667" lon="-7.08480167">
        <ele>866.0</ele>
        <time>2022-06-19T10:44:45.016Z</time>
      </trkpt>
      <trkpt lat="43.11323833" lon="-7.08491167">
        <ele>866.0</ele>
        <time>2022-06-19T10:44:46.052Z</time>
      </trkpt>
      <trkpt lat="43.11323833" lon="-7.08491167">
        <ele>866.0</ele>
        <time>2022-06-19T10:44:47.018Z</time>
      </trkpt>
      <trkpt lat="43.11322167" lon="-7.08502667">
        <ele>866.0</ele>
        <time>2022-06-19T10:44:48.025Z</time>
      </trkpt>
      <trkpt lat="43.11322167" lon="-7.08502667">
        <ele>866.0</ele>
        <time>2022-06-19T10:44:49.031Z</time>
      </trkpt>
      <trkpt lat="43.11320667" lon="-7.085145">
        <ele>866.0</ele>
        <time>2022-06-19T10:44:50.030Z</time>
      </trkpt>
      <trkpt lat="43.11320667" lon="-7.085145">
        <ele>866.0</ele>
        <time>2022-06-19T10:44:51.050Z</time>
      </trkpt>
      <trkpt lat="43.11319333" lon="-7.085265">
        <ele>865.0</ele>
        <time>2022-06-19T10:44:52.038Z</time>
      </trkpt>
      <trkpt lat="43.11319333" lon="-7.085265">
        <ele>865.0</ele>
        <time>2022-06-19T10:44:53.050Z</time>
      </trkpt>
      <trkpt lat="43.11318333" lon="-7.08539">
        <ele>865.0</ele>
        <time>2022-06-19T10:44:54.016Z</time>
      </trkpt>
      <trkpt lat="43.11317833" lon="-7.08545333">
        <ele>865.0</ele>
        <time>2022-06-19T10:44:55.056Z</time>
      </trkpt>
      <trkpt lat="43.11317667" lon="-7.08551667">
        <ele>865.0</ele>
        <time>2022-06-19T10:44:56.024Z</time>
      </trkpt>
      <trkpt lat="43.11317667" lon="-7.08551667">
        <ele>865.0</ele>
        <time>2022-06-19T10:44:57.030Z</time>
      </trkpt>
      <trkpt lat="43.11317667" lon="-7.085645">
        <ele>865.0</ele>
        <time>2022-06-19T10:44:58.053Z</time>
      </trkpt>
      <trkpt lat="43.11317833" lon="-7.08570833">
        <ele>865.0</ele>
        <time>2022-06-19T10:44:59.022Z</time>
      </trkpt>
      <trkpt lat="43.11317833" lon="-7.08570833">
        <ele>865.0</ele>
        <time>2022-06-19T10:45:00.028Z</time>
      </trkpt>
      <trkpt lat="43.11318167" lon="-7.08583333">
        <ele>866.0</ele>
        <time>2022-06-19T10:45:01.053Z</time>
      </trkpt>
      <trkpt lat="43.11318667" lon="-7.08589667">
        <ele>866.0</ele>
        <time>2022-06-19T10:45:02.037Z</time>
      </trkpt>
      <trkpt lat="43.11319167" lon="-7.08595833">
        <ele>866.0</ele>
        <time>2022-06-19T10:45:03.030Z</time>
      </trkpt>
      <trkpt lat="43.11319167" lon="-7.08595833">
        <ele>866.0</ele>
        <time>2022-06-19T10:45:04.033Z</time>
      </trkpt>
      <trkpt lat="43.11320667" lon="-7.086085">
        <ele>866.0</ele>
        <time>2022-06-19T10:45:05.022Z</time>
      </trkpt>
      <trkpt lat="43.11320667" lon="-7.086085">
        <ele>866.0</ele>
        <time>2022-06-19T10:45:06.028Z</time>
      </trkpt>
      <trkpt lat="43.11322167" lon="-7.086215">
        <ele>865.0</ele>
        <time>2022-06-19T10:45:07.042Z</time>
      </trkpt>
      <trkpt lat="43.11323167" lon="-7.08628">
        <ele>865.0</ele>
        <time>2022-06-19T10:45:08.048Z</time>
      </trkpt>
      <trkpt lat="43.11323167" lon="-7.08628">
        <ele>865.0</ele>
        <time>2022-06-19T10:45:09.019Z</time>
      </trkpt>
      <trkpt lat="43.11324833" lon="-7.08641667">
        <ele>865.0</ele>
        <time>2022-06-19T10:45:10.041Z</time>
      </trkpt>
      <trkpt lat="43.11324833" lon="-7.08641667">
        <ele>865.0</ele>
        <time>2022-06-19T10:45:11.018Z</time>
      </trkpt>
      <trkpt lat="43.11326667" lon="-7.086555">
        <ele>865.0</ele>
        <time>2022-06-19T10:45:12.053Z</time>
      </trkpt>
      <trkpt lat="43.11326667" lon="-7.086555">
        <ele>865.0</ele>
        <time>2022-06-19T10:45:13.019Z</time>
      </trkpt>
      <trkpt lat="43.113285" lon="-7.0867">
        <ele>864.0</ele>
        <time>2022-06-19T10:45:14.031Z</time>
      </trkpt>
      <trkpt lat="43.113285" lon="-7.0867">
        <ele>864.0</ele>
        <time>2022-06-19T10:45:15.037Z</time>
      </trkpt>
      <trkpt lat="43.113315" lon="-7.08692667">
        <ele>864.0</ele>
        <time>2022-06-19T10:45:16.053Z</time>
      </trkpt>
      <trkpt lat="43.113315" lon="-7.08692667">
        <ele>864.0</ele>
        <time>2022-06-19T10:45:17.023Z</time>
      </trkpt>
      <trkpt lat="43.113315" lon="-7.08692667">
        <ele>864.0</ele>
        <time>2022-06-19T10:45:18.037Z</time>
      </trkpt>
      <trkpt lat="43.11333667" lon="-7.08708333">
        <ele>863.0</ele>
        <time>2022-06-19T10:45:19.041Z</time>
      </trkpt>
      <trkpt lat="43.11334667" lon="-7.08716333">
        <ele>863.0</ele>
        <time>2022-06-19T10:45:20.040Z</time>
      </trkpt>
      <trkpt lat="43.11334667" lon="-7.08716333">
        <ele>863.0</ele>
        <time>2022-06-19T10:45:21.039Z</time>
      </trkpt>
      <trkpt lat="43.11336667" lon="-7.08733">
        <ele>863.0</ele>
        <time>2022-06-19T10:45:22.045Z</time>
      </trkpt>
      <trkpt lat="43.11336667" lon="-7.08733">
        <ele>863.0</ele>
        <time>2022-06-19T10:45:23.019Z</time>
      </trkpt>
      <trkpt lat="43.11338333" lon="-7.0875">
        <ele>862.0</ele>
        <time>2022-06-19T10:45:24.034Z</time>
      </trkpt>
      <trkpt lat="43.11338333" lon="-7.0875">
        <ele>862.0</ele>
        <time>2022-06-19T10:45:25.036Z</time>
      </trkpt>
      <trkpt lat="43.113375" lon="-7.08767167">
        <ele>862.0</ele>
        <time>2022-06-19T10:45:26.026Z</time>
      </trkpt>
      <trkpt lat="43.113375" lon="-7.08767167">
        <ele>862.0</ele>
        <time>2022-06-19T10:45:27.032Z</time>
      </trkpt>
      <trkpt lat="43.11334833" lon="-7.08783667">
        <ele>861.0</ele>
        <time>2022-06-19T10:45:28.030Z</time>
      </trkpt>
      <trkpt lat="43.11334833" lon="-7.08783667">
        <ele>861.0</ele>
        <time>2022-06-19T10:45:29.029Z</time>
      </trkpt>
      <trkpt lat="43.1133" lon="-7.08798667">
        <ele>861.0</ele>
        <time>2022-06-19T10:45:30.029Z</time>
      </trkpt>
      <trkpt lat="43.1133" lon="-7.08798667">
        <ele>861.0</ele>
        <time>2022-06-19T10:45:31.035Z</time>
      </trkpt>
      <trkpt lat="43.11323333" lon="-7.08811333">
        <ele>861.0</ele>
        <time>2022-06-19T10:45:32.056Z</time>
      </trkpt>
      <trkpt lat="43.11323333" lon="-7.08811333">
        <ele>861.0</ele>
        <time>2022-06-19T10:45:33.062Z</time>
      </trkpt>
      <trkpt lat="43.11315833" lon="-7.08821667">
        <ele>861.0</ele>
        <time>2022-06-19T10:45:34.042Z</time>
      </trkpt>
      <trkpt lat="43.11311833" lon="-7.08826167">
        <ele>861.0</ele>
        <time>2022-06-19T10:45:35.054Z</time>
      </trkpt>
      <trkpt lat="43.11311833" lon="-7.08826167">
        <ele>861.0</ele>
        <time>2022-06-19T10:45:36.020Z</time>
      </trkpt>
      <trkpt lat="43.11303167" lon="-7.08834">
        <ele>861.0</ele>
        <time>2022-06-19T10:45:37.021Z</time>
      </trkpt>
      <trkpt lat="43.11298333" lon="-7.08836833">
        <ele>861.0</ele>
        <time>2022-06-19T10:45:38.028Z</time>
      </trkpt>
      <trkpt lat="43.11298333" lon="-7.08836833">
        <ele>861.0</ele>
        <time>2022-06-19T10:45:39.034Z</time>
      </trkpt>
      <trkpt lat="43.11288333" lon="-7.08840833">
        <ele>861.0</ele>
        <time>2022-06-19T10:45:40.030Z</time>
      </trkpt>
      <trkpt lat="43.11288333" lon="-7.08840833">
        <ele>861.0</ele>
        <time>2022-06-19T10:45:41.036Z</time>
      </trkpt>
      <trkpt lat="43.11278167" lon="-7.088435">
        <ele>862.0</ele>
        <time>2022-06-19T10:45:42.016Z</time>
      </trkpt>
      <trkpt lat="43.11278167" lon="-7.088435">
        <ele>862.0</ele>
        <time>2022-06-19T10:45:43.063Z</time>
      </trkpt>
      <trkpt lat="43.11268" lon="-7.08846">
        <ele>862.0</ele>
        <time>2022-06-19T10:45:44.036Z</time>
      </trkpt>
      <trkpt lat="43.11268" lon="-7.08846">
        <ele>862.0</ele>
        <time>2022-06-19T10:45:45.027Z</time>
      </trkpt>
      <trkpt lat="43.11258" lon="-7.08848167">
        <ele>862.0</ele>
        <time>2022-06-19T10:45:46.052Z</time>
      </trkpt>
      <trkpt lat="43.11258" lon="-7.08848167">
        <ele>862.0</ele>
        <time>2022-06-19T10:45:47.028Z</time>
      </trkpt>
      <trkpt lat="43.11248167" lon="-7.08850167">
        <ele>862.0</ele>
        <time>2022-06-19T10:45:48.033Z</time>
      </trkpt>
      <trkpt lat="43.11248167" lon="-7.08850167">
        <ele>862.0</ele>
        <time>2022-06-19T10:45:49.039Z</time>
      </trkpt>
      <trkpt lat="43.11238667" lon="-7.08852167">
        <ele>862.0</ele>
        <time>2022-06-19T10:45:50.031Z</time>
      </trkpt>
      <trkpt lat="43.11238667" lon="-7.08852167">
        <ele>862.0</ele>
        <time>2022-06-19T10:45:51.037Z</time>
      </trkpt>
      <trkpt lat="43.11229167" lon="-7.08854333">
        <ele>862.0</ele>
        <time>2022-06-19T10:45:52.054Z</time>
      </trkpt>
      <trkpt lat="43.11229167" lon="-7.08854333">
        <ele>862.0</ele>
        <time>2022-06-19T10:45:53.020Z</time>
      </trkpt>
      <trkpt lat="43.112195" lon="-7.08856667">
        <ele>862.0</ele>
        <time>2022-06-19T10:45:54.042Z</time>
      </trkpt>
      <trkpt lat="43.11214667" lon="-7.08857667">
        <ele>862.0</ele>
        <time>2022-06-19T10:45:55.054Z</time>
      </trkpt>
      <trkpt lat="43.11214667" lon="-7.08857667">
        <ele>862.0</ele>
        <time>2022-06-19T10:45:56.022Z</time>
      </trkpt>
      <trkpt lat="43.11204833" lon="-7.08859667">
        <ele>863.0</ele>
        <time>2022-06-19T10:45:57.032Z</time>
      </trkpt>
      <trkpt lat="43.112" lon="-7.08860667">
        <ele>863.0</ele>
        <time>2022-06-19T10:45:58.051Z</time>
      </trkpt>
      <trkpt lat="43.112" lon="-7.08860667">
        <ele>863.0</ele>
        <time>2022-06-19T10:45:59.017Z</time>
      </trkpt>
      <trkpt lat="43.11190167" lon="-7.088625">
        <ele>863.0</ele>
        <time>2022-06-19T10:46:00.022Z</time>
      </trkpt>
      <trkpt lat="43.11190167" lon="-7.088625">
        <ele>863.0</ele>
        <time>2022-06-19T10:46:01.027Z</time>
      </trkpt>
      <trkpt lat="43.11180167" lon="-7.088645">
        <ele>863.0</ele>
        <time>2022-06-19T10:46:02.020Z</time>
      </trkpt>
      <trkpt lat="43.11180167" lon="-7.088645">
        <ele>863.0</ele>
        <time>2022-06-19T10:46:03.025Z</time>
      </trkpt>
      <trkpt lat="43.11170333" lon="-7.08866667">
        <ele>863.0</ele>
        <time>2022-06-19T10:46:04.020Z</time>
      </trkpt>
      <trkpt lat="43.11170333" lon="-7.08866667">
        <ele>863.0</ele>
        <time>2022-06-19T10:46:05.026Z</time>
      </trkpt>
      <trkpt lat="43.11160333" lon="-7.08869333">
        <ele>863.0</ele>
        <time>2022-06-19T10:46:06.051Z</time>
      </trkpt>
      <trkpt lat="43.11160333" lon="-7.08869333">
        <ele>863.0</ele>
        <time>2022-06-19T10:46:07.018Z</time>
      </trkpt>
      <trkpt lat="43.11150667" lon="-7.088715">
        <ele>863.0</ele>
        <time>2022-06-19T10:46:08.052Z</time>
      </trkpt>
      <trkpt lat="43.11150667" lon="-7.088715">
        <ele>863.0</ele>
        <time>2022-06-19T10:46:09.019Z</time>
      </trkpt>
      <trkpt lat="43.11141167" lon="-7.088735">
        <ele>864.0</ele>
        <time>2022-06-19T10:46:10.055Z</time>
      </trkpt>
      <trkpt lat="43.11141167" lon="-7.088735">
        <ele>864.0</ele>
        <time>2022-06-19T10:46:11.021Z</time>
      </trkpt>
      <trkpt lat="43.11131833" lon="-7.08875167">
        <ele>864.0</ele>
        <time>2022-06-19T10:46:12.052Z</time>
      </trkpt>
      <trkpt lat="43.11131833" lon="-7.08875167">
        <ele>864.0</ele>
        <time>2022-06-19T10:46:13.021Z</time>
      </trkpt>
      <trkpt lat="43.11122667" lon="-7.088775">
        <ele>864.0</ele>
        <time>2022-06-19T10:46:14.051Z</time>
      </trkpt>
      <trkpt lat="43.11122667" lon="-7.088775">
        <ele>864.0</ele>
        <time>2022-06-19T10:46:15.017Z</time>
      </trkpt>
      <trkpt lat="43.11113667" lon="-7.08880167">
        <ele>864.0</ele>
        <time>2022-06-19T10:46:16.049Z</time>
      </trkpt>
      <trkpt lat="43.11113667" lon="-7.08880167">
        <ele>864.0</ele>
        <time>2022-06-19T10:46:17.017Z</time>
      </trkpt>
      <trkpt lat="43.11105" lon="-7.08882333">
        <ele>865.0</ele>
        <time>2022-06-19T10:46:18.053Z</time>
      </trkpt>
      <trkpt lat="43.11105" lon="-7.08882333">
        <ele>865.0</ele>
        <time>2022-06-19T10:46:19.018Z</time>
      </trkpt>
      <trkpt lat="43.11096167" lon="-7.08885333">
        <ele>865.0</ele>
        <time>2022-06-19T10:46:20.030Z</time>
      </trkpt>
      <trkpt lat="43.11096167" lon="-7.08885333">
        <ele>865.0</ele>
        <time>2022-06-19T10:46:21.036Z</time>
      </trkpt>
      <trkpt lat="43.11087333" lon="-7.08888167">
        <ele>865.0</ele>
        <time>2022-06-19T10:46:22.035Z</time>
      </trkpt>
      <trkpt lat="43.11087333" lon="-7.08888167">
        <ele>865.0</ele>
        <time>2022-06-19T10:46:23.042Z</time>
      </trkpt>
      <trkpt lat="43.11079167" lon="-7.088905">
        <ele>865.0</ele>
        <time>2022-06-19T10:46:24.024Z</time>
      </trkpt>
      <trkpt lat="43.11079167" lon="-7.088905">
        <ele>865.0</ele>
        <time>2022-06-19T10:46:25.030Z</time>
      </trkpt>
      <trkpt lat="43.110715" lon="-7.08893167">
        <ele>865.0</ele>
        <time>2022-06-19T10:46:26.019Z</time>
      </trkpt>
      <trkpt lat="43.110715" lon="-7.08893167">
        <ele>865.0</ele>
        <time>2022-06-19T10:46:27.025Z</time>
      </trkpt>
      <trkpt lat="43.11063667" lon="-7.08897167">
        <ele>866.0</ele>
        <time>2022-06-19T10:46:28.031Z</time>
      </trkpt>
      <trkpt lat="43.11059833" lon="-7.08899167">
        <ele>866.0</ele>
        <time>2022-06-19T10:46:29.032Z</time>
      </trkpt>
      <trkpt lat="43.11059833" lon="-7.08899167">
        <ele>866.0</ele>
        <time>2022-06-19T10:46:30.038Z</time>
      </trkpt>
      <trkpt lat="43.11052333" lon="-7.08902667">
        <ele>866.0</ele>
        <time>2022-06-19T10:46:31.030Z</time>
      </trkpt>
      <trkpt lat="43.110485" lon="-7.089045">
        <ele>866.0</ele>
        <time>2022-06-19T10:46:32.032Z</time>
      </trkpt>
      <trkpt lat="43.110485" lon="-7.089045">
        <ele>866.0</ele>
        <time>2022-06-19T10:46:33.038Z</time>
      </trkpt>
      <trkpt lat="43.11041" lon="-7.08908333">
        <ele>866.0</ele>
        <time>2022-06-19T10:46:34.042Z</time>
      </trkpt>
      <trkpt lat="43.11041" lon="-7.08908333">
        <ele>866.0</ele>
        <time>2022-06-19T10:46:35.018Z</time>
      </trkpt>
      <trkpt lat="43.11033667" lon="-7.08912167">
        <ele>867.0</ele>
        <time>2022-06-19T10:46:36.038Z</time>
      </trkpt>
      <trkpt lat="43.11033667" lon="-7.08912167">
        <ele>867.0</ele>
        <time>2022-06-19T10:46:37.016Z</time>
      </trkpt>
      <trkpt lat="43.11026333" lon="-7.08916167">
        <ele>867.0</ele>
        <time>2022-06-19T10:46:38.052Z</time>
      </trkpt>
      <trkpt lat="43.11026333" lon="-7.08916167">
        <ele>867.0</ele>
        <time>2022-06-19T10:46:39.018Z</time>
      </trkpt>
      <trkpt lat="43.11019333" lon="-7.089195">
        <ele>867.0</ele>
        <time>2022-06-19T10:46:40.051Z</time>
      </trkpt>
      <trkpt lat="43.11019333" lon="-7.089195">
        <ele>867.0</ele>
        <time>2022-06-19T10:46:41.016Z</time>
      </trkpt>
      <trkpt lat="43.11013167" lon="-7.089235">
        <ele>868.0</ele>
        <time>2022-06-19T10:46:42.050Z</time>
      </trkpt>
      <trkpt lat="43.11013167" lon="-7.089235">
        <ele>868.0</ele>
        <time>2022-06-19T10:46:43.018Z</time>
      </trkpt>
      <trkpt lat="43.110075" lon="-7.08927167">
        <ele>868.0</ele>
        <time>2022-06-19T10:46:44.032Z</time>
      </trkpt>
      <trkpt lat="43.110075" lon="-7.08927167">
        <ele>868.0</ele>
        <time>2022-06-19T10:46:45.038Z</time>
      </trkpt>
      <trkpt lat="43.11003667" lon="-7.08933">
        <ele>869.0</ele>
        <time>2022-06-19T10:46:46.050Z</time>
      </trkpt>
      <trkpt lat="43.11003667" lon="-7.08933">
        <ele>869.0</ele>
        <time>2022-06-19T10:46:47.016Z</time>
      </trkpt>
      <trkpt lat="43.11001833" lon="-7.08942167">
        <ele>869.0</ele>
        <time>2022-06-19T10:46:48.050Z</time>
      </trkpt>
      <trkpt lat="43.11001167" lon="-7.08946667">
        <ele>869.0</ele>
        <time>2022-06-19T10:46:49.024Z</time>
      </trkpt>
      <trkpt lat="43.11001167" lon="-7.08946667">
        <ele>869.0</ele>
        <time>2022-06-19T10:46:50.030Z</time>
      </trkpt>
      <trkpt lat="43.10997833" lon="-7.089555">
        <ele>871.0</ele>
        <time>2022-06-19T10:46:51.029Z</time>
      </trkpt>
      <trkpt lat="43.10997833" lon="-7.089555">
        <ele>871.0</ele>
        <time>2022-06-19T10:46:52.035Z</time>
      </trkpt>
      <trkpt lat="43.10994" lon="-7.08962">
        <ele>872.0</ele>
        <time>2022-06-19T10:46:53.024Z</time>
      </trkpt>
      <trkpt lat="43.10994" lon="-7.08962">
        <ele>872.0</ele>
        <time>2022-06-19T10:46:54.030Z</time>
      </trkpt>
      <trkpt lat="43.10990333" lon="-7.08966833">
        <ele>873.0</ele>
        <time>2022-06-19T10:46:55.031Z</time>
      </trkpt>
      <trkpt lat="43.109885" lon="-7.08969667">
        <ele>873.0</ele>
        <time>2022-06-19T10:46:56.020Z</time>
      </trkpt>
      <trkpt lat="43.109885" lon="-7.08969667">
        <ele>873.0</ele>
        <time>2022-06-19T10:46:57.026Z</time>
      </trkpt>
      <trkpt lat="43.10985167" lon="-7.08976167">
        <ele>874.0</ele>
        <time>2022-06-19T10:46:58.041Z</time>
      </trkpt>
      <trkpt lat="43.10985167" lon="-7.08976167">
        <ele>874.0</ele>
        <time>2022-06-19T10:46:59.017Z</time>
      </trkpt>
      <trkpt lat="43.109815" lon="-7.08983333">
        <ele>874.0</ele>
        <time>2022-06-19T10:47:00.053Z</time>
      </trkpt>
      <trkpt lat="43.109815" lon="-7.08983333">
        <ele>874.0</ele>
        <time>2022-06-19T10:47:01.019Z</time>
      </trkpt>
      <trkpt lat="43.10978667" lon="-7.08991167">
        <ele>875.0</ele>
        <time>2022-06-19T10:47:02.038Z</time>
      </trkpt>
      <trkpt lat="43.10978667" lon="-7.08991167">
        <ele>875.0</ele>
        <time>2022-06-19T10:47:03.031Z</time>
      </trkpt>
      <trkpt lat="43.109755" lon="-7.08999667">
        <ele>876.0</ele>
        <time>2022-06-19T10:47:04.052Z</time>
      </trkpt>
      <trkpt lat="43.10974333" lon="-7.09005167">
        <ele>876.0</ele>
        <time>2022-06-19T10:47:05.033Z</time>
      </trkpt>
      <trkpt lat="43.10974333" lon="-7.09005167">
        <ele>876.0</ele>
        <time>2022-06-19T10:47:06.039Z</time>
      </trkpt>
      <trkpt lat="43.10971333" lon="-7.090145">
        <ele>875.0</ele>
        <time>2022-06-19T10:47:07.035Z</time>
      </trkpt>
      <trkpt lat="43.1097" lon="-7.09018333">
        <ele>875.0</ele>
        <time>2022-06-19T10:47:08.017Z</time>
      </trkpt>
      <trkpt lat="43.1097" lon="-7.09018333">
        <ele>875.0</ele>
        <time>2022-06-19T10:47:09.024Z</time>
      </trkpt>
      <trkpt lat="43.10969" lon="-7.090265">
        <ele>875.0</ele>
        <time>2022-06-19T10:47:10.052Z</time>
      </trkpt>
      <trkpt lat="43.10969" lon="-7.090265">
        <ele>875.0</ele>
        <time>2022-06-19T10:47:11.018Z</time>
      </trkpt>
      <trkpt lat="43.10968667" lon="-7.09035333">
        <ele>875.0</ele>
        <time>2022-06-19T10:47:12.052Z</time>
      </trkpt>
      <trkpt lat="43.10968667" lon="-7.09035333">
        <ele>875.0</ele>
        <time>2022-06-19T10:47:13.018Z</time>
      </trkpt>
      <trkpt lat="43.10968833" lon="-7.09043">
        <ele>875.0</ele>
        <time>2022-06-19T10:47:14.053Z</time>
      </trkpt>
      <trkpt lat="43.10968833" lon="-7.09043">
        <ele>875.0</ele>
        <time>2022-06-19T10:47:15.019Z</time>
      </trkpt>
      <trkpt lat="43.10969167" lon="-7.09049667">
        <ele>876.0</ele>
        <time>2022-06-19T10:47:16.052Z</time>
      </trkpt>
      <trkpt lat="43.10969167" lon="-7.09049667">
        <ele>876.0</ele>
        <time>2022-06-19T10:47:17.018Z</time>
      </trkpt>
      <trkpt lat="43.1097" lon="-7.09055833">
        <ele>876.0</ele>
        <time>2022-06-19T10:47:18.043Z</time>
      </trkpt>
      <trkpt lat="43.1097" lon="-7.09055833">
        <ele>876.0</ele>
        <time>2022-06-19T10:47:19.053Z</time>
      </trkpt>
      <trkpt lat="43.10970667" lon="-7.09060667">
        <ele>877.0</ele>
        <time>2022-06-19T10:47:20.024Z</time>
      </trkpt>
      <trkpt lat="43.10970667" lon="-7.09060667">
        <ele>877.0</ele>
        <time>2022-06-19T10:47:21.030Z</time>
      </trkpt>
      <trkpt lat="43.10971167" lon="-7.09065">
        <ele>877.0</ele>
        <time>2022-06-19T10:47:22.021Z</time>
      </trkpt>
      <trkpt lat="43.10971167" lon="-7.09065">
        <ele>877.0</ele>
        <time>2022-06-19T10:47:23.027Z</time>
      </trkpt>
      <trkpt lat="43.10971833" lon="-7.09069">
        <ele>877.0</ele>
        <time>2022-06-19T10:47:24.024Z</time>
      </trkpt>
      <trkpt lat="43.10972333" lon="-7.09071">
        <ele>877.0</ele>
        <time>2022-06-19T10:47:25.042Z</time>
      </trkpt>
      <trkpt lat="43.10972833" lon="-7.09072833">
        <ele>878.0</ele>
        <time>2022-06-19T10:47:26.039Z</time>
      </trkpt>
      <trkpt lat="43.10972833" lon="-7.09072833">
        <ele>878.0</ele>
        <time>2022-06-19T10:47:27.046Z</time>
      </trkpt>
      <trkpt lat="43.10974167" lon="-7.09076333">
        <ele>878.0</ele>
        <time>2022-06-19T10:47:28.053Z</time>
      </trkpt>
      <trkpt lat="43.10974833" lon="-7.09078167">
        <ele>878.0</ele>
        <time>2022-06-19T10:47:29.016Z</time>
      </trkpt>
      <trkpt lat="43.10975333" lon="-7.09079833">
        <ele>879.0</ele>
        <time>2022-06-19T10:47:30.038Z</time>
      </trkpt>
      <trkpt lat="43.10975333" lon="-7.09079833">
        <ele>879.0</ele>
        <time>2022-06-19T10:47:31.017Z</time>
      </trkpt>
      <trkpt lat="43.109765" lon="-7.09083167">
        <ele>879.0</ele>
        <time>2022-06-19T10:47:32.039Z</time>
      </trkpt>
      <trkpt lat="43.109765" lon="-7.09083167">
        <ele>879.0</ele>
        <time>2022-06-19T10:47:33.053Z</time>
      </trkpt>
      <trkpt lat="43.10977167" lon="-7.090865">
        <ele>880.0</ele>
        <time>2022-06-19T10:47:34.042Z</time>
      </trkpt>
      <trkpt lat="43.109775" lon="-7.09087833">
        <ele>880.0</ele>
        <time>2022-06-19T10:47:35.044Z</time>
      </trkpt>
      <trkpt lat="43.109775" lon="-7.09087833">
        <ele>880.0</ele>
        <time>2022-06-19T10:47:36.016Z</time>
      </trkpt>
      <trkpt lat="43.10978667" lon="-7.09090833">
        <ele>881.0</ele>
        <time>2022-06-19T10:47:37.043Z</time>
      </trkpt>
      <trkpt lat="43.10978667" lon="-7.09090833">
        <ele>881.0</ele>
        <time>2022-06-19T10:47:38.016Z</time>
      </trkpt>
      <trkpt lat="43.1098" lon="-7.09093833">
        <ele>881.0</ele>
        <time>2022-06-19T10:47:39.049Z</time>
      </trkpt>
      <trkpt lat="43.1098" lon="-7.09093833">
        <ele>881.0</ele>
        <time>2022-06-19T10:47:40.017Z</time>
      </trkpt>
      <trkpt lat="43.10980667" lon="-7.09096667">
        <ele>882.0</ele>
        <time>2022-06-19T10:47:41.050Z</time>
      </trkpt>
      <trkpt lat="43.10980667" lon="-7.09096667">
        <ele>882.0</ele>
        <time>2022-06-19T10:47:42.023Z</time>
      </trkpt>
      <trkpt lat="43.10981833" lon="-7.09100167">
        <ele>882.0</ele>
        <time>2022-06-19T10:47:43.019Z</time>
      </trkpt>
      <trkpt lat="43.10981833" lon="-7.09100167">
        <ele>882.0</ele>
        <time>2022-06-19T10:47:44.025Z</time>
      </trkpt>
      <trkpt lat="43.109825" lon="-7.09103667">
        <ele>882.0</ele>
        <time>2022-06-19T10:47:45.022Z</time>
      </trkpt>
      <trkpt lat="43.10982833" lon="-7.091055">
        <ele>882.0</ele>
        <time>2022-06-19T10:47:46.025Z</time>
      </trkpt>
      <trkpt lat="43.10982833" lon="-7.091055">
        <ele>882.0</ele>
        <time>2022-06-19T10:47:47.031Z</time>
      </trkpt>
      <trkpt lat="43.10983833" lon="-7.09109167">
        <ele>883.0</ele>
        <time>2022-06-19T10:47:48.032Z</time>
      </trkpt>
      <trkpt lat="43.10983833" lon="-7.09109167">
        <ele>883.0</ele>
        <time>2022-06-19T10:47:49.038Z</time>
      </trkpt>
      <trkpt lat="43.109845" lon="-7.09112667">
        <ele>883.0</ele>
        <time>2022-06-19T10:47:50.032Z</time>
      </trkpt>
      <trkpt lat="43.10985" lon="-7.09114667">
        <ele>883.0</ele>
        <time>2022-06-19T10:47:51.019Z</time>
      </trkpt>
      <trkpt lat="43.109855" lon="-7.091165">
        <ele>883.0</ele>
        <time>2022-06-19T10:47:52.046Z</time>
      </trkpt>
      <trkpt lat="43.109855" lon="-7.091165">
        <ele>883.0</ele>
        <time>2022-06-19T10:47:53.056Z</time>
      </trkpt>
      <trkpt lat="43.10985833" lon="-7.09119667">
        <ele>883.0</ele>
        <time>2022-06-19T10:47:54.039Z</time>
      </trkpt>
      <trkpt lat="43.10985833" lon="-7.09119667">
        <ele>883.0</ele>
        <time>2022-06-19T10:47:55.053Z</time>
      </trkpt>
      <trkpt lat="43.10985833" lon="-7.09123167">
        <ele>884.0</ele>
        <time>2022-06-19T10:47:56.021Z</time>
      </trkpt>
      <trkpt lat="43.10985833" lon="-7.09123167">
        <ele>884.0</ele>
        <time>2022-06-19T10:47:57.027Z</time>
      </trkpt>
      <trkpt lat="43.10985833" lon="-7.09127333">
        <ele>884.0</ele>
        <time>2022-06-19T10:47:58.026Z</time>
      </trkpt>
      <trkpt lat="43.10985833" lon="-7.09127333">
        <ele>884.0</ele>
        <time>2022-06-19T10:47:59.032Z</time>
      </trkpt>
      <trkpt lat="43.10985167" lon="-7.091315">
        <ele>884.0</ele>
        <time>2022-06-19T10:48:00.030Z</time>
      </trkpt>
      <trkpt lat="43.10985167" lon="-7.091315">
        <ele>884.0</ele>
        <time>2022-06-19T10:48:01.037Z</time>
      </trkpt>
      <trkpt lat="43.10984333" lon="-7.09135833">
        <ele>885.0</ele>
        <time>2022-06-19T10:48:02.046Z</time>
      </trkpt>
      <trkpt lat="43.10984333" lon="-7.09135833">
        <ele>885.0</ele>
        <time>2022-06-19T10:48:03.057Z</time>
      </trkpt>
      <trkpt lat="43.10983167" lon="-7.09140833">
        <ele>885.0</ele>
        <time>2022-06-19T10:48:04.018Z</time>
      </trkpt>
      <trkpt lat="43.10983167" lon="-7.09140833">
        <ele>885.0</ele>
        <time>2022-06-19T10:48:05.025Z</time>
      </trkpt>
      <trkpt lat="43.10981833" lon="-7.09146">
        <ele>885.0</ele>
        <time>2022-06-19T10:48:06.050Z</time>
      </trkpt>
      <trkpt lat="43.10981833" lon="-7.09146">
        <ele>885.0</ele>
        <time>2022-06-19T10:48:07.019Z</time>
      </trkpt>
      <trkpt lat="43.109805" lon="-7.09151333">
        <ele>885.0</ele>
        <time>2022-06-19T10:48:08.040Z</time>
      </trkpt>
      <trkpt lat="43.10979833" lon="-7.09153667">
        <ele>885.0</ele>
        <time>2022-06-19T10:48:09.052Z</time>
      </trkpt>
      <trkpt lat="43.10979833" lon="-7.09153667">
        <ele>885.0</ele>
        <time>2022-06-19T10:48:10.019Z</time>
      </trkpt>
      <trkpt lat="43.10978167" lon="-7.09158833">
        <ele>885.0</ele>
        <time>2022-06-19T10:48:11.042Z</time>
      </trkpt>
      <trkpt lat="43.10977167" lon="-7.091615">
        <ele>885.0</ele>
        <time>2022-06-19T10:48:12.034Z</time>
      </trkpt>
      <trkpt lat="43.10977167" lon="-7.091615">
        <ele>885.0</ele>
        <time>2022-06-19T10:48:13.039Z</time>
      </trkpt>
      <trkpt lat="43.109755" lon="-7.09167167">
        <ele>886.0</ele>
        <time>2022-06-19T10:48:14.024Z</time>
      </trkpt>
      <trkpt lat="43.109755" lon="-7.09167167">
        <ele>886.0</ele>
        <time>2022-06-19T10:48:15.030Z</time>
      </trkpt>
      <trkpt lat="43.109745" lon="-7.09172833">
        <ele>886.0</ele>
        <time>2022-06-19T10:48:16.027Z</time>
      </trkpt>
      <trkpt lat="43.109745" lon="-7.09172833">
        <ele>886.0</ele>
        <time>2022-06-19T10:48:17.033Z</time>
      </trkpt>
      <trkpt lat="43.10974167" lon="-7.09179167">
        <ele>885.0</ele>
        <time>2022-06-19T10:48:18.031Z</time>
      </trkpt>
      <trkpt lat="43.10974" lon="-7.091825">
        <ele>885.0</ele>
        <time>2022-06-19T10:48:19.032Z</time>
      </trkpt>
      <trkpt lat="43.10974" lon="-7.09185333">
        <ele>886.0</ele>
        <time>2022-06-19T10:48:20.026Z</time>
      </trkpt>
      <trkpt lat="43.10974" lon="-7.09185333">
        <ele>886.0</ele>
        <time>2022-06-19T10:48:21.032Z</time>
      </trkpt>
      <trkpt lat="43.10974333" lon="-7.091915">
        <ele>886.0</ele>
        <time>2022-06-19T10:48:22.036Z</time>
      </trkpt>
      <trkpt lat="43.10974667" lon="-7.091945">
        <ele>886.0</ele>
        <time>2022-06-19T10:48:23.037Z</time>
      </trkpt>
      <trkpt lat="43.10974667" lon="-7.091945">
        <ele>886.0</ele>
        <time>2022-06-19T10:48:24.043Z</time>
      </trkpt>
      <trkpt lat="43.10975333" lon="-7.09200667">
        <ele>886.0</ele>
        <time>2022-06-19T10:48:25.052Z</time>
      </trkpt>
      <trkpt lat="43.10975833" lon="-7.09204">
        <ele>886.0</ele>
        <time>2022-06-19T10:48:26.054Z</time>
      </trkpt>
      <trkpt lat="43.10975833" lon="-7.09204">
        <ele>886.0</ele>
        <time>2022-06-19T10:48:27.025Z</time>
      </trkpt>
      <trkpt lat="43.10977333" lon="-7.092095">
        <ele>886.0</ele>
        <time>2022-06-19T10:48:28.051Z</time>
      </trkpt>
      <trkpt lat="43.10977333" lon="-7.092095">
        <ele>886.0</ele>
        <time>2022-06-19T10:48:29.017Z</time>
      </trkpt>
      <trkpt lat="43.109795" lon="-7.09214667">
        <ele>887.0</ele>
        <time>2022-06-19T10:48:30.016Z</time>
      </trkpt>
      <trkpt lat="43.10980833" lon="-7.09217">
        <ele>887.0</ele>
        <time>2022-06-19T10:48:31.059Z</time>
      </trkpt>
      <trkpt lat="43.10981833" lon="-7.09219167">
        <ele>887.0</ele>
        <time>2022-06-19T10:48:32.040Z</time>
      </trkpt>
      <trkpt lat="43.10981833" lon="-7.09219167">
        <ele>887.0</ele>
        <time>2022-06-19T10:48:33.054Z</time>
      </trkpt>
      <trkpt lat="43.109845" lon="-7.09223333">
        <ele>887.0</ele>
        <time>2022-06-19T10:48:34.040Z</time>
      </trkpt>
      <trkpt lat="43.10985667" lon="-7.092255">
        <ele>887.0</ele>
        <time>2022-06-19T10:48:35.017Z</time>
      </trkpt>
      <trkpt lat="43.10985667" lon="-7.092255">
        <ele>887.0</ele>
        <time>2022-06-19T10:48:36.023Z</time>
      </trkpt>
      <trkpt lat="43.10988" lon="-7.09229667">
        <ele>888.0</ele>
        <time>2022-06-19T10:48:37.022Z</time>
      </trkpt>
      <trkpt lat="43.10988" lon="-7.09229667">
        <ele>888.0</ele>
        <time>2022-06-19T10:48:38.028Z</time>
      </trkpt>
      <trkpt lat="43.10990167" lon="-7.09234">
        <ele>888.0</ele>
        <time>2022-06-19T10:48:39.017Z</time>
      </trkpt>
      <trkpt lat="43.10991333" lon="-7.09236">
        <ele>888.0</ele>
        <time>2022-06-19T10:48:40.034Z</time>
      </trkpt>
      <trkpt lat="43.10991333" lon="-7.09236">
        <ele>888.0</ele>
        <time>2022-06-19T10:48:41.040Z</time>
      </trkpt>
      <trkpt lat="43.10992167" lon="-7.09241167">
        <ele>889.0</ele>
        <time>2022-06-19T10:48:42.032Z</time>
      </trkpt>
      <trkpt lat="43.10992667" lon="-7.09243333">
        <ele>889.0</ele>
        <time>2022-06-19T10:48:43.020Z</time>
      </trkpt>
      <trkpt lat="43.10992667" lon="-7.09243333">
        <ele>889.0</ele>
        <time>2022-06-19T10:48:44.026Z</time>
      </trkpt>
      <trkpt lat="43.10994" lon="-7.09247833">
        <ele>889.0</ele>
        <time>2022-06-19T10:48:45.017Z</time>
      </trkpt>
      <trkpt lat="43.10994" lon="-7.09247833">
        <ele>889.0</ele>
        <time>2022-06-19T10:48:46.024Z</time>
      </trkpt>
      <trkpt lat="43.10995333" lon="-7.09252167">
        <ele>889.0</ele>
        <time>2022-06-19T10:48:47.029Z</time>
      </trkpt>
      <trkpt lat="43.10995333" lon="-7.09252167">
        <ele>889.0</ele>
        <time>2022-06-19T10:48:48.035Z</time>
      </trkpt>
      <trkpt lat="43.10996333" lon="-7.09256667">
        <ele>889.0</ele>
        <time>2022-06-19T10:48:49.022Z</time>
      </trkpt>
      <trkpt lat="43.10997" lon="-7.09258667">
        <ele>889.0</ele>
        <time>2022-06-19T10:48:50.054Z</time>
      </trkpt>
      <trkpt lat="43.10997" lon="-7.09258667">
        <ele>889.0</ele>
        <time>2022-06-19T10:48:51.019Z</time>
      </trkpt>
      <trkpt lat="43.10998667" lon="-7.09263333">
        <ele>889.0</ele>
        <time>2022-06-19T10:48:52.055Z</time>
      </trkpt>
      <trkpt lat="43.10998667" lon="-7.09263333">
        <ele>889.0</ele>
        <time>2022-06-19T10:48:53.021Z</time>
      </trkpt>
      <trkpt lat="43.11000167" lon="-7.09267167">
        <ele>890.0</ele>
        <time>2022-06-19T10:48:54.019Z</time>
      </trkpt>
      <trkpt lat="43.11000167" lon="-7.09267167">
        <ele>890.0</ele>
        <time>2022-06-19T10:48:55.025Z</time>
      </trkpt>
      <trkpt lat="43.11001167" lon="-7.09270833">
        <ele>890.0</ele>
        <time>2022-06-19T10:48:56.023Z</time>
      </trkpt>
      <trkpt lat="43.11001167" lon="-7.09270833">
        <ele>890.0</ele>
        <time>2022-06-19T10:48:57.029Z</time>
      </trkpt>
      <trkpt lat="43.110015" lon="-7.09274333">
        <ele>890.0</ele>
        <time>2022-06-19T10:48:58.028Z</time>
      </trkpt>
      <trkpt lat="43.110015" lon="-7.09274333">
        <ele>890.0</ele>
        <time>2022-06-19T10:48:59.034Z</time>
      </trkpt>
      <trkpt lat="43.110025" lon="-7.09277667">
        <ele>890.0</ele>
        <time>2022-06-19T10:49:00.032Z</time>
      </trkpt>
      <trkpt lat="43.110025" lon="-7.09277667">
        <ele>890.0</ele>
        <time>2022-06-19T10:49:01.038Z</time>
      </trkpt>
      <trkpt lat="43.11003333" lon="-7.09281">
        <ele>890.0</ele>
        <time>2022-06-19T10:49:02.051Z</time>
      </trkpt>
      <trkpt lat="43.11003333" lon="-7.09281">
        <ele>890.0</ele>
        <time>2022-06-19T10:49:03.024Z</time>
      </trkpt>
      <trkpt lat="43.11004833" lon="-7.09283833">
        <ele>891.0</ele>
        <time>2022-06-19T10:49:04.024Z</time>
      </trkpt>
      <trkpt lat="43.11005667" lon="-7.09285333">
        <ele>891.0</ele>
        <time>2022-06-19T10:49:05.022Z</time>
      </trkpt>
      <trkpt lat="43.11005667" lon="-7.09285333">
        <ele>891.0</ele>
        <time>2022-06-19T10:49:06.029Z</time>
      </trkpt>
      <trkpt lat="43.11007167" lon="-7.092885">
        <ele>891.0</ele>
        <time>2022-06-19T10:49:07.024Z</time>
      </trkpt>
      <trkpt lat="43.11007667" lon="-7.092905">
        <ele>891.0</ele>
        <time>2022-06-19T10:49:08.049Z</time>
      </trkpt>
      <trkpt lat="43.11007667" lon="-7.092905">
        <ele>891.0</ele>
        <time>2022-06-19T10:49:09.019Z</time>
      </trkpt>
      <trkpt lat="43.11009" lon="-7.09294167">
        <ele>891.0</ele>
        <time>2022-06-19T10:49:10.049Z</time>
      </trkpt>
      <trkpt lat="43.11009" lon="-7.09294167">
        <ele>891.0</ele>
        <time>2022-06-19T10:49:11.018Z</time>
      </trkpt>
      <trkpt lat="43.11009667" lon="-7.09297667">
        <ele>892.0</ele>
        <time>2022-06-19T10:49:12.056Z</time>
      </trkpt>
      <trkpt lat="43.11009667" lon="-7.09297667">
        <ele>892.0</ele>
        <time>2022-06-19T10:49:13.021Z</time>
      </trkpt>
      <trkpt lat="43.11009833" lon="-7.093015">
        <ele>892.0</ele>
        <time>2022-06-19T10:49:14.054Z</time>
      </trkpt>
      <trkpt lat="43.11009833" lon="-7.093015">
        <ele>892.0</ele>
        <time>2022-06-19T10:49:15.020Z</time>
      </trkpt>
      <trkpt lat="43.11010167" lon="-7.09306">
        <ele>893.0</ele>
        <time>2022-06-19T10:49:16.040Z</time>
      </trkpt>
      <trkpt lat="43.11010167" lon="-7.09306">
        <ele>893.0</ele>
        <time>2022-06-19T10:49:17.052Z</time>
      </trkpt>
      <trkpt lat="43.11010667" lon="-7.0931">
        <ele>893.0</ele>
        <time>2022-06-19T10:49:18.053Z</time>
      </trkpt>
      <trkpt lat="43.11010667" lon="-7.0931">
        <ele>893.0</ele>
        <time>2022-06-19T10:49:19.019Z</time>
      </trkpt>
      <trkpt lat="43.11010833" lon="-7.09313167">
        <ele>893.0</ele>
        <time>2022-06-19T10:49:20.020Z</time>
      </trkpt>
      <trkpt lat="43.11010833" lon="-7.09313167">
        <ele>893.0</ele>
        <time>2022-06-19T10:49:21.026Z</time>
      </trkpt>
      <trkpt lat="43.11010833" lon="-7.09316333">
        <ele>894.0</ele>
        <time>2022-06-19T10:49:22.037Z</time>
      </trkpt>
      <trkpt lat="43.11010667" lon="-7.09318167">
        <ele>894.0</ele>
        <time>2022-06-19T10:49:23.038Z</time>
      </trkpt>
      <trkpt lat="43.11010667" lon="-7.09318167">
        <ele>894.0</ele>
        <time>2022-06-19T10:49:24.046Z</time>
      </trkpt>
      <trkpt lat="43.11010333" lon="-7.09321667">
        <ele>895.0</ele>
        <time>2022-06-19T10:49:25.034Z</time>
      </trkpt>
      <trkpt lat="43.1101" lon="-7.09323667">
        <ele>895.0</ele>
        <time>2022-06-19T10:49:26.034Z</time>
      </trkpt>
      <trkpt lat="43.1101" lon="-7.09323667">
        <ele>895.0</ele>
        <time>2022-06-19T10:49:27.040Z</time>
      </trkpt>
      <trkpt lat="43.11009667" lon="-7.09327333">
        <ele>895.0</ele>
        <time>2022-06-19T10:49:28.041Z</time>
      </trkpt>
      <trkpt lat="43.11009667" lon="-7.09327333">
        <ele>895.0</ele>
        <time>2022-06-19T10:49:29.047Z</time>
      </trkpt>
      <trkpt lat="43.11009167" lon="-7.09331167">
        <ele>896.0</ele>
        <time>2022-06-19T10:49:30.042Z</time>
      </trkpt>
      <trkpt lat="43.11009167" lon="-7.09331167">
        <ele>896.0</ele>
        <time>2022-06-19T10:49:31.019Z</time>
      </trkpt>
      <trkpt lat="43.11008167" lon="-7.09334667">
        <ele>896.0</ele>
        <time>2022-06-19T10:49:32.032Z</time>
      </trkpt>
      <trkpt lat="43.11008167" lon="-7.09334667">
        <ele>896.0</ele>
        <time>2022-06-19T10:49:33.038Z</time>
      </trkpt>
      <trkpt lat="43.110075" lon="-7.093375">
        <ele>897.0</ele>
        <time>2022-06-19T10:49:34.042Z</time>
      </trkpt>
      <trkpt lat="43.110075" lon="-7.093375">
        <ele>897.0</ele>
        <time>2022-06-19T10:49:35.054Z</time>
      </trkpt>
      <trkpt lat="43.11007" lon="-7.09341">
        <ele>897.0</ele>
        <time>2022-06-19T10:49:36.042Z</time>
      </trkpt>
      <trkpt lat="43.11006833" lon="-7.09342667">
        <ele>897.0</ele>
        <time>2022-06-19T10:49:37.055Z</time>
      </trkpt>
      <trkpt lat="43.11006833" lon="-7.09342667">
        <ele>897.0</ele>
        <time>2022-06-19T10:49:38.021Z</time>
      </trkpt>
      <trkpt lat="43.11006333" lon="-7.09346167">
        <ele>898.0</ele>
        <time>2022-06-19T10:49:39.055Z</time>
      </trkpt>
      <trkpt lat="43.11006333" lon="-7.09346167">
        <ele>898.0</ele>
        <time>2022-06-19T10:49:40.021Z</time>
      </trkpt>
      <trkpt lat="43.110055" lon="-7.093495">
        <ele>898.0</ele>
        <time>2022-06-19T10:49:41.054Z</time>
      </trkpt>
      <trkpt lat="43.110055" lon="-7.093495">
        <ele>898.0</ele>
        <time>2022-06-19T10:49:42.019Z</time>
      </trkpt>
      <trkpt lat="43.11004333" lon="-7.09351833">
        <ele>899.0</ele>
        <time>2022-06-19T10:49:43.019Z</time>
      </trkpt>
      <trkpt lat="43.11004333" lon="-7.09353333">
        <ele>899.0</ele>
        <time>2022-06-19T10:49:44.034Z</time>
      </trkpt>
      <trkpt lat="43.11004333" lon="-7.09353333">
        <ele>899.0</ele>
        <time>2022-06-19T10:49:45.040Z</time>
      </trkpt>
      <trkpt lat="43.11003667" lon="-7.09356667">
        <ele>899.0</ele>
        <time>2022-06-19T10:49:46.054Z</time>
      </trkpt>
      <trkpt lat="43.11003667" lon="-7.09356667">
        <ele>899.0</ele>
        <time>2022-06-19T10:49:47.020Z</time>
      </trkpt>
      <trkpt lat="43.11003" lon="-7.09359833">
        <ele>900.0</ele>
        <time>2022-06-19T10:49:48.021Z</time>
      </trkpt>
      <trkpt lat="43.11003" lon="-7.09359833">
        <ele>900.0</ele>
        <time>2022-06-19T10:49:49.027Z</time>
      </trkpt>
      <trkpt lat="43.11001167" lon="-7.09363167">
        <ele>901.0</ele>
        <time>2022-06-19T10:49:50.028Z</time>
      </trkpt>
      <trkpt lat="43.11001167" lon="-7.09363167">
        <ele>901.0</ele>
        <time>2022-06-19T10:49:51.033Z</time>
      </trkpt>
      <trkpt lat="43.10999667" lon="-7.09367167">
        <ele>902.0</ele>
        <time>2022-06-19T10:49:52.041Z</time>
      </trkpt>
      <trkpt lat="43.10999" lon="-7.09369167">
        <ele>902.0</ele>
        <time>2022-06-19T10:49:53.021Z</time>
      </trkpt>
      <trkpt lat="43.10999" lon="-7.09369167">
        <ele>902.0</ele>
        <time>2022-06-19T10:49:54.027Z</time>
      </trkpt>
      <trkpt lat="43.10997" lon="-7.093745">
        <ele>903.0</ele>
        <time>2022-06-19T10:49:55.051Z</time>
      </trkpt>
      <trkpt lat="43.10997" lon="-7.093745">
        <ele>903.0</ele>
        <time>2022-06-19T10:49:56.018Z</time>
      </trkpt>
      <trkpt lat="43.10994667" lon="-7.093805">
        <ele>903.0</ele>
        <time>2022-06-19T10:49:57.037Z</time>
      </trkpt>
      <trkpt lat="43.10993333" lon="-7.09384167">
        <ele>903.0</ele>
        <time>2022-06-19T10:49:58.022Z</time>
      </trkpt>
      <trkpt lat="43.10993333" lon="-7.09384167">
        <ele>903.0</ele>
        <time>2022-06-19T10:49:59.029Z</time>
      </trkpt>
      <trkpt lat="43.10991333" lon="-7.09391667">
        <ele>904.0</ele>
        <time>2022-06-19T10:50:00.049Z</time>
      </trkpt>
      <trkpt lat="43.10991333" lon="-7.09391667">
        <ele>904.0</ele>
        <time>2022-06-19T10:50:01.017Z</time>
      </trkpt>
      <trkpt lat="43.10989333" lon="-7.09398">
        <ele>904.0</ele>
        <time>2022-06-19T10:50:02.021Z</time>
      </trkpt>
      <trkpt lat="43.10989333" lon="-7.09398">
        <ele>904.0</ele>
        <time>2022-06-19T10:50:03.026Z</time>
      </trkpt>
      <trkpt lat="43.109875" lon="-7.09404833">
        <ele>904.0</ele>
        <time>2022-06-19T10:50:04.055Z</time>
      </trkpt>
      <trkpt lat="43.109875" lon="-7.09404833">
        <ele>904.0</ele>
        <time>2022-06-19T10:50:05.025Z</time>
      </trkpt>
      <trkpt lat="43.10984167" lon="-7.094115">
        <ele>904.0</ele>
        <time>2022-06-19T10:50:06.017Z</time>
      </trkpt>
      <trkpt lat="43.10984167" lon="-7.094115">
        <ele>904.0</ele>
        <time>2022-06-19T10:50:07.023Z</time>
      </trkpt>
      <trkpt lat="43.109815" lon="-7.09417667">
        <ele>904.0</ele>
        <time>2022-06-19T10:50:08.053Z</time>
      </trkpt>
      <trkpt lat="43.109815" lon="-7.09417667">
        <ele>904.0</ele>
        <time>2022-06-19T10:50:09.020Z</time>
      </trkpt>
      <trkpt lat="43.10978833" lon="-7.094245">
        <ele>905.0</ele>
        <time>2022-06-19T10:50:10.020Z</time>
      </trkpt>
      <trkpt lat="43.10978833" lon="-7.094245">
        <ele>905.0</ele>
        <time>2022-06-19T10:50:11.027Z</time>
      </trkpt>
      <trkpt lat="43.10976667" lon="-7.09432667">
        <ele>905.0</ele>
        <time>2022-06-19T10:50:12.025Z</time>
      </trkpt>
      <trkpt lat="43.10976667" lon="-7.09432667">
        <ele>905.0</ele>
        <time>2022-06-19T10:50:13.031Z</time>
      </trkpt>
      <trkpt lat="43.10974333" lon="-7.09440667">
        <ele>906.0</ele>
        <time>2022-06-19T10:50:14.027Z</time>
      </trkpt>
      <trkpt lat="43.10974333" lon="-7.09440667">
        <ele>906.0</ele>
        <time>2022-06-19T10:50:15.033Z</time>
      </trkpt>
      <trkpt lat="43.10971833" lon="-7.094485">
        <ele>905.0</ele>
        <time>2022-06-19T10:50:16.042Z</time>
      </trkpt>
      <trkpt lat="43.10971833" lon="-7.094485">
        <ele>905.0</ele>
        <time>2022-06-19T10:50:17.051Z</time>
      </trkpt>
      <trkpt lat="43.109695" lon="-7.094555">
        <ele>905.0</ele>
        <time>2022-06-19T10:50:18.049Z</time>
      </trkpt>
      <trkpt lat="43.10968167" lon="-7.09458833">
        <ele>905.0</ele>
        <time>2022-06-19T10:50:19.020Z</time>
      </trkpt>
      <trkpt lat="43.10968167" lon="-7.09458833">
        <ele>905.0</ele>
        <time>2022-06-19T10:50:20.025Z</time>
      </trkpt>
      <trkpt lat="43.10966167" lon="-7.09464833">
        <ele>905.0</ele>
        <time>2022-06-19T10:50:21.021Z</time>
      </trkpt>
      <trkpt lat="43.10965667" lon="-7.09467833">
        <ele>904.0</ele>
        <time>2022-06-19T10:50:22.051Z</time>
      </trkpt>
      <trkpt lat="43.10965667" lon="-7.09467833">
        <ele>904.0</ele>
        <time>2022-06-19T10:50:23.017Z</time>
      </trkpt>
      <trkpt lat="43.10964" lon="-7.094745">
        <ele>905.0</ele>
        <time>2022-06-19T10:50:24.049Z</time>
      </trkpt>
      <trkpt lat="43.10964" lon="-7.094745">
        <ele>905.0</ele>
        <time>2022-06-19T10:50:25.022Z</time>
      </trkpt>
      <trkpt lat="43.10962167" lon="-7.094815">
        <ele>905.0</ele>
        <time>2022-06-19T10:50:26.040Z</time>
      </trkpt>
      <trkpt lat="43.10962167" lon="-7.094815">
        <ele>905.0</ele>
        <time>2022-06-19T10:50:27.019Z</time>
      </trkpt>
      <trkpt lat="43.10960833" lon="-7.09488167">
        <ele>905.0</ele>
        <time>2022-06-19T10:50:28.023Z</time>
      </trkpt>
      <trkpt lat="43.10960833" lon="-7.09488167">
        <ele>905.0</ele>
        <time>2022-06-19T10:50:29.029Z</time>
      </trkpt>
      <trkpt lat="43.1096" lon="-7.09494">
        <ele>905.0</ele>
        <time>2022-06-19T10:50:30.018Z</time>
      </trkpt>
      <trkpt lat="43.10959833" lon="-7.09496667">
        <ele>906.0</ele>
        <time>2022-06-19T10:50:31.049Z</time>
      </trkpt>
      <trkpt lat="43.10959833" lon="-7.09496667">
        <ele>906.0</ele>
        <time>2022-06-19T10:50:32.018Z</time>
      </trkpt>
      <trkpt lat="43.10959667" lon="-7.09502">
        <ele>906.0</ele>
        <time>2022-06-19T10:50:33.042Z</time>
      </trkpt>
      <trkpt lat="43.10959667" lon="-7.09502">
        <ele>906.0</ele>
        <time>2022-06-19T10:50:34.056Z</time>
      </trkpt>
      <trkpt lat="43.10959667" lon="-7.09507167">
        <ele>906.0</ele>
        <time>2022-06-19T10:50:35.055Z</time>
      </trkpt>
      <trkpt lat="43.109595" lon="-7.09509667">
        <ele>906.0</ele>
        <time>2022-06-19T10:50:36.026Z</time>
      </trkpt>
      <trkpt lat="43.109595" lon="-7.09509667">
        <ele>906.0</ele>
        <time>2022-06-19T10:50:37.032Z</time>
      </trkpt>
      <trkpt lat="43.1096" lon="-7.09514667">
        <ele>906.0</ele>
        <time>2022-06-19T10:50:38.016Z</time>
      </trkpt>
      <trkpt lat="43.1096" lon="-7.09514667">
        <ele>906.0</ele>
        <time>2022-06-19T10:50:39.022Z</time>
      </trkpt>
      <trkpt lat="43.109605" lon="-7.0952">
        <ele>906.0</ele>
        <time>2022-06-19T10:50:40.053Z</time>
      </trkpt>
      <trkpt lat="43.109605" lon="-7.0952">
        <ele>906.0</ele>
        <time>2022-06-19T10:50:41.018Z</time>
      </trkpt>
      <trkpt lat="43.10960667" lon="-7.09525">
        <ele>906.0</ele>
        <time>2022-06-19T10:50:42.018Z</time>
      </trkpt>
      <trkpt lat="43.10960333" lon="-7.09527167">
        <ele>906.0</ele>
        <time>2022-06-19T10:50:43.053Z</time>
      </trkpt>
      <trkpt lat="43.10960333" lon="-7.09527167">
        <ele>906.0</ele>
        <time>2022-06-19T10:50:44.021Z</time>
      </trkpt>
      <trkpt lat="43.10959833" lon="-7.095325">
        <ele>906.0</ele>
        <time>2022-06-19T10:50:45.020Z</time>
      </trkpt>
      <trkpt lat="43.10959833" lon="-7.095325">
        <ele>906.0</ele>
        <time>2022-06-19T10:50:46.026Z</time>
      </trkpt>
      <trkpt lat="43.10960333" lon="-7.095375">
        <ele>906.0</ele>
        <time>2022-06-19T10:50:47.024Z</time>
      </trkpt>
      <trkpt lat="43.109605" lon="-7.09540167">
        <ele>907.0</ele>
        <time>2022-06-19T10:50:48.022Z</time>
      </trkpt>
      <trkpt lat="43.109605" lon="-7.09540167">
        <ele>907.0</ele>
        <time>2022-06-19T10:50:49.028Z</time>
      </trkpt>
      <trkpt lat="43.10961" lon="-7.09545333">
        <ele>907.0</ele>
        <time>2022-06-19T10:50:50.016Z</time>
      </trkpt>
      <trkpt lat="43.10961" lon="-7.09545333">
        <ele>907.0</ele>
        <time>2022-06-19T10:50:51.021Z</time>
      </trkpt>
      <trkpt lat="43.10961667" lon="-7.09550167">
        <ele>907.0</ele>
        <time>2022-06-19T10:50:52.022Z</time>
      </trkpt>
      <trkpt lat="43.10961667" lon="-7.09550167">
        <ele>907.0</ele>
        <time>2022-06-19T10:50:53.028Z</time>
      </trkpt>
      <trkpt lat="43.10962333" lon="-7.09555">
        <ele>907.0</ele>
        <time>2022-06-19T10:50:54.016Z</time>
      </trkpt>
      <trkpt lat="43.109625" lon="-7.09557333">
        <ele>907.0</ele>
        <time>2022-06-19T10:50:55.053Z</time>
      </trkpt>
      <trkpt lat="43.109625" lon="-7.09557333">
        <ele>907.0</ele>
        <time>2022-06-19T10:50:56.022Z</time>
      </trkpt>
      <trkpt lat="43.10962167" lon="-7.095625">
        <ele>907.0</ele>
        <time>2022-06-19T10:50:57.016Z</time>
      </trkpt>
      <trkpt lat="43.10962167" lon="-7.095625">
        <ele>907.0</ele>
        <time>2022-06-19T10:50:58.021Z</time>
      </trkpt>
      <trkpt lat="43.10961667" lon="-7.09567667">
        <ele>907.0</ele>
        <time>2022-06-19T10:50:59.023Z</time>
      </trkpt>
      <trkpt lat="43.10961667" lon="-7.09567667">
        <ele>907.0</ele>
        <time>2022-06-19T10:51:00.029Z</time>
      </trkpt>
      <trkpt lat="43.10961" lon="-7.09573">
        <ele>906.0</ele>
        <time>2022-06-19T10:51:01.016Z</time>
      </trkpt>
      <trkpt lat="43.10960667" lon="-7.095755">
        <ele>906.0</ele>
        <time>2022-06-19T10:51:02.055Z</time>
      </trkpt>
      <trkpt lat="43.10960667" lon="-7.095755">
        <ele>906.0</ele>
        <time>2022-06-19T10:51:03.046Z</time>
      </trkpt>
      <trkpt lat="43.10960167" lon="-7.09581">
        <ele>906.0</ele>
        <time>2022-06-19T10:51:04.054Z</time>
      </trkpt>
      <trkpt lat="43.1096" lon="-7.09583667">
        <ele>906.0</ele>
        <time>2022-06-19T10:51:05.051Z</time>
      </trkpt>
      <trkpt lat="43.1096" lon="-7.09583667">
        <ele>906.0</ele>
        <time>2022-06-19T10:51:06.025Z</time>
      </trkpt>
      <trkpt lat="43.10959333" lon="-7.09589667">
        <ele>906.0</ele>
        <time>2022-06-19T10:51:07.038Z</time>
      </trkpt>
      <trkpt lat="43.10959333" lon="-7.09589667">
        <ele>906.0</ele>
        <time>2022-06-19T10:51:08.045Z</time>
      </trkpt>
      <trkpt lat="43.109585" lon="-7.09596833">
        <ele>906.0</ele>
        <time>2022-06-19T10:51:09.039Z</time>
      </trkpt>
      <trkpt lat="43.109585" lon="-7.09596833">
        <ele>906.0</ele>
        <time>2022-06-19T10:51:10.045Z</time>
      </trkpt>
      <trkpt lat="43.10957333" lon="-7.09605667">
        <ele>905.0</ele>
        <time>2022-06-19T10:51:11.055Z</time>
      </trkpt>
      <trkpt lat="43.10957333" lon="-7.09605667">
        <ele>905.0</ele>
        <time>2022-06-19T10:51:12.021Z</time>
      </trkpt>
      <trkpt lat="43.10956333" lon="-7.09615833">
        <ele>905.0</ele>
        <time>2022-06-19T10:51:13.019Z</time>
      </trkpt>
      <trkpt lat="43.10955667" lon="-7.09621333">
        <ele>904.0</ele>
        <time>2022-06-19T10:51:14.043Z</time>
      </trkpt>
      <trkpt lat="43.10955667" lon="-7.09621333">
        <ele>904.0</ele>
        <time>2022-06-19T10:51:15.055Z</time>
      </trkpt>
      <trkpt lat="43.10953833" lon="-7.09633167">
        <ele>904.0</ele>
        <time>2022-06-19T10:51:16.043Z</time>
      </trkpt>
      <trkpt lat="43.109525" lon="-7.09639833">
        <ele>904.0</ele>
        <time>2022-06-19T10:51:17.019Z</time>
      </trkpt>
      <trkpt lat="43.109525" lon="-7.09639833">
        <ele>904.0</ele>
        <time>2022-06-19T10:51:18.025Z</time>
      </trkpt>
      <trkpt lat="43.10947833" lon="-7.09652167">
        <ele>903.0</ele>
        <time>2022-06-19T10:51:19.030Z</time>
      </trkpt>
      <trkpt lat="43.10945333" lon="-7.096575">
        <ele>903.0</ele>
        <time>2022-06-19T10:51:20.036Z</time>
      </trkpt>
      <trkpt lat="43.10945333" lon="-7.096575">
        <ele>903.0</ele>
        <time>2022-06-19T10:51:21.042Z</time>
      </trkpt>
      <trkpt lat="43.10940667" lon="-7.09669">
        <ele>901.0</ele>
        <time>2022-06-19T10:51:22.018Z</time>
      </trkpt>
      <trkpt lat="43.10940667" lon="-7.09669">
        <ele>901.0</ele>
        <time>2022-06-19T10:51:23.023Z</time>
      </trkpt>
      <trkpt lat="43.10936833" lon="-7.09681667">
        <ele>900.0</ele>
        <time>2022-06-19T10:51:24.039Z</time>
      </trkpt>
      <trkpt lat="43.10936833" lon="-7.09681667">
        <ele>900.0</ele>
        <time>2022-06-19T10:51:25.018Z</time>
      </trkpt>
      <trkpt lat="43.10932667" lon="-7.09694">
        <ele>899.0</ele>
        <time>2022-06-19T10:51:26.054Z</time>
      </trkpt>
      <trkpt lat="43.10932667" lon="-7.09694">
        <ele>899.0</ele>
        <time>2022-06-19T10:51:27.021Z</time>
      </trkpt>
      <trkpt lat="43.10928833" lon="-7.09705667">
        <ele>897.0</ele>
        <time>2022-06-19T10:51:28.032Z</time>
      </trkpt>
      <trkpt lat="43.10928833" lon="-7.09705667">
        <ele>897.0</ele>
        <time>2022-06-19T10:51:29.037Z</time>
      </trkpt>
      <trkpt lat="43.109255" lon="-7.097175">
        <ele>896.0</ele>
        <time>2022-06-19T10:51:30.023Z</time>
      </trkpt>
      <trkpt lat="43.109255" lon="-7.097175">
        <ele>896.0</ele>
        <time>2022-06-19T10:51:31.028Z</time>
      </trkpt>
      <trkpt lat="43.10922167" lon="-7.09729167">
        <ele>894.0</ele>
        <time>2022-06-19T10:51:32.056Z</time>
      </trkpt>
      <trkpt lat="43.10922167" lon="-7.09729167">
        <ele>894.0</ele>
        <time>2022-06-19T10:51:33.021Z</time>
      </trkpt>
      <trkpt lat="43.10918833" lon="-7.09741167">
        <ele>892.0</ele>
        <time>2022-06-19T10:51:34.022Z</time>
      </trkpt>
      <trkpt lat="43.10918833" lon="-7.09741167">
        <ele>892.0</ele>
        <time>2022-06-19T10:51:35.027Z</time>
      </trkpt>
      <trkpt lat="43.10916667" lon="-7.09752">
        <ele>890.0</ele>
        <time>2022-06-19T10:51:36.024Z</time>
      </trkpt>
      <trkpt lat="43.10916667" lon="-7.09752">
        <ele>890.0</ele>
        <time>2022-06-19T10:51:37.030Z</time>
      </trkpt>
      <trkpt lat="43.10914833" lon="-7.09760667">
        <ele>889.0</ele>
        <time>2022-06-19T10:51:38.020Z</time>
      </trkpt>
      <trkpt lat="43.10913667" lon="-7.09765">
        <ele>888.0</ele>
        <time>2022-06-19T10:51:39.028Z</time>
      </trkpt>
      <trkpt lat="43.10913667" lon="-7.09765">
        <ele>888.0</ele>
        <time>2022-06-19T10:51:40.033Z</time>
      </trkpt>
      <trkpt lat="43.10911167" lon="-7.09775333">
        <ele>885.0</ele>
        <time>2022-06-19T10:51:41.028Z</time>
      </trkpt>
      <trkpt lat="43.10911167" lon="-7.09775333">
        <ele>885.0</ele>
        <time>2022-06-19T10:51:42.034Z</time>
      </trkpt>
      <trkpt lat="43.10909" lon="-7.09785833">
        <ele>883.0</ele>
        <time>2022-06-19T10:51:43.031Z</time>
      </trkpt>
      <trkpt lat="43.10909" lon="-7.09785833">
        <ele>883.0</ele>
        <time>2022-06-19T10:51:44.056Z</time>
      </trkpt>
      <trkpt lat="43.10907833" lon="-7.09796167">
        <ele>881.0</ele>
        <time>2022-06-19T10:51:45.024Z</time>
      </trkpt>
      <trkpt lat="43.10907667" lon="-7.098015">
        <ele>880.0</ele>
        <time>2022-06-19T10:51:46.016Z</time>
      </trkpt>
      <trkpt lat="43.10907667" lon="-7.098015">
        <ele>880.0</ele>
        <time>2022-06-19T10:51:47.023Z</time>
      </trkpt>
      <trkpt lat="43.10909167" lon="-7.09812">
        <ele>878.0</ele>
        <time>2022-06-19T10:51:48.028Z</time>
      </trkpt>
      <trkpt lat="43.10909167" lon="-7.09812">
        <ele>878.0</ele>
        <time>2022-06-19T10:51:49.035Z</time>
      </trkpt>
      <trkpt lat="43.10912167" lon="-7.09819833">
        <ele>876.0</ele>
        <time>2022-06-19T10:51:50.023Z</time>
      </trkpt>
      <trkpt lat="43.10912167" lon="-7.09819833">
        <ele>876.0</ele>
        <time>2022-06-19T10:51:51.029Z</time>
      </trkpt>
      <trkpt lat="43.109165" lon="-7.09825">
        <ele>875.0</ele>
        <time>2022-06-19T10:51:52.041Z</time>
      </trkpt>
      <trkpt lat="43.109165" lon="-7.09825">
        <ele>875.0</ele>
        <time>2022-06-19T10:51:53.026Z</time>
      </trkpt>
      <trkpt lat="43.10920833" lon="-7.09830833">
        <ele>874.0</ele>
        <time>2022-06-19T10:51:54.026Z</time>
      </trkpt>
      <trkpt lat="43.10920833" lon="-7.09830833">
        <ele>874.0</ele>
        <time>2022-06-19T10:51:55.039Z</time>
      </trkpt>
      <trkpt lat="43.10923833" lon="-7.098375">
        <ele>873.0</ele>
        <time>2022-06-19T10:51:56.046Z</time>
      </trkpt>
      <trkpt lat="43.10923833" lon="-7.098375">
        <ele>873.0</ele>
        <time>2022-06-19T10:51:57.027Z</time>
      </trkpt>
      <trkpt lat="43.10927167" lon="-7.09843167">
        <ele>871.0</ele>
        <time>2022-06-19T10:51:58.031Z</time>
      </trkpt>
      <trkpt lat="43.10927167" lon="-7.09843167">
        <ele>871.0</ele>
        <time>2022-06-19T10:51:59.042Z</time>
      </trkpt>
      <trkpt lat="43.109305" lon="-7.09847167">
        <ele>870.0</ele>
        <time>2022-06-19T10:52:00.018Z</time>
      </trkpt>
      <trkpt lat="43.109305" lon="-7.09847167">
        <ele>870.0</ele>
        <time>2022-06-19T10:52:01.031Z</time>
      </trkpt>
      <trkpt lat="43.10931667" lon="-7.098485">
        <ele>869.0</ele>
        <time>2022-06-19T10:52:02.038Z</time>
      </trkpt>
      <trkpt lat="43.10931667" lon="-7.098485">
        <ele>869.0</ele>
        <time>2022-06-19T10:52:03.043Z</time>
      </trkpt>
      <trkpt lat="43.10932667" lon="-7.09856833">
        <ele>870.0</ele>
        <time>2022-06-19T10:52:31.066Z</time>
      </trkpt>
      <trkpt lat="43.10932667" lon="-7.09856833">
        <ele>870.0</ele>
        <time>2022-06-19T10:52:32.043Z</time>
      </trkpt>
      <trkpt lat="43.10932667" lon="-7.09856833">
        <ele>870.0</ele>
        <time>2022-06-19T10:52:33.023Z</time>
      </trkpt>
      <trkpt lat="43.10934833" lon="-7.098665">
        <ele>870.0</ele>
        <time>2022-06-19T10:52:34.032Z</time>
      </trkpt>
      <trkpt lat="43.10934833" lon="-7.098665">
        <ele>870.0</ele>
        <time>2022-06-19T10:52:35.041Z</time>
      </trkpt>
      <trkpt lat="43.10937167" lon="-7.09874667">
        <ele>869.0</ele>
        <time>2022-06-19T10:52:36.043Z</time>
      </trkpt>
      <trkpt lat="43.10939" lon="-7.09878833">
        <ele>869.0</ele>
        <time>2022-06-19T10:52:37.044Z</time>
      </trkpt>
      <trkpt lat="43.10940833" lon="-7.09882833">
        <ele>869.0</ele>
        <time>2022-06-19T10:52:38.059Z</time>
      </trkpt>
      <trkpt lat="43.10940833" lon="-7.09882833">
        <ele>869.0</ele>
        <time>2022-06-19T10:52:39.032Z</time>
      </trkpt>
      <trkpt lat="43.10944667" lon="-7.09890333">
        <ele>868.0</ele>
        <time>2022-06-19T10:52:40.023Z</time>
      </trkpt>
      <trkpt lat="43.10944667" lon="-7.09890333">
        <ele>868.0</ele>
        <time>2022-06-19T10:52:41.033Z</time>
      </trkpt>
      <trkpt lat="43.109465" lon="-7.09893">
        <ele>868.0</ele>
        <time>2022-06-19T10:52:42.052Z</time>
      </trkpt>
      <trkpt lat="43.109465" lon="-7.09893">
        <ele>868.0</ele>
        <time>2022-06-19T10:52:43.025Z</time>
      </trkpt>
      <trkpt lat="43.10946167" lon="-7.09896833">
        <ele>868.0</ele>
        <time>2022-06-19T10:52:44.056Z</time>
      </trkpt>
      <trkpt lat="43.10946167" lon="-7.09896833">
        <ele>868.0</ele>
        <time>2022-06-19T10:52:45.025Z</time>
      </trkpt>
      <trkpt lat="43.10947333" lon="-7.09901">
        <ele>867.0</ele>
        <time>2022-06-19T10:52:46.052Z</time>
      </trkpt>
      <trkpt lat="43.10947333" lon="-7.09901">
        <ele>867.0</ele>
        <time>2022-06-19T10:52:47.024Z</time>
      </trkpt>
      <trkpt lat="43.10953" lon="-7.09908333">
        <ele>867.0</ele>
        <time>2022-06-19T10:52:48.053Z</time>
      </trkpt>
      <trkpt lat="43.10953" lon="-7.09908333">
        <ele>867.0</ele>
        <time>2022-06-19T10:52:49.024Z</time>
      </trkpt>
      <trkpt lat="43.10959167" lon="-7.09916167">
        <ele>867.0</ele>
        <time>2022-06-19T10:52:50.054Z</time>
      </trkpt>
      <trkpt lat="43.10959167" lon="-7.09916167">
        <ele>867.0</ele>
        <time>2022-06-19T10:52:51.026Z</time>
      </trkpt>
      <trkpt lat="43.10963833" lon="-7.09925333">
        <ele>867.0</ele>
        <time>2022-06-19T10:52:52.057Z</time>
      </trkpt>
      <trkpt lat="43.10963833" lon="-7.09925333">
        <ele>867.0</ele>
        <time>2022-06-19T10:52:53.025Z</time>
      </trkpt>
      <trkpt lat="43.10967833" lon="-7.09936167">
        <ele>866.0</ele>
        <time>2022-06-19T10:52:54.038Z</time>
      </trkpt>
      <trkpt lat="43.10971167" lon="-7.09945167">
        <ele>866.0</ele>
        <time>2022-06-19T10:52:55.054Z</time>
      </trkpt>
      <trkpt lat="43.10971167" lon="-7.09945167">
        <ele>866.0</ele>
        <time>2022-06-19T10:52:56.030Z</time>
      </trkpt>
      <trkpt lat="43.10971167" lon="-7.09945167">
        <ele>866.0</ele>
        <time>2022-06-19T10:52:57.040Z</time>
      </trkpt>
      <trkpt lat="43.10973333" lon="-7.09955">
        <ele>866.0</ele>
        <time>2022-06-19T10:52:58.060Z</time>
      </trkpt>
      <trkpt lat="43.10974167" lon="-7.09966">
        <ele>867.0</ele>
        <time>2022-06-19T10:52:59.066Z</time>
      </trkpt>
      <trkpt lat="43.10974167" lon="-7.09966">
        <ele>867.0</ele>
        <time>2022-06-19T10:53:00.022Z</time>
      </trkpt>
      <trkpt lat="43.10974167" lon="-7.09966">
        <ele>867.0</ele>
        <time>2022-06-19T10:53:01.033Z</time>
      </trkpt>
      <trkpt lat="43.10975833" lon="-7.099775">
        <ele>867.0</ele>
        <time>2022-06-19T10:53:02.024Z</time>
      </trkpt>
      <trkpt lat="43.10975833" lon="-7.099775">
        <ele>867.0</ele>
        <time>2022-06-19T10:53:03.032Z</time>
      </trkpt>
      <trkpt lat="43.10978" lon="-7.09988167">
        <ele>867.0</ele>
        <time>2022-06-19T10:53:04.031Z</time>
      </trkpt>
      <trkpt lat="43.10978" lon="-7.09988167">
        <ele>867.0</ele>
        <time>2022-06-19T10:53:05.038Z</time>
      </trkpt>
      <trkpt lat="43.10978667" lon="-7.099985">
        <ele>867.0</ele>
        <time>2022-06-19T10:53:06.041Z</time>
      </trkpt>
      <trkpt lat="43.10978667" lon="-7.099985">
        <ele>867.0</ele>
        <time>2022-06-19T10:53:07.022Z</time>
      </trkpt>
      <trkpt lat="43.10977833" lon="-7.10012">
        <ele>868.0</ele>
        <time>2022-06-19T10:53:08.020Z</time>
      </trkpt>
      <trkpt lat="43.10977833" lon="-7.10012">
        <ele>868.0</ele>
        <time>2022-06-19T10:53:09.028Z</time>
      </trkpt>
      <trkpt lat="43.10976667" lon="-7.100225">
        <ele>868.0</ele>
        <time>2022-06-19T10:53:10.025Z</time>
      </trkpt>
      <trkpt lat="43.10976667" lon="-7.100225">
        <ele>868.0</ele>
        <time>2022-06-19T10:53:11.034Z</time>
      </trkpt>
      <trkpt lat="43.10975167" lon="-7.10031333">
        <ele>869.0</ele>
        <time>2022-06-19T10:53:12.025Z</time>
      </trkpt>
      <trkpt lat="43.10975167" lon="-7.10031333">
        <ele>869.0</ele>
        <time>2022-06-19T10:53:13.032Z</time>
      </trkpt>
      <trkpt lat="43.10973167" lon="-7.10041">
        <ele>869.0</ele>
        <time>2022-06-19T10:53:14.022Z</time>
      </trkpt>
      <trkpt lat="43.10973167" lon="-7.10041">
        <ele>869.0</ele>
        <time>2022-06-19T10:53:15.029Z</time>
      </trkpt>
      <trkpt lat="43.10971167" lon="-7.100515">
        <ele>869.0</ele>
        <time>2022-06-19T10:53:16.023Z</time>
      </trkpt>
      <trkpt lat="43.10969833" lon="-7.10056">
        <ele>869.0</ele>
        <time>2022-06-19T10:53:17.055Z</time>
      </trkpt>
      <trkpt lat="43.10969833" lon="-7.10056">
        <ele>869.0</ele>
        <time>2022-06-19T10:53:18.022Z</time>
      </trkpt>
      <trkpt lat="43.10967" lon="-7.100635">
        <ele>869.0</ele>
        <time>2022-06-19T10:53:19.028Z</time>
      </trkpt>
      <trkpt lat="43.10967" lon="-7.100635">
        <ele>869.0</ele>
        <time>2022-06-19T10:53:20.035Z</time>
      </trkpt>
      <trkpt lat="43.10963333" lon="-7.10071167">
        <ele>869.0</ele>
        <time>2022-06-19T10:53:21.055Z</time>
      </trkpt>
      <trkpt lat="43.10963333" lon="-7.10071167">
        <ele>869.0</ele>
        <time>2022-06-19T10:53:22.025Z</time>
      </trkpt>
      <trkpt lat="43.10958667" lon="-7.10079167">
        <ele>870.0</ele>
        <time>2022-06-19T10:53:23.050Z</time>
      </trkpt>
      <trkpt lat="43.10958667" lon="-7.10079167">
        <ele>870.0</ele>
        <time>2022-06-19T10:53:24.057Z</time>
      </trkpt>
      <trkpt lat="43.10952833" lon="-7.10084667">
        <ele>870.0</ele>
        <time>2022-06-19T10:53:25.049Z</time>
      </trkpt>
      <trkpt lat="43.10950167" lon="-7.10086333">
        <ele>870.0</ele>
        <time>2022-06-19T10:53:26.034Z</time>
      </trkpt>
      <trkpt lat="43.10950167" lon="-7.10086333">
        <ele>870.0</ele>
        <time>2022-06-19T10:53:27.047Z</time>
      </trkpt>
      <trkpt lat="43.10945833" lon="-7.10089167">
        <ele>871.0</ele>
        <time>2022-06-19T10:53:28.043Z</time>
      </trkpt>
      <trkpt lat="43.10945833" lon="-7.10089167">
        <ele>871.0</ele>
        <time>2022-06-19T10:53:29.036Z</time>
      </trkpt>
      <trkpt lat="43.10942167" lon="-7.100915">
        <ele>871.0</ele>
        <time>2022-06-19T10:53:30.045Z</time>
      </trkpt>
      <trkpt lat="43.10942167" lon="-7.100915">
        <ele>871.0</ele>
        <time>2022-06-19T10:53:31.020Z</time>
      </trkpt>
      <trkpt lat="43.10939667" lon="-7.10093667">
        <ele>871.0</ele>
        <time>2022-06-19T10:53:32.044Z</time>
      </trkpt>
      <trkpt lat="43.10939667" lon="-7.10093667">
        <ele>871.0</ele>
        <time>2022-06-19T10:53:33.039Z</time>
      </trkpt>
      <trkpt lat="43.109365" lon="-7.100965">
        <ele>871.0</ele>
        <time>2022-06-19T10:53:34.025Z</time>
      </trkpt>
      <trkpt lat="43.109365" lon="-7.100965">
        <ele>871.0</ele>
        <time>2022-06-19T10:53:35.032Z</time>
      </trkpt>
      <trkpt lat="43.10934" lon="-7.10097167">
        <ele>872.0</ele>
        <time>2022-06-19T10:53:36.056Z</time>
      </trkpt>
      <trkpt lat="43.10934" lon="-7.10097167">
        <ele>872.0</ele>
        <time>2022-06-19T10:53:37.022Z</time>
      </trkpt>
      <trkpt lat="43.10933167" lon="-7.10100333">
        <ele>873.0</ele>
        <time>2022-06-19T10:53:38.021Z</time>
      </trkpt>
      <trkpt lat="43.10933167" lon="-7.10100333">
        <ele>873.0</ele>
        <time>2022-06-19T10:53:39.028Z</time>
      </trkpt>
      <trkpt lat="43.10931167" lon="-7.10102667">
        <ele>873.0</ele>
        <time>2022-06-19T10:53:40.021Z</time>
      </trkpt>
      <trkpt lat="43.10929833" lon="-7.10103833">
        <ele>873.0</ele>
        <time>2022-06-19T10:53:41.052Z</time>
      </trkpt>
      <trkpt lat="43.10929833" lon="-7.10103833">
        <ele>873.0</ele>
        <time>2022-06-19T10:53:42.058Z</time>
      </trkpt>
      <trkpt lat="43.109275" lon="-7.101055">
        <ele>874.0</ele>
        <time>2022-06-19T10:53:43.058Z</time>
      </trkpt>
      <trkpt lat="43.109265" lon="-7.10106667">
        <ele>874.0</ele>
        <time>2022-06-19T10:53:44.020Z</time>
      </trkpt>
      <trkpt lat="43.109265" lon="-7.10106667">
        <ele>874.0</ele>
        <time>2022-06-19T10:53:45.028Z</time>
      </trkpt>
      <trkpt lat="43.10924333" lon="-7.101095">
        <ele>875.0</ele>
        <time>2022-06-19T10:53:46.028Z</time>
      </trkpt>
      <trkpt lat="43.10923833" lon="-7.10111333">
        <ele>875.0</ele>
        <time>2022-06-19T10:53:47.057Z</time>
      </trkpt>
      <trkpt lat="43.10923833" lon="-7.10111333">
        <ele>875.0</ele>
        <time>2022-06-19T10:53:48.023Z</time>
      </trkpt>
      <trkpt lat="43.10923333" lon="-7.10114667">
        <ele>876.0</ele>
        <time>2022-06-19T10:53:49.055Z</time>
      </trkpt>
      <trkpt lat="43.10923667" lon="-7.10115833">
        <ele>876.0</ele>
        <time>2022-06-19T10:53:50.030Z</time>
      </trkpt>
      <trkpt lat="43.10923667" lon="-7.10115833">
        <ele>876.0</ele>
        <time>2022-06-19T10:53:51.038Z</time>
      </trkpt>
      <trkpt lat="43.10924" lon="-7.10117167">
        <ele>876.0</ele>
        <time>2022-06-19T10:54:05.998Z</time>
      </trkpt>
      <trkpt lat="43.10923667" lon="-7.10117167">
        <ele>876.0</ele>
        <time>2022-06-19T10:54:07.004Z</time>
      </trkpt>
      <trkpt lat="43.10923667" lon="-7.10117167">
        <ele>876.0</ele>
        <time>2022-06-19T10:54:08.012Z</time>
      </trkpt>
      <trkpt lat="43.10923667" lon="-7.10117167">
        <ele>876.0</ele>
        <time>2022-06-19T10:54:09.021Z</time>
      </trkpt>
      <trkpt lat="43.10923667" lon="-7.10117167">
        <ele>876.0</ele>
        <time>2022-06-19T10:54:09.988Z</time>
      </trkpt>
      <trkpt lat="43.10923667" lon="-7.10117167">
        <ele>876.0</ele>
        <time>2022-06-19T10:54:10.994Z</time>
      </trkpt>
      <trkpt lat="43.10923667" lon="-7.10117167">
        <ele>876.0</ele>
        <time>2022-06-19T10:54:12.023Z</time>
      </trkpt>
      <trkpt lat="43.10923667" lon="-7.10117167">
        <ele>876.0</ele>
        <time>2022-06-19T10:54:12.989Z</time>
      </trkpt>
      <trkpt lat="43.10923667" lon="-7.10117167">
        <ele>876.0</ele>
        <time>2022-06-19T10:54:13.995Z</time>
      </trkpt>
      <trkpt lat="43.10923667" lon="-7.10117167">
        <ele>876.0</ele>
        <time>2022-06-19T10:54:15.001Z</time>
      </trkpt>
      <trkpt lat="43.10923667" lon="-7.10117167">
        <ele>876.0</ele>
        <time>2022-06-19T10:54:16.023Z</time>
      </trkpt>
      <trkpt lat="43.10923667" lon="-7.10117167">
        <ele>876.0</ele>
        <time>2022-06-19T10:54:17.021Z</time>
      </trkpt>
      <trkpt lat="43.10923667" lon="-7.10117167">
        <ele>876.0</ele>
        <time>2022-06-19T10:54:18.012Z</time>
      </trkpt>
      <trkpt lat="43.10923667" lon="-7.10117167">
        <ele>876.0</ele>
        <time>2022-06-19T10:54:18.997Z</time>
      </trkpt>
      <trkpt lat="43.10923333" lon="-7.10123">
        <ele>876.0</ele>
        <time>2022-06-19T10:54:19.985Z</time>
      </trkpt>
      <trkpt lat="43.10923333" lon="-7.10123">
        <ele>876.0</ele>
        <time>2022-06-19T10:54:21.014Z</time>
      </trkpt>
      <trkpt lat="43.109265" lon="-7.10126833">
        <ele>876.0</ele>
        <time>2022-06-19T10:54:22.016Z</time>
      </trkpt>
      <trkpt lat="43.109265" lon="-7.10126833">
        <ele>876.0</ele>
        <time>2022-06-19T10:54:23.023Z</time>
      </trkpt>
      <trkpt lat="43.10929833" lon="-7.10131333">
        <ele>876.0</ele>
        <time>2022-06-19T10:54:24.014Z</time>
      </trkpt>
      <trkpt lat="43.10929833" lon="-7.10131333">
        <ele>876.0</ele>
        <time>2022-06-19T10:54:25.020Z</time>
      </trkpt>
      <trkpt lat="43.10932667" lon="-7.10134">
        <ele>876.0</ele>
        <time>2022-06-19T10:54:26.009Z</time>
      </trkpt>
      <trkpt lat="43.10932667" lon="-7.10134">
        <ele>876.0</ele>
        <time>2022-06-19T10:54:27.017Z</time>
      </trkpt>
      <trkpt lat="43.10934333" lon="-7.10134667">
        <ele>876.0</ele>
        <time>2022-06-19T10:54:28.010Z</time>
      </trkpt>
      <trkpt lat="43.10934333" lon="-7.10134667">
        <ele>876.0</ele>
        <time>2022-06-19T10:54:29.017Z</time>
      </trkpt>
      <trkpt lat="43.109355" lon="-7.101355">
        <ele>876.0</ele>
        <time>2022-06-19T10:54:30.018Z</time>
      </trkpt>
      <trkpt lat="43.109355" lon="-7.101355">
        <ele>876.0</ele>
        <time>2022-06-19T10:54:30.984Z</time>
      </trkpt>
      <trkpt lat="43.10937333" lon="-7.10136">
        <ele>876.0</ele>
        <time>2022-06-19T10:54:32.012Z</time>
      </trkpt>
      <trkpt lat="43.10937333" lon="-7.10136">
        <ele>876.0</ele>
        <time>2022-06-19T10:54:33.019Z</time>
      </trkpt>
      <trkpt lat="43.10937833" lon="-7.10136333">
        <ele>877.0</ele>
        <time>2022-06-19T10:54:33.985Z</time>
      </trkpt>
      <trkpt lat="43.10937833" lon="-7.10136333">
        <ele>877.0</ele>
        <time>2022-06-19T10:54:34.991Z</time>
      </trkpt>
      <trkpt lat="43.10938833" lon="-7.10136333">
        <ele>877.0</ele>
        <time>2022-06-19T10:54:35.998Z</time>
      </trkpt>
      <trkpt lat="43.109395" lon="-7.101365">
        <ele>877.0</ele>
        <time>2022-06-19T10:54:37.006Z</time>
      </trkpt>
      <trkpt lat="43.109395" lon="-7.101365">
        <ele>877.0</ele>
        <time>2022-06-19T10:54:38.013Z</time>
      </trkpt>
      <trkpt lat="43.10940333" lon="-7.10136833">
        <ele>877.0</ele>
        <time>2022-06-19T10:54:39.014Z</time>
      </trkpt>
      <trkpt lat="43.10940333" lon="-7.10136833">
        <ele>877.0</ele>
        <time>2022-06-19T10:54:40.020Z</time>
      </trkpt>
      <trkpt lat="43.10941667" lon="-7.10137">
        <ele>877.0</ele>
        <time>2022-06-19T10:54:41.010Z</time>
      </trkpt>
      <trkpt lat="43.10941667" lon="-7.10137">
        <ele>877.0</ele>
        <time>2022-06-19T10:54:42.017Z</time>
      </trkpt>
      <trkpt lat="43.10943833" lon="-7.10138333">
        <ele>878.0</ele>
        <time>2022-06-19T10:54:43.006Z</time>
      </trkpt>
      <trkpt lat="43.10943833" lon="-7.10138333">
        <ele>878.0</ele>
        <time>2022-06-19T10:54:43.989Z</time>
      </trkpt>
      <trkpt lat="43.10943833" lon="-7.10138333">
        <ele>878.0</ele>
        <time>2022-06-19T10:54:44.996Z</time>
      </trkpt>
      <trkpt lat="43.10944667" lon="-7.1014">
        <ele>878.0</ele>
        <time>2022-06-19T10:54:46.008Z</time>
      </trkpt>
      <trkpt lat="43.10944667" lon="-7.1014">
        <ele>878.0</ele>
        <time>2022-06-19T10:54:47.016Z</time>
      </trkpt>
      <trkpt lat="43.10945833" lon="-7.10142333">
        <ele>878.0</ele>
        <time>2022-06-19T10:54:48.017Z</time>
      </trkpt>
      <trkpt lat="43.10945833" lon="-7.10142333">
        <ele>878.0</ele>
        <time>2022-06-19T10:54:48.984Z</time>
      </trkpt>
      <trkpt lat="43.10947" lon="-7.10144333">
        <ele>878.0</ele>
        <time>2022-06-19T10:54:50.017Z</time>
      </trkpt>
      <trkpt lat="43.10947" lon="-7.10144333">
        <ele>878.0</ele>
        <time>2022-06-19T10:54:51.023Z</time>
      </trkpt>
      <trkpt lat="43.10947333" lon="-7.10145833">
        <ele>879.0</ele>
        <time>2022-06-19T10:54:52.019Z</time>
      </trkpt>
      <trkpt lat="43.10947333" lon="-7.10145833">
        <ele>879.0</ele>
        <time>2022-06-19T10:54:52.986Z</time>
      </trkpt>
      <trkpt lat="43.109475" lon="-7.10146833">
        <ele>879.0</ele>
        <time>2022-06-19T10:54:53.986Z</time>
      </trkpt>
      <trkpt lat="43.109475" lon="-7.10146833">
        <ele>879.0</ele>
        <time>2022-06-19T10:54:57.996Z</time>
      </trkpt>
      <trkpt lat="43.109475" lon="-7.10146833">
        <ele>879.0</ele>
        <time>2022-06-19T10:54:59.019Z</time>
      </trkpt>
      <trkpt lat="43.109495" lon="-7.10151">
        <ele>880.0</ele>
        <time>2022-06-19T10:55:00.000Z</time>
      </trkpt>
      <trkpt lat="43.109495" lon="-7.10151">
        <ele>880.0</ele>
        <time>2022-06-19T10:55:01.013Z</time>
      </trkpt>
      <trkpt lat="43.10951" lon="-7.10154833">
        <ele>880.0</ele>
        <time>2022-06-19T10:55:02.002Z</time>
      </trkpt>
      <trkpt lat="43.10951" lon="-7.10154833">
        <ele>880.0</ele>
        <time>2022-06-19T10:55:03.008Z</time>
      </trkpt>
      <trkpt lat="43.10952833" lon="-7.10159167">
        <ele>880.0</ele>
        <time>2022-06-19T10:55:04.008Z</time>
      </trkpt>
      <trkpt lat="43.10954" lon="-7.10160167">
        <ele>880.0</ele>
        <time>2022-06-19T10:55:05.007Z</time>
      </trkpt>
      <trkpt lat="43.10954" lon="-7.10160167">
        <ele>880.0</ele>
        <time>2022-06-19T10:55:06.018Z</time>
      </trkpt>
      <trkpt lat="43.10954833" lon="-7.101625">
        <ele>880.0</ele>
        <time>2022-06-19T10:55:07.013Z</time>
      </trkpt>
      <trkpt lat="43.10955833" lon="-7.101645">
        <ele>880.0</ele>
        <time>2022-06-19T10:55:08.005Z</time>
      </trkpt>
      <trkpt lat="43.10955833" lon="-7.101645">
        <ele>880.0</ele>
        <time>2022-06-19T10:55:09.018Z</time>
      </trkpt>
      <trkpt lat="43.10957" lon="-7.10167333">
        <ele>881.0</ele>
        <time>2022-06-19T10:55:10.012Z</time>
      </trkpt>
      <trkpt lat="43.10957" lon="-7.10167333">
        <ele>881.0</ele>
        <time>2022-06-19T10:55:11.018Z</time>
      </trkpt>
      <trkpt lat="43.10957167" lon="-7.10170167">
        <ele>881.0</ele>
        <time>2022-06-19T10:55:11.996Z</time>
      </trkpt>
      <trkpt lat="43.10957167" lon="-7.10170167">
        <ele>881.0</ele>
        <time>2022-06-19T10:55:17.516Z</time>
      </trkpt>
      <trkpt lat="43.10956667" lon="-7.10186167">
        <ele>882.0</ele>
        <time>2022-06-19T10:55:18.491Z</time>
      </trkpt>
      <trkpt lat="43.10956667" lon="-7.10186167">
        <ele>882.0</ele>
        <time>2022-06-19T10:55:19.489Z</time>
      </trkpt>
      <trkpt lat="43.109565" lon="-7.10191333">
        <ele>883.0</ele>
        <time>2022-06-19T10:55:20.505Z</time>
      </trkpt>
      <trkpt lat="43.109565" lon="-7.10191333">
        <ele>883.0</ele>
        <time>2022-06-19T10:55:21.512Z</time>
      </trkpt>
      <trkpt lat="43.10957167" lon="-7.10195667">
        <ele>883.0</ele>
        <time>2022-06-19T10:55:22.507Z</time>
      </trkpt>
      <trkpt lat="43.10957167" lon="-7.10195667">
        <ele>883.0</ele>
        <time>2022-06-19T10:55:23.524Z</time>
      </trkpt>
      <trkpt lat="43.109575" lon="-7.102">
        <ele>884.0</ele>
        <time>2022-06-19T10:55:24.521Z</time>
      </trkpt>
      <trkpt lat="43.10957833" lon="-7.102025">
        <ele>884.0</ele>
        <time>2022-06-19T10:55:25.522Z</time>
      </trkpt>
      <trkpt lat="43.10957833" lon="-7.102025">
        <ele>884.0</ele>
        <time>2022-06-19T10:55:26.492Z</time>
      </trkpt>
      <trkpt lat="43.10958167" lon="-7.10206833">
        <ele>885.0</ele>
        <time>2022-06-19T10:55:27.524Z</time>
      </trkpt>
      <trkpt lat="43.109585" lon="-7.10208833">
        <ele>885.0</ele>
        <time>2022-06-19T10:55:28.486Z</time>
      </trkpt>
      <trkpt lat="43.109585" lon="-7.10208833">
        <ele>885.0</ele>
        <time>2022-06-19T10:55:29.521Z</time>
      </trkpt>
      <trkpt lat="43.10959667" lon="-7.10212833">
        <ele>886.0</ele>
        <time>2022-06-19T10:55:30.507Z</time>
      </trkpt>
      <trkpt lat="43.1096" lon="-7.10215167">
        <ele>886.0</ele>
        <time>2022-06-19T10:55:31.515Z</time>
      </trkpt>
      <trkpt lat="43.1096" lon="-7.10215167">
        <ele>886.0</ele>
        <time>2022-06-19T10:55:32.510Z</time>
      </trkpt>
      <trkpt lat="43.10960167" lon="-7.102185">
        <ele>887.0</ele>
        <time>2022-06-19T10:55:33.489Z</time>
      </trkpt>
      <trkpt lat="43.10960167" lon="-7.102185">
        <ele>887.0</ele>
        <time>2022-06-19T10:55:34.499Z</time>
      </trkpt>
      <trkpt lat="43.10961" lon="-7.10222167">
        <ele>888.0</ele>
        <time>2022-06-19T10:55:35.518Z</time>
      </trkpt>
      <trkpt lat="43.10961" lon="-7.10222167">
        <ele>888.0</ele>
        <time>2022-06-19T10:55:36.520Z</time>
      </trkpt>
      <trkpt lat="43.10961833" lon="-7.10226333">
        <ele>889.0</ele>
        <time>2022-06-19T10:55:37.507Z</time>
      </trkpt>
      <trkpt lat="43.10961833" lon="-7.10226333">
        <ele>889.0</ele>
        <time>2022-06-19T10:55:38.506Z</time>
      </trkpt>
      <trkpt lat="43.10962667" lon="-7.10228667">
        <ele>889.0</ele>
        <time>2022-06-19T10:55:39.527Z</time>
      </trkpt>
      <trkpt lat="43.10963333" lon="-7.10229833">
        <ele>890.0</ele>
        <time>2022-06-19T10:55:40.523Z</time>
      </trkpt>
      <trkpt lat="43.10963333" lon="-7.10229833">
        <ele>890.0</ele>
        <time>2022-06-19T10:55:41.497Z</time>
      </trkpt>
      <trkpt lat="43.10965" lon="-7.102325">
        <ele>891.0</ele>
        <time>2022-06-19T10:55:42.519Z</time>
      </trkpt>
      <trkpt lat="43.10965667" lon="-7.10234167">
        <ele>891.0</ele>
        <time>2022-06-19T10:55:43.486Z</time>
      </trkpt>
      <trkpt lat="43.10965667" lon="-7.10234167">
        <ele>891.0</ele>
        <time>2022-06-19T10:55:44.514Z</time>
      </trkpt>
      <trkpt lat="43.10966833" lon="-7.10237333">
        <ele>892.0</ele>
        <time>2022-06-19T10:55:45.496Z</time>
      </trkpt>
      <trkpt lat="43.10966833" lon="-7.10237333">
        <ele>892.0</ele>
        <time>2022-06-19T10:55:46.493Z</time>
      </trkpt>
      <trkpt lat="43.10968667" lon="-7.10240333">
        <ele>893.0</ele>
        <time>2022-06-19T10:55:47.525Z</time>
      </trkpt>
      <trkpt lat="43.10969333" lon="-7.102415">
        <ele>893.0</ele>
        <time>2022-06-19T10:55:48.516Z</time>
      </trkpt>
      <trkpt lat="43.10969333" lon="-7.102415">
        <ele>893.0</ele>
        <time>2022-06-19T10:55:49.499Z</time>
      </trkpt>
      <trkpt lat="43.10970833" lon="-7.10244167">
        <ele>894.0</ele>
        <time>2022-06-19T10:55:50.520Z</time>
      </trkpt>
      <trkpt lat="43.10970833" lon="-7.10244167">
        <ele>894.0</ele>
        <time>2022-06-19T10:55:51.523Z</time>
      </trkpt>
      <trkpt lat="43.10972" lon="-7.10247167">
        <ele>895.0</ele>
        <time>2022-06-19T10:55:52.522Z</time>
      </trkpt>
      <trkpt lat="43.10972333" lon="-7.102485">
        <ele>895.0</ele>
        <time>2022-06-19T10:55:53.515Z</time>
      </trkpt>
      <trkpt lat="43.10972333" lon="-7.102485">
        <ele>895.0</ele>
        <time>2022-06-19T10:55:54.496Z</time>
      </trkpt>
      <trkpt lat="43.10973833" lon="-7.10253">
        <ele>895.0</ele>
        <time>2022-06-19T10:55:55.518Z</time>
      </trkpt>
      <trkpt lat="43.10973833" lon="-7.10253">
        <ele>895.0</ele>
        <time>2022-06-19T10:55:56.490Z</time>
      </trkpt>
      <trkpt lat="43.10974667" lon="-7.10257167">
        <ele>895.0</ele>
        <time>2022-06-19T10:55:57.514Z</time>
      </trkpt>
      <trkpt lat="43.109755" lon="-7.10258667">
        <ele>896.0</ele>
        <time>2022-06-19T10:55:58.518Z</time>
      </trkpt>
      <trkpt lat="43.109755" lon="-7.10258667">
        <ele>896.0</ele>
        <time>2022-06-19T10:55:59.502Z</time>
      </trkpt>
      <trkpt lat="43.10977" lon="-7.10263333">
        <ele>896.0</ele>
        <time>2022-06-19T10:56:00.487Z</time>
      </trkpt>
      <trkpt lat="43.10977333" lon="-7.10265667">
        <ele>896.0</ele>
        <time>2022-06-19T10:56:01.508Z</time>
      </trkpt>
      <trkpt lat="43.10977333" lon="-7.10265667">
        <ele>896.0</ele>
        <time>2022-06-19T10:56:02.494Z</time>
      </trkpt>
      <trkpt lat="43.10977833" lon="-7.10270667">
        <ele>896.0</ele>
        <time>2022-06-19T10:56:03.517Z</time>
      </trkpt>
      <trkpt lat="43.10977833" lon="-7.10270667">
        <ele>896.0</ele>
        <time>2022-06-19T10:56:04.489Z</time>
      </trkpt>
      <trkpt lat="43.10979667" lon="-7.10273333">
        <ele>897.0</ele>
        <time>2022-06-19T10:56:05.516Z</time>
      </trkpt>
      <trkpt lat="43.10979667" lon="-7.10273333">
        <ele>897.0</ele>
        <time>2022-06-19T10:56:06.499Z</time>
      </trkpt>
      <trkpt lat="43.10981" lon="-7.10277">
        <ele>897.0</ele>
        <time>2022-06-19T10:56:07.521Z</time>
      </trkpt>
      <trkpt lat="43.10981" lon="-7.10277">
        <ele>897.0</ele>
        <time>2022-06-19T10:56:08.508Z</time>
      </trkpt>
      <trkpt lat="43.10981167" lon="-7.10281167">
        <ele>898.0</ele>
        <time>2022-06-19T10:56:09.493Z</time>
      </trkpt>
      <trkpt lat="43.10980833" lon="-7.10283333">
        <ele>897.0</ele>
        <time>2022-06-19T10:56:10.502Z</time>
      </trkpt>
      <trkpt lat="43.10980833" lon="-7.10283333">
        <ele>897.0</ele>
        <time>2022-06-19T10:56:11.498Z</time>
      </trkpt>
      <trkpt lat="43.10980833" lon="-7.10287167">
        <ele>898.0</ele>
        <time>2022-06-19T10:56:12.521Z</time>
      </trkpt>
      <trkpt lat="43.10981" lon="-7.10288833">
        <ele>898.0</ele>
        <time>2022-06-19T10:56:13.515Z</time>
      </trkpt>
      <trkpt lat="43.10981" lon="-7.10288833">
        <ele>898.0</ele>
        <time>2022-06-19T10:56:14.498Z</time>
      </trkpt>
      <trkpt lat="43.10981167" lon="-7.10292333">
        <ele>898.0</ele>
        <time>2022-06-19T10:56:15.527Z</time>
      </trkpt>
      <trkpt lat="43.10981167" lon="-7.10292333">
        <ele>898.0</ele>
        <time>2022-06-19T10:56:16.499Z</time>
      </trkpt>
      <trkpt lat="43.10981167" lon="-7.10294833">
        <ele>899.0</ele>
        <time>2022-06-19T10:56:17.495Z</time>
      </trkpt>
      <trkpt lat="43.10981167" lon="-7.10296167">
        <ele>899.0</ele>
        <time>2022-06-19T10:56:18.507Z</time>
      </trkpt>
      <trkpt lat="43.10981167" lon="-7.10296167">
        <ele>899.0</ele>
        <time>2022-06-19T10:56:19.514Z</time>
      </trkpt>
      <trkpt lat="43.109805" lon="-7.10298667">
        <ele>900.0</ele>
        <time>2022-06-19T10:56:20.509Z</time>
      </trkpt>
      <trkpt lat="43.109805" lon="-7.10298667">
        <ele>900.0</ele>
        <time>2022-06-19T10:56:21.499Z</time>
      </trkpt>
      <trkpt lat="43.10980833" lon="-7.10301">
        <ele>901.0</ele>
        <time>2022-06-19T10:56:22.500Z</time>
      </trkpt>
      <trkpt lat="43.10980833" lon="-7.10301">
        <ele>901.0</ele>
        <time>2022-06-19T10:56:23.520Z</time>
      </trkpt>
      <trkpt lat="43.109805" lon="-7.10303833">
        <ele>901.0</ele>
        <time>2022-06-19T10:56:24.497Z</time>
      </trkpt>
      <trkpt lat="43.10980333" lon="-7.10305333">
        <ele>902.0</ele>
        <time>2022-06-19T10:56:25.527Z</time>
      </trkpt>
      <trkpt lat="43.10980333" lon="-7.10305333">
        <ele>902.0</ele>
        <time>2022-06-19T10:56:26.516Z</time>
      </trkpt>
      <trkpt lat="43.109805" lon="-7.10307333">
        <ele>902.0</ele>
        <time>2022-06-19T10:56:27.498Z</time>
      </trkpt>
      <trkpt lat="43.10980333" lon="-7.103085">
        <ele>903.0</ele>
        <time>2022-06-19T10:56:28.488Z</time>
      </trkpt>
      <trkpt lat="43.1098" lon="-7.1031">
        <ele>903.0</ele>
        <time>2022-06-19T10:56:29.495Z</time>
      </trkpt>
      <trkpt lat="43.1098" lon="-7.1031">
        <ele>903.0</ele>
        <time>2022-06-19T10:56:30.489Z</time>
      </trkpt>
      <trkpt lat="43.10979333" lon="-7.10312667">
        <ele>903.0</ele>
        <time>2022-06-19T10:56:31.516Z</time>
      </trkpt>
      <trkpt lat="43.10979" lon="-7.10314333">
        <ele>904.0</ele>
        <time>2022-06-19T10:56:32.540Z</time>
      </trkpt>
      <trkpt lat="43.10979" lon="-7.10314333">
        <ele>904.0</ele>
        <time>2022-06-19T10:56:33.521Z</time>
      </trkpt>
      <trkpt lat="43.10979167" lon="-7.10316833">
        <ele>904.0</ele>
        <time>2022-06-19T10:56:34.513Z</time>
      </trkpt>
      <trkpt lat="43.10979167" lon="-7.10316833">
        <ele>904.0</ele>
        <time>2022-06-19T10:56:35.524Z</time>
      </trkpt>
      <trkpt lat="43.10978167" lon="-7.103215">
        <ele>905.0</ele>
        <time>2022-06-19T10:56:36.519Z</time>
      </trkpt>
      <trkpt lat="43.10977667" lon="-7.103235">
        <ele>905.0</ele>
        <time>2022-06-19T10:56:37.492Z</time>
      </trkpt>
      <trkpt lat="43.10977667" lon="-7.103235">
        <ele>905.0</ele>
        <time>2022-06-19T10:56:38.508Z</time>
      </trkpt>
      <trkpt lat="43.10977333" lon="-7.10330667">
        <ele>905.0</ele>
        <time>2022-06-19T10:56:39.510Z</time>
      </trkpt>
      <trkpt lat="43.10977" lon="-7.10332667">
        <ele>906.0</ele>
        <time>2022-06-19T10:56:40.491Z</time>
      </trkpt>
      <trkpt lat="43.10977" lon="-7.10332667">
        <ele>906.0</ele>
        <time>2022-06-19T10:56:41.496Z</time>
      </trkpt>
      <trkpt lat="43.10977167" lon="-7.10336333">
        <ele>906.0</ele>
        <time>2022-06-19T10:56:42.493Z</time>
      </trkpt>
      <trkpt lat="43.10976667" lon="-7.10338833">
        <ele>906.0</ele>
        <time>2022-06-19T10:56:43.497Z</time>
      </trkpt>
      <trkpt lat="43.10976667" lon="-7.10338833">
        <ele>906.0</ele>
        <time>2022-06-19T10:56:44.524Z</time>
      </trkpt>
      <trkpt lat="43.10974833" lon="-7.10343">
        <ele>906.0</ele>
        <time>2022-06-19T10:56:45.497Z</time>
      </trkpt>
      <trkpt lat="43.10974" lon="-7.10345333">
        <ele>906.0</ele>
        <time>2022-06-19T10:56:46.510Z</time>
      </trkpt>
      <trkpt lat="43.10974" lon="-7.10345333">
        <ele>906.0</ele>
        <time>2022-06-19T10:56:47.494Z</time>
      </trkpt>
      <trkpt lat="43.10972667" lon="-7.103495">
        <ele>906.0</ele>
        <time>2022-06-19T10:56:48.488Z</time>
      </trkpt>
      <trkpt lat="43.10972333" lon="-7.10351167">
        <ele>906.0</ele>
        <time>2022-06-19T10:56:49.522Z</time>
      </trkpt>
      <trkpt lat="43.10972333" lon="-7.10351167">
        <ele>906.0</ele>
        <time>2022-06-19T10:56:50.506Z</time>
      </trkpt>
      <trkpt lat="43.10972167" lon="-7.103545">
        <ele>907.0</ele>
        <time>2022-06-19T10:56:51.494Z</time>
      </trkpt>
      <trkpt lat="43.109715" lon="-7.10356167">
        <ele>907.0</ele>
        <time>2022-06-19T10:56:52.490Z</time>
      </trkpt>
      <trkpt lat="43.10970833" lon="-7.10357667">
        <ele>907.0</ele>
        <time>2022-06-19T10:56:53.517Z</time>
      </trkpt>
      <trkpt lat="43.10970833" lon="-7.10357667">
        <ele>907.0</ele>
        <time>2022-06-19T10:56:54.492Z</time>
      </trkpt>
      <trkpt lat="43.10969333" lon="-7.10361333">
        <ele>907.0</ele>
        <time>2022-06-19T10:56:55.525Z</time>
      </trkpt>
      <trkpt lat="43.10969333" lon="-7.10361333">
        <ele>907.0</ele>
        <time>2022-06-19T10:56:56.502Z</time>
      </trkpt>
      <trkpt lat="43.10967667" lon="-7.10365167">
        <ele>908.0</ele>
        <time>2022-06-19T10:56:57.504Z</time>
      </trkpt>
      <trkpt lat="43.10967" lon="-7.10367">
        <ele>908.0</ele>
        <time>2022-06-19T10:56:58.525Z</time>
      </trkpt>
      <trkpt lat="43.10966167" lon="-7.10368833">
        <ele>908.0</ele>
        <time>2022-06-19T10:56:59.527Z</time>
      </trkpt>
      <trkpt lat="43.10966167" lon="-7.10368833">
        <ele>908.0</ele>
        <time>2022-06-19T10:57:00.494Z</time>
      </trkpt>
      <trkpt lat="43.109645" lon="-7.10373833">
        <ele>909.0</ele>
        <time>2022-06-19T10:57:01.515Z</time>
      </trkpt>
      <trkpt lat="43.109645" lon="-7.10373833">
        <ele>909.0</ele>
        <time>2022-06-19T10:57:02.493Z</time>
      </trkpt>
      <trkpt lat="43.10962333" lon="-7.10378833">
        <ele>909.0</ele>
        <time>2022-06-19T10:57:03.519Z</time>
      </trkpt>
      <trkpt lat="43.10961167" lon="-7.10381833">
        <ele>909.0</ele>
        <time>2022-06-19T10:57:04.515Z</time>
      </trkpt>
      <trkpt lat="43.10961167" lon="-7.10381833">
        <ele>909.0</ele>
        <time>2022-06-19T10:57:05.520Z</time>
      </trkpt>
      <trkpt lat="43.10958833" lon="-7.103855">
        <ele>910.0</ele>
        <time>2022-06-19T10:57:06.518Z</time>
      </trkpt>
      <trkpt lat="43.109575" lon="-7.10388167">
        <ele>910.0</ele>
        <time>2022-06-19T10:57:07.494Z</time>
      </trkpt>
      <trkpt lat="43.109575" lon="-7.10388167">
        <ele>910.0</ele>
        <time>2022-06-19T10:57:08.522Z</time>
      </trkpt>
      <trkpt lat="43.10954" lon="-7.10393667">
        <ele>910.0</ele>
        <time>2022-06-19T10:57:09.556Z</time>
      </trkpt>
      <trkpt lat="43.10954" lon="-7.10393667">
        <ele>910.0</ele>
        <time>2022-06-19T10:57:10.499Z</time>
      </trkpt>
      <trkpt lat="43.10949833" lon="-7.10397667">
        <ele>911.0</ele>
        <time>2022-06-19T10:57:11.490Z</time>
      </trkpt>
      <trkpt lat="43.10949833" lon="-7.10397667">
        <ele>911.0</ele>
        <time>2022-06-19T10:57:12.487Z</time>
      </trkpt>
      <trkpt lat="43.109465" lon="-7.10399833">
        <ele>911.0</ele>
        <time>2022-06-19T10:57:13.509Z</time>
      </trkpt>
      <trkpt lat="43.109465" lon="-7.10399833">
        <ele>911.0</ele>
        <time>2022-06-19T10:57:14.493Z</time>
      </trkpt>
      <trkpt lat="43.10942833" lon="-7.10403167">
        <ele>911.0</ele>
        <time>2022-06-19T10:57:15.518Z</time>
      </trkpt>
      <trkpt lat="43.10942833" lon="-7.10403167">
        <ele>911.0</ele>
        <time>2022-06-19T10:57:16.507Z</time>
      </trkpt>
      <trkpt lat="43.10939667" lon="-7.10406667">
        <ele>911.0</ele>
        <time>2022-06-19T10:57:17.494Z</time>
      </trkpt>
      <trkpt lat="43.10939667" lon="-7.10406667">
        <ele>911.0</ele>
        <time>2022-06-19T10:57:18.490Z</time>
      </trkpt>
      <trkpt lat="43.10937" lon="-7.104105">
        <ele>911.0</ele>
        <time>2022-06-19T10:57:19.518Z</time>
      </trkpt>
      <trkpt lat="43.10937" lon="-7.104105">
        <ele>911.0</ele>
        <time>2022-06-19T10:57:20.494Z</time>
      </trkpt>
      <trkpt lat="43.10934833" lon="-7.10415">
        <ele>911.0</ele>
        <time>2022-06-19T10:57:21.489Z</time>
      </trkpt>
      <trkpt lat="43.10933833" lon="-7.10417333">
        <ele>911.0</ele>
        <time>2022-06-19T10:57:22.497Z</time>
      </trkpt>
      <trkpt lat="43.10932833" lon="-7.1042">
        <ele>911.0</ele>
        <time>2022-06-19T10:57:23.490Z</time>
      </trkpt>
      <trkpt lat="43.10932167" lon="-7.10422667">
        <ele>911.0</ele>
        <time>2022-06-19T10:57:24.489Z</time>
      </trkpt>
      <trkpt lat="43.10930833" lon="-7.10425667">
        <ele>911.0</ele>
        <time>2022-06-19T10:57:25.493Z</time>
      </trkpt>
      <trkpt lat="43.10930833" lon="-7.10425667">
        <ele>911.0</ele>
        <time>2022-06-19T10:57:26.487Z</time>
      </trkpt>
      <trkpt lat="43.10928667" lon="-7.10431167">
        <ele>912.0</ele>
        <time>2022-06-19T10:57:27.521Z</time>
      </trkpt>
      <trkpt lat="43.10927833" lon="-7.10433833">
        <ele>912.0</ele>
        <time>2022-06-19T10:57:28.512Z</time>
      </trkpt>
      <trkpt lat="43.10927833" lon="-7.10433833">
        <ele>912.0</ele>
        <time>2022-06-19T10:57:29.507Z</time>
      </trkpt>
      <trkpt lat="43.10926333" lon="-7.10438833">
        <ele>912.0</ele>
        <time>2022-06-19T10:57:30.526Z</time>
      </trkpt>
      <trkpt lat="43.10925667" lon="-7.10441">
        <ele>912.0</ele>
        <time>2022-06-19T10:57:31.521Z</time>
      </trkpt>
      <trkpt lat="43.10925667" lon="-7.10441">
        <ele>912.0</ele>
        <time>2022-06-19T10:57:32.496Z</time>
      </trkpt>
      <trkpt lat="43.10924167" lon="-7.10445667">
        <ele>912.0</ele>
        <time>2022-06-19T10:57:33.496Z</time>
      </trkpt>
      <trkpt lat="43.10924167" lon="-7.10445667">
        <ele>912.0</ele>
        <time>2022-06-19T10:57:34.496Z</time>
      </trkpt>
      <trkpt lat="43.10922833" lon="-7.104505">
        <ele>912.0</ele>
        <time>2022-06-19T10:57:35.495Z</time>
      </trkpt>
      <trkpt lat="43.10922833" lon="-7.104505">
        <ele>912.0</ele>
        <time>2022-06-19T10:57:36.498Z</time>
      </trkpt>
      <trkpt lat="43.10922" lon="-7.10455">
        <ele>912.0</ele>
        <time>2022-06-19T10:57:37.526Z</time>
      </trkpt>
      <trkpt lat="43.10922" lon="-7.10455">
        <ele>912.0</ele>
        <time>2022-06-19T10:57:38.488Z</time>
      </trkpt>
      <trkpt lat="43.109215" lon="-7.10458667">
        <ele>912.0</ele>
        <time>2022-06-19T10:57:39.487Z</time>
      </trkpt>
      <trkpt lat="43.10921" lon="-7.10461">
        <ele>911.0</ele>
        <time>2022-06-19T10:57:40.494Z</time>
      </trkpt>
      <trkpt lat="43.10921" lon="-7.10461">
        <ele>911.0</ele>
        <time>2022-06-19T10:57:41.517Z</time>
      </trkpt>
      <trkpt lat="43.109205" lon="-7.10464833">
        <ele>910.0</ele>
        <time>2022-06-19T10:57:42.503Z</time>
      </trkpt>
      <trkpt lat="43.10919833" lon="-7.10466333">
        <ele>910.0</ele>
        <time>2022-06-19T10:57:43.494Z</time>
      </trkpt>
      <trkpt lat="43.10919833" lon="-7.10466333">
        <ele>910.0</ele>
        <time>2022-06-19T10:57:44.506Z</time>
      </trkpt>
      <trkpt lat="43.10918667" lon="-7.10470167">
        <ele>910.0</ele>
        <time>2022-06-19T10:57:45.494Z</time>
      </trkpt>
      <trkpt lat="43.10918667" lon="-7.10470167">
        <ele>910.0</ele>
        <time>2022-06-19T10:57:46.495Z</time>
      </trkpt>
      <trkpt lat="43.10918333" lon="-7.10474167">
        <ele>910.0</ele>
        <time>2022-06-19T10:57:47.523Z</time>
      </trkpt>
      <trkpt lat="43.10918167" lon="-7.10476333">
        <ele>910.0</ele>
        <time>2022-06-19T10:57:48.505Z</time>
      </trkpt>
      <trkpt lat="43.10918" lon="-7.10478333">
        <ele>910.0</ele>
        <time>2022-06-19T10:57:49.508Z</time>
      </trkpt>
      <trkpt lat="43.10918" lon="-7.10478333">
        <ele>910.0</ele>
        <time>2022-06-19T10:57:50.516Z</time>
      </trkpt>
      <trkpt lat="43.10917167" lon="-7.104825">
        <ele>910.0</ele>
        <time>2022-06-19T10:57:51.502Z</time>
      </trkpt>
      <trkpt lat="43.10917167" lon="-7.104825">
        <ele>910.0</ele>
        <time>2022-06-19T10:57:52.511Z</time>
      </trkpt>
      <trkpt lat="43.10916667" lon="-7.10485833">
        <ele>911.0</ele>
        <time>2022-06-19T10:57:53.490Z</time>
      </trkpt>
      <trkpt lat="43.10916667" lon="-7.10485833">
        <ele>911.0</ele>
        <time>2022-06-19T10:57:54.520Z</time>
      </trkpt>
      <trkpt lat="43.10916167" lon="-7.10489667">
        <ele>911.0</ele>
        <time>2022-06-19T10:57:55.503Z</time>
      </trkpt>
      <trkpt lat="43.10916167" lon="-7.10489667">
        <ele>911.0</ele>
        <time>2022-06-19T10:57:56.517Z</time>
      </trkpt>
      <trkpt lat="43.10915333" lon="-7.10493333">
        <ele>911.0</ele>
        <time>2022-06-19T10:57:57.507Z</time>
      </trkpt>
      <trkpt lat="43.10915333" lon="-7.10493333">
        <ele>911.0</ele>
        <time>2022-06-19T10:57:58.494Z</time>
      </trkpt>
      <trkpt lat="43.10915" lon="-7.104975">
        <ele>911.0</ele>
        <time>2022-06-19T10:57:59.491Z</time>
      </trkpt>
      <trkpt lat="43.10915" lon="-7.104975">
        <ele>911.0</ele>
        <time>2022-06-19T10:58:00.524Z</time>
      </trkpt>
      <trkpt lat="43.10914333" lon="-7.10502167">
        <ele>911.0</ele>
        <time>2022-06-19T10:58:01.511Z</time>
      </trkpt>
      <trkpt lat="43.10914333" lon="-7.10502167">
        <ele>911.0</ele>
        <time>2022-06-19T10:58:02.500Z</time>
      </trkpt>
      <trkpt lat="43.10913833" lon="-7.10506">
        <ele>912.0</ele>
        <time>2022-06-19T10:58:03.494Z</time>
      </trkpt>
      <trkpt lat="43.10913833" lon="-7.10506">
        <ele>912.0</ele>
        <time>2022-06-19T10:58:04.502Z</time>
      </trkpt>
      <trkpt lat="43.10913333" lon="-7.1051">
        <ele>911.0</ele>
        <time>2022-06-19T10:58:05.524Z</time>
      </trkpt>
      <trkpt lat="43.10913333" lon="-7.1051">
        <ele>911.0</ele>
        <time>2022-06-19T10:58:06.501Z</time>
      </trkpt>
      <trkpt lat="43.109125" lon="-7.10514833">
        <ele>911.0</ele>
        <time>2022-06-19T10:58:07.491Z</time>
      </trkpt>
      <trkpt lat="43.109125" lon="-7.10514833">
        <ele>911.0</ele>
        <time>2022-06-19T10:58:08.496Z</time>
      </trkpt>
      <trkpt lat="43.10911667" lon="-7.10519667">
        <ele>911.0</ele>
        <time>2022-06-19T10:58:09.526Z</time>
      </trkpt>
      <trkpt lat="43.10911667" lon="-7.10519667">
        <ele>911.0</ele>
        <time>2022-06-19T10:58:10.499Z</time>
      </trkpt>
      <trkpt lat="43.10910667" lon="-7.10523833">
        <ele>912.0</ele>
        <time>2022-06-19T10:58:11.487Z</time>
      </trkpt>
      <trkpt lat="43.10910667" lon="-7.10523833">
        <ele>912.0</ele>
        <time>2022-06-19T10:58:12.495Z</time>
      </trkpt>
      <trkpt lat="43.109095" lon="-7.10528167">
        <ele>912.0</ele>
        <time>2022-06-19T10:58:13.512Z</time>
      </trkpt>
      <trkpt lat="43.109095" lon="-7.10528167">
        <ele>912.0</ele>
        <time>2022-06-19T10:58:14.504Z</time>
      </trkpt>
      <trkpt lat="43.10908" lon="-7.10532667">
        <ele>912.0</ele>
        <time>2022-06-19T10:58:15.523Z</time>
      </trkpt>
      <trkpt lat="43.10908" lon="-7.10532667">
        <ele>912.0</ele>
        <time>2022-06-19T10:58:16.487Z</time>
      </trkpt>
      <trkpt lat="43.109065" lon="-7.10537167">
        <ele>912.0</ele>
        <time>2022-06-19T10:58:17.513Z</time>
      </trkpt>
      <trkpt lat="43.109055" lon="-7.105395">
        <ele>912.0</ele>
        <time>2022-06-19T10:58:18.496Z</time>
      </trkpt>
      <trkpt lat="43.109045" lon="-7.10541667">
        <ele>913.0</ele>
        <time>2022-06-19T10:58:19.512Z</time>
      </trkpt>
      <trkpt lat="43.109045" lon="-7.10541667">
        <ele>913.0</ele>
        <time>2022-06-19T10:58:20.492Z</time>
      </trkpt>
      <trkpt lat="43.10902667" lon="-7.105465">
        <ele>913.0</ele>
        <time>2022-06-19T10:58:21.518Z</time>
      </trkpt>
      <trkpt lat="43.10902667" lon="-7.105465">
        <ele>913.0</ele>
        <time>2022-06-19T10:58:22.500Z</time>
      </trkpt>
      <trkpt lat="43.10901333" lon="-7.10552167">
        <ele>913.0</ele>
        <time>2022-06-19T10:58:23.496Z</time>
      </trkpt>
      <trkpt lat="43.10901333" lon="-7.10552167">
        <ele>913.0</ele>
        <time>2022-06-19T10:58:24.496Z</time>
      </trkpt>
      <trkpt lat="43.10899333" lon="-7.10557833">
        <ele>914.0</ele>
        <time>2022-06-19T10:58:25.520Z</time>
      </trkpt>
      <trkpt lat="43.10899333" lon="-7.10557833">
        <ele>914.0</ele>
        <time>2022-06-19T10:58:26.493Z</time>
      </trkpt>
      <trkpt lat="43.10897333" lon="-7.10563667">
        <ele>913.0</ele>
        <time>2022-06-19T10:58:27.521Z</time>
      </trkpt>
      <trkpt lat="43.108965" lon="-7.10566667">
        <ele>913.0</ele>
        <time>2022-06-19T10:58:28.506Z</time>
      </trkpt>
      <trkpt lat="43.108965" lon="-7.10566667">
        <ele>913.0</ele>
        <time>2022-06-19T10:58:29.491Z</time>
      </trkpt>
      <trkpt lat="43.10894333" lon="-7.10572667">
        <ele>913.0</ele>
        <time>2022-06-19T10:58:30.493Z</time>
      </trkpt>
      <trkpt lat="43.108935" lon="-7.10575667">
        <ele>913.0</ele>
        <time>2022-06-19T10:58:31.489Z</time>
      </trkpt>
      <trkpt lat="43.108935" lon="-7.10575667">
        <ele>913.0</ele>
        <time>2022-06-19T10:58:32.515Z</time>
      </trkpt>
      <trkpt lat="43.108915" lon="-7.10581167">
        <ele>914.0</ele>
        <time>2022-06-19T10:58:33.506Z</time>
      </trkpt>
      <trkpt lat="43.108905" lon="-7.10584">
        <ele>914.0</ele>
        <time>2022-06-19T10:58:34.497Z</time>
      </trkpt>
      <trkpt lat="43.108905" lon="-7.10584">
        <ele>914.0</ele>
        <time>2022-06-19T10:58:35.507Z</time>
      </trkpt>
      <trkpt lat="43.108885" lon="-7.10589833">
        <ele>914.0</ele>
        <time>2022-06-19T10:58:36.492Z</time>
      </trkpt>
      <trkpt lat="43.108885" lon="-7.10589833">
        <ele>914.0</ele>
        <time>2022-06-19T10:58:37.506Z</time>
      </trkpt>
      <trkpt lat="43.10888167" lon="-7.10596833">
        <ele>913.0</ele>
        <time>2022-06-19T10:58:38.512Z</time>
      </trkpt>
      <trkpt lat="43.10888333" lon="-7.10600667">
        <ele>913.0</ele>
        <time>2022-06-19T10:58:39.524Z</time>
      </trkpt>
      <trkpt lat="43.10888333" lon="-7.10600667">
        <ele>913.0</ele>
        <time>2022-06-19T10:58:40.511Z</time>
      </trkpt>
      <trkpt lat="43.108885" lon="-7.10607833">
        <ele>913.0</ele>
        <time>2022-06-19T10:58:41.506Z</time>
      </trkpt>
      <trkpt lat="43.108885" lon="-7.10607833">
        <ele>913.0</ele>
        <time>2022-06-19T10:58:42.512Z</time>
      </trkpt>
      <trkpt lat="43.10887833" lon="-7.10615">
        <ele>913.0</ele>
        <time>2022-06-19T10:58:43.518Z</time>
      </trkpt>
      <trkpt lat="43.10887833" lon="-7.10615">
        <ele>913.0</ele>
        <time>2022-06-19T10:58:44.496Z</time>
      </trkpt>
      <trkpt lat="43.10885833" lon="-7.10622">
        <ele>913.0</ele>
        <time>2022-06-19T10:58:45.499Z</time>
      </trkpt>
      <trkpt lat="43.10885833" lon="-7.10622">
        <ele>913.0</ele>
        <time>2022-06-19T10:58:46.511Z</time>
      </trkpt>
      <trkpt lat="43.10883333" lon="-7.10629">
        <ele>913.0</ele>
        <time>2022-06-19T10:58:47.497Z</time>
      </trkpt>
      <trkpt lat="43.10883333" lon="-7.10629">
        <ele>913.0</ele>
        <time>2022-06-19T10:58:48.496Z</time>
      </trkpt>
      <trkpt lat="43.10880667" lon="-7.10636167">
        <ele>914.0</ele>
        <time>2022-06-19T10:58:49.486Z</time>
      </trkpt>
      <trkpt lat="43.10880667" lon="-7.10636167">
        <ele>914.0</ele>
        <time>2022-06-19T10:58:50.492Z</time>
      </trkpt>
      <trkpt lat="43.10878" lon="-7.10642833">
        <ele>914.0</ele>
        <time>2022-06-19T10:58:51.519Z</time>
      </trkpt>
      <trkpt lat="43.10876333" lon="-7.10646333">
        <ele>914.0</ele>
        <time>2022-06-19T10:58:52.514Z</time>
      </trkpt>
      <trkpt lat="43.10876333" lon="-7.10646333">
        <ele>914.0</ele>
        <time>2022-06-19T10:58:53.497Z</time>
      </trkpt>
      <trkpt lat="43.10873333" lon="-7.10652667">
        <ele>914.0</ele>
        <time>2022-06-19T10:58:54.489Z</time>
      </trkpt>
      <trkpt lat="43.10871667" lon="-7.10656">
        <ele>914.0</ele>
        <time>2022-06-19T10:58:55.524Z</time>
      </trkpt>
      <trkpt lat="43.10871667" lon="-7.10656">
        <ele>914.0</ele>
        <time>2022-06-19T10:58:56.511Z</time>
      </trkpt>
      <trkpt lat="43.10868167" lon="-7.106635">
        <ele>914.0</ele>
        <time>2022-06-19T10:58:57.514Z</time>
      </trkpt>
      <trkpt lat="43.10866667" lon="-7.106675">
        <ele>914.0</ele>
        <time>2022-06-19T10:58:58.526Z</time>
      </trkpt>
      <trkpt lat="43.10866667" lon="-7.106675">
        <ele>914.0</ele>
        <time>2022-06-19T10:58:59.508Z</time>
      </trkpt>
      <trkpt lat="43.10863833" lon="-7.10675167">
        <ele>913.0</ele>
        <time>2022-06-19T10:59:00.492Z</time>
      </trkpt>
      <trkpt lat="43.10863833" lon="-7.10675167">
        <ele>913.0</ele>
        <time>2022-06-19T10:59:01.497Z</time>
      </trkpt>
      <trkpt lat="43.10860833" lon="-7.10682833">
        <ele>913.0</ele>
        <time>2022-06-19T10:59:02.496Z</time>
      </trkpt>
      <trkpt lat="43.108595" lon="-7.10686833">
        <ele>913.0</ele>
        <time>2022-06-19T10:59:03.515Z</time>
      </trkpt>
      <trkpt lat="43.108595" lon="-7.10686833">
        <ele>913.0</ele>
        <time>2022-06-19T10:59:04.517Z</time>
      </trkpt>
      <trkpt lat="43.10857" lon="-7.10695">
        <ele>914.0</ele>
        <time>2022-06-19T10:59:05.497Z</time>
      </trkpt>
      <trkpt lat="43.10857" lon="-7.10695">
        <ele>914.0</ele>
        <time>2022-06-19T10:59:06.494Z</time>
      </trkpt>
      <trkpt lat="43.10855" lon="-7.107035">
        <ele>914.0</ele>
        <time>2022-06-19T10:59:07.522Z</time>
      </trkpt>
      <trkpt lat="43.10855" lon="-7.107035">
        <ele>914.0</ele>
        <time>2022-06-19T10:59:08.523Z</time>
      </trkpt>
      <trkpt lat="43.10853667" lon="-7.10712">
        <ele>914.0</ele>
        <time>2022-06-19T10:59:09.511Z</time>
      </trkpt>
      <trkpt lat="43.10853667" lon="-7.10712">
        <ele>914.0</ele>
        <time>2022-06-19T10:59:10.488Z</time>
      </trkpt>
      <trkpt lat="43.10853167" lon="-7.10720833">
        <ele>914.0</ele>
        <time>2022-06-19T10:59:11.512Z</time>
      </trkpt>
      <trkpt lat="43.10853167" lon="-7.10720833">
        <ele>914.0</ele>
        <time>2022-06-19T10:59:12.522Z</time>
      </trkpt>
      <trkpt lat="43.10852333" lon="-7.10728167">
        <ele>914.0</ele>
        <time>2022-06-19T10:59:13.502Z</time>
      </trkpt>
      <trkpt lat="43.10852333" lon="-7.10728167">
        <ele>914.0</ele>
        <time>2022-06-19T10:59:14.505Z</time>
      </trkpt>
      <trkpt lat="43.108515" lon="-7.10733833">
        <ele>914.0</ele>
        <time>2022-06-19T10:59:15.493Z</time>
      </trkpt>
      <trkpt lat="43.10850667" lon="-7.107365">
        <ele>914.0</ele>
        <time>2022-06-19T10:59:16.488Z</time>
      </trkpt>
      <trkpt lat="43.10850667" lon="-7.107365">
        <ele>914.0</ele>
        <time>2022-06-19T10:59:17.510Z</time>
      </trkpt>
      <trkpt lat="43.10849167" lon="-7.10742667">
        <ele>914.0</ele>
        <time>2022-06-19T10:59:18.507Z</time>
      </trkpt>
      <trkpt lat="43.108485" lon="-7.10745833">
        <ele>914.0</ele>
        <time>2022-06-19T10:59:19.516Z</time>
      </trkpt>
      <trkpt lat="43.108485" lon="-7.10745833">
        <ele>914.0</ele>
        <time>2022-06-19T10:59:20.499Z</time>
      </trkpt>
      <trkpt lat="43.108475" lon="-7.10751167">
        <ele>914.0</ele>
        <time>2022-06-19T10:59:21.518Z</time>
      </trkpt>
      <trkpt lat="43.108475" lon="-7.10751167">
        <ele>914.0</ele>
        <time>2022-06-19T10:59:22.503Z</time>
      </trkpt>
      <trkpt lat="43.10846333" lon="-7.10756333">
        <ele>914.0</ele>
        <time>2022-06-19T10:59:23.494Z</time>
      </trkpt>
      <trkpt lat="43.10846333" lon="-7.10756333">
        <ele>914.0</ele>
        <time>2022-06-19T10:59:24.512Z</time>
      </trkpt>
      <trkpt lat="43.10844833" lon="-7.10762833">
        <ele>914.0</ele>
        <time>2022-06-19T10:59:25.496Z</time>
      </trkpt>
      <trkpt lat="43.10844833" lon="-7.10762833">
        <ele>914.0</ele>
        <time>2022-06-19T10:59:26.520Z</time>
      </trkpt>
      <trkpt lat="43.108435" lon="-7.10769667">
        <ele>914.0</ele>
        <time>2022-06-19T10:59:27.523Z</time>
      </trkpt>
      <trkpt lat="43.108435" lon="-7.10769667">
        <ele>914.0</ele>
        <time>2022-06-19T10:59:28.502Z</time>
      </trkpt>
      <trkpt lat="43.10841833" lon="-7.10776667">
        <ele>914.0</ele>
        <time>2022-06-19T10:59:29.488Z</time>
      </trkpt>
      <trkpt lat="43.10841" lon="-7.10780167">
        <ele>914.0</ele>
        <time>2022-06-19T10:59:30.496Z</time>
      </trkpt>
      <trkpt lat="43.10840333" lon="-7.107835">
        <ele>914.0</ele>
        <time>2022-06-19T10:59:31.507Z</time>
      </trkpt>
      <trkpt lat="43.10840333" lon="-7.107835">
        <ele>914.0</ele>
        <time>2022-06-19T10:59:32.515Z</time>
      </trkpt>
      <trkpt lat="43.10838833" lon="-7.10789833">
        <ele>914.0</ele>
        <time>2022-06-19T10:59:33.505Z</time>
      </trkpt>
      <trkpt lat="43.10838167" lon="-7.10793167">
        <ele>914.0</ele>
        <time>2022-06-19T10:59:34.515Z</time>
      </trkpt>
      <trkpt lat="43.10838167" lon="-7.10793167">
        <ele>914.0</ele>
        <time>2022-06-19T10:59:35.521Z</time>
      </trkpt>
      <trkpt lat="43.108365" lon="-7.10799667">
        <ele>914.0</ele>
        <time>2022-06-19T10:59:36.530Z</time>
      </trkpt>
      <trkpt lat="43.108365" lon="-7.10799667">
        <ele>914.0</ele>
        <time>2022-06-19T10:59:37.499Z</time>
      </trkpt>
      <trkpt lat="43.10835" lon="-7.10806667">
        <ele>914.0</ele>
        <time>2022-06-19T10:59:38.501Z</time>
      </trkpt>
      <trkpt lat="43.10834167" lon="-7.10810167">
        <ele>914.0</ele>
        <time>2022-06-19T10:59:39.497Z</time>
      </trkpt>
      <trkpt lat="43.10834167" lon="-7.10810167">
        <ele>914.0</ele>
        <time>2022-06-19T10:59:40.504Z</time>
      </trkpt>
      <trkpt lat="43.108325" lon="-7.10816667">
        <ele>915.0</ele>
        <time>2022-06-19T10:59:41.494Z</time>
      </trkpt>
      <trkpt lat="43.108325" lon="-7.10816667">
        <ele>915.0</ele>
        <time>2022-06-19T10:59:42.501Z</time>
      </trkpt>
      <trkpt lat="43.10830667" lon="-7.10823167">
        <ele>915.0</ele>
        <time>2022-06-19T10:59:43.531Z</time>
      </trkpt>
      <trkpt lat="43.10830667" lon="-7.10823167">
        <ele>915.0</ele>
        <time>2022-06-19T10:59:44.502Z</time>
      </trkpt>
      <trkpt lat="43.10828833" lon="-7.10829333">
        <ele>915.0</ele>
        <time>2022-06-19T10:59:45.519Z</time>
      </trkpt>
      <trkpt lat="43.10828833" lon="-7.10829333">
        <ele>915.0</ele>
        <time>2022-06-19T10:59:46.496Z</time>
      </trkpt>
      <trkpt lat="43.108265" lon="-7.108355">
        <ele>915.0</ele>
        <time>2022-06-19T10:59:47.520Z</time>
      </trkpt>
      <trkpt lat="43.108265" lon="-7.108355">
        <ele>915.0</ele>
        <time>2022-06-19T10:59:48.496Z</time>
      </trkpt>
      <trkpt lat="43.10824333" lon="-7.108415">
        <ele>915.0</ele>
        <time>2022-06-19T10:59:49.496Z</time>
      </trkpt>
      <trkpt lat="43.10824333" lon="-7.108415">
        <ele>915.0</ele>
        <time>2022-06-19T10:59:50.499Z</time>
      </trkpt>
      <trkpt lat="43.10822333" lon="-7.10847333">
        <ele>915.0</ele>
        <time>2022-06-19T10:59:51.513Z</time>
      </trkpt>
      <trkpt lat="43.10822333" lon="-7.10847333">
        <ele>915.0</ele>
        <time>2022-06-19T10:59:52.496Z</time>
      </trkpt>
      <trkpt lat="43.10820667" lon="-7.108525">
        <ele>915.0</ele>
        <time>2022-06-19T10:59:53.543Z</time>
      </trkpt>
      <trkpt lat="43.10820667" lon="-7.108525">
        <ele>915.0</ele>
        <time>2022-06-19T10:59:54.487Z</time>
      </trkpt>
      <trkpt lat="43.10819" lon="-7.10857667">
        <ele>915.0</ele>
        <time>2022-06-19T10:59:55.509Z</time>
      </trkpt>
      <trkpt lat="43.10819" lon="-7.10857667">
        <ele>915.0</ele>
        <time>2022-06-19T10:59:56.525Z</time>
      </trkpt>
      <trkpt lat="43.10817667" lon="-7.10863667">
        <ele>915.0</ele>
        <time>2022-06-19T10:59:57.517Z</time>
      </trkpt>
      <trkpt lat="43.10817667" lon="-7.10863667">
        <ele>915.0</ele>
        <time>2022-06-19T10:59:58.525Z</time>
      </trkpt>
      <trkpt lat="43.10816333" lon="-7.10868333">
        <ele>915.0</ele>
        <time>2022-06-19T10:59:59.512Z</time>
      </trkpt>
      <trkpt lat="43.10815667" lon="-7.10870167">
        <ele>915.0</ele>
        <time>2022-06-19T11:00:00.492Z</time>
      </trkpt>
      <trkpt lat="43.10815667" lon="-7.10870167">
        <ele>915.0</ele>
        <time>2022-06-19T11:00:01.502Z</time>
      </trkpt>
      <trkpt lat="43.10814333" lon="-7.10875">
        <ele>915.0</ele>
        <time>2022-06-19T11:00:02.525Z</time>
      </trkpt>
      <trkpt lat="43.10814333" lon="-7.10875">
        <ele>915.0</ele>
        <time>2022-06-19T11:00:03.500Z</time>
      </trkpt>
      <trkpt lat="43.10812833" lon="-7.10880667">
        <ele>915.0</ele>
        <time>2022-06-19T11:00:04.486Z</time>
      </trkpt>
      <trkpt lat="43.10812" lon="-7.10883667">
        <ele>915.0</ele>
        <time>2022-06-19T11:00:05.526Z</time>
      </trkpt>
      <trkpt lat="43.10812" lon="-7.10883667">
        <ele>915.0</ele>
        <time>2022-06-19T11:00:06.508Z</time>
      </trkpt>
      <trkpt lat="43.10810667" lon="-7.10889333">
        <ele>916.0</ele>
        <time>2022-06-19T11:00:07.503Z</time>
      </trkpt>
      <trkpt lat="43.10810667" lon="-7.10889333">
        <ele>916.0</ele>
        <time>2022-06-19T11:00:08.487Z</time>
      </trkpt>
      <trkpt lat="43.10809667" lon="-7.10893833">
        <ele>916.0</ele>
        <time>2022-06-19T11:00:09.512Z</time>
      </trkpt>
      <trkpt lat="43.10809333" lon="-7.10895833">
        <ele>916.0</ele>
        <time>2022-06-19T11:00:10.497Z</time>
      </trkpt>
      <trkpt lat="43.10809333" lon="-7.10895833">
        <ele>916.0</ele>
        <time>2022-06-19T11:00:11.521Z</time>
      </trkpt>
      <trkpt lat="43.10808167" lon="-7.10899333">
        <ele>916.0</ele>
        <time>2022-06-19T11:00:12.500Z</time>
      </trkpt>
      <trkpt lat="43.10807667" lon="-7.10901833">
        <ele>916.0</ele>
        <time>2022-06-19T11:00:13.516Z</time>
      </trkpt>
      <trkpt lat="43.10807667" lon="-7.10901833">
        <ele>916.0</ele>
        <time>2022-06-19T11:00:14.497Z</time>
      </trkpt>
      <trkpt lat="43.10806167" lon="-7.10907">
        <ele>917.0</ele>
        <time>2022-06-19T11:00:15.490Z</time>
      </trkpt>
      <trkpt lat="43.10806167" lon="-7.10907">
        <ele>917.0</ele>
        <time>2022-06-19T11:00:16.505Z</time>
      </trkpt>
      <trkpt lat="43.10804833" lon="-7.10912">
        <ele>917.0</ele>
        <time>2022-06-19T11:00:17.491Z</time>
      </trkpt>
      <trkpt lat="43.10804833" lon="-7.10912">
        <ele>917.0</ele>
        <time>2022-06-19T11:00:18.509Z</time>
      </trkpt>
      <trkpt lat="43.10802833" lon="-7.10916833">
        <ele>917.0</ele>
        <time>2022-06-19T11:00:19.488Z</time>
      </trkpt>
      <trkpt lat="43.10802833" lon="-7.10916833">
        <ele>917.0</ele>
        <time>2022-06-19T11:00:20.504Z</time>
      </trkpt>
      <trkpt lat="43.108015" lon="-7.10921667">
        <ele>918.0</ele>
        <time>2022-06-19T11:00:21.487Z</time>
      </trkpt>
      <trkpt lat="43.108015" lon="-7.10921667">
        <ele>918.0</ele>
        <time>2022-06-19T11:00:22.498Z</time>
      </trkpt>
      <trkpt lat="43.10799833" lon="-7.10927667">
        <ele>918.0</ele>
        <time>2022-06-19T11:00:23.523Z</time>
      </trkpt>
      <trkpt lat="43.10799833" lon="-7.10927667">
        <ele>918.0</ele>
        <time>2022-06-19T11:00:24.507Z</time>
      </trkpt>
      <trkpt lat="43.10798333" lon="-7.10932667">
        <ele>918.0</ele>
        <time>2022-06-19T11:00:25.492Z</time>
      </trkpt>
      <trkpt lat="43.10798333" lon="-7.10932667">
        <ele>918.0</ele>
        <time>2022-06-19T11:00:26.490Z</time>
      </trkpt>
      <trkpt lat="43.10797667" lon="-7.10937333">
        <ele>919.0</ele>
        <time>2022-06-19T11:00:27.487Z</time>
      </trkpt>
      <trkpt lat="43.10797667" lon="-7.10937333">
        <ele>919.0</ele>
        <time>2022-06-19T11:00:28.502Z</time>
      </trkpt>
      <trkpt lat="43.10796167" lon="-7.10942333">
        <ele>919.0</ele>
        <time>2022-06-19T11:00:29.491Z</time>
      </trkpt>
      <trkpt lat="43.10796167" lon="-7.10942333">
        <ele>919.0</ele>
        <time>2022-06-19T11:00:30.503Z</time>
      </trkpt>
      <trkpt lat="43.107945" lon="-7.10946833">
        <ele>920.0</ele>
        <time>2022-06-19T11:00:31.503Z</time>
      </trkpt>
      <trkpt lat="43.107945" lon="-7.10946833">
        <ele>920.0</ele>
        <time>2022-06-19T11:00:32.506Z</time>
      </trkpt>
      <trkpt lat="43.10793333" lon="-7.10951167">
        <ele>921.0</ele>
        <time>2022-06-19T11:00:33.497Z</time>
      </trkpt>
      <trkpt lat="43.10792667" lon="-7.10953167">
        <ele>921.0</ele>
        <time>2022-06-19T11:00:34.497Z</time>
      </trkpt>
      <trkpt lat="43.10792667" lon="-7.10953167">
        <ele>921.0</ele>
        <time>2022-06-19T11:00:35.506Z</time>
      </trkpt>
      <trkpt lat="43.10790833" lon="-7.10959167">
        <ele>922.0</ele>
        <time>2022-06-19T11:00:36.509Z</time>
      </trkpt>
      <trkpt lat="43.10790833" lon="-7.10959167">
        <ele>922.0</ele>
        <time>2022-06-19T11:00:37.489Z</time>
      </trkpt>
      <trkpt lat="43.107895" lon="-7.10964167">
        <ele>922.0</ele>
        <time>2022-06-19T11:00:38.516Z</time>
      </trkpt>
      <trkpt lat="43.107895" lon="-7.10964167">
        <ele>922.0</ele>
        <time>2022-06-19T11:00:39.507Z</time>
      </trkpt>
      <trkpt lat="43.10788" lon="-7.10969333">
        <ele>923.0</ele>
        <time>2022-06-19T11:00:40.497Z</time>
      </trkpt>
      <trkpt lat="43.10787167" lon="-7.10972">
        <ele>923.0</ele>
        <time>2022-06-19T11:00:41.517Z</time>
      </trkpt>
      <trkpt lat="43.10787167" lon="-7.10972">
        <ele>923.0</ele>
        <time>2022-06-19T11:00:42.487Z</time>
      </trkpt>
      <trkpt lat="43.10785333" lon="-7.10977333">
        <ele>924.0</ele>
        <time>2022-06-19T11:00:43.511Z</time>
      </trkpt>
      <trkpt lat="43.10785333" lon="-7.10977333">
        <ele>924.0</ele>
        <time>2022-06-19T11:00:44.520Z</time>
      </trkpt>
      <trkpt lat="43.10784167" lon="-7.10982667">
        <ele>924.0</ele>
        <time>2022-06-19T11:00:45.499Z</time>
      </trkpt>
      <trkpt lat="43.10783333" lon="-7.10985333">
        <ele>924.0</ele>
        <time>2022-06-19T11:00:46.523Z</time>
      </trkpt>
      <trkpt lat="43.10783333" lon="-7.10985333">
        <ele>924.0</ele>
        <time>2022-06-19T11:00:47.499Z</time>
      </trkpt>
      <trkpt lat="43.10781333" lon="-7.10990833">
        <ele>924.0</ele>
        <time>2022-06-19T11:00:48.520Z</time>
      </trkpt>
      <trkpt lat="43.10780667" lon="-7.10992833">
        <ele>924.0</ele>
        <time>2022-06-19T11:00:49.504Z</time>
      </trkpt>
      <trkpt lat="43.10780667" lon="-7.10992833">
        <ele>924.0</ele>
        <time>2022-06-19T11:00:50.508Z</time>
      </trkpt>
      <trkpt lat="43.10779667" lon="-7.10997167">
        <ele>924.0</ele>
        <time>2022-06-19T11:00:51.520Z</time>
      </trkpt>
      <trkpt lat="43.10779167" lon="-7.10999667">
        <ele>925.0</ele>
        <time>2022-06-19T11:00:52.497Z</time>
      </trkpt>
      <trkpt lat="43.10779167" lon="-7.10999667">
        <ele>925.0</ele>
        <time>2022-06-19T11:00:53.506Z</time>
      </trkpt>
      <trkpt lat="43.10778" lon="-7.11004333">
        <ele>925.0</ele>
        <time>2022-06-19T11:00:54.486Z</time>
      </trkpt>
      <trkpt lat="43.10777167" lon="-7.11006667">
        <ele>925.0</ele>
        <time>2022-06-19T11:00:55.524Z</time>
      </trkpt>
      <trkpt lat="43.10777167" lon="-7.11006667">
        <ele>925.0</ele>
        <time>2022-06-19T11:00:56.497Z</time>
      </trkpt>
      <trkpt lat="43.107755" lon="-7.11011167">
        <ele>926.0</ele>
        <time>2022-06-19T11:00:57.525Z</time>
      </trkpt>
      <trkpt lat="43.10774667" lon="-7.11013167">
        <ele>926.0</ele>
        <time>2022-06-19T11:00:58.492Z</time>
      </trkpt>
      <trkpt lat="43.10774667" lon="-7.11013167">
        <ele>926.0</ele>
        <time>2022-06-19T11:00:59.488Z</time>
      </trkpt>
      <trkpt lat="43.107735" lon="-7.11017">
        <ele>926.0</ele>
        <time>2022-06-19T11:01:00.517Z</time>
      </trkpt>
      <trkpt lat="43.107725" lon="-7.110185">
        <ele>927.0</ele>
        <time>2022-06-19T11:01:01.527Z</time>
      </trkpt>
      <trkpt lat="43.107725" lon="-7.110185">
        <ele>927.0</ele>
        <time>2022-06-19T11:01:02.518Z</time>
      </trkpt>
      <trkpt lat="43.10771" lon="-7.11022333">
        <ele>927.0</ele>
        <time>2022-06-19T11:01:03.502Z</time>
      </trkpt>
      <trkpt lat="43.10771" lon="-7.11022333">
        <ele>927.0</ele>
        <time>2022-06-19T11:01:04.506Z</time>
      </trkpt>
      <trkpt lat="43.1077" lon="-7.11026167">
        <ele>928.0</ele>
        <time>2022-06-19T11:01:05.498Z</time>
      </trkpt>
      <trkpt lat="43.1077" lon="-7.11026167">
        <ele>928.0</ele>
        <time>2022-06-19T11:01:06.514Z</time>
      </trkpt>
      <trkpt lat="43.10768667" lon="-7.11031333">
        <ele>928.0</ele>
        <time>2022-06-19T11:01:07.510Z</time>
      </trkpt>
      <trkpt lat="43.10768667" lon="-7.11031333">
        <ele>928.0</ele>
        <time>2022-06-19T11:01:08.513Z</time>
      </trkpt>
      <trkpt lat="43.10767167" lon="-7.11037">
        <ele>929.0</ele>
        <time>2022-06-19T11:01:09.498Z</time>
      </trkpt>
      <trkpt lat="43.10766833" lon="-7.1104">
        <ele>929.0</ele>
        <time>2022-06-19T11:01:10.498Z</time>
      </trkpt>
      <trkpt lat="43.10766833" lon="-7.1104">
        <ele>929.0</ele>
        <time>2022-06-19T11:01:11.486Z</time>
      </trkpt>
      <trkpt lat="43.10765333" lon="-7.110455">
        <ele>929.0</ele>
        <time>2022-06-19T11:01:12.511Z</time>
      </trkpt>
      <trkpt lat="43.10765333" lon="-7.110455">
        <ele>929.0</ele>
        <time>2022-06-19T11:01:13.486Z</time>
      </trkpt>
      <trkpt lat="43.10764167" lon="-7.11049167">
        <ele>930.0</ele>
        <time>2022-06-19T11:01:14.519Z</time>
      </trkpt>
      <trkpt lat="43.10764167" lon="-7.11049167">
        <ele>930.0</ele>
        <time>2022-06-19T11:01:15.506Z</time>
      </trkpt>
      <trkpt lat="43.10763333" lon="-7.110525">
        <ele>931.0</ele>
        <time>2022-06-19T11:01:16.502Z</time>
      </trkpt>
      <trkpt lat="43.10762667" lon="-7.110545">
        <ele>931.0</ele>
        <time>2022-06-19T11:01:17.531Z</time>
      </trkpt>
      <trkpt lat="43.10762667" lon="-7.110545">
        <ele>931.0</ele>
        <time>2022-06-19T11:01:18.524Z</time>
      </trkpt>
      <trkpt lat="43.10761833" lon="-7.11058833">
        <ele>931.0</ele>
        <time>2022-06-19T11:01:19.527Z</time>
      </trkpt>
      <trkpt lat="43.10761167" lon="-7.11061167">
        <ele>931.0</ele>
        <time>2022-06-19T11:01:20.493Z</time>
      </trkpt>
      <trkpt lat="43.10761167" lon="-7.11061167">
        <ele>931.0</ele>
        <time>2022-06-19T11:01:21.507Z</time>
      </trkpt>
      <trkpt lat="43.10760167" lon="-7.110655">
        <ele>932.0</ele>
        <time>2022-06-19T11:01:22.492Z</time>
      </trkpt>
      <trkpt lat="43.10759667" lon="-7.11067667">
        <ele>932.0</ele>
        <time>2022-06-19T11:01:23.515Z</time>
      </trkpt>
      <trkpt lat="43.10759667" lon="-7.11067667">
        <ele>932.0</ele>
        <time>2022-06-19T11:01:24.503Z</time>
      </trkpt>
      <trkpt lat="43.10758333" lon="-7.11072333">
        <ele>932.0</ele>
        <time>2022-06-19T11:01:25.524Z</time>
      </trkpt>
      <trkpt lat="43.10758333" lon="-7.11072333">
        <ele>932.0</ele>
        <time>2022-06-19T11:01:26.507Z</time>
      </trkpt>
      <trkpt lat="43.10757" lon="-7.11077">
        <ele>932.0</ele>
        <time>2022-06-19T11:01:27.496Z</time>
      </trkpt>
      <trkpt lat="43.10757" lon="-7.11077">
        <ele>932.0</ele>
        <time>2022-06-19T11:01:28.506Z</time>
      </trkpt>
      <trkpt lat="43.107555" lon="-7.11081333">
        <ele>932.0</ele>
        <time>2022-06-19T11:01:29.499Z</time>
      </trkpt>
      <trkpt lat="43.10754667" lon="-7.110835">
        <ele>933.0</ele>
        <time>2022-06-19T11:01:30.517Z</time>
      </trkpt>
      <trkpt lat="43.10754667" lon="-7.110835">
        <ele>933.0</ele>
        <time>2022-06-19T11:01:31.525Z</time>
      </trkpt>
      <trkpt lat="43.10753167" lon="-7.11087667">
        <ele>933.0</ele>
        <time>2022-06-19T11:01:32.514Z</time>
      </trkpt>
      <trkpt lat="43.107525" lon="-7.11089833">
        <ele>933.0</ele>
        <time>2022-06-19T11:01:33.522Z</time>
      </trkpt>
      <trkpt lat="43.107525" lon="-7.11089833">
        <ele>933.0</ele>
        <time>2022-06-19T11:01:34.507Z</time>
      </trkpt>
      <trkpt lat="43.10751" lon="-7.11093167">
        <ele>933.0</ele>
        <time>2022-06-19T11:01:35.491Z</time>
      </trkpt>
      <trkpt lat="43.10751" lon="-7.11093167">
        <ele>933.0</ele>
        <time>2022-06-19T11:01:36.509Z</time>
      </trkpt>
      <trkpt lat="43.10749667" lon="-7.11095833">
        <ele>933.0</ele>
        <time>2022-06-19T11:01:37.493Z</time>
      </trkpt>
      <trkpt lat="43.10749667" lon="-7.11095833">
        <ele>933.0</ele>
        <time>2022-06-19T11:01:38.495Z</time>
      </trkpt>
      <trkpt lat="43.10748833" lon="-7.11099">
        <ele>934.0</ele>
        <time>2022-06-19T11:01:39.525Z</time>
      </trkpt>
      <trkpt lat="43.107485" lon="-7.11100167">
        <ele>934.0</ele>
        <time>2022-06-19T11:01:40.524Z</time>
      </trkpt>
      <trkpt lat="43.107485" lon="-7.11100167">
        <ele>934.0</ele>
        <time>2022-06-19T11:01:41.497Z</time>
      </trkpt>
      <trkpt lat="43.10747333" lon="-7.11102833">
        <ele>934.0</ele>
        <time>2022-06-19T11:01:42.486Z</time>
      </trkpt>
      <trkpt lat="43.10746667" lon="-7.11104333">
        <ele>934.0</ele>
        <time>2022-06-19T11:01:43.489Z</time>
      </trkpt>
      <trkpt lat="43.10746667" lon="-7.11104333">
        <ele>934.0</ele>
        <time>2022-06-19T11:01:44.498Z</time>
      </trkpt>
      <trkpt lat="43.10745333" lon="-7.11107167">
        <ele>935.0</ele>
        <time>2022-06-19T11:01:45.513Z</time>
      </trkpt>
      <trkpt lat="43.10745333" lon="-7.11107167">
        <ele>935.0</ele>
        <time>2022-06-19T11:01:46.489Z</time>
      </trkpt>
      <trkpt lat="43.10744667" lon="-7.11109833">
        <ele>936.0</ele>
        <time>2022-06-19T11:01:47.521Z</time>
      </trkpt>
      <trkpt lat="43.10744667" lon="-7.11109833">
        <ele>936.0</ele>
        <time>2022-06-19T11:01:48.503Z</time>
      </trkpt>
      <trkpt lat="43.10743333" lon="-7.11112333">
        <ele>936.0</ele>
        <time>2022-06-19T11:01:49.511Z</time>
      </trkpt>
      <trkpt lat="43.10743333" lon="-7.11112333">
        <ele>936.0</ele>
        <time>2022-06-19T11:01:50.493Z</time>
      </trkpt>
      <trkpt lat="43.107425" lon="-7.11114667">
        <ele>936.0</ele>
        <time>2022-06-19T11:01:51.511Z</time>
      </trkpt>
      <trkpt lat="43.107425" lon="-7.11114667">
        <ele>936.0</ele>
        <time>2022-06-19T11:01:52.506Z</time>
      </trkpt>
      <trkpt lat="43.107415" lon="-7.111175">
        <ele>937.0</ele>
        <time>2022-06-19T11:01:53.493Z</time>
      </trkpt>
      <trkpt lat="43.107415" lon="-7.111175">
        <ele>937.0</ele>
        <time>2022-06-19T11:01:54.508Z</time>
      </trkpt>
      <trkpt lat="43.10740667" lon="-7.11120667">
        <ele>937.0</ele>
        <time>2022-06-19T11:01:55.493Z</time>
      </trkpt>
      <trkpt lat="43.10740667" lon="-7.11120667">
        <ele>937.0</ele>
        <time>2022-06-19T11:01:56.493Z</time>
      </trkpt>
      <trkpt lat="43.10739667" lon="-7.11122833">
        <ele>938.0</ele>
        <time>2022-06-19T11:01:57.498Z</time>
      </trkpt>
      <trkpt lat="43.10739167" lon="-7.11124167">
        <ele>938.0</ele>
        <time>2022-06-19T11:01:58.513Z</time>
      </trkpt>
      <trkpt lat="43.10739167" lon="-7.11124167">
        <ele>938.0</ele>
        <time>2022-06-19T11:01:59.510Z</time>
      </trkpt>
      <trkpt lat="43.10738333" lon="-7.11126833">
        <ele>938.0</ele>
        <time>2022-06-19T11:02:00.513Z</time>
      </trkpt>
      <trkpt lat="43.10738333" lon="-7.11126833">
        <ele>938.0</ele>
        <time>2022-06-19T11:02:01.493Z</time>
      </trkpt>
      <trkpt lat="43.10737333" lon="-7.11130167">
        <ele>939.0</ele>
        <time>2022-06-19T11:02:02.517Z</time>
      </trkpt>
      <trkpt lat="43.10737333" lon="-7.11130167">
        <ele>939.0</ele>
        <time>2022-06-19T11:02:03.490Z</time>
      </trkpt>
      <trkpt lat="43.107365" lon="-7.11132667">
        <ele>939.0</ele>
        <time>2022-06-19T11:02:04.500Z</time>
      </trkpt>
      <trkpt lat="43.10736333" lon="-7.111345">
        <ele>939.0</ele>
        <time>2022-06-19T11:02:05.507Z</time>
      </trkpt>
      <trkpt lat="43.10736333" lon="-7.111345">
        <ele>939.0</ele>
        <time>2022-06-19T11:02:06.487Z</time>
      </trkpt>
      <trkpt lat="43.10735667" lon="-7.11137667">
        <ele>940.0</ele>
        <time>2022-06-19T11:02:07.523Z</time>
      </trkpt>
      <trkpt lat="43.10735" lon="-7.1114">
        <ele>940.0</ele>
        <time>2022-06-19T11:02:08.493Z</time>
      </trkpt>
      <trkpt lat="43.10735" lon="-7.1114">
        <ele>940.0</ele>
        <time>2022-06-19T11:02:09.502Z</time>
      </trkpt>
      <trkpt lat="43.107345" lon="-7.11143667">
        <ele>940.0</ele>
        <time>2022-06-19T11:02:10.520Z</time>
      </trkpt>
      <trkpt lat="43.10733833" lon="-7.11145167">
        <ele>941.0</ele>
        <time>2022-06-19T11:02:11.517Z</time>
      </trkpt>
      <trkpt lat="43.10733833" lon="-7.11145167">
        <ele>941.0</ele>
        <time>2022-06-19T11:02:12.496Z</time>
      </trkpt>
      <trkpt lat="43.10732333" lon="-7.111475">
        <ele>941.0</ele>
        <time>2022-06-19T11:02:13.503Z</time>
      </trkpt>
      <trkpt lat="43.10732333" lon="-7.111475">
        <ele>941.0</ele>
        <time>2022-06-19T11:02:14.517Z</time>
      </trkpt>
      <trkpt lat="43.10731333" lon="-7.1115">
        <ele>941.0</ele>
        <time>2022-06-19T11:02:15.498Z</time>
      </trkpt>
      <trkpt lat="43.107305" lon="-7.11151167">
        <ele>942.0</ele>
        <time>2022-06-19T11:02:16.488Z</time>
      </trkpt>
      <trkpt lat="43.107305" lon="-7.11151167">
        <ele>942.0</ele>
        <time>2022-06-19T11:02:17.498Z</time>
      </trkpt>
      <trkpt lat="43.10728667" lon="-7.11153833">
        <ele>942.0</ele>
        <time>2022-06-19T11:02:18.518Z</time>
      </trkpt>
      <trkpt lat="43.10728" lon="-7.11155167">
        <ele>942.0</ele>
        <time>2022-06-19T11:02:19.521Z</time>
      </trkpt>
      <trkpt lat="43.10728" lon="-7.11155167">
        <ele>942.0</ele>
        <time>2022-06-19T11:02:20.499Z</time>
      </trkpt>
      <trkpt lat="43.10727167" lon="-7.11157333">
        <ele>943.0</ele>
        <time>2022-06-19T11:02:21.525Z</time>
      </trkpt>
      <trkpt lat="43.10726833" lon="-7.11158667">
        <ele>943.0</ele>
        <time>2022-06-19T11:02:22.524Z</time>
      </trkpt>
      <trkpt lat="43.10726833" lon="-7.11158667">
        <ele>943.0</ele>
        <time>2022-06-19T11:02:23.505Z</time>
      </trkpt>
      <trkpt lat="43.107265" lon="-7.11161333">
        <ele>943.0</ele>
        <time>2022-06-19T11:02:24.488Z</time>
      </trkpt>
      <trkpt lat="43.10726" lon="-7.111625">
        <ele>943.0</ele>
        <time>2022-06-19T11:02:25.490Z</time>
      </trkpt>
      <trkpt lat="43.10726" lon="-7.111625">
        <ele>943.0</ele>
        <time>2022-06-19T11:02:26.496Z</time>
      </trkpt>
      <trkpt lat="43.10725167" lon="-7.11165">
        <ele>944.0</ele>
        <time>2022-06-19T11:02:27.496Z</time>
      </trkpt>
      <trkpt lat="43.10724667" lon="-7.11166333">
        <ele>944.0</ele>
        <time>2022-06-19T11:02:28.511Z</time>
      </trkpt>
      <trkpt lat="43.10724667" lon="-7.11166333">
        <ele>944.0</ele>
        <time>2022-06-19T11:02:29.488Z</time>
      </trkpt>
      <trkpt lat="43.10724333" lon="-7.11168833">
        <ele>945.0</ele>
        <time>2022-06-19T11:02:30.489Z</time>
      </trkpt>
      <trkpt lat="43.10724167" lon="-7.11170167">
        <ele>945.0</ele>
        <time>2022-06-19T11:02:31.494Z</time>
      </trkpt>
      <trkpt lat="43.10724167" lon="-7.11170167">
        <ele>945.0</ele>
        <time>2022-06-19T11:02:32.521Z</time>
      </trkpt>
      <trkpt lat="43.10723167" lon="-7.11173">
        <ele>946.0</ele>
        <time>2022-06-19T11:02:33.517Z</time>
      </trkpt>
      <trkpt lat="43.10723167" lon="-7.11173">
        <ele>946.0</ele>
        <time>2022-06-19T11:02:34.501Z</time>
      </trkpt>
      <trkpt lat="43.10722" lon="-7.11175333">
        <ele>946.0</ele>
        <time>2022-06-19T11:02:35.486Z</time>
      </trkpt>
      <trkpt lat="43.10721667" lon="-7.11176833">
        <ele>946.0</ele>
        <time>2022-06-19T11:02:36.518Z</time>
      </trkpt>
      <trkpt lat="43.10721667" lon="-7.11176833">
        <ele>946.0</ele>
        <time>2022-06-19T11:02:37.492Z</time>
      </trkpt>
      <trkpt lat="43.10721" lon="-7.111795">
        <ele>947.0</ele>
        <time>2022-06-19T11:02:38.527Z</time>
      </trkpt>
      <trkpt lat="43.10721" lon="-7.111795">
        <ele>947.0</ele>
        <time>2022-06-19T11:02:39.496Z</time>
      </trkpt>
      <trkpt lat="43.10720167" lon="-7.111825">
        <ele>947.0</ele>
        <time>2022-06-19T11:02:40.486Z</time>
      </trkpt>
      <trkpt lat="43.10720167" lon="-7.111825">
        <ele>947.0</ele>
        <time>2022-06-19T11:02:41.519Z</time>
      </trkpt>
      <trkpt lat="43.10719" lon="-7.11185667">
        <ele>947.0</ele>
        <time>2022-06-19T11:02:42.490Z</time>
      </trkpt>
      <trkpt lat="43.10718833" lon="-7.11187833">
        <ele>947.0</ele>
        <time>2022-06-19T11:02:43.506Z</time>
      </trkpt>
      <trkpt lat="43.10718833" lon="-7.11187833">
        <ele>947.0</ele>
        <time>2022-06-19T11:02:44.522Z</time>
      </trkpt>
      <trkpt lat="43.10717833" lon="-7.11191333">
        <ele>948.0</ele>
        <time>2022-06-19T11:02:45.498Z</time>
      </trkpt>
      <trkpt lat="43.107175" lon="-7.11193333">
        <ele>948.0</ele>
        <time>2022-06-19T11:02:46.505Z</time>
      </trkpt>
      <trkpt lat="43.107175" lon="-7.11193333">
        <ele>948.0</ele>
        <time>2022-06-19T11:02:47.500Z</time>
      </trkpt>
      <trkpt lat="43.10716833" lon="-7.11196">
        <ele>948.0</ele>
        <time>2022-06-19T11:02:48.514Z</time>
      </trkpt>
      <trkpt lat="43.10716167" lon="-7.11197167">
        <ele>948.0</ele>
        <time>2022-06-19T11:02:49.508Z</time>
      </trkpt>
      <trkpt lat="43.10716167" lon="-7.11197167">
        <ele>948.0</ele>
        <time>2022-06-19T11:02:50.500Z</time>
      </trkpt>
      <trkpt lat="43.10715" lon="-7.112">
        <ele>948.0</ele>
        <time>2022-06-19T11:02:51.498Z</time>
      </trkpt>
      <trkpt lat="43.10715" lon="-7.112">
        <ele>948.0</ele>
        <time>2022-06-19T11:02:52.499Z</time>
      </trkpt>
      <trkpt lat="43.10714167" lon="-7.11202167">
        <ele>948.0</ele>
        <time>2022-06-19T11:02:53.521Z</time>
      </trkpt>
      <trkpt lat="43.10714167" lon="-7.11202167">
        <ele>948.0</ele>
        <time>2022-06-19T11:02:54.502Z</time>
      </trkpt>
      <trkpt lat="43.10712833" lon="-7.11205">
        <ele>949.0</ele>
        <time>2022-06-19T11:02:55.522Z</time>
      </trkpt>
      <trkpt lat="43.10712833" lon="-7.11205">
        <ele>949.0</ele>
        <time>2022-06-19T11:02:56.500Z</time>
      </trkpt>
      <trkpt lat="43.107115" lon="-7.11207167">
        <ele>949.0</ele>
        <time>2022-06-19T11:02:57.487Z</time>
      </trkpt>
      <trkpt lat="43.10710833" lon="-7.112085">
        <ele>949.0</ele>
        <time>2022-06-19T11:02:58.511Z</time>
      </trkpt>
      <trkpt lat="43.10710333" lon="-7.11209667">
        <ele>950.0</ele>
        <time>2022-06-19T11:02:59.508Z</time>
      </trkpt>
      <trkpt lat="43.10710333" lon="-7.11209667">
        <ele>950.0</ele>
        <time>2022-06-19T11:03:00.499Z</time>
      </trkpt>
      <trkpt lat="43.107095" lon="-7.11212167">
        <ele>950.0</ele>
        <time>2022-06-19T11:03:01.536Z</time>
      </trkpt>
      <trkpt lat="43.107095" lon="-7.11212167">
        <ele>950.0</ele>
        <time>2022-06-19T11:03:02.494Z</time>
      </trkpt>
      <trkpt lat="43.10708833" lon="-7.11214333">
        <ele>950.0</ele>
        <time>2022-06-19T11:03:03.487Z</time>
      </trkpt>
      <trkpt lat="43.10708833" lon="-7.11214333">
        <ele>950.0</ele>
        <time>2022-06-19T11:03:04.497Z</time>
      </trkpt>
      <trkpt lat="43.10707833" lon="-7.112165">
        <ele>951.0</ele>
        <time>2022-06-19T11:03:05.529Z</time>
      </trkpt>
      <trkpt lat="43.10707833" lon="-7.112165">
        <ele>951.0</ele>
        <time>2022-06-19T11:03:06.504Z</time>
      </trkpt>
      <trkpt lat="43.10706833" lon="-7.112185">
        <ele>951.0</ele>
        <time>2022-06-19T11:03:07.486Z</time>
      </trkpt>
      <trkpt lat="43.10706833" lon="-7.112185">
        <ele>951.0</ele>
        <time>2022-06-19T11:03:08.508Z</time>
      </trkpt>
      <trkpt lat="43.10705833" lon="-7.11220833">
        <ele>951.0</ele>
        <time>2022-06-19T11:03:09.497Z</time>
      </trkpt>
      <trkpt lat="43.10705833" lon="-7.11220833">
        <ele>951.0</ele>
        <time>2022-06-19T11:03:10.520Z</time>
      </trkpt>
      <trkpt lat="43.10705" lon="-7.11223167">
        <ele>952.0</ele>
        <time>2022-06-19T11:03:11.506Z</time>
      </trkpt>
      <trkpt lat="43.10704833" lon="-7.11224333">
        <ele>952.0</ele>
        <time>2022-06-19T11:03:12.514Z</time>
      </trkpt>
      <trkpt lat="43.10704667" lon="-7.112255">
        <ele>952.0</ele>
        <time>2022-06-19T11:03:13.525Z</time>
      </trkpt>
      <trkpt lat="43.10704667" lon="-7.112255">
        <ele>952.0</ele>
        <time>2022-06-19T11:03:14.510Z</time>
      </trkpt>
      <trkpt lat="43.10704167" lon="-7.11227833">
        <ele>953.0</ele>
        <time>2022-06-19T11:03:15.508Z</time>
      </trkpt>
      <trkpt lat="43.10704167" lon="-7.11227833">
        <ele>953.0</ele>
        <time>2022-06-19T11:03:16.516Z</time>
      </trkpt>
      <trkpt lat="43.10703" lon="-7.11231">
        <ele>953.0</ele>
        <time>2022-06-19T11:03:17.487Z</time>
      </trkpt>
      <trkpt lat="43.107025" lon="-7.11233">
        <ele>953.0</ele>
        <time>2022-06-19T11:03:18.486Z</time>
      </trkpt>
      <trkpt lat="43.107015" lon="-7.11234167">
        <ele>953.0</ele>
        <time>2022-06-19T11:03:19.487Z</time>
      </trkpt>
      <trkpt lat="43.107015" lon="-7.11234167">
        <ele>953.0</ele>
        <time>2022-06-19T11:03:20.499Z</time>
      </trkpt>
      <trkpt lat="43.10701167" lon="-7.11235833">
        <ele>953.0</ele>
        <time>2022-06-19T11:03:21.513Z</time>
      </trkpt>
      <trkpt lat="43.10701167" lon="-7.11235833">
        <ele>953.0</ele>
        <time>2022-06-19T11:03:22.490Z</time>
      </trkpt>
      <trkpt lat="43.10700667" lon="-7.11238667">
        <ele>954.0</ele>
        <time>2022-06-19T11:03:23.517Z</time>
      </trkpt>
      <trkpt lat="43.10700667" lon="-7.11238667">
        <ele>954.0</ele>
        <time>2022-06-19T11:03:24.503Z</time>
      </trkpt>
      <trkpt lat="43.107" lon="-7.11241">
        <ele>954.0</ele>
        <time>2022-06-19T11:03:25.525Z</time>
      </trkpt>
      <trkpt lat="43.10699333" lon="-7.11242">
        <ele>955.0</ele>
        <time>2022-06-19T11:03:26.488Z</time>
      </trkpt>
      <trkpt lat="43.10699333" lon="-7.11242">
        <ele>955.0</ele>
        <time>2022-06-19T11:03:27.488Z</time>
      </trkpt>
      <trkpt lat="43.10697833" lon="-7.11244">
        <ele>955.0</ele>
        <time>2022-06-19T11:03:28.521Z</time>
      </trkpt>
      <trkpt lat="43.10697833" lon="-7.11244">
        <ele>955.0</ele>
        <time>2022-06-19T11:03:29.506Z</time>
      </trkpt>
      <trkpt lat="43.10697167" lon="-7.112465">
        <ele>956.0</ele>
        <time>2022-06-19T11:03:30.493Z</time>
      </trkpt>
      <trkpt lat="43.10696833" lon="-7.11247333">
        <ele>956.0</ele>
        <time>2022-06-19T11:03:31.521Z</time>
      </trkpt>
      <trkpt lat="43.10696833" lon="-7.11247333">
        <ele>956.0</ele>
        <time>2022-06-19T11:03:32.505Z</time>
      </trkpt>
      <trkpt lat="43.10695833" lon="-7.11249167">
        <ele>956.0</ele>
        <time>2022-06-19T11:03:33.487Z</time>
      </trkpt>
      <trkpt lat="43.106955" lon="-7.11249667">
        <ele>956.0</ele>
        <time>2022-06-19T11:03:34.509Z</time>
      </trkpt>
      <trkpt lat="43.106955" lon="-7.11249667">
        <ele>956.0</ele>
        <time>2022-06-19T11:03:35.488Z</time>
      </trkpt>
      <trkpt lat="43.10695" lon="-7.11252">
        <ele>957.0</ele>
        <time>2022-06-19T11:03:36.517Z</time>
      </trkpt>
      <trkpt lat="43.10694833" lon="-7.11253">
        <ele>957.0</ele>
        <time>2022-06-19T11:03:37.525Z</time>
      </trkpt>
      <trkpt lat="43.10694833" lon="-7.11253">
        <ele>957.0</ele>
        <time>2022-06-19T11:03:38.504Z</time>
      </trkpt>
      <trkpt lat="43.10693667" lon="-7.11255">
        <ele>957.0</ele>
        <time>2022-06-19T11:03:39.524Z</time>
      </trkpt>
      <trkpt lat="43.10693667" lon="-7.11255">
        <ele>957.0</ele>
        <time>2022-06-19T11:03:40.500Z</time>
      </trkpt>
      <trkpt lat="43.10692833" lon="-7.11257167">
        <ele>957.0</ele>
        <time>2022-06-19T11:03:41.528Z</time>
      </trkpt>
      <trkpt lat="43.10692833" lon="-7.11257167">
        <ele>957.0</ele>
        <time>2022-06-19T11:03:42.506Z</time>
      </trkpt>
      <trkpt lat="43.106915" lon="-7.1126">
        <ele>958.0</ele>
        <time>2022-06-19T11:03:43.521Z</time>
      </trkpt>
      <trkpt lat="43.106915" lon="-7.1126">
        <ele>958.0</ele>
        <time>2022-06-19T11:03:44.489Z</time>
      </trkpt>
      <trkpt lat="43.10690167" lon="-7.11262667">
        <ele>958.0</ele>
        <time>2022-06-19T11:03:45.509Z</time>
      </trkpt>
      <trkpt lat="43.10690167" lon="-7.11262667">
        <ele>958.0</ele>
        <time>2022-06-19T11:03:46.488Z</time>
      </trkpt>
      <trkpt lat="43.10688833" lon="-7.112655">
        <ele>959.0</ele>
        <time>2022-06-19T11:03:47.513Z</time>
      </trkpt>
      <trkpt lat="43.10688833" lon="-7.112655">
        <ele>959.0</ele>
        <time>2022-06-19T11:03:48.489Z</time>
      </trkpt>
      <trkpt lat="43.10688167" lon="-7.11269667">
        <ele>959.0</ele>
        <time>2022-06-19T11:03:49.488Z</time>
      </trkpt>
      <trkpt lat="43.10688167" lon="-7.11269667">
        <ele>959.0</ele>
        <time>2022-06-19T11:03:50.513Z</time>
      </trkpt>
      <trkpt lat="43.106875" lon="-7.112725">
        <ele>960.0</ele>
        <time>2022-06-19T11:03:51.520Z</time>
      </trkpt>
      <trkpt lat="43.106875" lon="-7.112725">
        <ele>960.0</ele>
        <time>2022-06-19T11:03:52.511Z</time>
      </trkpt>
      <trkpt lat="43.10686333" lon="-7.11275167">
        <ele>960.0</ele>
        <time>2022-06-19T11:03:53.523Z</time>
      </trkpt>
      <trkpt lat="43.10686333" lon="-7.11275167">
        <ele>960.0</ele>
        <time>2022-06-19T11:03:54.504Z</time>
      </trkpt>
      <trkpt lat="43.10685333" lon="-7.11277833">
        <ele>960.0</ele>
        <time>2022-06-19T11:03:55.496Z</time>
      </trkpt>
      <trkpt lat="43.10685333" lon="-7.11277833">
        <ele>960.0</ele>
        <time>2022-06-19T11:03:56.508Z</time>
      </trkpt>
      <trkpt lat="43.10684" lon="-7.11280833">
        <ele>960.0</ele>
        <time>2022-06-19T11:03:57.505Z</time>
      </trkpt>
      <trkpt lat="43.106835" lon="-7.11282167">
        <ele>961.0</ele>
        <time>2022-06-19T11:03:58.487Z</time>
      </trkpt>
      <trkpt lat="43.106835" lon="-7.11282167">
        <ele>961.0</ele>
        <time>2022-06-19T11:03:59.500Z</time>
      </trkpt>
      <trkpt lat="43.10682167" lon="-7.11285167">
        <ele>961.0</ele>
        <time>2022-06-19T11:04:00.517Z</time>
      </trkpt>
      <trkpt lat="43.10681667" lon="-7.11286667">
        <ele>961.0</ele>
        <time>2022-06-19T11:04:01.506Z</time>
      </trkpt>
      <trkpt lat="43.10681667" lon="-7.11286667">
        <ele>961.0</ele>
        <time>2022-06-19T11:04:02.494Z</time>
      </trkpt>
      <trkpt lat="43.10680667" lon="-7.112895">
        <ele>961.0</ele>
        <time>2022-06-19T11:04:03.491Z</time>
      </trkpt>
      <trkpt lat="43.10680667" lon="-7.112895">
        <ele>961.0</ele>
        <time>2022-06-19T11:04:04.503Z</time>
      </trkpt>
      <trkpt lat="43.106795" lon="-7.112925">
        <ele>961.0</ele>
        <time>2022-06-19T11:04:05.527Z</time>
      </trkpt>
      <trkpt lat="43.106795" lon="-7.112925">
        <ele>961.0</ele>
        <time>2022-06-19T11:04:06.497Z</time>
      </trkpt>
      <trkpt lat="43.10678167" lon="-7.11296333">
        <ele>961.0</ele>
        <time>2022-06-19T11:04:07.525Z</time>
      </trkpt>
      <trkpt lat="43.10678167" lon="-7.11296333">
        <ele>961.0</ele>
        <time>2022-06-19T11:04:08.497Z</time>
      </trkpt>
      <trkpt lat="43.10676333" lon="-7.11299667">
        <ele>962.0</ele>
        <time>2022-06-19T11:04:09.518Z</time>
      </trkpt>
      <trkpt lat="43.10675667" lon="-7.11301667">
        <ele>962.0</ele>
        <time>2022-06-19T11:04:10.524Z</time>
      </trkpt>
      <trkpt lat="43.10675667" lon="-7.11301667">
        <ele>962.0</ele>
        <time>2022-06-19T11:04:11.499Z</time>
      </trkpt>
      <trkpt lat="43.10674667" lon="-7.11305833">
        <ele>962.0</ele>
        <time>2022-06-19T11:04:12.526Z</time>
      </trkpt>
      <trkpt lat="43.10674" lon="-7.11307833">
        <ele>962.0</ele>
        <time>2022-06-19T11:04:13.507Z</time>
      </trkpt>
      <trkpt lat="43.10674" lon="-7.11307833">
        <ele>962.0</ele>
        <time>2022-06-19T11:04:14.497Z</time>
      </trkpt>
      <trkpt lat="43.10672" lon="-7.11312167">
        <ele>962.0</ele>
        <time>2022-06-19T11:04:15.496Z</time>
      </trkpt>
      <trkpt lat="43.106715" lon="-7.11314833">
        <ele>962.0</ele>
        <time>2022-06-19T11:04:16.495Z</time>
      </trkpt>
      <trkpt lat="43.106715" lon="-7.11314833">
        <ele>962.0</ele>
        <time>2022-06-19T11:04:17.487Z</time>
      </trkpt>
      <trkpt lat="43.10670167" lon="-7.11319833">
        <ele>962.0</ele>
        <time>2022-06-19T11:04:18.513Z</time>
      </trkpt>
      <trkpt lat="43.10669333" lon="-7.113225">
        <ele>963.0</ele>
        <time>2022-06-19T11:04:19.501Z</time>
      </trkpt>
      <trkpt lat="43.106685" lon="-7.11326">
        <ele>963.0</ele>
        <time>2022-06-19T11:04:20.512Z</time>
      </trkpt>
      <trkpt lat="43.106685" lon="-7.11326">
        <ele>963.0</ele>
        <time>2022-06-19T11:04:21.500Z</time>
      </trkpt>
      <trkpt lat="43.10667" lon="-7.11331833">
        <ele>963.0</ele>
        <time>2022-06-19T11:04:22.524Z</time>
      </trkpt>
      <trkpt lat="43.10666167" lon="-7.11334333">
        <ele>963.0</ele>
        <time>2022-06-19T11:04:23.517Z</time>
      </trkpt>
      <trkpt lat="43.10665333" lon="-7.113365">
        <ele>963.0</ele>
        <time>2022-06-19T11:04:24.520Z</time>
      </trkpt>
      <trkpt lat="43.10665333" lon="-7.113365">
        <ele>963.0</ele>
        <time>2022-06-19T11:04:25.494Z</time>
      </trkpt>
      <trkpt lat="43.106625" lon="-7.113425">
        <ele>963.0</ele>
        <time>2022-06-19T11:04:26.522Z</time>
      </trkpt>
      <trkpt lat="43.10661167" lon="-7.113455">
        <ele>963.0</ele>
        <time>2022-06-19T11:04:27.497Z</time>
      </trkpt>
      <trkpt lat="43.1066" lon="-7.11349167">
        <ele>963.0</ele>
        <time>2022-06-19T11:04:28.492Z</time>
      </trkpt>
      <trkpt lat="43.1066" lon="-7.11349167">
        <ele>963.0</ele>
        <time>2022-06-19T11:04:29.520Z</time>
      </trkpt>
      <trkpt lat="43.10657833" lon="-7.11355">
        <ele>962.0</ele>
        <time>2022-06-19T11:04:30.503Z</time>
      </trkpt>
      <trkpt lat="43.10657833" lon="-7.11355">
        <ele>962.0</ele>
        <time>2022-06-19T11:04:31.521Z</time>
      </trkpt>
      <trkpt lat="43.10654833" lon="-7.11359167">
        <ele>963.0</ele>
        <time>2022-06-19T11:04:32.492Z</time>
      </trkpt>
      <trkpt lat="43.10653333" lon="-7.11361833">
        <ele>963.0</ele>
        <time>2022-06-19T11:04:33.520Z</time>
      </trkpt>
      <trkpt lat="43.10653333" lon="-7.11361833">
        <ele>963.0</ele>
        <time>2022-06-19T11:04:34.506Z</time>
      </trkpt>
      <trkpt lat="43.10649833" lon="-7.11367667">
        <ele>962.0</ele>
        <time>2022-06-19T11:04:35.491Z</time>
      </trkpt>
      <trkpt lat="43.10649833" lon="-7.11367667">
        <ele>962.0</ele>
        <time>2022-06-19T11:04:36.511Z</time>
      </trkpt>
      <trkpt lat="43.10646" lon="-7.113745">
        <ele>962.0</ele>
        <time>2022-06-19T11:04:37.504Z</time>
      </trkpt>
      <trkpt lat="43.10646" lon="-7.113745">
        <ele>962.0</ele>
        <time>2022-06-19T11:04:38.519Z</time>
      </trkpt>
      <trkpt lat="43.10643167" lon="-7.11382833">
        <ele>962.0</ele>
        <time>2022-06-19T11:04:39.514Z</time>
      </trkpt>
      <trkpt lat="43.10643167" lon="-7.11382833">
        <ele>962.0</ele>
        <time>2022-06-19T11:04:40.524Z</time>
      </trkpt>
      <trkpt lat="43.10640833" lon="-7.11392">
        <ele>962.0</ele>
        <time>2022-06-19T11:04:41.511Z</time>
      </trkpt>
      <trkpt lat="43.10640833" lon="-7.11392">
        <ele>962.0</ele>
        <time>2022-06-19T11:04:42.525Z</time>
      </trkpt>
      <trkpt lat="43.10639333" lon="-7.11401333">
        <ele>962.0</ele>
        <time>2022-06-19T11:04:43.515Z</time>
      </trkpt>
      <trkpt lat="43.10639333" lon="-7.11401333">
        <ele>962.0</ele>
        <time>2022-06-19T11:04:44.513Z</time>
      </trkpt>
      <trkpt lat="43.10638" lon="-7.11410833">
        <ele>962.0</ele>
        <time>2022-06-19T11:04:45.498Z</time>
      </trkpt>
      <trkpt lat="43.10638" lon="-7.11410833">
        <ele>962.0</ele>
        <time>2022-06-19T11:04:46.509Z</time>
      </trkpt>
      <trkpt lat="43.106365" lon="-7.11420833">
        <ele>962.0</ele>
        <time>2022-06-19T11:04:47.501Z</time>
      </trkpt>
      <trkpt lat="43.10636" lon="-7.11425667">
        <ele>962.0</ele>
        <time>2022-06-19T11:04:48.487Z</time>
      </trkpt>
      <trkpt lat="43.10635333" lon="-7.11430667">
        <ele>962.0</ele>
        <time>2022-06-19T11:04:49.497Z</time>
      </trkpt>
      <trkpt lat="43.10635333" lon="-7.11430667">
        <ele>962.0</ele>
        <time>2022-06-19T11:04:50.495Z</time>
      </trkpt>
      <trkpt lat="43.10634" lon="-7.11440833">
        <ele>962.0</ele>
        <time>2022-06-19T11:04:51.487Z</time>
      </trkpt>
      <trkpt lat="43.10634" lon="-7.11440833">
        <ele>962.0</ele>
        <time>2022-06-19T11:04:52.494Z</time>
      </trkpt>
      <trkpt lat="43.10632667" lon="-7.11451">
        <ele>962.0</ele>
        <time>2022-06-19T11:04:53.522Z</time>
      </trkpt>
      <trkpt lat="43.10632" lon="-7.11456">
        <ele>962.0</ele>
        <time>2022-06-19T11:04:54.507Z</time>
      </trkpt>
      <trkpt lat="43.106315" lon="-7.11461167">
        <ele>962.0</ele>
        <time>2022-06-19T11:04:55.511Z</time>
      </trkpt>
      <trkpt lat="43.106315" lon="-7.11461167">
        <ele>962.0</ele>
        <time>2022-06-19T11:04:56.501Z</time>
      </trkpt>
      <trkpt lat="43.10630167" lon="-7.11471">
        <ele>962.0</ele>
        <time>2022-06-19T11:04:57.497Z</time>
      </trkpt>
      <trkpt lat="43.106295" lon="-7.11475833">
        <ele>962.0</ele>
        <time>2022-06-19T11:04:58.492Z</time>
      </trkpt>
      <trkpt lat="43.106295" lon="-7.11475833">
        <ele>962.0</ele>
        <time>2022-06-19T11:04:59.507Z</time>
      </trkpt>
      <trkpt lat="43.106285" lon="-7.11485333">
        <ele>962.0</ele>
        <time>2022-06-19T11:05:00.496Z</time>
      </trkpt>
      <trkpt lat="43.106285" lon="-7.11485333">
        <ele>962.0</ele>
        <time>2022-06-19T11:05:01.499Z</time>
      </trkpt>
      <trkpt lat="43.106275" lon="-7.114955">
        <ele>962.0</ele>
        <time>2022-06-19T11:05:02.513Z</time>
      </trkpt>
      <trkpt lat="43.10627" lon="-7.11500667">
        <ele>962.0</ele>
        <time>2022-06-19T11:05:03.500Z</time>
      </trkpt>
      <trkpt lat="43.10627" lon="-7.11500667">
        <ele>962.0</ele>
        <time>2022-06-19T11:05:04.489Z</time>
      </trkpt>
      <trkpt lat="43.10626" lon="-7.11511">
        <ele>962.0</ele>
        <time>2022-06-19T11:05:05.514Z</time>
      </trkpt>
      <trkpt lat="43.10626" lon="-7.11511">
        <ele>962.0</ele>
        <time>2022-06-19T11:05:06.510Z</time>
      </trkpt>
      <trkpt lat="43.10625167" lon="-7.115215">
        <ele>962.0</ele>
        <time>2022-06-19T11:05:07.508Z</time>
      </trkpt>
      <trkpt lat="43.10625167" lon="-7.115215">
        <ele>962.0</ele>
        <time>2022-06-19T11:05:08.489Z</time>
      </trkpt>
      <trkpt lat="43.10623833" lon="-7.11531667">
        <ele>962.0</ele>
        <time>2022-06-19T11:05:09.527Z</time>
      </trkpt>
      <trkpt lat="43.10623833" lon="-7.11531667">
        <ele>962.0</ele>
        <time>2022-06-19T11:05:10.515Z</time>
      </trkpt>
      <trkpt lat="43.10622667" lon="-7.11541833">
        <ele>961.0</ele>
        <time>2022-06-19T11:05:11.515Z</time>
      </trkpt>
      <trkpt lat="43.10622667" lon="-7.11541833">
        <ele>961.0</ele>
        <time>2022-06-19T11:05:12.510Z</time>
      </trkpt>
      <trkpt lat="43.10621167" lon="-7.11551667">
        <ele>961.0</ele>
        <time>2022-06-19T11:05:13.487Z</time>
      </trkpt>
      <trkpt lat="43.10621167" lon="-7.11551667">
        <ele>961.0</ele>
        <time>2022-06-19T11:05:14.511Z</time>
      </trkpt>
      <trkpt lat="43.10619667" lon="-7.11562167">
        <ele>961.0</ele>
        <time>2022-06-19T11:05:15.502Z</time>
      </trkpt>
      <trkpt lat="43.10619667" lon="-7.11562167">
        <ele>961.0</ele>
        <time>2022-06-19T11:05:16.521Z</time>
      </trkpt>
      <trkpt lat="43.10618167" lon="-7.11573833">
        <ele>961.0</ele>
        <time>2022-06-19T11:05:17.504Z</time>
      </trkpt>
      <trkpt lat="43.10618167" lon="-7.11573833">
        <ele>961.0</ele>
        <time>2022-06-19T11:05:18.512Z</time>
      </trkpt>
      <trkpt lat="43.10616667" lon="-7.11587">
        <ele>960.0</ele>
        <time>2022-06-19T11:05:19.512Z</time>
      </trkpt>
      <trkpt lat="43.10616667" lon="-7.11587">
        <ele>960.0</ele>
        <time>2022-06-19T11:05:20.514Z</time>
      </trkpt>
      <trkpt lat="43.10614667" lon="-7.11602">
        <ele>959.0</ele>
        <time>2022-06-19T11:05:21.501Z</time>
      </trkpt>
      <trkpt lat="43.10614667" lon="-7.11602">
        <ele>959.0</ele>
        <time>2022-06-19T11:05:22.489Z</time>
      </trkpt>
      <trkpt lat="43.10610833" lon="-7.11618167">
        <ele>958.0</ele>
        <time>2022-06-19T11:05:23.514Z</time>
      </trkpt>
      <trkpt lat="43.10608" lon="-7.116265">
        <ele>957.0</ele>
        <time>2022-06-19T11:05:24.499Z</time>
      </trkpt>
      <trkpt lat="43.10608" lon="-7.116265">
        <ele>957.0</ele>
        <time>2022-06-19T11:05:25.514Z</time>
      </trkpt>
      <trkpt lat="43.10602" lon="-7.11643833">
        <ele>956.0</ele>
        <time>2022-06-19T11:05:26.496Z</time>
      </trkpt>
      <trkpt lat="43.10602" lon="-7.11643833">
        <ele>956.0</ele>
        <time>2022-06-19T11:05:27.521Z</time>
      </trkpt>
      <trkpt lat="43.105965" lon="-7.11662">
        <ele>955.0</ele>
        <time>2022-06-19T11:05:28.514Z</time>
      </trkpt>
      <trkpt lat="43.105965" lon="-7.11662">
        <ele>955.0</ele>
        <time>2022-06-19T11:05:29.506Z</time>
      </trkpt>
      <trkpt lat="43.10592167" lon="-7.1168">
        <ele>954.0</ele>
        <time>2022-06-19T11:05:30.496Z</time>
      </trkpt>
      <trkpt lat="43.105905" lon="-7.11688833">
        <ele>954.0</ele>
        <time>2022-06-19T11:05:31.522Z</time>
      </trkpt>
      <trkpt lat="43.10589167" lon="-7.11696833">
        <ele>954.0</ele>
        <time>2022-06-19T11:05:32.527Z</time>
      </trkpt>
      <trkpt lat="43.10589167" lon="-7.11696833">
        <ele>954.0</ele>
        <time>2022-06-19T11:05:33.499Z</time>
      </trkpt>
      <trkpt lat="43.10587333" lon="-7.117065">
        <ele>954.0</ele>
        <time>2022-06-19T11:05:34.491Z</time>
      </trkpt>
      <trkpt lat="43.10587333" lon="-7.117065">
        <ele>954.0</ele>
        <time>2022-06-19T11:05:35.509Z</time>
      </trkpt>
      <trkpt lat="43.10585167" lon="-7.117135">
        <ele>953.0</ele>
        <time>2022-06-19T11:05:36.489Z</time>
      </trkpt>
      <trkpt lat="43.10584" lon="-7.11718">
        <ele>953.0</ele>
        <time>2022-06-19T11:05:37.495Z</time>
      </trkpt>
      <trkpt lat="43.10584" lon="-7.11718">
        <ele>953.0</ele>
        <time>2022-06-19T11:05:38.518Z</time>
      </trkpt>
      <trkpt lat="43.10581" lon="-7.11728333">
        <ele>953.0</ele>
        <time>2022-06-19T11:05:39.499Z</time>
      </trkpt>
      <trkpt lat="43.10581" lon="-7.11728333">
        <ele>953.0</ele>
        <time>2022-06-19T11:05:40.518Z</time>
      </trkpt>
      <trkpt lat="43.10577167" lon="-7.11740167">
        <ele>952.0</ele>
        <time>2022-06-19T11:05:41.509Z</time>
      </trkpt>
      <trkpt lat="43.10577167" lon="-7.11740167">
        <ele>952.0</ele>
        <time>2022-06-19T11:05:42.509Z</time>
      </trkpt>
      <trkpt lat="43.10572333" lon="-7.117525">
        <ele>951.0</ele>
        <time>2022-06-19T11:05:43.506Z</time>
      </trkpt>
      <trkpt lat="43.10572333" lon="-7.117525">
        <ele>951.0</ele>
        <time>2022-06-19T11:05:44.500Z</time>
      </trkpt>
      <trkpt lat="43.10567333" lon="-7.117655">
        <ele>951.0</ele>
        <time>2022-06-19T11:05:45.501Z</time>
      </trkpt>
      <trkpt lat="43.10567333" lon="-7.117655">
        <ele>951.0</ele>
        <time>2022-06-19T11:05:46.500Z</time>
      </trkpt>
      <trkpt lat="43.10562667" lon="-7.11778333">
        <ele>950.0</ele>
        <time>2022-06-19T11:05:47.522Z</time>
      </trkpt>
      <trkpt lat="43.10560667" lon="-7.11783167">
        <ele>950.0</ele>
        <time>2022-06-19T11:05:48.487Z</time>
      </trkpt>
      <trkpt lat="43.10560667" lon="-7.11783167">
        <ele>950.0</ele>
        <time>2022-06-19T11:05:49.523Z</time>
      </trkpt>
      <trkpt lat="43.10556667" lon="-7.11789333">
        <ele>949.0</ele>
        <time>2022-06-19T11:05:50.522Z</time>
      </trkpt>
      <trkpt lat="43.105555" lon="-7.117925">
        <ele>949.0</ele>
        <time>2022-06-19T11:05:51.511Z</time>
      </trkpt>
      <trkpt lat="43.105555" lon="-7.117925">
        <ele>949.0</ele>
        <time>2022-06-19T11:05:52.489Z</time>
      </trkpt>
      <trkpt lat="43.10552833" lon="-7.11801667">
        <ele>949.0</ele>
        <time>2022-06-19T11:05:53.505Z</time>
      </trkpt>
      <trkpt lat="43.10552833" lon="-7.11801667">
        <ele>949.0</ele>
        <time>2022-06-19T11:05:54.509Z</time>
      </trkpt>
      <trkpt lat="43.105485" lon="-7.118135">
        <ele>948.0</ele>
        <time>2022-06-19T11:05:55.493Z</time>
      </trkpt>
      <trkpt lat="43.105485" lon="-7.118135">
        <ele>948.0</ele>
        <time>2022-06-19T11:05:56.501Z</time>
      </trkpt>
      <trkpt lat="43.10543833" lon="-7.118265">
        <ele>947.0</ele>
        <time>2022-06-19T11:05:57.491Z</time>
      </trkpt>
      <trkpt lat="43.10541167" lon="-7.11833333">
        <ele>946.0</ele>
        <time>2022-06-19T11:05:58.500Z</time>
      </trkpt>
      <trkpt lat="43.10541167" lon="-7.11833333">
        <ele>946.0</ele>
        <time>2022-06-19T11:05:59.511Z</time>
      </trkpt>
      <trkpt lat="43.10536" lon="-7.11848333">
        <ele>945.0</ele>
        <time>2022-06-19T11:06:00.493Z</time>
      </trkpt>
      <trkpt lat="43.10536" lon="-7.11848333">
        <ele>945.0</ele>
        <time>2022-06-19T11:06:01.508Z</time>
      </trkpt>
      <trkpt lat="43.10530167" lon="-7.11864">
        <ele>944.0</ele>
        <time>2022-06-19T11:06:02.497Z</time>
      </trkpt>
      <trkpt lat="43.10530167" lon="-7.11864">
        <ele>944.0</ele>
        <time>2022-06-19T11:06:03.518Z</time>
      </trkpt>
      <trkpt lat="43.10524667" lon="-7.11879833">
        <ele>943.0</ele>
        <time>2022-06-19T11:06:04.521Z</time>
      </trkpt>
      <trkpt lat="43.10524667" lon="-7.11879833">
        <ele>943.0</ele>
        <time>2022-06-19T11:06:05.516Z</time>
      </trkpt>
      <trkpt lat="43.10521333" lon="-7.11889333">
        <ele>942.0</ele>
        <time>2022-06-19T11:06:06.503Z</time>
      </trkpt>
      <trkpt lat="43.10519667" lon="-7.11893">
        <ele>942.0</ele>
        <time>2022-06-19T11:06:07.498Z</time>
      </trkpt>
      <trkpt lat="43.10519667" lon="-7.11893">
        <ele>942.0</ele>
        <time>2022-06-19T11:06:08.519Z</time>
      </trkpt>
      <trkpt lat="43.10516333" lon="-7.11901667">
        <ele>942.0</ele>
        <time>2022-06-19T11:06:09.508Z</time>
      </trkpt>
      <trkpt lat="43.105145" lon="-7.11906333">
        <ele>942.0</ele>
        <time>2022-06-19T11:06:10.501Z</time>
      </trkpt>
      <trkpt lat="43.105145" lon="-7.11906333">
        <ele>942.0</ele>
        <time>2022-06-19T11:06:11.489Z</time>
      </trkpt>
      <trkpt lat="43.10510167" lon="-7.11916667">
        <ele>941.0</ele>
        <time>2022-06-19T11:06:12.486Z</time>
      </trkpt>
      <trkpt lat="43.10508" lon="-7.11922">
        <ele>941.0</ele>
        <time>2022-06-19T11:06:13.509Z</time>
      </trkpt>
      <trkpt lat="43.10508" lon="-7.11922">
        <ele>941.0</ele>
        <time>2022-06-19T11:06:14.499Z</time>
      </trkpt>
      <trkpt lat="43.10503667" lon="-7.11933333">
        <ele>941.0</ele>
        <time>2022-06-19T11:06:15.507Z</time>
      </trkpt>
      <trkpt lat="43.105015" lon="-7.11939">
        <ele>941.0</ele>
        <time>2022-06-19T11:06:16.521Z</time>
      </trkpt>
      <trkpt lat="43.10499333" lon="-7.119445">
        <ele>941.0</ele>
        <time>2022-06-19T11:06:17.515Z</time>
      </trkpt>
      <trkpt lat="43.10499333" lon="-7.119445">
        <ele>941.0</ele>
        <time>2022-06-19T11:06:18.492Z</time>
      </trkpt>
      <trkpt lat="43.10495" lon="-7.119555">
        <ele>940.0</ele>
        <time>2022-06-19T11:06:19.509Z</time>
      </trkpt>
      <trkpt lat="43.10495" lon="-7.119555">
        <ele>940.0</ele>
        <time>2022-06-19T11:06:20.500Z</time>
      </trkpt>
      <trkpt lat="43.10490833" lon="-7.11966333">
        <ele>940.0</ele>
        <time>2022-06-19T11:06:21.492Z</time>
      </trkpt>
      <trkpt lat="43.10490833" lon="-7.11966333">
        <ele>940.0</ele>
        <time>2022-06-19T11:06:22.516Z</time>
      </trkpt>
      <trkpt lat="43.10486667" lon="-7.11976667">
        <ele>940.0</ele>
        <time>2022-06-19T11:06:23.491Z</time>
      </trkpt>
      <trkpt lat="43.10484667" lon="-7.11981833">
        <ele>940.0</ele>
        <time>2022-06-19T11:06:24.497Z</time>
      </trkpt>
      <trkpt lat="43.10482667" lon="-7.11987">
        <ele>940.0</ele>
        <time>2022-06-19T11:06:25.506Z</time>
      </trkpt>
      <trkpt lat="43.10482667" lon="-7.11987">
        <ele>940.0</ele>
        <time>2022-06-19T11:06:26.507Z</time>
      </trkpt>
      <trkpt lat="43.10478667" lon="-7.11997333">
        <ele>940.0</ele>
        <time>2022-06-19T11:06:27.505Z</time>
      </trkpt>
      <trkpt lat="43.10476833" lon="-7.12002333">
        <ele>940.0</ele>
        <time>2022-06-19T11:06:28.518Z</time>
      </trkpt>
      <trkpt lat="43.10476833" lon="-7.12002333">
        <ele>940.0</ele>
        <time>2022-06-19T11:06:29.490Z</time>
      </trkpt>
      <trkpt lat="43.10473333" lon="-7.12008667">
        <ele>940.0</ele>
        <time>2022-06-19T11:06:30.517Z</time>
      </trkpt>
      <trkpt lat="43.10473333" lon="-7.12008667">
        <ele>940.0</ele>
        <time>2022-06-19T11:06:31.490Z</time>
      </trkpt>
      <trkpt lat="43.10471167" lon="-7.120145">
        <ele>940.0</ele>
        <time>2022-06-19T11:06:32.486Z</time>
      </trkpt>
      <trkpt lat="43.10470167" lon="-7.12017667">
        <ele>940.0</ele>
        <time>2022-06-19T11:06:33.498Z</time>
      </trkpt>
      <trkpt lat="43.10470167" lon="-7.12017667">
        <ele>940.0</ele>
        <time>2022-06-19T11:06:34.510Z</time>
      </trkpt>
      <trkpt lat="43.10468" lon="-7.12024333">
        <ele>940.0</ele>
        <time>2022-06-19T11:06:35.517Z</time>
      </trkpt>
      <trkpt lat="43.10466667" lon="-7.12027667">
        <ele>940.0</ele>
        <time>2022-06-19T11:06:36.516Z</time>
      </trkpt>
      <trkpt lat="43.10466667" lon="-7.12027667">
        <ele>940.0</ele>
        <time>2022-06-19T11:06:37.500Z</time>
      </trkpt>
      <trkpt lat="43.10464" lon="-7.12034667">
        <ele>941.0</ele>
        <time>2022-06-19T11:06:38.504Z</time>
      </trkpt>
      <trkpt lat="43.10464" lon="-7.12034667">
        <ele>941.0</ele>
        <time>2022-06-19T11:06:39.487Z</time>
      </trkpt>
      <trkpt lat="43.104615" lon="-7.12042333">
        <ele>941.0</ele>
        <time>2022-06-19T11:06:40.508Z</time>
      </trkpt>
      <trkpt lat="43.104615" lon="-7.12042333">
        <ele>941.0</ele>
        <time>2022-06-19T11:06:41.500Z</time>
      </trkpt>
      <trkpt lat="43.10458833" lon="-7.12050667">
        <ele>941.0</ele>
        <time>2022-06-19T11:06:42.525Z</time>
      </trkpt>
      <trkpt lat="43.104575" lon="-7.12055167">
        <ele>941.0</ele>
        <time>2022-06-19T11:06:43.527Z</time>
      </trkpt>
      <trkpt lat="43.104575" lon="-7.12055167">
        <ele>941.0</ele>
        <time>2022-06-19T11:06:44.519Z</time>
      </trkpt>
      <trkpt lat="43.10454667" lon="-7.12064667">
        <ele>941.0</ele>
        <time>2022-06-19T11:06:45.512Z</time>
      </trkpt>
      <trkpt lat="43.10453167" lon="-7.12069167">
        <ele>941.0</ele>
        <time>2022-06-19T11:06:46.523Z</time>
      </trkpt>
      <trkpt lat="43.10453167" lon="-7.12069167">
        <ele>941.0</ele>
        <time>2022-06-19T11:06:47.502Z</time>
      </trkpt>
      <trkpt lat="43.10450333" lon="-7.12078167">
        <ele>941.0</ele>
        <time>2022-06-19T11:06:48.486Z</time>
      </trkpt>
      <trkpt lat="43.10449" lon="-7.12082667">
        <ele>941.0</ele>
        <time>2022-06-19T11:06:49.512Z</time>
      </trkpt>
      <trkpt lat="43.10449" lon="-7.12082667">
        <ele>941.0</ele>
        <time>2022-06-19T11:06:50.487Z</time>
      </trkpt>
      <trkpt lat="43.10446" lon="-7.12091333">
        <ele>941.0</ele>
        <time>2022-06-19T11:06:51.503Z</time>
      </trkpt>
      <trkpt lat="43.10446" lon="-7.12091333">
        <ele>941.0</ele>
        <time>2022-06-19T11:06:52.496Z</time>
      </trkpt>
      <trkpt lat="43.10440833" lon="-7.12098833">
        <ele>941.0</ele>
        <time>2022-06-19T11:06:53.523Z</time>
      </trkpt>
      <trkpt lat="43.10440833" lon="-7.12098833">
        <ele>941.0</ele>
        <time>2022-06-19T11:06:54.523Z</time>
      </trkpt>
      <trkpt lat="43.104355" lon="-7.12105333">
        <ele>941.0</ele>
        <time>2022-06-19T11:06:55.509Z</time>
      </trkpt>
      <trkpt lat="43.104355" lon="-7.12105333">
        <ele>941.0</ele>
        <time>2022-06-19T11:06:56.486Z</time>
      </trkpt>
      <trkpt lat="43.10430333" lon="-7.12111333">
        <ele>941.0</ele>
        <time>2022-06-19T11:06:57.509Z</time>
      </trkpt>
      <trkpt lat="43.10430333" lon="-7.12111333">
        <ele>941.0</ele>
        <time>2022-06-19T11:06:58.524Z</time>
      </trkpt>
      <trkpt lat="43.10424667" lon="-7.12116833">
        <ele>940.0</ele>
        <time>2022-06-19T11:06:59.487Z</time>
      </trkpt>
      <trkpt lat="43.10421667" lon="-7.12119667">
        <ele>940.0</ele>
        <time>2022-06-19T11:07:00.527Z</time>
      </trkpt>
      <trkpt lat="43.10419" lon="-7.12123167">
        <ele>940.0</ele>
        <time>2022-06-19T11:07:01.527Z</time>
      </trkpt>
      <trkpt lat="43.10419" lon="-7.12123167">
        <ele>940.0</ele>
        <time>2022-06-19T11:07:02.501Z</time>
      </trkpt>
      <trkpt lat="43.10414667" lon="-7.12132">
        <ele>939.0</ele>
        <time>2022-06-19T11:07:03.487Z</time>
      </trkpt>
      <trkpt lat="43.10414667" lon="-7.12132">
        <ele>939.0</ele>
        <time>2022-06-19T11:07:04.502Z</time>
      </trkpt>
      <trkpt lat="43.1041" lon="-7.121425">
        <ele>939.0</ele>
        <time>2022-06-19T11:07:05.524Z</time>
      </trkpt>
      <trkpt lat="43.1041" lon="-7.121425">
        <ele>939.0</ele>
        <time>2022-06-19T11:07:06.497Z</time>
      </trkpt>
      <trkpt lat="43.10404667" lon="-7.121545">
        <ele>938.0</ele>
        <time>2022-06-19T11:07:07.518Z</time>
      </trkpt>
      <trkpt lat="43.10404667" lon="-7.121545">
        <ele>938.0</ele>
        <time>2022-06-19T11:07:08.502Z</time>
      </trkpt>
      <trkpt lat="43.10399" lon="-7.12168167">
        <ele>937.0</ele>
        <time>2022-06-19T11:07:09.525Z</time>
      </trkpt>
      <trkpt lat="43.10399" lon="-7.12168167">
        <ele>937.0</ele>
        <time>2022-06-19T11:07:10.498Z</time>
      </trkpt>
      <trkpt lat="43.103935" lon="-7.12183">
        <ele>936.0</ele>
        <time>2022-06-19T11:07:11.519Z</time>
      </trkpt>
      <trkpt lat="43.103935" lon="-7.12183">
        <ele>936.0</ele>
        <time>2022-06-19T11:07:12.497Z</time>
      </trkpt>
      <trkpt lat="43.103895" lon="-7.12196167">
        <ele>936.0</ele>
        <time>2022-06-19T11:07:13.491Z</time>
      </trkpt>
      <trkpt lat="43.103895" lon="-7.12196167">
        <ele>936.0</ele>
        <time>2022-06-19T11:07:14.509Z</time>
      </trkpt>
      <trkpt lat="43.103865" lon="-7.12206333">
        <ele>936.0</ele>
        <time>2022-06-19T11:07:15.526Z</time>
      </trkpt>
      <trkpt lat="43.103865" lon="-7.12206333">
        <ele>936.0</ele>
        <time>2022-06-19T11:07:16.489Z</time>
      </trkpt>
      <trkpt lat="43.103835" lon="-7.12213833">
        <ele>936.0</ele>
        <time>2022-06-19T11:07:17.520Z</time>
      </trkpt>
      <trkpt lat="43.10381667" lon="-7.122175">
        <ele>936.0</ele>
        <time>2022-06-19T11:07:18.519Z</time>
      </trkpt>
      <trkpt lat="43.10381667" lon="-7.122175">
        <ele>936.0</ele>
        <time>2022-06-19T11:07:19.510Z</time>
      </trkpt>
      <trkpt lat="43.10377167" lon="-7.12224667">
        <ele>936.0</ele>
        <time>2022-06-19T11:07:20.497Z</time>
      </trkpt>
      <trkpt lat="43.10377167" lon="-7.12224667">
        <ele>936.0</ele>
        <time>2022-06-19T11:07:21.497Z</time>
      </trkpt>
      <trkpt lat="43.10370833" lon="-7.12232667">
        <ele>936.0</ele>
        <time>2022-06-19T11:07:22.486Z</time>
      </trkpt>
      <trkpt lat="43.103675" lon="-7.12236833">
        <ele>936.0</ele>
        <time>2022-06-19T11:07:23.524Z</time>
      </trkpt>
      <trkpt lat="43.10364" lon="-7.12240833">
        <ele>936.0</ele>
        <time>2022-06-19T11:07:24.522Z</time>
      </trkpt>
      <trkpt lat="43.10360333" lon="-7.12244833">
        <ele>936.0</ele>
        <time>2022-06-19T11:07:25.502Z</time>
      </trkpt>
      <trkpt lat="43.10360333" lon="-7.12244833">
        <ele>936.0</ele>
        <time>2022-06-19T11:07:26.499Z</time>
      </trkpt>
      <trkpt lat="43.10353667" lon="-7.12252667">
        <ele>936.0</ele>
        <time>2022-06-19T11:07:27.522Z</time>
      </trkpt>
      <trkpt lat="43.10350667" lon="-7.12256333">
        <ele>936.0</ele>
        <time>2022-06-19T11:07:28.523Z</time>
      </trkpt>
      <trkpt lat="43.10350667" lon="-7.12256333">
        <ele>936.0</ele>
        <time>2022-06-19T11:07:29.490Z</time>
      </trkpt>
      <trkpt lat="43.10345833" lon="-7.12263">
        <ele>936.0</ele>
        <time>2022-06-19T11:07:30.513Z</time>
      </trkpt>
      <trkpt lat="43.10343167" lon="-7.12266333">
        <ele>936.0</ele>
        <time>2022-06-19T11:07:31.504Z</time>
      </trkpt>
      <trkpt lat="43.10343167" lon="-7.12266333">
        <ele>936.0</ele>
        <time>2022-06-19T11:07:32.509Z</time>
      </trkpt>
      <trkpt lat="43.10337667" lon="-7.12273">
        <ele>935.0</ele>
        <time>2022-06-19T11:07:33.508Z</time>
      </trkpt>
      <trkpt lat="43.10337667" lon="-7.12273">
        <ele>935.0</ele>
        <time>2022-06-19T11:07:34.511Z</time>
      </trkpt>
      <trkpt lat="43.10332167" lon="-7.12281">
        <ele>935.0</ele>
        <time>2022-06-19T11:07:35.506Z</time>
      </trkpt>
      <trkpt lat="43.103295" lon="-7.12285667">
        <ele>935.0</ele>
        <time>2022-06-19T11:07:36.504Z</time>
      </trkpt>
      <trkpt lat="43.103265" lon="-7.12290833">
        <ele>935.0</ele>
        <time>2022-06-19T11:07:37.521Z</time>
      </trkpt>
      <trkpt lat="43.103265" lon="-7.12290833">
        <ele>935.0</ele>
        <time>2022-06-19T11:07:38.510Z</time>
      </trkpt>
      <trkpt lat="43.10319833" lon="-7.12301833">
        <ele>935.0</ele>
        <time>2022-06-19T11:07:39.503Z</time>
      </trkpt>
      <trkpt lat="43.10319833" lon="-7.12301833">
        <ele>935.0</ele>
        <time>2022-06-19T11:07:40.522Z</time>
      </trkpt>
      <trkpt lat="43.10311833" lon="-7.12312833">
        <ele>935.0</ele>
        <time>2022-06-19T11:07:41.515Z</time>
      </trkpt>
      <trkpt lat="43.10311833" lon="-7.12312833">
        <ele>935.0</ele>
        <time>2022-06-19T11:07:42.487Z</time>
      </trkpt>
      <trkpt lat="43.10305333" lon="-7.12326667">
        <ele>934.0</ele>
        <time>2022-06-19T11:07:43.504Z</time>
      </trkpt>
      <trkpt lat="43.10302333" lon="-7.12334167">
        <ele>934.0</ele>
        <time>2022-06-19T11:07:44.496Z</time>
      </trkpt>
      <trkpt lat="43.10302333" lon="-7.12334167">
        <ele>934.0</ele>
        <time>2022-06-19T11:07:45.516Z</time>
      </trkpt>
      <trkpt lat="43.102975" lon="-7.12349">
        <ele>934.0</ele>
        <time>2022-06-19T11:07:46.503Z</time>
      </trkpt>
      <trkpt lat="43.10295333" lon="-7.12356333">
        <ele>934.0</ele>
        <time>2022-06-19T11:07:47.490Z</time>
      </trkpt>
      <trkpt lat="43.10295333" lon="-7.12356333">
        <ele>934.0</ele>
        <time>2022-06-19T11:07:48.487Z</time>
      </trkpt>
      <trkpt lat="43.10290167" lon="-7.12369667">
        <ele>933.0</ele>
        <time>2022-06-19T11:07:49.497Z</time>
      </trkpt>
      <trkpt lat="43.10290167" lon="-7.12369667">
        <ele>933.0</ele>
        <time>2022-06-19T11:07:50.498Z</time>
      </trkpt>
      <trkpt lat="43.102845" lon="-7.123805">
        <ele>933.0</ele>
        <time>2022-06-19T11:07:51.511Z</time>
      </trkpt>
      <trkpt lat="43.102845" lon="-7.123805">
        <ele>933.0</ele>
        <time>2022-06-19T11:07:52.506Z</time>
      </trkpt>
      <trkpt lat="43.102815" lon="-7.12389167">
        <ele>933.0</ele>
        <time>2022-06-19T11:07:53.489Z</time>
      </trkpt>
      <trkpt lat="43.10280333" lon="-7.123935">
        <ele>932.0</ele>
        <time>2022-06-19T11:07:54.503Z</time>
      </trkpt>
      <trkpt lat="43.10280333" lon="-7.123935">
        <ele>932.0</ele>
        <time>2022-06-19T11:07:55.494Z</time>
      </trkpt>
      <trkpt lat="43.10276667" lon="-7.12399667">
        <ele>932.0</ele>
        <time>2022-06-19T11:07:56.514Z</time>
      </trkpt>
      <trkpt lat="43.10276667" lon="-7.12399667">
        <ele>932.0</ele>
        <time>2022-06-19T11:07:57.508Z</time>
      </trkpt>
      <trkpt lat="43.10274167" lon="-7.12406">
        <ele>931.0</ele>
        <time>2022-06-19T11:07:58.490Z</time>
      </trkpt>
      <trkpt lat="43.10274167" lon="-7.12406">
        <ele>931.0</ele>
        <time>2022-06-19T11:07:59.500Z</time>
      </trkpt>
      <trkpt lat="43.10272667" lon="-7.12411333">
        <ele>931.0</ele>
        <time>2022-06-19T11:08:00.489Z</time>
      </trkpt>
      <trkpt lat="43.10271167" lon="-7.12414167">
        <ele>931.0</ele>
        <time>2022-06-19T11:08:01.493Z</time>
      </trkpt>
      <trkpt lat="43.10271167" lon="-7.12414167">
        <ele>931.0</ele>
        <time>2022-06-19T11:08:02.509Z</time>
      </trkpt>
      <trkpt lat="43.10268833" lon="-7.12418333">
        <ele>931.0</ele>
        <time>2022-06-19T11:08:03.493Z</time>
      </trkpt>
      <trkpt lat="43.10268833" lon="-7.12418333">
        <ele>931.0</ele>
        <time>2022-06-19T11:08:04.505Z</time>
      </trkpt>
      <trkpt lat="43.102675" lon="-7.12421333">
        <ele>931.0</ele>
        <time>2022-06-19T11:08:05.497Z</time>
      </trkpt>
      <trkpt lat="43.102675" lon="-7.12421333">
        <ele>931.0</ele>
        <time>2022-06-19T11:08:06.509Z</time>
      </trkpt>
      <trkpt lat="43.10265833" lon="-7.124255">
        <ele>931.0</ele>
        <time>2022-06-19T11:08:07.487Z</time>
      </trkpt>
      <trkpt lat="43.10265833" lon="-7.124255">
        <ele>931.0</ele>
        <time>2022-06-19T11:08:08.507Z</time>
      </trkpt>
      <trkpt lat="43.10264667" lon="-7.12429">
        <ele>931.0</ele>
        <time>2022-06-19T11:08:09.518Z</time>
      </trkpt>
      <trkpt lat="43.10264167" lon="-7.12430333">
        <ele>931.0</ele>
        <time>2022-06-19T11:08:10.525Z</time>
      </trkpt>
      <trkpt lat="43.10264167" lon="-7.12430333">
        <ele>931.0</ele>
        <time>2022-06-19T11:08:11.502Z</time>
      </trkpt>
      <trkpt lat="43.10263" lon="-7.12434">
        <ele>931.0</ele>
        <time>2022-06-19T11:08:12.498Z</time>
      </trkpt>
      <trkpt lat="43.10263" lon="-7.12434">
        <ele>931.0</ele>
        <time>2022-06-19T11:08:13.500Z</time>
      </trkpt>
      <trkpt lat="43.10261667" lon="-7.12437833">
        <ele>931.0</ele>
        <time>2022-06-19T11:08:14.521Z</time>
      </trkpt>
      <trkpt lat="43.10261667" lon="-7.12437833">
        <ele>931.0</ele>
        <time>2022-06-19T11:08:15.498Z</time>
      </trkpt>
      <trkpt lat="43.10260667" lon="-7.12441">
        <ele>932.0</ele>
        <time>2022-06-19T11:08:16.498Z</time>
      </trkpt>
      <trkpt lat="43.10260667" lon="-7.12442167">
        <ele>932.0</ele>
        <time>2022-06-19T11:08:17.502Z</time>
      </trkpt>
      <trkpt lat="43.10260667" lon="-7.12442167">
        <ele>932.0</ele>
        <time>2022-06-19T11:08:18.519Z</time>
      </trkpt>
      <trkpt lat="43.10260167" lon="-7.12444333">
        <ele>932.0</ele>
        <time>2022-06-19T11:08:19.497Z</time>
      </trkpt>
      <trkpt lat="43.10260167" lon="-7.12444333">
        <ele>932.0</ele>
        <time>2022-06-19T11:08:20.492Z</time>
      </trkpt>
      <trkpt lat="43.10259167" lon="-7.12448167">
        <ele>932.0</ele>
        <time>2022-06-19T11:08:21.514Z</time>
      </trkpt>
      <trkpt lat="43.10259167" lon="-7.12448167">
        <ele>932.0</ele>
        <time>2022-06-19T11:08:22.503Z</time>
      </trkpt>
      <trkpt lat="43.10256333" lon="-7.12452333">
        <ele>932.0</ele>
        <time>2022-06-19T11:08:23.492Z</time>
      </trkpt>
      <trkpt lat="43.10256333" lon="-7.12452333">
        <ele>932.0</ele>
        <time>2022-06-19T11:08:24.501Z</time>
      </trkpt>
      <trkpt lat="43.10255" lon="-7.12457">
        <ele>933.0</ele>
        <time>2022-06-19T11:08:25.489Z</time>
      </trkpt>
      <trkpt lat="43.10255" lon="-7.12457">
        <ele>933.0</ele>
        <time>2022-06-19T11:08:26.502Z</time>
      </trkpt>
      <trkpt lat="43.102545" lon="-7.12461833">
        <ele>933.0</ele>
        <time>2022-06-19T11:08:27.522Z</time>
      </trkpt>
      <trkpt lat="43.10254" lon="-7.124635">
        <ele>934.0</ele>
        <time>2022-06-19T11:08:28.497Z</time>
      </trkpt>
      <trkpt lat="43.10254" lon="-7.124635">
        <ele>934.0</ele>
        <time>2022-06-19T11:08:29.514Z</time>
      </trkpt>
      <trkpt lat="43.10252833" lon="-7.12467167">
        <ele>934.0</ele>
        <time>2022-06-19T11:08:30.496Z</time>
      </trkpt>
      <trkpt lat="43.10252833" lon="-7.12467167">
        <ele>934.0</ele>
        <time>2022-06-19T11:08:31.519Z</time>
      </trkpt>
      <trkpt lat="43.10251833" lon="-7.12470333">
        <ele>934.0</ele>
        <time>2022-06-19T11:08:32.523Z</time>
      </trkpt>
      <trkpt lat="43.10251833" lon="-7.12470333">
        <ele>934.0</ele>
        <time>2022-06-19T11:08:33.500Z</time>
      </trkpt>
      <trkpt lat="43.10250333" lon="-7.12473333">
        <ele>935.0</ele>
        <time>2022-06-19T11:08:34.491Z</time>
      </trkpt>
      <trkpt lat="43.10250333" lon="-7.12473333">
        <ele>935.0</ele>
        <time>2022-06-19T11:08:35.503Z</time>
      </trkpt>
      <trkpt lat="43.102495" lon="-7.12476667">
        <ele>935.0</ele>
        <time>2022-06-19T11:08:36.511Z</time>
      </trkpt>
      <trkpt lat="43.10249" lon="-7.12478333">
        <ele>936.0</ele>
        <time>2022-06-19T11:08:37.505Z</time>
      </trkpt>
      <trkpt lat="43.10249" lon="-7.12478333">
        <ele>936.0</ele>
        <time>2022-06-19T11:08:38.519Z</time>
      </trkpt>
      <trkpt lat="43.10248" lon="-7.12481667">
        <ele>936.0</ele>
        <time>2022-06-19T11:08:39.500Z</time>
      </trkpt>
      <trkpt lat="43.10248" lon="-7.12481667">
        <ele>936.0</ele>
        <time>2022-06-19T11:08:40.522Z</time>
      </trkpt>
      <trkpt lat="43.10247333" lon="-7.12485">
        <ele>938.0</ele>
        <time>2022-06-19T11:08:41.500Z</time>
      </trkpt>
      <trkpt lat="43.10247333" lon="-7.12485">
        <ele>938.0</ele>
        <time>2022-06-19T11:08:42.520Z</time>
      </trkpt>
      <trkpt lat="43.10246333" lon="-7.12488167">
        <ele>939.0</ele>
        <time>2022-06-19T11:08:43.507Z</time>
      </trkpt>
      <trkpt lat="43.10245833" lon="-7.124895">
        <ele>939.0</ele>
        <time>2022-06-19T11:08:44.503Z</time>
      </trkpt>
      <trkpt lat="43.10245833" lon="-7.124895">
        <ele>939.0</ele>
        <time>2022-06-19T11:08:45.511Z</time>
      </trkpt>
      <trkpt lat="43.10245333" lon="-7.12492333">
        <ele>940.0</ele>
        <time>2022-06-19T11:08:46.487Z</time>
      </trkpt>
      <trkpt lat="43.10245333" lon="-7.12492333">
        <ele>940.0</ele>
        <time>2022-06-19T11:08:47.503Z</time>
      </trkpt>
      <trkpt lat="43.10244833" lon="-7.12495167">
        <ele>941.0</ele>
        <time>2022-06-19T11:08:48.510Z</time>
      </trkpt>
      <trkpt lat="43.102445" lon="-7.124965">
        <ele>941.0</ele>
        <time>2022-06-19T11:08:49.507Z</time>
      </trkpt>
      <trkpt lat="43.102445" lon="-7.124965">
        <ele>941.0</ele>
        <time>2022-06-19T11:08:50.497Z</time>
      </trkpt>
      <trkpt lat="43.10243667" lon="-7.12499333">
        <ele>942.0</ele>
        <time>2022-06-19T11:08:51.502Z</time>
      </trkpt>
      <trkpt lat="43.10243333" lon="-7.12500833">
        <ele>942.0</ele>
        <time>2022-06-19T11:08:52.517Z</time>
      </trkpt>
      <trkpt lat="43.10243333" lon="-7.12500833">
        <ele>942.0</ele>
        <time>2022-06-19T11:08:53.488Z</time>
      </trkpt>
      <trkpt lat="43.10242667" lon="-7.12503667">
        <ele>943.0</ele>
        <time>2022-06-19T11:08:54.515Z</time>
      </trkpt>
      <trkpt lat="43.10242333" lon="-7.12505">
        <ele>943.0</ele>
        <time>2022-06-19T11:08:55.513Z</time>
      </trkpt>
      <trkpt lat="43.10242333" lon="-7.12505">
        <ele>943.0</ele>
        <time>2022-06-19T11:08:56.486Z</time>
      </trkpt>
      <trkpt lat="43.10241667" lon="-7.12507667">
        <ele>944.0</ele>
        <time>2022-06-19T11:08:57.508Z</time>
      </trkpt>
      <trkpt lat="43.10241667" lon="-7.12507667">
        <ele>944.0</ele>
        <time>2022-06-19T11:08:58.498Z</time>
      </trkpt>
      <trkpt lat="43.10241" lon="-7.12510333">
        <ele>945.0</ele>
        <time>2022-06-19T11:08:59.496Z</time>
      </trkpt>
      <trkpt lat="43.10240667" lon="-7.12511667">
        <ele>945.0</ele>
        <time>2022-06-19T11:09:00.510Z</time>
      </trkpt>
      <trkpt lat="43.10240667" lon="-7.12511667">
        <ele>945.0</ele>
        <time>2022-06-19T11:09:01.521Z</time>
      </trkpt>
      <trkpt lat="43.10240167" lon="-7.12514667">
        <ele>946.0</ele>
        <time>2022-06-19T11:09:02.527Z</time>
      </trkpt>
      <trkpt lat="43.10239833" lon="-7.12516">
        <ele>946.0</ele>
        <time>2022-06-19T11:09:03.510Z</time>
      </trkpt>
      <trkpt lat="43.10239667" lon="-7.125175">
        <ele>946.0</ele>
        <time>2022-06-19T11:09:04.505Z</time>
      </trkpt>
      <trkpt lat="43.10239667" lon="-7.125175">
        <ele>946.0</ele>
        <time>2022-06-19T11:09:05.490Z</time>
      </trkpt>
      <trkpt lat="43.10239167" lon="-7.12520167">
        <ele>947.0</ele>
        <time>2022-06-19T11:09:06.524Z</time>
      </trkpt>
      <trkpt lat="43.10239167" lon="-7.12520167">
        <ele>947.0</ele>
        <time>2022-06-19T11:09:07.501Z</time>
      </trkpt>
      <trkpt lat="43.10238667" lon="-7.12523">
        <ele>947.0</ele>
        <time>2022-06-19T11:09:08.512Z</time>
      </trkpt>
      <trkpt lat="43.10238667" lon="-7.12523">
        <ele>947.0</ele>
        <time>2022-06-19T11:09:09.524Z</time>
      </trkpt>
      <trkpt lat="43.10238" lon="-7.12525333">
        <ele>947.0</ele>
        <time>2022-06-19T11:09:10.517Z</time>
      </trkpt>
      <trkpt lat="43.10238" lon="-7.12525333">
        <ele>947.0</ele>
        <time>2022-06-19T11:09:11.490Z</time>
      </trkpt>
      <trkpt lat="43.10237333" lon="-7.125275">
        <ele>948.0</ele>
        <time>2022-06-19T11:09:12.516Z</time>
      </trkpt>
      <trkpt lat="43.10237333" lon="-7.125275">
        <ele>948.0</ele>
        <time>2022-06-19T11:09:13.514Z</time>
      </trkpt>
      <trkpt lat="43.10236333" lon="-7.125295">
        <ele>948.0</ele>
        <time>2022-06-19T11:09:14.501Z</time>
      </trkpt>
      <trkpt lat="43.10236333" lon="-7.125295">
        <ele>948.0</ele>
        <time>2022-06-19T11:09:15.510Z</time>
      </trkpt>
      <trkpt lat="43.10235" lon="-7.12532167">
        <ele>948.0</ele>
        <time>2022-06-19T11:09:16.496Z</time>
      </trkpt>
      <trkpt lat="43.10234333" lon="-7.125335">
        <ele>948.0</ele>
        <time>2022-06-19T11:09:17.499Z</time>
      </trkpt>
      <trkpt lat="43.10234333" lon="-7.125335">
        <ele>948.0</ele>
        <time>2022-06-19T11:09:18.509Z</time>
      </trkpt>
      <trkpt lat="43.10232667" lon="-7.12536167">
        <ele>948.0</ele>
        <time>2022-06-19T11:09:19.492Z</time>
      </trkpt>
      <trkpt lat="43.10232667" lon="-7.12536167">
        <ele>948.0</ele>
        <time>2022-06-19T11:09:20.500Z</time>
      </trkpt>
      <trkpt lat="43.102305" lon="-7.12538667">
        <ele>949.0</ele>
        <time>2022-06-19T11:09:21.503Z</time>
      </trkpt>
      <trkpt lat="43.102305" lon="-7.12538667">
        <ele>949.0</ele>
        <time>2022-06-19T11:09:22.524Z</time>
      </trkpt>
      <trkpt lat="43.10228" lon="-7.12541">
        <ele>949.0</ele>
        <time>2022-06-19T11:09:23.522Z</time>
      </trkpt>
      <trkpt lat="43.10226833" lon="-7.12542333">
        <ele>949.0</ele>
        <time>2022-06-19T11:09:24.501Z</time>
      </trkpt>
      <trkpt lat="43.10226833" lon="-7.12542333">
        <ele>949.0</ele>
        <time>2022-06-19T11:09:25.507Z</time>
      </trkpt>
      <trkpt lat="43.10224167" lon="-7.12544667">
        <ele>949.0</ele>
        <time>2022-06-19T11:09:26.487Z</time>
      </trkpt>
      <trkpt lat="43.10224167" lon="-7.12544667">
        <ele>949.0</ele>
        <time>2022-06-19T11:09:27.500Z</time>
      </trkpt>
      <trkpt lat="43.10222" lon="-7.12547167">
        <ele>949.0</ele>
        <time>2022-06-19T11:09:28.488Z</time>
      </trkpt>
      <trkpt lat="43.10222" lon="-7.12547167">
        <ele>949.0</ele>
        <time>2022-06-19T11:09:29.518Z</time>
      </trkpt>
      <trkpt lat="43.10220333" lon="-7.12549833">
        <ele>950.0</ele>
        <time>2022-06-19T11:09:30.503Z</time>
      </trkpt>
      <trkpt lat="43.102195" lon="-7.12551">
        <ele>950.0</ele>
        <time>2022-06-19T11:09:31.512Z</time>
      </trkpt>
      <trkpt lat="43.102195" lon="-7.12551">
        <ele>950.0</ele>
        <time>2022-06-19T11:09:32.502Z</time>
      </trkpt>
      <trkpt lat="43.10218333" lon="-7.12553667">
        <ele>950.0</ele>
        <time>2022-06-19T11:09:33.490Z</time>
      </trkpt>
      <trkpt lat="43.10218333" lon="-7.12553667">
        <ele>950.0</ele>
        <time>2022-06-19T11:09:34.500Z</time>
      </trkpt>
      <trkpt lat="43.10217" lon="-7.12556">
        <ele>950.0</ele>
        <time>2022-06-19T11:09:35.519Z</time>
      </trkpt>
      <trkpt lat="43.10217" lon="-7.12556">
        <ele>950.0</ele>
        <time>2022-06-19T11:09:36.492Z</time>
      </trkpt>
      <trkpt lat="43.10215333" lon="-7.125575">
        <ele>951.0</ele>
        <time>2022-06-19T11:09:37.525Z</time>
      </trkpt>
      <trkpt lat="43.10215333" lon="-7.125575">
        <ele>951.0</ele>
        <time>2022-06-19T11:09:38.510Z</time>
      </trkpt>
      <trkpt lat="43.10213833" lon="-7.12559833">
        <ele>951.0</ele>
        <time>2022-06-19T11:09:39.495Z</time>
      </trkpt>
      <trkpt lat="43.10213833" lon="-7.12559833">
        <ele>951.0</ele>
        <time>2022-06-19T11:09:40.510Z</time>
      </trkpt>
      <trkpt lat="43.10212333" lon="-7.12561833">
        <ele>951.0</ele>
        <time>2022-06-19T11:09:41.517Z</time>
      </trkpt>
      <trkpt lat="43.10212333" lon="-7.12561833">
        <ele>951.0</ele>
        <time>2022-06-19T11:09:42.500Z</time>
      </trkpt>
      <trkpt lat="43.10211" lon="-7.12564167">
        <ele>952.0</ele>
        <time>2022-06-19T11:09:43.527Z</time>
      </trkpt>
      <trkpt lat="43.10211" lon="-7.12564167">
        <ele>952.0</ele>
        <time>2022-06-19T11:09:44.502Z</time>
      </trkpt>
      <trkpt lat="43.10209667" lon="-7.125665">
        <ele>952.0</ele>
        <time>2022-06-19T11:09:45.500Z</time>
      </trkpt>
      <trkpt lat="43.10208833" lon="-7.125675">
        <ele>952.0</ele>
        <time>2022-06-19T11:09:46.510Z</time>
      </trkpt>
      <trkpt lat="43.10208833" lon="-7.125675">
        <ele>952.0</ele>
        <time>2022-06-19T11:09:47.502Z</time>
      </trkpt>
      <trkpt lat="43.102075" lon="-7.1257">
        <ele>953.0</ele>
        <time>2022-06-19T11:09:48.507Z</time>
      </trkpt>
      <trkpt lat="43.10206833" lon="-7.12571333">
        <ele>953.0</ele>
        <time>2022-06-19T11:09:49.512Z</time>
      </trkpt>
      <trkpt lat="43.10206833" lon="-7.12571333">
        <ele>953.0</ele>
        <time>2022-06-19T11:09:50.522Z</time>
      </trkpt>
      <trkpt lat="43.10205167" lon="-7.125735">
        <ele>953.0</ele>
        <time>2022-06-19T11:09:51.525Z</time>
      </trkpt>
      <trkpt lat="43.10204333" lon="-7.12574833">
        <ele>953.0</ele>
        <time>2022-06-19T11:09:52.511Z</time>
      </trkpt>
      <trkpt lat="43.10203667" lon="-7.12576">
        <ele>954.0</ele>
        <time>2022-06-19T11:09:53.510Z</time>
      </trkpt>
      <trkpt lat="43.10203667" lon="-7.12576">
        <ele>954.0</ele>
        <time>2022-06-19T11:09:54.524Z</time>
      </trkpt>
      <trkpt lat="43.10202" lon="-7.12578833">
        <ele>954.0</ele>
        <time>2022-06-19T11:09:55.505Z</time>
      </trkpt>
      <trkpt lat="43.10202" lon="-7.12578833">
        <ele>954.0</ele>
        <time>2022-06-19T11:09:56.504Z</time>
      </trkpt>
      <trkpt lat="43.10199833" lon="-7.12581667">
        <ele>954.0</ele>
        <time>2022-06-19T11:09:57.524Z</time>
      </trkpt>
      <trkpt lat="43.10198667" lon="-7.12583">
        <ele>954.0</ele>
        <time>2022-06-19T11:09:58.520Z</time>
      </trkpt>
      <trkpt lat="43.10198667" lon="-7.12583">
        <ele>954.0</ele>
        <time>2022-06-19T11:09:59.491Z</time>
      </trkpt>
      <trkpt lat="43.10196" lon="-7.12586">
        <ele>954.0</ele>
        <time>2022-06-19T11:10:00.522Z</time>
      </trkpt>
      <trkpt lat="43.10196" lon="-7.12586">
        <ele>954.0</ele>
        <time>2022-06-19T11:10:01.506Z</time>
      </trkpt>
      <trkpt lat="43.10193" lon="-7.12589">
        <ele>955.0</ele>
        <time>2022-06-19T11:10:02.494Z</time>
      </trkpt>
      <trkpt lat="43.10193" lon="-7.12589">
        <ele>955.0</ele>
        <time>2022-06-19T11:10:03.516Z</time>
      </trkpt>
      <trkpt lat="43.10189667" lon="-7.12592667">
        <ele>955.0</ele>
        <time>2022-06-19T11:10:04.500Z</time>
      </trkpt>
      <trkpt lat="43.10189667" lon="-7.12592667">
        <ele>955.0</ele>
        <time>2022-06-19T11:10:05.509Z</time>
      </trkpt>
      <trkpt lat="43.10185833" lon="-7.12596167">
        <ele>955.0</ele>
        <time>2022-06-19T11:10:06.504Z</time>
      </trkpt>
      <trkpt lat="43.101835" lon="-7.12597833">
        <ele>955.0</ele>
        <time>2022-06-19T11:10:07.486Z</time>
      </trkpt>
      <trkpt lat="43.101835" lon="-7.12597833">
        <ele>955.0</ele>
        <time>2022-06-19T11:10:08.489Z</time>
      </trkpt>
      <trkpt lat="43.10178167" lon="-7.126005">
        <ele>955.0</ele>
        <time>2022-06-19T11:10:09.522Z</time>
      </trkpt>
      <trkpt lat="43.10175167" lon="-7.12601667">
        <ele>954.0</ele>
        <time>2022-06-19T11:10:10.505Z</time>
      </trkpt>
      <trkpt lat="43.10175167" lon="-7.12601667">
        <ele>954.0</ele>
        <time>2022-06-19T11:10:11.492Z</time>
      </trkpt>
      <trkpt lat="43.10168" lon="-7.12603167">
        <ele>953.0</ele>
        <time>2022-06-19T11:10:12.517Z</time>
      </trkpt>
      <trkpt lat="43.10164167" lon="-7.12603">
        <ele>953.0</ele>
        <time>2022-06-19T11:10:13.523Z</time>
      </trkpt>
      <trkpt lat="43.10159833" lon="-7.12603667">
        <ele>951.0</ele>
        <time>2022-06-19T11:10:14.520Z</time>
      </trkpt>
      <trkpt lat="43.10159833" lon="-7.12603667">
        <ele>951.0</ele>
        <time>2022-06-19T11:10:15.517Z</time>
      </trkpt>
      <trkpt lat="43.10150833" lon="-7.12604333">
        <ele>950.0</ele>
        <time>2022-06-19T11:10:16.509Z</time>
      </trkpt>
      <trkpt lat="43.10146167" lon="-7.12604">
        <ele>949.0</ele>
        <time>2022-06-19T11:10:17.506Z</time>
      </trkpt>
      <trkpt lat="43.10141333" lon="-7.12602667">
        <ele>948.0</ele>
        <time>2022-06-19T11:10:18.515Z</time>
      </trkpt>
      <trkpt lat="43.10141333" lon="-7.12602667">
        <ele>948.0</ele>
        <time>2022-06-19T11:10:19.499Z</time>
      </trkpt>
      <trkpt lat="43.10133333" lon="-7.12597">
        <ele>947.0</ele>
        <time>2022-06-19T11:10:20.491Z</time>
      </trkpt>
      <trkpt lat="43.10133333" lon="-7.12597">
        <ele>947.0</ele>
        <time>2022-06-19T11:10:21.494Z</time>
      </trkpt>
      <trkpt lat="43.10124833" lon="-7.12587333">
        <ele>946.0</ele>
        <time>2022-06-19T11:10:22.524Z</time>
      </trkpt>
      <trkpt lat="43.10124833" lon="-7.12587333">
        <ele>946.0</ele>
        <time>2022-06-19T11:10:23.503Z</time>
      </trkpt>
      <trkpt lat="43.10115" lon="-7.12577167">
        <ele>945.0</ele>
        <time>2022-06-19T11:10:24.508Z</time>
      </trkpt>
      <trkpt lat="43.10109833" lon="-7.12574167">
        <ele>944.0</ele>
        <time>2022-06-19T11:10:25.521Z</time>
      </trkpt>
      <trkpt lat="43.10109833" lon="-7.12574167">
        <ele>944.0</ele>
        <time>2022-06-19T11:10:26.499Z</time>
      </trkpt>
      <trkpt lat="43.10099333" lon="-7.12571833">
        <ele>944.0</ele>
        <time>2022-06-19T11:10:27.527Z</time>
      </trkpt>
      <trkpt lat="43.10094" lon="-7.12571">
        <ele>943.0</ele>
        <time>2022-06-19T11:10:28.507Z</time>
      </trkpt>
      <trkpt lat="43.10094" lon="-7.12571">
        <ele>943.0</ele>
        <time>2022-06-19T11:10:29.489Z</time>
      </trkpt>
      <trkpt lat="43.10083" lon="-7.12567667">
        <ele>943.0</ele>
        <time>2022-06-19T11:10:30.521Z</time>
      </trkpt>
      <trkpt lat="43.100775" lon="-7.12565667">
        <ele>942.0</ele>
        <time>2022-06-19T11:10:31.525Z</time>
      </trkpt>
      <trkpt lat="43.100775" lon="-7.12565667">
        <ele>942.0</ele>
        <time>2022-06-19T11:10:32.489Z</time>
      </trkpt>
      <trkpt lat="43.10067667" lon="-7.12566667">
        <ele>942.0</ele>
        <time>2022-06-19T11:10:33.489Z</time>
      </trkpt>
      <trkpt lat="43.10067667" lon="-7.12566667">
        <ele>942.0</ele>
        <time>2022-06-19T11:10:34.489Z</time>
      </trkpt>
      <trkpt lat="43.10060667" lon="-7.12571667">
        <ele>942.0</ele>
        <time>2022-06-19T11:10:35.512Z</time>
      </trkpt>
      <trkpt lat="43.10060667" lon="-7.12571667">
        <ele>942.0</ele>
        <time>2022-06-19T11:10:36.488Z</time>
      </trkpt>
      <trkpt lat="43.100535" lon="-7.125765">
        <ele>941.0</ele>
        <time>2022-06-19T11:10:37.518Z</time>
      </trkpt>
      <trkpt lat="43.100535" lon="-7.125765">
        <ele>941.0</ele>
        <time>2022-06-19T11:10:38.525Z</time>
      </trkpt>
      <trkpt lat="43.10046" lon="-7.12582667">
        <ele>940.0</ele>
        <time>2022-06-19T11:10:39.526Z</time>
      </trkpt>
      <trkpt lat="43.10042667" lon="-7.12587">
        <ele>940.0</ele>
        <time>2022-06-19T11:10:40.518Z</time>
      </trkpt>
      <trkpt lat="43.10039833" lon="-7.12592167">
        <ele>940.0</ele>
        <time>2022-06-19T11:10:41.500Z</time>
      </trkpt>
      <trkpt lat="43.10039833" lon="-7.12592167">
        <ele>940.0</ele>
        <time>2022-06-19T11:10:42.516Z</time>
      </trkpt>
      <trkpt lat="43.10038667" lon="-7.126015">
        <ele>941.0</ele>
        <time>2022-06-19T11:10:43.497Z</time>
      </trkpt>
      <trkpt lat="43.10038667" lon="-7.126015">
        <ele>941.0</ele>
        <time>2022-06-19T11:10:44.489Z</time>
      </trkpt>
      <trkpt lat="43.10038833" lon="-7.12609667">
        <ele>941.0</ele>
        <time>2022-06-19T11:10:45.487Z</time>
      </trkpt>
      <trkpt lat="43.10038833" lon="-7.12609667">
        <ele>941.0</ele>
        <time>2022-06-19T11:10:46.491Z</time>
      </trkpt>
      <trkpt lat="43.1004" lon="-7.12617833">
        <ele>941.0</ele>
        <time>2022-06-19T11:10:47.520Z</time>
      </trkpt>
      <trkpt lat="43.1004" lon="-7.12617833">
        <ele>941.0</ele>
        <time>2022-06-19T11:10:48.502Z</time>
      </trkpt>
      <trkpt lat="43.10041667" lon="-7.12625667">
        <ele>942.0</ele>
        <time>2022-06-19T11:10:49.500Z</time>
      </trkpt>
      <trkpt lat="43.10041667" lon="-7.12625667">
        <ele>942.0</ele>
        <time>2022-06-19T11:10:50.486Z</time>
      </trkpt>
      <trkpt lat="43.10043833" lon="-7.126335">
        <ele>941.0</ele>
        <time>2022-06-19T11:10:51.517Z</time>
      </trkpt>
      <trkpt lat="43.10045167" lon="-7.12637">
        <ele>941.0</ele>
        <time>2022-06-19T11:10:52.506Z</time>
      </trkpt>
      <trkpt lat="43.10045167" lon="-7.12637">
        <ele>941.0</ele>
        <time>2022-06-19T11:10:53.489Z</time>
      </trkpt>
      <trkpt lat="43.100475" lon="-7.12643833">
        <ele>942.0</ele>
        <time>2022-06-19T11:10:54.517Z</time>
      </trkpt>
      <trkpt lat="43.10049167" lon="-7.12647167">
        <ele>942.0</ele>
        <time>2022-06-19T11:10:55.527Z</time>
      </trkpt>
      <trkpt lat="43.10049167" lon="-7.12647167">
        <ele>942.0</ele>
        <time>2022-06-19T11:10:56.487Z</time>
      </trkpt>
      <trkpt lat="43.10052833" lon="-7.12653667">
        <ele>942.0</ele>
        <time>2022-06-19T11:10:57.507Z</time>
      </trkpt>
      <trkpt lat="43.10052833" lon="-7.12653667">
        <ele>942.0</ele>
        <time>2022-06-19T11:10:58.507Z</time>
      </trkpt>
      <trkpt lat="43.10057" lon="-7.12661167">
        <ele>942.0</ele>
        <time>2022-06-19T11:10:59.524Z</time>
      </trkpt>
      <trkpt lat="43.10057" lon="-7.12661167">
        <ele>942.0</ele>
        <time>2022-06-19T11:11:00.505Z</time>
      </trkpt>
      <trkpt lat="43.10062" lon="-7.12669333">
        <ele>942.0</ele>
        <time>2022-06-19T11:11:01.488Z</time>
      </trkpt>
      <trkpt lat="43.10062" lon="-7.12669333">
        <ele>942.0</ele>
        <time>2022-06-19T11:11:02.507Z</time>
      </trkpt>
      <trkpt lat="43.10067333" lon="-7.12677167">
        <ele>942.0</ele>
        <time>2022-06-19T11:11:03.505Z</time>
      </trkpt>
      <trkpt lat="43.10067333" lon="-7.12677167">
        <ele>942.0</ele>
        <time>2022-06-19T11:11:04.486Z</time>
      </trkpt>
      <trkpt lat="43.10072333" lon="-7.12684333">
        <ele>942.0</ele>
        <time>2022-06-19T11:11:05.498Z</time>
      </trkpt>
      <trkpt lat="43.10072333" lon="-7.12684333">
        <ele>942.0</ele>
        <time>2022-06-19T11:11:06.519Z</time>
      </trkpt>
      <trkpt lat="43.100775" lon="-7.12690667">
        <ele>942.0</ele>
        <time>2022-06-19T11:11:07.497Z</time>
      </trkpt>
      <trkpt lat="43.100775" lon="-7.12690667">
        <ele>942.0</ele>
        <time>2022-06-19T11:11:08.523Z</time>
      </trkpt>
      <trkpt lat="43.10083" lon="-7.12696333">
        <ele>942.0</ele>
        <time>2022-06-19T11:11:09.497Z</time>
      </trkpt>
      <trkpt lat="43.10083" lon="-7.12696333">
        <ele>942.0</ele>
        <time>2022-06-19T11:11:10.519Z</time>
      </trkpt>
      <trkpt lat="43.10087" lon="-7.12701667">
        <ele>942.0</ele>
        <time>2022-06-19T11:11:11.498Z</time>
      </trkpt>
      <trkpt lat="43.10089" lon="-7.12705333">
        <ele>941.0</ele>
        <time>2022-06-19T11:11:12.524Z</time>
      </trkpt>
      <trkpt lat="43.10091167" lon="-7.12709">
        <ele>941.0</ele>
        <time>2022-06-19T11:11:13.507Z</time>
      </trkpt>
      <trkpt lat="43.10091167" lon="-7.12709">
        <ele>941.0</ele>
        <time>2022-06-19T11:11:14.515Z</time>
      </trkpt>
      <trkpt lat="43.10095833" lon="-7.12715">
        <ele>942.0</ele>
        <time>2022-06-19T11:11:15.501Z</time>
      </trkpt>
      <trkpt lat="43.10098167" lon="-7.12718333">
        <ele>941.0</ele>
        <time>2022-06-19T11:11:16.515Z</time>
      </trkpt>
      <trkpt lat="43.10098167" lon="-7.12718333">
        <ele>941.0</ele>
        <time>2022-06-19T11:11:17.502Z</time>
      </trkpt>
      <trkpt lat="43.10103333" lon="-7.12725">
        <ele>942.0</ele>
        <time>2022-06-19T11:11:18.489Z</time>
      </trkpt>
      <trkpt lat="43.10105833" lon="-7.12728333">
        <ele>942.0</ele>
        <time>2022-06-19T11:11:19.514Z</time>
      </trkpt>
      <trkpt lat="43.10105833" lon="-7.12728333">
        <ele>942.0</ele>
        <time>2022-06-19T11:11:20.489Z</time>
      </trkpt>
      <trkpt lat="43.10111667" lon="-7.12735333">
        <ele>942.0</ele>
        <time>2022-06-19T11:11:21.517Z</time>
      </trkpt>
      <trkpt lat="43.10111667" lon="-7.12735333">
        <ele>942.0</ele>
        <time>2022-06-19T11:11:22.508Z</time>
      </trkpt>
      <trkpt lat="43.10117833" lon="-7.12741667">
        <ele>941.0</ele>
        <time>2022-06-19T11:11:23.491Z</time>
      </trkpt>
      <trkpt lat="43.10117833" lon="-7.12741667">
        <ele>941.0</ele>
        <time>2022-06-19T11:11:24.524Z</time>
      </trkpt>
      <trkpt lat="43.10124167" lon="-7.12749333">
        <ele>941.0</ele>
        <time>2022-06-19T11:11:25.507Z</time>
      </trkpt>
      <trkpt lat="43.10124167" lon="-7.12749333">
        <ele>941.0</ele>
        <time>2022-06-19T11:11:26.521Z</time>
      </trkpt>
      <trkpt lat="43.10132" lon="-7.12756833">
        <ele>941.0</ele>
        <time>2022-06-19T11:11:27.499Z</time>
      </trkpt>
      <trkpt lat="43.101355" lon="-7.12761">
        <ele>941.0</ele>
        <time>2022-06-19T11:11:28.499Z</time>
      </trkpt>
      <trkpt lat="43.101355" lon="-7.12761">
        <ele>941.0</ele>
        <time>2022-06-19T11:11:29.515Z</time>
      </trkpt>
      <trkpt lat="43.10143833" lon="-7.12768">
        <ele>942.0</ele>
        <time>2022-06-19T11:11:30.507Z</time>
      </trkpt>
      <trkpt lat="43.10147667" lon="-7.12771667">
        <ele>942.0</ele>
        <time>2022-06-19T11:11:31.502Z</time>
      </trkpt>
      <trkpt lat="43.10147667" lon="-7.12771667">
        <ele>942.0</ele>
        <time>2022-06-19T11:11:32.514Z</time>
      </trkpt>
      <trkpt lat="43.10154" lon="-7.12777667">
        <ele>942.0</ele>
        <time>2022-06-19T11:11:33.500Z</time>
      </trkpt>
      <trkpt lat="43.10155833" lon="-7.12779333">
        <ele>942.0</ele>
        <time>2022-06-19T11:11:34.495Z</time>
      </trkpt>
      <trkpt lat="43.10155833" lon="-7.12779333">
        <ele>942.0</ele>
        <time>2022-06-19T11:11:35.512Z</time>
      </trkpt>
      <trkpt lat="43.101605" lon="-7.12782833">
        <ele>941.0</ele>
        <time>2022-06-19T11:11:36.502Z</time>
      </trkpt>
      <trkpt lat="43.10162833" lon="-7.12784833">
        <ele>941.0</ele>
        <time>2022-06-19T11:11:37.486Z</time>
      </trkpt>
      <trkpt lat="43.10162833" lon="-7.12784833">
        <ele>941.0</ele>
        <time>2022-06-19T11:11:38.502Z</time>
      </trkpt>
      <trkpt lat="43.10168" lon="-7.12789833">
        <ele>941.0</ele>
        <time>2022-06-19T11:11:39.496Z</time>
      </trkpt>
      <trkpt lat="43.10170667" lon="-7.12793">
        <ele>941.0</ele>
        <time>2022-06-19T11:11:40.498Z</time>
      </trkpt>
      <trkpt lat="43.101735" lon="-7.12796333">
        <ele>941.0</ele>
        <time>2022-06-19T11:11:41.511Z</time>
      </trkpt>
      <trkpt lat="43.101735" lon="-7.12796333">
        <ele>941.0</ele>
        <time>2022-06-19T11:11:42.503Z</time>
      </trkpt>
      <trkpt lat="43.1018" lon="-7.12804167">
        <ele>941.0</ele>
        <time>2022-06-19T11:11:43.503Z</time>
      </trkpt>
      <trkpt lat="43.1018" lon="-7.12804167">
        <ele>941.0</ele>
        <time>2022-06-19T11:11:44.493Z</time>
      </trkpt>
      <trkpt lat="43.10185667" lon="-7.12813167">
        <ele>941.0</ele>
        <time>2022-06-19T11:11:45.502Z</time>
      </trkpt>
      <trkpt lat="43.10185667" lon="-7.12813167">
        <ele>941.0</ele>
        <time>2022-06-19T11:11:46.489Z</time>
      </trkpt>
      <trkpt lat="43.101885" lon="-7.128205">
        <ele>940.0</ele>
        <time>2022-06-19T11:11:47.515Z</time>
      </trkpt>
      <trkpt lat="43.101885" lon="-7.128205">
        <ele>940.0</ele>
        <time>2022-06-19T11:11:48.525Z</time>
      </trkpt>
      <trkpt lat="43.1019" lon="-7.12827167">
        <ele>940.0</ele>
        <time>2022-06-19T11:11:49.507Z</time>
      </trkpt>
      <trkpt lat="43.1019" lon="-7.12827167">
        <ele>940.0</ele>
        <time>2022-06-19T11:11:50.520Z</time>
      </trkpt>
      <trkpt lat="43.10191333" lon="-7.12834667">
        <ele>940.0</ele>
        <time>2022-06-19T11:11:51.500Z</time>
      </trkpt>
      <trkpt lat="43.10191333" lon="-7.12834667">
        <ele>940.0</ele>
        <time>2022-06-19T11:11:52.495Z</time>
      </trkpt>
      <trkpt lat="43.101925" lon="-7.128425">
        <ele>940.0</ele>
        <time>2022-06-19T11:11:53.487Z</time>
      </trkpt>
      <trkpt lat="43.101925" lon="-7.128425">
        <ele>940.0</ele>
        <time>2022-06-19T11:11:54.495Z</time>
      </trkpt>
      <trkpt lat="43.10194833" lon="-7.12848667">
        <ele>940.0</ele>
        <time>2022-06-19T11:11:55.518Z</time>
      </trkpt>
      <trkpt lat="43.10194833" lon="-7.12848667">
        <ele>940.0</ele>
        <time>2022-06-19T11:11:56.517Z</time>
      </trkpt>
      <trkpt lat="43.10196167" lon="-7.12854667">
        <ele>940.0</ele>
        <time>2022-06-19T11:11:57.507Z</time>
      </trkpt>
      <trkpt lat="43.10196167" lon="-7.12854667">
        <ele>940.0</ele>
        <time>2022-06-19T11:11:58.525Z</time>
      </trkpt>
      <trkpt lat="43.101975" lon="-7.12861">
        <ele>941.0</ele>
        <time>2022-06-19T11:11:59.511Z</time>
      </trkpt>
      <trkpt lat="43.101975" lon="-7.12861">
        <ele>941.0</ele>
        <time>2022-06-19T11:12:00.490Z</time>
      </trkpt>
      <trkpt lat="43.10198833" lon="-7.12868667">
        <ele>941.0</ele>
        <time>2022-06-19T11:12:01.519Z</time>
      </trkpt>
      <trkpt lat="43.10198833" lon="-7.12868667">
        <ele>941.0</ele>
        <time>2022-06-19T11:12:02.507Z</time>
      </trkpt>
      <trkpt lat="43.10200333" lon="-7.12875833">
        <ele>941.0</ele>
        <time>2022-06-19T11:12:03.487Z</time>
      </trkpt>
      <trkpt lat="43.10201333" lon="-7.12879667">
        <ele>942.0</ele>
        <time>2022-06-19T11:12:04.499Z</time>
      </trkpt>
      <trkpt lat="43.10201333" lon="-7.12879667">
        <ele>942.0</ele>
        <time>2022-06-19T11:12:05.508Z</time>
      </trkpt>
      <trkpt lat="43.10202667" lon="-7.12887333">
        <ele>942.0</ele>
        <time>2022-06-19T11:12:06.525Z</time>
      </trkpt>
      <trkpt lat="43.10202833" lon="-7.12889667">
        <ele>942.0</ele>
        <time>2022-06-19T11:12:07.516Z</time>
      </trkpt>
      <trkpt lat="43.10203" lon="-7.12892167">
        <ele>943.0</ele>
        <time>2022-06-19T11:12:08.500Z</time>
      </trkpt>
      <trkpt lat="43.10203" lon="-7.12892167">
        <ele>943.0</ele>
        <time>2022-06-19T11:12:09.503Z</time>
      </trkpt>
      <trkpt lat="43.10202833" lon="-7.12895667">
        <ele>943.0</ele>
        <time>2022-06-19T11:12:10.520Z</time>
      </trkpt>
      <trkpt lat="43.10202833" lon="-7.12895667">
        <ele>943.0</ele>
        <time>2022-06-19T11:12:11.507Z</time>
      </trkpt>
      <trkpt lat="43.10202833" lon="-7.12899">
        <ele>944.0</ele>
        <time>2022-06-19T11:12:12.487Z</time>
      </trkpt>
      <trkpt lat="43.10202833" lon="-7.12899">
        <ele>944.0</ele>
        <time>2022-06-19T11:12:13.505Z</time>
      </trkpt>
      <trkpt lat="43.10203167" lon="-7.12905333">
        <ele>944.0</ele>
        <time>2022-06-19T11:12:14.496Z</time>
      </trkpt>
      <trkpt lat="43.10203167" lon="-7.12905333">
        <ele>944.0</ele>
        <time>2022-06-19T11:12:15.495Z</time>
      </trkpt>
      <trkpt lat="43.10203167" lon="-7.12911">
        <ele>944.0</ele>
        <time>2022-06-19T11:12:16.523Z</time>
      </trkpt>
      <trkpt lat="43.10204" lon="-7.129135">
        <ele>944.0</ele>
        <time>2022-06-19T11:12:17.520Z</time>
      </trkpt>
      <trkpt lat="43.10204" lon="-7.129135">
        <ele>944.0</ele>
        <time>2022-06-19T11:12:18.511Z</time>
      </trkpt>
      <trkpt lat="43.10205167" lon="-7.12919">
        <ele>945.0</ele>
        <time>2022-06-19T11:12:19.500Z</time>
      </trkpt>
      <trkpt lat="43.10205333" lon="-7.12921667">
        <ele>945.0</ele>
        <time>2022-06-19T11:12:20.497Z</time>
      </trkpt>
      <trkpt lat="43.10205333" lon="-7.12921667">
        <ele>945.0</ele>
        <time>2022-06-19T11:12:21.502Z</time>
      </trkpt>
      <trkpt lat="43.10206333" lon="-7.12926333">
        <ele>945.0</ele>
        <time>2022-06-19T11:12:22.488Z</time>
      </trkpt>
      <trkpt lat="43.10206667" lon="-7.129285">
        <ele>946.0</ele>
        <time>2022-06-19T11:12:23.501Z</time>
      </trkpt>
      <trkpt lat="43.10206667" lon="-7.12930333">
        <ele>946.0</ele>
        <time>2022-06-19T11:12:24.492Z</time>
      </trkpt>
      <trkpt lat="43.10206667" lon="-7.12930333">
        <ele>946.0</ele>
        <time>2022-06-19T11:12:25.486Z</time>
      </trkpt>
      <trkpt lat="43.10206667" lon="-7.12937">
        <ele>946.0</ele>
        <time>2022-06-19T11:12:26.519Z</time>
      </trkpt>
      <trkpt lat="43.10206667" lon="-7.12939333">
        <ele>947.0</ele>
        <time>2022-06-19T11:12:27.511Z</time>
      </trkpt>
      <trkpt lat="43.10206667" lon="-7.12939333">
        <ele>947.0</ele>
        <time>2022-06-19T11:12:28.518Z</time>
      </trkpt>
      <trkpt lat="43.10206667" lon="-7.129425">
        <ele>947.0</ele>
        <time>2022-06-19T11:12:29.510Z</time>
      </trkpt>
      <trkpt lat="43.10206833" lon="-7.12944167">
        <ele>947.0</ele>
        <time>2022-06-19T11:12:30.504Z</time>
      </trkpt>
      <trkpt lat="43.10206833" lon="-7.12944167">
        <ele>947.0</ele>
        <time>2022-06-19T11:12:31.494Z</time>
      </trkpt>
      <trkpt lat="43.10205667" lon="-7.12948667">
        <ele>948.0</ele>
        <time>2022-06-19T11:12:32.529Z</time>
      </trkpt>
      <trkpt lat="43.10205333" lon="-7.129495">
        <ele>948.0</ele>
        <time>2022-06-19T11:12:33.487Z</time>
      </trkpt>
      <trkpt lat="43.10205333" lon="-7.129495">
        <ele>948.0</ele>
        <time>2022-06-19T11:12:34.498Z</time>
      </trkpt>
      <trkpt lat="43.10207" lon="-7.12950667">
        <ele>949.0</ele>
        <time>2022-06-19T11:12:35.497Z</time>
      </trkpt>
      <trkpt lat="43.10206667" lon="-7.12953167">
        <ele>949.0</ele>
        <time>2022-06-19T11:12:36.494Z</time>
      </trkpt>
      <trkpt lat="43.10207" lon="-7.12955167">
        <ele>949.0</ele>
        <time>2022-06-19T11:12:37.527Z</time>
      </trkpt>
      <trkpt lat="43.10207" lon="-7.12955167">
        <ele>949.0</ele>
        <time>2022-06-19T11:12:38.501Z</time>
      </trkpt>
      <trkpt lat="43.10207333" lon="-7.12959">
        <ele>950.0</ele>
        <time>2022-06-19T11:12:39.520Z</time>
      </trkpt>
      <trkpt lat="43.10207333" lon="-7.12959">
        <ele>950.0</ele>
        <time>2022-06-19T11:12:40.502Z</time>
      </trkpt>
      <trkpt lat="43.10208667" lon="-7.129615">
        <ele>951.0</ele>
        <time>2022-06-19T11:12:41.525Z</time>
      </trkpt>
      <trkpt lat="43.10208667" lon="-7.129615">
        <ele>951.0</ele>
        <time>2022-06-19T11:12:42.520Z</time>
      </trkpt>
      <trkpt lat="43.10209" lon="-7.12965167">
        <ele>951.0</ele>
        <time>2022-06-19T11:12:43.513Z</time>
      </trkpt>
      <trkpt lat="43.10209333" lon="-7.12966833">
        <ele>952.0</ele>
        <time>2022-06-19T11:12:44.489Z</time>
      </trkpt>
      <trkpt lat="43.10209333" lon="-7.12966833">
        <ele>952.0</ele>
        <time>2022-06-19T11:12:45.495Z</time>
      </trkpt>
      <trkpt lat="43.10209667" lon="-7.12971">
        <ele>952.0</ele>
        <time>2022-06-19T11:12:46.497Z</time>
      </trkpt>
      <trkpt lat="43.10209333" lon="-7.12972333">
        <ele>952.0</ele>
        <time>2022-06-19T11:12:47.507Z</time>
      </trkpt>
      <trkpt lat="43.10209333" lon="-7.12972333">
        <ele>952.0</ele>
        <time>2022-06-19T11:12:48.516Z</time>
      </trkpt>
      <trkpt lat="43.10208" lon="-7.12974333">
        <ele>952.0</ele>
        <time>2022-06-19T11:12:49.499Z</time>
      </trkpt>
      <trkpt lat="43.10208" lon="-7.12974333">
        <ele>952.0</ele>
        <time>2022-06-19T11:12:50.491Z</time>
      </trkpt>
      <trkpt lat="43.10206833" lon="-7.12973333">
        <ele>953.0</ele>
        <time>2022-06-19T11:12:51.490Z</time>
      </trkpt>
      <trkpt lat="43.10206833" lon="-7.12973333">
        <ele>953.0</ele>
        <time>2022-06-19T11:12:52.509Z</time>
      </trkpt>
      <trkpt lat="43.10206" lon="-7.12973167">
        <ele>954.0</ele>
        <time>2022-06-19T11:12:53.493Z</time>
      </trkpt>
      <trkpt lat="43.10206" lon="-7.12973167">
        <ele>954.0</ele>
        <time>2022-06-19T11:12:54.506Z</time>
      </trkpt>
      <trkpt lat="43.10204833" lon="-7.12972167">
        <ele>954.0</ele>
        <time>2022-06-19T11:12:55.497Z</time>
      </trkpt>
      <trkpt lat="43.10204667" lon="-7.12971833">
        <ele>954.0</ele>
        <time>2022-06-19T11:12:56.511Z</time>
      </trkpt>
      <trkpt lat="43.10204667" lon="-7.12971833">
        <ele>954.0</ele>
        <time>2022-06-19T11:12:59.011Z</time>
      </trkpt>
      <trkpt lat="43.102015" lon="-7.12970167">
        <ele>955.0</ele>
        <time>2022-06-19T11:13:00.001Z</time>
      </trkpt>
      <trkpt lat="43.102015" lon="-7.12970167">
        <ele>955.0</ele>
        <time>2022-06-19T11:13:00.998Z</time>
      </trkpt>
      <trkpt lat="43.10199833" lon="-7.12969">
        <ele>955.0</ele>
        <time>2022-06-19T11:13:01.996Z</time>
      </trkpt>
      <trkpt lat="43.10199833" lon="-7.12969">
        <ele>955.0</ele>
        <time>2022-06-19T11:13:03.014Z</time>
      </trkpt>
      <trkpt lat="43.101975" lon="-7.129675">
        <ele>956.0</ele>
        <time>2022-06-19T11:13:04.010Z</time>
      </trkpt>
      <trkpt lat="43.101975" lon="-7.129675">
        <ele>956.0</ele>
        <time>2022-06-19T11:13:05.018Z</time>
      </trkpt>
      <trkpt lat="43.10195333" lon="-7.12966167">
        <ele>956.0</ele>
        <time>2022-06-19T11:13:06.020Z</time>
      </trkpt>
      <trkpt lat="43.10194333" lon="-7.12965333">
        <ele>956.0</ele>
        <time>2022-06-19T11:13:07.021Z</time>
      </trkpt>
      <trkpt lat="43.10194333" lon="-7.12965333">
        <ele>956.0</ele>
        <time>2022-06-19T11:13:07.987Z</time>
      </trkpt>
      <trkpt lat="43.10192667" lon="-7.129635">
        <ele>956.0</ele>
        <time>2022-06-19T11:13:09.017Z</time>
      </trkpt>
      <trkpt lat="43.101915" lon="-7.12962667">
        <ele>957.0</ele>
        <time>2022-06-19T11:13:10.000Z</time>
      </trkpt>
      <trkpt lat="43.101915" lon="-7.12962667">
        <ele>957.0</ele>
        <time>2022-06-19T11:13:11.006Z</time>
      </trkpt>
      <trkpt lat="43.10189167" lon="-7.12961">
        <ele>957.0</ele>
        <time>2022-06-19T11:13:11.997Z</time>
      </trkpt>
      <trkpt lat="43.10189167" lon="-7.12961">
        <ele>957.0</ele>
        <time>2022-06-19T11:13:13.003Z</time>
      </trkpt>
      <trkpt lat="43.101875" lon="-7.12959667">
        <ele>957.0</ele>
        <time>2022-06-19T11:13:13.987Z</time>
      </trkpt>
      <trkpt lat="43.101875" lon="-7.12959667">
        <ele>957.0</ele>
        <time>2022-06-19T11:13:14.993Z</time>
      </trkpt>
      <trkpt lat="43.101855" lon="-7.12958333">
        <ele>957.0</ele>
        <time>2022-06-19T11:13:16.020Z</time>
      </trkpt>
      <trkpt lat="43.10183333" lon="-7.12957667">
        <ele>957.0</ele>
        <time>2022-06-19T11:13:17.006Z</time>
      </trkpt>
      <trkpt lat="43.10183333" lon="-7.12957667">
        <ele>957.0</ele>
        <time>2022-06-19T11:13:18.012Z</time>
      </trkpt>
      <trkpt lat="43.10182" lon="-7.12957333">
        <ele>958.0</ele>
        <time>2022-06-19T11:13:18.987Z</time>
      </trkpt>
      <trkpt lat="43.10182" lon="-7.12957333">
        <ele>958.0</ele>
        <time>2022-06-19T11:13:19.993Z</time>
      </trkpt>
      <trkpt lat="43.10181667" lon="-7.129565">
        <ele>958.0</ele>
        <time>2022-06-19T11:13:21.015Z</time>
      </trkpt>
      <trkpt lat="43.10181667" lon="-7.129565">
        <ele>958.0</ele>
        <time>2022-06-19T11:13:22.022Z</time>
      </trkpt>
      <trkpt lat="43.10180667" lon="-7.12955167">
        <ele>959.0</ele>
        <time>2022-06-19T11:13:23.013Z</time>
      </trkpt>
      <trkpt lat="43.10180667" lon="-7.12955167">
        <ele>959.0</ele>
        <time>2022-06-19T11:13:24.022Z</time>
      </trkpt>
      <trkpt lat="43.10179167" lon="-7.129535">
        <ele>959.0</ele>
        <time>2022-06-19T11:13:25.021Z</time>
      </trkpt>
      <trkpt lat="43.10179167" lon="-7.129535">
        <ele>959.0</ele>
        <time>2022-06-19T11:13:25.987Z</time>
      </trkpt>
      <trkpt lat="43.101775" lon="-7.129525">
        <ele>960.0</ele>
        <time>2022-06-19T11:13:27.019Z</time>
      </trkpt>
      <trkpt lat="43.10175" lon="-7.12950333">
        <ele>960.0</ele>
        <time>2022-06-19T11:13:28.017Z</time>
      </trkpt>
      <trkpt lat="43.10175" lon="-7.12950333">
        <ele>960.0</ele>
        <time>2022-06-19T11:13:29.024Z</time>
      </trkpt>
      <trkpt lat="43.10172333" lon="-7.12947167">
        <ele>960.0</ele>
        <time>2022-06-19T11:13:30.021Z</time>
      </trkpt>
      <trkpt lat="43.10171167" lon="-7.12946">
        <ele>961.0</ele>
        <time>2022-06-19T11:13:31.007Z</time>
      </trkpt>
      <trkpt lat="43.10171167" lon="-7.12946">
        <ele>961.0</ele>
        <time>2022-06-19T11:13:32.013Z</time>
      </trkpt>
      <trkpt lat="43.10169" lon="-7.12943333">
        <ele>961.0</ele>
        <time>2022-06-19T11:13:33.018Z</time>
      </trkpt>
      <trkpt lat="43.10169" lon="-7.12943333">
        <ele>961.0</ele>
        <time>2022-06-19T11:13:34.025Z</time>
      </trkpt>
      <trkpt lat="43.10167667" lon="-7.129405">
        <ele>962.0</ele>
        <time>2022-06-19T11:13:35.016Z</time>
      </trkpt>
      <trkpt lat="43.10167667" lon="-7.129405">
        <ele>962.0</ele>
        <time>2022-06-19T11:13:36.022Z</time>
      </trkpt>
      <trkpt lat="43.10165833" lon="-7.12937667">
        <ele>962.0</ele>
        <time>2022-06-19T11:13:37.021Z</time>
      </trkpt>
      <trkpt lat="43.10165833" lon="-7.12937667">
        <ele>962.0</ele>
        <time>2022-06-19T11:13:37.987Z</time>
      </trkpt>
      <trkpt lat="43.10163" lon="-7.12934667">
        <ele>962.0</ele>
        <time>2022-06-19T11:13:39.000Z</time>
      </trkpt>
      <trkpt lat="43.10163" lon="-7.12934667">
        <ele>962.0</ele>
        <time>2022-06-19T11:13:40.005Z</time>
      </trkpt>
      <trkpt lat="43.101595" lon="-7.12932167">
        <ele>963.0</ele>
        <time>2022-06-19T11:13:41.019Z</time>
      </trkpt>
      <trkpt lat="43.10158167" lon="-7.12930833">
        <ele>963.0</ele>
        <time>2022-06-19T11:13:42.010Z</time>
      </trkpt>
      <trkpt lat="43.10158167" lon="-7.12930833">
        <ele>963.0</ele>
        <time>2022-06-19T11:13:43.016Z</time>
      </trkpt>
      <trkpt lat="43.10154333" lon="-7.12928833">
        <ele>963.0</ele>
        <time>2022-06-19T11:13:44.014Z</time>
      </trkpt>
      <trkpt lat="43.10154333" lon="-7.12928833">
        <ele>963.0</ele>
        <time>2022-06-19T11:13:45.020Z</time>
      </trkpt>
      <trkpt lat="43.10151" lon="-7.12926667">
        <ele>963.0</ele>
        <time>2022-06-19T11:13:46.006Z</time>
      </trkpt>
      <trkpt lat="43.10151" lon="-7.12926667">
        <ele>963.0</ele>
        <time>2022-06-19T11:13:47.012Z</time>
      </trkpt>
      <trkpt lat="43.10147667" lon="-7.12924833">
        <ele>964.0</ele>
        <time>2022-06-19T11:13:48.005Z</time>
      </trkpt>
      <trkpt lat="43.10147667" lon="-7.12924833">
        <ele>964.0</ele>
        <time>2022-06-19T11:13:49.011Z</time>
      </trkpt>
      <trkpt lat="43.101435" lon="-7.12924">
        <ele>964.0</ele>
        <time>2022-06-19T11:13:50.004Z</time>
      </trkpt>
      <trkpt lat="43.101435" lon="-7.12924">
        <ele>964.0</ele>
        <time>2022-06-19T11:13:51.011Z</time>
      </trkpt>
      <trkpt lat="43.1014" lon="-7.12924333">
        <ele>963.0</ele>
        <time>2022-06-19T11:13:52.017Z</time>
      </trkpt>
      <trkpt lat="43.101385" lon="-7.12924833">
        <ele>964.0</ele>
        <time>2022-06-19T11:13:53.016Z</time>
      </trkpt>
      <trkpt lat="43.101385" lon="-7.12924833">
        <ele>964.0</ele>
        <time>2022-06-19T11:13:54.022Z</time>
      </trkpt>
      <trkpt lat="43.10135333" lon="-7.12925167">
        <ele>963.0</ele>
        <time>2022-06-19T11:13:54.996Z</time>
      </trkpt>
      <trkpt lat="43.10135333" lon="-7.12925167">
        <ele>963.0</ele>
        <time>2022-06-19T11:13:56.003Z</time>
      </trkpt>
      <trkpt lat="43.101315" lon="-7.12926333">
        <ele>963.0</ele>
        <time>2022-06-19T11:13:56.987Z</time>
      </trkpt>
      <trkpt lat="43.101315" lon="-7.12926333">
        <ele>963.0</ele>
        <time>2022-06-19T11:13:57.993Z</time>
      </trkpt>
      <trkpt lat="43.10127333" lon="-7.129275">
        <ele>963.0</ele>
        <time>2022-06-19T11:13:59.020Z</time>
      </trkpt>
      <trkpt lat="43.10125167" lon="-7.12927833">
        <ele>963.0</ele>
        <time>2022-06-19T11:14:00.021Z</time>
      </trkpt>
      <trkpt lat="43.10125167" lon="-7.12927833">
        <ele>963.0</ele>
        <time>2022-06-19T11:14:00.987Z</time>
      </trkpt>
      <trkpt lat="43.10121" lon="-7.12929167">
        <ele>962.0</ele>
        <time>2022-06-19T11:14:01.987Z</time>
      </trkpt>
      <trkpt lat="43.10121" lon="-7.12929167">
        <ele>962.0</ele>
        <time>2022-06-19T11:14:02.993Z</time>
      </trkpt>
      <trkpt lat="43.10117167" lon="-7.12930833">
        <ele>962.0</ele>
        <time>2022-06-19T11:14:03.997Z</time>
      </trkpt>
      <trkpt lat="43.10115" lon="-7.12931667">
        <ele>962.0</ele>
        <time>2022-06-19T11:14:05.003Z</time>
      </trkpt>
      <trkpt lat="43.10112833" lon="-7.12932833">
        <ele>962.0</ele>
        <time>2022-06-19T11:14:06.001Z</time>
      </trkpt>
      <trkpt lat="43.10112833" lon="-7.12932833">
        <ele>962.0</ele>
        <time>2022-06-19T11:14:07.010Z</time>
      </trkpt>
      <trkpt lat="43.10108333" lon="-7.12935167">
        <ele>962.0</ele>
        <time>2022-06-19T11:14:08.017Z</time>
      </trkpt>
      <trkpt lat="43.10108333" lon="-7.12935167">
        <ele>962.0</ele>
        <time>2022-06-19T11:14:08.987Z</time>
      </trkpt>
      <trkpt lat="43.101045" lon="-7.12936833">
        <ele>961.0</ele>
        <time>2022-06-19T11:14:10.015Z</time>
      </trkpt>
      <trkpt lat="43.101025" lon="-7.129375">
        <ele>961.0</ele>
        <time>2022-06-19T11:14:11.010Z</time>
      </trkpt>
      <trkpt lat="43.101025" lon="-7.129375">
        <ele>961.0</ele>
        <time>2022-06-19T11:14:12.018Z</time>
      </trkpt>
      <trkpt lat="43.10099167" lon="-7.12937833">
        <ele>961.0</ele>
        <time>2022-06-19T11:14:13.013Z</time>
      </trkpt>
      <trkpt lat="43.10097" lon="-7.12938167">
        <ele>961.0</ele>
        <time>2022-06-19T11:14:14.008Z</time>
      </trkpt>
      <trkpt lat="43.10094667" lon="-7.12939167">
        <ele>961.0</ele>
        <time>2022-06-19T11:14:15.013Z</time>
      </trkpt>
      <trkpt lat="43.10094667" lon="-7.12939167">
        <ele>961.0</ele>
        <time>2022-06-19T11:14:16.023Z</time>
      </trkpt>
      <trkpt lat="43.100905" lon="-7.12939667">
        <ele>960.0</ele>
        <time>2022-06-19T11:14:17.019Z</time>
      </trkpt>
      <trkpt lat="43.100905" lon="-7.12939667">
        <ele>960.0</ele>
        <time>2022-06-19T11:14:17.990Z</time>
      </trkpt>
      <trkpt lat="43.10085667" lon="-7.12941833">
        <ele>960.0</ele>
        <time>2022-06-19T11:14:19.014Z</time>
      </trkpt>
      <trkpt lat="43.10081667" lon="-7.12943167">
        <ele>960.0</ele>
        <time>2022-06-19T11:14:20.005Z</time>
      </trkpt>
      <trkpt lat="43.10081667" lon="-7.12943167">
        <ele>960.0</ele>
        <time>2022-06-19T11:14:21.019Z</time>
      </trkpt>
      <trkpt lat="43.10078" lon="-7.12945167">
        <ele>960.0</ele>
        <time>2022-06-19T11:14:22.017Z</time>
      </trkpt>
      <trkpt lat="43.10075833" lon="-7.12945">
        <ele>960.0</ele>
        <time>2022-06-19T11:14:23.020Z</time>
      </trkpt>
      <trkpt lat="43.10075833" lon="-7.12945">
        <ele>960.0</ele>
        <time>2022-06-19T11:14:23.991Z</time>
      </trkpt>
      <trkpt lat="43.10071333" lon="-7.12945833">
        <ele>960.0</ele>
        <time>2022-06-19T11:14:24.991Z</time>
      </trkpt>
      <trkpt lat="43.10068833" lon="-7.129465">
        <ele>960.0</ele>
        <time>2022-06-19T11:14:26.025Z</time>
      </trkpt>
      <trkpt lat="43.10068833" lon="-7.129465">
        <ele>960.0</ele>
        <time>2022-06-19T11:14:26.993Z</time>
      </trkpt>
      <trkpt lat="43.10065667" lon="-7.12947667">
        <ele>961.0</ele>
        <time>2022-06-19T11:14:28.005Z</time>
      </trkpt>
      <trkpt lat="43.10065667" lon="-7.12947667">
        <ele>961.0</ele>
        <time>2022-06-19T11:14:29.013Z</time>
      </trkpt>
      <trkpt lat="43.10062" lon="-7.12949333">
        <ele>961.0</ele>
        <time>2022-06-19T11:14:29.998Z</time>
      </trkpt>
      <trkpt lat="43.10060667" lon="-7.12950167">
        <ele>961.0</ele>
        <time>2022-06-19T11:14:31.023Z</time>
      </trkpt>
      <trkpt lat="43.10060667" lon="-7.12950167">
        <ele>961.0</ele>
        <time>2022-06-19T11:14:31.993Z</time>
      </trkpt>
      <trkpt lat="43.10056333" lon="-7.129535">
        <ele>961.0</ele>
        <time>2022-06-19T11:14:32.994Z</time>
      </trkpt>
      <trkpt lat="43.10056333" lon="-7.129535">
        <ele>961.0</ele>
        <time>2022-06-19T11:14:34.001Z</time>
      </trkpt>
      <trkpt lat="43.10053333" lon="-7.12956">
        <ele>962.0</ele>
        <time>2022-06-19T11:14:34.994Z</time>
      </trkpt>
      <trkpt lat="43.10051333" lon="-7.12957">
        <ele>962.0</ele>
        <time>2022-06-19T11:14:35.988Z</time>
      </trkpt>
      <trkpt lat="43.10051333" lon="-7.12957">
        <ele>962.0</ele>
        <time>2022-06-19T11:14:36.997Z</time>
      </trkpt>
      <trkpt lat="43.10048" lon="-7.12958833">
        <ele>961.0</ele>
        <time>2022-06-19T11:14:37.991Z</time>
      </trkpt>
      <trkpt lat="43.10048" lon="-7.12958833">
        <ele>961.0</ele>
        <time>2022-06-19T11:14:38.998Z</time>
      </trkpt>
      <trkpt lat="43.10045333" lon="-7.12961">
        <ele>961.0</ele>
        <time>2022-06-19T11:14:40.023Z</time>
      </trkpt>
      <trkpt lat="43.10045333" lon="-7.12961">
        <ele>961.0</ele>
        <time>2022-06-19T11:14:40.991Z</time>
      </trkpt>
      <trkpt lat="43.10042833" lon="-7.12963833">
        <ele>962.0</ele>
        <time>2022-06-19T11:14:42.022Z</time>
      </trkpt>
      <trkpt lat="43.10042833" lon="-7.12963833">
        <ele>962.0</ele>
        <time>2022-06-19T11:14:42.988Z</time>
      </trkpt>
      <trkpt lat="43.10040833" lon="-7.129655">
        <ele>961.0</ele>
        <time>2022-06-19T11:14:44.017Z</time>
      </trkpt>
      <trkpt lat="43.10040833" lon="-7.129655">
        <ele>961.0</ele>
        <time>2022-06-19T11:14:45.024Z</time>
      </trkpt>
      <trkpt lat="43.10038167" lon="-7.129665">
        <ele>961.0</ele>
        <time>2022-06-19T11:14:46.020Z</time>
      </trkpt>
      <trkpt lat="43.10038167" lon="-7.129665">
        <ele>961.0</ele>
        <time>2022-06-19T11:14:47.026Z</time>
      </trkpt>
      <trkpt lat="43.10036" lon="-7.129695">
        <ele>961.0</ele>
        <time>2022-06-19T11:14:47.987Z</time>
      </trkpt>
      <trkpt lat="43.10036" lon="-7.129695">
        <ele>961.0</ele>
        <time>2022-06-19T11:14:48.994Z</time>
      </trkpt>
      <trkpt lat="43.100325" lon="-7.129735">
        <ele>961.0</ele>
        <time>2022-06-19T11:14:49.988Z</time>
      </trkpt>
      <trkpt lat="43.100325" lon="-7.129735">
        <ele>961.0</ele>
        <time>2022-06-19T11:14:50.994Z</time>
      </trkpt>
      <trkpt lat="43.10025333" lon="-7.12979667">
        <ele>961.0</ele>
        <time>2022-06-19T11:14:52.002Z</time>
      </trkpt>
      <trkpt lat="43.10022333" lon="-7.12983667">
        <ele>961.0</ele>
        <time>2022-06-19T11:14:52.992Z</time>
      </trkpt>
      <trkpt lat="43.10019333" lon="-7.12987">
        <ele>962.0</ele>
        <time>2022-06-19T11:14:53.993Z</time>
      </trkpt>
      <trkpt lat="43.10019333" lon="-7.12987">
        <ele>962.0</ele>
        <time>2022-06-19T11:14:55.003Z</time>
      </trkpt>
      <trkpt lat="43.100155" lon="-7.12992667">
        <ele>962.0</ele>
        <time>2022-06-19T11:14:55.991Z</time>
      </trkpt>
      <trkpt lat="43.100155" lon="-7.12992667">
        <ele>962.0</ele>
        <time>2022-06-19T11:14:57.019Z</time>
      </trkpt>
      <trkpt lat="43.10011667" lon="-7.12995">
        <ele>962.0</ele>
        <time>2022-06-19T11:14:58.012Z</time>
      </trkpt>
      <trkpt lat="43.10011667" lon="-7.12995">
        <ele>962.0</ele>
        <time>2022-06-19T11:14:59.020Z</time>
      </trkpt>
      <trkpt lat="43.10007833" lon="-7.12997167">
        <ele>963.0</ele>
        <time>2022-06-19T11:15:00.022Z</time>
      </trkpt>
      <trkpt lat="43.10007833" lon="-7.12997167">
        <ele>963.0</ele>
        <time>2022-06-19T11:15:00.993Z</time>
      </trkpt>
      <trkpt lat="43.100035" lon="-7.129995">
        <ele>963.0</ele>
        <time>2022-06-19T11:15:01.997Z</time>
      </trkpt>
      <trkpt lat="43.100035" lon="-7.129995">
        <ele>963.0</ele>
        <time>2022-06-19T11:15:03.005Z</time>
      </trkpt>
      <trkpt lat="43.100005" lon="-7.13002333">
        <ele>963.0</ele>
        <time>2022-06-19T11:15:04.001Z</time>
      </trkpt>
      <trkpt lat="43.100005" lon="-7.13002333">
        <ele>963.0</ele>
        <time>2022-06-19T11:15:05.007Z</time>
      </trkpt>
      <trkpt lat="43.09997333" lon="-7.13006333">
        <ele>964.0</ele>
        <time>2022-06-19T11:15:06.004Z</time>
      </trkpt>
      <trkpt lat="43.09997333" lon="-7.13006333">
        <ele>964.0</ele>
        <time>2022-06-19T11:15:07.012Z</time>
      </trkpt>
      <trkpt lat="43.09993167" lon="-7.13010667">
        <ele>964.0</ele>
        <time>2022-06-19T11:15:07.991Z</time>
      </trkpt>
      <trkpt lat="43.09991333" lon="-7.130125">
        <ele>964.0</ele>
        <time>2022-06-19T11:15:08.994Z</time>
      </trkpt>
      <trkpt lat="43.09991333" lon="-7.130125">
        <ele>964.0</ele>
        <time>2022-06-19T11:15:10.002Z</time>
      </trkpt>
      <trkpt lat="43.09988333" lon="-7.13015667">
        <ele>964.0</ele>
        <time>2022-06-19T11:15:11.022Z</time>
      </trkpt>
      <trkpt lat="43.09988333" lon="-7.13015667">
        <ele>964.0</ele>
        <time>2022-06-19T11:15:11.991Z</time>
      </trkpt>
      <trkpt lat="43.09984167" lon="-7.130195">
        <ele>965.0</ele>
        <time>2022-06-19T11:15:13.022Z</time>
      </trkpt>
      <trkpt lat="43.09982333" lon="-7.130215">
        <ele>965.0</ele>
        <time>2022-06-19T11:15:14.004Z</time>
      </trkpt>
      <trkpt lat="43.09982333" lon="-7.130215">
        <ele>965.0</ele>
        <time>2022-06-19T11:15:15.012Z</time>
      </trkpt>
      <trkpt lat="43.09978167" lon="-7.13024667">
        <ele>964.0</ele>
        <time>2022-06-19T11:15:16.011Z</time>
      </trkpt>
      <trkpt lat="43.09976333" lon="-7.13026167">
        <ele>964.0</ele>
        <time>2022-06-19T11:15:16.988Z</time>
      </trkpt>
      <trkpt lat="43.09976333" lon="-7.13026167">
        <ele>964.0</ele>
        <time>2022-06-19T11:15:17.995Z</time>
      </trkpt>
      <trkpt lat="43.09971333" lon="-7.130295">
        <ele>965.0</ele>
        <time>2022-06-19T11:15:19.008Z</time>
      </trkpt>
      <trkpt lat="43.09969333" lon="-7.13031167">
        <ele>965.0</ele>
        <time>2022-06-19T11:15:20.007Z</time>
      </trkpt>
      <trkpt lat="43.09969333" lon="-7.13031167">
        <ele>965.0</ele>
        <time>2022-06-19T11:15:21.015Z</time>
      </trkpt>
      <trkpt lat="43.09965" lon="-7.13035333">
        <ele>966.0</ele>
        <time>2022-06-19T11:15:22.017Z</time>
      </trkpt>
      <trkpt lat="43.09961667" lon="-7.13038333">
        <ele>966.0</ele>
        <time>2022-06-19T11:15:23.005Z</time>
      </trkpt>
      <trkpt lat="43.09961667" lon="-7.13038333">
        <ele>966.0</ele>
        <time>2022-06-19T11:15:24.012Z</time>
      </trkpt>
      <trkpt lat="43.09956667" lon="-7.13044333">
        <ele>966.0</ele>
        <time>2022-06-19T11:15:25.017Z</time>
      </trkpt>
      <trkpt lat="43.09953833" lon="-7.13046667">
        <ele>966.0</ele>
        <time>2022-06-19T11:15:26.008Z</time>
      </trkpt>
      <trkpt lat="43.09953833" lon="-7.13046667">
        <ele>966.0</ele>
        <time>2022-06-19T11:15:27.014Z</time>
      </trkpt>
      <trkpt lat="43.099485" lon="-7.13051667">
        <ele>965.0</ele>
        <time>2022-06-19T11:15:28.004Z</time>
      </trkpt>
      <trkpt lat="43.09946" lon="-7.13054167">
        <ele>965.0</ele>
        <time>2022-06-19T11:15:28.996Z</time>
      </trkpt>
      <trkpt lat="43.09946" lon="-7.13054167">
        <ele>965.0</ele>
        <time>2022-06-19T11:15:30.004Z</time>
      </trkpt>
      <trkpt lat="43.099415" lon="-7.13059333">
        <ele>965.0</ele>
        <time>2022-06-19T11:15:31.008Z</time>
      </trkpt>
      <trkpt lat="43.099415" lon="-7.13059333">
        <ele>965.0</ele>
        <time>2022-06-19T11:15:32.017Z</time>
      </trkpt>
      <trkpt lat="43.099375" lon="-7.13063667">
        <ele>965.0</ele>
        <time>2022-06-19T11:15:33.019Z</time>
      </trkpt>
      <trkpt lat="43.099375" lon="-7.13063667">
        <ele>965.0</ele>
        <time>2022-06-19T11:15:34.027Z</time>
      </trkpt>
      <trkpt lat="43.09934333" lon="-7.13067167">
        <ele>965.0</ele>
        <time>2022-06-19T11:15:35.009Z</time>
      </trkpt>
      <trkpt lat="43.09934333" lon="-7.13067167">
        <ele>965.0</ele>
        <time>2022-06-19T11:15:36.016Z</time>
      </trkpt>
      <trkpt lat="43.09931167" lon="-7.13070833">
        <ele>965.0</ele>
        <time>2022-06-19T11:15:37.020Z</time>
      </trkpt>
      <trkpt lat="43.09929167" lon="-7.13073167">
        <ele>964.0</ele>
        <time>2022-06-19T11:15:38.007Z</time>
      </trkpt>
      <trkpt lat="43.09929167" lon="-7.13073167">
        <ele>964.0</ele>
        <time>2022-06-19T11:15:39.013Z</time>
      </trkpt>
      <trkpt lat="43.09925333" lon="-7.13077167">
        <ele>964.0</ele>
        <time>2022-06-19T11:15:39.999Z</time>
      </trkpt>
      <trkpt lat="43.09925333" lon="-7.13077167">
        <ele>964.0</ele>
        <time>2022-06-19T11:15:41.008Z</time>
      </trkpt>
      <trkpt lat="43.09922667" lon="-7.13081167">
        <ele>965.0</ele>
        <time>2022-06-19T11:15:41.997Z</time>
      </trkpt>
      <trkpt lat="43.09922667" lon="-7.13081167">
        <ele>965.0</ele>
        <time>2022-06-19T11:15:43.003Z</time>
      </trkpt>
      <trkpt lat="43.0992" lon="-7.13084333">
        <ele>965.0</ele>
        <time>2022-06-19T11:15:43.997Z</time>
      </trkpt>
      <trkpt lat="43.0992" lon="-7.13084333">
        <ele>965.0</ele>
        <time>2022-06-19T11:15:45.003Z</time>
      </trkpt>
      <trkpt lat="43.09916333" lon="-7.13087667">
        <ele>965.0</ele>
        <time>2022-06-19T11:15:45.994Z</time>
      </trkpt>
      <trkpt lat="43.09916333" lon="-7.13087667">
        <ele>965.0</ele>
        <time>2022-06-19T11:15:47.007Z</time>
      </trkpt>
      <trkpt lat="43.09913167" lon="-7.13092167">
        <ele>964.0</ele>
        <time>2022-06-19T11:15:47.996Z</time>
      </trkpt>
      <trkpt lat="43.09913167" lon="-7.13092167">
        <ele>964.0</ele>
        <time>2022-06-19T11:15:49.003Z</time>
      </trkpt>
      <trkpt lat="43.09910833" lon="-7.13097">
        <ele>964.0</ele>
        <time>2022-06-19T11:15:49.997Z</time>
      </trkpt>
      <trkpt lat="43.09910833" lon="-7.13097">
        <ele>964.0</ele>
        <time>2022-06-19T11:15:51.004Z</time>
      </trkpt>
      <trkpt lat="43.09908333" lon="-7.131015">
        <ele>964.0</ele>
        <time>2022-06-19T11:15:52.026Z</time>
      </trkpt>
      <trkpt lat="43.09908333" lon="-7.131015">
        <ele>964.0</ele>
        <time>2022-06-19T11:15:52.988Z</time>
      </trkpt>
      <trkpt lat="43.099065" lon="-7.13106167">
        <ele>964.0</ele>
        <time>2022-06-19T11:15:54.017Z</time>
      </trkpt>
      <trkpt lat="43.09905667" lon="-7.13108667">
        <ele>964.0</ele>
        <time>2022-06-19T11:15:55.007Z</time>
      </trkpt>
      <trkpt lat="43.09905667" lon="-7.13108667">
        <ele>964.0</ele>
        <time>2022-06-19T11:15:56.015Z</time>
      </trkpt>
      <trkpt lat="43.09902667" lon="-7.13112833">
        <ele>964.0</ele>
        <time>2022-06-19T11:15:57.008Z</time>
      </trkpt>
      <trkpt lat="43.09901333" lon="-7.13114167">
        <ele>964.0</ele>
        <time>2022-06-19T11:15:58.015Z</time>
      </trkpt>
      <trkpt lat="43.09901333" lon="-7.13114167">
        <ele>964.0</ele>
        <time>2022-06-19T11:15:59.024Z</time>
      </trkpt>
      <trkpt lat="43.09898" lon="-7.13117">
        <ele>964.0</ele>
        <time>2022-06-19T11:16:00.025Z</time>
      </trkpt>
      <trkpt lat="43.09898" lon="-7.13117">
        <ele>964.0</ele>
        <time>2022-06-19T11:16:00.993Z</time>
      </trkpt>
      <trkpt lat="43.09895667" lon="-7.131195">
        <ele>965.0</ele>
        <time>2022-06-19T11:16:01.996Z</time>
      </trkpt>
      <trkpt lat="43.09895667" lon="-7.131195">
        <ele>965.0</ele>
        <time>2022-06-19T11:16:03.001Z</time>
      </trkpt>
      <trkpt lat="43.09893667" lon="-7.131235">
        <ele>965.0</ele>
        <time>2022-06-19T11:16:04.004Z</time>
      </trkpt>
      <trkpt lat="43.09893667" lon="-7.131235">
        <ele>965.0</ele>
        <time>2022-06-19T11:16:05.010Z</time>
      </trkpt>
      <trkpt lat="43.09891" lon="-7.13127667">
        <ele>965.0</ele>
        <time>2022-06-19T11:16:06.016Z</time>
      </trkpt>
      <trkpt lat="43.09891" lon="-7.13127667">
        <ele>965.0</ele>
        <time>2022-06-19T11:16:07.023Z</time>
      </trkpt>
      <trkpt lat="43.09889" lon="-7.13132167">
        <ele>966.0</ele>
        <time>2022-06-19T11:16:08.015Z</time>
      </trkpt>
      <trkpt lat="43.09889" lon="-7.13132167">
        <ele>966.0</ele>
        <time>2022-06-19T11:16:09.023Z</time>
      </trkpt>
      <trkpt lat="43.098875" lon="-7.13135833">
        <ele>966.0</ele>
        <time>2022-06-19T11:16:10.019Z</time>
      </trkpt>
      <trkpt lat="43.09887167" lon="-7.13138">
        <ele>966.0</ele>
        <time>2022-06-19T11:16:11.011Z</time>
      </trkpt>
      <trkpt lat="43.09887167" lon="-7.13138">
        <ele>966.0</ele>
        <time>2022-06-19T11:16:12.018Z</time>
      </trkpt>
      <trkpt lat="43.09886" lon="-7.13142167">
        <ele>967.0</ele>
        <time>2022-06-19T11:16:13.025Z</time>
      </trkpt>
      <trkpt lat="43.09884833" lon="-7.13144">
        <ele>967.0</ele>
        <time>2022-06-19T11:16:14.017Z</time>
      </trkpt>
      <trkpt lat="43.09884833" lon="-7.13144">
        <ele>967.0</ele>
        <time>2022-06-19T11:16:15.023Z</time>
      </trkpt>
      <trkpt lat="43.09881167" lon="-7.13146833">
        <ele>967.0</ele>
        <time>2022-06-19T11:16:16.021Z</time>
      </trkpt>
      <trkpt lat="43.09881167" lon="-7.13146833">
        <ele>967.0</ele>
        <time>2022-06-19T11:16:16.987Z</time>
      </trkpt>
      <trkpt lat="43.098775" lon="-7.131495">
        <ele>966.0</ele>
        <time>2022-06-19T11:16:17.987Z</time>
      </trkpt>
      <trkpt lat="43.098775" lon="-7.131495">
        <ele>966.0</ele>
        <time>2022-06-19T11:16:18.994Z</time>
      </trkpt>
      <trkpt lat="43.09874667" lon="-7.13153">
        <ele>966.0</ele>
        <time>2022-06-19T11:16:20.026Z</time>
      </trkpt>
      <trkpt lat="43.098735" lon="-7.13155167">
        <ele>966.0</ele>
        <time>2022-06-19T11:16:20.987Z</time>
      </trkpt>
      <trkpt lat="43.098735" lon="-7.13155167">
        <ele>966.0</ele>
        <time>2022-06-19T11:16:21.993Z</time>
      </trkpt>
      <trkpt lat="43.09871" lon="-7.13159333">
        <ele>966.0</ele>
        <time>2022-06-19T11:16:23.025Z</time>
      </trkpt>
      <trkpt lat="43.09869833" lon="-7.13161667">
        <ele>967.0</ele>
        <time>2022-06-19T11:16:23.994Z</time>
      </trkpt>
      <trkpt lat="43.09869833" lon="-7.13161667">
        <ele>967.0</ele>
        <time>2022-06-19T11:16:25.000Z</time>
      </trkpt>
      <trkpt lat="43.09869333" lon="-7.13167667">
        <ele>968.0</ele>
        <time>2022-06-19T11:16:25.993Z</time>
      </trkpt>
      <trkpt lat="43.09869333" lon="-7.13167667">
        <ele>968.0</ele>
        <time>2022-06-19T11:16:27.000Z</time>
      </trkpt>
      <trkpt lat="43.09868167" lon="-7.13172">
        <ele>969.0</ele>
        <time>2022-06-19T11:16:27.992Z</time>
      </trkpt>
      <trkpt lat="43.09868167" lon="-7.13172">
        <ele>969.0</ele>
        <time>2022-06-19T11:16:28.998Z</time>
      </trkpt>
      <trkpt lat="43.098665" lon="-7.13175833">
        <ele>969.0</ele>
        <time>2022-06-19T11:16:29.994Z</time>
      </trkpt>
      <trkpt lat="43.098665" lon="-7.13175833">
        <ele>969.0</ele>
        <time>2022-06-19T11:16:31.001Z</time>
      </trkpt>
      <trkpt lat="43.09864167" lon="-7.13179167">
        <ele>970.0</ele>
        <time>2022-06-19T11:16:31.999Z</time>
      </trkpt>
      <trkpt lat="43.09864167" lon="-7.13179167">
        <ele>970.0</ele>
        <time>2022-06-19T11:16:33.006Z</time>
      </trkpt>
      <trkpt lat="43.098615" lon="-7.13182667">
        <ele>970.0</ele>
        <time>2022-06-19T11:16:33.990Z</time>
      </trkpt>
      <trkpt lat="43.09860167" lon="-7.13184667">
        <ele>969.0</ele>
        <time>2022-06-19T11:16:35.023Z</time>
      </trkpt>
      <trkpt lat="43.09859" lon="-7.13186833">
        <ele>969.0</ele>
        <time>2022-06-19T11:16:36.012Z</time>
      </trkpt>
      <trkpt lat="43.09858" lon="-7.13188833">
        <ele>969.0</ele>
        <time>2022-06-19T11:16:36.994Z</time>
      </trkpt>
      <trkpt lat="43.09858" lon="-7.13188833">
        <ele>969.0</ele>
        <time>2022-06-19T11:16:37.999Z</time>
      </trkpt>
      <trkpt lat="43.09858" lon="-7.13195">
        <ele>970.0</ele>
        <time>2022-06-19T11:16:38.997Z</time>
      </trkpt>
      <trkpt lat="43.09858" lon="-7.13195">
        <ele>970.0</ele>
        <time>2022-06-19T11:16:40.003Z</time>
      </trkpt>
      <trkpt lat="43.09857333" lon="-7.132005">
        <ele>970.0</ele>
        <time>2022-06-19T11:16:41.013Z</time>
      </trkpt>
      <trkpt lat="43.09856833" lon="-7.13202667">
        <ele>971.0</ele>
        <time>2022-06-19T11:16:42.007Z</time>
      </trkpt>
      <trkpt lat="43.09856833" lon="-7.13202667">
        <ele>971.0</ele>
        <time>2022-06-19T11:16:43.014Z</time>
      </trkpt>
      <trkpt lat="43.098555" lon="-7.13204833">
        <ele>971.0</ele>
        <time>2022-06-19T11:16:44.013Z</time>
      </trkpt>
      <trkpt lat="43.098555" lon="-7.13204833">
        <ele>971.0</ele>
        <time>2022-06-19T11:16:45.019Z</time>
      </trkpt>
      <trkpt lat="43.09853833" lon="-7.13208833">
        <ele>972.0</ele>
        <time>2022-06-19T11:16:46.009Z</time>
      </trkpt>
      <trkpt lat="43.09852833" lon="-7.13210667">
        <ele>972.0</ele>
        <time>2022-06-19T11:16:46.999Z</time>
      </trkpt>
      <trkpt lat="43.09852" lon="-7.132125">
        <ele>972.0</ele>
        <time>2022-06-19T11:16:47.993Z</time>
      </trkpt>
      <trkpt lat="43.09852" lon="-7.132125">
        <ele>972.0</ele>
        <time>2022-06-19T11:16:48.999Z</time>
      </trkpt>
      <trkpt lat="43.098505" lon="-7.13217667">
        <ele>973.0</ele>
        <time>2022-06-19T11:16:49.990Z</time>
      </trkpt>
      <trkpt lat="43.098505" lon="-7.13217667">
        <ele>973.0</ele>
        <time>2022-06-19T11:16:50.995Z</time>
      </trkpt>
      <trkpt lat="43.09848667" lon="-7.13222667">
        <ele>974.0</ele>
        <time>2022-06-19T11:16:52.014Z</time>
      </trkpt>
      <trkpt lat="43.09848667" lon="-7.13222667">
        <ele>974.0</ele>
        <time>2022-06-19T11:16:53.021Z</time>
      </trkpt>
      <trkpt lat="43.09847" lon="-7.132265">
        <ele>975.0</ele>
        <time>2022-06-19T11:16:54.023Z</time>
      </trkpt>
      <trkpt lat="43.09846167" lon="-7.13228333">
        <ele>975.0</ele>
        <time>2022-06-19T11:16:55.017Z</time>
      </trkpt>
      <trkpt lat="43.09845833" lon="-7.13230667">
        <ele>975.0</ele>
        <time>2022-06-19T11:16:56.011Z</time>
      </trkpt>
      <trkpt lat="43.09845833" lon="-7.13230667">
        <ele>975.0</ele>
        <time>2022-06-19T11:16:57.017Z</time>
      </trkpt>
      <trkpt lat="43.098445" lon="-7.13234167">
        <ele>976.0</ele>
        <time>2022-06-19T11:16:57.997Z</time>
      </trkpt>
      <trkpt lat="43.098445" lon="-7.13234167">
        <ele>976.0</ele>
        <time>2022-06-19T11:16:59.003Z</time>
      </trkpt>
      <trkpt lat="43.09842667" lon="-7.13236833">
        <ele>977.0</ele>
        <time>2022-06-19T11:17:00.015Z</time>
      </trkpt>
      <trkpt lat="43.09841833" lon="-7.13238667">
        <ele>978.0</ele>
        <time>2022-06-19T11:17:01.011Z</time>
      </trkpt>
      <trkpt lat="43.09841167" lon="-7.132405">
        <ele>978.0</ele>
        <time>2022-06-19T11:17:01.997Z</time>
      </trkpt>
      <trkpt lat="43.09841167" lon="-7.132405">
        <ele>978.0</ele>
        <time>2022-06-19T11:17:03.004Z</time>
      </trkpt>
      <trkpt lat="43.09839333" lon="-7.132445">
        <ele>979.0</ele>
        <time>2022-06-19T11:17:04.002Z</time>
      </trkpt>
      <trkpt lat="43.09838667" lon="-7.132465">
        <ele>979.0</ele>
        <time>2022-06-19T11:17:05.004Z</time>
      </trkpt>
      <trkpt lat="43.09838667" lon="-7.132465">
        <ele>979.0</ele>
        <time>2022-06-19T11:17:06.009Z</time>
      </trkpt>
      <trkpt lat="43.09837" lon="-7.1325">
        <ele>979.0</ele>
        <time>2022-06-19T11:17:06.997Z</time>
      </trkpt>
      <trkpt lat="43.09837" lon="-7.1325">
        <ele>979.0</ele>
        <time>2022-06-19T11:17:08.003Z</time>
      </trkpt>
      <trkpt lat="43.098355" lon="-7.13253667">
        <ele>979.0</ele>
        <time>2022-06-19T11:17:09.027Z</time>
      </trkpt>
      <trkpt lat="43.098355" lon="-7.13253667">
        <ele>979.0</ele>
        <time>2022-06-19T11:17:09.992Z</time>
      </trkpt>
      <trkpt lat="43.09834" lon="-7.132575">
        <ele>979.0</ele>
        <time>2022-06-19T11:17:10.997Z</time>
      </trkpt>
      <trkpt lat="43.09834" lon="-7.132575">
        <ele>979.0</ele>
        <time>2022-06-19T11:17:12.003Z</time>
      </trkpt>
      <trkpt lat="43.098325" lon="-7.132605">
        <ele>979.0</ele>
        <time>2022-06-19T11:17:12.989Z</time>
      </trkpt>
      <trkpt lat="43.09832" lon="-7.13262">
        <ele>979.0</ele>
        <time>2022-06-19T11:17:14.017Z</time>
      </trkpt>
      <trkpt lat="43.09832" lon="-7.13262">
        <ele>979.0</ele>
        <time>2022-06-19T11:17:15.024Z</time>
      </trkpt>
      <trkpt lat="43.09830667" lon="-7.13265167">
        <ele>979.0</ele>
        <time>2022-06-19T11:17:16.026Z</time>
      </trkpt>
      <trkpt lat="43.09830667" lon="-7.13265167">
        <ele>979.0</ele>
        <time>2022-06-19T11:17:16.992Z</time>
      </trkpt>
      <trkpt lat="43.09829333" lon="-7.13268167">
        <ele>979.0</ele>
        <time>2022-06-19T11:17:18.008Z</time>
      </trkpt>
      <trkpt lat="43.09829333" lon="-7.13268167">
        <ele>979.0</ele>
        <time>2022-06-19T11:17:19.014Z</time>
      </trkpt>
      <trkpt lat="43.09828" lon="-7.13272">
        <ele>979.0</ele>
        <time>2022-06-19T11:17:20.003Z</time>
      </trkpt>
      <trkpt lat="43.09828" lon="-7.13272">
        <ele>979.0</ele>
        <time>2022-06-19T11:17:21.012Z</time>
      </trkpt>
      <trkpt lat="43.09826333" lon="-7.13275833">
        <ele>979.0</ele>
        <time>2022-06-19T11:17:21.996Z</time>
      </trkpt>
      <trkpt lat="43.09826333" lon="-7.13275833">
        <ele>979.0</ele>
        <time>2022-06-19T11:17:23.004Z</time>
      </trkpt>
      <trkpt lat="43.09824667" lon="-7.1328">
        <ele>979.0</ele>
        <time>2022-06-19T11:17:23.996Z</time>
      </trkpt>
      <trkpt lat="43.09824667" lon="-7.1328">
        <ele>979.0</ele>
        <time>2022-06-19T11:17:25.002Z</time>
      </trkpt>
      <trkpt lat="43.09823" lon="-7.13284667">
        <ele>980.0</ele>
        <time>2022-06-19T11:17:25.987Z</time>
      </trkpt>
      <trkpt lat="43.09823" lon="-7.13284667">
        <ele>980.0</ele>
        <time>2022-06-19T11:17:26.994Z</time>
      </trkpt>
      <trkpt lat="43.09821667" lon="-7.13289833">
        <ele>980.0</ele>
        <time>2022-06-19T11:17:28.001Z</time>
      </trkpt>
      <trkpt lat="43.09821667" lon="-7.13289833">
        <ele>980.0</ele>
        <time>2022-06-19T11:17:29.007Z</time>
      </trkpt>
      <trkpt lat="43.0982" lon="-7.13294667">
        <ele>980.0</ele>
        <time>2022-06-19T11:17:30.001Z</time>
      </trkpt>
      <trkpt lat="43.0982" lon="-7.13294667">
        <ele>980.0</ele>
        <time>2022-06-19T11:17:31.007Z</time>
      </trkpt>
      <trkpt lat="43.09818333" lon="-7.13299167">
        <ele>981.0</ele>
        <time>2022-06-19T11:17:32.001Z</time>
      </trkpt>
      <trkpt lat="43.09818333" lon="-7.13299167">
        <ele>981.0</ele>
        <time>2022-06-19T11:17:33.006Z</time>
      </trkpt>
      <trkpt lat="43.09816833" lon="-7.13303333">
        <ele>981.0</ele>
        <time>2022-06-19T11:17:34.009Z</time>
      </trkpt>
      <trkpt lat="43.09816833" lon="-7.13303333">
        <ele>981.0</ele>
        <time>2022-06-19T11:17:35.016Z</time>
      </trkpt>
      <trkpt lat="43.09814333" lon="-7.13306">
        <ele>982.0</ele>
        <time>2022-06-19T11:17:36.014Z</time>
      </trkpt>
      <trkpt lat="43.09814333" lon="-7.13306">
        <ele>982.0</ele>
        <time>2022-06-19T11:17:37.022Z</time>
      </trkpt>
      <trkpt lat="43.098125" lon="-7.133095">
        <ele>983.0</ele>
        <time>2022-06-19T11:17:37.999Z</time>
      </trkpt>
      <trkpt lat="43.098115" lon="-7.13311333">
        <ele>983.0</ele>
        <time>2022-06-19T11:17:38.996Z</time>
      </trkpt>
      <trkpt lat="43.098115" lon="-7.13311333">
        <ele>983.0</ele>
        <time>2022-06-19T11:17:40.002Z</time>
      </trkpt>
      <trkpt lat="43.098095" lon="-7.133155">
        <ele>983.0</ele>
        <time>2022-06-19T11:17:41.022Z</time>
      </trkpt>
      <trkpt lat="43.09808333" lon="-7.133175">
        <ele>983.0</ele>
        <time>2022-06-19T11:17:42.011Z</time>
      </trkpt>
      <trkpt lat="43.09808333" lon="-7.133175">
        <ele>983.0</ele>
        <time>2022-06-19T11:17:43.018Z</time>
      </trkpt>
      <trkpt lat="43.098055" lon="-7.13321333">
        <ele>984.0</ele>
        <time>2022-06-19T11:17:44.011Z</time>
      </trkpt>
      <trkpt lat="43.098055" lon="-7.13321333">
        <ele>984.0</ele>
        <time>2022-06-19T11:17:45.017Z</time>
      </trkpt>
      <trkpt lat="43.09802167" lon="-7.13326">
        <ele>984.0</ele>
        <time>2022-06-19T11:17:45.998Z</time>
      </trkpt>
      <trkpt lat="43.09802167" lon="-7.13326">
        <ele>984.0</ele>
        <time>2022-06-19T11:17:47.004Z</time>
      </trkpt>
      <trkpt lat="43.09798167" lon="-7.13330333">
        <ele>984.0</ele>
        <time>2022-06-19T11:17:48.002Z</time>
      </trkpt>
      <trkpt lat="43.09798167" lon="-7.13330333">
        <ele>984.0</ele>
        <time>2022-06-19T11:17:49.008Z</time>
      </trkpt>
      <trkpt lat="43.09794" lon="-7.13335333">
        <ele>984.0</ele>
        <time>2022-06-19T11:17:50.001Z</time>
      </trkpt>
      <trkpt lat="43.09794" lon="-7.13335333">
        <ele>984.0</ele>
        <time>2022-06-19T11:17:51.007Z</time>
      </trkpt>
      <trkpt lat="43.09789833" lon="-7.133405">
        <ele>983.0</ele>
        <time>2022-06-19T11:17:52.013Z</time>
      </trkpt>
      <trkpt lat="43.09789833" lon="-7.133405">
        <ele>983.0</ele>
        <time>2022-06-19T11:17:53.010Z</time>
      </trkpt>
      <trkpt lat="43.097855" lon="-7.13344667">
        <ele>983.0</ele>
        <time>2022-06-19T11:17:54.000Z</time>
      </trkpt>
      <trkpt lat="43.097855" lon="-7.13344667">
        <ele>983.0</ele>
        <time>2022-06-19T11:17:55.006Z</time>
      </trkpt>
      <trkpt lat="43.09778667" lon="-7.13348833">
        <ele>981.0</ele>
        <time>2022-06-19T11:17:56.024Z</time>
      </trkpt>
      <trkpt lat="43.09774333" lon="-7.133515">
        <ele>981.0</ele>
        <time>2022-06-19T11:17:57.010Z</time>
      </trkpt>
      <trkpt lat="43.09774333" lon="-7.133515">
        <ele>981.0</ele>
        <time>2022-06-19T11:17:58.016Z</time>
      </trkpt>
      <trkpt lat="43.09766" lon="-7.13360333">
        <ele>979.0</ele>
        <time>2022-06-19T11:17:59.014Z</time>
      </trkpt>
      <trkpt lat="43.09766" lon="-7.13360333">
        <ele>979.0</ele>
        <time>2022-06-19T11:18:00.021Z</time>
      </trkpt>
      <trkpt lat="43.09759333" lon="-7.133715">
        <ele>978.0</ele>
        <time>2022-06-19T11:18:01.015Z</time>
      </trkpt>
      <trkpt lat="43.09756" lon="-7.133765">
        <ele>978.0</ele>
        <time>2022-06-19T11:18:02.013Z</time>
      </trkpt>
      <trkpt lat="43.09756" lon="-7.133765">
        <ele>978.0</ele>
        <time>2022-06-19T11:18:03.021Z</time>
      </trkpt>
      <trkpt lat="43.09750667" lon="-7.133875">
        <ele>977.0</ele>
        <time>2022-06-19T11:18:04.013Z</time>
      </trkpt>
      <trkpt lat="43.09748167" lon="-7.13393667">
        <ele>977.0</ele>
        <time>2022-06-19T11:18:05.003Z</time>
      </trkpt>
      <trkpt lat="43.09748167" lon="-7.13393667">
        <ele>977.0</ele>
        <time>2022-06-19T11:18:06.009Z</time>
      </trkpt>
      <trkpt lat="43.09744" lon="-7.13406333">
        <ele>976.0</ele>
        <time>2022-06-19T11:18:07.003Z</time>
      </trkpt>
      <trkpt lat="43.09741833" lon="-7.13413333">
        <ele>976.0</ele>
        <time>2022-06-19T11:18:08.001Z</time>
      </trkpt>
      <trkpt lat="43.09741833" lon="-7.13413333">
        <ele>976.0</ele>
        <time>2022-06-19T11:18:09.007Z</time>
      </trkpt>
      <trkpt lat="43.09737833" lon="-7.13428167">
        <ele>974.0</ele>
        <time>2022-06-19T11:18:09.987Z</time>
      </trkpt>
      <trkpt lat="43.09737833" lon="-7.13428167">
        <ele>974.0</ele>
        <time>2022-06-19T11:18:10.993Z</time>
      </trkpt>
      <trkpt lat="43.097335" lon="-7.13442333">
        <ele>974.0</ele>
        <time>2022-06-19T11:18:12.026Z</time>
      </trkpt>
      <trkpt lat="43.09732167" lon="-7.13449833">
        <ele>973.0</ele>
        <time>2022-06-19T11:18:13.016Z</time>
      </trkpt>
      <trkpt lat="43.09732167" lon="-7.13449833">
        <ele>973.0</ele>
        <time>2022-06-19T11:18:14.022Z</time>
      </trkpt>
      <trkpt lat="43.0973" lon="-7.134625">
        <ele>973.0</ele>
        <time>2022-06-19T11:18:15.013Z</time>
      </trkpt>
      <trkpt lat="43.09729667" lon="-7.13468833">
        <ele>973.0</ele>
        <time>2022-06-19T11:18:16.012Z</time>
      </trkpt>
      <trkpt lat="43.09729667" lon="-7.13468833">
        <ele>973.0</ele>
        <time>2022-06-19T11:18:17.018Z</time>
      </trkpt>
      <trkpt lat="43.09729333" lon="-7.13480333">
        <ele>973.0</ele>
        <time>2022-06-19T11:18:17.995Z</time>
      </trkpt>
      <trkpt lat="43.09729333" lon="-7.13480333">
        <ele>973.0</ele>
        <time>2022-06-19T11:18:19.000Z</time>
      </trkpt>
      <trkpt lat="43.09731" lon="-7.13489833">
        <ele>973.0</ele>
        <time>2022-06-19T11:18:20.023Z</time>
      </trkpt>
      <trkpt lat="43.09732167" lon="-7.13493833">
        <ele>973.0</ele>
        <time>2022-06-19T11:18:20.991Z</time>
      </trkpt>
      <trkpt lat="43.09732167" lon="-7.13493833">
        <ele>973.0</ele>
        <time>2022-06-19T11:18:21.997Z</time>
      </trkpt>
      <trkpt lat="43.09735167" lon="-7.13502167">
        <ele>973.0</ele>
        <time>2022-06-19T11:18:22.996Z</time>
      </trkpt>
      <trkpt lat="43.09735167" lon="-7.13502167">
        <ele>973.0</ele>
        <time>2022-06-19T11:18:24.003Z</time>
      </trkpt>
      <trkpt lat="43.09738333" lon="-7.13509">
        <ele>973.0</ele>
        <time>2022-06-19T11:18:25.008Z</time>
      </trkpt>
      <trkpt lat="43.09738333" lon="-7.13509">
        <ele>973.0</ele>
        <time>2022-06-19T11:18:26.014Z</time>
      </trkpt>
      <trkpt lat="43.097415" lon="-7.13514833">
        <ele>973.0</ele>
        <time>2022-06-19T11:18:27.015Z</time>
      </trkpt>
      <trkpt lat="43.097415" lon="-7.13514833">
        <ele>973.0</ele>
        <time>2022-06-19T11:18:28.021Z</time>
      </trkpt>
      <trkpt lat="43.09745" lon="-7.135205">
        <ele>973.0</ele>
        <time>2022-06-19T11:18:29.004Z</time>
      </trkpt>
      <trkpt lat="43.09746667" lon="-7.135215">
        <ele>973.0</ele>
        <time>2022-06-19T11:18:29.988Z</time>
      </trkpt>
      <trkpt lat="43.09746667" lon="-7.135215">
        <ele>973.0</ele>
        <time>2022-06-19T11:18:30.994Z</time>
      </trkpt>
      <trkpt lat="43.09751833" lon="-7.13525">
        <ele>973.0</ele>
        <time>2022-06-19T11:18:31.994Z</time>
      </trkpt>
      <trkpt lat="43.09751833" lon="-7.13525">
        <ele>973.0</ele>
        <time>2022-06-19T11:18:33.000Z</time>
      </trkpt>
      <trkpt lat="43.09757" lon="-7.13530833">
        <ele>974.0</ele>
        <time>2022-06-19T11:18:34.008Z</time>
      </trkpt>
      <trkpt lat="43.097595" lon="-7.13534167">
        <ele>974.0</ele>
        <time>2022-06-19T11:18:35.009Z</time>
      </trkpt>
      <trkpt lat="43.097595" lon="-7.13534167">
        <ele>974.0</ele>
        <time>2022-06-19T11:18:36.015Z</time>
      </trkpt>
      <trkpt lat="43.097635" lon="-7.13540833">
        <ele>975.0</ele>
        <time>2022-06-19T11:18:37.008Z</time>
      </trkpt>
      <trkpt lat="43.097655" lon="-7.13543833">
        <ele>975.0</ele>
        <time>2022-06-19T11:18:37.995Z</time>
      </trkpt>
      <trkpt lat="43.097655" lon="-7.13543833">
        <ele>975.0</ele>
        <time>2022-06-19T11:18:39.002Z</time>
      </trkpt>
      <trkpt lat="43.097695" lon="-7.135505">
        <ele>975.0</ele>
        <time>2022-06-19T11:18:39.994Z</time>
      </trkpt>
      <trkpt lat="43.097695" lon="-7.135505">
        <ele>975.0</ele>
        <time>2022-06-19T11:18:41.000Z</time>
      </trkpt>
      <trkpt lat="43.09773167" lon="-7.135575">
        <ele>974.0</ele>
        <time>2022-06-19T11:18:41.990Z</time>
      </trkpt>
      <trkpt lat="43.09773167" lon="-7.135575">
        <ele>974.0</ele>
        <time>2022-06-19T11:18:43.003Z</time>
      </trkpt>
      <trkpt lat="43.09776833" lon="-7.13565167">
        <ele>974.0</ele>
        <time>2022-06-19T11:18:44.002Z</time>
      </trkpt>
      <trkpt lat="43.09776833" lon="-7.13565167">
        <ele>974.0</ele>
        <time>2022-06-19T11:18:45.008Z</time>
      </trkpt>
      <trkpt lat="43.09780833" lon="-7.13572667">
        <ele>974.0</ele>
        <time>2022-06-19T11:18:46.015Z</time>
      </trkpt>
      <trkpt lat="43.09780833" lon="-7.13572667">
        <ele>974.0</ele>
        <time>2022-06-19T11:18:47.022Z</time>
      </trkpt>
      <trkpt lat="43.09784333" lon="-7.1358">
        <ele>975.0</ele>
        <time>2022-06-19T11:18:48.022Z</time>
      </trkpt>
      <trkpt lat="43.09784333" lon="-7.1358">
        <ele>975.0</ele>
        <time>2022-06-19T11:18:48.988Z</time>
      </trkpt>
      <trkpt lat="43.09787833" lon="-7.13587333">
        <ele>975.0</ele>
        <time>2022-06-19T11:18:50.022Z</time>
      </trkpt>
      <trkpt lat="43.09787833" lon="-7.13587333">
        <ele>975.0</ele>
        <time>2022-06-19T11:18:50.988Z</time>
      </trkpt>
      <trkpt lat="43.09792667" lon="-7.135995">
        <ele>975.0</ele>
        <time>2022-06-19T11:18:52.016Z</time>
      </trkpt>
      <trkpt lat="43.09792667" lon="-7.135995">
        <ele>975.0</ele>
        <time>2022-06-19T11:18:52.995Z</time>
      </trkpt>
      <trkpt lat="43.09792667" lon="-7.135995">
        <ele>975.0</ele>
        <time>2022-06-19T11:18:54.001Z</time>
      </trkpt>
      <trkpt lat="43.097925" lon="-7.136075">
        <ele>975.0</ele>
        <time>2022-06-19T11:18:55.026Z</time>
      </trkpt>
      <trkpt lat="43.097905" lon="-7.13609667">
        <ele>975.0</ele>
        <time>2022-06-19T11:18:55.987Z</time>
      </trkpt>
      <trkpt lat="43.097905" lon="-7.13609667">
        <ele>975.0</ele>
        <time>2022-06-19T11:18:56.992Z</time>
      </trkpt>
      <trkpt lat="43.09784667" lon="-7.136105">
        <ele>975.0</ele>
        <time>2022-06-19T11:18:57.990Z</time>
      </trkpt>
      <trkpt lat="43.09784667" lon="-7.136105">
        <ele>975.0</ele>
        <time>2022-06-19T11:18:58.996Z</time>
      </trkpt>
      <trkpt lat="43.09778333" lon="-7.1361">
        <ele>975.0</ele>
        <time>2022-06-19T11:18:59.998Z</time>
      </trkpt>
      <trkpt lat="43.09778333" lon="-7.1361">
        <ele>975.0</ele>
        <time>2022-06-19T11:19:01.013Z</time>
      </trkpt>
      <trkpt lat="43.09772167" lon="-7.13609333">
        <ele>974.0</ele>
        <time>2022-06-19T11:19:02.008Z</time>
      </trkpt>
      <trkpt lat="43.09772167" lon="-7.13609333">
        <ele>974.0</ele>
        <time>2022-06-19T11:19:03.014Z</time>
      </trkpt>
      <trkpt lat="43.09766" lon="-7.13608667">
        <ele>974.0</ele>
        <time>2022-06-19T11:19:03.997Z</time>
      </trkpt>
      <trkpt lat="43.09766" lon="-7.13608667">
        <ele>974.0</ele>
        <time>2022-06-19T11:19:05.003Z</time>
      </trkpt>
      <trkpt lat="43.09759667" lon="-7.13608">
        <ele>975.0</ele>
        <time>2022-06-19T11:19:05.997Z</time>
      </trkpt>
      <trkpt lat="43.09759667" lon="-7.13608">
        <ele>975.0</ele>
        <time>2022-06-19T11:19:07.003Z</time>
      </trkpt>
      <trkpt lat="43.09754" lon="-7.13607667">
        <ele>976.0</ele>
        <time>2022-06-19T11:19:07.987Z</time>
      </trkpt>
      <trkpt lat="43.09754" lon="-7.13607667">
        <ele>976.0</ele>
        <time>2022-06-19T11:19:08.993Z</time>
      </trkpt>
      <trkpt lat="43.097495" lon="-7.13607167">
        <ele>976.0</ele>
        <time>2022-06-19T11:19:10.007Z</time>
      </trkpt>
      <trkpt lat="43.097475" lon="-7.13607167">
        <ele>976.0</ele>
        <time>2022-06-19T11:19:11.006Z</time>
      </trkpt>
      <trkpt lat="43.097475" lon="-7.13607167">
        <ele>976.0</ele>
        <time>2022-06-19T11:19:12.012Z</time>
      </trkpt>
      <trkpt lat="43.09743167" lon="-7.13607333">
        <ele>976.0</ele>
        <time>2022-06-19T11:19:13.007Z</time>
      </trkpt>
      <trkpt lat="43.09743167" lon="-7.13607333">
        <ele>976.0</ele>
        <time>2022-06-19T11:19:14.013Z</time>
      </trkpt>
      <trkpt lat="43.09739" lon="-7.13607167">
        <ele>977.0</ele>
        <time>2022-06-19T11:19:14.992Z</time>
      </trkpt>
      <trkpt lat="43.09739" lon="-7.13607167">
        <ele>977.0</ele>
        <time>2022-06-19T11:19:15.998Z</time>
      </trkpt>
      <trkpt lat="43.09734333" lon="-7.13605833">
        <ele>978.0</ele>
        <time>2022-06-19T11:19:16.995Z</time>
      </trkpt>
      <trkpt lat="43.09734333" lon="-7.13605833">
        <ele>978.0</ele>
        <time>2022-06-19T11:19:18.002Z</time>
      </trkpt>
      <trkpt lat="43.09729667" lon="-7.13604333">
        <ele>978.0</ele>
        <time>2022-06-19T11:19:19.009Z</time>
      </trkpt>
      <trkpt lat="43.09729667" lon="-7.13604333">
        <ele>978.0</ele>
        <time>2022-06-19T11:19:20.014Z</time>
      </trkpt>
      <trkpt lat="43.09724333" lon="-7.136035">
        <ele>979.0</ele>
        <time>2022-06-19T11:19:21.017Z</time>
      </trkpt>
      <trkpt lat="43.09724333" lon="-7.136035">
        <ele>979.0</ele>
        <time>2022-06-19T11:19:22.023Z</time>
      </trkpt>
      <trkpt lat="43.09719167" lon="-7.13603833">
        <ele>979.0</ele>
        <time>2022-06-19T11:19:23.022Z</time>
      </trkpt>
      <trkpt lat="43.09719167" lon="-7.13603833">
        <ele>979.0</ele>
        <time>2022-06-19T11:19:23.988Z</time>
      </trkpt>
      <trkpt lat="43.09714167" lon="-7.13604">
        <ele>980.0</ele>
        <time>2022-06-19T11:19:25.007Z</time>
      </trkpt>
      <trkpt lat="43.09711667" lon="-7.13604667">
        <ele>980.0</ele>
        <time>2022-06-19T11:19:26.009Z</time>
      </trkpt>
      <trkpt lat="43.09711667" lon="-7.13604667">
        <ele>980.0</ele>
        <time>2022-06-19T11:19:27.016Z</time>
      </trkpt>
      <trkpt lat="43.09706833" lon="-7.13607">
        <ele>980.0</ele>
        <time>2022-06-19T11:19:28.022Z</time>
      </trkpt>
      <trkpt lat="43.09705167" lon="-7.13608">
        <ele>980.0</ele>
        <time>2022-06-19T11:19:29.025Z</time>
      </trkpt>
      <trkpt lat="43.09705167" lon="-7.13608">
        <ele>980.0</ele>
        <time>2022-06-19T11:19:29.991Z</time>
      </trkpt>
      <trkpt lat="43.097015" lon="-7.13609667">
        <ele>981.0</ele>
        <time>2022-06-19T11:19:31.023Z</time>
      </trkpt>
      <trkpt lat="43.09699667" lon="-7.136105">
        <ele>980.0</ele>
        <time>2022-06-19T11:19:32.021Z</time>
      </trkpt>
      <trkpt lat="43.09699667" lon="-7.136105">
        <ele>980.0</ele>
        <time>2022-06-19T11:19:32.988Z</time>
      </trkpt>
      <trkpt lat="43.09696333" lon="-7.13611667">
        <ele>981.0</ele>
        <time>2022-06-19T11:19:34.017Z</time>
      </trkpt>
      <trkpt lat="43.09696333" lon="-7.13611667">
        <ele>981.0</ele>
        <time>2022-06-19T11:19:35.023Z</time>
      </trkpt>
      <trkpt lat="43.09693167" lon="-7.13612333">
        <ele>981.0</ele>
        <time>2022-06-19T11:19:36.021Z</time>
      </trkpt>
      <trkpt lat="43.09691833" lon="-7.13612667">
        <ele>981.0</ele>
        <time>2022-06-19T11:19:37.024Z</time>
      </trkpt>
      <trkpt lat="43.09691833" lon="-7.13612667">
        <ele>981.0</ele>
        <time>2022-06-19T11:19:37.991Z</time>
      </trkpt>
      <trkpt lat="43.09689" lon="-7.13614833">
        <ele>982.0</ele>
        <time>2022-06-19T11:19:38.996Z</time>
      </trkpt>
      <trkpt lat="43.09689" lon="-7.13614833">
        <ele>982.0</ele>
        <time>2022-06-19T11:19:40.002Z</time>
      </trkpt>
      <trkpt lat="43.096865" lon="-7.13617">
        <ele>982.0</ele>
        <time>2022-06-19T11:19:40.989Z</time>
      </trkpt>
      <trkpt lat="43.096865" lon="-7.13617">
        <ele>982.0</ele>
        <time>2022-06-19T11:19:41.995Z</time>
      </trkpt>
      <trkpt lat="43.09684833" lon="-7.1362">
        <ele>982.0</ele>
        <time>2022-06-19T11:19:43.004Z</time>
      </trkpt>
      <trkpt lat="43.09684167" lon="-7.13621333">
        <ele>983.0</ele>
        <time>2022-06-19T11:19:44.000Z</time>
      </trkpt>
      <trkpt lat="43.09684167" lon="-7.13621333">
        <ele>983.0</ele>
        <time>2022-06-19T11:19:45.006Z</time>
      </trkpt>
      <trkpt lat="43.096825" lon="-7.13624333">
        <ele>983.0</ele>
        <time>2022-06-19T11:19:46.007Z</time>
      </trkpt>
      <trkpt lat="43.096825" lon="-7.13624333">
        <ele>983.0</ele>
        <time>2022-06-19T11:19:47.013Z</time>
      </trkpt>
      <trkpt lat="43.09681833" lon="-7.13627333">
        <ele>983.0</ele>
        <time>2022-06-19T11:19:47.994Z</time>
      </trkpt>
      <trkpt lat="43.09681833" lon="-7.13627333">
        <ele>983.0</ele>
        <time>2022-06-19T11:19:49.000Z</time>
      </trkpt>
      <trkpt lat="43.09682" lon="-7.13631">
        <ele>984.0</ele>
        <time>2022-06-19T11:19:49.999Z</time>
      </trkpt>
      <trkpt lat="43.09682" lon="-7.13631">
        <ele>984.0</ele>
        <time>2022-06-19T11:19:51.005Z</time>
      </trkpt>
      <trkpt lat="43.09682167" lon="-7.13634333">
        <ele>985.0</ele>
        <time>2022-06-19T11:19:52.001Z</time>
      </trkpt>
      <trkpt lat="43.09682167" lon="-7.13634333">
        <ele>985.0</ele>
        <time>2022-06-19T11:19:52.992Z</time>
      </trkpt>
      <trkpt lat="43.09682667" lon="-7.13637333">
        <ele>985.0</ele>
        <time>2022-06-19T11:19:54.007Z</time>
      </trkpt>
      <trkpt lat="43.09682667" lon="-7.13637333">
        <ele>985.0</ele>
        <time>2022-06-19T11:19:55.014Z</time>
      </trkpt>
      <trkpt lat="43.09683167" lon="-7.13640667">
        <ele>986.0</ele>
        <time>2022-06-19T11:19:55.992Z</time>
      </trkpt>
      <trkpt lat="43.09683167" lon="-7.13640667">
        <ele>986.0</ele>
        <time>2022-06-19T11:19:57.004Z</time>
      </trkpt>
      <trkpt lat="43.09683167" lon="-7.136435">
        <ele>986.0</ele>
        <time>2022-06-19T11:19:57.993Z</time>
      </trkpt>
      <trkpt lat="43.09683167" lon="-7.136435">
        <ele>986.0</ele>
        <time>2022-06-19T11:19:58.999Z</time>
      </trkpt>
      <trkpt lat="43.09681667" lon="-7.13646167">
        <ele>986.0</ele>
        <time>2022-06-19T11:19:59.991Z</time>
      </trkpt>
      <trkpt lat="43.09681667" lon="-7.13646167">
        <ele>986.0</ele>
        <time>2022-06-19T11:20:01.007Z</time>
      </trkpt>
      <trkpt lat="43.0968" lon="-7.13649833">
        <ele>986.0</ele>
        <time>2022-06-19T11:20:01.998Z</time>
      </trkpt>
      <trkpt lat="43.0968" lon="-7.13649833">
        <ele>986.0</ele>
        <time>2022-06-19T11:20:03.004Z</time>
      </trkpt>
      <trkpt lat="43.09679" lon="-7.13654">
        <ele>986.0</ele>
        <time>2022-06-19T11:20:04.012Z</time>
      </trkpt>
      <trkpt lat="43.09679" lon="-7.13654">
        <ele>986.0</ele>
        <time>2022-06-19T11:20:05.020Z</time>
      </trkpt>
      <trkpt lat="43.09677667" lon="-7.136595">
        <ele>986.0</ele>
        <time>2022-06-19T11:20:06.013Z</time>
      </trkpt>
      <trkpt lat="43.09677667" lon="-7.136595">
        <ele>986.0</ele>
        <time>2022-06-19T11:20:07.020Z</time>
      </trkpt>
      <trkpt lat="43.096765" lon="-7.13665833">
        <ele>986.0</ele>
        <time>2022-06-19T11:20:07.992Z</time>
      </trkpt>
      <trkpt lat="43.096765" lon="-7.13665833">
        <ele>986.0</ele>
        <time>2022-06-19T11:20:08.999Z</time>
      </trkpt>
      <trkpt lat="43.096755" lon="-7.13673833">
        <ele>986.0</ele>
        <time>2022-06-19T11:20:10.002Z</time>
      </trkpt>
      <trkpt lat="43.09675" lon="-7.136785">
        <ele>986.0</ele>
        <time>2022-06-19T11:20:11.007Z</time>
      </trkpt>
      <trkpt lat="43.09675" lon="-7.136785">
        <ele>986.0</ele>
        <time>2022-06-19T11:20:12.013Z</time>
      </trkpt>
      <trkpt lat="43.09674" lon="-7.136885">
        <ele>985.0</ele>
        <time>2022-06-19T11:20:13.002Z</time>
      </trkpt>
      <trkpt lat="43.09673667" lon="-7.13693667">
        <ele>985.0</ele>
        <time>2022-06-19T11:20:14.010Z</time>
      </trkpt>
      <trkpt lat="43.09673667" lon="-7.13693667">
        <ele>985.0</ele>
        <time>2022-06-19T11:20:15.016Z</time>
      </trkpt>
      <trkpt lat="43.09673333" lon="-7.13702667">
        <ele>985.0</ele>
        <time>2022-06-19T11:20:16.002Z</time>
      </trkpt>
      <trkpt lat="43.09673333" lon="-7.13707167">
        <ele>985.0</ele>
        <time>2022-06-19T11:20:16.995Z</time>
      </trkpt>
      <trkpt lat="43.09673333" lon="-7.13707167">
        <ele>985.0</ele>
        <time>2022-06-19T11:20:18.002Z</time>
      </trkpt>
      <trkpt lat="43.09673833" lon="-7.13715667">
        <ele>985.0</ele>
        <time>2022-06-19T11:20:18.995Z</time>
      </trkpt>
      <trkpt lat="43.09673833" lon="-7.13715667">
        <ele>985.0</ele>
        <time>2022-06-19T11:20:20.011Z</time>
      </trkpt>
      <trkpt lat="43.09675333" lon="-7.13724">
        <ele>985.0</ele>
        <time>2022-06-19T11:20:21.007Z</time>
      </trkpt>
      <trkpt lat="43.09675333" lon="-7.13724">
        <ele>985.0</ele>
        <time>2022-06-19T11:20:22.013Z</time>
      </trkpt>
      <trkpt lat="43.09676333" lon="-7.13732167">
        <ele>985.0</ele>
        <time>2022-06-19T11:20:23.004Z</time>
      </trkpt>
      <trkpt lat="43.09676667" lon="-7.13736667">
        <ele>985.0</ele>
        <time>2022-06-19T11:20:23.990Z</time>
      </trkpt>
      <trkpt lat="43.09676667" lon="-7.13736667">
        <ele>985.0</ele>
        <time>2022-06-19T11:20:24.997Z</time>
      </trkpt>
      <trkpt lat="43.09677" lon="-7.13744833">
        <ele>985.0</ele>
        <time>2022-06-19T11:20:26.011Z</time>
      </trkpt>
      <trkpt lat="43.09677" lon="-7.13749">
        <ele>985.0</ele>
        <time>2022-06-19T11:20:27.001Z</time>
      </trkpt>
      <trkpt lat="43.09677" lon="-7.13749">
        <ele>985.0</ele>
        <time>2022-06-19T11:20:28.007Z</time>
      </trkpt>
      <trkpt lat="43.096775" lon="-7.13758">
        <ele>986.0</ele>
        <time>2022-06-19T11:20:29.020Z</time>
      </trkpt>
      <trkpt lat="43.09677833" lon="-7.13762667">
        <ele>986.0</ele>
        <time>2022-06-19T11:20:29.998Z</time>
      </trkpt>
      <trkpt lat="43.09677833" lon="-7.13762667">
        <ele>986.0</ele>
        <time>2022-06-19T11:20:31.007Z</time>
      </trkpt>
      <trkpt lat="43.096775" lon="-7.137725">
        <ele>986.0</ele>
        <time>2022-06-19T11:20:31.999Z</time>
      </trkpt>
      <trkpt lat="43.096775" lon="-7.137725">
        <ele>986.0</ele>
        <time>2022-06-19T11:20:33.006Z</time>
      </trkpt>
      <trkpt lat="43.096765" lon="-7.13781">
        <ele>986.0</ele>
        <time>2022-06-19T11:20:34.027Z</time>
      </trkpt>
      <trkpt lat="43.09675833" lon="-7.137855">
        <ele>987.0</ele>
        <time>2022-06-19T11:20:34.987Z</time>
      </trkpt>
      <trkpt lat="43.09675833" lon="-7.137855">
        <ele>987.0</ele>
        <time>2022-06-19T11:20:35.993Z</time>
      </trkpt>
      <trkpt lat="43.09674333" lon="-7.13794667">
        <ele>987.0</ele>
        <time>2022-06-19T11:20:36.997Z</time>
      </trkpt>
      <trkpt lat="43.09674333" lon="-7.13794667">
        <ele>987.0</ele>
        <time>2022-06-19T11:20:38.003Z</time>
      </trkpt>
      <trkpt lat="43.09673" lon="-7.13804167">
        <ele>987.0</ele>
        <time>2022-06-19T11:20:38.997Z</time>
      </trkpt>
      <trkpt lat="43.09673" lon="-7.13804167">
        <ele>987.0</ele>
        <time>2022-06-19T11:20:40.003Z</time>
      </trkpt>
      <trkpt lat="43.09670667" lon="-7.13812667">
        <ele>988.0</ele>
        <time>2022-06-19T11:20:41.007Z</time>
      </trkpt>
      <trkpt lat="43.09670667" lon="-7.13812667">
        <ele>988.0</ele>
        <time>2022-06-19T11:20:42.012Z</time>
      </trkpt>
      <trkpt lat="43.09667667" lon="-7.13821333">
        <ele>988.0</ele>
        <time>2022-06-19T11:20:43.014Z</time>
      </trkpt>
      <trkpt lat="43.09667167" lon="-7.138265">
        <ele>988.0</ele>
        <time>2022-06-19T11:20:44.015Z</time>
      </trkpt>
      <trkpt lat="43.09667167" lon="-7.138265">
        <ele>988.0</ele>
        <time>2022-06-19T11:20:45.022Z</time>
      </trkpt>
      <trkpt lat="43.09666" lon="-7.13837167">
        <ele>988.0</ele>
        <time>2022-06-19T11:20:46.005Z</time>
      </trkpt>
      <trkpt lat="43.09666" lon="-7.13837167">
        <ele>988.0</ele>
        <time>2022-06-19T11:20:47.011Z</time>
      </trkpt>
      <trkpt lat="43.09666333" lon="-7.13847667">
        <ele>988.0</ele>
        <time>2022-06-19T11:20:48.002Z</time>
      </trkpt>
      <trkpt lat="43.09666333" lon="-7.13847667">
        <ele>988.0</ele>
        <time>2022-06-19T11:20:49.008Z</time>
      </trkpt>
      <trkpt lat="43.09665833" lon="-7.13857667">
        <ele>988.0</ele>
        <time>2022-06-19T11:20:50.013Z</time>
      </trkpt>
      <trkpt lat="43.09665833" lon="-7.13857667">
        <ele>988.0</ele>
        <time>2022-06-19T11:20:51.019Z</time>
      </trkpt>
      <trkpt lat="43.09664333" lon="-7.13866">
        <ele>989.0</ele>
        <time>2022-06-19T11:20:52.018Z</time>
      </trkpt>
      <trkpt lat="43.09664333" lon="-7.13866">
        <ele>989.0</ele>
        <time>2022-06-19T11:20:53.012Z</time>
      </trkpt>
      <trkpt lat="43.09662667" lon="-7.13874833">
        <ele>989.0</ele>
        <time>2022-06-19T11:20:54.019Z</time>
      </trkpt>
      <trkpt lat="43.09661833" lon="-7.13879167">
        <ele>989.0</ele>
        <time>2022-06-19T11:20:55.010Z</time>
      </trkpt>
      <trkpt lat="43.096615" lon="-7.13883333">
        <ele>990.0</ele>
        <time>2022-06-19T11:20:56.002Z</time>
      </trkpt>
      <trkpt lat="43.096615" lon="-7.13883333">
        <ele>990.0</ele>
        <time>2022-06-19T11:20:57.009Z</time>
      </trkpt>
      <trkpt lat="43.09660667" lon="-7.13892">
        <ele>990.0</ele>
        <time>2022-06-19T11:20:57.995Z</time>
      </trkpt>
      <trkpt lat="43.09659833" lon="-7.13896167">
        <ele>990.0</ele>
        <time>2022-06-19T11:20:58.987Z</time>
      </trkpt>
      <trkpt lat="43.09659833" lon="-7.13896167">
        <ele>990.0</ele>
        <time>2022-06-19T11:20:59.993Z</time>
      </trkpt>
      <trkpt lat="43.09657833" lon="-7.13904333">
        <ele>990.0</ele>
        <time>2022-06-19T11:21:01.000Z</time>
      </trkpt>
      <trkpt lat="43.09656833" lon="-7.139085">
        <ele>991.0</ele>
        <time>2022-06-19T11:21:02.003Z</time>
      </trkpt>
      <trkpt lat="43.09656833" lon="-7.139085">
        <ele>991.0</ele>
        <time>2022-06-19T11:21:03.008Z</time>
      </trkpt>
      <trkpt lat="43.09655" lon="-7.13917">
        <ele>991.0</ele>
        <time>2022-06-19T11:21:03.998Z</time>
      </trkpt>
      <trkpt lat="43.09655" lon="-7.13917">
        <ele>991.0</ele>
        <time>2022-06-19T11:21:05.004Z</time>
      </trkpt>
      <trkpt lat="43.09653333" lon="-7.139255">
        <ele>991.0</ele>
        <time>2022-06-19T11:21:06.003Z</time>
      </trkpt>
      <trkpt lat="43.09653333" lon="-7.139255">
        <ele>991.0</ele>
        <time>2022-06-19T11:21:07.009Z</time>
      </trkpt>
      <trkpt lat="43.09651833" lon="-7.139345">
        <ele>991.0</ele>
        <time>2022-06-19T11:21:08.007Z</time>
      </trkpt>
      <trkpt lat="43.09651833" lon="-7.139345">
        <ele>991.0</ele>
        <time>2022-06-19T11:21:09.013Z</time>
      </trkpt>
      <trkpt lat="43.09650667" lon="-7.139435">
        <ele>991.0</ele>
        <time>2022-06-19T11:21:10.005Z</time>
      </trkpt>
      <trkpt lat="43.09650667" lon="-7.139435">
        <ele>991.0</ele>
        <time>2022-06-19T11:21:11.011Z</time>
      </trkpt>
      <trkpt lat="43.096495" lon="-7.13952333">
        <ele>991.0</ele>
        <time>2022-06-19T11:21:11.988Z</time>
      </trkpt>
      <trkpt lat="43.096495" lon="-7.13952333">
        <ele>991.0</ele>
        <time>2022-06-19T11:21:12.993Z</time>
      </trkpt>
      <trkpt lat="43.09648833" lon="-7.13961">
        <ele>992.0</ele>
        <time>2022-06-19T11:21:14.022Z</time>
      </trkpt>
      <trkpt lat="43.09648833" lon="-7.13961">
        <ele>992.0</ele>
        <time>2022-06-19T11:21:14.988Z</time>
      </trkpt>
      <trkpt lat="43.09648" lon="-7.13968333">
        <ele>992.0</ele>
        <time>2022-06-19T11:21:16.023Z</time>
      </trkpt>
      <trkpt lat="43.09647333" lon="-7.13972333">
        <ele>992.0</ele>
        <time>2022-06-19T11:21:17.016Z</time>
      </trkpt>
      <trkpt lat="43.09647333" lon="-7.13972333">
        <ele>992.0</ele>
        <time>2022-06-19T11:21:18.022Z</time>
      </trkpt>
      <trkpt lat="43.09645333" lon="-7.139805">
        <ele>992.0</ele>
        <time>2022-06-19T11:21:19.002Z</time>
      </trkpt>
      <trkpt lat="43.09644" lon="-7.13983833">
        <ele>992.0</ele>
        <time>2022-06-19T11:21:19.999Z</time>
      </trkpt>
      <trkpt lat="43.09644" lon="-7.13983833">
        <ele>992.0</ele>
        <time>2022-06-19T11:21:21.005Z</time>
      </trkpt>
      <trkpt lat="43.09642667" lon="-7.13989333">
        <ele>993.0</ele>
        <time>2022-06-19T11:21:21.999Z</time>
      </trkpt>
      <trkpt lat="43.09642667" lon="-7.13989333">
        <ele>993.0</ele>
        <time>2022-06-19T11:21:23.005Z</time>
      </trkpt>
      <trkpt lat="43.09641" lon="-7.13994667">
        <ele>993.0</ele>
        <time>2022-06-19T11:21:23.998Z</time>
      </trkpt>
      <trkpt lat="43.09641" lon="-7.13994667">
        <ele>993.0</ele>
        <time>2022-06-19T11:21:25.004Z</time>
      </trkpt>
      <trkpt lat="43.096395" lon="-7.14000167">
        <ele>993.0</ele>
        <time>2022-06-19T11:21:26.023Z</time>
      </trkpt>
      <trkpt lat="43.09638833" lon="-7.14003">
        <ele>994.0</ele>
        <time>2022-06-19T11:21:26.992Z</time>
      </trkpt>
      <trkpt lat="43.09638833" lon="-7.14003">
        <ele>994.0</ele>
        <time>2022-06-19T11:21:27.996Z</time>
      </trkpt>
      <trkpt lat="43.096375" lon="-7.14009167">
        <ele>994.0</ele>
        <time>2022-06-19T11:21:29.019Z</time>
      </trkpt>
      <trkpt lat="43.096375" lon="-7.14009167">
        <ele>994.0</ele>
        <time>2022-06-19T11:21:29.989Z</time>
      </trkpt>
      <trkpt lat="43.09636" lon="-7.14016">
        <ele>994.0</ele>
        <time>2022-06-19T11:21:30.997Z</time>
      </trkpt>
      <trkpt lat="43.09636" lon="-7.14016">
        <ele>994.0</ele>
        <time>2022-06-19T11:21:32.003Z</time>
      </trkpt>
      <trkpt lat="43.09634167" lon="-7.140225">
        <ele>994.0</ele>
        <time>2022-06-19T11:21:33.006Z</time>
      </trkpt>
      <trkpt lat="43.09634167" lon="-7.140225">
        <ele>994.0</ele>
        <time>2022-06-19T11:21:34.012Z</time>
      </trkpt>
      <trkpt lat="43.09632" lon="-7.14028833">
        <ele>994.0</ele>
        <time>2022-06-19T11:21:35.007Z</time>
      </trkpt>
      <trkpt lat="43.09631" lon="-7.14032167">
        <ele>994.0</ele>
        <time>2022-06-19T11:21:35.989Z</time>
      </trkpt>
      <trkpt lat="43.09631" lon="-7.14032167">
        <ele>994.0</ele>
        <time>2022-06-19T11:21:36.995Z</time>
      </trkpt>
      <trkpt lat="43.096295" lon="-7.14039167">
        <ele>994.0</ele>
        <time>2022-06-19T11:21:38.023Z</time>
      </trkpt>
      <trkpt lat="43.096295" lon="-7.14039167">
        <ele>994.0</ele>
        <time>2022-06-19T11:21:38.990Z</time>
      </trkpt>
      <trkpt lat="43.096275" lon="-7.14046333">
        <ele>994.0</ele>
        <time>2022-06-19T11:21:39.988Z</time>
      </trkpt>
      <trkpt lat="43.096265" lon="-7.14049">
        <ele>995.0</ele>
        <time>2022-06-19T11:21:40.987Z</time>
      </trkpt>
      <trkpt lat="43.096265" lon="-7.14049">
        <ele>995.0</ele>
        <time>2022-06-19T11:21:41.993Z</time>
      </trkpt>
      <trkpt lat="43.09624833" lon="-7.14053833">
        <ele>995.0</ele>
        <time>2022-06-19T11:21:42.991Z</time>
      </trkpt>
      <trkpt lat="43.09624" lon="-7.14055667">
        <ele>996.0</ele>
        <time>2022-06-19T11:21:44.026Z</time>
      </trkpt>
      <trkpt lat="43.09623333" lon="-7.14057333">
        <ele>996.0</ele>
        <time>2022-06-19T11:21:45.022Z</time>
      </trkpt>
      <trkpt lat="43.09623333" lon="-7.14057333">
        <ele>996.0</ele>
        <time>2022-06-19T11:21:45.989Z</time>
      </trkpt>
      <trkpt lat="43.096215" lon="-7.14060667">
        <ele>996.0</ele>
        <time>2022-06-19T11:21:47.002Z</time>
      </trkpt>
      <trkpt lat="43.096215" lon="-7.14060667">
        <ele>996.0</ele>
        <time>2022-06-19T11:21:48.008Z</time>
      </trkpt>
      <trkpt lat="43.09620333" lon="-7.14064">
        <ele>996.0</ele>
        <time>2022-06-19T11:21:48.998Z</time>
      </trkpt>
      <trkpt lat="43.09620333" lon="-7.14064">
        <ele>996.0</ele>
        <time>2022-06-19T11:21:50.004Z</time>
      </trkpt>
      <trkpt lat="43.09619667" lon="-7.14068">
        <ele>997.0</ele>
        <time>2022-06-19T11:21:50.993Z</time>
      </trkpt>
      <trkpt lat="43.09619667" lon="-7.14068">
        <ele>997.0</ele>
        <time>2022-06-19T11:21:52.013Z</time>
      </trkpt>
      <trkpt lat="43.09619167" lon="-7.14072333">
        <ele>996.0</ele>
        <time>2022-06-19T11:21:52.989Z</time>
      </trkpt>
      <trkpt lat="43.09618833" lon="-7.14074333">
        <ele>997.0</ele>
        <time>2022-06-19T11:21:53.992Z</time>
      </trkpt>
      <trkpt lat="43.09618833" lon="-7.14074333">
        <ele>997.0</ele>
        <time>2022-06-19T11:21:54.998Z</time>
      </trkpt>
      <trkpt lat="43.09618" lon="-7.14078">
        <ele>997.0</ele>
        <time>2022-06-19T11:21:56.000Z</time>
      </trkpt>
      <trkpt lat="43.09618" lon="-7.14078">
        <ele>997.0</ele>
        <time>2022-06-19T11:21:57.006Z</time>
      </trkpt>
      <trkpt lat="43.096175" lon="-7.14081">
        <ele>997.0</ele>
        <time>2022-06-19T11:21:58.007Z</time>
      </trkpt>
      <trkpt lat="43.09617333" lon="-7.14082833">
        <ele>997.0</ele>
        <time>2022-06-19T11:21:59.004Z</time>
      </trkpt>
      <trkpt lat="43.09617333" lon="-7.14082833">
        <ele>997.0</ele>
        <time>2022-06-19T11:22:00.010Z</time>
      </trkpt>
      <trkpt lat="43.096165" lon="-7.14087">
        <ele>997.0</ele>
        <time>2022-06-19T11:22:01.017Z</time>
      </trkpt>
      <trkpt lat="43.09615833" lon="-7.14089">
        <ele>997.0</ele>
        <time>2022-06-19T11:22:02.017Z</time>
      </trkpt>
      <trkpt lat="43.09615833" lon="-7.14089">
        <ele>997.0</ele>
        <time>2022-06-19T11:22:03.023Z</time>
      </trkpt>
      <trkpt lat="43.09614333" lon="-7.140935">
        <ele>997.0</ele>
        <time>2022-06-19T11:22:04.001Z</time>
      </trkpt>
      <trkpt lat="43.09614333" lon="-7.140935">
        <ele>997.0</ele>
        <time>2022-06-19T11:22:05.007Z</time>
      </trkpt>
      <trkpt lat="43.09613" lon="-7.140985">
        <ele>996.0</ele>
        <time>2022-06-19T11:22:06.002Z</time>
      </trkpt>
      <trkpt lat="43.09612333" lon="-7.14101">
        <ele>997.0</ele>
        <time>2022-06-19T11:22:06.991Z</time>
      </trkpt>
      <trkpt lat="43.09612333" lon="-7.14101">
        <ele>997.0</ele>
        <time>2022-06-19T11:22:07.997Z</time>
      </trkpt>
      <trkpt lat="43.09611333" lon="-7.14106">
        <ele>997.0</ele>
        <time>2022-06-19T11:22:09.005Z</time>
      </trkpt>
      <trkpt lat="43.09611333" lon="-7.14106">
        <ele>997.0</ele>
        <time>2022-06-19T11:22:10.011Z</time>
      </trkpt>
      <trkpt lat="43.09610167" lon="-7.14111">
        <ele>997.0</ele>
        <time>2022-06-19T11:22:11.007Z</time>
      </trkpt>
      <trkpt lat="43.09610167" lon="-7.14111">
        <ele>997.0</ele>
        <time>2022-06-19T11:22:12.013Z</time>
      </trkpt>
      <trkpt lat="43.09609" lon="-7.14116">
        <ele>997.0</ele>
        <time>2022-06-19T11:22:13.005Z</time>
      </trkpt>
      <trkpt lat="43.09609" lon="-7.14116">
        <ele>997.0</ele>
        <time>2022-06-19T11:22:14.011Z</time>
      </trkpt>
      <trkpt lat="43.09606833" lon="-7.14120833">
        <ele>997.0</ele>
        <time>2022-06-19T11:22:15.007Z</time>
      </trkpt>
      <trkpt lat="43.09605833" lon="-7.14123167">
        <ele>997.0</ele>
        <time>2022-06-19T11:22:16.008Z</time>
      </trkpt>
      <trkpt lat="43.09604667" lon="-7.14125667">
        <ele>997.0</ele>
        <time>2022-06-19T11:22:17.002Z</time>
      </trkpt>
      <trkpt lat="43.096035" lon="-7.14128">
        <ele>998.0</ele>
        <time>2022-06-19T11:22:18.007Z</time>
      </trkpt>
      <trkpt lat="43.096035" lon="-7.14128">
        <ele>998.0</ele>
        <time>2022-06-19T11:22:19.012Z</time>
      </trkpt>
      <trkpt lat="43.096015" lon="-7.14131833">
        <ele>998.0</ele>
        <time>2022-06-19T11:22:20.000Z</time>
      </trkpt>
      <trkpt lat="43.096015" lon="-7.14131833">
        <ele>998.0</ele>
        <time>2022-06-19T11:22:21.010Z</time>
      </trkpt>
      <trkpt lat="43.09599833" lon="-7.14134833">
        <ele>998.0</ele>
        <time>2022-06-19T11:22:21.995Z</time>
      </trkpt>
      <trkpt lat="43.09599833" lon="-7.14134833">
        <ele>998.0</ele>
        <time>2022-06-19T11:22:23.001Z</time>
      </trkpt>
      <trkpt lat="43.09597833" lon="-7.14137667">
        <ele>998.0</ele>
        <time>2022-06-19T11:22:23.994Z</time>
      </trkpt>
      <trkpt lat="43.09597833" lon="-7.14137667">
        <ele>998.0</ele>
        <time>2022-06-19T11:22:25.000Z</time>
      </trkpt>
      <trkpt lat="43.09596167" lon="-7.141405">
        <ele>999.0</ele>
        <time>2022-06-19T11:22:25.999Z</time>
      </trkpt>
      <trkpt lat="43.09596167" lon="-7.141405">
        <ele>999.0</ele>
        <time>2022-06-19T11:22:27.005Z</time>
      </trkpt>
      <trkpt lat="43.09594667" lon="-7.14143">
        <ele>999.0</ele>
        <time>2022-06-19T11:22:27.996Z</time>
      </trkpt>
      <trkpt lat="43.09594667" lon="-7.14143">
        <ele>999.0</ele>
        <time>2022-06-19T11:22:29.001Z</time>
      </trkpt>
      <trkpt lat="43.09593833" lon="-7.14146">
        <ele>1000.0</ele>
        <time>2022-06-19T11:22:30.021Z</time>
      </trkpt>
      <trkpt lat="43.09593167" lon="-7.14147667">
        <ele>1000.0</ele>
        <time>2022-06-19T11:22:31.016Z</time>
      </trkpt>
      <trkpt lat="43.09593167" lon="-7.14147667">
        <ele>1000.0</ele>
        <time>2022-06-19T11:22:32.022Z</time>
      </trkpt>
      <trkpt lat="43.09592" lon="-7.14151667">
        <ele>1000.0</ele>
        <time>2022-06-19T11:22:33.016Z</time>
      </trkpt>
      <trkpt lat="43.09592" lon="-7.14151667">
        <ele>1000.0</ele>
        <time>2022-06-19T11:22:34.023Z</time>
      </trkpt>
      <trkpt lat="43.09590333" lon="-7.14156167">
        <ele>1000.0</ele>
        <time>2022-06-19T11:22:35.019Z</time>
      </trkpt>
      <trkpt lat="43.09590333" lon="-7.14156167">
        <ele>1000.0</ele>
        <time>2022-06-19T11:22:36.026Z</time>
      </trkpt>
      <trkpt lat="43.09588833" lon="-7.14161333">
        <ele>1000.0</ele>
        <time>2022-06-19T11:22:37.012Z</time>
      </trkpt>
      <trkpt lat="43.09588" lon="-7.141635">
        <ele>1000.0</ele>
        <time>2022-06-19T11:22:37.999Z</time>
      </trkpt>
      <trkpt lat="43.09588" lon="-7.141635">
        <ele>1000.0</ele>
        <time>2022-06-19T11:22:39.005Z</time>
      </trkpt>
      <trkpt lat="43.09586167" lon="-7.14166833">
        <ele>1000.0</ele>
        <time>2022-06-19T11:22:39.988Z</time>
      </trkpt>
      <trkpt lat="43.09586167" lon="-7.14166833">
        <ele>1000.0</ele>
        <time>2022-06-19T11:22:40.994Z</time>
      </trkpt>
      <trkpt lat="43.09584833" lon="-7.14169667">
        <ele>1000.0</ele>
        <time>2022-06-19T11:22:41.987Z</time>
      </trkpt>
      <trkpt lat="43.09584833" lon="-7.14169667">
        <ele>1000.0</ele>
        <time>2022-06-19T11:22:42.992Z</time>
      </trkpt>
      <trkpt lat="43.09584" lon="-7.14172">
        <ele>1000.0</ele>
        <time>2022-06-19T11:22:43.988Z</time>
      </trkpt>
      <trkpt lat="43.09584" lon="-7.14172">
        <ele>1000.0</ele>
        <time>2022-06-19T11:22:44.994Z</time>
      </trkpt>
      <trkpt lat="43.09583667" lon="-7.141745">
        <ele>1001.0</ele>
        <time>2022-06-19T11:22:45.998Z</time>
      </trkpt>
      <trkpt lat="43.09583333" lon="-7.14175833">
        <ele>1001.0</ele>
        <time>2022-06-19T11:22:46.992Z</time>
      </trkpt>
      <trkpt lat="43.09583333" lon="-7.14175833">
        <ele>1001.0</ele>
        <time>2022-06-19T11:22:47.998Z</time>
      </trkpt>
      <trkpt lat="43.09582333" lon="-7.14178833">
        <ele>1002.0</ele>
        <time>2022-06-19T11:22:49.020Z</time>
      </trkpt>
      <trkpt lat="43.09581667" lon="-7.14180167">
        <ele>1002.0</ele>
        <time>2022-06-19T11:22:49.987Z</time>
      </trkpt>
      <trkpt lat="43.09581667" lon="-7.14180167">
        <ele>1002.0</ele>
        <time>2022-06-19T11:22:50.993Z</time>
      </trkpt>
      <trkpt lat="43.09580333" lon="-7.141835">
        <ele>1002.0</ele>
        <time>2022-06-19T11:22:52.024Z</time>
      </trkpt>
      <trkpt lat="43.09579667" lon="-7.14184833">
        <ele>1002.0</ele>
        <time>2022-06-19T11:22:53.007Z</time>
      </trkpt>
      <trkpt lat="43.09579667" lon="-7.14184833">
        <ele>1002.0</ele>
        <time>2022-06-19T11:22:54.013Z</time>
      </trkpt>
      <trkpt lat="43.09578" lon="-7.141875">
        <ele>1002.0</ele>
        <time>2022-06-19T11:22:55.003Z</time>
      </trkpt>
      <trkpt lat="43.095775" lon="-7.141895">
        <ele>1002.0</ele>
        <time>2022-06-19T11:22:56.012Z</time>
      </trkpt>
      <trkpt lat="43.095775" lon="-7.141895">
        <ele>1002.0</ele>
        <time>2022-06-19T11:22:57.018Z</time>
      </trkpt>
      <trkpt lat="43.09576667" lon="-7.14194167">
        <ele>1003.0</ele>
        <time>2022-06-19T11:22:58.017Z</time>
      </trkpt>
      <trkpt lat="43.09576333" lon="-7.14196333">
        <ele>1003.0</ele>
        <time>2022-06-19T11:22:59.022Z</time>
      </trkpt>
      <trkpt lat="43.09576333" lon="-7.14196333">
        <ele>1003.0</ele>
        <time>2022-06-19T11:22:59.989Z</time>
      </trkpt>
      <trkpt lat="43.095755" lon="-7.142015">
        <ele>1003.0</ele>
        <time>2022-06-19T11:23:01.022Z</time>
      </trkpt>
      <trkpt lat="43.09575" lon="-7.14203833">
        <ele>1003.0</ele>
        <time>2022-06-19T11:23:02.008Z</time>
      </trkpt>
      <trkpt lat="43.09575" lon="-7.14203833">
        <ele>1003.0</ele>
        <time>2022-06-19T11:23:03.013Z</time>
      </trkpt>
      <trkpt lat="43.09574333" lon="-7.142085">
        <ele>1003.0</ele>
        <time>2022-06-19T11:23:04.006Z</time>
      </trkpt>
      <trkpt lat="43.09574333" lon="-7.142085">
        <ele>1003.0</ele>
        <time>2022-06-19T11:23:05.012Z</time>
      </trkpt>
      <trkpt lat="43.09573833" lon="-7.14214167">
        <ele>1003.0</ele>
        <time>2022-06-19T11:23:06.002Z</time>
      </trkpt>
      <trkpt lat="43.09573833" lon="-7.14214167">
        <ele>1003.0</ele>
        <time>2022-06-19T11:23:07.009Z</time>
      </trkpt>
      <trkpt lat="43.09573167" lon="-7.14219667">
        <ele>1003.0</ele>
        <time>2022-06-19T11:23:08.006Z</time>
      </trkpt>
      <trkpt lat="43.09573167" lon="-7.14219667">
        <ele>1003.0</ele>
        <time>2022-06-19T11:23:09.013Z</time>
      </trkpt>
      <trkpt lat="43.095725" lon="-7.14224167">
        <ele>1003.0</ele>
        <time>2022-06-19T11:23:09.998Z</time>
      </trkpt>
      <trkpt lat="43.095725" lon="-7.14224167">
        <ele>1003.0</ele>
        <time>2022-06-19T11:23:11.004Z</time>
      </trkpt>
      <trkpt lat="43.09571833" lon="-7.14228833">
        <ele>1003.0</ele>
        <time>2022-06-19T11:23:11.996Z</time>
      </trkpt>
      <trkpt lat="43.09571833" lon="-7.14228833">
        <ele>1003.0</ele>
        <time>2022-06-19T11:23:13.002Z</time>
      </trkpt>
      <trkpt lat="43.09571" lon="-7.14233333">
        <ele>1004.0</ele>
        <time>2022-06-19T11:23:14.000Z</time>
      </trkpt>
      <trkpt lat="43.09571" lon="-7.14233333">
        <ele>1004.0</ele>
        <time>2022-06-19T11:23:15.006Z</time>
      </trkpt>
      <trkpt lat="43.09569833" lon="-7.14237167">
        <ele>1004.0</ele>
        <time>2022-06-19T11:23:16.007Z</time>
      </trkpt>
      <trkpt lat="43.09569333" lon="-7.14239">
        <ele>1004.0</ele>
        <time>2022-06-19T11:23:17.005Z</time>
      </trkpt>
      <trkpt lat="43.09569333" lon="-7.14239">
        <ele>1004.0</ele>
        <time>2022-06-19T11:23:18.011Z</time>
      </trkpt>
      <trkpt lat="43.09568" lon="-7.14242667">
        <ele>1004.0</ele>
        <time>2022-06-19T11:23:19.005Z</time>
      </trkpt>
      <trkpt lat="43.095675" lon="-7.142445">
        <ele>1005.0</ele>
        <time>2022-06-19T11:23:19.993Z</time>
      </trkpt>
      <trkpt lat="43.095675" lon="-7.142445">
        <ele>1005.0</ele>
        <time>2022-06-19T11:23:20.999Z</time>
      </trkpt>
      <trkpt lat="43.09566333" lon="-7.142475">
        <ele>1005.0</ele>
        <time>2022-06-19T11:23:22.021Z</time>
      </trkpt>
      <trkpt lat="43.095655" lon="-7.14248667">
        <ele>1005.0</ele>
        <time>2022-06-19T11:23:23.016Z</time>
      </trkpt>
      <trkpt lat="43.095655" lon="-7.14248667">
        <ele>1005.0</ele>
        <time>2022-06-19T11:23:24.022Z</time>
      </trkpt>
      <trkpt lat="43.09564167" lon="-7.14251667">
        <ele>1006.0</ele>
        <time>2022-06-19T11:23:25.007Z</time>
      </trkpt>
      <trkpt lat="43.09564167" lon="-7.14251667">
        <ele>1006.0</ele>
        <time>2022-06-19T11:23:26.012Z</time>
      </trkpt>
      <trkpt lat="43.09562833" lon="-7.14254333">
        <ele>1006.0</ele>
        <time>2022-06-19T11:23:27.013Z</time>
      </trkpt>
      <trkpt lat="43.09562833" lon="-7.14254333">
        <ele>1006.0</ele>
        <time>2022-06-19T11:23:28.019Z</time>
      </trkpt>
      <trkpt lat="43.095615" lon="-7.142555">
        <ele>1006.0</ele>
        <time>2022-06-19T11:23:29.020Z</time>
      </trkpt>
      <trkpt lat="43.09561" lon="-7.14256667">
        <ele>1006.0</ele>
        <time>2022-06-19T11:23:30.006Z</time>
      </trkpt>
      <trkpt lat="43.09561" lon="-7.14256667">
        <ele>1006.0</ele>
        <time>2022-06-19T11:23:31.013Z</time>
      </trkpt>
      <trkpt lat="43.0956" lon="-7.14258833">
        <ele>1007.0</ele>
        <time>2022-06-19T11:23:32.025Z</time>
      </trkpt>
      <trkpt lat="43.0956" lon="-7.14258833">
        <ele>1007.0</ele>
        <time>2022-06-19T11:23:32.991Z</time>
      </trkpt>
      <trkpt lat="43.09558333" lon="-7.142605">
        <ele>1007.0</ele>
        <time>2022-06-19T11:23:33.987Z</time>
      </trkpt>
      <trkpt lat="43.09558333" lon="-7.142605">
        <ele>1007.0</ele>
        <time>2022-06-19T11:23:34.993Z</time>
      </trkpt>
      <trkpt lat="43.09557167" lon="-7.142615">
        <ele>1007.0</ele>
        <time>2022-06-19T11:23:36.013Z</time>
      </trkpt>
      <trkpt lat="43.09556833" lon="-7.14262333">
        <ele>1007.0</ele>
        <time>2022-06-19T11:23:37.007Z</time>
      </trkpt>
      <trkpt lat="43.09556833" lon="-7.14262333">
        <ele>1007.0</ele>
        <time>2022-06-19T11:23:38.013Z</time>
      </trkpt>
      <trkpt lat="43.09555333" lon="-7.142635">
        <ele>1008.0</ele>
        <time>2022-06-19T11:23:39.001Z</time>
      </trkpt>
      <trkpt lat="43.09555333" lon="-7.142635">
        <ele>1008.0</ele>
        <time>2022-06-19T11:23:40.007Z</time>
      </trkpt>
      <trkpt lat="43.09553167" lon="-7.14264333">
        <ele>1008.0</ele>
        <time>2022-06-19T11:23:40.997Z</time>
      </trkpt>
      <trkpt lat="43.09553167" lon="-7.14264333">
        <ele>1008.0</ele>
        <time>2022-06-19T11:23:42.004Z</time>
      </trkpt>
      <trkpt lat="43.09552" lon="-7.142665">
        <ele>1008.0</ele>
        <time>2022-06-19T11:23:42.999Z</time>
      </trkpt>
      <trkpt lat="43.095515" lon="-7.14267333">
        <ele>1009.0</ele>
        <time>2022-06-19T11:23:44.025Z</time>
      </trkpt>
      <trkpt lat="43.095515" lon="-7.14267333">
        <ele>1009.0</ele>
        <time>2022-06-19T11:23:44.991Z</time>
      </trkpt>
      <trkpt lat="43.09549833" lon="-7.14269333">
        <ele>1009.0</ele>
        <time>2022-06-19T11:23:46.010Z</time>
      </trkpt>
      <trkpt lat="43.09549833" lon="-7.14269333">
        <ele>1009.0</ele>
        <time>2022-06-19T11:23:47.016Z</time>
      </trkpt>
      <trkpt lat="43.09548833" lon="-7.14270667">
        <ele>1009.0</ele>
        <time>2022-06-19T11:23:48.014Z</time>
      </trkpt>
      <trkpt lat="43.09548833" lon="-7.14270667">
        <ele>1009.0</ele>
        <time>2022-06-19T11:23:49.020Z</time>
      </trkpt>
      <trkpt lat="43.09547167" lon="-7.14272667">
        <ele>1009.0</ele>
        <time>2022-06-19T11:23:50.007Z</time>
      </trkpt>
      <trkpt lat="43.09547167" lon="-7.14272667">
        <ele>1009.0</ele>
        <time>2022-06-19T11:23:51.013Z</time>
      </trkpt>
      <trkpt lat="43.09545" lon="-7.14274">
        <ele>1010.0</ele>
        <time>2022-06-19T11:23:52.016Z</time>
      </trkpt>
      <trkpt lat="43.09545" lon="-7.14274">
        <ele>1010.0</ele>
        <time>2022-06-19T11:23:53.010Z</time>
      </trkpt>
      <trkpt lat="43.09542833" lon="-7.142755">
        <ele>1010.0</ele>
        <time>2022-06-19T11:23:54.004Z</time>
      </trkpt>
      <trkpt lat="43.09542833" lon="-7.142755">
        <ele>1010.0</ele>
        <time>2022-06-19T11:23:55.010Z</time>
      </trkpt>
      <trkpt lat="43.09540667" lon="-7.14277167">
        <ele>1011.0</ele>
        <time>2022-06-19T11:23:56.007Z</time>
      </trkpt>
      <trkpt lat="43.09540667" lon="-7.14277167">
        <ele>1011.0</ele>
        <time>2022-06-19T11:23:57.013Z</time>
      </trkpt>
      <trkpt lat="43.09538167" lon="-7.142795">
        <ele>1011.0</ele>
        <time>2022-06-19T11:23:58.006Z</time>
      </trkpt>
      <trkpt lat="43.09536833" lon="-7.1428">
        <ele>1011.0</ele>
        <time>2022-06-19T11:23:59.007Z</time>
      </trkpt>
      <trkpt lat="43.09536833" lon="-7.1428">
        <ele>1011.0</ele>
        <time>2022-06-19T11:24:00.013Z</time>
      </trkpt>
      <trkpt lat="43.095345" lon="-7.14281667">
        <ele>1012.0</ele>
        <time>2022-06-19T11:24:01.008Z</time>
      </trkpt>
      <trkpt lat="43.095335" lon="-7.14282167">
        <ele>1012.0</ele>
        <time>2022-06-19T11:24:02.003Z</time>
      </trkpt>
      <trkpt lat="43.095335" lon="-7.14282167">
        <ele>1012.0</ele>
        <time>2022-06-19T11:24:03.009Z</time>
      </trkpt>
      <trkpt lat="43.09531333" lon="-7.14283">
        <ele>1012.0</ele>
        <time>2022-06-19T11:24:04.008Z</time>
      </trkpt>
      <trkpt lat="43.09530667" lon="-7.14283333">
        <ele>1013.0</ele>
        <time>2022-06-19T11:24:05.015Z</time>
      </trkpt>
      <trkpt lat="43.09530667" lon="-7.14283333">
        <ele>1013.0</ele>
        <time>2022-06-19T11:24:06.021Z</time>
      </trkpt>
      <trkpt lat="43.09528667" lon="-7.14283167">
        <ele>1013.0</ele>
        <time>2022-06-19T11:24:07.023Z</time>
      </trkpt>
      <trkpt lat="43.095275" lon="-7.142835">
        <ele>1013.0</ele>
        <time>2022-06-19T11:24:08.011Z</time>
      </trkpt>
      <trkpt lat="43.095275" lon="-7.142835">
        <ele>1013.0</ele>
        <time>2022-06-19T11:24:09.017Z</time>
      </trkpt>
      <trkpt lat="43.09525333" lon="-7.142835">
        <ele>1014.0</ele>
        <time>2022-06-19T11:24:10.001Z</time>
      </trkpt>
      <trkpt lat="43.09524167" lon="-7.142835">
        <ele>1014.0</ele>
        <time>2022-06-19T11:24:10.997Z</time>
      </trkpt>
      <trkpt lat="43.09524167" lon="-7.142835">
        <ele>1014.0</ele>
        <time>2022-06-19T11:24:12.006Z</time>
      </trkpt>
      <trkpt lat="43.095225" lon="-7.14283667">
        <ele>1014.0</ele>
        <time>2022-06-19T11:24:12.999Z</time>
      </trkpt>
      <trkpt lat="43.095215" lon="-7.14283667">
        <ele>1014.0</ele>
        <time>2022-06-19T11:24:13.990Z</time>
      </trkpt>
      <trkpt lat="43.095215" lon="-7.14283667">
        <ele>1014.0</ele>
        <time>2022-06-19T11:24:14.996Z</time>
      </trkpt>
      <trkpt lat="43.09519833" lon="-7.14284167">
        <ele>1015.0</ele>
        <time>2022-06-19T11:24:15.998Z</time>
      </trkpt>
      <trkpt lat="43.09519" lon="-7.14283833">
        <ele>1015.0</ele>
        <time>2022-06-19T11:24:16.997Z</time>
      </trkpt>
      <trkpt lat="43.09517833" lon="-7.14283333">
        <ele>1015.0</ele>
        <time>2022-06-19T11:24:17.991Z</time>
      </trkpt>
      <trkpt lat="43.09517833" lon="-7.14283333">
        <ele>1015.0</ele>
        <time>2022-06-19T11:24:18.997Z</time>
      </trkpt>
      <trkpt lat="43.09516" lon="-7.142825">
        <ele>1015.0</ele>
        <time>2022-06-19T11:24:20.023Z</time>
      </trkpt>
      <trkpt lat="43.09516" lon="-7.142825">
        <ele>1015.0</ele>
        <time>2022-06-19T11:24:20.992Z</time>
      </trkpt>
      <trkpt lat="43.09514167" lon="-7.14281333">
        <ele>1015.0</ele>
        <time>2022-06-19T11:24:22.017Z</time>
      </trkpt>
      <trkpt lat="43.09513333" lon="-7.14280833">
        <ele>1015.0</ele>
        <time>2022-06-19T11:24:23.017Z</time>
      </trkpt>
      <trkpt lat="43.09512333" lon="-7.14280333">
        <ele>1016.0</ele>
        <time>2022-06-19T11:24:24.022Z</time>
      </trkpt>
      <trkpt lat="43.09512333" lon="-7.14280333">
        <ele>1016.0</ele>
        <time>2022-06-19T11:24:24.988Z</time>
      </trkpt>
      <trkpt lat="43.09510833" lon="-7.142795">
        <ele>1016.0</ele>
        <time>2022-06-19T11:24:26.021Z</time>
      </trkpt>
      <trkpt lat="43.09510833" lon="-7.142795">
        <ele>1016.0</ele>
        <time>2022-06-19T11:24:26.989Z</time>
      </trkpt>
      <trkpt lat="43.09509333" lon="-7.14278833">
        <ele>1016.0</ele>
        <time>2022-06-19T11:24:28.013Z</time>
      </trkpt>
      <trkpt lat="43.09508667" lon="-7.14278167">
        <ele>1016.0</ele>
        <time>2022-06-19T11:24:29.014Z</time>
      </trkpt>
      <trkpt lat="43.09508667" lon="-7.14278167">
        <ele>1016.0</ele>
        <time>2022-06-19T11:24:30.020Z</time>
      </trkpt>
      <trkpt lat="43.09507167" lon="-7.14277333">
        <ele>1016.0</ele>
        <time>2022-06-19T11:24:31.004Z</time>
      </trkpt>
      <trkpt lat="43.09506167" lon="-7.14277">
        <ele>1016.0</ele>
        <time>2022-06-19T11:24:31.997Z</time>
      </trkpt>
      <trkpt lat="43.09506167" lon="-7.14277">
        <ele>1016.0</ele>
        <time>2022-06-19T11:24:33.005Z</time>
      </trkpt>
      <trkpt lat="43.09504667" lon="-7.14275333">
        <ele>1017.0</ele>
        <time>2022-06-19T11:24:33.991Z</time>
      </trkpt>
      <trkpt lat="43.09504667" lon="-7.14275333">
        <ele>1017.0</ele>
        <time>2022-06-19T11:24:34.997Z</time>
      </trkpt>
      <trkpt lat="43.09502833" lon="-7.14273833">
        <ele>1017.0</ele>
        <time>2022-06-19T11:24:36.025Z</time>
      </trkpt>
      <trkpt lat="43.09501833" lon="-7.14273">
        <ele>1017.0</ele>
        <time>2022-06-19T11:24:37.022Z</time>
      </trkpt>
      <trkpt lat="43.09500667" lon="-7.14272167">
        <ele>1018.0</ele>
        <time>2022-06-19T11:24:38.017Z</time>
      </trkpt>
      <trkpt lat="43.09500667" lon="-7.14272167">
        <ele>1018.0</ele>
        <time>2022-06-19T11:24:39.023Z</time>
      </trkpt>
      <trkpt lat="43.09498667" lon="-7.14270333">
        <ele>1018.0</ele>
        <time>2022-06-19T11:24:40.017Z</time>
      </trkpt>
      <trkpt lat="43.09497667" lon="-7.14269167">
        <ele>1018.0</ele>
        <time>2022-06-19T11:24:41.009Z</time>
      </trkpt>
      <trkpt lat="43.09497667" lon="-7.14269167">
        <ele>1018.0</ele>
        <time>2022-06-19T11:24:42.015Z</time>
      </trkpt>
      <trkpt lat="43.09495833" lon="-7.14267167">
        <ele>1018.0</ele>
        <time>2022-06-19T11:24:43.008Z</time>
      </trkpt>
      <trkpt lat="43.09495833" lon="-7.14267167">
        <ele>1018.0</ele>
        <time>2022-06-19T11:24:44.014Z</time>
      </trkpt>
      <trkpt lat="43.09494" lon="-7.14264833">
        <ele>1018.0</ele>
        <time>2022-06-19T11:24:44.996Z</time>
      </trkpt>
      <trkpt lat="43.09494" lon="-7.14264833">
        <ele>1018.0</ele>
        <time>2022-06-19T11:24:46.002Z</time>
      </trkpt>
      <trkpt lat="43.09492" lon="-7.14262667">
        <ele>1018.0</ele>
        <time>2022-06-19T11:24:46.996Z</time>
      </trkpt>
      <trkpt lat="43.09492" lon="-7.14262667">
        <ele>1018.0</ele>
        <time>2022-06-19T11:24:48.002Z</time>
      </trkpt>
      <trkpt lat="43.09489833" lon="-7.14260667">
        <ele>1018.0</ele>
        <time>2022-06-19T11:24:48.988Z</time>
      </trkpt>
      <trkpt lat="43.09489833" lon="-7.14260667">
        <ele>1018.0</ele>
        <time>2022-06-19T11:24:49.994Z</time>
      </trkpt>
      <trkpt lat="43.09487833" lon="-7.142585">
        <ele>1018.0</ele>
        <time>2022-06-19T11:24:50.996Z</time>
      </trkpt>
      <trkpt lat="43.09487833" lon="-7.142585">
        <ele>1018.0</ele>
        <time>2022-06-19T11:24:51.993Z</time>
      </trkpt>
      <trkpt lat="43.09486" lon="-7.142555">
        <ele>1018.0</ele>
        <time>2022-06-19T11:24:53.007Z</time>
      </trkpt>
      <trkpt lat="43.09485" lon="-7.142545">
        <ele>1018.0</ele>
        <time>2022-06-19T11:24:54.005Z</time>
      </trkpt>
      <trkpt lat="43.09485" lon="-7.142545">
        <ele>1018.0</ele>
        <time>2022-06-19T11:24:55.011Z</time>
      </trkpt>
      <trkpt lat="43.09482667" lon="-7.14253333">
        <ele>1018.0</ele>
        <time>2022-06-19T11:24:56.014Z</time>
      </trkpt>
      <trkpt lat="43.09482667" lon="-7.14253333">
        <ele>1018.0</ele>
        <time>2022-06-19T11:24:57.020Z</time>
      </trkpt>
      <trkpt lat="43.09480167" lon="-7.14253">
        <ele>1019.0</ele>
        <time>2022-06-19T11:24:58.019Z</time>
      </trkpt>
      <trkpt lat="43.09478833" lon="-7.14253167">
        <ele>1019.0</ele>
        <time>2022-06-19T11:24:59.017Z</time>
      </trkpt>
      <trkpt lat="43.09478833" lon="-7.14253167">
        <ele>1019.0</ele>
        <time>2022-06-19T11:25:00.024Z</time>
      </trkpt>
      <trkpt lat="43.09477833" lon="-7.142555">
        <ele>1019.0</ele>
        <time>2022-06-19T11:25:00.987Z</time>
      </trkpt>
      <trkpt lat="43.09477833" lon="-7.142555">
        <ele>1019.0</ele>
        <time>2022-06-19T11:25:01.993Z</time>
      </trkpt>
      <trkpt lat="43.09477833" lon="-7.14258833">
        <ele>1020.0</ele>
        <time>2022-06-19T11:25:03.004Z</time>
      </trkpt>
      <trkpt lat="43.09478" lon="-7.14260333">
        <ele>1020.0</ele>
        <time>2022-06-19T11:25:03.997Z</time>
      </trkpt>
      <trkpt lat="43.09478" lon="-7.14260333">
        <ele>1020.0</ele>
        <time>2022-06-19T11:25:05.003Z</time>
      </trkpt>
      <trkpt lat="43.09478333" lon="-7.142635">
        <ele>1021.0</ele>
        <time>2022-06-19T11:25:06.008Z</time>
      </trkpt>
      <trkpt lat="43.09478333" lon="-7.142635">
        <ele>1021.0</ele>
        <time>2022-06-19T11:25:07.014Z</time>
      </trkpt>
      <trkpt lat="43.09478667" lon="-7.14266833">
        <ele>1021.0</ele>
        <time>2022-06-19T11:25:08.017Z</time>
      </trkpt>
      <trkpt lat="43.09478667" lon="-7.14266833">
        <ele>1021.0</ele>
        <time>2022-06-19T11:25:09.024Z</time>
      </trkpt>
      <trkpt lat="43.09479" lon="-7.1427">
        <ele>1022.0</ele>
        <time>2022-06-19T11:25:10.017Z</time>
      </trkpt>
      <trkpt lat="43.09479" lon="-7.14271833">
        <ele>1022.0</ele>
        <time>2022-06-19T11:25:11.008Z</time>
      </trkpt>
      <trkpt lat="43.09479" lon="-7.14271833">
        <ele>1022.0</ele>
        <time>2022-06-19T11:25:12.014Z</time>
      </trkpt>
      <trkpt lat="43.094795" lon="-7.14275667">
        <ele>1022.0</ele>
        <time>2022-06-19T11:25:13.003Z</time>
      </trkpt>
      <trkpt lat="43.094795" lon="-7.14277667">
        <ele>1022.0</ele>
        <time>2022-06-19T11:25:14.003Z</time>
      </trkpt>
      <trkpt lat="43.094795" lon="-7.14277667">
        <ele>1022.0</ele>
        <time>2022-06-19T11:25:15.008Z</time>
      </trkpt>
      <trkpt lat="43.094795" lon="-7.14282167">
        <ele>1022.0</ele>
        <time>2022-06-19T11:25:16.002Z</time>
      </trkpt>
      <trkpt lat="43.094795" lon="-7.14282167">
        <ele>1022.0</ele>
        <time>2022-06-19T11:25:17.008Z</time>
      </trkpt>
      <trkpt lat="43.09480167" lon="-7.14286667">
        <ele>1022.0</ele>
        <time>2022-06-19T11:25:18.004Z</time>
      </trkpt>
      <trkpt lat="43.09480167" lon="-7.14286667">
        <ele>1022.0</ele>
        <time>2022-06-19T11:25:19.010Z</time>
      </trkpt>
      <trkpt lat="43.09480667" lon="-7.14291833">
        <ele>1022.0</ele>
        <time>2022-06-19T11:25:20.010Z</time>
      </trkpt>
      <trkpt lat="43.09480667" lon="-7.14291833">
        <ele>1022.0</ele>
        <time>2022-06-19T11:25:21.015Z</time>
      </trkpt>
      <trkpt lat="43.09481167" lon="-7.14297333">
        <ele>1022.0</ele>
        <time>2022-06-19T11:25:22.017Z</time>
      </trkpt>
      <trkpt lat="43.09481333" lon="-7.143">
        <ele>1022.0</ele>
        <time>2022-06-19T11:25:23.015Z</time>
      </trkpt>
      <trkpt lat="43.09481333" lon="-7.143">
        <ele>1022.0</ele>
        <time>2022-06-19T11:25:24.021Z</time>
      </trkpt>
      <trkpt lat="43.09481333" lon="-7.14305667">
        <ele>1022.0</ele>
        <time>2022-06-19T11:25:25.018Z</time>
      </trkpt>
      <trkpt lat="43.094815" lon="-7.14308333">
        <ele>1022.0</ele>
        <time>2022-06-19T11:25:26.026Z</time>
      </trkpt>
      <trkpt lat="43.094815" lon="-7.14311167">
        <ele>1022.0</ele>
        <time>2022-06-19T11:25:26.987Z</time>
      </trkpt>
      <trkpt lat="43.094815" lon="-7.14311167">
        <ele>1022.0</ele>
        <time>2022-06-19T11:25:27.993Z</time>
      </trkpt>
      <trkpt lat="43.09481667" lon="-7.14316667">
        <ele>1023.0</ele>
        <time>2022-06-19T11:25:29.017Z</time>
      </trkpt>
      <trkpt lat="43.09481833" lon="-7.143195">
        <ele>1023.0</ele>
        <time>2022-06-19T11:25:30.013Z</time>
      </trkpt>
      <trkpt lat="43.09481833" lon="-7.143195">
        <ele>1023.0</ele>
        <time>2022-06-19T11:25:31.020Z</time>
      </trkpt>
      <trkpt lat="43.094825" lon="-7.14325">
        <ele>1023.0</ele>
        <time>2022-06-19T11:25:31.999Z</time>
      </trkpt>
      <trkpt lat="43.094825" lon="-7.14325">
        <ele>1023.0</ele>
        <time>2022-06-19T11:25:33.005Z</time>
      </trkpt>
      <trkpt lat="43.09483" lon="-7.143305">
        <ele>1023.0</ele>
        <time>2022-06-19T11:25:34.014Z</time>
      </trkpt>
      <trkpt lat="43.09483" lon="-7.143305">
        <ele>1023.0</ele>
        <time>2022-06-19T11:25:35.020Z</time>
      </trkpt>
      <trkpt lat="43.09483333" lon="-7.14336167">
        <ele>1023.0</ele>
        <time>2022-06-19T11:25:36.021Z</time>
      </trkpt>
      <trkpt lat="43.09483333" lon="-7.14336167">
        <ele>1023.0</ele>
        <time>2022-06-19T11:25:36.988Z</time>
      </trkpt>
      <trkpt lat="43.09483833" lon="-7.14341667">
        <ele>1023.0</ele>
        <time>2022-06-19T11:25:38.015Z</time>
      </trkpt>
      <trkpt lat="43.09484333" lon="-7.143445">
        <ele>1023.0</ele>
        <time>2022-06-19T11:25:38.995Z</time>
      </trkpt>
      <trkpt lat="43.09484333" lon="-7.143445">
        <ele>1023.0</ele>
        <time>2022-06-19T11:25:40.001Z</time>
      </trkpt>
      <trkpt lat="43.09485" lon="-7.14350333">
        <ele>1023.0</ele>
        <time>2022-06-19T11:25:41.002Z</time>
      </trkpt>
      <trkpt lat="43.09485" lon="-7.14350333">
        <ele>1023.0</ele>
        <time>2022-06-19T11:25:42.008Z</time>
      </trkpt>
      <trkpt lat="43.09485333" lon="-7.14356333">
        <ele>1024.0</ele>
        <time>2022-06-19T11:25:43.017Z</time>
      </trkpt>
      <trkpt lat="43.09485667" lon="-7.14359333">
        <ele>1024.0</ele>
        <time>2022-06-19T11:25:44.025Z</time>
      </trkpt>
      <trkpt lat="43.09485667" lon="-7.14359333">
        <ele>1024.0</ele>
        <time>2022-06-19T11:25:44.991Z</time>
      </trkpt>
      <trkpt lat="43.09486" lon="-7.14365333">
        <ele>1024.0</ele>
        <time>2022-06-19T11:25:45.996Z</time>
      </trkpt>
      <trkpt lat="43.09486" lon="-7.14365333">
        <ele>1024.0</ele>
        <time>2022-06-19T11:25:47.002Z</time>
      </trkpt>
      <trkpt lat="43.09487" lon="-7.14371833">
        <ele>1024.0</ele>
        <time>2022-06-19T11:25:47.987Z</time>
      </trkpt>
      <trkpt lat="43.09487" lon="-7.14371833">
        <ele>1024.0</ele>
        <time>2022-06-19T11:25:48.999Z</time>
      </trkpt>
      <trkpt lat="43.09488" lon="-7.14379667">
        <ele>1023.0</ele>
        <time>2022-06-19T11:25:49.987Z</time>
      </trkpt>
      <trkpt lat="43.09488" lon="-7.14379667">
        <ele>1023.0</ele>
        <time>2022-06-19T11:25:50.993Z</time>
      </trkpt>
      <trkpt lat="43.09488333" lon="-7.14387667">
        <ele>1023.0</ele>
        <time>2022-06-19T11:25:51.994Z</time>
      </trkpt>
      <trkpt lat="43.09488333" lon="-7.14387667">
        <ele>1023.0</ele>
        <time>2022-06-19T11:25:53.003Z</time>
      </trkpt>
      <trkpt lat="43.09487333" lon="-7.14395667">
        <ele>1023.0</ele>
        <time>2022-06-19T11:25:53.994Z</time>
      </trkpt>
      <trkpt lat="43.09487333" lon="-7.14395667">
        <ele>1023.0</ele>
        <time>2022-06-19T11:25:55.000Z</time>
      </trkpt>
      <trkpt lat="43.09484833" lon="-7.14403">
        <ele>1023.0</ele>
        <time>2022-06-19T11:25:56.020Z</time>
      </trkpt>
      <trkpt lat="43.094835" lon="-7.14406167">
        <ele>1023.0</ele>
        <time>2022-06-19T11:25:57.013Z</time>
      </trkpt>
      <trkpt lat="43.094835" lon="-7.14406167">
        <ele>1023.0</ele>
        <time>2022-06-19T11:25:58.021Z</time>
      </trkpt>
      <trkpt lat="43.09481167" lon="-7.14413167">
        <ele>1023.0</ele>
        <time>2022-06-19T11:25:59.011Z</time>
      </trkpt>
      <trkpt lat="43.09479667" lon="-7.14416667">
        <ele>1022.0</ele>
        <time>2022-06-19T11:26:00.007Z</time>
      </trkpt>
      <trkpt lat="43.09478" lon="-7.1442">
        <ele>1022.0</ele>
        <time>2022-06-19T11:26:01.006Z</time>
      </trkpt>
      <trkpt lat="43.09476333" lon="-7.14423167">
        <ele>1022.0</ele>
        <time>2022-06-19T11:26:01.993Z</time>
      </trkpt>
      <trkpt lat="43.09476333" lon="-7.14423167">
        <ele>1022.0</ele>
        <time>2022-06-19T11:26:03.011Z</time>
      </trkpt>
      <trkpt lat="43.09472833" lon="-7.14428167">
        <ele>1022.0</ele>
        <time>2022-06-19T11:26:04.008Z</time>
      </trkpt>
      <trkpt lat="43.09472833" lon="-7.14428167">
        <ele>1022.0</ele>
        <time>2022-06-19T11:26:05.014Z</time>
      </trkpt>
      <trkpt lat="43.09469167" lon="-7.14432333">
        <ele>1022.0</ele>
        <time>2022-06-19T11:26:06.012Z</time>
      </trkpt>
      <trkpt lat="43.09467333" lon="-7.144345">
        <ele>1022.0</ele>
        <time>2022-06-19T11:26:07.009Z</time>
      </trkpt>
      <trkpt lat="43.09467333" lon="-7.144345">
        <ele>1022.0</ele>
        <time>2022-06-19T11:26:08.015Z</time>
      </trkpt>
      <trkpt lat="43.09462833" lon="-7.14438833">
        <ele>1022.0</ele>
        <time>2022-06-19T11:26:09.008Z</time>
      </trkpt>
      <trkpt lat="43.09462833" lon="-7.14438833">
        <ele>1022.0</ele>
        <time>2022-06-19T11:26:10.014Z</time>
      </trkpt>
      <trkpt lat="43.09458667" lon="-7.14443833">
        <ele>1022.0</ele>
        <time>2022-06-19T11:26:11.017Z</time>
      </trkpt>
      <trkpt lat="43.09458667" lon="-7.14443833">
        <ele>1022.0</ele>
        <time>2022-06-19T11:26:12.023Z</time>
      </trkpt>
      <trkpt lat="43.09454667" lon="-7.14447833">
        <ele>1022.0</ele>
        <time>2022-06-19T11:26:12.996Z</time>
      </trkpt>
      <trkpt lat="43.09454667" lon="-7.14447833">
        <ele>1022.0</ele>
        <time>2022-06-19T11:26:14.002Z</time>
      </trkpt>
      <trkpt lat="43.09452667" lon="-7.14449833">
        <ele>1021.0</ele>
        <time>2022-06-19T11:26:14.996Z</time>
      </trkpt>
      <trkpt lat="43.09452667" lon="-7.14449833">
        <ele>1021.0</ele>
        <time>2022-06-19T11:26:16.002Z</time>
      </trkpt>
      <trkpt lat="43.09452667" lon="-7.14449333">
        <ele>1021.0</ele>
        <time>2022-06-19T11:26:16.987Z</time>
      </trkpt>
      <trkpt lat="43.094525" lon="-7.14449">
        <ele>1021.0</ele>
        <time>2022-06-19T11:27:04.540Z</time>
      </trkpt>
      <trkpt lat="43.09446167" lon="-7.144495">
        <ele>1020.0</ele>
        <time>2022-06-19T11:27:05.525Z</time>
      </trkpt>
      <trkpt lat="43.09446167" lon="-7.144495">
        <ele>1020.0</ele>
        <time>2022-06-19T11:27:06.513Z</time>
      </trkpt>
      <trkpt lat="43.09441667" lon="-7.14452167">
        <ele>1020.0</ele>
        <time>2022-06-19T11:27:07.540Z</time>
      </trkpt>
      <trkpt lat="43.09441667" lon="-7.14452167">
        <ele>1020.0</ele>
        <time>2022-06-19T11:27:08.509Z</time>
      </trkpt>
      <trkpt lat="43.09435833" lon="-7.14455">
        <ele>1019.0</ele>
        <time>2022-06-19T11:27:09.525Z</time>
      </trkpt>
      <trkpt lat="43.09432833" lon="-7.144565">
        <ele>1019.0</ele>
        <time>2022-06-19T11:27:10.533Z</time>
      </trkpt>
      <trkpt lat="43.09432833" lon="-7.144565">
        <ele>1019.0</ele>
        <time>2022-06-19T11:27:11.539Z</time>
      </trkpt>
      <trkpt lat="43.09426167" lon="-7.14458">
        <ele>1018.0</ele>
        <time>2022-06-19T11:27:12.526Z</time>
      </trkpt>
      <trkpt lat="43.09422333" lon="-7.144585">
        <ele>1018.0</ele>
        <time>2022-06-19T11:27:13.547Z</time>
      </trkpt>
      <trkpt lat="43.09422333" lon="-7.144585">
        <ele>1018.0</ele>
        <time>2022-06-19T11:27:14.544Z</time>
      </trkpt>
      <trkpt lat="43.09413833" lon="-7.14458667">
        <ele>1017.0</ele>
        <time>2022-06-19T11:27:15.532Z</time>
      </trkpt>
      <trkpt lat="43.09413833" lon="-7.14458667">
        <ele>1017.0</ele>
        <time>2022-06-19T11:27:16.533Z</time>
      </trkpt>
      <trkpt lat="43.09405667" lon="-7.14460333">
        <ele>1017.0</ele>
        <time>2022-06-19T11:27:17.518Z</time>
      </trkpt>
      <trkpt lat="43.09401167" lon="-7.144615">
        <ele>1017.0</ele>
        <time>2022-06-19T11:27:18.530Z</time>
      </trkpt>
      <trkpt lat="43.09396167" lon="-7.14463167">
        <ele>1016.0</ele>
        <time>2022-06-19T11:27:19.545Z</time>
      </trkpt>
      <trkpt lat="43.09396167" lon="-7.14463167">
        <ele>1016.0</ele>
        <time>2022-06-19T11:27:20.516Z</time>
      </trkpt>
      <trkpt lat="43.09386333" lon="-7.14468667">
        <ele>1015.0</ele>
        <time>2022-06-19T11:27:21.515Z</time>
      </trkpt>
      <trkpt lat="43.09381333" lon="-7.14472">
        <ele>1015.0</ele>
        <time>2022-06-19T11:27:22.508Z</time>
      </trkpt>
      <trkpt lat="43.09381333" lon="-7.14472">
        <ele>1015.0</ele>
        <time>2022-06-19T11:27:23.543Z</time>
      </trkpt>
      <trkpt lat="43.093705" lon="-7.14479">
        <ele>1014.0</ele>
        <time>2022-06-19T11:27:24.532Z</time>
      </trkpt>
      <trkpt lat="43.09364833" lon="-7.14482167">
        <ele>1014.0</ele>
        <time>2022-06-19T11:27:25.519Z</time>
      </trkpt>
      <trkpt lat="43.09364833" lon="-7.14482167">
        <ele>1014.0</ele>
        <time>2022-06-19T11:27:26.529Z</time>
      </trkpt>
      <trkpt lat="43.09353333" lon="-7.14485833">
        <ele>1013.0</ele>
        <time>2022-06-19T11:27:27.508Z</time>
      </trkpt>
      <trkpt lat="43.09347333" lon="-7.14486167">
        <ele>1013.0</ele>
        <time>2022-06-19T11:27:28.511Z</time>
      </trkpt>
      <trkpt lat="43.09347333" lon="-7.14486167">
        <ele>1013.0</ele>
        <time>2022-06-19T11:27:29.523Z</time>
      </trkpt>
      <trkpt lat="43.09335167" lon="-7.14486333">
        <ele>1013.0</ele>
        <time>2022-06-19T11:27:30.551Z</time>
      </trkpt>
      <trkpt lat="43.09335167" lon="-7.14486333">
        <ele>1013.0</ele>
        <time>2022-06-19T11:27:31.521Z</time>
      </trkpt>
      <trkpt lat="43.09323" lon="-7.14486333">
        <ele>1012.0</ele>
        <time>2022-06-19T11:27:32.513Z</time>
      </trkpt>
      <trkpt lat="43.09323" lon="-7.14486333">
        <ele>1012.0</ele>
        <time>2022-06-19T11:27:33.523Z</time>
      </trkpt>
      <trkpt lat="43.09310833" lon="-7.14488333">
        <ele>1011.0</ele>
        <time>2022-06-19T11:27:34.510Z</time>
      </trkpt>
      <trkpt lat="43.09310833" lon="-7.14488333">
        <ele>1011.0</ele>
        <time>2022-06-19T11:27:35.516Z</time>
      </trkpt>
      <trkpt lat="43.09297833" lon="-7.14492167">
        <ele>1011.0</ele>
        <time>2022-06-19T11:27:36.511Z</time>
      </trkpt>
      <trkpt lat="43.09297833" lon="-7.14492167">
        <ele>1011.0</ele>
        <time>2022-06-19T11:27:37.507Z</time>
      </trkpt>
      <trkpt lat="43.09283333" lon="-7.14493667">
        <ele>1010.0</ele>
        <time>2022-06-19T11:27:38.517Z</time>
      </trkpt>
      <trkpt lat="43.09283333" lon="-7.14493667">
        <ele>1010.0</ele>
        <time>2022-06-19T11:27:39.530Z</time>
      </trkpt>
      <trkpt lat="43.09273167" lon="-7.14495">
        <ele>1009.0</ele>
        <time>2022-06-19T11:27:40.511Z</time>
      </trkpt>
      <trkpt lat="43.092695" lon="-7.14495">
        <ele>1009.0</ele>
        <time>2022-06-19T11:27:41.524Z</time>
      </trkpt>
      <trkpt lat="43.092695" lon="-7.14495">
        <ele>1009.0</ele>
        <time>2022-06-19T11:27:42.508Z</time>
      </trkpt>
      <trkpt lat="43.09262167" lon="-7.14496167">
        <ele>1008.0</ele>
        <time>2022-06-19T11:27:43.530Z</time>
      </trkpt>
      <trkpt lat="43.09262167" lon="-7.14496167">
        <ele>1008.0</ele>
        <time>2022-06-19T11:27:44.517Z</time>
      </trkpt>
      <trkpt lat="43.09254167" lon="-7.14497833">
        <ele>1008.0</ele>
        <time>2022-06-19T11:27:45.545Z</time>
      </trkpt>
      <trkpt lat="43.09254167" lon="-7.14497833">
        <ele>1008.0</ele>
        <time>2022-06-19T11:27:46.514Z</time>
      </trkpt>
      <trkpt lat="43.09245667" lon="-7.14498667">
        <ele>1007.0</ele>
        <time>2022-06-19T11:27:47.536Z</time>
      </trkpt>
      <trkpt lat="43.09241167" lon="-7.14499167">
        <ele>1007.0</ele>
        <time>2022-06-19T11:27:48.549Z</time>
      </trkpt>
      <trkpt lat="43.09241167" lon="-7.14499167">
        <ele>1007.0</ele>
        <time>2022-06-19T11:27:49.536Z</time>
      </trkpt>
      <trkpt lat="43.09232333" lon="-7.14498833">
        <ele>1007.0</ele>
        <time>2022-06-19T11:27:50.530Z</time>
      </trkpt>
      <trkpt lat="43.092285" lon="-7.144985">
        <ele>1006.0</ele>
        <time>2022-06-19T11:27:51.515Z</time>
      </trkpt>
      <trkpt lat="43.09224167" lon="-7.144985">
        <ele>1006.0</ele>
        <time>2022-06-19T11:27:52.511Z</time>
      </trkpt>
      <trkpt lat="43.09224167" lon="-7.144985">
        <ele>1006.0</ele>
        <time>2022-06-19T11:27:53.522Z</time>
      </trkpt>
      <trkpt lat="43.09215333" lon="-7.14498833">
        <ele>1006.0</ele>
        <time>2022-06-19T11:27:54.509Z</time>
      </trkpt>
      <trkpt lat="43.09211" lon="-7.144995">
        <ele>1005.0</ele>
        <time>2022-06-19T11:27:55.528Z</time>
      </trkpt>
      <trkpt lat="43.09211" lon="-7.144995">
        <ele>1005.0</ele>
        <time>2022-06-19T11:27:56.507Z</time>
      </trkpt>
      <trkpt lat="43.09203" lon="-7.14499667">
        <ele>1005.0</ele>
        <time>2022-06-19T11:27:57.532Z</time>
      </trkpt>
      <trkpt lat="43.09203" lon="-7.14499667">
        <ele>1005.0</ele>
        <time>2022-06-19T11:27:58.513Z</time>
      </trkpt>
      <trkpt lat="43.09193167" lon="-7.14501167">
        <ele>1005.0</ele>
        <time>2022-06-19T11:27:59.550Z</time>
      </trkpt>
      <trkpt lat="43.091885" lon="-7.14502">
        <ele>1004.0</ele>
        <time>2022-06-19T11:28:00.530Z</time>
      </trkpt>
      <trkpt lat="43.091885" lon="-7.14502">
        <ele>1004.0</ele>
        <time>2022-06-19T11:28:01.521Z</time>
      </trkpt>
      <trkpt lat="43.09179333" lon="-7.14503">
        <ele>1004.0</ele>
        <time>2022-06-19T11:28:02.514Z</time>
      </trkpt>
      <trkpt lat="43.09179333" lon="-7.14503">
        <ele>1004.0</ele>
        <time>2022-06-19T11:28:03.517Z</time>
      </trkpt>
      <trkpt lat="43.0917" lon="-7.14504333">
        <ele>1003.0</ele>
        <time>2022-06-19T11:28:04.540Z</time>
      </trkpt>
      <trkpt lat="43.0917" lon="-7.14504333">
        <ele>1003.0</ele>
        <time>2022-06-19T11:28:05.527Z</time>
      </trkpt>
      <trkpt lat="43.09164167" lon="-7.14505">
        <ele>1003.0</ele>
        <time>2022-06-19T11:28:06.546Z</time>
      </trkpt>
      <trkpt lat="43.09161167" lon="-7.14505667">
        <ele>1003.0</ele>
        <time>2022-06-19T11:28:07.547Z</time>
      </trkpt>
      <trkpt lat="43.09161167" lon="-7.14505667">
        <ele>1003.0</ele>
        <time>2022-06-19T11:28:08.526Z</time>
      </trkpt>
      <trkpt lat="43.09154" lon="-7.14507167">
        <ele>1002.0</ele>
        <time>2022-06-19T11:28:09.529Z</time>
      </trkpt>
      <trkpt lat="43.09149667" lon="-7.14507667">
        <ele>1002.0</ele>
        <time>2022-06-19T11:28:10.530Z</time>
      </trkpt>
      <trkpt lat="43.09149667" lon="-7.14507667">
        <ele>1002.0</ele>
        <time>2022-06-19T11:28:11.540Z</time>
      </trkpt>
      <trkpt lat="43.091405" lon="-7.14509333">
        <ele>1002.0</ele>
        <time>2022-06-19T11:28:12.523Z</time>
      </trkpt>
      <trkpt lat="43.09135833" lon="-7.14510167">
        <ele>1002.0</ele>
        <time>2022-06-19T11:28:13.511Z</time>
      </trkpt>
      <trkpt lat="43.09135833" lon="-7.14510167">
        <ele>1002.0</ele>
        <time>2022-06-19T11:28:14.519Z</time>
      </trkpt>
      <trkpt lat="43.09126" lon="-7.14512167">
        <ele>1001.0</ele>
        <time>2022-06-19T11:28:15.522Z</time>
      </trkpt>
      <trkpt lat="43.09126" lon="-7.14512167">
        <ele>1001.0</ele>
        <time>2022-06-19T11:28:16.515Z</time>
      </trkpt>
      <trkpt lat="43.09115667" lon="-7.14514333">
        <ele>1000.0</ele>
        <time>2022-06-19T11:28:17.509Z</time>
      </trkpt>
      <trkpt lat="43.09110333" lon="-7.145155">
        <ele>1000.0</ele>
        <time>2022-06-19T11:28:18.545Z</time>
      </trkpt>
      <trkpt lat="43.09110333" lon="-7.145155">
        <ele>1000.0</ele>
        <time>2022-06-19T11:28:19.512Z</time>
      </trkpt>
      <trkpt lat="43.090985" lon="-7.145175">
        <ele>999.0</ele>
        <time>2022-06-19T11:28:20.511Z</time>
      </trkpt>
      <trkpt lat="43.090985" lon="-7.145175">
        <ele>999.0</ele>
        <time>2022-06-19T11:28:21.540Z</time>
      </trkpt>
      <trkpt lat="43.090865" lon="-7.145195">
        <ele>999.0</ele>
        <time>2022-06-19T11:28:22.541Z</time>
      </trkpt>
      <trkpt lat="43.09080667" lon="-7.14520667">
        <ele>998.0</ele>
        <time>2022-06-19T11:28:23.533Z</time>
      </trkpt>
      <trkpt lat="43.09080667" lon="-7.14520667">
        <ele>998.0</ele>
        <time>2022-06-19T11:28:24.525Z</time>
      </trkpt>
      <trkpt lat="43.09069" lon="-7.14523">
        <ele>997.0</ele>
        <time>2022-06-19T11:28:25.518Z</time>
      </trkpt>
      <trkpt lat="43.09069" lon="-7.14523">
        <ele>997.0</ele>
        <time>2022-06-19T11:28:26.509Z</time>
      </trkpt>
      <trkpt lat="43.09056167" lon="-7.14525">
        <ele>997.0</ele>
        <time>2022-06-19T11:28:27.531Z</time>
      </trkpt>
      <trkpt lat="43.09056167" lon="-7.14525">
        <ele>997.0</ele>
        <time>2022-06-19T11:28:28.517Z</time>
      </trkpt>
      <trkpt lat="43.09043667" lon="-7.14526167">
        <ele>996.0</ele>
        <time>2022-06-19T11:28:29.524Z</time>
      </trkpt>
      <trkpt lat="43.09043667" lon="-7.14526167">
        <ele>996.0</ele>
        <time>2022-06-19T11:28:30.506Z</time>
      </trkpt>
      <trkpt lat="43.09031167" lon="-7.14525667">
        <ele>994.0</ele>
        <time>2022-06-19T11:28:31.528Z</time>
      </trkpt>
      <trkpt lat="43.09031167" lon="-7.14525667">
        <ele>994.0</ele>
        <time>2022-06-19T11:28:32.536Z</time>
      </trkpt>
      <trkpt lat="43.09017333" lon="-7.145235">
        <ele>993.0</ele>
        <time>2022-06-19T11:28:33.534Z</time>
      </trkpt>
      <trkpt lat="43.09017333" lon="-7.145235">
        <ele>993.0</ele>
        <time>2022-06-19T11:28:34.509Z</time>
      </trkpt>
      <trkpt lat="43.09003" lon="-7.14520833">
        <ele>992.0</ele>
        <time>2022-06-19T11:28:35.544Z</time>
      </trkpt>
      <trkpt lat="43.09003" lon="-7.14520833">
        <ele>992.0</ele>
        <time>2022-06-19T11:28:36.527Z</time>
      </trkpt>
      <trkpt lat="43.08990167" lon="-7.14520667">
        <ele>991.0</ele>
        <time>2022-06-19T11:28:37.514Z</time>
      </trkpt>
      <trkpt lat="43.08990167" lon="-7.14520667">
        <ele>991.0</ele>
        <time>2022-06-19T11:28:38.539Z</time>
      </trkpt>
      <trkpt lat="43.08977667" lon="-7.145215">
        <ele>990.0</ele>
        <time>2022-06-19T11:28:39.541Z</time>
      </trkpt>
      <trkpt lat="43.08971667" lon="-7.145215">
        <ele>989.0</ele>
        <time>2022-06-19T11:28:40.514Z</time>
      </trkpt>
      <trkpt lat="43.08971667" lon="-7.145215">
        <ele>989.0</ele>
        <time>2022-06-19T11:28:41.526Z</time>
      </trkpt>
      <trkpt lat="43.08961667" lon="-7.14522667">
        <ele>988.0</ele>
        <time>2022-06-19T11:28:42.511Z</time>
      </trkpt>
      <trkpt lat="43.08957333" lon="-7.14522333">
        <ele>988.0</ele>
        <time>2022-06-19T11:28:43.527Z</time>
      </trkpt>
      <trkpt lat="43.08957333" lon="-7.14522333">
        <ele>988.0</ele>
        <time>2022-06-19T11:28:44.516Z</time>
      </trkpt>
      <trkpt lat="43.08949833" lon="-7.14521667">
        <ele>987.0</ele>
        <time>2022-06-19T11:28:45.531Z</time>
      </trkpt>
      <trkpt lat="43.08945" lon="-7.14522167">
        <ele>986.0</ele>
        <time>2022-06-19T11:28:46.530Z</time>
      </trkpt>
      <trkpt lat="43.08945" lon="-7.14522167">
        <ele>986.0</ele>
        <time>2022-06-19T11:28:47.544Z</time>
      </trkpt>
      <trkpt lat="43.08934667" lon="-7.14523">
        <ele>985.0</ele>
        <time>2022-06-19T11:28:48.557Z</time>
      </trkpt>
      <trkpt lat="43.08934667" lon="-7.14523">
        <ele>985.0</ele>
        <time>2022-06-19T11:28:49.513Z</time>
      </trkpt>
      <trkpt lat="43.08922667" lon="-7.14523833">
        <ele>984.0</ele>
        <time>2022-06-19T11:28:50.546Z</time>
      </trkpt>
      <trkpt lat="43.08922667" lon="-7.14523833">
        <ele>984.0</ele>
        <time>2022-06-19T11:28:51.526Z</time>
      </trkpt>
      <trkpt lat="43.0891" lon="-7.14527333">
        <ele>982.0</ele>
        <time>2022-06-19T11:28:52.524Z</time>
      </trkpt>
      <trkpt lat="43.08904" lon="-7.14530167">
        <ele>982.0</ele>
        <time>2022-06-19T11:28:53.524Z</time>
      </trkpt>
      <trkpt lat="43.08904" lon="-7.14530167">
        <ele>982.0</ele>
        <time>2022-06-19T11:28:54.516Z</time>
      </trkpt>
      <trkpt lat="43.08891667" lon="-7.14536">
        <ele>981.0</ele>
        <time>2022-06-19T11:28:55.511Z</time>
      </trkpt>
      <trkpt lat="43.08891667" lon="-7.14536">
        <ele>981.0</ele>
        <time>2022-06-19T11:28:56.510Z</time>
      </trkpt>
      <trkpt lat="43.08883833" lon="-7.14541833">
        <ele>979.0</ele>
        <time>2022-06-19T11:28:57.540Z</time>
      </trkpt>
      <trkpt lat="43.08881" lon="-7.14545333">
        <ele>979.0</ele>
        <time>2022-06-19T11:28:58.525Z</time>
      </trkpt>
      <trkpt lat="43.08881" lon="-7.14545333">
        <ele>979.0</ele>
        <time>2022-06-19T11:28:59.506Z</time>
      </trkpt>
      <trkpt lat="43.08873333" lon="-7.14551667">
        <ele>978.0</ele>
        <time>2022-06-19T11:29:00.525Z</time>
      </trkpt>
      <trkpt lat="43.08873333" lon="-7.14551667">
        <ele>978.0</ele>
        <time>2022-06-19T11:29:01.537Z</time>
      </trkpt>
      <trkpt lat="43.08865" lon="-7.14556833">
        <ele>977.0</ele>
        <time>2022-06-19T11:29:02.536Z</time>
      </trkpt>
      <trkpt lat="43.08865" lon="-7.14556833">
        <ele>977.0</ele>
        <time>2022-06-19T11:29:03.509Z</time>
      </trkpt>
      <trkpt lat="43.08857833" lon="-7.14562">
        <ele>976.0</ele>
        <time>2022-06-19T11:29:04.540Z</time>
      </trkpt>
      <trkpt lat="43.08854167" lon="-7.14565333">
        <ele>975.0</ele>
        <time>2022-06-19T11:29:05.530Z</time>
      </trkpt>
      <trkpt lat="43.08854167" lon="-7.14565333">
        <ele>975.0</ele>
        <time>2022-06-19T11:29:06.517Z</time>
      </trkpt>
      <trkpt lat="43.08846667" lon="-7.145735">
        <ele>975.0</ele>
        <time>2022-06-19T11:29:07.544Z</time>
      </trkpt>
      <trkpt lat="43.08846667" lon="-7.145735">
        <ele>975.0</ele>
        <time>2022-06-19T11:29:08.530Z</time>
      </trkpt>
      <trkpt lat="43.08838" lon="-7.14581167">
        <ele>974.0</ele>
        <time>2022-06-19T11:29:09.516Z</time>
      </trkpt>
      <trkpt lat="43.08834333" lon="-7.14586">
        <ele>973.0</ele>
        <time>2022-06-19T11:29:10.514Z</time>
      </trkpt>
      <trkpt lat="43.08834333" lon="-7.14586">
        <ele>973.0</ele>
        <time>2022-06-19T11:29:11.536Z</time>
      </trkpt>
      <trkpt lat="43.08825333" lon="-7.14596333">
        <ele>972.0</ele>
        <time>2022-06-19T11:29:12.520Z</time>
      </trkpt>
      <trkpt lat="43.08821667" lon="-7.14601667">
        <ele>972.0</ele>
        <time>2022-06-19T11:29:13.524Z</time>
      </trkpt>
      <trkpt lat="43.08821667" lon="-7.14601667">
        <ele>972.0</ele>
        <time>2022-06-19T11:29:14.508Z</time>
      </trkpt>
      <trkpt lat="43.08813167" lon="-7.14612167">
        <ele>971.0</ele>
        <time>2022-06-19T11:29:15.531Z</time>
      </trkpt>
      <trkpt lat="43.08813167" lon="-7.14612167">
        <ele>971.0</ele>
        <time>2022-06-19T11:29:16.514Z</time>
      </trkpt>
      <trkpt lat="43.08805167" lon="-7.14619833">
        <ele>970.0</ele>
        <time>2022-06-19T11:29:17.507Z</time>
      </trkpt>
      <trkpt lat="43.08805167" lon="-7.14619833">
        <ele>970.0</ele>
        <time>2022-06-19T11:29:18.532Z</time>
      </trkpt>
      <trkpt lat="43.087975" lon="-7.146275">
        <ele>969.0</ele>
        <time>2022-06-19T11:29:19.511Z</time>
      </trkpt>
      <trkpt lat="43.087975" lon="-7.146275">
        <ele>969.0</ele>
        <time>2022-06-19T11:29:20.507Z</time>
      </trkpt>
      <trkpt lat="43.08791333" lon="-7.14633">
        <ele>968.0</ele>
        <time>2022-06-19T11:29:21.531Z</time>
      </trkpt>
      <trkpt lat="43.08791333" lon="-7.14633">
        <ele>968.0</ele>
        <time>2022-06-19T11:29:22.507Z</time>
      </trkpt>
      <trkpt lat="43.08785833" lon="-7.14639667">
        <ele>967.0</ele>
        <time>2022-06-19T11:29:23.523Z</time>
      </trkpt>
      <trkpt lat="43.08785833" lon="-7.14639667">
        <ele>967.0</ele>
        <time>2022-06-19T11:29:24.514Z</time>
      </trkpt>
      <trkpt lat="43.08778167" lon="-7.14648667">
        <ele>967.0</ele>
        <time>2022-06-19T11:29:25.534Z</time>
      </trkpt>
      <trkpt lat="43.08778167" lon="-7.14648667">
        <ele>967.0</ele>
        <time>2022-06-19T11:29:26.507Z</time>
      </trkpt>
      <trkpt lat="43.08767667" lon="-7.14659167">
        <ele>966.0</ele>
        <time>2022-06-19T11:29:27.535Z</time>
      </trkpt>
      <trkpt lat="43.08762833" lon="-7.14663667">
        <ele>966.0</ele>
        <time>2022-06-19T11:29:28.549Z</time>
      </trkpt>
      <trkpt lat="43.08762833" lon="-7.14663667">
        <ele>966.0</ele>
        <time>2022-06-19T11:29:29.523Z</time>
      </trkpt>
      <trkpt lat="43.08752667" lon="-7.14673">
        <ele>965.0</ele>
        <time>2022-06-19T11:29:30.534Z</time>
      </trkpt>
      <trkpt lat="43.08752667" lon="-7.14673">
        <ele>965.0</ele>
        <time>2022-06-19T11:29:31.515Z</time>
      </trkpt>
      <trkpt lat="43.08739333" lon="-7.14686667">
        <ele>964.0</ele>
        <time>2022-06-19T11:29:32.545Z</time>
      </trkpt>
      <trkpt lat="43.08739333" lon="-7.14686667">
        <ele>964.0</ele>
        <time>2022-06-19T11:29:33.512Z</time>
      </trkpt>
      <trkpt lat="43.08726333" lon="-7.14696333">
        <ele>963.0</ele>
        <time>2022-06-19T11:29:34.532Z</time>
      </trkpt>
      <trkpt lat="43.087205" lon="-7.14701333">
        <ele>963.0</ele>
        <time>2022-06-19T11:29:35.531Z</time>
      </trkpt>
      <trkpt lat="43.087205" lon="-7.14701333">
        <ele>963.0</ele>
        <time>2022-06-19T11:29:36.525Z</time>
      </trkpt>
      <trkpt lat="43.087095" lon="-7.14712167">
        <ele>962.0</ele>
        <time>2022-06-19T11:29:37.507Z</time>
      </trkpt>
      <trkpt lat="43.087095" lon="-7.14712167">
        <ele>962.0</ele>
        <time>2022-06-19T11:29:38.525Z</time>
      </trkpt>
      <trkpt lat="43.08696833" lon="-7.14722667">
        <ele>961.0</ele>
        <time>2022-06-19T11:29:39.527Z</time>
      </trkpt>
      <trkpt lat="43.08690333" lon="-7.14727833">
        <ele>961.0</ele>
        <time>2022-06-19T11:29:40.507Z</time>
      </trkpt>
      <trkpt lat="43.08690333" lon="-7.14727833">
        <ele>961.0</ele>
        <time>2022-06-19T11:29:41.517Z</time>
      </trkpt>
      <trkpt lat="43.086785" lon="-7.14737333">
        <ele>960.0</ele>
        <time>2022-06-19T11:29:42.545Z</time>
      </trkpt>
      <trkpt lat="43.08672667" lon="-7.14743333">
        <ele>960.0</ele>
        <time>2022-06-19T11:29:43.545Z</time>
      </trkpt>
      <trkpt lat="43.08672667" lon="-7.14743333">
        <ele>960.0</ele>
        <time>2022-06-19T11:29:44.511Z</time>
      </trkpt>
      <trkpt lat="43.08661167" lon="-7.14756667">
        <ele>959.0</ele>
        <time>2022-06-19T11:29:45.506Z</time>
      </trkpt>
      <trkpt lat="43.08661167" lon="-7.14756667">
        <ele>959.0</ele>
        <time>2022-06-19T11:29:46.518Z</time>
      </trkpt>
      <trkpt lat="43.086515" lon="-7.147685">
        <ele>958.0</ele>
        <time>2022-06-19T11:29:47.539Z</time>
      </trkpt>
      <trkpt lat="43.08646333" lon="-7.14775333">
        <ele>957.0</ele>
        <time>2022-06-19T11:29:48.524Z</time>
      </trkpt>
      <trkpt lat="43.08646333" lon="-7.14775333">
        <ele>957.0</ele>
        <time>2022-06-19T11:29:49.531Z</time>
      </trkpt>
      <trkpt lat="43.08638333" lon="-7.1479">
        <ele>956.0</ele>
        <time>2022-06-19T11:29:50.534Z</time>
      </trkpt>
      <trkpt lat="43.08638333" lon="-7.1479">
        <ele>956.0</ele>
        <time>2022-06-19T11:29:51.508Z</time>
      </trkpt>
      <trkpt lat="43.08632667" lon="-7.14803833">
        <ele>955.0</ele>
        <time>2022-06-19T11:29:52.519Z</time>
      </trkpt>
      <trkpt lat="43.08630333" lon="-7.14812167">
        <ele>954.0</ele>
        <time>2022-06-19T11:29:53.540Z</time>
      </trkpt>
      <trkpt lat="43.08630333" lon="-7.14812167">
        <ele>954.0</ele>
        <time>2022-06-19T11:29:54.511Z</time>
      </trkpt>
      <trkpt lat="43.08625833" lon="-7.14829">
        <ele>952.0</ele>
        <time>2022-06-19T11:29:55.536Z</time>
      </trkpt>
      <trkpt lat="43.08625833" lon="-7.14829">
        <ele>952.0</ele>
        <time>2022-06-19T11:29:56.521Z</time>
      </trkpt>
      <trkpt lat="43.08623167" lon="-7.148475">
        <ele>950.0</ele>
        <time>2022-06-19T11:29:57.514Z</time>
      </trkpt>
      <trkpt lat="43.08621333" lon="-7.14856333">
        <ele>950.0</ele>
        <time>2022-06-19T11:29:58.522Z</time>
      </trkpt>
      <trkpt lat="43.08621333" lon="-7.14856333">
        <ele>950.0</ele>
        <time>2022-06-19T11:29:59.536Z</time>
      </trkpt>
      <trkpt lat="43.08617667" lon="-7.14874167">
        <ele>948.0</ele>
        <time>2022-06-19T11:30:00.522Z</time>
      </trkpt>
      <trkpt lat="43.08615833" lon="-7.14882833">
        <ele>948.0</ele>
        <time>2022-06-19T11:30:01.526Z</time>
      </trkpt>
      <trkpt lat="43.08615833" lon="-7.14882833">
        <ele>948.0</ele>
        <time>2022-06-19T11:30:02.517Z</time>
      </trkpt>
      <trkpt lat="43.08611" lon="-7.14907">
        <ele>946.0</ele>
        <time>2022-06-19T11:30:03.516Z</time>
      </trkpt>
      <trkpt lat="43.08607833" lon="-7.14916333">
        <ele>945.0</ele>
        <time>2022-06-19T11:30:04.535Z</time>
      </trkpt>
      <trkpt lat="43.08607833" lon="-7.14916333">
        <ele>945.0</ele>
        <time>2022-06-19T11:30:05.514Z</time>
      </trkpt>
      <trkpt lat="43.08602667" lon="-7.149355">
        <ele>944.0</ele>
        <time>2022-06-19T11:30:06.549Z</time>
      </trkpt>
      <trkpt lat="43.085995" lon="-7.14944833">
        <ele>943.0</ele>
        <time>2022-06-19T11:30:07.525Z</time>
      </trkpt>
      <trkpt lat="43.085995" lon="-7.14944833">
        <ele>943.0</ele>
        <time>2022-06-19T11:30:08.507Z</time>
      </trkpt>
      <trkpt lat="43.08592167" lon="-7.14962833">
        <ele>941.0</ele>
        <time>2022-06-19T11:30:09.511Z</time>
      </trkpt>
      <trkpt lat="43.08588833" lon="-7.14969167">
        <ele>940.0</ele>
        <time>2022-06-19T11:30:10.534Z</time>
      </trkpt>
      <trkpt lat="43.08585333" lon="-7.14976333">
        <ele>940.0</ele>
        <time>2022-06-19T11:30:11.546Z</time>
      </trkpt>
      <trkpt lat="43.08585333" lon="-7.14976333">
        <ele>940.0</ele>
        <time>2022-06-19T11:30:12.513Z</time>
      </trkpt>
      <trkpt lat="43.08578333" lon="-7.14991">
        <ele>939.0</ele>
        <time>2022-06-19T11:30:13.534Z</time>
      </trkpt>
      <trkpt lat="43.08578333" lon="-7.14991">
        <ele>939.0</ele>
        <time>2022-06-19T11:30:14.522Z</time>
      </trkpt>
      <trkpt lat="43.08568667" lon="-7.15009667">
        <ele>938.0</ele>
        <time>2022-06-19T11:30:15.514Z</time>
      </trkpt>
      <trkpt lat="43.08563833" lon="-7.150195">
        <ele>937.0</ele>
        <time>2022-06-19T11:30:16.535Z</time>
      </trkpt>
      <trkpt lat="43.08563833" lon="-7.150195">
        <ele>937.0</ele>
        <time>2022-06-19T11:30:17.545Z</time>
      </trkpt>
      <trkpt lat="43.085575" lon="-7.150425">
        <ele>935.0</ele>
        <time>2022-06-19T11:30:18.529Z</time>
      </trkpt>
      <trkpt lat="43.085575" lon="-7.150425">
        <ele>935.0</ele>
        <time>2022-06-19T11:30:19.509Z</time>
      </trkpt>
      <trkpt lat="43.085525" lon="-7.15063167">
        <ele>933.0</ele>
        <time>2022-06-19T11:30:20.532Z</time>
      </trkpt>
      <trkpt lat="43.085525" lon="-7.15063167">
        <ele>933.0</ele>
        <time>2022-06-19T11:30:21.525Z</time>
      </trkpt>
      <trkpt lat="43.085515" lon="-7.15081833">
        <ele>932.0</ele>
        <time>2022-06-19T11:30:22.522Z</time>
      </trkpt>
      <trkpt lat="43.08551833" lon="-7.15091">
        <ele>931.0</ele>
        <time>2022-06-19T11:30:23.525Z</time>
      </trkpt>
      <trkpt lat="43.08551833" lon="-7.15091">
        <ele>931.0</ele>
        <time>2022-06-19T11:30:24.542Z</time>
      </trkpt>
      <trkpt lat="43.08551833" lon="-7.15110167">
        <ele>930.0</ele>
        <time>2022-06-19T11:30:25.521Z</time>
      </trkpt>
      <trkpt lat="43.08551833" lon="-7.15110167">
        <ele>930.0</ele>
        <time>2022-06-19T11:30:26.540Z</time>
      </trkpt>
      <trkpt lat="43.08552833" lon="-7.15130833">
        <ele>929.0</ele>
        <time>2022-06-19T11:30:27.538Z</time>
      </trkpt>
      <trkpt lat="43.08552833" lon="-7.15130833">
        <ele>929.0</ele>
        <time>2022-06-19T11:30:28.527Z</time>
      </trkpt>
      <trkpt lat="43.08551" lon="-7.151525">
        <ele>928.0</ele>
        <time>2022-06-19T11:30:29.509Z</time>
      </trkpt>
      <trkpt lat="43.085495" lon="-7.15162">
        <ele>927.0</ele>
        <time>2022-06-19T11:30:30.518Z</time>
      </trkpt>
      <trkpt lat="43.085495" lon="-7.15162">
        <ele>927.0</ele>
        <time>2022-06-19T11:30:31.536Z</time>
      </trkpt>
      <trkpt lat="43.08543" lon="-7.15181">
        <ele>925.0</ele>
        <time>2022-06-19T11:30:32.533Z</time>
      </trkpt>
      <trkpt lat="43.08543" lon="-7.15181">
        <ele>925.0</ele>
        <time>2022-06-19T11:30:33.510Z</time>
      </trkpt>
      <trkpt lat="43.08536833" lon="-7.15204333">
        <ele>924.0</ele>
        <time>2022-06-19T11:30:34.512Z</time>
      </trkpt>
      <trkpt lat="43.08532167" lon="-7.15213">
        <ele>923.0</ele>
        <time>2022-06-19T11:30:35.514Z</time>
      </trkpt>
      <trkpt lat="43.08532167" lon="-7.15213">
        <ele>923.0</ele>
        <time>2022-06-19T11:30:36.529Z</time>
      </trkpt>
      <trkpt lat="43.08520667" lon="-7.1523">
        <ele>921.0</ele>
        <time>2022-06-19T11:30:37.537Z</time>
      </trkpt>
      <trkpt lat="43.08520667" lon="-7.1523">
        <ele>921.0</ele>
        <time>2022-06-19T11:30:38.507Z</time>
      </trkpt>
      <trkpt lat="43.08508" lon="-7.15248">
        <ele>919.0</ele>
        <time>2022-06-19T11:30:39.533Z</time>
      </trkpt>
      <trkpt lat="43.08501333" lon="-7.15257833">
        <ele>919.0</ele>
        <time>2022-06-19T11:30:40.535Z</time>
      </trkpt>
      <trkpt lat="43.08501333" lon="-7.15257833">
        <ele>919.0</ele>
        <time>2022-06-19T11:30:41.521Z</time>
      </trkpt>
      <trkpt lat="43.08488" lon="-7.15279167">
        <ele>917.0</ele>
        <time>2022-06-19T11:30:42.527Z</time>
      </trkpt>
      <trkpt lat="43.08488" lon="-7.15279167">
        <ele>917.0</ele>
        <time>2022-06-19T11:30:43.519Z</time>
      </trkpt>
      <trkpt lat="43.08476167" lon="-7.15299167">
        <ele>915.0</ele>
        <time>2022-06-19T11:30:44.546Z</time>
      </trkpt>
      <trkpt lat="43.08476167" lon="-7.15299167">
        <ele>915.0</ele>
        <time>2022-06-19T11:30:45.539Z</time>
      </trkpt>
      <trkpt lat="43.084675" lon="-7.15311333">
        <ele>913.0</ele>
        <time>2022-06-19T11:30:46.544Z</time>
      </trkpt>
      <trkpt lat="43.084675" lon="-7.15311333">
        <ele>913.0</ele>
        <time>2022-06-19T11:30:47.515Z</time>
      </trkpt>
      <trkpt lat="43.08461167" lon="-7.15319167">
        <ele>911.0</ele>
        <time>2022-06-19T11:30:48.540Z</time>
      </trkpt>
      <trkpt lat="43.08457667" lon="-7.15323167">
        <ele>910.0</ele>
        <time>2022-06-19T11:30:49.536Z</time>
      </trkpt>
      <trkpt lat="43.08457667" lon="-7.15323167">
        <ele>910.0</ele>
        <time>2022-06-19T11:30:50.539Z</time>
      </trkpt>
      <trkpt lat="43.08449833" lon="-7.15334167">
        <ele>908.0</ele>
        <time>2022-06-19T11:30:51.510Z</time>
      </trkpt>
      <trkpt lat="43.08449833" lon="-7.15334167">
        <ele>908.0</ele>
        <time>2022-06-19T11:30:52.527Z</time>
      </trkpt>
      <trkpt lat="43.08440333" lon="-7.15347667">
        <ele>905.0</ele>
        <time>2022-06-19T11:30:53.551Z</time>
      </trkpt>
      <trkpt lat="43.08435833" lon="-7.153545">
        <ele>904.0</ele>
        <time>2022-06-19T11:30:54.547Z</time>
      </trkpt>
      <trkpt lat="43.08435833" lon="-7.153545">
        <ele>904.0</ele>
        <time>2022-06-19T11:30:55.515Z</time>
      </trkpt>
      <trkpt lat="43.0843" lon="-7.15364">
        <ele>903.0</ele>
        <time>2022-06-19T11:30:56.544Z</time>
      </trkpt>
      <trkpt lat="43.0843" lon="-7.15364">
        <ele>903.0</ele>
        <time>2022-06-19T11:30:57.545Z</time>
      </trkpt>
      <trkpt lat="43.08427" lon="-7.153685">
        <ele>903.0</ele>
        <time>2022-06-19T11:30:58.545Z</time>
      </trkpt>
      <trkpt lat="43.08425" lon="-7.15371333">
        <ele>902.0</ele>
        <time>2022-06-19T11:30:59.544Z</time>
      </trkpt>
      <trkpt lat="43.08422667" lon="-7.15374667">
        <ele>901.0</ele>
        <time>2022-06-19T11:31:00.543Z</time>
      </trkpt>
      <trkpt lat="43.08422667" lon="-7.15374667">
        <ele>901.0</ele>
        <time>2022-06-19T11:31:01.528Z</time>
      </trkpt>
      <trkpt lat="43.08416167" lon="-7.15383833">
        <ele>901.0</ele>
        <time>2022-06-19T11:31:02.511Z</time>
      </trkpt>
      <trkpt lat="43.08416167" lon="-7.15383833">
        <ele>901.0</ele>
        <time>2022-06-19T11:31:03.507Z</time>
      </trkpt>
      <trkpt lat="43.08408333" lon="-7.15394833">
        <ele>899.0</ele>
        <time>2022-06-19T11:31:04.530Z</time>
      </trkpt>
      <trkpt lat="43.08408333" lon="-7.15394833">
        <ele>899.0</ele>
        <time>2022-06-19T11:31:05.525Z</time>
      </trkpt>
      <trkpt lat="43.08400833" lon="-7.15409">
        <ele>898.0</ele>
        <time>2022-06-19T11:31:06.546Z</time>
      </trkpt>
      <trkpt lat="43.08398167" lon="-7.15417833">
        <ele>897.0</ele>
        <time>2022-06-19T11:31:07.507Z</time>
      </trkpt>
      <trkpt lat="43.08398167" lon="-7.15417833">
        <ele>897.0</ele>
        <time>2022-06-19T11:31:08.522Z</time>
      </trkpt>
      <trkpt lat="43.08395833" lon="-7.15435167">
        <ele>896.0</ele>
        <time>2022-06-19T11:31:09.524Z</time>
      </trkpt>
      <trkpt lat="43.08395833" lon="-7.15435167">
        <ele>896.0</ele>
        <time>2022-06-19T11:31:10.509Z</time>
      </trkpt>
      <trkpt lat="43.08397" lon="-7.15444833">
        <ele>894.0</ele>
        <time>2022-06-19T11:31:11.507Z</time>
      </trkpt>
      <trkpt lat="43.08397" lon="-7.15444833">
        <ele>894.0</ele>
        <time>2022-06-19T11:31:12.523Z</time>
      </trkpt>
      <trkpt lat="43.08398667" lon="-7.15451833">
        <ele>892.0</ele>
        <time>2022-06-19T11:31:13.518Z</time>
      </trkpt>
      <trkpt lat="43.08399833" lon="-7.15456833">
        <ele>892.0</ele>
        <time>2022-06-19T11:31:14.527Z</time>
      </trkpt>
      <trkpt lat="43.08399833" lon="-7.15456833">
        <ele>892.0</ele>
        <time>2022-06-19T11:31:15.508Z</time>
      </trkpt>
      <trkpt lat="43.084025" lon="-7.1547">
        <ele>890.0</ele>
        <time>2022-06-19T11:31:16.537Z</time>
      </trkpt>
      <trkpt lat="43.084025" lon="-7.1547">
        <ele>890.0</ele>
        <time>2022-06-19T11:31:17.527Z</time>
      </trkpt>
      <trkpt lat="43.08405333" lon="-7.15486667">
        <ele>889.0</ele>
        <time>2022-06-19T11:31:18.507Z</time>
      </trkpt>
      <trkpt lat="43.08407" lon="-7.15496167">
        <ele>888.0</ele>
        <time>2022-06-19T11:31:19.513Z</time>
      </trkpt>
      <trkpt lat="43.08408167" lon="-7.15506667">
        <ele>887.0</ele>
        <time>2022-06-19T11:31:20.557Z</time>
      </trkpt>
      <trkpt lat="43.08408167" lon="-7.15506667">
        <ele>887.0</ele>
        <time>2022-06-19T11:31:21.535Z</time>
      </trkpt>
      <trkpt lat="43.08410333" lon="-7.15530167">
        <ele>885.0</ele>
        <time>2022-06-19T11:31:22.521Z</time>
      </trkpt>
      <trkpt lat="43.08410667" lon="-7.15542667">
        <ele>884.0</ele>
        <time>2022-06-19T11:31:23.540Z</time>
      </trkpt>
      <trkpt lat="43.08410667" lon="-7.15542667">
        <ele>884.0</ele>
        <time>2022-06-19T11:31:24.515Z</time>
      </trkpt>
      <trkpt lat="43.0841" lon="-7.15566833">
        <ele>882.0</ele>
        <time>2022-06-19T11:31:25.543Z</time>
      </trkpt>
      <trkpt lat="43.0841" lon="-7.15566833">
        <ele>882.0</ele>
        <time>2022-06-19T11:31:26.515Z</time>
      </trkpt>
      <trkpt lat="43.08407" lon="-7.15590167">
        <ele>880.0</ele>
        <time>2022-06-19T11:31:27.543Z</time>
      </trkpt>
      <trkpt lat="43.08407" lon="-7.15590167">
        <ele>880.0</ele>
        <time>2022-06-19T11:31:28.518Z</time>
      </trkpt>
      <trkpt lat="43.084015" lon="-7.156135">
        <ele>879.0</ele>
        <time>2022-06-19T11:31:29.508Z</time>
      </trkpt>
      <trkpt lat="43.084015" lon="-7.156135">
        <ele>879.0</ele>
        <time>2022-06-19T11:31:30.510Z</time>
      </trkpt>
      <trkpt lat="43.08393333" lon="-7.156365">
        <ele>877.0</ele>
        <time>2022-06-19T11:31:31.549Z</time>
      </trkpt>
      <trkpt lat="43.08393333" lon="-7.156365">
        <ele>877.0</ele>
        <time>2022-06-19T11:31:32.512Z</time>
      </trkpt>
      <trkpt lat="43.083865" lon="-7.156535">
        <ele>875.0</ele>
        <time>2022-06-19T11:31:33.512Z</time>
      </trkpt>
      <trkpt lat="43.08384333" lon="-7.15659">
        <ele>874.0</ele>
        <time>2022-06-19T11:31:34.539Z</time>
      </trkpt>
      <trkpt lat="43.08384333" lon="-7.15659">
        <ele>874.0</ele>
        <time>2022-06-19T11:31:35.521Z</time>
      </trkpt>
      <trkpt lat="43.08381667" lon="-7.15664667">
        <ele>873.0</ele>
        <time>2022-06-19T11:31:36.539Z</time>
      </trkpt>
      <trkpt lat="43.083805" lon="-7.15667667">
        <ele>872.0</ele>
        <time>2022-06-19T11:31:37.515Z</time>
      </trkpt>
      <trkpt lat="43.083805" lon="-7.15667667">
        <ele>872.0</ele>
        <time>2022-06-19T11:31:38.512Z</time>
      </trkpt>
      <trkpt lat="43.08377333" lon="-7.15675833">
        <ele>871.0</ele>
        <time>2022-06-19T11:31:39.534Z</time>
      </trkpt>
      <trkpt lat="43.08375167" lon="-7.15681">
        <ele>870.0</ele>
        <time>2022-06-19T11:31:40.531Z</time>
      </trkpt>
      <trkpt lat="43.083725" lon="-7.15686833">
        <ele>870.0</ele>
        <time>2022-06-19T11:31:41.520Z</time>
      </trkpt>
      <trkpt lat="43.083725" lon="-7.15686833">
        <ele>870.0</ele>
        <time>2022-06-19T11:31:42.534Z</time>
      </trkpt>
      <trkpt lat="43.08365" lon="-7.156995">
        <ele>869.0</ele>
        <time>2022-06-19T11:31:43.514Z</time>
      </trkpt>
      <trkpt lat="43.08365" lon="-7.156995">
        <ele>869.0</ele>
        <time>2022-06-19T11:31:44.511Z</time>
      </trkpt>
      <trkpt lat="43.08356167" lon="-7.15715333">
        <ele>868.0</ele>
        <time>2022-06-19T11:31:45.533Z</time>
      </trkpt>
      <trkpt lat="43.08356167" lon="-7.15715333">
        <ele>868.0</ele>
        <time>2022-06-19T11:31:46.527Z</time>
      </trkpt>
      <trkpt lat="43.08345333" lon="-7.15732833">
        <ele>867.0</ele>
        <time>2022-06-19T11:31:47.507Z</time>
      </trkpt>
      <trkpt lat="43.08345333" lon="-7.15732833">
        <ele>867.0</ele>
        <time>2022-06-19T11:31:48.510Z</time>
      </trkpt>
      <trkpt lat="43.08333333" lon="-7.157515">
        <ele>866.0</ele>
        <time>2022-06-19T11:31:49.522Z</time>
      </trkpt>
      <trkpt lat="43.08333333" lon="-7.157515">
        <ele>866.0</ele>
        <time>2022-06-19T11:31:50.510Z</time>
      </trkpt>
      <trkpt lat="43.0832" lon="-7.15770333">
        <ele>864.0</ele>
        <time>2022-06-19T11:31:51.536Z</time>
      </trkpt>
      <trkpt lat="43.0832" lon="-7.15770333">
        <ele>864.0</ele>
        <time>2022-06-19T11:31:52.527Z</time>
      </trkpt>
      <trkpt lat="43.083075" lon="-7.157905">
        <ele>863.0</ele>
        <time>2022-06-19T11:31:53.524Z</time>
      </trkpt>
      <trkpt lat="43.083075" lon="-7.157905">
        <ele>863.0</ele>
        <time>2022-06-19T11:31:54.537Z</time>
      </trkpt>
      <trkpt lat="43.08299833" lon="-7.15812833">
        <ele>862.0</ele>
        <time>2022-06-19T11:31:55.529Z</time>
      </trkpt>
      <trkpt lat="43.08299833" lon="-7.15812833">
        <ele>862.0</ele>
        <time>2022-06-19T11:31:56.515Z</time>
      </trkpt>
      <trkpt lat="43.08295833" lon="-7.15830667">
        <ele>860.0</ele>
        <time>2022-06-19T11:31:57.519Z</time>
      </trkpt>
      <trkpt lat="43.08295833" lon="-7.15830667">
        <ele>860.0</ele>
        <time>2022-06-19T11:31:58.535Z</time>
      </trkpt>
      <trkpt lat="43.08293667" lon="-7.15840167">
        <ele>859.0</ele>
        <time>2022-06-19T11:31:59.527Z</time>
      </trkpt>
      <trkpt lat="43.08293667" lon="-7.15840167">
        <ele>859.0</ele>
        <time>2022-06-19T11:32:00.541Z</time>
      </trkpt>
      <trkpt lat="43.08292333" lon="-7.15846833">
        <ele>858.0</ele>
        <time>2022-06-19T11:32:01.535Z</time>
      </trkpt>
      <trkpt lat="43.08292333" lon="-7.15846833">
        <ele>858.0</ele>
        <time>2022-06-19T11:32:02.514Z</time>
      </trkpt>
      <trkpt lat="43.08290833" lon="-7.15856667">
        <ele>858.0</ele>
        <time>2022-06-19T11:32:03.535Z</time>
      </trkpt>
      <trkpt lat="43.08290833" lon="-7.15856667">
        <ele>858.0</ele>
        <time>2022-06-19T11:32:04.511Z</time>
      </trkpt>
      <trkpt lat="43.08289" lon="-7.158685">
        <ele>857.0</ele>
        <time>2022-06-19T11:32:05.528Z</time>
      </trkpt>
      <trkpt lat="43.08289" lon="-7.158685">
        <ele>857.0</ele>
        <time>2022-06-19T11:32:06.520Z</time>
      </trkpt>
      <trkpt lat="43.082865" lon="-7.15885167">
        <ele>856.0</ele>
        <time>2022-06-19T11:32:07.509Z</time>
      </trkpt>
      <trkpt lat="43.08285" lon="-7.15894">
        <ele>856.0</ele>
        <time>2022-06-19T11:32:08.520Z</time>
      </trkpt>
      <trkpt lat="43.08285" lon="-7.15894">
        <ele>856.0</ele>
        <time>2022-06-19T11:32:09.537Z</time>
      </trkpt>
      <trkpt lat="43.082825" lon="-7.159125">
        <ele>855.0</ele>
        <time>2022-06-19T11:32:10.543Z</time>
      </trkpt>
      <trkpt lat="43.08282" lon="-7.15922">
        <ele>854.0</ele>
        <time>2022-06-19T11:32:11.517Z</time>
      </trkpt>
      <trkpt lat="43.08282333" lon="-7.159315">
        <ele>854.0</ele>
        <time>2022-06-19T11:32:12.543Z</time>
      </trkpt>
      <trkpt lat="43.08282333" lon="-7.159315">
        <ele>854.0</ele>
        <time>2022-06-19T11:32:13.526Z</time>
      </trkpt>
      <trkpt lat="43.08285833" lon="-7.15950833">
        <ele>853.0</ele>
        <time>2022-06-19T11:32:14.506Z</time>
      </trkpt>
      <trkpt lat="43.08285833" lon="-7.15950833">
        <ele>853.0</ele>
        <time>2022-06-19T11:32:15.525Z</time>
      </trkpt>
      <trkpt lat="43.082905" lon="-7.15969167">
        <ele>853.0</ele>
        <time>2022-06-19T11:32:16.545Z</time>
      </trkpt>
      <trkpt lat="43.082905" lon="-7.15969167">
        <ele>853.0</ele>
        <time>2022-06-19T11:32:17.516Z</time>
      </trkpt>
      <trkpt lat="43.08293833" lon="-7.159875">
        <ele>853.0</ele>
        <time>2022-06-19T11:32:18.542Z</time>
      </trkpt>
      <trkpt lat="43.082955" lon="-7.159965">
        <ele>852.0</ele>
        <time>2022-06-19T11:32:19.510Z</time>
      </trkpt>
      <trkpt lat="43.082955" lon="-7.159965">
        <ele>852.0</ele>
        <time>2022-06-19T11:32:20.526Z</time>
      </trkpt>
      <trkpt lat="43.08298833" lon="-7.160145">
        <ele>851.0</ele>
        <time>2022-06-19T11:32:21.507Z</time>
      </trkpt>
      <trkpt lat="43.08298833" lon="-7.160145">
        <ele>851.0</ele>
        <time>2022-06-19T11:32:22.519Z</time>
      </trkpt>
      <trkpt lat="43.08302833" lon="-7.16031833">
        <ele>850.0</ele>
        <time>2022-06-19T11:32:23.543Z</time>
      </trkpt>
      <trkpt lat="43.08302833" lon="-7.16031833">
        <ele>850.0</ele>
        <time>2022-06-19T11:32:24.526Z</time>
      </trkpt>
      <trkpt lat="43.08307833" lon="-7.16048833">
        <ele>850.0</ele>
        <time>2022-06-19T11:32:25.511Z</time>
      </trkpt>
      <trkpt lat="43.08307833" lon="-7.16048833">
        <ele>850.0</ele>
        <time>2022-06-19T11:32:26.520Z</time>
      </trkpt>
      <trkpt lat="43.08312" lon="-7.16067333">
        <ele>849.0</ele>
        <time>2022-06-19T11:32:27.511Z</time>
      </trkpt>
      <trkpt lat="43.08314333" lon="-7.16076833">
        <ele>848.0</ele>
        <time>2022-06-19T11:32:28.531Z</time>
      </trkpt>
      <trkpt lat="43.08314333" lon="-7.16076833">
        <ele>848.0</ele>
        <time>2022-06-19T11:32:29.542Z</time>
      </trkpt>
      <trkpt lat="43.083175" lon="-7.160905">
        <ele>847.0</ele>
        <time>2022-06-19T11:32:30.530Z</time>
      </trkpt>
      <trkpt lat="43.083175" lon="-7.160905">
        <ele>847.0</ele>
        <time>2022-06-19T11:32:31.506Z</time>
      </trkpt>
      <trkpt lat="43.08319833" lon="-7.16097167">
        <ele>846.0</ele>
        <time>2022-06-19T11:32:32.515Z</time>
      </trkpt>
      <trkpt lat="43.08321333" lon="-7.16101">
        <ele>846.0</ele>
        <time>2022-06-19T11:32:33.507Z</time>
      </trkpt>
      <trkpt lat="43.08321333" lon="-7.16101">
        <ele>846.0</ele>
        <time>2022-06-19T11:32:34.527Z</time>
      </trkpt>
      <trkpt lat="43.08326167" lon="-7.16112167">
        <ele>845.0</ele>
        <time>2022-06-19T11:32:35.513Z</time>
      </trkpt>
      <trkpt lat="43.08326167" lon="-7.16112167">
        <ele>845.0</ele>
        <time>2022-06-19T11:32:36.535Z</time>
      </trkpt>
      <trkpt lat="43.08333833" lon="-7.16127833">
        <ele>843.0</ele>
        <time>2022-06-19T11:32:37.511Z</time>
      </trkpt>
      <trkpt lat="43.08333833" lon="-7.16127833">
        <ele>843.0</ele>
        <time>2022-06-19T11:32:38.515Z</time>
      </trkpt>
      <trkpt lat="43.08341" lon="-7.16145333">
        <ele>841.0</ele>
        <time>2022-06-19T11:32:39.514Z</time>
      </trkpt>
      <trkpt lat="43.08341" lon="-7.16145333">
        <ele>841.0</ele>
        <time>2022-06-19T11:32:40.524Z</time>
      </trkpt>
      <trkpt lat="43.08348333" lon="-7.16163">
        <ele>839.0</ele>
        <time>2022-06-19T11:32:41.508Z</time>
      </trkpt>
      <trkpt lat="43.083525" lon="-7.16171333">
        <ele>838.0</ele>
        <time>2022-06-19T11:32:42.522Z</time>
      </trkpt>
      <trkpt lat="43.08357" lon="-7.16180667">
        <ele>837.0</ele>
        <time>2022-06-19T11:32:43.525Z</time>
      </trkpt>
      <trkpt lat="43.08357" lon="-7.16180667">
        <ele>837.0</ele>
        <time>2022-06-19T11:32:44.542Z</time>
      </trkpt>
      <trkpt lat="43.08367333" lon="-7.16198833">
        <ele>835.0</ele>
        <time>2022-06-19T11:32:45.532Z</time>
      </trkpt>
      <trkpt lat="43.08367333" lon="-7.16198833">
        <ele>835.0</ele>
        <time>2022-06-19T11:32:46.535Z</time>
      </trkpt>
      <trkpt lat="43.08377333" lon="-7.16211667">
        <ele>833.0</ele>
        <time>2022-06-19T11:32:47.517Z</time>
      </trkpt>
      <trkpt lat="43.08377333" lon="-7.16211667">
        <ele>833.0</ele>
        <time>2022-06-19T11:32:48.536Z</time>
      </trkpt>
      <trkpt lat="43.08384833" lon="-7.162195">
        <ele>831.0</ele>
        <time>2022-06-19T11:32:49.524Z</time>
      </trkpt>
      <trkpt lat="43.08384833" lon="-7.162195">
        <ele>831.0</ele>
        <time>2022-06-19T11:32:50.516Z</time>
      </trkpt>
      <trkpt lat="43.083885" lon="-7.16225">
        <ele>830.0</ele>
        <time>2022-06-19T11:32:51.544Z</time>
      </trkpt>
      <trkpt lat="43.0839" lon="-7.162285">
        <ele>829.0</ele>
        <time>2022-06-19T11:32:52.541Z</time>
      </trkpt>
      <trkpt lat="43.0839" lon="-7.162285">
        <ele>829.0</ele>
        <time>2022-06-19T11:32:53.521Z</time>
      </trkpt>
      <trkpt lat="43.08394167" lon="-7.16240667">
        <ele>827.0</ele>
        <time>2022-06-19T11:32:54.544Z</time>
      </trkpt>
      <trkpt lat="43.08394167" lon="-7.16240667">
        <ele>827.0</ele>
        <time>2022-06-19T11:32:55.535Z</time>
      </trkpt>
      <trkpt lat="43.08396333" lon="-7.16256167">
        <ele>826.0</ele>
        <time>2022-06-19T11:32:56.514Z</time>
      </trkpt>
      <trkpt lat="43.08396333" lon="-7.16256167">
        <ele>826.0</ele>
        <time>2022-06-19T11:32:57.529Z</time>
      </trkpt>
      <trkpt lat="43.08395833" lon="-7.16270333">
        <ele>824.0</ele>
        <time>2022-06-19T11:32:58.516Z</time>
      </trkpt>
      <trkpt lat="43.083945" lon="-7.16278167">
        <ele>823.0</ele>
        <time>2022-06-19T11:32:59.544Z</time>
      </trkpt>
      <trkpt lat="43.08393167" lon="-7.16286333">
        <ele>822.0</ele>
        <time>2022-06-19T11:33:00.529Z</time>
      </trkpt>
      <trkpt lat="43.08390333" lon="-7.162955">
        <ele>821.0</ele>
        <time>2022-06-19T11:33:01.524Z</time>
      </trkpt>
      <trkpt lat="43.08390333" lon="-7.162955">
        <ele>821.0</ele>
        <time>2022-06-19T11:33:02.537Z</time>
      </trkpt>
      <trkpt lat="43.08383833" lon="-7.16312833">
        <ele>819.0</ele>
        <time>2022-06-19T11:33:03.517Z</time>
      </trkpt>
      <trkpt lat="43.08383833" lon="-7.16312833">
        <ele>819.0</ele>
        <time>2022-06-19T11:33:04.512Z</time>
      </trkpt>
      <trkpt lat="43.08375167" lon="-7.16330333">
        <ele>816.0</ele>
        <time>2022-06-19T11:33:05.506Z</time>
      </trkpt>
      <trkpt lat="43.08375167" lon="-7.16330333">
        <ele>816.0</ele>
        <time>2022-06-19T11:33:06.518Z</time>
      </trkpt>
      <trkpt lat="43.08367833" lon="-7.16344333">
        <ele>814.0</ele>
        <time>2022-06-19T11:33:07.606Z</time>
      </trkpt>
      <trkpt lat="43.08367833" lon="-7.16344333">
        <ele>814.0</ele>
        <time>2022-06-19T11:33:08.526Z</time>
      </trkpt>
      <trkpt lat="43.083635" lon="-7.163525">
        <ele>812.0</ele>
        <time>2022-06-19T11:33:09.511Z</time>
      </trkpt>
      <trkpt lat="43.083635" lon="-7.163525">
        <ele>812.0</ele>
        <time>2022-06-19T11:33:10.523Z</time>
      </trkpt>
      <trkpt lat="43.08360333" lon="-7.16360167">
        <ele>810.0</ele>
        <time>2022-06-19T11:33:11.548Z</time>
      </trkpt>
      <trkpt lat="43.08357667" lon="-7.16366833">
        <ele>809.0</ele>
        <time>2022-06-19T11:33:12.536Z</time>
      </trkpt>
      <trkpt lat="43.08357667" lon="-7.16366833">
        <ele>809.0</ele>
        <time>2022-06-19T11:33:13.528Z</time>
      </trkpt>
      <trkpt lat="43.08351667" lon="-7.16382333">
        <ele>807.0</ele>
        <time>2022-06-19T11:33:14.521Z</time>
      </trkpt>
      <trkpt lat="43.08351667" lon="-7.16382333">
        <ele>807.0</ele>
        <time>2022-06-19T11:33:15.510Z</time>
      </trkpt>
      <trkpt lat="43.08343833" lon="-7.16401333">
        <ele>804.0</ele>
        <time>2022-06-19T11:33:16.522Z</time>
      </trkpt>
      <trkpt lat="43.08338333" lon="-7.16411833">
        <ele>803.0</ele>
        <time>2022-06-19T11:33:17.528Z</time>
      </trkpt>
      <trkpt lat="43.08338333" lon="-7.16411833">
        <ele>803.0</ele>
        <time>2022-06-19T11:33:18.540Z</time>
      </trkpt>
      <trkpt lat="43.08326333" lon="-7.164345">
        <ele>801.0</ele>
        <time>2022-06-19T11:33:19.521Z</time>
      </trkpt>
      <trkpt lat="43.08326333" lon="-7.164345">
        <ele>801.0</ele>
        <time>2022-06-19T11:33:20.528Z</time>
      </trkpt>
      <trkpt lat="43.08316" lon="-7.16454333">
        <ele>799.0</ele>
        <time>2022-06-19T11:33:21.521Z</time>
      </trkpt>
      <trkpt lat="43.08316" lon="-7.16454333">
        <ele>799.0</ele>
        <time>2022-06-19T11:33:22.531Z</time>
      </trkpt>
      <trkpt lat="43.08312333" lon="-7.16467167">
        <ele>796.0</ele>
        <time>2022-06-19T11:33:23.517Z</time>
      </trkpt>
      <trkpt lat="43.08312333" lon="-7.16467167">
        <ele>796.0</ele>
        <time>2022-06-19T11:33:24.536Z</time>
      </trkpt>
      <trkpt lat="43.08311167" lon="-7.16476833">
        <ele>794.0</ele>
        <time>2022-06-19T11:33:25.525Z</time>
      </trkpt>
      <trkpt lat="43.08311167" lon="-7.16476833">
        <ele>794.0</ele>
        <time>2022-06-19T11:33:26.510Z</time>
      </trkpt>
      <trkpt lat="43.083075" lon="-7.16491167">
        <ele>793.0</ele>
        <time>2022-06-19T11:33:27.518Z</time>
      </trkpt>
      <trkpt lat="43.083075" lon="-7.16491167">
        <ele>793.0</ele>
        <time>2022-06-19T11:33:28.537Z</time>
      </trkpt>
      <trkpt lat="43.08300833" lon="-7.16509833">
        <ele>790.0</ele>
        <time>2022-06-19T11:33:29.531Z</time>
      </trkpt>
      <trkpt lat="43.082965" lon="-7.16520333">
        <ele>789.0</ele>
        <time>2022-06-19T11:33:30.514Z</time>
      </trkpt>
      <trkpt lat="43.082965" lon="-7.16520333">
        <ele>789.0</ele>
        <time>2022-06-19T11:33:31.519Z</time>
      </trkpt>
      <trkpt lat="43.08290333" lon="-7.16542833">
        <ele>787.0</ele>
        <time>2022-06-19T11:33:32.506Z</time>
      </trkpt>
      <trkpt lat="43.08286833" lon="-7.16554">
        <ele>786.0</ele>
        <time>2022-06-19T11:33:33.515Z</time>
      </trkpt>
      <trkpt lat="43.08286833" lon="-7.16554">
        <ele>786.0</ele>
        <time>2022-06-19T11:33:34.542Z</time>
      </trkpt>
      <trkpt lat="43.08279667" lon="-7.16576333">
        <ele>784.0</ele>
        <time>2022-06-19T11:33:35.534Z</time>
      </trkpt>
      <trkpt lat="43.08279667" lon="-7.16576333">
        <ele>784.0</ele>
        <time>2022-06-19T11:33:36.509Z</time>
      </trkpt>
      <trkpt lat="43.08273333" lon="-7.16600333">
        <ele>781.0</ele>
        <time>2022-06-19T11:33:37.538Z</time>
      </trkpt>
      <trkpt lat="43.08273333" lon="-7.16600333">
        <ele>781.0</ele>
        <time>2022-06-19T11:33:38.545Z</time>
      </trkpt>
      <trkpt lat="43.08268" lon="-7.166215">
        <ele>779.0</ele>
        <time>2022-06-19T11:33:39.515Z</time>
      </trkpt>
      <trkpt lat="43.08265667" lon="-7.16630167">
        <ele>778.0</ele>
        <time>2022-06-19T11:33:40.543Z</time>
      </trkpt>
      <trkpt lat="43.08265667" lon="-7.16630167">
        <ele>778.0</ele>
        <time>2022-06-19T11:33:41.517Z</time>
      </trkpt>
      <trkpt lat="43.08262" lon="-7.16640833">
        <ele>776.0</ele>
        <time>2022-06-19T11:33:42.512Z</time>
      </trkpt>
      <trkpt lat="43.08260833" lon="-7.166445">
        <ele>774.0</ele>
        <time>2022-06-19T11:33:43.546Z</time>
      </trkpt>
      <trkpt lat="43.08260833" lon="-7.166445">
        <ele>774.0</ele>
        <time>2022-06-19T11:33:44.536Z</time>
      </trkpt>
      <trkpt lat="43.08256" lon="-7.166575">
        <ele>772.0</ele>
        <time>2022-06-19T11:33:45.517Z</time>
      </trkpt>
      <trkpt lat="43.08256" lon="-7.166575">
        <ele>772.0</ele>
        <time>2022-06-19T11:33:46.524Z</time>
      </trkpt>
      <trkpt lat="43.08254667" lon="-7.16679667">
        <ele>771.0</ele>
        <time>2022-06-19T11:33:47.508Z</time>
      </trkpt>
      <trkpt lat="43.08254667" lon="-7.16679667">
        <ele>771.0</ele>
        <time>2022-06-19T11:33:48.530Z</time>
      </trkpt>
      <trkpt lat="43.08251833" lon="-7.16701667">
        <ele>769.0</ele>
        <time>2022-06-19T11:33:49.512Z</time>
      </trkpt>
      <trkpt lat="43.08251833" lon="-7.16701667">
        <ele>769.0</ele>
        <time>2022-06-19T11:33:50.508Z</time>
      </trkpt>
      <trkpt lat="43.08246833" lon="-7.16725333">
        <ele>767.0</ele>
        <time>2022-06-19T11:33:51.515Z</time>
      </trkpt>
      <trkpt lat="43.08246833" lon="-7.16725333">
        <ele>767.0</ele>
        <time>2022-06-19T11:33:52.527Z</time>
      </trkpt>
      <trkpt lat="43.08245333" lon="-7.167485">
        <ele>764.0</ele>
        <time>2022-06-19T11:33:53.537Z</time>
      </trkpt>
      <trkpt lat="43.08245667" lon="-7.16761667">
        <ele>763.0</ele>
        <time>2022-06-19T11:33:54.513Z</time>
      </trkpt>
      <trkpt lat="43.08245667" lon="-7.16761667">
        <ele>763.0</ele>
        <time>2022-06-19T11:33:55.520Z</time>
      </trkpt>
      <trkpt lat="43.08245" lon="-7.16787333">
        <ele>761.0</ele>
        <time>2022-06-19T11:33:56.521Z</time>
      </trkpt>
      <trkpt lat="43.08245" lon="-7.16787333">
        <ele>761.0</ele>
        <time>2022-06-19T11:33:57.526Z</time>
      </trkpt>
      <trkpt lat="43.08242333" lon="-7.16811167">
        <ele>759.0</ele>
        <time>2022-06-19T11:33:58.515Z</time>
      </trkpt>
      <trkpt lat="43.08242333" lon="-7.16811167">
        <ele>759.0</ele>
        <time>2022-06-19T11:33:59.537Z</time>
      </trkpt>
      <trkpt lat="43.08242333" lon="-7.16834333">
        <ele>757.0</ele>
        <time>2022-06-19T11:34:00.537Z</time>
      </trkpt>
      <trkpt lat="43.08242333" lon="-7.16834333">
        <ele>757.0</ele>
        <time>2022-06-19T11:34:01.539Z</time>
      </trkpt>
      <trkpt lat="43.082415" lon="-7.16853833">
        <ele>755.0</ele>
        <time>2022-06-19T11:34:02.542Z</time>
      </trkpt>
      <trkpt lat="43.08241" lon="-7.168605">
        <ele>754.0</ele>
        <time>2022-06-19T11:34:03.544Z</time>
      </trkpt>
      <trkpt lat="43.08241" lon="-7.168605">
        <ele>754.0</ele>
        <time>2022-06-19T11:34:04.513Z</time>
      </trkpt>
      <trkpt lat="43.08239333" lon="-7.168675">
        <ele>752.0</ele>
        <time>2022-06-19T11:34:05.512Z</time>
      </trkpt>
      <trkpt lat="43.08239333" lon="-7.168675">
        <ele>752.0</ele>
        <time>2022-06-19T11:34:06.517Z</time>
      </trkpt>
      <trkpt lat="43.08236167" lon="-7.16875333">
        <ele>750.0</ele>
        <time>2022-06-19T11:34:07.544Z</time>
      </trkpt>
      <trkpt lat="43.08236167" lon="-7.16875333">
        <ele>750.0</ele>
        <time>2022-06-19T11:34:08.512Z</time>
      </trkpt>
      <trkpt lat="43.0823" lon="-7.16889">
        <ele>748.0</ele>
        <time>2022-06-19T11:34:09.514Z</time>
      </trkpt>
      <trkpt lat="43.0823" lon="-7.16889">
        <ele>748.0</ele>
        <time>2022-06-19T11:34:10.522Z</time>
      </trkpt>
      <trkpt lat="43.08221167" lon="-7.169065">
        <ele>746.0</ele>
        <time>2022-06-19T11:34:11.517Z</time>
      </trkpt>
      <trkpt lat="43.08221167" lon="-7.169065">
        <ele>746.0</ele>
        <time>2022-06-19T11:34:12.526Z</time>
      </trkpt>
      <trkpt lat="43.08211667" lon="-7.169255">
        <ele>744.0</ele>
        <time>2022-06-19T11:34:13.516Z</time>
      </trkpt>
      <trkpt lat="43.08211667" lon="-7.169255">
        <ele>744.0</ele>
        <time>2022-06-19T11:34:14.519Z</time>
      </trkpt>
      <trkpt lat="43.08204667" lon="-7.16939333">
        <ele>743.0</ele>
        <time>2022-06-19T11:34:15.538Z</time>
      </trkpt>
      <trkpt lat="43.08204667" lon="-7.16939333">
        <ele>743.0</ele>
        <time>2022-06-19T11:34:16.512Z</time>
      </trkpt>
      <trkpt lat="43.08201" lon="-7.16945">
        <ele>741.0</ele>
        <time>2022-06-19T11:34:17.514Z</time>
      </trkpt>
      <trkpt lat="43.081985" lon="-7.16948">
        <ele>740.0</ele>
        <time>2022-06-19T11:34:18.514Z</time>
      </trkpt>
      <trkpt lat="43.08195167" lon="-7.16952667">
        <ele>740.0</ele>
        <time>2022-06-19T11:34:19.545Z</time>
      </trkpt>
      <trkpt lat="43.08195167" lon="-7.16952667">
        <ele>740.0</ele>
        <time>2022-06-19T11:34:20.539Z</time>
      </trkpt>
      <trkpt lat="43.081875" lon="-7.16965">
        <ele>738.0</ele>
        <time>2022-06-19T11:34:21.509Z</time>
      </trkpt>
      <trkpt lat="43.08183667" lon="-7.16971333">
        <ele>738.0</ele>
        <time>2022-06-19T11:34:22.545Z</time>
      </trkpt>
      <trkpt lat="43.08183667" lon="-7.16971333">
        <ele>738.0</ele>
        <time>2022-06-19T11:34:23.514Z</time>
      </trkpt>
      <trkpt lat="43.08174833" lon="-7.16983833">
        <ele>736.0</ele>
        <time>2022-06-19T11:34:24.545Z</time>
      </trkpt>
      <trkpt lat="43.08169833" lon="-7.16988833">
        <ele>735.0</ele>
        <time>2022-06-19T11:34:25.526Z</time>
      </trkpt>
      <trkpt lat="43.08169833" lon="-7.16988833">
        <ele>735.0</ele>
        <time>2022-06-19T11:34:26.541Z</time>
      </trkpt>
      <trkpt lat="43.08158333" lon="-7.16997167">
        <ele>734.0</ele>
        <time>2022-06-19T11:34:27.526Z</time>
      </trkpt>
      <trkpt lat="43.08158333" lon="-7.16997167">
        <ele>734.0</ele>
        <time>2022-06-19T11:34:28.516Z</time>
      </trkpt>
      <trkpt lat="43.08146333" lon="-7.17006833">
        <ele>732.0</ele>
        <time>2022-06-19T11:34:29.543Z</time>
      </trkpt>
      <trkpt lat="43.08146333" lon="-7.17006833">
        <ele>732.0</ele>
        <time>2022-06-19T11:34:30.523Z</time>
      </trkpt>
      <trkpt lat="43.08132833" lon="-7.170185">
        <ele>730.0</ele>
        <time>2022-06-19T11:34:31.539Z</time>
      </trkpt>
      <trkpt lat="43.08132833" lon="-7.170185">
        <ele>730.0</ele>
        <time>2022-06-19T11:34:32.527Z</time>
      </trkpt>
      <trkpt lat="43.08119" lon="-7.17032">
        <ele>728.0</ele>
        <time>2022-06-19T11:34:33.527Z</time>
      </trkpt>
      <trkpt lat="43.08119" lon="-7.17032">
        <ele>728.0</ele>
        <time>2022-06-19T11:34:34.519Z</time>
      </trkpt>
      <trkpt lat="43.08105" lon="-7.17047333">
        <ele>725.0</ele>
        <time>2022-06-19T11:34:35.539Z</time>
      </trkpt>
      <trkpt lat="43.08105" lon="-7.17047333">
        <ele>725.0</ele>
        <time>2022-06-19T11:34:36.540Z</time>
      </trkpt>
      <trkpt lat="43.08092" lon="-7.17061">
        <ele>723.0</ele>
        <time>2022-06-19T11:34:37.526Z</time>
      </trkpt>
      <trkpt lat="43.08092" lon="-7.17061">
        <ele>723.0</ele>
        <time>2022-06-19T11:34:38.526Z</time>
      </trkpt>
      <trkpt lat="43.08085" lon="-7.17067333">
        <ele>721.0</ele>
        <time>2022-06-19T11:34:39.535Z</time>
      </trkpt>
      <trkpt lat="43.08082167" lon="-7.17069667">
        <ele>720.0</ele>
        <time>2022-06-19T11:34:40.524Z</time>
      </trkpt>
      <trkpt lat="43.08082167" lon="-7.17069667">
        <ele>720.0</ele>
        <time>2022-06-19T11:34:41.543Z</time>
      </trkpt>
      <trkpt lat="43.080765" lon="-7.17074">
        <ele>719.0</ele>
        <time>2022-06-19T11:34:42.536Z</time>
      </trkpt>
      <trkpt lat="43.08072667" lon="-7.170775">
        <ele>718.0</ele>
        <time>2022-06-19T11:34:43.539Z</time>
      </trkpt>
      <trkpt lat="43.08072667" lon="-7.170775">
        <ele>718.0</ele>
        <time>2022-06-19T11:34:44.533Z</time>
      </trkpt>
      <trkpt lat="43.08063833" lon="-7.17085833">
        <ele>716.0</ele>
        <time>2022-06-19T11:34:45.524Z</time>
      </trkpt>
      <trkpt lat="43.08063833" lon="-7.17085833">
        <ele>716.0</ele>
        <time>2022-06-19T11:34:46.508Z</time>
      </trkpt>
      <trkpt lat="43.08052667" lon="-7.17097333">
        <ele>714.0</ele>
        <time>2022-06-19T11:34:47.528Z</time>
      </trkpt>
      <trkpt lat="43.08052667" lon="-7.17097333">
        <ele>714.0</ele>
        <time>2022-06-19T11:34:48.511Z</time>
      </trkpt>
      <trkpt lat="43.080465" lon="-7.17103333">
        <ele>712.0</ele>
        <time>2022-06-19T11:34:49.524Z</time>
      </trkpt>
      <trkpt lat="43.080465" lon="-7.17103333">
        <ele>712.0</ele>
        <time>2022-06-19T11:34:50.513Z</time>
      </trkpt>
      <trkpt lat="43.08040833" lon="-7.17109167">
        <ele>711.0</ele>
        <time>2022-06-19T11:34:51.532Z</time>
      </trkpt>
      <trkpt lat="43.08040833" lon="-7.17109167">
        <ele>711.0</ele>
        <time>2022-06-19T11:34:52.516Z</time>
      </trkpt>
      <trkpt lat="43.080345" lon="-7.17116">
        <ele>709.0</ele>
        <time>2022-06-19T11:34:53.573Z</time>
      </trkpt>
      <trkpt lat="43.080345" lon="-7.17116">
        <ele>709.0</ele>
        <time>2022-06-19T11:34:54.509Z</time>
      </trkpt>
      <trkpt lat="43.08029333" lon="-7.17123167">
        <ele>708.0</ele>
        <time>2022-06-19T11:34:55.544Z</time>
      </trkpt>
      <trkpt lat="43.08029333" lon="-7.17123167">
        <ele>708.0</ele>
        <time>2022-06-19T11:34:56.525Z</time>
      </trkpt>
      <trkpt lat="43.080195" lon="-7.17130167">
        <ele>707.0</ele>
        <time>2022-06-19T11:34:57.507Z</time>
      </trkpt>
      <trkpt lat="43.080195" lon="-7.17130167">
        <ele>707.0</ele>
        <time>2022-06-19T11:34:58.532Z</time>
      </trkpt>
      <trkpt lat="43.08008667" lon="-7.17137667">
        <ele>706.0</ele>
        <time>2022-06-19T11:34:59.514Z</time>
      </trkpt>
      <trkpt lat="43.08002833" lon="-7.171425">
        <ele>706.0</ele>
        <time>2022-06-19T11:35:00.535Z</time>
      </trkpt>
      <trkpt lat="43.08002833" lon="-7.171425">
        <ele>706.0</ele>
        <time>2022-06-19T11:35:01.516Z</time>
      </trkpt>
      <trkpt lat="43.07992833" lon="-7.17149833">
        <ele>706.0</ele>
        <time>2022-06-19T11:35:02.538Z</time>
      </trkpt>
      <trkpt lat="43.07992833" lon="-7.17149833">
        <ele>706.0</ele>
        <time>2022-06-19T11:35:03.513Z</time>
      </trkpt>
      <trkpt lat="43.07987" lon="-7.17154">
        <ele>706.0</ele>
        <time>2022-06-19T11:35:04.534Z</time>
      </trkpt>
      <trkpt lat="43.07987" lon="-7.17154">
        <ele>706.0</ele>
        <time>2022-06-19T11:35:05.543Z</time>
      </trkpt>
      <trkpt lat="43.07983333" lon="-7.17156167">
        <ele>705.0</ele>
        <time>2022-06-19T11:35:06.534Z</time>
      </trkpt>
      <trkpt lat="43.07983333" lon="-7.17156167">
        <ele>705.0</ele>
        <time>2022-06-19T11:35:07.519Z</time>
      </trkpt>
      <trkpt lat="43.07977833" lon="-7.17159667">
        <ele>705.0</ele>
        <time>2022-06-19T11:35:08.538Z</time>
      </trkpt>
      <trkpt lat="43.07977833" lon="-7.17159667">
        <ele>705.0</ele>
        <time>2022-06-19T11:35:09.536Z</time>
      </trkpt>
      <trkpt lat="43.07973667" lon="-7.17161667">
        <ele>705.0</ele>
        <time>2022-06-19T11:35:10.511Z</time>
      </trkpt>
      <trkpt lat="43.07973667" lon="-7.17161667">
        <ele>705.0</ele>
        <time>2022-06-19T11:35:11.518Z</time>
      </trkpt>
      <trkpt lat="43.079715" lon="-7.17162167">
        <ele>704.0</ele>
        <time>2022-06-19T11:35:12.509Z</time>
      </trkpt>
      <trkpt lat="43.07970667" lon="-7.171625">
        <ele>704.0</ele>
        <time>2022-06-19T11:35:13.541Z</time>
      </trkpt>
      <trkpt lat="43.07970667" lon="-7.171625">
        <ele>704.0</ele>
        <time>2022-06-19T11:35:14.530Z</time>
      </trkpt>
      <trkpt lat="43.0797" lon="-7.17162833">
        <ele>704.0</ele>
        <time>2022-06-19T11:35:23.008Z</time>
      </trkpt>
      <trkpt lat="43.07959833" lon="-7.17168833">
        <ele>702.0</ele>
        <time>2022-06-19T11:35:24.027Z</time>
      </trkpt>
      <trkpt lat="43.07959833" lon="-7.17168833">
        <ele>702.0</ele>
        <time>2022-06-19T11:35:25.006Z</time>
      </trkpt>
      <trkpt lat="43.07954667" lon="-7.17173667">
        <ele>702.0</ele>
        <time>2022-06-19T11:35:26.006Z</time>
      </trkpt>
      <trkpt lat="43.07954667" lon="-7.17173667">
        <ele>702.0</ele>
        <time>2022-06-19T11:35:27.026Z</time>
      </trkpt>
      <trkpt lat="43.07948" lon="-7.17178167">
        <ele>701.0</ele>
        <time>2022-06-19T11:35:28.034Z</time>
      </trkpt>
      <trkpt lat="43.07943667" lon="-7.17180833">
        <ele>701.0</ele>
        <time>2022-06-19T11:35:29.032Z</time>
      </trkpt>
      <trkpt lat="43.07943667" lon="-7.17180833">
        <ele>701.0</ele>
        <time>2022-06-19T11:35:29.998Z</time>
      </trkpt>
      <trkpt lat="43.07934667" lon="-7.17187333">
        <ele>701.0</ele>
        <time>2022-06-19T11:35:31.004Z</time>
      </trkpt>
      <trkpt lat="43.07929167" lon="-7.17192">
        <ele>700.0</ele>
        <time>2022-06-19T11:35:32.000Z</time>
      </trkpt>
      <trkpt lat="43.07929167" lon="-7.17192">
        <ele>700.0</ele>
        <time>2022-06-19T11:35:33.006Z</time>
      </trkpt>
      <trkpt lat="43.07916333" lon="-7.17204333">
        <ele>700.0</ele>
        <time>2022-06-19T11:35:33.997Z</time>
      </trkpt>
      <trkpt lat="43.07909833" lon="-7.17212333">
        <ele>700.0</ele>
        <time>2022-06-19T11:35:34.999Z</time>
      </trkpt>
      <trkpt lat="43.07909833" lon="-7.17212333">
        <ele>700.0</ele>
        <time>2022-06-19T11:35:36.005Z</time>
      </trkpt>
      <trkpt lat="43.07897833" lon="-7.17230333">
        <ele>699.0</ele>
        <time>2022-06-19T11:35:37.008Z</time>
      </trkpt>
      <trkpt lat="43.07891833" lon="-7.17239667">
        <ele>699.0</ele>
        <time>2022-06-19T11:35:38.005Z</time>
      </trkpt>
      <trkpt lat="43.07891833" lon="-7.17239667">
        <ele>699.0</ele>
        <time>2022-06-19T11:35:39.011Z</time>
      </trkpt>
      <trkpt lat="43.07880167" lon="-7.17257667">
        <ele>698.0</ele>
        <time>2022-06-19T11:35:40.002Z</time>
      </trkpt>
      <trkpt lat="43.07875" lon="-7.17265667">
        <ele>698.0</ele>
        <time>2022-06-19T11:35:41.032Z</time>
      </trkpt>
      <trkpt lat="43.07875" lon="-7.17265667">
        <ele>698.0</ele>
        <time>2022-06-19T11:35:41.998Z</time>
      </trkpt>
      <trkpt lat="43.07865333" lon="-7.172755">
        <ele>698.0</ele>
        <time>2022-06-19T11:35:43.027Z</time>
      </trkpt>
      <trkpt lat="43.07860167" lon="-7.172785">
        <ele>697.0</ele>
        <time>2022-06-19T11:35:44.019Z</time>
      </trkpt>
      <trkpt lat="43.07860167" lon="-7.172785">
        <ele>697.0</ele>
        <time>2022-06-19T11:35:45.026Z</time>
      </trkpt>
      <trkpt lat="43.07851" lon="-7.17287333">
        <ele>697.0</ele>
        <time>2022-06-19T11:35:46.025Z</time>
      </trkpt>
      <trkpt lat="43.07846833" lon="-7.17292833">
        <ele>697.0</ele>
        <time>2022-06-19T11:35:47.005Z</time>
      </trkpt>
      <trkpt lat="43.07842667" lon="-7.17298167">
        <ele>696.0</ele>
        <time>2022-06-19T11:35:48.000Z</time>
      </trkpt>
      <trkpt lat="43.07842667" lon="-7.17298167">
        <ele>696.0</ele>
        <time>2022-06-19T11:35:49.010Z</time>
      </trkpt>
      <trkpt lat="43.07834" lon="-7.17308833">
        <ele>696.0</ele>
        <time>2022-06-19T11:35:50.036Z</time>
      </trkpt>
      <trkpt lat="43.07829667" lon="-7.17313833">
        <ele>696.0</ele>
        <time>2022-06-19T11:35:51.007Z</time>
      </trkpt>
      <trkpt lat="43.07829667" lon="-7.17313833">
        <ele>696.0</ele>
        <time>2022-06-19T11:35:52.016Z</time>
      </trkpt>
      <trkpt lat="43.07821333" lon="-7.17324333">
        <ele>695.0</ele>
        <time>2022-06-19T11:35:53.012Z</time>
      </trkpt>
      <trkpt lat="43.07821333" lon="-7.17324333">
        <ele>695.0</ele>
        <time>2022-06-19T11:35:54.021Z</time>
      </trkpt>
      <trkpt lat="43.07812167" lon="-7.17336">
        <ele>695.0</ele>
        <time>2022-06-19T11:35:55.015Z</time>
      </trkpt>
      <trkpt lat="43.07812167" lon="-7.17336">
        <ele>695.0</ele>
        <time>2022-06-19T11:35:56.025Z</time>
      </trkpt>
      <trkpt lat="43.078025" lon="-7.17347">
        <ele>695.0</ele>
        <time>2022-06-19T11:35:57.036Z</time>
      </trkpt>
      <trkpt lat="43.078025" lon="-7.17347">
        <ele>695.0</ele>
        <time>2022-06-19T11:35:58.005Z</time>
      </trkpt>
      <trkpt lat="43.07793" lon="-7.173575">
        <ele>694.0</ele>
        <time>2022-06-19T11:35:59.036Z</time>
      </trkpt>
      <trkpt lat="43.07788333" lon="-7.17362667">
        <ele>694.0</ele>
        <time>2022-06-19T11:36:00.025Z</time>
      </trkpt>
      <trkpt lat="43.07788333" lon="-7.17362667">
        <ele>694.0</ele>
        <time>2022-06-19T11:36:01.019Z</time>
      </trkpt>
      <trkpt lat="43.07778667" lon="-7.17372833">
        <ele>694.0</ele>
        <time>2022-06-19T11:36:02.017Z</time>
      </trkpt>
      <trkpt lat="43.07778667" lon="-7.17372833">
        <ele>694.0</ele>
        <time>2022-06-19T11:36:03.029Z</time>
      </trkpt>
      <trkpt lat="43.07769333" lon="-7.17384333">
        <ele>693.0</ele>
        <time>2022-06-19T11:36:04.031Z</time>
      </trkpt>
      <trkpt lat="43.07769333" lon="-7.17384333">
        <ele>693.0</ele>
        <time>2022-06-19T11:36:05.003Z</time>
      </trkpt>
      <trkpt lat="43.077605" lon="-7.173965">
        <ele>693.0</ele>
        <time>2022-06-19T11:36:05.998Z</time>
      </trkpt>
      <trkpt lat="43.077605" lon="-7.173965">
        <ele>693.0</ele>
        <time>2022-06-19T11:36:07.011Z</time>
      </trkpt>
      <trkpt lat="43.07754" lon="-7.17411667">
        <ele>693.0</ele>
        <time>2022-06-19T11:36:08.032Z</time>
      </trkpt>
      <trkpt lat="43.07754" lon="-7.17411667">
        <ele>693.0</ele>
        <time>2022-06-19T11:36:09.007Z</time>
      </trkpt>
      <trkpt lat="43.07750667" lon="-7.17429">
        <ele>693.0</ele>
        <time>2022-06-19T11:36:10.008Z</time>
      </trkpt>
      <trkpt lat="43.07750667" lon="-7.17429">
        <ele>693.0</ele>
        <time>2022-06-19T11:36:11.022Z</time>
      </trkpt>
      <trkpt lat="43.07751833" lon="-7.174485">
        <ele>693.0</ele>
        <time>2022-06-19T11:36:11.998Z</time>
      </trkpt>
      <trkpt lat="43.07751833" lon="-7.174485">
        <ele>693.0</ele>
        <time>2022-06-19T11:36:13.004Z</time>
      </trkpt>
      <trkpt lat="43.07756167" lon="-7.17466833">
        <ele>692.0</ele>
        <time>2022-06-19T11:36:13.999Z</time>
      </trkpt>
      <trkpt lat="43.07756167" lon="-7.17466833">
        <ele>692.0</ele>
        <time>2022-06-19T11:36:15.008Z</time>
      </trkpt>
      <trkpt lat="43.07761833" lon="-7.17484833">
        <ele>692.0</ele>
        <time>2022-06-19T11:36:16.021Z</time>
      </trkpt>
      <trkpt lat="43.07761833" lon="-7.17484833">
        <ele>692.0</ele>
        <time>2022-06-19T11:36:17.029Z</time>
      </trkpt>
      <trkpt lat="43.07767333" lon="-7.17503">
        <ele>691.0</ele>
        <time>2022-06-19T11:36:18.014Z</time>
      </trkpt>
      <trkpt lat="43.07767333" lon="-7.17503">
        <ele>691.0</ele>
        <time>2022-06-19T11:36:19.021Z</time>
      </trkpt>
      <trkpt lat="43.07772667" lon="-7.17521">
        <ele>691.0</ele>
        <time>2022-06-19T11:36:20.010Z</time>
      </trkpt>
      <trkpt lat="43.077755" lon="-7.17529667">
        <ele>690.0</ele>
        <time>2022-06-19T11:36:21.010Z</time>
      </trkpt>
      <trkpt lat="43.077755" lon="-7.17529667">
        <ele>690.0</ele>
        <time>2022-06-19T11:36:22.018Z</time>
      </trkpt>
      <trkpt lat="43.07780167" lon="-7.17547">
        <ele>690.0</ele>
        <time>2022-06-19T11:36:23.027Z</time>
      </trkpt>
      <trkpt lat="43.07780167" lon="-7.17547">
        <ele>690.0</ele>
        <time>2022-06-19T11:36:24.008Z</time>
      </trkpt>
      <trkpt lat="43.07784333" lon="-7.175645">
        <ele>690.0</ele>
        <time>2022-06-19T11:36:25.000Z</time>
      </trkpt>
      <trkpt lat="43.07784333" lon="-7.175645">
        <ele>690.0</ele>
        <time>2022-06-19T11:36:26.007Z</time>
      </trkpt>
      <trkpt lat="43.07786333" lon="-7.175825">
        <ele>689.0</ele>
        <time>2022-06-19T11:36:27.033Z</time>
      </trkpt>
      <trkpt lat="43.07787" lon="-7.175915">
        <ele>689.0</ele>
        <time>2022-06-19T11:36:28.019Z</time>
      </trkpt>
      <trkpt lat="43.07787" lon="-7.175915">
        <ele>689.0</ele>
        <time>2022-06-19T11:36:29.027Z</time>
      </trkpt>
      <trkpt lat="43.07786167" lon="-7.17608667">
        <ele>689.0</ele>
        <time>2022-06-19T11:36:30.004Z</time>
      </trkpt>
      <trkpt lat="43.07786167" lon="-7.17608667">
        <ele>689.0</ele>
        <time>2022-06-19T11:36:31.011Z</time>
      </trkpt>
      <trkpt lat="43.07783667" lon="-7.17624333">
        <ele>689.0</ele>
        <time>2022-06-19T11:36:32.030Z</time>
      </trkpt>
      <trkpt lat="43.07783667" lon="-7.17624333">
        <ele>689.0</ele>
        <time>2022-06-19T11:36:32.997Z</time>
      </trkpt>
      <trkpt lat="43.07780167" lon="-7.17638167">
        <ele>689.0</ele>
        <time>2022-06-19T11:36:34.005Z</time>
      </trkpt>
      <trkpt lat="43.07780167" lon="-7.17638167">
        <ele>689.0</ele>
        <time>2022-06-19T11:36:35.013Z</time>
      </trkpt>
      <trkpt lat="43.07777667" lon="-7.17648">
        <ele>689.0</ele>
        <time>2022-06-19T11:36:36.015Z</time>
      </trkpt>
      <trkpt lat="43.07777667" lon="-7.17648">
        <ele>689.0</ele>
        <time>2022-06-19T11:36:37.023Z</time>
      </trkpt>
      <trkpt lat="43.077775" lon="-7.17654333">
        <ele>689.0</ele>
        <time>2022-06-19T11:36:38.011Z</time>
      </trkpt>
      <trkpt lat="43.077775" lon="-7.17654333">
        <ele>689.0</ele>
        <time>2022-06-19T11:36:39.019Z</time>
      </trkpt>
      <trkpt lat="43.07777833" lon="-7.17659333">
        <ele>689.0</ele>
        <time>2022-06-19T11:36:40.035Z</time>
      </trkpt>
      <trkpt lat="43.07777833" lon="-7.17659333">
        <ele>689.0</ele>
        <time>2022-06-19T11:36:41.001Z</time>
      </trkpt>
      <trkpt lat="43.07778" lon="-7.17662833">
        <ele>689.0</ele>
        <time>2022-06-19T11:36:42.030Z</time>
      </trkpt>
      <trkpt lat="43.07778" lon="-7.17662833">
        <ele>689.0</ele>
        <time>2022-06-19T11:36:43.035Z</time>
      </trkpt>
      <trkpt lat="43.07777667" lon="-7.17666">
        <ele>689.0</ele>
        <time>2022-06-19T11:36:44.025Z</time>
      </trkpt>
      <trkpt lat="43.077775" lon="-7.17667667">
        <ele>689.0</ele>
        <time>2022-06-19T11:36:45.031Z</time>
      </trkpt>
      <trkpt lat="43.07777833" lon="-7.176715">
        <ele>689.0</ele>
        <time>2022-06-19T11:36:46.014Z</time>
      </trkpt>
      <trkpt lat="43.07777833" lon="-7.176715">
        <ele>689.0</ele>
        <time>2022-06-19T11:36:47.028Z</time>
      </trkpt>
      <trkpt lat="43.07778" lon="-7.17673833">
        <ele>689.0</ele>
        <time>2022-06-19T11:36:48.036Z</time>
      </trkpt>
      <trkpt lat="43.07778" lon="-7.176755">
        <ele>690.0</ele>
        <time>2022-06-19T11:36:49.002Z</time>
      </trkpt>
      <trkpt lat="43.07778" lon="-7.176755">
        <ele>690.0</ele>
        <time>2022-06-19T11:36:50.008Z</time>
      </trkpt>
      <trkpt lat="43.07777167" lon="-7.17678333">
        <ele>690.0</ele>
        <time>2022-06-19T11:36:51.023Z</time>
      </trkpt>
      <trkpt lat="43.07777167" lon="-7.17678333">
        <ele>690.0</ele>
        <time>2022-06-19T11:36:52.030Z</time>
      </trkpt>
      <trkpt lat="43.07776833" lon="-7.176815">
        <ele>691.0</ele>
        <time>2022-06-19T11:36:53.013Z</time>
      </trkpt>
      <trkpt lat="43.07776833" lon="-7.176815">
        <ele>691.0</ele>
        <time>2022-06-19T11:36:54.019Z</time>
      </trkpt>
      <trkpt lat="43.07776833" lon="-7.17684833">
        <ele>691.0</ele>
        <time>2022-06-19T11:36:55.030Z</time>
      </trkpt>
      <trkpt lat="43.07776833" lon="-7.17686167">
        <ele>692.0</ele>
        <time>2022-06-19T11:36:56.019Z</time>
      </trkpt>
      <trkpt lat="43.07776833" lon="-7.17686167">
        <ele>692.0</ele>
        <time>2022-06-19T11:36:57.026Z</time>
      </trkpt>
      <trkpt lat="43.07776333" lon="-7.17688833">
        <ele>692.0</ele>
        <time>2022-06-19T11:36:58.035Z</time>
      </trkpt>
      <trkpt lat="43.07776333" lon="-7.17688833">
        <ele>692.0</ele>
        <time>2022-06-19T11:36:59.000Z</time>
      </trkpt>
      <trkpt lat="43.07776167" lon="-7.17691667">
        <ele>693.0</ele>
        <time>2022-06-19T11:36:59.997Z</time>
      </trkpt>
      <trkpt lat="43.07776167" lon="-7.17691667">
        <ele>693.0</ele>
        <time>2022-06-19T11:37:01.011Z</time>
      </trkpt>
      <trkpt lat="43.07775" lon="-7.17695333">
        <ele>693.0</ele>
        <time>2022-06-19T11:37:02.015Z</time>
      </trkpt>
      <trkpt lat="43.07775" lon="-7.17695333">
        <ele>693.0</ele>
        <time>2022-06-19T11:37:03.021Z</time>
      </trkpt>
      <trkpt lat="43.07774" lon="-7.17699167">
        <ele>693.0</ele>
        <time>2022-06-19T11:37:03.997Z</time>
      </trkpt>
      <trkpt lat="43.07774" lon="-7.17699167">
        <ele>693.0</ele>
        <time>2022-06-19T11:37:05.003Z</time>
      </trkpt>
      <trkpt lat="43.07773167" lon="-7.177025">
        <ele>694.0</ele>
        <time>2022-06-19T11:37:06.035Z</time>
      </trkpt>
      <trkpt lat="43.07773" lon="-7.17703833">
        <ele>694.0</ele>
        <time>2022-06-19T11:37:07.029Z</time>
      </trkpt>
      <trkpt lat="43.07773" lon="-7.17703833">
        <ele>694.0</ele>
        <time>2022-06-19T11:37:08.036Z</time>
      </trkpt>
      <trkpt lat="43.07771167" lon="-7.177085">
        <ele>695.0</ele>
        <time>2022-06-19T11:37:09.017Z</time>
      </trkpt>
      <trkpt lat="43.07771167" lon="-7.177085">
        <ele>695.0</ele>
        <time>2022-06-19T11:37:10.024Z</time>
      </trkpt>
      <trkpt lat="43.07769333" lon="-7.17712333">
        <ele>695.0</ele>
        <time>2022-06-19T11:37:11.013Z</time>
      </trkpt>
      <trkpt lat="43.07769333" lon="-7.17712333">
        <ele>695.0</ele>
        <time>2022-06-19T11:37:12.021Z</time>
      </trkpt>
      <trkpt lat="43.07768167" lon="-7.17715">
        <ele>696.0</ele>
        <time>2022-06-19T11:37:13.011Z</time>
      </trkpt>
      <trkpt lat="43.07767333" lon="-7.17717167">
        <ele>696.0</ele>
        <time>2022-06-19T11:37:14.013Z</time>
      </trkpt>
      <trkpt lat="43.07767333" lon="-7.17717167">
        <ele>696.0</ele>
        <time>2022-06-19T11:37:15.020Z</time>
      </trkpt>
      <trkpt lat="43.07765667" lon="-7.17721333">
        <ele>696.0</ele>
        <time>2022-06-19T11:37:16.031Z</time>
      </trkpt>
      <trkpt lat="43.07765667" lon="-7.17721333">
        <ele>696.0</ele>
        <time>2022-06-19T11:37:16.997Z</time>
      </trkpt>
      <trkpt lat="43.07765" lon="-7.17725333">
        <ele>697.0</ele>
        <time>2022-06-19T11:37:18.000Z</time>
      </trkpt>
      <trkpt lat="43.07765" lon="-7.17725333">
        <ele>697.0</ele>
        <time>2022-06-19T11:37:19.007Z</time>
      </trkpt>
      <trkpt lat="43.07763167" lon="-7.17730333">
        <ele>697.0</ele>
        <time>2022-06-19T11:37:20.003Z</time>
      </trkpt>
      <trkpt lat="43.07763167" lon="-7.17730333">
        <ele>697.0</ele>
        <time>2022-06-19T11:37:21.009Z</time>
      </trkpt>
      <trkpt lat="43.07761167" lon="-7.17735">
        <ele>698.0</ele>
        <time>2022-06-19T11:37:22.006Z</time>
      </trkpt>
      <trkpt lat="43.07761167" lon="-7.17735">
        <ele>698.0</ele>
        <time>2022-06-19T11:37:23.012Z</time>
      </trkpt>
      <trkpt lat="43.07759" lon="-7.17739333">
        <ele>698.0</ele>
        <time>2022-06-19T11:37:24.005Z</time>
      </trkpt>
      <trkpt lat="43.07759" lon="-7.17739333">
        <ele>698.0</ele>
        <time>2022-06-19T11:37:25.011Z</time>
      </trkpt>
      <trkpt lat="43.07758" lon="-7.17743167">
        <ele>698.0</ele>
        <time>2022-06-19T11:37:25.999Z</time>
      </trkpt>
      <trkpt lat="43.07758" lon="-7.17743167">
        <ele>698.0</ele>
        <time>2022-06-19T11:37:27.007Z</time>
      </trkpt>
      <trkpt lat="43.07757" lon="-7.17746">
        <ele>699.0</ele>
        <time>2022-06-19T11:37:28.008Z</time>
      </trkpt>
      <trkpt lat="43.077565" lon="-7.17747667">
        <ele>699.0</ele>
        <time>2022-06-19T11:37:29.014Z</time>
      </trkpt>
      <trkpt lat="43.077565" lon="-7.17747667">
        <ele>699.0</ele>
        <time>2022-06-19T11:37:30.021Z</time>
      </trkpt>
      <trkpt lat="43.07755167" lon="-7.17751333">
        <ele>700.0</ele>
        <time>2022-06-19T11:37:31.005Z</time>
      </trkpt>
      <trkpt lat="43.07754333" lon="-7.177525">
        <ele>700.0</ele>
        <time>2022-06-19T11:37:32.017Z</time>
      </trkpt>
      <trkpt lat="43.07753333" lon="-7.17754167">
        <ele>700.0</ele>
        <time>2022-06-19T11:37:33.015Z</time>
      </trkpt>
      <trkpt lat="43.07753333" lon="-7.17754167">
        <ele>700.0</ele>
        <time>2022-06-19T11:37:34.021Z</time>
      </trkpt>
      <trkpt lat="43.07751833" lon="-7.17757667">
        <ele>701.0</ele>
        <time>2022-06-19T11:37:35.013Z</time>
      </trkpt>
      <trkpt lat="43.07750833" lon="-7.17759667">
        <ele>701.0</ele>
        <time>2022-06-19T11:37:36.022Z</time>
      </trkpt>
      <trkpt lat="43.07750833" lon="-7.17759667">
        <ele>701.0</ele>
        <time>2022-06-19T11:37:37.029Z</time>
      </trkpt>
      <trkpt lat="43.07749333" lon="-7.17764">
        <ele>702.0</ele>
        <time>2022-06-19T11:37:38.023Z</time>
      </trkpt>
      <trkpt lat="43.07749333" lon="-7.17764">
        <ele>702.0</ele>
        <time>2022-06-19T11:37:39.030Z</time>
      </trkpt>
      <trkpt lat="43.07748" lon="-7.17767">
        <ele>702.0</ele>
        <time>2022-06-19T11:37:40.034Z</time>
      </trkpt>
      <trkpt lat="43.07748" lon="-7.17767">
        <ele>702.0</ele>
        <time>2022-06-19T11:37:40.999Z</time>
      </trkpt>
      <trkpt lat="43.07746333" lon="-7.1777">
        <ele>702.0</ele>
        <time>2022-06-19T11:37:42.007Z</time>
      </trkpt>
      <trkpt lat="43.07746333" lon="-7.1777">
        <ele>702.0</ele>
        <time>2022-06-19T11:37:43.014Z</time>
      </trkpt>
      <trkpt lat="43.07745833" lon="-7.17772667">
        <ele>702.0</ele>
        <time>2022-06-19T11:37:44.013Z</time>
      </trkpt>
      <trkpt lat="43.07745833" lon="-7.17772667">
        <ele>702.0</ele>
        <time>2022-06-19T11:37:45.020Z</time>
      </trkpt>
      <trkpt lat="43.07744667" lon="-7.17778333">
        <ele>702.0</ele>
        <time>2022-06-19T11:37:46.033Z</time>
      </trkpt>
      <trkpt lat="43.07744667" lon="-7.17778333">
        <ele>702.0</ele>
        <time>2022-06-19T11:37:47.034Z</time>
      </trkpt>
      <trkpt lat="43.07744" lon="-7.1778">
        <ele>702.0</ele>
        <time>2022-06-19T11:37:48.025Z</time>
      </trkpt>
      <trkpt lat="43.07744" lon="-7.1778">
        <ele>702.0</ele>
        <time>2022-06-19T11:37:49.032Z</time>
      </trkpt>
      <trkpt lat="43.07743167" lon="-7.17783833">
        <ele>703.0</ele>
        <time>2022-06-19T11:37:50.033Z</time>
      </trkpt>
      <trkpt lat="43.07743167" lon="-7.17783833">
        <ele>703.0</ele>
        <time>2022-06-19T11:37:50.999Z</time>
      </trkpt>
      <trkpt lat="43.077415" lon="-7.17787333">
        <ele>703.0</ele>
        <time>2022-06-19T11:37:52.031Z</time>
      </trkpt>
      <trkpt lat="43.07740833" lon="-7.17789167">
        <ele>703.0</ele>
        <time>2022-06-19T11:37:53.002Z</time>
      </trkpt>
      <trkpt lat="43.07740833" lon="-7.17789167">
        <ele>703.0</ele>
        <time>2022-06-19T11:37:54.008Z</time>
      </trkpt>
      <trkpt lat="43.07739667" lon="-7.17792">
        <ele>704.0</ele>
        <time>2022-06-19T11:37:55.017Z</time>
      </trkpt>
      <trkpt lat="43.07739667" lon="-7.17792">
        <ele>704.0</ele>
        <time>2022-06-19T11:37:56.024Z</time>
      </trkpt>
      <trkpt lat="43.07738667" lon="-7.17794333">
        <ele>704.0</ele>
        <time>2022-06-19T11:37:57.013Z</time>
      </trkpt>
      <trkpt lat="43.07738667" lon="-7.17794333">
        <ele>704.0</ele>
        <time>2022-06-19T11:37:58.007Z</time>
      </trkpt>
      <trkpt lat="43.077375" lon="-7.17796333">
        <ele>704.0</ele>
        <time>2022-06-19T11:37:59.023Z</time>
      </trkpt>
      <trkpt lat="43.077375" lon="-7.17796333">
        <ele>704.0</ele>
        <time>2022-06-19T11:38:00.030Z</time>
      </trkpt>
      <trkpt lat="43.07735833" lon="-7.17798167">
        <ele>704.0</ele>
        <time>2022-06-19T11:38:01.035Z</time>
      </trkpt>
      <trkpt lat="43.07735" lon="-7.177985">
        <ele>704.0</ele>
        <time>2022-06-19T11:38:02.014Z</time>
      </trkpt>
      <trkpt lat="43.07734167" lon="-7.17799">
        <ele>704.0</ele>
        <time>2022-06-19T11:38:03.034Z</time>
      </trkpt>
      <trkpt lat="43.07734167" lon="-7.17799">
        <ele>704.0</ele>
        <time>2022-06-19T11:38:04.001Z</time>
      </trkpt>
      <trkpt lat="43.07732" lon="-7.17800333">
        <ele>704.0</ele>
        <time>2022-06-19T11:38:05.004Z</time>
      </trkpt>
      <trkpt lat="43.07732" lon="-7.17800333">
        <ele>704.0</ele>
        <time>2022-06-19T11:38:06.010Z</time>
      </trkpt>
      <trkpt lat="43.07730333" lon="-7.17800833">
        <ele>705.0</ele>
        <time>2022-06-19T11:38:07.004Z</time>
      </trkpt>
      <trkpt lat="43.07729333" lon="-7.17800333">
        <ele>705.0</ele>
        <time>2022-06-19T11:38:08.035Z</time>
      </trkpt>
      <trkpt lat="43.07729333" lon="-7.17800333">
        <ele>705.0</ele>
        <time>2022-06-19T11:38:09.001Z</time>
      </trkpt>
      <trkpt lat="43.07727167" lon="-7.17800167">
        <ele>705.0</ele>
        <time>2022-06-19T11:38:10.026Z</time>
      </trkpt>
      <trkpt lat="43.07726" lon="-7.17800167">
        <ele>705.0</ele>
        <time>2022-06-19T11:38:10.997Z</time>
      </trkpt>
      <trkpt lat="43.07726" lon="-7.17800167">
        <ele>705.0</ele>
        <time>2022-06-19T11:38:12.004Z</time>
      </trkpt>
      <trkpt lat="43.07723167" lon="-7.17799667">
        <ele>705.0</ele>
        <time>2022-06-19T11:38:13.013Z</time>
      </trkpt>
      <trkpt lat="43.077215" lon="-7.17799667">
        <ele>705.0</ele>
        <time>2022-06-19T11:38:14.011Z</time>
      </trkpt>
      <trkpt lat="43.077215" lon="-7.17799667">
        <ele>705.0</ele>
        <time>2022-06-19T11:38:15.017Z</time>
      </trkpt>
      <trkpt lat="43.07718167" lon="-7.17798667">
        <ele>705.0</ele>
        <time>2022-06-19T11:38:16.004Z</time>
      </trkpt>
      <trkpt lat="43.077165" lon="-7.177985">
        <ele>705.0</ele>
        <time>2022-06-19T11:38:17.002Z</time>
      </trkpt>
      <trkpt lat="43.077165" lon="-7.177985">
        <ele>705.0</ele>
        <time>2022-06-19T11:38:18.008Z</time>
      </trkpt>
      <trkpt lat="43.07713167" lon="-7.17798833">
        <ele>705.0</ele>
        <time>2022-06-19T11:38:19.012Z</time>
      </trkpt>
      <trkpt lat="43.07711833" lon="-7.178">
        <ele>705.0</ele>
        <time>2022-06-19T11:38:20.036Z</time>
      </trkpt>
      <trkpt lat="43.07710333" lon="-7.17800667">
        <ele>705.0</ele>
        <time>2022-06-19T11:38:21.035Z</time>
      </trkpt>
      <trkpt lat="43.07710333" lon="-7.17800667">
        <ele>705.0</ele>
        <time>2022-06-19T11:38:22.001Z</time>
      </trkpt>
      <trkpt lat="43.07707833" lon="-7.17801333">
        <ele>705.0</ele>
        <time>2022-06-19T11:38:22.997Z</time>
      </trkpt>
      <trkpt lat="43.07707833" lon="-7.17801333">
        <ele>705.0</ele>
        <time>2022-06-19T11:38:24.003Z</time>
      </trkpt>
      <trkpt lat="43.07705" lon="-7.17802">
        <ele>705.0</ele>
        <time>2022-06-19T11:38:25.032Z</time>
      </trkpt>
      <trkpt lat="43.07703333" lon="-7.17802667">
        <ele>705.0</ele>
        <time>2022-06-19T11:38:26.027Z</time>
      </trkpt>
      <trkpt lat="43.07703333" lon="-7.17802667">
        <ele>705.0</ele>
        <time>2022-06-19T11:38:27.034Z</time>
      </trkpt>
      <trkpt lat="43.07699667" lon="-7.178045">
        <ele>705.0</ele>
        <time>2022-06-19T11:38:28.030Z</time>
      </trkpt>
      <trkpt lat="43.07697333" lon="-7.178055">
        <ele>704.0</ele>
        <time>2022-06-19T11:38:29.020Z</time>
      </trkpt>
      <trkpt lat="43.07697333" lon="-7.178055">
        <ele>704.0</ele>
        <time>2022-06-19T11:38:30.027Z</time>
      </trkpt>
      <trkpt lat="43.07691833" lon="-7.17808833">
        <ele>704.0</ele>
        <time>2022-06-19T11:38:31.019Z</time>
      </trkpt>
      <trkpt lat="43.07688667" lon="-7.178105">
        <ele>704.0</ele>
        <time>2022-06-19T11:38:32.018Z</time>
      </trkpt>
      <trkpt lat="43.076855" lon="-7.178125">
        <ele>704.0</ele>
        <time>2022-06-19T11:38:33.004Z</time>
      </trkpt>
      <trkpt lat="43.076855" lon="-7.178125">
        <ele>704.0</ele>
        <time>2022-06-19T11:38:34.010Z</time>
      </trkpt>
      <trkpt lat="43.07678833" lon="-7.17816833">
        <ele>703.0</ele>
        <time>2022-06-19T11:38:35.005Z</time>
      </trkpt>
      <trkpt lat="43.07678833" lon="-7.17816833">
        <ele>703.0</ele>
        <time>2022-06-19T11:38:36.012Z</time>
      </trkpt>
      <trkpt lat="43.07673833" lon="-7.17819333">
        <ele>702.0</ele>
        <time>2022-06-19T11:38:37.005Z</time>
      </trkpt>
      <trkpt lat="43.07671667" lon="-7.17818667">
        <ele>702.0</ele>
        <time>2022-06-19T11:38:38.035Z</time>
      </trkpt>
      <trkpt lat="43.07671667" lon="-7.17818667">
        <ele>702.0</ele>
        <time>2022-06-19T11:38:39.001Z</time>
      </trkpt>
      <trkpt lat="43.07668333" lon="-7.178165">
        <ele>702.0</ele>
        <time>2022-06-19T11:38:40.015Z</time>
      </trkpt>
      <trkpt lat="43.07668333" lon="-7.178165">
        <ele>702.0</ele>
        <time>2022-06-19T11:38:41.021Z</time>
      </trkpt>
      <trkpt lat="43.07666667" lon="-7.17813667">
        <ele>701.0</ele>
        <time>2022-06-19T11:38:42.012Z</time>
      </trkpt>
      <trkpt lat="43.07666667" lon="-7.17813667">
        <ele>701.0</ele>
        <time>2022-06-19T11:38:43.017Z</time>
      </trkpt>
      <trkpt lat="43.076655" lon="-7.17810333">
        <ele>701.0</ele>
        <time>2022-06-19T11:38:44.002Z</time>
      </trkpt>
      <trkpt lat="43.076655" lon="-7.17810333">
        <ele>701.0</ele>
        <time>2022-06-19T11:38:45.008Z</time>
      </trkpt>
      <trkpt lat="43.07664667" lon="-7.17806833">
        <ele>700.0</ele>
        <time>2022-06-19T11:38:46.001Z</time>
      </trkpt>
      <trkpt lat="43.07664667" lon="-7.17806833">
        <ele>700.0</ele>
        <time>2022-06-19T11:38:47.030Z</time>
      </trkpt>
      <trkpt lat="43.07664667" lon="-7.17803833">
        <ele>699.0</ele>
        <time>2022-06-19T11:38:48.024Z</time>
      </trkpt>
      <trkpt lat="43.07664667" lon="-7.17803833">
        <ele>699.0</ele>
        <time>2022-06-19T11:38:49.030Z</time>
      </trkpt>
      <trkpt lat="43.07664333" lon="-7.17801333">
        <ele>699.0</ele>
        <time>2022-06-19T11:38:50.007Z</time>
      </trkpt>
      <trkpt lat="43.07664333" lon="-7.17801333">
        <ele>699.0</ele>
        <time>2022-06-19T11:38:51.013Z</time>
      </trkpt>
      <trkpt lat="43.07664833" lon="-7.17799167">
        <ele>699.0</ele>
        <time>2022-06-19T11:38:52.006Z</time>
      </trkpt>
      <trkpt lat="43.07664833" lon="-7.17799167">
        <ele>699.0</ele>
        <time>2022-06-19T11:38:53.012Z</time>
      </trkpt>
      <trkpt lat="43.076645" lon="-7.177955">
        <ele>699.0</ele>
        <time>2022-06-19T11:38:54.014Z</time>
      </trkpt>
      <trkpt lat="43.076645" lon="-7.177955">
        <ele>699.0</ele>
        <time>2022-06-19T11:38:55.020Z</time>
      </trkpt>
      <trkpt lat="43.07665333" lon="-7.17789167">
        <ele>698.0</ele>
        <time>2022-06-19T11:38:56.012Z</time>
      </trkpt>
      <trkpt lat="43.07665" lon="-7.17786333">
        <ele>698.0</ele>
        <time>2022-06-19T11:38:57.015Z</time>
      </trkpt>
      <trkpt lat="43.07665" lon="-7.17786333">
        <ele>698.0</ele>
        <time>2022-06-19T11:38:58.021Z</time>
      </trkpt>
      <trkpt lat="43.07663167" lon="-7.177815">
        <ele>698.0</ele>
        <time>2022-06-19T11:38:59.031Z</time>
      </trkpt>
      <trkpt lat="43.07663167" lon="-7.177815">
        <ele>698.0</ele>
        <time>2022-06-19T11:39:00.009Z</time>
      </trkpt>
      <trkpt lat="43.076625" lon="-7.17776333">
        <ele>698.0</ele>
        <time>2022-06-19T11:39:01.030Z</time>
      </trkpt>
      <trkpt lat="43.07661167" lon="-7.17773333">
        <ele>697.0</ele>
        <time>2022-06-19T11:39:02.005Z</time>
      </trkpt>
      <trkpt lat="43.07661167" lon="-7.17773333">
        <ele>697.0</ele>
        <time>2022-06-19T11:39:03.010Z</time>
      </trkpt>
      <trkpt lat="43.07659" lon="-7.17767333">
        <ele>697.0</ele>
        <time>2022-06-19T11:39:04.027Z</time>
      </trkpt>
      <trkpt lat="43.07658" lon="-7.17764333">
        <ele>697.0</ele>
        <time>2022-06-19T11:39:05.032Z</time>
      </trkpt>
      <trkpt lat="43.07658" lon="-7.17764333">
        <ele>697.0</ele>
        <time>2022-06-19T11:39:05.998Z</time>
      </trkpt>
      <trkpt lat="43.07657" lon="-7.17759833">
        <ele>697.0</ele>
        <time>2022-06-19T11:39:07.034Z</time>
      </trkpt>
      <trkpt lat="43.076555" lon="-7.17757167">
        <ele>697.0</ele>
        <time>2022-06-19T11:39:08.034Z</time>
      </trkpt>
      <trkpt lat="43.076555" lon="-7.17757167">
        <ele>697.0</ele>
        <time>2022-06-19T11:39:09.000Z</time>
      </trkpt>
      <trkpt lat="43.07653167" lon="-7.17752333">
        <ele>697.0</ele>
        <time>2022-06-19T11:39:10.036Z</time>
      </trkpt>
      <trkpt lat="43.07652167" lon="-7.177505">
        <ele>697.0</ele>
        <time>2022-06-19T11:39:11.036Z</time>
      </trkpt>
      <trkpt lat="43.07651167" lon="-7.17748667">
        <ele>697.0</ele>
        <time>2022-06-19T11:39:12.027Z</time>
      </trkpt>
      <trkpt lat="43.07651167" lon="-7.17748667">
        <ele>697.0</ele>
        <time>2022-06-19T11:39:13.033Z</time>
      </trkpt>
      <trkpt lat="43.07649" lon="-7.17745167">
        <ele>697.0</ele>
        <time>2022-06-19T11:39:14.008Z</time>
      </trkpt>
      <trkpt lat="43.07649" lon="-7.17745167">
        <ele>697.0</ele>
        <time>2022-06-19T11:39:15.014Z</time>
      </trkpt>
      <trkpt lat="43.07647" lon="-7.17742">
        <ele>697.0</ele>
        <time>2022-06-19T11:39:16.023Z</time>
      </trkpt>
      <trkpt lat="43.076465" lon="-7.17740167">
        <ele>697.0</ele>
        <time>2022-06-19T11:39:17.034Z</time>
      </trkpt>
      <trkpt lat="43.07646167" lon="-7.17738667">
        <ele>697.0</ele>
        <time>2022-06-19T11:39:18.020Z</time>
      </trkpt>
      <trkpt lat="43.07646167" lon="-7.17738667">
        <ele>697.0</ele>
        <time>2022-06-19T11:39:19.026Z</time>
      </trkpt>
      <trkpt lat="43.07645167" lon="-7.17735667">
        <ele>697.0</ele>
        <time>2022-06-19T11:39:20.014Z</time>
      </trkpt>
      <trkpt lat="43.07645167" lon="-7.17735667">
        <ele>697.0</ele>
        <time>2022-06-19T11:39:21.020Z</time>
      </trkpt>
      <trkpt lat="43.07643667" lon="-7.177325">
        <ele>697.0</ele>
        <time>2022-06-19T11:39:21.999Z</time>
      </trkpt>
      <trkpt lat="43.07643667" lon="-7.177325">
        <ele>697.0</ele>
        <time>2022-06-19T11:39:23.013Z</time>
      </trkpt>
      <trkpt lat="43.07642167" lon="-7.177295">
        <ele>697.0</ele>
        <time>2022-06-19T11:39:24.010Z</time>
      </trkpt>
      <trkpt lat="43.07641167" lon="-7.17727833">
        <ele>697.0</ele>
        <time>2022-06-19T11:39:25.000Z</time>
      </trkpt>
      <trkpt lat="43.07641167" lon="-7.17727833">
        <ele>697.0</ele>
        <time>2022-06-19T11:39:26.006Z</time>
      </trkpt>
      <trkpt lat="43.07639167" lon="-7.17724667">
        <ele>698.0</ele>
        <time>2022-06-19T11:39:27.004Z</time>
      </trkpt>
      <trkpt lat="43.07639167" lon="-7.17724667">
        <ele>698.0</ele>
        <time>2022-06-19T11:39:28.011Z</time>
      </trkpt>
      <trkpt lat="43.076375" lon="-7.17721667">
        <ele>698.0</ele>
        <time>2022-06-19T11:39:29.012Z</time>
      </trkpt>
      <trkpt lat="43.07636833" lon="-7.177195">
        <ele>698.0</ele>
        <time>2022-06-19T11:39:30.011Z</time>
      </trkpt>
      <trkpt lat="43.07636167" lon="-7.177175">
        <ele>698.0</ele>
        <time>2022-06-19T11:39:31.018Z</time>
      </trkpt>
      <trkpt lat="43.07635" lon="-7.17716333">
        <ele>698.0</ele>
        <time>2022-06-19T11:39:32.009Z</time>
      </trkpt>
      <trkpt lat="43.07635" lon="-7.17716333">
        <ele>698.0</ele>
        <time>2022-06-19T11:39:33.016Z</time>
      </trkpt>
      <trkpt lat="43.07632333" lon="-7.17711833">
        <ele>698.0</ele>
        <time>2022-06-19T11:39:34.018Z</time>
      </trkpt>
      <trkpt lat="43.07632333" lon="-7.17711833">
        <ele>698.0</ele>
        <time>2022-06-19T11:39:35.024Z</time>
      </trkpt>
      <trkpt lat="43.07630833" lon="-7.17708667">
        <ele>698.0</ele>
        <time>2022-06-19T11:39:36.025Z</time>
      </trkpt>
      <trkpt lat="43.076305" lon="-7.17707333">
        <ele>699.0</ele>
        <time>2022-06-19T11:39:37.001Z</time>
      </trkpt>
      <trkpt lat="43.076305" lon="-7.17707333">
        <ele>699.0</ele>
        <time>2022-06-19T11:39:38.007Z</time>
      </trkpt>
      <trkpt lat="43.07629333" lon="-7.17703667">
        <ele>699.0</ele>
        <time>2022-06-19T11:39:39.002Z</time>
      </trkpt>
      <trkpt lat="43.07629333" lon="-7.17703667">
        <ele>699.0</ele>
        <time>2022-06-19T11:39:40.008Z</time>
      </trkpt>
      <trkpt lat="43.07627167" lon="-7.177005">
        <ele>699.0</ele>
        <time>2022-06-19T11:39:41.012Z</time>
      </trkpt>
      <trkpt lat="43.076265" lon="-7.17698833">
        <ele>699.0</ele>
        <time>2022-06-19T11:39:42.015Z</time>
      </trkpt>
      <trkpt lat="43.076265" lon="-7.17698833">
        <ele>699.0</ele>
        <time>2022-06-19T11:39:43.020Z</time>
      </trkpt>
      <trkpt lat="43.07624833" lon="-7.17696333">
        <ele>699.0</ele>
        <time>2022-06-19T11:39:44.000Z</time>
      </trkpt>
      <trkpt lat="43.07624" lon="-7.17695">
        <ele>700.0</ele>
        <time>2022-06-19T11:39:45.007Z</time>
      </trkpt>
      <trkpt lat="43.07624" lon="-7.17695">
        <ele>700.0</ele>
        <time>2022-06-19T11:39:46.026Z</time>
      </trkpt>
      <trkpt lat="43.07622" lon="-7.17692">
        <ele>700.0</ele>
        <time>2022-06-19T11:39:47.004Z</time>
      </trkpt>
      <trkpt lat="43.07621" lon="-7.176905">
        <ele>700.0</ele>
        <time>2022-06-19T11:39:48.034Z</time>
      </trkpt>
      <trkpt lat="43.07621" lon="-7.176905">
        <ele>700.0</ele>
        <time>2022-06-19T11:39:49.001Z</time>
      </trkpt>
      <trkpt lat="43.07619" lon="-7.17688167">
        <ele>700.0</ele>
        <time>2022-06-19T11:39:50.007Z</time>
      </trkpt>
      <trkpt lat="43.07619" lon="-7.17688167">
        <ele>700.0</ele>
        <time>2022-06-19T11:39:51.013Z</time>
      </trkpt>
      <trkpt lat="43.07617" lon="-7.17685667">
        <ele>700.0</ele>
        <time>2022-06-19T11:39:52.002Z</time>
      </trkpt>
      <trkpt lat="43.07617" lon="-7.17685667">
        <ele>700.0</ele>
        <time>2022-06-19T11:39:53.008Z</time>
      </trkpt>
      <trkpt lat="43.07614667" lon="-7.17683167">
        <ele>701.0</ele>
        <time>2022-06-19T11:39:54.005Z</time>
      </trkpt>
      <trkpt lat="43.07613667" lon="-7.17682167">
        <ele>701.0</ele>
        <time>2022-06-19T11:39:55.015Z</time>
      </trkpt>
      <trkpt lat="43.07612667" lon="-7.17681167">
        <ele>701.0</ele>
        <time>2022-06-19T11:39:56.014Z</time>
      </trkpt>
      <trkpt lat="43.07612667" lon="-7.17681167">
        <ele>701.0</ele>
        <time>2022-06-19T11:39:57.021Z</time>
      </trkpt>
      <trkpt lat="43.07610167" lon="-7.17679333">
        <ele>702.0</ele>
        <time>2022-06-19T11:39:58.019Z</time>
      </trkpt>
      <trkpt lat="43.07609" lon="-7.176785">
        <ele>702.0</ele>
        <time>2022-06-19T11:39:59.014Z</time>
      </trkpt>
      <trkpt lat="43.07607667" lon="-7.17677833">
        <ele>702.0</ele>
        <time>2022-06-19T11:40:00.018Z</time>
      </trkpt>
      <trkpt lat="43.07607667" lon="-7.17677833">
        <ele>702.0</ele>
        <time>2022-06-19T11:40:01.024Z</time>
      </trkpt>
      <trkpt lat="43.07605167" lon="-7.17676667">
        <ele>702.0</ele>
        <time>2022-06-19T11:40:02.015Z</time>
      </trkpt>
      <trkpt lat="43.07605167" lon="-7.17676667">
        <ele>702.0</ele>
        <time>2022-06-19T11:40:03.021Z</time>
      </trkpt>
      <trkpt lat="43.07601667" lon="-7.17677">
        <ele>703.0</ele>
        <time>2022-06-19T11:40:04.016Z</time>
      </trkpt>
      <trkpt lat="43.076005" lon="-7.17676333">
        <ele>703.0</ele>
        <time>2022-06-19T11:40:05.015Z</time>
      </trkpt>
      <trkpt lat="43.076005" lon="-7.17676333">
        <ele>703.0</ele>
        <time>2022-06-19T11:40:06.021Z</time>
      </trkpt>
      <trkpt lat="43.07598833" lon="-7.176745">
        <ele>704.0</ele>
        <time>2022-06-19T11:40:07.002Z</time>
      </trkpt>
      <trkpt lat="43.07598" lon="-7.176735">
        <ele>704.0</ele>
        <time>2022-06-19T11:40:08.037Z</time>
      </trkpt>
      <trkpt lat="43.07598" lon="-7.176735">
        <ele>704.0</ele>
        <time>2022-06-19T11:40:09.002Z</time>
      </trkpt>
      <trkpt lat="43.07596167" lon="-7.17673">
        <ele>704.0</ele>
        <time>2022-06-19T11:40:10.011Z</time>
      </trkpt>
      <trkpt lat="43.07595333" lon="-7.17672833">
        <ele>705.0</ele>
        <time>2022-06-19T11:40:11.000Z</time>
      </trkpt>
      <trkpt lat="43.07595333" lon="-7.17672833">
        <ele>705.0</ele>
        <time>2022-06-19T11:40:12.006Z</time>
      </trkpt>
      <trkpt lat="43.07592667" lon="-7.17672167">
        <ele>705.0</ele>
        <time>2022-06-19T11:40:13.004Z</time>
      </trkpt>
      <trkpt lat="43.07591333" lon="-7.17671">
        <ele>705.0</ele>
        <time>2022-06-19T11:40:14.033Z</time>
      </trkpt>
      <trkpt lat="43.07589833" lon="-7.17670333">
        <ele>706.0</ele>
        <time>2022-06-19T11:40:14.997Z</time>
      </trkpt>
      <trkpt lat="43.07589833" lon="-7.17670333">
        <ele>706.0</ele>
        <time>2022-06-19T11:40:16.003Z</time>
      </trkpt>
      <trkpt lat="43.075875" lon="-7.17668">
        <ele>706.0</ele>
        <time>2022-06-19T11:40:17.008Z</time>
      </trkpt>
      <trkpt lat="43.075875" lon="-7.17668">
        <ele>706.0</ele>
        <time>2022-06-19T11:40:18.015Z</time>
      </trkpt>
      <trkpt lat="43.07585667" lon="-7.17666167">
        <ele>707.0</ele>
        <time>2022-06-19T11:40:19.032Z</time>
      </trkpt>
      <trkpt lat="43.075845" lon="-7.17665667">
        <ele>708.0</ele>
        <time>2022-06-19T11:40:20.024Z</time>
      </trkpt>
      <trkpt lat="43.07583833" lon="-7.17665333">
        <ele>708.0</ele>
        <time>2022-06-19T11:40:21.015Z</time>
      </trkpt>
      <trkpt lat="43.07583833" lon="-7.17665333">
        <ele>708.0</ele>
        <time>2022-06-19T11:40:22.021Z</time>
      </trkpt>
      <trkpt lat="43.07582333" lon="-7.17663">
        <ele>709.0</ele>
        <time>2022-06-19T11:40:23.025Z</time>
      </trkpt>
      <trkpt lat="43.07582333" lon="-7.17663">
        <ele>709.0</ele>
        <time>2022-06-19T11:40:24.031Z</time>
      </trkpt>
      <trkpt lat="43.07580333" lon="-7.17660333">
        <ele>710.0</ele>
        <time>2022-06-19T11:40:25.013Z</time>
      </trkpt>
      <trkpt lat="43.07579" lon="-7.17659">
        <ele>711.0</ele>
        <time>2022-06-19T11:40:26.015Z</time>
      </trkpt>
      <trkpt lat="43.075775" lon="-7.17657167">
        <ele>711.0</ele>
        <time>2022-06-19T11:40:27.006Z</time>
      </trkpt>
      <trkpt lat="43.075775" lon="-7.17657167">
        <ele>711.0</ele>
        <time>2022-06-19T11:40:28.012Z</time>
      </trkpt>
      <trkpt lat="43.07574167" lon="-7.17654333">
        <ele>712.0</ele>
        <time>2022-06-19T11:40:29.028Z</time>
      </trkpt>
      <trkpt lat="43.07572667" lon="-7.17653667">
        <ele>712.0</ele>
        <time>2022-06-19T11:40:30.027Z</time>
      </trkpt>
      <trkpt lat="43.07572667" lon="-7.17653667">
        <ele>712.0</ele>
        <time>2022-06-19T11:40:31.034Z</time>
      </trkpt>
      <trkpt lat="43.07569833" lon="-7.17651667">
        <ele>713.0</ele>
        <time>2022-06-19T11:40:32.028Z</time>
      </trkpt>
      <trkpt lat="43.07569833" lon="-7.17651667">
        <ele>713.0</ele>
        <time>2022-06-19T11:40:33.034Z</time>
      </trkpt>
      <trkpt lat="43.07567333" lon="-7.17649833">
        <ele>714.0</ele>
        <time>2022-06-19T11:40:33.998Z</time>
      </trkpt>
      <trkpt lat="43.07567333" lon="-7.17649833">
        <ele>714.0</ele>
        <time>2022-06-19T11:40:35.004Z</time>
      </trkpt>
      <trkpt lat="43.075655" lon="-7.17651167">
        <ele>715.0</ele>
        <time>2022-06-19T11:40:36.007Z</time>
      </trkpt>
      <trkpt lat="43.075655" lon="-7.17651167">
        <ele>715.0</ele>
        <time>2022-06-19T11:40:37.014Z</time>
      </trkpt>
      <trkpt lat="43.07563167" lon="-7.176495">
        <ele>715.0</ele>
        <time>2022-06-19T11:40:38.020Z</time>
      </trkpt>
      <trkpt lat="43.07563167" lon="-7.176495">
        <ele>715.0</ele>
        <time>2022-06-19T11:40:39.026Z</time>
      </trkpt>
      <trkpt lat="43.07560833" lon="-7.17647667">
        <ele>717.0</ele>
        <time>2022-06-19T11:40:40.019Z</time>
      </trkpt>
      <trkpt lat="43.07560833" lon="-7.17647667">
        <ele>717.0</ele>
        <time>2022-06-19T11:40:41.024Z</time>
      </trkpt>
      <trkpt lat="43.075575" lon="-7.17647">
        <ele>717.0</ele>
        <time>2022-06-19T11:40:42.014Z</time>
      </trkpt>
      <trkpt lat="43.075575" lon="-7.17647">
        <ele>717.0</ele>
        <time>2022-06-19T11:40:43.019Z</time>
      </trkpt>
      <trkpt lat="43.075535" lon="-7.17644833">
        <ele>718.0</ele>
        <time>2022-06-19T11:40:44.023Z</time>
      </trkpt>
      <trkpt lat="43.07551667" lon="-7.176435">
        <ele>719.0</ele>
        <time>2022-06-19T11:40:45.029Z</time>
      </trkpt>
      <trkpt lat="43.07551667" lon="-7.176435">
        <ele>719.0</ele>
        <time>2022-06-19T11:40:46.006Z</time>
      </trkpt>
      <trkpt lat="43.07548" lon="-7.17641">
        <ele>720.0</ele>
        <time>2022-06-19T11:40:47.021Z</time>
      </trkpt>
      <trkpt lat="43.07546333" lon="-7.17639833">
        <ele>720.0</ele>
        <time>2022-06-19T11:40:48.007Z</time>
      </trkpt>
      <trkpt lat="43.07546333" lon="-7.17639833">
        <ele>720.0</ele>
        <time>2022-06-19T11:40:49.013Z</time>
      </trkpt>
      <trkpt lat="43.07542667" lon="-7.17637833">
        <ele>721.0</ele>
        <time>2022-06-19T11:40:50.008Z</time>
      </trkpt>
      <trkpt lat="43.07542667" lon="-7.17637833">
        <ele>721.0</ele>
        <time>2022-06-19T11:40:51.034Z</time>
      </trkpt>
      <trkpt lat="43.075385" lon="-7.17636333">
        <ele>722.0</ele>
        <time>2022-06-19T11:40:52.032Z</time>
      </trkpt>
      <trkpt lat="43.075385" lon="-7.17636333">
        <ele>722.0</ele>
        <time>2022-06-19T11:40:52.998Z</time>
      </trkpt>
      <trkpt lat="43.07534667" lon="-7.176355">
        <ele>722.0</ele>
        <time>2022-06-19T11:40:54.002Z</time>
      </trkpt>
      <trkpt lat="43.07534667" lon="-7.176355">
        <ele>722.0</ele>
        <time>2022-06-19T11:40:55.008Z</time>
      </trkpt>
      <trkpt lat="43.07531333" lon="-7.17633833">
        <ele>723.0</ele>
        <time>2022-06-19T11:40:56.015Z</time>
      </trkpt>
      <trkpt lat="43.07531333" lon="-7.17633833">
        <ele>723.0</ele>
        <time>2022-06-19T11:40:57.021Z</time>
      </trkpt>
      <trkpt lat="43.075275" lon="-7.17632667">
        <ele>723.0</ele>
        <time>2022-06-19T11:40:58.022Z</time>
      </trkpt>
      <trkpt lat="43.07525333" lon="-7.17631667">
        <ele>724.0</ele>
        <time>2022-06-19T11:40:59.023Z</time>
      </trkpt>
      <trkpt lat="43.07525333" lon="-7.17631667">
        <ele>724.0</ele>
        <time>2022-06-19T11:41:00.029Z</time>
      </trkpt>
      <trkpt lat="43.075215" lon="-7.17629833">
        <ele>724.0</ele>
        <time>2022-06-19T11:41:01.012Z</time>
      </trkpt>
      <trkpt lat="43.07520167" lon="-7.17629">
        <ele>724.0</ele>
        <time>2022-06-19T11:41:02.001Z</time>
      </trkpt>
      <trkpt lat="43.07520167" lon="-7.17629">
        <ele>724.0</ele>
        <time>2022-06-19T11:41:03.006Z</time>
      </trkpt>
      <trkpt lat="43.075175" lon="-7.17627833">
        <ele>725.0</ele>
        <time>2022-06-19T11:41:04.006Z</time>
      </trkpt>
      <trkpt lat="43.075175" lon="-7.17627833">
        <ele>725.0</ele>
        <time>2022-06-19T11:41:05.012Z</time>
      </trkpt>
      <trkpt lat="43.07514" lon="-7.17626833">
        <ele>726.0</ele>
        <time>2022-06-19T11:41:06.006Z</time>
      </trkpt>
      <trkpt lat="43.07512333" lon="-7.17625833">
        <ele>726.0</ele>
        <time>2022-06-19T11:41:07.037Z</time>
      </trkpt>
      <trkpt lat="43.075105" lon="-7.17625167">
        <ele>726.0</ele>
        <time>2022-06-19T11:41:08.029Z</time>
      </trkpt>
      <trkpt lat="43.075105" lon="-7.17625167">
        <ele>726.0</ele>
        <time>2022-06-19T11:41:09.036Z</time>
      </trkpt>
      <trkpt lat="43.07507667" lon="-7.17624167">
        <ele>727.0</ele>
        <time>2022-06-19T11:41:10.032Z</time>
      </trkpt>
      <trkpt lat="43.07506" lon="-7.17623333">
        <ele>727.0</ele>
        <time>2022-06-19T11:41:11.020Z</time>
      </trkpt>
      <trkpt lat="43.07506" lon="-7.17623333">
        <ele>727.0</ele>
        <time>2022-06-19T11:41:12.032Z</time>
      </trkpt>
      <trkpt lat="43.07502333" lon="-7.17621833">
        <ele>727.0</ele>
        <time>2022-06-19T11:41:13.034Z</time>
      </trkpt>
      <trkpt lat="43.07500167" lon="-7.176215">
        <ele>728.0</ele>
        <time>2022-06-19T11:41:14.033Z</time>
      </trkpt>
      <trkpt lat="43.07497833" lon="-7.17621">
        <ele>728.0</ele>
        <time>2022-06-19T11:41:15.025Z</time>
      </trkpt>
      <trkpt lat="43.07497833" lon="-7.17621">
        <ele>728.0</ele>
        <time>2022-06-19T11:41:16.031Z</time>
      </trkpt>
      <trkpt lat="43.07493833" lon="-7.1762">
        <ele>728.0</ele>
        <time>2022-06-19T11:41:17.016Z</time>
      </trkpt>
      <trkpt lat="43.07493833" lon="-7.1762">
        <ele>728.0</ele>
        <time>2022-06-19T11:41:18.023Z</time>
      </trkpt>
      <trkpt lat="43.074895" lon="-7.17619">
        <ele>729.0</ele>
        <time>2022-06-19T11:41:19.023Z</time>
      </trkpt>
      <trkpt lat="43.07488167" lon="-7.17618667">
        <ele>729.0</ele>
        <time>2022-06-19T11:41:20.031Z</time>
      </trkpt>
      <trkpt lat="43.07488167" lon="-7.17618667">
        <ele>729.0</ele>
        <time>2022-06-19T11:41:20.997Z</time>
      </trkpt>
      <trkpt lat="43.07485" lon="-7.17618333">
        <ele>730.0</ele>
        <time>2022-06-19T11:41:22.015Z</time>
      </trkpt>
      <trkpt lat="43.07485" lon="-7.17618333">
        <ele>730.0</ele>
        <time>2022-06-19T11:41:23.021Z</time>
      </trkpt>
      <trkpt lat="43.07481833" lon="-7.17617833">
        <ele>730.0</ele>
        <time>2022-06-19T11:41:24.023Z</time>
      </trkpt>
      <trkpt lat="43.07480167" lon="-7.176175">
        <ele>730.0</ele>
        <time>2022-06-19T11:41:25.019Z</time>
      </trkpt>
      <trkpt lat="43.07480167" lon="-7.176175">
        <ele>730.0</ele>
        <time>2022-06-19T11:41:26.025Z</time>
      </trkpt>
      <trkpt lat="43.074765" lon="-7.17617333">
        <ele>730.0</ele>
        <time>2022-06-19T11:41:27.021Z</time>
      </trkpt>
      <trkpt lat="43.074765" lon="-7.17617333">
        <ele>730.0</ele>
        <time>2022-06-19T11:41:28.027Z</time>
      </trkpt>
      <trkpt lat="43.074735" lon="-7.17617833">
        <ele>731.0</ele>
        <time>2022-06-19T11:41:29.033Z</time>
      </trkpt>
      <trkpt lat="43.074735" lon="-7.17617833">
        <ele>731.0</ele>
        <time>2022-06-19T11:41:29.998Z</time>
      </trkpt>
      <trkpt lat="43.07470167" lon="-7.176175">
        <ele>731.0</ele>
        <time>2022-06-19T11:41:31.026Z</time>
      </trkpt>
      <trkpt lat="43.07470167" lon="-7.176175">
        <ele>731.0</ele>
        <time>2022-06-19T11:41:32.032Z</time>
      </trkpt>
      <trkpt lat="43.074665" lon="-7.17617167">
        <ele>732.0</ele>
        <time>2022-06-19T11:41:33.026Z</time>
      </trkpt>
      <trkpt lat="43.074665" lon="-7.17617167">
        <ele>732.0</ele>
        <time>2022-06-19T11:41:34.032Z</time>
      </trkpt>
      <trkpt lat="43.07463333" lon="-7.17617333">
        <ele>732.0</ele>
        <time>2022-06-19T11:41:35.003Z</time>
      </trkpt>
      <trkpt lat="43.07463333" lon="-7.17617333">
        <ele>732.0</ele>
        <time>2022-06-19T11:41:36.009Z</time>
      </trkpt>
      <trkpt lat="43.07459833" lon="-7.176185">
        <ele>732.0</ele>
        <time>2022-06-19T11:41:37.007Z</time>
      </trkpt>
      <trkpt lat="43.07458" lon="-7.17618833">
        <ele>732.0</ele>
        <time>2022-06-19T11:41:38.034Z</time>
      </trkpt>
      <trkpt lat="43.07458" lon="-7.17618833">
        <ele>732.0</ele>
        <time>2022-06-19T11:41:39.001Z</time>
      </trkpt>
      <trkpt lat="43.07454" lon="-7.17618833">
        <ele>732.0</ele>
        <time>2022-06-19T11:41:40.001Z</time>
      </trkpt>
      <trkpt lat="43.074515" lon="-7.176185">
        <ele>732.0</ele>
        <time>2022-06-19T11:41:41.001Z</time>
      </trkpt>
      <trkpt lat="43.074515" lon="-7.176185">
        <ele>732.0</ele>
        <time>2022-06-19T11:41:42.007Z</time>
      </trkpt>
      <trkpt lat="43.07445833" lon="-7.17619667">
        <ele>732.0</ele>
        <time>2022-06-19T11:41:43.000Z</time>
      </trkpt>
      <trkpt lat="43.07443167" lon="-7.1762">
        <ele>732.0</ele>
        <time>2022-06-19T11:41:44.003Z</time>
      </trkpt>
      <trkpt lat="43.07443167" lon="-7.1762">
        <ele>732.0</ele>
        <time>2022-06-19T11:41:45.008Z</time>
      </trkpt>
      <trkpt lat="43.074385" lon="-7.176215">
        <ele>731.0</ele>
        <time>2022-06-19T11:41:46.018Z</time>
      </trkpt>
      <trkpt lat="43.07436167" lon="-7.17622333">
        <ele>731.0</ele>
        <time>2022-06-19T11:41:47.008Z</time>
      </trkpt>
      <trkpt lat="43.07436167" lon="-7.17622333">
        <ele>731.0</ele>
        <time>2022-06-19T11:41:48.014Z</time>
      </trkpt>
      <trkpt lat="43.07431667" lon="-7.17624167">
        <ele>731.0</ele>
        <time>2022-06-19T11:41:49.012Z</time>
      </trkpt>
      <trkpt lat="43.074295" lon="-7.17625167">
        <ele>731.0</ele>
        <time>2022-06-19T11:41:50.025Z</time>
      </trkpt>
      <trkpt lat="43.074295" lon="-7.17625167">
        <ele>731.0</ele>
        <time>2022-06-19T11:41:51.031Z</time>
      </trkpt>
      <trkpt lat="43.07425" lon="-7.17627167">
        <ele>731.0</ele>
        <time>2022-06-19T11:41:52.017Z</time>
      </trkpt>
      <trkpt lat="43.07423" lon="-7.176285">
        <ele>731.0</ele>
        <time>2022-06-19T11:41:53.012Z</time>
      </trkpt>
      <trkpt lat="43.07423" lon="-7.176285">
        <ele>731.0</ele>
        <time>2022-06-19T11:41:54.018Z</time>
      </trkpt>
      <trkpt lat="43.07419667" lon="-7.17631">
        <ele>731.0</ele>
        <time>2022-06-19T11:41:55.005Z</time>
      </trkpt>
      <trkpt lat="43.07418167" lon="-7.17632333">
        <ele>731.0</ele>
        <time>2022-06-19T11:41:56.002Z</time>
      </trkpt>
      <trkpt lat="43.07418167" lon="-7.17632333">
        <ele>731.0</ele>
        <time>2022-06-19T11:41:57.008Z</time>
      </trkpt>
      <trkpt lat="43.074145" lon="-7.17635167">
        <ele>731.0</ele>
        <time>2022-06-19T11:41:58.001Z</time>
      </trkpt>
      <trkpt lat="43.07412833" lon="-7.17636667">
        <ele>731.0</ele>
        <time>2022-06-19T11:41:59.025Z</time>
      </trkpt>
      <trkpt lat="43.07412833" lon="-7.17636667">
        <ele>731.0</ele>
        <time>2022-06-19T11:42:00.031Z</time>
      </trkpt>
      <trkpt lat="43.07409667" lon="-7.176405">
        <ele>731.0</ele>
        <time>2022-06-19T11:42:01.028Z</time>
      </trkpt>
      <trkpt lat="43.07407833" lon="-7.17643">
        <ele>731.0</ele>
        <time>2022-06-19T11:42:02.005Z</time>
      </trkpt>
      <trkpt lat="43.07407833" lon="-7.17643">
        <ele>731.0</ele>
        <time>2022-06-19T11:42:03.011Z</time>
      </trkpt>
      <trkpt lat="43.074035" lon="-7.17648833">
        <ele>731.0</ele>
        <time>2022-06-19T11:42:04.004Z</time>
      </trkpt>
      <trkpt lat="43.074035" lon="-7.17648833">
        <ele>731.0</ele>
        <time>2022-06-19T11:42:05.009Z</time>
      </trkpt>
      <trkpt lat="43.074" lon="-7.176545">
        <ele>731.0</ele>
        <time>2022-06-19T11:42:06.001Z</time>
      </trkpt>
      <trkpt lat="43.07397833" lon="-7.17657167">
        <ele>731.0</ele>
        <time>2022-06-19T11:42:06.999Z</time>
      </trkpt>
      <trkpt lat="43.07395167" lon="-7.17660667">
        <ele>731.0</ele>
        <time>2022-06-19T11:42:08.035Z</time>
      </trkpt>
      <trkpt lat="43.07395167" lon="-7.17660667">
        <ele>731.0</ele>
        <time>2022-06-19T11:42:09.001Z</time>
      </trkpt>
      <trkpt lat="43.07391833" lon="-7.17664833">
        <ele>731.0</ele>
        <time>2022-06-19T11:42:10.036Z</time>
      </trkpt>
      <trkpt lat="43.073905" lon="-7.17666667">
        <ele>731.0</ele>
        <time>2022-06-19T11:42:11.030Z</time>
      </trkpt>
      <trkpt lat="43.073905" lon="-7.17666667">
        <ele>731.0</ele>
        <time>2022-06-19T11:42:12.036Z</time>
      </trkpt>
      <trkpt lat="43.07386667" lon="-7.176715">
        <ele>731.0</ele>
        <time>2022-06-19T11:42:13.026Z</time>
      </trkpt>
      <trkpt lat="43.07384833" lon="-7.17674167">
        <ele>732.0</ele>
        <time>2022-06-19T11:42:14.024Z</time>
      </trkpt>
      <trkpt lat="43.07383" lon="-7.17677">
        <ele>732.0</ele>
        <time>2022-06-19T11:42:15.027Z</time>
      </trkpt>
      <trkpt lat="43.07383" lon="-7.17677">
        <ele>732.0</ele>
        <time>2022-06-19T11:42:16.035Z</time>
      </trkpt>
      <trkpt lat="43.07379833" lon="-7.17683167">
        <ele>732.0</ele>
        <time>2022-06-19T11:42:17.030Z</time>
      </trkpt>
      <trkpt lat="43.07379833" lon="-7.17683167">
        <ele>732.0</ele>
        <time>2022-06-19T11:42:17.997Z</time>
      </trkpt>
      <trkpt lat="43.07376333" lon="-7.17687833">
        <ele>732.0</ele>
        <time>2022-06-19T11:42:18.999Z</time>
      </trkpt>
      <trkpt lat="43.07374667" lon="-7.1769">
        <ele>733.0</ele>
        <time>2022-06-19T11:42:20.005Z</time>
      </trkpt>
      <trkpt lat="43.07374667" lon="-7.1769">
        <ele>733.0</ele>
        <time>2022-06-19T11:42:21.011Z</time>
      </trkpt>
      <trkpt lat="43.07371167" lon="-7.17694">
        <ele>733.0</ele>
        <time>2022-06-19T11:42:22.035Z</time>
      </trkpt>
      <trkpt lat="43.07369167" lon="-7.17696167">
        <ele>733.0</ele>
        <time>2022-06-19T11:42:23.035Z</time>
      </trkpt>
      <trkpt lat="43.07369167" lon="-7.17696167">
        <ele>733.0</ele>
        <time>2022-06-19T11:42:24.001Z</time>
      </trkpt>
      <trkpt lat="43.07365667" lon="-7.17700833">
        <ele>733.0</ele>
        <time>2022-06-19T11:42:25.016Z</time>
      </trkpt>
      <trkpt lat="43.07364333" lon="-7.17702833">
        <ele>733.0</ele>
        <time>2022-06-19T11:42:26.024Z</time>
      </trkpt>
      <trkpt lat="43.07364333" lon="-7.17702833">
        <ele>733.0</ele>
        <time>2022-06-19T11:42:27.030Z</time>
      </trkpt>
      <trkpt lat="43.07361667" lon="-7.177075">
        <ele>733.0</ele>
        <time>2022-06-19T11:42:28.021Z</time>
      </trkpt>
      <trkpt lat="43.07361667" lon="-7.177075">
        <ele>733.0</ele>
        <time>2022-06-19T11:42:29.028Z</time>
      </trkpt>
      <trkpt lat="43.07358167" lon="-7.17712167">
        <ele>733.0</ele>
        <time>2022-06-19T11:42:30.015Z</time>
      </trkpt>
      <trkpt lat="43.07358167" lon="-7.17712167">
        <ele>733.0</ele>
        <time>2022-06-19T11:42:31.021Z</time>
      </trkpt>
      <trkpt lat="43.07355333" lon="-7.17717333">
        <ele>733.0</ele>
        <time>2022-06-19T11:42:32.015Z</time>
      </trkpt>
      <trkpt lat="43.07355333" lon="-7.17717333">
        <ele>733.0</ele>
        <time>2022-06-19T11:42:33.021Z</time>
      </trkpt>
      <trkpt lat="43.07353333" lon="-7.17722167">
        <ele>733.0</ele>
        <time>2022-06-19T11:42:34.001Z</time>
      </trkpt>
      <trkpt lat="43.07353333" lon="-7.17722167">
        <ele>733.0</ele>
        <time>2022-06-19T11:42:35.007Z</time>
      </trkpt>
      <trkpt lat="43.07352" lon="-7.17727167">
        <ele>734.0</ele>
        <time>2022-06-19T11:42:35.999Z</time>
      </trkpt>
      <trkpt lat="43.07352" lon="-7.17727167">
        <ele>734.0</ele>
        <time>2022-06-19T11:42:37.006Z</time>
      </trkpt>
      <trkpt lat="43.07351" lon="-7.177325">
        <ele>734.0</ele>
        <time>2022-06-19T11:42:38.006Z</time>
      </trkpt>
      <trkpt lat="43.073505" lon="-7.17736167">
        <ele>734.0</ele>
        <time>2022-06-19T11:42:39.004Z</time>
      </trkpt>
      <trkpt lat="43.073505" lon="-7.17736167">
        <ele>734.0</ele>
        <time>2022-06-19T11:42:40.010Z</time>
      </trkpt>
      <trkpt lat="43.07348667" lon="-7.17740333">
        <ele>734.0</ele>
        <time>2022-06-19T11:42:41.017Z</time>
      </trkpt>
      <trkpt lat="43.07348667" lon="-7.17740333">
        <ele>734.0</ele>
        <time>2022-06-19T11:42:41.998Z</time>
      </trkpt>
      <trkpt lat="43.07347333" lon="-7.17745167">
        <ele>735.0</ele>
        <time>2022-06-19T11:42:43.005Z</time>
      </trkpt>
      <trkpt lat="43.073465" lon="-7.177475">
        <ele>735.0</ele>
        <time>2022-06-19T11:42:44.035Z</time>
      </trkpt>
      <trkpt lat="43.07345667" lon="-7.17749667">
        <ele>735.0</ele>
        <time>2022-06-19T11:42:45.008Z</time>
      </trkpt>
      <trkpt lat="43.07345667" lon="-7.17749667">
        <ele>735.0</ele>
        <time>2022-06-19T11:42:46.035Z</time>
      </trkpt>
      <trkpt lat="43.073435" lon="-7.17754167">
        <ele>736.0</ele>
        <time>2022-06-19T11:42:47.004Z</time>
      </trkpt>
      <trkpt lat="43.073435" lon="-7.17754167">
        <ele>736.0</ele>
        <time>2022-06-19T11:42:48.010Z</time>
      </trkpt>
      <trkpt lat="43.07341667" lon="-7.177585">
        <ele>736.0</ele>
        <time>2022-06-19T11:42:49.000Z</time>
      </trkpt>
      <trkpt lat="43.07341" lon="-7.17760833">
        <ele>736.0</ele>
        <time>2022-06-19T11:42:50.035Z</time>
      </trkpt>
      <trkpt lat="43.07340333" lon="-7.17762833">
        <ele>736.0</ele>
        <time>2022-06-19T11:42:50.999Z</time>
      </trkpt>
      <trkpt lat="43.07340333" lon="-7.17762833">
        <ele>736.0</ele>
        <time>2022-06-19T11:42:52.005Z</time>
      </trkpt>
      <trkpt lat="43.07339" lon="-7.17766333">
        <ele>736.0</ele>
        <time>2022-06-19T11:42:53.012Z</time>
      </trkpt>
      <trkpt lat="43.07339" lon="-7.17766333">
        <ele>736.0</ele>
        <time>2022-06-19T11:42:54.018Z</time>
      </trkpt>
      <trkpt lat="43.07337667" lon="-7.17769167">
        <ele>737.0</ele>
        <time>2022-06-19T11:42:55.015Z</time>
      </trkpt>
      <trkpt lat="43.07337667" lon="-7.17769167">
        <ele>737.0</ele>
        <time>2022-06-19T11:42:56.021Z</time>
      </trkpt>
      <trkpt lat="43.07336167" lon="-7.17773667">
        <ele>737.0</ele>
        <time>2022-06-19T11:42:57.018Z</time>
      </trkpt>
      <trkpt lat="43.07336167" lon="-7.17773667">
        <ele>737.0</ele>
        <time>2022-06-19T11:42:58.024Z</time>
      </trkpt>
      <trkpt lat="43.07333833" lon="-7.17778167">
        <ele>737.0</ele>
        <time>2022-06-19T11:42:59.015Z</time>
      </trkpt>
      <trkpt lat="43.07333833" lon="-7.17778167">
        <ele>737.0</ele>
        <time>2022-06-19T11:43:00.035Z</time>
      </trkpt>
      <trkpt lat="43.073315" lon="-7.17781833">
        <ele>738.0</ele>
        <time>2022-06-19T11:43:01.035Z</time>
      </trkpt>
      <trkpt lat="43.07330333" lon="-7.17783333">
        <ele>738.0</ele>
        <time>2022-06-19T11:43:02.002Z</time>
      </trkpt>
      <trkpt lat="43.07330333" lon="-7.17783333">
        <ele>738.0</ele>
        <time>2022-06-19T11:43:03.008Z</time>
      </trkpt>
      <trkpt lat="43.07327333" lon="-7.17785833">
        <ele>738.0</ele>
        <time>2022-06-19T11:43:04.031Z</time>
      </trkpt>
      <trkpt lat="43.073255" lon="-7.17788167">
        <ele>738.0</ele>
        <time>2022-06-19T11:43:05.025Z</time>
      </trkpt>
      <trkpt lat="43.073255" lon="-7.17788167">
        <ele>738.0</ele>
        <time>2022-06-19T11:43:06.031Z</time>
      </trkpt>
      <trkpt lat="43.07321833" lon="-7.17794833">
        <ele>738.0</ele>
        <time>2022-06-19T11:43:07.035Z</time>
      </trkpt>
      <trkpt lat="43.07321833" lon="-7.17794833">
        <ele>738.0</ele>
        <time>2022-06-19T11:43:08.001Z</time>
      </trkpt>
      <trkpt lat="43.07318333" lon="-7.17800833">
        <ele>738.0</ele>
        <time>2022-06-19T11:43:09.027Z</time>
      </trkpt>
      <trkpt lat="43.07318333" lon="-7.17800833">
        <ele>738.0</ele>
        <time>2022-06-19T11:43:10.034Z</time>
      </trkpt>
      <trkpt lat="43.07315333" lon="-7.17809667">
        <ele>738.0</ele>
        <time>2022-06-19T11:43:11.002Z</time>
      </trkpt>
      <trkpt lat="43.07315333" lon="-7.17809667">
        <ele>738.0</ele>
        <time>2022-06-19T11:43:12.008Z</time>
      </trkpt>
      <trkpt lat="43.07312333" lon="-7.17816667">
        <ele>738.0</ele>
        <time>2022-06-19T11:43:13.005Z</time>
      </trkpt>
      <trkpt lat="43.073105" lon="-7.17819833">
        <ele>738.0</ele>
        <time>2022-06-19T11:43:13.999Z</time>
      </trkpt>
      <trkpt lat="43.073105" lon="-7.17819833">
        <ele>738.0</ele>
        <time>2022-06-19T11:43:15.005Z</time>
      </trkpt>
      <trkpt lat="43.07307167" lon="-7.178265">
        <ele>739.0</ele>
        <time>2022-06-19T11:43:15.998Z</time>
      </trkpt>
      <trkpt lat="43.07307167" lon="-7.178265">
        <ele>739.0</ele>
        <time>2022-06-19T11:43:17.004Z</time>
      </trkpt>
      <trkpt lat="43.07303333" lon="-7.17832">
        <ele>739.0</ele>
        <time>2022-06-19T11:43:18.036Z</time>
      </trkpt>
      <trkpt lat="43.07302" lon="-7.17835">
        <ele>739.0</ele>
        <time>2022-06-19T11:43:19.008Z</time>
      </trkpt>
      <trkpt lat="43.07302" lon="-7.17835">
        <ele>739.0</ele>
        <time>2022-06-19T11:43:20.014Z</time>
      </trkpt>
      <trkpt lat="43.07299" lon="-7.17840667">
        <ele>740.0</ele>
        <time>2022-06-19T11:43:21.034Z</time>
      </trkpt>
      <trkpt lat="43.07299" lon="-7.17840667">
        <ele>740.0</ele>
        <time>2022-06-19T11:43:22.001Z</time>
      </trkpt>
      <trkpt lat="43.07295833" lon="-7.17845667">
        <ele>740.0</ele>
        <time>2022-06-19T11:43:22.999Z</time>
      </trkpt>
      <trkpt lat="43.07295833" lon="-7.17845667">
        <ele>740.0</ele>
        <time>2022-06-19T11:43:24.005Z</time>
      </trkpt>
      <trkpt lat="43.07293167" lon="-7.17848333">
        <ele>740.0</ele>
        <time>2022-06-19T11:43:25.005Z</time>
      </trkpt>
      <trkpt lat="43.07292" lon="-7.178505">
        <ele>740.0</ele>
        <time>2022-06-19T11:43:26.034Z</time>
      </trkpt>
      <trkpt lat="43.07292" lon="-7.178505">
        <ele>740.0</ele>
        <time>2022-06-19T11:43:27.000Z</time>
      </trkpt>
      <trkpt lat="43.07289167" lon="-7.17852667">
        <ele>741.0</ele>
        <time>2022-06-19T11:43:28.029Z</time>
      </trkpt>
      <trkpt lat="43.07287167" lon="-7.17854333">
        <ele>741.0</ele>
        <time>2022-06-19T11:43:29.017Z</time>
      </trkpt>
      <trkpt lat="43.07287167" lon="-7.17854333">
        <ele>741.0</ele>
        <time>2022-06-19T11:43:30.023Z</time>
      </trkpt>
      <trkpt lat="43.07283667" lon="-7.17855333">
        <ele>741.0</ele>
        <time>2022-06-19T11:43:31.017Z</time>
      </trkpt>
      <trkpt lat="43.07282167" lon="-7.17855667">
        <ele>741.0</ele>
        <time>2022-06-19T11:43:32.009Z</time>
      </trkpt>
      <trkpt lat="43.07282167" lon="-7.17855667">
        <ele>741.0</ele>
        <time>2022-06-19T11:43:33.015Z</time>
      </trkpt>
      <trkpt lat="43.0728" lon="-7.178595">
        <ele>741.0</ele>
        <time>2022-06-19T11:43:34.007Z</time>
      </trkpt>
      <trkpt lat="43.0728" lon="-7.178595">
        <ele>741.0</ele>
        <time>2022-06-19T11:43:35.013Z</time>
      </trkpt>
      <trkpt lat="43.072785" lon="-7.17862833">
        <ele>742.0</ele>
        <time>2022-06-19T11:43:35.998Z</time>
      </trkpt>
      <trkpt lat="43.072785" lon="-7.17862833">
        <ele>742.0</ele>
        <time>2022-06-19T11:43:37.004Z</time>
      </trkpt>
      <trkpt lat="43.07276333" lon="-7.17866">
        <ele>742.0</ele>
        <time>2022-06-19T11:43:38.032Z</time>
      </trkpt>
      <trkpt lat="43.07276333" lon="-7.17866">
        <ele>742.0</ele>
        <time>2022-06-19T11:43:39.002Z</time>
      </trkpt>
      <trkpt lat="43.07274333" lon="-7.17871333">
        <ele>742.0</ele>
        <time>2022-06-19T11:43:40.000Z</time>
      </trkpt>
      <trkpt lat="43.07274333" lon="-7.17871333">
        <ele>742.0</ele>
        <time>2022-06-19T11:43:41.006Z</time>
      </trkpt>
      <trkpt lat="43.072705" lon="-7.17876167">
        <ele>743.0</ele>
        <time>2022-06-19T11:43:42.004Z</time>
      </trkpt>
      <trkpt lat="43.072705" lon="-7.17876167">
        <ele>743.0</ele>
        <time>2022-06-19T11:43:43.009Z</time>
      </trkpt>
      <trkpt lat="43.07265833" lon="-7.17881">
        <ele>743.0</ele>
        <time>2022-06-19T11:43:44.002Z</time>
      </trkpt>
      <trkpt lat="43.07263833" lon="-7.178825">
        <ele>743.0</ele>
        <time>2022-06-19T11:43:44.997Z</time>
      </trkpt>
      <trkpt lat="43.07263833" lon="-7.178825">
        <ele>743.0</ele>
        <time>2022-06-19T11:43:46.018Z</time>
      </trkpt>
      <trkpt lat="43.07260667" lon="-7.17884333">
        <ele>744.0</ele>
        <time>2022-06-19T11:43:47.034Z</time>
      </trkpt>
      <trkpt lat="43.07259667" lon="-7.17887333">
        <ele>744.0</ele>
        <time>2022-06-19T11:43:48.000Z</time>
      </trkpt>
      <trkpt lat="43.07259667" lon="-7.17887333">
        <ele>744.0</ele>
        <time>2022-06-19T11:43:49.006Z</time>
      </trkpt>
      <trkpt lat="43.072575" lon="-7.17889833">
        <ele>744.0</ele>
        <time>2022-06-19T11:43:50.035Z</time>
      </trkpt>
      <trkpt lat="43.072575" lon="-7.17889833">
        <ele>744.0</ele>
        <time>2022-06-19T11:43:51.001Z</time>
      </trkpt>
      <trkpt lat="43.07256333" lon="-7.17892167">
        <ele>745.0</ele>
        <time>2022-06-19T11:43:52.029Z</time>
      </trkpt>
      <trkpt lat="43.07255833" lon="-7.17892833">
        <ele>745.0</ele>
        <time>2022-06-19T11:43:53.016Z</time>
      </trkpt>
      <trkpt lat="43.07255833" lon="-7.17892833">
        <ele>745.0</ele>
        <time>2022-06-19T11:43:54.022Z</time>
      </trkpt>
      <trkpt lat="43.072545" lon="-7.178945">
        <ele>745.0</ele>
        <time>2022-06-19T11:43:55.007Z</time>
      </trkpt>
      <trkpt lat="43.07253833" lon="-7.17895833">
        <ele>745.0</ele>
        <time>2022-06-19T11:43:56.035Z</time>
      </trkpt>
      <trkpt lat="43.07253833" lon="-7.17895833">
        <ele>745.0</ele>
        <time>2022-06-19T11:43:57.001Z</time>
      </trkpt>
      <trkpt lat="43.07252" lon="-7.178985">
        <ele>745.0</ele>
        <time>2022-06-19T11:43:58.014Z</time>
      </trkpt>
      <trkpt lat="43.07252" lon="-7.178985">
        <ele>745.0</ele>
        <time>2022-06-19T11:43:59.020Z</time>
      </trkpt>
      <trkpt lat="43.072505" lon="-7.17901">
        <ele>745.0</ele>
        <time>2022-06-19T11:44:00.015Z</time>
      </trkpt>
      <trkpt lat="43.072505" lon="-7.17901">
        <ele>745.0</ele>
        <time>2022-06-19T11:44:01.021Z</time>
      </trkpt>
      <trkpt lat="43.072485" lon="-7.179025">
        <ele>746.0</ele>
        <time>2022-06-19T11:44:02.013Z</time>
      </trkpt>
      <trkpt lat="43.072485" lon="-7.179025">
        <ele>746.0</ele>
        <time>2022-06-19T11:44:03.019Z</time>
      </trkpt>
      <trkpt lat="43.07248" lon="-7.17904833">
        <ele>746.0</ele>
        <time>2022-06-19T11:44:04.032Z</time>
      </trkpt>
      <trkpt lat="43.07248167" lon="-7.179055">
        <ele>746.0</ele>
        <time>2022-06-19T11:44:05.035Z</time>
      </trkpt>
      <trkpt lat="43.07248167" lon="-7.17906167">
        <ele>746.0</ele>
        <time>2022-06-19T11:44:06.011Z</time>
      </trkpt>
      <trkpt lat="43.07248167" lon="-7.17906167">
        <ele>746.0</ele>
        <time>2022-06-19T11:44:14.524Z</time>
      </trkpt>
      <trkpt lat="43.07240333" lon="-7.17901667">
        <ele>745.0</ele>
        <time>2022-06-19T11:44:15.510Z</time>
      </trkpt>
      <trkpt lat="43.07240333" lon="-7.17901667">
        <ele>745.0</ele>
        <time>2022-06-19T11:44:16.505Z</time>
      </trkpt>
      <trkpt lat="43.072375" lon="-7.17896167">
        <ele>745.0</ele>
        <time>2022-06-19T11:44:17.511Z</time>
      </trkpt>
      <trkpt lat="43.072375" lon="-7.17896167">
        <ele>745.0</ele>
        <time>2022-06-19T11:44:18.524Z</time>
      </trkpt>
      <trkpt lat="43.07234833" lon="-7.17891167">
        <ele>745.0</ele>
        <time>2022-06-19T11:44:19.498Z</time>
      </trkpt>
      <trkpt lat="43.07234833" lon="-7.17891167">
        <ele>745.0</ele>
        <time>2022-06-19T11:44:20.521Z</time>
      </trkpt>
      <trkpt lat="43.07232833" lon="-7.17887667">
        <ele>745.0</ele>
        <time>2022-06-19T11:44:21.509Z</time>
      </trkpt>
      <trkpt lat="43.07232833" lon="-7.17887667">
        <ele>745.0</ele>
        <time>2022-06-19T11:44:22.518Z</time>
      </trkpt>
      <trkpt lat="43.07231833" lon="-7.17882667">
        <ele>746.0</ele>
        <time>2022-06-19T11:44:23.498Z</time>
      </trkpt>
      <trkpt lat="43.072315" lon="-7.17880167">
        <ele>746.0</ele>
        <time>2022-06-19T11:44:24.500Z</time>
      </trkpt>
      <trkpt lat="43.072315" lon="-7.17880167">
        <ele>746.0</ele>
        <time>2022-06-19T11:44:25.531Z</time>
      </trkpt>
      <trkpt lat="43.07229667" lon="-7.17873833">
        <ele>746.0</ele>
        <time>2022-06-19T11:44:26.532Z</time>
      </trkpt>
      <trkpt lat="43.072295" lon="-7.17870667">
        <ele>746.0</ele>
        <time>2022-06-19T11:44:27.503Z</time>
      </trkpt>
      <trkpt lat="43.07229167" lon="-7.17865833">
        <ele>746.0</ele>
        <time>2022-06-19T11:44:28.517Z</time>
      </trkpt>
      <trkpt lat="43.07229167" lon="-7.17865833">
        <ele>746.0</ele>
        <time>2022-06-19T11:44:29.536Z</time>
      </trkpt>
      <trkpt lat="43.07228833" lon="-7.17857167">
        <ele>746.0</ele>
        <time>2022-06-19T11:44:30.512Z</time>
      </trkpt>
      <trkpt lat="43.07228833" lon="-7.17857167">
        <ele>746.0</ele>
        <time>2022-06-19T11:44:31.534Z</time>
      </trkpt>
      <trkpt lat="43.07223333" lon="-7.17847">
        <ele>746.0</ele>
        <time>2022-06-19T11:44:32.520Z</time>
      </trkpt>
      <trkpt lat="43.07221" lon="-7.17842833">
        <ele>745.0</ele>
        <time>2022-06-19T11:44:33.503Z</time>
      </trkpt>
      <trkpt lat="43.07221" lon="-7.17842833">
        <ele>745.0</ele>
        <time>2022-06-19T11:44:34.517Z</time>
      </trkpt>
      <trkpt lat="43.072185" lon="-7.17839667">
        <ele>745.0</ele>
        <time>2022-06-19T11:44:35.526Z</time>
      </trkpt>
      <trkpt lat="43.072185" lon="-7.17839667">
        <ele>745.0</ele>
        <time>2022-06-19T11:44:36.525Z</time>
      </trkpt>
      <trkpt lat="43.07216333" lon="-7.17837">
        <ele>745.0</ele>
        <time>2022-06-19T11:44:37.505Z</time>
      </trkpt>
      <trkpt lat="43.07216333" lon="-7.17837">
        <ele>745.0</ele>
        <time>2022-06-19T11:44:38.526Z</time>
      </trkpt>
      <trkpt lat="43.07215" lon="-7.17835">
        <ele>745.0</ele>
        <time>2022-06-19T11:44:39.512Z</time>
      </trkpt>
      <trkpt lat="43.07214167" lon="-7.178335">
        <ele>745.0</ele>
        <time>2022-06-19T11:44:40.505Z</time>
      </trkpt>
      <trkpt lat="43.07214167" lon="-7.178335">
        <ele>745.0</ele>
        <time>2022-06-19T11:44:41.506Z</time>
      </trkpt>
      <trkpt lat="43.07211333" lon="-7.17830333">
        <ele>745.0</ele>
        <time>2022-06-19T11:44:42.528Z</time>
      </trkpt>
      <trkpt lat="43.07210333" lon="-7.17828167">
        <ele>745.0</ele>
        <time>2022-06-19T11:44:43.504Z</time>
      </trkpt>
      <trkpt lat="43.07210333" lon="-7.17828167">
        <ele>745.0</ele>
        <time>2022-06-19T11:44:44.510Z</time>
      </trkpt>
      <trkpt lat="43.072085" lon="-7.17824667">
        <ele>745.0</ele>
        <time>2022-06-19T11:44:45.535Z</time>
      </trkpt>
      <trkpt lat="43.072085" lon="-7.17824667">
        <ele>745.0</ele>
        <time>2022-06-19T11:44:46.516Z</time>
      </trkpt>
      <trkpt lat="43.07206667" lon="-7.17820833">
        <ele>745.0</ele>
        <time>2022-06-19T11:44:47.537Z</time>
      </trkpt>
      <trkpt lat="43.07205833" lon="-7.17818167">
        <ele>745.0</ele>
        <time>2022-06-19T11:44:48.533Z</time>
      </trkpt>
      <trkpt lat="43.07205" lon="-7.17816167">
        <ele>745.0</ele>
        <time>2022-06-19T11:44:49.520Z</time>
      </trkpt>
      <trkpt lat="43.07205" lon="-7.17816167">
        <ele>745.0</ele>
        <time>2022-06-19T11:44:50.498Z</time>
      </trkpt>
      <trkpt lat="43.072035" lon="-7.17812167">
        <ele>744.0</ele>
        <time>2022-06-19T11:44:51.523Z</time>
      </trkpt>
      <trkpt lat="43.072035" lon="-7.17812167">
        <ele>744.0</ele>
        <time>2022-06-19T11:44:52.499Z</time>
      </trkpt>
      <trkpt lat="43.07204167" lon="-7.17812333">
        <ele>744.0</ele>
        <time>2022-06-19T11:44:53.519Z</time>
      </trkpt>
      <trkpt lat="43.07204167" lon="-7.17812333">
        <ele>744.0</ele>
        <time>2022-06-19T11:44:54.525Z</time>
      </trkpt>
      <trkpt lat="43.072045" lon="-7.17812333">
        <ele>744.0</ele>
        <time>2022-06-19T11:44:55.520Z</time>
      </trkpt>
      <trkpt lat="43.072045" lon="-7.17812333">
        <ele>744.0</ele>
        <time>2022-06-19T11:45:05.525Z</time>
      </trkpt>
      <trkpt lat="43.072045" lon="-7.17812333">
        <ele>744.0</ele>
        <time>2022-06-19T11:45:06.522Z</time>
      </trkpt>
      <trkpt lat="43.07198833" lon="-7.17805833">
        <ele>744.0</ele>
        <time>2022-06-19T11:45:07.502Z</time>
      </trkpt>
      <trkpt lat="43.07198167" lon="-7.17804667">
        <ele>744.0</ele>
        <time>2022-06-19T11:45:08.527Z</time>
      </trkpt>
      <trkpt lat="43.07198167" lon="-7.17804667">
        <ele>744.0</ele>
        <time>2022-06-19T11:45:09.525Z</time>
      </trkpt>
      <trkpt lat="43.071975" lon="-7.17803167">
        <ele>744.0</ele>
        <time>2022-06-19T11:45:10.532Z</time>
      </trkpt>
      <trkpt lat="43.071975" lon="-7.17803167">
        <ele>744.0</ele>
        <time>2022-06-19T11:45:11.514Z</time>
      </trkpt>
      <trkpt lat="43.07196333" lon="-7.17801333">
        <ele>744.0</ele>
        <time>2022-06-19T11:45:12.515Z</time>
      </trkpt>
      <trkpt lat="43.07195667" lon="-7.17800167">
        <ele>745.0</ele>
        <time>2022-06-19T11:45:13.530Z</time>
      </trkpt>
      <trkpt lat="43.07195667" lon="-7.17800167">
        <ele>745.0</ele>
        <time>2022-06-19T11:45:14.505Z</time>
      </trkpt>
      <trkpt lat="43.071935" lon="-7.17798833">
        <ele>745.0</ele>
        <time>2022-06-19T11:45:15.521Z</time>
      </trkpt>
      <trkpt lat="43.071935" lon="-7.17798833">
        <ele>745.0</ele>
        <time>2022-06-19T11:45:16.514Z</time>
      </trkpt>
      <trkpt lat="43.07192833" lon="-7.17797667">
        <ele>745.0</ele>
        <time>2022-06-19T11:45:17.501Z</time>
      </trkpt>
      <trkpt lat="43.07192833" lon="-7.17797667">
        <ele>745.0</ele>
        <time>2022-06-19T11:45:18.518Z</time>
      </trkpt>
      <trkpt lat="43.07192667" lon="-7.17796833">
        <ele>745.0</ele>
        <time>2022-06-19T11:45:19.530Z</time>
      </trkpt>
      <trkpt lat="43.07192667" lon="-7.17796833">
        <ele>745.0</ele>
        <time>2022-06-19T11:45:22.002Z</time>
      </trkpt>
      <trkpt lat="43.07192667" lon="-7.17796833">
        <ele>745.0</ele>
        <time>2022-06-19T11:45:23.007Z</time>
      </trkpt>
      <trkpt lat="43.07190667" lon="-7.17790667">
        <ele>745.0</ele>
        <time>2022-06-19T11:45:24.013Z</time>
      </trkpt>
      <trkpt lat="43.07189833" lon="-7.17788833">
        <ele>745.0</ele>
        <time>2022-06-19T11:45:25.005Z</time>
      </trkpt>
      <trkpt lat="43.07189833" lon="-7.17788833">
        <ele>745.0</ele>
        <time>2022-06-19T11:45:26.035Z</time>
      </trkpt>
      <trkpt lat="43.07188333" lon="-7.177845">
        <ele>745.0</ele>
        <time>2022-06-19T11:45:27.033Z</time>
      </trkpt>
      <trkpt lat="43.07188333" lon="-7.177845">
        <ele>745.0</ele>
        <time>2022-06-19T11:45:27.999Z</time>
      </trkpt>
      <trkpt lat="43.07187333" lon="-7.177795">
        <ele>745.0</ele>
        <time>2022-06-19T11:45:29.008Z</time>
      </trkpt>
      <trkpt lat="43.07187333" lon="-7.177795">
        <ele>745.0</ele>
        <time>2022-06-19T11:45:30.014Z</time>
      </trkpt>
      <trkpt lat="43.07186167" lon="-7.17774167">
        <ele>745.0</ele>
        <time>2022-06-19T11:45:31.014Z</time>
      </trkpt>
      <trkpt lat="43.07185667" lon="-7.17772">
        <ele>745.0</ele>
        <time>2022-06-19T11:45:32.031Z</time>
      </trkpt>
      <trkpt lat="43.07185667" lon="-7.17772">
        <ele>745.0</ele>
        <time>2022-06-19T11:45:33.037Z</time>
      </trkpt>
      <trkpt lat="43.07184667" lon="-7.17767333">
        <ele>745.0</ele>
        <time>2022-06-19T11:45:34.011Z</time>
      </trkpt>
      <trkpt lat="43.07184667" lon="-7.17767333">
        <ele>745.0</ele>
        <time>2022-06-19T11:45:35.017Z</time>
      </trkpt>
      <trkpt lat="43.071835" lon="-7.17763333">
        <ele>746.0</ele>
        <time>2022-06-19T11:45:36.005Z</time>
      </trkpt>
      <trkpt lat="43.071835" lon="-7.17763333">
        <ele>746.0</ele>
        <time>2022-06-19T11:45:37.012Z</time>
      </trkpt>
      <trkpt lat="43.071815" lon="-7.1776">
        <ele>746.0</ele>
        <time>2022-06-19T11:45:38.035Z</time>
      </trkpt>
      <trkpt lat="43.071815" lon="-7.1776">
        <ele>746.0</ele>
        <time>2022-06-19T11:45:39.000Z</time>
      </trkpt>
      <trkpt lat="43.07179" lon="-7.17754833">
        <ele>746.0</ele>
        <time>2022-06-19T11:45:40.023Z</time>
      </trkpt>
      <trkpt lat="43.07178" lon="-7.17752">
        <ele>746.0</ele>
        <time>2022-06-19T11:45:41.014Z</time>
      </trkpt>
      <trkpt lat="43.07178" lon="-7.17752">
        <ele>746.0</ele>
        <time>2022-06-19T11:45:42.021Z</time>
      </trkpt>
      <trkpt lat="43.07176" lon="-7.17746">
        <ele>746.0</ele>
        <time>2022-06-19T11:45:43.037Z</time>
      </trkpt>
      <trkpt lat="43.07176" lon="-7.17746">
        <ele>746.0</ele>
        <time>2022-06-19T11:45:44.003Z</time>
      </trkpt>
      <trkpt lat="43.071745" lon="-7.17741167">
        <ele>746.0</ele>
        <time>2022-06-19T11:45:45.034Z</time>
      </trkpt>
      <trkpt lat="43.07172833" lon="-7.177385">
        <ele>746.0</ele>
        <time>2022-06-19T11:45:46.027Z</time>
      </trkpt>
      <trkpt lat="43.07172833" lon="-7.177385">
        <ele>746.0</ele>
        <time>2022-06-19T11:45:47.033Z</time>
      </trkpt>
      <trkpt lat="43.07171333" lon="-7.17732667">
        <ele>746.0</ele>
        <time>2022-06-19T11:45:48.031Z</time>
      </trkpt>
      <trkpt lat="43.07171333" lon="-7.17732667">
        <ele>746.0</ele>
        <time>2022-06-19T11:45:49.037Z</time>
      </trkpt>
      <trkpt lat="43.07169167" lon="-7.17726833">
        <ele>746.0</ele>
        <time>2022-06-19T11:45:50.028Z</time>
      </trkpt>
      <trkpt lat="43.07169167" lon="-7.17726833">
        <ele>746.0</ele>
        <time>2022-06-19T11:45:51.034Z</time>
      </trkpt>
      <trkpt lat="43.071695" lon="-7.17718833">
        <ele>745.0</ele>
        <time>2022-06-19T11:45:52.026Z</time>
      </trkpt>
      <trkpt lat="43.071695" lon="-7.17718833">
        <ele>745.0</ele>
        <time>2022-06-19T11:45:53.031Z</time>
      </trkpt>
      <trkpt lat="43.07170333" lon="-7.177115">
        <ele>745.0</ele>
        <time>2022-06-19T11:45:54.034Z</time>
      </trkpt>
      <trkpt lat="43.07170333" lon="-7.17708167">
        <ele>744.0</ele>
        <time>2022-06-19T11:45:55.030Z</time>
      </trkpt>
      <trkpt lat="43.07169667" lon="-7.17705333">
        <ele>744.0</ele>
        <time>2022-06-19T11:45:56.022Z</time>
      </trkpt>
      <trkpt lat="43.07169667" lon="-7.17705333">
        <ele>744.0</ele>
        <time>2022-06-19T11:45:57.028Z</time>
      </trkpt>
      <trkpt lat="43.071685" lon="-7.17697333">
        <ele>744.0</ele>
        <time>2022-06-19T11:45:58.035Z</time>
      </trkpt>
      <trkpt lat="43.071685" lon="-7.17697333">
        <ele>744.0</ele>
        <time>2022-06-19T11:45:59.001Z</time>
      </trkpt>
      <trkpt lat="43.07167833" lon="-7.17688167">
        <ele>743.0</ele>
        <time>2022-06-19T11:46:00.000Z</time>
      </trkpt>
      <trkpt lat="43.07167833" lon="-7.17688167">
        <ele>743.0</ele>
        <time>2022-06-19T11:46:01.012Z</time>
      </trkpt>
      <trkpt lat="43.07164667" lon="-7.17679667">
        <ele>743.0</ele>
        <time>2022-06-19T11:46:02.001Z</time>
      </trkpt>
      <trkpt lat="43.07164667" lon="-7.17679667">
        <ele>743.0</ele>
        <time>2022-06-19T11:46:03.007Z</time>
      </trkpt>
      <trkpt lat="43.071605" lon="-7.17674167">
        <ele>742.0</ele>
        <time>2022-06-19T11:46:04.021Z</time>
      </trkpt>
      <trkpt lat="43.071605" lon="-7.17674167">
        <ele>742.0</ele>
        <time>2022-06-19T11:46:05.004Z</time>
      </trkpt>
      <trkpt lat="43.07155833" lon="-7.17669833">
        <ele>742.0</ele>
        <time>2022-06-19T11:46:06.003Z</time>
      </trkpt>
      <trkpt lat="43.07155833" lon="-7.17669833">
        <ele>742.0</ele>
        <time>2022-06-19T11:46:07.009Z</time>
      </trkpt>
      <trkpt lat="43.07151333" lon="-7.17667333">
        <ele>742.0</ele>
        <time>2022-06-19T11:46:08.021Z</time>
      </trkpt>
      <trkpt lat="43.07149667" lon="-7.17665667">
        <ele>742.0</ele>
        <time>2022-06-19T11:46:09.008Z</time>
      </trkpt>
      <trkpt lat="43.07149667" lon="-7.17665667">
        <ele>742.0</ele>
        <time>2022-06-19T11:46:10.014Z</time>
      </trkpt>
      <trkpt lat="43.07146167" lon="-7.17660833">
        <ele>742.0</ele>
        <time>2022-06-19T11:46:11.013Z</time>
      </trkpt>
      <trkpt lat="43.07146167" lon="-7.17660833">
        <ele>742.0</ele>
        <time>2022-06-19T11:46:12.019Z</time>
      </trkpt>
      <trkpt lat="43.07143833" lon="-7.176565">
        <ele>742.0</ele>
        <time>2022-06-19T11:46:13.024Z</time>
      </trkpt>
      <trkpt lat="43.07143833" lon="-7.176565">
        <ele>742.0</ele>
        <time>2022-06-19T11:46:14.030Z</time>
      </trkpt>
      <trkpt lat="43.07140833" lon="-7.17652833">
        <ele>741.0</ele>
        <time>2022-06-19T11:46:15.032Z</time>
      </trkpt>
      <trkpt lat="43.07139333" lon="-7.17651333">
        <ele>742.0</ele>
        <time>2022-06-19T11:46:16.017Z</time>
      </trkpt>
      <trkpt lat="43.07139333" lon="-7.17651333">
        <ele>742.0</ele>
        <time>2022-06-19T11:46:17.023Z</time>
      </trkpt>
      <trkpt lat="43.07135667" lon="-7.17647">
        <ele>742.0</ele>
        <time>2022-06-19T11:46:18.016Z</time>
      </trkpt>
      <trkpt lat="43.07135667" lon="-7.17647">
        <ele>742.0</ele>
        <time>2022-06-19T11:46:19.022Z</time>
      </trkpt>
      <trkpt lat="43.07133333" lon="-7.176465">
        <ele>742.0</ele>
        <time>2022-06-19T11:46:20.017Z</time>
      </trkpt>
      <trkpt lat="43.07133333" lon="-7.176465">
        <ele>742.0</ele>
        <time>2022-06-19T11:46:21.023Z</time>
      </trkpt>
      <trkpt lat="43.07131" lon="-7.17645333">
        <ele>742.0</ele>
        <time>2022-06-19T11:46:22.031Z</time>
      </trkpt>
      <trkpt lat="43.071295" lon="-7.176445">
        <ele>742.0</ele>
        <time>2022-06-19T11:46:23.006Z</time>
      </trkpt>
      <trkpt lat="43.071295" lon="-7.176445">
        <ele>742.0</ele>
        <time>2022-06-19T11:46:24.018Z</time>
      </trkpt>
      <trkpt lat="43.07126333" lon="-7.17643167">
        <ele>742.0</ele>
        <time>2022-06-19T11:46:25.011Z</time>
      </trkpt>
      <trkpt lat="43.071245" lon="-7.17641833">
        <ele>743.0</ele>
        <time>2022-06-19T11:46:25.999Z</time>
      </trkpt>
      <trkpt lat="43.071245" lon="-7.17641833">
        <ele>743.0</ele>
        <time>2022-06-19T11:46:27.005Z</time>
      </trkpt>
      <trkpt lat="43.07121" lon="-7.17639667">
        <ele>743.0</ele>
        <time>2022-06-19T11:46:27.999Z</time>
      </trkpt>
      <trkpt lat="43.07119167" lon="-7.17638667">
        <ele>743.0</ele>
        <time>2022-06-19T11:46:29.037Z</time>
      </trkpt>
      <trkpt lat="43.07119167" lon="-7.17638667">
        <ele>743.0</ele>
        <time>2022-06-19T11:46:30.003Z</time>
      </trkpt>
      <trkpt lat="43.07115167" lon="-7.17636667">
        <ele>743.0</ele>
        <time>2022-06-19T11:46:31.028Z</time>
      </trkpt>
      <trkpt lat="43.07113333" lon="-7.17636167">
        <ele>743.0</ele>
        <time>2022-06-19T11:46:32.019Z</time>
      </trkpt>
      <trkpt lat="43.07113333" lon="-7.17636167">
        <ele>743.0</ele>
        <time>2022-06-19T11:46:33.025Z</time>
      </trkpt>
      <trkpt lat="43.071095" lon="-7.17635">
        <ele>743.0</ele>
        <time>2022-06-19T11:46:34.021Z</time>
      </trkpt>
      <trkpt lat="43.07107167" lon="-7.17634167">
        <ele>744.0</ele>
        <time>2022-06-19T11:46:35.004Z</time>
      </trkpt>
      <trkpt lat="43.07107167" lon="-7.17634167">
        <ele>744.0</ele>
        <time>2022-06-19T11:46:36.010Z</time>
      </trkpt>
      <trkpt lat="43.07103" lon="-7.17632333">
        <ele>744.0</ele>
        <time>2022-06-19T11:46:37.037Z</time>
      </trkpt>
      <trkpt lat="43.07101167" lon="-7.17631833">
        <ele>744.0</ele>
        <time>2022-06-19T11:46:38.029Z</time>
      </trkpt>
      <trkpt lat="43.070995" lon="-7.17631333">
        <ele>744.0</ele>
        <time>2022-06-19T11:46:39.026Z</time>
      </trkpt>
      <trkpt lat="43.070995" lon="-7.17631333">
        <ele>744.0</ele>
        <time>2022-06-19T11:46:40.033Z</time>
      </trkpt>
      <trkpt lat="43.07095167" lon="-7.17629667">
        <ele>744.0</ele>
        <time>2022-06-19T11:46:41.005Z</time>
      </trkpt>
      <trkpt lat="43.07095167" lon="-7.17629667">
        <ele>744.0</ele>
        <time>2022-06-19T11:46:42.012Z</time>
      </trkpt>
      <trkpt lat="43.07090833" lon="-7.17628833">
        <ele>745.0</ele>
        <time>2022-06-19T11:46:43.014Z</time>
      </trkpt>
      <trkpt lat="43.07088833" lon="-7.17628833">
        <ele>745.0</ele>
        <time>2022-06-19T11:46:44.026Z</time>
      </trkpt>
      <trkpt lat="43.07088833" lon="-7.17628833">
        <ele>745.0</ele>
        <time>2022-06-19T11:46:45.033Z</time>
      </trkpt>
      <trkpt lat="43.07085167" lon="-7.17628333">
        <ele>745.0</ele>
        <time>2022-06-19T11:46:46.028Z</time>
      </trkpt>
      <trkpt lat="43.07083167" lon="-7.17628">
        <ele>746.0</ele>
        <time>2022-06-19T11:46:47.005Z</time>
      </trkpt>
      <trkpt lat="43.07083167" lon="-7.17628">
        <ele>746.0</ele>
        <time>2022-06-19T11:46:48.011Z</time>
      </trkpt>
      <trkpt lat="43.070795" lon="-7.17629167">
        <ele>746.0</ele>
        <time>2022-06-19T11:46:49.012Z</time>
      </trkpt>
      <trkpt lat="43.07077" lon="-7.17628667">
        <ele>746.0</ele>
        <time>2022-06-19T11:46:50.035Z</time>
      </trkpt>
      <trkpt lat="43.07077" lon="-7.17628667">
        <ele>746.0</ele>
        <time>2022-06-19T11:46:51.001Z</time>
      </trkpt>
      <trkpt lat="43.070725" lon="-7.17628167">
        <ele>746.0</ele>
        <time>2022-06-19T11:46:52.015Z</time>
      </trkpt>
      <trkpt lat="43.07070667" lon="-7.17628">
        <ele>747.0</ele>
        <time>2022-06-19T11:46:53.009Z</time>
      </trkpt>
      <trkpt lat="43.07070667" lon="-7.17628">
        <ele>747.0</ele>
        <time>2022-06-19T11:46:54.015Z</time>
      </trkpt>
      <trkpt lat="43.07066833" lon="-7.17627667">
        <ele>747.0</ele>
        <time>2022-06-19T11:46:55.001Z</time>
      </trkpt>
      <trkpt lat="43.07064667" lon="-7.17628167">
        <ele>747.0</ele>
        <time>2022-06-19T11:46:56.012Z</time>
      </trkpt>
      <trkpt lat="43.07064667" lon="-7.17628167">
        <ele>747.0</ele>
        <time>2022-06-19T11:46:57.018Z</time>
      </trkpt>
      <trkpt lat="43.0706" lon="-7.17628667">
        <ele>747.0</ele>
        <time>2022-06-19T11:46:58.032Z</time>
      </trkpt>
      <trkpt lat="43.07057833" lon="-7.17629">
        <ele>747.0</ele>
        <time>2022-06-19T11:46:59.020Z</time>
      </trkpt>
      <trkpt lat="43.07055667" lon="-7.17629333">
        <ele>748.0</ele>
        <time>2022-06-19T11:47:00.021Z</time>
      </trkpt>
      <trkpt lat="43.07055667" lon="-7.17629333">
        <ele>748.0</ele>
        <time>2022-06-19T11:47:01.027Z</time>
      </trkpt>
      <trkpt lat="43.070515" lon="-7.1763">
        <ele>748.0</ele>
        <time>2022-06-19T11:47:02.021Z</time>
      </trkpt>
      <trkpt lat="43.070515" lon="-7.1763">
        <ele>748.0</ele>
        <time>2022-06-19T11:47:03.028Z</time>
      </trkpt>
      <trkpt lat="43.070475" lon="-7.17631167">
        <ele>748.0</ele>
        <time>2022-06-19T11:47:04.021Z</time>
      </trkpt>
      <trkpt lat="43.070475" lon="-7.17631167">
        <ele>748.0</ele>
        <time>2022-06-19T11:47:05.002Z</time>
      </trkpt>
      <trkpt lat="43.07043667" lon="-7.17633167">
        <ele>748.0</ele>
        <time>2022-06-19T11:47:06.003Z</time>
      </trkpt>
      <trkpt lat="43.07043667" lon="-7.17633167">
        <ele>748.0</ele>
        <time>2022-06-19T11:47:07.009Z</time>
      </trkpt>
      <trkpt lat="43.070395" lon="-7.17634667">
        <ele>749.0</ele>
        <time>2022-06-19T11:47:08.007Z</time>
      </trkpt>
      <trkpt lat="43.070395" lon="-7.17634667">
        <ele>749.0</ele>
        <time>2022-06-19T11:47:09.013Z</time>
      </trkpt>
      <trkpt lat="43.07035667" lon="-7.17636667">
        <ele>749.0</ele>
        <time>2022-06-19T11:47:10.008Z</time>
      </trkpt>
      <trkpt lat="43.070335" lon="-7.17637833">
        <ele>749.0</ele>
        <time>2022-06-19T11:47:11.001Z</time>
      </trkpt>
      <trkpt lat="43.070335" lon="-7.17637833">
        <ele>749.0</ele>
        <time>2022-06-19T11:47:12.007Z</time>
      </trkpt>
      <trkpt lat="43.07029667" lon="-7.17640167">
        <ele>750.0</ele>
        <time>2022-06-19T11:47:13.001Z</time>
      </trkpt>
      <trkpt lat="43.07027833" lon="-7.17641333">
        <ele>750.0</ele>
        <time>2022-06-19T11:47:14.014Z</time>
      </trkpt>
      <trkpt lat="43.07027833" lon="-7.17641333">
        <ele>750.0</ele>
        <time>2022-06-19T11:47:15.020Z</time>
      </trkpt>
      <trkpt lat="43.07024333" lon="-7.17644">
        <ele>750.0</ele>
        <time>2022-06-19T11:47:16.020Z</time>
      </trkpt>
      <trkpt lat="43.07022333" lon="-7.17645167">
        <ele>750.0</ele>
        <time>2022-06-19T11:47:17.031Z</time>
      </trkpt>
      <trkpt lat="43.07020333" lon="-7.17646167">
        <ele>750.0</ele>
        <time>2022-06-19T11:47:18.025Z</time>
      </trkpt>
      <trkpt lat="43.07020333" lon="-7.17646167">
        <ele>750.0</ele>
        <time>2022-06-19T11:47:19.033Z</time>
      </trkpt>
      <trkpt lat="43.07016333" lon="-7.17648833">
        <ele>751.0</ele>
        <time>2022-06-19T11:47:20.016Z</time>
      </trkpt>
      <trkpt lat="43.07016333" lon="-7.17648833">
        <ele>751.0</ele>
        <time>2022-06-19T11:47:21.024Z</time>
      </trkpt>
      <trkpt lat="43.07012" lon="-7.1765">
        <ele>751.0</ele>
        <time>2022-06-19T11:47:22.016Z</time>
      </trkpt>
      <trkpt lat="43.0701" lon="-7.17650667">
        <ele>751.0</ele>
        <time>2022-06-19T11:47:23.007Z</time>
      </trkpt>
      <trkpt lat="43.0701" lon="-7.17650667">
        <ele>751.0</ele>
        <time>2022-06-19T11:47:24.013Z</time>
      </trkpt>
      <trkpt lat="43.07006167" lon="-7.17652667">
        <ele>751.0</ele>
        <time>2022-06-19T11:47:25.031Z</time>
      </trkpt>
      <trkpt lat="43.07003833" lon="-7.17653333">
        <ele>751.0</ele>
        <time>2022-06-19T11:47:26.032Z</time>
      </trkpt>
      <trkpt lat="43.07003833" lon="-7.17653333">
        <ele>751.0</ele>
        <time>2022-06-19T11:47:27.038Z</time>
      </trkpt>
      <trkpt lat="43.06999167" lon="-7.17655333">
        <ele>751.0</ele>
        <time>2022-06-19T11:47:28.036Z</time>
      </trkpt>
      <trkpt lat="43.06996667" lon="-7.17656">
        <ele>751.0</ele>
        <time>2022-06-19T11:47:29.023Z</time>
      </trkpt>
      <trkpt lat="43.06996667" lon="-7.17656">
        <ele>751.0</ele>
        <time>2022-06-19T11:47:30.029Z</time>
      </trkpt>
      <trkpt lat="43.069915" lon="-7.17656833">
        <ele>751.0</ele>
        <time>2022-06-19T11:47:31.015Z</time>
      </trkpt>
      <trkpt lat="43.06989333" lon="-7.176565">
        <ele>751.0</ele>
        <time>2022-06-19T11:47:32.008Z</time>
      </trkpt>
      <trkpt lat="43.06989333" lon="-7.176565">
        <ele>751.0</ele>
        <time>2022-06-19T11:47:33.014Z</time>
      </trkpt>
      <trkpt lat="43.06986" lon="-7.176535">
        <ele>751.0</ele>
        <time>2022-06-19T11:47:34.023Z</time>
      </trkpt>
      <trkpt lat="43.06985167" lon="-7.17652">
        <ele>751.0</ele>
        <time>2022-06-19T11:47:35.013Z</time>
      </trkpt>
      <trkpt lat="43.06985167" lon="-7.17652">
        <ele>751.0</ele>
        <time>2022-06-19T11:47:36.019Z</time>
      </trkpt>
      <trkpt lat="43.06984333" lon="-7.176505">
        <ele>752.0</ele>
        <time>2022-06-19T11:47:37.010Z</time>
      </trkpt>
      <trkpt lat="43.06983833" lon="-7.17650333">
        <ele>752.0</ele>
        <time>2022-06-19T11:47:38.024Z</time>
      </trkpt>
      <trkpt lat="43.06983833" lon="-7.17650333">
        <ele>752.0</ele>
        <time>2022-06-19T11:47:39.034Z</time>
      </trkpt>
      <trkpt lat="43.069835" lon="-7.17649833">
        <ele>752.0</ele>
        <time>2022-06-19T11:47:52.025Z</time>
      </trkpt>
      <trkpt lat="43.069835" lon="-7.17649833">
        <ele>752.0</ele>
        <time>2022-06-19T11:47:53.011Z</time>
      </trkpt>
      <trkpt lat="43.069765" lon="-7.17642667">
        <ele>752.0</ele>
        <time>2022-06-19T11:47:54.008Z</time>
      </trkpt>
      <trkpt lat="43.069765" lon="-7.17642667">
        <ele>752.0</ele>
        <time>2022-06-19T11:47:55.027Z</time>
      </trkpt>
      <trkpt lat="43.069755" lon="-7.17639833">
        <ele>753.0</ele>
        <time>2022-06-19T11:47:56.029Z</time>
      </trkpt>
      <trkpt lat="43.06973167" lon="-7.176275">
        <ele>754.0</ele>
        <time>2022-06-19T11:48:01.535Z</time>
      </trkpt>
      <trkpt lat="43.06973167" lon="-7.176275">
        <ele>754.0</ele>
        <time>2022-06-19T11:48:02.541Z</time>
      </trkpt>
      <trkpt lat="43.06971" lon="-7.17623167">
        <ele>754.0</ele>
        <time>2022-06-19T11:48:03.508Z</time>
      </trkpt>
      <trkpt lat="43.06971" lon="-7.17623167">
        <ele>754.0</ele>
        <time>2022-06-19T11:48:04.513Z</time>
      </trkpt>
      <trkpt lat="43.06967667" lon="-7.17619833">
        <ele>755.0</ele>
        <time>2022-06-19T11:48:05.535Z</time>
      </trkpt>
      <trkpt lat="43.06967667" lon="-7.17619833">
        <ele>755.0</ele>
        <time>2022-06-19T11:48:06.537Z</time>
      </trkpt>
      <trkpt lat="43.06964167" lon="-7.17615">
        <ele>755.0</ele>
        <time>2022-06-19T11:48:07.527Z</time>
      </trkpt>
      <trkpt lat="43.06964167" lon="-7.17615">
        <ele>755.0</ele>
        <time>2022-06-19T11:48:08.530Z</time>
      </trkpt>
      <trkpt lat="43.06959833" lon="-7.17604833">
        <ele>754.0</ele>
        <time>2022-06-19T11:48:09.528Z</time>
      </trkpt>
      <trkpt lat="43.06957667" lon="-7.176">
        <ele>754.0</ele>
        <time>2022-06-19T11:48:10.516Z</time>
      </trkpt>
      <trkpt lat="43.06957667" lon="-7.176">
        <ele>754.0</ele>
        <time>2022-06-19T11:48:11.524Z</time>
      </trkpt>
      <trkpt lat="43.06956167" lon="-7.17591167">
        <ele>754.0</ele>
        <time>2022-06-19T11:48:12.514Z</time>
      </trkpt>
      <trkpt lat="43.06956167" lon="-7.17591167">
        <ele>754.0</ele>
        <time>2022-06-19T11:48:13.502Z</time>
      </trkpt>
      <trkpt lat="43.06954" lon="-7.17581833">
        <ele>754.0</ele>
        <time>2022-06-19T11:48:14.515Z</time>
      </trkpt>
      <trkpt lat="43.06952667" lon="-7.17577667">
        <ele>754.0</ele>
        <time>2022-06-19T11:48:15.510Z</time>
      </trkpt>
      <trkpt lat="43.06952667" lon="-7.17577667">
        <ele>754.0</ele>
        <time>2022-06-19T11:48:16.510Z</time>
      </trkpt>
      <trkpt lat="43.0695" lon="-7.175695">
        <ele>754.0</ele>
        <time>2022-06-19T11:48:17.526Z</time>
      </trkpt>
      <trkpt lat="43.0695" lon="-7.175695">
        <ele>754.0</ele>
        <time>2022-06-19T11:48:18.503Z</time>
      </trkpt>
      <trkpt lat="43.06947333" lon="-7.17562333">
        <ele>753.0</ele>
        <time>2022-06-19T11:48:19.539Z</time>
      </trkpt>
      <trkpt lat="43.06947333" lon="-7.17562333">
        <ele>753.0</ele>
        <time>2022-06-19T11:48:20.521Z</time>
      </trkpt>
      <trkpt lat="43.06944333" lon="-7.17557">
        <ele>753.0</ele>
        <time>2022-06-19T11:48:21.538Z</time>
      </trkpt>
      <trkpt lat="43.06944333" lon="-7.17557">
        <ele>753.0</ele>
        <time>2022-06-19T11:48:22.537Z</time>
      </trkpt>
      <trkpt lat="43.06940833" lon="-7.17549333">
        <ele>752.0</ele>
        <time>2022-06-19T11:48:23.521Z</time>
      </trkpt>
      <trkpt lat="43.06940833" lon="-7.17549333">
        <ele>752.0</ele>
        <time>2022-06-19T11:48:24.511Z</time>
      </trkpt>
      <trkpt lat="43.06937667" lon="-7.175425">
        <ele>752.0</ele>
        <time>2022-06-19T11:48:25.537Z</time>
      </trkpt>
      <trkpt lat="43.06937667" lon="-7.175425">
        <ele>752.0</ele>
        <time>2022-06-19T11:48:26.535Z</time>
      </trkpt>
      <trkpt lat="43.06936833" lon="-7.17535333">
        <ele>751.0</ele>
        <time>2022-06-19T11:48:27.540Z</time>
      </trkpt>
      <trkpt lat="43.069365" lon="-7.175295">
        <ele>751.0</ele>
        <time>2022-06-19T11:48:28.540Z</time>
      </trkpt>
      <trkpt lat="43.069365" lon="-7.175295">
        <ele>751.0</ele>
        <time>2022-06-19T11:48:29.530Z</time>
      </trkpt>
      <trkpt lat="43.06935333" lon="-7.175185">
        <ele>750.0</ele>
        <time>2022-06-19T11:48:30.522Z</time>
      </trkpt>
      <trkpt lat="43.06935333" lon="-7.175185">
        <ele>750.0</ele>
        <time>2022-06-19T11:48:31.515Z</time>
      </trkpt>
      <trkpt lat="43.06934667" lon="-7.175115">
        <ele>750.0</ele>
        <time>2022-06-19T11:48:32.510Z</time>
      </trkpt>
      <trkpt lat="43.06933333" lon="-7.17509167">
        <ele>749.0</ele>
        <time>2022-06-19T11:48:33.509Z</time>
      </trkpt>
      <trkpt lat="43.06932167" lon="-7.17506667">
        <ele>749.0</ele>
        <time>2022-06-19T11:48:34.525Z</time>
      </trkpt>
      <trkpt lat="43.06932167" lon="-7.17506667">
        <ele>749.0</ele>
        <time>2022-06-19T11:48:35.540Z</time>
      </trkpt>
      <trkpt lat="43.06928167" lon="-7.17500667">
        <ele>748.0</ele>
        <time>2022-06-19T11:48:36.525Z</time>
      </trkpt>
      <trkpt lat="43.06928167" lon="-7.17500667">
        <ele>748.0</ele>
        <time>2022-06-19T11:48:37.530Z</time>
      </trkpt>
      <trkpt lat="43.06926667" lon="-7.174925">
        <ele>747.0</ele>
        <time>2022-06-19T11:48:38.511Z</time>
      </trkpt>
      <trkpt lat="43.06926667" lon="-7.174925">
        <ele>747.0</ele>
        <time>2022-06-19T11:48:39.502Z</time>
      </trkpt>
      <trkpt lat="43.06924833" lon="-7.17485667">
        <ele>746.0</ele>
        <time>2022-06-19T11:48:40.538Z</time>
      </trkpt>
      <trkpt lat="43.06924833" lon="-7.17485667">
        <ele>746.0</ele>
        <time>2022-06-19T11:48:41.534Z</time>
      </trkpt>
      <trkpt lat="43.06923333" lon="-7.17482333">
        <ele>746.0</ele>
        <time>2022-06-19T11:48:42.539Z</time>
      </trkpt>
      <trkpt lat="43.06922833" lon="-7.17480667">
        <ele>746.0</ele>
        <time>2022-06-19T11:48:43.511Z</time>
      </trkpt>
      <trkpt lat="43.06922833" lon="-7.17480667">
        <ele>746.0</ele>
        <time>2022-06-19T11:48:44.515Z</time>
      </trkpt>
      <trkpt lat="43.06921667" lon="-7.17475333">
        <ele>746.0</ele>
        <time>2022-06-19T11:48:45.541Z</time>
      </trkpt>
      <trkpt lat="43.06921667" lon="-7.17475333">
        <ele>746.0</ele>
        <time>2022-06-19T11:48:46.520Z</time>
      </trkpt>
      <trkpt lat="43.0692" lon="-7.174685">
        <ele>746.0</ele>
        <time>2022-06-19T11:48:47.525Z</time>
      </trkpt>
      <trkpt lat="43.06919167" lon="-7.174655">
        <ele>746.0</ele>
        <time>2022-06-19T11:48:48.522Z</time>
      </trkpt>
      <trkpt lat="43.06919167" lon="-7.174655">
        <ele>746.0</ele>
        <time>2022-06-19T11:48:49.541Z</time>
      </trkpt>
      <trkpt lat="43.06916" lon="-7.17458667">
        <ele>745.0</ele>
        <time>2022-06-19T11:48:50.547Z</time>
      </trkpt>
      <trkpt lat="43.06916" lon="-7.17458667">
        <ele>745.0</ele>
        <time>2022-06-19T11:48:51.504Z</time>
      </trkpt>
      <trkpt lat="43.06912833" lon="-7.17450333">
        <ele>745.0</ele>
        <time>2022-06-19T11:48:52.538Z</time>
      </trkpt>
      <trkpt lat="43.06911667" lon="-7.17447667">
        <ele>744.0</ele>
        <time>2022-06-19T11:48:53.538Z</time>
      </trkpt>
      <trkpt lat="43.06911667" lon="-7.17447667">
        <ele>744.0</ele>
        <time>2022-06-19T11:48:54.518Z</time>
      </trkpt>
      <trkpt lat="43.06909167" lon="-7.17443">
        <ele>744.0</ele>
        <time>2022-06-19T11:48:55.503Z</time>
      </trkpt>
      <trkpt lat="43.06909167" lon="-7.17443">
        <ele>744.0</ele>
        <time>2022-06-19T11:48:56.538Z</time>
      </trkpt>
      <trkpt lat="43.069075" lon="-7.17437333">
        <ele>743.0</ele>
        <time>2022-06-19T11:48:57.519Z</time>
      </trkpt>
      <trkpt lat="43.069075" lon="-7.17437333">
        <ele>743.0</ele>
        <time>2022-06-19T11:48:58.529Z</time>
      </trkpt>
      <trkpt lat="43.069045" lon="-7.17427833">
        <ele>741.0</ele>
        <time>2022-06-19T11:48:59.529Z</time>
      </trkpt>
      <trkpt lat="43.06901667" lon="-7.17423">
        <ele>740.0</ele>
        <time>2022-06-19T11:49:00.526Z</time>
      </trkpt>
      <trkpt lat="43.068995" lon="-7.17417833">
        <ele>739.0</ele>
        <time>2022-06-19T11:49:01.516Z</time>
      </trkpt>
      <trkpt lat="43.068995" lon="-7.17417833">
        <ele>739.0</ele>
        <time>2022-06-19T11:49:02.510Z</time>
      </trkpt>
      <trkpt lat="43.06893667" lon="-7.17408833">
        <ele>738.0</ele>
        <time>2022-06-19T11:49:03.529Z</time>
      </trkpt>
      <trkpt lat="43.06893667" lon="-7.17408833">
        <ele>738.0</ele>
        <time>2022-06-19T11:49:04.520Z</time>
      </trkpt>
      <trkpt lat="43.06887167" lon="-7.17401333">
        <ele>736.0</ele>
        <time>2022-06-19T11:49:05.527Z</time>
      </trkpt>
      <trkpt lat="43.06887167" lon="-7.17401333">
        <ele>736.0</ele>
        <time>2022-06-19T11:49:06.520Z</time>
      </trkpt>
      <trkpt lat="43.06882333" lon="-7.17394167">
        <ele>734.0</ele>
        <time>2022-06-19T11:49:07.542Z</time>
      </trkpt>
      <trkpt lat="43.06882333" lon="-7.17394167">
        <ele>734.0</ele>
        <time>2022-06-19T11:49:08.521Z</time>
      </trkpt>
      <trkpt lat="43.068785" lon="-7.17385167">
        <ele>732.0</ele>
        <time>2022-06-19T11:49:09.521Z</time>
      </trkpt>
      <trkpt lat="43.068785" lon="-7.17385167">
        <ele>732.0</ele>
        <time>2022-06-19T11:49:10.512Z</time>
      </trkpt>
      <trkpt lat="43.068745" lon="-7.17373833">
        <ele>731.0</ele>
        <time>2022-06-19T11:49:11.541Z</time>
      </trkpt>
      <trkpt lat="43.06873667" lon="-7.17367333">
        <ele>730.0</ele>
        <time>2022-06-19T11:49:12.558Z</time>
      </trkpt>
      <trkpt lat="43.06873167" lon="-7.17361167">
        <ele>729.0</ele>
        <time>2022-06-19T11:49:13.518Z</time>
      </trkpt>
      <trkpt lat="43.06873167" lon="-7.17355667">
        <ele>728.0</ele>
        <time>2022-06-19T11:49:14.512Z</time>
      </trkpt>
      <trkpt lat="43.06873167" lon="-7.17355667">
        <ele>728.0</ele>
        <time>2022-06-19T11:49:15.529Z</time>
      </trkpt>
      <trkpt lat="43.06871667" lon="-7.17347167">
        <ele>726.0</ele>
        <time>2022-06-19T11:49:16.527Z</time>
      </trkpt>
      <trkpt lat="43.06871667" lon="-7.17347167">
        <ele>726.0</ele>
        <time>2022-06-19T11:49:17.526Z</time>
      </trkpt>
      <trkpt lat="43.06866667" lon="-7.17343667">
        <ele>725.0</ele>
        <time>2022-06-19T11:49:18.518Z</time>
      </trkpt>
      <trkpt lat="43.06863167" lon="-7.17343333">
        <ele>724.0</ele>
        <time>2022-06-19T11:49:19.513Z</time>
      </trkpt>
      <trkpt lat="43.06863167" lon="-7.17343333">
        <ele>724.0</ele>
        <time>2022-06-19T11:49:20.526Z</time>
      </trkpt>
      <trkpt lat="43.06857667" lon="-7.17345333">
        <ele>723.0</ele>
        <time>2022-06-19T11:49:21.535Z</time>
      </trkpt>
      <trkpt lat="43.06857667" lon="-7.17345333">
        <ele>723.0</ele>
        <time>2022-06-19T11:49:22.519Z</time>
      </trkpt>
      <trkpt lat="43.06851667" lon="-7.17350333">
        <ele>722.0</ele>
        <time>2022-06-19T11:49:23.508Z</time>
      </trkpt>
      <trkpt lat="43.06851667" lon="-7.17350333">
        <ele>722.0</ele>
        <time>2022-06-19T11:49:24.534Z</time>
      </trkpt>
      <trkpt lat="43.06844" lon="-7.17357667">
        <ele>720.0</ele>
        <time>2022-06-19T11:49:25.516Z</time>
      </trkpt>
      <trkpt lat="43.06844" lon="-7.17357667">
        <ele>720.0</ele>
        <time>2022-06-19T11:49:26.512Z</time>
      </trkpt>
      <trkpt lat="43.068355" lon="-7.17367">
        <ele>719.0</ele>
        <time>2022-06-19T11:49:27.526Z</time>
      </trkpt>
      <trkpt lat="43.06830833" lon="-7.17373">
        <ele>718.0</ele>
        <time>2022-06-19T11:49:28.530Z</time>
      </trkpt>
      <trkpt lat="43.06830833" lon="-7.17373">
        <ele>718.0</ele>
        <time>2022-06-19T11:49:29.536Z</time>
      </trkpt>
      <trkpt lat="43.06821167" lon="-7.17383333">
        <ele>716.0</ele>
        <time>2022-06-19T11:49:30.512Z</time>
      </trkpt>
      <trkpt lat="43.06821167" lon="-7.17383333">
        <ele>716.0</ele>
        <time>2022-06-19T11:49:31.529Z</time>
      </trkpt>
      <trkpt lat="43.06811333" lon="-7.17394167">
        <ele>715.0</ele>
        <time>2022-06-19T11:49:32.510Z</time>
      </trkpt>
      <trkpt lat="43.06806667" lon="-7.17399833">
        <ele>715.0</ele>
        <time>2022-06-19T11:49:33.517Z</time>
      </trkpt>
      <trkpt lat="43.06806667" lon="-7.17399833">
        <ele>715.0</ele>
        <time>2022-06-19T11:49:34.538Z</time>
      </trkpt>
      <trkpt lat="43.06797" lon="-7.17412333">
        <ele>713.0</ele>
        <time>2022-06-19T11:49:35.525Z</time>
      </trkpt>
      <trkpt lat="43.06792167" lon="-7.174185">
        <ele>713.0</ele>
        <time>2022-06-19T11:49:36.517Z</time>
      </trkpt>
      <trkpt lat="43.06792167" lon="-7.174185">
        <ele>713.0</ele>
        <time>2022-06-19T11:49:37.538Z</time>
      </trkpt>
      <trkpt lat="43.06783" lon="-7.17429833">
        <ele>712.0</ele>
        <time>2022-06-19T11:49:38.533Z</time>
      </trkpt>
      <trkpt lat="43.06783" lon="-7.17429833">
        <ele>712.0</ele>
        <time>2022-06-19T11:49:39.511Z</time>
      </trkpt>
      <trkpt lat="43.06774833" lon="-7.174395">
        <ele>711.0</ele>
        <time>2022-06-19T11:49:40.527Z</time>
      </trkpt>
      <trkpt lat="43.06774833" lon="-7.174395">
        <ele>711.0</ele>
        <time>2022-06-19T11:49:41.514Z</time>
      </trkpt>
      <trkpt lat="43.06767167" lon="-7.17449667">
        <ele>710.0</ele>
        <time>2022-06-19T11:49:42.542Z</time>
      </trkpt>
      <trkpt lat="43.06763667" lon="-7.174545">
        <ele>709.0</ele>
        <time>2022-06-19T11:49:43.505Z</time>
      </trkpt>
      <trkpt lat="43.06760667" lon="-7.17458833">
        <ele>709.0</ele>
        <time>2022-06-19T11:49:44.508Z</time>
      </trkpt>
      <trkpt lat="43.06760667" lon="-7.17458833">
        <ele>709.0</ele>
        <time>2022-06-19T11:49:45.527Z</time>
      </trkpt>
      <trkpt lat="43.06754833" lon="-7.174665">
        <ele>708.0</ele>
        <time>2022-06-19T11:49:46.503Z</time>
      </trkpt>
      <trkpt lat="43.067525" lon="-7.17469833">
        <ele>707.0</ele>
        <time>2022-06-19T11:49:47.515Z</time>
      </trkpt>
      <trkpt lat="43.067525" lon="-7.17469833">
        <ele>707.0</ele>
        <time>2022-06-19T11:49:48.514Z</time>
      </trkpt>
      <trkpt lat="43.067475" lon="-7.17476333">
        <ele>706.0</ele>
        <time>2022-06-19T11:49:49.538Z</time>
      </trkpt>
      <trkpt lat="43.067475" lon="-7.17476333">
        <ele>706.0</ele>
        <time>2022-06-19T11:49:50.531Z</time>
      </trkpt>
      <trkpt lat="43.06742167" lon="-7.17481">
        <ele>705.0</ele>
        <time>2022-06-19T11:49:51.528Z</time>
      </trkpt>
      <trkpt lat="43.06739167" lon="-7.17483">
        <ele>705.0</ele>
        <time>2022-06-19T11:49:52.529Z</time>
      </trkpt>
      <trkpt lat="43.06739167" lon="-7.17483">
        <ele>705.0</ele>
        <time>2022-06-19T11:49:53.517Z</time>
      </trkpt>
      <trkpt lat="43.06733" lon="-7.17486333">
        <ele>704.0</ele>
        <time>2022-06-19T11:49:54.507Z</time>
      </trkpt>
      <trkpt lat="43.06733" lon="-7.17486333">
        <ele>704.0</ele>
        <time>2022-06-19T11:49:55.540Z</time>
      </trkpt>
      <trkpt lat="43.06726667" lon="-7.17487167">
        <ele>703.0</ele>
        <time>2022-06-19T11:49:56.539Z</time>
      </trkpt>
      <trkpt lat="43.06726667" lon="-7.17487167">
        <ele>703.0</ele>
        <time>2022-06-19T11:49:57.529Z</time>
      </trkpt>
      <trkpt lat="43.06720833" lon="-7.17483667">
        <ele>702.0</ele>
        <time>2022-06-19T11:49:58.510Z</time>
      </trkpt>
      <trkpt lat="43.06720833" lon="-7.17483667">
        <ele>702.0</ele>
        <time>2022-06-19T11:49:59.523Z</time>
      </trkpt>
      <trkpt lat="43.06714667" lon="-7.17474167">
        <ele>701.0</ele>
        <time>2022-06-19T11:50:00.503Z</time>
      </trkpt>
      <trkpt lat="43.06714667" lon="-7.17474167">
        <ele>701.0</ele>
        <time>2022-06-19T11:50:01.519Z</time>
      </trkpt>
      <trkpt lat="43.06711667" lon="-7.17468333">
        <ele>701.0</ele>
        <time>2022-06-19T11:50:02.508Z</time>
      </trkpt>
      <trkpt lat="43.06710833" lon="-7.17465">
        <ele>700.0</ele>
        <time>2022-06-19T11:50:03.510Z</time>
      </trkpt>
      <trkpt lat="43.06710833" lon="-7.17465">
        <ele>700.0</ele>
        <time>2022-06-19T11:50:04.534Z</time>
      </trkpt>
      <trkpt lat="43.06708" lon="-7.17458167">
        <ele>700.0</ele>
        <time>2022-06-19T11:50:05.509Z</time>
      </trkpt>
      <trkpt lat="43.06706333" lon="-7.17454667">
        <ele>700.0</ele>
        <time>2022-06-19T11:50:06.530Z</time>
      </trkpt>
      <trkpt lat="43.06704333" lon="-7.17450667">
        <ele>700.0</ele>
        <time>2022-06-19T11:50:07.543Z</time>
      </trkpt>
      <trkpt lat="43.06704333" lon="-7.17450667">
        <ele>700.0</ele>
        <time>2022-06-19T11:50:08.503Z</time>
      </trkpt>
      <trkpt lat="43.066995" lon="-7.174415">
        <ele>699.0</ele>
        <time>2022-06-19T11:50:09.531Z</time>
      </trkpt>
      <trkpt lat="43.066995" lon="-7.174415">
        <ele>699.0</ele>
        <time>2022-06-19T11:50:10.519Z</time>
      </trkpt>
      <trkpt lat="43.06696667" lon="-7.17431167">
        <ele>699.0</ele>
        <time>2022-06-19T11:50:11.515Z</time>
      </trkpt>
      <trkpt lat="43.06696667" lon="-7.17431167">
        <ele>699.0</ele>
        <time>2022-06-19T11:50:12.516Z</time>
      </trkpt>
      <trkpt lat="43.06695667" lon="-7.174225">
        <ele>699.0</ele>
        <time>2022-06-19T11:50:13.505Z</time>
      </trkpt>
      <trkpt lat="43.06695667" lon="-7.174225">
        <ele>699.0</ele>
        <time>2022-06-19T11:50:14.515Z</time>
      </trkpt>
      <trkpt lat="43.06694333" lon="-7.17413333">
        <ele>698.0</ele>
        <time>2022-06-19T11:50:15.542Z</time>
      </trkpt>
      <trkpt lat="43.06694333" lon="-7.17413333">
        <ele>698.0</ele>
        <time>2022-06-19T11:50:16.519Z</time>
      </trkpt>
      <trkpt lat="43.06693167" lon="-7.17404667">
        <ele>698.0</ele>
        <time>2022-06-19T11:50:17.520Z</time>
      </trkpt>
      <trkpt lat="43.06692" lon="-7.174005">
        <ele>698.0</ele>
        <time>2022-06-19T11:50:18.529Z</time>
      </trkpt>
      <trkpt lat="43.066945" lon="-7.17395333">
        <ele>698.0</ele>
        <time>2022-06-19T11:50:19.523Z</time>
      </trkpt>
      <trkpt lat="43.066945" lon="-7.17395333">
        <ele>698.0</ele>
        <time>2022-06-19T11:50:20.528Z</time>
      </trkpt>
      <trkpt lat="43.06694667" lon="-7.17386333">
        <ele>698.0</ele>
        <time>2022-06-19T11:50:21.514Z</time>
      </trkpt>
      <trkpt lat="43.06694667" lon="-7.17381833">
        <ele>698.0</ele>
        <time>2022-06-19T11:50:22.534Z</time>
      </trkpt>
      <trkpt lat="43.06694667" lon="-7.17381833">
        <ele>698.0</ele>
        <time>2022-06-19T11:50:23.508Z</time>
      </trkpt>
      <trkpt lat="43.06691" lon="-7.17374667">
        <ele>698.0</ele>
        <time>2022-06-19T11:50:24.533Z</time>
      </trkpt>
      <trkpt lat="43.06689333" lon="-7.17371">
        <ele>698.0</ele>
        <time>2022-06-19T11:50:25.525Z</time>
      </trkpt>
      <trkpt lat="43.06689333" lon="-7.17371">
        <ele>698.0</ele>
        <time>2022-06-19T11:50:26.534Z</time>
      </trkpt>
      <trkpt lat="43.06686333" lon="-7.17363667">
        <ele>698.0</ele>
        <time>2022-06-19T11:50:27.525Z</time>
      </trkpt>
      <trkpt lat="43.06684333" lon="-7.17359833">
        <ele>698.0</ele>
        <time>2022-06-19T11:50:28.502Z</time>
      </trkpt>
      <trkpt lat="43.06684333" lon="-7.17359833">
        <ele>698.0</ele>
        <time>2022-06-19T11:50:29.535Z</time>
      </trkpt>
      <trkpt lat="43.06679667" lon="-7.17351833">
        <ele>698.0</ele>
        <time>2022-06-19T11:50:30.509Z</time>
      </trkpt>
      <trkpt lat="43.06676833" lon="-7.17348333">
        <ele>698.0</ele>
        <time>2022-06-19T11:50:31.512Z</time>
      </trkpt>
      <trkpt lat="43.06676833" lon="-7.17348333">
        <ele>698.0</ele>
        <time>2022-06-19T11:50:32.512Z</time>
      </trkpt>
      <trkpt lat="43.06673" lon="-7.17340667">
        <ele>698.0</ele>
        <time>2022-06-19T11:50:33.536Z</time>
      </trkpt>
      <trkpt lat="43.06673" lon="-7.17340667">
        <ele>698.0</ele>
        <time>2022-06-19T11:50:34.517Z</time>
      </trkpt>
      <trkpt lat="43.06668667" lon="-7.173335">
        <ele>698.0</ele>
        <time>2022-06-19T11:50:35.531Z</time>
      </trkpt>
      <trkpt lat="43.06668667" lon="-7.173335">
        <ele>698.0</ele>
        <time>2022-06-19T11:50:36.503Z</time>
      </trkpt>
      <trkpt lat="43.06665833" lon="-7.17326333">
        <ele>698.0</ele>
        <time>2022-06-19T11:50:37.535Z</time>
      </trkpt>
      <trkpt lat="43.06665833" lon="-7.17326333">
        <ele>698.0</ele>
        <time>2022-06-19T11:50:38.526Z</time>
      </trkpt>
      <trkpt lat="43.06664" lon="-7.1732">
        <ele>698.0</ele>
        <time>2022-06-19T11:50:39.505Z</time>
      </trkpt>
      <trkpt lat="43.066655" lon="-7.17317167">
        <ele>699.0</ele>
        <time>2022-06-19T11:50:40.537Z</time>
      </trkpt>
      <trkpt lat="43.066655" lon="-7.17317167">
        <ele>699.0</ele>
        <time>2022-06-19T11:50:41.527Z</time>
      </trkpt>
      <trkpt lat="43.066645" lon="-7.17311667">
        <ele>699.0</ele>
        <time>2022-06-19T11:50:42.509Z</time>
      </trkpt>
      <trkpt lat="43.066625" lon="-7.17308">
        <ele>700.0</ele>
        <time>2022-06-19T11:50:43.517Z</time>
      </trkpt>
      <trkpt lat="43.066625" lon="-7.17308">
        <ele>700.0</ele>
        <time>2022-06-19T11:50:44.523Z</time>
      </trkpt>
      <trkpt lat="43.066595" lon="-7.17303">
        <ele>701.0</ele>
        <time>2022-06-19T11:50:45.503Z</time>
      </trkpt>
      <trkpt lat="43.066595" lon="-7.17303">
        <ele>701.0</ele>
        <time>2022-06-19T11:50:46.511Z</time>
      </trkpt>
      <trkpt lat="43.06655333" lon="-7.17298667">
        <ele>702.0</ele>
        <time>2022-06-19T11:50:47.527Z</time>
      </trkpt>
      <trkpt lat="43.06655333" lon="-7.17298667">
        <ele>702.0</ele>
        <time>2022-06-19T11:50:48.510Z</time>
      </trkpt>
      <trkpt lat="43.06651333" lon="-7.17294667">
        <ele>703.0</ele>
        <time>2022-06-19T11:50:49.539Z</time>
      </trkpt>
      <trkpt lat="43.06651333" lon="-7.17294667">
        <ele>703.0</ele>
        <time>2022-06-19T11:50:50.522Z</time>
      </trkpt>
      <trkpt lat="43.06646667" lon="-7.17289833">
        <ele>704.0</ele>
        <time>2022-06-19T11:50:51.509Z</time>
      </trkpt>
      <trkpt lat="43.06646667" lon="-7.17289833">
        <ele>704.0</ele>
        <time>2022-06-19T11:50:52.516Z</time>
      </trkpt>
      <trkpt lat="43.06641833" lon="-7.17285">
        <ele>705.0</ele>
        <time>2022-06-19T11:50:53.548Z</time>
      </trkpt>
      <trkpt lat="43.066395" lon="-7.17282667">
        <ele>706.0</ele>
        <time>2022-06-19T11:50:54.527Z</time>
      </trkpt>
      <trkpt lat="43.06637667" lon="-7.17280333">
        <ele>706.0</ele>
        <time>2022-06-19T11:50:55.535Z</time>
      </trkpt>
      <trkpt lat="43.06635667" lon="-7.17277667">
        <ele>707.0</ele>
        <time>2022-06-19T11:50:56.530Z</time>
      </trkpt>
      <trkpt lat="43.06635667" lon="-7.17277667">
        <ele>707.0</ele>
        <time>2022-06-19T11:50:57.511Z</time>
      </trkpt>
      <trkpt lat="43.066315" lon="-7.17272333">
        <ele>708.0</ele>
        <time>2022-06-19T11:50:58.537Z</time>
      </trkpt>
      <trkpt lat="43.06629667" lon="-7.17270667">
        <ele>708.0</ele>
        <time>2022-06-19T11:50:59.505Z</time>
      </trkpt>
      <trkpt lat="43.06629667" lon="-7.17270667">
        <ele>708.0</ele>
        <time>2022-06-19T11:51:00.521Z</time>
      </trkpt>
      <trkpt lat="43.06627833" lon="-7.17267167">
        <ele>708.0</ele>
        <time>2022-06-19T11:51:01.507Z</time>
      </trkpt>
      <trkpt lat="43.066265" lon="-7.17265">
        <ele>709.0</ele>
        <time>2022-06-19T11:51:02.514Z</time>
      </trkpt>
      <trkpt lat="43.066265" lon="-7.17265">
        <ele>709.0</ele>
        <time>2022-06-19T11:51:03.538Z</time>
      </trkpt>
      <trkpt lat="43.06624" lon="-7.172615">
        <ele>709.0</ele>
        <time>2022-06-19T11:51:04.522Z</time>
      </trkpt>
      <trkpt lat="43.06624" lon="-7.172615">
        <ele>709.0</ele>
        <time>2022-06-19T11:51:05.514Z</time>
      </trkpt>
      <trkpt lat="43.06622" lon="-7.17259">
        <ele>710.0</ele>
        <time>2022-06-19T11:51:06.538Z</time>
      </trkpt>
      <trkpt lat="43.06620833" lon="-7.17257333">
        <ele>710.0</ele>
        <time>2022-06-19T11:51:07.506Z</time>
      </trkpt>
      <trkpt lat="43.06620833" lon="-7.17257333">
        <ele>710.0</ele>
        <time>2022-06-19T11:51:08.528Z</time>
      </trkpt>
      <trkpt lat="43.06618" lon="-7.172545">
        <ele>710.0</ele>
        <time>2022-06-19T11:51:09.506Z</time>
      </trkpt>
      <trkpt lat="43.06618" lon="-7.172545">
        <ele>710.0</ele>
        <time>2022-06-19T11:51:10.520Z</time>
      </trkpt>
      <trkpt lat="43.06614333" lon="-7.17254167">
        <ele>710.0</ele>
        <time>2022-06-19T11:51:11.504Z</time>
      </trkpt>
      <trkpt lat="43.06614333" lon="-7.17254167">
        <ele>710.0</ele>
        <time>2022-06-19T11:51:12.517Z</time>
      </trkpt>
      <trkpt lat="43.06611167" lon="-7.172555">
        <ele>710.0</ele>
        <time>2022-06-19T11:51:13.534Z</time>
      </trkpt>
      <trkpt lat="43.06611167" lon="-7.172555">
        <ele>710.0</ele>
        <time>2022-06-19T11:51:14.511Z</time>
      </trkpt>
      <trkpt lat="43.06609833" lon="-7.17258167">
        <ele>710.0</ele>
        <time>2022-06-19T11:51:15.538Z</time>
      </trkpt>
      <trkpt lat="43.06609833" lon="-7.17258167">
        <ele>710.0</ele>
        <time>2022-06-19T11:51:16.540Z</time>
      </trkpt>
      <trkpt lat="43.06609833" lon="-7.17262167">
        <ele>711.0</ele>
        <time>2022-06-19T11:51:17.528Z</time>
      </trkpt>
      <trkpt lat="43.06609833" lon="-7.17262167">
        <ele>711.0</ele>
        <time>2022-06-19T11:51:18.525Z</time>
      </trkpt>
      <trkpt lat="43.06608833" lon="-7.17266667">
        <ele>711.0</ele>
        <time>2022-06-19T11:51:19.521Z</time>
      </trkpt>
      <trkpt lat="43.06608833" lon="-7.17266667">
        <ele>711.0</ele>
        <time>2022-06-19T11:51:20.540Z</time>
      </trkpt>
      <trkpt lat="43.06607833" lon="-7.172715">
        <ele>711.0</ele>
        <time>2022-06-19T11:51:21.539Z</time>
      </trkpt>
      <trkpt lat="43.06607833" lon="-7.172715">
        <ele>711.0</ele>
        <time>2022-06-19T11:51:22.517Z</time>
      </trkpt>
      <trkpt lat="43.06606333" lon="-7.17276833">
        <ele>712.0</ele>
        <time>2022-06-19T11:51:23.538Z</time>
      </trkpt>
      <trkpt lat="43.06606333" lon="-7.17276833">
        <ele>712.0</ele>
        <time>2022-06-19T11:51:24.526Z</time>
      </trkpt>
      <trkpt lat="43.06604667" lon="-7.172815">
        <ele>712.0</ele>
        <time>2022-06-19T11:51:25.514Z</time>
      </trkpt>
      <trkpt lat="43.06604667" lon="-7.172815">
        <ele>712.0</ele>
        <time>2022-06-19T11:51:26.538Z</time>
      </trkpt>
      <trkpt lat="43.06603333" lon="-7.17286333">
        <ele>712.0</ele>
        <time>2022-06-19T11:51:27.520Z</time>
      </trkpt>
      <trkpt lat="43.066025" lon="-7.172885">
        <ele>712.0</ele>
        <time>2022-06-19T11:51:28.508Z</time>
      </trkpt>
      <trkpt lat="43.066025" lon="-7.172885">
        <ele>712.0</ele>
        <time>2022-06-19T11:51:29.504Z</time>
      </trkpt>
      <trkpt lat="43.06602333" lon="-7.17294">
        <ele>712.0</ele>
        <time>2022-06-19T11:51:30.539Z</time>
      </trkpt>
      <trkpt lat="43.06601667" lon="-7.17296333">
        <ele>713.0</ele>
        <time>2022-06-19T11:51:31.521Z</time>
      </trkpt>
      <trkpt lat="43.06601667" lon="-7.17296333">
        <ele>713.0</ele>
        <time>2022-06-19T11:51:32.538Z</time>
      </trkpt>
      <trkpt lat="43.06599167" lon="-7.17299833">
        <ele>713.0</ele>
        <time>2022-06-19T11:51:33.514Z</time>
      </trkpt>
      <trkpt lat="43.06599167" lon="-7.17299833">
        <ele>713.0</ele>
        <time>2022-06-19T11:51:34.512Z</time>
      </trkpt>
      <trkpt lat="43.065965" lon="-7.17303333">
        <ele>713.0</ele>
        <time>2022-06-19T11:51:35.538Z</time>
      </trkpt>
      <trkpt lat="43.065965" lon="-7.17303333">
        <ele>713.0</ele>
        <time>2022-06-19T11:51:36.527Z</time>
      </trkpt>
      <trkpt lat="43.065945" lon="-7.17306667">
        <ele>714.0</ele>
        <time>2022-06-19T11:51:37.504Z</time>
      </trkpt>
      <trkpt lat="43.06593333" lon="-7.17308">
        <ele>714.0</ele>
        <time>2022-06-19T11:51:38.529Z</time>
      </trkpt>
      <trkpt lat="43.06593333" lon="-7.17308">
        <ele>714.0</ele>
        <time>2022-06-19T11:51:39.513Z</time>
      </trkpt>
      <trkpt lat="43.065915" lon="-7.17311667">
        <ele>714.0</ele>
        <time>2022-06-19T11:51:40.508Z</time>
      </trkpt>
      <trkpt lat="43.065915" lon="-7.17311667">
        <ele>714.0</ele>
        <time>2022-06-19T11:51:41.523Z</time>
      </trkpt>
      <trkpt lat="43.06589333" lon="-7.17315167">
        <ele>715.0</ele>
        <time>2022-06-19T11:51:42.509Z</time>
      </trkpt>
      <trkpt lat="43.06587333" lon="-7.173175">
        <ele>715.0</ele>
        <time>2022-06-19T11:51:43.503Z</time>
      </trkpt>
      <trkpt lat="43.06587333" lon="-7.173175">
        <ele>715.0</ele>
        <time>2022-06-19T11:51:44.523Z</time>
      </trkpt>
      <trkpt lat="43.065845" lon="-7.17322">
        <ele>715.0</ele>
        <time>2022-06-19T11:51:45.504Z</time>
      </trkpt>
      <trkpt lat="43.065845" lon="-7.17322">
        <ele>715.0</ele>
        <time>2022-06-19T11:51:46.514Z</time>
      </trkpt>
      <trkpt lat="43.06581333" lon="-7.17325167">
        <ele>715.0</ele>
        <time>2022-06-19T11:51:47.536Z</time>
      </trkpt>
      <trkpt lat="43.06581333" lon="-7.17325167">
        <ele>715.0</ele>
        <time>2022-06-19T11:51:48.536Z</time>
      </trkpt>
      <trkpt lat="43.06577833" lon="-7.17328167">
        <ele>715.0</ele>
        <time>2022-06-19T11:51:49.529Z</time>
      </trkpt>
      <trkpt lat="43.06577833" lon="-7.17328167">
        <ele>715.0</ele>
        <time>2022-06-19T11:51:50.536Z</time>
      </trkpt>
      <trkpt lat="43.065745" lon="-7.173305">
        <ele>716.0</ele>
        <time>2022-06-19T11:51:51.518Z</time>
      </trkpt>
      <trkpt lat="43.065745" lon="-7.173305">
        <ele>716.0</ele>
        <time>2022-06-19T11:51:52.527Z</time>
      </trkpt>
      <trkpt lat="43.06573167" lon="-7.17333">
        <ele>717.0</ele>
        <time>2022-06-19T11:51:53.533Z</time>
      </trkpt>
      <trkpt lat="43.06572333" lon="-7.173345">
        <ele>718.0</ele>
        <time>2022-06-19T11:51:54.538Z</time>
      </trkpt>
      <trkpt lat="43.06572333" lon="-7.173345">
        <ele>718.0</ele>
        <time>2022-06-19T11:51:55.516Z</time>
      </trkpt>
      <trkpt lat="43.06570333" lon="-7.17336667">
        <ele>719.0</ele>
        <time>2022-06-19T11:51:56.540Z</time>
      </trkpt>
      <trkpt lat="43.06570333" lon="-7.17336667">
        <ele>719.0</ele>
        <time>2022-06-19T11:51:57.513Z</time>
      </trkpt>
      <trkpt lat="43.065675" lon="-7.17338667">
        <ele>719.0</ele>
        <time>2022-06-19T11:51:58.516Z</time>
      </trkpt>
      <trkpt lat="43.065675" lon="-7.17338667">
        <ele>719.0</ele>
        <time>2022-06-19T11:51:59.536Z</time>
      </trkpt>
      <trkpt lat="43.065645" lon="-7.173415">
        <ele>720.0</ele>
        <time>2022-06-19T11:52:00.515Z</time>
      </trkpt>
      <trkpt lat="43.065635" lon="-7.17343">
        <ele>720.0</ele>
        <time>2022-06-19T11:52:01.538Z</time>
      </trkpt>
      <trkpt lat="43.065635" lon="-7.17343">
        <ele>720.0</ele>
        <time>2022-06-19T11:52:02.513Z</time>
      </trkpt>
      <trkpt lat="43.06561167" lon="-7.173445">
        <ele>721.0</ele>
        <time>2022-06-19T11:52:03.508Z</time>
      </trkpt>
      <trkpt lat="43.0656" lon="-7.17346">
        <ele>721.0</ele>
        <time>2022-06-19T11:52:04.515Z</time>
      </trkpt>
      <trkpt lat="43.0656" lon="-7.17346">
        <ele>721.0</ele>
        <time>2022-06-19T11:52:05.502Z</time>
      </trkpt>
      <trkpt lat="43.06558167" lon="-7.17348333">
        <ele>722.0</ele>
        <time>2022-06-19T11:52:06.524Z</time>
      </trkpt>
      <trkpt lat="43.065575" lon="-7.173495">
        <ele>722.0</ele>
        <time>2022-06-19T11:52:07.520Z</time>
      </trkpt>
      <trkpt lat="43.065575" lon="-7.173495">
        <ele>722.0</ele>
        <time>2022-06-19T11:52:08.538Z</time>
      </trkpt>
      <trkpt lat="43.065565" lon="-7.17351833">
        <ele>723.0</ele>
        <time>2022-06-19T11:52:09.526Z</time>
      </trkpt>
      <trkpt lat="43.065545" lon="-7.17351833">
        <ele>723.0</ele>
        <time>2022-06-19T11:52:10.502Z</time>
      </trkpt>
      <trkpt lat="43.065545" lon="-7.17351833">
        <ele>723.0</ele>
        <time>2022-06-19T11:52:11.520Z</time>
      </trkpt>
      <trkpt lat="43.06552167" lon="-7.17354833">
        <ele>724.0</ele>
        <time>2022-06-19T11:52:12.538Z</time>
      </trkpt>
      <trkpt lat="43.065515" lon="-7.17357167">
        <ele>724.0</ele>
        <time>2022-06-19T11:52:13.541Z</time>
      </trkpt>
      <trkpt lat="43.065515" lon="-7.17357167">
        <ele>724.0</ele>
        <time>2022-06-19T11:52:14.531Z</time>
      </trkpt>
      <trkpt lat="43.06545333" lon="-7.17362833">
        <ele>725.0</ele>
        <time>2022-06-19T11:52:15.520Z</time>
      </trkpt>
      <trkpt lat="43.06543667" lon="-7.17364833">
        <ele>725.0</ele>
        <time>2022-06-19T11:52:16.512Z</time>
      </trkpt>
      <trkpt lat="43.06543667" lon="-7.17364833">
        <ele>725.0</ele>
        <time>2022-06-19T11:52:17.523Z</time>
      </trkpt>
      <trkpt lat="43.0654" lon="-7.17368167">
        <ele>726.0</ele>
        <time>2022-06-19T11:52:18.514Z</time>
      </trkpt>
      <trkpt lat="43.06538" lon="-7.17369833">
        <ele>726.0</ele>
        <time>2022-06-19T11:52:19.515Z</time>
      </trkpt>
      <trkpt lat="43.06538" lon="-7.17369833">
        <ele>726.0</ele>
        <time>2022-06-19T11:52:20.540Z</time>
      </trkpt>
      <trkpt lat="43.06532833" lon="-7.17375333">
        <ele>726.0</ele>
        <time>2022-06-19T11:52:21.502Z</time>
      </trkpt>
      <trkpt lat="43.06532833" lon="-7.17375333">
        <ele>726.0</ele>
        <time>2022-06-19T11:52:22.516Z</time>
      </trkpt>
      <trkpt lat="43.065255" lon="-7.17381667">
        <ele>727.0</ele>
        <time>2022-06-19T11:52:23.562Z</time>
      </trkpt>
      <trkpt lat="43.065255" lon="-7.17381667">
        <ele>727.0</ele>
        <time>2022-06-19T11:52:24.516Z</time>
      </trkpt>
      <trkpt lat="43.06520833" lon="-7.17390333">
        <ele>727.0</ele>
        <time>2022-06-19T11:52:25.538Z</time>
      </trkpt>
      <trkpt lat="43.06520833" lon="-7.17390333">
        <ele>727.0</ele>
        <time>2022-06-19T11:52:26.516Z</time>
      </trkpt>
      <trkpt lat="43.06517667" lon="-7.17398833">
        <ele>727.0</ele>
        <time>2022-06-19T11:52:27.536Z</time>
      </trkpt>
      <trkpt lat="43.06517667" lon="-7.17398833">
        <ele>727.0</ele>
        <time>2022-06-19T11:52:28.533Z</time>
      </trkpt>
      <trkpt lat="43.06514667" lon="-7.17407">
        <ele>727.0</ele>
        <time>2022-06-19T11:52:29.512Z</time>
      </trkpt>
      <trkpt lat="43.06514667" lon="-7.17407">
        <ele>727.0</ele>
        <time>2022-06-19T11:52:30.526Z</time>
      </trkpt>
      <trkpt lat="43.06511" lon="-7.17413167">
        <ele>727.0</ele>
        <time>2022-06-19T11:52:31.508Z</time>
      </trkpt>
      <trkpt lat="43.06511" lon="-7.17413167">
        <ele>727.0</ele>
        <time>2022-06-19T11:52:32.536Z</time>
      </trkpt>
      <trkpt lat="43.06506333" lon="-7.17418167">
        <ele>727.0</ele>
        <time>2022-06-19T11:52:33.534Z</time>
      </trkpt>
      <trkpt lat="43.06506333" lon="-7.17418167">
        <ele>727.0</ele>
        <time>2022-06-19T11:52:34.513Z</time>
      </trkpt>
      <trkpt lat="43.06502" lon="-7.17424">
        <ele>727.0</ele>
        <time>2022-06-19T11:52:35.532Z</time>
      </trkpt>
      <trkpt lat="43.06502" lon="-7.17424">
        <ele>727.0</ele>
        <time>2022-06-19T11:52:36.526Z</time>
      </trkpt>
      <trkpt lat="43.06497167" lon="-7.17429833">
        <ele>727.0</ele>
        <time>2022-06-19T11:52:37.534Z</time>
      </trkpt>
      <trkpt lat="43.06497167" lon="-7.17429833">
        <ele>727.0</ele>
        <time>2022-06-19T11:52:38.519Z</time>
      </trkpt>
      <trkpt lat="43.06492167" lon="-7.17434833">
        <ele>727.0</ele>
        <time>2022-06-19T11:52:39.542Z</time>
      </trkpt>
      <trkpt lat="43.06490167" lon="-7.17436333">
        <ele>727.0</ele>
        <time>2022-06-19T11:52:40.516Z</time>
      </trkpt>
      <trkpt lat="43.06490167" lon="-7.17436333">
        <ele>727.0</ele>
        <time>2022-06-19T11:52:41.509Z</time>
      </trkpt>
      <trkpt lat="43.06485333" lon="-7.17439333">
        <ele>727.0</ele>
        <time>2022-06-19T11:52:42.506Z</time>
      </trkpt>
      <trkpt lat="43.06482167" lon="-7.174395">
        <ele>727.0</ele>
        <time>2022-06-19T11:52:43.515Z</time>
      </trkpt>
      <trkpt lat="43.06482167" lon="-7.174395">
        <ele>727.0</ele>
        <time>2022-06-19T11:52:44.534Z</time>
      </trkpt>
      <trkpt lat="43.06475167" lon="-7.17443833">
        <ele>727.0</ele>
        <time>2022-06-19T11:52:45.539Z</time>
      </trkpt>
      <trkpt lat="43.06475167" lon="-7.17443833">
        <ele>727.0</ele>
        <time>2022-06-19T11:52:46.519Z</time>
      </trkpt>
      <trkpt lat="43.06466667" lon="-7.17450833">
        <ele>727.0</ele>
        <time>2022-06-19T11:52:47.537Z</time>
      </trkpt>
      <trkpt lat="43.06466667" lon="-7.17450833">
        <ele>727.0</ele>
        <time>2022-06-19T11:52:48.504Z</time>
      </trkpt>
      <trkpt lat="43.06461167" lon="-7.17455167">
        <ele>727.0</ele>
        <time>2022-06-19T11:52:49.520Z</time>
      </trkpt>
      <trkpt lat="43.06461167" lon="-7.17455167">
        <ele>727.0</ele>
        <time>2022-06-19T11:52:50.508Z</time>
      </trkpt>
      <trkpt lat="43.06457833" lon="-7.17458667">
        <ele>727.0</ele>
        <time>2022-06-19T11:52:51.534Z</time>
      </trkpt>
      <trkpt lat="43.06454" lon="-7.17460167">
        <ele>727.0</ele>
        <time>2022-06-19T11:52:52.519Z</time>
      </trkpt>
      <trkpt lat="43.06454" lon="-7.17460167">
        <ele>727.0</ele>
        <time>2022-06-19T11:52:53.530Z</time>
      </trkpt>
      <trkpt lat="43.064485" lon="-7.17459833">
        <ele>726.0</ele>
        <time>2022-06-19T11:52:54.514Z</time>
      </trkpt>
      <trkpt lat="43.064485" lon="-7.17459833">
        <ele>726.0</ele>
        <time>2022-06-19T11:52:55.539Z</time>
      </trkpt>
      <trkpt lat="43.06445" lon="-7.17457333">
        <ele>726.0</ele>
        <time>2022-06-19T11:52:56.517Z</time>
      </trkpt>
      <trkpt lat="43.06445" lon="-7.17457333">
        <ele>726.0</ele>
        <time>2022-06-19T11:52:57.519Z</time>
      </trkpt>
      <trkpt lat="43.06437833" lon="-7.17455">
        <ele>726.0</ele>
        <time>2022-06-19T11:52:58.539Z</time>
      </trkpt>
      <trkpt lat="43.06437833" lon="-7.17455">
        <ele>726.0</ele>
        <time>2022-06-19T11:52:59.517Z</time>
      </trkpt>
      <trkpt lat="43.06429" lon="-7.17453667">
        <ele>726.0</ele>
        <time>2022-06-19T11:53:00.509Z</time>
      </trkpt>
      <trkpt lat="43.06429" lon="-7.17453667">
        <ele>726.0</ele>
        <time>2022-06-19T11:53:01.535Z</time>
      </trkpt>
      <trkpt lat="43.06422667" lon="-7.17451">
        <ele>726.0</ele>
        <time>2022-06-19T11:53:02.514Z</time>
      </trkpt>
      <trkpt lat="43.06422667" lon="-7.17451">
        <ele>726.0</ele>
        <time>2022-06-19T11:53:03.532Z</time>
      </trkpt>
      <trkpt lat="43.06416333" lon="-7.17450333">
        <ele>725.0</ele>
        <time>2022-06-19T11:53:04.522Z</time>
      </trkpt>
      <trkpt lat="43.06413333" lon="-7.17449667">
        <ele>725.0</ele>
        <time>2022-06-19T11:53:05.507Z</time>
      </trkpt>
      <trkpt lat="43.06413333" lon="-7.17449667">
        <ele>725.0</ele>
        <time>2022-06-19T11:53:06.505Z</time>
      </trkpt>
      <trkpt lat="43.06406333" lon="-7.17449833">
        <ele>725.0</ele>
        <time>2022-06-19T11:53:07.542Z</time>
      </trkpt>
      <trkpt lat="43.06406333" lon="-7.17449833">
        <ele>725.0</ele>
        <time>2022-06-19T11:53:08.515Z</time>
      </trkpt>
      <trkpt lat="43.06398667" lon="-7.17453333">
        <ele>724.0</ele>
        <time>2022-06-19T11:53:09.510Z</time>
      </trkpt>
      <trkpt lat="43.06398667" lon="-7.17453333">
        <ele>724.0</ele>
        <time>2022-06-19T11:53:10.518Z</time>
      </trkpt>
      <trkpt lat="43.063895" lon="-7.17458333">
        <ele>724.0</ele>
        <time>2022-06-19T11:53:11.541Z</time>
      </trkpt>
      <trkpt lat="43.06386167" lon="-7.17461167">
        <ele>724.0</ele>
        <time>2022-06-19T11:53:12.518Z</time>
      </trkpt>
      <trkpt lat="43.06382" lon="-7.17463">
        <ele>723.0</ele>
        <time>2022-06-19T11:53:13.505Z</time>
      </trkpt>
      <trkpt lat="43.06382" lon="-7.17463">
        <ele>723.0</ele>
        <time>2022-06-19T11:53:14.514Z</time>
      </trkpt>
      <trkpt lat="43.06375333" lon="-7.17466667">
        <ele>723.0</ele>
        <time>2022-06-19T11:53:15.534Z</time>
      </trkpt>
      <trkpt lat="43.06375333" lon="-7.17466667">
        <ele>723.0</ele>
        <time>2022-06-19T11:53:16.513Z</time>
      </trkpt>
      <trkpt lat="43.06364667" lon="-7.174725">
        <ele>722.0</ele>
        <time>2022-06-19T11:53:17.508Z</time>
      </trkpt>
      <trkpt lat="43.06364667" lon="-7.174725">
        <ele>722.0</ele>
        <time>2022-06-19T11:53:18.502Z</time>
      </trkpt>
      <trkpt lat="43.06357833" lon="-7.17479">
        <ele>722.0</ele>
        <time>2022-06-19T11:53:19.526Z</time>
      </trkpt>
      <trkpt lat="43.06357833" lon="-7.17479">
        <ele>722.0</ele>
        <time>2022-06-19T11:53:20.529Z</time>
      </trkpt>
      <trkpt lat="43.06351667" lon="-7.17486833">
        <ele>721.0</ele>
        <time>2022-06-19T11:53:21.538Z</time>
      </trkpt>
      <trkpt lat="43.06349333" lon="-7.17489167">
        <ele>721.0</ele>
        <time>2022-06-19T11:53:22.528Z</time>
      </trkpt>
      <trkpt lat="43.06349333" lon="-7.17489167">
        <ele>721.0</ele>
        <time>2022-06-19T11:53:23.540Z</time>
      </trkpt>
      <trkpt lat="43.06344333" lon="-7.17496833">
        <ele>720.0</ele>
        <time>2022-06-19T11:53:24.528Z</time>
      </trkpt>
      <trkpt lat="43.06344333" lon="-7.17496833">
        <ele>720.0</ele>
        <time>2022-06-19T11:53:25.517Z</time>
      </trkpt>
      <trkpt lat="43.06339" lon="-7.17501333">
        <ele>719.0</ele>
        <time>2022-06-19T11:53:26.518Z</time>
      </trkpt>
      <trkpt lat="43.06339" lon="-7.17501333">
        <ele>719.0</ele>
        <time>2022-06-19T11:53:27.530Z</time>
      </trkpt>
      <trkpt lat="43.06334167" lon="-7.17503667">
        <ele>719.0</ele>
        <time>2022-06-19T11:53:28.509Z</time>
      </trkpt>
      <trkpt lat="43.06334167" lon="-7.17503667">
        <ele>719.0</ele>
        <time>2022-06-19T11:53:29.541Z</time>
      </trkpt>
      <trkpt lat="43.06328" lon="-7.17506167">
        <ele>718.0</ele>
        <time>2022-06-19T11:53:30.529Z</time>
      </trkpt>
      <trkpt lat="43.06328" lon="-7.17506167">
        <ele>718.0</ele>
        <time>2022-06-19T11:53:31.502Z</time>
      </trkpt>
      <trkpt lat="43.06322167" lon="-7.17507833">
        <ele>718.0</ele>
        <time>2022-06-19T11:53:32.510Z</time>
      </trkpt>
      <trkpt lat="43.06322167" lon="-7.17507833">
        <ele>718.0</ele>
        <time>2022-06-19T11:53:33.510Z</time>
      </trkpt>
      <trkpt lat="43.06318" lon="-7.175085">
        <ele>718.0</ele>
        <time>2022-06-19T11:53:34.521Z</time>
      </trkpt>
      <trkpt lat="43.06318" lon="-7.175085">
        <ele>718.0</ele>
        <time>2022-06-19T11:53:35.513Z</time>
      </trkpt>
      <trkpt lat="43.06312833" lon="-7.17508667">
        <ele>717.0</ele>
        <time>2022-06-19T11:53:36.515Z</time>
      </trkpt>
      <trkpt lat="43.06312833" lon="-7.17508667">
        <ele>717.0</ele>
        <time>2022-06-19T11:53:37.539Z</time>
      </trkpt>
      <trkpt lat="43.06307" lon="-7.17506333">
        <ele>717.0</ele>
        <time>2022-06-19T11:53:38.525Z</time>
      </trkpt>
      <trkpt lat="43.06307" lon="-7.17506333">
        <ele>717.0</ele>
        <time>2022-06-19T11:53:39.533Z</time>
      </trkpt>
      <trkpt lat="43.06302333" lon="-7.17506667">
        <ele>716.0</ele>
        <time>2022-06-19T11:53:40.535Z</time>
      </trkpt>
      <trkpt lat="43.06302333" lon="-7.17506667">
        <ele>716.0</ele>
        <time>2022-06-19T11:53:41.516Z</time>
      </trkpt>
      <trkpt lat="43.06298333" lon="-7.17505667">
        <ele>715.0</ele>
        <time>2022-06-19T11:53:42.526Z</time>
      </trkpt>
      <trkpt lat="43.06294333" lon="-7.17504667">
        <ele>715.0</ele>
        <time>2022-06-19T11:53:43.508Z</time>
      </trkpt>
      <trkpt lat="43.06294333" lon="-7.17504667">
        <ele>715.0</ele>
        <time>2022-06-19T11:53:44.521Z</time>
      </trkpt>
      <trkpt lat="43.06287" lon="-7.17502833">
        <ele>714.0</ele>
        <time>2022-06-19T11:53:45.513Z</time>
      </trkpt>
      <trkpt lat="43.06287" lon="-7.17502833">
        <ele>714.0</ele>
        <time>2022-06-19T11:53:46.524Z</time>
      </trkpt>
      <trkpt lat="43.06282333" lon="-7.175035">
        <ele>713.0</ele>
        <time>2022-06-19T11:53:47.523Z</time>
      </trkpt>
      <trkpt lat="43.06278333" lon="-7.17504">
        <ele>712.0</ele>
        <time>2022-06-19T11:53:48.516Z</time>
      </trkpt>
      <trkpt lat="43.06278333" lon="-7.17504">
        <ele>712.0</ele>
        <time>2022-06-19T11:53:49.520Z</time>
      </trkpt>
      <trkpt lat="43.06268167" lon="-7.17506833">
        <ele>711.0</ele>
        <time>2022-06-19T11:53:50.513Z</time>
      </trkpt>
      <trkpt lat="43.06268167" lon="-7.17506833">
        <ele>711.0</ele>
        <time>2022-06-19T11:53:51.505Z</time>
      </trkpt>
      <trkpt lat="43.06261667" lon="-7.17510167">
        <ele>711.0</ele>
        <time>2022-06-19T11:53:52.533Z</time>
      </trkpt>
      <trkpt lat="43.06259333" lon="-7.17512667">
        <ele>710.0</ele>
        <time>2022-06-19T11:53:53.540Z</time>
      </trkpt>
      <trkpt lat="43.06259333" lon="-7.17512667">
        <ele>710.0</ele>
        <time>2022-06-19T11:53:54.531Z</time>
      </trkpt>
      <trkpt lat="43.062545" lon="-7.17515667">
        <ele>710.0</ele>
        <time>2022-06-19T11:53:55.529Z</time>
      </trkpt>
      <trkpt lat="43.062545" lon="-7.17515667">
        <ele>710.0</ele>
        <time>2022-06-19T11:53:56.518Z</time>
      </trkpt>
      <trkpt lat="43.06248667" lon="-7.17518667">
        <ele>709.0</ele>
        <time>2022-06-19T11:53:57.520Z</time>
      </trkpt>
      <trkpt lat="43.06248667" lon="-7.17518667">
        <ele>709.0</ele>
        <time>2022-06-19T11:53:58.540Z</time>
      </trkpt>
      <trkpt lat="43.062415" lon="-7.17521667">
        <ele>708.0</ele>
        <time>2022-06-19T11:53:59.531Z</time>
      </trkpt>
      <trkpt lat="43.062415" lon="-7.17521667">
        <ele>708.0</ele>
        <time>2022-06-19T11:54:00.507Z</time>
      </trkpt>
      <trkpt lat="43.06237" lon="-7.175235">
        <ele>707.0</ele>
        <time>2022-06-19T11:54:01.529Z</time>
      </trkpt>
      <trkpt lat="43.06237" lon="-7.175235">
        <ele>707.0</ele>
        <time>2022-06-19T11:54:02.516Z</time>
      </trkpt>
      <trkpt lat="43.06231333" lon="-7.17525833">
        <ele>706.0</ele>
        <time>2022-06-19T11:54:03.542Z</time>
      </trkpt>
      <trkpt lat="43.06231333" lon="-7.17525833">
        <ele>706.0</ele>
        <time>2022-06-19T11:54:04.521Z</time>
      </trkpt>
      <trkpt lat="43.06226167" lon="-7.17529333">
        <ele>705.0</ele>
        <time>2022-06-19T11:54:05.542Z</time>
      </trkpt>
      <trkpt lat="43.06226167" lon="-7.17529333">
        <ele>705.0</ele>
        <time>2022-06-19T11:54:06.511Z</time>
      </trkpt>
      <trkpt lat="43.06222333" lon="-7.17533167">
        <ele>704.0</ele>
        <time>2022-06-19T11:54:07.502Z</time>
      </trkpt>
      <trkpt lat="43.06222333" lon="-7.17533167">
        <ele>704.0</ele>
        <time>2022-06-19T11:54:08.525Z</time>
      </trkpt>
      <trkpt lat="43.06218167" lon="-7.17535167">
        <ele>704.0</ele>
        <time>2022-06-19T11:54:09.508Z</time>
      </trkpt>
      <trkpt lat="43.06218167" lon="-7.17535167">
        <ele>704.0</ele>
        <time>2022-06-19T11:54:10.515Z</time>
      </trkpt>
      <trkpt lat="43.06214" lon="-7.17536333">
        <ele>703.0</ele>
        <time>2022-06-19T11:54:11.509Z</time>
      </trkpt>
      <trkpt lat="43.06214" lon="-7.17536333">
        <ele>703.0</ele>
        <time>2022-06-19T11:54:12.532Z</time>
      </trkpt>
      <trkpt lat="43.06211667" lon="-7.17538333">
        <ele>703.0</ele>
        <time>2022-06-19T11:54:13.508Z</time>
      </trkpt>
      <trkpt lat="43.06211667" lon="-7.17538333">
        <ele>703.0</ele>
        <time>2022-06-19T11:54:14.527Z</time>
      </trkpt>
      <trkpt lat="43.062085" lon="-7.17542833">
        <ele>702.0</ele>
        <time>2022-06-19T11:54:15.543Z</time>
      </trkpt>
      <trkpt lat="43.06207" lon="-7.175445">
        <ele>701.0</ele>
        <time>2022-06-19T11:54:16.532Z</time>
      </trkpt>
      <trkpt lat="43.06205167" lon="-7.175465">
        <ele>701.0</ele>
        <time>2022-06-19T11:54:17.532Z</time>
      </trkpt>
      <trkpt lat="43.06205167" lon="-7.175465">
        <ele>701.0</ele>
        <time>2022-06-19T11:54:18.538Z</time>
      </trkpt>
      <trkpt lat="43.06198167" lon="-7.175565">
        <ele>700.0</ele>
        <time>2022-06-19T11:54:19.536Z</time>
      </trkpt>
      <trkpt lat="43.06198167" lon="-7.175565">
        <ele>700.0</ele>
        <time>2022-06-19T11:54:20.515Z</time>
      </trkpt>
      <trkpt lat="43.06194833" lon="-7.17563833">
        <ele>700.0</ele>
        <time>2022-06-19T11:54:21.503Z</time>
      </trkpt>
      <trkpt lat="43.06194833" lon="-7.17563833">
        <ele>700.0</ele>
        <time>2022-06-19T11:54:22.525Z</time>
      </trkpt>
      <trkpt lat="43.06192833" lon="-7.17569333">
        <ele>699.0</ele>
        <time>2022-06-19T11:54:23.512Z</time>
      </trkpt>
      <trkpt lat="43.06192833" lon="-7.17569333">
        <ele>699.0</ele>
        <time>2022-06-19T11:54:24.528Z</time>
      </trkpt>
      <trkpt lat="43.06190167" lon="-7.17577333">
        <ele>698.0</ele>
        <time>2022-06-19T11:54:25.518Z</time>
      </trkpt>
      <trkpt lat="43.06190167" lon="-7.17577333">
        <ele>698.0</ele>
        <time>2022-06-19T11:54:26.523Z</time>
      </trkpt>
      <trkpt lat="43.06187667" lon="-7.17585167">
        <ele>697.0</ele>
        <time>2022-06-19T11:54:27.520Z</time>
      </trkpt>
      <trkpt lat="43.06187667" lon="-7.17585167">
        <ele>697.0</ele>
        <time>2022-06-19T11:54:28.532Z</time>
      </trkpt>
      <trkpt lat="43.061845" lon="-7.17591833">
        <ele>696.0</ele>
        <time>2022-06-19T11:54:29.525Z</time>
      </trkpt>
      <trkpt lat="43.061845" lon="-7.17591833">
        <ele>696.0</ele>
        <time>2022-06-19T11:54:30.505Z</time>
      </trkpt>
      <trkpt lat="43.061825" lon="-7.17598833">
        <ele>695.0</ele>
        <time>2022-06-19T11:54:31.535Z</time>
      </trkpt>
      <trkpt lat="43.061825" lon="-7.17598833">
        <ele>695.0</ele>
        <time>2022-06-19T11:54:32.514Z</time>
      </trkpt>
      <trkpt lat="43.06181333" lon="-7.17606167">
        <ele>694.0</ele>
        <time>2022-06-19T11:54:33.538Z</time>
      </trkpt>
      <trkpt lat="43.06181333" lon="-7.17606167">
        <ele>694.0</ele>
        <time>2022-06-19T11:54:34.521Z</time>
      </trkpt>
      <trkpt lat="43.0618" lon="-7.17611333">
        <ele>694.0</ele>
        <time>2022-06-19T11:54:35.518Z</time>
      </trkpt>
      <trkpt lat="43.0618" lon="-7.17611333">
        <ele>694.0</ele>
        <time>2022-06-19T11:54:36.542Z</time>
      </trkpt>
      <trkpt lat="43.06179167" lon="-7.17616333">
        <ele>693.0</ele>
        <time>2022-06-19T11:54:37.530Z</time>
      </trkpt>
      <trkpt lat="43.06178833" lon="-7.17617667">
        <ele>693.0</ele>
        <time>2022-06-19T11:54:38.508Z</time>
      </trkpt>
      <trkpt lat="43.06178833" lon="-7.17617667">
        <ele>693.0</ele>
        <time>2022-06-19T11:54:39.531Z</time>
      </trkpt>
      <trkpt lat="43.061775" lon="-7.17623167">
        <ele>692.0</ele>
        <time>2022-06-19T11:54:40.508Z</time>
      </trkpt>
      <trkpt lat="43.061775" lon="-7.17623167">
        <ele>692.0</ele>
        <time>2022-06-19T11:54:41.531Z</time>
      </trkpt>
      <trkpt lat="43.06176833" lon="-7.17625833">
        <ele>691.0</ele>
        <time>2022-06-19T11:54:42.528Z</time>
      </trkpt>
      <trkpt lat="43.061765" lon="-7.17626333">
        <ele>691.0</ele>
        <time>2022-06-19T11:54:43.530Z</time>
      </trkpt>
      <trkpt lat="43.061765" lon="-7.17626333">
        <ele>691.0</ele>
        <time>2022-06-19T11:54:44.503Z</time>
      </trkpt>
      <trkpt lat="43.061765" lon="-7.17626333">
        <ele>691.0</ele>
        <time>2022-06-19T11:54:45.521Z</time>
      </trkpt>
      <trkpt lat="43.061765" lon="-7.17626333">
        <ele>691.0</ele>
        <time>2022-06-19T11:55:07.510Z</time>
      </trkpt>
      <trkpt lat="43.061765" lon="-7.17626333">
        <ele>691.0</ele>
        <time>2022-06-19T11:55:08.517Z</time>
      </trkpt>
      <trkpt lat="43.061635" lon="-7.17628833">
        <ele>689.0</ele>
        <time>2022-06-19T11:55:09.528Z</time>
      </trkpt>
      <trkpt lat="43.061635" lon="-7.17628833">
        <ele>689.0</ele>
        <time>2022-06-19T11:55:10.523Z</time>
      </trkpt>
      <trkpt lat="43.06163" lon="-7.176265">
        <ele>688.0</ele>
        <time>2022-06-19T11:55:11.547Z</time>
      </trkpt>
      <trkpt lat="43.06163" lon="-7.176265">
        <ele>688.0</ele>
        <time>2022-06-19T11:55:12.513Z</time>
      </trkpt>
      <trkpt lat="43.06161667" lon="-7.17624333">
        <ele>688.0</ele>
        <time>2022-06-19T11:55:13.537Z</time>
      </trkpt>
      <trkpt lat="43.06161667" lon="-7.17624333">
        <ele>688.0</ele>
        <time>2022-06-19T11:55:14.536Z</time>
      </trkpt>
      <trkpt lat="43.06161667" lon="-7.176215">
        <ele>688.0</ele>
        <time>2022-06-19T11:55:15.521Z</time>
      </trkpt>
      <trkpt lat="43.06161667" lon="-7.176215">
        <ele>688.0</ele>
        <time>2022-06-19T11:55:16.536Z</time>
      </trkpt>
      <trkpt lat="43.06160667" lon="-7.17619">
        <ele>687.0</ele>
        <time>2022-06-19T11:55:17.527Z</time>
      </trkpt>
      <trkpt lat="43.06160667" lon="-7.17619">
        <ele>687.0</ele>
        <time>2022-06-19T11:55:18.523Z</time>
      </trkpt>
      <trkpt lat="43.06160333" lon="-7.17615167">
        <ele>687.0</ele>
        <time>2022-06-19T11:55:19.509Z</time>
      </trkpt>
      <trkpt lat="43.06160333" lon="-7.17615167">
        <ele>687.0</ele>
        <time>2022-06-19T11:55:20.515Z</time>
      </trkpt>
      <trkpt lat="43.06158167" lon="-7.17612333">
        <ele>686.0</ele>
        <time>2022-06-19T11:55:21.541Z</time>
      </trkpt>
      <trkpt lat="43.06157667" lon="-7.17610667">
        <ele>686.0</ele>
        <time>2022-06-19T11:55:22.537Z</time>
      </trkpt>
      <trkpt lat="43.06157667" lon="-7.17610667">
        <ele>686.0</ele>
        <time>2022-06-19T11:55:23.516Z</time>
      </trkpt>
      <trkpt lat="43.06158167" lon="-7.17607">
        <ele>686.0</ele>
        <time>2022-06-19T11:55:24.536Z</time>
      </trkpt>
      <trkpt lat="43.06158167" lon="-7.17607">
        <ele>686.0</ele>
        <time>2022-06-19T11:55:25.522Z</time>
      </trkpt>
      <trkpt lat="43.061575" lon="-7.17602667">
        <ele>685.0</ele>
        <time>2022-06-19T11:55:26.516Z</time>
      </trkpt>
      <trkpt lat="43.061575" lon="-7.17602667">
        <ele>685.0</ele>
        <time>2022-06-19T11:55:27.507Z</time>
      </trkpt>
      <trkpt lat="43.06156667" lon="-7.17598833">
        <ele>684.0</ele>
        <time>2022-06-19T11:55:28.544Z</time>
      </trkpt>
      <trkpt lat="43.06156333" lon="-7.17597333">
        <ele>684.0</ele>
        <time>2022-06-19T11:55:29.511Z</time>
      </trkpt>
      <trkpt lat="43.06156333" lon="-7.17597333">
        <ele>684.0</ele>
        <time>2022-06-19T11:55:30.521Z</time>
      </trkpt>
      <trkpt lat="43.06155333" lon="-7.17596333">
        <ele>684.0</ele>
        <time>2022-06-19T11:55:31.529Z</time>
      </trkpt>
      <trkpt lat="43.06155333" lon="-7.17596333">
        <ele>684.0</ele>
        <time>2022-06-19T11:55:32.542Z</time>
      </trkpt>
      <trkpt lat="43.06154167" lon="-7.17596">
        <ele>683.0</ele>
        <time>2022-06-19T11:55:33.512Z</time>
      </trkpt>
      <trkpt lat="43.06153167" lon="-7.17595">
        <ele>683.0</ele>
        <time>2022-06-19T11:55:40.545Z</time>
      </trkpt>
      <trkpt lat="43.06140333" lon="-7.17580167">
        <ele>683.0</ele>
        <time>2022-06-19T11:55:41.530Z</time>
      </trkpt>
      <trkpt lat="43.06138167" lon="-7.17577667">
        <ele>683.0</ele>
        <time>2022-06-19T11:55:42.526Z</time>
      </trkpt>
      <trkpt lat="43.06138167" lon="-7.17577667">
        <ele>683.0</ele>
        <time>2022-06-19T11:55:43.541Z</time>
      </trkpt>
      <trkpt lat="43.06133167" lon="-7.17572333">
        <ele>683.0</ele>
        <time>2022-06-19T11:55:44.534Z</time>
      </trkpt>
      <trkpt lat="43.06133167" lon="-7.17572333">
        <ele>683.0</ele>
        <time>2022-06-19T11:55:45.528Z</time>
      </trkpt>
      <trkpt lat="43.06129" lon="-7.17568">
        <ele>683.0</ele>
        <time>2022-06-19T11:55:46.548Z</time>
      </trkpt>
      <trkpt lat="43.06129" lon="-7.17568">
        <ele>683.0</ele>
        <time>2022-06-19T11:55:47.549Z</time>
      </trkpt>
      <trkpt lat="43.06127167" lon="-7.17565">
        <ele>683.0</ele>
        <time>2022-06-19T11:55:48.528Z</time>
      </trkpt>
      <trkpt lat="43.06124667" lon="-7.17563667">
        <ele>683.0</ele>
        <time>2022-06-19T11:55:49.530Z</time>
      </trkpt>
      <trkpt lat="43.06124667" lon="-7.17563667">
        <ele>683.0</ele>
        <time>2022-06-19T11:55:50.548Z</time>
      </trkpt>
      <trkpt lat="43.06122333" lon="-7.17560333">
        <ele>683.0</ele>
        <time>2022-06-19T11:55:51.540Z</time>
      </trkpt>
      <trkpt lat="43.06122333" lon="-7.17560333">
        <ele>683.0</ele>
        <time>2022-06-19T11:55:52.541Z</time>
      </trkpt>
      <trkpt lat="43.06121167" lon="-7.17556333">
        <ele>683.0</ele>
        <time>2022-06-19T11:55:53.531Z</time>
      </trkpt>
      <trkpt lat="43.06120833" lon="-7.17555333">
        <ele>683.0</ele>
        <time>2022-06-19T11:55:54.532Z</time>
      </trkpt>
      <trkpt lat="43.06120833" lon="-7.17555333">
        <ele>683.0</ele>
        <time>2022-06-19T11:55:55.537Z</time>
      </trkpt>
      <trkpt lat="43.061175" lon="-7.175525">
        <ele>683.0</ele>
        <time>2022-06-19T11:55:56.517Z</time>
      </trkpt>
      <trkpt lat="43.061175" lon="-7.175525">
        <ele>683.0</ele>
        <time>2022-06-19T11:55:57.528Z</time>
      </trkpt>
      <trkpt lat="43.06114833" lon="-7.17549">
        <ele>683.0</ele>
        <time>2022-06-19T11:55:58.516Z</time>
      </trkpt>
      <trkpt lat="43.06114833" lon="-7.17549">
        <ele>683.0</ele>
        <time>2022-06-19T11:55:59.538Z</time>
      </trkpt>
      <trkpt lat="43.06113833" lon="-7.175455">
        <ele>683.0</ele>
        <time>2022-06-19T11:56:00.519Z</time>
      </trkpt>
      <trkpt lat="43.06112833" lon="-7.17543333">
        <ele>683.0</ele>
        <time>2022-06-19T11:56:01.536Z</time>
      </trkpt>
      <trkpt lat="43.06112833" lon="-7.17543333">
        <ele>683.0</ele>
        <time>2022-06-19T11:56:02.530Z</time>
      </trkpt>
      <trkpt lat="43.06110667" lon="-7.17539">
        <ele>683.0</ele>
        <time>2022-06-19T11:56:03.515Z</time>
      </trkpt>
      <trkpt lat="43.06110333" lon="-7.17538">
        <ele>683.0</ele>
        <time>2022-06-19T11:56:04.546Z</time>
      </trkpt>
      <trkpt lat="43.06110333" lon="-7.17538">
        <ele>683.0</ele>
        <time>2022-06-19T11:56:05.515Z</time>
      </trkpt>
      <trkpt lat="43.06107833" lon="-7.17533667">
        <ele>683.0</ele>
        <time>2022-06-19T11:56:06.521Z</time>
      </trkpt>
      <trkpt lat="43.06106833" lon="-7.17532">
        <ele>683.0</ele>
        <time>2022-06-19T11:56:07.534Z</time>
      </trkpt>
      <trkpt lat="43.06106833" lon="-7.17532">
        <ele>683.0</ele>
        <time>2022-06-19T11:56:08.519Z</time>
      </trkpt>
      <trkpt lat="43.06105667" lon="-7.17528667">
        <ele>683.0</ele>
        <time>2022-06-19T11:56:09.547Z</time>
      </trkpt>
      <trkpt lat="43.06105" lon="-7.17527">
        <ele>683.0</ele>
        <time>2022-06-19T11:56:10.531Z</time>
      </trkpt>
      <trkpt lat="43.06105" lon="-7.17527">
        <ele>683.0</ele>
        <time>2022-06-19T11:56:11.517Z</time>
      </trkpt>
      <trkpt lat="43.06104333" lon="-7.17524333">
        <ele>684.0</ele>
        <time>2022-06-19T11:56:12.532Z</time>
      </trkpt>
      <trkpt lat="43.06103167" lon="-7.17523">
        <ele>684.0</ele>
        <time>2022-06-19T11:56:13.525Z</time>
      </trkpt>
      <trkpt lat="43.06103167" lon="-7.17523">
        <ele>684.0</ele>
        <time>2022-06-19T11:56:14.518Z</time>
      </trkpt>
      <trkpt lat="43.06101167" lon="-7.17520667">
        <ele>684.0</ele>
        <time>2022-06-19T11:56:15.511Z</time>
      </trkpt>
      <trkpt lat="43.06101167" lon="-7.17520667">
        <ele>684.0</ele>
        <time>2022-06-19T11:56:16.532Z</time>
      </trkpt>
      <trkpt lat="43.06099333" lon="-7.17516833">
        <ele>685.0</ele>
        <time>2022-06-19T11:56:17.516Z</time>
      </trkpt>
      <trkpt lat="43.06099333" lon="-7.17516833">
        <ele>685.0</ele>
        <time>2022-06-19T11:56:18.544Z</time>
      </trkpt>
      <trkpt lat="43.06099333" lon="-7.17514">
        <ele>685.0</ele>
        <time>2022-06-19T11:56:19.545Z</time>
      </trkpt>
      <trkpt lat="43.06099333" lon="-7.17513167">
        <ele>685.0</ele>
        <time>2022-06-19T11:56:20.550Z</time>
      </trkpt>
      <trkpt lat="43.060995" lon="-7.17512667">
        <ele>685.0</ele>
        <time>2022-06-19T11:56:21.514Z</time>
      </trkpt>
      <trkpt lat="43.060995" lon="-7.17512167">
        <ele>686.0</ele>
        <time>2022-06-19T11:56:22.542Z</time>
      </trkpt>
      <trkpt lat="43.060995" lon="-7.17512167">
        <ele>686.0</ele>
        <time>2022-06-19T11:56:40.015Z</time>
      </trkpt>
      <trkpt lat="43.060995" lon="-7.17512167">
        <ele>686.0</ele>
        <time>2022-06-19T11:56:41.042Z</time>
      </trkpt>
      <trkpt lat="43.06084167" lon="-7.17489167">
        <ele>688.0</ele>
        <time>2022-06-19T11:56:42.023Z</time>
      </trkpt>
      <trkpt lat="43.06084167" lon="-7.17489167">
        <ele>688.0</ele>
        <time>2022-06-19T11:56:43.040Z</time>
      </trkpt>
      <trkpt lat="43.06083667" lon="-7.174875">
        <ele>688.0</ele>
        <time>2022-06-19T11:56:44.020Z</time>
      </trkpt>
      <trkpt lat="43.06083667" lon="-7.174875">
        <ele>688.0</ele>
        <time>2022-06-19T11:56:45.026Z</time>
      </trkpt>
      <trkpt lat="43.06082833" lon="-7.17485">
        <ele>689.0</ele>
        <time>2022-06-19T11:56:46.025Z</time>
      </trkpt>
      <trkpt lat="43.06082833" lon="-7.17485">
        <ele>689.0</ele>
        <time>2022-06-19T11:56:47.034Z</time>
      </trkpt>
      <trkpt lat="43.060825" lon="-7.17482833">
        <ele>689.0</ele>
        <time>2022-06-19T11:56:48.027Z</time>
      </trkpt>
      <trkpt lat="43.060825" lon="-7.17482833">
        <ele>689.0</ele>
        <time>2022-06-19T11:56:49.034Z</time>
      </trkpt>
      <trkpt lat="43.06082167" lon="-7.17481667">
        <ele>690.0</ele>
        <time>2022-06-19T11:56:50.029Z</time>
      </trkpt>
      <trkpt lat="43.06082167" lon="-7.17481667">
        <ele>690.0</ele>
        <time>2022-06-19T11:56:51.037Z</time>
      </trkpt>
      <trkpt lat="43.0608" lon="-7.17477333">
        <ele>691.0</ele>
        <time>2022-06-19T11:56:53.526Z</time>
      </trkpt>
      <trkpt lat="43.0608" lon="-7.17477333">
        <ele>691.0</ele>
        <time>2022-06-19T11:56:54.532Z</time>
      </trkpt>
      <trkpt lat="43.0608" lon="-7.174745">
        <ele>691.0</ele>
        <time>2022-06-19T11:56:55.523Z</time>
      </trkpt>
      <trkpt lat="43.0608" lon="-7.174745">
        <ele>691.0</ele>
        <time>2022-06-19T11:56:56.504Z</time>
      </trkpt>
      <trkpt lat="43.06081667" lon="-7.17472333">
        <ele>692.0</ele>
        <time>2022-06-19T11:56:57.536Z</time>
      </trkpt>
      <trkpt lat="43.06081667" lon="-7.17472333">
        <ele>692.0</ele>
        <time>2022-06-19T11:56:58.526Z</time>
      </trkpt>
      <trkpt lat="43.06082167" lon="-7.17470333">
        <ele>693.0</ele>
        <time>2022-06-19T11:56:59.514Z</time>
      </trkpt>
      <trkpt lat="43.06081333" lon="-7.17468833">
        <ele>693.0</ele>
        <time>2022-06-19T11:57:00.540Z</time>
      </trkpt>
      <trkpt lat="43.06081333" lon="-7.17468833">
        <ele>693.0</ele>
        <time>2022-06-19T11:57:01.523Z</time>
      </trkpt>
      <trkpt lat="43.06081333" lon="-7.17468833">
        <ele>693.0</ele>
        <time>2022-06-19T11:57:25.021Z</time>
      </trkpt>
      <trkpt lat="43.06081" lon="-7.17440667">
        <ele>696.0</ele>
        <time>2022-06-19T11:57:26.034Z</time>
      </trkpt>
      <trkpt lat="43.06081" lon="-7.17440667">
        <ele>696.0</ele>
        <time>2022-06-19T11:57:27.040Z</time>
      </trkpt>
      <trkpt lat="43.06078833" lon="-7.17437">
        <ele>695.0</ele>
        <time>2022-06-19T11:57:28.034Z</time>
      </trkpt>
      <trkpt lat="43.06077667" lon="-7.17435">
        <ele>695.0</ele>
        <time>2022-06-19T11:57:29.035Z</time>
      </trkpt>
      <trkpt lat="43.06077667" lon="-7.17435">
        <ele>695.0</ele>
        <time>2022-06-19T11:57:30.025Z</time>
      </trkpt>
      <trkpt lat="43.06076" lon="-7.174315">
        <ele>696.0</ele>
        <time>2022-06-19T11:57:31.015Z</time>
      </trkpt>
      <trkpt lat="43.06075333" lon="-7.174295">
        <ele>696.0</ele>
        <time>2022-06-19T11:57:32.014Z</time>
      </trkpt>
      <trkpt lat="43.06075333" lon="-7.174295">
        <ele>696.0</ele>
        <time>2022-06-19T11:57:33.020Z</time>
      </trkpt>
      <trkpt lat="43.06074667" lon="-7.17425167">
        <ele>696.0</ele>
        <time>2022-06-19T11:57:34.032Z</time>
      </trkpt>
      <trkpt lat="43.06074667" lon="-7.17425167">
        <ele>696.0</ele>
        <time>2022-06-19T11:57:35.038Z</time>
      </trkpt>
      <trkpt lat="43.06073167" lon="-7.174205">
        <ele>696.0</ele>
        <time>2022-06-19T11:57:36.026Z</time>
      </trkpt>
      <trkpt lat="43.06073167" lon="-7.174205">
        <ele>696.0</ele>
        <time>2022-06-19T11:57:37.034Z</time>
      </trkpt>
      <trkpt lat="43.06071833" lon="-7.17413667">
        <ele>696.0</ele>
        <time>2022-06-19T11:57:38.040Z</time>
      </trkpt>
      <trkpt lat="43.06071833" lon="-7.17413667">
        <ele>696.0</ele>
        <time>2022-06-19T11:57:39.006Z</time>
      </trkpt>
      <trkpt lat="43.060715" lon="-7.17406167">
        <ele>696.0</ele>
        <time>2022-06-19T11:57:40.011Z</time>
      </trkpt>
      <trkpt lat="43.060715" lon="-7.17406167">
        <ele>696.0</ele>
        <time>2022-06-19T11:57:41.017Z</time>
      </trkpt>
      <trkpt lat="43.0607" lon="-7.17401667">
        <ele>696.0</ele>
        <time>2022-06-19T11:57:42.004Z</time>
      </trkpt>
      <trkpt lat="43.06069167" lon="-7.173995">
        <ele>696.0</ele>
        <time>2022-06-19T11:57:43.034Z</time>
      </trkpt>
      <trkpt lat="43.06069333" lon="-7.17396833">
        <ele>696.0</ele>
        <time>2022-06-19T11:57:44.004Z</time>
      </trkpt>
      <trkpt lat="43.06069333" lon="-7.17396833">
        <ele>696.0</ele>
        <time>2022-06-19T11:57:45.010Z</time>
      </trkpt>
      <trkpt lat="43.06069167" lon="-7.17390833">
        <ele>696.0</ele>
        <time>2022-06-19T11:57:46.012Z</time>
      </trkpt>
      <trkpt lat="43.06069167" lon="-7.17390833">
        <ele>696.0</ele>
        <time>2022-06-19T11:57:47.018Z</time>
      </trkpt>
      <trkpt lat="43.06067333" lon="-7.17383833">
        <ele>696.0</ele>
        <time>2022-06-19T11:57:48.009Z</time>
      </trkpt>
      <trkpt lat="43.06067333" lon="-7.17383833">
        <ele>696.0</ele>
        <time>2022-06-19T11:57:49.015Z</time>
      </trkpt>
      <trkpt lat="43.06065167" lon="-7.17379">
        <ele>696.0</ele>
        <time>2022-06-19T11:57:50.005Z</time>
      </trkpt>
      <trkpt lat="43.06065167" lon="-7.17379">
        <ele>696.0</ele>
        <time>2022-06-19T11:57:51.010Z</time>
      </trkpt>
      <trkpt lat="43.06064167" lon="-7.17373167">
        <ele>696.0</ele>
        <time>2022-06-19T11:57:52.005Z</time>
      </trkpt>
      <trkpt lat="43.06064167" lon="-7.17373167">
        <ele>696.0</ele>
        <time>2022-06-19T11:57:53.010Z</time>
      </trkpt>
      <trkpt lat="43.06062667" lon="-7.17367">
        <ele>696.0</ele>
        <time>2022-06-19T11:57:54.038Z</time>
      </trkpt>
      <trkpt lat="43.06062667" lon="-7.17367">
        <ele>696.0</ele>
        <time>2022-06-19T11:57:55.015Z</time>
      </trkpt>
      <trkpt lat="43.0606" lon="-7.17362">
        <ele>697.0</ele>
        <time>2022-06-19T11:57:56.012Z</time>
      </trkpt>
      <trkpt lat="43.0606" lon="-7.17362">
        <ele>697.0</ele>
        <time>2022-06-19T11:57:57.026Z</time>
      </trkpt>
      <trkpt lat="43.06056667" lon="-7.17357667">
        <ele>697.0</ele>
        <time>2022-06-19T11:57:58.013Z</time>
      </trkpt>
      <trkpt lat="43.06056667" lon="-7.17357667">
        <ele>697.0</ele>
        <time>2022-06-19T11:57:59.019Z</time>
      </trkpt>
      <trkpt lat="43.06054833" lon="-7.17352667">
        <ele>697.0</ele>
        <time>2022-06-19T11:58:00.034Z</time>
      </trkpt>
      <trkpt lat="43.06054833" lon="-7.17352667">
        <ele>697.0</ele>
        <time>2022-06-19T11:58:01.040Z</time>
      </trkpt>
      <trkpt lat="43.06054" lon="-7.17348333">
        <ele>697.0</ele>
        <time>2022-06-19T11:58:02.029Z</time>
      </trkpt>
      <trkpt lat="43.06054" lon="-7.17348333">
        <ele>697.0</ele>
        <time>2022-06-19T11:58:03.037Z</time>
      </trkpt>
      <trkpt lat="43.06052833" lon="-7.17342167">
        <ele>698.0</ele>
        <time>2022-06-19T11:58:04.026Z</time>
      </trkpt>
      <trkpt lat="43.06052833" lon="-7.17342167">
        <ele>698.0</ele>
        <time>2022-06-19T11:58:05.032Z</time>
      </trkpt>
      <trkpt lat="43.06050167" lon="-7.17332833">
        <ele>697.0</ele>
        <time>2022-06-19T11:58:06.007Z</time>
      </trkpt>
      <trkpt lat="43.06050167" lon="-7.17332833">
        <ele>697.0</ele>
        <time>2022-06-19T11:58:07.013Z</time>
      </trkpt>
      <trkpt lat="43.06046" lon="-7.17325667">
        <ele>697.0</ele>
        <time>2022-06-19T11:58:08.035Z</time>
      </trkpt>
      <trkpt lat="43.06044" lon="-7.17321833">
        <ele>697.0</ele>
        <time>2022-06-19T11:58:09.024Z</time>
      </trkpt>
      <trkpt lat="43.06044" lon="-7.17321833">
        <ele>697.0</ele>
        <time>2022-06-19T11:58:10.030Z</time>
      </trkpt>
      <trkpt lat="43.06037833" lon="-7.17312667">
        <ele>697.0</ele>
        <time>2022-06-19T11:58:11.016Z</time>
      </trkpt>
      <trkpt lat="43.06037833" lon="-7.17312667">
        <ele>697.0</ele>
        <time>2022-06-19T11:58:12.022Z</time>
      </trkpt>
      <trkpt lat="43.06033667" lon="-7.173055">
        <ele>696.0</ele>
        <time>2022-06-19T11:58:13.035Z</time>
      </trkpt>
      <trkpt lat="43.060315" lon="-7.17301833">
        <ele>696.0</ele>
        <time>2022-06-19T11:58:14.022Z</time>
      </trkpt>
      <trkpt lat="43.060315" lon="-7.17301833">
        <ele>696.0</ele>
        <time>2022-06-19T11:58:15.029Z</time>
      </trkpt>
      <trkpt lat="43.06027" lon="-7.17295833">
        <ele>695.0</ele>
        <time>2022-06-19T11:58:16.010Z</time>
      </trkpt>
      <trkpt lat="43.06024833" lon="-7.17293167">
        <ele>695.0</ele>
        <time>2022-06-19T11:58:17.011Z</time>
      </trkpt>
      <trkpt lat="43.06024833" lon="-7.17293167">
        <ele>695.0</ele>
        <time>2022-06-19T11:58:18.017Z</time>
      </trkpt>
      <trkpt lat="43.06020667" lon="-7.17288333">
        <ele>694.0</ele>
        <time>2022-06-19T11:58:19.010Z</time>
      </trkpt>
      <trkpt lat="43.06020667" lon="-7.17288333">
        <ele>694.0</ele>
        <time>2022-06-19T11:58:20.016Z</time>
      </trkpt>
      <trkpt lat="43.06016" lon="-7.17284">
        <ele>693.0</ele>
        <time>2022-06-19T11:58:21.011Z</time>
      </trkpt>
      <trkpt lat="43.06016" lon="-7.17284">
        <ele>693.0</ele>
        <time>2022-06-19T11:58:22.017Z</time>
      </trkpt>
      <trkpt lat="43.06011167" lon="-7.17280833">
        <ele>692.0</ele>
        <time>2022-06-19T11:58:23.034Z</time>
      </trkpt>
      <trkpt lat="43.060085" lon="-7.17279833">
        <ele>692.0</ele>
        <time>2022-06-19T11:58:24.032Z</time>
      </trkpt>
      <trkpt lat="43.060085" lon="-7.17279833">
        <ele>692.0</ele>
        <time>2022-06-19T11:58:25.038Z</time>
      </trkpt>
      <trkpt lat="43.06002333" lon="-7.17277167">
        <ele>692.0</ele>
        <time>2022-06-19T11:58:26.024Z</time>
      </trkpt>
      <trkpt lat="43.05999" lon="-7.17275667">
        <ele>691.0</ele>
        <time>2022-06-19T11:58:27.034Z</time>
      </trkpt>
      <trkpt lat="43.05999" lon="-7.17275667">
        <ele>691.0</ele>
        <time>2022-06-19T11:58:28.014Z</time>
      </trkpt>
      <trkpt lat="43.059925" lon="-7.17273333">
        <ele>691.0</ele>
        <time>2022-06-19T11:58:29.029Z</time>
      </trkpt>
      <trkpt lat="43.059895" lon="-7.172725">
        <ele>690.0</ele>
        <time>2022-06-19T11:58:30.013Z</time>
      </trkpt>
      <trkpt lat="43.059895" lon="-7.172725">
        <ele>690.0</ele>
        <time>2022-06-19T11:58:31.019Z</time>
      </trkpt>
      <trkpt lat="43.05982833" lon="-7.17272167">
        <ele>690.0</ele>
        <time>2022-06-19T11:58:32.025Z</time>
      </trkpt>
      <trkpt lat="43.05979833" lon="-7.17272333">
        <ele>690.0</ele>
        <time>2022-06-19T11:58:33.025Z</time>
      </trkpt>
      <trkpt lat="43.05979833" lon="-7.17272333">
        <ele>690.0</ele>
        <time>2022-06-19T11:58:34.031Z</time>
      </trkpt>
      <trkpt lat="43.05975" lon="-7.17272">
        <ele>690.0</ele>
        <time>2022-06-19T11:58:35.021Z</time>
      </trkpt>
      <trkpt lat="43.05975" lon="-7.17272">
        <ele>690.0</ele>
        <time>2022-06-19T11:58:36.027Z</time>
      </trkpt>
      <trkpt lat="43.05969333" lon="-7.17274333">
        <ele>690.0</ele>
        <time>2022-06-19T11:58:37.004Z</time>
      </trkpt>
      <trkpt lat="43.05967" lon="-7.17276667">
        <ele>690.0</ele>
        <time>2022-06-19T11:58:38.038Z</time>
      </trkpt>
      <trkpt lat="43.05967" lon="-7.17276667">
        <ele>690.0</ele>
        <time>2022-06-19T11:58:39.004Z</time>
      </trkpt>
      <trkpt lat="43.05962" lon="-7.17280667">
        <ele>689.0</ele>
        <time>2022-06-19T11:58:40.034Z</time>
      </trkpt>
      <trkpt lat="43.05957" lon="-7.17284333">
        <ele>689.0</ele>
        <time>2022-06-19T11:58:41.013Z</time>
      </trkpt>
      <trkpt lat="43.05953" lon="-7.17286833">
        <ele>689.0</ele>
        <time>2022-06-19T11:58:42.013Z</time>
      </trkpt>
      <trkpt lat="43.05953" lon="-7.17286833">
        <ele>689.0</ele>
        <time>2022-06-19T11:58:43.019Z</time>
      </trkpt>
      <trkpt lat="43.059485" lon="-7.17290667">
        <ele>689.0</ele>
        <time>2022-06-19T11:58:44.012Z</time>
      </trkpt>
      <trkpt lat="43.059485" lon="-7.17290667">
        <ele>689.0</ele>
        <time>2022-06-19T11:58:45.025Z</time>
      </trkpt>
      <trkpt lat="43.05944167" lon="-7.17292167">
        <ele>689.0</ele>
        <time>2022-06-19T11:58:46.034Z</time>
      </trkpt>
      <trkpt lat="43.05942" lon="-7.17291667">
        <ele>689.0</ele>
        <time>2022-06-19T11:58:47.034Z</time>
      </trkpt>
      <trkpt lat="43.05942" lon="-7.17291667">
        <ele>689.0</ele>
        <time>2022-06-19T11:58:48.042Z</time>
      </trkpt>
      <trkpt lat="43.05938833" lon="-7.17291">
        <ele>689.0</ele>
        <time>2022-06-19T11:58:49.004Z</time>
      </trkpt>
      <trkpt lat="43.05938833" lon="-7.17291">
        <ele>689.0</ele>
        <time>2022-06-19T11:58:50.010Z</time>
      </trkpt>
      <trkpt lat="43.059355" lon="-7.17289833">
        <ele>689.0</ele>
        <time>2022-06-19T11:58:51.013Z</time>
      </trkpt>
      <trkpt lat="43.05933" lon="-7.17289333">
        <ele>689.0</ele>
        <time>2022-06-19T11:58:52.019Z</time>
      </trkpt>
      <trkpt lat="43.05933" lon="-7.17289333">
        <ele>689.0</ele>
        <time>2022-06-19T11:58:53.025Z</time>
      </trkpt>
      <trkpt lat="43.05931" lon="-7.17288167">
        <ele>689.0</ele>
        <time>2022-06-19T11:58:54.039Z</time>
      </trkpt>
      <trkpt lat="43.059295" lon="-7.17288">
        <ele>689.0</ele>
        <time>2022-06-19T11:58:55.025Z</time>
      </trkpt>
      <trkpt lat="43.059275" lon="-7.17287667">
        <ele>689.0</ele>
        <time>2022-06-19T11:58:56.015Z</time>
      </trkpt>
      <trkpt lat="43.059275" lon="-7.17287667">
        <ele>689.0</ele>
        <time>2022-06-19T11:58:57.023Z</time>
      </trkpt>
      <trkpt lat="43.05924167" lon="-7.17286167">
        <ele>689.0</ele>
        <time>2022-06-19T11:58:58.030Z</time>
      </trkpt>
      <trkpt lat="43.05924167" lon="-7.17286167">
        <ele>689.0</ele>
        <time>2022-06-19T11:58:59.036Z</time>
      </trkpt>
      <trkpt lat="43.059195" lon="-7.17285">
        <ele>689.0</ele>
        <time>2022-06-19T11:59:00.004Z</time>
      </trkpt>
      <trkpt lat="43.059195" lon="-7.17285">
        <ele>689.0</ele>
        <time>2022-06-19T11:59:01.013Z</time>
      </trkpt>
      <trkpt lat="43.05916333" lon="-7.17284833">
        <ele>690.0</ele>
        <time>2022-06-19T11:59:02.014Z</time>
      </trkpt>
      <trkpt lat="43.05916333" lon="-7.17284833">
        <ele>690.0</ele>
        <time>2022-06-19T11:59:03.020Z</time>
      </trkpt>
      <trkpt lat="43.05913333" lon="-7.17285167">
        <ele>690.0</ele>
        <time>2022-06-19T11:59:04.011Z</time>
      </trkpt>
      <trkpt lat="43.05912" lon="-7.17285">
        <ele>690.0</ele>
        <time>2022-06-19T11:59:05.040Z</time>
      </trkpt>
      <trkpt lat="43.05912" lon="-7.17285">
        <ele>690.0</ele>
        <time>2022-06-19T11:59:06.006Z</time>
      </trkpt>
      <trkpt lat="43.059085" lon="-7.17285333">
        <ele>690.0</ele>
        <time>2022-06-19T11:59:07.005Z</time>
      </trkpt>
      <trkpt lat="43.059085" lon="-7.17285333">
        <ele>690.0</ele>
        <time>2022-06-19T11:59:08.012Z</time>
      </trkpt>
      <trkpt lat="43.05904667" lon="-7.17285">
        <ele>690.0</ele>
        <time>2022-06-19T11:59:09.029Z</time>
      </trkpt>
      <trkpt lat="43.05904667" lon="-7.17285">
        <ele>690.0</ele>
        <time>2022-06-19T11:59:10.035Z</time>
      </trkpt>
      <trkpt lat="43.05903333" lon="-7.17284333">
        <ele>690.0</ele>
        <time>2022-06-19T11:59:11.025Z</time>
      </trkpt>
      <trkpt lat="43.05903333" lon="-7.17284333">
        <ele>690.0</ele>
        <time>2022-06-19T11:59:12.030Z</time>
      </trkpt>
      <trkpt lat="43.05900333" lon="-7.17284667">
        <ele>691.0</ele>
        <time>2022-06-19T11:59:13.037Z</time>
      </trkpt>
      <trkpt lat="43.05900333" lon="-7.17284667">
        <ele>691.0</ele>
        <time>2022-06-19T11:59:14.003Z</time>
      </trkpt>
      <trkpt lat="43.05898" lon="-7.17284">
        <ele>691.0</ele>
        <time>2022-06-19T11:59:15.026Z</time>
      </trkpt>
      <trkpt lat="43.058955" lon="-7.17283833">
        <ele>691.0</ele>
        <time>2022-06-19T11:59:16.026Z</time>
      </trkpt>
      <trkpt lat="43.058955" lon="-7.17283833">
        <ele>691.0</ele>
        <time>2022-06-19T11:59:17.032Z</time>
      </trkpt>
      <trkpt lat="43.05889167" lon="-7.172855">
        <ele>691.0</ele>
        <time>2022-06-19T11:59:18.003Z</time>
      </trkpt>
      <trkpt lat="43.05889167" lon="-7.172855">
        <ele>691.0</ele>
        <time>2022-06-19T11:59:19.009Z</time>
      </trkpt>
      <trkpt lat="43.05886333" lon="-7.172865">
        <ele>691.0</ele>
        <time>2022-06-19T11:59:20.006Z</time>
      </trkpt>
      <trkpt lat="43.05886333" lon="-7.172865">
        <ele>691.0</ele>
        <time>2022-06-19T11:59:21.012Z</time>
      </trkpt>
      <trkpt lat="43.05883833" lon="-7.17286">
        <ele>692.0</ele>
        <time>2022-06-19T11:59:22.017Z</time>
      </trkpt>
      <trkpt lat="43.05882333" lon="-7.172855">
        <ele>692.0</ele>
        <time>2022-06-19T11:59:23.010Z</time>
      </trkpt>
      <trkpt lat="43.05879833" lon="-7.172855">
        <ele>692.0</ele>
        <time>2022-06-19T11:59:24.014Z</time>
      </trkpt>
      <trkpt lat="43.058775" lon="-7.172855">
        <ele>692.0</ele>
        <time>2022-06-19T11:59:25.019Z</time>
      </trkpt>
      <trkpt lat="43.058775" lon="-7.172855">
        <ele>692.0</ele>
        <time>2022-06-19T11:59:26.025Z</time>
      </trkpt>
      <trkpt lat="43.05873833" lon="-7.17287">
        <ele>692.0</ele>
        <time>2022-06-19T11:59:27.006Z</time>
      </trkpt>
      <trkpt lat="43.05871167" lon="-7.172865">
        <ele>692.0</ele>
        <time>2022-06-19T11:59:28.034Z</time>
      </trkpt>
      <trkpt lat="43.05871167" lon="-7.172865">
        <ele>692.0</ele>
        <time>2022-06-19T11:59:29.009Z</time>
      </trkpt>
      <trkpt lat="43.05867833" lon="-7.172855">
        <ele>692.0</ele>
        <time>2022-06-19T11:59:30.041Z</time>
      </trkpt>
      <trkpt lat="43.05867833" lon="-7.172855">
        <ele>692.0</ele>
        <time>2022-06-19T11:59:31.007Z</time>
      </trkpt>
      <trkpt lat="43.05861833" lon="-7.17286">
        <ele>692.0</ele>
        <time>2022-06-19T11:59:32.003Z</time>
      </trkpt>
      <trkpt lat="43.05861833" lon="-7.17286">
        <ele>692.0</ele>
        <time>2022-06-19T11:59:33.009Z</time>
      </trkpt>
      <trkpt lat="43.05857" lon="-7.17287833">
        <ele>692.0</ele>
        <time>2022-06-19T11:59:34.014Z</time>
      </trkpt>
      <trkpt lat="43.05857" lon="-7.17287833">
        <ele>692.0</ele>
        <time>2022-06-19T11:59:35.020Z</time>
      </trkpt>
      <trkpt lat="43.058525" lon="-7.17290167">
        <ele>692.0</ele>
        <time>2022-06-19T11:59:36.007Z</time>
      </trkpt>
      <trkpt lat="43.05847833" lon="-7.17290167">
        <ele>692.0</ele>
        <time>2022-06-19T11:59:37.034Z</time>
      </trkpt>
      <trkpt lat="43.05842833" lon="-7.1729">
        <ele>692.0</ele>
        <time>2022-06-19T11:59:38.036Z</time>
      </trkpt>
      <trkpt lat="43.05842833" lon="-7.1729">
        <ele>692.0</ele>
        <time>2022-06-19T11:59:39.042Z</time>
      </trkpt>
      <trkpt lat="43.05834333" lon="-7.17286667">
        <ele>693.0</ele>
        <time>2022-06-19T11:59:40.037Z</time>
      </trkpt>
      <trkpt lat="43.05834333" lon="-7.17286667">
        <ele>693.0</ele>
        <time>2022-06-19T11:59:41.003Z</time>
      </trkpt>
      <trkpt lat="43.05828667" lon="-7.17286">
        <ele>693.0</ele>
        <time>2022-06-19T11:59:42.037Z</time>
      </trkpt>
      <trkpt lat="43.05827" lon="-7.17285333">
        <ele>693.0</ele>
        <time>2022-06-19T11:59:43.034Z</time>
      </trkpt>
      <trkpt lat="43.05825167" lon="-7.17284333">
        <ele>693.0</ele>
        <time>2022-06-19T11:59:44.021Z</time>
      </trkpt>
      <trkpt lat="43.05825167" lon="-7.17284333">
        <ele>693.0</ele>
        <time>2022-06-19T11:59:45.029Z</time>
      </trkpt>
      <trkpt lat="43.058215" lon="-7.17284833">
        <ele>693.0</ele>
        <time>2022-06-19T11:59:46.009Z</time>
      </trkpt>
      <trkpt lat="43.058215" lon="-7.17284833">
        <ele>693.0</ele>
        <time>2022-06-19T11:59:47.016Z</time>
      </trkpt>
      <trkpt lat="43.05816" lon="-7.17283">
        <ele>693.0</ele>
        <time>2022-06-19T11:59:48.020Z</time>
      </trkpt>
      <trkpt lat="43.05816" lon="-7.17283">
        <ele>693.0</ele>
        <time>2022-06-19T11:59:49.027Z</time>
      </trkpt>
      <trkpt lat="43.05806833" lon="-7.172805">
        <ele>692.0</ele>
        <time>2022-06-19T11:59:50.040Z</time>
      </trkpt>
      <trkpt lat="43.05806833" lon="-7.172805">
        <ele>692.0</ele>
        <time>2022-06-19T11:59:51.006Z</time>
      </trkpt>
      <trkpt lat="43.05792" lon="-7.172765">
        <ele>691.0</ele>
        <time>2022-06-19T11:59:52.013Z</time>
      </trkpt>
      <trkpt lat="43.05792" lon="-7.172765">
        <ele>691.0</ele>
        <time>2022-06-19T11:59:53.019Z</time>
      </trkpt>
      <trkpt lat="43.05785167" lon="-7.17270833">
        <ele>689.0</ele>
        <time>2022-06-19T11:59:54.003Z</time>
      </trkpt>
      <trkpt lat="43.05785167" lon="-7.17270833">
        <ele>689.0</ele>
        <time>2022-06-19T11:59:55.014Z</time>
      </trkpt>
      <trkpt lat="43.057805" lon="-7.17267667">
        <ele>687.0</ele>
        <time>2022-06-19T11:59:56.004Z</time>
      </trkpt>
      <trkpt lat="43.057805" lon="-7.17267667">
        <ele>687.0</ele>
        <time>2022-06-19T11:59:57.014Z</time>
      </trkpt>
      <trkpt lat="43.05774667" lon="-7.17268">
        <ele>686.0</ele>
        <time>2022-06-19T11:59:58.012Z</time>
      </trkpt>
      <trkpt lat="43.05774667" lon="-7.17268">
        <ele>686.0</ele>
        <time>2022-06-19T11:59:59.021Z</time>
      </trkpt>
      <trkpt lat="43.0577" lon="-7.172735">
        <ele>685.0</ele>
        <time>2022-06-19T12:00:00.033Z</time>
      </trkpt>
      <trkpt lat="43.0577" lon="-7.172735">
        <ele>685.0</ele>
        <time>2022-06-19T12:00:01.019Z</time>
      </trkpt>
      <trkpt lat="43.05767167" lon="-7.17281">
        <ele>684.0</ele>
        <time>2022-06-19T12:00:02.028Z</time>
      </trkpt>
      <trkpt lat="43.05765833" lon="-7.17285333">
        <ele>683.0</ele>
        <time>2022-06-19T12:00:03.025Z</time>
      </trkpt>
      <trkpt lat="43.05765833" lon="-7.17285333">
        <ele>683.0</ele>
        <time>2022-06-19T12:00:04.034Z</time>
      </trkpt>
      <trkpt lat="43.05763333" lon="-7.17293667">
        <ele>682.0</ele>
        <time>2022-06-19T12:00:05.011Z</time>
      </trkpt>
      <trkpt lat="43.05763333" lon="-7.17293667">
        <ele>682.0</ele>
        <time>2022-06-19T12:00:06.018Z</time>
      </trkpt>
      <trkpt lat="43.057615" lon="-7.17300667">
        <ele>682.0</ele>
        <time>2022-06-19T12:00:07.037Z</time>
      </trkpt>
      <trkpt lat="43.05759833" lon="-7.17304">
        <ele>681.0</ele>
        <time>2022-06-19T12:00:08.032Z</time>
      </trkpt>
      <trkpt lat="43.05759833" lon="-7.17304">
        <ele>681.0</ele>
        <time>2022-06-19T12:00:09.041Z</time>
      </trkpt>
      <trkpt lat="43.05756333" lon="-7.17310167">
        <ele>680.0</ele>
        <time>2022-06-19T12:00:10.008Z</time>
      </trkpt>
      <trkpt lat="43.05756333" lon="-7.17310167">
        <ele>680.0</ele>
        <time>2022-06-19T12:00:11.021Z</time>
      </trkpt>
      <trkpt lat="43.05752333" lon="-7.17315167">
        <ele>679.0</ele>
        <time>2022-06-19T12:00:12.024Z</time>
      </trkpt>
      <trkpt lat="43.05752333" lon="-7.17315167">
        <ele>679.0</ele>
        <time>2022-06-19T12:00:13.034Z</time>
      </trkpt>
      <trkpt lat="43.05747667" lon="-7.173185">
        <ele>679.0</ele>
        <time>2022-06-19T12:00:14.032Z</time>
      </trkpt>
      <trkpt lat="43.05747667" lon="-7.173185">
        <ele>679.0</ele>
        <time>2022-06-19T12:00:15.042Z</time>
      </trkpt>
      <trkpt lat="43.05741667" lon="-7.173205">
        <ele>678.0</ele>
        <time>2022-06-19T12:00:16.006Z</time>
      </trkpt>
      <trkpt lat="43.05741667" lon="-7.173205">
        <ele>678.0</ele>
        <time>2022-06-19T12:00:17.014Z</time>
      </trkpt>
      <trkpt lat="43.05737167" lon="-7.17318833">
        <ele>678.0</ele>
        <time>2022-06-19T12:00:18.025Z</time>
      </trkpt>
      <trkpt lat="43.05737167" lon="-7.17318833">
        <ele>678.0</ele>
        <time>2022-06-19T12:00:19.034Z</time>
      </trkpt>
      <trkpt lat="43.057335" lon="-7.17313">
        <ele>677.0</ele>
        <time>2022-06-19T12:00:20.027Z</time>
      </trkpt>
      <trkpt lat="43.057335" lon="-7.17313">
        <ele>677.0</ele>
        <time>2022-06-19T12:00:21.036Z</time>
      </trkpt>
      <trkpt lat="43.05730333" lon="-7.173055">
        <ele>677.0</ele>
        <time>2022-06-19T12:00:22.010Z</time>
      </trkpt>
      <trkpt lat="43.05730333" lon="-7.173055">
        <ele>677.0</ele>
        <time>2022-06-19T12:00:23.018Z</time>
      </trkpt>
      <trkpt lat="43.05728333" lon="-7.172985">
        <ele>676.0</ele>
        <time>2022-06-19T12:00:24.173Z</time>
      </trkpt>
      <trkpt lat="43.05728333" lon="-7.172985">
        <ele>676.0</ele>
        <time>2022-06-19T12:00:25.019Z</time>
      </trkpt>
      <trkpt lat="43.05724833" lon="-7.17291167">
        <ele>676.0</ele>
        <time>2022-06-19T12:00:26.024Z</time>
      </trkpt>
      <trkpt lat="43.05724833" lon="-7.17291167">
        <ele>676.0</ele>
        <time>2022-06-19T12:00:27.032Z</time>
      </trkpt>
      <trkpt lat="43.05721" lon="-7.172835">
        <ele>675.0</ele>
        <time>2022-06-19T12:00:28.025Z</time>
      </trkpt>
      <trkpt lat="43.05721" lon="-7.172835">
        <ele>675.0</ele>
        <time>2022-06-19T12:00:29.023Z</time>
      </trkpt>
      <trkpt lat="43.05716333" lon="-7.17276333">
        <ele>675.0</ele>
        <time>2022-06-19T12:00:30.021Z</time>
      </trkpt>
      <trkpt lat="43.05716333" lon="-7.17276333">
        <ele>675.0</ele>
        <time>2022-06-19T12:00:31.029Z</time>
      </trkpt>
      <trkpt lat="43.057115" lon="-7.17269333">
        <ele>675.0</ele>
        <time>2022-06-19T12:00:32.031Z</time>
      </trkpt>
      <trkpt lat="43.057115" lon="-7.17269333">
        <ele>675.0</ele>
        <time>2022-06-19T12:00:33.037Z</time>
      </trkpt>
      <trkpt lat="43.05705667" lon="-7.17261167">
        <ele>675.0</ele>
        <time>2022-06-19T12:00:34.027Z</time>
      </trkpt>
      <trkpt lat="43.05705667" lon="-7.17261167">
        <ele>675.0</ele>
        <time>2022-06-19T12:00:35.035Z</time>
      </trkpt>
      <trkpt lat="43.05701" lon="-7.172555">
        <ele>675.0</ele>
        <time>2022-06-19T12:00:36.036Z</time>
      </trkpt>
      <trkpt lat="43.05698833" lon="-7.17253667">
        <ele>675.0</ele>
        <time>2022-06-19T12:00:37.036Z</time>
      </trkpt>
      <trkpt lat="43.05696667" lon="-7.17251833">
        <ele>675.0</ele>
        <time>2022-06-19T12:00:38.029Z</time>
      </trkpt>
      <trkpt lat="43.05696667" lon="-7.17251833">
        <ele>675.0</ele>
        <time>2022-06-19T12:00:39.038Z</time>
      </trkpt>
      <trkpt lat="43.05693833" lon="-7.172495">
        <ele>675.0</ele>
        <time>2022-06-19T12:00:40.032Z</time>
      </trkpt>
      <trkpt lat="43.05693167" lon="-7.17248333">
        <ele>675.0</ele>
        <time>2022-06-19T12:00:41.021Z</time>
      </trkpt>
      <trkpt lat="43.05692333" lon="-7.172475">
        <ele>675.0</ele>
        <time>2022-06-19T12:00:42.019Z</time>
      </trkpt>
      <trkpt lat="43.05692333" lon="-7.172475">
        <ele>675.0</ele>
        <time>2022-06-19T12:00:43.026Z</time>
      </trkpt>
      <trkpt lat="43.05690667" lon="-7.17245667">
        <ele>675.0</ele>
        <time>2022-06-19T12:00:44.022Z</time>
      </trkpt>
      <trkpt lat="43.05690667" lon="-7.17245667">
        <ele>675.0</ele>
        <time>2022-06-19T12:00:45.031Z</time>
      </trkpt>
      <trkpt lat="43.05686833" lon="-7.17244333">
        <ele>675.0</ele>
        <time>2022-06-19T12:00:46.019Z</time>
      </trkpt>
      <trkpt lat="43.05686833" lon="-7.17244333">
        <ele>675.0</ele>
        <time>2022-06-19T12:00:47.031Z</time>
      </trkpt>
      <trkpt lat="43.05683" lon="-7.17243167">
        <ele>675.0</ele>
        <time>2022-06-19T12:00:48.028Z</time>
      </trkpt>
      <trkpt lat="43.05683" lon="-7.17243167">
        <ele>675.0</ele>
        <time>2022-06-19T12:00:49.036Z</time>
      </trkpt>
      <trkpt lat="43.05678667" lon="-7.17241333">
        <ele>674.0</ele>
        <time>2022-06-19T12:00:50.023Z</time>
      </trkpt>
      <trkpt lat="43.05678667" lon="-7.17241333">
        <ele>674.0</ele>
        <time>2022-06-19T12:00:51.031Z</time>
      </trkpt>
      <trkpt lat="43.05675333" lon="-7.17240333">
        <ele>674.0</ele>
        <time>2022-06-19T12:00:52.039Z</time>
      </trkpt>
      <trkpt lat="43.05673167" lon="-7.17240167">
        <ele>674.0</ele>
        <time>2022-06-19T12:00:53.004Z</time>
      </trkpt>
      <trkpt lat="43.05673167" lon="-7.17240167">
        <ele>674.0</ele>
        <time>2022-06-19T12:00:54.012Z</time>
      </trkpt>
      <trkpt lat="43.05670667" lon="-7.17238167">
        <ele>674.0</ele>
        <time>2022-06-19T12:00:55.018Z</time>
      </trkpt>
      <trkpt lat="43.05669667" lon="-7.17237833">
        <ele>674.0</ele>
        <time>2022-06-19T12:00:56.024Z</time>
      </trkpt>
      <trkpt lat="43.05669667" lon="-7.17237833">
        <ele>674.0</ele>
        <time>2022-06-19T12:00:57.031Z</time>
      </trkpt>
      <trkpt lat="43.056675" lon="-7.172385">
        <ele>674.0</ele>
        <time>2022-06-19T12:00:58.042Z</time>
      </trkpt>
      <trkpt lat="43.05666833" lon="-7.17238167">
        <ele>675.0</ele>
        <time>2022-06-19T12:00:59.007Z</time>
      </trkpt>
      <trkpt lat="43.05666833" lon="-7.17238167">
        <ele>675.0</ele>
        <time>2022-06-19T12:01:00.013Z</time>
      </trkpt>
      <trkpt lat="43.05665167" lon="-7.172375">
        <ele>675.0</ele>
        <time>2022-06-19T12:01:01.004Z</time>
      </trkpt>
      <trkpt lat="43.05663833" lon="-7.17237167">
        <ele>675.0</ele>
        <time>2022-06-19T12:01:02.003Z</time>
      </trkpt>
      <trkpt lat="43.05663833" lon="-7.17237167">
        <ele>675.0</ele>
        <time>2022-06-19T12:01:03.011Z</time>
      </trkpt>
      <trkpt lat="43.05660667" lon="-7.17237167">
        <ele>675.0</ele>
        <time>2022-06-19T12:01:04.014Z</time>
      </trkpt>
      <trkpt lat="43.05659167" lon="-7.17237333">
        <ele>675.0</ele>
        <time>2022-06-19T12:01:05.024Z</time>
      </trkpt>
      <trkpt lat="43.05659167" lon="-7.17237333">
        <ele>675.0</ele>
        <time>2022-06-19T12:01:06.032Z</time>
      </trkpt>
      <trkpt lat="43.056575" lon="-7.172375">
        <ele>676.0</ele>
        <time>2022-06-19T12:01:07.034Z</time>
      </trkpt>
      <trkpt lat="43.05655667" lon="-7.17238">
        <ele>676.0</ele>
        <time>2022-06-19T12:01:08.022Z</time>
      </trkpt>
      <trkpt lat="43.05655667" lon="-7.17238">
        <ele>676.0</ele>
        <time>2022-06-19T12:01:09.028Z</time>
      </trkpt>
      <trkpt lat="43.05653833" lon="-7.17239">
        <ele>676.0</ele>
        <time>2022-06-19T12:01:10.028Z</time>
      </trkpt>
      <trkpt lat="43.05653833" lon="-7.17239">
        <ele>676.0</ele>
        <time>2022-06-19T12:01:11.038Z</time>
      </trkpt>
      <trkpt lat="43.05651833" lon="-7.172405">
        <ele>677.0</ele>
        <time>2022-06-19T12:01:12.040Z</time>
      </trkpt>
      <trkpt lat="43.05649667" lon="-7.17240833">
        <ele>677.0</ele>
        <time>2022-06-19T12:01:13.034Z</time>
      </trkpt>
      <trkpt lat="43.05647833" lon="-7.17240833">
        <ele>678.0</ele>
        <time>2022-06-19T12:01:14.024Z</time>
      </trkpt>
      <trkpt lat="43.05647833" lon="-7.17240833">
        <ele>678.0</ele>
        <time>2022-06-19T12:01:15.035Z</time>
      </trkpt>
      <trkpt lat="43.056455" lon="-7.17241667">
        <ele>678.0</ele>
        <time>2022-06-19T12:01:16.012Z</time>
      </trkpt>
      <trkpt lat="43.05645" lon="-7.17242167">
        <ele>679.0</ele>
        <time>2022-06-19T12:01:17.019Z</time>
      </trkpt>
      <trkpt lat="43.05644333" lon="-7.17242333">
        <ele>679.0</ele>
        <time>2022-06-19T12:01:18.012Z</time>
      </trkpt>
      <trkpt lat="43.05644" lon="-7.17242667">
        <ele>679.0</ele>
        <time>2022-06-19T12:01:22.006Z</time>
      </trkpt>
      <trkpt lat="43.05644" lon="-7.17242667">
        <ele>679.0</ele>
        <time>2022-06-19T12:01:23.029Z</time>
      </trkpt>
      <trkpt lat="43.05638833" lon="-7.172465">
        <ele>680.0</ele>
        <time>2022-06-19T12:01:24.013Z</time>
      </trkpt>
      <trkpt lat="43.05638" lon="-7.17247333">
        <ele>680.0</ele>
        <time>2022-06-19T12:01:25.010Z</time>
      </trkpt>
      <trkpt lat="43.05638" lon="-7.17247333">
        <ele>680.0</ele>
        <time>2022-06-19T12:01:26.032Z</time>
      </trkpt>
      <trkpt lat="43.05636333" lon="-7.17248833">
        <ele>680.0</ele>
        <time>2022-06-19T12:01:27.013Z</time>
      </trkpt>
      <trkpt lat="43.056345" lon="-7.17250167">
        <ele>680.0</ele>
        <time>2022-06-19T12:01:28.038Z</time>
      </trkpt>
      <trkpt lat="43.056345" lon="-7.17250167">
        <ele>680.0</ele>
        <time>2022-06-19T12:01:29.006Z</time>
      </trkpt>
      <trkpt lat="43.05629833" lon="-7.17251833">
        <ele>680.0</ele>
        <time>2022-06-19T12:01:30.007Z</time>
      </trkpt>
      <trkpt lat="43.05629833" lon="-7.17251833">
        <ele>680.0</ele>
        <time>2022-06-19T12:01:31.025Z</time>
      </trkpt>
      <trkpt lat="43.05626" lon="-7.17255167">
        <ele>681.0</ele>
        <time>2022-06-19T12:01:32.027Z</time>
      </trkpt>
      <trkpt lat="43.05626" lon="-7.17255167">
        <ele>681.0</ele>
        <time>2022-06-19T12:01:33.033Z</time>
      </trkpt>
      <trkpt lat="43.05624" lon="-7.17256167">
        <ele>681.0</ele>
        <time>2022-06-19T12:01:34.041Z</time>
      </trkpt>
      <trkpt lat="43.05623333" lon="-7.17257">
        <ele>681.0</ele>
        <time>2022-06-19T12:01:35.036Z</time>
      </trkpt>
      <trkpt lat="43.05622833" lon="-7.17258333">
        <ele>681.0</ele>
        <time>2022-06-19T12:01:36.008Z</time>
      </trkpt>
      <trkpt lat="43.05622333" lon="-7.17258667">
        <ele>682.0</ele>
        <time>2022-06-19T12:01:37.011Z</time>
      </trkpt>
      <trkpt lat="43.05621833" lon="-7.17259833">
        <ele>682.0</ele>
        <time>2022-06-19T12:01:38.021Z</time>
      </trkpt>
      <trkpt lat="43.05621833" lon="-7.17259833">
        <ele>682.0</ele>
        <time>2022-06-19T12:01:39.028Z</time>
      </trkpt>
      <trkpt lat="43.05620667" lon="-7.17261167">
        <ele>682.0</ele>
        <time>2022-06-19T12:01:40.023Z</time>
      </trkpt>
      <trkpt lat="43.05620667" lon="-7.17261167">
        <ele>682.0</ele>
        <time>2022-06-19T12:01:41.029Z</time>
      </trkpt>
      <trkpt lat="43.05619833" lon="-7.17264">
        <ele>683.0</ele>
        <time>2022-06-19T12:01:42.037Z</time>
      </trkpt>
      <trkpt lat="43.05619833" lon="-7.17264">
        <ele>683.0</ele>
        <time>2022-06-19T12:01:43.018Z</time>
      </trkpt>
      <trkpt lat="43.05618833" lon="-7.17265667">
        <ele>683.0</ele>
        <time>2022-06-19T12:01:44.006Z</time>
      </trkpt>
      <trkpt lat="43.05618833" lon="-7.17265667">
        <ele>683.0</ele>
        <time>2022-06-19T12:01:45.013Z</time>
      </trkpt>
      <trkpt lat="43.056175" lon="-7.17267167">
        <ele>683.0</ele>
        <time>2022-06-19T12:01:46.043Z</time>
      </trkpt>
      <trkpt lat="43.056175" lon="-7.17267167">
        <ele>683.0</ele>
        <time>2022-06-19T12:01:47.010Z</time>
      </trkpt>
      <trkpt lat="43.05614333" lon="-7.17268667">
        <ele>684.0</ele>
        <time>2022-06-19T12:01:48.009Z</time>
      </trkpt>
      <trkpt lat="43.05612333" lon="-7.17269">
        <ele>684.0</ele>
        <time>2022-06-19T12:01:49.005Z</time>
      </trkpt>
      <trkpt lat="43.05612333" lon="-7.17269">
        <ele>684.0</ele>
        <time>2022-06-19T12:01:50.013Z</time>
      </trkpt>
      <trkpt lat="43.0561" lon="-7.17270333">
        <ele>684.0</ele>
        <time>2022-06-19T12:01:51.043Z</time>
      </trkpt>
      <trkpt lat="43.05609" lon="-7.172715">
        <ele>684.0</ele>
        <time>2022-06-19T12:01:52.042Z</time>
      </trkpt>
      <trkpt lat="43.05609" lon="-7.172715">
        <ele>684.0</ele>
        <time>2022-06-19T12:01:53.009Z</time>
      </trkpt>
      <trkpt lat="43.05608" lon="-7.17275">
        <ele>685.0</ele>
        <time>2022-06-19T12:01:54.011Z</time>
      </trkpt>
      <trkpt lat="43.05608" lon="-7.17275">
        <ele>685.0</ele>
        <time>2022-06-19T12:01:55.020Z</time>
      </trkpt>
      <trkpt lat="43.056065" lon="-7.172775">
        <ele>685.0</ele>
        <time>2022-06-19T12:01:56.023Z</time>
      </trkpt>
      <trkpt lat="43.056065" lon="-7.172775">
        <ele>685.0</ele>
        <time>2022-06-19T12:01:57.030Z</time>
      </trkpt>
      <trkpt lat="43.05604333" lon="-7.17279333">
        <ele>686.0</ele>
        <time>2022-06-19T12:01:58.005Z</time>
      </trkpt>
      <trkpt lat="43.05604333" lon="-7.17279333">
        <ele>686.0</ele>
        <time>2022-06-19T12:01:59.011Z</time>
      </trkpt>
      <trkpt lat="43.05602" lon="-7.17280833">
        <ele>686.0</ele>
        <time>2022-06-19T12:02:00.010Z</time>
      </trkpt>
      <trkpt lat="43.05600833" lon="-7.172825">
        <ele>686.0</ele>
        <time>2022-06-19T12:02:01.039Z</time>
      </trkpt>
      <trkpt lat="43.05600833" lon="-7.172825">
        <ele>686.0</ele>
        <time>2022-06-19T12:02:02.005Z</time>
      </trkpt>
      <trkpt lat="43.05599" lon="-7.17284333">
        <ele>687.0</ele>
        <time>2022-06-19T12:02:03.022Z</time>
      </trkpt>
      <trkpt lat="43.05598333" lon="-7.172855">
        <ele>687.0</ele>
        <time>2022-06-19T12:02:04.028Z</time>
      </trkpt>
      <trkpt lat="43.055975" lon="-7.17287">
        <ele>688.0</ele>
        <time>2022-06-19T12:02:05.043Z</time>
      </trkpt>
      <trkpt lat="43.055975" lon="-7.17287">
        <ele>688.0</ele>
        <time>2022-06-19T12:02:06.009Z</time>
      </trkpt>
      <trkpt lat="43.05596" lon="-7.17289">
        <ele>688.0</ele>
        <time>2022-06-19T12:02:07.043Z</time>
      </trkpt>
      <trkpt lat="43.055955" lon="-7.17290333">
        <ele>688.0</ele>
        <time>2022-06-19T12:02:08.005Z</time>
      </trkpt>
      <trkpt lat="43.055955" lon="-7.17290333">
        <ele>688.0</ele>
        <time>2022-06-19T12:02:09.011Z</time>
      </trkpt>
      <trkpt lat="43.05592833" lon="-7.172925">
        <ele>688.0</ele>
        <time>2022-06-19T12:02:10.008Z</time>
      </trkpt>
      <trkpt lat="43.05592" lon="-7.17293833">
        <ele>688.0</ele>
        <time>2022-06-19T12:02:11.019Z</time>
      </trkpt>
      <trkpt lat="43.05592" lon="-7.17293833">
        <ele>688.0</ele>
        <time>2022-06-19T12:02:12.028Z</time>
      </trkpt>
      <trkpt lat="43.05589167" lon="-7.172975">
        <ele>688.0</ele>
        <time>2022-06-19T12:02:13.024Z</time>
      </trkpt>
      <trkpt lat="43.05588" lon="-7.17299167">
        <ele>688.0</ele>
        <time>2022-06-19T12:02:14.005Z</time>
      </trkpt>
      <trkpt lat="43.05588" lon="-7.17299167">
        <ele>688.0</ele>
        <time>2022-06-19T12:02:15.011Z</time>
      </trkpt>
      <trkpt lat="43.05585833" lon="-7.17300333">
        <ele>689.0</ele>
        <time>2022-06-19T12:02:16.035Z</time>
      </trkpt>
      <trkpt lat="43.05584667" lon="-7.17302167">
        <ele>689.0</ele>
        <time>2022-06-19T12:02:17.038Z</time>
      </trkpt>
      <trkpt lat="43.05584667" lon="-7.17302167">
        <ele>689.0</ele>
        <time>2022-06-19T12:02:18.004Z</time>
      </trkpt>
      <trkpt lat="43.05581333" lon="-7.17304833">
        <ele>689.0</ele>
        <time>2022-06-19T12:02:19.014Z</time>
      </trkpt>
      <trkpt lat="43.05580333" lon="-7.17305667">
        <ele>689.0</ele>
        <time>2022-06-19T12:02:20.013Z</time>
      </trkpt>
      <trkpt lat="43.05580333" lon="-7.17305667">
        <ele>689.0</ele>
        <time>2022-06-19T12:02:21.018Z</time>
      </trkpt>
      <trkpt lat="43.055785" lon="-7.173075">
        <ele>689.0</ele>
        <time>2022-06-19T12:02:22.009Z</time>
      </trkpt>
      <trkpt lat="43.055785" lon="-7.173075">
        <ele>689.0</ele>
        <time>2022-06-19T12:02:23.015Z</time>
      </trkpt>
      <trkpt lat="43.05576833" lon="-7.17309167">
        <ele>689.0</ele>
        <time>2022-06-19T12:02:24.043Z</time>
      </trkpt>
      <trkpt lat="43.05576" lon="-7.1731">
        <ele>689.0</ele>
        <time>2022-06-19T12:02:25.033Z</time>
      </trkpt>
      <trkpt lat="43.05576" lon="-7.1731">
        <ele>689.0</ele>
        <time>2022-06-19T12:02:26.039Z</time>
      </trkpt>
      <trkpt lat="43.05574833" lon="-7.17312833">
        <ele>690.0</ele>
        <time>2022-06-19T12:02:27.039Z</time>
      </trkpt>
      <trkpt lat="43.05574833" lon="-7.17312833">
        <ele>690.0</ele>
        <time>2022-06-19T12:02:28.006Z</time>
      </trkpt>
      <trkpt lat="43.055735" lon="-7.17315667">
        <ele>690.0</ele>
        <time>2022-06-19T12:02:29.004Z</time>
      </trkpt>
      <trkpt lat="43.055735" lon="-7.17315667">
        <ele>690.0</ele>
        <time>2022-06-19T12:02:30.010Z</time>
      </trkpt>
      <trkpt lat="43.05572" lon="-7.17316833">
        <ele>690.0</ele>
        <time>2022-06-19T12:02:31.027Z</time>
      </trkpt>
      <trkpt lat="43.05572" lon="-7.17316833">
        <ele>690.0</ele>
        <time>2022-06-19T12:02:32.030Z</time>
      </trkpt>
      <trkpt lat="43.05571167" lon="-7.17319333">
        <ele>691.0</ele>
        <time>2022-06-19T12:02:33.027Z</time>
      </trkpt>
      <trkpt lat="43.055705" lon="-7.17320333">
        <ele>691.0</ele>
        <time>2022-06-19T12:02:34.015Z</time>
      </trkpt>
      <trkpt lat="43.055705" lon="-7.17320333">
        <ele>691.0</ele>
        <time>2022-06-19T12:02:35.021Z</time>
      </trkpt>
      <trkpt lat="43.05569667" lon="-7.17321333">
        <ele>692.0</ele>
        <time>2022-06-19T12:02:36.028Z</time>
      </trkpt>
      <trkpt lat="43.05569667" lon="-7.17321333">
        <ele>692.0</ele>
        <time>2022-06-19T12:02:37.035Z</time>
      </trkpt>
      <trkpt lat="43.05568667" lon="-7.17322833">
        <ele>692.0</ele>
        <time>2022-06-19T12:02:38.043Z</time>
      </trkpt>
      <trkpt lat="43.05568667" lon="-7.17322833">
        <ele>692.0</ele>
        <time>2022-06-19T12:02:39.009Z</time>
      </trkpt>
      <trkpt lat="43.05568" lon="-7.17324333">
        <ele>692.0</ele>
        <time>2022-06-19T12:02:40.040Z</time>
      </trkpt>
      <trkpt lat="43.05568" lon="-7.17324333">
        <ele>692.0</ele>
        <time>2022-06-19T12:02:41.006Z</time>
      </trkpt>
      <trkpt lat="43.05567333" lon="-7.17325333">
        <ele>693.0</ele>
        <time>2022-06-19T12:02:42.043Z</time>
      </trkpt>
      <trkpt lat="43.05567333" lon="-7.17325333">
        <ele>693.0</ele>
        <time>2022-06-19T12:02:43.009Z</time>
      </trkpt>
      <trkpt lat="43.05566167" lon="-7.17327333">
        <ele>693.0</ele>
        <time>2022-06-19T12:02:44.032Z</time>
      </trkpt>
      <trkpt lat="43.05565333" lon="-7.17328167">
        <ele>693.0</ele>
        <time>2022-06-19T12:02:45.039Z</time>
      </trkpt>
      <trkpt lat="43.05565333" lon="-7.17328167">
        <ele>693.0</ele>
        <time>2022-06-19T12:02:46.005Z</time>
      </trkpt>
      <trkpt lat="43.05564167" lon="-7.17328833">
        <ele>694.0</ele>
        <time>2022-06-19T12:02:47.038Z</time>
      </trkpt>
      <trkpt lat="43.05564" lon="-7.173295">
        <ele>694.0</ele>
        <time>2022-06-19T12:02:48.018Z</time>
      </trkpt>
      <trkpt lat="43.05564" lon="-7.173295">
        <ele>694.0</ele>
        <time>2022-06-19T12:02:50.526Z</time>
      </trkpt>
      <trkpt lat="43.05560167" lon="-7.17334333">
        <ele>695.0</ele>
        <time>2022-06-19T12:02:51.560Z</time>
      </trkpt>
      <trkpt lat="43.05560167" lon="-7.17334333">
        <ele>695.0</ele>
        <time>2022-06-19T12:02:52.515Z</time>
      </trkpt>
      <trkpt lat="43.055585" lon="-7.173355">
        <ele>695.0</ele>
        <time>2022-06-19T12:02:53.522Z</time>
      </trkpt>
      <trkpt lat="43.05557667" lon="-7.17336667">
        <ele>696.0</ele>
        <time>2022-06-19T12:02:54.526Z</time>
      </trkpt>
      <trkpt lat="43.05557667" lon="-7.17336667">
        <ele>696.0</ele>
        <time>2022-06-19T12:02:55.525Z</time>
      </trkpt>
      <trkpt lat="43.05556167" lon="-7.173385">
        <ele>696.0</ele>
        <time>2022-06-19T12:02:56.531Z</time>
      </trkpt>
      <trkpt lat="43.05555" lon="-7.17339333">
        <ele>696.0</ele>
        <time>2022-06-19T12:02:57.530Z</time>
      </trkpt>
      <trkpt lat="43.05555" lon="-7.17339333">
        <ele>696.0</ele>
        <time>2022-06-19T12:02:58.537Z</time>
      </trkpt>
      <trkpt lat="43.05553167" lon="-7.17341333">
        <ele>697.0</ele>
        <time>2022-06-19T12:02:59.533Z</time>
      </trkpt>
      <trkpt lat="43.05553167" lon="-7.17341333">
        <ele>697.0</ele>
        <time>2022-06-19T12:03:00.528Z</time>
      </trkpt>
      <trkpt lat="43.05551333" lon="-7.17343167">
        <ele>697.0</ele>
        <time>2022-06-19T12:03:01.525Z</time>
      </trkpt>
      <trkpt lat="43.05551333" lon="-7.17343167">
        <ele>697.0</ele>
        <time>2022-06-19T12:03:02.535Z</time>
      </trkpt>
      <trkpt lat="43.05548667" lon="-7.17345333">
        <ele>697.0</ele>
        <time>2022-06-19T12:03:03.526Z</time>
      </trkpt>
      <trkpt lat="43.05548667" lon="-7.17345333">
        <ele>697.0</ele>
        <time>2022-06-19T12:03:04.523Z</time>
      </trkpt>
      <trkpt lat="43.05545833" lon="-7.17348333">
        <ele>697.0</ele>
        <time>2022-06-19T12:03:05.541Z</time>
      </trkpt>
      <trkpt lat="43.05545833" lon="-7.17348333">
        <ele>697.0</ele>
        <time>2022-06-19T12:03:06.526Z</time>
      </trkpt>
      <trkpt lat="43.055445" lon="-7.17350833">
        <ele>697.0</ele>
        <time>2022-06-19T12:03:07.558Z</time>
      </trkpt>
      <trkpt lat="43.055445" lon="-7.17350833">
        <ele>697.0</ele>
        <time>2022-06-19T12:03:08.544Z</time>
      </trkpt>
      <trkpt lat="43.05543" lon="-7.17353167">
        <ele>698.0</ele>
        <time>2022-06-19T12:03:09.551Z</time>
      </trkpt>
      <trkpt lat="43.05543" lon="-7.17353167">
        <ele>698.0</ele>
        <time>2022-06-19T12:03:10.518Z</time>
      </trkpt>
      <trkpt lat="43.05541167" lon="-7.17355">
        <ele>698.0</ele>
        <time>2022-06-19T12:03:11.516Z</time>
      </trkpt>
      <trkpt lat="43.05541167" lon="-7.17355">
        <ele>698.0</ele>
        <time>2022-06-19T12:03:12.530Z</time>
      </trkpt>
      <trkpt lat="43.05540167" lon="-7.17356167">
        <ele>698.0</ele>
        <time>2022-06-19T12:03:13.547Z</time>
      </trkpt>
      <trkpt lat="43.05540167" lon="-7.17356167">
        <ele>698.0</ele>
        <time>2022-06-19T12:03:14.537Z</time>
      </trkpt>
      <trkpt lat="43.05539333" lon="-7.17358">
        <ele>699.0</ele>
        <time>2022-06-19T12:03:15.530Z</time>
      </trkpt>
      <trkpt lat="43.05539333" lon="-7.17358">
        <ele>699.0</ele>
        <time>2022-06-19T12:03:16.550Z</time>
      </trkpt>
      <trkpt lat="43.05538" lon="-7.17359833">
        <ele>699.0</ele>
        <time>2022-06-19T12:03:17.536Z</time>
      </trkpt>
      <trkpt lat="43.05538" lon="-7.17359833">
        <ele>699.0</ele>
        <time>2022-06-19T12:03:18.516Z</time>
      </trkpt>
      <trkpt lat="43.05536833" lon="-7.17362">
        <ele>700.0</ele>
        <time>2022-06-19T12:03:19.514Z</time>
      </trkpt>
      <trkpt lat="43.05536833" lon="-7.17362">
        <ele>700.0</ele>
        <time>2022-06-19T12:03:20.527Z</time>
      </trkpt>
      <trkpt lat="43.05535667" lon="-7.17364">
        <ele>700.0</ele>
        <time>2022-06-19T12:03:21.521Z</time>
      </trkpt>
      <trkpt lat="43.05535667" lon="-7.17364">
        <ele>700.0</ele>
        <time>2022-06-19T12:03:22.538Z</time>
      </trkpt>
      <trkpt lat="43.05534667" lon="-7.17365333">
        <ele>700.0</ele>
        <time>2022-06-19T12:03:23.530Z</time>
      </trkpt>
      <trkpt lat="43.05534667" lon="-7.17365333">
        <ele>700.0</ele>
        <time>2022-06-19T12:03:24.522Z</time>
      </trkpt>
      <trkpt lat="43.055335" lon="-7.17366333">
        <ele>701.0</ele>
        <time>2022-06-19T12:03:25.535Z</time>
      </trkpt>
      <trkpt lat="43.055335" lon="-7.17366333">
        <ele>701.0</ele>
        <time>2022-06-19T12:03:26.546Z</time>
      </trkpt>
      <trkpt lat="43.05532167" lon="-7.17368833">
        <ele>701.0</ele>
        <time>2022-06-19T12:03:27.551Z</time>
      </trkpt>
      <trkpt lat="43.05532167" lon="-7.17368833">
        <ele>701.0</ele>
        <time>2022-06-19T12:03:28.549Z</time>
      </trkpt>
      <trkpt lat="43.05530333" lon="-7.17371667">
        <ele>701.0</ele>
        <time>2022-06-19T12:03:29.517Z</time>
      </trkpt>
      <trkpt lat="43.05529667" lon="-7.17372333">
        <ele>701.0</ele>
        <time>2022-06-19T12:03:30.551Z</time>
      </trkpt>
      <trkpt lat="43.05529667" lon="-7.17372333">
        <ele>701.0</ele>
        <time>2022-06-19T12:03:31.513Z</time>
      </trkpt>
      <trkpt lat="43.05528667" lon="-7.17374167">
        <ele>702.0</ele>
        <time>2022-06-19T12:03:32.525Z</time>
      </trkpt>
      <trkpt lat="43.05528167" lon="-7.17375833">
        <ele>702.0</ele>
        <time>2022-06-19T12:03:33.548Z</time>
      </trkpt>
      <trkpt lat="43.05527167" lon="-7.173765">
        <ele>702.0</ele>
        <time>2022-06-19T12:03:34.535Z</time>
      </trkpt>
      <trkpt lat="43.05527167" lon="-7.173765">
        <ele>702.0</ele>
        <time>2022-06-19T12:03:35.518Z</time>
      </trkpt>
      <trkpt lat="43.05526667" lon="-7.17379667">
        <ele>702.0</ele>
        <time>2022-06-19T12:03:36.514Z</time>
      </trkpt>
      <trkpt lat="43.05526" lon="-7.17381167">
        <ele>702.0</ele>
        <time>2022-06-19T12:03:37.527Z</time>
      </trkpt>
      <trkpt lat="43.05526" lon="-7.17381167">
        <ele>702.0</ele>
        <time>2022-06-19T12:03:38.535Z</time>
      </trkpt>
      <trkpt lat="43.05525" lon="-7.17384333">
        <ele>702.0</ele>
        <time>2022-06-19T12:03:39.531Z</time>
      </trkpt>
      <trkpt lat="43.05525" lon="-7.17384333">
        <ele>702.0</ele>
        <time>2022-06-19T12:03:40.534Z</time>
      </trkpt>
      <trkpt lat="43.05524167" lon="-7.17387333">
        <ele>703.0</ele>
        <time>2022-06-19T12:03:41.522Z</time>
      </trkpt>
      <trkpt lat="43.05524167" lon="-7.17387333">
        <ele>703.0</ele>
        <time>2022-06-19T12:03:42.545Z</time>
      </trkpt>
      <trkpt lat="43.05523667" lon="-7.17391333">
        <ele>703.0</ele>
        <time>2022-06-19T12:03:43.528Z</time>
      </trkpt>
      <trkpt lat="43.05523667" lon="-7.17391333">
        <ele>703.0</ele>
        <time>2022-06-19T12:03:44.537Z</time>
      </trkpt>
      <trkpt lat="43.05523333" lon="-7.17395167">
        <ele>703.0</ele>
        <time>2022-06-19T12:03:45.539Z</time>
      </trkpt>
      <trkpt lat="43.05523333" lon="-7.17395167">
        <ele>703.0</ele>
        <time>2022-06-19T12:03:46.518Z</time>
      </trkpt>
      <trkpt lat="43.05522333" lon="-7.17400833">
        <ele>703.0</ele>
        <time>2022-06-19T12:03:47.554Z</time>
      </trkpt>
      <trkpt lat="43.05522333" lon="-7.17400833">
        <ele>703.0</ele>
        <time>2022-06-19T12:03:48.531Z</time>
      </trkpt>
      <trkpt lat="43.055215" lon="-7.17405167">
        <ele>704.0</ele>
        <time>2022-06-19T12:03:49.523Z</time>
      </trkpt>
      <trkpt lat="43.055215" lon="-7.17405167">
        <ele>704.0</ele>
        <time>2022-06-19T12:03:50.539Z</time>
      </trkpt>
      <trkpt lat="43.05521333" lon="-7.17408333">
        <ele>704.0</ele>
        <time>2022-06-19T12:03:51.531Z</time>
      </trkpt>
      <trkpt lat="43.05521333" lon="-7.17408333">
        <ele>704.0</ele>
        <time>2022-06-19T12:03:52.524Z</time>
      </trkpt>
      <trkpt lat="43.05521167" lon="-7.17411167">
        <ele>704.0</ele>
        <time>2022-06-19T12:03:53.528Z</time>
      </trkpt>
      <trkpt lat="43.05521167" lon="-7.17411167">
        <ele>704.0</ele>
        <time>2022-06-19T12:03:54.522Z</time>
      </trkpt>
      <trkpt lat="43.055215" lon="-7.174135">
        <ele>704.0</ele>
        <time>2022-06-19T12:03:55.514Z</time>
      </trkpt>
      <trkpt lat="43.055215" lon="-7.174135">
        <ele>704.0</ele>
        <time>2022-06-19T12:03:56.515Z</time>
      </trkpt>
      <trkpt lat="43.055215" lon="-7.17415667">
        <ele>705.0</ele>
        <time>2022-06-19T12:03:57.551Z</time>
      </trkpt>
      <trkpt lat="43.055215" lon="-7.17415667">
        <ele>705.0</ele>
        <time>2022-06-19T12:03:58.514Z</time>
      </trkpt>
      <trkpt lat="43.055215" lon="-7.17418667">
        <ele>705.0</ele>
        <time>2022-06-19T12:03:59.550Z</time>
      </trkpt>
      <trkpt lat="43.055215" lon="-7.17418667">
        <ele>705.0</ele>
        <time>2022-06-19T12:04:00.531Z</time>
      </trkpt>
      <trkpt lat="43.055215" lon="-7.174205">
        <ele>705.0</ele>
        <time>2022-06-19T12:04:01.531Z</time>
      </trkpt>
      <trkpt lat="43.055215" lon="-7.17422">
        <ele>705.0</ele>
        <time>2022-06-19T12:04:02.520Z</time>
      </trkpt>
      <trkpt lat="43.055215" lon="-7.17422">
        <ele>705.0</ele>
        <time>2022-06-19T12:04:03.534Z</time>
      </trkpt>
      <trkpt lat="43.05521833" lon="-7.17424167">
        <ele>705.0</ele>
        <time>2022-06-19T12:04:04.526Z</time>
      </trkpt>
      <trkpt lat="43.05522" lon="-7.174255">
        <ele>705.0</ele>
        <time>2022-06-19T12:04:05.541Z</time>
      </trkpt>
      <trkpt lat="43.05522" lon="-7.174255">
        <ele>705.0</ele>
        <time>2022-06-19T12:04:06.523Z</time>
      </trkpt>
      <trkpt lat="43.055225" lon="-7.17428833">
        <ele>705.0</ele>
        <time>2022-06-19T12:04:07.521Z</time>
      </trkpt>
      <trkpt lat="43.05522667" lon="-7.17431">
        <ele>706.0</ele>
        <time>2022-06-19T12:04:08.533Z</time>
      </trkpt>
      <trkpt lat="43.05522667" lon="-7.17431">
        <ele>706.0</ele>
        <time>2022-06-19T12:04:09.530Z</time>
      </trkpt>
      <trkpt lat="43.05522833" lon="-7.174345">
        <ele>706.0</ele>
        <time>2022-06-19T12:04:10.555Z</time>
      </trkpt>
      <trkpt lat="43.05522167" lon="-7.17436333">
        <ele>706.0</ele>
        <time>2022-06-19T12:04:11.543Z</time>
      </trkpt>
      <trkpt lat="43.05522167" lon="-7.17436333">
        <ele>706.0</ele>
        <time>2022-06-19T12:04:12.537Z</time>
      </trkpt>
      <trkpt lat="43.055225" lon="-7.17440167">
        <ele>706.0</ele>
        <time>2022-06-19T12:04:13.517Z</time>
      </trkpt>
      <trkpt lat="43.055225" lon="-7.17440167">
        <ele>706.0</ele>
        <time>2022-06-19T12:04:14.547Z</time>
      </trkpt>
      <trkpt lat="43.055235" lon="-7.17443333">
        <ele>706.0</ele>
        <time>2022-06-19T12:04:15.644Z</time>
      </trkpt>
      <trkpt lat="43.055235" lon="-7.17443333">
        <ele>706.0</ele>
        <time>2022-06-19T12:04:16.548Z</time>
      </trkpt>
      <trkpt lat="43.055235" lon="-7.174475">
        <ele>706.0</ele>
        <time>2022-06-19T12:04:17.530Z</time>
      </trkpt>
      <trkpt lat="43.05523833" lon="-7.17449833">
        <ele>706.0</ele>
        <time>2022-06-19T12:04:18.514Z</time>
      </trkpt>
      <trkpt lat="43.055245" lon="-7.174515">
        <ele>707.0</ele>
        <time>2022-06-19T12:04:19.521Z</time>
      </trkpt>
      <trkpt lat="43.055245" lon="-7.174515">
        <ele>707.0</ele>
        <time>2022-06-19T12:04:20.523Z</time>
      </trkpt>
      <trkpt lat="43.05524333" lon="-7.17454667">
        <ele>707.0</ele>
        <time>2022-06-19T12:04:21.547Z</time>
      </trkpt>
      <trkpt lat="43.05525" lon="-7.17456333">
        <ele>707.0</ele>
        <time>2022-06-19T12:04:22.531Z</time>
      </trkpt>
      <trkpt lat="43.05525" lon="-7.17456333">
        <ele>707.0</ele>
        <time>2022-06-19T12:04:23.514Z</time>
      </trkpt>
      <trkpt lat="43.05525333" lon="-7.17458333">
        <ele>707.0</ele>
        <time>2022-06-19T12:04:24.544Z</time>
      </trkpt>
      <trkpt lat="43.05525667" lon="-7.17459333">
        <ele>707.0</ele>
        <time>2022-06-19T12:04:25.537Z</time>
      </trkpt>
      <trkpt lat="43.05525667" lon="-7.17459333">
        <ele>707.0</ele>
        <time>2022-06-19T12:04:26.528Z</time>
      </trkpt>
      <trkpt lat="43.05526" lon="-7.17461333">
        <ele>708.0</ele>
        <time>2022-06-19T12:04:27.513Z</time>
      </trkpt>
      <trkpt lat="43.05526" lon="-7.17462333">
        <ele>708.0</ele>
        <time>2022-06-19T12:04:28.547Z</time>
      </trkpt>
      <trkpt lat="43.05526" lon="-7.17462333">
        <ele>708.0</ele>
        <time>2022-06-19T12:04:29.520Z</time>
      </trkpt>
      <trkpt lat="43.05525833" lon="-7.17464833">
        <ele>708.0</ele>
        <time>2022-06-19T12:04:30.553Z</time>
      </trkpt>
      <trkpt lat="43.05526" lon="-7.17465667">
        <ele>708.0</ele>
        <time>2022-06-19T12:04:31.541Z</time>
      </trkpt>
      <trkpt lat="43.05526" lon="-7.17465667">
        <ele>708.0</ele>
        <time>2022-06-19T12:04:32.544Z</time>
      </trkpt>
      <trkpt lat="43.05526333" lon="-7.17467833">
        <ele>708.0</ele>
        <time>2022-06-19T12:04:33.524Z</time>
      </trkpt>
      <trkpt lat="43.05526667" lon="-7.17468833">
        <ele>708.0</ele>
        <time>2022-06-19T12:04:34.533Z</time>
      </trkpt>
      <trkpt lat="43.05526667" lon="-7.17468833">
        <ele>708.0</ele>
        <time>2022-06-19T12:04:35.550Z</time>
      </trkpt>
      <trkpt lat="43.05527167" lon="-7.17469833">
        <ele>709.0</ele>
        <time>2022-06-19T12:04:36.532Z</time>
      </trkpt>
      <trkpt lat="43.05527333" lon="-7.17470667">
        <ele>709.0</ele>
        <time>2022-06-19T12:04:37.524Z</time>
      </trkpt>
      <trkpt lat="43.05527333" lon="-7.17470667">
        <ele>709.0</ele>
        <time>2022-06-19T12:04:38.544Z</time>
      </trkpt>
      <trkpt lat="43.05528" lon="-7.17472167">
        <ele>709.0</ele>
        <time>2022-06-19T12:04:39.516Z</time>
      </trkpt>
      <trkpt lat="43.05528" lon="-7.17472167">
        <ele>709.0</ele>
        <time>2022-06-19T12:04:40.535Z</time>
      </trkpt>
      <trkpt lat="43.05527667" lon="-7.174735">
        <ele>709.0</ele>
        <time>2022-06-19T12:04:41.514Z</time>
      </trkpt>
      <trkpt lat="43.05527667" lon="-7.174735">
        <ele>709.0</ele>
        <time>2022-06-19T12:04:42.515Z</time>
      </trkpt>
      <trkpt lat="43.05526667" lon="-7.17478">
        <ele>710.0</ele>
        <time>2022-06-19T12:04:52.559Z</time>
      </trkpt>
      <trkpt lat="43.05526667" lon="-7.17478">
        <ele>710.0</ele>
        <time>2022-06-19T12:04:53.519Z</time>
      </trkpt>
      <trkpt lat="43.05526" lon="-7.1748">
        <ele>710.0</ele>
        <time>2022-06-19T12:04:54.525Z</time>
      </trkpt>
      <trkpt lat="43.05526" lon="-7.1748">
        <ele>710.0</ele>
        <time>2022-06-19T12:04:55.531Z</time>
      </trkpt>
      <trkpt lat="43.05525667" lon="-7.17482">
        <ele>711.0</ele>
        <time>2022-06-19T12:04:56.521Z</time>
      </trkpt>
      <trkpt lat="43.05525667" lon="-7.17482">
        <ele>711.0</ele>
        <time>2022-06-19T12:04:57.523Z</time>
      </trkpt>
      <trkpt lat="43.05525" lon="-7.17483667">
        <ele>711.0</ele>
        <time>2022-06-19T12:04:58.550Z</time>
      </trkpt>
      <trkpt lat="43.05525" lon="-7.17483667">
        <ele>711.0</ele>
        <time>2022-06-19T12:04:59.523Z</time>
      </trkpt>
      <trkpt lat="43.05524333" lon="-7.17484667">
        <ele>711.0</ele>
        <time>2022-06-19T12:05:00.545Z</time>
      </trkpt>
      <trkpt lat="43.05524333" lon="-7.17484667">
        <ele>711.0</ele>
        <time>2022-06-19T12:05:01.523Z</time>
      </trkpt>
      <trkpt lat="43.05524167" lon="-7.174855">
        <ele>711.0</ele>
        <time>2022-06-19T12:05:02.516Z</time>
      </trkpt>
      <trkpt lat="43.05524167" lon="-7.174855">
        <ele>711.0</ele>
        <time>2022-06-19T12:05:03.543Z</time>
      </trkpt>
      <trkpt lat="43.05524" lon="-7.17487667">
        <ele>711.0</ele>
        <time>2022-06-19T12:05:04.527Z</time>
      </trkpt>
      <trkpt lat="43.05524" lon="-7.17487667">
        <ele>711.0</ele>
        <time>2022-06-19T12:05:05.554Z</time>
      </trkpt>
      <trkpt lat="43.05524167" lon="-7.174895">
        <ele>712.0</ele>
        <time>2022-06-19T12:05:06.531Z</time>
      </trkpt>
      <trkpt lat="43.05524167" lon="-7.17490667">
        <ele>712.0</ele>
        <time>2022-06-19T12:05:07.539Z</time>
      </trkpt>
      <trkpt lat="43.05524167" lon="-7.17490667">
        <ele>712.0</ele>
        <time>2022-06-19T12:05:08.522Z</time>
      </trkpt>
      <trkpt lat="43.05523667" lon="-7.17491833">
        <ele>712.0</ele>
        <time>2022-06-19T12:05:09.519Z</time>
      </trkpt>
      <trkpt lat="43.05523667" lon="-7.17491833">
        <ele>712.0</ele>
        <time>2022-06-19T12:05:10.517Z</time>
      </trkpt>
      <trkpt lat="43.05522" lon="-7.17494">
        <ele>712.0</ele>
        <time>2022-06-19T12:05:11.540Z</time>
      </trkpt>
      <trkpt lat="43.05521667" lon="-7.17494667">
        <ele>712.0</ele>
        <time>2022-06-19T12:05:12.540Z</time>
      </trkpt>
      <trkpt lat="43.055205" lon="-7.17495333">
        <ele>712.0</ele>
        <time>2022-06-19T12:05:13.537Z</time>
      </trkpt>
      <trkpt lat="43.055205" lon="-7.17495333">
        <ele>712.0</ele>
        <time>2022-06-19T12:05:14.521Z</time>
      </trkpt>
      <trkpt lat="43.05519833" lon="-7.174955">
        <ele>713.0</ele>
        <time>2022-06-19T12:05:15.547Z</time>
      </trkpt>
      <trkpt lat="43.05519833" lon="-7.174955">
        <ele>713.0</ele>
        <time>2022-06-19T12:05:16.537Z</time>
      </trkpt>
      <trkpt lat="43.05519333" lon="-7.174955">
        <ele>713.0</ele>
        <time>2022-06-19T12:05:17.535Z</time>
      </trkpt>
      <trkpt lat="43.05519333" lon="-7.174955">
        <ele>713.0</ele>
        <time>2022-06-19T12:05:18.554Z</time>
      </trkpt>
      <trkpt lat="43.05519" lon="-7.174955">
        <ele>713.0</ele>
        <time>2022-06-19T12:05:19.541Z</time>
      </trkpt>
      <trkpt lat="43.05519" lon="-7.174955">
        <ele>713.0</ele>
        <time>2022-06-19T12:05:20.553Z</time>
      </trkpt>
      <trkpt lat="43.05519" lon="-7.174955">
        <ele>713.0</ele>
        <time>2022-06-19T12:05:21.552Z</time>
      </trkpt>
      <trkpt lat="43.05519" lon="-7.174955">
        <ele>713.0</ele>
        <time>2022-06-19T12:05:27.018Z</time>
      </trkpt>
      <trkpt lat="43.05513" lon="-7.17498167">
        <ele>714.0</ele>
        <time>2022-06-19T12:05:28.045Z</time>
      </trkpt>
      <trkpt lat="43.05513" lon="-7.17498167">
        <ele>714.0</ele>
        <time>2022-06-19T12:05:29.044Z</time>
      </trkpt>
      <trkpt lat="43.05510167" lon="-7.17497667">
        <ele>714.0</ele>
        <time>2022-06-19T12:05:30.045Z</time>
      </trkpt>
      <trkpt lat="43.05510167" lon="-7.17497667">
        <ele>714.0</ele>
        <time>2022-06-19T12:05:31.042Z</time>
      </trkpt>
      <trkpt lat="43.05506833" lon="-7.17497667">
        <ele>714.0</ele>
        <time>2022-06-19T12:05:32.023Z</time>
      </trkpt>
      <trkpt lat="43.05505833" lon="-7.17497833">
        <ele>714.0</ele>
        <time>2022-06-19T12:05:33.018Z</time>
      </trkpt>
      <trkpt lat="43.05505833" lon="-7.17497833">
        <ele>714.0</ele>
        <time>2022-06-19T12:05:34.025Z</time>
      </trkpt>
      <trkpt lat="43.05502333" lon="-7.17499">
        <ele>714.0</ele>
        <time>2022-06-19T12:05:35.046Z</time>
      </trkpt>
      <trkpt lat="43.05502333" lon="-7.17499">
        <ele>714.0</ele>
        <time>2022-06-19T12:05:36.052Z</time>
      </trkpt>
      <trkpt lat="43.05499167" lon="-7.17498333">
        <ele>715.0</ele>
        <time>2022-06-19T12:05:37.049Z</time>
      </trkpt>
      <trkpt lat="43.05498" lon="-7.17498">
        <ele>715.0</ele>
        <time>2022-06-19T12:05:38.045Z</time>
      </trkpt>
      <trkpt lat="43.05498" lon="-7.17498">
        <ele>715.0</ele>
        <time>2022-06-19T12:05:39.051Z</time>
      </trkpt>
      <trkpt lat="43.054955" lon="-7.17497667">
        <ele>715.0</ele>
        <time>2022-06-19T12:05:40.021Z</time>
      </trkpt>
      <trkpt lat="43.05494167" lon="-7.17497667">
        <ele>715.0</ele>
        <time>2022-06-19T12:05:41.031Z</time>
      </trkpt>
      <trkpt lat="43.05493167" lon="-7.17497667">
        <ele>715.0</ele>
        <time>2022-06-19T12:05:42.035Z</time>
      </trkpt>
      <trkpt lat="43.05491833" lon="-7.17497833">
        <ele>715.0</ele>
        <time>2022-06-19T12:05:43.040Z</time>
      </trkpt>
      <trkpt lat="43.05491833" lon="-7.17497833">
        <ele>715.0</ele>
        <time>2022-06-19T12:05:44.046Z</time>
      </trkpt>
      <trkpt lat="43.05491333" lon="-7.174975">
        <ele>716.0</ele>
        <time>2022-06-19T12:05:45.030Z</time>
      </trkpt>
      <trkpt lat="43.05490667" lon="-7.17497333">
        <ele>716.0</ele>
        <time>2022-06-19T12:05:46.023Z</time>
      </trkpt>
      <trkpt lat="43.05490667" lon="-7.17497333">
        <ele>716.0</ele>
        <time>2022-06-19T12:05:47.042Z</time>
      </trkpt>
      <trkpt lat="43.05489667" lon="-7.17497167">
        <ele>716.0</ele>
        <time>2022-06-19T12:05:48.050Z</time>
      </trkpt>
      <trkpt lat="43.05489667" lon="-7.17497167">
        <ele>716.0</ele>
        <time>2022-06-19T12:05:49.016Z</time>
      </trkpt>
      <trkpt lat="43.05488667" lon="-7.17497667">
        <ele>716.0</ele>
        <time>2022-06-19T12:05:50.050Z</time>
      </trkpt>
      <trkpt lat="43.05488667" lon="-7.17497667">
        <ele>716.0</ele>
        <time>2022-06-19T12:05:51.016Z</time>
      </trkpt>
      <trkpt lat="43.05488333" lon="-7.17497333">
        <ele>716.0</ele>
        <time>2022-06-19T12:05:52.041Z</time>
      </trkpt>
      <trkpt lat="43.05488333" lon="-7.17497333">
        <ele>716.0</ele>
        <time>2022-06-19T12:05:53.050Z</time>
      </trkpt>
      <trkpt lat="43.05488333" lon="-7.17497333">
        <ele>716.0</ele>
        <time>2022-06-19T12:05:54.016Z</time>
      </trkpt>
      <trkpt lat="43.05488333" lon="-7.17497333">
        <ele>716.0</ele>
        <time>2022-06-19T12:05:59.526Z</time>
      </trkpt>
      <trkpt lat="43.05481333" lon="-7.17495833">
        <ele>716.0</ele>
        <time>2022-06-19T12:06:00.552Z</time>
      </trkpt>
      <trkpt lat="43.05480667" lon="-7.17496">
        <ele>716.0</ele>
        <time>2022-06-19T12:06:01.537Z</time>
      </trkpt>
      <trkpt lat="43.05480667" lon="-7.17496">
        <ele>716.0</ele>
        <time>2022-06-19T12:06:02.519Z</time>
      </trkpt>
      <trkpt lat="43.05478333" lon="-7.17496167">
        <ele>717.0</ele>
        <time>2022-06-19T12:06:03.524Z</time>
      </trkpt>
      <trkpt lat="43.05478333" lon="-7.17496167">
        <ele>717.0</ele>
        <time>2022-06-19T12:06:04.517Z</time>
      </trkpt>
      <trkpt lat="43.05476667" lon="-7.17497167">
        <ele>717.0</ele>
        <time>2022-06-19T12:06:05.558Z</time>
      </trkpt>
      <trkpt lat="43.05475667" lon="-7.17497833">
        <ele>717.0</ele>
        <time>2022-06-19T12:06:06.541Z</time>
      </trkpt>
      <trkpt lat="43.05474667" lon="-7.17498667">
        <ele>717.0</ele>
        <time>2022-06-19T12:06:07.526Z</time>
      </trkpt>
      <trkpt lat="43.05474667" lon="-7.17498667">
        <ele>717.0</ele>
        <time>2022-06-19T12:06:08.528Z</time>
      </trkpt>
      <trkpt lat="43.054715" lon="-7.175005">
        <ele>717.0</ele>
        <time>2022-06-19T12:06:09.558Z</time>
      </trkpt>
      <trkpt lat="43.054715" lon="-7.175005">
        <ele>717.0</ele>
        <time>2022-06-19T12:06:10.551Z</time>
      </trkpt>
      <trkpt lat="43.05466667" lon="-7.175035">
        <ele>717.0</ele>
        <time>2022-06-19T12:06:11.539Z</time>
      </trkpt>
      <trkpt lat="43.05464833" lon="-7.17504667">
        <ele>717.0</ele>
        <time>2022-06-19T12:06:12.544Z</time>
      </trkpt>
      <trkpt lat="43.05463833" lon="-7.17506">
        <ele>717.0</ele>
        <time>2022-06-19T12:06:13.538Z</time>
      </trkpt>
      <trkpt lat="43.05463833" lon="-7.17506">
        <ele>717.0</ele>
        <time>2022-06-19T12:06:14.542Z</time>
      </trkpt>
      <trkpt lat="43.05461" lon="-7.17509">
        <ele>717.0</ele>
        <time>2022-06-19T12:06:15.537Z</time>
      </trkpt>
      <trkpt lat="43.05461" lon="-7.17509">
        <ele>717.0</ele>
        <time>2022-06-19T12:06:16.522Z</time>
      </trkpt>
      <trkpt lat="43.05458667" lon="-7.175115">
        <ele>718.0</ele>
        <time>2022-06-19T12:06:17.544Z</time>
      </trkpt>
      <trkpt lat="43.05458167" lon="-7.175125">
        <ele>718.0</ele>
        <time>2022-06-19T12:06:18.528Z</time>
      </trkpt>
      <trkpt lat="43.05458167" lon="-7.175125">
        <ele>718.0</ele>
        <time>2022-06-19T12:06:19.545Z</time>
      </trkpt>
      <trkpt lat="43.05457167" lon="-7.175145">
        <ele>718.0</ele>
        <time>2022-06-19T12:06:20.542Z</time>
      </trkpt>
      <trkpt lat="43.05457167" lon="-7.175145">
        <ele>718.0</ele>
        <time>2022-06-19T12:06:21.525Z</time>
      </trkpt>
      <trkpt lat="43.05455833" lon="-7.17515833">
        <ele>718.0</ele>
        <time>2022-06-19T12:06:22.550Z</time>
      </trkpt>
      <trkpt lat="43.05455833" lon="-7.17515833">
        <ele>718.0</ele>
        <time>2022-06-19T12:06:23.552Z</time>
      </trkpt>
      <trkpt lat="43.05453" lon="-7.17516833">
        <ele>718.0</ele>
        <time>2022-06-19T12:06:24.541Z</time>
      </trkpt>
      <trkpt lat="43.05452" lon="-7.17518">
        <ele>718.0</ele>
        <time>2022-06-19T12:06:25.528Z</time>
      </trkpt>
      <trkpt lat="43.05452" lon="-7.17518">
        <ele>718.0</ele>
        <time>2022-06-19T12:06:26.533Z</time>
      </trkpt>
      <trkpt lat="43.05450167" lon="-7.17520167">
        <ele>718.0</ele>
        <time>2022-06-19T12:06:27.555Z</time>
      </trkpt>
      <trkpt lat="43.05449333" lon="-7.17521167">
        <ele>718.0</ele>
        <time>2022-06-19T12:06:28.535Z</time>
      </trkpt>
      <trkpt lat="43.05449333" lon="-7.17521167">
        <ele>718.0</ele>
        <time>2022-06-19T12:06:29.524Z</time>
      </trkpt>
      <trkpt lat="43.05448833" lon="-7.17523">
        <ele>718.0</ele>
        <time>2022-06-19T12:06:30.554Z</time>
      </trkpt>
      <trkpt lat="43.05448833" lon="-7.17523">
        <ele>718.0</ele>
        <time>2022-06-19T12:06:31.554Z</time>
      </trkpt>
      <trkpt lat="43.05447333" lon="-7.17524833">
        <ele>719.0</ele>
        <time>2022-06-19T12:06:32.536Z</time>
      </trkpt>
      <trkpt lat="43.05447333" lon="-7.17524833">
        <ele>719.0</ele>
        <time>2022-06-19T12:06:33.551Z</time>
      </trkpt>
      <trkpt lat="43.05443833" lon="-7.17527167">
        <ele>719.0</ele>
        <time>2022-06-19T12:06:34.556Z</time>
      </trkpt>
      <trkpt lat="43.05442333" lon="-7.17527667">
        <ele>719.0</ele>
        <time>2022-06-19T12:06:35.543Z</time>
      </trkpt>
      <trkpt lat="43.05442333" lon="-7.17527667">
        <ele>719.0</ele>
        <time>2022-06-19T12:06:36.554Z</time>
      </trkpt>
      <trkpt lat="43.054405" lon="-7.17530833">
        <ele>719.0</ele>
        <time>2022-06-19T12:06:37.545Z</time>
      </trkpt>
      <trkpt lat="43.054405" lon="-7.17530833">
        <ele>719.0</ele>
        <time>2022-06-19T12:06:38.530Z</time>
      </trkpt>
      <trkpt lat="43.05439167" lon="-7.17532167">
        <ele>719.0</ele>
        <time>2022-06-19T12:06:39.549Z</time>
      </trkpt>
      <trkpt lat="43.05439167" lon="-7.17532167">
        <ele>719.0</ele>
        <time>2022-06-19T12:06:40.527Z</time>
      </trkpt>
      <trkpt lat="43.05437667" lon="-7.17534">
        <ele>719.0</ele>
        <time>2022-06-19T12:06:41.517Z</time>
      </trkpt>
      <trkpt lat="43.05437" lon="-7.17535333">
        <ele>719.0</ele>
        <time>2022-06-19T12:06:42.550Z</time>
      </trkpt>
      <trkpt lat="43.05435667" lon="-7.17536667">
        <ele>719.0</ele>
        <time>2022-06-19T12:06:43.545Z</time>
      </trkpt>
      <trkpt lat="43.05435667" lon="-7.17536667">
        <ele>719.0</ele>
        <time>2022-06-19T12:06:44.525Z</time>
      </trkpt>
      <trkpt lat="43.05433667" lon="-7.17539667">
        <ele>719.0</ele>
        <time>2022-06-19T12:06:45.548Z</time>
      </trkpt>
      <trkpt lat="43.05433667" lon="-7.17539667">
        <ele>719.0</ele>
        <time>2022-06-19T12:06:46.553Z</time>
      </trkpt>
      <trkpt lat="43.054295" lon="-7.17543333">
        <ele>719.0</ele>
        <time>2022-06-19T12:06:47.540Z</time>
      </trkpt>
      <trkpt lat="43.05427833" lon="-7.175445">
        <ele>719.0</ele>
        <time>2022-06-19T12:06:48.518Z</time>
      </trkpt>
      <trkpt lat="43.05426667" lon="-7.17545167">
        <ele>719.0</ele>
        <time>2022-06-19T12:06:49.555Z</time>
      </trkpt>
      <trkpt lat="43.05426667" lon="-7.17545167">
        <ele>719.0</ele>
        <time>2022-06-19T12:06:50.547Z</time>
      </trkpt>
      <trkpt lat="43.05424667" lon="-7.175475">
        <ele>719.0</ele>
        <time>2022-06-19T12:06:51.646Z</time>
      </trkpt>
      <trkpt lat="43.05424" lon="-7.17548833">
        <ele>720.0</ele>
        <time>2022-06-19T12:06:52.518Z</time>
      </trkpt>
      <trkpt lat="43.05422833" lon="-7.17550333">
        <ele>720.0</ele>
        <time>2022-06-19T12:06:53.521Z</time>
      </trkpt>
      <trkpt lat="43.05422833" lon="-7.17550333">
        <ele>720.0</ele>
        <time>2022-06-19T12:06:54.551Z</time>
      </trkpt>
      <trkpt lat="43.054215" lon="-7.17552167">
        <ele>720.0</ele>
        <time>2022-06-19T12:06:55.543Z</time>
      </trkpt>
      <trkpt lat="43.054215" lon="-7.17552167">
        <ele>720.0</ele>
        <time>2022-06-19T12:06:56.529Z</time>
      </trkpt>
      <trkpt lat="43.054205" lon="-7.17554833">
        <ele>720.0</ele>
        <time>2022-06-19T12:06:57.556Z</time>
      </trkpt>
      <trkpt lat="43.054205" lon="-7.17554833">
        <ele>720.0</ele>
        <time>2022-06-19T12:06:58.534Z</time>
      </trkpt>
      <trkpt lat="43.054185" lon="-7.17556">
        <ele>720.0</ele>
        <time>2022-06-19T12:06:59.535Z</time>
      </trkpt>
      <trkpt lat="43.054185" lon="-7.17556">
        <ele>720.0</ele>
        <time>2022-06-19T12:07:00.540Z</time>
      </trkpt>
      <trkpt lat="43.05416333" lon="-7.17558">
        <ele>721.0</ele>
        <time>2022-06-19T12:07:01.537Z</time>
      </trkpt>
      <trkpt lat="43.05415667" lon="-7.17558667">
        <ele>721.0</ele>
        <time>2022-06-19T12:07:02.548Z</time>
      </trkpt>
      <trkpt lat="43.05415667" lon="-7.17558667">
        <ele>721.0</ele>
        <time>2022-06-19T12:07:03.544Z</time>
      </trkpt>
      <trkpt lat="43.05413833" lon="-7.17560333">
        <ele>721.0</ele>
        <time>2022-06-19T12:07:04.539Z</time>
      </trkpt>
      <trkpt lat="43.05412167" lon="-7.17561">
        <ele>721.0</ele>
        <time>2022-06-19T12:07:05.548Z</time>
      </trkpt>
      <trkpt lat="43.05412167" lon="-7.17561">
        <ele>721.0</ele>
        <time>2022-06-19T12:07:06.552Z</time>
      </trkpt>
      <trkpt lat="43.054095" lon="-7.17562333">
        <ele>722.0</ele>
        <time>2022-06-19T12:07:07.528Z</time>
      </trkpt>
      <trkpt lat="43.054095" lon="-7.17562333">
        <ele>722.0</ele>
        <time>2022-06-19T12:07:08.541Z</time>
      </trkpt>
      <trkpt lat="43.05406167" lon="-7.17564167">
        <ele>722.0</ele>
        <time>2022-06-19T12:07:09.532Z</time>
      </trkpt>
      <trkpt lat="43.05406167" lon="-7.17564167">
        <ele>722.0</ele>
        <time>2022-06-19T12:07:10.520Z</time>
      </trkpt>
      <trkpt lat="43.05404167" lon="-7.17565833">
        <ele>723.0</ele>
        <time>2022-06-19T12:07:11.555Z</time>
      </trkpt>
      <trkpt lat="43.05404167" lon="-7.17565833">
        <ele>723.0</ele>
        <time>2022-06-19T12:07:12.540Z</time>
      </trkpt>
      <trkpt lat="43.05402167" lon="-7.17567167">
        <ele>723.0</ele>
        <time>2022-06-19T12:07:13.527Z</time>
      </trkpt>
      <trkpt lat="43.05402167" lon="-7.17567167">
        <ele>723.0</ele>
        <time>2022-06-19T12:07:14.518Z</time>
      </trkpt>
      <trkpt lat="43.05399333" lon="-7.175685">
        <ele>723.0</ele>
        <time>2022-06-19T12:07:15.544Z</time>
      </trkpt>
      <trkpt lat="43.05399333" lon="-7.175685">
        <ele>723.0</ele>
        <time>2022-06-19T12:07:16.534Z</time>
      </trkpt>
      <trkpt lat="43.05396333" lon="-7.17571833">
        <ele>724.0</ele>
        <time>2022-06-19T12:07:17.521Z</time>
      </trkpt>
      <trkpt lat="43.05396333" lon="-7.17571833">
        <ele>724.0</ele>
        <time>2022-06-19T12:07:18.537Z</time>
      </trkpt>
      <trkpt lat="43.05395833" lon="-7.17574833">
        <ele>724.0</ele>
        <time>2022-06-19T12:07:19.518Z</time>
      </trkpt>
      <trkpt lat="43.05395833" lon="-7.17574833">
        <ele>724.0</ele>
        <time>2022-06-19T12:07:20.530Z</time>
      </trkpt>
      <trkpt lat="43.05394333" lon="-7.17577">
        <ele>725.0</ele>
        <time>2022-06-19T12:07:21.518Z</time>
      </trkpt>
      <trkpt lat="43.05393667" lon="-7.175775">
        <ele>725.0</ele>
        <time>2022-06-19T12:07:22.544Z</time>
      </trkpt>
      <trkpt lat="43.05393667" lon="-7.175775">
        <ele>725.0</ele>
        <time>2022-06-19T12:07:23.537Z</time>
      </trkpt>
      <trkpt lat="43.05392" lon="-7.17579">
        <ele>725.0</ele>
        <time>2022-06-19T12:07:24.536Z</time>
      </trkpt>
      <trkpt lat="43.05391" lon="-7.17579833">
        <ele>725.0</ele>
        <time>2022-06-19T12:07:25.527Z</time>
      </trkpt>
      <trkpt lat="43.05391" lon="-7.17579833">
        <ele>725.0</ele>
        <time>2022-06-19T12:07:26.537Z</time>
      </trkpt>
      <trkpt lat="43.053895" lon="-7.17582167">
        <ele>726.0</ele>
        <time>2022-06-19T12:07:27.528Z</time>
      </trkpt>
      <trkpt lat="43.05388833" lon="-7.17583167">
        <ele>726.0</ele>
        <time>2022-06-19T12:07:28.543Z</time>
      </trkpt>
      <trkpt lat="43.05388833" lon="-7.17583167">
        <ele>726.0</ele>
        <time>2022-06-19T12:07:29.519Z</time>
      </trkpt>
      <trkpt lat="43.053875" lon="-7.175855">
        <ele>726.0</ele>
        <time>2022-06-19T12:07:30.556Z</time>
      </trkpt>
      <trkpt lat="43.053875" lon="-7.175855">
        <ele>726.0</ele>
        <time>2022-06-19T12:07:31.518Z</time>
      </trkpt>
      <trkpt lat="43.05386" lon="-7.17588">
        <ele>726.0</ele>
        <time>2022-06-19T12:07:32.519Z</time>
      </trkpt>
      <trkpt lat="43.05386" lon="-7.17588">
        <ele>726.0</ele>
        <time>2022-06-19T12:07:33.532Z</time>
      </trkpt>
      <trkpt lat="43.05384667" lon="-7.17591333">
        <ele>726.0</ele>
        <time>2022-06-19T12:07:34.549Z</time>
      </trkpt>
      <trkpt lat="43.05384667" lon="-7.17591333">
        <ele>726.0</ele>
        <time>2022-06-19T12:07:35.531Z</time>
      </trkpt>
      <trkpt lat="43.05383333" lon="-7.175935">
        <ele>727.0</ele>
        <time>2022-06-19T12:07:36.524Z</time>
      </trkpt>
      <trkpt lat="43.05382167" lon="-7.17594667">
        <ele>727.0</ele>
        <time>2022-06-19T12:07:37.552Z</time>
      </trkpt>
      <trkpt lat="43.05381333" lon="-7.17596">
        <ele>727.0</ele>
        <time>2022-06-19T12:07:38.532Z</time>
      </trkpt>
      <trkpt lat="43.05381333" lon="-7.17596">
        <ele>727.0</ele>
        <time>2022-06-19T12:07:39.555Z</time>
      </trkpt>
      <trkpt lat="43.05379333" lon="-7.17598167">
        <ele>727.0</ele>
        <time>2022-06-19T12:07:40.518Z</time>
      </trkpt>
      <trkpt lat="43.05379333" lon="-7.17598167">
        <ele>727.0</ele>
        <time>2022-06-19T12:07:41.538Z</time>
      </trkpt>
      <trkpt lat="43.053775" lon="-7.176">
        <ele>728.0</ele>
        <time>2022-06-19T12:07:42.527Z</time>
      </trkpt>
      <trkpt lat="43.053775" lon="-7.176">
        <ele>728.0</ele>
        <time>2022-06-19T12:07:43.516Z</time>
      </trkpt>
      <trkpt lat="43.05377" lon="-7.17603167">
        <ele>728.0</ele>
        <time>2022-06-19T12:07:44.530Z</time>
      </trkpt>
      <trkpt lat="43.05377" lon="-7.17603167">
        <ele>728.0</ele>
        <time>2022-06-19T12:07:45.517Z</time>
      </trkpt>
      <trkpt lat="43.05376167" lon="-7.17605167">
        <ele>728.0</ele>
        <time>2022-06-19T12:07:46.543Z</time>
      </trkpt>
      <trkpt lat="43.05376167" lon="-7.17605167">
        <ele>728.0</ele>
        <time>2022-06-19T12:07:47.536Z</time>
      </trkpt>
      <trkpt lat="43.05375167" lon="-7.17606833">
        <ele>728.0</ele>
        <time>2022-06-19T12:07:48.558Z</time>
      </trkpt>
      <trkpt lat="43.05374667" lon="-7.17607667">
        <ele>728.0</ele>
        <time>2022-06-19T12:07:49.516Z</time>
      </trkpt>
      <trkpt lat="43.05374667" lon="-7.17607667">
        <ele>728.0</ele>
        <time>2022-06-19T12:07:50.550Z</time>
      </trkpt>
      <trkpt lat="43.05373167" lon="-7.176095">
        <ele>729.0</ele>
        <time>2022-06-19T12:07:51.535Z</time>
      </trkpt>
      <trkpt lat="43.05372333" lon="-7.17610167">
        <ele>729.0</ele>
        <time>2022-06-19T12:07:52.529Z</time>
      </trkpt>
      <trkpt lat="43.05372333" lon="-7.17610167">
        <ele>729.0</ele>
        <time>2022-06-19T12:07:53.520Z</time>
      </trkpt>
      <trkpt lat="43.05371" lon="-7.17611333">
        <ele>729.0</ele>
        <time>2022-06-19T12:07:54.518Z</time>
      </trkpt>
      <trkpt lat="43.05371" lon="-7.17611333">
        <ele>729.0</ele>
        <time>2022-06-19T12:07:55.548Z</time>
      </trkpt>
      <trkpt lat="43.05369333" lon="-7.176125">
        <ele>729.0</ele>
        <time>2022-06-19T12:07:56.551Z</time>
      </trkpt>
      <trkpt lat="43.05369333" lon="-7.176125">
        <ele>729.0</ele>
        <time>2022-06-19T12:07:57.528Z</time>
      </trkpt>
      <trkpt lat="43.05368333" lon="-7.17614167">
        <ele>729.0</ele>
        <time>2022-06-19T12:07:58.525Z</time>
      </trkpt>
      <trkpt lat="43.05368333" lon="-7.17614167">
        <ele>729.0</ele>
        <time>2022-06-19T12:07:59.555Z</time>
      </trkpt>
      <trkpt lat="43.05367167" lon="-7.17615167">
        <ele>730.0</ele>
        <time>2022-06-19T12:08:00.545Z</time>
      </trkpt>
      <trkpt lat="43.05366833" lon="-7.17616">
        <ele>730.0</ele>
        <time>2022-06-19T12:08:01.525Z</time>
      </trkpt>
      <trkpt lat="43.05366833" lon="-7.17616">
        <ele>730.0</ele>
        <time>2022-06-19T12:08:02.539Z</time>
      </trkpt>
      <trkpt lat="43.05366" lon="-7.17617667">
        <ele>730.0</ele>
        <time>2022-06-19T12:08:03.532Z</time>
      </trkpt>
      <trkpt lat="43.053655" lon="-7.17618667">
        <ele>730.0</ele>
        <time>2022-06-19T12:08:04.536Z</time>
      </trkpt>
      <trkpt lat="43.053655" lon="-7.17618667">
        <ele>730.0</ele>
        <time>2022-06-19T12:08:05.537Z</time>
      </trkpt>
      <trkpt lat="43.05364333" lon="-7.17620667">
        <ele>730.0</ele>
        <time>2022-06-19T12:08:06.548Z</time>
      </trkpt>
      <trkpt lat="43.05363667" lon="-7.17621667">
        <ele>730.0</ele>
        <time>2022-06-19T12:08:07.532Z</time>
      </trkpt>
      <trkpt lat="43.05363" lon="-7.17623">
        <ele>730.0</ele>
        <time>2022-06-19T12:08:08.531Z</time>
      </trkpt>
      <trkpt lat="43.05363" lon="-7.17623">
        <ele>730.0</ele>
        <time>2022-06-19T12:08:09.534Z</time>
      </trkpt>
      <trkpt lat="43.05362" lon="-7.17624">
        <ele>731.0</ele>
        <time>2022-06-19T12:08:10.523Z</time>
      </trkpt>
      <trkpt lat="43.05362" lon="-7.17624">
        <ele>731.0</ele>
        <time>2022-06-19T12:08:11.542Z</time>
      </trkpt>
      <trkpt lat="43.0536" lon="-7.17624167">
        <ele>731.0</ele>
        <time>2022-06-19T12:08:12.537Z</time>
      </trkpt>
      <trkpt lat="43.053595" lon="-7.176245">
        <ele>731.0</ele>
        <time>2022-06-19T12:08:13.535Z</time>
      </trkpt>
      <trkpt lat="43.053595" lon="-7.176245">
        <ele>731.0</ele>
        <time>2022-06-19T12:08:14.532Z</time>
      </trkpt>
      <trkpt lat="43.05357833" lon="-7.17625">
        <ele>732.0</ele>
        <time>2022-06-19T12:08:15.543Z</time>
      </trkpt>
      <trkpt lat="43.053575" lon="-7.17625333">
        <ele>732.0</ele>
        <time>2022-06-19T12:08:16.549Z</time>
      </trkpt>
      <trkpt lat="43.053575" lon="-7.17625333">
        <ele>732.0</ele>
        <time>2022-06-19T12:08:17.541Z</time>
      </trkpt>
      <trkpt lat="43.053565" lon="-7.17626167">
        <ele>732.0</ele>
        <time>2022-06-19T12:08:18.543Z</time>
      </trkpt>
      <trkpt lat="43.05355333" lon="-7.17626333">
        <ele>732.0</ele>
        <time>2022-06-19T12:08:19.537Z</time>
      </trkpt>
      <trkpt lat="43.05355333" lon="-7.17626333">
        <ele>732.0</ele>
        <time>2022-06-19T12:08:20.516Z</time>
      </trkpt>
      <trkpt lat="43.053535" lon="-7.17627167">
        <ele>733.0</ele>
        <time>2022-06-19T12:08:21.536Z</time>
      </trkpt>
      <trkpt lat="43.053535" lon="-7.17627167">
        <ele>733.0</ele>
        <time>2022-06-19T12:08:22.534Z</time>
      </trkpt>
      <trkpt lat="43.05352" lon="-7.17627833">
        <ele>733.0</ele>
        <time>2022-06-19T12:08:23.522Z</time>
      </trkpt>
      <trkpt lat="43.05352" lon="-7.17627833">
        <ele>733.0</ele>
        <time>2022-06-19T12:08:24.545Z</time>
      </trkpt>
      <trkpt lat="43.05351833" lon="-7.17629167">
        <ele>733.0</ele>
        <time>2022-06-19T12:08:25.539Z</time>
      </trkpt>
      <trkpt lat="43.053525" lon="-7.17629833">
        <ele>734.0</ele>
        <time>2022-06-19T12:08:26.528Z</time>
      </trkpt>
      <trkpt lat="43.053525" lon="-7.17629833">
        <ele>734.0</ele>
        <time>2022-06-19T12:08:27.553Z</time>
      </trkpt>
      <trkpt lat="43.05350833" lon="-7.17630833">
        <ele>734.0</ele>
        <time>2022-06-19T12:08:28.539Z</time>
      </trkpt>
      <trkpt lat="43.05350833" lon="-7.17630833">
        <ele>734.0</ele>
        <time>2022-06-19T12:08:29.547Z</time>
      </trkpt>
      <trkpt lat="43.05349167" lon="-7.17631833">
        <ele>734.0</ele>
        <time>2022-06-19T12:08:30.528Z</time>
      </trkpt>
      <trkpt lat="43.05349167" lon="-7.17631833">
        <ele>734.0</ele>
        <time>2022-06-19T12:08:31.539Z</time>
      </trkpt>
      <trkpt lat="43.053485" lon="-7.17633167">
        <ele>735.0</ele>
        <time>2022-06-19T12:08:32.520Z</time>
      </trkpt>
      <trkpt lat="43.053485" lon="-7.17633167">
        <ele>735.0</ele>
        <time>2022-06-19T12:08:33.536Z</time>
      </trkpt>
      <trkpt lat="43.05347333" lon="-7.17634167">
        <ele>735.0</ele>
        <time>2022-06-19T12:08:34.524Z</time>
      </trkpt>
      <trkpt lat="43.05347" lon="-7.17634833">
        <ele>735.0</ele>
        <time>2022-06-19T12:08:35.538Z</time>
      </trkpt>
      <trkpt lat="43.05347" lon="-7.17634833">
        <ele>735.0</ele>
        <time>2022-06-19T12:08:36.538Z</time>
      </trkpt>
      <trkpt lat="43.05347" lon="-7.17637">
        <ele>735.0</ele>
        <time>2022-06-19T12:08:37.533Z</time>
      </trkpt>
      <trkpt lat="43.05347" lon="-7.17637">
        <ele>735.0</ele>
        <time>2022-06-19T12:08:38.529Z</time>
      </trkpt>
      <trkpt lat="43.05346667" lon="-7.17638167">
        <ele>736.0</ele>
        <time>2022-06-19T12:08:39.525Z</time>
      </trkpt>
      <trkpt lat="43.05346333" lon="-7.17639167">
        <ele>736.0</ele>
        <time>2022-06-19T12:08:40.546Z</time>
      </trkpt>
      <trkpt lat="43.05346333" lon="-7.17639167">
        <ele>736.0</ele>
        <time>2022-06-19T12:08:41.537Z</time>
      </trkpt>
      <trkpt lat="43.05345667" lon="-7.17640833">
        <ele>736.0</ele>
        <time>2022-06-19T12:08:42.518Z</time>
      </trkpt>
      <trkpt lat="43.05345667" lon="-7.17640833">
        <ele>736.0</ele>
        <time>2022-06-19T12:08:43.530Z</time>
      </trkpt>
      <trkpt lat="43.05345" lon="-7.17642667">
        <ele>736.0</ele>
        <time>2022-06-19T12:08:44.549Z</time>
      </trkpt>
      <trkpt lat="43.05345" lon="-7.17642667">
        <ele>736.0</ele>
        <time>2022-06-19T12:08:45.518Z</time>
      </trkpt>
      <trkpt lat="43.05343833" lon="-7.17644667">
        <ele>736.0</ele>
        <time>2022-06-19T12:08:46.547Z</time>
      </trkpt>
      <trkpt lat="43.05343667" lon="-7.176455">
        <ele>736.0</ele>
        <time>2022-06-19T12:08:47.528Z</time>
      </trkpt>
      <trkpt lat="43.05343667" lon="-7.176455">
        <ele>736.0</ele>
        <time>2022-06-19T12:08:48.518Z</time>
      </trkpt>
      <trkpt lat="43.05344" lon="-7.176465">
        <ele>736.0</ele>
        <time>2022-06-19T12:08:49.552Z</time>
      </trkpt>
      <trkpt lat="43.05344" lon="-7.176465">
        <ele>736.0</ele>
        <time>2022-06-19T12:08:50.535Z</time>
      </trkpt>
      <trkpt lat="43.053435" lon="-7.17648167">
        <ele>737.0</ele>
        <time>2022-06-19T12:08:51.637Z</time>
      </trkpt>
      <trkpt lat="43.05343167" lon="-7.17648833">
        <ele>737.0</ele>
        <time>2022-06-19T12:08:52.554Z</time>
      </trkpt>
      <trkpt lat="43.05342667" lon="-7.176495">
        <ele>737.0</ele>
        <time>2022-06-19T12:08:53.534Z</time>
      </trkpt>
      <trkpt lat="43.05342667" lon="-7.176495">
        <ele>737.0</ele>
        <time>2022-06-19T12:08:54.522Z</time>
      </trkpt>
      <trkpt lat="43.05342333" lon="-7.17650667">
        <ele>737.0</ele>
        <time>2022-06-19T12:08:55.534Z</time>
      </trkpt>
      <trkpt lat="43.05342333" lon="-7.17650667">
        <ele>737.0</ele>
        <time>2022-06-19T12:08:56.530Z</time>
      </trkpt>
      <trkpt lat="43.05341833" lon="-7.17652167">
        <ele>737.0</ele>
        <time>2022-06-19T12:08:57.555Z</time>
      </trkpt>
      <trkpt lat="43.05341833" lon="-7.17652167">
        <ele>737.0</ele>
        <time>2022-06-19T12:08:58.555Z</time>
      </trkpt>
      <trkpt lat="43.05341667" lon="-7.17653167">
        <ele>738.0</ele>
        <time>2022-06-19T12:08:59.555Z</time>
      </trkpt>
      <trkpt lat="43.05341167" lon="-7.17653833">
        <ele>738.0</ele>
        <time>2022-06-19T12:09:00.540Z</time>
      </trkpt>
      <trkpt lat="43.05341167" lon="-7.17653833">
        <ele>738.0</ele>
        <time>2022-06-19T12:09:01.555Z</time>
      </trkpt>
      <trkpt lat="43.05340333" lon="-7.17655">
        <ele>738.0</ele>
        <time>2022-06-19T12:09:02.519Z</time>
      </trkpt>
      <trkpt lat="43.05340333" lon="-7.17655">
        <ele>738.0</ele>
        <time>2022-06-19T12:09:03.541Z</time>
      </trkpt>
      <trkpt lat="43.05339833" lon="-7.17655833">
        <ele>738.0</ele>
        <time>2022-06-19T12:09:04.544Z</time>
      </trkpt>
      <trkpt lat="43.05339833" lon="-7.17655833">
        <ele>738.0</ele>
        <time>2022-06-19T12:09:05.539Z</time>
      </trkpt>
      <trkpt lat="43.05339167" lon="-7.17657333">
        <ele>738.0</ele>
        <time>2022-06-19T12:09:06.524Z</time>
      </trkpt>
      <trkpt lat="43.05338667" lon="-7.17658">
        <ele>738.0</ele>
        <time>2022-06-19T12:09:07.518Z</time>
      </trkpt>
      <trkpt lat="43.05338667" lon="-7.17658">
        <ele>738.0</ele>
        <time>2022-06-19T12:09:08.521Z</time>
      </trkpt>
      <trkpt lat="43.05337833" lon="-7.17658667">
        <ele>739.0</ele>
        <time>2022-06-19T12:09:09.544Z</time>
      </trkpt>
      <trkpt lat="43.05337833" lon="-7.17658667">
        <ele>739.0</ele>
        <time>2022-06-19T12:09:10.517Z</time>
      </trkpt>
      <trkpt lat="43.05337167" lon="-7.1766">
        <ele>739.0</ele>
        <time>2022-06-19T12:09:11.538Z</time>
      </trkpt>
      <trkpt lat="43.05337167" lon="-7.1766">
        <ele>739.0</ele>
        <time>2022-06-19T12:09:12.516Z</time>
      </trkpt>
      <trkpt lat="43.05336167" lon="-7.176605">
        <ele>739.0</ele>
        <time>2022-06-19T12:09:13.532Z</time>
      </trkpt>
      <trkpt lat="43.05336167" lon="-7.176605">
        <ele>739.0</ele>
        <time>2022-06-19T12:09:14.554Z</time>
      </trkpt>
      <trkpt lat="43.05334833" lon="-7.17661">
        <ele>739.0</ele>
        <time>2022-06-19T12:09:15.543Z</time>
      </trkpt>
      <trkpt lat="43.05334833" lon="-7.17661">
        <ele>739.0</ele>
        <time>2022-06-19T12:09:16.519Z</time>
      </trkpt>
      <trkpt lat="43.05334333" lon="-7.17662833">
        <ele>740.0</ele>
        <time>2022-06-19T12:09:17.551Z</time>
      </trkpt>
      <trkpt lat="43.05334333" lon="-7.17662833">
        <ele>740.0</ele>
        <time>2022-06-19T12:09:18.529Z</time>
      </trkpt>
      <trkpt lat="43.05335667" lon="-7.17666333">
        <ele>740.0</ele>
        <time>2022-06-19T12:09:19.517Z</time>
      </trkpt>
      <trkpt lat="43.05335667" lon="-7.17666333">
        <ele>740.0</ele>
        <time>2022-06-19T12:09:20.523Z</time>
      </trkpt>
      <trkpt lat="43.05335667" lon="-7.17668">
        <ele>741.0</ele>
        <time>2022-06-19T12:09:21.551Z</time>
      </trkpt>
      <trkpt lat="43.05335667" lon="-7.17668">
        <ele>741.0</ele>
        <time>2022-06-19T12:09:22.541Z</time>
      </trkpt>
      <trkpt lat="43.05335667" lon="-7.17669333">
        <ele>741.0</ele>
        <time>2022-06-19T12:09:23.530Z</time>
      </trkpt>
      <trkpt lat="43.05335667" lon="-7.17669333">
        <ele>741.0</ele>
        <time>2022-06-19T12:09:24.551Z</time>
      </trkpt>
      <trkpt lat="43.05336167" lon="-7.17668833">
        <ele>741.0</ele>
        <time>2022-06-19T12:09:25.531Z</time>
      </trkpt>
      <trkpt lat="43.05336" lon="-7.176695">
        <ele>741.0</ele>
        <time>2022-06-19T12:09:26.528Z</time>
      </trkpt>
      <trkpt lat="43.05336" lon="-7.176695">
        <ele>741.0</ele>
        <time>2022-06-19T12:09:27.518Z</time>
      </trkpt>
      <trkpt lat="43.05335833" lon="-7.176705">
        <ele>741.0</ele>
        <time>2022-06-19T12:09:28.547Z</time>
      </trkpt>
      <trkpt lat="43.05335833" lon="-7.176705">
        <ele>741.0</ele>
        <time>2022-06-19T12:09:29.549Z</time>
      </trkpt>
      <trkpt lat="43.05336" lon="-7.17672167">
        <ele>742.0</ele>
        <time>2022-06-19T12:09:30.518Z</time>
      </trkpt>
      <trkpt lat="43.05336167" lon="-7.17673">
        <ele>742.0</ele>
        <time>2022-06-19T12:09:31.524Z</time>
      </trkpt>
      <trkpt lat="43.05336167" lon="-7.17673">
        <ele>742.0</ele>
        <time>2022-06-19T12:09:32.531Z</time>
      </trkpt>
      <trkpt lat="43.05336" lon="-7.17674833">
        <ele>742.0</ele>
        <time>2022-06-19T12:09:33.523Z</time>
      </trkpt>
      <trkpt lat="43.05336" lon="-7.17674833">
        <ele>742.0</ele>
        <time>2022-06-19T12:09:34.525Z</time>
      </trkpt>
      <trkpt lat="43.053355" lon="-7.17675">
        <ele>742.0</ele>
        <time>2022-06-19T12:09:35.520Z</time>
      </trkpt>
      <trkpt lat="43.05335167" lon="-7.17675667">
        <ele>742.0</ele>
        <time>2022-06-19T12:09:36.552Z</time>
      </trkpt>
      <trkpt lat="43.05335167" lon="-7.17675667">
        <ele>742.0</ele>
        <time>2022-06-19T12:09:37.527Z</time>
      </trkpt>
      <trkpt lat="43.05335167" lon="-7.17675667">
        <ele>742.0</ele>
        <time>2022-06-19T12:09:38.522Z</time>
      </trkpt>
      <trkpt lat="43.05335167" lon="-7.17675667">
        <ele>742.0</ele>
        <time>2022-06-19T12:09:39.553Z</time>
      </trkpt>
      <trkpt lat="43.05335167" lon="-7.17675667">
        <ele>742.0</ele>
        <time>2022-06-19T12:09:51.026Z</time>
      </trkpt>
      <trkpt lat="43.05335167" lon="-7.17675667">
        <ele>742.0</ele>
        <time>2022-06-19T12:09:52.018Z</time>
      </trkpt>
      <trkpt lat="43.05335167" lon="-7.17686167">
        <ele>744.0</ele>
        <time>2022-06-19T12:09:53.009Z</time>
      </trkpt>
      <trkpt lat="43.05335167" lon="-7.17686167">
        <ele>744.0</ele>
        <time>2022-06-19T12:09:54.032Z</time>
      </trkpt>
      <trkpt lat="43.05334833" lon="-7.17687333">
        <ele>745.0</ele>
        <time>2022-06-19T12:09:54.997Z</time>
      </trkpt>
      <trkpt lat="43.05334833" lon="-7.17687333">
        <ele>745.0</ele>
        <time>2022-06-19T12:09:56.003Z</time>
      </trkpt>
      <trkpt lat="43.05334833" lon="-7.176885">
        <ele>745.0</ele>
        <time>2022-06-19T12:09:56.999Z</time>
      </trkpt>
      <trkpt lat="43.05334833" lon="-7.176885">
        <ele>745.0</ele>
        <time>2022-06-19T12:09:58.006Z</time>
      </trkpt>
      <trkpt lat="43.05334" lon="-7.17689333">
        <ele>745.0</ele>
        <time>2022-06-19T12:09:59.012Z</time>
      </trkpt>
      <trkpt lat="43.05334" lon="-7.17689333">
        <ele>745.0</ele>
        <time>2022-06-19T12:10:00.018Z</time>
      </trkpt>
      <trkpt lat="43.05333333" lon="-7.17691">
        <ele>745.0</ele>
        <time>2022-06-19T12:10:01.019Z</time>
      </trkpt>
      <trkpt lat="43.05333333" lon="-7.17691">
        <ele>745.0</ele>
        <time>2022-06-19T12:10:02.015Z</time>
      </trkpt>
      <trkpt lat="43.05332833" lon="-7.17692333">
        <ele>745.0</ele>
        <time>2022-06-19T12:10:03.019Z</time>
      </trkpt>
      <trkpt lat="43.05332833" lon="-7.17692333">
        <ele>745.0</ele>
        <time>2022-06-19T12:10:03.995Z</time>
      </trkpt>
      <trkpt lat="43.05332667" lon="-7.17693667">
        <ele>746.0</ele>
        <time>2022-06-19T12:10:05.014Z</time>
      </trkpt>
      <trkpt lat="43.05332667" lon="-7.17693667">
        <ele>746.0</ele>
        <time>2022-06-19T12:10:06.030Z</time>
      </trkpt>
      <trkpt lat="43.05332667" lon="-7.17695167">
        <ele>746.0</ele>
        <time>2022-06-19T12:10:07.028Z</time>
      </trkpt>
      <trkpt lat="43.05332667" lon="-7.17695167">
        <ele>746.0</ele>
        <time>2022-06-19T12:10:08.004Z</time>
      </trkpt>
      <trkpt lat="43.05332333" lon="-7.17696333">
        <ele>746.0</ele>
        <time>2022-06-19T12:10:09.021Z</time>
      </trkpt>
      <trkpt lat="43.05332167" lon="-7.17697">
        <ele>747.0</ele>
        <time>2022-06-19T12:10:10.017Z</time>
      </trkpt>
      <trkpt lat="43.05332" lon="-7.17697667">
        <ele>747.0</ele>
        <time>2022-06-19T12:10:11.027Z</time>
      </trkpt>
      <trkpt lat="43.05332" lon="-7.17697667">
        <ele>747.0</ele>
        <time>2022-06-19T12:10:12.003Z</time>
      </trkpt>
      <trkpt lat="43.05331833" lon="-7.17698667">
        <ele>747.0</ele>
        <time>2022-06-19T12:10:13.009Z</time>
      </trkpt>
      <trkpt lat="43.05331833" lon="-7.17698667">
        <ele>747.0</ele>
        <time>2022-06-19T12:10:14.025Z</time>
      </trkpt>
      <trkpt lat="43.05331333" lon="-7.17700333">
        <ele>747.0</ele>
        <time>2022-06-19T12:10:15.029Z</time>
      </trkpt>
      <trkpt lat="43.05331167" lon="-7.17701167">
        <ele>747.0</ele>
        <time>2022-06-19T12:10:15.999Z</time>
      </trkpt>
      <trkpt lat="43.05331167" lon="-7.17701167">
        <ele>747.0</ele>
        <time>2022-06-19T12:10:17.029Z</time>
      </trkpt>
      <trkpt lat="43.05330833" lon="-7.17703167">
        <ele>748.0</ele>
        <time>2022-06-19T12:10:18.009Z</time>
      </trkpt>
      <trkpt lat="43.05330833" lon="-7.17703167">
        <ele>748.0</ele>
        <time>2022-06-19T12:10:19.026Z</time>
      </trkpt>
      <trkpt lat="43.05331" lon="-7.17705333">
        <ele>748.0</ele>
        <time>2022-06-19T12:10:20.030Z</time>
      </trkpt>
      <trkpt lat="43.05331" lon="-7.17705333">
        <ele>748.0</ele>
        <time>2022-06-19T12:10:20.996Z</time>
      </trkpt>
      <trkpt lat="43.05330333" lon="-7.177065">
        <ele>748.0</ele>
        <time>2022-06-19T12:10:22.033Z</time>
      </trkpt>
      <trkpt lat="43.05330333" lon="-7.17707667">
        <ele>748.0</ele>
        <time>2022-06-19T12:10:23.030Z</time>
      </trkpt>
      <trkpt lat="43.05330333" lon="-7.17707667">
        <ele>748.0</ele>
        <time>2022-06-19T12:10:23.997Z</time>
      </trkpt>
      <trkpt lat="43.053295" lon="-7.177095">
        <ele>748.0</ele>
        <time>2022-06-19T12:10:25.011Z</time>
      </trkpt>
      <trkpt lat="43.05329" lon="-7.177105">
        <ele>748.0</ele>
        <time>2022-06-19T12:10:26.009Z</time>
      </trkpt>
      <trkpt lat="43.05329" lon="-7.177105">
        <ele>748.0</ele>
        <time>2022-06-19T12:10:27.015Z</time>
      </trkpt>
      <trkpt lat="43.053285" lon="-7.177125">
        <ele>749.0</ele>
        <time>2022-06-19T12:10:28.007Z</time>
      </trkpt>
      <trkpt lat="43.053285" lon="-7.177125">
        <ele>749.0</ele>
        <time>2022-06-19T12:10:29.013Z</time>
      </trkpt>
      <trkpt lat="43.05328167" lon="-7.17714167">
        <ele>749.0</ele>
        <time>2022-06-19T12:10:30.016Z</time>
      </trkpt>
      <trkpt lat="43.05328167" lon="-7.17714167">
        <ele>749.0</ele>
        <time>2022-06-19T12:10:31.022Z</time>
      </trkpt>
      <trkpt lat="43.05328667" lon="-7.17716333">
        <ele>749.0</ele>
        <time>2022-06-19T12:10:32.009Z</time>
      </trkpt>
      <trkpt lat="43.05328667" lon="-7.17716333">
        <ele>749.0</ele>
        <time>2022-06-19T12:10:33.016Z</time>
      </trkpt>
      <trkpt lat="43.05328833" lon="-7.17717833">
        <ele>749.0</ele>
        <time>2022-06-19T12:10:34.023Z</time>
      </trkpt>
      <trkpt lat="43.05328833" lon="-7.17717833">
        <ele>749.0</ele>
        <time>2022-06-19T12:10:35.030Z</time>
      </trkpt>
      <trkpt lat="43.05329167" lon="-7.17719333">
        <ele>749.0</ele>
        <time>2022-06-19T12:10:36.031Z</time>
      </trkpt>
      <trkpt lat="43.05329167" lon="-7.17719333">
        <ele>749.0</ele>
        <time>2022-06-19T12:10:36.998Z</time>
      </trkpt>
      <trkpt lat="43.0533" lon="-7.17721167">
        <ele>749.0</ele>
        <time>2022-06-19T12:10:38.003Z</time>
      </trkpt>
      <trkpt lat="43.0533" lon="-7.17721167">
        <ele>749.0</ele>
        <time>2022-06-19T12:10:39.009Z</time>
      </trkpt>
      <trkpt lat="43.053325" lon="-7.17723333">
        <ele>750.0</ele>
        <time>2022-06-19T12:10:40.013Z</time>
      </trkpt>
      <trkpt lat="43.053325" lon="-7.17723333">
        <ele>750.0</ele>
        <time>2022-06-19T12:10:41.019Z</time>
      </trkpt>
      <trkpt lat="43.053325" lon="-7.17724667">
        <ele>750.0</ele>
        <time>2022-06-19T12:10:42.014Z</time>
      </trkpt>
      <trkpt lat="43.053325" lon="-7.17724667">
        <ele>750.0</ele>
        <time>2022-06-19T12:10:43.019Z</time>
      </trkpt>
      <trkpt lat="43.05332667" lon="-7.177255">
        <ele>750.0</ele>
        <time>2022-06-19T12:10:44.010Z</time>
      </trkpt>
      <trkpt lat="43.05332667" lon="-7.177255">
        <ele>750.0</ele>
        <time>2022-06-19T12:10:45.016Z</time>
      </trkpt>
      <trkpt lat="43.05333333" lon="-7.17727">
        <ele>751.0</ele>
        <time>2022-06-19T12:10:46.016Z</time>
      </trkpt>
      <trkpt lat="43.05333333" lon="-7.17727">
        <ele>751.0</ele>
        <time>2022-06-19T12:10:47.022Z</time>
      </trkpt>
      <trkpt lat="43.05333" lon="-7.17727333">
        <ele>752.0</ele>
        <time>2022-06-19T12:10:48.031Z</time>
      </trkpt>
      <trkpt lat="43.05333167" lon="-7.17727833">
        <ele>752.0</ele>
        <time>2022-06-19T12:10:49.014Z</time>
      </trkpt>
      <trkpt lat="43.05333167" lon="-7.17728667">
        <ele>752.0</ele>
        <time>2022-06-19T12:10:50.020Z</time>
      </trkpt>
      <trkpt lat="43.05333167" lon="-7.17728667">
        <ele>752.0</ele>
        <time>2022-06-19T12:10:51.030Z</time>
      </trkpt>
      <trkpt lat="43.05333333" lon="-7.177295">
        <ele>752.0</ele>
        <time>2022-06-19T12:10:52.014Z</time>
      </trkpt>
      <trkpt lat="43.05333333" lon="-7.177295">
        <ele>753.0</ele>
        <time>2022-06-19T12:10:52.995Z</time>
      </trkpt>
      <trkpt lat="43.05333333" lon="-7.177295">
        <ele>753.0</ele>
        <time>2022-06-19T12:10:54.001Z</time>
      </trkpt>
      <trkpt lat="43.05333333" lon="-7.17730667">
        <ele>753.0</ele>
        <time>2022-06-19T12:10:55.032Z</time>
      </trkpt>
      <trkpt lat="43.053335" lon="-7.17731">
        <ele>753.0</ele>
        <time>2022-06-19T12:10:56.001Z</time>
      </trkpt>
      <trkpt lat="43.053335" lon="-7.17731">
        <ele>753.0</ele>
        <time>2022-06-19T12:10:57.006Z</time>
      </trkpt>
      <trkpt lat="43.05333833" lon="-7.17733167">
        <ele>753.0</ele>
        <time>2022-06-19T12:10:57.993Z</time>
      </trkpt>
      <trkpt lat="43.05333833" lon="-7.17733167">
        <ele>753.0</ele>
        <time>2022-06-19T12:10:58.999Z</time>
      </trkpt>
      <trkpt lat="43.053335" lon="-7.17734167">
        <ele>754.0</ele>
        <time>2022-06-19T12:11:00.008Z</time>
      </trkpt>
      <trkpt lat="43.053335" lon="-7.17734167">
        <ele>754.0</ele>
        <time>2022-06-19T12:11:01.030Z</time>
      </trkpt>
      <trkpt lat="43.05333333" lon="-7.177345">
        <ele>754.0</ele>
        <time>2022-06-19T12:11:02.014Z</time>
      </trkpt>
      <trkpt lat="43.05333333" lon="-7.17735333">
        <ele>754.0</ele>
        <time>2022-06-19T12:11:03.029Z</time>
      </trkpt>
      <trkpt lat="43.05333333" lon="-7.17735333">
        <ele>754.0</ele>
        <time>2022-06-19T12:11:03.998Z</time>
      </trkpt>
      <trkpt lat="43.05332333" lon="-7.17736167">
        <ele>754.0</ele>
        <time>2022-06-19T12:11:05.029Z</time>
      </trkpt>
      <trkpt lat="43.05332167" lon="-7.177365">
        <ele>754.0</ele>
        <time>2022-06-19T12:11:05.993Z</time>
      </trkpt>
      <trkpt lat="43.05332167" lon="-7.177365">
        <ele>754.0</ele>
        <time>2022-06-19T12:11:06.999Z</time>
      </trkpt>
      <trkpt lat="43.05331333" lon="-7.17737667">
        <ele>755.0</ele>
        <time>2022-06-19T12:11:08.031Z</time>
      </trkpt>
      <trkpt lat="43.05331333" lon="-7.17737667">
        <ele>755.0</ele>
        <time>2022-06-19T12:11:08.999Z</time>
      </trkpt>
      <trkpt lat="43.053305" lon="-7.17736333">
        <ele>755.0</ele>
        <time>2022-06-19T12:11:10.000Z</time>
      </trkpt>
      <trkpt lat="43.053305" lon="-7.17736333">
        <ele>755.0</ele>
        <time>2022-06-19T12:11:11.006Z</time>
      </trkpt>
      <trkpt lat="43.05329833" lon="-7.17736833">
        <ele>755.0</ele>
        <time>2022-06-19T12:11:12.017Z</time>
      </trkpt>
      <trkpt lat="43.05329833" lon="-7.17736833">
        <ele>755.0</ele>
        <time>2022-06-19T12:11:13.023Z</time>
      </trkpt>
      <trkpt lat="43.05329667" lon="-7.177385">
        <ele>755.0</ele>
        <time>2022-06-19T12:11:14.031Z</time>
      </trkpt>
      <trkpt lat="43.05329667" lon="-7.177385">
        <ele>755.0</ele>
        <time>2022-06-19T12:11:14.998Z</time>
      </trkpt>
      <trkpt lat="43.05330333" lon="-7.177405">
        <ele>756.0</ele>
        <time>2022-06-19T12:11:16.019Z</time>
      </trkpt>
      <trkpt lat="43.05330333" lon="-7.177405">
        <ele>756.0</ele>
        <time>2022-06-19T12:11:17.025Z</time>
      </trkpt>
      <trkpt lat="43.05330833" lon="-7.17742667">
        <ele>756.0</ele>
        <time>2022-06-19T12:11:18.030Z</time>
      </trkpt>
      <trkpt lat="43.05331" lon="-7.177435">
        <ele>756.0</ele>
        <time>2022-06-19T12:11:19.009Z</time>
      </trkpt>
      <trkpt lat="43.05331" lon="-7.177435">
        <ele>756.0</ele>
        <time>2022-06-19T12:11:20.015Z</time>
      </trkpt>
      <trkpt lat="43.05331833" lon="-7.17744833">
        <ele>757.0</ele>
        <time>2022-06-19T12:11:21.019Z</time>
      </trkpt>
      <trkpt lat="43.05332167" lon="-7.177455">
        <ele>757.0</ele>
        <time>2022-06-19T12:11:22.006Z</time>
      </trkpt>
      <trkpt lat="43.05332167" lon="-7.177455">
        <ele>757.0</ele>
        <time>2022-06-19T12:11:23.012Z</time>
      </trkpt>
      <trkpt lat="43.05331667" lon="-7.17746667">
        <ele>757.0</ele>
        <time>2022-06-19T12:11:23.996Z</time>
      </trkpt>
      <trkpt lat="43.05331667" lon="-7.17746667">
        <ele>757.0</ele>
        <time>2022-06-19T12:11:25.002Z</time>
      </trkpt>
      <trkpt lat="43.05331667" lon="-7.177485">
        <ele>757.0</ele>
        <time>2022-06-19T12:11:26.032Z</time>
      </trkpt>
      <trkpt lat="43.05331333" lon="-7.17748833">
        <ele>757.0</ele>
        <time>2022-06-19T12:11:26.999Z</time>
      </trkpt>
      <trkpt lat="43.05331333" lon="-7.17748833">
        <ele>757.0</ele>
        <time>2022-06-19T12:11:28.004Z</time>
      </trkpt>
      <trkpt lat="43.05330833" lon="-7.177495">
        <ele>758.0</ele>
        <time>2022-06-19T12:11:28.996Z</time>
      </trkpt>
      <trkpt lat="43.05330333" lon="-7.1775">
        <ele>758.0</ele>
        <time>2022-06-19T12:11:30.022Z</time>
      </trkpt>
      <trkpt lat="43.05330333" lon="-7.1775">
        <ele>758.0</ele>
        <time>2022-06-19T12:11:31.028Z</time>
      </trkpt>
      <trkpt lat="43.05330167" lon="-7.17751667">
        <ele>758.0</ele>
        <time>2022-06-19T12:11:32.024Z</time>
      </trkpt>
      <trkpt lat="43.05330167" lon="-7.17751667">
        <ele>758.0</ele>
        <time>2022-06-19T12:11:33.030Z</time>
      </trkpt>
      <trkpt lat="43.05330167" lon="-7.17753333">
        <ele>758.0</ele>
        <time>2022-06-19T12:11:34.020Z</time>
      </trkpt>
      <trkpt lat="43.05330167" lon="-7.17753333">
        <ele>758.0</ele>
        <time>2022-06-19T12:11:35.025Z</time>
      </trkpt>
      <trkpt lat="43.05330667" lon="-7.17754667">
        <ele>758.0</ele>
        <time>2022-06-19T12:11:36.027Z</time>
      </trkpt>
      <trkpt lat="43.05330333" lon="-7.17755167">
        <ele>759.0</ele>
        <time>2022-06-19T12:11:37.005Z</time>
      </trkpt>
      <trkpt lat="43.05330333" lon="-7.17755167">
        <ele>759.0</ele>
        <time>2022-06-19T12:11:38.011Z</time>
      </trkpt>
      <trkpt lat="43.05330667" lon="-7.17755167">
        <ele>759.0</ele>
        <time>2022-06-19T12:11:39.029Z</time>
      </trkpt>
      <trkpt lat="43.053305" lon="-7.17755667">
        <ele>759.0</ele>
        <time>2022-06-19T12:11:40.010Z</time>
      </trkpt>
      <trkpt lat="43.053305" lon="-7.17755667">
        <ele>759.0</ele>
        <time>2022-06-19T12:11:41.015Z</time>
      </trkpt>
      <trkpt lat="43.05330167" lon="-7.17755667">
        <ele>759.0</ele>
        <time>2022-06-19T12:11:42.017Z</time>
      </trkpt>
      <trkpt lat="43.05330167" lon="-7.17755667">
        <ele>759.0</ele>
        <time>2022-06-19T12:11:43.024Z</time>
      </trkpt>
      <trkpt lat="43.05330167" lon="-7.17755667">
        <ele>759.0</ele>
        <time>2022-06-19T12:11:44.030Z</time>
      </trkpt>
      <trkpt lat="43.05330167" lon="-7.17755667">
        <ele>759.0</ele>
        <time>2022-06-19T12:11:44.996Z</time>
      </trkpt>
      <trkpt lat="43.05330167" lon="-7.17755667">
        <ele>759.0</ele>
        <time>2022-06-19T12:11:55.004Z</time>
      </trkpt>
      <trkpt lat="43.05327833" lon="-7.177665">
        <ele>762.0</ele>
        <time>2022-06-19T12:11:56.023Z</time>
      </trkpt>
      <trkpt lat="43.05327833" lon="-7.177665">
        <ele>762.0</ele>
        <time>2022-06-19T12:11:57.010Z</time>
      </trkpt>
      <trkpt lat="43.05327667" lon="-7.17769">
        <ele>762.0</ele>
        <time>2022-06-19T12:11:58.027Z</time>
      </trkpt>
      <trkpt lat="43.05327333" lon="-7.17770167">
        <ele>762.0</ele>
        <time>2022-06-19T12:11:59.031Z</time>
      </trkpt>
      <trkpt lat="43.05327333" lon="-7.17770167">
        <ele>762.0</ele>
        <time>2022-06-19T12:12:00.038Z</time>
      </trkpt>
      <trkpt lat="43.05327167" lon="-7.17772333">
        <ele>763.0</ele>
        <time>2022-06-19T12:12:01.010Z</time>
      </trkpt>
      <trkpt lat="43.05327167" lon="-7.17772333">
        <ele>763.0</ele>
        <time>2022-06-19T12:12:02.015Z</time>
      </trkpt>
      <trkpt lat="43.053265" lon="-7.17774333">
        <ele>763.0</ele>
        <time>2022-06-19T12:12:03.015Z</time>
      </trkpt>
      <trkpt lat="43.053265" lon="-7.17775167">
        <ele>763.0</ele>
        <time>2022-06-19T12:12:04.007Z</time>
      </trkpt>
      <trkpt lat="43.053265" lon="-7.17775167">
        <ele>763.0</ele>
        <time>2022-06-19T12:12:05.013Z</time>
      </trkpt>
      <trkpt lat="43.05325667" lon="-7.177745">
        <ele>764.0</ele>
        <time>2022-06-19T12:12:06.032Z</time>
      </trkpt>
      <trkpt lat="43.05325667" lon="-7.177745">
        <ele>764.0</ele>
        <time>2022-06-19T12:12:07.039Z</time>
      </trkpt>
      <trkpt lat="43.053245" lon="-7.17774">
        <ele>764.0</ele>
        <time>2022-06-19T12:12:08.007Z</time>
      </trkpt>
      <trkpt lat="43.053245" lon="-7.17774">
        <ele>764.0</ele>
        <time>2022-06-19T12:12:09.013Z</time>
      </trkpt>
      <trkpt lat="43.05323333" lon="-7.177735">
        <ele>764.0</ele>
        <time>2022-06-19T12:12:10.038Z</time>
      </trkpt>
      <trkpt lat="43.05323333" lon="-7.177735">
        <ele>764.0</ele>
        <time>2022-06-19T12:12:11.022Z</time>
      </trkpt>
      <trkpt lat="43.05321333" lon="-7.17773667">
        <ele>765.0</ele>
        <time>2022-06-19T12:12:12.028Z</time>
      </trkpt>
      <trkpt lat="43.05321333" lon="-7.17773667">
        <ele>765.0</ele>
        <time>2022-06-19T12:12:13.035Z</time>
      </trkpt>
      <trkpt lat="43.053195" lon="-7.17774167">
        <ele>766.0</ele>
        <time>2022-06-19T12:12:14.029Z</time>
      </trkpt>
      <trkpt lat="43.05318333" lon="-7.17774667">
        <ele>766.0</ele>
        <time>2022-06-19T12:12:15.037Z</time>
      </trkpt>
      <trkpt lat="43.05318333" lon="-7.17774667">
        <ele>766.0</ele>
        <time>2022-06-19T12:12:16.003Z</time>
      </trkpt>
      <trkpt lat="43.05316" lon="-7.17774333">
        <ele>766.0</ele>
        <time>2022-06-19T12:12:17.011Z</time>
      </trkpt>
      <trkpt lat="43.05314667" lon="-7.17773">
        <ele>767.0</ele>
        <time>2022-06-19T12:12:18.026Z</time>
      </trkpt>
      <trkpt lat="43.05314667" lon="-7.17773">
        <ele>767.0</ele>
        <time>2022-06-19T12:12:19.037Z</time>
      </trkpt>
      <trkpt lat="43.05313167" lon="-7.17772833">
        <ele>767.0</ele>
        <time>2022-06-19T12:12:20.036Z</time>
      </trkpt>
      <trkpt lat="43.05313167" lon="-7.17772833">
        <ele>767.0</ele>
        <time>2022-06-19T12:12:21.002Z</time>
      </trkpt>
      <trkpt lat="43.05311" lon="-7.17772167">
        <ele>768.0</ele>
        <time>2022-06-19T12:12:22.030Z</time>
      </trkpt>
      <trkpt lat="43.0531" lon="-7.17772">
        <ele>768.0</ele>
        <time>2022-06-19T12:12:23.027Z</time>
      </trkpt>
      <trkpt lat="43.0531" lon="-7.17772">
        <ele>768.0</ele>
        <time>2022-06-19T12:12:24.037Z</time>
      </trkpt>
      <trkpt lat="43.05308833" lon="-7.17772">
        <ele>768.0</ele>
        <time>2022-06-19T12:12:25.005Z</time>
      </trkpt>
      <trkpt lat="43.05308833" lon="-7.17772">
        <ele>768.0</ele>
        <time>2022-06-19T12:12:26.011Z</time>
      </trkpt>
      <trkpt lat="43.05306333" lon="-7.17771833">
        <ele>769.0</ele>
        <time>2022-06-19T12:12:27.015Z</time>
      </trkpt>
      <trkpt lat="43.05306333" lon="-7.17771833">
        <ele>769.0</ele>
        <time>2022-06-19T12:12:28.021Z</time>
      </trkpt>
      <trkpt lat="43.05304833" lon="-7.17772">
        <ele>769.0</ele>
        <time>2022-06-19T12:12:29.019Z</time>
      </trkpt>
      <trkpt lat="43.05304833" lon="-7.17772">
        <ele>769.0</ele>
        <time>2022-06-19T12:12:30.025Z</time>
      </trkpt>
      <trkpt lat="43.05303167" lon="-7.17772833">
        <ele>770.0</ele>
        <time>2022-06-19T12:12:31.003Z</time>
      </trkpt>
      <trkpt lat="43.05302333" lon="-7.177735">
        <ele>770.0</ele>
        <time>2022-06-19T12:12:32.020Z</time>
      </trkpt>
      <trkpt lat="43.05302333" lon="-7.177735">
        <ele>770.0</ele>
        <time>2022-06-19T12:12:33.026Z</time>
      </trkpt>
      <trkpt lat="43.05301667" lon="-7.17774333">
        <ele>770.0</ele>
        <time>2022-06-19T12:12:34.016Z</time>
      </trkpt>
      <trkpt lat="43.05301667" lon="-7.17774333">
        <ele>770.0</ele>
        <time>2022-06-19T12:12:35.021Z</time>
      </trkpt>
      <trkpt lat="43.05299667" lon="-7.17775">
        <ele>771.0</ele>
        <time>2022-06-19T12:12:36.019Z</time>
      </trkpt>
      <trkpt lat="43.05299167" lon="-7.177755">
        <ele>771.0</ele>
        <time>2022-06-19T12:12:37.016Z</time>
      </trkpt>
      <trkpt lat="43.05299167" lon="-7.177755">
        <ele>771.0</ele>
        <time>2022-06-19T12:12:38.022Z</time>
      </trkpt>
      <trkpt lat="43.05298167" lon="-7.17776167">
        <ele>771.0</ele>
        <time>2022-06-19T12:12:39.034Z</time>
      </trkpt>
      <trkpt lat="43.05298167" lon="-7.17776167">
        <ele>771.0</ele>
        <time>2022-06-19T12:12:40.041Z</time>
      </trkpt>
      <trkpt lat="43.05297333" lon="-7.17777">
        <ele>772.0</ele>
        <time>2022-06-19T12:12:41.035Z</time>
      </trkpt>
      <trkpt lat="43.05297" lon="-7.17777333">
        <ele>772.0</ele>
        <time>2022-06-19T12:12:42.022Z</time>
      </trkpt>
      <trkpt lat="43.05297" lon="-7.17777333">
        <ele>772.0</ele>
        <time>2022-06-19T12:12:43.028Z</time>
      </trkpt>
      <trkpt lat="43.05295833" lon="-7.17777667">
        <ele>772.0</ele>
        <time>2022-06-19T12:12:44.035Z</time>
      </trkpt>
      <trkpt lat="43.05295833" lon="-7.17777667">
        <ele>772.0</ele>
        <time>2022-06-19T12:12:45.040Z</time>
      </trkpt>
      <trkpt lat="43.05296" lon="-7.17777667">
        <ele>773.0</ele>
        <time>2022-06-19T12:12:46.039Z</time>
      </trkpt>
      <trkpt lat="43.05296" lon="-7.17777667">
        <ele>773.0</ele>
        <time>2022-06-19T12:12:47.004Z</time>
      </trkpt>
      <trkpt lat="43.05295667" lon="-7.17778">
        <ele>773.0</ele>
        <time>2022-06-19T12:12:48.003Z</time>
      </trkpt>
      <trkpt lat="43.05295667" lon="-7.17778">
        <ele>773.0</ele>
        <time>2022-06-19T12:12:49.009Z</time>
      </trkpt>
      <trkpt lat="43.05295667" lon="-7.17778">
        <ele>773.0</ele>
        <time>2022-06-19T12:12:50.015Z</time>
      </trkpt>
      <trkpt lat="43.05295667" lon="-7.17778">
        <ele>773.0</ele>
        <time>2022-06-19T12:12:51.022Z</time>
      </trkpt>
      <trkpt lat="43.05292" lon="-7.17778667">
        <ele>774.0</ele>
        <time>2022-06-19T12:12:52.032Z</time>
      </trkpt>
      <trkpt lat="43.052915" lon="-7.17779333">
        <ele>774.0</ele>
        <time>2022-06-19T12:12:53.038Z</time>
      </trkpt>
      <trkpt lat="43.052915" lon="-7.17779333">
        <ele>774.0</ele>
        <time>2022-06-19T12:12:54.004Z</time>
      </trkpt>
      <trkpt lat="43.05289333" lon="-7.17780333">
        <ele>775.0</ele>
        <time>2022-06-19T12:12:55.028Z</time>
      </trkpt>
      <trkpt lat="43.05289333" lon="-7.17780333">
        <ele>775.0</ele>
        <time>2022-06-19T12:12:56.035Z</time>
      </trkpt>
      <trkpt lat="43.05288333" lon="-7.17780833">
        <ele>775.0</ele>
        <time>2022-06-19T12:12:57.037Z</time>
      </trkpt>
      <trkpt lat="43.05288333" lon="-7.17780833">
        <ele>775.0</ele>
        <time>2022-06-19T12:12:58.003Z</time>
      </trkpt>
      <trkpt lat="43.05287" lon="-7.17781">
        <ele>776.0</ele>
        <time>2022-06-19T12:12:59.008Z</time>
      </trkpt>
      <trkpt lat="43.05287" lon="-7.17781">
        <ele>776.0</ele>
        <time>2022-06-19T12:13:00.014Z</time>
      </trkpt>
      <trkpt lat="43.052865" lon="-7.17781833">
        <ele>776.0</ele>
        <time>2022-06-19T12:13:01.039Z</time>
      </trkpt>
      <trkpt lat="43.05286167" lon="-7.17782167">
        <ele>776.0</ele>
        <time>2022-06-19T12:13:02.020Z</time>
      </trkpt>
      <trkpt lat="43.05286167" lon="-7.17782167">
        <ele>776.0</ele>
        <time>2022-06-19T12:13:03.026Z</time>
      </trkpt>
      <trkpt lat="43.05286833" lon="-7.17782833">
        <ele>777.0</ele>
        <time>2022-06-19T12:13:04.037Z</time>
      </trkpt>
      <trkpt lat="43.05286833" lon="-7.17782833">
        <ele>777.0</ele>
        <time>2022-06-19T12:13:05.003Z</time>
      </trkpt>
      <trkpt lat="43.05286833" lon="-7.17782833">
        <ele>777.0</ele>
        <time>2022-06-19T12:13:06.009Z</time>
      </trkpt>
      <trkpt lat="43.05286833" lon="-7.17782833">
        <ele>777.0</ele>
        <time>2022-06-19T12:13:25.018Z</time>
      </trkpt>
      <trkpt lat="43.05277833" lon="-7.177865">
        <ele>780.0</ele>
        <time>2022-06-19T12:13:26.043Z</time>
      </trkpt>
      <trkpt lat="43.05277833" lon="-7.177865">
        <ele>780.0</ele>
        <time>2022-06-19T12:13:27.026Z</time>
      </trkpt>
      <trkpt lat="43.05276167" lon="-7.17786833">
        <ele>781.0</ele>
        <time>2022-06-19T12:13:28.041Z</time>
      </trkpt>
      <trkpt lat="43.05274" lon="-7.177875">
        <ele>781.0</ele>
        <time>2022-06-19T12:13:29.327Z</time>
      </trkpt>
      <trkpt lat="43.05274" lon="-7.177875">
        <ele>781.0</ele>
        <time>2022-06-19T12:13:30.014Z</time>
      </trkpt>
      <trkpt lat="43.05273" lon="-7.17786667">
        <ele>781.0</ele>
        <time>2022-06-19T12:13:31.009Z</time>
      </trkpt>
      <trkpt lat="43.05272333" lon="-7.17786167">
        <ele>781.0</ele>
        <time>2022-06-19T12:13:32.045Z</time>
      </trkpt>
      <trkpt lat="43.05272333" lon="-7.17786167">
        <ele>781.0</ele>
        <time>2022-06-19T12:13:33.010Z</time>
      </trkpt>
      <trkpt lat="43.05271333" lon="-7.177865">
        <ele>781.0</ele>
        <time>2022-06-19T12:13:34.018Z</time>
      </trkpt>
      <trkpt lat="43.05270833" lon="-7.17786167">
        <ele>781.0</ele>
        <time>2022-06-19T12:13:35.016Z</time>
      </trkpt>
      <trkpt lat="43.05270833" lon="-7.17786167">
        <ele>781.0</ele>
        <time>2022-06-19T12:13:36.022Z</time>
      </trkpt>
      <trkpt lat="43.05271167" lon="-7.17786">
        <ele>782.0</ele>
        <time>2022-06-19T12:13:37.017Z</time>
      </trkpt>
      <trkpt lat="43.052705" lon="-7.17786">
        <ele>782.0</ele>
        <time>2022-06-19T12:13:38.023Z</time>
      </trkpt>
      <trkpt lat="43.052705" lon="-7.17786">
        <ele>782.0</ele>
        <time>2022-06-19T12:13:39.029Z</time>
      </trkpt>
      <trkpt lat="43.052705" lon="-7.17786">
        <ele>782.0</ele>
        <time>2022-06-19T12:13:40.014Z</time>
      </trkpt>
      <trkpt lat="43.052705" lon="-7.17786">
        <ele>782.0</ele>
        <time>2022-06-19T12:13:41.021Z</time>
      </trkpt>
      <trkpt lat="43.052705" lon="-7.17786">
        <ele>782.0</ele>
        <time>2022-06-19T12:13:42.027Z</time>
      </trkpt>
      <trkpt lat="43.052705" lon="-7.17786">
        <ele>782.0</ele>
        <time>2022-06-19T12:13:49.018Z</time>
      </trkpt>
      <trkpt lat="43.052705" lon="-7.17786">
        <ele>782.0</ele>
        <time>2022-06-19T12:13:50.040Z</time>
      </trkpt>
      <trkpt lat="43.05262833" lon="-7.17786833">
        <ele>784.0</ele>
        <time>2022-06-19T12:13:51.041Z</time>
      </trkpt>
      <trkpt lat="43.05262333" lon="-7.17786833">
        <ele>784.0</ele>
        <time>2022-06-19T12:13:52.032Z</time>
      </trkpt>
      <trkpt lat="43.05262333" lon="-7.17786833">
        <ele>784.0</ele>
        <time>2022-06-19T12:13:53.015Z</time>
      </trkpt>
      <trkpt lat="43.05262333" lon="-7.17787167">
        <ele>784.0</ele>
        <time>2022-06-19T12:13:54.019Z</time>
      </trkpt>
      <trkpt lat="43.05262333" lon="-7.17787167">
        <ele>784.0</ele>
        <time>2022-06-19T12:14:02.562Z</time>
      </trkpt>
      <trkpt lat="43.05255" lon="-7.177875">
        <ele>786.0</ele>
        <time>2022-06-19T12:14:03.565Z</time>
      </trkpt>
      <trkpt lat="43.05255" lon="-7.177875">
        <ele>786.0</ele>
        <time>2022-06-19T12:14:04.559Z</time>
      </trkpt>
      <trkpt lat="43.052535" lon="-7.17788333">
        <ele>786.0</ele>
        <time>2022-06-19T12:14:05.545Z</time>
      </trkpt>
      <trkpt lat="43.052535" lon="-7.17788333">
        <ele>786.0</ele>
        <time>2022-06-19T12:14:06.571Z</time>
      </trkpt>
      <trkpt lat="43.05252667" lon="-7.17788667">
        <ele>786.0</ele>
        <time>2022-06-19T12:14:07.552Z</time>
      </trkpt>
      <trkpt lat="43.05252667" lon="-7.17788667">
        <ele>786.0</ele>
        <time>2022-06-19T12:14:08.566Z</time>
      </trkpt>
      <trkpt lat="43.052515" lon="-7.177895">
        <ele>786.0</ele>
        <time>2022-06-19T12:14:09.568Z</time>
      </trkpt>
      <trkpt lat="43.052515" lon="-7.177895">
        <ele>786.0</ele>
        <time>2022-06-19T12:14:10.577Z</time>
      </trkpt>
      <trkpt lat="43.05250167" lon="-7.17789833">
        <ele>786.0</ele>
        <time>2022-06-19T12:14:11.545Z</time>
      </trkpt>
      <trkpt lat="43.05250167" lon="-7.17789833">
        <ele>786.0</ele>
        <time>2022-06-19T12:14:12.566Z</time>
      </trkpt>
      <trkpt lat="43.05249167" lon="-7.17790667">
        <ele>786.0</ele>
        <time>2022-06-19T12:14:13.547Z</time>
      </trkpt>
      <trkpt lat="43.05248333" lon="-7.17791167">
        <ele>786.0</ele>
        <time>2022-06-19T12:14:14.543Z</time>
      </trkpt>
      <trkpt lat="43.05248333" lon="-7.17791167">
        <ele>786.0</ele>
        <time>2022-06-19T12:14:15.547Z</time>
      </trkpt>
      <trkpt lat="43.05247" lon="-7.17791833">
        <ele>787.0</ele>
        <time>2022-06-19T12:14:16.540Z</time>
      </trkpt>
      <trkpt lat="43.05247" lon="-7.17791833">
        <ele>787.0</ele>
        <time>2022-06-19T12:14:17.547Z</time>
      </trkpt>
      <trkpt lat="43.052455" lon="-7.177925">
        <ele>787.0</ele>
        <time>2022-06-19T12:14:18.567Z</time>
      </trkpt>
      <trkpt lat="43.05244833" lon="-7.17791833">
        <ele>787.0</ele>
        <time>2022-06-19T12:14:19.552Z</time>
      </trkpt>
      <trkpt lat="43.05244833" lon="-7.17791833">
        <ele>787.0</ele>
        <time>2022-06-19T12:14:20.542Z</time>
      </trkpt>
      <trkpt lat="43.05243333" lon="-7.17791667">
        <ele>787.0</ele>
        <time>2022-06-19T12:14:21.546Z</time>
      </trkpt>
      <trkpt lat="43.05242833" lon="-7.17792">
        <ele>788.0</ele>
        <time>2022-06-19T12:14:22.543Z</time>
      </trkpt>
      <trkpt lat="43.05242833" lon="-7.17792">
        <ele>788.0</ele>
        <time>2022-06-19T12:14:23.577Z</time>
      </trkpt>
      <trkpt lat="43.05241667" lon="-7.17792667">
        <ele>788.0</ele>
        <time>2022-06-19T12:14:24.540Z</time>
      </trkpt>
      <trkpt lat="43.05241667" lon="-7.17792667">
        <ele>788.0</ele>
        <time>2022-06-19T12:14:25.555Z</time>
      </trkpt>
      <trkpt lat="43.05239833" lon="-7.17793833">
        <ele>788.0</ele>
        <time>2022-06-19T12:14:26.552Z</time>
      </trkpt>
      <trkpt lat="43.05239833" lon="-7.17793833">
        <ele>788.0</ele>
        <time>2022-06-19T12:14:27.570Z</time>
      </trkpt>
      <trkpt lat="43.05238667" lon="-7.17794333">
        <ele>788.0</ele>
        <time>2022-06-19T12:14:28.560Z</time>
      </trkpt>
      <trkpt lat="43.05237667" lon="-7.17795">
        <ele>789.0</ele>
        <time>2022-06-19T12:14:29.554Z</time>
      </trkpt>
      <trkpt lat="43.05236833" lon="-7.17795167">
        <ele>789.0</ele>
        <time>2022-06-19T12:14:30.543Z</time>
      </trkpt>
      <trkpt lat="43.05236833" lon="-7.17795167">
        <ele>789.0</ele>
        <time>2022-06-19T12:14:31.579Z</time>
      </trkpt>
      <trkpt lat="43.05235833" lon="-7.17796">
        <ele>789.0</ele>
        <time>2022-06-19T12:14:32.578Z</time>
      </trkpt>
      <trkpt lat="43.05235833" lon="-7.17796">
        <ele>789.0</ele>
        <time>2022-06-19T12:14:33.557Z</time>
      </trkpt>
      <trkpt lat="43.052345" lon="-7.177965">
        <ele>789.0</ele>
        <time>2022-06-19T12:14:34.549Z</time>
      </trkpt>
      <trkpt lat="43.052345" lon="-7.177965">
        <ele>789.0</ele>
        <time>2022-06-19T12:14:35.541Z</time>
      </trkpt>
      <trkpt lat="43.052335" lon="-7.17797">
        <ele>789.0</ele>
        <time>2022-06-19T12:14:36.567Z</time>
      </trkpt>
      <trkpt lat="43.052335" lon="-7.17797">
        <ele>789.0</ele>
        <time>2022-06-19T12:14:37.551Z</time>
      </trkpt>
      <trkpt lat="43.052325" lon="-7.17797333">
        <ele>790.0</ele>
        <time>2022-06-19T12:14:38.543Z</time>
      </trkpt>
      <trkpt lat="43.05232333" lon="-7.17798">
        <ele>790.0</ele>
        <time>2022-06-19T12:14:39.560Z</time>
      </trkpt>
      <trkpt lat="43.05231833" lon="-7.17798667">
        <ele>790.0</ele>
        <time>2022-06-19T12:14:40.580Z</time>
      </trkpt>
      <trkpt lat="43.05231833" lon="-7.17798667">
        <ele>790.0</ele>
        <time>2022-06-19T12:14:41.572Z</time>
      </trkpt>
      <trkpt lat="43.05231167" lon="-7.17799">
        <ele>790.0</ele>
        <time>2022-06-19T12:14:42.568Z</time>
      </trkpt>
      <trkpt lat="43.05231167" lon="-7.17799">
        <ele>790.0</ele>
        <time>2022-06-19T12:14:43.543Z</time>
      </trkpt>
      <trkpt lat="43.05231167" lon="-7.17800333">
        <ele>791.0</ele>
        <time>2022-06-19T12:14:44.544Z</time>
      </trkpt>
      <trkpt lat="43.05231167" lon="-7.17800333">
        <ele>791.0</ele>
        <time>2022-06-19T12:14:45.577Z</time>
      </trkpt>
      <trkpt lat="43.052305" lon="-7.17800333">
        <ele>791.0</ele>
        <time>2022-06-19T12:14:46.564Z</time>
      </trkpt>
      <trkpt lat="43.052305" lon="-7.17800333">
        <ele>791.0</ele>
        <time>2022-06-19T12:14:47.540Z</time>
      </trkpt>
      <trkpt lat="43.052305" lon="-7.17800333">
        <ele>791.0</ele>
        <time>2022-06-19T12:14:48.546Z</time>
      </trkpt>
      <trkpt lat="43.052305" lon="-7.17800333">
        <ele>791.0</ele>
        <time>2022-06-19T12:14:49.555Z</time>
      </trkpt>
      <trkpt lat="43.052305" lon="-7.17800333">
        <ele>791.0</ele>
        <time>2022-06-19T12:15:07.081Z</time>
      </trkpt>
      <trkpt lat="43.05223833" lon="-7.17810333">
        <ele>793.0</ele>
        <time>2022-06-19T12:15:08.074Z</time>
      </trkpt>
      <trkpt lat="43.05223833" lon="-7.17810333">
        <ele>793.0</ele>
        <time>2022-06-19T12:15:09.080Z</time>
      </trkpt>
      <trkpt lat="43.052225" lon="-7.17811833">
        <ele>793.0</ele>
        <time>2022-06-19T12:15:10.078Z</time>
      </trkpt>
      <trkpt lat="43.052225" lon="-7.17811833">
        <ele>793.0</ele>
        <time>2022-06-19T12:15:11.079Z</time>
      </trkpt>
      <trkpt lat="43.05221333" lon="-7.17813667">
        <ele>793.0</ele>
        <time>2022-06-19T12:15:12.070Z</time>
      </trkpt>
      <trkpt lat="43.0522" lon="-7.17814833">
        <ele>793.0</ele>
        <time>2022-06-19T12:15:13.081Z</time>
      </trkpt>
      <trkpt lat="43.0522" lon="-7.17814833">
        <ele>793.0</ele>
        <time>2022-06-19T12:15:14.087Z</time>
      </trkpt>
      <trkpt lat="43.0522" lon="-7.17814833">
        <ele>793.0</ele>
        <time>2022-06-19T12:15:15.068Z</time>
      </trkpt>
      <trkpt lat="43.05219" lon="-7.17816">
        <ele>793.0</ele>
        <time>2022-06-19T12:15:16.077Z</time>
      </trkpt>
      <trkpt lat="43.05218167" lon="-7.17816667">
        <ele>794.0</ele>
        <time>2022-06-19T12:15:17.088Z</time>
      </trkpt>
      <trkpt lat="43.05218167" lon="-7.17816667">
        <ele>794.0</ele>
        <time>2022-06-19T12:15:18.089Z</time>
      </trkpt>
      <trkpt lat="43.05217167" lon="-7.17817167">
        <ele>794.0</ele>
        <time>2022-06-19T12:15:19.096Z</time>
      </trkpt>
      <trkpt lat="43.05217167" lon="-7.17817167">
        <ele>794.0</ele>
        <time>2022-06-19T12:15:20.085Z</time>
      </trkpt>
      <trkpt lat="43.05216333" lon="-7.17817833">
        <ele>794.0</ele>
        <time>2022-06-19T12:15:21.092Z</time>
      </trkpt>
      <trkpt lat="43.05216333" lon="-7.17817833">
        <ele>794.0</ele>
        <time>2022-06-19T12:15:22.073Z</time>
      </trkpt>
      <trkpt lat="43.052155" lon="-7.17819667">
        <ele>794.0</ele>
        <time>2022-06-19T12:15:23.079Z</time>
      </trkpt>
      <trkpt lat="43.052155" lon="-7.17819667">
        <ele>794.0</ele>
        <time>2022-06-19T12:15:24.078Z</time>
      </trkpt>
      <trkpt lat="43.05215167" lon="-7.17821833">
        <ele>794.0</ele>
        <time>2022-06-19T12:15:25.111Z</time>
      </trkpt>
      <trkpt lat="43.05215167" lon="-7.17821833">
        <ele>794.0</ele>
        <time>2022-06-19T12:15:26.078Z</time>
      </trkpt>
      <trkpt lat="43.05214333" lon="-7.17823167">
        <ele>795.0</ele>
        <time>2022-06-19T12:15:27.096Z</time>
      </trkpt>
      <trkpt lat="43.05214333" lon="-7.17823167">
        <ele>795.0</ele>
        <time>2022-06-19T12:15:28.081Z</time>
      </trkpt>
      <trkpt lat="43.05213333" lon="-7.17823833">
        <ele>795.0</ele>
        <time>2022-06-19T12:15:29.071Z</time>
      </trkpt>
      <trkpt lat="43.05211667" lon="-7.17825333">
        <ele>795.0</ele>
        <time>2022-06-19T12:15:30.080Z</time>
      </trkpt>
      <trkpt lat="43.05211667" lon="-7.17825333">
        <ele>795.0</ele>
        <time>2022-06-19T12:15:31.058Z</time>
      </trkpt>
      <trkpt lat="43.05211167" lon="-7.17826">
        <ele>795.0</ele>
        <time>2022-06-19T12:15:32.090Z</time>
      </trkpt>
      <trkpt lat="43.05211167" lon="-7.17826">
        <ele>795.0</ele>
        <time>2022-06-19T12:15:33.057Z</time>
      </trkpt>
      <trkpt lat="43.052095" lon="-7.17827">
        <ele>795.0</ele>
        <time>2022-06-19T12:15:34.082Z</time>
      </trkpt>
      <trkpt lat="43.05208" lon="-7.17827333">
        <ele>796.0</ele>
        <time>2022-06-19T12:15:35.097Z</time>
      </trkpt>
      <trkpt lat="43.05208" lon="-7.17827333">
        <ele>796.0</ele>
        <time>2022-06-19T12:15:36.062Z</time>
      </trkpt>
      <trkpt lat="43.05208" lon="-7.17827333">
        <ele>796.0</ele>
        <time>2022-06-19T12:15:37.076Z</time>
      </trkpt>
      <trkpt lat="43.05206833" lon="-7.17828">
        <ele>796.0</ele>
        <time>2022-06-19T12:15:38.074Z</time>
      </trkpt>
      <trkpt lat="43.05205333" lon="-7.17828667">
        <ele>796.0</ele>
        <time>2022-06-19T12:15:39.087Z</time>
      </trkpt>
      <trkpt lat="43.05205333" lon="-7.17828667">
        <ele>796.0</ele>
        <time>2022-06-19T12:15:40.082Z</time>
      </trkpt>
      <trkpt lat="43.05204167" lon="-7.17829667">
        <ele>796.0</ele>
        <time>2022-06-19T12:15:41.088Z</time>
      </trkpt>
      <trkpt lat="43.05204167" lon="-7.17829667">
        <ele>796.0</ele>
        <time>2022-06-19T12:15:42.075Z</time>
      </trkpt>
      <trkpt lat="43.05204167" lon="-7.17829667">
        <ele>796.0</ele>
        <time>2022-06-19T12:15:43.083Z</time>
      </trkpt>
      <trkpt lat="43.05203333" lon="-7.178305">
        <ele>797.0</ele>
        <time>2022-06-19T12:15:44.059Z</time>
      </trkpt>
      <trkpt lat="43.05203333" lon="-7.178305">
        <ele>797.0</ele>
        <time>2022-06-19T12:15:45.075Z</time>
      </trkpt>
      <trkpt lat="43.05202167" lon="-7.178315">
        <ele>797.0</ele>
        <time>2022-06-19T12:15:46.079Z</time>
      </trkpt>
      <trkpt lat="43.05201167" lon="-7.178325">
        <ele>797.0</ele>
        <time>2022-06-19T12:15:47.088Z</time>
      </trkpt>
      <trkpt lat="43.05201167" lon="-7.178325">
        <ele>797.0</ele>
        <time>2022-06-19T12:15:48.072Z</time>
      </trkpt>
      <trkpt lat="43.052005" lon="-7.17832833">
        <ele>798.0</ele>
        <time>2022-06-19T12:15:49.060Z</time>
      </trkpt>
      <trkpt lat="43.052" lon="-7.17833">
        <ele>798.0</ele>
        <time>2022-06-19T12:15:50.069Z</time>
      </trkpt>
      <trkpt lat="43.052" lon="-7.17833">
        <ele>798.0</ele>
        <time>2022-06-19T12:15:51.081Z</time>
      </trkpt>
      <trkpt lat="43.05198" lon="-7.17833667">
        <ele>798.0</ele>
        <time>2022-06-19T12:15:52.069Z</time>
      </trkpt>
      <trkpt lat="43.05198" lon="-7.17833667">
        <ele>798.0</ele>
        <time>2022-06-19T12:15:53.079Z</time>
      </trkpt>
      <trkpt lat="43.05196333" lon="-7.17834167">
        <ele>798.0</ele>
        <time>2022-06-19T12:15:54.090Z</time>
      </trkpt>
      <trkpt lat="43.05195" lon="-7.17834667">
        <ele>799.0</ele>
        <time>2022-06-19T12:15:55.098Z</time>
      </trkpt>
      <trkpt lat="43.05195" lon="-7.17834667">
        <ele>799.0</ele>
        <time>2022-06-19T12:15:56.081Z</time>
      </trkpt>
      <trkpt lat="43.05193667" lon="-7.17835333">
        <ele>799.0</ele>
        <time>2022-06-19T12:15:57.086Z</time>
      </trkpt>
      <trkpt lat="43.05193667" lon="-7.17835333">
        <ele>799.0</ele>
        <time>2022-06-19T12:15:58.079Z</time>
      </trkpt>
      <trkpt lat="43.05192667" lon="-7.17835833">
        <ele>799.0</ele>
        <time>2022-06-19T12:15:59.259Z</time>
      </trkpt>
      <trkpt lat="43.05192" lon="-7.17836167">
        <ele>800.0</ele>
        <time>2022-06-19T12:16:00.093Z</time>
      </trkpt>
      <trkpt lat="43.05191167" lon="-7.178365">
        <ele>800.0</ele>
        <time>2022-06-19T12:16:01.094Z</time>
      </trkpt>
      <trkpt lat="43.05190167" lon="-7.17836667">
        <ele>800.0</ele>
        <time>2022-06-19T12:16:02.102Z</time>
      </trkpt>
      <trkpt lat="43.05190167" lon="-7.17836667">
        <ele>800.0</ele>
        <time>2022-06-19T12:16:03.095Z</time>
      </trkpt>
      <trkpt lat="43.05190167" lon="-7.17836667">
        <ele>800.0</ele>
        <time>2022-06-19T12:16:04.071Z</time>
      </trkpt>
      <trkpt lat="43.05188833" lon="-7.17837667">
        <ele>801.0</ele>
        <time>2022-06-19T12:16:05.089Z</time>
      </trkpt>
      <trkpt lat="43.05188833" lon="-7.17837667">
        <ele>801.0</ele>
        <time>2022-06-19T12:16:06.084Z</time>
      </trkpt>
      <trkpt lat="43.05189167" lon="-7.17837833">
        <ele>801.0</ele>
        <time>2022-06-19T12:16:07.091Z</time>
      </trkpt>
      <trkpt lat="43.05189167" lon="-7.17837833">
        <ele>801.0</ele>
        <time>2022-06-19T12:16:08.075Z</time>
      </trkpt>
      <trkpt lat="43.05189" lon="-7.17837667">
        <ele>801.0</ele>
        <time>2022-06-19T12:16:09.080Z</time>
      </trkpt>
      <trkpt lat="43.05189" lon="-7.17837667">
        <ele>801.0</ele>
        <time>2022-06-19T12:16:10.087Z</time>
      </trkpt>
      <trkpt lat="43.05189" lon="-7.17837667">
        <ele>801.0</ele>
        <time>2022-06-19T12:16:11.069Z</time>
      </trkpt>
      <trkpt lat="43.05189" lon="-7.17837667">
        <ele>801.0</ele>
        <time>2022-06-19T12:16:21.079Z</time>
      </trkpt>
      <trkpt lat="43.051875" lon="-7.17844667">
        <ele>803.0</ele>
        <time>2022-06-19T12:16:22.080Z</time>
      </trkpt>
      <trkpt lat="43.051875" lon="-7.17844667">
        <ele>803.0</ele>
        <time>2022-06-19T12:16:23.079Z</time>
      </trkpt>
      <trkpt lat="43.051845" lon="-7.17849333">
        <ele>803.0</ele>
        <time>2022-06-19T12:16:24.077Z</time>
      </trkpt>
      <trkpt lat="43.051845" lon="-7.17849333">
        <ele>803.0</ele>
        <time>2022-06-19T12:16:25.080Z</time>
      </trkpt>
      <trkpt lat="43.051805" lon="-7.17852167">
        <ele>803.0</ele>
        <time>2022-06-19T12:16:26.072Z</time>
      </trkpt>
      <trkpt lat="43.051805" lon="-7.17852167">
        <ele>803.0</ele>
        <time>2022-06-19T12:16:27.080Z</time>
      </trkpt>
      <trkpt lat="43.05178" lon="-7.17854167">
        <ele>804.0</ele>
        <time>2022-06-19T12:16:28.096Z</time>
      </trkpt>
      <trkpt lat="43.05178" lon="-7.17854167">
        <ele>804.0</ele>
        <time>2022-06-19T12:16:29.061Z</time>
      </trkpt>
      <trkpt lat="43.051745" lon="-7.17854833">
        <ele>805.0</ele>
        <time>2022-06-19T12:16:30.064Z</time>
      </trkpt>
      <trkpt lat="43.051745" lon="-7.17854833">
        <ele>805.0</ele>
        <time>2022-06-19T12:16:31.076Z</time>
      </trkpt>
      <trkpt lat="43.05169833" lon="-7.17854833">
        <ele>806.0</ele>
        <time>2022-06-19T12:16:32.087Z</time>
      </trkpt>
      <trkpt lat="43.05166" lon="-7.17855167">
        <ele>806.0</ele>
        <time>2022-06-19T12:16:33.096Z</time>
      </trkpt>
      <trkpt lat="43.05166" lon="-7.17855167">
        <ele>806.0</ele>
        <time>2022-06-19T12:16:34.083Z</time>
      </trkpt>
      <trkpt lat="43.05164167" lon="-7.17856">
        <ele>807.0</ele>
        <time>2022-06-19T12:16:35.070Z</time>
      </trkpt>
      <trkpt lat="43.05164167" lon="-7.17856">
        <ele>807.0</ele>
        <time>2022-06-19T12:16:36.078Z</time>
      </trkpt>
      <trkpt lat="43.05157167" lon="-7.17857833">
        <ele>807.0</ele>
        <time>2022-06-19T12:16:37.090Z</time>
      </trkpt>
      <trkpt lat="43.05157167" lon="-7.17857833">
        <ele>807.0</ele>
        <time>2022-06-19T12:16:38.081Z</time>
      </trkpt>
      <trkpt lat="43.05152167" lon="-7.178595">
        <ele>808.0</ele>
        <time>2022-06-19T12:16:39.089Z</time>
      </trkpt>
      <trkpt lat="43.05149833" lon="-7.17860667">
        <ele>808.0</ele>
        <time>2022-06-19T12:16:40.091Z</time>
      </trkpt>
      <trkpt lat="43.05149833" lon="-7.17860667">
        <ele>808.0</ele>
        <time>2022-06-19T12:16:41.075Z</time>
      </trkpt>
      <trkpt lat="43.05149833" lon="-7.17860667">
        <ele>808.0</ele>
        <time>2022-06-19T12:16:42.088Z</time>
      </trkpt>
      <trkpt lat="43.05145" lon="-7.17863167">
        <ele>808.0</ele>
        <time>2022-06-19T12:16:43.083Z</time>
      </trkpt>
      <trkpt lat="43.051425" lon="-7.178645">
        <ele>808.0</ele>
        <time>2022-06-19T12:16:44.086Z</time>
      </trkpt>
      <trkpt lat="43.05137167" lon="-7.17867167">
        <ele>808.0</ele>
        <time>2022-06-19T12:16:45.101Z</time>
      </trkpt>
      <trkpt lat="43.05137167" lon="-7.17867167">
        <ele>808.0</ele>
        <time>2022-06-19T12:16:46.094Z</time>
      </trkpt>
      <trkpt lat="43.05137167" lon="-7.17867167">
        <ele>808.0</ele>
        <time>2022-06-19T12:16:47.059Z</time>
      </trkpt>
      <trkpt lat="43.05131833" lon="-7.178705">
        <ele>809.0</ele>
        <time>2022-06-19T12:16:48.084Z</time>
      </trkpt>
      <trkpt lat="43.05126667" lon="-7.17875167">
        <ele>809.0</ele>
        <time>2022-06-19T12:16:49.095Z</time>
      </trkpt>
      <trkpt lat="43.05126667" lon="-7.17875167">
        <ele>809.0</ele>
        <time>2022-06-19T12:16:50.067Z</time>
      </trkpt>
      <trkpt lat="43.05122" lon="-7.178805">
        <ele>809.0</ele>
        <time>2022-06-19T12:16:51.090Z</time>
      </trkpt>
      <trkpt lat="43.05122" lon="-7.178805">
        <ele>809.0</ele>
        <time>2022-06-19T12:16:52.070Z</time>
      </trkpt>
      <trkpt lat="43.05122" lon="-7.178805">
        <ele>809.0</ele>
        <time>2022-06-19T12:16:53.077Z</time>
      </trkpt>
      <trkpt lat="43.05117833" lon="-7.17886">
        <ele>809.0</ele>
        <time>2022-06-19T12:16:54.076Z</time>
      </trkpt>
      <trkpt lat="43.05113833" lon="-7.17891333">
        <ele>809.0</ele>
        <time>2022-06-19T12:16:55.103Z</time>
      </trkpt>
      <trkpt lat="43.05113833" lon="-7.17891333">
        <ele>809.0</ele>
        <time>2022-06-19T12:16:56.090Z</time>
      </trkpt>
      <trkpt lat="43.05110167" lon="-7.17897333">
        <ele>809.0</ele>
        <time>2022-06-19T12:16:57.096Z</time>
      </trkpt>
      <trkpt lat="43.05110167" lon="-7.17897333">
        <ele>809.0</ele>
        <time>2022-06-19T12:16:58.067Z</time>
      </trkpt>
      <trkpt lat="43.05107333" lon="-7.17904167">
        <ele>809.0</ele>
        <time>2022-06-19T12:16:59.091Z</time>
      </trkpt>
      <trkpt lat="43.05107333" lon="-7.17904167">
        <ele>809.0</ele>
        <time>2022-06-19T12:17:00.097Z</time>
      </trkpt>
      <trkpt lat="43.05107333" lon="-7.17904167">
        <ele>809.0</ele>
        <time>2022-06-19T12:17:01.069Z</time>
      </trkpt>
      <trkpt lat="43.051045" lon="-7.17911">
        <ele>809.0</ele>
        <time>2022-06-19T12:17:02.091Z</time>
      </trkpt>
      <trkpt lat="43.05102333" lon="-7.179185">
        <ele>810.0</ele>
        <time>2022-06-19T12:17:03.099Z</time>
      </trkpt>
      <trkpt lat="43.05101667" lon="-7.17922667">
        <ele>810.0</ele>
        <time>2022-06-19T12:17:04.097Z</time>
      </trkpt>
      <trkpt lat="43.05101667" lon="-7.17922667">
        <ele>810.0</ele>
        <time>2022-06-19T12:17:05.091Z</time>
      </trkpt>
      <trkpt lat="43.05101667" lon="-7.17922667">
        <ele>810.0</ele>
        <time>2022-06-19T12:17:06.098Z</time>
      </trkpt>
      <trkpt lat="43.051" lon="-7.179295">
        <ele>811.0</ele>
        <time>2022-06-19T12:17:07.096Z</time>
      </trkpt>
      <trkpt lat="43.05099833" lon="-7.17938">
        <ele>812.0</ele>
        <time>2022-06-19T12:17:08.098Z</time>
      </trkpt>
      <trkpt lat="43.05099833" lon="-7.17938">
        <ele>812.0</ele>
        <time>2022-06-19T12:17:09.062Z</time>
      </trkpt>
      <trkpt lat="43.051" lon="-7.17942833">
        <ele>812.0</ele>
        <time>2022-06-19T12:17:10.096Z</time>
      </trkpt>
      <trkpt lat="43.051" lon="-7.17942833">
        <ele>812.0</ele>
        <time>2022-06-19T12:17:11.070Z</time>
      </trkpt>
      <trkpt lat="43.05100833" lon="-7.17953">
        <ele>812.0</ele>
        <time>2022-06-19T12:17:12.072Z</time>
      </trkpt>
      <trkpt lat="43.05101333" lon="-7.17958667">
        <ele>812.0</ele>
        <time>2022-06-19T12:17:13.089Z</time>
      </trkpt>
      <trkpt lat="43.05102667" lon="-7.17970333">
        <ele>811.0</ele>
        <time>2022-06-19T12:17:14.096Z</time>
      </trkpt>
      <trkpt lat="43.05102667" lon="-7.17970333">
        <ele>811.0</ele>
        <time>2022-06-19T12:17:15.065Z</time>
      </trkpt>
      <trkpt lat="43.05102667" lon="-7.17970333">
        <ele>811.0</ele>
        <time>2022-06-19T12:17:16.075Z</time>
      </trkpt>
      <trkpt lat="43.05103667" lon="-7.17981333">
        <ele>811.0</ele>
        <time>2022-06-19T12:17:17.066Z</time>
      </trkpt>
      <trkpt lat="43.05104333" lon="-7.17986833">
        <ele>810.0</ele>
        <time>2022-06-19T12:17:18.092Z</time>
      </trkpt>
      <trkpt lat="43.05105167" lon="-7.17996667">
        <ele>810.0</ele>
        <time>2022-06-19T12:17:19.100Z</time>
      </trkpt>
      <trkpt lat="43.05105167" lon="-7.17996667">
        <ele>810.0</ele>
        <time>2022-06-19T12:17:20.085Z</time>
      </trkpt>
      <trkpt lat="43.05103667" lon="-7.18004667">
        <ele>809.0</ele>
        <time>2022-06-19T12:17:21.090Z</time>
      </trkpt>
      <trkpt lat="43.05103667" lon="-7.18004667">
        <ele>809.0</ele>
        <time>2022-06-19T12:17:22.091Z</time>
      </trkpt>
      <trkpt lat="43.05099833" lon="-7.18006333">
        <ele>809.0</ele>
        <time>2022-06-19T12:17:23.098Z</time>
      </trkpt>
      <trkpt lat="43.05099833" lon="-7.18006333">
        <ele>809.0</ele>
        <time>2022-06-19T12:17:24.068Z</time>
      </trkpt>
      <trkpt lat="43.05099833" lon="-7.18006333">
        <ele>809.0</ele>
        <time>2022-06-19T12:17:25.077Z</time>
      </trkpt>
      <trkpt lat="43.050975" lon="-7.18003">
        <ele>809.0</ele>
        <time>2022-06-19T12:17:26.071Z</time>
      </trkpt>
      <trkpt lat="43.050955" lon="-7.179995">
        <ele>808.0</ele>
        <time>2022-06-19T12:17:27.081Z</time>
      </trkpt>
      <trkpt lat="43.050955" lon="-7.179995">
        <ele>808.0</ele>
        <time>2022-06-19T12:17:28.063Z</time>
      </trkpt>
      <trkpt lat="43.05094833" lon="-7.17998667">
        <ele>808.0</ele>
        <time>2022-06-19T12:17:29.071Z</time>
      </trkpt>
      <trkpt lat="43.05094833" lon="-7.17998667">
        <ele>808.0</ele>
        <time>2022-06-19T12:17:30.078Z</time>
      </trkpt>
      <trkpt lat="43.05093833" lon="-7.17999333">
        <ele>808.0</ele>
        <time>2022-06-19T12:17:31.094Z</time>
      </trkpt>
      <trkpt lat="43.05093833" lon="-7.17999333">
        <ele>808.0</ele>
        <time>2022-06-19T12:17:32.077Z</time>
      </trkpt>
      <trkpt lat="43.05092167" lon="-7.180015">
        <ele>807.0</ele>
        <time>2022-06-19T12:17:43.575Z</time>
      </trkpt>
      <trkpt lat="43.05092167" lon="-7.180015">
        <ele>807.0</ele>
        <time>2022-06-19T12:17:44.597Z</time>
      </trkpt>
      <trkpt lat="43.05092" lon="-7.18002333">
        <ele>807.0</ele>
        <time>2022-06-19T12:17:45.601Z</time>
      </trkpt>
      <trkpt lat="43.05092" lon="-7.18002333">
        <ele>807.0</ele>
        <time>2022-06-19T12:17:46.568Z</time>
      </trkpt>
      <trkpt lat="43.05092" lon="-7.18003167">
        <ele>807.0</ele>
        <time>2022-06-19T13:01:19.463Z</time>
      </trkpt>
      <trkpt lat="43.05092" lon="-7.18003167">
        <ele>807.0</ele>
        <time>2022-06-19T13:01:20.500Z</time>
      </trkpt>
      <trkpt lat="43.05098667" lon="-7.18004333">
        <ele>809.0</ele>
        <time>2022-06-19T13:01:21.470Z</time>
      </trkpt>
      <trkpt lat="43.05098667" lon="-7.18004333">
        <ele>809.0</ele>
        <time>2022-06-19T13:01:22.476Z</time>
      </trkpt>
      <trkpt lat="43.05100167" lon="-7.18006167">
        <ele>810.0</ele>
        <time>2022-06-19T13:01:23.489Z</time>
      </trkpt>
      <trkpt lat="43.05100167" lon="-7.18006167">
        <ele>810.0</ele>
        <time>2022-06-19T13:01:24.493Z</time>
      </trkpt>
      <trkpt lat="43.05101833" lon="-7.180075">
        <ele>810.0</ele>
        <time>2022-06-19T13:01:25.478Z</time>
      </trkpt>
      <trkpt lat="43.05101833" lon="-7.180075">
        <ele>810.0</ele>
        <time>2022-06-19T13:01:26.491Z</time>
      </trkpt>
      <trkpt lat="43.05103167" lon="-7.18008667">
        <ele>811.0</ele>
        <time>2022-06-19T13:01:27.484Z</time>
      </trkpt>
      <trkpt lat="43.051035" lon="-7.18008833">
        <ele>811.0</ele>
        <time>2022-06-19T13:01:28.505Z</time>
      </trkpt>
      <trkpt lat="43.051035" lon="-7.18008833">
        <ele>811.0</ele>
        <time>2022-06-19T13:01:29.471Z</time>
      </trkpt>
      <trkpt lat="43.05103333" lon="-7.18008833">
        <ele>811.0</ele>
        <time>2022-06-19T13:01:30.502Z</time>
      </trkpt>
      <trkpt lat="43.05103333" lon="-7.18008833">
        <ele>811.0</ele>
        <time>2022-06-19T13:01:34.463Z</time>
      </trkpt>
      <trkpt lat="43.05103333" lon="-7.18008833">
        <ele>811.0</ele>
        <time>2022-06-19T13:01:35.462Z</time>
      </trkpt>
      <trkpt lat="43.05105667" lon="-7.18017167">
        <ele>812.0</ele>
        <time>2022-06-19T13:01:36.463Z</time>
      </trkpt>
      <trkpt lat="43.051065" lon="-7.18020667">
        <ele>812.0</ele>
        <time>2022-06-19T13:01:37.464Z</time>
      </trkpt>
      <trkpt lat="43.051065" lon="-7.18020667">
        <ele>812.0</ele>
        <time>2022-06-19T13:01:38.468Z</time>
      </trkpt>
      <trkpt lat="43.05108333" lon="-7.18028167">
        <ele>812.0</ele>
        <time>2022-06-19T13:01:39.454Z</time>
      </trkpt>
      <trkpt lat="43.05108333" lon="-7.18028167">
        <ele>812.0</ele>
        <time>2022-06-19T13:01:40.489Z</time>
      </trkpt>
      <trkpt lat="43.05110333" lon="-7.18037833">
        <ele>812.0</ele>
        <time>2022-06-19T13:01:41.466Z</time>
      </trkpt>
      <trkpt lat="43.05110333" lon="-7.18037833">
        <ele>812.0</ele>
        <time>2022-06-19T13:01:42.482Z</time>
      </trkpt>
      <trkpt lat="43.05112667" lon="-7.18048167">
        <ele>811.0</ele>
        <time>2022-06-19T13:01:43.477Z</time>
      </trkpt>
      <trkpt lat="43.05112667" lon="-7.18048167">
        <ele>811.0</ele>
        <time>2022-06-19T13:01:44.481Z</time>
      </trkpt>
      <trkpt lat="43.05114667" lon="-7.18059">
        <ele>811.0</ele>
        <time>2022-06-19T13:01:45.464Z</time>
      </trkpt>
      <trkpt lat="43.05115333" lon="-7.18064667">
        <ele>811.0</ele>
        <time>2022-06-19T13:01:46.477Z</time>
      </trkpt>
      <trkpt lat="43.05115333" lon="-7.18064667">
        <ele>811.0</ele>
        <time>2022-06-19T13:01:47.486Z</time>
      </trkpt>
      <trkpt lat="43.05117333" lon="-7.18076">
        <ele>810.0</ele>
        <time>2022-06-19T13:01:48.464Z</time>
      </trkpt>
      <trkpt lat="43.05118333" lon="-7.18082167">
        <ele>810.0</ele>
        <time>2022-06-19T13:01:49.477Z</time>
      </trkpt>
      <trkpt lat="43.05118333" lon="-7.18082167">
        <ele>810.0</ele>
        <time>2022-06-19T13:01:50.462Z</time>
      </trkpt>
      <trkpt lat="43.051205" lon="-7.18094833">
        <ele>809.0</ele>
        <time>2022-06-19T13:01:51.454Z</time>
      </trkpt>
      <trkpt lat="43.051205" lon="-7.18094833">
        <ele>809.0</ele>
        <time>2022-06-19T13:01:52.460Z</time>
      </trkpt>
      <trkpt lat="43.05123167" lon="-7.181075">
        <ele>809.0</ele>
        <time>2022-06-19T13:01:53.483Z</time>
      </trkpt>
      <trkpt lat="43.05124" lon="-7.18113667">
        <ele>809.0</ele>
        <time>2022-06-19T13:01:54.469Z</time>
      </trkpt>
      <trkpt lat="43.05124667" lon="-7.18119833">
        <ele>808.0</ele>
        <time>2022-06-19T13:01:55.472Z</time>
      </trkpt>
      <trkpt lat="43.05124667" lon="-7.18119833">
        <ele>808.0</ele>
        <time>2022-06-19T13:01:56.450Z</time>
      </trkpt>
      <trkpt lat="43.05127667" lon="-7.18131333">
        <ele>808.0</ele>
        <time>2022-06-19T13:01:57.479Z</time>
      </trkpt>
      <trkpt lat="43.05128833" lon="-7.18137167">
        <ele>808.0</ele>
        <time>2022-06-19T13:01:58.452Z</time>
      </trkpt>
      <trkpt lat="43.05128833" lon="-7.18137167">
        <ele>808.0</ele>
        <time>2022-06-19T13:01:59.473Z</time>
      </trkpt>
      <trkpt lat="43.05131" lon="-7.18149167">
        <ele>809.0</ele>
        <time>2022-06-19T13:02:00.489Z</time>
      </trkpt>
      <trkpt lat="43.05131833" lon="-7.18155">
        <ele>809.0</ele>
        <time>2022-06-19T13:02:01.477Z</time>
      </trkpt>
      <trkpt lat="43.051325" lon="-7.18161">
        <ele>809.0</ele>
        <time>2022-06-19T13:02:02.455Z</time>
      </trkpt>
      <trkpt lat="43.051325" lon="-7.18161">
        <ele>809.0</ele>
        <time>2022-06-19T13:02:03.468Z</time>
      </trkpt>
      <trkpt lat="43.05133833" lon="-7.18172833">
        <ele>810.0</ele>
        <time>2022-06-19T13:02:04.485Z</time>
      </trkpt>
      <trkpt lat="43.05134333" lon="-7.18178833">
        <ele>810.0</ele>
        <time>2022-06-19T13:02:05.467Z</time>
      </trkpt>
      <trkpt lat="43.05134333" lon="-7.18178833">
        <ele>810.0</ele>
        <time>2022-06-19T13:02:06.459Z</time>
      </trkpt>
      <trkpt lat="43.05134333" lon="-7.18190667">
        <ele>811.0</ele>
        <time>2022-06-19T13:02:07.486Z</time>
      </trkpt>
      <trkpt lat="43.05134333" lon="-7.18190667">
        <ele>811.0</ele>
        <time>2022-06-19T13:02:08.469Z</time>
      </trkpt>
      <trkpt lat="43.051325" lon="-7.182025">
        <ele>811.0</ele>
        <time>2022-06-19T13:02:09.453Z</time>
      </trkpt>
      <trkpt lat="43.051315" lon="-7.18207833">
        <ele>810.0</ele>
        <time>2022-06-19T13:02:10.456Z</time>
      </trkpt>
      <trkpt lat="43.051315" lon="-7.18207833">
        <ele>810.0</ele>
        <time>2022-06-19T13:02:11.453Z</time>
      </trkpt>
      <trkpt lat="43.05128" lon="-7.18218333">
        <ele>810.0</ele>
        <time>2022-06-19T13:02:12.471Z</time>
      </trkpt>
      <trkpt lat="43.05125667" lon="-7.18224167">
        <ele>810.0</ele>
        <time>2022-06-19T13:02:13.467Z</time>
      </trkpt>
      <trkpt lat="43.05125667" lon="-7.18224167">
        <ele>810.0</ele>
        <time>2022-06-19T13:02:14.486Z</time>
      </trkpt>
      <trkpt lat="43.051195" lon="-7.18235333">
        <ele>810.0</ele>
        <time>2022-06-19T13:02:15.472Z</time>
      </trkpt>
      <trkpt lat="43.051195" lon="-7.18235333">
        <ele>810.0</ele>
        <time>2022-06-19T13:02:16.464Z</time>
      </trkpt>
      <trkpt lat="43.05111167" lon="-7.18244667">
        <ele>810.0</ele>
        <time>2022-06-19T13:02:17.450Z</time>
      </trkpt>
      <trkpt lat="43.05111167" lon="-7.18244667">
        <ele>810.0</ele>
        <time>2022-06-19T13:02:18.459Z</time>
      </trkpt>
      <trkpt lat="43.05102333" lon="-7.182535">
        <ele>811.0</ele>
        <time>2022-06-19T13:02:19.452Z</time>
      </trkpt>
      <trkpt lat="43.05102333" lon="-7.182535">
        <ele>811.0</ele>
        <time>2022-06-19T13:02:20.479Z</time>
      </trkpt>
      <trkpt lat="43.05093167" lon="-7.18262667">
        <ele>810.0</ele>
        <time>2022-06-19T13:02:21.468Z</time>
      </trkpt>
      <trkpt lat="43.05093167" lon="-7.18262667">
        <ele>810.0</ele>
        <time>2022-06-19T13:02:22.451Z</time>
      </trkpt>
      <trkpt lat="43.05083167" lon="-7.18272333">
        <ele>810.0</ele>
        <time>2022-06-19T13:02:23.467Z</time>
      </trkpt>
      <trkpt lat="43.05083167" lon="-7.18272333">
        <ele>810.0</ele>
        <time>2022-06-19T13:02:24.459Z</time>
      </trkpt>
      <trkpt lat="43.05072167" lon="-7.18282333">
        <ele>810.0</ele>
        <time>2022-06-19T13:02:25.486Z</time>
      </trkpt>
      <trkpt lat="43.05072167" lon="-7.18282333">
        <ele>810.0</ele>
        <time>2022-06-19T13:02:26.456Z</time>
      </trkpt>
      <trkpt lat="43.05060833" lon="-7.18293667">
        <ele>811.0</ele>
        <time>2022-06-19T13:02:27.471Z</time>
      </trkpt>
      <trkpt lat="43.05056667" lon="-7.18300833">
        <ele>811.0</ele>
        <time>2022-06-19T13:02:28.479Z</time>
      </trkpt>
      <trkpt lat="43.05056667" lon="-7.18300833">
        <ele>811.0</ele>
        <time>2022-06-19T13:02:29.451Z</time>
      </trkpt>
      <trkpt lat="43.05049833" lon="-7.18317667">
        <ele>810.0</ele>
        <time>2022-06-19T13:02:30.487Z</time>
      </trkpt>
      <trkpt lat="43.05049833" lon="-7.18317667">
        <ele>810.0</ele>
        <time>2022-06-19T13:02:31.479Z</time>
      </trkpt>
      <trkpt lat="43.05041833" lon="-7.18334833">
        <ele>810.0</ele>
        <time>2022-06-19T13:02:32.457Z</time>
      </trkpt>
      <trkpt lat="43.05041833" lon="-7.18334833">
        <ele>810.0</ele>
        <time>2022-06-19T13:02:33.477Z</time>
      </trkpt>
      <trkpt lat="43.05030333" lon="-7.18350667">
        <ele>810.0</ele>
        <time>2022-06-19T13:02:34.469Z</time>
      </trkpt>
      <trkpt lat="43.05030333" lon="-7.18350667">
        <ele>810.0</ele>
        <time>2022-06-19T13:02:35.471Z</time>
      </trkpt>
      <trkpt lat="43.05018667" lon="-7.18368">
        <ele>810.0</ele>
        <time>2022-06-19T13:02:36.496Z</time>
      </trkpt>
      <trkpt lat="43.050145" lon="-7.18378167">
        <ele>809.0</ele>
        <time>2022-06-19T13:02:37.466Z</time>
      </trkpt>
      <trkpt lat="43.050145" lon="-7.18378167">
        <ele>809.0</ele>
        <time>2022-06-19T13:02:38.450Z</time>
      </trkpt>
      <trkpt lat="43.05009" lon="-7.18399667">
        <ele>808.0</ele>
        <time>2022-06-19T13:02:39.466Z</time>
      </trkpt>
      <trkpt lat="43.05006333" lon="-7.18410167">
        <ele>808.0</ele>
        <time>2022-06-19T13:02:40.477Z</time>
      </trkpt>
      <trkpt lat="43.05006333" lon="-7.18410167">
        <ele>808.0</ele>
        <time>2022-06-19T13:02:41.460Z</time>
      </trkpt>
      <trkpt lat="43.04998833" lon="-7.184305">
        <ele>807.0</ele>
        <time>2022-06-19T13:02:42.478Z</time>
      </trkpt>
      <trkpt lat="43.04994167" lon="-7.18439833">
        <ele>806.0</ele>
        <time>2022-06-19T13:02:43.451Z</time>
      </trkpt>
      <trkpt lat="43.04994167" lon="-7.18439833">
        <ele>806.0</ele>
        <time>2022-06-19T13:02:44.485Z</time>
      </trkpt>
      <trkpt lat="43.04983667" lon="-7.18457">
        <ele>805.0</ele>
        <time>2022-06-19T13:02:45.470Z</time>
      </trkpt>
      <trkpt lat="43.04978667" lon="-7.18465667">
        <ele>805.0</ele>
        <time>2022-06-19T13:02:46.464Z</time>
      </trkpt>
      <trkpt lat="43.04978667" lon="-7.18465667">
        <ele>805.0</ele>
        <time>2022-06-19T13:02:47.478Z</time>
      </trkpt>
      <trkpt lat="43.04970333" lon="-7.18483833">
        <ele>804.0</ele>
        <time>2022-06-19T13:02:48.467Z</time>
      </trkpt>
      <trkpt lat="43.04967333" lon="-7.18493333">
        <ele>804.0</ele>
        <time>2022-06-19T13:02:49.462Z</time>
      </trkpt>
      <trkpt lat="43.04967333" lon="-7.18493333">
        <ele>804.0</ele>
        <time>2022-06-19T13:02:50.478Z</time>
      </trkpt>
      <trkpt lat="43.04962" lon="-7.18511333">
        <ele>805.0</ele>
        <time>2022-06-19T13:02:51.476Z</time>
      </trkpt>
      <trkpt lat="43.04962" lon="-7.18511333">
        <ele>805.0</ele>
        <time>2022-06-19T13:02:52.450Z</time>
      </trkpt>
      <trkpt lat="43.04958333" lon="-7.18527">
        <ele>805.0</ele>
        <time>2022-06-19T13:02:53.492Z</time>
      </trkpt>
      <trkpt lat="43.04958333" lon="-7.18527">
        <ele>805.0</ele>
        <time>2022-06-19T13:02:54.468Z</time>
      </trkpt>
      <trkpt lat="43.04955" lon="-7.18540333">
        <ele>805.0</ele>
        <time>2022-06-19T13:02:55.505Z</time>
      </trkpt>
      <trkpt lat="43.04955" lon="-7.18540333">
        <ele>805.0</ele>
        <time>2022-06-19T13:02:56.487Z</time>
      </trkpt>
      <trkpt lat="43.04952167" lon="-7.18552167">
        <ele>805.0</ele>
        <time>2022-06-19T13:02:57.462Z</time>
      </trkpt>
      <trkpt lat="43.04952167" lon="-7.18552167">
        <ele>805.0</ele>
        <time>2022-06-19T13:02:58.482Z</time>
      </trkpt>
      <trkpt lat="43.04949667" lon="-7.18562833">
        <ele>805.0</ele>
        <time>2022-06-19T13:02:59.464Z</time>
      </trkpt>
      <trkpt lat="43.04949667" lon="-7.18562833">
        <ele>805.0</ele>
        <time>2022-06-19T13:03:00.471Z</time>
      </trkpt>
      <trkpt lat="43.04947167" lon="-7.18573">
        <ele>805.0</ele>
        <time>2022-06-19T13:03:01.487Z</time>
      </trkpt>
      <trkpt lat="43.04947167" lon="-7.18573">
        <ele>805.0</ele>
        <time>2022-06-19T13:03:02.485Z</time>
      </trkpt>
      <trkpt lat="43.04944833" lon="-7.18581833">
        <ele>805.0</ele>
        <time>2022-06-19T13:03:03.467Z</time>
      </trkpt>
      <trkpt lat="43.04944833" lon="-7.18581833">
        <ele>805.0</ele>
        <time>2022-06-19T13:03:04.463Z</time>
      </trkpt>
      <trkpt lat="43.04943" lon="-7.18589667">
        <ele>805.0</ele>
        <time>2022-06-19T13:03:05.474Z</time>
      </trkpt>
      <trkpt lat="43.04943" lon="-7.18589667">
        <ele>805.0</ele>
        <time>2022-06-19T13:03:06.451Z</time>
      </trkpt>
      <trkpt lat="43.04941667" lon="-7.18597333">
        <ele>805.0</ele>
        <time>2022-06-19T13:03:07.471Z</time>
      </trkpt>
      <trkpt lat="43.04941667" lon="-7.18597333">
        <ele>805.0</ele>
        <time>2022-06-19T13:03:08.487Z</time>
      </trkpt>
      <trkpt lat="43.04940833" lon="-7.186045">
        <ele>806.0</ele>
        <time>2022-06-19T13:03:09.465Z</time>
      </trkpt>
      <trkpt lat="43.04940833" lon="-7.186045">
        <ele>806.0</ele>
        <time>2022-06-19T13:03:10.483Z</time>
      </trkpt>
      <trkpt lat="43.04939833" lon="-7.18611">
        <ele>806.0</ele>
        <time>2022-06-19T13:03:11.467Z</time>
      </trkpt>
      <trkpt lat="43.04939833" lon="-7.18611">
        <ele>806.0</ele>
        <time>2022-06-19T13:03:12.467Z</time>
      </trkpt>
      <trkpt lat="43.0494" lon="-7.18617333">
        <ele>806.0</ele>
        <time>2022-06-19T13:03:13.464Z</time>
      </trkpt>
      <trkpt lat="43.0494" lon="-7.18617333">
        <ele>806.0</ele>
        <time>2022-06-19T13:03:14.483Z</time>
      </trkpt>
      <trkpt lat="43.04939667" lon="-7.18623667">
        <ele>806.0</ele>
        <time>2022-06-19T13:03:15.460Z</time>
      </trkpt>
      <trkpt lat="43.04939667" lon="-7.18623667">
        <ele>806.0</ele>
        <time>2022-06-19T13:03:16.482Z</time>
      </trkpt>
      <trkpt lat="43.0494" lon="-7.18629833">
        <ele>806.0</ele>
        <time>2022-06-19T13:03:17.466Z</time>
      </trkpt>
      <trkpt lat="43.04939667" lon="-7.18633167">
        <ele>806.0</ele>
        <time>2022-06-19T13:03:18.483Z</time>
      </trkpt>
      <trkpt lat="43.04939667" lon="-7.18633167">
        <ele>806.0</ele>
        <time>2022-06-19T13:03:19.454Z</time>
      </trkpt>
      <trkpt lat="43.04940167" lon="-7.18640333">
        <ele>806.0</ele>
        <time>2022-06-19T13:03:20.480Z</time>
      </trkpt>
      <trkpt lat="43.04940167" lon="-7.18640333">
        <ele>806.0</ele>
        <time>2022-06-19T13:03:21.453Z</time>
      </trkpt>
      <trkpt lat="43.04940333" lon="-7.18647">
        <ele>806.0</ele>
        <time>2022-06-19T13:03:22.477Z</time>
      </trkpt>
      <trkpt lat="43.049405" lon="-7.18650167">
        <ele>807.0</ele>
        <time>2022-06-19T13:03:23.458Z</time>
      </trkpt>
      <trkpt lat="43.049405" lon="-7.18650167">
        <ele>807.0</ele>
        <time>2022-06-19T13:03:24.464Z</time>
      </trkpt>
      <trkpt lat="43.049405" lon="-7.18656333">
        <ele>807.0</ele>
        <time>2022-06-19T13:03:25.482Z</time>
      </trkpt>
      <trkpt lat="43.049405" lon="-7.18656333">
        <ele>807.0</ele>
        <time>2022-06-19T13:03:26.489Z</time>
      </trkpt>
      <trkpt lat="43.049405" lon="-7.18662667">
        <ele>808.0</ele>
        <time>2022-06-19T13:03:27.475Z</time>
      </trkpt>
      <trkpt lat="43.04940333" lon="-7.18665667">
        <ele>808.0</ele>
        <time>2022-06-19T13:03:28.487Z</time>
      </trkpt>
      <trkpt lat="43.04940667" lon="-7.18668333">
        <ele>808.0</ele>
        <time>2022-06-19T13:03:29.475Z</time>
      </trkpt>
      <trkpt lat="43.04940667" lon="-7.18668333">
        <ele>808.0</ele>
        <time>2022-06-19T13:03:30.480Z</time>
      </trkpt>
      <trkpt lat="43.04941333" lon="-7.18674167">
        <ele>809.0</ele>
        <time>2022-06-19T13:03:31.466Z</time>
      </trkpt>
      <trkpt lat="43.04941833" lon="-7.18677333">
        <ele>809.0</ele>
        <time>2022-06-19T13:03:32.450Z</time>
      </trkpt>
      <trkpt lat="43.04941833" lon="-7.18677333">
        <ele>809.0</ele>
        <time>2022-06-19T13:03:33.479Z</time>
      </trkpt>
      <trkpt lat="43.04941833" lon="-7.18683333">
        <ele>809.0</ele>
        <time>2022-06-19T13:03:34.489Z</time>
      </trkpt>
      <trkpt lat="43.04941833" lon="-7.18683333">
        <ele>809.0</ele>
        <time>2022-06-19T13:03:35.463Z</time>
      </trkpt>
      <trkpt lat="43.04942833" lon="-7.18690167">
        <ele>810.0</ele>
        <time>2022-06-19T13:03:36.458Z</time>
      </trkpt>
      <trkpt lat="43.04943667" lon="-7.186935">
        <ele>811.0</ele>
        <time>2022-06-19T13:03:37.486Z</time>
      </trkpt>
      <trkpt lat="43.04943667" lon="-7.186935">
        <ele>811.0</ele>
        <time>2022-06-19T13:03:38.467Z</time>
      </trkpt>
      <trkpt lat="43.04944667" lon="-7.18699">
        <ele>811.0</ele>
        <time>2022-06-19T13:03:39.459Z</time>
      </trkpt>
      <trkpt lat="43.04944667" lon="-7.18699">
        <ele>811.0</ele>
        <time>2022-06-19T13:03:40.488Z</time>
      </trkpt>
      <trkpt lat="43.04946833" lon="-7.18704833">
        <ele>811.0</ele>
        <time>2022-06-19T13:03:41.462Z</time>
      </trkpt>
      <trkpt lat="43.04946833" lon="-7.18704833">
        <ele>811.0</ele>
        <time>2022-06-19T13:03:42.454Z</time>
      </trkpt>
      <trkpt lat="43.04946" lon="-7.18711">
        <ele>811.0</ele>
        <time>2022-06-19T13:03:43.467Z</time>
      </trkpt>
      <trkpt lat="43.04946167" lon="-7.18714167">
        <ele>812.0</ele>
        <time>2022-06-19T13:03:44.489Z</time>
      </trkpt>
      <trkpt lat="43.04946167" lon="-7.18714167">
        <ele>812.0</ele>
        <time>2022-06-19T13:03:45.465Z</time>
      </trkpt>
      <trkpt lat="43.04947" lon="-7.1872">
        <ele>813.0</ele>
        <time>2022-06-19T13:03:46.484Z</time>
      </trkpt>
      <trkpt lat="43.04947333" lon="-7.18723">
        <ele>813.0</ele>
        <time>2022-06-19T13:03:47.468Z</time>
      </trkpt>
      <trkpt lat="43.04947333" lon="-7.18723">
        <ele>813.0</ele>
        <time>2022-06-19T13:03:48.479Z</time>
      </trkpt>
      <trkpt lat="43.049475" lon="-7.18729">
        <ele>814.0</ele>
        <time>2022-06-19T13:03:49.451Z</time>
      </trkpt>
      <trkpt lat="43.049475" lon="-7.18729">
        <ele>814.0</ele>
        <time>2022-06-19T13:03:50.450Z</time>
      </trkpt>
      <trkpt lat="43.04947333" lon="-7.18735167">
        <ele>815.0</ele>
        <time>2022-06-19T13:03:51.473Z</time>
      </trkpt>
      <trkpt lat="43.04947333" lon="-7.18735167">
        <ele>815.0</ele>
        <time>2022-06-19T13:03:52.466Z</time>
      </trkpt>
      <trkpt lat="43.049475" lon="-7.18740667">
        <ele>816.0</ele>
        <time>2022-06-19T13:03:53.473Z</time>
      </trkpt>
      <trkpt lat="43.049475" lon="-7.18740667">
        <ele>816.0</ele>
        <time>2022-06-19T13:03:54.452Z</time>
      </trkpt>
      <trkpt lat="43.04947333" lon="-7.18746167">
        <ele>817.0</ele>
        <time>2022-06-19T13:03:55.457Z</time>
      </trkpt>
      <trkpt lat="43.04947333" lon="-7.18746167">
        <ele>817.0</ele>
        <time>2022-06-19T13:03:56.469Z</time>
      </trkpt>
      <trkpt lat="43.049465" lon="-7.18751667">
        <ele>818.0</ele>
        <time>2022-06-19T13:03:57.487Z</time>
      </trkpt>
      <trkpt lat="43.04946" lon="-7.187545">
        <ele>818.0</ele>
        <time>2022-06-19T13:03:58.465Z</time>
      </trkpt>
      <trkpt lat="43.04945167" lon="-7.18757667">
        <ele>818.0</ele>
        <time>2022-06-19T13:03:59.486Z</time>
      </trkpt>
      <trkpt lat="43.04945167" lon="-7.18757667">
        <ele>818.0</ele>
        <time>2022-06-19T13:04:00.469Z</time>
      </trkpt>
      <trkpt lat="43.04944" lon="-7.187635">
        <ele>818.0</ele>
        <time>2022-06-19T13:04:01.455Z</time>
      </trkpt>
      <trkpt lat="43.04944" lon="-7.187635">
        <ele>818.0</ele>
        <time>2022-06-19T13:04:02.461Z</time>
      </trkpt>
      <trkpt lat="43.04943167" lon="-7.18768833">
        <ele>818.0</ele>
        <time>2022-06-19T13:04:03.487Z</time>
      </trkpt>
      <trkpt lat="43.04942833" lon="-7.18771333">
        <ele>819.0</ele>
        <time>2022-06-19T13:04:04.453Z</time>
      </trkpt>
      <trkpt lat="43.04942833" lon="-7.18771333">
        <ele>819.0</ele>
        <time>2022-06-19T13:04:05.450Z</time>
      </trkpt>
      <trkpt lat="43.04941833" lon="-7.18776167">
        <ele>819.0</ele>
        <time>2022-06-19T13:04:06.480Z</time>
      </trkpt>
      <trkpt lat="43.049415" lon="-7.18778333">
        <ele>819.0</ele>
        <time>2022-06-19T13:04:07.478Z</time>
      </trkpt>
      <trkpt lat="43.049415" lon="-7.18778333">
        <ele>819.0</ele>
        <time>2022-06-19T13:04:08.460Z</time>
      </trkpt>
      <trkpt lat="43.049405" lon="-7.18782833">
        <ele>819.0</ele>
        <time>2022-06-19T13:04:09.485Z</time>
      </trkpt>
      <trkpt lat="43.049405" lon="-7.18782833">
        <ele>819.0</ele>
        <time>2022-06-19T13:04:10.454Z</time>
      </trkpt>
      <trkpt lat="43.04938667" lon="-7.18786833">
        <ele>819.0</ele>
        <time>2022-06-19T13:04:11.489Z</time>
      </trkpt>
      <trkpt lat="43.04938667" lon="-7.18786833">
        <ele>819.0</ele>
        <time>2022-06-19T13:04:12.455Z</time>
      </trkpt>
      <trkpt lat="43.04937167" lon="-7.18790667">
        <ele>820.0</ele>
        <time>2022-06-19T13:04:13.457Z</time>
      </trkpt>
      <trkpt lat="43.04937167" lon="-7.18790667">
        <ele>820.0</ele>
        <time>2022-06-19T13:04:14.476Z</time>
      </trkpt>
      <trkpt lat="43.04935167" lon="-7.18793167">
        <ele>821.0</ele>
        <time>2022-06-19T13:04:15.465Z</time>
      </trkpt>
      <trkpt lat="43.04934333" lon="-7.18795167">
        <ele>821.0</ele>
        <time>2022-06-19T13:04:16.487Z</time>
      </trkpt>
      <trkpt lat="43.04933333" lon="-7.18797333">
        <ele>821.0</ele>
        <time>2022-06-19T13:04:17.458Z</time>
      </trkpt>
      <trkpt lat="43.04933333" lon="-7.18797333">
        <ele>821.0</ele>
        <time>2022-06-19T13:04:18.475Z</time>
      </trkpt>
      <trkpt lat="43.049325" lon="-7.18801667">
        <ele>822.0</ele>
        <time>2022-06-19T13:04:19.463Z</time>
      </trkpt>
      <trkpt lat="43.049325" lon="-7.18801667">
        <ele>822.0</ele>
        <time>2022-06-19T13:04:20.483Z</time>
      </trkpt>
      <trkpt lat="43.04929667" lon="-7.18806333">
        <ele>823.0</ele>
        <time>2022-06-19T13:04:21.474Z</time>
      </trkpt>
      <trkpt lat="43.04929667" lon="-7.18806333">
        <ele>823.0</ele>
        <time>2022-06-19T13:04:22.452Z</time>
      </trkpt>
      <trkpt lat="43.04927167" lon="-7.18810833">
        <ele>823.0</ele>
        <time>2022-06-19T13:04:23.466Z</time>
      </trkpt>
      <trkpt lat="43.04925667" lon="-7.18812833">
        <ele>823.0</ele>
        <time>2022-06-19T13:04:24.491Z</time>
      </trkpt>
      <trkpt lat="43.04925667" lon="-7.18812833">
        <ele>823.0</ele>
        <time>2022-06-19T13:04:25.479Z</time>
      </trkpt>
      <trkpt lat="43.04922833" lon="-7.18816333">
        <ele>824.0</ele>
        <time>2022-06-19T13:04:26.462Z</time>
      </trkpt>
      <trkpt lat="43.04921833" lon="-7.18816667">
        <ele>825.0</ele>
        <time>2022-06-19T13:04:27.465Z</time>
      </trkpt>
      <trkpt lat="43.049205" lon="-7.18818167">
        <ele>825.0</ele>
        <time>2022-06-19T13:04:28.467Z</time>
      </trkpt>
      <trkpt lat="43.049205" lon="-7.18818167">
        <ele>825.0</ele>
        <time>2022-06-19T13:04:29.480Z</time>
      </trkpt>
      <trkpt lat="43.04917667" lon="-7.18820333">
        <ele>826.0</ele>
        <time>2022-06-19T13:04:30.457Z</time>
      </trkpt>
      <trkpt lat="43.04916167" lon="-7.188215">
        <ele>826.0</ele>
        <time>2022-06-19T13:04:31.452Z</time>
      </trkpt>
      <trkpt lat="43.04916167" lon="-7.188215">
        <ele>826.0</ele>
        <time>2022-06-19T13:04:32.471Z</time>
      </trkpt>
      <trkpt lat="43.04913833" lon="-7.18826333">
        <ele>827.0</ele>
        <time>2022-06-19T13:04:33.488Z</time>
      </trkpt>
      <trkpt lat="43.04912667" lon="-7.18828833">
        <ele>828.0</ele>
        <time>2022-06-19T13:04:34.483Z</time>
      </trkpt>
      <trkpt lat="43.04912667" lon="-7.18828833">
        <ele>828.0</ele>
        <time>2022-06-19T13:04:35.463Z</time>
      </trkpt>
      <trkpt lat="43.04910667" lon="-7.18833">
        <ele>828.0</ele>
        <time>2022-06-19T13:04:36.451Z</time>
      </trkpt>
      <trkpt lat="43.049095" lon="-7.18834667">
        <ele>829.0</ele>
        <time>2022-06-19T13:04:37.488Z</time>
      </trkpt>
      <trkpt lat="43.049095" lon="-7.18834667">
        <ele>829.0</ele>
        <time>2022-06-19T13:04:38.476Z</time>
      </trkpt>
      <trkpt lat="43.04906833" lon="-7.18837333">
        <ele>829.0</ele>
        <time>2022-06-19T13:04:39.457Z</time>
      </trkpt>
      <trkpt lat="43.04905333" lon="-7.188385">
        <ele>830.0</ele>
        <time>2022-06-19T13:04:40.474Z</time>
      </trkpt>
      <trkpt lat="43.04905333" lon="-7.188385">
        <ele>830.0</ele>
        <time>2022-06-19T13:04:41.453Z</time>
      </trkpt>
      <trkpt lat="43.049025" lon="-7.18841833">
        <ele>830.0</ele>
        <time>2022-06-19T13:04:42.482Z</time>
      </trkpt>
      <trkpt lat="43.04900667" lon="-7.18845167">
        <ele>831.0</ele>
        <time>2022-06-19T13:04:43.458Z</time>
      </trkpt>
      <trkpt lat="43.04900667" lon="-7.18845167">
        <ele>831.0</ele>
        <time>2022-06-19T13:04:44.457Z</time>
      </trkpt>
      <trkpt lat="43.04897333" lon="-7.18849">
        <ele>831.0</ele>
        <time>2022-06-19T13:04:45.487Z</time>
      </trkpt>
      <trkpt lat="43.04897333" lon="-7.18849">
        <ele>831.0</ele>
        <time>2022-06-19T13:04:46.469Z</time>
      </trkpt>
      <trkpt lat="43.04894833" lon="-7.18853333">
        <ele>832.0</ele>
        <time>2022-06-19T13:04:47.487Z</time>
      </trkpt>
      <trkpt lat="43.048935" lon="-7.18855333">
        <ele>833.0</ele>
        <time>2022-06-19T13:04:48.461Z</time>
      </trkpt>
      <trkpt lat="43.04892167" lon="-7.18857333">
        <ele>833.0</ele>
        <time>2022-06-19T13:04:49.489Z</time>
      </trkpt>
      <trkpt lat="43.04892167" lon="-7.18857333">
        <ele>833.0</ele>
        <time>2022-06-19T13:04:50.481Z</time>
      </trkpt>
      <trkpt lat="43.04889833" lon="-7.18860667">
        <ele>834.0</ele>
        <time>2022-06-19T13:04:51.456Z</time>
      </trkpt>
      <trkpt lat="43.04889833" lon="-7.18860667">
        <ele>834.0</ele>
        <time>2022-06-19T13:04:52.450Z</time>
      </trkpt>
      <trkpt lat="43.048875" lon="-7.18864833">
        <ele>835.0</ele>
        <time>2022-06-19T13:04:53.455Z</time>
      </trkpt>
      <trkpt lat="43.04885833" lon="-7.18866333">
        <ele>835.0</ele>
        <time>2022-06-19T13:04:54.487Z</time>
      </trkpt>
      <trkpt lat="43.04885833" lon="-7.18866333">
        <ele>835.0</ele>
        <time>2022-06-19T13:04:55.461Z</time>
      </trkpt>
      <trkpt lat="43.04883167" lon="-7.18868667">
        <ele>836.0</ele>
        <time>2022-06-19T13:04:56.466Z</time>
      </trkpt>
      <trkpt lat="43.04883167" lon="-7.18868667">
        <ele>836.0</ele>
        <time>2022-06-19T13:04:57.477Z</time>
      </trkpt>
      <trkpt lat="43.04880333" lon="-7.188715">
        <ele>836.0</ele>
        <time>2022-06-19T13:04:58.457Z</time>
      </trkpt>
      <trkpt lat="43.04880333" lon="-7.188715">
        <ele>836.0</ele>
        <time>2022-06-19T13:04:59.452Z</time>
      </trkpt>
      <trkpt lat="43.04877833" lon="-7.188745">
        <ele>837.0</ele>
        <time>2022-06-19T13:05:00.479Z</time>
      </trkpt>
      <trkpt lat="43.04876833" lon="-7.18877167">
        <ele>838.0</ele>
        <time>2022-06-19T13:05:01.488Z</time>
      </trkpt>
      <trkpt lat="43.04876833" lon="-7.18877167">
        <ele>838.0</ele>
        <time>2022-06-19T13:05:02.470Z</time>
      </trkpt>
      <trkpt lat="43.048745" lon="-7.18881667">
        <ele>838.0</ele>
        <time>2022-06-19T13:05:03.487Z</time>
      </trkpt>
      <trkpt lat="43.048745" lon="-7.18881667">
        <ele>838.0</ele>
        <time>2022-06-19T13:05:04.458Z</time>
      </trkpt>
      <trkpt lat="43.04871833" lon="-7.18885667">
        <ele>839.0</ele>
        <time>2022-06-19T13:05:05.490Z</time>
      </trkpt>
      <trkpt lat="43.048705" lon="-7.188875">
        <ele>839.0</ele>
        <time>2022-06-19T13:05:06.482Z</time>
      </trkpt>
      <trkpt lat="43.04869167" lon="-7.18888833">
        <ele>840.0</ele>
        <time>2022-06-19T13:05:07.478Z</time>
      </trkpt>
      <trkpt lat="43.04869167" lon="-7.18888833">
        <ele>840.0</ele>
        <time>2022-06-19T13:05:08.467Z</time>
      </trkpt>
      <trkpt lat="43.04866667" lon="-7.188925">
        <ele>841.0</ele>
        <time>2022-06-19T13:05:09.469Z</time>
      </trkpt>
      <trkpt lat="43.04865167" lon="-7.18894">
        <ele>841.0</ele>
        <time>2022-06-19T13:05:10.470Z</time>
      </trkpt>
      <trkpt lat="43.04865167" lon="-7.18894">
        <ele>841.0</ele>
        <time>2022-06-19T13:05:11.451Z</time>
      </trkpt>
      <trkpt lat="43.048625" lon="-7.18898667">
        <ele>842.0</ele>
        <time>2022-06-19T13:05:12.476Z</time>
      </trkpt>
      <trkpt lat="43.04861" lon="-7.18900667">
        <ele>843.0</ele>
        <time>2022-06-19T13:05:13.505Z</time>
      </trkpt>
      <trkpt lat="43.04861" lon="-7.18900667">
        <ele>843.0</ele>
        <time>2022-06-19T13:05:14.452Z</time>
      </trkpt>
      <trkpt lat="43.04858833" lon="-7.18905">
        <ele>843.0</ele>
        <time>2022-06-19T13:05:15.489Z</time>
      </trkpt>
      <trkpt lat="43.04858833" lon="-7.18905">
        <ele>843.0</ele>
        <time>2022-06-19T13:05:16.450Z</time>
      </trkpt>
      <trkpt lat="43.048565" lon="-7.189095">
        <ele>844.0</ele>
        <time>2022-06-19T13:05:17.476Z</time>
      </trkpt>
      <trkpt lat="43.048565" lon="-7.189095">
        <ele>844.0</ele>
        <time>2022-06-19T13:05:18.472Z</time>
      </trkpt>
      <trkpt lat="43.04854" lon="-7.18914833">
        <ele>845.0</ele>
        <time>2022-06-19T13:05:19.454Z</time>
      </trkpt>
      <trkpt lat="43.04854" lon="-7.18914833">
        <ele>845.0</ele>
        <time>2022-06-19T13:05:20.451Z</time>
      </trkpt>
      <trkpt lat="43.048515" lon="-7.18919333">
        <ele>845.0</ele>
        <time>2022-06-19T13:05:21.486Z</time>
      </trkpt>
      <trkpt lat="43.048515" lon="-7.18919333">
        <ele>845.0</ele>
        <time>2022-06-19T13:05:22.478Z</time>
      </trkpt>
      <trkpt lat="43.04849167" lon="-7.18923833">
        <ele>846.0</ele>
        <time>2022-06-19T13:05:23.463Z</time>
      </trkpt>
      <trkpt lat="43.04849167" lon="-7.18923833">
        <ele>846.0</ele>
        <time>2022-06-19T13:05:24.482Z</time>
      </trkpt>
      <trkpt lat="43.04847333" lon="-7.18928">
        <ele>847.0</ele>
        <time>2022-06-19T13:05:25.487Z</time>
      </trkpt>
      <trkpt lat="43.04847333" lon="-7.18928">
        <ele>847.0</ele>
        <time>2022-06-19T13:05:26.472Z</time>
      </trkpt>
      <trkpt lat="43.04845" lon="-7.189325">
        <ele>848.0</ele>
        <time>2022-06-19T13:05:27.458Z</time>
      </trkpt>
      <trkpt lat="43.04843667" lon="-7.18934667">
        <ele>848.0</ele>
        <time>2022-06-19T13:05:28.487Z</time>
      </trkpt>
      <trkpt lat="43.04843667" lon="-7.18934667">
        <ele>848.0</ele>
        <time>2022-06-19T13:05:29.454Z</time>
      </trkpt>
      <trkpt lat="43.04841" lon="-7.18939">
        <ele>849.0</ele>
        <time>2022-06-19T13:05:30.487Z</time>
      </trkpt>
      <trkpt lat="43.04841" lon="-7.18939">
        <ele>849.0</ele>
        <time>2022-06-19T13:05:31.459Z</time>
      </trkpt>
      <trkpt lat="43.04838833" lon="-7.189425">
        <ele>850.0</ele>
        <time>2022-06-19T13:05:32.487Z</time>
      </trkpt>
      <trkpt lat="43.04838833" lon="-7.189425">
        <ele>850.0</ele>
        <time>2022-06-19T13:05:33.476Z</time>
      </trkpt>
      <trkpt lat="43.048365" lon="-7.18947333">
        <ele>850.0</ele>
        <time>2022-06-19T13:05:34.477Z</time>
      </trkpt>
      <trkpt lat="43.048355" lon="-7.189495">
        <ele>851.0</ele>
        <time>2022-06-19T13:05:35.467Z</time>
      </trkpt>
      <trkpt lat="43.048355" lon="-7.189495">
        <ele>851.0</ele>
        <time>2022-06-19T13:05:36.478Z</time>
      </trkpt>
      <trkpt lat="43.04834333" lon="-7.18953333">
        <ele>851.0</ele>
        <time>2022-06-19T13:05:37.476Z</time>
      </trkpt>
      <trkpt lat="43.04834333" lon="-7.18953333">
        <ele>851.0</ele>
        <time>2022-06-19T13:05:38.483Z</time>
      </trkpt>
      <trkpt lat="43.04832333" lon="-7.18957833">
        <ele>852.0</ele>
        <time>2022-06-19T13:05:39.471Z</time>
      </trkpt>
      <trkpt lat="43.04832333" lon="-7.18957833">
        <ele>852.0</ele>
        <time>2022-06-19T13:05:40.453Z</time>
      </trkpt>
      <trkpt lat="43.04830167" lon="-7.189625">
        <ele>852.0</ele>
        <time>2022-06-19T13:05:41.470Z</time>
      </trkpt>
      <trkpt lat="43.04830167" lon="-7.189625">
        <ele>852.0</ele>
        <time>2022-06-19T13:05:42.451Z</time>
      </trkpt>
      <trkpt lat="43.04828167" lon="-7.18967333">
        <ele>853.0</ele>
        <time>2022-06-19T13:05:43.489Z</time>
      </trkpt>
      <trkpt lat="43.04828167" lon="-7.18967333">
        <ele>853.0</ele>
        <time>2022-06-19T13:05:44.463Z</time>
      </trkpt>
      <trkpt lat="43.04826667" lon="-7.18972667">
        <ele>853.0</ele>
        <time>2022-06-19T13:05:45.453Z</time>
      </trkpt>
      <trkpt lat="43.04826667" lon="-7.18972667">
        <ele>853.0</ele>
        <time>2022-06-19T13:05:46.479Z</time>
      </trkpt>
      <trkpt lat="43.04824333" lon="-7.189785">
        <ele>854.0</ele>
        <time>2022-06-19T13:05:47.462Z</time>
      </trkpt>
      <trkpt lat="43.04824333" lon="-7.189785">
        <ele>854.0</ele>
        <time>2022-06-19T13:05:48.458Z</time>
      </trkpt>
      <trkpt lat="43.04822167" lon="-7.189835">
        <ele>854.0</ele>
        <time>2022-06-19T13:05:49.477Z</time>
      </trkpt>
      <trkpt lat="43.04822167" lon="-7.189835">
        <ele>854.0</ele>
        <time>2022-06-19T13:05:50.475Z</time>
      </trkpt>
      <trkpt lat="43.04820167" lon="-7.18989">
        <ele>855.0</ele>
        <time>2022-06-19T13:05:51.461Z</time>
      </trkpt>
      <trkpt lat="43.04820167" lon="-7.18989">
        <ele>855.0</ele>
        <time>2022-06-19T13:05:52.458Z</time>
      </trkpt>
      <trkpt lat="43.04817667" lon="-7.18994667">
        <ele>856.0</ele>
        <time>2022-06-19T13:05:53.461Z</time>
      </trkpt>
      <trkpt lat="43.04817667" lon="-7.18994667">
        <ele>856.0</ele>
        <time>2022-06-19T13:05:54.473Z</time>
      </trkpt>
      <trkpt lat="43.04815667" lon="-7.189995">
        <ele>856.0</ele>
        <time>2022-06-19T13:05:55.467Z</time>
      </trkpt>
      <trkpt lat="43.04815667" lon="-7.189995">
        <ele>856.0</ele>
        <time>2022-06-19T13:05:56.463Z</time>
      </trkpt>
      <trkpt lat="43.04813833" lon="-7.19004667">
        <ele>857.0</ele>
        <time>2022-06-19T13:05:57.481Z</time>
      </trkpt>
      <trkpt lat="43.04813833" lon="-7.19004667">
        <ele>857.0</ele>
        <time>2022-06-19T13:05:58.469Z</time>
      </trkpt>
      <trkpt lat="43.048125" lon="-7.19009">
        <ele>857.0</ele>
        <time>2022-06-19T13:05:59.450Z</time>
      </trkpt>
      <trkpt lat="43.048125" lon="-7.19009">
        <ele>857.0</ele>
        <time>2022-06-19T13:06:00.464Z</time>
      </trkpt>
      <trkpt lat="43.04810333" lon="-7.190135">
        <ele>858.0</ele>
        <time>2022-06-19T13:06:01.466Z</time>
      </trkpt>
      <trkpt lat="43.048095" lon="-7.19016">
        <ele>858.0</ele>
        <time>2022-06-19T13:06:02.464Z</time>
      </trkpt>
      <trkpt lat="43.048095" lon="-7.19016">
        <ele>858.0</ele>
        <time>2022-06-19T13:06:03.478Z</time>
      </trkpt>
      <trkpt lat="43.04808667" lon="-7.19020333">
        <ele>858.0</ele>
        <time>2022-06-19T13:06:04.455Z</time>
      </trkpt>
      <trkpt lat="43.04808" lon="-7.19022667">
        <ele>858.0</ele>
        <time>2022-06-19T13:06:05.487Z</time>
      </trkpt>
      <trkpt lat="43.04808" lon="-7.19022667">
        <ele>858.0</ele>
        <time>2022-06-19T13:06:06.461Z</time>
      </trkpt>
      <trkpt lat="43.04807333" lon="-7.19026833">
        <ele>858.0</ele>
        <time>2022-06-19T13:06:07.455Z</time>
      </trkpt>
      <trkpt lat="43.04807333" lon="-7.19026833">
        <ele>858.0</ele>
        <time>2022-06-19T13:06:08.465Z</time>
      </trkpt>
      <trkpt lat="43.04805167" lon="-7.19032333">
        <ele>858.0</ele>
        <time>2022-06-19T13:06:09.477Z</time>
      </trkpt>
      <trkpt lat="43.04805167" lon="-7.19032333">
        <ele>858.0</ele>
        <time>2022-06-19T13:06:10.454Z</time>
      </trkpt>
      <trkpt lat="43.04803167" lon="-7.19036833">
        <ele>858.0</ele>
        <time>2022-06-19T13:06:11.487Z</time>
      </trkpt>
      <trkpt lat="43.04803167" lon="-7.19036833">
        <ele>858.0</ele>
        <time>2022-06-19T13:06:12.470Z</time>
      </trkpt>
      <trkpt lat="43.048015" lon="-7.19042">
        <ele>858.0</ele>
        <time>2022-06-19T13:06:13.488Z</time>
      </trkpt>
      <trkpt lat="43.048015" lon="-7.19042">
        <ele>858.0</ele>
        <time>2022-06-19T13:06:14.468Z</time>
      </trkpt>
      <trkpt lat="43.047995" lon="-7.19047333">
        <ele>858.0</ele>
        <time>2022-06-19T13:06:15.451Z</time>
      </trkpt>
      <trkpt lat="43.047995" lon="-7.19047333">
        <ele>858.0</ele>
        <time>2022-06-19T13:06:16.469Z</time>
      </trkpt>
      <trkpt lat="43.04797667" lon="-7.19054333">
        <ele>858.0</ele>
        <time>2022-06-19T13:06:17.456Z</time>
      </trkpt>
      <trkpt lat="43.04797667" lon="-7.19054333">
        <ele>858.0</ele>
        <time>2022-06-19T13:06:18.473Z</time>
      </trkpt>
      <trkpt lat="43.047965" lon="-7.19059">
        <ele>858.0</ele>
        <time>2022-06-19T13:06:19.479Z</time>
      </trkpt>
      <trkpt lat="43.04795833" lon="-7.19061">
        <ele>858.0</ele>
        <time>2022-06-19T13:06:20.480Z</time>
      </trkpt>
      <trkpt lat="43.04795833" lon="-7.19061">
        <ele>858.0</ele>
        <time>2022-06-19T13:06:21.450Z</time>
      </trkpt>
      <trkpt lat="43.04793833" lon="-7.19064833">
        <ele>859.0</ele>
        <time>2022-06-19T13:06:22.467Z</time>
      </trkpt>
      <trkpt lat="43.04793833" lon="-7.19064833">
        <ele>859.0</ele>
        <time>2022-06-19T13:06:23.479Z</time>
      </trkpt>
      <trkpt lat="43.047915" lon="-7.19069333">
        <ele>859.0</ele>
        <time>2022-06-19T13:06:24.464Z</time>
      </trkpt>
      <trkpt lat="43.047915" lon="-7.19069333">
        <ele>859.0</ele>
        <time>2022-06-19T13:06:25.472Z</time>
      </trkpt>
      <trkpt lat="43.04789167" lon="-7.19073667">
        <ele>859.0</ele>
        <time>2022-06-19T13:06:26.487Z</time>
      </trkpt>
      <trkpt lat="43.04789167" lon="-7.19073667">
        <ele>859.0</ele>
        <time>2022-06-19T13:06:27.484Z</time>
      </trkpt>
      <trkpt lat="43.04787167" lon="-7.19078333">
        <ele>859.0</ele>
        <time>2022-06-19T13:06:28.467Z</time>
      </trkpt>
      <trkpt lat="43.04786" lon="-7.19080833">
        <ele>860.0</ele>
        <time>2022-06-19T13:06:29.477Z</time>
      </trkpt>
      <trkpt lat="43.04786" lon="-7.19080833">
        <ele>860.0</ele>
        <time>2022-06-19T13:06:30.463Z</time>
      </trkpt>
      <trkpt lat="43.04783167" lon="-7.19085333">
        <ele>860.0</ele>
        <time>2022-06-19T13:06:31.485Z</time>
      </trkpt>
      <trkpt lat="43.04783167" lon="-7.19085333">
        <ele>860.0</ele>
        <time>2022-06-19T13:06:32.470Z</time>
      </trkpt>
      <trkpt lat="43.04780667" lon="-7.19089667">
        <ele>860.0</ele>
        <time>2022-06-19T13:06:33.477Z</time>
      </trkpt>
      <trkpt lat="43.04779167" lon="-7.19092167">
        <ele>861.0</ele>
        <time>2022-06-19T13:06:34.450Z</time>
      </trkpt>
      <trkpt lat="43.04779167" lon="-7.19092167">
        <ele>861.0</ele>
        <time>2022-06-19T13:06:35.468Z</time>
      </trkpt>
      <trkpt lat="43.04776667" lon="-7.19096333">
        <ele>861.0</ele>
        <time>2022-06-19T13:06:36.469Z</time>
      </trkpt>
      <trkpt lat="43.04776667" lon="-7.19096333">
        <ele>861.0</ele>
        <time>2022-06-19T13:06:37.450Z</time>
      </trkpt>
      <trkpt lat="43.04774" lon="-7.191005">
        <ele>861.0</ele>
        <time>2022-06-19T13:06:38.473Z</time>
      </trkpt>
      <trkpt lat="43.04774" lon="-7.191005">
        <ele>861.0</ele>
        <time>2022-06-19T13:06:39.479Z</time>
      </trkpt>
      <trkpt lat="43.04771167" lon="-7.19105">
        <ele>862.0</ele>
        <time>2022-06-19T13:06:40.466Z</time>
      </trkpt>
      <trkpt lat="43.04771167" lon="-7.19105">
        <ele>862.0</ele>
        <time>2022-06-19T13:06:41.453Z</time>
      </trkpt>
      <trkpt lat="43.047685" lon="-7.19109">
        <ele>862.0</ele>
        <time>2022-06-19T13:06:42.469Z</time>
      </trkpt>
      <trkpt lat="43.047685" lon="-7.19109">
        <ele>862.0</ele>
        <time>2022-06-19T13:06:43.467Z</time>
      </trkpt>
      <trkpt lat="43.04765667" lon="-7.19113167">
        <ele>863.0</ele>
        <time>2022-06-19T13:06:44.452Z</time>
      </trkpt>
      <trkpt lat="43.04765667" lon="-7.19113167">
        <ele>863.0</ele>
        <time>2022-06-19T13:06:45.459Z</time>
      </trkpt>
      <trkpt lat="43.04762667" lon="-7.191165">
        <ele>863.0</ele>
        <time>2022-06-19T13:06:46.515Z</time>
      </trkpt>
      <trkpt lat="43.04762667" lon="-7.191165">
        <ele>863.0</ele>
        <time>2022-06-19T13:06:47.479Z</time>
      </trkpt>
      <trkpt lat="43.047595" lon="-7.19121333">
        <ele>864.0</ele>
        <time>2022-06-19T13:06:48.462Z</time>
      </trkpt>
      <trkpt lat="43.04758" lon="-7.19124">
        <ele>864.0</ele>
        <time>2022-06-19T13:06:49.480Z</time>
      </trkpt>
      <trkpt lat="43.04758" lon="-7.19124">
        <ele>864.0</ele>
        <time>2022-06-19T13:06:50.465Z</time>
      </trkpt>
      <trkpt lat="43.04754667" lon="-7.19127667">
        <ele>865.0</ele>
        <time>2022-06-19T13:06:51.488Z</time>
      </trkpt>
      <trkpt lat="43.04754667" lon="-7.19127667">
        <ele>865.0</ele>
        <time>2022-06-19T13:06:52.472Z</time>
      </trkpt>
      <trkpt lat="43.04751833" lon="-7.19131167">
        <ele>865.0</ele>
        <time>2022-06-19T13:06:53.472Z</time>
      </trkpt>
      <trkpt lat="43.04751833" lon="-7.19131167">
        <ele>865.0</ele>
        <time>2022-06-19T13:06:54.454Z</time>
      </trkpt>
      <trkpt lat="43.04749167" lon="-7.191335">
        <ele>865.0</ele>
        <time>2022-06-19T13:06:55.480Z</time>
      </trkpt>
      <trkpt lat="43.04749167" lon="-7.191335">
        <ele>865.0</ele>
        <time>2022-06-19T13:06:56.459Z</time>
      </trkpt>
      <trkpt lat="43.04746333" lon="-7.19138167">
        <ele>866.0</ele>
        <time>2022-06-19T13:06:57.477Z</time>
      </trkpt>
      <trkpt lat="43.04744833" lon="-7.1914">
        <ele>866.0</ele>
        <time>2022-06-19T13:06:58.453Z</time>
      </trkpt>
      <trkpt lat="43.04744833" lon="-7.1914">
        <ele>866.0</ele>
        <time>2022-06-19T13:06:59.485Z</time>
      </trkpt>
      <trkpt lat="43.04741833" lon="-7.19144">
        <ele>867.0</ele>
        <time>2022-06-19T13:07:00.458Z</time>
      </trkpt>
      <trkpt lat="43.047405" lon="-7.191465">
        <ele>867.0</ele>
        <time>2022-06-19T13:07:01.478Z</time>
      </trkpt>
      <trkpt lat="43.047405" lon="-7.191465">
        <ele>867.0</ele>
        <time>2022-06-19T13:07:02.462Z</time>
      </trkpt>
      <trkpt lat="43.047375" lon="-7.19150667">
        <ele>867.0</ele>
        <time>2022-06-19T13:07:03.484Z</time>
      </trkpt>
      <trkpt lat="43.047375" lon="-7.19150667">
        <ele>867.0</ele>
        <time>2022-06-19T13:07:04.475Z</time>
      </trkpt>
      <trkpt lat="43.047345" lon="-7.19155667">
        <ele>868.0</ele>
        <time>2022-06-19T13:07:05.456Z</time>
      </trkpt>
      <trkpt lat="43.04733167" lon="-7.191585">
        <ele>868.0</ele>
        <time>2022-06-19T13:07:06.482Z</time>
      </trkpt>
      <trkpt lat="43.04731667" lon="-7.19161">
        <ele>868.0</ele>
        <time>2022-06-19T13:07:07.460Z</time>
      </trkpt>
      <trkpt lat="43.04731667" lon="-7.19161">
        <ele>868.0</ele>
        <time>2022-06-19T13:07:08.488Z</time>
      </trkpt>
      <trkpt lat="43.04728667" lon="-7.191655">
        <ele>869.0</ele>
        <time>2022-06-19T13:07:09.485Z</time>
      </trkpt>
      <trkpt lat="43.04728667" lon="-7.191655">
        <ele>869.0</ele>
        <time>2022-06-19T13:07:10.488Z</time>
      </trkpt>
      <trkpt lat="43.047255" lon="-7.19169833">
        <ele>869.0</ele>
        <time>2022-06-19T13:07:11.488Z</time>
      </trkpt>
      <trkpt lat="43.047255" lon="-7.19169833">
        <ele>869.0</ele>
        <time>2022-06-19T13:07:12.471Z</time>
      </trkpt>
      <trkpt lat="43.047225" lon="-7.19174167">
        <ele>869.0</ele>
        <time>2022-06-19T13:07:13.460Z</time>
      </trkpt>
      <trkpt lat="43.047225" lon="-7.19174167">
        <ele>869.0</ele>
        <time>2022-06-19T13:07:14.458Z</time>
      </trkpt>
      <trkpt lat="43.04719333" lon="-7.19178">
        <ele>870.0</ele>
        <time>2022-06-19T13:07:15.501Z</time>
      </trkpt>
      <trkpt lat="43.04717833" lon="-7.1918">
        <ele>870.0</ele>
        <time>2022-06-19T13:07:16.459Z</time>
      </trkpt>
      <trkpt lat="43.04717833" lon="-7.1918">
        <ele>870.0</ele>
        <time>2022-06-19T13:07:17.452Z</time>
      </trkpt>
      <trkpt lat="43.04714667" lon="-7.19184167">
        <ele>871.0</ele>
        <time>2022-06-19T13:07:18.482Z</time>
      </trkpt>
      <trkpt lat="43.04713" lon="-7.19186">
        <ele>871.0</ele>
        <time>2022-06-19T13:07:19.477Z</time>
      </trkpt>
      <trkpt lat="43.04713" lon="-7.19186">
        <ele>871.0</ele>
        <time>2022-06-19T13:07:20.469Z</time>
      </trkpt>
      <trkpt lat="43.04710167" lon="-7.19191">
        <ele>871.0</ele>
        <time>2022-06-19T13:07:21.459Z</time>
      </trkpt>
      <trkpt lat="43.04710167" lon="-7.19191">
        <ele>871.0</ele>
        <time>2022-06-19T13:07:22.475Z</time>
      </trkpt>
      <trkpt lat="43.04707167" lon="-7.19195333">
        <ele>871.0</ele>
        <time>2022-06-19T13:07:23.457Z</time>
      </trkpt>
      <trkpt lat="43.04707167" lon="-7.19195333">
        <ele>871.0</ele>
        <time>2022-06-19T13:07:24.484Z</time>
      </trkpt>
      <trkpt lat="43.04704333" lon="-7.19199833">
        <ele>872.0</ele>
        <time>2022-06-19T13:07:25.466Z</time>
      </trkpt>
      <trkpt lat="43.04702833" lon="-7.19202">
        <ele>872.0</ele>
        <time>2022-06-19T13:07:26.478Z</time>
      </trkpt>
      <trkpt lat="43.04702833" lon="-7.19202">
        <ele>872.0</ele>
        <time>2022-06-19T13:07:27.485Z</time>
      </trkpt>
      <trkpt lat="43.04700167" lon="-7.19206">
        <ele>872.0</ele>
        <time>2022-06-19T13:07:28.476Z</time>
      </trkpt>
      <trkpt lat="43.04699" lon="-7.19207833">
        <ele>873.0</ele>
        <time>2022-06-19T13:07:29.483Z</time>
      </trkpt>
      <trkpt lat="43.04699" lon="-7.19207833">
        <ele>873.0</ele>
        <time>2022-06-19T13:07:30.467Z</time>
      </trkpt>
      <trkpt lat="43.04696333" lon="-7.19211667">
        <ele>873.0</ele>
        <time>2022-06-19T13:07:31.490Z</time>
      </trkpt>
      <trkpt lat="43.04694833" lon="-7.192135">
        <ele>873.0</ele>
        <time>2022-06-19T13:07:32.478Z</time>
      </trkpt>
      <trkpt lat="43.04694833" lon="-7.192135">
        <ele>873.0</ele>
        <time>2022-06-19T13:07:33.467Z</time>
      </trkpt>
      <trkpt lat="43.04692" lon="-7.19217667">
        <ele>874.0</ele>
        <time>2022-06-19T13:07:34.464Z</time>
      </trkpt>
      <trkpt lat="43.04692" lon="-7.19217667">
        <ele>874.0</ele>
        <time>2022-06-19T13:07:35.457Z</time>
      </trkpt>
      <trkpt lat="43.04689333" lon="-7.19222333">
        <ele>874.0</ele>
        <time>2022-06-19T13:07:36.477Z</time>
      </trkpt>
      <trkpt lat="43.04687833" lon="-7.192245">
        <ele>874.0</ele>
        <time>2022-06-19T13:07:37.466Z</time>
      </trkpt>
      <trkpt lat="43.04686333" lon="-7.19226833">
        <ele>874.0</ele>
        <time>2022-06-19T13:07:38.480Z</time>
      </trkpt>
      <trkpt lat="43.04686333" lon="-7.19226833">
        <ele>874.0</ele>
        <time>2022-06-19T13:07:39.456Z</time>
      </trkpt>
      <trkpt lat="43.04683167" lon="-7.19231167">
        <ele>874.0</ele>
        <time>2022-06-19T13:07:40.477Z</time>
      </trkpt>
      <trkpt lat="43.04683167" lon="-7.19231167">
        <ele>874.0</ele>
        <time>2022-06-19T13:07:41.475Z</time>
      </trkpt>
      <trkpt lat="43.04679833" lon="-7.19236333">
        <ele>874.0</ele>
        <time>2022-06-19T13:07:42.458Z</time>
      </trkpt>
      <trkpt lat="43.04678333" lon="-7.19239167">
        <ele>874.0</ele>
        <time>2022-06-19T13:07:43.482Z</time>
      </trkpt>
      <trkpt lat="43.04678333" lon="-7.19239167">
        <ele>874.0</ele>
        <time>2022-06-19T13:07:44.461Z</time>
      </trkpt>
      <trkpt lat="43.04675667" lon="-7.19244667">
        <ele>873.0</ele>
        <time>2022-06-19T13:07:45.456Z</time>
      </trkpt>
      <trkpt lat="43.04675667" lon="-7.19244667">
        <ele>873.0</ele>
        <time>2022-06-19T13:07:46.452Z</time>
      </trkpt>
      <trkpt lat="43.04673" lon="-7.19250333">
        <ele>873.0</ele>
        <time>2022-06-19T13:07:47.469Z</time>
      </trkpt>
      <trkpt lat="43.04671833" lon="-7.19253333">
        <ele>873.0</ele>
        <time>2022-06-19T13:07:48.487Z</time>
      </trkpt>
      <trkpt lat="43.04671" lon="-7.19257333">
        <ele>873.0</ele>
        <time>2022-06-19T13:07:49.473Z</time>
      </trkpt>
      <trkpt lat="43.04670167" lon="-7.192605">
        <ele>872.0</ele>
        <time>2022-06-19T13:07:50.477Z</time>
      </trkpt>
      <trkpt lat="43.04670167" lon="-7.192605">
        <ele>872.0</ele>
        <time>2022-06-19T13:07:51.452Z</time>
      </trkpt>
      <trkpt lat="43.046685" lon="-7.19266667">
        <ele>872.0</ele>
        <time>2022-06-19T13:07:52.465Z</time>
      </trkpt>
      <trkpt lat="43.04667667" lon="-7.19269833">
        <ele>872.0</ele>
        <time>2022-06-19T13:07:53.487Z</time>
      </trkpt>
      <trkpt lat="43.04667667" lon="-7.19269833">
        <ele>872.0</ele>
        <time>2022-06-19T13:07:54.478Z</time>
      </trkpt>
      <trkpt lat="43.04666" lon="-7.19275667">
        <ele>872.0</ele>
        <time>2022-06-19T13:07:55.452Z</time>
      </trkpt>
      <trkpt lat="43.04666" lon="-7.19275667">
        <ele>872.0</ele>
        <time>2022-06-19T13:07:56.464Z</time>
      </trkpt>
      <trkpt lat="43.04664667" lon="-7.19281">
        <ele>872.0</ele>
        <time>2022-06-19T13:07:57.486Z</time>
      </trkpt>
      <trkpt lat="43.04664167" lon="-7.19283667">
        <ele>872.0</ele>
        <time>2022-06-19T13:07:58.458Z</time>
      </trkpt>
      <trkpt lat="43.04664167" lon="-7.19283667">
        <ele>872.0</ele>
        <time>2022-06-19T13:07:59.450Z</time>
      </trkpt>
      <trkpt lat="43.04663333" lon="-7.19288667">
        <ele>872.0</ele>
        <time>2022-06-19T13:08:00.490Z</time>
      </trkpt>
      <trkpt lat="43.04663333" lon="-7.19288667">
        <ele>872.0</ele>
        <time>2022-06-19T13:08:01.467Z</time>
      </trkpt>
      <trkpt lat="43.04662667" lon="-7.19293833">
        <ele>872.0</ele>
        <time>2022-06-19T13:08:02.464Z</time>
      </trkpt>
      <trkpt lat="43.04662167" lon="-7.19296667">
        <ele>872.0</ele>
        <time>2022-06-19T13:08:03.451Z</time>
      </trkpt>
      <trkpt lat="43.04662167" lon="-7.19296667">
        <ele>872.0</ele>
        <time>2022-06-19T13:08:04.469Z</time>
      </trkpt>
      <trkpt lat="43.04661" lon="-7.19302833">
        <ele>872.0</ele>
        <time>2022-06-19T13:08:05.487Z</time>
      </trkpt>
      <trkpt lat="43.04661" lon="-7.19302833">
        <ele>872.0</ele>
        <time>2022-06-19T13:08:06.454Z</time>
      </trkpt>
      <trkpt lat="43.04661" lon="-7.19309333">
        <ele>872.0</ele>
        <time>2022-06-19T13:08:07.478Z</time>
      </trkpt>
      <trkpt lat="43.04661" lon="-7.19309333">
        <ele>872.0</ele>
        <time>2022-06-19T13:08:08.466Z</time>
      </trkpt>
      <trkpt lat="43.046605" lon="-7.19315">
        <ele>872.0</ele>
        <time>2022-06-19T13:08:09.453Z</time>
      </trkpt>
      <trkpt lat="43.046605" lon="-7.19315">
        <ele>872.0</ele>
        <time>2022-06-19T13:08:10.459Z</time>
      </trkpt>
      <trkpt lat="43.04660333" lon="-7.19320833">
        <ele>871.0</ele>
        <time>2022-06-19T13:08:11.481Z</time>
      </trkpt>
      <trkpt lat="43.04660333" lon="-7.19324">
        <ele>871.0</ele>
        <time>2022-06-19T13:08:12.463Z</time>
      </trkpt>
      <trkpt lat="43.04660333" lon="-7.19324">
        <ele>871.0</ele>
        <time>2022-06-19T13:08:13.464Z</time>
      </trkpt>
      <trkpt lat="43.04661" lon="-7.19329667">
        <ele>870.0</ele>
        <time>2022-06-19T13:08:14.452Z</time>
      </trkpt>
      <trkpt lat="43.04661" lon="-7.19329667">
        <ele>870.0</ele>
        <time>2022-06-19T13:08:15.465Z</time>
      </trkpt>
      <trkpt lat="43.04662333" lon="-7.19335167">
        <ele>870.0</ele>
        <time>2022-06-19T13:08:16.482Z</time>
      </trkpt>
      <trkpt lat="43.04662333" lon="-7.19335167">
        <ele>870.0</ele>
        <time>2022-06-19T13:08:17.480Z</time>
      </trkpt>
      <trkpt lat="43.04663667" lon="-7.19340833">
        <ele>869.0</ele>
        <time>2022-06-19T13:08:18.460Z</time>
      </trkpt>
      <trkpt lat="43.04663667" lon="-7.19340833">
        <ele>869.0</ele>
        <time>2022-06-19T13:08:19.479Z</time>
      </trkpt>
      <trkpt lat="43.04663167" lon="-7.19346">
        <ele>869.0</ele>
        <time>2022-06-19T13:08:20.468Z</time>
      </trkpt>
      <trkpt lat="43.04663167" lon="-7.19346">
        <ele>869.0</ele>
        <time>2022-06-19T13:08:21.479Z</time>
      </trkpt>
      <trkpt lat="43.04663167" lon="-7.19352667">
        <ele>868.0</ele>
        <time>2022-06-19T13:08:22.462Z</time>
      </trkpt>
      <trkpt lat="43.04663167" lon="-7.19355833">
        <ele>868.0</ele>
        <time>2022-06-19T13:08:23.457Z</time>
      </trkpt>
      <trkpt lat="43.04663167" lon="-7.19355833">
        <ele>868.0</ele>
        <time>2022-06-19T13:08:24.473Z</time>
      </trkpt>
      <trkpt lat="43.04663667" lon="-7.19361333">
        <ele>868.0</ele>
        <time>2022-06-19T13:08:25.460Z</time>
      </trkpt>
      <trkpt lat="43.04663667" lon="-7.19361333">
        <ele>868.0</ele>
        <time>2022-06-19T13:08:26.452Z</time>
      </trkpt>
      <trkpt lat="43.04663667" lon="-7.193665">
        <ele>868.0</ele>
        <time>2022-06-19T13:08:27.487Z</time>
      </trkpt>
      <trkpt lat="43.04663667" lon="-7.193665">
        <ele>868.0</ele>
        <time>2022-06-19T13:08:28.468Z</time>
      </trkpt>
      <trkpt lat="43.046625" lon="-7.19371333">
        <ele>868.0</ele>
        <time>2022-06-19T13:08:29.492Z</time>
      </trkpt>
      <trkpt lat="43.04662167" lon="-7.193735">
        <ele>868.0</ele>
        <time>2022-06-19T13:08:30.477Z</time>
      </trkpt>
      <trkpt lat="43.04662167" lon="-7.193735">
        <ele>868.0</ele>
        <time>2022-06-19T13:08:31.453Z</time>
      </trkpt>
      <trkpt lat="43.04661833" lon="-7.19379">
        <ele>868.0</ele>
        <time>2022-06-19T13:08:32.472Z</time>
      </trkpt>
      <trkpt lat="43.04661833" lon="-7.19379">
        <ele>868.0</ele>
        <time>2022-06-19T13:08:33.466Z</time>
      </trkpt>
      <trkpt lat="43.04661833" lon="-7.19384667">
        <ele>867.0</ele>
        <time>2022-06-19T13:08:34.492Z</time>
      </trkpt>
      <trkpt lat="43.04662333" lon="-7.19387167">
        <ele>867.0</ele>
        <time>2022-06-19T13:08:35.450Z</time>
      </trkpt>
      <trkpt lat="43.04662333" lon="-7.19387167">
        <ele>867.0</ele>
        <time>2022-06-19T13:08:36.480Z</time>
      </trkpt>
      <trkpt lat="43.046625" lon="-7.19392167">
        <ele>867.0</ele>
        <time>2022-06-19T13:08:37.455Z</time>
      </trkpt>
      <trkpt lat="43.046625" lon="-7.19392167">
        <ele>867.0</ele>
        <time>2022-06-19T13:08:38.485Z</time>
      </trkpt>
      <trkpt lat="43.04661667" lon="-7.19398">
        <ele>866.0</ele>
        <time>2022-06-19T13:08:39.455Z</time>
      </trkpt>
      <trkpt lat="43.04661333" lon="-7.194005">
        <ele>866.0</ele>
        <time>2022-06-19T13:08:40.452Z</time>
      </trkpt>
      <trkpt lat="43.04661333" lon="-7.194005">
        <ele>866.0</ele>
        <time>2022-06-19T13:08:41.479Z</time>
      </trkpt>
      <trkpt lat="43.04660167" lon="-7.19406167">
        <ele>866.0</ele>
        <time>2022-06-19T13:08:42.486Z</time>
      </trkpt>
      <trkpt lat="43.04660167" lon="-7.19406167">
        <ele>866.0</ele>
        <time>2022-06-19T13:08:43.451Z</time>
      </trkpt>
      <trkpt lat="43.04658833" lon="-7.19411333">
        <ele>866.0</ele>
        <time>2022-06-19T13:08:44.487Z</time>
      </trkpt>
      <trkpt lat="43.04658" lon="-7.19414167">
        <ele>866.0</ele>
        <time>2022-06-19T13:08:45.476Z</time>
      </trkpt>
      <trkpt lat="43.04658" lon="-7.19414167">
        <ele>866.0</ele>
        <time>2022-06-19T13:08:46.470Z</time>
      </trkpt>
      <trkpt lat="43.04656" lon="-7.19419833">
        <ele>866.0</ele>
        <time>2022-06-19T13:08:47.460Z</time>
      </trkpt>
      <trkpt lat="43.04654833" lon="-7.19422333">
        <ele>866.0</ele>
        <time>2022-06-19T13:08:48.460Z</time>
      </trkpt>
      <trkpt lat="43.04654167" lon="-7.19424833">
        <ele>866.0</ele>
        <time>2022-06-19T13:08:49.460Z</time>
      </trkpt>
      <trkpt lat="43.04654167" lon="-7.19424833">
        <ele>866.0</ele>
        <time>2022-06-19T13:08:50.468Z</time>
      </trkpt>
      <trkpt lat="43.04652" lon="-7.19430833">
        <ele>866.0</ele>
        <time>2022-06-19T13:08:51.453Z</time>
      </trkpt>
      <trkpt lat="43.04652" lon="-7.19430833">
        <ele>866.0</ele>
        <time>2022-06-19T13:08:52.468Z</time>
      </trkpt>
      <trkpt lat="43.04649167" lon="-7.19437167">
        <ele>866.0</ele>
        <time>2022-06-19T13:08:53.484Z</time>
      </trkpt>
      <trkpt lat="43.04649167" lon="-7.19437167">
        <ele>866.0</ele>
        <time>2022-06-19T13:08:54.469Z</time>
      </trkpt>
      <trkpt lat="43.04646333" lon="-7.194425">
        <ele>867.0</ele>
        <time>2022-06-19T13:08:55.474Z</time>
      </trkpt>
      <trkpt lat="43.04646333" lon="-7.194425">
        <ele>867.0</ele>
        <time>2022-06-19T13:08:56.461Z</time>
      </trkpt>
      <trkpt lat="43.04644" lon="-7.19447">
        <ele>867.0</ele>
        <time>2022-06-19T13:08:57.451Z</time>
      </trkpt>
      <trkpt lat="43.04642667" lon="-7.19449167">
        <ele>867.0</ele>
        <time>2022-06-19T13:08:58.455Z</time>
      </trkpt>
      <trkpt lat="43.04642667" lon="-7.19449167">
        <ele>867.0</ele>
        <time>2022-06-19T13:08:59.454Z</time>
      </trkpt>
      <trkpt lat="43.04639833" lon="-7.194535">
        <ele>868.0</ele>
        <time>2022-06-19T13:09:00.489Z</time>
      </trkpt>
      <trkpt lat="43.04638667" lon="-7.19455667">
        <ele>868.0</ele>
        <time>2022-06-19T13:09:01.472Z</time>
      </trkpt>
      <trkpt lat="43.04638667" lon="-7.19455667">
        <ele>868.0</ele>
        <time>2022-06-19T13:09:02.455Z</time>
      </trkpt>
      <trkpt lat="43.04635667" lon="-7.19460667">
        <ele>868.0</ele>
        <time>2022-06-19T13:09:03.493Z</time>
      </trkpt>
      <trkpt lat="43.04635667" lon="-7.19460667">
        <ele>868.0</ele>
        <time>2022-06-19T13:09:04.453Z</time>
      </trkpt>
      <trkpt lat="43.04632833" lon="-7.19465">
        <ele>869.0</ele>
        <time>2022-06-19T13:09:05.482Z</time>
      </trkpt>
      <trkpt lat="43.04631333" lon="-7.19467167">
        <ele>869.0</ele>
        <time>2022-06-19T13:09:06.461Z</time>
      </trkpt>
      <trkpt lat="43.04629667" lon="-7.19469333">
        <ele>869.0</ele>
        <time>2022-06-19T13:09:07.463Z</time>
      </trkpt>
      <trkpt lat="43.04629667" lon="-7.19469333">
        <ele>869.0</ele>
        <time>2022-06-19T13:09:08.481Z</time>
      </trkpt>
      <trkpt lat="43.04626333" lon="-7.19473333">
        <ele>869.0</ele>
        <time>2022-06-19T13:09:09.458Z</time>
      </trkpt>
      <trkpt lat="43.04626333" lon="-7.19473333">
        <ele>869.0</ele>
        <time>2022-06-19T13:09:10.455Z</time>
      </trkpt>
      <trkpt lat="43.04623" lon="-7.19477167">
        <ele>870.0</ele>
        <time>2022-06-19T13:09:11.476Z</time>
      </trkpt>
      <trkpt lat="43.04621167" lon="-7.19479">
        <ele>870.0</ele>
        <time>2022-06-19T13:09:12.476Z</time>
      </trkpt>
      <trkpt lat="43.046195" lon="-7.19480667">
        <ele>870.0</ele>
        <time>2022-06-19T13:09:13.486Z</time>
      </trkpt>
      <trkpt lat="43.046195" lon="-7.19480667">
        <ele>870.0</ele>
        <time>2022-06-19T13:09:14.485Z</time>
      </trkpt>
      <trkpt lat="43.04616" lon="-7.19484167">
        <ele>870.0</ele>
        <time>2022-06-19T13:09:15.477Z</time>
      </trkpt>
      <trkpt lat="43.04616" lon="-7.19484167">
        <ele>870.0</ele>
        <time>2022-06-19T13:09:16.459Z</time>
      </trkpt>
      <trkpt lat="43.04612667" lon="-7.19487167">
        <ele>870.0</ele>
        <time>2022-06-19T13:09:17.451Z</time>
      </trkpt>
      <trkpt lat="43.04612667" lon="-7.19487167">
        <ele>870.0</ele>
        <time>2022-06-19T13:09:18.468Z</time>
      </trkpt>
      <trkpt lat="43.04609333" lon="-7.19490167">
        <ele>871.0</ele>
        <time>2022-06-19T13:09:19.490Z</time>
      </trkpt>
      <trkpt lat="43.04607333" lon="-7.19491667">
        <ele>871.0</ele>
        <time>2022-06-19T13:09:20.480Z</time>
      </trkpt>
      <trkpt lat="43.04607333" lon="-7.19491667">
        <ele>871.0</ele>
        <time>2022-06-19T13:09:21.469Z</time>
      </trkpt>
      <trkpt lat="43.04602833" lon="-7.19494833">
        <ele>871.0</ele>
        <time>2022-06-19T13:09:22.467Z</time>
      </trkpt>
      <trkpt lat="43.04602833" lon="-7.19494833">
        <ele>871.0</ele>
        <time>2022-06-19T13:09:23.456Z</time>
      </trkpt>
      <trkpt lat="43.04599333" lon="-7.19497167">
        <ele>871.0</ele>
        <time>2022-06-19T13:09:24.487Z</time>
      </trkpt>
      <trkpt lat="43.045975" lon="-7.194985">
        <ele>872.0</ele>
        <time>2022-06-19T13:09:25.489Z</time>
      </trkpt>
      <trkpt lat="43.045975" lon="-7.194985">
        <ele>872.0</ele>
        <time>2022-06-19T13:09:26.459Z</time>
      </trkpt>
      <trkpt lat="43.04593667" lon="-7.19500833">
        <ele>872.0</ele>
        <time>2022-06-19T13:09:27.494Z</time>
      </trkpt>
      <trkpt lat="43.04593667" lon="-7.19500833">
        <ele>872.0</ele>
        <time>2022-06-19T13:09:28.490Z</time>
      </trkpt>
      <trkpt lat="43.0459" lon="-7.19502333">
        <ele>873.0</ele>
        <time>2022-06-19T13:09:29.474Z</time>
      </trkpt>
      <trkpt lat="43.0459" lon="-7.19502333">
        <ele>873.0</ele>
        <time>2022-06-19T13:09:30.481Z</time>
      </trkpt>
      <trkpt lat="43.04586" lon="-7.19503667">
        <ele>874.0</ele>
        <time>2022-06-19T13:09:31.463Z</time>
      </trkpt>
      <trkpt lat="43.04586" lon="-7.19503667">
        <ele>874.0</ele>
        <time>2022-06-19T13:09:32.469Z</time>
      </trkpt>
      <trkpt lat="43.04581167" lon="-7.19505167">
        <ele>874.0</ele>
        <time>2022-06-19T13:09:33.450Z</time>
      </trkpt>
      <trkpt lat="43.04579" lon="-7.19505833">
        <ele>874.0</ele>
        <time>2022-06-19T13:09:34.450Z</time>
      </trkpt>
      <trkpt lat="43.04576667" lon="-7.19506167">
        <ele>874.0</ele>
        <time>2022-06-19T13:09:35.473Z</time>
      </trkpt>
      <trkpt lat="43.04576667" lon="-7.19506167">
        <ele>874.0</ele>
        <time>2022-06-19T13:09:36.466Z</time>
      </trkpt>
      <trkpt lat="43.04572" lon="-7.19506833">
        <ele>875.0</ele>
        <time>2022-06-19T13:09:37.488Z</time>
      </trkpt>
      <trkpt lat="43.04572" lon="-7.19506833">
        <ele>875.0</ele>
        <time>2022-06-19T13:09:38.484Z</time>
      </trkpt>
      <trkpt lat="43.04567333" lon="-7.19507667">
        <ele>876.0</ele>
        <time>2022-06-19T13:09:39.495Z</time>
      </trkpt>
      <trkpt lat="43.04567333" lon="-7.19507667">
        <ele>876.0</ele>
        <time>2022-06-19T13:09:40.478Z</time>
      </trkpt>
      <trkpt lat="43.04562667" lon="-7.19508">
        <ele>876.0</ele>
        <time>2022-06-19T13:09:41.465Z</time>
      </trkpt>
      <trkpt lat="43.04562667" lon="-7.19508">
        <ele>876.0</ele>
        <time>2022-06-19T13:09:42.470Z</time>
      </trkpt>
      <trkpt lat="43.04558" lon="-7.19508">
        <ele>876.0</ele>
        <time>2022-06-19T13:09:43.452Z</time>
      </trkpt>
      <trkpt lat="43.04558" lon="-7.19508">
        <ele>876.0</ele>
        <time>2022-06-19T13:09:44.454Z</time>
      </trkpt>
      <trkpt lat="43.045535" lon="-7.19508333">
        <ele>876.0</ele>
        <time>2022-06-19T13:09:45.474Z</time>
      </trkpt>
      <trkpt lat="43.045535" lon="-7.19508333">
        <ele>876.0</ele>
        <time>2022-06-19T13:09:46.456Z</time>
      </trkpt>
      <trkpt lat="43.04549167" lon="-7.19508667">
        <ele>876.0</ele>
        <time>2022-06-19T13:09:47.473Z</time>
      </trkpt>
      <trkpt lat="43.04549167" lon="-7.19508667">
        <ele>876.0</ele>
        <time>2022-06-19T13:09:48.486Z</time>
      </trkpt>
      <trkpt lat="43.04544833" lon="-7.195085">
        <ele>876.0</ele>
        <time>2022-06-19T13:09:49.467Z</time>
      </trkpt>
      <trkpt lat="43.04544833" lon="-7.195085">
        <ele>876.0</ele>
        <time>2022-06-19T13:09:50.477Z</time>
      </trkpt>
      <trkpt lat="43.045405" lon="-7.19507833">
        <ele>877.0</ele>
        <time>2022-06-19T13:09:51.465Z</time>
      </trkpt>
      <trkpt lat="43.045405" lon="-7.19507833">
        <ele>877.0</ele>
        <time>2022-06-19T13:09:52.452Z</time>
      </trkpt>
      <trkpt lat="43.04536167" lon="-7.19508667">
        <ele>877.0</ele>
        <time>2022-06-19T13:09:53.494Z</time>
      </trkpt>
      <trkpt lat="43.04536167" lon="-7.19508667">
        <ele>877.0</ele>
        <time>2022-06-19T13:09:54.450Z</time>
      </trkpt>
      <trkpt lat="43.04531833" lon="-7.19508833">
        <ele>877.0</ele>
        <time>2022-06-19T13:09:55.482Z</time>
      </trkpt>
      <trkpt lat="43.04531833" lon="-7.19508833">
        <ele>877.0</ele>
        <time>2022-06-19T13:09:56.478Z</time>
      </trkpt>
      <trkpt lat="43.04527333" lon="-7.19507">
        <ele>878.0</ele>
        <time>2022-06-19T13:09:57.472Z</time>
      </trkpt>
      <trkpt lat="43.04525167" lon="-7.19506667">
        <ele>878.0</ele>
        <time>2022-06-19T13:09:58.463Z</time>
      </trkpt>
      <trkpt lat="43.04525167" lon="-7.19506667">
        <ele>878.0</ele>
        <time>2022-06-19T13:09:59.483Z</time>
      </trkpt>
      <trkpt lat="43.045205" lon="-7.195045">
        <ele>878.0</ele>
        <time>2022-06-19T13:10:00.493Z</time>
      </trkpt>
      <trkpt lat="43.04518333" lon="-7.195035">
        <ele>878.0</ele>
        <time>2022-06-19T13:10:01.489Z</time>
      </trkpt>
      <trkpt lat="43.04516167" lon="-7.19502667">
        <ele>879.0</ele>
        <time>2022-06-19T13:10:02.477Z</time>
      </trkpt>
      <trkpt lat="43.04516167" lon="-7.19502667">
        <ele>879.0</ele>
        <time>2022-06-19T13:10:03.463Z</time>
      </trkpt>
      <trkpt lat="43.04511667" lon="-7.19501">
        <ele>879.0</ele>
        <time>2022-06-19T13:10:04.450Z</time>
      </trkpt>
      <trkpt lat="43.04511667" lon="-7.19501">
        <ele>879.0</ele>
        <time>2022-06-19T13:10:05.481Z</time>
      </trkpt>
      <trkpt lat="43.04507333" lon="-7.194995">
        <ele>879.0</ele>
        <time>2022-06-19T13:10:06.457Z</time>
      </trkpt>
      <trkpt lat="43.04505167" lon="-7.19499333">
        <ele>879.0</ele>
        <time>2022-06-19T13:10:07.454Z</time>
      </trkpt>
      <trkpt lat="43.04505167" lon="-7.19499333">
        <ele>879.0</ele>
        <time>2022-06-19T13:10:08.467Z</time>
      </trkpt>
      <trkpt lat="43.04500667" lon="-7.19498167">
        <ele>880.0</ele>
        <time>2022-06-19T13:10:09.485Z</time>
      </trkpt>
      <trkpt lat="43.04500667" lon="-7.19498167">
        <ele>880.0</ele>
        <time>2022-06-19T13:10:10.459Z</time>
      </trkpt>
      <trkpt lat="43.044965" lon="-7.19497667">
        <ele>880.0</ele>
        <time>2022-06-19T13:10:11.454Z</time>
      </trkpt>
      <trkpt lat="43.044965" lon="-7.19497667">
        <ele>880.0</ele>
        <time>2022-06-19T13:10:12.472Z</time>
      </trkpt>
      <trkpt lat="43.044925" lon="-7.19496833">
        <ele>880.0</ele>
        <time>2022-06-19T13:10:13.458Z</time>
      </trkpt>
      <trkpt lat="43.044925" lon="-7.19496833">
        <ele>880.0</ele>
        <time>2022-06-19T13:10:14.472Z</time>
      </trkpt>
      <trkpt lat="43.04488333" lon="-7.19495667">
        <ele>880.0</ele>
        <time>2022-06-19T13:10:15.450Z</time>
      </trkpt>
      <trkpt lat="43.04488333" lon="-7.19495667">
        <ele>880.0</ele>
        <time>2022-06-19T13:10:16.469Z</time>
      </trkpt>
      <trkpt lat="43.04484167" lon="-7.19495167">
        <ele>881.0</ele>
        <time>2022-06-19T13:10:17.486Z</time>
      </trkpt>
      <trkpt lat="43.04484167" lon="-7.19495167">
        <ele>881.0</ele>
        <time>2022-06-19T13:10:18.467Z</time>
      </trkpt>
      <trkpt lat="43.0448" lon="-7.19494167">
        <ele>881.0</ele>
        <time>2022-06-19T13:10:19.485Z</time>
      </trkpt>
      <trkpt lat="43.0448" lon="-7.19494167">
        <ele>881.0</ele>
        <time>2022-06-19T13:10:20.484Z</time>
      </trkpt>
      <trkpt lat="43.04475667" lon="-7.19493167">
        <ele>882.0</ele>
        <time>2022-06-19T13:10:21.471Z</time>
      </trkpt>
      <trkpt lat="43.04475667" lon="-7.19493167">
        <ele>882.0</ele>
        <time>2022-06-19T13:10:22.463Z</time>
      </trkpt>
      <trkpt lat="43.04471667" lon="-7.19492167">
        <ele>882.0</ele>
        <time>2022-06-19T13:10:23.489Z</time>
      </trkpt>
      <trkpt lat="43.04469333" lon="-7.19491833">
        <ele>882.0</ele>
        <time>2022-06-19T13:10:24.494Z</time>
      </trkpt>
      <trkpt lat="43.044675" lon="-7.19490833">
        <ele>882.0</ele>
        <time>2022-06-19T13:10:25.452Z</time>
      </trkpt>
      <trkpt lat="43.044675" lon="-7.19490833">
        <ele>882.0</ele>
        <time>2022-06-19T13:10:26.469Z</time>
      </trkpt>
      <trkpt lat="43.044635" lon="-7.19489833">
        <ele>883.0</ele>
        <time>2022-06-19T13:10:27.467Z</time>
      </trkpt>
      <trkpt lat="43.04461667" lon="-7.194895">
        <ele>883.0</ele>
        <time>2022-06-19T13:10:28.479Z</time>
      </trkpt>
      <trkpt lat="43.04461667" lon="-7.194895">
        <ele>883.0</ele>
        <time>2022-06-19T13:10:29.458Z</time>
      </trkpt>
      <trkpt lat="43.04457833" lon="-7.19487333">
        <ele>884.0</ele>
        <time>2022-06-19T13:10:30.487Z</time>
      </trkpt>
      <trkpt lat="43.04457833" lon="-7.19487333">
        <ele>884.0</ele>
        <time>2022-06-19T13:10:31.469Z</time>
      </trkpt>
      <trkpt lat="43.04454" lon="-7.19485833">
        <ele>884.0</ele>
        <time>2022-06-19T13:10:32.465Z</time>
      </trkpt>
      <trkpt lat="43.04454" lon="-7.19485833">
        <ele>884.0</ele>
        <time>2022-06-19T13:10:33.450Z</time>
      </trkpt>
      <trkpt lat="43.0445" lon="-7.19485">
        <ele>885.0</ele>
        <time>2022-06-19T13:10:34.467Z</time>
      </trkpt>
      <trkpt lat="43.0445" lon="-7.19485">
        <ele>885.0</ele>
        <time>2022-06-19T13:10:35.483Z</time>
      </trkpt>
      <trkpt lat="43.04445833" lon="-7.19484167">
        <ele>885.0</ele>
        <time>2022-06-19T13:10:36.477Z</time>
      </trkpt>
      <trkpt lat="43.04443667" lon="-7.19483667">
        <ele>886.0</ele>
        <time>2022-06-19T13:10:37.454Z</time>
      </trkpt>
      <trkpt lat="43.04443667" lon="-7.19483667">
        <ele>886.0</ele>
        <time>2022-06-19T13:10:38.478Z</time>
      </trkpt>
      <trkpt lat="43.044395" lon="-7.19482333">
        <ele>886.0</ele>
        <time>2022-06-19T13:10:39.467Z</time>
      </trkpt>
      <trkpt lat="43.044395" lon="-7.19482333">
        <ele>886.0</ele>
        <time>2022-06-19T13:10:40.454Z</time>
      </trkpt>
      <trkpt lat="43.04435" lon="-7.19481">
        <ele>887.0</ele>
        <time>2022-06-19T13:10:41.482Z</time>
      </trkpt>
      <trkpt lat="43.04435" lon="-7.19481">
        <ele>887.0</ele>
        <time>2022-06-19T13:10:42.486Z</time>
      </trkpt>
      <trkpt lat="43.04430833" lon="-7.1948">
        <ele>887.0</ele>
        <time>2022-06-19T13:10:43.490Z</time>
      </trkpt>
      <trkpt lat="43.04430833" lon="-7.1948">
        <ele>887.0</ele>
        <time>2022-06-19T13:10:44.461Z</time>
      </trkpt>
      <trkpt lat="43.044265" lon="-7.19478833">
        <ele>888.0</ele>
        <time>2022-06-19T13:10:45.464Z</time>
      </trkpt>
      <trkpt lat="43.044245" lon="-7.19478333">
        <ele>888.0</ele>
        <time>2022-06-19T13:10:46.490Z</time>
      </trkpt>
      <trkpt lat="43.044245" lon="-7.19478333">
        <ele>888.0</ele>
        <time>2022-06-19T13:10:47.481Z</time>
      </trkpt>
      <trkpt lat="43.04420167" lon="-7.19477167">
        <ele>889.0</ele>
        <time>2022-06-19T13:10:48.471Z</time>
      </trkpt>
      <trkpt lat="43.04418" lon="-7.194765">
        <ele>889.0</ele>
        <time>2022-06-19T13:10:49.471Z</time>
      </trkpt>
      <trkpt lat="43.04418" lon="-7.194765">
        <ele>889.0</ele>
        <time>2022-06-19T13:10:50.456Z</time>
      </trkpt>
      <trkpt lat="43.04414333" lon="-7.19475333">
        <ele>890.0</ele>
        <time>2022-06-19T13:10:51.476Z</time>
      </trkpt>
      <trkpt lat="43.04414333" lon="-7.19475333">
        <ele>890.0</ele>
        <time>2022-06-19T13:10:52.468Z</time>
      </trkpt>
      <trkpt lat="43.04410167" lon="-7.194735">
        <ele>890.0</ele>
        <time>2022-06-19T13:10:53.457Z</time>
      </trkpt>
      <trkpt lat="43.04408333" lon="-7.19472667">
        <ele>891.0</ele>
        <time>2022-06-19T13:10:54.455Z</time>
      </trkpt>
      <trkpt lat="43.04405667" lon="-7.19470833">
        <ele>891.0</ele>
        <time>2022-06-19T13:10:55.469Z</time>
      </trkpt>
      <trkpt lat="43.04403667" lon="-7.194705">
        <ele>892.0</ele>
        <time>2022-06-19T13:10:56.466Z</time>
      </trkpt>
      <trkpt lat="43.04403667" lon="-7.194705">
        <ele>892.0</ele>
        <time>2022-06-19T13:10:57.453Z</time>
      </trkpt>
      <trkpt lat="43.04399833" lon="-7.194695">
        <ele>892.0</ele>
        <time>2022-06-19T13:10:58.472Z</time>
      </trkpt>
      <trkpt lat="43.04399833" lon="-7.194695">
        <ele>892.0</ele>
        <time>2022-06-19T13:10:59.452Z</time>
      </trkpt>
      <trkpt lat="43.04396" lon="-7.19468167">
        <ele>893.0</ele>
        <time>2022-06-19T13:11:00.481Z</time>
      </trkpt>
      <trkpt lat="43.04394333" lon="-7.194675">
        <ele>893.0</ele>
        <time>2022-06-19T13:11:01.480Z</time>
      </trkpt>
      <trkpt lat="43.04394333" lon="-7.194675">
        <ele>893.0</ele>
        <time>2022-06-19T13:11:02.452Z</time>
      </trkpt>
      <trkpt lat="43.04390167" lon="-7.19466667">
        <ele>894.0</ele>
        <time>2022-06-19T13:11:03.473Z</time>
      </trkpt>
      <trkpt lat="43.04390167" lon="-7.19466667">
        <ele>894.0</ele>
        <time>2022-06-19T13:11:04.459Z</time>
      </trkpt>
      <trkpt lat="43.043865" lon="-7.19465833">
        <ele>894.0</ele>
        <time>2022-06-19T13:11:05.474Z</time>
      </trkpt>
      <trkpt lat="43.043845" lon="-7.19465333">
        <ele>895.0</ele>
        <time>2022-06-19T13:11:06.460Z</time>
      </trkpt>
      <trkpt lat="43.043845" lon="-7.19465333">
        <ele>895.0</ele>
        <time>2022-06-19T13:11:07.451Z</time>
      </trkpt>
      <trkpt lat="43.0438" lon="-7.19464">
        <ele>895.0</ele>
        <time>2022-06-19T13:11:08.482Z</time>
      </trkpt>
      <trkpt lat="43.0438" lon="-7.19464">
        <ele>895.0</ele>
        <time>2022-06-19T13:11:09.461Z</time>
      </trkpt>
      <trkpt lat="43.04375833" lon="-7.19463">
        <ele>896.0</ele>
        <time>2022-06-19T13:11:10.467Z</time>
      </trkpt>
      <trkpt lat="43.04375833" lon="-7.19463">
        <ele>896.0</ele>
        <time>2022-06-19T13:11:11.481Z</time>
      </trkpt>
      <trkpt lat="43.043715" lon="-7.19461833">
        <ele>897.0</ele>
        <time>2022-06-19T13:11:12.464Z</time>
      </trkpt>
      <trkpt lat="43.043715" lon="-7.19461833">
        <ele>897.0</ele>
        <time>2022-06-19T13:11:13.460Z</time>
      </trkpt>
      <trkpt lat="43.04368" lon="-7.19460667">
        <ele>897.0</ele>
        <time>2022-06-19T13:11:14.486Z</time>
      </trkpt>
      <trkpt lat="43.04368" lon="-7.19460667">
        <ele>897.0</ele>
        <time>2022-06-19T13:11:15.461Z</time>
      </trkpt>
      <trkpt lat="43.04364167" lon="-7.194595">
        <ele>898.0</ele>
        <time>2022-06-19T13:11:16.489Z</time>
      </trkpt>
      <trkpt lat="43.04364167" lon="-7.194595">
        <ele>898.0</ele>
        <time>2022-06-19T13:11:17.481Z</time>
      </trkpt>
      <trkpt lat="43.043605" lon="-7.19458167">
        <ele>899.0</ele>
        <time>2022-06-19T13:11:18.476Z</time>
      </trkpt>
      <trkpt lat="43.043605" lon="-7.19458167">
        <ele>899.0</ele>
        <time>2022-06-19T13:11:19.477Z</time>
      </trkpt>
      <trkpt lat="43.04356167" lon="-7.19457">
        <ele>900.0</ele>
        <time>2022-06-19T13:11:20.456Z</time>
      </trkpt>
      <trkpt lat="43.04356167" lon="-7.19457">
        <ele>900.0</ele>
        <time>2022-06-19T13:11:21.459Z</time>
      </trkpt>
      <trkpt lat="43.04352167" lon="-7.19456167">
        <ele>901.0</ele>
        <time>2022-06-19T13:11:22.479Z</time>
      </trkpt>
      <trkpt lat="43.04352167" lon="-7.19456167">
        <ele>901.0</ele>
        <time>2022-06-19T13:11:23.469Z</time>
      </trkpt>
      <trkpt lat="43.04348167" lon="-7.19455">
        <ele>901.0</ele>
        <time>2022-06-19T13:11:24.457Z</time>
      </trkpt>
      <trkpt lat="43.04346167" lon="-7.19453833">
        <ele>902.0</ele>
        <time>2022-06-19T13:11:25.450Z</time>
      </trkpt>
      <trkpt lat="43.04346167" lon="-7.19453833">
        <ele>902.0</ele>
        <time>2022-06-19T13:11:26.468Z</time>
      </trkpt>
      <trkpt lat="43.04341333" lon="-7.19452833">
        <ele>903.0</ele>
        <time>2022-06-19T13:11:27.476Z</time>
      </trkpt>
      <trkpt lat="43.04338833" lon="-7.19452667">
        <ele>903.0</ele>
        <time>2022-06-19T13:11:28.464Z</time>
      </trkpt>
      <trkpt lat="43.04338833" lon="-7.19452667">
        <ele>903.0</ele>
        <time>2022-06-19T13:11:29.464Z</time>
      </trkpt>
      <trkpt lat="43.04334" lon="-7.19451833">
        <ele>904.0</ele>
        <time>2022-06-19T13:11:30.453Z</time>
      </trkpt>
      <trkpt lat="43.04331833" lon="-7.19451">
        <ele>904.0</ele>
        <time>2022-06-19T13:11:31.482Z</time>
      </trkpt>
      <trkpt lat="43.04331833" lon="-7.19451">
        <ele>904.0</ele>
        <time>2022-06-19T13:11:32.464Z</time>
      </trkpt>
      <trkpt lat="43.04327833" lon="-7.19449833">
        <ele>904.0</ele>
        <time>2022-06-19T13:11:33.458Z</time>
      </trkpt>
      <trkpt lat="43.04327833" lon="-7.19449833">
        <ele>904.0</ele>
        <time>2022-06-19T13:11:34.476Z</time>
      </trkpt>
      <trkpt lat="43.04323167" lon="-7.19448">
        <ele>905.0</ele>
        <time>2022-06-19T13:11:35.472Z</time>
      </trkpt>
      <trkpt lat="43.04323167" lon="-7.19448">
        <ele>905.0</ele>
        <time>2022-06-19T13:11:36.468Z</time>
      </trkpt>
      <trkpt lat="43.04318833" lon="-7.194465">
        <ele>906.0</ele>
        <time>2022-06-19T13:11:37.461Z</time>
      </trkpt>
      <trkpt lat="43.04318833" lon="-7.194465">
        <ele>906.0</ele>
        <time>2022-06-19T13:11:38.462Z</time>
      </trkpt>
      <trkpt lat="43.04314667" lon="-7.194455">
        <ele>906.0</ele>
        <time>2022-06-19T13:11:39.451Z</time>
      </trkpt>
      <trkpt lat="43.04312333" lon="-7.19444667">
        <ele>906.0</ele>
        <time>2022-06-19T13:11:40.492Z</time>
      </trkpt>
      <trkpt lat="43.04312333" lon="-7.19444667">
        <ele>906.0</ele>
        <time>2022-06-19T13:11:41.466Z</time>
      </trkpt>
      <trkpt lat="43.04307833" lon="-7.19443667">
        <ele>907.0</ele>
        <time>2022-06-19T13:11:42.452Z</time>
      </trkpt>
      <trkpt lat="43.04305833" lon="-7.19443333">
        <ele>907.0</ele>
        <time>2022-06-19T13:11:43.485Z</time>
      </trkpt>
      <trkpt lat="43.04305833" lon="-7.19443333">
        <ele>907.0</ele>
        <time>2022-06-19T13:11:44.468Z</time>
      </trkpt>
      <trkpt lat="43.043025" lon="-7.194425">
        <ele>907.0</ele>
        <time>2022-06-19T13:11:45.468Z</time>
      </trkpt>
      <trkpt lat="43.043025" lon="-7.194425">
        <ele>907.0</ele>
        <time>2022-06-19T13:11:46.485Z</time>
      </trkpt>
      <trkpt lat="43.042985" lon="-7.19441833">
        <ele>908.0</ele>
        <time>2022-06-19T13:11:47.468Z</time>
      </trkpt>
      <trkpt lat="43.042965" lon="-7.19441833">
        <ele>908.0</ele>
        <time>2022-06-19T13:11:48.480Z</time>
      </trkpt>
      <trkpt lat="43.042945" lon="-7.19441667">
        <ele>909.0</ele>
        <time>2022-06-19T13:11:49.456Z</time>
      </trkpt>
      <trkpt lat="43.042945" lon="-7.19441667">
        <ele>909.0</ele>
        <time>2022-06-19T13:11:50.485Z</time>
      </trkpt>
      <trkpt lat="43.042905" lon="-7.19441333">
        <ele>910.0</ele>
        <time>2022-06-19T13:11:51.481Z</time>
      </trkpt>
      <trkpt lat="43.042905" lon="-7.19441333">
        <ele>910.0</ele>
        <time>2022-06-19T13:11:52.489Z</time>
      </trkpt>
      <trkpt lat="43.04286167" lon="-7.19441333">
        <ele>911.0</ele>
        <time>2022-06-19T13:11:53.467Z</time>
      </trkpt>
      <trkpt lat="43.04284" lon="-7.194415">
        <ele>911.0</ele>
        <time>2022-06-19T13:11:54.480Z</time>
      </trkpt>
      <trkpt lat="43.04284" lon="-7.194415">
        <ele>911.0</ele>
        <time>2022-06-19T13:11:55.478Z</time>
      </trkpt>
      <trkpt lat="43.042795" lon="-7.19442167">
        <ele>912.0</ele>
        <time>2022-06-19T13:11:56.463Z</time>
      </trkpt>
      <trkpt lat="43.042795" lon="-7.19442167">
        <ele>912.0</ele>
        <time>2022-06-19T13:11:57.487Z</time>
      </trkpt>
      <trkpt lat="43.042745" lon="-7.19443">
        <ele>913.0</ele>
        <time>2022-06-19T13:11:58.467Z</time>
      </trkpt>
      <trkpt lat="43.042745" lon="-7.19443">
        <ele>913.0</ele>
        <time>2022-06-19T13:11:59.459Z</time>
      </trkpt>
      <trkpt lat="43.042695" lon="-7.19444667">
        <ele>913.0</ele>
        <time>2022-06-19T13:12:00.478Z</time>
      </trkpt>
      <trkpt lat="43.04266667" lon="-7.19445833">
        <ele>913.0</ele>
        <time>2022-06-19T13:12:01.481Z</time>
      </trkpt>
      <trkpt lat="43.04266667" lon="-7.19445833">
        <ele>913.0</ele>
        <time>2022-06-19T13:12:02.460Z</time>
      </trkpt>
      <trkpt lat="43.042615" lon="-7.194475">
        <ele>912.0</ele>
        <time>2022-06-19T13:12:03.472Z</time>
      </trkpt>
      <trkpt lat="43.042615" lon="-7.194475">
        <ele>912.0</ele>
        <time>2022-06-19T13:12:04.485Z</time>
      </trkpt>
      <trkpt lat="43.042575" lon="-7.19449667">
        <ele>912.0</ele>
        <time>2022-06-19T13:12:05.473Z</time>
      </trkpt>
      <trkpt lat="43.042555" lon="-7.19450667">
        <ele>912.0</ele>
        <time>2022-06-19T13:12:06.483Z</time>
      </trkpt>
      <trkpt lat="43.042555" lon="-7.19450667">
        <ele>912.0</ele>
        <time>2022-06-19T13:12:07.480Z</time>
      </trkpt>
      <trkpt lat="43.04251167" lon="-7.19452667">
        <ele>912.0</ele>
        <time>2022-06-19T13:12:08.460Z</time>
      </trkpt>
      <trkpt lat="43.04248833" lon="-7.19453833">
        <ele>911.0</ele>
        <time>2022-06-19T13:12:09.455Z</time>
      </trkpt>
      <trkpt lat="43.04248833" lon="-7.19453833">
        <ele>911.0</ele>
        <time>2022-06-19T13:12:10.460Z</time>
      </trkpt>
      <trkpt lat="43.04244333" lon="-7.19457">
        <ele>911.0</ele>
        <time>2022-06-19T13:12:11.477Z</time>
      </trkpt>
      <trkpt lat="43.04242333" lon="-7.194585">
        <ele>911.0</ele>
        <time>2022-06-19T13:12:12.485Z</time>
      </trkpt>
      <trkpt lat="43.04240333" lon="-7.19459833">
        <ele>911.0</ele>
        <time>2022-06-19T13:12:13.468Z</time>
      </trkpt>
      <trkpt lat="43.04240333" lon="-7.19459833">
        <ele>911.0</ele>
        <time>2022-06-19T13:12:14.469Z</time>
      </trkpt>
      <trkpt lat="43.04237" lon="-7.194625">
        <ele>911.0</ele>
        <time>2022-06-19T13:12:15.495Z</time>
      </trkpt>
      <trkpt lat="43.04235167" lon="-7.19463667">
        <ele>911.0</ele>
        <time>2022-06-19T13:12:16.463Z</time>
      </trkpt>
      <trkpt lat="43.04235167" lon="-7.19463667">
        <ele>911.0</ele>
        <time>2022-06-19T13:12:17.461Z</time>
      </trkpt>
      <trkpt lat="43.04231333" lon="-7.19467">
        <ele>911.0</ele>
        <time>2022-06-19T13:12:18.473Z</time>
      </trkpt>
      <trkpt lat="43.04229667" lon="-7.19468667">
        <ele>911.0</ele>
        <time>2022-06-19T13:12:19.482Z</time>
      </trkpt>
      <trkpt lat="43.04229667" lon="-7.19468667">
        <ele>911.0</ele>
        <time>2022-06-19T13:12:20.468Z</time>
      </trkpt>
      <trkpt lat="43.04226833" lon="-7.19472167">
        <ele>911.0</ele>
        <time>2022-06-19T13:12:21.490Z</time>
      </trkpt>
      <trkpt lat="43.04225667" lon="-7.194735">
        <ele>911.0</ele>
        <time>2022-06-19T13:12:22.474Z</time>
      </trkpt>
      <trkpt lat="43.04225667" lon="-7.194735">
        <ele>911.0</ele>
        <time>2022-06-19T13:12:23.462Z</time>
      </trkpt>
      <trkpt lat="43.04222833" lon="-7.19476">
        <ele>911.0</ele>
        <time>2022-06-19T13:12:24.489Z</time>
      </trkpt>
      <trkpt lat="43.04222833" lon="-7.19476">
        <ele>911.0</ele>
        <time>2022-06-19T13:12:25.460Z</time>
      </trkpt>
      <trkpt lat="43.0422" lon="-7.19479167">
        <ele>911.0</ele>
        <time>2022-06-19T13:12:26.489Z</time>
      </trkpt>
      <trkpt lat="43.0422" lon="-7.19479167">
        <ele>911.0</ele>
        <time>2022-06-19T13:12:27.480Z</time>
      </trkpt>
      <trkpt lat="43.042155" lon="-7.19483167">
        <ele>911.0</ele>
        <time>2022-06-19T13:12:28.493Z</time>
      </trkpt>
      <trkpt lat="43.04214" lon="-7.19484667">
        <ele>911.0</ele>
        <time>2022-06-19T13:12:29.451Z</time>
      </trkpt>
      <trkpt lat="43.04214" lon="-7.19484667">
        <ele>911.0</ele>
        <time>2022-06-19T13:12:30.479Z</time>
      </trkpt>
      <trkpt lat="43.04210833" lon="-7.19488167">
        <ele>911.0</ele>
        <time>2022-06-19T13:12:31.484Z</time>
      </trkpt>
      <trkpt lat="43.04210833" lon="-7.19488167">
        <ele>911.0</ele>
        <time>2022-06-19T13:12:32.469Z</time>
      </trkpt>
      <trkpt lat="43.04208167" lon="-7.19491333">
        <ele>910.0</ele>
        <time>2022-06-19T13:12:33.459Z</time>
      </trkpt>
      <trkpt lat="43.04208167" lon="-7.19491333">
        <ele>910.0</ele>
        <time>2022-06-19T13:12:34.453Z</time>
      </trkpt>
      <trkpt lat="43.04205333" lon="-7.19494333">
        <ele>910.0</ele>
        <time>2022-06-19T13:12:35.468Z</time>
      </trkpt>
      <trkpt lat="43.04205333" lon="-7.19494333">
        <ele>910.0</ele>
        <time>2022-06-19T13:12:36.457Z</time>
      </trkpt>
      <trkpt lat="43.04202667" lon="-7.194975">
        <ele>910.0</ele>
        <time>2022-06-19T13:12:37.473Z</time>
      </trkpt>
      <trkpt lat="43.04202667" lon="-7.194975">
        <ele>910.0</ele>
        <time>2022-06-19T13:12:38.464Z</time>
      </trkpt>
      <trkpt lat="43.042" lon="-7.19500833">
        <ele>910.0</ele>
        <time>2022-06-19T13:12:39.467Z</time>
      </trkpt>
      <trkpt lat="43.04198333" lon="-7.19502333">
        <ele>910.0</ele>
        <time>2022-06-19T13:12:40.471Z</time>
      </trkpt>
      <trkpt lat="43.04198333" lon="-7.19502333">
        <ele>910.0</ele>
        <time>2022-06-19T13:12:41.465Z</time>
      </trkpt>
      <trkpt lat="43.04195333" lon="-7.195055">
        <ele>910.0</ele>
        <time>2022-06-19T13:12:42.463Z</time>
      </trkpt>
      <trkpt lat="43.04193833" lon="-7.19507">
        <ele>910.0</ele>
        <time>2022-06-19T13:12:43.467Z</time>
      </trkpt>
      <trkpt lat="43.04193833" lon="-7.19507">
        <ele>910.0</ele>
        <time>2022-06-19T13:12:44.471Z</time>
      </trkpt>
      <trkpt lat="43.04190833" lon="-7.19510333">
        <ele>910.0</ele>
        <time>2022-06-19T13:12:45.475Z</time>
      </trkpt>
      <trkpt lat="43.04189167" lon="-7.19511667">
        <ele>910.0</ele>
        <time>2022-06-19T13:12:46.456Z</time>
      </trkpt>
      <trkpt lat="43.04189167" lon="-7.19511667">
        <ele>910.0</ele>
        <time>2022-06-19T13:12:47.470Z</time>
      </trkpt>
      <trkpt lat="43.04186333" lon="-7.19515">
        <ele>910.0</ele>
        <time>2022-06-19T13:12:48.481Z</time>
      </trkpt>
      <trkpt lat="43.04186333" lon="-7.19515">
        <ele>910.0</ele>
        <time>2022-06-19T13:12:49.460Z</time>
      </trkpt>
      <trkpt lat="43.04183333" lon="-7.19518833">
        <ele>910.0</ele>
        <time>2022-06-19T13:12:50.473Z</time>
      </trkpt>
      <trkpt lat="43.04183333" lon="-7.19518833">
        <ele>910.0</ele>
        <time>2022-06-19T13:12:51.487Z</time>
      </trkpt>
      <trkpt lat="43.04179667" lon="-7.19521167">
        <ele>910.0</ele>
        <time>2022-06-19T13:12:52.492Z</time>
      </trkpt>
      <trkpt lat="43.04177833" lon="-7.19522167">
        <ele>910.0</ele>
        <time>2022-06-19T13:12:53.470Z</time>
      </trkpt>
      <trkpt lat="43.04177833" lon="-7.19522167">
        <ele>910.0</ele>
        <time>2022-06-19T13:12:54.468Z</time>
      </trkpt>
      <trkpt lat="43.04174" lon="-7.19524667">
        <ele>910.0</ele>
        <time>2022-06-19T13:12:55.479Z</time>
      </trkpt>
      <trkpt lat="43.04174" lon="-7.19524667">
        <ele>910.0</ele>
        <time>2022-06-19T13:12:56.469Z</time>
      </trkpt>
      <trkpt lat="43.041705" lon="-7.19527667">
        <ele>911.0</ele>
        <time>2022-06-19T13:12:57.467Z</time>
      </trkpt>
      <trkpt lat="43.04168667" lon="-7.19529167">
        <ele>911.0</ele>
        <time>2022-06-19T13:12:58.479Z</time>
      </trkpt>
      <trkpt lat="43.04166833" lon="-7.19531167">
        <ele>911.0</ele>
        <time>2022-06-19T13:12:59.486Z</time>
      </trkpt>
      <trkpt lat="43.04166833" lon="-7.19531167">
        <ele>911.0</ele>
        <time>2022-06-19T13:13:00.452Z</time>
      </trkpt>
      <trkpt lat="43.04162833" lon="-7.19533833">
        <ele>911.0</ele>
        <time>2022-06-19T13:13:01.485Z</time>
      </trkpt>
      <trkpt lat="43.04162833" lon="-7.19533833">
        <ele>911.0</ele>
        <time>2022-06-19T13:13:02.464Z</time>
      </trkpt>
      <trkpt lat="43.04159333" lon="-7.19536333">
        <ele>911.0</ele>
        <time>2022-06-19T13:13:03.476Z</time>
      </trkpt>
      <trkpt lat="43.041575" lon="-7.19537333">
        <ele>911.0</ele>
        <time>2022-06-19T13:13:04.487Z</time>
      </trkpt>
      <trkpt lat="43.041575" lon="-7.19537333">
        <ele>911.0</ele>
        <time>2022-06-19T13:13:05.471Z</time>
      </trkpt>
      <trkpt lat="43.041535" lon="-7.19539">
        <ele>912.0</ele>
        <time>2022-06-19T13:13:06.467Z</time>
      </trkpt>
      <trkpt lat="43.04151167" lon="-7.19539667">
        <ele>912.0</ele>
        <time>2022-06-19T13:13:07.452Z</time>
      </trkpt>
      <trkpt lat="43.04151167" lon="-7.19539667">
        <ele>912.0</ele>
        <time>2022-06-19T13:13:08.474Z</time>
      </trkpt>
      <trkpt lat="43.04146833" lon="-7.19541167">
        <ele>912.0</ele>
        <time>2022-06-19T13:13:09.458Z</time>
      </trkpt>
      <trkpt lat="43.04146833" lon="-7.19541167">
        <ele>912.0</ele>
        <time>2022-06-19T13:13:10.478Z</time>
      </trkpt>
      <trkpt lat="43.041425" lon="-7.19543667">
        <ele>913.0</ele>
        <time>2022-06-19T13:13:11.462Z</time>
      </trkpt>
      <trkpt lat="43.04140333" lon="-7.19544833">
        <ele>913.0</ele>
        <time>2022-06-19T13:13:12.482Z</time>
      </trkpt>
      <trkpt lat="43.04138167" lon="-7.19545667">
        <ele>913.0</ele>
        <time>2022-06-19T13:13:13.451Z</time>
      </trkpt>
      <trkpt lat="43.04138167" lon="-7.19545667">
        <ele>913.0</ele>
        <time>2022-06-19T13:13:14.482Z</time>
      </trkpt>
      <trkpt lat="43.04134" lon="-7.19547833">
        <ele>913.0</ele>
        <time>2022-06-19T13:13:15.457Z</time>
      </trkpt>
      <trkpt lat="43.04134" lon="-7.19547833">
        <ele>913.0</ele>
        <time>2022-06-19T13:13:16.475Z</time>
      </trkpt>
      <trkpt lat="43.04129833" lon="-7.19549333">
        <ele>914.0</ele>
        <time>2022-06-19T13:13:17.461Z</time>
      </trkpt>
      <trkpt lat="43.04127833" lon="-7.19549833">
        <ele>914.0</ele>
        <time>2022-06-19T13:13:18.457Z</time>
      </trkpt>
      <trkpt lat="43.04127833" lon="-7.19549833">
        <ele>914.0</ele>
        <time>2022-06-19T13:13:19.484Z</time>
      </trkpt>
      <trkpt lat="43.04123167" lon="-7.19550833">
        <ele>915.0</ele>
        <time>2022-06-19T13:13:20.457Z</time>
      </trkpt>
      <trkpt lat="43.04121" lon="-7.19551167">
        <ele>915.0</ele>
        <time>2022-06-19T13:13:21.478Z</time>
      </trkpt>
      <trkpt lat="43.04118667" lon="-7.195515">
        <ele>915.0</ele>
        <time>2022-06-19T13:13:22.485Z</time>
      </trkpt>
      <trkpt lat="43.04118667" lon="-7.195515">
        <ele>915.0</ele>
        <time>2022-06-19T13:13:23.465Z</time>
      </trkpt>
      <trkpt lat="43.04114333" lon="-7.19552667">
        <ele>916.0</ele>
        <time>2022-06-19T13:13:24.458Z</time>
      </trkpt>
      <trkpt lat="43.04114333" lon="-7.19552667">
        <ele>916.0</ele>
        <time>2022-06-19T13:13:25.468Z</time>
      </trkpt>
      <trkpt lat="43.04109667" lon="-7.19553333">
        <ele>916.0</ele>
        <time>2022-06-19T13:13:26.456Z</time>
      </trkpt>
      <trkpt lat="43.04109667" lon="-7.19553333">
        <ele>916.0</ele>
        <time>2022-06-19T13:13:27.469Z</time>
      </trkpt>
      <trkpt lat="43.04105333" lon="-7.19554167">
        <ele>917.0</ele>
        <time>2022-06-19T13:13:28.454Z</time>
      </trkpt>
      <trkpt lat="43.04105333" lon="-7.19554167">
        <ele>917.0</ele>
        <time>2022-06-19T13:13:29.469Z</time>
      </trkpt>
      <trkpt lat="43.04100833" lon="-7.19554833">
        <ele>917.0</ele>
        <time>2022-06-19T13:13:30.487Z</time>
      </trkpt>
      <trkpt lat="43.04098667" lon="-7.19555833">
        <ele>917.0</ele>
        <time>2022-06-19T13:13:31.488Z</time>
      </trkpt>
      <trkpt lat="43.04098667" lon="-7.19555833">
        <ele>917.0</ele>
        <time>2022-06-19T13:13:32.480Z</time>
      </trkpt>
      <trkpt lat="43.04093667" lon="-7.19557">
        <ele>918.0</ele>
        <time>2022-06-19T13:13:33.456Z</time>
      </trkpt>
      <trkpt lat="43.04091" lon="-7.19557667">
        <ele>918.0</ele>
        <time>2022-06-19T13:13:34.467Z</time>
      </trkpt>
      <trkpt lat="43.04091" lon="-7.19557667">
        <ele>918.0</ele>
        <time>2022-06-19T13:13:35.470Z</time>
      </trkpt>
      <trkpt lat="43.04086833" lon="-7.19558333">
        <ele>919.0</ele>
        <time>2022-06-19T13:13:36.461Z</time>
      </trkpt>
      <trkpt lat="43.04084667" lon="-7.19558833">
        <ele>920.0</ele>
        <time>2022-06-19T13:13:37.460Z</time>
      </trkpt>
      <trkpt lat="43.04084667" lon="-7.19558833">
        <ele>920.0</ele>
        <time>2022-06-19T13:13:38.458Z</time>
      </trkpt>
      <trkpt lat="43.0408" lon="-7.19559333">
        <ele>921.0</ele>
        <time>2022-06-19T13:13:39.456Z</time>
      </trkpt>
      <trkpt lat="43.0408" lon="-7.19559333">
        <ele>921.0</ele>
        <time>2022-06-19T13:13:40.474Z</time>
      </trkpt>
      <trkpt lat="43.04075167" lon="-7.19560167">
        <ele>921.0</ele>
        <time>2022-06-19T13:13:41.464Z</time>
      </trkpt>
      <trkpt lat="43.04075167" lon="-7.19560167">
        <ele>921.0</ele>
        <time>2022-06-19T13:13:42.485Z</time>
      </trkpt>
      <trkpt lat="43.040705" lon="-7.19561167">
        <ele>922.0</ele>
        <time>2022-06-19T13:13:43.475Z</time>
      </trkpt>
      <trkpt lat="43.040705" lon="-7.19561167">
        <ele>922.0</ele>
        <time>2022-06-19T13:13:44.477Z</time>
      </trkpt>
      <trkpt lat="43.04065833" lon="-7.19562167">
        <ele>922.0</ele>
        <time>2022-06-19T13:13:45.453Z</time>
      </trkpt>
      <trkpt lat="43.04065833" lon="-7.19562167">
        <ele>922.0</ele>
        <time>2022-06-19T13:13:46.469Z</time>
      </trkpt>
      <trkpt lat="43.04061" lon="-7.19563167">
        <ele>923.0</ele>
        <time>2022-06-19T13:13:47.457Z</time>
      </trkpt>
      <trkpt lat="43.04061" lon="-7.19563167">
        <ele>923.0</ele>
        <time>2022-06-19T13:13:48.458Z</time>
      </trkpt>
      <trkpt lat="43.040565" lon="-7.19563833">
        <ele>924.0</ele>
        <time>2022-06-19T13:13:49.452Z</time>
      </trkpt>
      <trkpt lat="43.040565" lon="-7.19563833">
        <ele>924.0</ele>
        <time>2022-06-19T13:13:50.465Z</time>
      </trkpt>
      <trkpt lat="43.04052" lon="-7.19565">
        <ele>924.0</ele>
        <time>2022-06-19T13:13:51.461Z</time>
      </trkpt>
      <trkpt lat="43.04052" lon="-7.19565">
        <ele>924.0</ele>
        <time>2022-06-19T13:13:52.469Z</time>
      </trkpt>
      <trkpt lat="43.04047667" lon="-7.19566167">
        <ele>925.0</ele>
        <time>2022-06-19T13:13:53.479Z</time>
      </trkpt>
      <trkpt lat="43.04047667" lon="-7.19566167">
        <ele>925.0</ele>
        <time>2022-06-19T13:13:54.490Z</time>
      </trkpt>
      <trkpt lat="43.04043333" lon="-7.195675">
        <ele>926.0</ele>
        <time>2022-06-19T13:13:55.474Z</time>
      </trkpt>
      <trkpt lat="43.04043333" lon="-7.195675">
        <ele>926.0</ele>
        <time>2022-06-19T13:13:56.458Z</time>
      </trkpt>
      <trkpt lat="43.04039" lon="-7.195695">
        <ele>925.0</ele>
        <time>2022-06-19T13:13:57.489Z</time>
      </trkpt>
      <trkpt lat="43.04039" lon="-7.195695">
        <ele>925.0</ele>
        <time>2022-06-19T13:13:58.457Z</time>
      </trkpt>
      <trkpt lat="43.04034333" lon="-7.19571">
        <ele>925.0</ele>
        <time>2022-06-19T13:13:59.487Z</time>
      </trkpt>
      <trkpt lat="43.04034333" lon="-7.19571">
        <ele>925.0</ele>
        <time>2022-06-19T13:14:00.469Z</time>
      </trkpt>
      <trkpt lat="43.040295" lon="-7.19572833">
        <ele>925.0</ele>
        <time>2022-06-19T13:14:01.458Z</time>
      </trkpt>
      <trkpt lat="43.040295" lon="-7.19572833">
        <ele>925.0</ele>
        <time>2022-06-19T13:14:02.455Z</time>
      </trkpt>
      <trkpt lat="43.04025167" lon="-7.19574333">
        <ele>925.0</ele>
        <time>2022-06-19T13:14:03.453Z</time>
      </trkpt>
      <trkpt lat="43.04023" lon="-7.19575167">
        <ele>925.0</ele>
        <time>2022-06-19T13:14:04.484Z</time>
      </trkpt>
      <trkpt lat="43.04021333" lon="-7.19576">
        <ele>925.0</ele>
        <time>2022-06-19T13:14:05.478Z</time>
      </trkpt>
      <trkpt lat="43.04021333" lon="-7.19576">
        <ele>925.0</ele>
        <time>2022-06-19T13:14:06.465Z</time>
      </trkpt>
      <trkpt lat="43.04017833" lon="-7.19577">
        <ele>925.0</ele>
        <time>2022-06-19T13:14:07.463Z</time>
      </trkpt>
      <trkpt lat="43.04017833" lon="-7.19577">
        <ele>925.0</ele>
        <time>2022-06-19T13:14:08.488Z</time>
      </trkpt>
      <trkpt lat="43.04014167" lon="-7.19578667">
        <ele>926.0</ele>
        <time>2022-06-19T13:14:09.653Z</time>
      </trkpt>
      <trkpt lat="43.04014167" lon="-7.19578667">
        <ele>926.0</ele>
        <time>2022-06-19T13:14:10.455Z</time>
      </trkpt>
      <trkpt lat="43.04009833" lon="-7.19580667">
        <ele>926.0</ele>
        <time>2022-06-19T13:14:11.497Z</time>
      </trkpt>
      <trkpt lat="43.04007833" lon="-7.19581667">
        <ele>926.0</ele>
        <time>2022-06-19T13:14:12.477Z</time>
      </trkpt>
      <trkpt lat="43.040055" lon="-7.19582667">
        <ele>926.0</ele>
        <time>2022-06-19T13:14:13.476Z</time>
      </trkpt>
      <trkpt lat="43.040055" lon="-7.19582667">
        <ele>926.0</ele>
        <time>2022-06-19T13:14:14.459Z</time>
      </trkpt>
      <trkpt lat="43.04001167" lon="-7.19584333">
        <ele>925.0</ele>
        <time>2022-06-19T13:14:15.453Z</time>
      </trkpt>
      <trkpt lat="43.04001167" lon="-7.19584333">
        <ele>925.0</ele>
        <time>2022-06-19T13:14:16.459Z</time>
      </trkpt>
      <trkpt lat="43.03997333" lon="-7.19586667">
        <ele>925.0</ele>
        <time>2022-06-19T13:14:17.481Z</time>
      </trkpt>
      <trkpt lat="43.03995167" lon="-7.19587667">
        <ele>925.0</ele>
        <time>2022-06-19T13:14:18.466Z</time>
      </trkpt>
      <trkpt lat="43.03995167" lon="-7.19587667">
        <ele>925.0</ele>
        <time>2022-06-19T13:14:19.460Z</time>
      </trkpt>
      <trkpt lat="43.03991333" lon="-7.19589333">
        <ele>926.0</ele>
        <time>2022-06-19T13:14:20.476Z</time>
      </trkpt>
      <trkpt lat="43.03991333" lon="-7.19589333">
        <ele>926.0</ele>
        <time>2022-06-19T13:14:21.471Z</time>
      </trkpt>
      <trkpt lat="43.03988167" lon="-7.19591">
        <ele>926.0</ele>
        <time>2022-06-19T13:14:22.451Z</time>
      </trkpt>
      <trkpt lat="43.03988167" lon="-7.19591">
        <ele>926.0</ele>
        <time>2022-06-19T13:14:23.457Z</time>
      </trkpt>
      <trkpt lat="43.03984333" lon="-7.19593">
        <ele>926.0</ele>
        <time>2022-06-19T13:14:24.483Z</time>
      </trkpt>
      <trkpt lat="43.03982333" lon="-7.19594167">
        <ele>926.0</ele>
        <time>2022-06-19T13:14:25.472Z</time>
      </trkpt>
      <trkpt lat="43.03982333" lon="-7.19594167">
        <ele>926.0</ele>
        <time>2022-06-19T13:14:26.450Z</time>
      </trkpt>
      <trkpt lat="43.03978667" lon="-7.19596">
        <ele>926.0</ele>
        <time>2022-06-19T13:14:27.456Z</time>
      </trkpt>
      <trkpt lat="43.03976667" lon="-7.19596667">
        <ele>926.0</ele>
        <time>2022-06-19T13:14:28.458Z</time>
      </trkpt>
      <trkpt lat="43.03976667" lon="-7.19596667">
        <ele>926.0</ele>
        <time>2022-06-19T13:14:29.454Z</time>
      </trkpt>
      <trkpt lat="43.03973167" lon="-7.19598667">
        <ele>926.0</ele>
        <time>2022-06-19T13:14:30.470Z</time>
      </trkpt>
      <trkpt lat="43.03971" lon="-7.19599667">
        <ele>926.0</ele>
        <time>2022-06-19T13:14:31.467Z</time>
      </trkpt>
      <trkpt lat="43.03971" lon="-7.19599667">
        <ele>926.0</ele>
        <time>2022-06-19T13:14:32.476Z</time>
      </trkpt>
      <trkpt lat="43.03967167" lon="-7.19602333">
        <ele>926.0</ele>
        <time>2022-06-19T13:14:33.477Z</time>
      </trkpt>
      <trkpt lat="43.03965333" lon="-7.19603833">
        <ele>926.0</ele>
        <time>2022-06-19T13:14:34.456Z</time>
      </trkpt>
      <trkpt lat="43.03965333" lon="-7.19603833">
        <ele>926.0</ele>
        <time>2022-06-19T13:14:35.484Z</time>
      </trkpt>
      <trkpt lat="43.039615" lon="-7.19606333">
        <ele>926.0</ele>
        <time>2022-06-19T13:14:36.467Z</time>
      </trkpt>
      <trkpt lat="43.03959" lon="-7.19607833">
        <ele>926.0</ele>
        <time>2022-06-19T13:14:37.459Z</time>
      </trkpt>
      <trkpt lat="43.03959" lon="-7.19607833">
        <ele>926.0</ele>
        <time>2022-06-19T13:14:38.469Z</time>
      </trkpt>
      <trkpt lat="43.03954167" lon="-7.19610333">
        <ele>926.0</ele>
        <time>2022-06-19T13:14:39.485Z</time>
      </trkpt>
      <trkpt lat="43.03952" lon="-7.19611333">
        <ele>926.0</ele>
        <time>2022-06-19T13:14:40.487Z</time>
      </trkpt>
      <trkpt lat="43.03952" lon="-7.19611333">
        <ele>926.0</ele>
        <time>2022-06-19T13:14:41.472Z</time>
      </trkpt>
      <trkpt lat="43.03952" lon="-7.19611333">
        <ele>926.0</ele>
        <time>2022-06-19T13:14:42.515Z</time>
      </trkpt>
      <trkpt lat="43.03945833" lon="-7.19614833">
        <ele>926.0</ele>
        <time>2022-06-19T13:14:43.467Z</time>
      </trkpt>
      <trkpt lat="43.03945833" lon="-7.19614833">
        <ele>926.0</ele>
        <time>2022-06-19T13:14:44.473Z</time>
      </trkpt>
      <trkpt lat="43.03941833" lon="-7.19617167">
        <ele>926.0</ele>
        <time>2022-06-19T13:14:45.464Z</time>
      </trkpt>
      <trkpt lat="43.03941833" lon="-7.19617167">
        <ele>926.0</ele>
        <time>2022-06-19T13:14:46.477Z</time>
      </trkpt>
      <trkpt lat="43.03937167" lon="-7.19619667">
        <ele>926.0</ele>
        <time>2022-06-19T13:14:47.460Z</time>
      </trkpt>
      <trkpt lat="43.03937167" lon="-7.19619667">
        <ele>926.0</ele>
        <time>2022-06-19T13:14:48.467Z</time>
      </trkpt>
      <trkpt lat="43.03932833" lon="-7.196225">
        <ele>926.0</ele>
        <time>2022-06-19T13:14:49.451Z</time>
      </trkpt>
      <trkpt lat="43.03932833" lon="-7.196225">
        <ele>926.0</ele>
        <time>2022-06-19T13:14:50.483Z</time>
      </trkpt>
      <trkpt lat="43.03929333" lon="-7.19624833">
        <ele>926.0</ele>
        <time>2022-06-19T13:14:51.472Z</time>
      </trkpt>
      <trkpt lat="43.03929333" lon="-7.19624833">
        <ele>926.0</ele>
        <time>2022-06-19T13:14:52.466Z</time>
      </trkpt>
      <trkpt lat="43.03925333" lon="-7.196265">
        <ele>926.0</ele>
        <time>2022-06-19T13:14:53.473Z</time>
      </trkpt>
      <trkpt lat="43.03923167" lon="-7.196275">
        <ele>926.0</ele>
        <time>2022-06-19T13:14:54.458Z</time>
      </trkpt>
      <trkpt lat="43.03923167" lon="-7.196275">
        <ele>926.0</ele>
        <time>2022-06-19T13:14:55.468Z</time>
      </trkpt>
      <trkpt lat="43.0392" lon="-7.19629667">
        <ele>926.0</ele>
        <time>2022-06-19T13:14:56.462Z</time>
      </trkpt>
      <trkpt lat="43.03918" lon="-7.196305">
        <ele>926.0</ele>
        <time>2022-06-19T13:14:57.455Z</time>
      </trkpt>
      <trkpt lat="43.03918" lon="-7.196305">
        <ele>926.0</ele>
        <time>2022-06-19T13:14:58.489Z</time>
      </trkpt>
      <trkpt lat="43.03914333" lon="-7.196325">
        <ele>925.0</ele>
        <time>2022-06-19T13:14:59.466Z</time>
      </trkpt>
      <trkpt lat="43.03914333" lon="-7.196325">
        <ele>925.0</ele>
        <time>2022-06-19T13:15:00.470Z</time>
      </trkpt>
      <trkpt lat="43.03910667" lon="-7.19633833">
        <ele>925.0</ele>
        <time>2022-06-19T13:15:01.490Z</time>
      </trkpt>
      <trkpt lat="43.039085" lon="-7.19635">
        <ele>926.0</ele>
        <time>2022-06-19T13:15:02.483Z</time>
      </trkpt>
      <trkpt lat="43.039085" lon="-7.19635">
        <ele>926.0</ele>
        <time>2022-06-19T13:15:03.458Z</time>
      </trkpt>
      <trkpt lat="43.039035" lon="-7.19636833">
        <ele>926.0</ele>
        <time>2022-06-19T13:15:04.479Z</time>
      </trkpt>
      <trkpt lat="43.039035" lon="-7.19636833">
        <ele>926.0</ele>
        <time>2022-06-19T13:15:05.457Z</time>
      </trkpt>
      <trkpt lat="43.03898833" lon="-7.19638333">
        <ele>926.0</ele>
        <time>2022-06-19T13:15:06.452Z</time>
      </trkpt>
      <trkpt lat="43.03896833" lon="-7.19639667">
        <ele>927.0</ele>
        <time>2022-06-19T13:15:07.483Z</time>
      </trkpt>
      <trkpt lat="43.03896833" lon="-7.19639667">
        <ele>927.0</ele>
        <time>2022-06-19T13:15:08.477Z</time>
      </trkpt>
      <trkpt lat="43.03892667" lon="-7.196415">
        <ele>927.0</ele>
        <time>2022-06-19T13:15:09.479Z</time>
      </trkpt>
      <trkpt lat="43.03890667" lon="-7.19642167">
        <ele>927.0</ele>
        <time>2022-06-19T13:15:10.488Z</time>
      </trkpt>
      <trkpt lat="43.03890667" lon="-7.19642167">
        <ele>927.0</ele>
        <time>2022-06-19T13:15:11.467Z</time>
      </trkpt>
      <trkpt lat="43.03886833" lon="-7.19642833">
        <ele>927.0</ele>
        <time>2022-06-19T13:15:12.487Z</time>
      </trkpt>
      <trkpt lat="43.03885" lon="-7.19643333">
        <ele>928.0</ele>
        <time>2022-06-19T13:15:13.475Z</time>
      </trkpt>
      <trkpt lat="43.03885" lon="-7.19643333">
        <ele>928.0</ele>
        <time>2022-06-19T13:15:14.450Z</time>
      </trkpt>
      <trkpt lat="43.03881167" lon="-7.19643333">
        <ele>928.0</ele>
        <time>2022-06-19T13:15:15.467Z</time>
      </trkpt>
      <trkpt lat="43.03881167" lon="-7.19643333">
        <ele>928.0</ele>
        <time>2022-06-19T13:15:16.484Z</time>
      </trkpt>
      <trkpt lat="43.03877333" lon="-7.196435">
        <ele>928.0</ele>
        <time>2022-06-19T13:15:17.466Z</time>
      </trkpt>
      <trkpt lat="43.03877333" lon="-7.196435">
        <ele>928.0</ele>
        <time>2022-06-19T13:15:18.472Z</time>
      </trkpt>
      <trkpt lat="43.03874" lon="-7.19644">
        <ele>929.0</ele>
        <time>2022-06-19T13:15:19.493Z</time>
      </trkpt>
      <trkpt lat="43.03874" lon="-7.19644">
        <ele>929.0</ele>
        <time>2022-06-19T13:15:20.485Z</time>
      </trkpt>
      <trkpt lat="43.038705" lon="-7.19644833">
        <ele>930.0</ele>
        <time>2022-06-19T13:15:21.483Z</time>
      </trkpt>
      <trkpt lat="43.038685" lon="-7.19645">
        <ele>930.0</ele>
        <time>2022-06-19T13:15:22.483Z</time>
      </trkpt>
      <trkpt lat="43.038685" lon="-7.19645">
        <ele>930.0</ele>
        <time>2022-06-19T13:15:23.467Z</time>
      </trkpt>
      <trkpt lat="43.03864333" lon="-7.196465">
        <ele>931.0</ele>
        <time>2022-06-19T13:15:24.467Z</time>
      </trkpt>
      <trkpt lat="43.03862" lon="-7.19646833">
        <ele>931.0</ele>
        <time>2022-06-19T13:15:25.476Z</time>
      </trkpt>
      <trkpt lat="43.03862" lon="-7.19646833">
        <ele>931.0</ele>
        <time>2022-06-19T13:15:26.462Z</time>
      </trkpt>
      <trkpt lat="43.03857833" lon="-7.19646667">
        <ele>932.0</ele>
        <time>2022-06-19T13:15:27.477Z</time>
      </trkpt>
      <trkpt lat="43.03857833" lon="-7.19646667">
        <ele>932.0</ele>
        <time>2022-06-19T13:15:28.488Z</time>
      </trkpt>
      <trkpt lat="43.03853833" lon="-7.19646">
        <ele>932.0</ele>
        <time>2022-06-19T13:15:29.472Z</time>
      </trkpt>
      <trkpt lat="43.03853833" lon="-7.19646">
        <ele>932.0</ele>
        <time>2022-06-19T13:15:30.459Z</time>
      </trkpt>
      <trkpt lat="43.03848833" lon="-7.19645167">
        <ele>933.0</ele>
        <time>2022-06-19T13:15:31.493Z</time>
      </trkpt>
      <trkpt lat="43.03848833" lon="-7.19645167">
        <ele>933.0</ele>
        <time>2022-06-19T13:15:32.472Z</time>
      </trkpt>
      <trkpt lat="43.03844167" lon="-7.19644">
        <ele>934.0</ele>
        <time>2022-06-19T13:15:33.451Z</time>
      </trkpt>
      <trkpt lat="43.038425" lon="-7.196435">
        <ele>935.0</ele>
        <time>2022-06-19T13:15:34.479Z</time>
      </trkpt>
      <trkpt lat="43.038425" lon="-7.196435">
        <ele>935.0</ele>
        <time>2022-06-19T13:15:35.489Z</time>
      </trkpt>
      <trkpt lat="43.03837833" lon="-7.19642667">
        <ele>936.0</ele>
        <time>2022-06-19T13:15:36.468Z</time>
      </trkpt>
      <trkpt lat="43.03835" lon="-7.19642167">
        <ele>936.0</ele>
        <time>2022-06-19T13:15:37.464Z</time>
      </trkpt>
      <trkpt lat="43.03835" lon="-7.19642167">
        <ele>936.0</ele>
        <time>2022-06-19T13:15:38.460Z</time>
      </trkpt>
      <trkpt lat="43.03829" lon="-7.19640833">
        <ele>937.0</ele>
        <time>2022-06-19T13:15:39.491Z</time>
      </trkpt>
      <trkpt lat="43.038265" lon="-7.196405">
        <ele>937.0</ele>
        <time>2022-06-19T13:15:40.486Z</time>
      </trkpt>
      <trkpt lat="43.038265" lon="-7.196405">
        <ele>937.0</ele>
        <time>2022-06-19T13:15:41.456Z</time>
      </trkpt>
      <trkpt lat="43.038205" lon="-7.196395">
        <ele>937.0</ele>
        <time>2022-06-19T13:15:42.476Z</time>
      </trkpt>
      <trkpt lat="43.03817667" lon="-7.19638833">
        <ele>937.0</ele>
        <time>2022-06-19T13:15:43.478Z</time>
      </trkpt>
      <trkpt lat="43.03817667" lon="-7.19638833">
        <ele>937.0</ele>
        <time>2022-06-19T13:15:44.459Z</time>
      </trkpt>
      <trkpt lat="43.03812167" lon="-7.19636833">
        <ele>938.0</ele>
        <time>2022-06-19T13:15:45.481Z</time>
      </trkpt>
      <trkpt lat="43.03812167" lon="-7.19636833">
        <ele>938.0</ele>
        <time>2022-06-19T13:15:46.469Z</time>
      </trkpt>
      <trkpt lat="43.038065" lon="-7.196345">
        <ele>938.0</ele>
        <time>2022-06-19T13:15:47.453Z</time>
      </trkpt>
      <trkpt lat="43.038065" lon="-7.196345">
        <ele>938.0</ele>
        <time>2022-06-19T13:15:48.489Z</time>
      </trkpt>
      <trkpt lat="43.03801" lon="-7.19631667">
        <ele>939.0</ele>
        <time>2022-06-19T13:15:49.478Z</time>
      </trkpt>
      <trkpt lat="43.03801" lon="-7.19631667">
        <ele>939.0</ele>
        <time>2022-06-19T13:15:50.468Z</time>
      </trkpt>
      <trkpt lat="43.037955" lon="-7.19628833">
        <ele>939.0</ele>
        <time>2022-06-19T13:15:51.468Z</time>
      </trkpt>
      <trkpt lat="43.037955" lon="-7.19628833">
        <ele>939.0</ele>
        <time>2022-06-19T13:15:52.455Z</time>
      </trkpt>
      <trkpt lat="43.03789667" lon="-7.19626167">
        <ele>939.0</ele>
        <time>2022-06-19T13:15:53.471Z</time>
      </trkpt>
      <trkpt lat="43.03789667" lon="-7.19626167">
        <ele>939.0</ele>
        <time>2022-06-19T13:15:54.467Z</time>
      </trkpt>
      <trkpt lat="43.03783833" lon="-7.19623667">
        <ele>939.0</ele>
        <time>2022-06-19T13:15:55.462Z</time>
      </trkpt>
      <trkpt lat="43.03783833" lon="-7.19623667">
        <ele>939.0</ele>
        <time>2022-06-19T13:15:56.486Z</time>
      </trkpt>
      <trkpt lat="43.03778" lon="-7.19620833">
        <ele>939.0</ele>
        <time>2022-06-19T13:15:57.484Z</time>
      </trkpt>
      <trkpt lat="43.03778" lon="-7.19620833">
        <ele>939.0</ele>
        <time>2022-06-19T13:15:58.472Z</time>
      </trkpt>
      <trkpt lat="43.03772333" lon="-7.19618">
        <ele>939.0</ele>
        <time>2022-06-19T13:15:59.464Z</time>
      </trkpt>
      <trkpt lat="43.03772333" lon="-7.19618">
        <ele>939.0</ele>
        <time>2022-06-19T13:16:00.452Z</time>
      </trkpt>
      <trkpt lat="43.03766333" lon="-7.196145">
        <ele>939.0</ele>
        <time>2022-06-19T13:16:01.471Z</time>
      </trkpt>
      <trkpt lat="43.03766333" lon="-7.196145">
        <ele>939.0</ele>
        <time>2022-06-19T13:16:02.460Z</time>
      </trkpt>
      <trkpt lat="43.037605" lon="-7.19611167">
        <ele>940.0</ele>
        <time>2022-06-19T13:16:03.477Z</time>
      </trkpt>
      <trkpt lat="43.037605" lon="-7.19611167">
        <ele>940.0</ele>
        <time>2022-06-19T13:16:04.490Z</time>
      </trkpt>
      <trkpt lat="43.03754167" lon="-7.19608667">
        <ele>940.0</ele>
        <time>2022-06-19T13:16:05.478Z</time>
      </trkpt>
      <trkpt lat="43.03750833" lon="-7.19607">
        <ele>940.0</ele>
        <time>2022-06-19T13:16:06.473Z</time>
      </trkpt>
      <trkpt lat="43.03750833" lon="-7.19607">
        <ele>940.0</ele>
        <time>2022-06-19T13:16:07.470Z</time>
      </trkpt>
      <trkpt lat="43.03744167" lon="-7.19603667">
        <ele>940.0</ele>
        <time>2022-06-19T13:16:08.476Z</time>
      </trkpt>
      <trkpt lat="43.03744167" lon="-7.19603667">
        <ele>940.0</ele>
        <time>2022-06-19T13:16:09.465Z</time>
      </trkpt>
      <trkpt lat="43.03738" lon="-7.19600833">
        <ele>941.0</ele>
        <time>2022-06-19T13:16:10.463Z</time>
      </trkpt>
      <trkpt lat="43.03738" lon="-7.19600833">
        <ele>941.0</ele>
        <time>2022-06-19T13:16:11.457Z</time>
      </trkpt>
      <trkpt lat="43.03730833" lon="-7.19596833">
        <ele>942.0</ele>
        <time>2022-06-19T13:16:12.478Z</time>
      </trkpt>
      <trkpt lat="43.03727" lon="-7.19594167">
        <ele>942.0</ele>
        <time>2022-06-19T13:16:13.477Z</time>
      </trkpt>
      <trkpt lat="43.03727" lon="-7.19594167">
        <ele>942.0</ele>
        <time>2022-06-19T13:16:14.486Z</time>
      </trkpt>
      <trkpt lat="43.03719" lon="-7.19591167">
        <ele>942.0</ele>
        <time>2022-06-19T13:16:15.475Z</time>
      </trkpt>
      <trkpt lat="43.03719" lon="-7.19591167">
        <ele>942.0</ele>
        <time>2022-06-19T13:16:16.466Z</time>
      </trkpt>
      <trkpt lat="43.03710833" lon="-7.19588833">
        <ele>942.0</ele>
        <time>2022-06-19T13:16:17.461Z</time>
      </trkpt>
      <trkpt lat="43.03710833" lon="-7.19588833">
        <ele>942.0</ele>
        <time>2022-06-19T13:16:18.482Z</time>
      </trkpt>
      <trkpt lat="43.03702667" lon="-7.195865">
        <ele>941.0</ele>
        <time>2022-06-19T13:16:19.461Z</time>
      </trkpt>
      <trkpt lat="43.03702667" lon="-7.195865">
        <ele>941.0</ele>
        <time>2022-06-19T13:16:20.478Z</time>
      </trkpt>
      <trkpt lat="43.03694333" lon="-7.19584">
        <ele>940.0</ele>
        <time>2022-06-19T13:16:21.474Z</time>
      </trkpt>
      <trkpt lat="43.03694333" lon="-7.19584">
        <ele>940.0</ele>
        <time>2022-06-19T13:16:22.470Z</time>
      </trkpt>
      <trkpt lat="43.03685833" lon="-7.19582333">
        <ele>939.0</ele>
        <time>2022-06-19T13:16:23.489Z</time>
      </trkpt>
      <trkpt lat="43.03685833" lon="-7.19582333">
        <ele>939.0</ele>
        <time>2022-06-19T13:16:24.487Z</time>
      </trkpt>
      <trkpt lat="43.03676333" lon="-7.195815">
        <ele>938.0</ele>
        <time>2022-06-19T13:16:25.475Z</time>
      </trkpt>
      <trkpt lat="43.03676333" lon="-7.195815">
        <ele>938.0</ele>
        <time>2022-06-19T13:16:26.487Z</time>
      </trkpt>
      <trkpt lat="43.036655" lon="-7.19580667">
        <ele>937.0</ele>
        <time>2022-06-19T13:16:27.487Z</time>
      </trkpt>
      <trkpt lat="43.036655" lon="-7.19580667">
        <ele>937.0</ele>
        <time>2022-06-19T13:16:28.468Z</time>
      </trkpt>
      <trkpt lat="43.03653833" lon="-7.19580833">
        <ele>937.0</ele>
        <time>2022-06-19T13:16:29.465Z</time>
      </trkpt>
      <trkpt lat="43.03647333" lon="-7.195815">
        <ele>937.0</ele>
        <time>2022-06-19T13:16:30.469Z</time>
      </trkpt>
      <trkpt lat="43.03647333" lon="-7.195815">
        <ele>937.0</ele>
        <time>2022-06-19T13:16:31.476Z</time>
      </trkpt>
      <trkpt lat="43.03634333" lon="-7.19585667">
        <ele>937.0</ele>
        <time>2022-06-19T13:16:32.482Z</time>
      </trkpt>
      <trkpt lat="43.03634333" lon="-7.19585667">
        <ele>937.0</ele>
        <time>2022-06-19T13:16:33.467Z</time>
      </trkpt>
      <trkpt lat="43.03619667" lon="-7.19594">
        <ele>936.0</ele>
        <time>2022-06-19T13:16:34.487Z</time>
      </trkpt>
      <trkpt lat="43.03619667" lon="-7.19594">
        <ele>936.0</ele>
        <time>2022-06-19T13:16:35.471Z</time>
      </trkpt>
      <trkpt lat="43.03604167" lon="-7.19604833">
        <ele>934.0</ele>
        <time>2022-06-19T13:16:36.455Z</time>
      </trkpt>
      <trkpt lat="43.03604167" lon="-7.19604833">
        <ele>934.0</ele>
        <time>2022-06-19T13:16:37.450Z</time>
      </trkpt>
      <trkpt lat="43.03589167" lon="-7.19619167">
        <ele>932.0</ele>
        <time>2022-06-19T13:16:38.471Z</time>
      </trkpt>
      <trkpt lat="43.03589167" lon="-7.19619167">
        <ele>932.0</ele>
        <time>2022-06-19T13:16:39.469Z</time>
      </trkpt>
      <trkpt lat="43.03575167" lon="-7.19637167">
        <ele>930.0</ele>
        <time>2022-06-19T13:16:40.490Z</time>
      </trkpt>
      <trkpt lat="43.03575167" lon="-7.19637167">
        <ele>930.0</ele>
        <time>2022-06-19T13:16:41.464Z</time>
      </trkpt>
      <trkpt lat="43.03560333" lon="-7.19656833">
        <ele>928.0</ele>
        <time>2022-06-19T13:16:42.520Z</time>
      </trkpt>
      <trkpt lat="43.03552667" lon="-7.19667167">
        <ele>926.0</ele>
        <time>2022-06-19T13:16:43.470Z</time>
      </trkpt>
      <trkpt lat="43.03552667" lon="-7.19667167">
        <ele>926.0</ele>
        <time>2022-06-19T13:16:44.485Z</time>
      </trkpt>
      <trkpt lat="43.03536667" lon="-7.19688">
        <ele>924.0</ele>
        <time>2022-06-19T13:16:45.476Z</time>
      </trkpt>
      <trkpt lat="43.03528833" lon="-7.19698833">
        <ele>923.0</ele>
        <time>2022-06-19T13:16:46.490Z</time>
      </trkpt>
      <trkpt lat="43.03528833" lon="-7.19698833">
        <ele>923.0</ele>
        <time>2022-06-19T13:16:47.464Z</time>
      </trkpt>
      <trkpt lat="43.03514" lon="-7.19722333">
        <ele>922.0</ele>
        <time>2022-06-19T13:16:48.479Z</time>
      </trkpt>
      <trkpt lat="43.03514" lon="-7.19722333">
        <ele>922.0</ele>
        <time>2022-06-19T13:16:49.469Z</time>
      </trkpt>
      <trkpt lat="43.03501167" lon="-7.19748833">
        <ele>920.0</ele>
        <time>2022-06-19T13:16:50.485Z</time>
      </trkpt>
      <trkpt lat="43.03501167" lon="-7.19748833">
        <ele>920.0</ele>
        <time>2022-06-19T13:16:51.477Z</time>
      </trkpt>
      <trkpt lat="43.034905" lon="-7.197775">
        <ele>918.0</ele>
        <time>2022-06-19T13:16:52.471Z</time>
      </trkpt>
      <trkpt lat="43.034905" lon="-7.197775">
        <ele>918.0</ele>
        <time>2022-06-19T13:16:53.451Z</time>
      </trkpt>
      <trkpt lat="43.03481667" lon="-7.19807667">
        <ele>915.0</ele>
        <time>2022-06-19T13:16:54.476Z</time>
      </trkpt>
      <trkpt lat="43.03481667" lon="-7.19807667">
        <ele>915.0</ele>
        <time>2022-06-19T13:16:55.489Z</time>
      </trkpt>
      <trkpt lat="43.034735" lon="-7.19838833">
        <ele>913.0</ele>
        <time>2022-06-19T13:16:56.482Z</time>
      </trkpt>
      <trkpt lat="43.034735" lon="-7.19838833">
        <ele>913.0</ele>
        <time>2022-06-19T13:16:57.451Z</time>
      </trkpt>
      <trkpt lat="43.034655" lon="-7.1987">
        <ele>912.0</ele>
        <time>2022-06-19T13:16:58.469Z</time>
      </trkpt>
      <trkpt lat="43.03461333" lon="-7.198855">
        <ele>911.0</ele>
        <time>2022-06-19T13:16:59.469Z</time>
      </trkpt>
      <trkpt lat="43.03461333" lon="-7.198855">
        <ele>911.0</ele>
        <time>2022-06-19T13:17:00.479Z</time>
      </trkpt>
      <trkpt lat="43.034525" lon="-7.199165">
        <ele>909.0</ele>
        <time>2022-06-19T13:17:01.472Z</time>
      </trkpt>
      <trkpt lat="43.034525" lon="-7.199165">
        <ele>909.0</ele>
        <time>2022-06-19T13:17:02.479Z</time>
      </trkpt>
      <trkpt lat="43.03440833" lon="-7.199455">
        <ele>906.0</ele>
        <time>2022-06-19T13:17:03.457Z</time>
      </trkpt>
      <trkpt lat="43.03433333" lon="-7.199575">
        <ele>906.0</ele>
        <time>2022-06-19T13:17:04.485Z</time>
      </trkpt>
      <trkpt lat="43.03433333" lon="-7.199575">
        <ele>906.0</ele>
        <time>2022-06-19T13:17:05.461Z</time>
      </trkpt>
      <trkpt lat="43.03416" lon="-7.19978">
        <ele>907.0</ele>
        <time>2022-06-19T13:17:06.487Z</time>
      </trkpt>
      <trkpt lat="43.03407667" lon="-7.19987">
        <ele>907.0</ele>
        <time>2022-06-19T13:17:07.487Z</time>
      </trkpt>
      <trkpt lat="43.03399667" lon="-7.19995167">
        <ele>907.0</ele>
        <time>2022-06-19T13:17:08.472Z</time>
      </trkpt>
      <trkpt lat="43.03399667" lon="-7.19995167">
        <ele>907.0</ele>
        <time>2022-06-19T13:17:09.463Z</time>
      </trkpt>
      <trkpt lat="43.033845" lon="-7.20010833">
        <ele>907.0</ele>
        <time>2022-06-19T13:17:10.452Z</time>
      </trkpt>
      <trkpt lat="43.033845" lon="-7.20010833">
        <ele>907.0</ele>
        <time>2022-06-19T13:17:11.486Z</time>
      </trkpt>
      <trkpt lat="43.0337" lon="-7.20026167">
        <ele>907.0</ele>
        <time>2022-06-19T13:17:12.475Z</time>
      </trkpt>
      <trkpt lat="43.03363" lon="-7.20033667">
        <ele>907.0</ele>
        <time>2022-06-19T13:17:13.457Z</time>
      </trkpt>
      <trkpt lat="43.03363" lon="-7.20033667">
        <ele>907.0</ele>
        <time>2022-06-19T13:17:14.490Z</time>
      </trkpt>
      <trkpt lat="43.03349333" lon="-7.200485">
        <ele>906.0</ele>
        <time>2022-06-19T13:17:15.464Z</time>
      </trkpt>
      <trkpt lat="43.03349333" lon="-7.200485">
        <ele>906.0</ele>
        <time>2022-06-19T13:17:16.468Z</time>
      </trkpt>
      <trkpt lat="43.03335667" lon="-7.20063">
        <ele>906.0</ele>
        <time>2022-06-19T13:17:17.466Z</time>
      </trkpt>
      <trkpt lat="43.03335667" lon="-7.20063">
        <ele>906.0</ele>
        <time>2022-06-19T13:17:18.458Z</time>
      </trkpt>
      <trkpt lat="43.03322" lon="-7.20077333">
        <ele>905.0</ele>
        <time>2022-06-19T13:17:19.480Z</time>
      </trkpt>
      <trkpt lat="43.03322" lon="-7.20077333">
        <ele>905.0</ele>
        <time>2022-06-19T13:17:20.459Z</time>
      </trkpt>
      <trkpt lat="43.03308333" lon="-7.20091167">
        <ele>904.0</ele>
        <time>2022-06-19T13:17:21.497Z</time>
      </trkpt>
      <trkpt lat="43.03308333" lon="-7.20091167">
        <ele>904.0</ele>
        <time>2022-06-19T13:17:22.458Z</time>
      </trkpt>
      <trkpt lat="43.03294833" lon="-7.20105">
        <ele>904.0</ele>
        <time>2022-06-19T13:17:23.477Z</time>
      </trkpt>
      <trkpt lat="43.03294833" lon="-7.20105">
        <ele>904.0</ele>
        <time>2022-06-19T13:17:24.463Z</time>
      </trkpt>
      <trkpt lat="43.032815" lon="-7.20118833">
        <ele>903.0</ele>
        <time>2022-06-19T13:17:25.451Z</time>
      </trkpt>
      <trkpt lat="43.03274667" lon="-7.20125167">
        <ele>903.0</ele>
        <time>2022-06-19T13:17:26.469Z</time>
      </trkpt>
      <trkpt lat="43.03274667" lon="-7.20125167">
        <ele>903.0</ele>
        <time>2022-06-19T13:17:27.478Z</time>
      </trkpt>
      <trkpt lat="43.03260667" lon="-7.20137167">
        <ele>903.0</ele>
        <time>2022-06-19T13:17:28.464Z</time>
      </trkpt>
      <trkpt lat="43.03260667" lon="-7.20137167">
        <ele>903.0</ele>
        <time>2022-06-19T13:17:29.477Z</time>
      </trkpt>
      <trkpt lat="43.032465" lon="-7.20148">
        <ele>902.0</ele>
        <time>2022-06-19T13:17:30.470Z</time>
      </trkpt>
      <trkpt lat="43.032465" lon="-7.20148">
        <ele>902.0</ele>
        <time>2022-06-19T13:17:31.488Z</time>
      </trkpt>
      <trkpt lat="43.03233" lon="-7.20159">
        <ele>902.0</ele>
        <time>2022-06-19T13:17:32.477Z</time>
      </trkpt>
      <trkpt lat="43.03233" lon="-7.20159">
        <ele>902.0</ele>
        <time>2022-06-19T13:17:33.485Z</time>
      </trkpt>
      <trkpt lat="43.03220167" lon="-7.201705">
        <ele>902.0</ele>
        <time>2022-06-19T13:17:34.471Z</time>
      </trkpt>
      <trkpt lat="43.03220167" lon="-7.201705">
        <ele>902.0</ele>
        <time>2022-06-19T13:17:35.459Z</time>
      </trkpt>
      <trkpt lat="43.03208833" lon="-7.20183167">
        <ele>901.0</ele>
        <time>2022-06-19T13:17:36.491Z</time>
      </trkpt>
      <trkpt lat="43.03203833" lon="-7.20189833">
        <ele>901.0</ele>
        <time>2022-06-19T13:17:37.480Z</time>
      </trkpt>
      <trkpt lat="43.03203833" lon="-7.20189833">
        <ele>901.0</ele>
        <time>2022-06-19T13:17:38.477Z</time>
      </trkpt>
      <trkpt lat="43.031945" lon="-7.20203667">
        <ele>901.0</ele>
        <time>2022-06-19T13:17:39.457Z</time>
      </trkpt>
      <trkpt lat="43.031945" lon="-7.20203667">
        <ele>901.0</ele>
        <time>2022-06-19T13:17:40.482Z</time>
      </trkpt>
      <trkpt lat="43.03185667" lon="-7.20217667">
        <ele>900.0</ele>
        <time>2022-06-19T13:17:41.462Z</time>
      </trkpt>
      <trkpt lat="43.03181333" lon="-7.20224833">
        <ele>900.0</ele>
        <time>2022-06-19T13:17:42.457Z</time>
      </trkpt>
      <trkpt lat="43.03181333" lon="-7.20224833">
        <ele>900.0</ele>
        <time>2022-06-19T13:17:43.470Z</time>
      </trkpt>
      <trkpt lat="43.03172167" lon="-7.202375">
        <ele>900.0</ele>
        <time>2022-06-19T13:17:44.454Z</time>
      </trkpt>
      <trkpt lat="43.03172167" lon="-7.202375">
        <ele>900.0</ele>
        <time>2022-06-19T13:17:45.461Z</time>
      </trkpt>
      <trkpt lat="43.03160333" lon="-7.20243">
        <ele>899.0</ele>
        <time>2022-06-19T13:17:46.489Z</time>
      </trkpt>
      <trkpt lat="43.03160333" lon="-7.20243">
        <ele>899.0</ele>
        <time>2022-06-19T13:17:47.473Z</time>
      </trkpt>
      <trkpt lat="43.031505" lon="-7.202455">
        <ele>900.0</ele>
        <time>2022-06-19T13:17:48.450Z</time>
      </trkpt>
      <trkpt lat="43.031465" lon="-7.20247667">
        <ele>900.0</ele>
        <time>2022-06-19T13:17:49.496Z</time>
      </trkpt>
      <trkpt lat="43.031465" lon="-7.20247667">
        <ele>900.0</ele>
        <time>2022-06-19T13:17:50.460Z</time>
      </trkpt>
      <trkpt lat="43.031395" lon="-7.202535">
        <ele>899.0</ele>
        <time>2022-06-19T13:17:51.493Z</time>
      </trkpt>
      <trkpt lat="43.031395" lon="-7.202535">
        <ele>899.0</ele>
        <time>2022-06-19T13:17:52.467Z</time>
      </trkpt>
      <trkpt lat="43.03133167" lon="-7.20259833">
        <ele>899.0</ele>
        <time>2022-06-19T13:17:53.491Z</time>
      </trkpt>
      <trkpt lat="43.03129667" lon="-7.20263">
        <ele>899.0</ele>
        <time>2022-06-19T13:17:54.457Z</time>
      </trkpt>
      <trkpt lat="43.03126" lon="-7.20266833">
        <ele>899.0</ele>
        <time>2022-06-19T13:17:55.477Z</time>
      </trkpt>
      <trkpt lat="43.03126" lon="-7.20266833">
        <ele>899.0</ele>
        <time>2022-06-19T13:17:56.454Z</time>
      </trkpt>
      <trkpt lat="43.031185" lon="-7.20274">
        <ele>899.0</ele>
        <time>2022-06-19T13:17:57.456Z</time>
      </trkpt>
      <trkpt lat="43.03114833" lon="-7.202775">
        <ele>899.0</ele>
        <time>2022-06-19T13:17:58.473Z</time>
      </trkpt>
      <trkpt lat="43.03114833" lon="-7.202775">
        <ele>899.0</ele>
        <time>2022-06-19T13:17:59.481Z</time>
      </trkpt>
      <trkpt lat="43.03107833" lon="-7.20284167">
        <ele>899.0</ele>
        <time>2022-06-19T13:18:00.460Z</time>
      </trkpt>
      <trkpt lat="43.03104333" lon="-7.20287833">
        <ele>899.0</ele>
        <time>2022-06-19T13:18:01.462Z</time>
      </trkpt>
      <trkpt lat="43.03104333" lon="-7.20287833">
        <ele>899.0</ele>
        <time>2022-06-19T13:18:02.477Z</time>
      </trkpt>
      <trkpt lat="43.03097" lon="-7.20295167">
        <ele>899.0</ele>
        <time>2022-06-19T13:18:03.453Z</time>
      </trkpt>
      <trkpt lat="43.03093" lon="-7.202985">
        <ele>899.0</ele>
        <time>2022-06-19T13:18:04.480Z</time>
      </trkpt>
      <trkpt lat="43.03093" lon="-7.202985">
        <ele>899.0</ele>
        <time>2022-06-19T13:18:05.471Z</time>
      </trkpt>
      <trkpt lat="43.03084833" lon="-7.20305833">
        <ele>899.0</ele>
        <time>2022-06-19T13:18:06.453Z</time>
      </trkpt>
      <trkpt lat="43.03081167" lon="-7.20309667">
        <ele>899.0</ele>
        <time>2022-06-19T13:18:07.472Z</time>
      </trkpt>
      <trkpt lat="43.03081167" lon="-7.20309667">
        <ele>899.0</ele>
        <time>2022-06-19T13:18:08.472Z</time>
      </trkpt>
      <trkpt lat="43.03074333" lon="-7.20317">
        <ele>899.0</ele>
        <time>2022-06-19T13:18:09.479Z</time>
      </trkpt>
      <trkpt lat="43.03071" lon="-7.203205">
        <ele>899.0</ele>
        <time>2022-06-19T13:18:10.476Z</time>
      </trkpt>
      <trkpt lat="43.03071" lon="-7.203205">
        <ele>899.0</ele>
        <time>2022-06-19T13:18:11.486Z</time>
      </trkpt>
      <trkpt lat="43.030635" lon="-7.20327167">
        <ele>900.0</ele>
        <time>2022-06-19T13:18:12.488Z</time>
      </trkpt>
      <trkpt lat="43.030635" lon="-7.20327167">
        <ele>900.0</ele>
        <time>2022-06-19T13:18:13.464Z</time>
      </trkpt>
      <trkpt lat="43.030555" lon="-7.20332833">
        <ele>900.0</ele>
        <time>2022-06-19T13:18:14.467Z</time>
      </trkpt>
      <trkpt lat="43.030555" lon="-7.20332833">
        <ele>900.0</ele>
        <time>2022-06-19T13:18:15.466Z</time>
      </trkpt>
      <trkpt lat="43.03047667" lon="-7.20338">
        <ele>900.0</ele>
        <time>2022-06-19T13:18:16.452Z</time>
      </trkpt>
      <trkpt lat="43.03043667" lon="-7.203405">
        <ele>899.0</ele>
        <time>2022-06-19T13:18:17.491Z</time>
      </trkpt>
      <trkpt lat="43.03043667" lon="-7.203405">
        <ele>899.0</ele>
        <time>2022-06-19T13:18:18.471Z</time>
      </trkpt>
      <trkpt lat="43.03035" lon="-7.20345667">
        <ele>899.0</ele>
        <time>2022-06-19T13:18:19.450Z</time>
      </trkpt>
      <trkpt lat="43.03035" lon="-7.20345667">
        <ele>899.0</ele>
        <time>2022-06-19T13:18:20.465Z</time>
      </trkpt>
      <trkpt lat="43.03027333" lon="-7.20351167">
        <ele>899.0</ele>
        <time>2022-06-19T13:18:21.483Z</time>
      </trkpt>
      <trkpt lat="43.03023833" lon="-7.20354167">
        <ele>899.0</ele>
        <time>2022-06-19T13:18:22.456Z</time>
      </trkpt>
      <trkpt lat="43.03023833" lon="-7.20354167">
        <ele>899.0</ele>
        <time>2022-06-19T13:18:23.469Z</time>
      </trkpt>
      <trkpt lat="43.03017167" lon="-7.20361333">
        <ele>899.0</ele>
        <time>2022-06-19T13:18:24.489Z</time>
      </trkpt>
      <trkpt lat="43.03014167" lon="-7.20365333">
        <ele>899.0</ele>
        <time>2022-06-19T13:18:25.462Z</time>
      </trkpt>
      <trkpt lat="43.03014167" lon="-7.20365333">
        <ele>899.0</ele>
        <time>2022-06-19T13:18:26.459Z</time>
      </trkpt>
      <trkpt lat="43.030095" lon="-7.20373833">
        <ele>899.0</ele>
        <time>2022-06-19T13:18:27.488Z</time>
      </trkpt>
      <trkpt lat="43.03008167" lon="-7.20378333">
        <ele>899.0</ele>
        <time>2022-06-19T13:18:28.451Z</time>
      </trkpt>
      <trkpt lat="43.03008167" lon="-7.20378333">
        <ele>899.0</ele>
        <time>2022-06-19T13:18:29.483Z</time>
      </trkpt>
      <trkpt lat="43.03005833" lon="-7.20386667">
        <ele>899.0</ele>
        <time>2022-06-19T13:18:30.477Z</time>
      </trkpt>
      <trkpt lat="43.030045" lon="-7.20390667">
        <ele>899.0</ele>
        <time>2022-06-19T13:18:31.487Z</time>
      </trkpt>
      <trkpt lat="43.030045" lon="-7.20390667">
        <ele>899.0</ele>
        <time>2022-06-19T13:18:32.455Z</time>
      </trkpt>
      <trkpt lat="43.030015" lon="-7.20399">
        <ele>899.0</ele>
        <time>2022-06-19T13:18:33.475Z</time>
      </trkpt>
      <trkpt lat="43.02999333" lon="-7.20403">
        <ele>900.0</ele>
        <time>2022-06-19T13:18:34.486Z</time>
      </trkpt>
      <trkpt lat="43.02999333" lon="-7.20403">
        <ele>900.0</ele>
        <time>2022-06-19T13:18:35.490Z</time>
      </trkpt>
      <trkpt lat="43.02994167" lon="-7.204105">
        <ele>900.0</ele>
        <time>2022-06-19T13:18:36.484Z</time>
      </trkpt>
      <trkpt lat="43.02991667" lon="-7.20414333">
        <ele>900.0</ele>
        <time>2022-06-19T13:18:37.485Z</time>
      </trkpt>
      <trkpt lat="43.02991667" lon="-7.20414333">
        <ele>900.0</ele>
        <time>2022-06-19T13:18:38.482Z</time>
      </trkpt>
      <trkpt lat="43.02987167" lon="-7.20422167">
        <ele>900.0</ele>
        <time>2022-06-19T13:18:39.487Z</time>
      </trkpt>
      <trkpt lat="43.02987167" lon="-7.20422167">
        <ele>900.0</ele>
        <time>2022-06-19T13:18:40.469Z</time>
      </trkpt>
      <trkpt lat="43.02982667" lon="-7.20429833">
        <ele>901.0</ele>
        <time>2022-06-19T13:18:41.457Z</time>
      </trkpt>
      <trkpt lat="43.029795" lon="-7.204325">
        <ele>901.0</ele>
        <time>2022-06-19T13:18:42.454Z</time>
      </trkpt>
      <trkpt lat="43.02976333" lon="-7.20434167">
        <ele>901.0</ele>
        <time>2022-06-19T13:18:43.469Z</time>
      </trkpt>
      <trkpt lat="43.02976333" lon="-7.20434167">
        <ele>901.0</ele>
        <time>2022-06-19T13:18:44.460Z</time>
      </trkpt>
      <trkpt lat="43.02969667" lon="-7.20436333">
        <ele>901.0</ele>
        <time>2022-06-19T13:18:45.487Z</time>
      </trkpt>
      <trkpt lat="43.02966" lon="-7.20437167">
        <ele>901.0</ele>
        <time>2022-06-19T13:18:46.450Z</time>
      </trkpt>
      <trkpt lat="43.02966" lon="-7.20437167">
        <ele>901.0</ele>
        <time>2022-06-19T13:18:47.453Z</time>
      </trkpt>
      <trkpt lat="43.02957333" lon="-7.204395">
        <ele>902.0</ele>
        <time>2022-06-19T13:18:48.451Z</time>
      </trkpt>
      <trkpt lat="43.02952667" lon="-7.204405">
        <ele>902.0</ele>
        <time>2022-06-19T13:18:49.491Z</time>
      </trkpt>
      <trkpt lat="43.02952667" lon="-7.204405">
        <ele>902.0</ele>
        <time>2022-06-19T13:18:50.476Z</time>
      </trkpt>
      <trkpt lat="43.02943" lon="-7.20443333">
        <ele>902.0</ele>
        <time>2022-06-19T13:18:51.467Z</time>
      </trkpt>
      <trkpt lat="43.02943" lon="-7.20443333">
        <ele>902.0</ele>
        <time>2022-06-19T13:18:52.458Z</time>
      </trkpt>
      <trkpt lat="43.02932167" lon="-7.20445667">
        <ele>902.0</ele>
        <time>2022-06-19T13:18:53.467Z</time>
      </trkpt>
      <trkpt lat="43.02932167" lon="-7.20445667">
        <ele>902.0</ele>
        <time>2022-06-19T13:18:54.460Z</time>
      </trkpt>
      <trkpt lat="43.029225" lon="-7.204485">
        <ele>902.0</ele>
        <time>2022-06-19T13:18:55.486Z</time>
      </trkpt>
      <trkpt lat="43.029225" lon="-7.204485">
        <ele>902.0</ele>
        <time>2022-06-19T13:18:56.460Z</time>
      </trkpt>
      <trkpt lat="43.02913" lon="-7.20452167">
        <ele>902.0</ele>
        <time>2022-06-19T13:18:57.501Z</time>
      </trkpt>
      <trkpt lat="43.02913" lon="-7.20452167">
        <ele>902.0</ele>
        <time>2022-06-19T13:18:58.468Z</time>
      </trkpt>
      <trkpt lat="43.02904333" lon="-7.20455167">
        <ele>902.0</ele>
        <time>2022-06-19T13:18:59.462Z</time>
      </trkpt>
      <trkpt lat="43.02901167" lon="-7.20456333">
        <ele>902.0</ele>
        <time>2022-06-19T13:19:00.468Z</time>
      </trkpt>
      <trkpt lat="43.02901167" lon="-7.20456333">
        <ele>902.0</ele>
        <time>2022-06-19T13:19:01.487Z</time>
      </trkpt>
      <trkpt lat="43.02892667" lon="-7.20458167">
        <ele>901.0</ele>
        <time>2022-06-19T13:19:02.467Z</time>
      </trkpt>
      <trkpt lat="43.02892667" lon="-7.20458167">
        <ele>901.0</ele>
        <time>2022-06-19T13:19:03.489Z</time>
      </trkpt>
      <trkpt lat="43.02884" lon="-7.204595">
        <ele>901.0</ele>
        <time>2022-06-19T13:19:04.461Z</time>
      </trkpt>
      <trkpt lat="43.02884" lon="-7.204595">
        <ele>901.0</ele>
        <time>2022-06-19T13:19:05.476Z</time>
      </trkpt>
      <trkpt lat="43.02877833" lon="-7.204605">
        <ele>901.0</ele>
        <time>2022-06-19T13:19:06.460Z</time>
      </trkpt>
      <trkpt lat="43.02877833" lon="-7.204605">
        <ele>901.0</ele>
        <time>2022-06-19T13:19:07.477Z</time>
      </trkpt>
      <trkpt lat="43.02873" lon="-7.20461333">
        <ele>901.0</ele>
        <time>2022-06-19T13:19:08.467Z</time>
      </trkpt>
      <trkpt lat="43.02873" lon="-7.20461333">
        <ele>901.0</ele>
        <time>2022-06-19T13:19:09.460Z</time>
      </trkpt>
      <trkpt lat="43.02866333" lon="-7.20462333">
        <ele>901.0</ele>
        <time>2022-06-19T13:19:10.486Z</time>
      </trkpt>
      <trkpt lat="43.02866333" lon="-7.20462333">
        <ele>901.0</ele>
        <time>2022-06-19T13:19:11.475Z</time>
      </trkpt>
      <trkpt lat="43.02859" lon="-7.20463667">
        <ele>901.0</ele>
        <time>2022-06-19T13:19:12.459Z</time>
      </trkpt>
      <trkpt lat="43.02859" lon="-7.20463667">
        <ele>901.0</ele>
        <time>2022-06-19T13:19:13.483Z</time>
      </trkpt>
      <trkpt lat="43.02849" lon="-7.20467333">
        <ele>901.0</ele>
        <time>2022-06-19T13:19:14.480Z</time>
      </trkpt>
      <trkpt lat="43.02849" lon="-7.20467333">
        <ele>901.0</ele>
        <time>2022-06-19T13:19:15.488Z</time>
      </trkpt>
      <trkpt lat="43.02840833" lon="-7.20470333">
        <ele>901.0</ele>
        <time>2022-06-19T13:19:16.460Z</time>
      </trkpt>
      <trkpt lat="43.02840833" lon="-7.20470333">
        <ele>901.0</ele>
        <time>2022-06-19T13:19:17.474Z</time>
      </trkpt>
      <trkpt lat="43.02832" lon="-7.20472333">
        <ele>900.0</ele>
        <time>2022-06-19T13:19:18.459Z</time>
      </trkpt>
      <trkpt lat="43.02832" lon="-7.20472333">
        <ele>900.0</ele>
        <time>2022-06-19T13:19:19.478Z</time>
      </trkpt>
      <trkpt lat="43.02821167" lon="-7.20475167">
        <ele>900.0</ele>
        <time>2022-06-19T13:19:20.468Z</time>
      </trkpt>
      <trkpt lat="43.02821167" lon="-7.20475167">
        <ele>900.0</ele>
        <time>2022-06-19T13:19:21.485Z</time>
      </trkpt>
      <trkpt lat="43.02807667" lon="-7.20478667">
        <ele>899.0</ele>
        <time>2022-06-19T13:19:22.467Z</time>
      </trkpt>
      <trkpt lat="43.02801333" lon="-7.20479667">
        <ele>899.0</ele>
        <time>2022-06-19T13:19:23.456Z</time>
      </trkpt>
      <trkpt lat="43.02801333" lon="-7.20479667">
        <ele>899.0</ele>
        <time>2022-06-19T13:19:24.461Z</time>
      </trkpt>
      <trkpt lat="43.02786833" lon="-7.20485667">
        <ele>898.0</ele>
        <time>2022-06-19T13:19:25.489Z</time>
      </trkpt>
      <trkpt lat="43.02786833" lon="-7.20485667">
        <ele>898.0</ele>
        <time>2022-06-19T13:19:26.462Z</time>
      </trkpt>
      <trkpt lat="43.02774" lon="-7.20490833">
        <ele>897.0</ele>
        <time>2022-06-19T13:19:27.487Z</time>
      </trkpt>
      <trkpt lat="43.02774" lon="-7.20490833">
        <ele>897.0</ele>
        <time>2022-06-19T13:19:28.472Z</time>
      </trkpt>
      <trkpt lat="43.02767833" lon="-7.20494667">
        <ele>895.0</ele>
        <time>2022-06-19T13:19:29.451Z</time>
      </trkpt>
      <trkpt lat="43.02767833" lon="-7.20494667">
        <ele>895.0</ele>
        <time>2022-06-19T13:19:30.461Z</time>
      </trkpt>
      <trkpt lat="43.02762167" lon="-7.20497167">
        <ele>894.0</ele>
        <time>2022-06-19T13:19:31.451Z</time>
      </trkpt>
      <trkpt lat="43.02762167" lon="-7.20497167">
        <ele>894.0</ele>
        <time>2022-06-19T13:19:32.489Z</time>
      </trkpt>
      <trkpt lat="43.02756333" lon="-7.20499333">
        <ele>893.0</ele>
        <time>2022-06-19T13:19:33.485Z</time>
      </trkpt>
      <trkpt lat="43.02753667" lon="-7.20499667">
        <ele>892.0</ele>
        <time>2022-06-19T13:19:34.481Z</time>
      </trkpt>
      <trkpt lat="43.02753667" lon="-7.20499667">
        <ele>892.0</ele>
        <time>2022-06-19T13:19:35.462Z</time>
      </trkpt>
      <trkpt lat="43.02747333" lon="-7.20501">
        <ele>891.0</ele>
        <time>2022-06-19T13:19:36.487Z</time>
      </trkpt>
      <trkpt lat="43.02747333" lon="-7.20501">
        <ele>891.0</ele>
        <time>2022-06-19T13:19:37.479Z</time>
      </trkpt>
      <trkpt lat="43.02737667" lon="-7.20503167">
        <ele>890.0</ele>
        <time>2022-06-19T13:19:38.457Z</time>
      </trkpt>
      <trkpt lat="43.02737667" lon="-7.20503167">
        <ele>890.0</ele>
        <time>2022-06-19T13:19:39.459Z</time>
      </trkpt>
      <trkpt lat="43.02727333" lon="-7.20507667">
        <ele>889.0</ele>
        <time>2022-06-19T13:19:40.487Z</time>
      </trkpt>
      <trkpt lat="43.02727333" lon="-7.20507667">
        <ele>889.0</ele>
        <time>2022-06-19T13:19:41.488Z</time>
      </trkpt>
      <trkpt lat="43.027185" lon="-7.20511833">
        <ele>887.0</ele>
        <time>2022-06-19T13:19:42.474Z</time>
      </trkpt>
      <trkpt lat="43.027145" lon="-7.20514167">
        <ele>886.0</ele>
        <time>2022-06-19T13:19:43.477Z</time>
      </trkpt>
      <trkpt lat="43.027145" lon="-7.20514167">
        <ele>886.0</ele>
        <time>2022-06-19T13:19:44.453Z</time>
      </trkpt>
      <trkpt lat="43.02705667" lon="-7.20519167">
        <ele>884.0</ele>
        <time>2022-06-19T13:19:45.480Z</time>
      </trkpt>
      <trkpt lat="43.02705667" lon="-7.20519167">
        <ele>884.0</ele>
        <time>2022-06-19T13:19:46.461Z</time>
      </trkpt>
      <trkpt lat="43.02697667" lon="-7.20522">
        <ele>883.0</ele>
        <time>2022-06-19T13:19:47.479Z</time>
      </trkpt>
      <trkpt lat="43.02697667" lon="-7.20522">
        <ele>883.0</ele>
        <time>2022-06-19T13:19:48.464Z</time>
      </trkpt>
      <trkpt lat="43.02690833" lon="-7.205235">
        <ele>882.0</ele>
        <time>2022-06-19T13:19:49.485Z</time>
      </trkpt>
      <trkpt lat="43.02686167" lon="-7.20524333">
        <ele>882.0</ele>
        <time>2022-06-19T13:19:50.481Z</time>
      </trkpt>
      <trkpt lat="43.02686167" lon="-7.20524333">
        <ele>882.0</ele>
        <time>2022-06-19T13:19:51.454Z</time>
      </trkpt>
      <trkpt lat="43.02674333" lon="-7.20526167">
        <ele>879.0</ele>
        <time>2022-06-19T13:19:52.471Z</time>
      </trkpt>
      <trkpt lat="43.02667" lon="-7.20528167">
        <ele>877.0</ele>
        <time>2022-06-19T13:19:53.470Z</time>
      </trkpt>
      <trkpt lat="43.02667" lon="-7.20528167">
        <ele>877.0</ele>
        <time>2022-06-19T13:19:54.468Z</time>
      </trkpt>
      <trkpt lat="43.02655" lon="-7.20528167">
        <ele>875.0</ele>
        <time>2022-06-19T13:19:55.487Z</time>
      </trkpt>
      <trkpt lat="43.02655" lon="-7.20528167">
        <ele>875.0</ele>
        <time>2022-06-19T13:19:56.463Z</time>
      </trkpt>
      <trkpt lat="43.02645333" lon="-7.20528">
        <ele>874.0</ele>
        <time>2022-06-19T13:19:57.450Z</time>
      </trkpt>
      <trkpt lat="43.02645333" lon="-7.20528">
        <ele>874.0</ele>
        <time>2022-06-19T13:19:58.483Z</time>
      </trkpt>
      <trkpt lat="43.02636333" lon="-7.20530667">
        <ele>874.0</ele>
        <time>2022-06-19T13:19:59.475Z</time>
      </trkpt>
      <trkpt lat="43.02636333" lon="-7.20530667">
        <ele>874.0</ele>
        <time>2022-06-19T13:20:00.470Z</time>
      </trkpt>
      <trkpt lat="43.02627" lon="-7.20536167">
        <ele>872.0</ele>
        <time>2022-06-19T13:20:01.458Z</time>
      </trkpt>
      <trkpt lat="43.02621833" lon="-7.20539333">
        <ele>871.0</ele>
        <time>2022-06-19T13:20:02.463Z</time>
      </trkpt>
      <trkpt lat="43.02621833" lon="-7.20539333">
        <ele>871.0</ele>
        <time>2022-06-19T13:20:03.458Z</time>
      </trkpt>
      <trkpt lat="43.02614333" lon="-7.20548333">
        <ele>870.0</ele>
        <time>2022-06-19T13:20:04.454Z</time>
      </trkpt>
      <trkpt lat="43.026115" lon="-7.20554333">
        <ele>869.0</ele>
        <time>2022-06-19T13:20:05.486Z</time>
      </trkpt>
      <trkpt lat="43.026115" lon="-7.20554333">
        <ele>869.0</ele>
        <time>2022-06-19T13:20:06.470Z</time>
      </trkpt>
      <trkpt lat="43.02608667" lon="-7.205675">
        <ele>868.0</ele>
        <time>2022-06-19T13:20:07.488Z</time>
      </trkpt>
      <trkpt lat="43.02608667" lon="-7.205675">
        <ele>868.0</ele>
        <time>2022-06-19T13:20:08.473Z</time>
      </trkpt>
      <trkpt lat="43.02607167" lon="-7.205815">
        <ele>866.0</ele>
        <time>2022-06-19T13:20:09.466Z</time>
      </trkpt>
      <trkpt lat="43.02606833" lon="-7.20587667">
        <ele>866.0</ele>
        <time>2022-06-19T13:20:10.474Z</time>
      </trkpt>
      <trkpt lat="43.02606833" lon="-7.20587667">
        <ele>866.0</ele>
        <time>2022-06-19T13:20:11.461Z</time>
      </trkpt>
      <trkpt lat="43.02605667" lon="-7.20600333">
        <ele>864.0</ele>
        <time>2022-06-19T13:20:12.455Z</time>
      </trkpt>
      <trkpt lat="43.02605333" lon="-7.20607">
        <ele>863.0</ele>
        <time>2022-06-19T13:20:13.477Z</time>
      </trkpt>
      <trkpt lat="43.02605333" lon="-7.20607">
        <ele>863.0</ele>
        <time>2022-06-19T13:20:14.460Z</time>
      </trkpt>
      <trkpt lat="43.02602667" lon="-7.20618667">
        <ele>862.0</ele>
        <time>2022-06-19T13:20:15.487Z</time>
      </trkpt>
      <trkpt lat="43.02602667" lon="-7.20618667">
        <ele>862.0</ele>
        <time>2022-06-19T13:20:16.459Z</time>
      </trkpt>
      <trkpt lat="43.025965" lon="-7.20628167">
        <ele>860.0</ele>
        <time>2022-06-19T13:20:17.467Z</time>
      </trkpt>
      <trkpt lat="43.02593" lon="-7.20633167">
        <ele>859.0</ele>
        <time>2022-06-19T13:20:18.475Z</time>
      </trkpt>
      <trkpt lat="43.02593" lon="-7.20633167">
        <ele>859.0</ele>
        <time>2022-06-19T13:20:19.486Z</time>
      </trkpt>
      <trkpt lat="43.02585667" lon="-7.20646167">
        <ele>858.0</ele>
        <time>2022-06-19T13:20:20.467Z</time>
      </trkpt>
      <trkpt lat="43.02585667" lon="-7.20646167">
        <ele>858.0</ele>
        <time>2022-06-19T13:20:21.476Z</time>
      </trkpt>
      <trkpt lat="43.02579667" lon="-7.20661333">
        <ele>857.0</ele>
        <time>2022-06-19T13:20:22.457Z</time>
      </trkpt>
      <trkpt lat="43.025775" lon="-7.206695">
        <ele>857.0</ele>
        <time>2022-06-19T13:20:23.454Z</time>
      </trkpt>
      <trkpt lat="43.025775" lon="-7.206695">
        <ele>857.0</ele>
        <time>2022-06-19T13:20:24.475Z</time>
      </trkpt>
      <trkpt lat="43.02574667" lon="-7.206865">
        <ele>857.0</ele>
        <time>2022-06-19T13:20:25.460Z</time>
      </trkpt>
      <trkpt lat="43.02574667" lon="-7.206865">
        <ele>857.0</ele>
        <time>2022-06-19T13:20:26.450Z</time>
      </trkpt>
      <trkpt lat="43.02573167" lon="-7.20699667">
        <ele>856.0</ele>
        <time>2022-06-19T13:20:27.487Z</time>
      </trkpt>
      <trkpt lat="43.02573167" lon="-7.20699667">
        <ele>856.0</ele>
        <time>2022-06-19T13:20:28.489Z</time>
      </trkpt>
      <trkpt lat="43.02572" lon="-7.20712833">
        <ele>855.0</ele>
        <time>2022-06-19T13:20:29.470Z</time>
      </trkpt>
      <trkpt lat="43.02572" lon="-7.20712833">
        <ele>855.0</ele>
        <time>2022-06-19T13:20:30.470Z</time>
      </trkpt>
      <trkpt lat="43.02569833" lon="-7.207275">
        <ele>854.0</ele>
        <time>2022-06-19T13:20:31.494Z</time>
      </trkpt>
      <trkpt lat="43.02569833" lon="-7.207275">
        <ele>854.0</ele>
        <time>2022-06-19T13:20:32.464Z</time>
      </trkpt>
      <trkpt lat="43.02567167" lon="-7.20743333">
        <ele>853.0</ele>
        <time>2022-06-19T13:20:33.477Z</time>
      </trkpt>
      <trkpt lat="43.02567167" lon="-7.20743333">
        <ele>853.0</ele>
        <time>2022-06-19T13:20:34.487Z</time>
      </trkpt>
      <trkpt lat="43.02565" lon="-7.2076">
        <ele>852.0</ele>
        <time>2022-06-19T13:20:35.480Z</time>
      </trkpt>
      <trkpt lat="43.02565" lon="-7.2076">
        <ele>852.0</ele>
        <time>2022-06-19T13:20:36.460Z</time>
      </trkpt>
      <trkpt lat="43.025655" lon="-7.20777833">
        <ele>852.0</ele>
        <time>2022-06-19T13:20:37.494Z</time>
      </trkpt>
      <trkpt lat="43.025655" lon="-7.20777833">
        <ele>852.0</ele>
        <time>2022-06-19T13:20:38.465Z</time>
      </trkpt>
      <trkpt lat="43.02566333" lon="-7.20796667">
        <ele>851.0</ele>
        <time>2022-06-19T13:20:39.491Z</time>
      </trkpt>
      <trkpt lat="43.02566333" lon="-7.20796667">
        <ele>851.0</ele>
        <time>2022-06-19T13:20:40.474Z</time>
      </trkpt>
      <trkpt lat="43.02565" lon="-7.20816333">
        <ele>850.0</ele>
        <time>2022-06-19T13:20:41.453Z</time>
      </trkpt>
      <trkpt lat="43.02565" lon="-7.20816333">
        <ele>850.0</ele>
        <time>2022-06-19T13:20:42.485Z</time>
      </trkpt>
      <trkpt lat="43.02562667" lon="-7.20836833">
        <ele>849.0</ele>
        <time>2022-06-19T13:20:43.463Z</time>
      </trkpt>
      <trkpt lat="43.02562667" lon="-7.20836833">
        <ele>849.0</ele>
        <time>2022-06-19T13:20:44.487Z</time>
      </trkpt>
      <trkpt lat="43.0256" lon="-7.20857333">
        <ele>848.0</ele>
        <time>2022-06-19T13:20:45.461Z</time>
      </trkpt>
      <trkpt lat="43.02558833" lon="-7.20867667">
        <ele>848.0</ele>
        <time>2022-06-19T13:20:46.459Z</time>
      </trkpt>
      <trkpt lat="43.02558833" lon="-7.20867667">
        <ele>848.0</ele>
        <time>2022-06-19T13:20:47.472Z</time>
      </trkpt>
      <trkpt lat="43.02556167" lon="-7.20889">
        <ele>847.0</ele>
        <time>2022-06-19T13:20:48.454Z</time>
      </trkpt>
      <trkpt lat="43.02555" lon="-7.208995">
        <ele>847.0</ele>
        <time>2022-06-19T13:20:49.454Z</time>
      </trkpt>
      <trkpt lat="43.02555" lon="-7.208995">
        <ele>847.0</ele>
        <time>2022-06-19T13:20:50.465Z</time>
      </trkpt>
      <trkpt lat="43.02552333" lon="-7.20921">
        <ele>846.0</ele>
        <time>2022-06-19T13:20:51.458Z</time>
      </trkpt>
      <trkpt lat="43.02552333" lon="-7.20921">
        <ele>846.0</ele>
        <time>2022-06-19T13:20:52.469Z</time>
      </trkpt>
      <trkpt lat="43.02548167" lon="-7.20942167">
        <ele>846.0</ele>
        <time>2022-06-19T13:20:53.461Z</time>
      </trkpt>
      <trkpt lat="43.02546" lon="-7.209525">
        <ele>846.0</ele>
        <time>2022-06-19T13:20:54.467Z</time>
      </trkpt>
      <trkpt lat="43.025435" lon="-7.209625">
        <ele>845.0</ele>
        <time>2022-06-19T13:20:55.478Z</time>
      </trkpt>
      <trkpt lat="43.025435" lon="-7.209625">
        <ele>845.0</ele>
        <time>2022-06-19T13:20:56.488Z</time>
      </trkpt>
      <trkpt lat="43.02538333" lon="-7.20981">
        <ele>846.0</ele>
        <time>2022-06-19T13:20:57.475Z</time>
      </trkpt>
      <trkpt lat="43.02538333" lon="-7.20981">
        <ele>846.0</ele>
        <time>2022-06-19T13:20:58.489Z</time>
      </trkpt>
      <trkpt lat="43.02533167" lon="-7.20997">
        <ele>846.0</ele>
        <time>2022-06-19T13:20:59.480Z</time>
      </trkpt>
      <trkpt lat="43.02533167" lon="-7.20997">
        <ele>846.0</ele>
        <time>2022-06-19T13:21:00.488Z</time>
      </trkpt>
      <trkpt lat="43.02527833" lon="-7.21010333">
        <ele>847.0</ele>
        <time>2022-06-19T13:21:01.485Z</time>
      </trkpt>
      <trkpt lat="43.02527833" lon="-7.21010333">
        <ele>847.0</ele>
        <time>2022-06-19T13:21:02.459Z</time>
      </trkpt>
      <trkpt lat="43.02522833" lon="-7.21020667">
        <ele>848.0</ele>
        <time>2022-06-19T13:21:03.490Z</time>
      </trkpt>
      <trkpt lat="43.02520833" lon="-7.21024833">
        <ele>848.0</ele>
        <time>2022-06-19T13:21:04.467Z</time>
      </trkpt>
      <trkpt lat="43.02520833" lon="-7.21024833">
        <ele>848.0</ele>
        <time>2022-06-19T13:21:05.466Z</time>
      </trkpt>
      <trkpt lat="43.02517" lon="-7.21032">
        <ele>849.0</ele>
        <time>2022-06-19T13:21:06.488Z</time>
      </trkpt>
      <trkpt lat="43.02515167" lon="-7.21035333">
        <ele>849.0</ele>
        <time>2022-06-19T13:21:07.487Z</time>
      </trkpt>
      <trkpt lat="43.02515167" lon="-7.21035333">
        <ele>849.0</ele>
        <time>2022-06-19T13:21:08.466Z</time>
      </trkpt>
      <trkpt lat="43.02511667" lon="-7.21042">
        <ele>850.0</ele>
        <time>2022-06-19T13:21:09.492Z</time>
      </trkpt>
      <trkpt lat="43.02511667" lon="-7.21042">
        <ele>850.0</ele>
        <time>2022-06-19T13:21:10.468Z</time>
      </trkpt>
      <trkpt lat="43.02507833" lon="-7.21048167">
        <ele>851.0</ele>
        <time>2022-06-19T13:21:11.484Z</time>
      </trkpt>
      <trkpt lat="43.02507833" lon="-7.21048167">
        <ele>851.0</ele>
        <time>2022-06-19T13:21:12.475Z</time>
      </trkpt>
      <trkpt lat="43.02504" lon="-7.21053833">
        <ele>851.0</ele>
        <time>2022-06-19T13:21:13.455Z</time>
      </trkpt>
      <trkpt lat="43.02504" lon="-7.21053833">
        <ele>851.0</ele>
        <time>2022-06-19T13:21:14.471Z</time>
      </trkpt>
      <trkpt lat="43.02499833" lon="-7.21059167">
        <ele>852.0</ele>
        <time>2022-06-19T13:21:15.469Z</time>
      </trkpt>
      <trkpt lat="43.02499833" lon="-7.21059167">
        <ele>852.0</ele>
        <time>2022-06-19T13:21:16.463Z</time>
      </trkpt>
      <trkpt lat="43.02496" lon="-7.21064833">
        <ele>852.0</ele>
        <time>2022-06-19T13:21:17.487Z</time>
      </trkpt>
      <trkpt lat="43.02496" lon="-7.21064833">
        <ele>852.0</ele>
        <time>2022-06-19T13:21:18.468Z</time>
      </trkpt>
      <trkpt lat="43.02492167" lon="-7.21070167">
        <ele>852.0</ele>
        <time>2022-06-19T13:21:19.462Z</time>
      </trkpt>
      <trkpt lat="43.02492167" lon="-7.21070167">
        <ele>852.0</ele>
        <time>2022-06-19T13:21:20.463Z</time>
      </trkpt>
      <trkpt lat="43.02488" lon="-7.210755">
        <ele>853.0</ele>
        <time>2022-06-19T13:21:21.482Z</time>
      </trkpt>
      <trkpt lat="43.02485833" lon="-7.21078">
        <ele>853.0</ele>
        <time>2022-06-19T13:21:22.482Z</time>
      </trkpt>
      <trkpt lat="43.02485833" lon="-7.21078">
        <ele>853.0</ele>
        <time>2022-06-19T13:21:23.478Z</time>
      </trkpt>
      <trkpt lat="43.024815" lon="-7.21083167">
        <ele>853.0</ele>
        <time>2022-06-19T13:21:24.479Z</time>
      </trkpt>
      <trkpt lat="43.024815" lon="-7.21083167">
        <ele>853.0</ele>
        <time>2022-06-19T13:21:25.450Z</time>
      </trkpt>
      <trkpt lat="43.02477" lon="-7.21088167">
        <ele>853.0</ele>
        <time>2022-06-19T13:21:26.458Z</time>
      </trkpt>
      <trkpt lat="43.02477" lon="-7.21088167">
        <ele>853.0</ele>
        <time>2022-06-19T13:21:27.451Z</time>
      </trkpt>
      <trkpt lat="43.02472667" lon="-7.21093">
        <ele>854.0</ele>
        <time>2022-06-19T13:21:28.474Z</time>
      </trkpt>
      <trkpt lat="43.02472667" lon="-7.21093">
        <ele>854.0</ele>
        <time>2022-06-19T13:21:29.455Z</time>
      </trkpt>
      <trkpt lat="43.02468333" lon="-7.21098">
        <ele>854.0</ele>
        <time>2022-06-19T13:21:30.480Z</time>
      </trkpt>
      <trkpt lat="43.02466333" lon="-7.21100667">
        <ele>855.0</ele>
        <time>2022-06-19T13:21:31.487Z</time>
      </trkpt>
      <trkpt lat="43.02466333" lon="-7.21100667">
        <ele>855.0</ele>
        <time>2022-06-19T13:21:32.468Z</time>
      </trkpt>
      <trkpt lat="43.02462167" lon="-7.21105667">
        <ele>855.0</ele>
        <time>2022-06-19T13:21:33.461Z</time>
      </trkpt>
      <trkpt lat="43.02462167" lon="-7.21105667">
        <ele>855.0</ele>
        <time>2022-06-19T13:21:34.478Z</time>
      </trkpt>
      <trkpt lat="43.02458" lon="-7.21110833">
        <ele>856.0</ele>
        <time>2022-06-19T13:21:35.458Z</time>
      </trkpt>
      <trkpt lat="43.02458" lon="-7.21110833">
        <ele>856.0</ele>
        <time>2022-06-19T13:21:36.476Z</time>
      </trkpt>
      <trkpt lat="43.02453667" lon="-7.211155">
        <ele>856.0</ele>
        <time>2022-06-19T13:21:37.460Z</time>
      </trkpt>
      <trkpt lat="43.02453667" lon="-7.211155">
        <ele>856.0</ele>
        <time>2022-06-19T13:21:38.473Z</time>
      </trkpt>
      <trkpt lat="43.024495" lon="-7.21120667">
        <ele>857.0</ele>
        <time>2022-06-19T13:21:39.491Z</time>
      </trkpt>
      <trkpt lat="43.024495" lon="-7.21120667">
        <ele>857.0</ele>
        <time>2022-06-19T13:21:40.481Z</time>
      </trkpt>
      <trkpt lat="43.024455" lon="-7.21125333">
        <ele>857.0</ele>
        <time>2022-06-19T13:21:41.451Z</time>
      </trkpt>
      <trkpt lat="43.024455" lon="-7.21125333">
        <ele>857.0</ele>
        <time>2022-06-19T13:21:42.479Z</time>
      </trkpt>
      <trkpt lat="43.024415" lon="-7.21129667">
        <ele>857.0</ele>
        <time>2022-06-19T13:21:43.457Z</time>
      </trkpt>
      <trkpt lat="43.024395" lon="-7.21132">
        <ele>857.0</ele>
        <time>2022-06-19T13:21:44.483Z</time>
      </trkpt>
      <trkpt lat="43.024395" lon="-7.21132">
        <ele>857.0</ele>
        <time>2022-06-19T13:21:45.463Z</time>
      </trkpt>
      <trkpt lat="43.024355" lon="-7.21136333">
        <ele>857.0</ele>
        <time>2022-06-19T13:21:46.452Z</time>
      </trkpt>
      <trkpt lat="43.024355" lon="-7.21136333">
        <ele>857.0</ele>
        <time>2022-06-19T13:21:47.473Z</time>
      </trkpt>
      <trkpt lat="43.02431667" lon="-7.211405">
        <ele>858.0</ele>
        <time>2022-06-19T13:21:48.463Z</time>
      </trkpt>
      <trkpt lat="43.02431667" lon="-7.211405">
        <ele>858.0</ele>
        <time>2022-06-19T13:21:49.460Z</time>
      </trkpt>
      <trkpt lat="43.02428" lon="-7.21145">
        <ele>858.0</ele>
        <time>2022-06-19T13:21:50.489Z</time>
      </trkpt>
      <trkpt lat="43.02428" lon="-7.21145">
        <ele>858.0</ele>
        <time>2022-06-19T13:21:51.466Z</time>
      </trkpt>
      <trkpt lat="43.024245" lon="-7.21149667">
        <ele>859.0</ele>
        <time>2022-06-19T13:21:52.468Z</time>
      </trkpt>
      <trkpt lat="43.024245" lon="-7.21149667">
        <ele>859.0</ele>
        <time>2022-06-19T13:21:53.783Z</time>
      </trkpt>
      <trkpt lat="43.02420833" lon="-7.21154">
        <ele>859.0</ele>
        <time>2022-06-19T13:21:54.454Z</time>
      </trkpt>
      <trkpt lat="43.02420833" lon="-7.21154">
        <ele>859.0</ele>
        <time>2022-06-19T13:21:55.463Z</time>
      </trkpt>
      <trkpt lat="43.02417" lon="-7.211585">
        <ele>860.0</ele>
        <time>2022-06-19T13:21:56.483Z</time>
      </trkpt>
      <trkpt lat="43.02415167" lon="-7.21160667">
        <ele>860.0</ele>
        <time>2022-06-19T13:21:57.458Z</time>
      </trkpt>
      <trkpt lat="43.02415167" lon="-7.21160667">
        <ele>860.0</ele>
        <time>2022-06-19T13:21:58.480Z</time>
      </trkpt>
      <trkpt lat="43.02410833" lon="-7.211655">
        <ele>860.0</ele>
        <time>2022-06-19T13:21:59.457Z</time>
      </trkpt>
      <trkpt lat="43.02410833" lon="-7.211655">
        <ele>860.0</ele>
        <time>2022-06-19T13:22:00.473Z</time>
      </trkpt>
      <trkpt lat="43.02407" lon="-7.21170333">
        <ele>860.0</ele>
        <time>2022-06-19T13:22:01.473Z</time>
      </trkpt>
      <trkpt lat="43.02407" lon="-7.21170333">
        <ele>860.0</ele>
        <time>2022-06-19T13:22:02.466Z</time>
      </trkpt>
      <trkpt lat="43.02403333" lon="-7.21175333">
        <ele>860.0</ele>
        <time>2022-06-19T13:22:03.458Z</time>
      </trkpt>
      <trkpt lat="43.02401333" lon="-7.21177833">
        <ele>860.0</ele>
        <time>2022-06-19T13:22:04.455Z</time>
      </trkpt>
      <trkpt lat="43.02401333" lon="-7.21177833">
        <ele>860.0</ele>
        <time>2022-06-19T13:22:05.484Z</time>
      </trkpt>
      <trkpt lat="43.02397667" lon="-7.21182833">
        <ele>861.0</ele>
        <time>2022-06-19T13:22:06.490Z</time>
      </trkpt>
      <trkpt lat="43.02395833" lon="-7.211855">
        <ele>861.0</ele>
        <time>2022-06-19T13:22:07.457Z</time>
      </trkpt>
      <trkpt lat="43.02394167" lon="-7.21188167">
        <ele>861.0</ele>
        <time>2022-06-19T13:22:08.480Z</time>
      </trkpt>
      <trkpt lat="43.02394167" lon="-7.21188167">
        <ele>861.0</ele>
        <time>2022-06-19T13:22:09.476Z</time>
      </trkpt>
      <trkpt lat="43.02390833" lon="-7.21193667">
        <ele>861.0</ele>
        <time>2022-06-19T13:22:10.460Z</time>
      </trkpt>
      <trkpt lat="43.02389333" lon="-7.21196333">
        <ele>862.0</ele>
        <time>2022-06-19T13:22:11.481Z</time>
      </trkpt>
      <trkpt lat="43.02389333" lon="-7.21196333">
        <ele>862.0</ele>
        <time>2022-06-19T13:22:12.478Z</time>
      </trkpt>
      <trkpt lat="43.02385667" lon="-7.212015">
        <ele>862.0</ele>
        <time>2022-06-19T13:22:13.463Z</time>
      </trkpt>
      <trkpt lat="43.02385667" lon="-7.212015">
        <ele>862.0</ele>
        <time>2022-06-19T13:22:14.456Z</time>
      </trkpt>
      <trkpt lat="43.02382667" lon="-7.21206833">
        <ele>863.0</ele>
        <time>2022-06-19T13:22:15.482Z</time>
      </trkpt>
      <trkpt lat="43.02381167" lon="-7.21209667">
        <ele>863.0</ele>
        <time>2022-06-19T13:22:16.470Z</time>
      </trkpt>
      <trkpt lat="43.02381167" lon="-7.21209667">
        <ele>863.0</ele>
        <time>2022-06-19T13:22:17.479Z</time>
      </trkpt>
      <trkpt lat="43.02378333" lon="-7.21215667">
        <ele>864.0</ele>
        <time>2022-06-19T13:22:18.467Z</time>
      </trkpt>
      <trkpt lat="43.02377" lon="-7.212185">
        <ele>864.0</ele>
        <time>2022-06-19T13:22:19.451Z</time>
      </trkpt>
      <trkpt lat="43.02377" lon="-7.212185">
        <ele>864.0</ele>
        <time>2022-06-19T13:22:20.473Z</time>
      </trkpt>
      <trkpt lat="43.023745" lon="-7.21223667">
        <ele>864.0</ele>
        <time>2022-06-19T13:22:21.490Z</time>
      </trkpt>
      <trkpt lat="43.023745" lon="-7.21223667">
        <ele>864.0</ele>
        <time>2022-06-19T13:22:22.483Z</time>
      </trkpt>
      <trkpt lat="43.023725" lon="-7.21228833">
        <ele>865.0</ele>
        <time>2022-06-19T13:22:23.476Z</time>
      </trkpt>
      <trkpt lat="43.023715" lon="-7.21231667">
        <ele>865.0</ele>
        <time>2022-06-19T13:22:24.487Z</time>
      </trkpt>
      <trkpt lat="43.023715" lon="-7.21231667">
        <ele>865.0</ele>
        <time>2022-06-19T13:22:25.483Z</time>
      </trkpt>
      <trkpt lat="43.02369333" lon="-7.21237333">
        <ele>865.0</ele>
        <time>2022-06-19T13:22:26.477Z</time>
      </trkpt>
      <trkpt lat="43.02368167" lon="-7.21240167">
        <ele>866.0</ele>
        <time>2022-06-19T13:22:27.487Z</time>
      </trkpt>
      <trkpt lat="43.02367333" lon="-7.21243167">
        <ele>866.0</ele>
        <time>2022-06-19T13:22:28.473Z</time>
      </trkpt>
      <trkpt lat="43.02366333" lon="-7.21246">
        <ele>866.0</ele>
        <time>2022-06-19T13:22:29.479Z</time>
      </trkpt>
      <trkpt lat="43.02366333" lon="-7.21246">
        <ele>866.0</ele>
        <time>2022-06-19T13:22:30.472Z</time>
      </trkpt>
      <trkpt lat="43.02364833" lon="-7.21251833">
        <ele>866.0</ele>
        <time>2022-06-19T13:22:31.474Z</time>
      </trkpt>
      <trkpt lat="43.02364833" lon="-7.21251833">
        <ele>866.0</ele>
        <time>2022-06-19T13:22:32.482Z</time>
      </trkpt>
      <trkpt lat="43.02363333" lon="-7.21257833">
        <ele>867.0</ele>
        <time>2022-06-19T13:22:33.469Z</time>
      </trkpt>
      <trkpt lat="43.02363333" lon="-7.21257833">
        <ele>867.0</ele>
        <time>2022-06-19T13:22:34.477Z</time>
      </trkpt>
      <trkpt lat="43.02361667" lon="-7.212635">
        <ele>867.0</ele>
        <time>2022-06-19T13:22:35.461Z</time>
      </trkpt>
      <trkpt lat="43.02361667" lon="-7.212635">
        <ele>867.0</ele>
        <time>2022-06-19T13:22:36.480Z</time>
      </trkpt>
      <trkpt lat="43.02360333" lon="-7.21269167">
        <ele>867.0</ele>
        <time>2022-06-19T13:22:37.457Z</time>
      </trkpt>
      <trkpt lat="43.02360333" lon="-7.21269167">
        <ele>867.0</ele>
        <time>2022-06-19T13:22:38.485Z</time>
      </trkpt>
      <trkpt lat="43.02359" lon="-7.21274667">
        <ele>868.0</ele>
        <time>2022-06-19T13:22:39.468Z</time>
      </trkpt>
      <trkpt lat="43.02358667" lon="-7.21277167">
        <ele>868.0</ele>
        <time>2022-06-19T13:22:40.488Z</time>
      </trkpt>
      <trkpt lat="43.02358667" lon="-7.21277167">
        <ele>868.0</ele>
        <time>2022-06-19T13:22:41.474Z</time>
      </trkpt>
      <trkpt lat="43.02357833" lon="-7.212835">
        <ele>869.0</ele>
        <time>2022-06-19T13:22:42.457Z</time>
      </trkpt>
      <trkpt lat="43.023575" lon="-7.21286333">
        <ele>869.0</ele>
        <time>2022-06-19T13:22:43.467Z</time>
      </trkpt>
      <trkpt lat="43.023575" lon="-7.21286333">
        <ele>869.0</ele>
        <time>2022-06-19T13:22:44.483Z</time>
      </trkpt>
      <trkpt lat="43.02356833" lon="-7.21291667">
        <ele>869.0</ele>
        <time>2022-06-19T13:22:45.457Z</time>
      </trkpt>
      <trkpt lat="43.02356833" lon="-7.21291667">
        <ele>869.0</ele>
        <time>2022-06-19T13:22:46.468Z</time>
      </trkpt>
      <trkpt lat="43.02356167" lon="-7.21297">
        <ele>870.0</ele>
        <time>2022-06-19T13:22:47.485Z</time>
      </trkpt>
      <trkpt lat="43.02356167" lon="-7.21297">
        <ele>870.0</ele>
        <time>2022-06-19T13:22:48.479Z</time>
      </trkpt>
      <trkpt lat="43.023555" lon="-7.213025">
        <ele>870.0</ele>
        <time>2022-06-19T13:22:49.480Z</time>
      </trkpt>
      <trkpt lat="43.023555" lon="-7.213025">
        <ele>870.0</ele>
        <time>2022-06-19T13:22:50.476Z</time>
      </trkpt>
      <trkpt lat="43.02354833" lon="-7.21308">
        <ele>871.0</ele>
        <time>2022-06-19T13:22:51.470Z</time>
      </trkpt>
      <trkpt lat="43.02354833" lon="-7.21308">
        <ele>871.0</ele>
        <time>2022-06-19T13:22:52.473Z</time>
      </trkpt>
      <trkpt lat="43.02354333" lon="-7.21313">
        <ele>871.0</ele>
        <time>2022-06-19T13:22:53.807Z</time>
      </trkpt>
      <trkpt lat="43.02354333" lon="-7.21315833">
        <ele>871.0</ele>
        <time>2022-06-19T13:22:54.477Z</time>
      </trkpt>
      <trkpt lat="43.02354333" lon="-7.213185">
        <ele>871.0</ele>
        <time>2022-06-19T13:22:55.474Z</time>
      </trkpt>
      <trkpt lat="43.02354333" lon="-7.213185">
        <ele>871.0</ele>
        <time>2022-06-19T13:22:56.450Z</time>
      </trkpt>
      <trkpt lat="43.02354" lon="-7.21324">
        <ele>871.0</ele>
        <time>2022-06-19T13:22:57.453Z</time>
      </trkpt>
      <trkpt lat="43.02354" lon="-7.21324">
        <ele>871.0</ele>
        <time>2022-06-19T13:22:58.482Z</time>
      </trkpt>
      <trkpt lat="43.023535" lon="-7.21329667">
        <ele>872.0</ele>
        <time>2022-06-19T13:22:59.469Z</time>
      </trkpt>
      <trkpt lat="43.023535" lon="-7.21329667">
        <ele>872.0</ele>
        <time>2022-06-19T13:23:00.451Z</time>
      </trkpt>
      <trkpt lat="43.02352833" lon="-7.21335167">
        <ele>872.0</ele>
        <time>2022-06-19T13:23:01.473Z</time>
      </trkpt>
      <trkpt lat="43.02352833" lon="-7.21335167">
        <ele>872.0</ele>
        <time>2022-06-19T13:23:02.489Z</time>
      </trkpt>
      <trkpt lat="43.023525" lon="-7.21340667">
        <ele>872.0</ele>
        <time>2022-06-19T13:23:03.471Z</time>
      </trkpt>
      <trkpt lat="43.023525" lon="-7.21343333">
        <ele>873.0</ele>
        <time>2022-06-19T13:23:04.484Z</time>
      </trkpt>
      <trkpt lat="43.023525" lon="-7.21343333">
        <ele>873.0</ele>
        <time>2022-06-19T13:23:05.462Z</time>
      </trkpt>
      <trkpt lat="43.02351833" lon="-7.21349">
        <ele>873.0</ele>
        <time>2022-06-19T13:23:06.486Z</time>
      </trkpt>
      <trkpt lat="43.023515" lon="-7.21351833">
        <ele>873.0</ele>
        <time>2022-06-19T13:23:07.475Z</time>
      </trkpt>
      <trkpt lat="43.023515" lon="-7.21351833">
        <ele>873.0</ele>
        <time>2022-06-19T13:23:08.452Z</time>
      </trkpt>
      <trkpt lat="43.02351" lon="-7.21357667">
        <ele>874.0</ele>
        <time>2022-06-19T13:23:09.476Z</time>
      </trkpt>
      <trkpt lat="43.02350833" lon="-7.213605">
        <ele>874.0</ele>
        <time>2022-06-19T13:23:10.465Z</time>
      </trkpt>
      <trkpt lat="43.023505" lon="-7.21363333">
        <ele>874.0</ele>
        <time>2022-06-19T13:23:11.460Z</time>
      </trkpt>
      <trkpt lat="43.023505" lon="-7.21363333">
        <ele>874.0</ele>
        <time>2022-06-19T13:23:12.488Z</time>
      </trkpt>
      <trkpt lat="43.02349333" lon="-7.21369833">
        <ele>874.0</ele>
        <time>2022-06-19T13:23:13.471Z</time>
      </trkpt>
      <trkpt lat="43.02349333" lon="-7.21369833">
        <ele>874.0</ele>
        <time>2022-06-19T13:23:14.474Z</time>
      </trkpt>
      <trkpt lat="43.02348333" lon="-7.21376">
        <ele>874.0</ele>
        <time>2022-06-19T13:23:15.465Z</time>
      </trkpt>
      <trkpt lat="43.02348333" lon="-7.21376">
        <ele>874.0</ele>
        <time>2022-06-19T13:23:16.469Z</time>
      </trkpt>
      <trkpt lat="43.02347667" lon="-7.21382">
        <ele>875.0</ele>
        <time>2022-06-19T13:23:17.452Z</time>
      </trkpt>
      <trkpt lat="43.02347667" lon="-7.21382">
        <ele>875.0</ele>
        <time>2022-06-19T13:23:18.473Z</time>
      </trkpt>
      <trkpt lat="43.02346833" lon="-7.21388">
        <ele>875.0</ele>
        <time>2022-06-19T13:23:19.453Z</time>
      </trkpt>
      <trkpt lat="43.02346833" lon="-7.21388">
        <ele>875.0</ele>
        <time>2022-06-19T13:23:20.480Z</time>
      </trkpt>
      <trkpt lat="43.02345667" lon="-7.21393667">
        <ele>875.0</ele>
        <time>2022-06-19T13:23:21.476Z</time>
      </trkpt>
      <trkpt lat="43.02345667" lon="-7.21393667">
        <ele>875.0</ele>
        <time>2022-06-19T13:23:22.472Z</time>
      </trkpt>
      <trkpt lat="43.023445" lon="-7.21399833">
        <ele>875.0</ele>
        <time>2022-06-19T13:23:23.453Z</time>
      </trkpt>
      <trkpt lat="43.023445" lon="-7.21399833">
        <ele>875.0</ele>
        <time>2022-06-19T13:23:24.470Z</time>
      </trkpt>
      <trkpt lat="43.02343333" lon="-7.21406">
        <ele>876.0</ele>
        <time>2022-06-19T13:23:25.463Z</time>
      </trkpt>
      <trkpt lat="43.02343333" lon="-7.21406">
        <ele>876.0</ele>
        <time>2022-06-19T13:23:26.459Z</time>
      </trkpt>
      <trkpt lat="43.02341833" lon="-7.21412">
        <ele>876.0</ele>
        <time>2022-06-19T13:23:27.477Z</time>
      </trkpt>
      <trkpt lat="43.02341833" lon="-7.21412">
        <ele>876.0</ele>
        <time>2022-06-19T13:23:28.451Z</time>
      </trkpt>
      <trkpt lat="43.02340167" lon="-7.21417667">
        <ele>876.0</ele>
        <time>2022-06-19T13:23:29.470Z</time>
      </trkpt>
      <trkpt lat="43.023395" lon="-7.21420667">
        <ele>877.0</ele>
        <time>2022-06-19T13:23:30.457Z</time>
      </trkpt>
      <trkpt lat="43.023395" lon="-7.21420667">
        <ele>877.0</ele>
        <time>2022-06-19T13:23:31.461Z</time>
      </trkpt>
      <trkpt lat="43.023375" lon="-7.21426167">
        <ele>877.0</ele>
        <time>2022-06-19T13:23:32.487Z</time>
      </trkpt>
      <trkpt lat="43.023375" lon="-7.21426167">
        <ele>877.0</ele>
        <time>2022-06-19T13:23:33.457Z</time>
      </trkpt>
      <trkpt lat="43.02335333" lon="-7.21432333">
        <ele>877.0</ele>
        <time>2022-06-19T13:23:34.489Z</time>
      </trkpt>
      <trkpt lat="43.02335333" lon="-7.21432333">
        <ele>877.0</ele>
        <time>2022-06-19T13:23:35.461Z</time>
      </trkpt>
      <trkpt lat="43.02332833" lon="-7.214385">
        <ele>878.0</ele>
        <time>2022-06-19T13:23:36.493Z</time>
      </trkpt>
      <trkpt lat="43.023315" lon="-7.21441833">
        <ele>878.0</ele>
        <time>2022-06-19T13:23:37.497Z</time>
      </trkpt>
      <trkpt lat="43.023315" lon="-7.21441833">
        <ele>878.0</ele>
        <time>2022-06-19T13:23:38.463Z</time>
      </trkpt>
      <trkpt lat="43.02328" lon="-7.21448167">
        <ele>878.0</ele>
        <time>2022-06-19T13:23:39.468Z</time>
      </trkpt>
      <trkpt lat="43.02326167" lon="-7.214515">
        <ele>878.0</ele>
        <time>2022-06-19T13:23:40.454Z</time>
      </trkpt>
      <trkpt lat="43.02326167" lon="-7.214515">
        <ele>878.0</ele>
        <time>2022-06-19T13:23:41.479Z</time>
      </trkpt>
      <trkpt lat="43.023225" lon="-7.21458">
        <ele>879.0</ele>
        <time>2022-06-19T13:23:42.460Z</time>
      </trkpt>
      <trkpt lat="43.02320333" lon="-7.21461667">
        <ele>879.0</ele>
        <time>2022-06-19T13:23:43.483Z</time>
      </trkpt>
      <trkpt lat="43.02318167" lon="-7.21465">
        <ele>879.0</ele>
        <time>2022-06-19T13:23:44.459Z</time>
      </trkpt>
      <trkpt lat="43.02318167" lon="-7.21465">
        <ele>879.0</ele>
        <time>2022-06-19T13:23:45.461Z</time>
      </trkpt>
      <trkpt lat="43.02313833" lon="-7.21471333">
        <ele>879.0</ele>
        <time>2022-06-19T13:23:46.458Z</time>
      </trkpt>
      <trkpt lat="43.023115" lon="-7.21475">
        <ele>879.0</ele>
        <time>2022-06-19T13:23:47.452Z</time>
      </trkpt>
      <trkpt lat="43.023115" lon="-7.21475">
        <ele>879.0</ele>
        <time>2022-06-19T13:23:48.473Z</time>
      </trkpt>
      <trkpt lat="43.02306833" lon="-7.21482667">
        <ele>880.0</ele>
        <time>2022-06-19T13:23:49.482Z</time>
      </trkpt>
      <trkpt lat="43.02304333" lon="-7.21486">
        <ele>880.0</ele>
        <time>2022-06-19T13:23:50.478Z</time>
      </trkpt>
      <trkpt lat="43.02304333" lon="-7.21486">
        <ele>880.0</ele>
        <time>2022-06-19T13:23:51.476Z</time>
      </trkpt>
      <trkpt lat="43.022985" lon="-7.21494167">
        <ele>879.0</ele>
        <time>2022-06-19T13:23:52.481Z</time>
      </trkpt>
      <trkpt lat="43.022985" lon="-7.21494167">
        <ele>879.0</ele>
        <time>2022-06-19T13:23:53.648Z</time>
      </trkpt>
      <trkpt lat="43.02293333" lon="-7.21502">
        <ele>879.0</ele>
        <time>2022-06-19T13:23:54.481Z</time>
      </trkpt>
      <trkpt lat="43.02291" lon="-7.21506">
        <ele>879.0</ele>
        <time>2022-06-19T13:23:55.476Z</time>
      </trkpt>
      <trkpt lat="43.02291" lon="-7.21506">
        <ele>879.0</ele>
        <time>2022-06-19T13:23:56.470Z</time>
      </trkpt>
      <trkpt lat="43.022855" lon="-7.215145">
        <ele>879.0</ele>
        <time>2022-06-19T13:23:57.451Z</time>
      </trkpt>
      <trkpt lat="43.02282833" lon="-7.21519167">
        <ele>879.0</ele>
        <time>2022-06-19T13:23:58.487Z</time>
      </trkpt>
      <trkpt lat="43.02282833" lon="-7.21519167">
        <ele>879.0</ele>
        <time>2022-06-19T13:23:59.463Z</time>
      </trkpt>
      <trkpt lat="43.02277333" lon="-7.21529333">
        <ele>879.0</ele>
        <time>2022-06-19T13:24:00.486Z</time>
      </trkpt>
      <trkpt lat="43.02274833" lon="-7.21534833">
        <ele>879.0</ele>
        <time>2022-06-19T13:24:01.488Z</time>
      </trkpt>
      <trkpt lat="43.02274833" lon="-7.21534833">
        <ele>879.0</ele>
        <time>2022-06-19T13:24:02.487Z</time>
      </trkpt>
      <trkpt lat="43.02269833" lon="-7.215465">
        <ele>878.0</ele>
        <time>2022-06-19T13:24:03.468Z</time>
      </trkpt>
      <trkpt lat="43.02269833" lon="-7.215465">
        <ele>878.0</ele>
        <time>2022-06-19T13:24:04.477Z</time>
      </trkpt>
      <trkpt lat="43.022655" lon="-7.215595">
        <ele>877.0</ele>
        <time>2022-06-19T13:24:05.457Z</time>
      </trkpt>
      <trkpt lat="43.02263333" lon="-7.21566667">
        <ele>877.0</ele>
        <time>2022-06-19T13:24:06.463Z</time>
      </trkpt>
      <trkpt lat="43.02263333" lon="-7.21566667">
        <ele>877.0</ele>
        <time>2022-06-19T13:24:07.479Z</time>
      </trkpt>
      <trkpt lat="43.02259" lon="-7.21582333">
        <ele>876.0</ele>
        <time>2022-06-19T13:24:08.484Z</time>
      </trkpt>
      <trkpt lat="43.02259" lon="-7.21582333">
        <ele>876.0</ele>
        <time>2022-06-19T13:24:09.476Z</time>
      </trkpt>
      <trkpt lat="43.02254833" lon="-7.21599167">
        <ele>875.0</ele>
        <time>2022-06-19T13:24:10.467Z</time>
      </trkpt>
      <trkpt lat="43.022525" lon="-7.21608333">
        <ele>875.0</ele>
        <time>2022-06-19T13:24:11.488Z</time>
      </trkpt>
      <trkpt lat="43.022525" lon="-7.21608333">
        <ele>875.0</ele>
        <time>2022-06-19T13:24:12.480Z</time>
      </trkpt>
      <trkpt lat="43.02247667" lon="-7.21627333">
        <ele>874.0</ele>
        <time>2022-06-19T13:24:13.489Z</time>
      </trkpt>
      <trkpt lat="43.02245667" lon="-7.21635833">
        <ele>873.0</ele>
        <time>2022-06-19T13:24:14.463Z</time>
      </trkpt>
      <trkpt lat="43.02245667" lon="-7.21635833">
        <ele>873.0</ele>
        <time>2022-06-19T13:24:15.465Z</time>
      </trkpt>
      <trkpt lat="43.02243" lon="-7.21649">
        <ele>872.0</ele>
        <time>2022-06-19T13:24:16.479Z</time>
      </trkpt>
      <trkpt lat="43.02243667" lon="-7.21655">
        <ele>872.0</ele>
        <time>2022-06-19T13:24:17.480Z</time>
      </trkpt>
      <trkpt lat="43.02243667" lon="-7.21655">
        <ele>872.0</ele>
        <time>2022-06-19T13:24:18.464Z</time>
      </trkpt>
      <trkpt lat="43.02248" lon="-7.21664833">
        <ele>871.0</ele>
        <time>2022-06-19T13:24:19.450Z</time>
      </trkpt>
      <trkpt lat="43.02248" lon="-7.21664833">
        <ele>871.0</ele>
        <time>2022-06-19T13:24:20.476Z</time>
      </trkpt>
      <trkpt lat="43.02251667" lon="-7.21671667">
        <ele>870.0</ele>
        <time>2022-06-19T13:24:21.456Z</time>
      </trkpt>
      <trkpt lat="43.02251667" lon="-7.21671667">
        <ele>870.0</ele>
        <time>2022-06-19T13:24:22.461Z</time>
      </trkpt>
      <trkpt lat="43.02255167" lon="-7.21677833">
        <ele>870.0</ele>
        <time>2022-06-19T13:24:23.489Z</time>
      </trkpt>
      <trkpt lat="43.02255167" lon="-7.21677833">
        <ele>870.0</ele>
        <time>2022-06-19T13:24:24.477Z</time>
      </trkpt>
      <trkpt lat="43.02258667" lon="-7.21683167">
        <ele>870.0</ele>
        <time>2022-06-19T13:24:25.481Z</time>
      </trkpt>
      <trkpt lat="43.02259667" lon="-7.21685833">
        <ele>870.0</ele>
        <time>2022-06-19T13:24:26.489Z</time>
      </trkpt>
      <trkpt lat="43.02259667" lon="-7.21685833">
        <ele>870.0</ele>
        <time>2022-06-19T13:24:27.457Z</time>
      </trkpt>
      <trkpt lat="43.022625" lon="-7.216905">
        <ele>870.0</ele>
        <time>2022-06-19T13:24:28.459Z</time>
      </trkpt>
      <trkpt lat="43.022625" lon="-7.216905">
        <ele>870.0</ele>
        <time>2022-06-19T13:24:29.584Z</time>
      </trkpt>
      <trkpt lat="43.02265667" lon="-7.21693833">
        <ele>870.0</ele>
        <time>2022-06-19T13:24:30.458Z</time>
      </trkpt>
      <trkpt lat="43.02265667" lon="-7.21693833">
        <ele>870.0</ele>
        <time>2022-06-19T13:24:31.461Z</time>
      </trkpt>
      <trkpt lat="43.02267167" lon="-7.21698333">
        <ele>870.0</ele>
        <time>2022-06-19T13:24:32.453Z</time>
      </trkpt>
      <trkpt lat="43.02267667" lon="-7.21701333">
        <ele>871.0</ele>
        <time>2022-06-19T13:24:33.456Z</time>
      </trkpt>
      <trkpt lat="43.02267667" lon="-7.21701333">
        <ele>871.0</ele>
        <time>2022-06-19T13:24:34.451Z</time>
      </trkpt>
      <trkpt lat="43.02269167" lon="-7.21707333">
        <ele>872.0</ele>
        <time>2022-06-19T13:24:35.484Z</time>
      </trkpt>
      <trkpt lat="43.02269167" lon="-7.21707333">
        <ele>872.0</ele>
        <time>2022-06-19T13:24:36.489Z</time>
      </trkpt>
      <trkpt lat="43.02271" lon="-7.21712833">
        <ele>872.0</ele>
        <time>2022-06-19T13:24:37.468Z</time>
      </trkpt>
      <trkpt lat="43.02271" lon="-7.21712833">
        <ele>872.0</ele>
        <time>2022-06-19T13:24:38.481Z</time>
      </trkpt>
      <trkpt lat="43.02272167" lon="-7.217185">
        <ele>873.0</ele>
        <time>2022-06-19T13:24:39.489Z</time>
      </trkpt>
      <trkpt lat="43.02273" lon="-7.21721167">
        <ele>874.0</ele>
        <time>2022-06-19T13:24:40.464Z</time>
      </trkpt>
      <trkpt lat="43.02273" lon="-7.21721167">
        <ele>874.0</ele>
        <time>2022-06-19T13:24:41.486Z</time>
      </trkpt>
      <trkpt lat="43.02275167" lon="-7.21726">
        <ele>875.0</ele>
        <time>2022-06-19T13:24:42.464Z</time>
      </trkpt>
      <trkpt lat="43.022765" lon="-7.217285">
        <ele>875.0</ele>
        <time>2022-06-19T13:24:43.484Z</time>
      </trkpt>
      <trkpt lat="43.022765" lon="-7.217285">
        <ele>875.0</ele>
        <time>2022-06-19T13:24:44.473Z</time>
      </trkpt>
      <trkpt lat="43.022785" lon="-7.21733667">
        <ele>876.0</ele>
        <time>2022-06-19T13:24:45.452Z</time>
      </trkpt>
      <trkpt lat="43.022785" lon="-7.21733667">
        <ele>876.0</ele>
        <time>2022-06-19T13:24:46.480Z</time>
      </trkpt>
      <trkpt lat="43.02281" lon="-7.21739333">
        <ele>876.0</ele>
        <time>2022-06-19T13:24:47.456Z</time>
      </trkpt>
      <trkpt lat="43.02281" lon="-7.21739333">
        <ele>876.0</ele>
        <time>2022-06-19T13:24:48.451Z</time>
      </trkpt>
      <trkpt lat="43.02283167" lon="-7.21744333">
        <ele>876.0</ele>
        <time>2022-06-19T13:24:49.476Z</time>
      </trkpt>
      <trkpt lat="43.02283167" lon="-7.21744333">
        <ele>876.0</ele>
        <time>2022-06-19T13:24:50.453Z</time>
      </trkpt>
      <trkpt lat="43.02285333" lon="-7.217495">
        <ele>878.0</ele>
        <time>2022-06-19T13:24:51.487Z</time>
      </trkpt>
      <trkpt lat="43.02285333" lon="-7.217495">
        <ele>878.0</ele>
        <time>2022-06-19T13:24:52.488Z</time>
      </trkpt>
      <trkpt lat="43.022875" lon="-7.21754667">
        <ele>878.0</ele>
        <time>2022-06-19T13:24:53.481Z</time>
      </trkpt>
      <trkpt lat="43.02288667" lon="-7.21757167">
        <ele>878.0</ele>
        <time>2022-06-19T13:24:54.484Z</time>
      </trkpt>
      <trkpt lat="43.02288667" lon="-7.21757167">
        <ele>878.0</ele>
        <time>2022-06-19T13:24:55.467Z</time>
      </trkpt>
      <trkpt lat="43.02291" lon="-7.21763167">
        <ele>878.0</ele>
        <time>2022-06-19T13:24:56.461Z</time>
      </trkpt>
      <trkpt lat="43.02291" lon="-7.21763167">
        <ele>878.0</ele>
        <time>2022-06-19T13:24:57.463Z</time>
      </trkpt>
      <trkpt lat="43.02293167" lon="-7.217675">
        <ele>878.0</ele>
        <time>2022-06-19T13:24:58.484Z</time>
      </trkpt>
      <trkpt lat="43.02293167" lon="-7.217675">
        <ele>878.0</ele>
        <time>2022-06-19T13:24:59.466Z</time>
      </trkpt>
      <trkpt lat="43.02295" lon="-7.217715">
        <ele>879.0</ele>
        <time>2022-06-19T13:25:00.453Z</time>
      </trkpt>
      <trkpt lat="43.02296" lon="-7.21773667">
        <ele>879.0</ele>
        <time>2022-06-19T13:25:01.491Z</time>
      </trkpt>
      <trkpt lat="43.02296" lon="-7.21773667">
        <ele>879.0</ele>
        <time>2022-06-19T13:25:02.469Z</time>
      </trkpt>
      <trkpt lat="43.02298167" lon="-7.21778">
        <ele>879.0</ele>
        <time>2022-06-19T13:25:03.451Z</time>
      </trkpt>
      <trkpt lat="43.02298167" lon="-7.21778">
        <ele>879.0</ele>
        <time>2022-06-19T13:25:04.477Z</time>
      </trkpt>
      <trkpt lat="43.02301" lon="-7.217825">
        <ele>880.0</ele>
        <time>2022-06-19T13:25:05.450Z</time>
      </trkpt>
      <trkpt lat="43.02301" lon="-7.217825">
        <ele>880.0</ele>
        <time>2022-06-19T13:25:06.471Z</time>
      </trkpt>
      <trkpt lat="43.02303167" lon="-7.21786833">
        <ele>880.0</ele>
        <time>2022-06-19T13:25:07.486Z</time>
      </trkpt>
      <trkpt lat="43.02303167" lon="-7.21786833">
        <ele>880.0</ele>
        <time>2022-06-19T13:25:08.450Z</time>
      </trkpt>
      <trkpt lat="43.02305333" lon="-7.217915">
        <ele>880.0</ele>
        <time>2022-06-19T13:25:09.470Z</time>
      </trkpt>
      <trkpt lat="43.02306" lon="-7.21793833">
        <ele>880.0</ele>
        <time>2022-06-19T13:25:10.487Z</time>
      </trkpt>
      <trkpt lat="43.02306833" lon="-7.21796">
        <ele>881.0</ele>
        <time>2022-06-19T13:25:11.473Z</time>
      </trkpt>
      <trkpt lat="43.02306833" lon="-7.21796">
        <ele>881.0</ele>
        <time>2022-06-19T13:25:12.476Z</time>
      </trkpt>
      <trkpt lat="43.02308833" lon="-7.21800333">
        <ele>881.0</ele>
        <time>2022-06-19T13:25:13.452Z</time>
      </trkpt>
      <trkpt lat="43.02309667" lon="-7.218025">
        <ele>881.0</ele>
        <time>2022-06-19T13:25:14.483Z</time>
      </trkpt>
      <trkpt lat="43.02309667" lon="-7.218025">
        <ele>881.0</ele>
        <time>2022-06-19T13:25:15.474Z</time>
      </trkpt>
      <trkpt lat="43.023115" lon="-7.21806167">
        <ele>881.0</ele>
        <time>2022-06-19T13:25:16.451Z</time>
      </trkpt>
      <trkpt lat="43.023115" lon="-7.21806167">
        <ele>881.0</ele>
        <time>2022-06-19T13:25:17.466Z</time>
      </trkpt>
      <trkpt lat="43.02313" lon="-7.21810333">
        <ele>881.0</ele>
        <time>2022-06-19T13:25:18.452Z</time>
      </trkpt>
      <trkpt lat="43.02313833" lon="-7.21812667">
        <ele>881.0</ele>
        <time>2022-06-19T13:25:19.473Z</time>
      </trkpt>
      <trkpt lat="43.02313833" lon="-7.21812667">
        <ele>881.0</ele>
        <time>2022-06-19T13:25:20.490Z</time>
      </trkpt>
      <trkpt lat="43.023165" lon="-7.21817167">
        <ele>882.0</ele>
        <time>2022-06-19T13:25:21.487Z</time>
      </trkpt>
      <trkpt lat="43.023165" lon="-7.21817167">
        <ele>882.0</ele>
        <time>2022-06-19T13:25:22.471Z</time>
      </trkpt>
      <trkpt lat="43.02318667" lon="-7.21821667">
        <ele>882.0</ele>
        <time>2022-06-19T13:25:23.460Z</time>
      </trkpt>
      <trkpt lat="43.02318667" lon="-7.21821667">
        <ele>882.0</ele>
        <time>2022-06-19T13:25:24.469Z</time>
      </trkpt>
      <trkpt lat="43.02320667" lon="-7.21826333">
        <ele>882.0</ele>
        <time>2022-06-19T13:25:25.455Z</time>
      </trkpt>
      <trkpt lat="43.02320667" lon="-7.21826333">
        <ele>882.0</ele>
        <time>2022-06-19T13:25:26.468Z</time>
      </trkpt>
      <trkpt lat="43.02322833" lon="-7.21831">
        <ele>882.0</ele>
        <time>2022-06-19T13:25:27.483Z</time>
      </trkpt>
      <trkpt lat="43.02322833" lon="-7.21831">
        <ele>882.0</ele>
        <time>2022-06-19T13:25:28.461Z</time>
      </trkpt>
      <trkpt lat="43.02324667" lon="-7.21836">
        <ele>882.0</ele>
        <time>2022-06-19T13:25:29.490Z</time>
      </trkpt>
      <trkpt lat="43.02324667" lon="-7.21836">
        <ele>882.0</ele>
        <time>2022-06-19T13:25:30.486Z</time>
      </trkpt>
      <trkpt lat="43.02327167" lon="-7.21840333">
        <ele>883.0</ele>
        <time>2022-06-19T13:25:31.463Z</time>
      </trkpt>
      <trkpt lat="43.02327167" lon="-7.21840333">
        <ele>883.0</ele>
        <time>2022-06-19T13:25:32.455Z</time>
      </trkpt>
      <trkpt lat="43.02329333" lon="-7.21845">
        <ele>883.0</ele>
        <time>2022-06-19T13:25:33.483Z</time>
      </trkpt>
      <trkpt lat="43.02329333" lon="-7.21845">
        <ele>883.0</ele>
        <time>2022-06-19T13:25:34.477Z</time>
      </trkpt>
      <trkpt lat="43.02330667" lon="-7.21849833">
        <ele>883.0</ele>
        <time>2022-06-19T13:25:35.473Z</time>
      </trkpt>
      <trkpt lat="43.02330667" lon="-7.21849833">
        <ele>883.0</ele>
        <time>2022-06-19T13:25:36.451Z</time>
      </trkpt>
      <trkpt lat="43.02331833" lon="-7.21855167">
        <ele>883.0</ele>
        <time>2022-06-19T13:25:37.478Z</time>
      </trkpt>
      <trkpt lat="43.02332167" lon="-7.21857667">
        <ele>883.0</ele>
        <time>2022-06-19T13:25:38.451Z</time>
      </trkpt>
      <trkpt lat="43.02332167" lon="-7.21857667">
        <ele>883.0</ele>
        <time>2022-06-19T13:25:39.455Z</time>
      </trkpt>
      <trkpt lat="43.02333333" lon="-7.21862333">
        <ele>885.0</ele>
        <time>2022-06-19T13:25:40.491Z</time>
      </trkpt>
      <trkpt lat="43.02333333" lon="-7.21862333">
        <ele>885.0</ele>
        <time>2022-06-19T13:25:41.458Z</time>
      </trkpt>
      <trkpt lat="43.02333833" lon="-7.21867667">
        <ele>885.0</ele>
        <time>2022-06-19T13:25:42.491Z</time>
      </trkpt>
      <trkpt lat="43.02334167" lon="-7.218705">
        <ele>885.0</ele>
        <time>2022-06-19T13:25:43.480Z</time>
      </trkpt>
      <trkpt lat="43.02334167" lon="-7.218705">
        <ele>885.0</ele>
        <time>2022-06-19T13:25:44.453Z</time>
      </trkpt>
      <trkpt lat="43.02334333" lon="-7.21876">
        <ele>885.0</ele>
        <time>2022-06-19T13:25:45.483Z</time>
      </trkpt>
      <trkpt lat="43.02334333" lon="-7.21876">
        <ele>885.0</ele>
        <time>2022-06-19T13:25:46.450Z</time>
      </trkpt>
      <trkpt lat="43.02334167" lon="-7.218815">
        <ele>885.0</ele>
        <time>2022-06-19T13:25:47.478Z</time>
      </trkpt>
      <trkpt lat="43.02334" lon="-7.218845">
        <ele>886.0</ele>
        <time>2022-06-19T13:25:48.474Z</time>
      </trkpt>
      <trkpt lat="43.023335" lon="-7.21888167">
        <ele>886.0</ele>
        <time>2022-06-19T13:25:49.497Z</time>
      </trkpt>
      <trkpt lat="43.023335" lon="-7.21888167">
        <ele>886.0</ele>
        <time>2022-06-19T13:25:50.482Z</time>
      </trkpt>
      <trkpt lat="43.023325" lon="-7.21894833">
        <ele>886.0</ele>
        <time>2022-06-19T13:25:51.470Z</time>
      </trkpt>
      <trkpt lat="43.023325" lon="-7.21894833">
        <ele>886.0</ele>
        <time>2022-06-19T13:25:52.463Z</time>
      </trkpt>
      <trkpt lat="43.023315" lon="-7.219015">
        <ele>886.0</ele>
        <time>2022-06-19T13:25:53.470Z</time>
      </trkpt>
      <trkpt lat="43.023315" lon="-7.219015">
        <ele>886.0</ele>
        <time>2022-06-19T13:25:54.469Z</time>
      </trkpt>
      <trkpt lat="43.02331" lon="-7.21908">
        <ele>886.0</ele>
        <time>2022-06-19T13:25:55.487Z</time>
      </trkpt>
      <trkpt lat="43.02331" lon="-7.21908">
        <ele>886.0</ele>
        <time>2022-06-19T13:25:56.483Z</time>
      </trkpt>
      <trkpt lat="43.02330333" lon="-7.21914667">
        <ele>886.0</ele>
        <time>2022-06-19T13:25:57.462Z</time>
      </trkpt>
      <trkpt lat="43.02330333" lon="-7.21914667">
        <ele>886.0</ele>
        <time>2022-06-19T13:25:58.482Z</time>
      </trkpt>
      <trkpt lat="43.02329667" lon="-7.21921667">
        <ele>886.0</ele>
        <time>2022-06-19T13:25:59.461Z</time>
      </trkpt>
      <trkpt lat="43.02329667" lon="-7.21921667">
        <ele>886.0</ele>
        <time>2022-06-19T13:26:00.489Z</time>
      </trkpt>
      <trkpt lat="43.02328833" lon="-7.219285">
        <ele>885.0</ele>
        <time>2022-06-19T13:26:01.478Z</time>
      </trkpt>
      <trkpt lat="43.02328833" lon="-7.219285">
        <ele>885.0</ele>
        <time>2022-06-19T13:26:02.469Z</time>
      </trkpt>
      <trkpt lat="43.023285" lon="-7.21935333">
        <ele>886.0</ele>
        <time>2022-06-19T13:26:03.451Z</time>
      </trkpt>
      <trkpt lat="43.023285" lon="-7.21935333">
        <ele>886.0</ele>
        <time>2022-06-19T13:26:04.479Z</time>
      </trkpt>
      <trkpt lat="43.02328" lon="-7.21942333">
        <ele>886.0</ele>
        <time>2022-06-19T13:26:05.455Z</time>
      </trkpt>
      <trkpt lat="43.02328" lon="-7.21942333">
        <ele>886.0</ele>
        <time>2022-06-19T13:26:06.474Z</time>
      </trkpt>
      <trkpt lat="43.02327333" lon="-7.21949333">
        <ele>886.0</ele>
        <time>2022-06-19T13:26:07.462Z</time>
      </trkpt>
      <trkpt lat="43.02327333" lon="-7.21949333">
        <ele>886.0</ele>
        <time>2022-06-19T13:26:08.482Z</time>
      </trkpt>
      <trkpt lat="43.023265" lon="-7.21956333">
        <ele>886.0</ele>
        <time>2022-06-19T13:26:09.470Z</time>
      </trkpt>
      <trkpt lat="43.02326" lon="-7.21959833">
        <ele>885.0</ele>
        <time>2022-06-19T13:26:10.456Z</time>
      </trkpt>
      <trkpt lat="43.023255" lon="-7.21963167">
        <ele>886.0</ele>
        <time>2022-06-19T13:26:11.489Z</time>
      </trkpt>
      <trkpt lat="43.023255" lon="-7.21963167">
        <ele>886.0</ele>
        <time>2022-06-19T13:26:12.457Z</time>
      </trkpt>
      <trkpt lat="43.02324" lon="-7.21969833">
        <ele>885.0</ele>
        <time>2022-06-19T13:26:13.457Z</time>
      </trkpt>
      <trkpt lat="43.02324" lon="-7.21969833">
        <ele>885.0</ele>
        <time>2022-06-19T13:26:14.470Z</time>
      </trkpt>
      <trkpt lat="43.02322833" lon="-7.21976667">
        <ele>886.0</ele>
        <time>2022-06-19T13:26:15.473Z</time>
      </trkpt>
      <trkpt lat="43.02322167" lon="-7.2198">
        <ele>886.0</ele>
        <time>2022-06-19T13:26:16.472Z</time>
      </trkpt>
      <trkpt lat="43.02322167" lon="-7.2198">
        <ele>886.0</ele>
        <time>2022-06-19T13:26:17.457Z</time>
      </trkpt>
      <trkpt lat="43.02321" lon="-7.21986167">
        <ele>886.0</ele>
        <time>2022-06-19T13:26:18.483Z</time>
      </trkpt>
      <trkpt lat="43.023205" lon="-7.21988833">
        <ele>886.0</ele>
        <time>2022-06-19T13:26:19.492Z</time>
      </trkpt>
      <trkpt lat="43.023205" lon="-7.21988833">
        <ele>886.0</ele>
        <time>2022-06-19T13:26:20.480Z</time>
      </trkpt>
      <trkpt lat="43.02318167" lon="-7.21993333">
        <ele>887.0</ele>
        <time>2022-06-19T13:26:21.458Z</time>
      </trkpt>
      <trkpt lat="43.023175" lon="-7.21995333">
        <ele>887.0</ele>
        <time>2022-06-19T13:26:22.458Z</time>
      </trkpt>
      <trkpt lat="43.023175" lon="-7.21995333">
        <ele>887.0</ele>
        <time>2022-06-19T13:26:23.480Z</time>
      </trkpt>
      <trkpt lat="43.02317" lon="-7.22000333">
        <ele>888.0</ele>
        <time>2022-06-19T13:26:24.456Z</time>
      </trkpt>
      <trkpt lat="43.02317" lon="-7.22000333">
        <ele>888.0</ele>
        <time>2022-06-19T13:26:25.455Z</time>
      </trkpt>
      <trkpt lat="43.02316" lon="-7.220045">
        <ele>888.0</ele>
        <time>2022-06-19T13:26:26.457Z</time>
      </trkpt>
      <trkpt lat="43.02316" lon="-7.220045">
        <ele>888.0</ele>
        <time>2022-06-19T13:26:27.454Z</time>
      </trkpt>
      <trkpt lat="43.02315167" lon="-7.22009167">
        <ele>888.0</ele>
        <time>2022-06-19T13:26:28.480Z</time>
      </trkpt>
      <trkpt lat="43.02315167" lon="-7.22011333">
        <ele>889.0</ele>
        <time>2022-06-19T13:26:29.493Z</time>
      </trkpt>
      <trkpt lat="43.02314667" lon="-7.22013667">
        <ele>889.0</ele>
        <time>2022-06-19T13:26:30.468Z</time>
      </trkpt>
      <trkpt lat="43.02314667" lon="-7.22013667">
        <ele>889.0</ele>
        <time>2022-06-19T13:26:31.465Z</time>
      </trkpt>
      <trkpt lat="43.02313333" lon="-7.22017833">
        <ele>890.0</ele>
        <time>2022-06-19T13:26:32.487Z</time>
      </trkpt>
      <trkpt lat="43.02313" lon="-7.2202">
        <ele>890.0</ele>
        <time>2022-06-19T13:26:33.458Z</time>
      </trkpt>
      <trkpt lat="43.02312333" lon="-7.220225">
        <ele>891.0</ele>
        <time>2022-06-19T13:26:34.458Z</time>
      </trkpt>
      <trkpt lat="43.02312333" lon="-7.220225">
        <ele>891.0</ele>
        <time>2022-06-19T13:26:35.468Z</time>
      </trkpt>
      <trkpt lat="43.02310833" lon="-7.22027333">
        <ele>891.0</ele>
        <time>2022-06-19T13:26:36.487Z</time>
      </trkpt>
      <trkpt lat="43.02310167" lon="-7.2203">
        <ele>891.0</ele>
        <time>2022-06-19T13:26:37.459Z</time>
      </trkpt>
      <trkpt lat="43.02310167" lon="-7.2203">
        <ele>891.0</ele>
        <time>2022-06-19T13:26:38.472Z</time>
      </trkpt>
      <trkpt lat="43.02309333" lon="-7.220355">
        <ele>892.0</ele>
        <time>2022-06-19T13:26:39.459Z</time>
      </trkpt>
      <trkpt lat="43.02309333" lon="-7.220355">
        <ele>892.0</ele>
        <time>2022-06-19T13:26:40.490Z</time>
      </trkpt>
      <trkpt lat="43.02308333" lon="-7.220415">
        <ele>892.0</ele>
        <time>2022-06-19T13:26:41.478Z</time>
      </trkpt>
      <trkpt lat="43.02308333" lon="-7.220415">
        <ele>892.0</ele>
        <time>2022-06-19T13:26:42.460Z</time>
      </trkpt>
      <trkpt lat="43.02308" lon="-7.22047667">
        <ele>892.0</ele>
        <time>2022-06-19T13:26:43.486Z</time>
      </trkpt>
      <trkpt lat="43.02308" lon="-7.220505">
        <ele>893.0</ele>
        <time>2022-06-19T13:26:44.494Z</time>
      </trkpt>
      <trkpt lat="43.02308" lon="-7.220505">
        <ele>893.0</ele>
        <time>2022-06-19T13:26:45.479Z</time>
      </trkpt>
      <trkpt lat="43.02307" lon="-7.22056167">
        <ele>893.0</ele>
        <time>2022-06-19T13:26:46.464Z</time>
      </trkpt>
      <trkpt lat="43.02307" lon="-7.22056167">
        <ele>893.0</ele>
        <time>2022-06-19T13:26:47.477Z</time>
      </trkpt>
      <trkpt lat="43.02306167" lon="-7.22061667">
        <ele>894.0</ele>
        <time>2022-06-19T13:26:48.462Z</time>
      </trkpt>
      <trkpt lat="43.02305833" lon="-7.22064167">
        <ele>894.0</ele>
        <time>2022-06-19T13:26:49.465Z</time>
      </trkpt>
      <trkpt lat="43.02305833" lon="-7.22064167">
        <ele>894.0</ele>
        <time>2022-06-19T13:26:50.459Z</time>
      </trkpt>
      <trkpt lat="43.023045" lon="-7.22070333">
        <ele>894.0</ele>
        <time>2022-06-19T13:26:51.479Z</time>
      </trkpt>
      <trkpt lat="43.023045" lon="-7.22070333">
        <ele>894.0</ele>
        <time>2022-06-19T13:26:52.489Z</time>
      </trkpt>
      <trkpt lat="43.02303333" lon="-7.220755">
        <ele>895.0</ele>
        <time>2022-06-19T13:26:53.472Z</time>
      </trkpt>
      <trkpt lat="43.02303333" lon="-7.220755">
        <ele>895.0</ele>
        <time>2022-06-19T13:26:54.469Z</time>
      </trkpt>
      <trkpt lat="43.023015" lon="-7.22080167">
        <ele>895.0</ele>
        <time>2022-06-19T13:26:55.454Z</time>
      </trkpt>
      <trkpt lat="43.023015" lon="-7.22080167">
        <ele>895.0</ele>
        <time>2022-06-19T13:26:56.469Z</time>
      </trkpt>
      <trkpt lat="43.023" lon="-7.22084833">
        <ele>895.0</ele>
        <time>2022-06-19T13:26:57.460Z</time>
      </trkpt>
      <trkpt lat="43.022995" lon="-7.22087">
        <ele>896.0</ele>
        <time>2022-06-19T13:26:58.494Z</time>
      </trkpt>
      <trkpt lat="43.022995" lon="-7.22087">
        <ele>896.0</ele>
        <time>2022-06-19T13:26:59.463Z</time>
      </trkpt>
      <trkpt lat="43.02298" lon="-7.220915">
        <ele>896.0</ele>
        <time>2022-06-19T13:27:00.487Z</time>
      </trkpt>
      <trkpt lat="43.02297667" lon="-7.22093667">
        <ele>897.0</ele>
        <time>2022-06-19T13:27:01.477Z</time>
      </trkpt>
      <trkpt lat="43.02297667" lon="-7.22093667">
        <ele>897.0</ele>
        <time>2022-06-19T13:27:02.488Z</time>
      </trkpt>
      <trkpt lat="43.02296333" lon="-7.22097833">
        <ele>897.0</ele>
        <time>2022-06-19T13:27:03.472Z</time>
      </trkpt>
      <trkpt lat="43.02296333" lon="-7.22097833">
        <ele>897.0</ele>
        <time>2022-06-19T13:27:04.450Z</time>
      </trkpt>
      <trkpt lat="43.02295333" lon="-7.22102167">
        <ele>898.0</ele>
        <time>2022-06-19T13:27:05.475Z</time>
      </trkpt>
      <trkpt lat="43.02294667" lon="-7.22104333">
        <ele>898.0</ele>
        <time>2022-06-19T13:27:06.453Z</time>
      </trkpt>
      <trkpt lat="43.02294667" lon="-7.22104333">
        <ele>898.0</ele>
        <time>2022-06-19T13:27:07.451Z</time>
      </trkpt>
      <trkpt lat="43.02293667" lon="-7.22108333">
        <ele>898.0</ele>
        <time>2022-06-19T13:27:08.480Z</time>
      </trkpt>
      <trkpt lat="43.02293667" lon="-7.22108333">
        <ele>898.0</ele>
        <time>2022-06-19T13:27:09.462Z</time>
      </trkpt>
      <trkpt lat="43.02292" lon="-7.221125">
        <ele>898.0</ele>
        <time>2022-06-19T13:27:10.458Z</time>
      </trkpt>
      <trkpt lat="43.02292" lon="-7.221125">
        <ele>898.0</ele>
        <time>2022-06-19T13:27:11.465Z</time>
      </trkpt>
      <trkpt lat="43.02291167" lon="-7.22117">
        <ele>899.0</ele>
        <time>2022-06-19T13:27:12.493Z</time>
      </trkpt>
      <trkpt lat="43.02291167" lon="-7.22117">
        <ele>899.0</ele>
        <time>2022-06-19T13:27:13.470Z</time>
      </trkpt>
      <trkpt lat="43.02290167" lon="-7.22121333">
        <ele>899.0</ele>
        <time>2022-06-19T13:27:14.463Z</time>
      </trkpt>
      <trkpt lat="43.02290167" lon="-7.22121333">
        <ele>899.0</ele>
        <time>2022-06-19T13:27:15.488Z</time>
      </trkpt>
      <trkpt lat="43.02288833" lon="-7.22124833">
        <ele>900.0</ele>
        <time>2022-06-19T13:27:16.461Z</time>
      </trkpt>
      <trkpt lat="43.02288167" lon="-7.22126667">
        <ele>900.0</ele>
        <time>2022-06-19T13:27:17.487Z</time>
      </trkpt>
      <trkpt lat="43.02288167" lon="-7.22126667">
        <ele>900.0</ele>
        <time>2022-06-19T13:27:18.460Z</time>
      </trkpt>
      <trkpt lat="43.02287167" lon="-7.22129833">
        <ele>900.0</ele>
        <time>2022-06-19T13:27:19.477Z</time>
      </trkpt>
      <trkpt lat="43.02287167" lon="-7.22129833">
        <ele>900.0</ele>
        <time>2022-06-19T13:27:20.455Z</time>
      </trkpt>
      <trkpt lat="43.02286333" lon="-7.22132833">
        <ele>901.0</ele>
        <time>2022-06-19T13:27:21.477Z</time>
      </trkpt>
      <trkpt lat="43.02286333" lon="-7.22132833">
        <ele>901.0</ele>
        <time>2022-06-19T13:27:22.463Z</time>
      </trkpt>
      <trkpt lat="43.02285333" lon="-7.221365">
        <ele>901.0</ele>
        <time>2022-06-19T13:27:23.455Z</time>
      </trkpt>
      <trkpt lat="43.02285333" lon="-7.221365">
        <ele>901.0</ele>
        <time>2022-06-19T13:27:24.466Z</time>
      </trkpt>
      <trkpt lat="43.02284333" lon="-7.221395">
        <ele>901.0</ele>
        <time>2022-06-19T13:27:25.451Z</time>
      </trkpt>
      <trkpt lat="43.02284333" lon="-7.221395">
        <ele>901.0</ele>
        <time>2022-06-19T13:27:26.483Z</time>
      </trkpt>
      <trkpt lat="43.02283833" lon="-7.221425">
        <ele>901.0</ele>
        <time>2022-06-19T13:27:27.469Z</time>
      </trkpt>
      <trkpt lat="43.02283833" lon="-7.221425">
        <ele>901.0</ele>
        <time>2022-06-19T13:27:28.459Z</time>
      </trkpt>
      <trkpt lat="43.02283" lon="-7.22145333">
        <ele>902.0</ele>
        <time>2022-06-19T13:27:29.480Z</time>
      </trkpt>
      <trkpt lat="43.02283" lon="-7.22145333">
        <ele>902.0</ele>
        <time>2022-06-19T13:27:30.450Z</time>
      </trkpt>
      <trkpt lat="43.022825" lon="-7.22148333">
        <ele>902.0</ele>
        <time>2022-06-19T13:27:31.479Z</time>
      </trkpt>
      <trkpt lat="43.022825" lon="-7.22148333">
        <ele>902.0</ele>
        <time>2022-06-19T13:27:32.458Z</time>
      </trkpt>
      <trkpt lat="43.022815" lon="-7.22151167">
        <ele>902.0</ele>
        <time>2022-06-19T13:27:33.458Z</time>
      </trkpt>
      <trkpt lat="43.022815" lon="-7.22151167">
        <ele>902.0</ele>
        <time>2022-06-19T13:27:34.451Z</time>
      </trkpt>
      <trkpt lat="43.02280167" lon="-7.22153833">
        <ele>902.0</ele>
        <time>2022-06-19T13:27:35.484Z</time>
      </trkpt>
      <trkpt lat="43.02280167" lon="-7.22153833">
        <ele>902.0</ele>
        <time>2022-06-19T13:27:36.464Z</time>
      </trkpt>
      <trkpt lat="43.02278833" lon="-7.22156667">
        <ele>903.0</ele>
        <time>2022-06-19T13:27:37.457Z</time>
      </trkpt>
      <trkpt lat="43.02278833" lon="-7.22156667">
        <ele>903.0</ele>
        <time>2022-06-19T13:27:38.488Z</time>
      </trkpt>
      <trkpt lat="43.022775" lon="-7.22160167">
        <ele>903.0</ele>
        <time>2022-06-19T13:27:39.477Z</time>
      </trkpt>
      <trkpt lat="43.02276667" lon="-7.22161833">
        <ele>903.0</ele>
        <time>2022-06-19T13:27:40.486Z</time>
      </trkpt>
      <trkpt lat="43.02276667" lon="-7.22161833">
        <ele>903.0</ele>
        <time>2022-06-19T13:27:41.488Z</time>
      </trkpt>
      <trkpt lat="43.02275333" lon="-7.22165333">
        <ele>903.0</ele>
        <time>2022-06-19T13:27:42.467Z</time>
      </trkpt>
      <trkpt lat="43.02275333" lon="-7.22165333">
        <ele>903.0</ele>
        <time>2022-06-19T13:27:43.472Z</time>
      </trkpt>
      <trkpt lat="43.02274" lon="-7.22169167">
        <ele>903.0</ele>
        <time>2022-06-19T13:27:44.458Z</time>
      </trkpt>
      <trkpt lat="43.02274" lon="-7.22169167">
        <ele>903.0</ele>
        <time>2022-06-19T13:27:45.476Z</time>
      </trkpt>
      <trkpt lat="43.02273167" lon="-7.22173333">
        <ele>903.0</ele>
        <time>2022-06-19T13:27:46.467Z</time>
      </trkpt>
      <trkpt lat="43.02273167" lon="-7.22173333">
        <ele>903.0</ele>
        <time>2022-06-19T13:27:47.469Z</time>
      </trkpt>
      <trkpt lat="43.02272" lon="-7.22177667">
        <ele>902.0</ele>
        <time>2022-06-19T13:27:48.457Z</time>
      </trkpt>
      <trkpt lat="43.02271333" lon="-7.22179833">
        <ele>902.0</ele>
        <time>2022-06-19T13:27:49.462Z</time>
      </trkpt>
      <trkpt lat="43.02271333" lon="-7.22179833">
        <ele>902.0</ele>
        <time>2022-06-19T13:27:50.469Z</time>
      </trkpt>
      <trkpt lat="43.0227" lon="-7.22184333">
        <ele>903.0</ele>
        <time>2022-06-19T13:27:51.490Z</time>
      </trkpt>
      <trkpt lat="43.0227" lon="-7.22184333">
        <ele>903.0</ele>
        <time>2022-06-19T13:27:52.474Z</time>
      </trkpt>
      <trkpt lat="43.02269" lon="-7.22189333">
        <ele>903.0</ele>
        <time>2022-06-19T13:27:53.477Z</time>
      </trkpt>
      <trkpt lat="43.02269" lon="-7.22189333">
        <ele>903.0</ele>
        <time>2022-06-19T13:27:54.482Z</time>
      </trkpt>
      <trkpt lat="43.02268" lon="-7.22194167">
        <ele>903.0</ele>
        <time>2022-06-19T13:27:55.464Z</time>
      </trkpt>
      <trkpt lat="43.02268" lon="-7.22194167">
        <ele>903.0</ele>
        <time>2022-06-19T13:27:56.480Z</time>
      </trkpt>
      <trkpt lat="43.02267" lon="-7.22199167">
        <ele>903.0</ele>
        <time>2022-06-19T13:27:57.458Z</time>
      </trkpt>
      <trkpt lat="43.022665" lon="-7.22201667">
        <ele>903.0</ele>
        <time>2022-06-19T13:27:58.457Z</time>
      </trkpt>
      <trkpt lat="43.022665" lon="-7.22201667">
        <ele>903.0</ele>
        <time>2022-06-19T13:27:59.469Z</time>
      </trkpt>
      <trkpt lat="43.02266" lon="-7.22206167">
        <ele>903.0</ele>
        <time>2022-06-19T13:28:00.477Z</time>
      </trkpt>
      <trkpt lat="43.02265667" lon="-7.22208333">
        <ele>903.0</ele>
        <time>2022-06-19T13:28:01.467Z</time>
      </trkpt>
      <trkpt lat="43.02265667" lon="-7.22208333">
        <ele>903.0</ele>
        <time>2022-06-19T13:28:02.468Z</time>
      </trkpt>
      <trkpt lat="43.02265" lon="-7.22212167">
        <ele>903.0</ele>
        <time>2022-06-19T13:28:03.462Z</time>
      </trkpt>
      <trkpt lat="43.02264833" lon="-7.22214167">
        <ele>904.0</ele>
        <time>2022-06-19T13:28:04.463Z</time>
      </trkpt>
      <trkpt lat="43.02264833" lon="-7.22214167">
        <ele>904.0</ele>
        <time>2022-06-19T13:28:05.468Z</time>
      </trkpt>
      <trkpt lat="43.02264333" lon="-7.22218833">
        <ele>904.0</ele>
        <time>2022-06-19T13:28:06.461Z</time>
      </trkpt>
      <trkpt lat="43.02264167" lon="-7.22221167">
        <ele>904.0</ele>
        <time>2022-06-19T13:28:07.474Z</time>
      </trkpt>
      <trkpt lat="43.02264167" lon="-7.22221167">
        <ele>904.0</ele>
        <time>2022-06-19T13:28:08.465Z</time>
      </trkpt>
      <trkpt lat="43.02263667" lon="-7.22226167">
        <ele>904.0</ele>
        <time>2022-06-19T13:28:09.464Z</time>
      </trkpt>
      <trkpt lat="43.022635" lon="-7.22228667">
        <ele>904.0</ele>
        <time>2022-06-19T13:28:10.457Z</time>
      </trkpt>
      <trkpt lat="43.022635" lon="-7.22228667">
        <ele>904.0</ele>
        <time>2022-06-19T13:28:11.479Z</time>
      </trkpt>
      <trkpt lat="43.02263333" lon="-7.22234">
        <ele>904.0</ele>
        <time>2022-06-19T13:28:12.461Z</time>
      </trkpt>
      <trkpt lat="43.02263167" lon="-7.22237">
        <ele>904.0</ele>
        <time>2022-06-19T13:28:13.483Z</time>
      </trkpt>
      <trkpt lat="43.02263" lon="-7.2224">
        <ele>904.0</ele>
        <time>2022-06-19T13:28:14.450Z</time>
      </trkpt>
      <trkpt lat="43.02263" lon="-7.2224">
        <ele>904.0</ele>
        <time>2022-06-19T13:28:15.476Z</time>
      </trkpt>
      <trkpt lat="43.02262667" lon="-7.22246333">
        <ele>904.0</ele>
        <time>2022-06-19T13:28:16.462Z</time>
      </trkpt>
      <trkpt lat="43.022625" lon="-7.22249833">
        <ele>904.0</ele>
        <time>2022-06-19T13:28:17.472Z</time>
      </trkpt>
      <trkpt lat="43.022625" lon="-7.22249833">
        <ele>904.0</ele>
        <time>2022-06-19T13:28:18.465Z</time>
      </trkpt>
      <trkpt lat="43.02262333" lon="-7.22256667">
        <ele>905.0</ele>
        <time>2022-06-19T13:28:19.451Z</time>
      </trkpt>
      <trkpt lat="43.02262333" lon="-7.22256667">
        <ele>905.0</ele>
        <time>2022-06-19T13:28:20.486Z</time>
      </trkpt>
      <trkpt lat="43.02261833" lon="-7.22263333">
        <ele>905.0</ele>
        <time>2022-06-19T13:28:21.482Z</time>
      </trkpt>
      <trkpt lat="43.02261833" lon="-7.22263333">
        <ele>905.0</ele>
        <time>2022-06-19T13:28:22.478Z</time>
      </trkpt>
      <trkpt lat="43.02259833" lon="-7.22271">
        <ele>905.0</ele>
        <time>2022-06-19T13:28:23.457Z</time>
      </trkpt>
      <trkpt lat="43.02259833" lon="-7.22271">
        <ele>905.0</ele>
        <time>2022-06-19T13:28:24.462Z</time>
      </trkpt>
      <trkpt lat="43.02257167" lon="-7.22280333">
        <ele>905.0</ele>
        <time>2022-06-19T13:28:25.480Z</time>
      </trkpt>
      <trkpt lat="43.02257167" lon="-7.22280333">
        <ele>905.0</ele>
        <time>2022-06-19T13:28:26.462Z</time>
      </trkpt>
      <trkpt lat="43.02253" lon="-7.22290167">
        <ele>905.0</ele>
        <time>2022-06-19T13:28:27.486Z</time>
      </trkpt>
      <trkpt lat="43.02253" lon="-7.22290167">
        <ele>905.0</ele>
        <time>2022-06-19T13:28:28.474Z</time>
      </trkpt>
      <trkpt lat="43.02248833" lon="-7.22300333">
        <ele>904.0</ele>
        <time>2022-06-19T13:28:29.453Z</time>
      </trkpt>
      <trkpt lat="43.02246667" lon="-7.22306">
        <ele>904.0</ele>
        <time>2022-06-19T13:28:30.457Z</time>
      </trkpt>
      <trkpt lat="43.02244167" lon="-7.22312">
        <ele>904.0</ele>
        <time>2022-06-19T13:28:31.450Z</time>
      </trkpt>
      <trkpt lat="43.02244167" lon="-7.22312">
        <ele>904.0</ele>
        <time>2022-06-19T13:28:32.454Z</time>
      </trkpt>
      <trkpt lat="43.02239167" lon="-7.22325">
        <ele>903.0</ele>
        <time>2022-06-19T13:28:33.455Z</time>
      </trkpt>
      <trkpt lat="43.02239167" lon="-7.22325">
        <ele>903.0</ele>
        <time>2022-06-19T13:28:34.462Z</time>
      </trkpt>
      <trkpt lat="43.022335" lon="-7.22339667">
        <ele>902.0</ele>
        <time>2022-06-19T13:28:35.487Z</time>
      </trkpt>
      <trkpt lat="43.022305" lon="-7.223475">
        <ele>901.0</ele>
        <time>2022-06-19T13:28:36.492Z</time>
      </trkpt>
      <trkpt lat="43.02227667" lon="-7.22355333">
        <ele>901.0</ele>
        <time>2022-06-19T13:28:37.453Z</time>
      </trkpt>
      <trkpt lat="43.02227667" lon="-7.22355333">
        <ele>901.0</ele>
        <time>2022-06-19T13:28:38.475Z</time>
      </trkpt>
      <trkpt lat="43.02222333" lon="-7.22371">
        <ele>899.0</ele>
        <time>2022-06-19T13:28:39.489Z</time>
      </trkpt>
      <trkpt lat="43.02222333" lon="-7.22371">
        <ele>899.0</ele>
        <time>2022-06-19T13:28:40.472Z</time>
      </trkpt>
      <trkpt lat="43.02216167" lon="-7.223855">
        <ele>898.0</ele>
        <time>2022-06-19T13:28:41.477Z</time>
      </trkpt>
      <trkpt lat="43.02216167" lon="-7.223855">
        <ele>898.0</ele>
        <time>2022-06-19T13:28:42.486Z</time>
      </trkpt>
      <trkpt lat="43.02210667" lon="-7.22398">
        <ele>896.0</ele>
        <time>2022-06-19T13:28:43.475Z</time>
      </trkpt>
      <trkpt lat="43.02210667" lon="-7.22398">
        <ele>896.0</ele>
        <time>2022-06-19T13:28:44.473Z</time>
      </trkpt>
      <trkpt lat="43.02206167" lon="-7.224115">
        <ele>893.0</ele>
        <time>2022-06-19T13:28:45.472Z</time>
      </trkpt>
      <trkpt lat="43.02206167" lon="-7.224115">
        <ele>893.0</ele>
        <time>2022-06-19T13:28:46.477Z</time>
      </trkpt>
      <trkpt lat="43.021995" lon="-7.22429">
        <ele>891.0</ele>
        <time>2022-06-19T13:28:47.463Z</time>
      </trkpt>
      <trkpt lat="43.021995" lon="-7.22429">
        <ele>891.0</ele>
        <time>2022-06-19T13:28:48.485Z</time>
      </trkpt>
      <trkpt lat="43.021915" lon="-7.22447833">
        <ele>888.0</ele>
        <time>2022-06-19T13:28:49.468Z</time>
      </trkpt>
      <trkpt lat="43.021915" lon="-7.22447833">
        <ele>888.0</ele>
        <time>2022-06-19T13:28:50.486Z</time>
      </trkpt>
      <trkpt lat="43.02183667" lon="-7.224665">
        <ele>886.0</ele>
        <time>2022-06-19T13:28:51.472Z</time>
      </trkpt>
      <trkpt lat="43.02183667" lon="-7.224665">
        <ele>886.0</ele>
        <time>2022-06-19T13:28:52.468Z</time>
      </trkpt>
      <trkpt lat="43.02176333" lon="-7.22485333">
        <ele>884.0</ele>
        <time>2022-06-19T13:28:53.473Z</time>
      </trkpt>
      <trkpt lat="43.02173667" lon="-7.22493">
        <ele>883.0</ele>
        <time>2022-06-19T13:28:54.457Z</time>
      </trkpt>
      <trkpt lat="43.021715" lon="-7.22499333">
        <ele>882.0</ele>
        <time>2022-06-19T13:28:55.453Z</time>
      </trkpt>
      <trkpt lat="43.021715" lon="-7.22499333">
        <ele>882.0</ele>
        <time>2022-06-19T13:28:56.472Z</time>
      </trkpt>
      <trkpt lat="43.021675" lon="-7.225095">
        <ele>881.0</ele>
        <time>2022-06-19T13:28:57.457Z</time>
      </trkpt>
      <trkpt lat="43.021675" lon="-7.225095">
        <ele>881.0</ele>
        <time>2022-06-19T13:28:58.460Z</time>
      </trkpt>
      <trkpt lat="43.02163167" lon="-7.22521667">
        <ele>879.0</ele>
        <time>2022-06-19T13:28:59.474Z</time>
      </trkpt>
      <trkpt lat="43.02163167" lon="-7.22521667">
        <ele>879.0</ele>
        <time>2022-06-19T13:29:00.466Z</time>
      </trkpt>
      <trkpt lat="43.02158167" lon="-7.22537167">
        <ele>878.0</ele>
        <time>2022-06-19T13:29:01.490Z</time>
      </trkpt>
      <trkpt lat="43.02158167" lon="-7.22537167">
        <ele>878.0</ele>
        <time>2022-06-19T13:29:02.489Z</time>
      </trkpt>
      <trkpt lat="43.02152333" lon="-7.22555167">
        <ele>876.0</ele>
        <time>2022-06-19T13:29:03.467Z</time>
      </trkpt>
      <trkpt lat="43.02152333" lon="-7.22555167">
        <ele>876.0</ele>
        <time>2022-06-19T13:29:04.489Z</time>
      </trkpt>
      <trkpt lat="43.02146333" lon="-7.22574333">
        <ele>875.0</ele>
        <time>2022-06-19T13:29:05.471Z</time>
      </trkpt>
      <trkpt lat="43.02146333" lon="-7.22574333">
        <ele>875.0</ele>
        <time>2022-06-19T13:29:06.479Z</time>
      </trkpt>
      <trkpt lat="43.021435" lon="-7.225865">
        <ele>873.0</ele>
        <time>2022-06-19T13:29:07.465Z</time>
      </trkpt>
      <trkpt lat="43.021435" lon="-7.225865">
        <ele>873.0</ele>
        <time>2022-06-19T13:29:08.456Z</time>
      </trkpt>
      <trkpt lat="43.02140667" lon="-7.22592667">
        <ele>873.0</ele>
        <time>2022-06-19T13:29:09.488Z</time>
      </trkpt>
      <trkpt lat="43.02140667" lon="-7.22592667">
        <ele>873.0</ele>
        <time>2022-06-19T13:29:10.479Z</time>
      </trkpt>
      <trkpt lat="43.021375" lon="-7.22599167">
        <ele>874.0</ele>
        <time>2022-06-19T13:29:11.459Z</time>
      </trkpt>
      <trkpt lat="43.02136" lon="-7.226025">
        <ele>874.0</ele>
        <time>2022-06-19T13:29:12.456Z</time>
      </trkpt>
      <trkpt lat="43.02136" lon="-7.226025">
        <ele>874.0</ele>
        <time>2022-06-19T13:29:13.489Z</time>
      </trkpt>
      <trkpt lat="43.02132833" lon="-7.22608833">
        <ele>874.0</ele>
        <time>2022-06-19T13:29:14.480Z</time>
      </trkpt>
      <trkpt lat="43.02131333" lon="-7.22612">
        <ele>874.0</ele>
        <time>2022-06-19T13:29:15.470Z</time>
      </trkpt>
      <trkpt lat="43.02131333" lon="-7.22612">
        <ele>874.0</ele>
        <time>2022-06-19T13:29:16.457Z</time>
      </trkpt>
      <trkpt lat="43.02128333" lon="-7.22618">
        <ele>875.0</ele>
        <time>2022-06-19T13:29:17.484Z</time>
      </trkpt>
      <trkpt lat="43.02126667" lon="-7.22620833">
        <ele>876.0</ele>
        <time>2022-06-19T13:29:18.456Z</time>
      </trkpt>
      <trkpt lat="43.02126667" lon="-7.22620833">
        <ele>876.0</ele>
        <time>2022-06-19T13:29:19.483Z</time>
      </trkpt>
      <trkpt lat="43.02123833" lon="-7.226265">
        <ele>876.0</ele>
        <time>2022-06-19T13:29:20.462Z</time>
      </trkpt>
      <trkpt lat="43.02123833" lon="-7.226265">
        <ele>876.0</ele>
        <time>2022-06-19T13:29:21.478Z</time>
      </trkpt>
      <trkpt lat="43.021205" lon="-7.22631833">
        <ele>878.0</ele>
        <time>2022-06-19T13:29:22.480Z</time>
      </trkpt>
      <trkpt lat="43.021185" lon="-7.22634833">
        <ele>878.0</ele>
        <time>2022-06-19T13:29:23.488Z</time>
      </trkpt>
      <trkpt lat="43.021185" lon="-7.22634833">
        <ele>878.0</ele>
        <time>2022-06-19T13:29:24.464Z</time>
      </trkpt>
      <trkpt lat="43.02115" lon="-7.22641333">
        <ele>878.0</ele>
        <time>2022-06-19T13:29:25.558Z</time>
      </trkpt>
      <trkpt lat="43.02115" lon="-7.22641333">
        <ele>878.0</ele>
        <time>2022-06-19T13:29:26.489Z</time>
      </trkpt>
      <trkpt lat="43.02110833" lon="-7.22648167">
        <ele>878.0</ele>
        <time>2022-06-19T13:29:27.470Z</time>
      </trkpt>
      <trkpt lat="43.02110833" lon="-7.22648167">
        <ele>878.0</ele>
        <time>2022-06-19T13:29:28.451Z</time>
      </trkpt>
      <trkpt lat="43.02107667" lon="-7.22655">
        <ele>879.0</ele>
        <time>2022-06-19T13:29:29.483Z</time>
      </trkpt>
      <trkpt lat="43.02106333" lon="-7.22658833">
        <ele>878.0</ele>
        <time>2022-06-19T13:29:30.482Z</time>
      </trkpt>
      <trkpt lat="43.02104833" lon="-7.226625">
        <ele>878.0</ele>
        <time>2022-06-19T13:29:31.456Z</time>
      </trkpt>
      <trkpt lat="43.02104833" lon="-7.226625">
        <ele>878.0</ele>
        <time>2022-06-19T13:29:32.473Z</time>
      </trkpt>
      <trkpt lat="43.02101333" lon="-7.22670167">
        <ele>878.0</ele>
        <time>2022-06-19T13:29:33.463Z</time>
      </trkpt>
      <trkpt lat="43.02101333" lon="-7.22670167">
        <ele>878.0</ele>
        <time>2022-06-19T13:29:34.466Z</time>
      </trkpt>
      <trkpt lat="43.02097833" lon="-7.226785">
        <ele>878.0</ele>
        <time>2022-06-19T13:29:35.450Z</time>
      </trkpt>
      <trkpt lat="43.02097833" lon="-7.226785">
        <ele>878.0</ele>
        <time>2022-06-19T13:29:36.473Z</time>
      </trkpt>
      <trkpt lat="43.02094333" lon="-7.226875">
        <ele>878.0</ele>
        <time>2022-06-19T13:29:37.463Z</time>
      </trkpt>
      <trkpt lat="43.02094333" lon="-7.226875">
        <ele>878.0</ele>
        <time>2022-06-19T13:29:38.460Z</time>
      </trkpt>
      <trkpt lat="43.02090833" lon="-7.22697167">
        <ele>878.0</ele>
        <time>2022-06-19T13:29:39.450Z</time>
      </trkpt>
      <trkpt lat="43.02090833" lon="-7.22697167">
        <ele>878.0</ele>
        <time>2022-06-19T13:29:40.454Z</time>
      </trkpt>
      <trkpt lat="43.02086167" lon="-7.22706833">
        <ele>877.0</ele>
        <time>2022-06-19T13:29:41.480Z</time>
      </trkpt>
      <trkpt lat="43.02086167" lon="-7.22706833">
        <ele>877.0</ele>
        <time>2022-06-19T13:29:42.487Z</time>
      </trkpt>
      <trkpt lat="43.02080333" lon="-7.22716667">
        <ele>877.0</ele>
        <time>2022-06-19T13:29:43.463Z</time>
      </trkpt>
      <trkpt lat="43.02080333" lon="-7.22716667">
        <ele>877.0</ele>
        <time>2022-06-19T13:29:44.460Z</time>
      </trkpt>
      <trkpt lat="43.02074333" lon="-7.22728">
        <ele>876.0</ele>
        <time>2022-06-19T13:29:45.479Z</time>
      </trkpt>
      <trkpt lat="43.02074333" lon="-7.22728">
        <ele>876.0</ele>
        <time>2022-06-19T13:29:46.473Z</time>
      </trkpt>
      <trkpt lat="43.02067667" lon="-7.22740833">
        <ele>875.0</ele>
        <time>2022-06-19T13:29:47.469Z</time>
      </trkpt>
      <trkpt lat="43.02067667" lon="-7.22740833">
        <ele>875.0</ele>
        <time>2022-06-19T13:29:48.452Z</time>
      </trkpt>
      <trkpt lat="43.020615" lon="-7.22756167">
        <ele>874.0</ele>
        <time>2022-06-19T13:29:49.483Z</time>
      </trkpt>
      <trkpt lat="43.020585" lon="-7.22764667">
        <ele>873.0</ele>
        <time>2022-06-19T13:29:50.463Z</time>
      </trkpt>
      <trkpt lat="43.020585" lon="-7.22764667">
        <ele>873.0</ele>
        <time>2022-06-19T13:29:51.456Z</time>
      </trkpt>
      <trkpt lat="43.02053167" lon="-7.22780333">
        <ele>870.0</ele>
        <time>2022-06-19T13:29:52.463Z</time>
      </trkpt>
      <trkpt lat="43.02051" lon="-7.22786833">
        <ele>870.0</ele>
        <time>2022-06-19T13:29:53.450Z</time>
      </trkpt>
      <trkpt lat="43.02048667" lon="-7.227935">
        <ele>868.0</ele>
        <time>2022-06-19T13:29:54.473Z</time>
      </trkpt>
      <trkpt lat="43.02048667" lon="-7.227935">
        <ele>868.0</ele>
        <time>2022-06-19T13:29:55.466Z</time>
      </trkpt>
      <trkpt lat="43.02044167" lon="-7.22805833">
        <ele>866.0</ele>
        <time>2022-06-19T13:29:56.485Z</time>
      </trkpt>
      <trkpt lat="43.02044167" lon="-7.22805833">
        <ele>866.0</ele>
        <time>2022-06-19T13:29:57.489Z</time>
      </trkpt>
      <trkpt lat="43.02040333" lon="-7.22818333">
        <ele>865.0</ele>
        <time>2022-06-19T13:29:58.487Z</time>
      </trkpt>
      <trkpt lat="43.02040333" lon="-7.22818333">
        <ele>865.0</ele>
        <time>2022-06-19T13:29:59.463Z</time>
      </trkpt>
      <trkpt lat="43.02037" lon="-7.22831167">
        <ele>863.0</ele>
        <time>2022-06-19T13:30:00.483Z</time>
      </trkpt>
      <trkpt lat="43.02037" lon="-7.22831167">
        <ele>863.0</ele>
        <time>2022-06-19T13:30:01.464Z</time>
      </trkpt>
      <trkpt lat="43.02032833" lon="-7.22845">
        <ele>860.0</ele>
        <time>2022-06-19T13:30:02.451Z</time>
      </trkpt>
      <trkpt lat="43.02032833" lon="-7.22845">
        <ele>860.0</ele>
        <time>2022-06-19T13:30:03.464Z</time>
      </trkpt>
      <trkpt lat="43.02026667" lon="-7.228615">
        <ele>857.0</ele>
        <time>2022-06-19T13:30:04.452Z</time>
      </trkpt>
      <trkpt lat="43.02026667" lon="-7.228615">
        <ele>857.0</ele>
        <time>2022-06-19T13:30:05.457Z</time>
      </trkpt>
      <trkpt lat="43.02022667" lon="-7.22876667">
        <ele>856.0</ele>
        <time>2022-06-19T13:30:06.482Z</time>
      </trkpt>
      <trkpt lat="43.020205" lon="-7.22882833">
        <ele>855.0</ele>
        <time>2022-06-19T13:30:07.466Z</time>
      </trkpt>
      <trkpt lat="43.020205" lon="-7.22882833">
        <ele>855.0</ele>
        <time>2022-06-19T13:30:08.469Z</time>
      </trkpt>
      <trkpt lat="43.02015" lon="-7.22898">
        <ele>854.0</ele>
        <time>2022-06-19T13:30:09.457Z</time>
      </trkpt>
      <trkpt lat="43.02015" lon="-7.22898">
        <ele>854.0</ele>
        <time>2022-06-19T13:30:10.478Z</time>
      </trkpt>
      <trkpt lat="43.02008167" lon="-7.22916333">
        <ele>851.0</ele>
        <time>2022-06-19T13:30:11.470Z</time>
      </trkpt>
      <trkpt lat="43.02008167" lon="-7.22916333">
        <ele>851.0</ele>
        <time>2022-06-19T13:30:12.482Z</time>
      </trkpt>
      <trkpt lat="43.02000333" lon="-7.22937">
        <ele>849.0</ele>
        <time>2022-06-19T13:30:13.525Z</time>
      </trkpt>
      <trkpt lat="43.019965" lon="-7.22947667">
        <ele>848.0</ele>
        <time>2022-06-19T13:30:14.458Z</time>
      </trkpt>
      <trkpt lat="43.019965" lon="-7.22947667">
        <ele>848.0</ele>
        <time>2022-06-19T13:30:15.459Z</time>
      </trkpt>
      <trkpt lat="43.01989" lon="-7.22968333">
        <ele>846.0</ele>
        <time>2022-06-19T13:30:16.466Z</time>
      </trkpt>
      <trkpt lat="43.01989" lon="-7.22968333">
        <ele>846.0</ele>
        <time>2022-06-19T13:30:17.473Z</time>
      </trkpt>
      <trkpt lat="43.019815" lon="-7.22988667">
        <ele>844.0</ele>
        <time>2022-06-19T13:30:18.478Z</time>
      </trkpt>
      <trkpt lat="43.019815" lon="-7.22988667">
        <ele>844.0</ele>
        <time>2022-06-19T13:30:19.480Z</time>
      </trkpt>
      <trkpt lat="43.01973833" lon="-7.23010167">
        <ele>842.0</ele>
        <time>2022-06-19T13:30:20.470Z</time>
      </trkpt>
      <trkpt lat="43.01973833" lon="-7.23010167">
        <ele>842.0</ele>
        <time>2022-06-19T13:30:21.489Z</time>
      </trkpt>
      <trkpt lat="43.01969167" lon="-7.23026667">
        <ele>840.0</ele>
        <time>2022-06-19T13:30:22.470Z</time>
      </trkpt>
      <trkpt lat="43.01969167" lon="-7.23026667">
        <ele>840.0</ele>
        <time>2022-06-19T13:30:23.479Z</time>
      </trkpt>
      <trkpt lat="43.019665" lon="-7.23036167">
        <ele>839.0</ele>
        <time>2022-06-19T13:30:24.476Z</time>
      </trkpt>
      <trkpt lat="43.019665" lon="-7.23036167">
        <ele>839.0</ele>
        <time>2022-06-19T13:30:25.485Z</time>
      </trkpt>
      <trkpt lat="43.01963667" lon="-7.23047167">
        <ele>838.0</ele>
        <time>2022-06-19T13:30:26.472Z</time>
      </trkpt>
      <trkpt lat="43.01963667" lon="-7.23047167">
        <ele>838.0</ele>
        <time>2022-06-19T13:30:27.486Z</time>
      </trkpt>
      <trkpt lat="43.0196" lon="-7.23060667">
        <ele>838.0</ele>
        <time>2022-06-19T13:30:28.478Z</time>
      </trkpt>
      <trkpt lat="43.01957667" lon="-7.230675">
        <ele>838.0</ele>
        <time>2022-06-19T13:30:29.485Z</time>
      </trkpt>
      <trkpt lat="43.01957667" lon="-7.230675">
        <ele>838.0</ele>
        <time>2022-06-19T13:30:30.462Z</time>
      </trkpt>
      <trkpt lat="43.01953333" lon="-7.23082667">
        <ele>837.0</ele>
        <time>2022-06-19T13:30:31.464Z</time>
      </trkpt>
      <trkpt lat="43.01953333" lon="-7.23082667">
        <ele>837.0</ele>
        <time>2022-06-19T13:30:32.486Z</time>
      </trkpt>
      <trkpt lat="43.019485" lon="-7.23099">
        <ele>836.0</ele>
        <time>2022-06-19T13:30:33.461Z</time>
      </trkpt>
      <trkpt lat="43.019485" lon="-7.23099">
        <ele>836.0</ele>
        <time>2022-06-19T13:30:34.484Z</time>
      </trkpt>
      <trkpt lat="43.01943333" lon="-7.23116333">
        <ele>835.0</ele>
        <time>2022-06-19T13:30:35.460Z</time>
      </trkpt>
      <trkpt lat="43.01940667" lon="-7.23125">
        <ele>835.0</ele>
        <time>2022-06-19T13:30:36.457Z</time>
      </trkpt>
      <trkpt lat="43.01938" lon="-7.23133667">
        <ele>834.0</ele>
        <time>2022-06-19T13:30:37.451Z</time>
      </trkpt>
      <trkpt lat="43.01938" lon="-7.23133667">
        <ele>834.0</ele>
        <time>2022-06-19T13:30:38.468Z</time>
      </trkpt>
      <trkpt lat="43.01933" lon="-7.23148167">
        <ele>834.0</ele>
        <time>2022-06-19T13:30:39.473Z</time>
      </trkpt>
      <trkpt lat="43.01933" lon="-7.23148167">
        <ele>834.0</ele>
        <time>2022-06-19T13:30:40.468Z</time>
      </trkpt>
      <trkpt lat="43.01929167" lon="-7.23159667">
        <ele>833.0</ele>
        <time>2022-06-19T13:30:41.453Z</time>
      </trkpt>
      <trkpt lat="43.01929167" lon="-7.23159667">
        <ele>833.0</ele>
        <time>2022-06-19T13:30:42.473Z</time>
      </trkpt>
      <trkpt lat="43.01924667" lon="-7.23172333">
        <ele>833.0</ele>
        <time>2022-06-19T13:30:43.489Z</time>
      </trkpt>
      <trkpt lat="43.01924667" lon="-7.23172333">
        <ele>833.0</ele>
        <time>2022-06-19T13:30:44.466Z</time>
      </trkpt>
      <trkpt lat="43.01920167" lon="-7.23186333">
        <ele>832.0</ele>
        <time>2022-06-19T13:30:45.526Z</time>
      </trkpt>
      <trkpt lat="43.01920167" lon="-7.23186333">
        <ele>832.0</ele>
        <time>2022-06-19T13:30:46.458Z</time>
      </trkpt>
      <trkpt lat="43.019155" lon="-7.23201">
        <ele>832.0</ele>
        <time>2022-06-19T13:30:47.471Z</time>
      </trkpt>
      <trkpt lat="43.019155" lon="-7.23201">
        <ele>832.0</ele>
        <time>2022-06-19T13:30:48.470Z</time>
      </trkpt>
      <trkpt lat="43.01911167" lon="-7.23216167">
        <ele>831.0</ele>
        <time>2022-06-19T13:30:49.458Z</time>
      </trkpt>
      <trkpt lat="43.01911167" lon="-7.23216167">
        <ele>831.0</ele>
        <time>2022-06-19T13:30:50.469Z</time>
      </trkpt>
      <trkpt lat="43.01906333" lon="-7.23231">
        <ele>832.0</ele>
        <time>2022-06-19T13:30:51.483Z</time>
      </trkpt>
      <trkpt lat="43.01906333" lon="-7.23231">
        <ele>832.0</ele>
        <time>2022-06-19T13:30:52.469Z</time>
      </trkpt>
      <trkpt lat="43.01902" lon="-7.23246">
        <ele>831.0</ele>
        <time>2022-06-19T13:30:53.484Z</time>
      </trkpt>
      <trkpt lat="43.01901" lon="-7.23253667">
        <ele>831.0</ele>
        <time>2022-06-19T13:30:54.461Z</time>
      </trkpt>
      <trkpt lat="43.018995" lon="-7.2326">
        <ele>831.0</ele>
        <time>2022-06-19T13:30:55.478Z</time>
      </trkpt>
      <trkpt lat="43.018995" lon="-7.2326">
        <ele>831.0</ele>
        <time>2022-06-19T13:30:56.469Z</time>
      </trkpt>
      <trkpt lat="43.018955" lon="-7.232715">
        <ele>831.0</ele>
        <time>2022-06-19T13:30:57.487Z</time>
      </trkpt>
      <trkpt lat="43.018955" lon="-7.232715">
        <ele>831.0</ele>
        <time>2022-06-19T13:30:58.454Z</time>
      </trkpt>
      <trkpt lat="43.01892167" lon="-7.23281">
        <ele>832.0</ele>
        <time>2022-06-19T13:30:59.480Z</time>
      </trkpt>
      <trkpt lat="43.01892167" lon="-7.23281">
        <ele>832.0</ele>
        <time>2022-06-19T13:31:00.453Z</time>
      </trkpt>
      <trkpt lat="43.01888833" lon="-7.23289833">
        <ele>832.0</ele>
        <time>2022-06-19T13:31:01.486Z</time>
      </trkpt>
      <trkpt lat="43.01888833" lon="-7.23289833">
        <ele>832.0</ele>
        <time>2022-06-19T13:31:02.478Z</time>
      </trkpt>
      <trkpt lat="43.01886" lon="-7.23298333">
        <ele>833.0</ele>
        <time>2022-06-19T13:31:03.460Z</time>
      </trkpt>
      <trkpt lat="43.01886" lon="-7.23298333">
        <ele>833.0</ele>
        <time>2022-06-19T13:31:04.454Z</time>
      </trkpt>
      <trkpt lat="43.01883" lon="-7.23306667">
        <ele>833.0</ele>
        <time>2022-06-19T13:31:05.488Z</time>
      </trkpt>
      <trkpt lat="43.01883" lon="-7.23306667">
        <ele>833.0</ele>
        <time>2022-06-19T13:31:06.467Z</time>
      </trkpt>
      <trkpt lat="43.0188" lon="-7.23314333">
        <ele>833.0</ele>
        <time>2022-06-19T13:31:07.485Z</time>
      </trkpt>
      <trkpt lat="43.0188" lon="-7.23314333">
        <ele>833.0</ele>
        <time>2022-06-19T13:31:08.464Z</time>
      </trkpt>
      <trkpt lat="43.01877167" lon="-7.23321667">
        <ele>834.0</ele>
        <time>2022-06-19T13:31:09.486Z</time>
      </trkpt>
      <trkpt lat="43.01877167" lon="-7.23321667">
        <ele>834.0</ele>
        <time>2022-06-19T13:31:10.475Z</time>
      </trkpt>
      <trkpt lat="43.01874667" lon="-7.23328833">
        <ele>834.0</ele>
        <time>2022-06-19T13:31:11.452Z</time>
      </trkpt>
      <trkpt lat="43.01874667" lon="-7.23328833">
        <ele>834.0</ele>
        <time>2022-06-19T13:31:12.458Z</time>
      </trkpt>
      <trkpt lat="43.01871833" lon="-7.23335833">
        <ele>835.0</ele>
        <time>2022-06-19T13:31:13.483Z</time>
      </trkpt>
      <trkpt lat="43.01871833" lon="-7.23335833">
        <ele>835.0</ele>
        <time>2022-06-19T13:31:14.467Z</time>
      </trkpt>
      <trkpt lat="43.01869333" lon="-7.23342833">
        <ele>835.0</ele>
        <time>2022-06-19T13:31:15.453Z</time>
      </trkpt>
      <trkpt lat="43.01869333" lon="-7.23342833">
        <ele>835.0</ele>
        <time>2022-06-19T13:31:16.470Z</time>
      </trkpt>
      <trkpt lat="43.01867" lon="-7.23350167">
        <ele>835.0</ele>
        <time>2022-06-19T13:31:17.489Z</time>
      </trkpt>
      <trkpt lat="43.01867" lon="-7.23350167">
        <ele>835.0</ele>
        <time>2022-06-19T13:31:18.489Z</time>
      </trkpt>
      <trkpt lat="43.01864667" lon="-7.23357333">
        <ele>835.0</ele>
        <time>2022-06-19T13:31:19.482Z</time>
      </trkpt>
      <trkpt lat="43.01864667" lon="-7.23357333">
        <ele>835.0</ele>
        <time>2022-06-19T13:31:20.475Z</time>
      </trkpt>
      <trkpt lat="43.018625" lon="-7.233645">
        <ele>836.0</ele>
        <time>2022-06-19T13:31:21.487Z</time>
      </trkpt>
      <trkpt lat="43.018625" lon="-7.233645">
        <ele>836.0</ele>
        <time>2022-06-19T13:31:22.476Z</time>
      </trkpt>
      <trkpt lat="43.01860333" lon="-7.23371833">
        <ele>836.0</ele>
        <time>2022-06-19T13:31:23.454Z</time>
      </trkpt>
      <trkpt lat="43.01860333" lon="-7.23371833">
        <ele>836.0</ele>
        <time>2022-06-19T13:31:24.466Z</time>
      </trkpt>
      <trkpt lat="43.018585" lon="-7.23379667">
        <ele>836.0</ele>
        <time>2022-06-19T13:31:25.454Z</time>
      </trkpt>
      <trkpt lat="43.018585" lon="-7.23379667">
        <ele>836.0</ele>
        <time>2022-06-19T13:31:26.451Z</time>
      </trkpt>
      <trkpt lat="43.01856833" lon="-7.23387333">
        <ele>836.0</ele>
        <time>2022-06-19T13:31:27.453Z</time>
      </trkpt>
      <trkpt lat="43.01856833" lon="-7.23387333">
        <ele>836.0</ele>
        <time>2022-06-19T13:31:28.477Z</time>
      </trkpt>
      <trkpt lat="43.01855167" lon="-7.23394333">
        <ele>836.0</ele>
        <time>2022-06-19T13:31:29.457Z</time>
      </trkpt>
      <trkpt lat="43.01854333" lon="-7.23397667">
        <ele>836.0</ele>
        <time>2022-06-19T13:31:30.466Z</time>
      </trkpt>
      <trkpt lat="43.01854333" lon="-7.23397667">
        <ele>836.0</ele>
        <time>2022-06-19T13:31:31.459Z</time>
      </trkpt>
      <trkpt lat="43.018525" lon="-7.23404">
        <ele>837.0</ele>
        <time>2022-06-19T13:31:32.476Z</time>
      </trkpt>
      <trkpt lat="43.018525" lon="-7.23404">
        <ele>837.0</ele>
        <time>2022-06-19T13:31:33.479Z</time>
      </trkpt>
      <trkpt lat="43.01850667" lon="-7.23410333">
        <ele>837.0</ele>
        <time>2022-06-19T13:31:34.453Z</time>
      </trkpt>
      <trkpt lat="43.01850667" lon="-7.23410333">
        <ele>837.0</ele>
        <time>2022-06-19T13:31:35.472Z</time>
      </trkpt>
      <trkpt lat="43.01849" lon="-7.23416167">
        <ele>838.0</ele>
        <time>2022-06-19T13:31:36.458Z</time>
      </trkpt>
      <trkpt lat="43.01848" lon="-7.23419167">
        <ele>838.0</ele>
        <time>2022-06-19T13:31:37.464Z</time>
      </trkpt>
      <trkpt lat="43.01848" lon="-7.23419167">
        <ele>838.0</ele>
        <time>2022-06-19T13:31:38.484Z</time>
      </trkpt>
      <trkpt lat="43.01846167" lon="-7.23425333">
        <ele>838.0</ele>
        <time>2022-06-19T13:31:39.467Z</time>
      </trkpt>
      <trkpt lat="43.01845167" lon="-7.23428333">
        <ele>838.0</ele>
        <time>2022-06-19T13:31:40.461Z</time>
      </trkpt>
      <trkpt lat="43.01845167" lon="-7.23428333">
        <ele>838.0</ele>
        <time>2022-06-19T13:31:41.467Z</time>
      </trkpt>
      <trkpt lat="43.018435" lon="-7.23434667">
        <ele>838.0</ele>
        <time>2022-06-19T13:31:42.476Z</time>
      </trkpt>
      <trkpt lat="43.018425" lon="-7.23438">
        <ele>839.0</ele>
        <time>2022-06-19T13:31:43.467Z</time>
      </trkpt>
      <trkpt lat="43.018425" lon="-7.23438">
        <ele>839.0</ele>
        <time>2022-06-19T13:31:44.468Z</time>
      </trkpt>
      <trkpt lat="43.01840667" lon="-7.23444167">
        <ele>839.0</ele>
        <time>2022-06-19T13:31:45.453Z</time>
      </trkpt>
      <trkpt lat="43.01840667" lon="-7.23444167">
        <ele>839.0</ele>
        <time>2022-06-19T13:31:46.466Z</time>
      </trkpt>
      <trkpt lat="43.01839" lon="-7.23449333">
        <ele>839.0</ele>
        <time>2022-06-19T13:31:47.455Z</time>
      </trkpt>
      <trkpt lat="43.01838" lon="-7.23451667">
        <ele>839.0</ele>
        <time>2022-06-19T13:31:48.500Z</time>
      </trkpt>
      <trkpt lat="43.01838" lon="-7.23451667">
        <ele>839.0</ele>
        <time>2022-06-19T13:31:49.469Z</time>
      </trkpt>
      <trkpt lat="43.018365" lon="-7.23456667">
        <ele>840.0</ele>
        <time>2022-06-19T13:31:50.456Z</time>
      </trkpt>
      <trkpt lat="43.018365" lon="-7.23456667">
        <ele>840.0</ele>
        <time>2022-06-19T13:31:51.473Z</time>
      </trkpt>
      <trkpt lat="43.01835" lon="-7.23461">
        <ele>840.0</ele>
        <time>2022-06-19T13:31:52.475Z</time>
      </trkpt>
      <trkpt lat="43.01834333" lon="-7.23463">
        <ele>840.0</ele>
        <time>2022-06-19T13:31:53.470Z</time>
      </trkpt>
      <trkpt lat="43.01833667" lon="-7.23465167">
        <ele>840.0</ele>
        <time>2022-06-19T13:31:54.456Z</time>
      </trkpt>
      <trkpt lat="43.01833667" lon="-7.23465167">
        <ele>840.0</ele>
        <time>2022-06-19T13:31:55.459Z</time>
      </trkpt>
      <trkpt lat="43.018325" lon="-7.23468833">
        <ele>840.0</ele>
        <time>2022-06-19T13:31:56.484Z</time>
      </trkpt>
      <trkpt lat="43.01831667" lon="-7.23470833">
        <ele>841.0</ele>
        <time>2022-06-19T13:31:57.491Z</time>
      </trkpt>
      <trkpt lat="43.01831667" lon="-7.23470833">
        <ele>841.0</ele>
        <time>2022-06-19T13:31:58.464Z</time>
      </trkpt>
      <trkpt lat="43.0183" lon="-7.23474667">
        <ele>841.0</ele>
        <time>2022-06-19T13:31:59.467Z</time>
      </trkpt>
      <trkpt lat="43.0183" lon="-7.23474667">
        <ele>841.0</ele>
        <time>2022-06-19T13:32:00.453Z</time>
      </trkpt>
      <trkpt lat="43.01828167" lon="-7.23478333">
        <ele>841.0</ele>
        <time>2022-06-19T13:32:01.484Z</time>
      </trkpt>
      <trkpt lat="43.01828167" lon="-7.23478333">
        <ele>841.0</ele>
        <time>2022-06-19T13:32:02.470Z</time>
      </trkpt>
      <trkpt lat="43.01827" lon="-7.23482">
        <ele>842.0</ele>
        <time>2022-06-19T13:32:03.485Z</time>
      </trkpt>
      <trkpt lat="43.01826333" lon="-7.23483833">
        <ele>842.0</ele>
        <time>2022-06-19T13:32:04.495Z</time>
      </trkpt>
      <trkpt lat="43.01826333" lon="-7.23483833">
        <ele>842.0</ele>
        <time>2022-06-19T13:32:05.483Z</time>
      </trkpt>
      <trkpt lat="43.01825" lon="-7.23487333">
        <ele>843.0</ele>
        <time>2022-06-19T13:32:06.498Z</time>
      </trkpt>
      <trkpt lat="43.01824167" lon="-7.23488833">
        <ele>843.0</ele>
        <time>2022-06-19T13:32:07.494Z</time>
      </trkpt>
      <trkpt lat="43.01824167" lon="-7.23488833">
        <ele>843.0</ele>
        <time>2022-06-19T13:32:08.477Z</time>
      </trkpt>
      <trkpt lat="43.01822667" lon="-7.23492">
        <ele>843.0</ele>
        <time>2022-06-19T13:32:09.469Z</time>
      </trkpt>
      <trkpt lat="43.01822667" lon="-7.23492">
        <ele>843.0</ele>
        <time>2022-06-19T13:32:10.458Z</time>
      </trkpt>
      <trkpt lat="43.01821333" lon="-7.23495667">
        <ele>844.0</ele>
        <time>2022-06-19T13:32:11.451Z</time>
      </trkpt>
      <trkpt lat="43.01821333" lon="-7.23495667">
        <ele>844.0</ele>
        <time>2022-06-19T13:32:12.453Z</time>
      </trkpt>
      <trkpt lat="43.01820167" lon="-7.23499">
        <ele>844.0</ele>
        <time>2022-06-19T13:32:13.479Z</time>
      </trkpt>
      <trkpt lat="43.01820167" lon="-7.23499">
        <ele>844.0</ele>
        <time>2022-06-19T13:32:14.459Z</time>
      </trkpt>
      <trkpt lat="43.01818667" lon="-7.23502167">
        <ele>845.0</ele>
        <time>2022-06-19T13:32:15.478Z</time>
      </trkpt>
      <trkpt lat="43.01818667" lon="-7.23502167">
        <ele>845.0</ele>
        <time>2022-06-19T13:32:16.482Z</time>
      </trkpt>
      <trkpt lat="43.01816833" lon="-7.23506167">
        <ele>845.0</ele>
        <time>2022-06-19T13:32:17.457Z</time>
      </trkpt>
      <trkpt lat="43.01816833" lon="-7.23506167">
        <ele>845.0</ele>
        <time>2022-06-19T13:32:18.489Z</time>
      </trkpt>
      <trkpt lat="43.01815" lon="-7.23510667">
        <ele>845.0</ele>
        <time>2022-06-19T13:32:19.462Z</time>
      </trkpt>
      <trkpt lat="43.01815" lon="-7.23510667">
        <ele>845.0</ele>
        <time>2022-06-19T13:32:20.469Z</time>
      </trkpt>
      <trkpt lat="43.01813167" lon="-7.23514833">
        <ele>845.0</ele>
        <time>2022-06-19T13:32:21.497Z</time>
      </trkpt>
      <trkpt lat="43.01813167" lon="-7.23514833">
        <ele>845.0</ele>
        <time>2022-06-19T13:32:22.479Z</time>
      </trkpt>
      <trkpt lat="43.01811" lon="-7.23519">
        <ele>846.0</ele>
        <time>2022-06-19T13:32:23.468Z</time>
      </trkpt>
      <trkpt lat="43.01811" lon="-7.23519">
        <ele>846.0</ele>
        <time>2022-06-19T13:32:24.469Z</time>
      </trkpt>
      <trkpt lat="43.01808833" lon="-7.23524333">
        <ele>846.0</ele>
        <time>2022-06-19T13:32:25.459Z</time>
      </trkpt>
      <trkpt lat="43.01808833" lon="-7.23524333">
        <ele>846.0</ele>
        <time>2022-06-19T13:32:26.469Z</time>
      </trkpt>
      <trkpt lat="43.01806333" lon="-7.235305">
        <ele>846.0</ele>
        <time>2022-06-19T13:32:27.451Z</time>
      </trkpt>
      <trkpt lat="43.01805167" lon="-7.235335">
        <ele>846.0</ele>
        <time>2022-06-19T13:32:28.452Z</time>
      </trkpt>
      <trkpt lat="43.01805167" lon="-7.235335">
        <ele>846.0</ele>
        <time>2022-06-19T13:32:29.468Z</time>
      </trkpt>
      <trkpt lat="43.01802667" lon="-7.23540167">
        <ele>846.0</ele>
        <time>2022-06-19T13:32:30.451Z</time>
      </trkpt>
      <trkpt lat="43.01801333" lon="-7.23543833">
        <ele>846.0</ele>
        <time>2022-06-19T13:32:31.467Z</time>
      </trkpt>
      <trkpt lat="43.01801333" lon="-7.23543833">
        <ele>846.0</ele>
        <time>2022-06-19T13:32:32.486Z</time>
      </trkpt>
      <trkpt lat="43.01799167" lon="-7.235515">
        <ele>846.0</ele>
        <time>2022-06-19T13:32:33.464Z</time>
      </trkpt>
      <trkpt lat="43.01798167" lon="-7.235555">
        <ele>846.0</ele>
        <time>2022-06-19T13:32:34.470Z</time>
      </trkpt>
      <trkpt lat="43.01798167" lon="-7.235555">
        <ele>846.0</ele>
        <time>2022-06-19T13:32:35.450Z</time>
      </trkpt>
      <trkpt lat="43.017965" lon="-7.23564667">
        <ele>845.0</ele>
        <time>2022-06-19T13:32:36.474Z</time>
      </trkpt>
      <trkpt lat="43.01796167" lon="-7.23569667">
        <ele>845.0</ele>
        <time>2022-06-19T13:32:37.452Z</time>
      </trkpt>
      <trkpt lat="43.01796167" lon="-7.23569667">
        <ele>845.0</ele>
        <time>2022-06-19T13:32:38.470Z</time>
      </trkpt>
      <trkpt lat="43.01796833" lon="-7.23579333">
        <ele>845.0</ele>
        <time>2022-06-19T13:32:39.487Z</time>
      </trkpt>
      <trkpt lat="43.01796833" lon="-7.23579333">
        <ele>845.0</ele>
        <time>2022-06-19T13:32:40.467Z</time>
      </trkpt>
      <trkpt lat="43.01799167" lon="-7.23589667">
        <ele>845.0</ele>
        <time>2022-06-19T13:32:41.487Z</time>
      </trkpt>
      <trkpt lat="43.018005" lon="-7.23594833">
        <ele>845.0</ele>
        <time>2022-06-19T13:32:42.485Z</time>
      </trkpt>
      <trkpt lat="43.018005" lon="-7.23594833">
        <ele>845.0</ele>
        <time>2022-06-19T13:32:43.458Z</time>
      </trkpt>
      <trkpt lat="43.01804" lon="-7.23606333">
        <ele>845.0</ele>
        <time>2022-06-19T13:32:44.485Z</time>
      </trkpt>
      <trkpt lat="43.01804" lon="-7.23606333">
        <ele>845.0</ele>
        <time>2022-06-19T13:32:45.469Z</time>
      </trkpt>
      <trkpt lat="43.01807333" lon="-7.236185">
        <ele>845.0</ele>
        <time>2022-06-19T13:32:46.465Z</time>
      </trkpt>
      <trkpt lat="43.01808833" lon="-7.23624833">
        <ele>844.0</ele>
        <time>2022-06-19T13:32:47.485Z</time>
      </trkpt>
      <trkpt lat="43.01808833" lon="-7.23624833">
        <ele>844.0</ele>
        <time>2022-06-19T13:32:48.478Z</time>
      </trkpt>
      <trkpt lat="43.018115" lon="-7.236385">
        <ele>843.0</ele>
        <time>2022-06-19T13:32:49.455Z</time>
      </trkpt>
      <trkpt lat="43.018115" lon="-7.236385">
        <ele>843.0</ele>
        <time>2022-06-19T13:32:50.479Z</time>
      </trkpt>
      <trkpt lat="43.01814167" lon="-7.23653167">
        <ele>842.0</ele>
        <time>2022-06-19T13:32:51.466Z</time>
      </trkpt>
      <trkpt lat="43.01814167" lon="-7.23653167">
        <ele>842.0</ele>
        <time>2022-06-19T13:32:52.469Z</time>
      </trkpt>
      <trkpt lat="43.01816333" lon="-7.23669167">
        <ele>841.0</ele>
        <time>2022-06-19T13:32:53.504Z</time>
      </trkpt>
      <trkpt lat="43.01816333" lon="-7.23669167">
        <ele>841.0</ele>
        <time>2022-06-19T13:32:54.451Z</time>
      </trkpt>
      <trkpt lat="43.01818167" lon="-7.23685667">
        <ele>841.0</ele>
        <time>2022-06-19T13:32:55.454Z</time>
      </trkpt>
      <trkpt lat="43.01818167" lon="-7.23685667">
        <ele>841.0</ele>
        <time>2022-06-19T13:32:56.471Z</time>
      </trkpt>
      <trkpt lat="43.01818833" lon="-7.23702833">
        <ele>841.0</ele>
        <time>2022-06-19T13:32:57.454Z</time>
      </trkpt>
      <trkpt lat="43.01818833" lon="-7.23702833">
        <ele>841.0</ele>
        <time>2022-06-19T13:32:58.457Z</time>
      </trkpt>
      <trkpt lat="43.01818667" lon="-7.23720667">
        <ele>840.0</ele>
        <time>2022-06-19T13:32:59.470Z</time>
      </trkpt>
      <trkpt lat="43.01818667" lon="-7.23720667">
        <ele>840.0</ele>
        <time>2022-06-19T13:33:00.450Z</time>
      </trkpt>
      <trkpt lat="43.01818167" lon="-7.23738333">
        <ele>840.0</ele>
        <time>2022-06-19T13:33:01.466Z</time>
      </trkpt>
      <trkpt lat="43.01818333" lon="-7.23747">
        <ele>839.0</ele>
        <time>2022-06-19T13:33:02.484Z</time>
      </trkpt>
      <trkpt lat="43.01818333" lon="-7.23747">
        <ele>839.0</ele>
        <time>2022-06-19T13:33:03.475Z</time>
      </trkpt>
      <trkpt lat="43.018195" lon="-7.23764167">
        <ele>839.0</ele>
        <time>2022-06-19T13:33:04.460Z</time>
      </trkpt>
      <trkpt lat="43.018195" lon="-7.23764167">
        <ele>839.0</ele>
        <time>2022-06-19T13:33:05.485Z</time>
      </trkpt>
      <trkpt lat="43.01821667" lon="-7.23780667">
        <ele>838.0</ele>
        <time>2022-06-19T13:33:06.473Z</time>
      </trkpt>
      <trkpt lat="43.01822333" lon="-7.23788333">
        <ele>838.0</ele>
        <time>2022-06-19T13:33:07.461Z</time>
      </trkpt>
      <trkpt lat="43.01822333" lon="-7.23788333">
        <ele>838.0</ele>
        <time>2022-06-19T13:33:08.478Z</time>
      </trkpt>
      <trkpt lat="43.01822" lon="-7.23802333">
        <ele>836.0</ele>
        <time>2022-06-19T13:33:09.455Z</time>
      </trkpt>
      <trkpt lat="43.01822" lon="-7.23802333">
        <ele>836.0</ele>
        <time>2022-06-19T13:33:10.484Z</time>
      </trkpt>
      <trkpt lat="43.01820833" lon="-7.23814">
        <ele>835.0</ele>
        <time>2022-06-19T13:33:11.482Z</time>
      </trkpt>
      <trkpt lat="43.018205" lon="-7.238185">
        <ele>835.0</ele>
        <time>2022-06-19T13:33:12.456Z</time>
      </trkpt>
      <trkpt lat="43.01820333" lon="-7.238225">
        <ele>834.0</ele>
        <time>2022-06-19T13:33:13.478Z</time>
      </trkpt>
      <trkpt lat="43.01820333" lon="-7.238225">
        <ele>834.0</ele>
        <time>2022-06-19T13:33:14.453Z</time>
      </trkpt>
      <trkpt lat="43.018205" lon="-7.23829833">
        <ele>833.0</ele>
        <time>2022-06-19T13:33:15.476Z</time>
      </trkpt>
      <trkpt lat="43.01820833" lon="-7.23833167">
        <ele>833.0</ele>
        <time>2022-06-19T13:33:16.476Z</time>
      </trkpt>
      <trkpt lat="43.01820833" lon="-7.23833167">
        <ele>833.0</ele>
        <time>2022-06-19T13:33:17.479Z</time>
      </trkpt>
      <trkpt lat="43.01821333" lon="-7.23839">
        <ele>832.0</ele>
        <time>2022-06-19T13:33:18.476Z</time>
      </trkpt>
      <trkpt lat="43.01821333" lon="-7.23839">
        <ele>832.0</ele>
        <time>2022-06-19T13:33:19.469Z</time>
      </trkpt>
      <trkpt lat="43.01822167" lon="-7.238455">
        <ele>831.0</ele>
        <time>2022-06-19T13:33:20.457Z</time>
      </trkpt>
      <trkpt lat="43.01822167" lon="-7.238455">
        <ele>831.0</ele>
        <time>2022-06-19T13:33:21.488Z</time>
      </trkpt>
      <trkpt lat="43.01822667" lon="-7.23853833">
        <ele>830.0</ele>
        <time>2022-06-19T13:33:22.474Z</time>
      </trkpt>
      <trkpt lat="43.01822667" lon="-7.23858333">
        <ele>829.0</ele>
        <time>2022-06-19T13:33:23.477Z</time>
      </trkpt>
      <trkpt lat="43.01822667" lon="-7.23858333">
        <ele>829.0</ele>
        <time>2022-06-19T13:33:24.484Z</time>
      </trkpt>
      <trkpt lat="43.01822167" lon="-7.23867">
        <ele>829.0</ele>
        <time>2022-06-19T13:33:25.450Z</time>
      </trkpt>
      <trkpt lat="43.01822167" lon="-7.23867">
        <ele>829.0</ele>
        <time>2022-06-19T13:33:26.469Z</time>
      </trkpt>
      <trkpt lat="43.01820667" lon="-7.23875333">
        <ele>827.0</ele>
        <time>2022-06-19T13:33:27.461Z</time>
      </trkpt>
      <trkpt lat="43.01819333" lon="-7.238805">
        <ele>826.0</ele>
        <time>2022-06-19T13:33:28.458Z</time>
      </trkpt>
      <trkpt lat="43.01819333" lon="-7.238805">
        <ele>826.0</ele>
        <time>2022-06-19T13:33:29.471Z</time>
      </trkpt>
      <trkpt lat="43.018175" lon="-7.23894333">
        <ele>823.0</ele>
        <time>2022-06-19T13:33:30.473Z</time>
      </trkpt>
      <trkpt lat="43.01815833" lon="-7.23901833">
        <ele>822.0</ele>
        <time>2022-06-19T13:33:31.456Z</time>
      </trkpt>
      <trkpt lat="43.01815833" lon="-7.23901833">
        <ele>822.0</ele>
        <time>2022-06-19T13:33:32.484Z</time>
      </trkpt>
      <trkpt lat="43.01811667" lon="-7.23918833">
        <ele>820.0</ele>
        <time>2022-06-19T13:33:33.493Z</time>
      </trkpt>
      <trkpt lat="43.01811667" lon="-7.23918833">
        <ele>820.0</ele>
        <time>2022-06-19T13:33:34.480Z</time>
      </trkpt>
      <trkpt lat="43.01810833" lon="-7.23935333">
        <ele>818.0</ele>
        <time>2022-06-19T13:33:35.462Z</time>
      </trkpt>
      <trkpt lat="43.01810833" lon="-7.23935333">
        <ele>818.0</ele>
        <time>2022-06-19T13:33:36.457Z</time>
      </trkpt>
      <trkpt lat="43.01813667" lon="-7.23949667">
        <ele>816.0</ele>
        <time>2022-06-19T13:33:37.481Z</time>
      </trkpt>
      <trkpt lat="43.01813667" lon="-7.23949667">
        <ele>816.0</ele>
        <time>2022-06-19T13:33:38.489Z</time>
      </trkpt>
      <trkpt lat="43.018145" lon="-7.23964333">
        <ele>813.0</ele>
        <time>2022-06-19T13:33:39.461Z</time>
      </trkpt>
      <trkpt lat="43.018145" lon="-7.23964333">
        <ele>813.0</ele>
        <time>2022-06-19T13:33:40.450Z</time>
      </trkpt>
      <trkpt lat="43.01813167" lon="-7.23976667">
        <ele>812.0</ele>
        <time>2022-06-19T13:33:41.473Z</time>
      </trkpt>
      <trkpt lat="43.01813167" lon="-7.23976667">
        <ele>812.0</ele>
        <time>2022-06-19T13:33:42.462Z</time>
      </trkpt>
      <trkpt lat="43.018115" lon="-7.239875">
        <ele>811.0</ele>
        <time>2022-06-19T13:33:43.455Z</time>
      </trkpt>
      <trkpt lat="43.018115" lon="-7.239875">
        <ele>811.0</ele>
        <time>2022-06-19T13:33:44.456Z</time>
      </trkpt>
      <trkpt lat="43.01809" lon="-7.23999333">
        <ele>808.0</ele>
        <time>2022-06-19T13:33:45.479Z</time>
      </trkpt>
      <trkpt lat="43.01809" lon="-7.23999333">
        <ele>808.0</ele>
        <time>2022-06-19T13:33:46.467Z</time>
      </trkpt>
      <trkpt lat="43.01804833" lon="-7.24014833">
        <ele>806.0</ele>
        <time>2022-06-19T13:33:47.486Z</time>
      </trkpt>
      <trkpt lat="43.01804833" lon="-7.24014833">
        <ele>806.0</ele>
        <time>2022-06-19T13:33:48.461Z</time>
      </trkpt>
      <trkpt lat="43.018005" lon="-7.24030667">
        <ele>804.0</ele>
        <time>2022-06-19T13:33:49.452Z</time>
      </trkpt>
      <trkpt lat="43.018005" lon="-7.24030667">
        <ele>804.0</ele>
        <time>2022-06-19T13:33:50.472Z</time>
      </trkpt>
      <trkpt lat="43.01796333" lon="-7.24049667">
        <ele>802.0</ele>
        <time>2022-06-19T13:33:51.474Z</time>
      </trkpt>
      <trkpt lat="43.01796333" lon="-7.24049667">
        <ele>802.0</ele>
        <time>2022-06-19T13:33:52.497Z</time>
      </trkpt>
      <trkpt lat="43.01791" lon="-7.24068333">
        <ele>800.0</ele>
        <time>2022-06-19T13:33:53.470Z</time>
      </trkpt>
      <trkpt lat="43.01788833" lon="-7.24077333">
        <ele>799.0</ele>
        <time>2022-06-19T13:33:54.457Z</time>
      </trkpt>
      <trkpt lat="43.01787167" lon="-7.240855">
        <ele>798.0</ele>
        <time>2022-06-19T13:33:55.470Z</time>
      </trkpt>
      <trkpt lat="43.01787167" lon="-7.240855">
        <ele>798.0</ele>
        <time>2022-06-19T13:33:56.458Z</time>
      </trkpt>
      <trkpt lat="43.017835" lon="-7.241015">
        <ele>797.0</ele>
        <time>2022-06-19T13:33:57.496Z</time>
      </trkpt>
      <trkpt lat="43.017835" lon="-7.241015">
        <ele>797.0</ele>
        <time>2022-06-19T13:33:58.479Z</time>
      </trkpt>
      <trkpt lat="43.017805" lon="-7.241165">
        <ele>795.0</ele>
        <time>2022-06-19T13:33:59.483Z</time>
      </trkpt>
      <trkpt lat="43.017805" lon="-7.241165">
        <ele>795.0</ele>
        <time>2022-06-19T13:34:00.456Z</time>
      </trkpt>
      <trkpt lat="43.01777667" lon="-7.24129667">
        <ele>793.0</ele>
        <time>2022-06-19T13:34:01.472Z</time>
      </trkpt>
      <trkpt lat="43.01777667" lon="-7.24129667">
        <ele>793.0</ele>
        <time>2022-06-19T13:34:02.472Z</time>
      </trkpt>
      <trkpt lat="43.01775333" lon="-7.241405">
        <ele>792.0</ele>
        <time>2022-06-19T13:34:03.458Z</time>
      </trkpt>
      <trkpt lat="43.01775333" lon="-7.241405">
        <ele>792.0</ele>
        <time>2022-06-19T13:34:04.475Z</time>
      </trkpt>
      <trkpt lat="43.01779333" lon="-7.241515">
        <ele>792.0</ele>
        <time>2022-06-19T13:34:05.466Z</time>
      </trkpt>
      <trkpt lat="43.01779333" lon="-7.241515">
        <ele>792.0</ele>
        <time>2022-06-19T13:34:06.485Z</time>
      </trkpt>
      <trkpt lat="43.01787667" lon="-7.24161167">
        <ele>791.0</ele>
        <time>2022-06-19T13:34:07.465Z</time>
      </trkpt>
      <trkpt lat="43.01787667" lon="-7.24161167">
        <ele>791.0</ele>
        <time>2022-06-19T13:34:08.462Z</time>
      </trkpt>
      <trkpt lat="43.01798833" lon="-7.241675">
        <ele>791.0</ele>
        <time>2022-06-19T13:34:09.489Z</time>
      </trkpt>
      <trkpt lat="43.01805" lon="-7.24169">
        <ele>790.0</ele>
        <time>2022-06-19T13:34:10.467Z</time>
      </trkpt>
      <trkpt lat="43.01805" lon="-7.24169">
        <ele>790.0</ele>
        <time>2022-06-19T13:34:11.461Z</time>
      </trkpt>
      <trkpt lat="43.01816667" lon="-7.241685">
        <ele>789.0</ele>
        <time>2022-06-19T13:34:12.480Z</time>
      </trkpt>
      <trkpt lat="43.01822667" lon="-7.24167333">
        <ele>788.0</ele>
        <time>2022-06-19T13:34:13.457Z</time>
      </trkpt>
      <trkpt lat="43.01822667" lon="-7.24167333">
        <ele>788.0</ele>
        <time>2022-06-19T13:34:14.481Z</time>
      </trkpt>
      <trkpt lat="43.01833333" lon="-7.24164333">
        <ele>788.0</ele>
        <time>2022-06-19T13:34:15.471Z</time>
      </trkpt>
      <trkpt lat="43.01837333" lon="-7.241635">
        <ele>787.0</ele>
        <time>2022-06-19T13:34:16.463Z</time>
      </trkpt>
      <trkpt lat="43.01837333" lon="-7.241635">
        <ele>787.0</ele>
        <time>2022-06-19T13:34:17.481Z</time>
      </trkpt>
      <trkpt lat="43.01843667" lon="-7.24164667">
        <ele>786.0</ele>
        <time>2022-06-19T13:34:18.465Z</time>
      </trkpt>
      <trkpt lat="43.01843667" lon="-7.24164667">
        <ele>786.0</ele>
        <time>2022-06-19T13:34:19.483Z</time>
      </trkpt>
      <trkpt lat="43.01846167" lon="-7.24171">
        <ele>785.0</ele>
        <time>2022-06-19T13:34:20.467Z</time>
      </trkpt>
      <trkpt lat="43.01846167" lon="-7.24171">
        <ele>785.0</ele>
        <time>2022-06-19T13:34:21.486Z</time>
      </trkpt>
      <trkpt lat="43.018485" lon="-7.24177333">
        <ele>784.0</ele>
        <time>2022-06-19T13:34:22.473Z</time>
      </trkpt>
      <trkpt lat="43.018485" lon="-7.24177333">
        <ele>784.0</ele>
        <time>2022-06-19T13:34:23.459Z</time>
      </trkpt>
      <trkpt lat="43.01850833" lon="-7.24183833">
        <ele>782.0</ele>
        <time>2022-06-19T13:34:24.465Z</time>
      </trkpt>
      <trkpt lat="43.01850833" lon="-7.24183833">
        <ele>782.0</ele>
        <time>2022-06-19T13:34:25.453Z</time>
      </trkpt>
      <trkpt lat="43.01853" lon="-7.241905">
        <ele>781.0</ele>
        <time>2022-06-19T13:34:26.477Z</time>
      </trkpt>
      <trkpt lat="43.01853" lon="-7.241905">
        <ele>781.0</ele>
        <time>2022-06-19T13:34:27.470Z</time>
      </trkpt>
      <trkpt lat="43.01853" lon="-7.24195833">
        <ele>780.0</ele>
        <time>2022-06-19T13:34:28.486Z</time>
      </trkpt>
      <trkpt lat="43.01852833" lon="-7.24198667">
        <ele>779.0</ele>
        <time>2022-06-19T13:34:29.486Z</time>
      </trkpt>
      <trkpt lat="43.01852833" lon="-7.24198667">
        <ele>779.0</ele>
        <time>2022-06-19T13:34:30.465Z</time>
      </trkpt>
      <trkpt lat="43.01853333" lon="-7.24206667">
        <ele>778.0</ele>
        <time>2022-06-19T13:34:31.488Z</time>
      </trkpt>
      <trkpt lat="43.01853333" lon="-7.24206667">
        <ele>778.0</ele>
        <time>2022-06-19T13:34:32.480Z</time>
      </trkpt>
      <trkpt lat="43.01852" lon="-7.24217833">
        <ele>776.0</ele>
        <time>2022-06-19T13:34:33.457Z</time>
      </trkpt>
      <trkpt lat="43.01852" lon="-7.24217833">
        <ele>776.0</ele>
        <time>2022-06-19T13:34:34.472Z</time>
      </trkpt>
      <trkpt lat="43.01850167" lon="-7.24232">
        <ele>774.0</ele>
        <time>2022-06-19T13:34:35.461Z</time>
      </trkpt>
      <trkpt lat="43.01850167" lon="-7.24232">
        <ele>774.0</ele>
        <time>2022-06-19T13:34:36.458Z</time>
      </trkpt>
      <trkpt lat="43.01844833" lon="-7.24250333">
        <ele>772.0</ele>
        <time>2022-06-19T13:34:37.481Z</time>
      </trkpt>
      <trkpt lat="43.01844833" lon="-7.24250333">
        <ele>772.0</ele>
        <time>2022-06-19T13:34:38.458Z</time>
      </trkpt>
      <trkpt lat="43.01835167" lon="-7.24271667">
        <ele>770.0</ele>
        <time>2022-06-19T13:34:39.474Z</time>
      </trkpt>
      <trkpt lat="43.01835167" lon="-7.24271667">
        <ele>770.0</ele>
        <time>2022-06-19T13:34:40.479Z</time>
      </trkpt>
      <trkpt lat="43.01822" lon="-7.24294">
        <ele>767.0</ele>
        <time>2022-06-19T13:34:41.487Z</time>
      </trkpt>
      <trkpt lat="43.01822" lon="-7.24294">
        <ele>767.0</ele>
        <time>2022-06-19T13:34:42.479Z</time>
      </trkpt>
      <trkpt lat="43.01808333" lon="-7.243145">
        <ele>763.0</ele>
        <time>2022-06-19T13:34:43.458Z</time>
      </trkpt>
      <trkpt lat="43.01808333" lon="-7.243145">
        <ele>763.0</ele>
        <time>2022-06-19T13:34:44.450Z</time>
      </trkpt>
      <trkpt lat="43.01796667" lon="-7.24332333">
        <ele>762.0</ele>
        <time>2022-06-19T13:34:45.475Z</time>
      </trkpt>
      <trkpt lat="43.01796667" lon="-7.24332333">
        <ele>762.0</ele>
        <time>2022-06-19T13:34:46.459Z</time>
      </trkpt>
      <trkpt lat="43.01786833" lon="-7.24352167">
        <ele>760.0</ele>
        <time>2022-06-19T13:34:47.494Z</time>
      </trkpt>
      <trkpt lat="43.01786833" lon="-7.24352167">
        <ele>760.0</ele>
        <time>2022-06-19T13:34:48.485Z</time>
      </trkpt>
      <trkpt lat="43.01777833" lon="-7.24372667">
        <ele>757.0</ele>
        <time>2022-06-19T13:34:49.490Z</time>
      </trkpt>
      <trkpt lat="43.01777833" lon="-7.24372667">
        <ele>757.0</ele>
        <time>2022-06-19T13:34:50.475Z</time>
      </trkpt>
      <trkpt lat="43.01768667" lon="-7.243905">
        <ele>756.0</ele>
        <time>2022-06-19T13:34:51.457Z</time>
      </trkpt>
      <trkpt lat="43.01763" lon="-7.24399167">
        <ele>755.0</ele>
        <time>2022-06-19T13:34:52.503Z</time>
      </trkpt>
      <trkpt lat="43.01763" lon="-7.24399167">
        <ele>755.0</ele>
        <time>2022-06-19T13:34:53.468Z</time>
      </trkpt>
      <trkpt lat="43.01751667" lon="-7.24416333">
        <ele>752.0</ele>
        <time>2022-06-19T13:34:54.491Z</time>
      </trkpt>
      <trkpt lat="43.01751667" lon="-7.24416333">
        <ele>752.0</ele>
        <time>2022-06-19T13:34:55.485Z</time>
      </trkpt>
      <trkpt lat="43.01742833" lon="-7.24428333">
        <ele>750.0</ele>
        <time>2022-06-19T13:34:56.466Z</time>
      </trkpt>
      <trkpt lat="43.01742833" lon="-7.24428333">
        <ele>750.0</ele>
        <time>2022-06-19T13:34:57.464Z</time>
      </trkpt>
      <trkpt lat="43.017365" lon="-7.24441333">
        <ele>748.0</ele>
        <time>2022-06-19T13:34:58.485Z</time>
      </trkpt>
      <trkpt lat="43.017365" lon="-7.24441333">
        <ele>748.0</ele>
        <time>2022-06-19T13:34:59.475Z</time>
      </trkpt>
      <trkpt lat="43.01732333" lon="-7.24457333">
        <ele>746.0</ele>
        <time>2022-06-19T13:35:00.475Z</time>
      </trkpt>
      <trkpt lat="43.01730333" lon="-7.24466">
        <ele>745.0</ele>
        <time>2022-06-19T13:35:01.487Z</time>
      </trkpt>
      <trkpt lat="43.01730333" lon="-7.24466">
        <ele>745.0</ele>
        <time>2022-06-19T13:35:02.484Z</time>
      </trkpt>
      <trkpt lat="43.01725" lon="-7.24484833">
        <ele>743.0</ele>
        <time>2022-06-19T13:35:03.470Z</time>
      </trkpt>
      <trkpt lat="43.01721167" lon="-7.244935">
        <ele>743.0</ele>
        <time>2022-06-19T13:35:04.487Z</time>
      </trkpt>
      <trkpt lat="43.01721167" lon="-7.244935">
        <ele>743.0</ele>
        <time>2022-06-19T13:35:05.486Z</time>
      </trkpt>
      <trkpt lat="43.01710667" lon="-7.24509">
        <ele>742.0</ele>
        <time>2022-06-19T13:35:06.507Z</time>
      </trkpt>
      <trkpt lat="43.01710667" lon="-7.24509">
        <ele>742.0</ele>
        <time>2022-06-19T13:35:07.457Z</time>
      </trkpt>
      <trkpt lat="43.01701667" lon="-7.24525833">
        <ele>741.0</ele>
        <time>2022-06-19T13:35:08.485Z</time>
      </trkpt>
      <trkpt lat="43.01699167" lon="-7.24534833">
        <ele>740.0</ele>
        <time>2022-06-19T13:35:09.474Z</time>
      </trkpt>
      <trkpt lat="43.01698" lon="-7.24543333">
        <ele>740.0</ele>
        <time>2022-06-19T13:35:10.489Z</time>
      </trkpt>
      <trkpt lat="43.01698" lon="-7.24543333">
        <ele>740.0</ele>
        <time>2022-06-19T13:35:11.468Z</time>
      </trkpt>
      <trkpt lat="43.01697833" lon="-7.24558667">
        <ele>738.0</ele>
        <time>2022-06-19T13:35:12.466Z</time>
      </trkpt>
      <trkpt lat="43.01699333" lon="-7.245665">
        <ele>737.0</ele>
        <time>2022-06-19T13:35:13.459Z</time>
      </trkpt>
      <trkpt lat="43.01699333" lon="-7.245665">
        <ele>737.0</ele>
        <time>2022-06-19T13:35:14.459Z</time>
      </trkpt>
      <trkpt lat="43.01702667" lon="-7.24582833">
        <ele>736.0</ele>
        <time>2022-06-19T13:35:15.509Z</time>
      </trkpt>
      <trkpt lat="43.01702667" lon="-7.24582833">
        <ele>736.0</ele>
        <time>2022-06-19T13:35:16.453Z</time>
      </trkpt>
      <trkpt lat="43.017035" lon="-7.24598333">
        <ele>734.0</ele>
        <time>2022-06-19T13:35:17.465Z</time>
      </trkpt>
      <trkpt lat="43.017035" lon="-7.24598333">
        <ele>734.0</ele>
        <time>2022-06-19T13:35:18.466Z</time>
      </trkpt>
      <trkpt lat="43.01697833" lon="-7.24613833">
        <ele>732.0</ele>
        <time>2022-06-19T13:35:19.472Z</time>
      </trkpt>
      <trkpt lat="43.01697833" lon="-7.24613833">
        <ele>732.0</ele>
        <time>2022-06-19T13:35:20.488Z</time>
      </trkpt>
      <trkpt lat="43.016885" lon="-7.24629">
        <ele>730.0</ele>
        <time>2022-06-19T13:35:21.469Z</time>
      </trkpt>
      <trkpt lat="43.01685167" lon="-7.24636167">
        <ele>730.0</ele>
        <time>2022-06-19T13:35:22.462Z</time>
      </trkpt>
      <trkpt lat="43.01685167" lon="-7.24636167">
        <ele>730.0</ele>
        <time>2022-06-19T13:35:23.487Z</time>
      </trkpt>
      <trkpt lat="43.01680333" lon="-7.24646833">
        <ele>728.0</ele>
        <time>2022-06-19T13:35:24.468Z</time>
      </trkpt>
      <trkpt lat="43.01678833" lon="-7.24651333">
        <ele>727.0</ele>
        <time>2022-06-19T13:35:25.468Z</time>
      </trkpt>
      <trkpt lat="43.01678833" lon="-7.24651333">
        <ele>727.0</ele>
        <time>2022-06-19T13:35:26.479Z</time>
      </trkpt>
      <trkpt lat="43.016775" lon="-7.24657">
        <ele>726.0</ele>
        <time>2022-06-19T13:35:27.463Z</time>
      </trkpt>
      <trkpt lat="43.016765" lon="-7.24658333">
        <ele>725.0</ele>
        <time>2022-06-19T13:35:28.464Z</time>
      </trkpt>
      <trkpt lat="43.016765" lon="-7.24658333">
        <ele>725.0</ele>
        <time>2022-06-19T13:35:29.463Z</time>
      </trkpt>
      <trkpt lat="43.016715" lon="-7.24658">
        <ele>724.0</ele>
        <time>2022-06-19T13:35:30.461Z</time>
      </trkpt>
      <trkpt lat="43.016715" lon="-7.24658">
        <ele>724.0</ele>
        <time>2022-06-19T13:35:31.487Z</time>
      </trkpt>
      <trkpt lat="43.016655" lon="-7.24652333">
        <ele>724.0</ele>
        <time>2022-06-19T13:35:32.460Z</time>
      </trkpt>
      <trkpt lat="43.016655" lon="-7.24652333">
        <ele>724.0</ele>
        <time>2022-06-19T13:35:33.456Z</time>
      </trkpt>
      <trkpt lat="43.01660833" lon="-7.24643167">
        <ele>723.0</ele>
        <time>2022-06-19T13:35:34.484Z</time>
      </trkpt>
      <trkpt lat="43.01657" lon="-7.24639167">
        <ele>722.0</ele>
        <time>2022-06-19T13:35:35.489Z</time>
      </trkpt>
      <trkpt lat="43.01657" lon="-7.24639167">
        <ele>722.0</ele>
        <time>2022-06-19T13:35:36.468Z</time>
      </trkpt>
      <trkpt lat="43.01650833" lon="-7.246305">
        <ele>722.0</ele>
        <time>2022-06-19T13:35:37.451Z</time>
      </trkpt>
      <trkpt lat="43.01650833" lon="-7.246305">
        <ele>722.0</ele>
        <time>2022-06-19T13:35:38.487Z</time>
      </trkpt>
      <trkpt lat="43.01643667" lon="-7.24623833">
        <ele>722.0</ele>
        <time>2022-06-19T13:35:39.470Z</time>
      </trkpt>
      <trkpt lat="43.01643667" lon="-7.24623833">
        <ele>722.0</ele>
        <time>2022-06-19T13:35:40.469Z</time>
      </trkpt>
      <trkpt lat="43.01635833" lon="-7.24619167">
        <ele>722.0</ele>
        <time>2022-06-19T13:35:41.489Z</time>
      </trkpt>
      <trkpt lat="43.01635833" lon="-7.24619167">
        <ele>722.0</ele>
        <time>2022-06-19T13:35:42.480Z</time>
      </trkpt>
      <trkpt lat="43.01626833" lon="-7.24616">
        <ele>721.0</ele>
        <time>2022-06-19T13:35:43.457Z</time>
      </trkpt>
      <trkpt lat="43.01622" lon="-7.24614667">
        <ele>721.0</ele>
        <time>2022-06-19T13:35:44.489Z</time>
      </trkpt>
      <trkpt lat="43.01622" lon="-7.24614667">
        <ele>721.0</ele>
        <time>2022-06-19T13:35:45.474Z</time>
      </trkpt>
      <trkpt lat="43.01611667" lon="-7.246115">
        <ele>721.0</ele>
        <time>2022-06-19T13:35:46.453Z</time>
      </trkpt>
      <trkpt lat="43.01611667" lon="-7.246115">
        <ele>721.0</ele>
        <time>2022-06-19T13:35:47.470Z</time>
      </trkpt>
      <trkpt lat="43.01600333" lon="-7.24607833">
        <ele>720.0</ele>
        <time>2022-06-19T13:35:48.493Z</time>
      </trkpt>
      <trkpt lat="43.01594667" lon="-7.246055">
        <ele>720.0</ele>
        <time>2022-06-19T13:35:49.487Z</time>
      </trkpt>
      <trkpt lat="43.01594667" lon="-7.246055">
        <ele>720.0</ele>
        <time>2022-06-19T13:35:50.463Z</time>
      </trkpt>
      <trkpt lat="43.01584333" lon="-7.24598667">
        <ele>720.0</ele>
        <time>2022-06-19T13:35:51.487Z</time>
      </trkpt>
      <trkpt lat="43.01584333" lon="-7.24598667">
        <ele>720.0</ele>
        <time>2022-06-19T13:35:52.469Z</time>
      </trkpt>
      <trkpt lat="43.01576" lon="-7.24589667">
        <ele>719.0</ele>
        <time>2022-06-19T13:35:53.460Z</time>
      </trkpt>
      <trkpt lat="43.01576" lon="-7.24589667">
        <ele>719.0</ele>
        <time>2022-06-19T13:35:54.471Z</time>
      </trkpt>
      <trkpt lat="43.01568667" lon="-7.24580833">
        <ele>719.0</ele>
        <time>2022-06-19T13:35:55.455Z</time>
      </trkpt>
      <trkpt lat="43.01568667" lon="-7.24580833">
        <ele>719.0</ele>
        <time>2022-06-19T13:35:56.471Z</time>
      </trkpt>
      <trkpt lat="43.015625" lon="-7.24578833">
        <ele>720.0</ele>
        <time>2022-06-19T13:35:57.450Z</time>
      </trkpt>
      <trkpt lat="43.015625" lon="-7.24578833">
        <ele>720.0</ele>
        <time>2022-06-19T13:35:58.469Z</time>
      </trkpt>
      <trkpt lat="43.01560167" lon="-7.2458">
        <ele>720.0</ele>
        <time>2022-06-19T13:35:59.496Z</time>
      </trkpt>
      <trkpt lat="43.01560167" lon="-7.2458">
        <ele>720.0</ele>
        <time>2022-06-19T13:36:00.482Z</time>
      </trkpt>
      <trkpt lat="43.01557833" lon="-7.245785">
        <ele>721.0</ele>
        <time>2022-06-19T13:36:01.473Z</time>
      </trkpt>
      <trkpt lat="43.01557833" lon="-7.245785">
        <ele>721.0</ele>
        <time>2022-06-19T13:36:02.471Z</time>
      </trkpt>
      <trkpt lat="43.01555167" lon="-7.24576833">
        <ele>722.0</ele>
        <time>2022-06-19T13:36:03.489Z</time>
      </trkpt>
      <trkpt lat="43.01555167" lon="-7.24576833">
        <ele>722.0</ele>
        <time>2022-06-19T13:36:04.455Z</time>
      </trkpt>
      <trkpt lat="43.01552667" lon="-7.24574667">
        <ele>723.0</ele>
        <time>2022-06-19T13:36:05.478Z</time>
      </trkpt>
      <trkpt lat="43.01552667" lon="-7.24574667">
        <ele>723.0</ele>
        <time>2022-06-19T13:36:06.484Z</time>
      </trkpt>
      <trkpt lat="43.01548833" lon="-7.24574167">
        <ele>724.0</ele>
        <time>2022-06-19T13:36:07.482Z</time>
      </trkpt>
      <trkpt lat="43.01548833" lon="-7.24574167">
        <ele>724.0</ele>
        <time>2022-06-19T13:36:08.476Z</time>
      </trkpt>
      <trkpt lat="43.01547833" lon="-7.24576667">
        <ele>724.0</ele>
        <time>2022-06-19T13:36:09.478Z</time>
      </trkpt>
      <trkpt lat="43.01547833" lon="-7.24576667">
        <ele>724.0</ele>
        <time>2022-06-19T13:36:10.468Z</time>
      </trkpt>
      <trkpt lat="43.015505" lon="-7.24578333">
        <ele>725.0</ele>
        <time>2022-06-19T13:36:11.475Z</time>
      </trkpt>
      <trkpt lat="43.015505" lon="-7.24578333">
        <ele>725.0</ele>
        <time>2022-06-19T13:36:12.462Z</time>
      </trkpt>
      <trkpt lat="43.01555333" lon="-7.245795">
        <ele>726.0</ele>
        <time>2022-06-19T13:36:13.484Z</time>
      </trkpt>
      <trkpt lat="43.01555333" lon="-7.245795">
        <ele>726.0</ele>
        <time>2022-06-19T13:36:14.469Z</time>
      </trkpt>
      <trkpt lat="43.01560167" lon="-7.245805">
        <ele>726.0</ele>
        <time>2022-06-19T13:36:15.487Z</time>
      </trkpt>
      <trkpt lat="43.01561333" lon="-7.245835">
        <ele>726.0</ele>
        <time>2022-06-19T13:36:16.483Z</time>
      </trkpt>
      <trkpt lat="43.01561333" lon="-7.245835">
        <ele>726.0</ele>
        <time>2022-06-19T13:36:17.476Z</time>
      </trkpt>
      <trkpt lat="43.01561167" lon="-7.24592667">
        <ele>725.0</ele>
        <time>2022-06-19T13:36:18.457Z</time>
      </trkpt>
      <trkpt lat="43.0156" lon="-7.24598333">
        <ele>725.0</ele>
        <time>2022-06-19T13:36:19.488Z</time>
      </trkpt>
      <trkpt lat="43.0156" lon="-7.24598333">
        <ele>725.0</ele>
        <time>2022-06-19T13:36:20.476Z</time>
      </trkpt>
      <trkpt lat="43.01556667" lon="-7.24611333">
        <ele>724.0</ele>
        <time>2022-06-19T13:36:21.473Z</time>
      </trkpt>
      <trkpt lat="43.01556667" lon="-7.24611333">
        <ele>724.0</ele>
        <time>2022-06-19T13:36:22.479Z</time>
      </trkpt>
      <trkpt lat="43.01554333" lon="-7.24626833">
        <ele>723.0</ele>
        <time>2022-06-19T13:36:23.456Z</time>
      </trkpt>
      <trkpt lat="43.01554333" lon="-7.24626833">
        <ele>723.0</ele>
        <time>2022-06-19T13:36:24.478Z</time>
      </trkpt>
      <trkpt lat="43.01559167" lon="-7.24642667">
        <ele>722.0</ele>
        <time>2022-06-19T13:36:25.469Z</time>
      </trkpt>
      <trkpt lat="43.01559167" lon="-7.24642667">
        <ele>722.0</ele>
        <time>2022-06-19T13:36:26.470Z</time>
      </trkpt>
      <trkpt lat="43.015675" lon="-7.24655167">
        <ele>721.0</ele>
        <time>2022-06-19T13:36:27.457Z</time>
      </trkpt>
      <trkpt lat="43.01571833" lon="-7.24661667">
        <ele>721.0</ele>
        <time>2022-06-19T13:36:28.466Z</time>
      </trkpt>
      <trkpt lat="43.01571833" lon="-7.24661667">
        <ele>721.0</ele>
        <time>2022-06-19T13:36:29.469Z</time>
      </trkpt>
      <trkpt lat="43.0158" lon="-7.246745">
        <ele>720.0</ele>
        <time>2022-06-19T13:36:30.489Z</time>
      </trkpt>
      <trkpt lat="43.0158" lon="-7.246745">
        <ele>720.0</ele>
        <time>2022-06-19T13:36:31.480Z</time>
      </trkpt>
      <trkpt lat="43.01588167" lon="-7.24688">
        <ele>719.0</ele>
        <time>2022-06-19T13:36:32.462Z</time>
      </trkpt>
      <trkpt lat="43.01588167" lon="-7.24688">
        <ele>719.0</ele>
        <time>2022-06-19T13:36:33.485Z</time>
      </trkpt>
      <trkpt lat="43.01596" lon="-7.24701333">
        <ele>719.0</ele>
        <time>2022-06-19T13:36:34.459Z</time>
      </trkpt>
      <trkpt lat="43.01596" lon="-7.24701333">
        <ele>719.0</ele>
        <time>2022-06-19T13:36:35.478Z</time>
      </trkpt>
      <trkpt lat="43.01603667" lon="-7.24714">
        <ele>718.0</ele>
        <time>2022-06-19T13:36:36.457Z</time>
      </trkpt>
      <trkpt lat="43.01606833" lon="-7.24719833">
        <ele>718.0</ele>
        <time>2022-06-19T13:36:37.470Z</time>
      </trkpt>
      <trkpt lat="43.01606833" lon="-7.24719833">
        <ele>718.0</ele>
        <time>2022-06-19T13:36:38.488Z</time>
      </trkpt>
      <trkpt lat="43.01611333" lon="-7.247305">
        <ele>717.0</ele>
        <time>2022-06-19T13:36:39.468Z</time>
      </trkpt>
      <trkpt lat="43.01611333" lon="-7.247305">
        <ele>717.0</ele>
        <time>2022-06-19T13:36:40.459Z</time>
      </trkpt>
      <trkpt lat="43.01614667" lon="-7.24741167">
        <ele>716.0</ele>
        <time>2022-06-19T13:36:41.479Z</time>
      </trkpt>
      <trkpt lat="43.01614667" lon="-7.24741167">
        <ele>716.0</ele>
        <time>2022-06-19T13:36:42.467Z</time>
      </trkpt>
      <trkpt lat="43.016175" lon="-7.24753667">
        <ele>715.0</ele>
        <time>2022-06-19T13:36:43.486Z</time>
      </trkpt>
      <trkpt lat="43.01619333" lon="-7.24759333">
        <ele>715.0</ele>
        <time>2022-06-19T13:36:44.470Z</time>
      </trkpt>
      <trkpt lat="43.016215" lon="-7.24764667">
        <ele>714.0</ele>
        <time>2022-06-19T13:36:45.488Z</time>
      </trkpt>
      <trkpt lat="43.016215" lon="-7.24764667">
        <ele>714.0</ele>
        <time>2022-06-19T13:36:46.470Z</time>
      </trkpt>
      <trkpt lat="43.01626833" lon="-7.24774167">
        <ele>714.0</ele>
        <time>2022-06-19T13:36:47.455Z</time>
      </trkpt>
      <trkpt lat="43.01626833" lon="-7.24774167">
        <ele>714.0</ele>
        <time>2022-06-19T13:36:48.455Z</time>
      </trkpt>
      <trkpt lat="43.01623" lon="-7.24783833">
        <ele>713.0</ele>
        <time>2022-06-19T13:36:49.465Z</time>
      </trkpt>
      <trkpt lat="43.01623" lon="-7.24783833">
        <ele>713.0</ele>
        <time>2022-06-19T13:36:50.478Z</time>
      </trkpt>
      <trkpt lat="43.01612" lon="-7.24787833">
        <ele>712.0</ele>
        <time>2022-06-19T13:36:51.460Z</time>
      </trkpt>
      <trkpt lat="43.01612" lon="-7.24787833">
        <ele>712.0</ele>
        <time>2022-06-19T13:36:52.468Z</time>
      </trkpt>
      <trkpt lat="43.015985" lon="-7.247935">
        <ele>711.0</ele>
        <time>2022-06-19T13:36:53.476Z</time>
      </trkpt>
      <trkpt lat="43.01590667" lon="-7.24797167">
        <ele>710.0</ele>
        <time>2022-06-19T13:36:54.487Z</time>
      </trkpt>
      <trkpt lat="43.01590667" lon="-7.24797167">
        <ele>710.0</ele>
        <time>2022-06-19T13:36:55.465Z</time>
      </trkpt>
      <trkpt lat="43.01574167" lon="-7.24809333">
        <ele>709.0</ele>
        <time>2022-06-19T13:36:56.456Z</time>
      </trkpt>
      <trkpt lat="43.01574167" lon="-7.24809333">
        <ele>709.0</ele>
        <time>2022-06-19T13:36:57.488Z</time>
      </trkpt>
      <trkpt lat="43.01560333" lon="-7.24828333">
        <ele>707.0</ele>
        <time>2022-06-19T13:36:58.487Z</time>
      </trkpt>
      <trkpt lat="43.01560333" lon="-7.24828333">
        <ele>707.0</ele>
        <time>2022-06-19T13:36:59.455Z</time>
      </trkpt>
      <trkpt lat="43.01550333" lon="-7.24849667">
        <ele>706.0</ele>
        <time>2022-06-19T13:37:00.480Z</time>
      </trkpt>
      <trkpt lat="43.01550333" lon="-7.24849667">
        <ele>706.0</ele>
        <time>2022-06-19T13:37:01.471Z</time>
      </trkpt>
      <trkpt lat="43.0154" lon="-7.24867833">
        <ele>706.0</ele>
        <time>2022-06-19T13:37:02.454Z</time>
      </trkpt>
      <trkpt lat="43.0154" lon="-7.24867833">
        <ele>706.0</ele>
        <time>2022-06-19T13:37:03.463Z</time>
      </trkpt>
      <trkpt lat="43.01528167" lon="-7.24882">
        <ele>705.0</ele>
        <time>2022-06-19T13:37:04.477Z</time>
      </trkpt>
      <trkpt lat="43.01523" lon="-7.24888167">
        <ele>705.0</ele>
        <time>2022-06-19T13:37:05.481Z</time>
      </trkpt>
      <trkpt lat="43.01523" lon="-7.24888167">
        <ele>705.0</ele>
        <time>2022-06-19T13:37:06.469Z</time>
      </trkpt>
      <trkpt lat="43.01512667" lon="-7.24899">
        <ele>704.0</ele>
        <time>2022-06-19T13:37:07.488Z</time>
      </trkpt>
      <trkpt lat="43.01512667" lon="-7.24899">
        <ele>704.0</ele>
        <time>2022-06-19T13:37:08.479Z</time>
      </trkpt>
      <trkpt lat="43.015035" lon="-7.24910333">
        <ele>704.0</ele>
        <time>2022-06-19T13:37:09.483Z</time>
      </trkpt>
      <trkpt lat="43.01499167" lon="-7.249165">
        <ele>703.0</ele>
        <time>2022-06-19T13:37:10.483Z</time>
      </trkpt>
      <trkpt lat="43.01499167" lon="-7.249165">
        <ele>703.0</ele>
        <time>2022-06-19T13:37:11.477Z</time>
      </trkpt>
      <trkpt lat="43.01490167" lon="-7.2493">
        <ele>703.0</ele>
        <time>2022-06-19T13:37:12.481Z</time>
      </trkpt>
      <trkpt lat="43.01490167" lon="-7.2493">
        <ele>703.0</ele>
        <time>2022-06-19T13:37:13.487Z</time>
      </trkpt>
      <trkpt lat="43.01481" lon="-7.24945333">
        <ele>703.0</ele>
        <time>2022-06-19T13:37:14.482Z</time>
      </trkpt>
      <trkpt lat="43.01481" lon="-7.24945333">
        <ele>703.0</ele>
        <time>2022-06-19T13:37:15.486Z</time>
      </trkpt>
      <trkpt lat="43.01474833" lon="-7.24963">
        <ele>702.0</ele>
        <time>2022-06-19T13:37:16.466Z</time>
      </trkpt>
      <trkpt lat="43.01474833" lon="-7.24963">
        <ele>702.0</ele>
        <time>2022-06-19T13:37:17.489Z</time>
      </trkpt>
      <trkpt lat="43.01471" lon="-7.24982">
        <ele>702.0</ele>
        <time>2022-06-19T13:37:18.472Z</time>
      </trkpt>
      <trkpt lat="43.01469333" lon="-7.24991667">
        <ele>703.0</ele>
        <time>2022-06-19T13:37:19.477Z</time>
      </trkpt>
      <trkpt lat="43.01469333" lon="-7.24991667">
        <ele>703.0</ele>
        <time>2022-06-19T13:37:20.452Z</time>
      </trkpt>
      <trkpt lat="43.01465" lon="-7.25009">
        <ele>703.0</ele>
        <time>2022-06-19T13:37:21.480Z</time>
      </trkpt>
      <trkpt lat="43.01465" lon="-7.25009">
        <ele>703.0</ele>
        <time>2022-06-19T13:37:22.471Z</time>
      </trkpt>
      <trkpt lat="43.01459" lon="-7.25024667">
        <ele>704.0</ele>
        <time>2022-06-19T13:37:23.477Z</time>
      </trkpt>
      <trkpt lat="43.01459" lon="-7.25024667">
        <ele>704.0</ele>
        <time>2022-06-19T13:37:24.453Z</time>
      </trkpt>
      <trkpt lat="43.01452333" lon="-7.25036">
        <ele>705.0</ele>
        <time>2022-06-19T13:37:25.469Z</time>
      </trkpt>
      <trkpt lat="43.01452333" lon="-7.25036">
        <ele>705.0</ele>
        <time>2022-06-19T13:37:26.455Z</time>
      </trkpt>
      <trkpt lat="43.01446" lon="-7.25046333">
        <ele>705.0</ele>
        <time>2022-06-19T13:37:27.459Z</time>
      </trkpt>
      <trkpt lat="43.01443333" lon="-7.25050667">
        <ele>706.0</ele>
        <time>2022-06-19T13:37:28.489Z</time>
      </trkpt>
      <trkpt lat="43.01443333" lon="-7.25050667">
        <ele>706.0</ele>
        <time>2022-06-19T13:37:29.474Z</time>
      </trkpt>
      <trkpt lat="43.01438833" lon="-7.25058">
        <ele>707.0</ele>
        <time>2022-06-19T13:37:30.457Z</time>
      </trkpt>
      <trkpt lat="43.01438833" lon="-7.25058">
        <ele>707.0</ele>
        <time>2022-06-19T13:37:31.476Z</time>
      </trkpt>
      <trkpt lat="43.01434833" lon="-7.25064167">
        <ele>708.0</ele>
        <time>2022-06-19T13:37:32.452Z</time>
      </trkpt>
      <trkpt lat="43.01434833" lon="-7.25064167">
        <ele>708.0</ele>
        <time>2022-06-19T13:37:33.489Z</time>
      </trkpt>
      <trkpt lat="43.014315" lon="-7.25068667">
        <ele>708.0</ele>
        <time>2022-06-19T13:37:34.477Z</time>
      </trkpt>
      <trkpt lat="43.014315" lon="-7.25068667">
        <ele>708.0</ele>
        <time>2022-06-19T13:37:35.470Z</time>
      </trkpt>
      <trkpt lat="43.01428333" lon="-7.25072833">
        <ele>709.0</ele>
        <time>2022-06-19T13:37:36.491Z</time>
      </trkpt>
      <trkpt lat="43.01426833" lon="-7.25075167">
        <ele>709.0</ele>
        <time>2022-06-19T13:37:37.463Z</time>
      </trkpt>
      <trkpt lat="43.01426833" lon="-7.25075167">
        <ele>709.0</ele>
        <time>2022-06-19T13:37:38.469Z</time>
      </trkpt>
      <trkpt lat="43.01423333" lon="-7.250795">
        <ele>710.0</ele>
        <time>2022-06-19T13:37:39.459Z</time>
      </trkpt>
      <trkpt lat="43.01423333" lon="-7.250795">
        <ele>710.0</ele>
        <time>2022-06-19T13:37:40.456Z</time>
      </trkpt>
      <trkpt lat="43.01419833" lon="-7.25083833">
        <ele>711.0</ele>
        <time>2022-06-19T13:37:41.457Z</time>
      </trkpt>
      <trkpt lat="43.01419833" lon="-7.25083833">
        <ele>711.0</ele>
        <time>2022-06-19T13:37:42.460Z</time>
      </trkpt>
      <trkpt lat="43.01416833" lon="-7.25087333">
        <ele>711.0</ele>
        <time>2022-06-19T13:37:43.485Z</time>
      </trkpt>
      <trkpt lat="43.01415167" lon="-7.25089167">
        <ele>712.0</ele>
        <time>2022-06-19T13:37:44.482Z</time>
      </trkpt>
      <trkpt lat="43.01415167" lon="-7.25089167">
        <ele>712.0</ele>
        <time>2022-06-19T13:37:45.452Z</time>
      </trkpt>
      <trkpt lat="43.01411667" lon="-7.25094">
        <ele>712.0</ele>
        <time>2022-06-19T13:37:46.469Z</time>
      </trkpt>
      <trkpt lat="43.0141" lon="-7.25096333">
        <ele>712.0</ele>
        <time>2022-06-19T13:37:47.468Z</time>
      </trkpt>
      <trkpt lat="43.0141" lon="-7.25096333">
        <ele>712.0</ele>
        <time>2022-06-19T13:37:48.468Z</time>
      </trkpt>
      <trkpt lat="43.01407" lon="-7.25101">
        <ele>712.0</ele>
        <time>2022-06-19T13:37:49.485Z</time>
      </trkpt>
      <trkpt lat="43.01407" lon="-7.25101">
        <ele>712.0</ele>
        <time>2022-06-19T13:37:50.472Z</time>
      </trkpt>
      <trkpt lat="43.01403" lon="-7.25104167">
        <ele>712.0</ele>
        <time>2022-06-19T13:37:51.466Z</time>
      </trkpt>
      <trkpt lat="43.01403" lon="-7.25104167">
        <ele>712.0</ele>
        <time>2022-06-19T13:37:52.468Z</time>
      </trkpt>
      <trkpt lat="43.01401" lon="-7.2511">
        <ele>712.0</ele>
        <time>2022-06-19T13:37:53.450Z</time>
      </trkpt>
      <trkpt lat="43.01401" lon="-7.2511">
        <ele>712.0</ele>
        <time>2022-06-19T13:37:54.489Z</time>
      </trkpt>
      <trkpt lat="43.01399833" lon="-7.251155">
        <ele>712.0</ele>
        <time>2022-06-19T13:37:55.469Z</time>
      </trkpt>
      <trkpt lat="43.01399833" lon="-7.251155">
        <ele>712.0</ele>
        <time>2022-06-19T13:37:56.485Z</time>
      </trkpt>
      <trkpt lat="43.01398167" lon="-7.25117833">
        <ele>713.0</ele>
        <time>2022-06-19T13:37:57.461Z</time>
      </trkpt>
      <trkpt lat="43.01397167" lon="-7.25120833">
        <ele>713.0</ele>
        <time>2022-06-19T13:37:58.476Z</time>
      </trkpt>
      <trkpt lat="43.01397167" lon="-7.25120833">
        <ele>713.0</ele>
        <time>2022-06-19T13:37:59.468Z</time>
      </trkpt>
      <trkpt lat="43.01395" lon="-7.25126833">
        <ele>713.0</ele>
        <time>2022-06-19T13:38:00.488Z</time>
      </trkpt>
      <trkpt lat="43.01393333" lon="-7.25129833">
        <ele>714.0</ele>
        <time>2022-06-19T13:38:01.480Z</time>
      </trkpt>
      <trkpt lat="43.01393333" lon="-7.25129833">
        <ele>714.0</ele>
        <time>2022-06-19T13:38:02.464Z</time>
      </trkpt>
      <trkpt lat="43.01391167" lon="-7.25135">
        <ele>714.0</ele>
        <time>2022-06-19T13:38:03.477Z</time>
      </trkpt>
      <trkpt lat="43.01391167" lon="-7.25135">
        <ele>714.0</ele>
        <time>2022-06-19T13:38:04.488Z</time>
      </trkpt>
      <trkpt lat="43.01389" lon="-7.251415">
        <ele>714.0</ele>
        <time>2022-06-19T13:38:05.490Z</time>
      </trkpt>
      <trkpt lat="43.01389" lon="-7.251415">
        <ele>714.0</ele>
        <time>2022-06-19T13:38:06.466Z</time>
      </trkpt>
      <trkpt lat="43.01386167" lon="-7.25148">
        <ele>715.0</ele>
        <time>2022-06-19T13:38:07.461Z</time>
      </trkpt>
      <trkpt lat="43.01385" lon="-7.25151333">
        <ele>715.0</ele>
        <time>2022-06-19T13:38:08.458Z</time>
      </trkpt>
      <trkpt lat="43.01385" lon="-7.25151333">
        <ele>715.0</ele>
        <time>2022-06-19T13:38:09.470Z</time>
      </trkpt>
      <trkpt lat="43.013825" lon="-7.25157667">
        <ele>716.0</ele>
        <time>2022-06-19T13:38:10.471Z</time>
      </trkpt>
      <trkpt lat="43.01381" lon="-7.25160833">
        <ele>716.0</ele>
        <time>2022-06-19T13:38:11.471Z</time>
      </trkpt>
      <trkpt lat="43.01381" lon="-7.25160833">
        <ele>716.0</ele>
        <time>2022-06-19T13:38:12.483Z</time>
      </trkpt>
      <trkpt lat="43.01378333" lon="-7.25166833">
        <ele>716.0</ele>
        <time>2022-06-19T13:38:13.467Z</time>
      </trkpt>
      <trkpt lat="43.01378333" lon="-7.25166833">
        <ele>716.0</ele>
        <time>2022-06-19T13:38:14.472Z</time>
      </trkpt>
      <trkpt lat="43.01375833" lon="-7.25173">
        <ele>717.0</ele>
        <time>2022-06-19T13:38:15.463Z</time>
      </trkpt>
      <trkpt lat="43.01374833" lon="-7.25176167">
        <ele>717.0</ele>
        <time>2022-06-19T13:38:16.466Z</time>
      </trkpt>
      <trkpt lat="43.013735" lon="-7.251795">
        <ele>717.0</ele>
        <time>2022-06-19T13:38:17.457Z</time>
      </trkpt>
      <trkpt lat="43.013735" lon="-7.251795">
        <ele>717.0</ele>
        <time>2022-06-19T13:38:18.478Z</time>
      </trkpt>
      <trkpt lat="43.01371167" lon="-7.251865">
        <ele>717.0</ele>
        <time>2022-06-19T13:38:19.469Z</time>
      </trkpt>
      <trkpt lat="43.01371167" lon="-7.251865">
        <ele>717.0</ele>
        <time>2022-06-19T13:38:20.469Z</time>
      </trkpt>
      <trkpt lat="43.01368667" lon="-7.25193667">
        <ele>717.0</ele>
        <time>2022-06-19T13:38:21.457Z</time>
      </trkpt>
      <trkpt lat="43.01368667" lon="-7.25193667">
        <ele>717.0</ele>
        <time>2022-06-19T13:38:22.456Z</time>
      </trkpt>
      <trkpt lat="43.01366" lon="-7.25201167">
        <ele>717.0</ele>
        <time>2022-06-19T13:38:23.497Z</time>
      </trkpt>
      <trkpt lat="43.01366" lon="-7.25201167">
        <ele>717.0</ele>
        <time>2022-06-19T13:38:24.470Z</time>
      </trkpt>
      <trkpt lat="43.013625" lon="-7.25208667">
        <ele>717.0</ele>
        <time>2022-06-19T13:38:25.494Z</time>
      </trkpt>
      <trkpt lat="43.013625" lon="-7.25208667">
        <ele>717.0</ele>
        <time>2022-06-19T13:38:26.478Z</time>
      </trkpt>
      <trkpt lat="43.01359333" lon="-7.25216167">
        <ele>718.0</ele>
        <time>2022-06-19T13:38:27.460Z</time>
      </trkpt>
      <trkpt lat="43.01359333" lon="-7.25216167">
        <ele>718.0</ele>
        <time>2022-06-19T13:38:28.451Z</time>
      </trkpt>
      <trkpt lat="43.01357" lon="-7.25223667">
        <ele>718.0</ele>
        <time>2022-06-19T13:38:29.480Z</time>
      </trkpt>
      <trkpt lat="43.01357" lon="-7.25223667">
        <ele>718.0</ele>
        <time>2022-06-19T13:38:30.475Z</time>
      </trkpt>
      <trkpt lat="43.01354833" lon="-7.25231167">
        <ele>718.0</ele>
        <time>2022-06-19T13:38:31.453Z</time>
      </trkpt>
      <trkpt lat="43.01354833" lon="-7.25231167">
        <ele>718.0</ele>
        <time>2022-06-19T13:38:32.456Z</time>
      </trkpt>
      <trkpt lat="43.01352667" lon="-7.252385">
        <ele>718.0</ele>
        <time>2022-06-19T13:38:33.472Z</time>
      </trkpt>
      <trkpt lat="43.01352667" lon="-7.252385">
        <ele>718.0</ele>
        <time>2022-06-19T13:38:34.479Z</time>
      </trkpt>
      <trkpt lat="43.01350167" lon="-7.25246167">
        <ele>718.0</ele>
        <time>2022-06-19T13:38:35.453Z</time>
      </trkpt>
      <trkpt lat="43.01350167" lon="-7.25246167">
        <ele>718.0</ele>
        <time>2022-06-19T13:38:36.485Z</time>
      </trkpt>
      <trkpt lat="43.013475" lon="-7.25253833">
        <ele>718.0</ele>
        <time>2022-06-19T13:38:37.471Z</time>
      </trkpt>
      <trkpt lat="43.013475" lon="-7.25253833">
        <ele>718.0</ele>
        <time>2022-06-19T13:38:38.470Z</time>
      </trkpt>
      <trkpt lat="43.01345" lon="-7.25261667">
        <ele>718.0</ele>
        <time>2022-06-19T13:38:39.487Z</time>
      </trkpt>
      <trkpt lat="43.01343833" lon="-7.252655">
        <ele>718.0</ele>
        <time>2022-06-19T13:38:40.450Z</time>
      </trkpt>
      <trkpt lat="43.01343833" lon="-7.252655">
        <ele>718.0</ele>
        <time>2022-06-19T13:38:41.459Z</time>
      </trkpt>
      <trkpt lat="43.01341333" lon="-7.25273333">
        <ele>718.0</ele>
        <time>2022-06-19T13:38:42.475Z</time>
      </trkpt>
      <trkpt lat="43.01339833" lon="-7.25277">
        <ele>718.0</ele>
        <time>2022-06-19T13:38:43.468Z</time>
      </trkpt>
      <trkpt lat="43.01339833" lon="-7.25277">
        <ele>718.0</ele>
        <time>2022-06-19T13:38:44.469Z</time>
      </trkpt>
      <trkpt lat="43.01336667" lon="-7.25284333">
        <ele>718.0</ele>
        <time>2022-06-19T13:38:45.456Z</time>
      </trkpt>
      <trkpt lat="43.01336667" lon="-7.25284333">
        <ele>718.0</ele>
        <time>2022-06-19T13:38:46.485Z</time>
      </trkpt>
      <trkpt lat="43.01333" lon="-7.252915">
        <ele>718.0</ele>
        <time>2022-06-19T13:38:47.466Z</time>
      </trkpt>
      <trkpt lat="43.01331167" lon="-7.25295">
        <ele>718.0</ele>
        <time>2022-06-19T13:38:48.477Z</time>
      </trkpt>
      <trkpt lat="43.01329167" lon="-7.25298333">
        <ele>718.0</ele>
        <time>2022-06-19T13:38:49.468Z</time>
      </trkpt>
      <trkpt lat="43.01329167" lon="-7.25298333">
        <ele>718.0</ele>
        <time>2022-06-19T13:38:50.455Z</time>
      </trkpt>
      <trkpt lat="43.01325667" lon="-7.25305">
        <ele>719.0</ele>
        <time>2022-06-19T13:38:51.459Z</time>
      </trkpt>
      <trkpt lat="43.01325667" lon="-7.25305">
        <ele>719.0</ele>
        <time>2022-06-19T13:38:52.468Z</time>
      </trkpt>
      <trkpt lat="43.01322167" lon="-7.25311333">
        <ele>719.0</ele>
        <time>2022-06-19T13:38:53.476Z</time>
      </trkpt>
      <trkpt lat="43.01322167" lon="-7.25311333">
        <ele>719.0</ele>
        <time>2022-06-19T13:38:54.480Z</time>
      </trkpt>
      <trkpt lat="43.01318333" lon="-7.253185">
        <ele>719.0</ele>
        <time>2022-06-19T13:38:55.467Z</time>
      </trkpt>
      <trkpt lat="43.01318333" lon="-7.253185">
        <ele>719.0</ele>
        <time>2022-06-19T13:38:56.479Z</time>
      </trkpt>
      <trkpt lat="43.01314333" lon="-7.25325333">
        <ele>719.0</ele>
        <time>2022-06-19T13:38:57.450Z</time>
      </trkpt>
      <trkpt lat="43.01314333" lon="-7.25325333">
        <ele>719.0</ele>
        <time>2022-06-19T13:38:58.470Z</time>
      </trkpt>
      <trkpt lat="43.0131" lon="-7.25332667">
        <ele>719.0</ele>
        <time>2022-06-19T13:38:59.456Z</time>
      </trkpt>
      <trkpt lat="43.0131" lon="-7.25332667">
        <ele>719.0</ele>
        <time>2022-06-19T13:39:00.477Z</time>
      </trkpt>
      <trkpt lat="43.01306167" lon="-7.253405">
        <ele>719.0</ele>
        <time>2022-06-19T13:39:01.454Z</time>
      </trkpt>
      <trkpt lat="43.01306167" lon="-7.253405">
        <ele>719.0</ele>
        <time>2022-06-19T13:39:02.479Z</time>
      </trkpt>
      <trkpt lat="43.01302" lon="-7.25347667">
        <ele>720.0</ele>
        <time>2022-06-19T13:39:03.462Z</time>
      </trkpt>
      <trkpt lat="43.01300167" lon="-7.25351167">
        <ele>720.0</ele>
        <time>2022-06-19T13:39:04.484Z</time>
      </trkpt>
      <trkpt lat="43.01300167" lon="-7.25351167">
        <ele>720.0</ele>
        <time>2022-06-19T13:39:05.472Z</time>
      </trkpt>
      <trkpt lat="43.01296167" lon="-7.25358">
        <ele>720.0</ele>
        <time>2022-06-19T13:39:06.462Z</time>
      </trkpt>
      <trkpt lat="43.01294333" lon="-7.25360667">
        <ele>720.0</ele>
        <time>2022-06-19T13:39:07.467Z</time>
      </trkpt>
      <trkpt lat="43.01294333" lon="-7.25360667">
        <ele>720.0</ele>
        <time>2022-06-19T13:39:08.470Z</time>
      </trkpt>
      <trkpt lat="43.01291333" lon="-7.25366">
        <ele>721.0</ele>
        <time>2022-06-19T13:39:09.482Z</time>
      </trkpt>
      <trkpt lat="43.01291333" lon="-7.25366">
        <ele>721.0</ele>
        <time>2022-06-19T13:39:10.474Z</time>
      </trkpt>
      <trkpt lat="43.01288667" lon="-7.253705">
        <ele>721.0</ele>
        <time>2022-06-19T13:39:11.473Z</time>
      </trkpt>
      <trkpt lat="43.01288667" lon="-7.253705">
        <ele>721.0</ele>
        <time>2022-06-19T13:39:12.482Z</time>
      </trkpt>
      <trkpt lat="43.01285667" lon="-7.253745">
        <ele>721.0</ele>
        <time>2022-06-19T13:39:13.492Z</time>
      </trkpt>
      <trkpt lat="43.01285667" lon="-7.253745">
        <ele>721.0</ele>
        <time>2022-06-19T13:39:14.471Z</time>
      </trkpt>
      <trkpt lat="43.01283" lon="-7.25378333">
        <ele>722.0</ele>
        <time>2022-06-19T13:39:15.452Z</time>
      </trkpt>
      <trkpt lat="43.01283" lon="-7.25378333">
        <ele>722.0</ele>
        <time>2022-06-19T13:39:16.486Z</time>
      </trkpt>
      <trkpt lat="43.01280333" lon="-7.25382167">
        <ele>722.0</ele>
        <time>2022-06-19T13:39:17.477Z</time>
      </trkpt>
      <trkpt lat="43.01280333" lon="-7.25382167">
        <ele>722.0</ele>
        <time>2022-06-19T13:39:18.458Z</time>
      </trkpt>
      <trkpt lat="43.01278" lon="-7.25386">
        <ele>723.0</ele>
        <time>2022-06-19T13:39:19.492Z</time>
      </trkpt>
      <trkpt lat="43.01278" lon="-7.25386">
        <ele>723.0</ele>
        <time>2022-06-19T13:39:20.479Z</time>
      </trkpt>
      <trkpt lat="43.01276" lon="-7.25389833">
        <ele>723.0</ele>
        <time>2022-06-19T13:39:21.463Z</time>
      </trkpt>
      <trkpt lat="43.01276" lon="-7.25389833">
        <ele>723.0</ele>
        <time>2022-06-19T13:39:22.470Z</time>
      </trkpt>
      <trkpt lat="43.01274" lon="-7.25394">
        <ele>723.0</ele>
        <time>2022-06-19T13:39:23.456Z</time>
      </trkpt>
      <trkpt lat="43.01274" lon="-7.25394">
        <ele>723.0</ele>
        <time>2022-06-19T13:39:24.480Z</time>
      </trkpt>
      <trkpt lat="43.012725" lon="-7.25398">
        <ele>724.0</ele>
        <time>2022-06-19T13:39:25.467Z</time>
      </trkpt>
      <trkpt lat="43.01271833" lon="-7.25400333">
        <ele>724.0</ele>
        <time>2022-06-19T13:39:26.468Z</time>
      </trkpt>
      <trkpt lat="43.01271833" lon="-7.25400333">
        <ele>724.0</ele>
        <time>2022-06-19T13:39:27.489Z</time>
      </trkpt>
      <trkpt lat="43.012705" lon="-7.25404333">
        <ele>725.0</ele>
        <time>2022-06-19T13:39:28.458Z</time>
      </trkpt>
      <trkpt lat="43.012695" lon="-7.25406167">
        <ele>725.0</ele>
        <time>2022-06-19T13:39:29.486Z</time>
      </trkpt>
      <trkpt lat="43.012695" lon="-7.25406167">
        <ele>725.0</ele>
        <time>2022-06-19T13:39:30.469Z</time>
      </trkpt>
      <trkpt lat="43.01267667" lon="-7.25409667">
        <ele>725.0</ele>
        <time>2022-06-19T13:39:31.491Z</time>
      </trkpt>
      <trkpt lat="43.01267667" lon="-7.25409667">
        <ele>725.0</ele>
        <time>2022-06-19T13:39:32.468Z</time>
      </trkpt>
      <trkpt lat="43.012655" lon="-7.25413333">
        <ele>726.0</ele>
        <time>2022-06-19T13:39:33.456Z</time>
      </trkpt>
      <trkpt lat="43.012645" lon="-7.25415167">
        <ele>726.0</ele>
        <time>2022-06-19T13:39:34.458Z</time>
      </trkpt>
      <trkpt lat="43.012645" lon="-7.25415167">
        <ele>726.0</ele>
        <time>2022-06-19T13:39:35.488Z</time>
      </trkpt>
      <trkpt lat="43.01262833" lon="-7.25419167">
        <ele>726.0</ele>
        <time>2022-06-19T13:39:36.477Z</time>
      </trkpt>
      <trkpt lat="43.01262" lon="-7.25421167">
        <ele>726.0</ele>
        <time>2022-06-19T13:39:37.467Z</time>
      </trkpt>
      <trkpt lat="43.01262" lon="-7.25421167">
        <ele>726.0</ele>
        <time>2022-06-19T13:39:38.488Z</time>
      </trkpt>
      <trkpt lat="43.0126" lon="-7.254255">
        <ele>726.0</ele>
        <time>2022-06-19T13:39:39.470Z</time>
      </trkpt>
      <trkpt lat="43.0126" lon="-7.254255">
        <ele>726.0</ele>
        <time>2022-06-19T13:39:40.472Z</time>
      </trkpt>
      <trkpt lat="43.01258167" lon="-7.25429667">
        <ele>726.0</ele>
        <time>2022-06-19T13:39:41.454Z</time>
      </trkpt>
      <trkpt lat="43.01258167" lon="-7.25429667">
        <ele>726.0</ele>
        <time>2022-06-19T13:39:42.468Z</time>
      </trkpt>
      <trkpt lat="43.01256167" lon="-7.254335">
        <ele>727.0</ele>
        <time>2022-06-19T13:39:43.451Z</time>
      </trkpt>
      <trkpt lat="43.01256167" lon="-7.254335">
        <ele>727.0</ele>
        <time>2022-06-19T13:39:44.484Z</time>
      </trkpt>
      <trkpt lat="43.01254167" lon="-7.25437167">
        <ele>727.0</ele>
        <time>2022-06-19T13:39:45.478Z</time>
      </trkpt>
      <trkpt lat="43.01253167" lon="-7.25439">
        <ele>728.0</ele>
        <time>2022-06-19T13:39:46.467Z</time>
      </trkpt>
      <trkpt lat="43.01253167" lon="-7.25439">
        <ele>728.0</ele>
        <time>2022-06-19T13:39:47.468Z</time>
      </trkpt>
      <trkpt lat="43.01251" lon="-7.25442667">
        <ele>728.0</ele>
        <time>2022-06-19T13:39:48.457Z</time>
      </trkpt>
      <trkpt lat="43.0125" lon="-7.254445">
        <ele>728.0</ele>
        <time>2022-06-19T13:39:49.486Z</time>
      </trkpt>
      <trkpt lat="43.0125" lon="-7.254445">
        <ele>728.0</ele>
        <time>2022-06-19T13:39:50.459Z</time>
      </trkpt>
      <trkpt lat="43.01248167" lon="-7.254485">
        <ele>729.0</ele>
        <time>2022-06-19T13:39:51.482Z</time>
      </trkpt>
      <trkpt lat="43.01248167" lon="-7.254485">
        <ele>729.0</ele>
        <time>2022-06-19T13:39:52.469Z</time>
      </trkpt>
      <trkpt lat="43.01246667" lon="-7.25452167">
        <ele>729.0</ele>
        <time>2022-06-19T13:39:53.484Z</time>
      </trkpt>
      <trkpt lat="43.01246" lon="-7.25453833">
        <ele>730.0</ele>
        <time>2022-06-19T13:39:54.469Z</time>
      </trkpt>
      <trkpt lat="43.01245167" lon="-7.25455667">
        <ele>730.0</ele>
        <time>2022-06-19T13:39:55.452Z</time>
      </trkpt>
      <trkpt lat="43.01245167" lon="-7.25455667">
        <ele>730.0</ele>
        <time>2022-06-19T13:39:56.477Z</time>
      </trkpt>
      <trkpt lat="43.01243667" lon="-7.25459333">
        <ele>730.0</ele>
        <time>2022-06-19T13:39:57.463Z</time>
      </trkpt>
      <trkpt lat="43.01243667" lon="-7.25459333">
        <ele>730.0</ele>
        <time>2022-06-19T13:39:58.489Z</time>
      </trkpt>
      <trkpt lat="43.01241833" lon="-7.25463">
        <ele>731.0</ele>
        <time>2022-06-19T13:39:59.468Z</time>
      </trkpt>
      <trkpt lat="43.01241833" lon="-7.25463">
        <ele>731.0</ele>
        <time>2022-06-19T13:40:00.482Z</time>
      </trkpt>
      <trkpt lat="43.01241" lon="-7.254675">
        <ele>731.0</ele>
        <time>2022-06-19T13:40:01.479Z</time>
      </trkpt>
      <trkpt lat="43.01241" lon="-7.254675">
        <ele>731.0</ele>
        <time>2022-06-19T13:40:02.452Z</time>
      </trkpt>
      <trkpt lat="43.01240167" lon="-7.25471833">
        <ele>732.0</ele>
        <time>2022-06-19T13:40:03.472Z</time>
      </trkpt>
      <trkpt lat="43.01240167" lon="-7.25474">
        <ele>732.0</ele>
        <time>2022-06-19T13:40:04.474Z</time>
      </trkpt>
      <trkpt lat="43.01240167" lon="-7.25476">
        <ele>732.0</ele>
        <time>2022-06-19T13:40:05.495Z</time>
      </trkpt>
      <trkpt lat="43.01240167" lon="-7.25476">
        <ele>732.0</ele>
        <time>2022-06-19T13:40:06.481Z</time>
      </trkpt>
      <trkpt lat="43.01239667" lon="-7.254805">
        <ele>732.0</ele>
        <time>2022-06-19T13:40:07.472Z</time>
      </trkpt>
      <trkpt lat="43.012395" lon="-7.25482333">
        <ele>733.0</ele>
        <time>2022-06-19T13:40:08.465Z</time>
      </trkpt>
      <trkpt lat="43.012395" lon="-7.25482333">
        <ele>733.0</ele>
        <time>2022-06-19T13:40:09.461Z</time>
      </trkpt>
      <trkpt lat="43.01239833" lon="-7.25486833">
        <ele>733.0</ele>
        <time>2022-06-19T13:40:10.451Z</time>
      </trkpt>
      <trkpt lat="43.01239833" lon="-7.25486833">
        <ele>733.0</ele>
        <time>2022-06-19T13:40:11.470Z</time>
      </trkpt>
      <trkpt lat="43.01240167" lon="-7.25491">
        <ele>733.0</ele>
        <time>2022-06-19T13:40:12.457Z</time>
      </trkpt>
      <trkpt lat="43.012405" lon="-7.25493167">
        <ele>734.0</ele>
        <time>2022-06-19T13:40:13.466Z</time>
      </trkpt>
      <trkpt lat="43.012405" lon="-7.25493167">
        <ele>734.0</ele>
        <time>2022-06-19T13:40:14.479Z</time>
      </trkpt>
      <trkpt lat="43.01241667" lon="-7.25497">
        <ele>734.0</ele>
        <time>2022-06-19T13:40:15.485Z</time>
      </trkpt>
      <trkpt lat="43.01242333" lon="-7.25499">
        <ele>734.0</ele>
        <time>2022-06-19T13:40:16.458Z</time>
      </trkpt>
      <trkpt lat="43.01242333" lon="-7.25499">
        <ele>734.0</ele>
        <time>2022-06-19T13:40:17.458Z</time>
      </trkpt>
      <trkpt lat="43.01244" lon="-7.25503333">
        <ele>735.0</ele>
        <time>2022-06-19T13:40:18.461Z</time>
      </trkpt>
      <trkpt lat="43.01244" lon="-7.25503333">
        <ele>735.0</ele>
        <time>2022-06-19T13:40:19.489Z</time>
      </trkpt>
      <trkpt lat="43.01245333" lon="-7.25507833">
        <ele>735.0</ele>
        <time>2022-06-19T13:40:20.470Z</time>
      </trkpt>
      <trkpt lat="43.01246167" lon="-7.2551">
        <ele>735.0</ele>
        <time>2022-06-19T13:40:21.482Z</time>
      </trkpt>
      <trkpt lat="43.01246167" lon="-7.2551">
        <ele>735.0</ele>
        <time>2022-06-19T13:40:22.474Z</time>
      </trkpt>
      <trkpt lat="43.01247833" lon="-7.255145">
        <ele>735.0</ele>
        <time>2022-06-19T13:40:23.457Z</time>
      </trkpt>
      <trkpt lat="43.01247833" lon="-7.255145">
        <ele>735.0</ele>
        <time>2022-06-19T13:40:24.489Z</time>
      </trkpt>
      <trkpt lat="43.01249333" lon="-7.25519">
        <ele>735.0</ele>
        <time>2022-06-19T13:40:25.475Z</time>
      </trkpt>
      <trkpt lat="43.01249333" lon="-7.25519">
        <ele>735.0</ele>
        <time>2022-06-19T13:40:26.470Z</time>
      </trkpt>
      <trkpt lat="43.01251333" lon="-7.25523333">
        <ele>736.0</ele>
        <time>2022-06-19T13:40:27.493Z</time>
      </trkpt>
      <trkpt lat="43.01251333" lon="-7.25523333">
        <ele>736.0</ele>
        <time>2022-06-19T13:40:28.479Z</time>
      </trkpt>
      <trkpt lat="43.01253167" lon="-7.25528">
        <ele>736.0</ele>
        <time>2022-06-19T13:40:29.455Z</time>
      </trkpt>
      <trkpt lat="43.01253167" lon="-7.25528">
        <ele>736.0</ele>
        <time>2022-06-19T13:40:30.459Z</time>
      </trkpt>
      <trkpt lat="43.01256333" lon="-7.25533167">
        <ele>736.0</ele>
        <time>2022-06-19T13:40:31.454Z</time>
      </trkpt>
      <trkpt lat="43.01256333" lon="-7.25533167">
        <ele>736.0</ele>
        <time>2022-06-19T13:40:32.486Z</time>
      </trkpt>
      <trkpt lat="43.012585" lon="-7.25538833">
        <ele>736.0</ele>
        <time>2022-06-19T13:40:33.468Z</time>
      </trkpt>
      <trkpt lat="43.012585" lon="-7.25538833">
        <ele>736.0</ele>
        <time>2022-06-19T13:40:34.462Z</time>
      </trkpt>
      <trkpt lat="43.0126" lon="-7.25545167">
        <ele>736.0</ele>
        <time>2022-06-19T13:40:35.453Z</time>
      </trkpt>
      <trkpt lat="43.012605" lon="-7.25548667">
        <ele>736.0</ele>
        <time>2022-06-19T13:40:36.471Z</time>
      </trkpt>
      <trkpt lat="43.01261" lon="-7.25552">
        <ele>736.0</ele>
        <time>2022-06-19T13:40:37.457Z</time>
      </trkpt>
      <trkpt lat="43.01261" lon="-7.25552">
        <ele>736.0</ele>
        <time>2022-06-19T13:40:38.475Z</time>
      </trkpt>
      <trkpt lat="43.01261167" lon="-7.25558833">
        <ele>737.0</ele>
        <time>2022-06-19T13:40:39.461Z</time>
      </trkpt>
      <trkpt lat="43.01261167" lon="-7.25558833">
        <ele>737.0</ele>
        <time>2022-06-19T13:40:40.454Z</time>
      </trkpt>
      <trkpt lat="43.01261667" lon="-7.25565667">
        <ele>737.0</ele>
        <time>2022-06-19T13:40:41.472Z</time>
      </trkpt>
      <trkpt lat="43.01261667" lon="-7.25565667">
        <ele>737.0</ele>
        <time>2022-06-19T13:40:42.489Z</time>
      </trkpt>
      <trkpt lat="43.01262" lon="-7.25572333">
        <ele>737.0</ele>
        <time>2022-06-19T13:40:43.470Z</time>
      </trkpt>
      <trkpt lat="43.01262" lon="-7.25575667">
        <ele>738.0</ele>
        <time>2022-06-19T13:40:44.466Z</time>
      </trkpt>
      <trkpt lat="43.01262" lon="-7.25575667">
        <ele>738.0</ele>
        <time>2022-06-19T13:40:45.479Z</time>
      </trkpt>
      <trkpt lat="43.01262167" lon="-7.25582333">
        <ele>738.0</ele>
        <time>2022-06-19T13:40:46.465Z</time>
      </trkpt>
      <trkpt lat="43.01262167" lon="-7.25582333">
        <ele>738.0</ele>
        <time>2022-06-19T13:40:47.454Z</time>
      </trkpt>
      <trkpt lat="43.01262167" lon="-7.25588833">
        <ele>739.0</ele>
        <time>2022-06-19T13:40:48.471Z</time>
      </trkpt>
      <trkpt lat="43.01262" lon="-7.25592167">
        <ele>739.0</ele>
        <time>2022-06-19T13:40:49.474Z</time>
      </trkpt>
      <trkpt lat="43.01262" lon="-7.25592167">
        <ele>739.0</ele>
        <time>2022-06-19T13:40:50.470Z</time>
      </trkpt>
      <trkpt lat="43.01261333" lon="-7.25598333">
        <ele>739.0</ele>
        <time>2022-06-19T13:40:51.458Z</time>
      </trkpt>
      <trkpt lat="43.01261333" lon="-7.25598333">
        <ele>739.0</ele>
        <time>2022-06-19T13:40:52.470Z</time>
      </trkpt>
      <trkpt lat="43.012605" lon="-7.25604667">
        <ele>739.0</ele>
        <time>2022-06-19T13:40:53.491Z</time>
      </trkpt>
      <trkpt lat="43.01260333" lon="-7.25607667">
        <ele>740.0</ele>
        <time>2022-06-19T13:40:54.466Z</time>
      </trkpt>
      <trkpt lat="43.01260333" lon="-7.25607667">
        <ele>740.0</ele>
        <time>2022-06-19T13:40:55.455Z</time>
      </trkpt>
      <trkpt lat="43.01259667" lon="-7.25613833">
        <ele>740.0</ele>
        <time>2022-06-19T13:40:56.489Z</time>
      </trkpt>
      <trkpt lat="43.01259667" lon="-7.25613833">
        <ele>740.0</ele>
        <time>2022-06-19T13:40:57.471Z</time>
      </trkpt>
      <trkpt lat="43.01258667" lon="-7.25620167">
        <ele>741.0</ele>
        <time>2022-06-19T13:40:58.491Z</time>
      </trkpt>
      <trkpt lat="43.01258667" lon="-7.25620167">
        <ele>741.0</ele>
        <time>2022-06-19T13:40:59.473Z</time>
      </trkpt>
      <trkpt lat="43.01257667" lon="-7.25626333">
        <ele>741.0</ele>
        <time>2022-06-19T13:41:00.466Z</time>
      </trkpt>
      <trkpt lat="43.01257667" lon="-7.25626333">
        <ele>741.0</ele>
        <time>2022-06-19T13:41:01.479Z</time>
      </trkpt>
      <trkpt lat="43.01255833" lon="-7.25632167">
        <ele>741.0</ele>
        <time>2022-06-19T13:41:02.466Z</time>
      </trkpt>
      <trkpt lat="43.01255833" lon="-7.25632167">
        <ele>741.0</ele>
        <time>2022-06-19T13:41:03.454Z</time>
      </trkpt>
      <trkpt lat="43.01254833" lon="-7.25638167">
        <ele>742.0</ele>
        <time>2022-06-19T13:41:04.472Z</time>
      </trkpt>
      <trkpt lat="43.01254833" lon="-7.25638167">
        <ele>742.0</ele>
        <time>2022-06-19T13:41:05.489Z</time>
      </trkpt>
      <trkpt lat="43.01253833" lon="-7.25644167">
        <ele>742.0</ele>
        <time>2022-06-19T13:41:06.465Z</time>
      </trkpt>
      <trkpt lat="43.01253167" lon="-7.25647167">
        <ele>742.0</ele>
        <time>2022-06-19T13:41:07.488Z</time>
      </trkpt>
      <trkpt lat="43.01253167" lon="-7.25647167">
        <ele>742.0</ele>
        <time>2022-06-19T13:41:08.465Z</time>
      </trkpt>
      <trkpt lat="43.01251833" lon="-7.25653">
        <ele>742.0</ele>
        <time>2022-06-19T13:41:09.488Z</time>
      </trkpt>
      <trkpt lat="43.01251167" lon="-7.25656167">
        <ele>742.0</ele>
        <time>2022-06-19T13:41:10.481Z</time>
      </trkpt>
      <trkpt lat="43.01251167" lon="-7.25656167">
        <ele>742.0</ele>
        <time>2022-06-19T13:41:11.454Z</time>
      </trkpt>
      <trkpt lat="43.01249667" lon="-7.25662333">
        <ele>742.0</ele>
        <time>2022-06-19T13:41:12.479Z</time>
      </trkpt>
      <trkpt lat="43.01249167" lon="-7.25665333">
        <ele>742.0</ele>
        <time>2022-06-19T13:41:13.472Z</time>
      </trkpt>
      <trkpt lat="43.01249167" lon="-7.25665333">
        <ele>742.0</ele>
        <time>2022-06-19T13:41:14.454Z</time>
      </trkpt>
      <trkpt lat="43.01248167" lon="-7.25671333">
        <ele>742.0</ele>
        <time>2022-06-19T13:41:15.474Z</time>
      </trkpt>
      <trkpt lat="43.012475" lon="-7.25674333">
        <ele>742.0</ele>
        <time>2022-06-19T13:41:16.469Z</time>
      </trkpt>
      <trkpt lat="43.012475" lon="-7.25674333">
        <ele>742.0</ele>
        <time>2022-06-19T13:41:17.480Z</time>
      </trkpt>
      <trkpt lat="43.01246167" lon="-7.25680333">
        <ele>743.0</ele>
        <time>2022-06-19T13:41:18.476Z</time>
      </trkpt>
      <trkpt lat="43.012455" lon="-7.256835">
        <ele>743.0</ele>
        <time>2022-06-19T13:41:19.454Z</time>
      </trkpt>
      <trkpt lat="43.012455" lon="-7.256835">
        <ele>743.0</ele>
        <time>2022-06-19T13:41:20.479Z</time>
      </trkpt>
      <trkpt lat="43.012445" lon="-7.256895">
        <ele>743.0</ele>
        <time>2022-06-19T13:41:21.457Z</time>
      </trkpt>
      <trkpt lat="43.01244333" lon="-7.25692667">
        <ele>743.0</ele>
        <time>2022-06-19T13:41:22.483Z</time>
      </trkpt>
      <trkpt lat="43.01244333" lon="-7.25692667">
        <ele>743.0</ele>
        <time>2022-06-19T13:41:23.470Z</time>
      </trkpt>
      <trkpt lat="43.012445" lon="-7.25698667">
        <ele>744.0</ele>
        <time>2022-06-19T13:41:24.479Z</time>
      </trkpt>
      <trkpt lat="43.012445" lon="-7.25698667">
        <ele>744.0</ele>
        <time>2022-06-19T13:41:25.454Z</time>
      </trkpt>
      <trkpt lat="43.01245333" lon="-7.25704833">
        <ele>744.0</ele>
        <time>2022-06-19T13:41:26.476Z</time>
      </trkpt>
      <trkpt lat="43.01245333" lon="-7.25704833">
        <ele>744.0</ele>
        <time>2022-06-19T13:41:27.489Z</time>
      </trkpt>
      <trkpt lat="43.01246" lon="-7.25710167">
        <ele>745.0</ele>
        <time>2022-06-19T13:41:28.487Z</time>
      </trkpt>
      <trkpt lat="43.01246667" lon="-7.257125">
        <ele>745.0</ele>
        <time>2022-06-19T13:41:29.481Z</time>
      </trkpt>
      <trkpt lat="43.01246667" lon="-7.257125">
        <ele>745.0</ele>
        <time>2022-06-19T13:41:30.458Z</time>
      </trkpt>
      <trkpt lat="43.01247167" lon="-7.25716">
        <ele>745.0</ele>
        <time>2022-06-19T13:41:31.487Z</time>
      </trkpt>
      <trkpt lat="43.012475" lon="-7.25717333">
        <ele>746.0</ele>
        <time>2022-06-19T13:41:32.450Z</time>
      </trkpt>
      <trkpt lat="43.012475" lon="-7.25717333">
        <ele>746.0</ele>
        <time>2022-06-19T13:41:33.459Z</time>
      </trkpt>
      <trkpt lat="43.01247667" lon="-7.257205">
        <ele>746.0</ele>
        <time>2022-06-19T13:41:34.450Z</time>
      </trkpt>
      <trkpt lat="43.01248167" lon="-7.257225">
        <ele>746.0</ele>
        <time>2022-06-19T13:41:35.457Z</time>
      </trkpt>
      <trkpt lat="43.01248167" lon="-7.257225">
        <ele>746.0</ele>
        <time>2022-06-19T13:41:36.468Z</time>
      </trkpt>
      <trkpt lat="43.012495" lon="-7.25726333">
        <ele>746.0</ele>
        <time>2022-06-19T13:41:37.507Z</time>
      </trkpt>
      <trkpt lat="43.012495" lon="-7.25726333">
        <ele>746.0</ele>
        <time>2022-06-19T13:41:38.470Z</time>
      </trkpt>
      <trkpt lat="43.01250333" lon="-7.257305">
        <ele>746.0</ele>
        <time>2022-06-19T13:41:39.453Z</time>
      </trkpt>
      <trkpt lat="43.01250333" lon="-7.257305">
        <ele>746.0</ele>
        <time>2022-06-19T13:41:40.470Z</time>
      </trkpt>
      <trkpt lat="43.01250833" lon="-7.25734833">
        <ele>747.0</ele>
        <time>2022-06-19T13:41:41.489Z</time>
      </trkpt>
      <trkpt lat="43.01250833" lon="-7.25734833">
        <ele>747.0</ele>
        <time>2022-06-19T13:41:42.450Z</time>
      </trkpt>
      <trkpt lat="43.01252167" lon="-7.257395">
        <ele>747.0</ele>
        <time>2022-06-19T13:41:43.472Z</time>
      </trkpt>
      <trkpt lat="43.01252167" lon="-7.257395">
        <ele>747.0</ele>
        <time>2022-06-19T13:41:44.488Z</time>
      </trkpt>
      <trkpt lat="43.012535" lon="-7.25743833">
        <ele>748.0</ele>
        <time>2022-06-19T13:41:45.468Z</time>
      </trkpt>
      <trkpt lat="43.012535" lon="-7.25743833">
        <ele>748.0</ele>
        <time>2022-06-19T13:41:46.468Z</time>
      </trkpt>
      <trkpt lat="43.01254167" lon="-7.257465">
        <ele>748.0</ele>
        <time>2022-06-19T13:41:47.492Z</time>
      </trkpt>
      <trkpt lat="43.01254167" lon="-7.257465">
        <ele>748.0</ele>
        <time>2022-06-19T13:41:48.470Z</time>
      </trkpt>
      <trkpt lat="43.01254833" lon="-7.25750167">
        <ele>748.0</ele>
        <time>2022-06-19T13:41:49.482Z</time>
      </trkpt>
      <trkpt lat="43.01254833" lon="-7.25750167">
        <ele>748.0</ele>
        <time>2022-06-19T13:41:50.467Z</time>
      </trkpt>
      <trkpt lat="43.012555" lon="-7.25753667">
        <ele>749.0</ele>
        <time>2022-06-19T13:41:51.480Z</time>
      </trkpt>
      <trkpt lat="43.012555" lon="-7.25753667">
        <ele>749.0</ele>
        <time>2022-06-19T13:41:52.489Z</time>
      </trkpt>
      <trkpt lat="43.01256333" lon="-7.257575">
        <ele>749.0</ele>
        <time>2022-06-19T13:41:53.488Z</time>
      </trkpt>
      <trkpt lat="43.01256333" lon="-7.257575">
        <ele>749.0</ele>
        <time>2022-06-19T13:41:54.470Z</time>
      </trkpt>
      <trkpt lat="43.01258" lon="-7.25761">
        <ele>750.0</ele>
        <time>2022-06-19T13:41:55.450Z</time>
      </trkpt>
      <trkpt lat="43.01258" lon="-7.25761">
        <ele>750.0</ele>
        <time>2022-06-19T13:41:56.472Z</time>
      </trkpt>
      <trkpt lat="43.01259167" lon="-7.25764">
        <ele>750.0</ele>
        <time>2022-06-19T13:41:57.457Z</time>
      </trkpt>
      <trkpt lat="43.01259167" lon="-7.25764">
        <ele>750.0</ele>
        <time>2022-06-19T13:41:58.470Z</time>
      </trkpt>
      <trkpt lat="43.01260167" lon="-7.25767167">
        <ele>750.0</ele>
        <time>2022-06-19T13:41:59.457Z</time>
      </trkpt>
      <trkpt lat="43.01260167" lon="-7.25767167">
        <ele>750.0</ele>
        <time>2022-06-19T13:42:00.485Z</time>
      </trkpt>
      <trkpt lat="43.01260167" lon="-7.257705">
        <ele>751.0</ele>
        <time>2022-06-19T13:42:01.470Z</time>
      </trkpt>
      <trkpt lat="43.01260167" lon="-7.257705">
        <ele>751.0</ele>
        <time>2022-06-19T13:42:02.484Z</time>
      </trkpt>
      <trkpt lat="43.0126" lon="-7.25773667">
        <ele>751.0</ele>
        <time>2022-06-19T13:42:03.471Z</time>
      </trkpt>
      <trkpt lat="43.0126" lon="-7.25773667">
        <ele>751.0</ele>
        <time>2022-06-19T13:42:04.489Z</time>
      </trkpt>
      <trkpt lat="43.01259667" lon="-7.25778333">
        <ele>751.0</ele>
        <time>2022-06-19T13:42:05.467Z</time>
      </trkpt>
      <trkpt lat="43.01259667" lon="-7.25778333">
        <ele>751.0</ele>
        <time>2022-06-19T13:42:06.457Z</time>
      </trkpt>
      <trkpt lat="43.012595" lon="-7.25781333">
        <ele>752.0</ele>
        <time>2022-06-19T13:42:07.489Z</time>
      </trkpt>
      <trkpt lat="43.012595" lon="-7.25781333">
        <ele>752.0</ele>
        <time>2022-06-19T13:42:08.484Z</time>
      </trkpt>
      <trkpt lat="43.01259167" lon="-7.25783667">
        <ele>752.0</ele>
        <time>2022-06-19T13:42:09.488Z</time>
      </trkpt>
      <trkpt lat="43.01259167" lon="-7.25783667">
        <ele>752.0</ele>
        <time>2022-06-19T13:42:10.457Z</time>
      </trkpt>
      <trkpt lat="43.01258667" lon="-7.25785333">
        <ele>753.0</ele>
        <time>2022-06-19T13:42:11.487Z</time>
      </trkpt>
      <trkpt lat="43.01258667" lon="-7.25785333">
        <ele>753.0</ele>
        <time>2022-06-19T13:42:12.472Z</time>
      </trkpt>
      <trkpt lat="43.012585" lon="-7.25787833">
        <ele>753.0</ele>
        <time>2022-06-19T13:42:13.488Z</time>
      </trkpt>
      <trkpt lat="43.012585" lon="-7.25787833">
        <ele>753.0</ele>
        <time>2022-06-19T13:42:14.460Z</time>
      </trkpt>
      <trkpt lat="43.01257833" lon="-7.25790333">
        <ele>754.0</ele>
        <time>2022-06-19T13:42:15.485Z</time>
      </trkpt>
      <trkpt lat="43.01257833" lon="-7.25790333">
        <ele>754.0</ele>
        <time>2022-06-19T13:42:16.450Z</time>
      </trkpt>
      <trkpt lat="43.01257" lon="-7.25792167">
        <ele>755.0</ele>
        <time>2022-06-19T13:42:17.469Z</time>
      </trkpt>
      <trkpt lat="43.01257" lon="-7.25792167">
        <ele>755.0</ele>
        <time>2022-06-19T13:42:18.459Z</time>
      </trkpt>
      <trkpt lat="43.012565" lon="-7.25793833">
        <ele>755.0</ele>
        <time>2022-06-19T13:42:19.488Z</time>
      </trkpt>
      <trkpt lat="43.012565" lon="-7.25793833">
        <ele>755.0</ele>
        <time>2022-06-19T13:42:20.472Z</time>
      </trkpt>
      <trkpt lat="43.01255833" lon="-7.25796">
        <ele>756.0</ele>
        <time>2022-06-19T13:42:21.489Z</time>
      </trkpt>
      <trkpt lat="43.01255667" lon="-7.25797">
        <ele>756.0</ele>
        <time>2022-06-19T13:42:22.453Z</time>
      </trkpt>
      <trkpt lat="43.01255667" lon="-7.25797">
        <ele>756.0</ele>
        <time>2022-06-19T13:42:23.484Z</time>
      </trkpt>
      <trkpt lat="43.012555" lon="-7.25799167">
        <ele>756.0</ele>
        <time>2022-06-19T13:42:24.466Z</time>
      </trkpt>
      <trkpt lat="43.012555" lon="-7.25799167">
        <ele>756.0</ele>
        <time>2022-06-19T13:42:25.474Z</time>
      </trkpt>
      <trkpt lat="43.01255167" lon="-7.25801667">
        <ele>757.0</ele>
        <time>2022-06-19T13:42:26.457Z</time>
      </trkpt>
      <trkpt lat="43.012545" lon="-7.25803">
        <ele>757.0</ele>
        <time>2022-06-19T13:42:27.460Z</time>
      </trkpt>
      <trkpt lat="43.012545" lon="-7.25803">
        <ele>757.0</ele>
        <time>2022-06-19T13:42:28.459Z</time>
      </trkpt>
      <trkpt lat="43.01254" lon="-7.25805167">
        <ele>758.0</ele>
        <time>2022-06-19T13:42:29.455Z</time>
      </trkpt>
      <trkpt lat="43.01253833" lon="-7.25806333">
        <ele>758.0</ele>
        <time>2022-06-19T13:42:30.479Z</time>
      </trkpt>
      <trkpt lat="43.01253833" lon="-7.25806333">
        <ele>758.0</ele>
        <time>2022-06-19T13:42:31.454Z</time>
      </trkpt>
      <trkpt lat="43.01252167" lon="-7.2581">
        <ele>758.0</ele>
        <time>2022-06-19T13:42:32.473Z</time>
      </trkpt>
      <trkpt lat="43.01252167" lon="-7.2581">
        <ele>758.0</ele>
        <time>2022-06-19T13:42:33.488Z</time>
      </trkpt>
      <trkpt lat="43.012505" lon="-7.25813167">
        <ele>759.0</ele>
        <time>2022-06-19T13:42:34.471Z</time>
      </trkpt>
      <trkpt lat="43.012505" lon="-7.25813167">
        <ele>759.0</ele>
        <time>2022-06-19T13:42:35.452Z</time>
      </trkpt>
      <trkpt lat="43.01247167" lon="-7.258175">
        <ele>759.0</ele>
        <time>2022-06-19T13:42:36.483Z</time>
      </trkpt>
      <trkpt lat="43.01245833" lon="-7.25819167">
        <ele>759.0</ele>
        <time>2022-06-19T13:42:37.481Z</time>
      </trkpt>
      <trkpt lat="43.01245833" lon="-7.25819167">
        <ele>759.0</ele>
        <time>2022-06-19T13:42:38.456Z</time>
      </trkpt>
      <trkpt lat="43.012445" lon="-7.258225">
        <ele>759.0</ele>
        <time>2022-06-19T13:42:39.457Z</time>
      </trkpt>
      <trkpt lat="43.012445" lon="-7.258225">
        <ele>759.0</ele>
        <time>2022-06-19T13:42:40.480Z</time>
      </trkpt>
      <trkpt lat="43.01243167" lon="-7.25825167">
        <ele>759.0</ele>
        <time>2022-06-19T13:42:41.480Z</time>
      </trkpt>
      <trkpt lat="43.01243167" lon="-7.25825167">
        <ele>759.0</ele>
        <time>2022-06-19T13:42:42.459Z</time>
      </trkpt>
      <trkpt lat="43.01242833" lon="-7.25828">
        <ele>759.0</ele>
        <time>2022-06-19T13:42:43.477Z</time>
      </trkpt>
      <trkpt lat="43.01242833" lon="-7.25828">
        <ele>759.0</ele>
        <time>2022-06-19T13:42:44.463Z</time>
      </trkpt>
      <trkpt lat="43.01242167" lon="-7.25831333">
        <ele>760.0</ele>
        <time>2022-06-19T13:42:45.488Z</time>
      </trkpt>
      <trkpt lat="43.01242167" lon="-7.25831333">
        <ele>760.0</ele>
        <time>2022-06-19T13:42:46.479Z</time>
      </trkpt>
      <trkpt lat="43.01241167" lon="-7.25834333">
        <ele>760.0</ele>
        <time>2022-06-19T13:42:47.459Z</time>
      </trkpt>
      <trkpt lat="43.01240333" lon="-7.25836167">
        <ele>760.0</ele>
        <time>2022-06-19T13:42:48.466Z</time>
      </trkpt>
      <trkpt lat="43.012395" lon="-7.25837667">
        <ele>760.0</ele>
        <time>2022-06-19T13:42:49.454Z</time>
      </trkpt>
      <trkpt lat="43.012395" lon="-7.25837667">
        <ele>760.0</ele>
        <time>2022-06-19T13:42:50.469Z</time>
      </trkpt>
      <trkpt lat="43.01238667" lon="-7.25840667">
        <ele>760.0</ele>
        <time>2022-06-19T13:42:51.494Z</time>
      </trkpt>
      <trkpt lat="43.01238667" lon="-7.25840667">
        <ele>760.0</ele>
        <time>2022-06-19T13:42:52.459Z</time>
      </trkpt>
      <trkpt lat="43.01238" lon="-7.25844">
        <ele>761.0</ele>
        <time>2022-06-19T13:42:53.474Z</time>
      </trkpt>
      <trkpt lat="43.01238" lon="-7.25844">
        <ele>761.0</ele>
        <time>2022-06-19T13:42:54.459Z</time>
      </trkpt>
      <trkpt lat="43.01236667" lon="-7.25846833">
        <ele>761.0</ele>
        <time>2022-06-19T13:42:55.487Z</time>
      </trkpt>
      <trkpt lat="43.01236667" lon="-7.25846833">
        <ele>761.0</ele>
        <time>2022-06-19T13:42:56.469Z</time>
      </trkpt>
      <trkpt lat="43.01235833" lon="-7.25849667">
        <ele>761.0</ele>
        <time>2022-06-19T13:42:57.454Z</time>
      </trkpt>
      <trkpt lat="43.01235833" lon="-7.25849667">
        <ele>761.0</ele>
        <time>2022-06-19T13:42:58.477Z</time>
      </trkpt>
      <trkpt lat="43.01235333" lon="-7.258525">
        <ele>761.0</ele>
        <time>2022-06-19T13:42:59.464Z</time>
      </trkpt>
      <trkpt lat="43.01235" lon="-7.25853833">
        <ele>761.0</ele>
        <time>2022-06-19T13:43:00.486Z</time>
      </trkpt>
      <trkpt lat="43.01234667" lon="-7.25855333">
        <ele>762.0</ele>
        <time>2022-06-19T13:43:01.477Z</time>
      </trkpt>
      <trkpt lat="43.01234667" lon="-7.25855333">
        <ele>762.0</ele>
        <time>2022-06-19T13:43:02.453Z</time>
      </trkpt>
      <trkpt lat="43.012335" lon="-7.25858167">
        <ele>762.0</ele>
        <time>2022-06-19T13:43:03.474Z</time>
      </trkpt>
      <trkpt lat="43.012335" lon="-7.25858167">
        <ele>762.0</ele>
        <time>2022-06-19T13:43:04.480Z</time>
      </trkpt>
      <trkpt lat="43.01232667" lon="-7.25860667">
        <ele>762.0</ele>
        <time>2022-06-19T13:43:05.462Z</time>
      </trkpt>
      <trkpt lat="43.01232667" lon="-7.25860667">
        <ele>762.0</ele>
        <time>2022-06-19T13:43:06.465Z</time>
      </trkpt>
      <trkpt lat="43.01230333" lon="-7.25864667">
        <ele>763.0</ele>
        <time>2022-06-19T13:43:07.465Z</time>
      </trkpt>
      <trkpt lat="43.01230333" lon="-7.25864667">
        <ele>763.0</ele>
        <time>2022-06-19T13:43:08.488Z</time>
      </trkpt>
      <trkpt lat="43.01229833" lon="-7.25867833">
        <ele>763.0</ele>
        <time>2022-06-19T13:43:09.494Z</time>
      </trkpt>
      <trkpt lat="43.01229833" lon="-7.25867833">
        <ele>763.0</ele>
        <time>2022-06-19T13:43:10.455Z</time>
      </trkpt>
      <trkpt lat="43.01228833" lon="-7.25870667">
        <ele>763.0</ele>
        <time>2022-06-19T13:43:11.483Z</time>
      </trkpt>
      <trkpt lat="43.01228333" lon="-7.25872">
        <ele>763.0</ele>
        <time>2022-06-19T13:43:12.461Z</time>
      </trkpt>
      <trkpt lat="43.012275" lon="-7.25873167">
        <ele>763.0</ele>
        <time>2022-06-19T13:43:13.467Z</time>
      </trkpt>
      <trkpt lat="43.01226833" lon="-7.25874333">
        <ele>764.0</ele>
        <time>2022-06-19T13:43:14.470Z</time>
      </trkpt>
      <trkpt lat="43.01226833" lon="-7.25874333">
        <ele>764.0</ele>
        <time>2022-06-19T13:43:15.484Z</time>
      </trkpt>
      <trkpt lat="43.01226" lon="-7.25876833">
        <ele>764.0</ele>
        <time>2022-06-19T13:43:16.488Z</time>
      </trkpt>
      <trkpt lat="43.01225667" lon="-7.25878">
        <ele>764.0</ele>
        <time>2022-06-19T13:43:17.488Z</time>
      </trkpt>
      <trkpt lat="43.01225667" lon="-7.25878">
        <ele>764.0</ele>
        <time>2022-06-19T13:43:18.482Z</time>
      </trkpt>
      <trkpt lat="43.01224333" lon="-7.25879833">
        <ele>765.0</ele>
        <time>2022-06-19T13:43:19.477Z</time>
      </trkpt>
      <trkpt lat="43.01224333" lon="-7.25879833">
        <ele>765.0</ele>
        <time>2022-06-19T13:43:20.450Z</time>
      </trkpt>
      <trkpt lat="43.01223" lon="-7.25881833">
        <ele>765.0</ele>
        <time>2022-06-19T13:43:21.470Z</time>
      </trkpt>
      <trkpt lat="43.01223" lon="-7.25881833">
        <ele>765.0</ele>
        <time>2022-06-19T13:43:22.460Z</time>
      </trkpt>
      <trkpt lat="43.01221333" lon="-7.25883833">
        <ele>766.0</ele>
        <time>2022-06-19T13:43:23.472Z</time>
      </trkpt>
      <trkpt lat="43.01221333" lon="-7.25883833">
        <ele>766.0</ele>
        <time>2022-06-19T13:43:24.455Z</time>
      </trkpt>
      <trkpt lat="43.01220167" lon="-7.25886333">
        <ele>766.0</ele>
        <time>2022-06-19T13:43:25.467Z</time>
      </trkpt>
      <trkpt lat="43.01220167" lon="-7.25886333">
        <ele>766.0</ele>
        <time>2022-06-19T13:43:26.460Z</time>
      </trkpt>
      <trkpt lat="43.01219667" lon="-7.258885">
        <ele>767.0</ele>
        <time>2022-06-19T13:43:27.477Z</time>
      </trkpt>
      <trkpt lat="43.012195" lon="-7.25889167">
        <ele>767.0</ele>
        <time>2022-06-19T13:43:28.456Z</time>
      </trkpt>
      <trkpt lat="43.012195" lon="-7.25889167">
        <ele>767.0</ele>
        <time>2022-06-19T13:43:29.480Z</time>
      </trkpt>
      <trkpt lat="43.012185" lon="-7.25891">
        <ele>768.0</ele>
        <time>2022-06-19T13:43:30.457Z</time>
      </trkpt>
      <trkpt lat="43.01218" lon="-7.25892">
        <ele>768.0</ele>
        <time>2022-06-19T13:43:31.460Z</time>
      </trkpt>
      <trkpt lat="43.01218" lon="-7.25892">
        <ele>768.0</ele>
        <time>2022-06-19T13:43:32.453Z</time>
      </trkpt>
      <trkpt lat="43.012175" lon="-7.258935">
        <ele>768.0</ele>
        <time>2022-06-19T13:43:33.476Z</time>
      </trkpt>
      <trkpt lat="43.012175" lon="-7.258935">
        <ele>768.0</ele>
        <time>2022-06-19T13:43:34.484Z</time>
      </trkpt>
      <trkpt lat="43.01217667" lon="-7.25896167">
        <ele>768.0</ele>
        <time>2022-06-19T13:43:35.457Z</time>
      </trkpt>
      <trkpt lat="43.01217667" lon="-7.25896167">
        <ele>768.0</ele>
        <time>2022-06-19T13:43:36.459Z</time>
      </trkpt>
      <trkpt lat="43.01216833" lon="-7.25899333">
        <ele>769.0</ele>
        <time>2022-06-19T13:43:37.492Z</time>
      </trkpt>
      <trkpt lat="43.01216833" lon="-7.25899333">
        <ele>769.0</ele>
        <time>2022-06-19T13:43:38.484Z</time>
      </trkpt>
      <trkpt lat="43.01216167" lon="-7.25903833">
        <ele>769.0</ele>
        <time>2022-06-19T13:43:39.470Z</time>
      </trkpt>
      <trkpt lat="43.01216167" lon="-7.25903833">
        <ele>769.0</ele>
        <time>2022-06-19T13:43:40.459Z</time>
      </trkpt>
      <trkpt lat="43.01215333" lon="-7.25907">
        <ele>769.0</ele>
        <time>2022-06-19T13:43:41.450Z</time>
      </trkpt>
      <trkpt lat="43.01215333" lon="-7.25907">
        <ele>769.0</ele>
        <time>2022-06-19T13:43:42.452Z</time>
      </trkpt>
      <trkpt lat="43.01215167" lon="-7.25909833">
        <ele>769.0</ele>
        <time>2022-06-19T13:43:43.467Z</time>
      </trkpt>
      <trkpt lat="43.01215167" lon="-7.25909833">
        <ele>769.0</ele>
        <time>2022-06-19T13:43:44.450Z</time>
      </trkpt>
      <trkpt lat="43.012155" lon="-7.25912833">
        <ele>770.0</ele>
        <time>2022-06-19T13:43:45.475Z</time>
      </trkpt>
      <trkpt lat="43.012155" lon="-7.25912833">
        <ele>770.0</ele>
        <time>2022-06-19T13:43:46.484Z</time>
      </trkpt>
      <trkpt lat="43.01215667" lon="-7.25915667">
        <ele>770.0</ele>
        <time>2022-06-19T13:43:47.472Z</time>
      </trkpt>
      <trkpt lat="43.01215667" lon="-7.25915667">
        <ele>770.0</ele>
        <time>2022-06-19T13:43:48.460Z</time>
      </trkpt>
      <trkpt lat="43.01215667" lon="-7.25919">
        <ele>770.0</ele>
        <time>2022-06-19T13:43:49.479Z</time>
      </trkpt>
      <trkpt lat="43.01215667" lon="-7.25919">
        <ele>770.0</ele>
        <time>2022-06-19T13:43:50.456Z</time>
      </trkpt>
      <trkpt lat="43.01216" lon="-7.259205">
        <ele>771.0</ele>
        <time>2022-06-19T13:43:51.487Z</time>
      </trkpt>
      <trkpt lat="43.01216" lon="-7.259205">
        <ele>771.0</ele>
        <time>2022-06-19T13:43:52.470Z</time>
      </trkpt>
      <trkpt lat="43.012165" lon="-7.25923167">
        <ele>771.0</ele>
        <time>2022-06-19T13:43:53.489Z</time>
      </trkpt>
      <trkpt lat="43.01217" lon="-7.259245">
        <ele>772.0</ele>
        <time>2022-06-19T13:43:54.474Z</time>
      </trkpt>
      <trkpt lat="43.01217" lon="-7.259245">
        <ele>772.0</ele>
        <time>2022-06-19T13:43:55.455Z</time>
      </trkpt>
      <trkpt lat="43.01217333" lon="-7.25927">
        <ele>772.0</ele>
        <time>2022-06-19T13:43:56.477Z</time>
      </trkpt>
      <trkpt lat="43.01217333" lon="-7.25927">
        <ele>772.0</ele>
        <time>2022-06-19T13:43:57.474Z</time>
      </trkpt>
      <trkpt lat="43.01217167" lon="-7.259305">
        <ele>773.0</ele>
        <time>2022-06-19T13:43:58.460Z</time>
      </trkpt>
      <trkpt lat="43.01217167" lon="-7.25932">
        <ele>773.0</ele>
        <time>2022-06-19T13:43:59.465Z</time>
      </trkpt>
      <trkpt lat="43.01217167" lon="-7.25932">
        <ele>773.0</ele>
        <time>2022-06-19T13:44:00.459Z</time>
      </trkpt>
      <trkpt lat="43.012175" lon="-7.25934833">
        <ele>774.0</ele>
        <time>2022-06-19T13:44:01.477Z</time>
      </trkpt>
      <trkpt lat="43.012175" lon="-7.25934833">
        <ele>774.0</ele>
        <time>2022-06-19T13:44:02.459Z</time>
      </trkpt>
      <trkpt lat="43.01218667" lon="-7.25937667">
        <ele>774.0</ele>
        <time>2022-06-19T13:44:03.483Z</time>
      </trkpt>
      <trkpt lat="43.01219" lon="-7.25939167">
        <ele>774.0</ele>
        <time>2022-06-19T13:44:04.467Z</time>
      </trkpt>
      <trkpt lat="43.01219" lon="-7.25939167">
        <ele>774.0</ele>
        <time>2022-06-19T13:44:05.451Z</time>
      </trkpt>
      <trkpt lat="43.0122" lon="-7.259415">
        <ele>774.0</ele>
        <time>2022-06-19T13:44:06.456Z</time>
      </trkpt>
      <trkpt lat="43.0122" lon="-7.259415">
        <ele>774.0</ele>
        <time>2022-06-19T13:44:07.458Z</time>
      </trkpt>
      <trkpt lat="43.01220833" lon="-7.25945">
        <ele>775.0</ele>
        <time>2022-06-19T13:44:08.488Z</time>
      </trkpt>
      <trkpt lat="43.01220833" lon="-7.25945">
        <ele>775.0</ele>
        <time>2022-06-19T13:44:09.479Z</time>
      </trkpt>
      <trkpt lat="43.012195" lon="-7.2595">
        <ele>775.0</ele>
        <time>2022-06-19T13:44:10.467Z</time>
      </trkpt>
      <trkpt lat="43.012195" lon="-7.2595">
        <ele>775.0</ele>
        <time>2022-06-19T13:44:11.472Z</time>
      </trkpt>
      <trkpt lat="43.01219" lon="-7.25953167">
        <ele>775.0</ele>
        <time>2022-06-19T13:44:12.454Z</time>
      </trkpt>
      <trkpt lat="43.01219" lon="-7.25953167">
        <ele>775.0</ele>
        <time>2022-06-19T13:44:13.457Z</time>
      </trkpt>
      <trkpt lat="43.01219167" lon="-7.25956833">
        <ele>776.0</ele>
        <time>2022-06-19T13:44:14.474Z</time>
      </trkpt>
      <trkpt lat="43.01219167" lon="-7.25956833">
        <ele>776.0</ele>
        <time>2022-06-19T13:44:15.457Z</time>
      </trkpt>
      <trkpt lat="43.01218833" lon="-7.2596">
        <ele>776.0</ele>
        <time>2022-06-19T13:44:16.477Z</time>
      </trkpt>
      <trkpt lat="43.01218833" lon="-7.2596">
        <ele>776.0</ele>
        <time>2022-06-19T13:44:17.455Z</time>
      </trkpt>
      <trkpt lat="43.01219333" lon="-7.25963">
        <ele>777.0</ele>
        <time>2022-06-19T13:44:18.474Z</time>
      </trkpt>
      <trkpt lat="43.01219833" lon="-7.25964667">
        <ele>777.0</ele>
        <time>2022-06-19T13:44:19.480Z</time>
      </trkpt>
      <trkpt lat="43.01219833" lon="-7.25964667">
        <ele>777.0</ele>
        <time>2022-06-19T13:44:20.489Z</time>
      </trkpt>
      <trkpt lat="43.01219833" lon="-7.25967">
        <ele>777.0</ele>
        <time>2022-06-19T13:44:21.479Z</time>
      </trkpt>
      <trkpt lat="43.01219833" lon="-7.25967">
        <ele>777.0</ele>
        <time>2022-06-19T13:44:22.489Z</time>
      </trkpt>
      <trkpt lat="43.01220333" lon="-7.25970333">
        <ele>778.0</ele>
        <time>2022-06-19T13:44:23.471Z</time>
      </trkpt>
      <trkpt lat="43.01220333" lon="-7.25970333">
        <ele>778.0</ele>
        <time>2022-06-19T13:44:24.461Z</time>
      </trkpt>
      <trkpt lat="43.01221333" lon="-7.25974">
        <ele>778.0</ele>
        <time>2022-06-19T13:44:25.489Z</time>
      </trkpt>
      <trkpt lat="43.01221333" lon="-7.25974">
        <ele>778.0</ele>
        <time>2022-06-19T13:44:26.472Z</time>
      </trkpt>
      <trkpt lat="43.01221833" lon="-7.25977667">
        <ele>779.0</ele>
        <time>2022-06-19T13:44:27.484Z</time>
      </trkpt>
      <trkpt lat="43.01222667" lon="-7.25979167">
        <ele>779.0</ele>
        <time>2022-06-19T13:44:28.464Z</time>
      </trkpt>
      <trkpt lat="43.01222667" lon="-7.25979167">
        <ele>779.0</ele>
        <time>2022-06-19T13:44:29.479Z</time>
      </trkpt>
      <trkpt lat="43.01223833" lon="-7.25982333">
        <ele>780.0</ele>
        <time>2022-06-19T13:44:30.456Z</time>
      </trkpt>
      <trkpt lat="43.012245" lon="-7.25984">
        <ele>780.0</ele>
        <time>2022-06-19T13:44:31.456Z</time>
      </trkpt>
      <trkpt lat="43.012245" lon="-7.25984">
        <ele>780.0</ele>
        <time>2022-06-19T13:44:32.471Z</time>
      </trkpt>
      <trkpt lat="43.01225167" lon="-7.25988167">
        <ele>780.0</ele>
        <time>2022-06-19T13:44:33.451Z</time>
      </trkpt>
      <trkpt lat="43.01225167" lon="-7.25988167">
        <ele>780.0</ele>
        <time>2022-06-19T13:44:34.474Z</time>
      </trkpt>
      <trkpt lat="43.01226833" lon="-7.25991833">
        <ele>780.0</ele>
        <time>2022-06-19T13:44:35.467Z</time>
      </trkpt>
      <trkpt lat="43.01227333" lon="-7.259935">
        <ele>780.0</ele>
        <time>2022-06-19T13:44:36.472Z</time>
      </trkpt>
      <trkpt lat="43.01228333" lon="-7.25995667">
        <ele>780.0</ele>
        <time>2022-06-19T13:44:37.471Z</time>
      </trkpt>
      <trkpt lat="43.01228333" lon="-7.25995667">
        <ele>780.0</ele>
        <time>2022-06-19T13:44:38.463Z</time>
      </trkpt>
      <trkpt lat="43.01230167" lon="-7.25999667">
        <ele>780.0</ele>
        <time>2022-06-19T13:44:39.456Z</time>
      </trkpt>
      <trkpt lat="43.01230167" lon="-7.25999667">
        <ele>780.0</ele>
        <time>2022-06-19T13:44:40.459Z</time>
      </trkpt>
      <trkpt lat="43.01231" lon="-7.26006167">
        <ele>780.0</ele>
        <time>2022-06-19T13:44:41.456Z</time>
      </trkpt>
      <trkpt lat="43.01231" lon="-7.26006167">
        <ele>780.0</ele>
        <time>2022-06-19T13:44:42.490Z</time>
      </trkpt>
      <trkpt lat="43.01231333" lon="-7.26012167">
        <ele>780.0</ele>
        <time>2022-06-19T13:44:43.476Z</time>
      </trkpt>
      <trkpt lat="43.01231333" lon="-7.26012167">
        <ele>780.0</ele>
        <time>2022-06-19T13:44:44.474Z</time>
      </trkpt>
      <trkpt lat="43.01231833" lon="-7.26018">
        <ele>781.0</ele>
        <time>2022-06-19T13:44:45.451Z</time>
      </trkpt>
      <trkpt lat="43.01231833" lon="-7.26018">
        <ele>781.0</ele>
        <time>2022-06-19T13:44:46.472Z</time>
      </trkpt>
      <trkpt lat="43.01231833" lon="-7.26023167">
        <ele>781.0</ele>
        <time>2022-06-19T13:44:47.455Z</time>
      </trkpt>
      <trkpt lat="43.01231833" lon="-7.26023167">
        <ele>781.0</ele>
        <time>2022-06-19T13:44:48.453Z</time>
      </trkpt>
      <trkpt lat="43.012325" lon="-7.260285">
        <ele>782.0</ele>
        <time>2022-06-19T13:44:49.467Z</time>
      </trkpt>
      <trkpt lat="43.012325" lon="-7.260285">
        <ele>782.0</ele>
        <time>2022-06-19T13:44:50.483Z</time>
      </trkpt>
      <trkpt lat="43.01232833" lon="-7.26034">
        <ele>782.0</ele>
        <time>2022-06-19T13:44:51.474Z</time>
      </trkpt>
      <trkpt lat="43.01232833" lon="-7.26034">
        <ele>782.0</ele>
        <time>2022-06-19T13:44:52.474Z</time>
      </trkpt>
      <trkpt lat="43.01233167" lon="-7.26039167">
        <ele>782.0</ele>
        <time>2022-06-19T13:44:53.460Z</time>
      </trkpt>
      <trkpt lat="43.01233167" lon="-7.26039167">
        <ele>782.0</ele>
        <time>2022-06-19T13:44:54.479Z</time>
      </trkpt>
      <trkpt lat="43.01233" lon="-7.26044167">
        <ele>783.0</ele>
        <time>2022-06-19T13:44:55.461Z</time>
      </trkpt>
      <trkpt lat="43.01233" lon="-7.26044167">
        <ele>783.0</ele>
        <time>2022-06-19T13:44:56.475Z</time>
      </trkpt>
      <trkpt lat="43.01232" lon="-7.260485">
        <ele>784.0</ele>
        <time>2022-06-19T13:44:57.458Z</time>
      </trkpt>
      <trkpt lat="43.01232333" lon="-7.260505">
        <ele>784.0</ele>
        <time>2022-06-19T13:44:58.488Z</time>
      </trkpt>
      <trkpt lat="43.01232333" lon="-7.260505">
        <ele>784.0</ele>
        <time>2022-06-19T13:44:59.459Z</time>
      </trkpt>
      <trkpt lat="43.01231333" lon="-7.260545">
        <ele>784.0</ele>
        <time>2022-06-19T13:45:00.454Z</time>
      </trkpt>
      <trkpt lat="43.01231333" lon="-7.260545">
        <ele>784.0</ele>
        <time>2022-06-19T13:45:01.468Z</time>
      </trkpt>
      <trkpt lat="43.01231167" lon="-7.26058667">
        <ele>784.0</ele>
        <time>2022-06-19T13:45:02.465Z</time>
      </trkpt>
      <trkpt lat="43.01231167" lon="-7.26058667">
        <ele>784.0</ele>
        <time>2022-06-19T13:45:03.489Z</time>
      </trkpt>
      <trkpt lat="43.01230333" lon="-7.26063167">
        <ele>785.0</ele>
        <time>2022-06-19T13:45:04.474Z</time>
      </trkpt>
      <trkpt lat="43.01230333" lon="-7.26063167">
        <ele>785.0</ele>
        <time>2022-06-19T13:45:05.459Z</time>
      </trkpt>
      <trkpt lat="43.0123" lon="-7.26067">
        <ele>785.0</ele>
        <time>2022-06-19T13:45:06.483Z</time>
      </trkpt>
      <trkpt lat="43.0123" lon="-7.26068667">
        <ele>785.0</ele>
        <time>2022-06-19T13:45:07.497Z</time>
      </trkpt>
      <trkpt lat="43.0123" lon="-7.26068667">
        <ele>785.0</ele>
        <time>2022-06-19T13:45:08.467Z</time>
      </trkpt>
      <trkpt lat="43.01229167" lon="-7.26072333">
        <ele>786.0</ele>
        <time>2022-06-19T13:45:09.488Z</time>
      </trkpt>
      <trkpt lat="43.012285" lon="-7.26073833">
        <ele>786.0</ele>
        <time>2022-06-19T13:45:10.454Z</time>
      </trkpt>
      <trkpt lat="43.012285" lon="-7.26073833">
        <ele>786.0</ele>
        <time>2022-06-19T13:45:11.458Z</time>
      </trkpt>
      <trkpt lat="43.01228167" lon="-7.26080667">
        <ele>786.0</ele>
        <time>2022-06-19T13:45:12.477Z</time>
      </trkpt>
      <trkpt lat="43.01228667" lon="-7.26083">
        <ele>787.0</ele>
        <time>2022-06-19T13:45:13.451Z</time>
      </trkpt>
      <trkpt lat="43.01228667" lon="-7.26083">
        <ele>787.0</ele>
        <time>2022-06-19T13:45:14.479Z</time>
      </trkpt>
      <trkpt lat="43.01228667" lon="-7.26086167">
        <ele>787.0</ele>
        <time>2022-06-19T13:45:15.458Z</time>
      </trkpt>
      <trkpt lat="43.01228667" lon="-7.26086167">
        <ele>787.0</ele>
        <time>2022-06-19T13:45:16.457Z</time>
      </trkpt>
      <trkpt lat="43.01228167" lon="-7.260895">
        <ele>788.0</ele>
        <time>2022-06-19T13:45:17.482Z</time>
      </trkpt>
      <trkpt lat="43.01227333" lon="-7.26091">
        <ele>788.0</ele>
        <time>2022-06-19T13:45:18.453Z</time>
      </trkpt>
      <trkpt lat="43.01227333" lon="-7.26091">
        <ele>788.0</ele>
        <time>2022-06-19T13:45:19.472Z</time>
      </trkpt>
      <trkpt lat="43.01225" lon="-7.26094833">
        <ele>789.0</ele>
        <time>2022-06-19T13:45:20.469Z</time>
      </trkpt>
      <trkpt lat="43.01225" lon="-7.26094833">
        <ele>789.0</ele>
        <time>2022-06-19T13:45:21.459Z</time>
      </trkpt>
      <trkpt lat="43.01223333" lon="-7.26099">
        <ele>790.0</ele>
        <time>2022-06-19T13:45:22.460Z</time>
      </trkpt>
      <trkpt lat="43.012225" lon="-7.261005">
        <ele>790.0</ele>
        <time>2022-06-19T13:45:23.461Z</time>
      </trkpt>
      <trkpt lat="43.012225" lon="-7.261005">
        <ele>790.0</ele>
        <time>2022-06-19T13:45:24.460Z</time>
      </trkpt>
      <trkpt lat="43.01220667" lon="-7.26103167">
        <ele>792.0</ele>
        <time>2022-06-19T13:45:25.477Z</time>
      </trkpt>
      <trkpt lat="43.01220667" lon="-7.26103167">
        <ele>792.0</ele>
        <time>2022-06-19T13:45:26.485Z</time>
      </trkpt>
      <trkpt lat="43.01219167" lon="-7.26105333">
        <ele>793.0</ele>
        <time>2022-06-19T13:45:27.462Z</time>
      </trkpt>
      <trkpt lat="43.01218833" lon="-7.26106167">
        <ele>793.0</ele>
        <time>2022-06-19T13:45:28.486Z</time>
      </trkpt>
      <trkpt lat="43.01218833" lon="-7.26106167">
        <ele>793.0</ele>
        <time>2022-06-19T13:45:29.488Z</time>
      </trkpt>
      <trkpt lat="43.01218" lon="-7.26108333">
        <ele>794.0</ele>
        <time>2022-06-19T13:45:30.463Z</time>
      </trkpt>
      <trkpt lat="43.01217833" lon="-7.26109667">
        <ele>794.0</ele>
        <time>2022-06-19T13:45:31.458Z</time>
      </trkpt>
      <trkpt lat="43.01217833" lon="-7.26109667">
        <ele>794.0</ele>
        <time>2022-06-19T13:45:32.473Z</time>
      </trkpt>
      <trkpt lat="43.01217333" lon="-7.26112">
        <ele>795.0</ele>
        <time>2022-06-19T13:45:33.452Z</time>
      </trkpt>
      <trkpt lat="43.01217167" lon="-7.261135">
        <ele>796.0</ele>
        <time>2022-06-19T13:45:34.487Z</time>
      </trkpt>
      <trkpt lat="43.01217167" lon="-7.261135">
        <ele>796.0</ele>
        <time>2022-06-19T13:45:35.460Z</time>
      </trkpt>
      <trkpt lat="43.01217167" lon="-7.26116">
        <ele>796.0</ele>
        <time>2022-06-19T13:45:36.495Z</time>
      </trkpt>
      <trkpt lat="43.01217333" lon="-7.26117167">
        <ele>797.0</ele>
        <time>2022-06-19T13:45:37.481Z</time>
      </trkpt>
      <trkpt lat="43.01217333" lon="-7.26117167">
        <ele>797.0</ele>
        <time>2022-06-19T13:45:38.462Z</time>
      </trkpt>
      <trkpt lat="43.012165" lon="-7.26120333">
        <ele>797.0</ele>
        <time>2022-06-19T13:45:39.486Z</time>
      </trkpt>
      <trkpt lat="43.012165" lon="-7.26120333">
        <ele>797.0</ele>
        <time>2022-06-19T13:45:40.475Z</time>
      </trkpt>
      <trkpt lat="43.01214667" lon="-7.26124333">
        <ele>798.0</ele>
        <time>2022-06-19T13:45:41.454Z</time>
      </trkpt>
      <trkpt lat="43.01214667" lon="-7.26124333">
        <ele>798.0</ele>
        <time>2022-06-19T13:45:42.482Z</time>
      </trkpt>
      <trkpt lat="43.01214167" lon="-7.26127833">
        <ele>798.0</ele>
        <time>2022-06-19T13:45:43.465Z</time>
      </trkpt>
      <trkpt lat="43.01214167" lon="-7.26127833">
        <ele>798.0</ele>
        <time>2022-06-19T13:45:44.452Z</time>
      </trkpt>
      <trkpt lat="43.01212667" lon="-7.26132">
        <ele>798.0</ele>
        <time>2022-06-19T13:45:45.478Z</time>
      </trkpt>
      <trkpt lat="43.01212667" lon="-7.26132">
        <ele>798.0</ele>
        <time>2022-06-19T13:45:46.460Z</time>
      </trkpt>
      <trkpt lat="43.01211667" lon="-7.26138667">
        <ele>799.0</ele>
        <time>2022-06-19T13:45:47.457Z</time>
      </trkpt>
      <trkpt lat="43.01211667" lon="-7.26138667">
        <ele>799.0</ele>
        <time>2022-06-19T13:45:48.470Z</time>
      </trkpt>
      <trkpt lat="43.01209333" lon="-7.26143167">
        <ele>799.0</ele>
        <time>2022-06-19T13:45:49.463Z</time>
      </trkpt>
      <trkpt lat="43.01209333" lon="-7.26143167">
        <ele>799.0</ele>
        <time>2022-06-19T13:45:50.483Z</time>
      </trkpt>
      <trkpt lat="43.01207333" lon="-7.26146333">
        <ele>800.0</ele>
        <time>2022-06-19T13:45:51.463Z</time>
      </trkpt>
      <trkpt lat="43.01207333" lon="-7.26146333">
        <ele>800.0</ele>
        <time>2022-06-19T13:45:52.479Z</time>
      </trkpt>
      <trkpt lat="43.01206333" lon="-7.2615">
        <ele>800.0</ele>
        <time>2022-06-19T13:45:53.485Z</time>
      </trkpt>
      <trkpt lat="43.01206333" lon="-7.2615">
        <ele>800.0</ele>
        <time>2022-06-19T13:45:54.489Z</time>
      </trkpt>
      <trkpt lat="43.01206167" lon="-7.26153833">
        <ele>800.0</ele>
        <time>2022-06-19T13:45:55.461Z</time>
      </trkpt>
      <trkpt lat="43.01206167" lon="-7.26153833">
        <ele>800.0</ele>
        <time>2022-06-19T13:45:56.489Z</time>
      </trkpt>
      <trkpt lat="43.012055" lon="-7.261575">
        <ele>801.0</ele>
        <time>2022-06-19T13:45:57.471Z</time>
      </trkpt>
      <trkpt lat="43.012055" lon="-7.261575">
        <ele>801.0</ele>
        <time>2022-06-19T13:45:58.460Z</time>
      </trkpt>
      <trkpt lat="43.01205167" lon="-7.26161667">
        <ele>801.0</ele>
        <time>2022-06-19T13:45:59.477Z</time>
      </trkpt>
      <trkpt lat="43.01205167" lon="-7.26161667">
        <ele>801.0</ele>
        <time>2022-06-19T13:46:00.470Z</time>
      </trkpt>
      <trkpt lat="43.01205167" lon="-7.26164833">
        <ele>801.0</ele>
        <time>2022-06-19T13:46:01.488Z</time>
      </trkpt>
      <trkpt lat="43.01205167" lon="-7.26164833">
        <ele>801.0</ele>
        <time>2022-06-19T13:46:02.470Z</time>
      </trkpt>
      <trkpt lat="43.01204833" lon="-7.261685">
        <ele>801.0</ele>
        <time>2022-06-19T13:46:03.491Z</time>
      </trkpt>
      <trkpt lat="43.01204833" lon="-7.261685">
        <ele>801.0</ele>
        <time>2022-06-19T13:46:04.455Z</time>
      </trkpt>
      <trkpt lat="43.01204" lon="-7.26172333">
        <ele>802.0</ele>
        <time>2022-06-19T13:46:05.488Z</time>
      </trkpt>
      <trkpt lat="43.01203667" lon="-7.26174">
        <ele>802.0</ele>
        <time>2022-06-19T13:46:06.465Z</time>
      </trkpt>
      <trkpt lat="43.01203667" lon="-7.26174">
        <ele>802.0</ele>
        <time>2022-06-19T13:46:07.451Z</time>
      </trkpt>
      <trkpt lat="43.012035" lon="-7.26177">
        <ele>802.0</ele>
        <time>2022-06-19T13:46:08.458Z</time>
      </trkpt>
      <trkpt lat="43.012035" lon="-7.26177">
        <ele>802.0</ele>
        <time>2022-06-19T13:46:09.451Z</time>
      </trkpt>
      <trkpt lat="43.012035" lon="-7.26180167">
        <ele>802.0</ele>
        <time>2022-06-19T13:46:10.467Z</time>
      </trkpt>
      <trkpt lat="43.012035" lon="-7.26180167">
        <ele>802.0</ele>
        <time>2022-06-19T13:46:11.489Z</time>
      </trkpt>
      <trkpt lat="43.01203167" lon="-7.26183">
        <ele>803.0</ele>
        <time>2022-06-19T13:46:12.469Z</time>
      </trkpt>
      <trkpt lat="43.01203167" lon="-7.26184833">
        <ele>803.0</ele>
        <time>2022-06-19T13:46:13.457Z</time>
      </trkpt>
      <trkpt lat="43.01203167" lon="-7.26184833">
        <ele>803.0</ele>
        <time>2022-06-19T13:46:14.482Z</time>
      </trkpt>
      <trkpt lat="43.01203" lon="-7.26187333">
        <ele>803.0</ele>
        <time>2022-06-19T13:46:15.457Z</time>
      </trkpt>
      <trkpt lat="43.01203" lon="-7.26187333">
        <ele>803.0</ele>
        <time>2022-06-19T13:46:16.474Z</time>
      </trkpt>
      <trkpt lat="43.01202" lon="-7.26190833">
        <ele>804.0</ele>
        <time>2022-06-19T13:46:17.472Z</time>
      </trkpt>
      <trkpt lat="43.01202" lon="-7.26190833">
        <ele>804.0</ele>
        <time>2022-06-19T13:46:18.462Z</time>
      </trkpt>
      <trkpt lat="43.01201333" lon="-7.26194833">
        <ele>804.0</ele>
        <time>2022-06-19T13:46:19.484Z</time>
      </trkpt>
      <trkpt lat="43.01201333" lon="-7.26194833">
        <ele>804.0</ele>
        <time>2022-06-19T13:46:20.452Z</time>
      </trkpt>
      <trkpt lat="43.01199833" lon="-7.26198667">
        <ele>804.0</ele>
        <time>2022-06-19T13:46:21.472Z</time>
      </trkpt>
      <trkpt lat="43.01199833" lon="-7.26198667">
        <ele>804.0</ele>
        <time>2022-06-19T13:46:22.464Z</time>
      </trkpt>
      <trkpt lat="43.01199" lon="-7.26202333">
        <ele>804.0</ele>
        <time>2022-06-19T13:46:23.487Z</time>
      </trkpt>
      <trkpt lat="43.01199" lon="-7.26202333">
        <ele>804.0</ele>
        <time>2022-06-19T13:46:24.465Z</time>
      </trkpt>
      <trkpt lat="43.011975" lon="-7.262055">
        <ele>804.0</ele>
        <time>2022-06-19T13:46:25.463Z</time>
      </trkpt>
      <trkpt lat="43.011975" lon="-7.262055">
        <ele>804.0</ele>
        <time>2022-06-19T13:46:26.475Z</time>
      </trkpt>
      <trkpt lat="43.011965" lon="-7.262085">
        <ele>804.0</ele>
        <time>2022-06-19T13:46:27.466Z</time>
      </trkpt>
      <trkpt lat="43.01195667" lon="-7.26209833">
        <ele>804.0</ele>
        <time>2022-06-19T13:46:28.491Z</time>
      </trkpt>
      <trkpt lat="43.01195667" lon="-7.26209833">
        <ele>804.0</ele>
        <time>2022-06-19T13:46:29.482Z</time>
      </trkpt>
      <trkpt lat="43.01195" lon="-7.26212667">
        <ele>804.0</ele>
        <time>2022-06-19T13:46:30.458Z</time>
      </trkpt>
      <trkpt lat="43.01195" lon="-7.26212667">
        <ele>804.0</ele>
        <time>2022-06-19T13:46:31.464Z</time>
      </trkpt>
      <trkpt lat="43.01193667" lon="-7.26216167">
        <ele>804.0</ele>
        <time>2022-06-19T13:46:32.482Z</time>
      </trkpt>
      <trkpt lat="43.01193667" lon="-7.26216167">
        <ele>804.0</ele>
        <time>2022-06-19T13:46:33.452Z</time>
      </trkpt>
      <trkpt lat="43.011925" lon="-7.26219167">
        <ele>804.0</ele>
        <time>2022-06-19T13:46:34.473Z</time>
      </trkpt>
      <trkpt lat="43.011925" lon="-7.26219167">
        <ele>804.0</ele>
        <time>2022-06-19T13:46:35.455Z</time>
      </trkpt>
      <trkpt lat="43.01191667" lon="-7.26222">
        <ele>804.0</ele>
        <time>2022-06-19T13:46:36.477Z</time>
      </trkpt>
      <trkpt lat="43.01191" lon="-7.262235">
        <ele>804.0</ele>
        <time>2022-06-19T13:46:37.471Z</time>
      </trkpt>
      <trkpt lat="43.01191" lon="-7.262235">
        <ele>804.0</ele>
        <time>2022-06-19T13:46:38.460Z</time>
      </trkpt>
      <trkpt lat="43.01190167" lon="-7.26226667">
        <ele>804.0</ele>
        <time>2022-06-19T13:46:39.456Z</time>
      </trkpt>
      <trkpt lat="43.01190167" lon="-7.26226667">
        <ele>804.0</ele>
        <time>2022-06-19T13:46:40.460Z</time>
      </trkpt>
      <trkpt lat="43.01189833" lon="-7.2623">
        <ele>804.0</ele>
        <time>2022-06-19T13:46:41.473Z</time>
      </trkpt>
      <trkpt lat="43.01189833" lon="-7.2623">
        <ele>804.0</ele>
        <time>2022-06-19T13:46:42.455Z</time>
      </trkpt>
      <trkpt lat="43.01189167" lon="-7.26232833">
        <ele>804.0</ele>
        <time>2022-06-19T13:46:43.452Z</time>
      </trkpt>
      <trkpt lat="43.01189167" lon="-7.26232833">
        <ele>804.0</ele>
        <time>2022-06-19T13:46:44.488Z</time>
      </trkpt>
      <trkpt lat="43.01188833" lon="-7.26236">
        <ele>803.0</ele>
        <time>2022-06-19T13:46:45.470Z</time>
      </trkpt>
      <trkpt lat="43.01188833" lon="-7.26236">
        <ele>803.0</ele>
        <time>2022-06-19T13:46:46.451Z</time>
      </trkpt>
      <trkpt lat="43.01188167" lon="-7.26239167">
        <ele>803.0</ele>
        <time>2022-06-19T13:46:47.467Z</time>
      </trkpt>
      <trkpt lat="43.01188167" lon="-7.26239167">
        <ele>803.0</ele>
        <time>2022-06-19T13:46:48.477Z</time>
      </trkpt>
      <trkpt lat="43.01187167" lon="-7.26242167">
        <ele>803.0</ele>
        <time>2022-06-19T13:46:49.467Z</time>
      </trkpt>
      <trkpt lat="43.01187167" lon="-7.26242167">
        <ele>803.0</ele>
        <time>2022-06-19T13:46:50.454Z</time>
      </trkpt>
      <trkpt lat="43.01187333" lon="-7.26246">
        <ele>803.0</ele>
        <time>2022-06-19T13:46:51.475Z</time>
      </trkpt>
      <trkpt lat="43.01187333" lon="-7.26246">
        <ele>803.0</ele>
        <time>2022-06-19T13:46:52.458Z</time>
      </trkpt>
      <trkpt lat="43.01186833" lon="-7.26248167">
        <ele>803.0</ele>
        <time>2022-06-19T13:46:53.493Z</time>
      </trkpt>
      <trkpt lat="43.01186833" lon="-7.26248167">
        <ele>803.0</ele>
        <time>2022-06-19T13:46:54.473Z</time>
      </trkpt>
      <trkpt lat="43.01186667" lon="-7.26251">
        <ele>803.0</ele>
        <time>2022-06-19T13:46:55.452Z</time>
      </trkpt>
      <trkpt lat="43.01186667" lon="-7.26251">
        <ele>803.0</ele>
        <time>2022-06-19T13:46:56.474Z</time>
      </trkpt>
      <trkpt lat="43.01186" lon="-7.26253333">
        <ele>803.0</ele>
        <time>2022-06-19T13:46:57.460Z</time>
      </trkpt>
      <trkpt lat="43.011855" lon="-7.262545">
        <ele>803.0</ele>
        <time>2022-06-19T13:46:58.477Z</time>
      </trkpt>
      <trkpt lat="43.011855" lon="-7.262545">
        <ele>803.0</ele>
        <time>2022-06-19T13:46:59.482Z</time>
      </trkpt>
      <trkpt lat="43.011855" lon="-7.262575">
        <ele>803.0</ele>
        <time>2022-06-19T13:47:00.459Z</time>
      </trkpt>
      <trkpt lat="43.011855" lon="-7.26258833">
        <ele>803.0</ele>
        <time>2022-06-19T13:47:01.459Z</time>
      </trkpt>
      <trkpt lat="43.011855" lon="-7.26258833">
        <ele>803.0</ele>
        <time>2022-06-19T13:47:02.453Z</time>
      </trkpt>
      <trkpt lat="43.01185333" lon="-7.26261333">
        <ele>803.0</ele>
        <time>2022-06-19T13:47:03.471Z</time>
      </trkpt>
      <trkpt lat="43.01185167" lon="-7.26262667">
        <ele>803.0</ele>
        <time>2022-06-19T13:47:04.471Z</time>
      </trkpt>
      <trkpt lat="43.01185167" lon="-7.26262667">
        <ele>803.0</ele>
        <time>2022-06-19T13:47:05.473Z</time>
      </trkpt>
      <trkpt lat="43.01184667" lon="-7.26265167">
        <ele>803.0</ele>
        <time>2022-06-19T13:47:06.484Z</time>
      </trkpt>
      <trkpt lat="43.01184667" lon="-7.26265167">
        <ele>803.0</ele>
        <time>2022-06-19T13:47:07.457Z</time>
      </trkpt>
      <trkpt lat="43.01184667" lon="-7.26268333">
        <ele>803.0</ele>
        <time>2022-06-19T13:47:08.458Z</time>
      </trkpt>
      <trkpt lat="43.01184667" lon="-7.26268333">
        <ele>803.0</ele>
        <time>2022-06-19T13:47:09.476Z</time>
      </trkpt>
      <trkpt lat="43.011835" lon="-7.26270833">
        <ele>803.0</ele>
        <time>2022-06-19T13:47:10.471Z</time>
      </trkpt>
      <trkpt lat="43.011835" lon="-7.26270833">
        <ele>803.0</ele>
        <time>2022-06-19T13:47:11.457Z</time>
      </trkpt>
      <trkpt lat="43.01182333" lon="-7.26274167">
        <ele>803.0</ele>
        <time>2022-06-19T13:47:12.467Z</time>
      </trkpt>
      <trkpt lat="43.01182" lon="-7.26275833">
        <ele>803.0</ele>
        <time>2022-06-19T13:47:13.487Z</time>
      </trkpt>
      <trkpt lat="43.011815" lon="-7.26277167">
        <ele>803.0</ele>
        <time>2022-06-19T13:47:14.481Z</time>
      </trkpt>
      <trkpt lat="43.011815" lon="-7.26277167">
        <ele>803.0</ele>
        <time>2022-06-19T13:47:15.465Z</time>
      </trkpt>
      <trkpt lat="43.01180667" lon="-7.26279333">
        <ele>803.0</ele>
        <time>2022-06-19T13:47:16.501Z</time>
      </trkpt>
      <trkpt lat="43.01180667" lon="-7.26279333">
        <ele>803.0</ele>
        <time>2022-06-19T13:47:17.451Z</time>
      </trkpt>
      <trkpt lat="43.0118" lon="-7.26281833">
        <ele>804.0</ele>
        <time>2022-06-19T13:47:18.473Z</time>
      </trkpt>
      <trkpt lat="43.01179667" lon="-7.26283">
        <ele>804.0</ele>
        <time>2022-06-19T13:47:19.461Z</time>
      </trkpt>
      <trkpt lat="43.01179667" lon="-7.26283">
        <ele>804.0</ele>
        <time>2022-06-19T13:47:20.474Z</time>
      </trkpt>
      <trkpt lat="43.011785" lon="-7.26286167">
        <ele>804.0</ele>
        <time>2022-06-19T13:47:21.470Z</time>
      </trkpt>
      <trkpt lat="43.01178167" lon="-7.26287167">
        <ele>804.0</ele>
        <time>2022-06-19T13:47:22.473Z</time>
      </trkpt>
      <trkpt lat="43.01178167" lon="-7.26287167">
        <ele>804.0</ele>
        <time>2022-06-19T13:47:23.484Z</time>
      </trkpt>
      <trkpt lat="43.01177167" lon="-7.26289333">
        <ele>804.0</ele>
        <time>2022-06-19T13:47:24.468Z</time>
      </trkpt>
      <trkpt lat="43.01176833" lon="-7.26290333">
        <ele>804.0</ele>
        <time>2022-06-19T13:47:25.480Z</time>
      </trkpt>
      <trkpt lat="43.01176833" lon="-7.26290333">
        <ele>804.0</ele>
        <time>2022-06-19T13:47:26.474Z</time>
      </trkpt>
      <trkpt lat="43.01176833" lon="-7.26292333">
        <ele>805.0</ele>
        <time>2022-06-19T13:47:27.450Z</time>
      </trkpt>
      <trkpt lat="43.011765" lon="-7.26293667">
        <ele>805.0</ele>
        <time>2022-06-19T13:47:28.454Z</time>
      </trkpt>
      <trkpt lat="43.011765" lon="-7.26293667">
        <ele>805.0</ele>
        <time>2022-06-19T13:47:29.488Z</time>
      </trkpt>
      <trkpt lat="43.01176167" lon="-7.26296333">
        <ele>805.0</ele>
        <time>2022-06-19T13:47:30.472Z</time>
      </trkpt>
      <trkpt lat="43.01175667" lon="-7.26298">
        <ele>806.0</ele>
        <time>2022-06-19T13:47:31.467Z</time>
      </trkpt>
      <trkpt lat="43.01175667" lon="-7.26298">
        <ele>806.0</ele>
        <time>2022-06-19T13:47:32.489Z</time>
      </trkpt>
      <trkpt lat="43.011745" lon="-7.26300167">
        <ele>806.0</ele>
        <time>2022-06-19T13:47:33.481Z</time>
      </trkpt>
      <trkpt lat="43.01174333" lon="-7.26301">
        <ele>807.0</ele>
        <time>2022-06-19T13:47:34.489Z</time>
      </trkpt>
      <trkpt lat="43.01174333" lon="-7.26301">
        <ele>807.0</ele>
        <time>2022-06-19T13:47:35.477Z</time>
      </trkpt>
      <trkpt lat="43.01173667" lon="-7.263035">
        <ele>807.0</ele>
        <time>2022-06-19T13:47:36.451Z</time>
      </trkpt>
      <trkpt lat="43.01173667" lon="-7.263035">
        <ele>807.0</ele>
        <time>2022-06-19T13:47:37.473Z</time>
      </trkpt>
      <trkpt lat="43.01173333" lon="-7.26305667">
        <ele>807.0</ele>
        <time>2022-06-19T13:47:38.456Z</time>
      </trkpt>
      <trkpt lat="43.01173333" lon="-7.26305667">
        <ele>807.0</ele>
        <time>2022-06-19T13:47:39.456Z</time>
      </trkpt>
      <trkpt lat="43.01173" lon="-7.26307667">
        <ele>808.0</ele>
        <time>2022-06-19T13:47:40.483Z</time>
      </trkpt>
      <trkpt lat="43.01173" lon="-7.26307667">
        <ele>808.0</ele>
        <time>2022-06-19T13:47:41.481Z</time>
      </trkpt>
      <trkpt lat="43.01172333" lon="-7.263095">
        <ele>808.0</ele>
        <time>2022-06-19T13:47:42.452Z</time>
      </trkpt>
      <trkpt lat="43.01172" lon="-7.26310333">
        <ele>808.0</ele>
        <time>2022-06-19T13:47:43.463Z</time>
      </trkpt>
      <trkpt lat="43.01172" lon="-7.26310333">
        <ele>808.0</ele>
        <time>2022-06-19T13:47:44.453Z</time>
      </trkpt>
      <trkpt lat="43.01171667" lon="-7.26312167">
        <ele>809.0</ele>
        <time>2022-06-19T13:47:45.469Z</time>
      </trkpt>
      <trkpt lat="43.011715" lon="-7.26313667">
        <ele>809.0</ele>
        <time>2022-06-19T13:47:46.469Z</time>
      </trkpt>
      <trkpt lat="43.011715" lon="-7.26313667">
        <ele>809.0</ele>
        <time>2022-06-19T13:47:47.476Z</time>
      </trkpt>
      <trkpt lat="43.01170667" lon="-7.26316333">
        <ele>809.0</ele>
        <time>2022-06-19T13:47:48.489Z</time>
      </trkpt>
      <trkpt lat="43.011705" lon="-7.263175">
        <ele>809.0</ele>
        <time>2022-06-19T13:47:49.476Z</time>
      </trkpt>
      <trkpt lat="43.011705" lon="-7.263175">
        <ele>809.0</ele>
        <time>2022-06-19T13:47:50.489Z</time>
      </trkpt>
      <trkpt lat="43.01170167" lon="-7.26319333">
        <ele>810.0</ele>
        <time>2022-06-19T13:47:51.479Z</time>
      </trkpt>
      <trkpt lat="43.01170167" lon="-7.26319333">
        <ele>810.0</ele>
        <time>2022-06-19T13:47:52.478Z</time>
      </trkpt>
      <trkpt lat="43.01169167" lon="-7.26322167">
        <ele>810.0</ele>
        <time>2022-06-19T13:47:53.451Z</time>
      </trkpt>
      <trkpt lat="43.01169" lon="-7.26323333">
        <ele>810.0</ele>
        <time>2022-06-19T13:47:54.451Z</time>
      </trkpt>
      <trkpt lat="43.01168333" lon="-7.26325667">
        <ele>811.0</ele>
        <time>2022-06-19T13:47:55.464Z</time>
      </trkpt>
      <trkpt lat="43.01168333" lon="-7.26325667">
        <ele>811.0</ele>
        <time>2022-06-19T13:47:56.455Z</time>
      </trkpt>
      <trkpt lat="43.011685" lon="-7.263285">
        <ele>811.0</ele>
        <time>2022-06-19T13:47:57.482Z</time>
      </trkpt>
      <trkpt lat="43.011685" lon="-7.263285">
        <ele>811.0</ele>
        <time>2022-06-19T13:47:58.459Z</time>
      </trkpt>
      <trkpt lat="43.011675" lon="-7.26332167">
        <ele>811.0</ele>
        <time>2022-06-19T13:47:59.479Z</time>
      </trkpt>
      <trkpt lat="43.011675" lon="-7.26332167">
        <ele>811.0</ele>
        <time>2022-06-19T13:48:00.484Z</time>
      </trkpt>
      <trkpt lat="43.01166667" lon="-7.26335167">
        <ele>812.0</ele>
        <time>2022-06-19T13:48:01.459Z</time>
      </trkpt>
      <trkpt lat="43.01166333" lon="-7.26336667">
        <ele>812.0</ele>
        <time>2022-06-19T13:48:02.457Z</time>
      </trkpt>
      <trkpt lat="43.01166333" lon="-7.26336667">
        <ele>812.0</ele>
        <time>2022-06-19T13:48:03.474Z</time>
      </trkpt>
      <trkpt lat="43.01165" lon="-7.26339333">
        <ele>812.0</ele>
        <time>2022-06-19T13:48:04.451Z</time>
      </trkpt>
      <trkpt lat="43.01165" lon="-7.26339333">
        <ele>812.0</ele>
        <time>2022-06-19T13:48:05.473Z</time>
      </trkpt>
      <trkpt lat="43.01163833" lon="-7.26342167">
        <ele>812.0</ele>
        <time>2022-06-19T13:48:06.486Z</time>
      </trkpt>
      <trkpt lat="43.011635" lon="-7.26343833">
        <ele>812.0</ele>
        <time>2022-06-19T13:48:07.456Z</time>
      </trkpt>
      <trkpt lat="43.011635" lon="-7.26343833">
        <ele>812.0</ele>
        <time>2022-06-19T13:48:08.474Z</time>
      </trkpt>
      <trkpt lat="43.01162667" lon="-7.26347">
        <ele>812.0</ele>
        <time>2022-06-19T13:48:09.458Z</time>
      </trkpt>
      <trkpt lat="43.011625" lon="-7.26348667">
        <ele>812.0</ele>
        <time>2022-06-19T13:48:10.471Z</time>
      </trkpt>
      <trkpt lat="43.011625" lon="-7.26348667">
        <ele>812.0</ele>
        <time>2022-06-19T13:48:11.489Z</time>
      </trkpt>
      <trkpt lat="43.01161833" lon="-7.26352167">
        <ele>813.0</ele>
        <time>2022-06-19T13:48:12.471Z</time>
      </trkpt>
      <trkpt lat="43.01161667" lon="-7.26353833">
        <ele>813.0</ele>
        <time>2022-06-19T13:48:13.488Z</time>
      </trkpt>
      <trkpt lat="43.01161667" lon="-7.26353833">
        <ele>813.0</ele>
        <time>2022-06-19T13:48:14.475Z</time>
      </trkpt>
      <trkpt lat="43.01161167" lon="-7.26356333">
        <ele>813.0</ele>
        <time>2022-06-19T13:48:15.464Z</time>
      </trkpt>
      <trkpt lat="43.01161167" lon="-7.26357833">
        <ele>813.0</ele>
        <time>2022-06-19T13:48:16.486Z</time>
      </trkpt>
      <trkpt lat="43.01161167" lon="-7.26357833">
        <ele>813.0</ele>
        <time>2022-06-19T13:48:17.469Z</time>
      </trkpt>
      <trkpt lat="43.011605" lon="-7.263605">
        <ele>813.0</ele>
        <time>2022-06-19T13:48:18.486Z</time>
      </trkpt>
      <trkpt lat="43.011605" lon="-7.263605">
        <ele>813.0</ele>
        <time>2022-06-19T13:48:19.450Z</time>
      </trkpt>
      <trkpt lat="43.011595" lon="-7.26362">
        <ele>813.0</ele>
        <time>2022-06-19T13:48:20.467Z</time>
      </trkpt>
      <trkpt lat="43.011595" lon="-7.26362">
        <ele>813.0</ele>
        <time>2022-06-19T13:48:21.460Z</time>
      </trkpt>
      <trkpt lat="43.01159667" lon="-7.263645">
        <ele>814.0</ele>
        <time>2022-06-19T13:48:22.454Z</time>
      </trkpt>
      <trkpt lat="43.011595" lon="-7.26366">
        <ele>814.0</ele>
        <time>2022-06-19T13:48:23.479Z</time>
      </trkpt>
      <trkpt lat="43.01159167" lon="-7.26367333">
        <ele>814.0</ele>
        <time>2022-06-19T13:48:24.489Z</time>
      </trkpt>
      <trkpt lat="43.01159167" lon="-7.26367333">
        <ele>814.0</ele>
        <time>2022-06-19T13:48:25.486Z</time>
      </trkpt>
      <trkpt lat="43.01159" lon="-7.26371167">
        <ele>814.0</ele>
        <time>2022-06-19T13:48:26.474Z</time>
      </trkpt>
      <trkpt lat="43.01159167" lon="-7.26372667">
        <ele>814.0</ele>
        <time>2022-06-19T13:48:27.457Z</time>
      </trkpt>
      <trkpt lat="43.01159167" lon="-7.26372667">
        <ele>814.0</ele>
        <time>2022-06-19T13:48:28.488Z</time>
      </trkpt>
      <trkpt lat="43.011585" lon="-7.26374833">
        <ele>815.0</ele>
        <time>2022-06-19T13:48:29.477Z</time>
      </trkpt>
      <trkpt lat="43.011585" lon="-7.26374833">
        <ele>815.0</ele>
        <time>2022-06-19T13:48:30.451Z</time>
      </trkpt>
      <trkpt lat="43.01158" lon="-7.263765">
        <ele>815.0</ele>
        <time>2022-06-19T13:48:31.467Z</time>
      </trkpt>
      <trkpt lat="43.01158" lon="-7.263765">
        <ele>815.0</ele>
        <time>2022-06-19T13:48:32.454Z</time>
      </trkpt>
      <trkpt lat="43.01157833" lon="-7.263785">
        <ele>815.0</ele>
        <time>2022-06-19T13:48:33.471Z</time>
      </trkpt>
      <trkpt lat="43.01157833" lon="-7.263785">
        <ele>815.0</ele>
        <time>2022-06-19T13:48:34.471Z</time>
      </trkpt>
      <trkpt lat="43.01157833" lon="-7.26380833">
        <ele>816.0</ele>
        <time>2022-06-19T13:48:35.488Z</time>
      </trkpt>
      <trkpt lat="43.01157833" lon="-7.26380833">
        <ele>816.0</ele>
        <time>2022-06-19T13:48:36.474Z</time>
      </trkpt>
      <trkpt lat="43.011575" lon="-7.26383167">
        <ele>816.0</ele>
        <time>2022-06-19T13:48:37.451Z</time>
      </trkpt>
      <trkpt lat="43.011575" lon="-7.263845">
        <ele>817.0</ele>
        <time>2022-06-19T13:48:38.482Z</time>
      </trkpt>
      <trkpt lat="43.011575" lon="-7.263845">
        <ele>817.0</ele>
        <time>2022-06-19T13:48:39.454Z</time>
      </trkpt>
      <trkpt lat="43.01157" lon="-7.26387167">
        <ele>817.0</ele>
        <time>2022-06-19T13:48:40.478Z</time>
      </trkpt>
      <trkpt lat="43.01157" lon="-7.26387167">
        <ele>817.0</ele>
        <time>2022-06-19T13:48:41.461Z</time>
      </trkpt>
      <trkpt lat="43.01157167" lon="-7.26389667">
        <ele>817.0</ele>
        <time>2022-06-19T13:48:42.456Z</time>
      </trkpt>
      <trkpt lat="43.01157167" lon="-7.26391">
        <ele>817.0</ele>
        <time>2022-06-19T13:48:43.467Z</time>
      </trkpt>
      <trkpt lat="43.01157167" lon="-7.26391">
        <ele>817.0</ele>
        <time>2022-06-19T13:48:44.485Z</time>
      </trkpt>
      <trkpt lat="43.01157333" lon="-7.263935">
        <ele>818.0</ele>
        <time>2022-06-19T13:48:45.459Z</time>
      </trkpt>
      <trkpt lat="43.011575" lon="-7.26394833">
        <ele>818.0</ele>
        <time>2022-06-19T13:48:46.453Z</time>
      </trkpt>
      <trkpt lat="43.011575" lon="-7.26394833">
        <ele>818.0</ele>
        <time>2022-06-19T13:48:47.472Z</time>
      </trkpt>
      <trkpt lat="43.011575" lon="-7.26398167">
        <ele>818.0</ele>
        <time>2022-06-19T13:48:48.455Z</time>
      </trkpt>
      <trkpt lat="43.01157833" lon="-7.26399667">
        <ele>818.0</ele>
        <time>2022-06-19T13:48:49.452Z</time>
      </trkpt>
      <trkpt lat="43.01157833" lon="-7.26399667">
        <ele>818.0</ele>
        <time>2022-06-19T13:48:50.473Z</time>
      </trkpt>
      <trkpt lat="43.01158667" lon="-7.26403">
        <ele>819.0</ele>
        <time>2022-06-19T13:48:51.468Z</time>
      </trkpt>
      <trkpt lat="43.01158667" lon="-7.26403">
        <ele>819.0</ele>
        <time>2022-06-19T13:48:52.484Z</time>
      </trkpt>
      <trkpt lat="43.011595" lon="-7.26405833">
        <ele>819.0</ele>
        <time>2022-06-19T13:48:53.458Z</time>
      </trkpt>
      <trkpt lat="43.01159833" lon="-7.26407333">
        <ele>819.0</ele>
        <time>2022-06-19T13:48:54.471Z</time>
      </trkpt>
      <trkpt lat="43.0116" lon="-7.26409">
        <ele>819.0</ele>
        <time>2022-06-19T13:48:55.486Z</time>
      </trkpt>
      <trkpt lat="43.0116" lon="-7.26409">
        <ele>819.0</ele>
        <time>2022-06-19T13:48:56.482Z</time>
      </trkpt>
      <trkpt lat="43.01160833" lon="-7.264125">
        <ele>820.0</ele>
        <time>2022-06-19T13:48:57.469Z</time>
      </trkpt>
      <trkpt lat="43.01160833" lon="-7.264125">
        <ele>820.0</ele>
        <time>2022-06-19T13:48:58.489Z</time>
      </trkpt>
      <trkpt lat="43.01162" lon="-7.26415667">
        <ele>820.0</ele>
        <time>2022-06-19T13:48:59.472Z</time>
      </trkpt>
      <trkpt lat="43.011625" lon="-7.26417167">
        <ele>820.0</ele>
        <time>2022-06-19T13:49:00.468Z</time>
      </trkpt>
      <trkpt lat="43.011625" lon="-7.26417167">
        <ele>820.0</ele>
        <time>2022-06-19T13:49:01.451Z</time>
      </trkpt>
      <trkpt lat="43.01163333" lon="-7.26420167">
        <ele>821.0</ele>
        <time>2022-06-19T13:49:02.480Z</time>
      </trkpt>
      <trkpt lat="43.01164167" lon="-7.264215">
        <ele>821.0</ele>
        <time>2022-06-19T13:49:03.483Z</time>
      </trkpt>
      <trkpt lat="43.01164167" lon="-7.264215">
        <ele>821.0</ele>
        <time>2022-06-19T13:49:04.473Z</time>
      </trkpt>
      <trkpt lat="43.01165833" lon="-7.26424167">
        <ele>822.0</ele>
        <time>2022-06-19T13:49:05.465Z</time>
      </trkpt>
      <trkpt lat="43.011665" lon="-7.26425667">
        <ele>822.0</ele>
        <time>2022-06-19T13:49:06.477Z</time>
      </trkpt>
      <trkpt lat="43.01167167" lon="-7.26426833">
        <ele>822.0</ele>
        <time>2022-06-19T13:49:07.477Z</time>
      </trkpt>
      <trkpt lat="43.01167167" lon="-7.26426833">
        <ele>822.0</ele>
        <time>2022-06-19T13:49:08.488Z</time>
      </trkpt>
      <trkpt lat="43.01168833" lon="-7.26429667">
        <ele>823.0</ele>
        <time>2022-06-19T13:49:09.477Z</time>
      </trkpt>
      <trkpt lat="43.01168833" lon="-7.26429667">
        <ele>823.0</ele>
        <time>2022-06-19T13:49:10.475Z</time>
      </trkpt>
      <trkpt lat="43.01170167" lon="-7.264325">
        <ele>823.0</ele>
        <time>2022-06-19T13:49:11.487Z</time>
      </trkpt>
      <trkpt lat="43.01170833" lon="-7.26434">
        <ele>823.0</ele>
        <time>2022-06-19T13:49:12.488Z</time>
      </trkpt>
      <trkpt lat="43.011715" lon="-7.26435167">
        <ele>823.0</ele>
        <time>2022-06-19T13:49:13.461Z</time>
      </trkpt>
      <trkpt lat="43.011715" lon="-7.26435167">
        <ele>823.0</ele>
        <time>2022-06-19T13:49:14.454Z</time>
      </trkpt>
      <trkpt lat="43.01173167" lon="-7.26437333">
        <ele>824.0</ele>
        <time>2022-06-19T13:49:15.483Z</time>
      </trkpt>
      <trkpt lat="43.01173167" lon="-7.26437333">
        <ele>824.0</ele>
        <time>2022-06-19T13:49:16.457Z</time>
      </trkpt>
      <trkpt lat="43.01174333" lon="-7.26440167">
        <ele>824.0</ele>
        <time>2022-06-19T13:49:17.453Z</time>
      </trkpt>
      <trkpt lat="43.01174333" lon="-7.26440167">
        <ele>824.0</ele>
        <time>2022-06-19T13:49:18.460Z</time>
      </trkpt>
      <trkpt lat="43.011755" lon="-7.26443333">
        <ele>824.0</ele>
        <time>2022-06-19T13:49:19.487Z</time>
      </trkpt>
      <trkpt lat="43.011755" lon="-7.26443333">
        <ele>824.0</ele>
        <time>2022-06-19T13:49:20.479Z</time>
      </trkpt>
      <trkpt lat="43.011765" lon="-7.26446167">
        <ele>824.0</ele>
        <time>2022-06-19T13:49:21.453Z</time>
      </trkpt>
      <trkpt lat="43.011765" lon="-7.26446167">
        <ele>824.0</ele>
        <time>2022-06-19T13:49:22.460Z</time>
      </trkpt>
      <trkpt lat="43.011775" lon="-7.26449">
        <ele>824.0</ele>
        <time>2022-06-19T13:49:23.476Z</time>
      </trkpt>
      <trkpt lat="43.01178" lon="-7.264505">
        <ele>824.0</ele>
        <time>2022-06-19T13:49:24.488Z</time>
      </trkpt>
      <trkpt lat="43.01178667" lon="-7.26451833">
        <ele>824.0</ele>
        <time>2022-06-19T13:49:25.457Z</time>
      </trkpt>
      <trkpt lat="43.011795" lon="-7.26453333">
        <ele>824.0</ele>
        <time>2022-06-19T13:49:26.461Z</time>
      </trkpt>
      <trkpt lat="43.011795" lon="-7.26453333">
        <ele>824.0</ele>
        <time>2022-06-19T13:49:27.459Z</time>
      </trkpt>
      <trkpt lat="43.01181" lon="-7.26456333">
        <ele>824.0</ele>
        <time>2022-06-19T13:49:28.477Z</time>
      </trkpt>
      <trkpt lat="43.01182167" lon="-7.26458167">
        <ele>824.0</ele>
        <time>2022-06-19T13:49:29.457Z</time>
      </trkpt>
      <trkpt lat="43.01182167" lon="-7.26458167">
        <ele>824.0</ele>
        <time>2022-06-19T13:49:30.468Z</time>
      </trkpt>
      <trkpt lat="43.01184" lon="-7.26461167">
        <ele>824.0</ele>
        <time>2022-06-19T13:49:31.467Z</time>
      </trkpt>
      <trkpt lat="43.01184" lon="-7.26461167">
        <ele>824.0</ele>
        <time>2022-06-19T13:49:32.473Z</time>
      </trkpt>
      <trkpt lat="43.01186167" lon="-7.264645">
        <ele>825.0</ele>
        <time>2022-06-19T13:49:33.453Z</time>
      </trkpt>
      <trkpt lat="43.01186167" lon="-7.264645">
        <ele>825.0</ele>
        <time>2022-06-19T13:49:34.478Z</time>
      </trkpt>
      <trkpt lat="43.01188167" lon="-7.26468">
        <ele>825.0</ele>
        <time>2022-06-19T13:49:35.469Z</time>
      </trkpt>
      <trkpt lat="43.01188167" lon="-7.26468">
        <ele>825.0</ele>
        <time>2022-06-19T13:49:36.451Z</time>
      </trkpt>
      <trkpt lat="43.01190333" lon="-7.26471333">
        <ele>826.0</ele>
        <time>2022-06-19T13:49:37.467Z</time>
      </trkpt>
      <trkpt lat="43.01190333" lon="-7.26471333">
        <ele>826.0</ele>
        <time>2022-06-19T13:49:38.482Z</time>
      </trkpt>
      <trkpt lat="43.01192833" lon="-7.26474167">
        <ele>826.0</ele>
        <time>2022-06-19T13:49:39.467Z</time>
      </trkpt>
      <trkpt lat="43.01192833" lon="-7.26474167">
        <ele>826.0</ele>
        <time>2022-06-19T13:49:40.452Z</time>
      </trkpt>
      <trkpt lat="43.01195333" lon="-7.26476667">
        <ele>826.0</ele>
        <time>2022-06-19T13:49:41.487Z</time>
      </trkpt>
      <trkpt lat="43.01195333" lon="-7.26476667">
        <ele>826.0</ele>
        <time>2022-06-19T13:49:42.477Z</time>
      </trkpt>
      <trkpt lat="43.01197833" lon="-7.2648">
        <ele>826.0</ele>
        <time>2022-06-19T13:49:43.471Z</time>
      </trkpt>
      <trkpt lat="43.01197833" lon="-7.2648">
        <ele>826.0</ele>
        <time>2022-06-19T13:49:44.483Z</time>
      </trkpt>
      <trkpt lat="43.01200667" lon="-7.26482833">
        <ele>826.0</ele>
        <time>2022-06-19T13:49:45.467Z</time>
      </trkpt>
      <trkpt lat="43.01200667" lon="-7.26482833">
        <ele>826.0</ele>
        <time>2022-06-19T13:49:46.464Z</time>
      </trkpt>
      <trkpt lat="43.01203667" lon="-7.264865">
        <ele>826.0</ele>
        <time>2022-06-19T13:49:47.486Z</time>
      </trkpt>
      <trkpt lat="43.01203667" lon="-7.264865">
        <ele>826.0</ele>
        <time>2022-06-19T13:49:48.479Z</time>
      </trkpt>
      <trkpt lat="43.012065" lon="-7.264895">
        <ele>826.0</ele>
        <time>2022-06-19T13:49:49.457Z</time>
      </trkpt>
      <trkpt lat="43.012065" lon="-7.264895">
        <ele>826.0</ele>
        <time>2022-06-19T13:49:50.452Z</time>
      </trkpt>
      <trkpt lat="43.012085" lon="-7.26492333">
        <ele>826.0</ele>
        <time>2022-06-19T13:49:51.476Z</time>
      </trkpt>
      <trkpt lat="43.012085" lon="-7.26492333">
        <ele>826.0</ele>
        <time>2022-06-19T13:49:52.462Z</time>
      </trkpt>
      <trkpt lat="43.01211167" lon="-7.26495667">
        <ele>826.0</ele>
        <time>2022-06-19T13:49:53.452Z</time>
      </trkpt>
      <trkpt lat="43.01211167" lon="-7.26495667">
        <ele>826.0</ele>
        <time>2022-06-19T13:49:54.485Z</time>
      </trkpt>
      <trkpt lat="43.01213833" lon="-7.264985">
        <ele>826.0</ele>
        <time>2022-06-19T13:49:55.476Z</time>
      </trkpt>
      <trkpt lat="43.012155" lon="-7.26499833">
        <ele>826.0</ele>
        <time>2022-06-19T13:49:56.507Z</time>
      </trkpt>
      <trkpt lat="43.012155" lon="-7.26499833">
        <ele>826.0</ele>
        <time>2022-06-19T13:49:57.459Z</time>
      </trkpt>
      <trkpt lat="43.012185" lon="-7.26502833">
        <ele>827.0</ele>
        <time>2022-06-19T13:49:58.477Z</time>
      </trkpt>
      <trkpt lat="43.012185" lon="-7.26502833">
        <ele>827.0</ele>
        <time>2022-06-19T13:49:59.474Z</time>
      </trkpt>
      <trkpt lat="43.01221833" lon="-7.26505833">
        <ele>827.0</ele>
        <time>2022-06-19T13:50:00.450Z</time>
      </trkpt>
      <trkpt lat="43.012235" lon="-7.265075">
        <ele>827.0</ele>
        <time>2022-06-19T13:50:01.492Z</time>
      </trkpt>
      <trkpt lat="43.012235" lon="-7.265075">
        <ele>827.0</ele>
        <time>2022-06-19T13:50:02.475Z</time>
      </trkpt>
      <trkpt lat="43.01227167" lon="-7.26511">
        <ele>827.0</ele>
        <time>2022-06-19T13:50:03.544Z</time>
      </trkpt>
      <trkpt lat="43.01227167" lon="-7.26511">
        <ele>827.0</ele>
        <time>2022-06-19T13:50:04.477Z</time>
      </trkpt>
      <trkpt lat="43.01230833" lon="-7.26514833">
        <ele>827.0</ele>
        <time>2022-06-19T13:50:05.468Z</time>
      </trkpt>
      <trkpt lat="43.01233" lon="-7.26516833">
        <ele>827.0</ele>
        <time>2022-06-19T13:50:06.490Z</time>
      </trkpt>
      <trkpt lat="43.01233" lon="-7.26516833">
        <ele>827.0</ele>
        <time>2022-06-19T13:50:07.478Z</time>
      </trkpt>
      <trkpt lat="43.01237333" lon="-7.265205">
        <ele>827.0</ele>
        <time>2022-06-19T13:50:08.469Z</time>
      </trkpt>
      <trkpt lat="43.01239333" lon="-7.26522333">
        <ele>827.0</ele>
        <time>2022-06-19T13:50:09.476Z</time>
      </trkpt>
      <trkpt lat="43.01239333" lon="-7.26522333">
        <ele>827.0</ele>
        <time>2022-06-19T13:50:10.488Z</time>
      </trkpt>
      <trkpt lat="43.012425" lon="-7.26525667">
        <ele>826.0</ele>
        <time>2022-06-19T13:50:11.490Z</time>
      </trkpt>
      <trkpt lat="43.012425" lon="-7.26525667">
        <ele>826.0</ele>
        <time>2022-06-19T13:50:12.478Z</time>
      </trkpt>
      <trkpt lat="43.01245833" lon="-7.26529">
        <ele>826.0</ele>
        <time>2022-06-19T13:50:13.457Z</time>
      </trkpt>
      <trkpt lat="43.01245833" lon="-7.26529">
        <ele>826.0</ele>
        <time>2022-06-19T13:50:14.479Z</time>
      </trkpt>
      <trkpt lat="43.01249333" lon="-7.265325">
        <ele>826.0</ele>
        <time>2022-06-19T13:50:15.452Z</time>
      </trkpt>
      <trkpt lat="43.01249333" lon="-7.265325">
        <ele>826.0</ele>
        <time>2022-06-19T13:50:16.451Z</time>
      </trkpt>
      <trkpt lat="43.01253" lon="-7.26537">
        <ele>826.0</ele>
        <time>2022-06-19T13:50:17.457Z</time>
      </trkpt>
      <trkpt lat="43.01254833" lon="-7.26539167">
        <ele>826.0</ele>
        <time>2022-06-19T13:50:18.491Z</time>
      </trkpt>
      <trkpt lat="43.012565" lon="-7.26541">
        <ele>826.0</ele>
        <time>2022-06-19T13:50:19.458Z</time>
      </trkpt>
      <trkpt lat="43.012565" lon="-7.26541">
        <ele>826.0</ele>
        <time>2022-06-19T13:50:20.477Z</time>
      </trkpt>
      <trkpt lat="43.01259833" lon="-7.26544667">
        <ele>826.0</ele>
        <time>2022-06-19T13:50:21.481Z</time>
      </trkpt>
      <trkpt lat="43.01259833" lon="-7.26544667">
        <ele>826.0</ele>
        <time>2022-06-19T13:50:22.480Z</time>
      </trkpt>
      <trkpt lat="43.012635" lon="-7.26549">
        <ele>826.0</ele>
        <time>2022-06-19T13:50:23.469Z</time>
      </trkpt>
      <trkpt lat="43.012635" lon="-7.26549">
        <ele>826.0</ele>
        <time>2022-06-19T13:50:24.478Z</time>
      </trkpt>
      <trkpt lat="43.01267333" lon="-7.26553833">
        <ele>826.0</ele>
        <time>2022-06-19T13:50:25.490Z</time>
      </trkpt>
      <trkpt lat="43.01267333" lon="-7.26553833">
        <ele>826.0</ele>
        <time>2022-06-19T13:50:26.489Z</time>
      </trkpt>
      <trkpt lat="43.01271167" lon="-7.26558333">
        <ele>826.0</ele>
        <time>2022-06-19T13:50:27.471Z</time>
      </trkpt>
      <trkpt lat="43.01271167" lon="-7.26558333">
        <ele>826.0</ele>
        <time>2022-06-19T13:50:28.455Z</time>
      </trkpt>
      <trkpt lat="43.01274" lon="-7.26562">
        <ele>826.0</ele>
        <time>2022-06-19T13:50:29.487Z</time>
      </trkpt>
      <trkpt lat="43.01274" lon="-7.26562">
        <ele>826.0</ele>
        <time>2022-06-19T13:50:30.459Z</time>
      </trkpt>
      <trkpt lat="43.01277" lon="-7.26565833">
        <ele>827.0</ele>
        <time>2022-06-19T13:50:31.453Z</time>
      </trkpt>
      <trkpt lat="43.01277" lon="-7.26565833">
        <ele>827.0</ele>
        <time>2022-06-19T13:50:32.483Z</time>
      </trkpt>
      <trkpt lat="43.01280833" lon="-7.26570333">
        <ele>827.0</ele>
        <time>2022-06-19T13:50:33.490Z</time>
      </trkpt>
      <trkpt lat="43.01280833" lon="-7.26570333">
        <ele>827.0</ele>
        <time>2022-06-19T13:50:34.480Z</time>
      </trkpt>
      <trkpt lat="43.01285" lon="-7.26575">
        <ele>827.0</ele>
        <time>2022-06-19T13:50:35.467Z</time>
      </trkpt>
      <trkpt lat="43.01285" lon="-7.26575">
        <ele>827.0</ele>
        <time>2022-06-19T13:50:36.476Z</time>
      </trkpt>
      <trkpt lat="43.01288333" lon="-7.26579333">
        <ele>827.0</ele>
        <time>2022-06-19T13:50:37.477Z</time>
      </trkpt>
      <trkpt lat="43.01288333" lon="-7.26579333">
        <ele>827.0</ele>
        <time>2022-06-19T13:50:38.479Z</time>
      </trkpt>
      <trkpt lat="43.01291333" lon="-7.26583667">
        <ele>827.0</ele>
        <time>2022-06-19T13:50:39.474Z</time>
      </trkpt>
      <trkpt lat="43.01291333" lon="-7.26583667">
        <ele>827.0</ele>
        <time>2022-06-19T13:50:40.476Z</time>
      </trkpt>
      <trkpt lat="43.01294667" lon="-7.26588">
        <ele>828.0</ele>
        <time>2022-06-19T13:50:41.460Z</time>
      </trkpt>
      <trkpt lat="43.01294667" lon="-7.26588">
        <ele>828.0</ele>
        <time>2022-06-19T13:50:42.490Z</time>
      </trkpt>
      <trkpt lat="43.012975" lon="-7.26592333">
        <ele>828.0</ele>
        <time>2022-06-19T13:50:43.476Z</time>
      </trkpt>
      <trkpt lat="43.012975" lon="-7.26592333">
        <ele>828.0</ele>
        <time>2022-06-19T13:50:44.459Z</time>
      </trkpt>
      <trkpt lat="43.01299833" lon="-7.26597833">
        <ele>828.0</ele>
        <time>2022-06-19T13:50:45.481Z</time>
      </trkpt>
      <trkpt lat="43.01301" lon="-7.26600833">
        <ele>828.0</ele>
        <time>2022-06-19T13:50:46.487Z</time>
      </trkpt>
      <trkpt lat="43.01301" lon="-7.26600833">
        <ele>828.0</ele>
        <time>2022-06-19T13:50:47.487Z</time>
      </trkpt>
      <trkpt lat="43.01302833" lon="-7.26606">
        <ele>828.0</ele>
        <time>2022-06-19T13:50:48.469Z</time>
      </trkpt>
      <trkpt lat="43.01303833" lon="-7.266085">
        <ele>828.0</ele>
        <time>2022-06-19T13:50:49.477Z</time>
      </trkpt>
      <trkpt lat="43.01304667" lon="-7.26611167">
        <ele>828.0</ele>
        <time>2022-06-19T13:50:50.484Z</time>
      </trkpt>
      <trkpt lat="43.01304667" lon="-7.26611167">
        <ele>828.0</ele>
        <time>2022-06-19T13:50:51.488Z</time>
      </trkpt>
      <trkpt lat="43.01307167" lon="-7.266165">
        <ele>828.0</ele>
        <time>2022-06-19T13:50:52.487Z</time>
      </trkpt>
      <trkpt lat="43.013085" lon="-7.26619">
        <ele>828.0</ele>
        <time>2022-06-19T13:50:53.477Z</time>
      </trkpt>
      <trkpt lat="43.01309667" lon="-7.26621333">
        <ele>828.0</ele>
        <time>2022-06-19T13:50:54.460Z</time>
      </trkpt>
      <trkpt lat="43.01310833" lon="-7.26623833">
        <ele>828.0</ele>
        <time>2022-06-19T13:50:55.453Z</time>
      </trkpt>
      <trkpt lat="43.01310833" lon="-7.26623833">
        <ele>828.0</ele>
        <time>2022-06-19T13:50:56.482Z</time>
      </trkpt>
      <trkpt lat="43.01312333" lon="-7.26627833">
        <ele>828.0</ele>
        <time>2022-06-19T13:50:57.455Z</time>
      </trkpt>
      <trkpt lat="43.01312333" lon="-7.26627833">
        <ele>828.0</ele>
        <time>2022-06-19T13:50:58.490Z</time>
      </trkpt>
      <trkpt lat="43.01313333" lon="-7.26631">
        <ele>828.0</ele>
        <time>2022-06-19T13:50:59.477Z</time>
      </trkpt>
      <trkpt lat="43.01314" lon="-7.266325">
        <ele>829.0</ele>
        <time>2022-06-19T13:51:00.486Z</time>
      </trkpt>
      <trkpt lat="43.01314667" lon="-7.266345">
        <ele>829.0</ele>
        <time>2022-06-19T13:51:01.483Z</time>
      </trkpt>
      <trkpt lat="43.01314667" lon="-7.266345">
        <ele>829.0</ele>
        <time>2022-06-19T13:51:02.476Z</time>
      </trkpt>
      <trkpt lat="43.01316333" lon="-7.266385">
        <ele>829.0</ele>
        <time>2022-06-19T13:51:03.460Z</time>
      </trkpt>
      <trkpt lat="43.01316333" lon="-7.266385">
        <ele>829.0</ele>
        <time>2022-06-19T13:51:04.479Z</time>
      </trkpt>
      <trkpt lat="43.01318" lon="-7.26642667">
        <ele>830.0</ele>
        <time>2022-06-19T13:51:05.473Z</time>
      </trkpt>
      <trkpt lat="43.01318" lon="-7.26642667">
        <ele>830.0</ele>
        <time>2022-06-19T13:51:06.465Z</time>
      </trkpt>
      <trkpt lat="43.01320167" lon="-7.26646833">
        <ele>830.0</ele>
        <time>2022-06-19T13:51:07.491Z</time>
      </trkpt>
      <trkpt lat="43.01320167" lon="-7.26646833">
        <ele>830.0</ele>
        <time>2022-06-19T13:51:08.489Z</time>
      </trkpt>
      <trkpt lat="43.01321667" lon="-7.26651333">
        <ele>831.0</ele>
        <time>2022-06-19T13:51:09.468Z</time>
      </trkpt>
      <trkpt lat="43.01321667" lon="-7.26651333">
        <ele>831.0</ele>
        <time>2022-06-19T13:51:10.454Z</time>
      </trkpt>
      <trkpt lat="43.01323833" lon="-7.266555">
        <ele>832.0</ele>
        <time>2022-06-19T13:51:11.493Z</time>
      </trkpt>
      <trkpt lat="43.01323833" lon="-7.266555">
        <ele>832.0</ele>
        <time>2022-06-19T13:51:12.487Z</time>
      </trkpt>
      <trkpt lat="43.01325333" lon="-7.26659333">
        <ele>832.0</ele>
        <time>2022-06-19T13:51:13.477Z</time>
      </trkpt>
      <trkpt lat="43.01325333" lon="-7.26659333">
        <ele>832.0</ele>
        <time>2022-06-19T13:51:14.487Z</time>
      </trkpt>
      <trkpt lat="43.013265" lon="-7.26662833">
        <ele>832.0</ele>
        <time>2022-06-19T13:51:15.485Z</time>
      </trkpt>
      <trkpt lat="43.01327667" lon="-7.26664833">
        <ele>833.0</ele>
        <time>2022-06-19T13:51:16.466Z</time>
      </trkpt>
      <trkpt lat="43.01327667" lon="-7.26664833">
        <ele>833.0</ele>
        <time>2022-06-19T13:51:17.451Z</time>
      </trkpt>
      <trkpt lat="43.013295" lon="-7.26668833">
        <ele>833.0</ele>
        <time>2022-06-19T13:51:18.481Z</time>
      </trkpt>
      <trkpt lat="43.01330333" lon="-7.26671167">
        <ele>834.0</ele>
        <time>2022-06-19T13:51:19.489Z</time>
      </trkpt>
      <trkpt lat="43.01330333" lon="-7.26671167">
        <ele>834.0</ele>
        <time>2022-06-19T13:51:20.468Z</time>
      </trkpt>
      <trkpt lat="43.01331833" lon="-7.26675167">
        <ele>834.0</ele>
        <time>2022-06-19T13:51:21.455Z</time>
      </trkpt>
      <trkpt lat="43.013325" lon="-7.26677167">
        <ele>834.0</ele>
        <time>2022-06-19T13:51:22.490Z</time>
      </trkpt>
      <trkpt lat="43.01333333" lon="-7.26679333">
        <ele>835.0</ele>
        <time>2022-06-19T13:51:23.495Z</time>
      </trkpt>
      <trkpt lat="43.01334333" lon="-7.266815">
        <ele>835.0</ele>
        <time>2022-06-19T13:51:24.469Z</time>
      </trkpt>
      <trkpt lat="43.01335" lon="-7.26683667">
        <ele>835.0</ele>
        <time>2022-06-19T13:51:25.457Z</time>
      </trkpt>
      <trkpt lat="43.01335" lon="-7.26683667">
        <ele>835.0</ele>
        <time>2022-06-19T13:51:26.481Z</time>
      </trkpt>
      <trkpt lat="43.01336167" lon="-7.266865">
        <ele>836.0</ele>
        <time>2022-06-19T13:51:27.458Z</time>
      </trkpt>
      <trkpt lat="43.01336167" lon="-7.266865">
        <ele>836.0</ele>
        <time>2022-06-19T13:51:28.459Z</time>
      </trkpt>
      <trkpt lat="43.01337833" lon="-7.26691">
        <ele>836.0</ele>
        <time>2022-06-19T13:51:29.479Z</time>
      </trkpt>
      <trkpt lat="43.01337833" lon="-7.26691">
        <ele>836.0</ele>
        <time>2022-06-19T13:51:30.452Z</time>
      </trkpt>
      <trkpt lat="43.01339667" lon="-7.266955">
        <ele>836.0</ele>
        <time>2022-06-19T13:51:31.455Z</time>
      </trkpt>
      <trkpt lat="43.01339667" lon="-7.266955">
        <ele>836.0</ele>
        <time>2022-06-19T13:51:32.466Z</time>
      </trkpt>
      <trkpt lat="43.01341" lon="-7.267">
        <ele>836.0</ele>
        <time>2022-06-19T13:51:33.481Z</time>
      </trkpt>
      <trkpt lat="43.01341833" lon="-7.26702333">
        <ele>837.0</ele>
        <time>2022-06-19T13:51:34.450Z</time>
      </trkpt>
      <trkpt lat="43.01342333" lon="-7.26704667">
        <ele>837.0</ele>
        <time>2022-06-19T13:51:35.488Z</time>
      </trkpt>
      <trkpt lat="43.01342333" lon="-7.26704667">
        <ele>837.0</ele>
        <time>2022-06-19T13:51:36.457Z</time>
      </trkpt>
      <trkpt lat="43.01344" lon="-7.26709167">
        <ele>837.0</ele>
        <time>2022-06-19T13:51:37.463Z</time>
      </trkpt>
      <trkpt lat="43.01344" lon="-7.26709167">
        <ele>837.0</ele>
        <time>2022-06-19T13:51:38.465Z</time>
      </trkpt>
      <trkpt lat="43.01345833" lon="-7.26713333">
        <ele>838.0</ele>
        <time>2022-06-19T13:51:39.492Z</time>
      </trkpt>
      <trkpt lat="43.01345833" lon="-7.26713333">
        <ele>838.0</ele>
        <time>2022-06-19T13:51:40.458Z</time>
      </trkpt>
      <trkpt lat="43.01348333" lon="-7.26717167">
        <ele>838.0</ele>
        <time>2022-06-19T13:51:41.455Z</time>
      </trkpt>
      <trkpt lat="43.01349833" lon="-7.26718833">
        <ele>838.0</ele>
        <time>2022-06-19T13:51:42.460Z</time>
      </trkpt>
      <trkpt lat="43.01351333" lon="-7.26720667">
        <ele>839.0</ele>
        <time>2022-06-19T13:51:43.453Z</time>
      </trkpt>
      <trkpt lat="43.01351333" lon="-7.26720667">
        <ele>839.0</ele>
        <time>2022-06-19T13:51:44.475Z</time>
      </trkpt>
      <trkpt lat="43.01354167" lon="-7.26724167">
        <ele>839.0</ele>
        <time>2022-06-19T13:51:45.488Z</time>
      </trkpt>
      <trkpt lat="43.01354167" lon="-7.26724167">
        <ele>839.0</ele>
        <time>2022-06-19T13:51:46.460Z</time>
      </trkpt>
      <trkpt lat="43.01357833" lon="-7.26727333">
        <ele>838.0</ele>
        <time>2022-06-19T13:51:47.487Z</time>
      </trkpt>
      <trkpt lat="43.01357833" lon="-7.26727333">
        <ele>838.0</ele>
        <time>2022-06-19T13:51:48.489Z</time>
      </trkpt>
      <trkpt lat="43.013605" lon="-7.26730667">
        <ele>838.0</ele>
        <time>2022-06-19T13:51:49.469Z</time>
      </trkpt>
      <trkpt lat="43.013605" lon="-7.26730667">
        <ele>838.0</ele>
        <time>2022-06-19T13:51:50.451Z</time>
      </trkpt>
      <trkpt lat="43.01363833" lon="-7.26735167">
        <ele>838.0</ele>
        <time>2022-06-19T13:51:51.467Z</time>
      </trkpt>
      <trkpt lat="43.01363833" lon="-7.26735167">
        <ele>838.0</ele>
        <time>2022-06-19T13:51:52.459Z</time>
      </trkpt>
      <trkpt lat="43.013685" lon="-7.26739333">
        <ele>838.0</ele>
        <time>2022-06-19T13:51:53.457Z</time>
      </trkpt>
      <trkpt lat="43.01371167" lon="-7.26741167">
        <ele>838.0</ele>
        <time>2022-06-19T13:51:54.477Z</time>
      </trkpt>
      <trkpt lat="43.013735" lon="-7.26743">
        <ele>838.0</ele>
        <time>2022-06-19T13:51:55.489Z</time>
      </trkpt>
      <trkpt lat="43.013735" lon="-7.26743">
        <ele>838.0</ele>
        <time>2022-06-19T13:51:56.459Z</time>
      </trkpt>
      <trkpt lat="43.01378" lon="-7.267465">
        <ele>838.0</ele>
        <time>2022-06-19T13:51:57.455Z</time>
      </trkpt>
      <trkpt lat="43.01378" lon="-7.267465">
        <ele>838.0</ele>
        <time>2022-06-19T13:51:58.488Z</time>
      </trkpt>
      <trkpt lat="43.01382333" lon="-7.26749667">
        <ele>838.0</ele>
        <time>2022-06-19T13:51:59.483Z</time>
      </trkpt>
      <trkpt lat="43.01382333" lon="-7.26749667">
        <ele>838.0</ele>
        <time>2022-06-19T13:52:00.460Z</time>
      </trkpt>
      <trkpt lat="43.013865" lon="-7.26752333">
        <ele>838.0</ele>
        <time>2022-06-19T13:52:01.467Z</time>
      </trkpt>
      <trkpt lat="43.013865" lon="-7.26752333">
        <ele>838.0</ele>
        <time>2022-06-19T13:52:02.468Z</time>
      </trkpt>
      <trkpt lat="43.01390333" lon="-7.26755667">
        <ele>838.0</ele>
        <time>2022-06-19T13:52:03.450Z</time>
      </trkpt>
      <trkpt lat="43.01390333" lon="-7.26755667">
        <ele>838.0</ele>
        <time>2022-06-19T13:52:04.490Z</time>
      </trkpt>
      <trkpt lat="43.01393833" lon="-7.26759333">
        <ele>838.0</ele>
        <time>2022-06-19T13:52:05.477Z</time>
      </trkpt>
      <trkpt lat="43.01393833" lon="-7.26759333">
        <ele>838.0</ele>
        <time>2022-06-19T13:52:06.456Z</time>
      </trkpt>
      <trkpt lat="43.01396833" lon="-7.26762333">
        <ele>838.0</ele>
        <time>2022-06-19T13:52:07.466Z</time>
      </trkpt>
      <trkpt lat="43.01396833" lon="-7.26762333">
        <ele>838.0</ele>
        <time>2022-06-19T13:52:08.454Z</time>
      </trkpt>
      <trkpt lat="43.01400167" lon="-7.26765333">
        <ele>838.0</ele>
        <time>2022-06-19T13:52:09.453Z</time>
      </trkpt>
      <trkpt lat="43.01400167" lon="-7.26765333">
        <ele>838.0</ele>
        <time>2022-06-19T13:52:10.462Z</time>
      </trkpt>
      <trkpt lat="43.01403333" lon="-7.267695">
        <ele>838.0</ele>
        <time>2022-06-19T13:52:11.483Z</time>
      </trkpt>
      <trkpt lat="43.01403333" lon="-7.267695">
        <ele>838.0</ele>
        <time>2022-06-19T13:52:12.489Z</time>
      </trkpt>
      <trkpt lat="43.01407" lon="-7.26773">
        <ele>838.0</ele>
        <time>2022-06-19T13:52:13.473Z</time>
      </trkpt>
      <trkpt lat="43.01409" lon="-7.26775">
        <ele>838.0</ele>
        <time>2022-06-19T13:52:14.474Z</time>
      </trkpt>
      <trkpt lat="43.01411" lon="-7.26777">
        <ele>838.0</ele>
        <time>2022-06-19T13:52:15.481Z</time>
      </trkpt>
      <trkpt lat="43.01411" lon="-7.26777">
        <ele>838.0</ele>
        <time>2022-06-19T13:52:16.450Z</time>
      </trkpt>
      <trkpt lat="43.01415" lon="-7.267805">
        <ele>838.0</ele>
        <time>2022-06-19T13:52:17.471Z</time>
      </trkpt>
      <trkpt lat="43.01415" lon="-7.267805">
        <ele>838.0</ele>
        <time>2022-06-19T13:52:18.488Z</time>
      </trkpt>
      <trkpt lat="43.01419" lon="-7.26784667">
        <ele>838.0</ele>
        <time>2022-06-19T13:52:19.493Z</time>
      </trkpt>
      <trkpt lat="43.01419" lon="-7.26784667">
        <ele>838.0</ele>
        <time>2022-06-19T13:52:20.479Z</time>
      </trkpt>
      <trkpt lat="43.01422667" lon="-7.267895">
        <ele>838.0</ele>
        <time>2022-06-19T13:52:21.462Z</time>
      </trkpt>
      <trkpt lat="43.01422667" lon="-7.267895">
        <ele>838.0</ele>
        <time>2022-06-19T13:52:22.458Z</time>
      </trkpt>
      <trkpt lat="43.01426667" lon="-7.26793833">
        <ele>838.0</ele>
        <time>2022-06-19T13:52:23.479Z</time>
      </trkpt>
      <trkpt lat="43.01426667" lon="-7.26793833">
        <ele>838.0</ele>
        <time>2022-06-19T13:52:24.478Z</time>
      </trkpt>
      <trkpt lat="43.01430167" lon="-7.26798333">
        <ele>838.0</ele>
        <time>2022-06-19T13:52:25.452Z</time>
      </trkpt>
      <trkpt lat="43.01430167" lon="-7.26798333">
        <ele>838.0</ele>
        <time>2022-06-19T13:52:26.466Z</time>
      </trkpt>
      <trkpt lat="43.014335" lon="-7.268035">
        <ele>838.0</ele>
        <time>2022-06-19T13:52:27.452Z</time>
      </trkpt>
      <trkpt lat="43.01435" lon="-7.26806333">
        <ele>838.0</ele>
        <time>2022-06-19T13:52:28.481Z</time>
      </trkpt>
      <trkpt lat="43.01435" lon="-7.26806333">
        <ele>838.0</ele>
        <time>2022-06-19T13:52:29.467Z</time>
      </trkpt>
      <trkpt lat="43.01438" lon="-7.26811333">
        <ele>839.0</ele>
        <time>2022-06-19T13:52:30.494Z</time>
      </trkpt>
      <trkpt lat="43.01438" lon="-7.26811333">
        <ele>839.0</ele>
        <time>2022-06-19T13:52:31.482Z</time>
      </trkpt>
      <trkpt lat="43.01441333" lon="-7.26815833">
        <ele>839.0</ele>
        <time>2022-06-19T13:52:32.467Z</time>
      </trkpt>
      <trkpt lat="43.01441333" lon="-7.26815833">
        <ele>839.0</ele>
        <time>2022-06-19T13:52:33.459Z</time>
      </trkpt>
      <trkpt lat="43.01444833" lon="-7.26820333">
        <ele>839.0</ele>
        <time>2022-06-19T13:52:34.474Z</time>
      </trkpt>
      <trkpt lat="43.014465" lon="-7.26822667">
        <ele>839.0</ele>
        <time>2022-06-19T13:52:35.461Z</time>
      </trkpt>
      <trkpt lat="43.01448167" lon="-7.26824833">
        <ele>839.0</ele>
        <time>2022-06-19T13:52:36.465Z</time>
      </trkpt>
      <trkpt lat="43.01448167" lon="-7.26824833">
        <ele>839.0</ele>
        <time>2022-06-19T13:52:37.487Z</time>
      </trkpt>
      <trkpt lat="43.014515" lon="-7.268295">
        <ele>840.0</ele>
        <time>2022-06-19T13:52:38.466Z</time>
      </trkpt>
      <trkpt lat="43.01453" lon="-7.26832">
        <ele>840.0</ele>
        <time>2022-06-19T13:52:39.482Z</time>
      </trkpt>
      <trkpt lat="43.01453" lon="-7.26832">
        <ele>840.0</ele>
        <time>2022-06-19T13:52:40.452Z</time>
      </trkpt>
      <trkpt lat="43.01456833" lon="-7.268365">
        <ele>840.0</ele>
        <time>2022-06-19T13:52:41.478Z</time>
      </trkpt>
      <trkpt lat="43.01456833" lon="-7.268365">
        <ele>840.0</ele>
        <time>2022-06-19T13:52:42.463Z</time>
      </trkpt>
      <trkpt lat="43.01460667" lon="-7.26841167">
        <ele>840.0</ele>
        <time>2022-06-19T13:52:43.483Z</time>
      </trkpt>
      <trkpt lat="43.01460667" lon="-7.26841167">
        <ele>840.0</ele>
        <time>2022-06-19T13:52:44.489Z</time>
      </trkpt>
      <trkpt lat="43.01464333" lon="-7.26846833">
        <ele>840.0</ele>
        <time>2022-06-19T13:52:45.480Z</time>
      </trkpt>
      <trkpt lat="43.01464333" lon="-7.26846833">
        <ele>840.0</ele>
        <time>2022-06-19T13:52:46.460Z</time>
      </trkpt>
      <trkpt lat="43.01468167" lon="-7.26851667">
        <ele>840.0</ele>
        <time>2022-06-19T13:52:47.450Z</time>
      </trkpt>
      <trkpt lat="43.01468167" lon="-7.26851667">
        <ele>840.0</ele>
        <time>2022-06-19T13:52:48.470Z</time>
      </trkpt>
      <trkpt lat="43.01471833" lon="-7.26858167">
        <ele>841.0</ele>
        <time>2022-06-19T13:52:49.455Z</time>
      </trkpt>
      <trkpt lat="43.01471833" lon="-7.26858167">
        <ele>841.0</ele>
        <time>2022-06-19T13:52:50.478Z</time>
      </trkpt>
      <trkpt lat="43.01476167" lon="-7.26863333">
        <ele>841.0</ele>
        <time>2022-06-19T13:52:51.451Z</time>
      </trkpt>
      <trkpt lat="43.01476167" lon="-7.26863333">
        <ele>841.0</ele>
        <time>2022-06-19T13:52:52.488Z</time>
      </trkpt>
      <trkpt lat="43.01480167" lon="-7.26868333">
        <ele>841.0</ele>
        <time>2022-06-19T13:52:53.487Z</time>
      </trkpt>
      <trkpt lat="43.01481833" lon="-7.26871333">
        <ele>841.0</ele>
        <time>2022-06-19T13:52:54.477Z</time>
      </trkpt>
      <trkpt lat="43.01483667" lon="-7.26873667">
        <ele>841.0</ele>
        <time>2022-06-19T13:52:55.479Z</time>
      </trkpt>
      <trkpt lat="43.01483667" lon="-7.26873667">
        <ele>841.0</ele>
        <time>2022-06-19T13:52:56.464Z</time>
      </trkpt>
      <trkpt lat="43.01487167" lon="-7.26877667">
        <ele>842.0</ele>
        <time>2022-06-19T13:52:57.490Z</time>
      </trkpt>
      <trkpt lat="43.01489" lon="-7.26880167">
        <ele>842.0</ele>
        <time>2022-06-19T13:52:58.453Z</time>
      </trkpt>
      <trkpt lat="43.01489" lon="-7.26880167">
        <ele>842.0</ele>
        <time>2022-06-19T13:52:59.473Z</time>
      </trkpt>
      <trkpt lat="43.01493" lon="-7.26884333">
        <ele>842.0</ele>
        <time>2022-06-19T13:53:00.454Z</time>
      </trkpt>
      <trkpt lat="43.01495" lon="-7.268865">
        <ele>843.0</ele>
        <time>2022-06-19T13:53:01.471Z</time>
      </trkpt>
      <trkpt lat="43.01495" lon="-7.268865">
        <ele>843.0</ele>
        <time>2022-06-19T13:53:02.458Z</time>
      </trkpt>
      <trkpt lat="43.01499" lon="-7.26891">
        <ele>843.0</ele>
        <time>2022-06-19T13:53:03.489Z</time>
      </trkpt>
      <trkpt lat="43.01501167" lon="-7.26893">
        <ele>842.0</ele>
        <time>2022-06-19T13:53:04.467Z</time>
      </trkpt>
      <trkpt lat="43.01501167" lon="-7.26893">
        <ele>842.0</ele>
        <time>2022-06-19T13:53:05.473Z</time>
      </trkpt>
      <trkpt lat="43.01505167" lon="-7.26896333">
        <ele>842.0</ele>
        <time>2022-06-19T13:53:06.452Z</time>
      </trkpt>
      <trkpt lat="43.01507" lon="-7.26898167">
        <ele>843.0</ele>
        <time>2022-06-19T13:53:07.484Z</time>
      </trkpt>
      <trkpt lat="43.01507" lon="-7.26898167">
        <ele>843.0</ele>
        <time>2022-06-19T13:53:08.476Z</time>
      </trkpt>
      <trkpt lat="43.01510667" lon="-7.26901833">
        <ele>842.0</ele>
        <time>2022-06-19T13:53:09.457Z</time>
      </trkpt>
      <trkpt lat="43.01510667" lon="-7.26901833">
        <ele>842.0</ele>
        <time>2022-06-19T13:53:10.489Z</time>
      </trkpt>
      <trkpt lat="43.01514333" lon="-7.26906">
        <ele>842.0</ele>
        <time>2022-06-19T13:53:11.469Z</time>
      </trkpt>
      <trkpt lat="43.01516167" lon="-7.26908">
        <ele>842.0</ele>
        <time>2022-06-19T13:53:12.458Z</time>
      </trkpt>
      <trkpt lat="43.01516167" lon="-7.26908">
        <ele>842.0</ele>
        <time>2022-06-19T13:53:13.479Z</time>
      </trkpt>
      <trkpt lat="43.01520167" lon="-7.26911167">
        <ele>842.0</ele>
        <time>2022-06-19T13:53:14.472Z</time>
      </trkpt>
      <trkpt lat="43.01520167" lon="-7.26911167">
        <ele>842.0</ele>
        <time>2022-06-19T13:53:15.478Z</time>
      </trkpt>
      <trkpt lat="43.015235" lon="-7.26916">
        <ele>842.0</ele>
        <time>2022-06-19T13:53:16.460Z</time>
      </trkpt>
      <trkpt lat="43.015235" lon="-7.26916">
        <ele>842.0</ele>
        <time>2022-06-19T13:53:17.465Z</time>
      </trkpt>
      <trkpt lat="43.01527" lon="-7.269205">
        <ele>842.0</ele>
        <time>2022-06-19T13:53:18.490Z</time>
      </trkpt>
      <trkpt lat="43.01529" lon="-7.26922667">
        <ele>842.0</ele>
        <time>2022-06-19T13:53:19.452Z</time>
      </trkpt>
      <trkpt lat="43.01529" lon="-7.26922667">
        <ele>842.0</ele>
        <time>2022-06-19T13:53:20.473Z</time>
      </trkpt>
      <trkpt lat="43.01533" lon="-7.26926167">
        <ele>842.0</ele>
        <time>2022-06-19T13:53:21.456Z</time>
      </trkpt>
      <trkpt lat="43.01533" lon="-7.26926167">
        <ele>842.0</ele>
        <time>2022-06-19T13:53:22.460Z</time>
      </trkpt>
      <trkpt lat="43.01536667" lon="-7.26929833">
        <ele>842.0</ele>
        <time>2022-06-19T13:53:23.485Z</time>
      </trkpt>
      <trkpt lat="43.01538167" lon="-7.26931833">
        <ele>842.0</ele>
        <time>2022-06-19T13:53:24.480Z</time>
      </trkpt>
      <trkpt lat="43.0154" lon="-7.269335">
        <ele>842.0</ele>
        <time>2022-06-19T13:53:25.469Z</time>
      </trkpt>
      <trkpt lat="43.0154" lon="-7.269335">
        <ele>842.0</ele>
        <time>2022-06-19T13:53:26.486Z</time>
      </trkpt>
      <trkpt lat="43.01543167" lon="-7.26938667">
        <ele>842.0</ele>
        <time>2022-06-19T13:53:27.468Z</time>
      </trkpt>
      <trkpt lat="43.01543167" lon="-7.26938667">
        <ele>842.0</ele>
        <time>2022-06-19T13:53:28.468Z</time>
      </trkpt>
      <trkpt lat="43.01546667" lon="-7.26942833">
        <ele>842.0</ele>
        <time>2022-06-19T13:53:29.463Z</time>
      </trkpt>
      <trkpt lat="43.01546667" lon="-7.26942833">
        <ele>842.0</ele>
        <time>2022-06-19T13:53:30.488Z</time>
      </trkpt>
      <trkpt lat="43.01550333" lon="-7.26947167">
        <ele>842.0</ele>
        <time>2022-06-19T13:53:31.464Z</time>
      </trkpt>
      <trkpt lat="43.01552167" lon="-7.26949167">
        <ele>842.0</ele>
        <time>2022-06-19T13:53:32.451Z</time>
      </trkpt>
      <trkpt lat="43.01552167" lon="-7.26949167">
        <ele>842.0</ele>
        <time>2022-06-19T13:53:33.480Z</time>
      </trkpt>
      <trkpt lat="43.01555667" lon="-7.26953167">
        <ele>842.0</ele>
        <time>2022-06-19T13:53:34.467Z</time>
      </trkpt>
      <trkpt lat="43.01555667" lon="-7.26953167">
        <ele>842.0</ele>
        <time>2022-06-19T13:53:35.489Z</time>
      </trkpt>
      <trkpt lat="43.01559" lon="-7.26957167">
        <ele>842.0</ele>
        <time>2022-06-19T13:53:36.492Z</time>
      </trkpt>
      <trkpt lat="43.01560667" lon="-7.26959167">
        <ele>843.0</ele>
        <time>2022-06-19T13:53:37.467Z</time>
      </trkpt>
      <trkpt lat="43.01560667" lon="-7.26959167">
        <ele>843.0</ele>
        <time>2022-06-19T13:53:38.460Z</time>
      </trkpt>
      <trkpt lat="43.01564833" lon="-7.26962667">
        <ele>842.0</ele>
        <time>2022-06-19T13:53:39.456Z</time>
      </trkpt>
      <trkpt lat="43.01564833" lon="-7.26962667">
        <ele>842.0</ele>
        <time>2022-06-19T13:53:40.473Z</time>
      </trkpt>
      <trkpt lat="43.01568833" lon="-7.26966333">
        <ele>842.0</ele>
        <time>2022-06-19T13:53:41.457Z</time>
      </trkpt>
      <trkpt lat="43.01568833" lon="-7.26966333">
        <ele>842.0</ele>
        <time>2022-06-19T13:53:42.479Z</time>
      </trkpt>
      <trkpt lat="43.01573167" lon="-7.26969667">
        <ele>842.0</ele>
        <time>2022-06-19T13:53:43.477Z</time>
      </trkpt>
      <trkpt lat="43.01573167" lon="-7.26969667">
        <ele>842.0</ele>
        <time>2022-06-19T13:53:44.469Z</time>
      </trkpt>
      <trkpt lat="43.01577167" lon="-7.26972833">
        <ele>842.0</ele>
        <time>2022-06-19T13:53:45.457Z</time>
      </trkpt>
      <trkpt lat="43.01577167" lon="-7.26972833">
        <ele>842.0</ele>
        <time>2022-06-19T13:53:46.476Z</time>
      </trkpt>
      <trkpt lat="43.01581167" lon="-7.26976667">
        <ele>842.0</ele>
        <time>2022-06-19T13:53:47.457Z</time>
      </trkpt>
      <trkpt lat="43.015835" lon="-7.26978333">
        <ele>843.0</ele>
        <time>2022-06-19T13:53:48.468Z</time>
      </trkpt>
      <trkpt lat="43.01585667" lon="-7.26980167">
        <ele>843.0</ele>
        <time>2022-06-19T13:53:49.462Z</time>
      </trkpt>
      <trkpt lat="43.01585667" lon="-7.26980167">
        <ele>843.0</ele>
        <time>2022-06-19T13:53:50.450Z</time>
      </trkpt>
      <trkpt lat="43.01590167" lon="-7.26982333">
        <ele>843.0</ele>
        <time>2022-06-19T13:53:51.480Z</time>
      </trkpt>
      <trkpt lat="43.01590167" lon="-7.26982333">
        <ele>843.0</ele>
        <time>2022-06-19T13:53:52.476Z</time>
      </trkpt>
      <trkpt lat="43.01595167" lon="-7.26986333">
        <ele>844.0</ele>
        <time>2022-06-19T13:53:53.481Z</time>
      </trkpt>
      <trkpt lat="43.01595167" lon="-7.26986333">
        <ele>844.0</ele>
        <time>2022-06-19T13:53:54.482Z</time>
      </trkpt>
      <trkpt lat="43.01599333" lon="-7.269915">
        <ele>845.0</ele>
        <time>2022-06-19T13:53:55.457Z</time>
      </trkpt>
      <trkpt lat="43.01599333" lon="-7.269915">
        <ele>845.0</ele>
        <time>2022-06-19T13:53:56.459Z</time>
      </trkpt>
      <trkpt lat="43.016045" lon="-7.26995333">
        <ele>846.0</ele>
        <time>2022-06-19T13:53:57.480Z</time>
      </trkpt>
      <trkpt lat="43.01607167" lon="-7.26997167">
        <ele>846.0</ele>
        <time>2022-06-19T13:53:58.486Z</time>
      </trkpt>
      <trkpt lat="43.01607167" lon="-7.26997167">
        <ele>846.0</ele>
        <time>2022-06-19T13:53:59.489Z</time>
      </trkpt>
      <trkpt lat="43.01612833" lon="-7.27000333">
        <ele>846.0</ele>
        <time>2022-06-19T13:54:00.488Z</time>
      </trkpt>
      <trkpt lat="43.01615667" lon="-7.27002167">
        <ele>846.0</ele>
        <time>2022-06-19T13:54:01.472Z</time>
      </trkpt>
      <trkpt lat="43.01615667" lon="-7.27002167">
        <ele>846.0</ele>
        <time>2022-06-19T13:54:02.487Z</time>
      </trkpt>
      <trkpt lat="43.016215" lon="-7.270065">
        <ele>846.0</ele>
        <time>2022-06-19T13:54:03.477Z</time>
      </trkpt>
      <trkpt lat="43.01624333" lon="-7.27008833">
        <ele>846.0</ele>
        <time>2022-06-19T13:54:04.456Z</time>
      </trkpt>
      <trkpt lat="43.01624333" lon="-7.27008833">
        <ele>846.0</ele>
        <time>2022-06-19T13:54:05.450Z</time>
      </trkpt>
      <trkpt lat="43.01630333" lon="-7.27013333">
        <ele>847.0</ele>
        <time>2022-06-19T13:54:06.722Z</time>
      </trkpt>
      <trkpt lat="43.01630333" lon="-7.27013333">
        <ele>847.0</ele>
        <time>2022-06-19T13:54:07.475Z</time>
      </trkpt>
      <trkpt lat="43.01637167" lon="-7.27017833">
        <ele>847.0</ele>
        <time>2022-06-19T13:54:08.464Z</time>
      </trkpt>
      <trkpt lat="43.01640667" lon="-7.27019833">
        <ele>847.0</ele>
        <time>2022-06-19T13:54:09.487Z</time>
      </trkpt>
      <trkpt lat="43.01644333" lon="-7.27022">
        <ele>846.0</ele>
        <time>2022-06-19T13:54:10.478Z</time>
      </trkpt>
      <trkpt lat="43.01644333" lon="-7.27022">
        <ele>846.0</ele>
        <time>2022-06-19T13:54:11.454Z</time>
      </trkpt>
      <trkpt lat="43.01652" lon="-7.27026833">
        <ele>846.0</ele>
        <time>2022-06-19T13:54:12.485Z</time>
      </trkpt>
      <trkpt lat="43.01656167" lon="-7.270295">
        <ele>846.0</ele>
        <time>2022-06-19T13:54:13.486Z</time>
      </trkpt>
      <trkpt lat="43.01656167" lon="-7.270295">
        <ele>846.0</ele>
        <time>2022-06-19T13:54:14.459Z</time>
      </trkpt>
      <trkpt lat="43.01665" lon="-7.27034833">
        <ele>846.0</ele>
        <time>2022-06-19T13:54:15.465Z</time>
      </trkpt>
      <trkpt lat="43.01665" lon="-7.27034833">
        <ele>846.0</ele>
        <time>2022-06-19T13:54:16.480Z</time>
      </trkpt>
      <trkpt lat="43.01674333" lon="-7.27039667">
        <ele>846.0</ele>
        <time>2022-06-19T13:54:17.469Z</time>
      </trkpt>
      <trkpt lat="43.01678833" lon="-7.27042333">
        <ele>846.0</ele>
        <time>2022-06-19T13:54:18.454Z</time>
      </trkpt>
      <trkpt lat="43.01682833" lon="-7.27046">
        <ele>846.0</ele>
        <time>2022-06-19T13:54:19.464Z</time>
      </trkpt>
      <trkpt lat="43.01682833" lon="-7.27046">
        <ele>846.0</ele>
        <time>2022-06-19T13:54:20.461Z</time>
      </trkpt>
      <trkpt lat="43.01686167" lon="-7.27055833">
        <ele>847.0</ele>
        <time>2022-06-19T13:54:21.481Z</time>
      </trkpt>
      <trkpt lat="43.01686167" lon="-7.27055833">
        <ele>847.0</ele>
        <time>2022-06-19T13:54:22.459Z</time>
      </trkpt>
      <trkpt lat="43.016885" lon="-7.27067">
        <ele>847.0</ele>
        <time>2022-06-19T13:54:23.492Z</time>
      </trkpt>
      <trkpt lat="43.0169" lon="-7.27073">
        <ele>847.0</ele>
        <time>2022-06-19T13:54:24.457Z</time>
      </trkpt>
      <trkpt lat="43.0169" lon="-7.27073">
        <ele>847.0</ele>
        <time>2022-06-19T13:54:25.470Z</time>
      </trkpt>
      <trkpt lat="43.01694167" lon="-7.270855">
        <ele>846.0</ele>
        <time>2022-06-19T13:54:26.456Z</time>
      </trkpt>
      <trkpt lat="43.01694167" lon="-7.270855">
        <ele>846.0</ele>
        <time>2022-06-19T13:54:27.451Z</time>
      </trkpt>
      <trkpt lat="43.01697667" lon="-7.27093333">
        <ele>846.0</ele>
        <time>2022-06-19T13:54:28.486Z</time>
      </trkpt>
      <trkpt lat="43.01697667" lon="-7.27093333">
        <ele>846.0</ele>
        <time>2022-06-19T13:54:29.474Z</time>
      </trkpt>
      <trkpt lat="43.01698833" lon="-7.27097333">
        <ele>845.0</ele>
        <time>2022-06-19T13:54:30.455Z</time>
      </trkpt>
      <trkpt lat="43.016985" lon="-7.27098333">
        <ele>845.0</ele>
        <time>2022-06-19T13:54:31.476Z</time>
      </trkpt>
      <trkpt lat="43.016985" lon="-7.27098333">
        <ele>845.0</ele>
        <time>2022-06-19T13:54:32.472Z</time>
      </trkpt>
      <trkpt lat="43.01697833" lon="-7.270985">
        <ele>845.0</ele>
        <time>2022-06-19T13:54:33.484Z</time>
      </trkpt>
      <trkpt lat="43.01697333" lon="-7.27098333">
        <ele>845.0</ele>
        <time>2022-06-19T13:54:34.464Z</time>
      </trkpt>
      <trkpt lat="43.01693833" lon="-7.27088667">
        <ele>845.0</ele>
        <time>2022-06-19T13:54:41.446Z</time>
      </trkpt>
      <trkpt lat="43.01693833" lon="-7.27088667">
        <ele>845.0</ele>
        <time>2022-06-19T13:54:42.443Z</time>
      </trkpt>
      <trkpt lat="43.01692333" lon="-7.27083167">
        <ele>845.0</ele>
        <time>2022-06-19T13:54:43.426Z</time>
      </trkpt>
      <trkpt lat="43.016915" lon="-7.27080333">
        <ele>845.0</ele>
        <time>2022-06-19T13:54:44.476Z</time>
      </trkpt>
      <trkpt lat="43.016915" lon="-7.27080333">
        <ele>845.0</ele>
        <time>2022-06-19T13:54:45.456Z</time>
      </trkpt>
      <trkpt lat="43.01690167" lon="-7.27074667">
        <ele>846.0</ele>
        <time>2022-06-19T13:54:46.438Z</time>
      </trkpt>
      <trkpt lat="43.01689333" lon="-7.27072167">
        <ele>846.0</ele>
        <time>2022-06-19T13:54:47.428Z</time>
      </trkpt>
      <trkpt lat="43.01689333" lon="-7.27072167">
        <ele>846.0</ele>
        <time>2022-06-19T13:54:48.461Z</time>
      </trkpt>
      <trkpt lat="43.01689" lon="-7.270665">
        <ele>846.0</ele>
        <time>2022-06-19T13:54:49.444Z</time>
      </trkpt>
      <trkpt lat="43.016885" lon="-7.27063167">
        <ele>846.0</ele>
        <time>2022-06-19T13:54:50.452Z</time>
      </trkpt>
      <trkpt lat="43.016885" lon="-7.27063167">
        <ele>846.0</ele>
        <time>2022-06-19T13:54:51.465Z</time>
      </trkpt>
      <trkpt lat="43.01687" lon="-7.27059333">
        <ele>848.0</ele>
        <time>2022-06-19T13:54:52.474Z</time>
      </trkpt>
      <trkpt lat="43.01687" lon="-7.27059333">
        <ele>848.0</ele>
        <time>2022-06-19T13:54:53.447Z</time>
      </trkpt>
      <trkpt lat="43.01687333" lon="-7.27054667">
        <ele>848.0</ele>
        <time>2022-06-19T13:54:54.432Z</time>
      </trkpt>
      <trkpt lat="43.01687833" lon="-7.27052833">
        <ele>848.0</ele>
        <time>2022-06-19T13:54:55.426Z</time>
      </trkpt>
      <trkpt lat="43.01687833" lon="-7.27052833">
        <ele>848.0</ele>
        <time>2022-06-19T13:54:56.444Z</time>
      </trkpt>
      <trkpt lat="43.016885" lon="-7.27052">
        <ele>849.0</ele>
        <time>2022-06-19T13:54:57.427Z</time>
      </trkpt>
      <trkpt lat="43.016885" lon="-7.27052">
        <ele>849.0</ele>
        <time>2022-06-19T13:54:58.458Z</time>
      </trkpt>
      <trkpt lat="43.016885" lon="-7.27052">
        <ele>849.0</ele>
        <time>2022-06-19T13:55:21.932Z</time>
      </trkpt>
      <trkpt lat="43.016885" lon="-7.27052">
        <ele>849.0</ele>
        <time>2022-06-19T13:55:22.960Z</time>
      </trkpt>
      <trkpt lat="43.01686" lon="-7.270485">
        <ele>848.0</ele>
        <time>2022-06-19T13:55:23.952Z</time>
      </trkpt>
      <trkpt lat="43.01686" lon="-7.270485">
        <ele>848.0</ele>
        <time>2022-06-19T13:55:24.958Z</time>
      </trkpt>
      <trkpt lat="43.016845" lon="-7.27054333">
        <ele>848.0</ele>
        <time>2022-06-19T13:55:25.951Z</time>
      </trkpt>
      <trkpt lat="43.016845" lon="-7.27054333">
        <ele>848.0</ele>
        <time>2022-06-19T13:55:26.959Z</time>
      </trkpt>
      <trkpt lat="43.01685833" lon="-7.270625">
        <ele>848.0</ele>
        <time>2022-06-19T13:55:27.961Z</time>
      </trkpt>
      <trkpt lat="43.01685833" lon="-7.270625">
        <ele>848.0</ele>
        <time>2022-06-19T13:55:28.966Z</time>
      </trkpt>
      <trkpt lat="43.01687833" lon="-7.27072333">
        <ele>849.0</ele>
        <time>2022-06-19T13:55:29.965Z</time>
      </trkpt>
      <trkpt lat="43.01689667" lon="-7.27077833">
        <ele>849.0</ele>
        <time>2022-06-19T13:55:30.933Z</time>
      </trkpt>
      <trkpt lat="43.01691833" lon="-7.27083833">
        <ele>848.0</ele>
        <time>2022-06-19T13:55:31.933Z</time>
      </trkpt>
      <trkpt lat="43.01691833" lon="-7.27083833">
        <ele>848.0</ele>
        <time>2022-06-19T13:55:32.952Z</time>
      </trkpt>
      <trkpt lat="43.01696833" lon="-7.27096833">
        <ele>848.0</ele>
        <time>2022-06-19T13:55:33.941Z</time>
      </trkpt>
      <trkpt lat="43.01696833" lon="-7.27096833">
        <ele>848.0</ele>
        <time>2022-06-19T13:55:34.950Z</time>
      </trkpt>
      <trkpt lat="43.01703" lon="-7.27111667">
        <ele>847.0</ele>
        <time>2022-06-19T13:55:35.953Z</time>
      </trkpt>
      <trkpt lat="43.01703" lon="-7.27111667">
        <ele>847.0</ele>
        <time>2022-06-19T13:55:36.960Z</time>
      </trkpt>
      <trkpt lat="43.01709667" lon="-7.27127167">
        <ele>846.0</ele>
        <time>2022-06-19T13:55:37.934Z</time>
      </trkpt>
      <trkpt lat="43.01709667" lon="-7.27127167">
        <ele>846.0</ele>
        <time>2022-06-19T13:55:38.939Z</time>
      </trkpt>
      <trkpt lat="43.01717" lon="-7.27143333">
        <ele>846.0</ele>
        <time>2022-06-19T13:55:39.951Z</time>
      </trkpt>
      <trkpt lat="43.01717" lon="-7.27143333">
        <ele>846.0</ele>
        <time>2022-06-19T13:55:40.967Z</time>
      </trkpt>
      <trkpt lat="43.01724333" lon="-7.271605">
        <ele>845.0</ele>
        <time>2022-06-19T13:55:41.945Z</time>
      </trkpt>
      <trkpt lat="43.01724333" lon="-7.271605">
        <ele>845.0</ele>
        <time>2022-06-19T13:55:42.941Z</time>
      </trkpt>
      <trkpt lat="43.01732" lon="-7.27178333">
        <ele>844.0</ele>
        <time>2022-06-19T13:55:43.934Z</time>
      </trkpt>
      <trkpt lat="43.01732" lon="-7.27178333">
        <ele>844.0</ele>
        <time>2022-06-19T13:55:44.940Z</time>
      </trkpt>
      <trkpt lat="43.01740333" lon="-7.27196167">
        <ele>843.0</ele>
        <time>2022-06-19T13:55:45.954Z</time>
      </trkpt>
      <trkpt lat="43.01740333" lon="-7.27196167">
        <ele>843.0</ele>
        <time>2022-06-19T13:55:46.961Z</time>
      </trkpt>
      <trkpt lat="43.01749167" lon="-7.27213667">
        <ele>842.0</ele>
        <time>2022-06-19T13:55:47.939Z</time>
      </trkpt>
      <trkpt lat="43.01753333" lon="-7.27221333">
        <ele>842.0</ele>
        <time>2022-06-19T13:55:48.937Z</time>
      </trkpt>
      <trkpt lat="43.01753333" lon="-7.27221333">
        <ele>842.0</ele>
        <time>2022-06-19T13:55:49.943Z</time>
      </trkpt>
      <trkpt lat="43.01759167" lon="-7.27231833">
        <ele>841.0</ele>
        <time>2022-06-19T13:55:50.931Z</time>
      </trkpt>
      <trkpt lat="43.01760833" lon="-7.27236">
        <ele>841.0</ele>
        <time>2022-06-19T13:55:51.936Z</time>
      </trkpt>
      <trkpt lat="43.01760833" lon="-7.27236">
        <ele>841.0</ele>
        <time>2022-06-19T13:55:52.949Z</time>
      </trkpt>
      <trkpt lat="43.01762833" lon="-7.27244167">
        <ele>840.0</ele>
        <time>2022-06-19T13:55:53.963Z</time>
      </trkpt>
      <trkpt lat="43.01762833" lon="-7.27244167">
        <ele>840.0</ele>
        <time>2022-06-19T13:55:54.931Z</time>
      </trkpt>
      <trkpt lat="43.01764333" lon="-7.27255833">
        <ele>840.0</ele>
        <time>2022-06-19T13:55:55.955Z</time>
      </trkpt>
      <trkpt lat="43.01764333" lon="-7.27255833">
        <ele>840.0</ele>
        <time>2022-06-19T13:55:56.961Z</time>
      </trkpt>
      <trkpt lat="43.01764333" lon="-7.2727">
        <ele>839.0</ele>
        <time>2022-06-19T13:55:57.950Z</time>
      </trkpt>
      <trkpt lat="43.01764" lon="-7.27277">
        <ele>839.0</ele>
        <time>2022-06-19T13:55:58.934Z</time>
      </trkpt>
      <trkpt lat="43.01764" lon="-7.27277">
        <ele>839.0</ele>
        <time>2022-06-19T13:55:59.939Z</time>
      </trkpt>
      <trkpt lat="43.01763" lon="-7.27291167">
        <ele>839.0</ele>
        <time>2022-06-19T13:56:00.951Z</time>
      </trkpt>
      <trkpt lat="43.01762667" lon="-7.27298167">
        <ele>839.0</ele>
        <time>2022-06-19T13:56:01.951Z</time>
      </trkpt>
      <trkpt lat="43.01762667" lon="-7.27298167">
        <ele>839.0</ele>
        <time>2022-06-19T13:56:02.959Z</time>
      </trkpt>
      <trkpt lat="43.01762333" lon="-7.273115">
        <ele>839.0</ele>
        <time>2022-06-19T13:56:03.934Z</time>
      </trkpt>
      <trkpt lat="43.017625" lon="-7.27318">
        <ele>839.0</ele>
        <time>2022-06-19T13:56:04.937Z</time>
      </trkpt>
      <trkpt lat="43.017625" lon="-7.27318">
        <ele>839.0</ele>
        <time>2022-06-19T13:56:05.952Z</time>
      </trkpt>
      <trkpt lat="43.01762833" lon="-7.273315">
        <ele>838.0</ele>
        <time>2022-06-19T13:56:06.944Z</time>
      </trkpt>
      <trkpt lat="43.01763333" lon="-7.27338667">
        <ele>838.0</ele>
        <time>2022-06-19T13:56:07.967Z</time>
      </trkpt>
      <trkpt lat="43.01763333" lon="-7.27338667">
        <ele>838.0</ele>
        <time>2022-06-19T13:56:08.933Z</time>
      </trkpt>
      <trkpt lat="43.01763833" lon="-7.27352833">
        <ele>837.0</ele>
        <time>2022-06-19T13:56:09.967Z</time>
      </trkpt>
      <trkpt lat="43.01764167" lon="-7.27360333">
        <ele>837.0</ele>
        <time>2022-06-19T13:56:10.935Z</time>
      </trkpt>
      <trkpt lat="43.01764167" lon="-7.27360333">
        <ele>837.0</ele>
        <time>2022-06-19T13:56:11.941Z</time>
      </trkpt>
      <trkpt lat="43.01764833" lon="-7.27375833">
        <ele>836.0</ele>
        <time>2022-06-19T13:56:12.963Z</time>
      </trkpt>
      <trkpt lat="43.01764833" lon="-7.273835">
        <ele>835.0</ele>
        <time>2022-06-19T13:56:13.935Z</time>
      </trkpt>
      <trkpt lat="43.01764833" lon="-7.273835">
        <ele>835.0</ele>
        <time>2022-06-19T13:56:14.941Z</time>
      </trkpt>
      <trkpt lat="43.01765167" lon="-7.27400167">
        <ele>834.0</ele>
        <time>2022-06-19T13:56:15.953Z</time>
      </trkpt>
      <trkpt lat="43.01765167" lon="-7.27400167">
        <ele>834.0</ele>
        <time>2022-06-19T13:56:16.959Z</time>
      </trkpt>
      <trkpt lat="43.01768333" lon="-7.27417333">
        <ele>834.0</ele>
        <time>2022-06-19T13:56:17.943Z</time>
      </trkpt>
      <trkpt lat="43.01768333" lon="-7.27417333">
        <ele>834.0</ele>
        <time>2022-06-19T13:56:18.965Z</time>
      </trkpt>
      <trkpt lat="43.01772" lon="-7.27433167">
        <ele>833.0</ele>
        <time>2022-06-19T13:56:19.937Z</time>
      </trkpt>
      <trkpt lat="43.01772" lon="-7.27433167">
        <ele>833.0</ele>
        <time>2022-06-19T13:56:20.959Z</time>
      </trkpt>
      <trkpt lat="43.01775667" lon="-7.27445667">
        <ele>832.0</ele>
        <time>2022-06-19T13:56:21.944Z</time>
      </trkpt>
      <trkpt lat="43.01777" lon="-7.27449833">
        <ele>831.0</ele>
        <time>2022-06-19T13:56:22.962Z</time>
      </trkpt>
      <trkpt lat="43.01777667" lon="-7.27454">
        <ele>831.0</ele>
        <time>2022-06-19T13:56:23.946Z</time>
      </trkpt>
      <trkpt lat="43.01777667" lon="-7.27454">
        <ele>831.0</ele>
        <time>2022-06-19T13:56:24.954Z</time>
      </trkpt>
      <trkpt lat="43.01780167" lon="-7.274655">
        <ele>830.0</ele>
        <time>2022-06-19T13:56:25.943Z</time>
      </trkpt>
      <trkpt lat="43.01780167" lon="-7.274655">
        <ele>830.0</ele>
        <time>2022-06-19T13:56:26.954Z</time>
      </trkpt>
      <trkpt lat="43.01782" lon="-7.27479167">
        <ele>830.0</ele>
        <time>2022-06-19T13:56:27.964Z</time>
      </trkpt>
      <trkpt lat="43.01782" lon="-7.27479167">
        <ele>830.0</ele>
        <time>2022-06-19T13:56:28.930Z</time>
      </trkpt>
      <trkpt lat="43.01784667" lon="-7.27494667">
        <ele>829.0</ele>
        <time>2022-06-19T13:56:29.929Z</time>
      </trkpt>
      <trkpt lat="43.01784667" lon="-7.27494667">
        <ele>829.0</ele>
        <time>2022-06-19T13:56:30.935Z</time>
      </trkpt>
      <trkpt lat="43.01787333" lon="-7.27511833">
        <ele>828.0</ele>
        <time>2022-06-19T13:56:31.947Z</time>
      </trkpt>
      <trkpt lat="43.01787333" lon="-7.27511833">
        <ele>828.0</ele>
        <time>2022-06-19T13:56:32.962Z</time>
      </trkpt>
      <trkpt lat="43.01790167" lon="-7.27531">
        <ele>827.0</ele>
        <time>2022-06-19T13:56:33.932Z</time>
      </trkpt>
      <trkpt lat="43.01790167" lon="-7.27531">
        <ele>827.0</ele>
        <time>2022-06-19T13:56:34.938Z</time>
      </trkpt>
      <trkpt lat="43.01792" lon="-7.27552333">
        <ele>826.0</ele>
        <time>2022-06-19T13:56:35.964Z</time>
      </trkpt>
      <trkpt lat="43.01792833" lon="-7.275635">
        <ele>825.0</ele>
        <time>2022-06-19T13:56:36.934Z</time>
      </trkpt>
      <trkpt lat="43.01792833" lon="-7.275635">
        <ele>825.0</ele>
        <time>2022-06-19T13:56:37.939Z</time>
      </trkpt>
      <trkpt lat="43.01794667" lon="-7.27586167">
        <ele>824.0</ele>
        <time>2022-06-19T13:56:38.932Z</time>
      </trkpt>
      <trkpt lat="43.01794667" lon="-7.27586167">
        <ele>824.0</ele>
        <time>2022-06-19T13:56:39.954Z</time>
      </trkpt>
      <trkpt lat="43.01795167" lon="-7.276085">
        <ele>823.0</ele>
        <time>2022-06-19T13:56:40.963Z</time>
      </trkpt>
      <trkpt lat="43.01795167" lon="-7.276085">
        <ele>823.0</ele>
        <time>2022-06-19T13:56:41.929Z</time>
      </trkpt>
      <trkpt lat="43.017975" lon="-7.27624">
        <ele>822.0</ele>
        <time>2022-06-19T13:56:42.952Z</time>
      </trkpt>
      <trkpt lat="43.01798833" lon="-7.27629833">
        <ele>821.0</ele>
        <time>2022-06-19T13:56:43.965Z</time>
      </trkpt>
      <trkpt lat="43.01798833" lon="-7.27629833">
        <ele>821.0</ele>
        <time>2022-06-19T13:56:44.931Z</time>
      </trkpt>
      <trkpt lat="43.01801833" lon="-7.27641">
        <ele>821.0</ele>
        <time>2022-06-19T13:56:45.964Z</time>
      </trkpt>
      <trkpt lat="43.01801833" lon="-7.27641">
        <ele>821.0</ele>
        <time>2022-06-19T13:56:46.930Z</time>
      </trkpt>
      <trkpt lat="43.01804" lon="-7.27655167">
        <ele>819.0</ele>
        <time>2022-06-19T13:56:47.953Z</time>
      </trkpt>
      <trkpt lat="43.01804" lon="-7.27655167">
        <ele>819.0</ele>
        <time>2022-06-19T13:56:48.960Z</time>
      </trkpt>
      <trkpt lat="43.018065" lon="-7.276695">
        <ele>818.0</ele>
        <time>2022-06-19T13:56:49.937Z</time>
      </trkpt>
      <trkpt lat="43.018065" lon="-7.276695">
        <ele>818.0</ele>
        <time>2022-06-19T13:56:50.945Z</time>
      </trkpt>
      <trkpt lat="43.01809833" lon="-7.27687">
        <ele>816.0</ele>
        <time>2022-06-19T13:56:51.944Z</time>
      </trkpt>
      <trkpt lat="43.01809833" lon="-7.27687">
        <ele>816.0</ele>
        <time>2022-06-19T13:56:52.949Z</time>
      </trkpt>
      <trkpt lat="43.01813833" lon="-7.27706">
        <ele>815.0</ele>
        <time>2022-06-19T13:56:53.930Z</time>
      </trkpt>
      <trkpt lat="43.01813833" lon="-7.27706">
        <ele>815.0</ele>
        <time>2022-06-19T13:56:54.936Z</time>
      </trkpt>
      <trkpt lat="43.01818167" lon="-7.27724333">
        <ele>814.0</ele>
        <time>2022-06-19T13:56:55.934Z</time>
      </trkpt>
      <trkpt lat="43.01818167" lon="-7.27724333">
        <ele>814.0</ele>
        <time>2022-06-19T13:56:56.939Z</time>
      </trkpt>
      <trkpt lat="43.01824833" lon="-7.27741667">
        <ele>813.0</ele>
        <time>2022-06-19T13:56:57.970Z</time>
      </trkpt>
      <trkpt lat="43.01828" lon="-7.27751833">
        <ele>812.0</ele>
        <time>2022-06-19T13:56:58.951Z</time>
      </trkpt>
      <trkpt lat="43.01828" lon="-7.27751833">
        <ele>812.0</ele>
        <time>2022-06-19T13:56:59.957Z</time>
      </trkpt>
      <trkpt lat="43.01835" lon="-7.27773833">
        <ele>810.0</ele>
        <time>2022-06-19T13:57:00.933Z</time>
      </trkpt>
      <trkpt lat="43.01837333" lon="-7.27784833">
        <ele>809.0</ele>
        <time>2022-06-19T13:57:01.933Z</time>
      </trkpt>
      <trkpt lat="43.01837333" lon="-7.27784833">
        <ele>809.0</ele>
        <time>2022-06-19T13:57:02.938Z</time>
      </trkpt>
      <trkpt lat="43.018405" lon="-7.27803833">
        <ele>808.0</ele>
        <time>2022-06-19T13:57:03.951Z</time>
      </trkpt>
      <trkpt lat="43.018405" lon="-7.27803833">
        <ele>808.0</ele>
        <time>2022-06-19T13:57:04.958Z</time>
      </trkpt>
      <trkpt lat="43.018445" lon="-7.27817833">
        <ele>807.0</ele>
        <time>2022-06-19T13:57:05.935Z</time>
      </trkpt>
      <trkpt lat="43.018445" lon="-7.27817833">
        <ele>807.0</ele>
        <time>2022-06-19T13:57:06.941Z</time>
      </trkpt>
      <trkpt lat="43.01849833" lon="-7.27831667">
        <ele>806.0</ele>
        <time>2022-06-19T13:57:07.965Z</time>
      </trkpt>
      <trkpt lat="43.01849833" lon="-7.27831667">
        <ele>806.0</ele>
        <time>2022-06-19T13:57:08.930Z</time>
      </trkpt>
      <trkpt lat="43.01854667" lon="-7.27847333">
        <ele>804.0</ele>
        <time>2022-06-19T13:57:09.944Z</time>
      </trkpt>
      <trkpt lat="43.01854667" lon="-7.27847333">
        <ele>804.0</ele>
        <time>2022-06-19T13:57:10.956Z</time>
      </trkpt>
      <trkpt lat="43.01858167" lon="-7.27865167">
        <ele>803.0</ele>
        <time>2022-06-19T13:57:11.953Z</time>
      </trkpt>
      <trkpt lat="43.01858167" lon="-7.27865167">
        <ele>803.0</ele>
        <time>2022-06-19T13:57:12.960Z</time>
      </trkpt>
      <trkpt lat="43.01860167" lon="-7.27883833">
        <ele>802.0</ele>
        <time>2022-06-19T13:57:13.950Z</time>
      </trkpt>
      <trkpt lat="43.01860167" lon="-7.27883833">
        <ele>802.0</ele>
        <time>2022-06-19T13:57:14.959Z</time>
      </trkpt>
      <trkpt lat="43.018615" lon="-7.278965">
        <ele>800.0</ele>
        <time>2022-06-19T13:57:15.950Z</time>
      </trkpt>
      <trkpt lat="43.018615" lon="-7.278965">
        <ele>800.0</ele>
        <time>2022-06-19T13:57:16.955Z</time>
      </trkpt>
      <trkpt lat="43.01863833" lon="-7.27914167">
        <ele>798.0</ele>
        <time>2022-06-19T13:57:17.964Z</time>
      </trkpt>
      <trkpt lat="43.01865667" lon="-7.27924833">
        <ele>797.0</ele>
        <time>2022-06-19T13:57:18.939Z</time>
      </trkpt>
      <trkpt lat="43.01868167" lon="-7.27936167">
        <ele>796.0</ele>
        <time>2022-06-19T13:57:19.949Z</time>
      </trkpt>
      <trkpt lat="43.01868167" lon="-7.27936167">
        <ele>796.0</ele>
        <time>2022-06-19T13:57:20.931Z</time>
      </trkpt>
      <trkpt lat="43.01875667" lon="-7.27960667">
        <ele>794.0</ele>
        <time>2022-06-19T13:57:21.965Z</time>
      </trkpt>
      <trkpt lat="43.01880333" lon="-7.27970833">
        <ele>792.0</ele>
        <time>2022-06-19T13:57:22.939Z</time>
      </trkpt>
      <trkpt lat="43.01884833" lon="-7.27980667">
        <ele>791.0</ele>
        <time>2022-06-19T13:57:23.952Z</time>
      </trkpt>
      <trkpt lat="43.01884833" lon="-7.27980667">
        <ele>791.0</ele>
        <time>2022-06-19T13:57:24.958Z</time>
      </trkpt>
      <trkpt lat="43.01892833" lon="-7.28002333">
        <ele>789.0</ele>
        <time>2022-06-19T13:57:25.934Z</time>
      </trkpt>
      <trkpt lat="43.01899167" lon="-7.28011667">
        <ele>788.0</ele>
        <time>2022-06-19T13:57:26.953Z</time>
      </trkpt>
      <trkpt lat="43.01906833" lon="-7.280195">
        <ele>786.0</ele>
        <time>2022-06-19T13:57:27.935Z</time>
      </trkpt>
      <trkpt lat="43.01906833" lon="-7.280195">
        <ele>786.0</ele>
        <time>2022-06-19T13:57:28.940Z</time>
      </trkpt>
      <trkpt lat="43.019215" lon="-7.280345">
        <ele>784.0</ele>
        <time>2022-06-19T13:57:29.960Z</time>
      </trkpt>
      <trkpt lat="43.01929167" lon="-7.28041833">
        <ele>783.0</ele>
        <time>2022-06-19T13:57:30.949Z</time>
      </trkpt>
      <trkpt lat="43.01936333" lon="-7.2805">
        <ele>782.0</ele>
        <time>2022-06-19T13:57:31.968Z</time>
      </trkpt>
      <trkpt lat="43.01936333" lon="-7.2805">
        <ele>782.0</ele>
        <time>2022-06-19T13:57:32.934Z</time>
      </trkpt>
      <trkpt lat="43.01950667" lon="-7.28066">
        <ele>780.0</ele>
        <time>2022-06-19T13:57:33.930Z</time>
      </trkpt>
      <trkpt lat="43.01950667" lon="-7.28066">
        <ele>780.0</ele>
        <time>2022-06-19T13:57:34.946Z</time>
      </trkpt>
      <trkpt lat="43.01962333" lon="-7.280845">
        <ele>780.0</ele>
        <time>2022-06-19T13:57:35.941Z</time>
      </trkpt>
      <trkpt lat="43.01962333" lon="-7.280845">
        <ele>780.0</ele>
        <time>2022-06-19T13:57:36.953Z</time>
      </trkpt>
      <trkpt lat="43.01971167" lon="-7.28103667">
        <ele>778.0</ele>
        <time>2022-06-19T13:57:37.943Z</time>
      </trkpt>
      <trkpt lat="43.01971167" lon="-7.28103667">
        <ele>778.0</ele>
        <time>2022-06-19T13:57:38.964Z</time>
      </trkpt>
      <trkpt lat="43.019785" lon="-7.28122333">
        <ele>777.0</ele>
        <time>2022-06-19T13:57:39.934Z</time>
      </trkpt>
      <trkpt lat="43.019785" lon="-7.28122333">
        <ele>777.0</ele>
        <time>2022-06-19T13:57:40.940Z</time>
      </trkpt>
      <trkpt lat="43.01985333" lon="-7.28142833">
        <ele>775.0</ele>
        <time>2022-06-19T13:57:41.970Z</time>
      </trkpt>
      <trkpt lat="43.019885" lon="-7.28153333">
        <ele>774.0</ele>
        <time>2022-06-19T13:57:42.962Z</time>
      </trkpt>
      <trkpt lat="43.019885" lon="-7.28153333">
        <ele>774.0</ele>
        <time>2022-06-19T13:57:43.929Z</time>
      </trkpt>
      <trkpt lat="43.01994" lon="-7.28174667">
        <ele>773.0</ele>
        <time>2022-06-19T13:57:44.942Z</time>
      </trkpt>
      <trkpt lat="43.01998" lon="-7.28185333">
        <ele>773.0</ele>
        <time>2022-06-19T13:57:45.938Z</time>
      </trkpt>
      <trkpt lat="43.01998" lon="-7.28185333">
        <ele>773.0</ele>
        <time>2022-06-19T13:57:46.943Z</time>
      </trkpt>
      <trkpt lat="43.02005667" lon="-7.28207">
        <ele>771.0</ele>
        <time>2022-06-19T13:57:47.934Z</time>
      </trkpt>
      <trkpt lat="43.02008833" lon="-7.28218167">
        <ele>771.0</ele>
        <time>2022-06-19T13:57:48.954Z</time>
      </trkpt>
      <trkpt lat="43.02008833" lon="-7.28218167">
        <ele>771.0</ele>
        <time>2022-06-19T13:57:49.960Z</time>
      </trkpt>
      <trkpt lat="43.02014" lon="-7.28241167">
        <ele>769.0</ele>
        <time>2022-06-19T13:57:50.937Z</time>
      </trkpt>
      <trkpt lat="43.02014667" lon="-7.28253">
        <ele>768.0</ele>
        <time>2022-06-19T13:57:51.954Z</time>
      </trkpt>
      <trkpt lat="43.02014667" lon="-7.28253">
        <ele>768.0</ele>
        <time>2022-06-19T13:57:52.961Z</time>
      </trkpt>
      <trkpt lat="43.02014333" lon="-7.28275833">
        <ele>767.0</ele>
        <time>2022-06-19T13:57:53.938Z</time>
      </trkpt>
      <trkpt lat="43.02014333" lon="-7.28275833">
        <ele>767.0</ele>
        <time>2022-06-19T13:57:54.955Z</time>
      </trkpt>
      <trkpt lat="43.02011667" lon="-7.28296667">
        <ele>766.0</ele>
        <time>2022-06-19T13:57:55.933Z</time>
      </trkpt>
      <trkpt lat="43.02011667" lon="-7.28296667">
        <ele>766.0</ele>
        <time>2022-06-19T13:57:56.938Z</time>
      </trkpt>
      <trkpt lat="43.02010167" lon="-7.28310333">
        <ele>764.0</ele>
        <time>2022-06-19T13:57:57.951Z</time>
      </trkpt>
      <trkpt lat="43.02010167" lon="-7.28310333">
        <ele>764.0</ele>
        <time>2022-06-19T13:57:58.958Z</time>
      </trkpt>
      <trkpt lat="43.02009333" lon="-7.28317167">
        <ele>764.0</ele>
        <time>2022-06-19T13:57:59.934Z</time>
      </trkpt>
      <trkpt lat="43.02008833" lon="-7.28321833">
        <ele>763.0</ele>
        <time>2022-06-19T13:58:00.964Z</time>
      </trkpt>
      <trkpt lat="43.02007667" lon="-7.28327333">
        <ele>763.0</ele>
        <time>2022-06-19T13:58:01.939Z</time>
      </trkpt>
      <trkpt lat="43.02007667" lon="-7.28327333">
        <ele>763.0</ele>
        <time>2022-06-19T13:58:02.954Z</time>
      </trkpt>
      <trkpt lat="43.02003333" lon="-7.283425">
        <ele>762.0</ele>
        <time>2022-06-19T13:58:03.945Z</time>
      </trkpt>
      <trkpt lat="43.02003333" lon="-7.283425">
        <ele>762.0</ele>
        <time>2022-06-19T13:58:04.951Z</time>
      </trkpt>
      <trkpt lat="43.01997833" lon="-7.28360333">
        <ele>761.0</ele>
        <time>2022-06-19T13:58:05.951Z</time>
      </trkpt>
      <trkpt lat="43.01997833" lon="-7.28360333">
        <ele>761.0</ele>
        <time>2022-06-19T13:58:06.958Z</time>
      </trkpt>
      <trkpt lat="43.01992333" lon="-7.28380667">
        <ele>760.0</ele>
        <time>2022-06-19T13:58:07.940Z</time>
      </trkpt>
      <trkpt lat="43.01992333" lon="-7.28380667">
        <ele>760.0</ele>
        <time>2022-06-19T13:58:08.945Z</time>
      </trkpt>
      <trkpt lat="43.01987333" lon="-7.284025">
        <ele>759.0</ele>
        <time>2022-06-19T13:58:09.932Z</time>
      </trkpt>
      <trkpt lat="43.01987333" lon="-7.284025">
        <ele>759.0</ele>
        <time>2022-06-19T13:58:10.938Z</time>
      </trkpt>
      <trkpt lat="43.01982167" lon="-7.28425333">
        <ele>756.0</ele>
        <time>2022-06-19T13:58:11.941Z</time>
      </trkpt>
      <trkpt lat="43.01982167" lon="-7.28425333">
        <ele>756.0</ele>
        <time>2022-06-19T13:58:12.954Z</time>
      </trkpt>
      <trkpt lat="43.01976833" lon="-7.28450333">
        <ele>755.0</ele>
        <time>2022-06-19T13:58:13.965Z</time>
      </trkpt>
      <trkpt lat="43.01976833" lon="-7.28450333">
        <ele>755.0</ele>
        <time>2022-06-19T13:58:14.931Z</time>
      </trkpt>
      <trkpt lat="43.01972833" lon="-7.28473">
        <ele>753.0</ele>
        <time>2022-06-19T13:58:15.944Z</time>
      </trkpt>
      <trkpt lat="43.01972833" lon="-7.28473">
        <ele>753.0</ele>
        <time>2022-06-19T13:58:16.938Z</time>
      </trkpt>
      <trkpt lat="43.019695" lon="-7.28489167">
        <ele>751.0</ele>
        <time>2022-06-19T13:58:17.942Z</time>
      </trkpt>
      <trkpt lat="43.019685" lon="-7.284955">
        <ele>750.0</ele>
        <time>2022-06-19T13:58:18.957Z</time>
      </trkpt>
      <trkpt lat="43.01967667" lon="-7.285015">
        <ele>749.0</ele>
        <time>2022-06-19T13:58:19.968Z</time>
      </trkpt>
      <trkpt lat="43.01967667" lon="-7.285015">
        <ele>749.0</ele>
        <time>2022-06-19T13:58:20.945Z</time>
      </trkpt>
      <trkpt lat="43.019655" lon="-7.28517">
        <ele>747.0</ele>
        <time>2022-06-19T13:58:21.951Z</time>
      </trkpt>
      <trkpt lat="43.019655" lon="-7.28517">
        <ele>747.0</ele>
        <time>2022-06-19T13:58:22.929Z</time>
      </trkpt>
      <trkpt lat="43.01962833" lon="-7.285355">
        <ele>746.0</ele>
        <time>2022-06-19T13:58:23.939Z</time>
      </trkpt>
      <trkpt lat="43.01961667" lon="-7.28545667">
        <ele>746.0</ele>
        <time>2022-06-19T13:58:24.950Z</time>
      </trkpt>
      <trkpt lat="43.01960333" lon="-7.285555">
        <ele>745.0</ele>
        <time>2022-06-19T13:58:25.968Z</time>
      </trkpt>
      <trkpt lat="43.01960333" lon="-7.285555">
        <ele>745.0</ele>
        <time>2022-06-19T13:58:26.934Z</time>
      </trkpt>
      <trkpt lat="43.01957" lon="-7.285755">
        <ele>745.0</ele>
        <time>2022-06-19T13:58:27.954Z</time>
      </trkpt>
      <trkpt lat="43.01957" lon="-7.285755">
        <ele>745.0</ele>
        <time>2022-06-19T13:58:28.960Z</time>
      </trkpt>
      <trkpt lat="43.01954167" lon="-7.285945">
        <ele>744.0</ele>
        <time>2022-06-19T13:58:29.932Z</time>
      </trkpt>
      <trkpt lat="43.019535" lon="-7.28600167">
        <ele>743.0</ele>
        <time>2022-06-19T13:58:30.953Z</time>
      </trkpt>
      <trkpt lat="43.019535" lon="-7.28600167">
        <ele>743.0</ele>
        <time>2022-06-19T13:58:31.960Z</time>
      </trkpt>
      <trkpt lat="43.01951833" lon="-7.2861">
        <ele>743.0</ele>
        <time>2022-06-19T13:58:32.953Z</time>
      </trkpt>
      <trkpt lat="43.01950833" lon="-7.286155">
        <ele>743.0</ele>
        <time>2022-06-19T13:58:33.953Z</time>
      </trkpt>
      <trkpt lat="43.01949667" lon="-7.286215">
        <ele>743.0</ele>
        <time>2022-06-19T13:58:34.966Z</time>
      </trkpt>
      <trkpt lat="43.01949667" lon="-7.286215">
        <ele>743.0</ele>
        <time>2022-06-19T13:58:35.944Z</time>
      </trkpt>
      <trkpt lat="43.01948333" lon="-7.28633667">
        <ele>743.0</ele>
        <time>2022-06-19T13:58:36.956Z</time>
      </trkpt>
      <trkpt lat="43.01947833" lon="-7.28640667">
        <ele>743.0</ele>
        <time>2022-06-19T13:58:37.966Z</time>
      </trkpt>
      <trkpt lat="43.01947833" lon="-7.28640667">
        <ele>743.0</ele>
        <time>2022-06-19T13:58:38.932Z</time>
      </trkpt>
      <trkpt lat="43.019455" lon="-7.28655333">
        <ele>742.0</ele>
        <time>2022-06-19T13:58:39.947Z</time>
      </trkpt>
      <trkpt lat="43.019455" lon="-7.28655333">
        <ele>742.0</ele>
        <time>2022-06-19T13:58:40.966Z</time>
      </trkpt>
      <trkpt lat="43.01942" lon="-7.286705">
        <ele>741.0</ele>
        <time>2022-06-19T13:58:41.943Z</time>
      </trkpt>
      <trkpt lat="43.01942" lon="-7.286705">
        <ele>741.0</ele>
        <time>2022-06-19T13:58:42.957Z</time>
      </trkpt>
      <trkpt lat="43.01939167" lon="-7.28685">
        <ele>740.0</ele>
        <time>2022-06-19T13:58:43.933Z</time>
      </trkpt>
      <trkpt lat="43.01939167" lon="-7.28685">
        <ele>740.0</ele>
        <time>2022-06-19T13:58:44.939Z</time>
      </trkpt>
      <trkpt lat="43.01935167" lon="-7.287">
        <ele>740.0</ele>
        <time>2022-06-19T13:58:45.955Z</time>
      </trkpt>
      <trkpt lat="43.01933167" lon="-7.287075">
        <ele>739.0</ele>
        <time>2022-06-19T13:58:46.964Z</time>
      </trkpt>
      <trkpt lat="43.01931667" lon="-7.28714167">
        <ele>739.0</ele>
        <time>2022-06-19T13:58:47.933Z</time>
      </trkpt>
      <trkpt lat="43.01931667" lon="-7.28714167">
        <ele>739.0</ele>
        <time>2022-06-19T13:58:48.939Z</time>
      </trkpt>
      <trkpt lat="43.01929167" lon="-7.28728833">
        <ele>738.0</ele>
        <time>2022-06-19T13:58:49.943Z</time>
      </trkpt>
      <trkpt lat="43.01929167" lon="-7.28728833">
        <ele>738.0</ele>
        <time>2022-06-19T13:58:50.949Z</time>
      </trkpt>
      <trkpt lat="43.01929" lon="-7.28743833">
        <ele>737.0</ele>
        <time>2022-06-19T13:58:51.944Z</time>
      </trkpt>
      <trkpt lat="43.01929" lon="-7.28743833">
        <ele>737.0</ele>
        <time>2022-06-19T13:58:52.955Z</time>
      </trkpt>
      <trkpt lat="43.01928833" lon="-7.28759">
        <ele>736.0</ele>
        <time>2022-06-19T13:58:53.929Z</time>
      </trkpt>
      <trkpt lat="43.01928833" lon="-7.28759">
        <ele>736.0</ele>
        <time>2022-06-19T13:58:54.941Z</time>
      </trkpt>
      <trkpt lat="43.01927" lon="-7.28770667">
        <ele>734.0</ele>
        <time>2022-06-19T13:58:55.947Z</time>
      </trkpt>
      <trkpt lat="43.01926667" lon="-7.287755">
        <ele>733.0</ele>
        <time>2022-06-19T13:58:56.967Z</time>
      </trkpt>
      <trkpt lat="43.01926667" lon="-7.287755">
        <ele>733.0</ele>
        <time>2022-06-19T13:58:57.933Z</time>
      </trkpt>
      <trkpt lat="43.01926167" lon="-7.28797667">
        <ele>732.0</ele>
        <time>2022-06-19T13:58:58.934Z</time>
      </trkpt>
      <trkpt lat="43.01926167" lon="-7.28797667">
        <ele>732.0</ele>
        <time>2022-06-19T13:58:59.940Z</time>
      </trkpt>
      <trkpt lat="43.01925" lon="-7.28820333">
        <ele>730.0</ele>
        <time>2022-06-19T13:59:00.930Z</time>
      </trkpt>
      <trkpt lat="43.01925" lon="-7.28820333">
        <ele>730.0</ele>
        <time>2022-06-19T13:59:01.939Z</time>
      </trkpt>
      <trkpt lat="43.019255" lon="-7.28842667">
        <ele>728.0</ele>
        <time>2022-06-19T13:59:02.946Z</time>
      </trkpt>
      <trkpt lat="43.019255" lon="-7.28842667">
        <ele>728.0</ele>
        <time>2022-06-19T13:59:03.963Z</time>
      </trkpt>
      <trkpt lat="43.01923833" lon="-7.28864333">
        <ele>727.0</ele>
        <time>2022-06-19T13:59:04.937Z</time>
      </trkpt>
      <trkpt lat="43.01923833" lon="-7.28864333">
        <ele>727.0</ele>
        <time>2022-06-19T13:59:05.946Z</time>
      </trkpt>
      <trkpt lat="43.01922667" lon="-7.28882333">
        <ele>725.0</ele>
        <time>2022-06-19T13:59:06.936Z</time>
      </trkpt>
      <trkpt lat="43.01921833" lon="-7.288885">
        <ele>724.0</ele>
        <time>2022-06-19T13:59:07.946Z</time>
      </trkpt>
      <trkpt lat="43.01921833" lon="-7.288885">
        <ele>724.0</ele>
        <time>2022-06-19T13:59:08.954Z</time>
      </trkpt>
      <trkpt lat="43.01921" lon="-7.28896333">
        <ele>723.0</ele>
        <time>2022-06-19T13:59:09.943Z</time>
      </trkpt>
      <trkpt lat="43.01921333" lon="-7.28901">
        <ele>722.0</ele>
        <time>2022-06-19T13:59:10.954Z</time>
      </trkpt>
      <trkpt lat="43.01921333" lon="-7.28901">
        <ele>722.0</ele>
        <time>2022-06-19T13:59:11.961Z</time>
      </trkpt>
      <trkpt lat="43.019205" lon="-7.28913667">
        <ele>721.0</ele>
        <time>2022-06-19T13:59:12.934Z</time>
      </trkpt>
      <trkpt lat="43.01919833" lon="-7.2892">
        <ele>720.0</ele>
        <time>2022-06-19T13:59:13.953Z</time>
      </trkpt>
      <trkpt lat="43.01919833" lon="-7.2892">
        <ele>720.0</ele>
        <time>2022-06-19T13:59:14.959Z</time>
      </trkpt>
      <trkpt lat="43.0192" lon="-7.28935833">
        <ele>719.0</ele>
        <time>2022-06-19T13:59:15.946Z</time>
      </trkpt>
      <trkpt lat="43.0192" lon="-7.28935833">
        <ele>719.0</ele>
        <time>2022-06-19T13:59:16.958Z</time>
      </trkpt>
      <trkpt lat="43.01918833" lon="-7.28954667">
        <ele>717.0</ele>
        <time>2022-06-19T13:59:17.963Z</time>
      </trkpt>
      <trkpt lat="43.01918833" lon="-7.28954667">
        <ele>717.0</ele>
        <time>2022-06-19T13:59:18.930Z</time>
      </trkpt>
      <trkpt lat="43.01916167" lon="-7.28973667">
        <ele>716.0</ele>
        <time>2022-06-19T13:59:19.942Z</time>
      </trkpt>
      <trkpt lat="43.01916167" lon="-7.28973667">
        <ele>716.0</ele>
        <time>2022-06-19T13:59:20.954Z</time>
      </trkpt>
      <trkpt lat="43.01914667" lon="-7.28994167">
        <ele>714.0</ele>
        <time>2022-06-19T13:59:21.955Z</time>
      </trkpt>
      <trkpt lat="43.019145" lon="-7.29006333">
        <ele>713.0</ele>
        <time>2022-06-19T13:59:22.930Z</time>
      </trkpt>
      <trkpt lat="43.01914167" lon="-7.29019833">
        <ele>712.0</ele>
        <time>2022-06-19T13:59:23.945Z</time>
      </trkpt>
      <trkpt lat="43.01914167" lon="-7.29019833">
        <ele>712.0</ele>
        <time>2022-06-19T13:59:24.952Z</time>
      </trkpt>
      <trkpt lat="43.019145" lon="-7.29047667">
        <ele>709.0</ele>
        <time>2022-06-19T13:59:25.949Z</time>
      </trkpt>
      <trkpt lat="43.019145" lon="-7.29047667">
        <ele>709.0</ele>
        <time>2022-06-19T13:59:26.958Z</time>
      </trkpt>
      <trkpt lat="43.019155" lon="-7.290765">
        <ele>706.0</ele>
        <time>2022-06-19T13:59:27.931Z</time>
      </trkpt>
      <trkpt lat="43.019155" lon="-7.290765">
        <ele>706.0</ele>
        <time>2022-06-19T13:59:28.937Z</time>
      </trkpt>
      <trkpt lat="43.01918167" lon="-7.29105667">
        <ele>704.0</ele>
        <time>2022-06-19T13:59:29.952Z</time>
      </trkpt>
      <trkpt lat="43.01918167" lon="-7.29105667">
        <ele>704.0</ele>
        <time>2022-06-19T13:59:30.958Z</time>
      </trkpt>
      <trkpt lat="43.01919333" lon="-7.29132667">
        <ele>703.0</ele>
        <time>2022-06-19T13:59:31.952Z</time>
      </trkpt>
      <trkpt lat="43.01919333" lon="-7.29132667">
        <ele>703.0</ele>
        <time>2022-06-19T13:59:32.960Z</time>
      </trkpt>
      <trkpt lat="43.01919667" lon="-7.29152333">
        <ele>701.0</ele>
        <time>2022-06-19T13:59:33.932Z</time>
      </trkpt>
      <trkpt lat="43.01919667" lon="-7.29152333">
        <ele>701.0</ele>
        <time>2022-06-19T13:59:34.937Z</time>
      </trkpt>
      <trkpt lat="43.019215" lon="-7.291715">
        <ele>699.0</ele>
        <time>2022-06-19T13:59:35.954Z</time>
      </trkpt>
      <trkpt lat="43.019215" lon="-7.291715">
        <ele>699.0</ele>
        <time>2022-06-19T13:59:36.960Z</time>
      </trkpt>
      <trkpt lat="43.01923833" lon="-7.29193167">
        <ele>697.0</ele>
        <time>2022-06-19T13:59:37.937Z</time>
      </trkpt>
      <trkpt lat="43.01923833" lon="-7.29193167">
        <ele>697.0</ele>
        <time>2022-06-19T13:59:38.964Z</time>
      </trkpt>
      <trkpt lat="43.01926" lon="-7.29207833">
        <ele>696.0</ele>
        <time>2022-06-19T13:59:39.962Z</time>
      </trkpt>
      <trkpt lat="43.01926" lon="-7.29207833">
        <ele>696.0</ele>
        <time>2022-06-19T13:59:40.968Z</time>
      </trkpt>
      <trkpt lat="43.01928333" lon="-7.292165">
        <ele>694.0</ele>
        <time>2022-06-19T13:59:41.946Z</time>
      </trkpt>
      <trkpt lat="43.01928333" lon="-7.292165">
        <ele>694.0</ele>
        <time>2022-06-19T13:59:42.932Z</time>
      </trkpt>
      <trkpt lat="43.01932833" lon="-7.29230333">
        <ele>693.0</ele>
        <time>2022-06-19T13:59:43.965Z</time>
      </trkpt>
      <trkpt lat="43.01932833" lon="-7.29230333">
        <ele>693.0</ele>
        <time>2022-06-19T13:59:44.931Z</time>
      </trkpt>
      <trkpt lat="43.0194" lon="-7.292465">
        <ele>691.0</ele>
        <time>2022-06-19T13:59:45.948Z</time>
      </trkpt>
      <trkpt lat="43.0194" lon="-7.292465">
        <ele>691.0</ele>
        <time>2022-06-19T13:59:46.930Z</time>
      </trkpt>
      <trkpt lat="43.01948667" lon="-7.29261667">
        <ele>689.0</ele>
        <time>2022-06-19T13:59:47.965Z</time>
      </trkpt>
      <trkpt lat="43.01948667" lon="-7.29261667">
        <ele>689.0</ele>
        <time>2022-06-19T13:59:48.932Z</time>
      </trkpt>
      <trkpt lat="43.01957167" lon="-7.29277167">
        <ele>687.0</ele>
        <time>2022-06-19T13:59:49.945Z</time>
      </trkpt>
      <trkpt lat="43.01957167" lon="-7.29277167">
        <ele>687.0</ele>
        <time>2022-06-19T13:59:50.950Z</time>
      </trkpt>
      <trkpt lat="43.01965833" lon="-7.29295167">
        <ele>685.0</ele>
        <time>2022-06-19T13:59:51.938Z</time>
      </trkpt>
      <trkpt lat="43.01965833" lon="-7.29295167">
        <ele>685.0</ele>
        <time>2022-06-19T13:59:52.955Z</time>
      </trkpt>
      <trkpt lat="43.01971833" lon="-7.29312333">
        <ele>684.0</ele>
        <time>2022-06-19T13:59:53.935Z</time>
      </trkpt>
      <trkpt lat="43.01971833" lon="-7.29312333">
        <ele>684.0</ele>
        <time>2022-06-19T13:59:54.968Z</time>
      </trkpt>
      <trkpt lat="43.01974833" lon="-7.29326833">
        <ele>683.0</ele>
        <time>2022-06-19T13:59:55.949Z</time>
      </trkpt>
      <trkpt lat="43.01974833" lon="-7.29326833">
        <ele>683.0</ele>
        <time>2022-06-19T13:59:56.957Z</time>
      </trkpt>
      <trkpt lat="43.01981333" lon="-7.29341">
        <ele>683.0</ele>
        <time>2022-06-19T13:59:57.934Z</time>
      </trkpt>
      <trkpt lat="43.01985833" lon="-7.29348333">
        <ele>682.0</ele>
        <time>2022-06-19T13:59:58.955Z</time>
      </trkpt>
      <trkpt lat="43.01985833" lon="-7.29348333">
        <ele>682.0</ele>
        <time>2022-06-19T13:59:59.960Z</time>
      </trkpt>
      <trkpt lat="43.01996333" lon="-7.29362">
        <ele>681.0</ele>
        <time>2022-06-19T14:00:00.958Z</time>
      </trkpt>
      <trkpt lat="43.02002" lon="-7.29368167">
        <ele>680.0</ele>
        <time>2022-06-19T14:00:01.944Z</time>
      </trkpt>
      <trkpt lat="43.02002" lon="-7.29368167">
        <ele>680.0</ele>
        <time>2022-06-19T14:00:02.958Z</time>
      </trkpt>
      <trkpt lat="43.020145" lon="-7.2938">
        <ele>679.0</ele>
        <time>2022-06-19T14:00:03.939Z</time>
      </trkpt>
      <trkpt lat="43.02020667" lon="-7.29385667">
        <ele>679.0</ele>
        <time>2022-06-19T14:00:04.963Z</time>
      </trkpt>
      <trkpt lat="43.02020667" lon="-7.29385667">
        <ele>679.0</ele>
        <time>2022-06-19T14:00:05.929Z</time>
      </trkpt>
      <trkpt lat="43.020315" lon="-7.294025">
        <ele>678.0</ele>
        <time>2022-06-19T14:00:06.945Z</time>
      </trkpt>
      <trkpt lat="43.020365" lon="-7.29408833">
        <ele>678.0</ele>
        <time>2022-06-19T14:00:07.958Z</time>
      </trkpt>
      <trkpt lat="43.020365" lon="-7.29408833">
        <ele>678.0</ele>
        <time>2022-06-19T14:00:08.964Z</time>
      </trkpt>
      <trkpt lat="43.02044167" lon="-7.29424">
        <ele>678.0</ele>
        <time>2022-06-19T14:00:09.944Z</time>
      </trkpt>
      <trkpt lat="43.02044167" lon="-7.29424">
        <ele>678.0</ele>
        <time>2022-06-19T14:00:10.960Z</time>
      </trkpt>
      <trkpt lat="43.02049833" lon="-7.29432833">
        <ele>677.0</ele>
        <time>2022-06-19T14:00:11.936Z</time>
      </trkpt>
      <trkpt lat="43.02049833" lon="-7.29432833">
        <ele>677.0</ele>
        <time>2022-06-19T14:00:12.966Z</time>
      </trkpt>
      <trkpt lat="43.02057667" lon="-7.294415">
        <ele>676.0</ele>
        <time>2022-06-19T14:00:13.931Z</time>
      </trkpt>
      <trkpt lat="43.02057667" lon="-7.294415">
        <ele>676.0</ele>
        <time>2022-06-19T14:00:14.937Z</time>
      </trkpt>
      <trkpt lat="43.02066833" lon="-7.29453667">
        <ele>675.0</ele>
        <time>2022-06-19T14:00:15.941Z</time>
      </trkpt>
      <trkpt lat="43.02066833" lon="-7.29453667">
        <ele>675.0</ele>
        <time>2022-06-19T14:00:16.961Z</time>
      </trkpt>
      <trkpt lat="43.02078333" lon="-7.29467833">
        <ele>674.0</ele>
        <time>2022-06-19T14:00:17.931Z</time>
      </trkpt>
      <trkpt lat="43.02078333" lon="-7.29467833">
        <ele>674.0</ele>
        <time>2022-06-19T14:00:18.937Z</time>
      </trkpt>
      <trkpt lat="43.020915" lon="-7.29483667">
        <ele>672.0</ele>
        <time>2022-06-19T14:00:19.955Z</time>
      </trkpt>
      <trkpt lat="43.020915" lon="-7.29483667">
        <ele>672.0</ele>
        <time>2022-06-19T14:00:20.933Z</time>
      </trkpt>
      <trkpt lat="43.021045" lon="-7.294985">
        <ele>671.0</ele>
        <time>2022-06-19T14:00:21.947Z</time>
      </trkpt>
      <trkpt lat="43.021045" lon="-7.294985">
        <ele>671.0</ele>
        <time>2022-06-19T14:00:22.964Z</time>
      </trkpt>
      <trkpt lat="43.02115333" lon="-7.295105">
        <ele>669.0</ele>
        <time>2022-06-19T14:00:23.936Z</time>
      </trkpt>
      <trkpt lat="43.02115333" lon="-7.295105">
        <ele>669.0</ele>
        <time>2022-06-19T14:00:24.942Z</time>
      </trkpt>
      <trkpt lat="43.02124167" lon="-7.295225">
        <ele>668.0</ele>
        <time>2022-06-19T14:00:25.961Z</time>
      </trkpt>
      <trkpt lat="43.02124167" lon="-7.295225">
        <ele>668.0</ele>
        <time>2022-06-19T14:00:26.967Z</time>
      </trkpt>
      <trkpt lat="43.02131833" lon="-7.295335">
        <ele>667.0</ele>
        <time>2022-06-19T14:00:27.960Z</time>
      </trkpt>
      <trkpt lat="43.02131833" lon="-7.295335">
        <ele>667.0</ele>
        <time>2022-06-19T14:00:28.939Z</time>
      </trkpt>
      <trkpt lat="43.02141" lon="-7.29548667">
        <ele>665.0</ele>
        <time>2022-06-19T14:00:29.961Z</time>
      </trkpt>
      <trkpt lat="43.02141" lon="-7.29548667">
        <ele>665.0</ele>
        <time>2022-06-19T14:00:30.967Z</time>
      </trkpt>
      <trkpt lat="43.02151333" lon="-7.29559167">
        <ele>663.0</ele>
        <time>2022-06-19T14:00:31.937Z</time>
      </trkpt>
      <trkpt lat="43.02151333" lon="-7.29559167">
        <ele>663.0</ele>
        <time>2022-06-19T14:00:32.942Z</time>
      </trkpt>
      <trkpt lat="43.02159667" lon="-7.29564333">
        <ele>662.0</ele>
        <time>2022-06-19T14:00:33.965Z</time>
      </trkpt>
      <trkpt lat="43.02159667" lon="-7.29564333">
        <ele>662.0</ele>
        <time>2022-06-19T14:00:34.930Z</time>
      </trkpt>
      <trkpt lat="43.02165833" lon="-7.295625">
        <ele>660.0</ele>
        <time>2022-06-19T14:00:35.963Z</time>
      </trkpt>
      <trkpt lat="43.02165833" lon="-7.295625">
        <ele>660.0</ele>
        <time>2022-06-19T14:00:36.931Z</time>
      </trkpt>
      <trkpt lat="43.021745" lon="-7.29561667">
        <ele>659.0</ele>
        <time>2022-06-19T14:00:37.940Z</time>
      </trkpt>
      <trkpt lat="43.021745" lon="-7.29561667">
        <ele>659.0</ele>
        <time>2022-06-19T14:00:38.946Z</time>
      </trkpt>
      <trkpt lat="43.02184333" lon="-7.29563">
        <ele>658.0</ele>
        <time>2022-06-19T14:00:39.947Z</time>
      </trkpt>
      <trkpt lat="43.02184333" lon="-7.29563">
        <ele>658.0</ele>
        <time>2022-06-19T14:00:40.953Z</time>
      </trkpt>
      <trkpt lat="43.02192333" lon="-7.29565">
        <ele>657.0</ele>
        <time>2022-06-19T14:00:41.966Z</time>
      </trkpt>
      <trkpt lat="43.02192333" lon="-7.29565">
        <ele>657.0</ele>
        <time>2022-06-19T14:00:42.931Z</time>
      </trkpt>
      <trkpt lat="43.02197667" lon="-7.295685">
        <ele>656.0</ele>
        <time>2022-06-19T14:00:43.938Z</time>
      </trkpt>
      <trkpt lat="43.02197667" lon="-7.295685">
        <ele>656.0</ele>
        <time>2022-06-19T14:00:44.944Z</time>
      </trkpt>
      <trkpt lat="43.02207667" lon="-7.29573167">
        <ele>655.0</ele>
        <time>2022-06-19T14:00:45.958Z</time>
      </trkpt>
      <trkpt lat="43.02207667" lon="-7.29573167">
        <ele>655.0</ele>
        <time>2022-06-19T14:00:46.965Z</time>
      </trkpt>
      <trkpt lat="43.02217667" lon="-7.29577667">
        <ele>655.0</ele>
        <time>2022-06-19T14:00:47.936Z</time>
      </trkpt>
      <trkpt lat="43.02217667" lon="-7.29577667">
        <ele>655.0</ele>
        <time>2022-06-19T14:00:48.941Z</time>
      </trkpt>
      <trkpt lat="43.02227833" lon="-7.29581667">
        <ele>655.0</ele>
        <time>2022-06-19T14:00:49.956Z</time>
      </trkpt>
      <trkpt lat="43.02233" lon="-7.29583167">
        <ele>654.0</ele>
        <time>2022-06-19T14:00:50.947Z</time>
      </trkpt>
      <trkpt lat="43.02233" lon="-7.29583167">
        <ele>654.0</ele>
        <time>2022-06-19T14:00:51.954Z</time>
      </trkpt>
      <trkpt lat="43.02243167" lon="-7.29586833">
        <ele>654.0</ele>
        <time>2022-06-19T14:00:52.938Z</time>
      </trkpt>
      <trkpt lat="43.02243167" lon="-7.29586833">
        <ele>654.0</ele>
        <time>2022-06-19T14:00:53.944Z</time>
      </trkpt>
      <trkpt lat="43.02253833" lon="-7.29591167">
        <ele>654.0</ele>
        <time>2022-06-19T14:00:54.937Z</time>
      </trkpt>
      <trkpt lat="43.022585" lon="-7.29594">
        <ele>653.0</ele>
        <time>2022-06-19T14:00:55.967Z</time>
      </trkpt>
      <trkpt lat="43.022585" lon="-7.29594">
        <ele>653.0</ele>
        <time>2022-06-19T14:00:56.933Z</time>
      </trkpt>
      <trkpt lat="43.02267" lon="-7.296">
        <ele>653.0</ele>
        <time>2022-06-19T14:00:57.946Z</time>
      </trkpt>
      <trkpt lat="43.02267" lon="-7.296">
        <ele>653.0</ele>
        <time>2022-06-19T14:00:58.953Z</time>
      </trkpt>
      <trkpt lat="43.022765" lon="-7.29606333">
        <ele>652.0</ele>
        <time>2022-06-19T14:00:59.958Z</time>
      </trkpt>
      <trkpt lat="43.022765" lon="-7.29606333">
        <ele>652.0</ele>
        <time>2022-06-19T14:01:00.933Z</time>
      </trkpt>
      <trkpt lat="43.02285833" lon="-7.29613667">
        <ele>652.0</ele>
        <time>2022-06-19T14:01:01.950Z</time>
      </trkpt>
      <trkpt lat="43.02285833" lon="-7.29613667">
        <ele>652.0</ele>
        <time>2022-06-19T14:01:02.957Z</time>
      </trkpt>
      <trkpt lat="43.02290667" lon="-7.29620333">
        <ele>652.0</ele>
        <time>2022-06-19T14:01:03.932Z</time>
      </trkpt>
      <trkpt lat="43.02290667" lon="-7.29620333">
        <ele>652.0</ele>
        <time>2022-06-19T14:01:04.938Z</time>
      </trkpt>
      <trkpt lat="43.02292333" lon="-7.296255">
        <ele>652.0</ele>
        <time>2022-06-19T14:01:05.951Z</time>
      </trkpt>
      <trkpt lat="43.02292333" lon="-7.296255">
        <ele>652.0</ele>
        <time>2022-06-19T14:01:06.967Z</time>
      </trkpt>
      <trkpt lat="43.02295667" lon="-7.29633167">
        <ele>652.0</ele>
        <time>2022-06-19T14:01:07.944Z</time>
      </trkpt>
      <trkpt lat="43.02295667" lon="-7.29633167">
        <ele>652.0</ele>
        <time>2022-06-19T14:01:08.964Z</time>
      </trkpt>
      <trkpt lat="43.02297667" lon="-7.29639">
        <ele>652.0</ele>
        <time>2022-06-19T14:01:09.937Z</time>
      </trkpt>
      <trkpt lat="43.02297667" lon="-7.29639">
        <ele>652.0</ele>
        <time>2022-06-19T14:01:10.944Z</time>
      </trkpt>
      <trkpt lat="43.02298" lon="-7.296445">
        <ele>653.0</ele>
        <time>2022-06-19T14:01:11.965Z</time>
      </trkpt>
      <trkpt lat="43.02298" lon="-7.296445">
        <ele>653.0</ele>
        <time>2022-06-19T14:01:12.963Z</time>
      </trkpt>
      <trkpt lat="43.02297333" lon="-7.29651">
        <ele>653.0</ele>
        <time>2022-06-19T14:01:13.966Z</time>
      </trkpt>
      <trkpt lat="43.02297333" lon="-7.29651">
        <ele>653.0</ele>
        <time>2022-06-19T14:01:14.931Z</time>
      </trkpt>
      <trkpt lat="43.02296833" lon="-7.29657167">
        <ele>653.0</ele>
        <time>2022-06-19T14:01:15.944Z</time>
      </trkpt>
      <trkpt lat="43.02296833" lon="-7.29659667">
        <ele>653.0</ele>
        <time>2022-06-19T14:01:16.956Z</time>
      </trkpt>
      <trkpt lat="43.02296833" lon="-7.29659667">
        <ele>653.0</ele>
        <time>2022-06-19T14:01:17.962Z</time>
      </trkpt>
      <trkpt lat="43.02296167" lon="-7.29663667">
        <ele>653.0</ele>
        <time>2022-06-19T14:01:18.936Z</time>
      </trkpt>
      <trkpt lat="43.02295667" lon="-7.29664833">
        <ele>653.0</ele>
        <time>2022-06-19T14:01:19.932Z</time>
      </trkpt>
      <trkpt lat="43.02292667" lon="-7.29671167">
        <ele>654.0</ele>
        <time>2022-06-19T14:01:20.950Z</time>
      </trkpt>
      <trkpt lat="43.02292667" lon="-7.29671167">
        <ele>654.0</ele>
        <time>2022-06-19T14:01:21.958Z</time>
      </trkpt>
      <trkpt lat="43.02291833" lon="-7.29674167">
        <ele>654.0</ele>
        <time>2022-06-19T14:01:22.945Z</time>
      </trkpt>
      <trkpt lat="43.02291833" lon="-7.29674167">
        <ele>654.0</ele>
        <time>2022-06-19T14:01:23.951Z</time>
      </trkpt>
      <trkpt lat="43.02290833" lon="-7.29680833">
        <ele>654.0</ele>
        <time>2022-06-19T14:01:24.966Z</time>
      </trkpt>
      <trkpt lat="43.0229" lon="-7.29684333">
        <ele>654.0</ele>
        <time>2022-06-19T14:01:25.939Z</time>
      </trkpt>
      <trkpt lat="43.0229" lon="-7.29684333">
        <ele>654.0</ele>
        <time>2022-06-19T14:01:26.944Z</time>
      </trkpt>
      <trkpt lat="43.02288333" lon="-7.29691167">
        <ele>655.0</ele>
        <time>2022-06-19T14:01:27.935Z</time>
      </trkpt>
      <trkpt lat="43.02288333" lon="-7.29691167">
        <ele>655.0</ele>
        <time>2022-06-19T14:01:28.940Z</time>
      </trkpt>
      <trkpt lat="43.02286" lon="-7.29699167">
        <ele>655.0</ele>
        <time>2022-06-19T14:01:29.965Z</time>
      </trkpt>
      <trkpt lat="43.02286" lon="-7.29699167">
        <ele>655.0</ele>
        <time>2022-06-19T14:01:30.930Z</time>
      </trkpt>
      <trkpt lat="43.02283333" lon="-7.29706667">
        <ele>655.0</ele>
        <time>2022-06-19T14:01:31.958Z</time>
      </trkpt>
      <trkpt lat="43.02283333" lon="-7.29706667">
        <ele>655.0</ele>
        <time>2022-06-19T14:01:32.965Z</time>
      </trkpt>
      <trkpt lat="43.02281167" lon="-7.29713333">
        <ele>655.0</ele>
        <time>2022-06-19T14:01:33.948Z</time>
      </trkpt>
      <trkpt lat="43.02281167" lon="-7.29713333">
        <ele>655.0</ele>
        <time>2022-06-19T14:01:34.964Z</time>
      </trkpt>
      <trkpt lat="43.022795" lon="-7.297225">
        <ele>655.0</ele>
        <time>2022-06-19T14:01:35.937Z</time>
      </trkpt>
      <trkpt lat="43.022795" lon="-7.297225">
        <ele>655.0</ele>
        <time>2022-06-19T14:01:36.942Z</time>
      </trkpt>
      <trkpt lat="43.02277833" lon="-7.29732">
        <ele>655.0</ele>
        <time>2022-06-19T14:01:37.949Z</time>
      </trkpt>
      <trkpt lat="43.02277833" lon="-7.29732">
        <ele>655.0</ele>
        <time>2022-06-19T14:01:38.965Z</time>
      </trkpt>
      <trkpt lat="43.02276667" lon="-7.29741333">
        <ele>655.0</ele>
        <time>2022-06-19T14:01:39.935Z</time>
      </trkpt>
      <trkpt lat="43.02276667" lon="-7.29741333">
        <ele>655.0</ele>
        <time>2022-06-19T14:01:40.941Z</time>
      </trkpt>
      <trkpt lat="43.02275833" lon="-7.29747833">
        <ele>655.0</ele>
        <time>2022-06-19T14:01:41.951Z</time>
      </trkpt>
      <trkpt lat="43.02275833" lon="-7.29747833">
        <ele>655.0</ele>
        <time>2022-06-19T14:01:42.957Z</time>
      </trkpt>
      <trkpt lat="43.02276333" lon="-7.29753833">
        <ele>656.0</ele>
        <time>2022-06-19T14:01:43.966Z</time>
      </trkpt>
      <trkpt lat="43.022765" lon="-7.29757167">
        <ele>656.0</ele>
        <time>2022-06-19T14:01:44.944Z</time>
      </trkpt>
      <trkpt lat="43.022765" lon="-7.29757167">
        <ele>656.0</ele>
        <time>2022-06-19T14:01:45.950Z</time>
      </trkpt>
      <trkpt lat="43.022755" lon="-7.29764833">
        <ele>656.0</ele>
        <time>2022-06-19T14:01:46.959Z</time>
      </trkpt>
      <trkpt lat="43.022755" lon="-7.29764833">
        <ele>656.0</ele>
        <time>2022-06-19T14:01:47.965Z</time>
      </trkpt>
      <trkpt lat="43.02272833" lon="-7.297735">
        <ele>656.0</ele>
        <time>2022-06-19T14:01:48.935Z</time>
      </trkpt>
      <trkpt lat="43.02271167" lon="-7.29779">
        <ele>656.0</ele>
        <time>2022-06-19T14:01:49.967Z</time>
      </trkpt>
      <trkpt lat="43.02271167" lon="-7.29779">
        <ele>656.0</ele>
        <time>2022-06-19T14:01:50.933Z</time>
      </trkpt>
      <trkpt lat="43.02267333" lon="-7.29791333">
        <ele>654.0</ele>
        <time>2022-06-19T14:01:51.941Z</time>
      </trkpt>
      <trkpt lat="43.02267333" lon="-7.29791333">
        <ele>654.0</ele>
        <time>2022-06-19T14:01:52.957Z</time>
      </trkpt>
      <trkpt lat="43.02262667" lon="-7.29803">
        <ele>654.0</ele>
        <time>2022-06-19T14:01:53.963Z</time>
      </trkpt>
      <trkpt lat="43.02262667" lon="-7.29803">
        <ele>654.0</ele>
        <time>2022-06-19T14:01:54.939Z</time>
      </trkpt>
      <trkpt lat="43.02258833" lon="-7.29815167">
        <ele>654.0</ele>
        <time>2022-06-19T14:01:55.943Z</time>
      </trkpt>
      <trkpt lat="43.02256667" lon="-7.29821833">
        <ele>654.0</ele>
        <time>2022-06-19T14:01:56.964Z</time>
      </trkpt>
      <trkpt lat="43.02256667" lon="-7.29821833">
        <ele>654.0</ele>
        <time>2022-06-19T14:01:57.930Z</time>
      </trkpt>
      <trkpt lat="43.02249833" lon="-7.29835">
        <ele>653.0</ele>
        <time>2022-06-19T14:01:58.942Z</time>
      </trkpt>
      <trkpt lat="43.02249833" lon="-7.29835">
        <ele>653.0</ele>
        <time>2022-06-19T14:01:59.961Z</time>
      </trkpt>
      <trkpt lat="43.022445" lon="-7.29850833">
        <ele>652.0</ele>
        <time>2022-06-19T14:02:00.964Z</time>
      </trkpt>
      <trkpt lat="43.02242833" lon="-7.29859667">
        <ele>651.0</ele>
        <time>2022-06-19T14:02:01.953Z</time>
      </trkpt>
      <trkpt lat="43.02242833" lon="-7.29859667">
        <ele>651.0</ele>
        <time>2022-06-19T14:02:02.963Z</time>
      </trkpt>
      <trkpt lat="43.02242333" lon="-7.29874667">
        <ele>651.0</ele>
        <time>2022-06-19T14:02:03.938Z</time>
      </trkpt>
      <trkpt lat="43.02242333" lon="-7.29874667">
        <ele>651.0</ele>
        <time>2022-06-19T14:02:04.944Z</time>
      </trkpt>
      <trkpt lat="43.02244667" lon="-7.29887167">
        <ele>650.0</ele>
        <time>2022-06-19T14:02:05.964Z</time>
      </trkpt>
      <trkpt lat="43.02244667" lon="-7.29887167">
        <ele>650.0</ele>
        <time>2022-06-19T14:02:06.929Z</time>
      </trkpt>
      <trkpt lat="43.02244667" lon="-7.29898167">
        <ele>649.0</ele>
        <time>2022-06-19T14:02:07.946Z</time>
      </trkpt>
      <trkpt lat="43.02244667" lon="-7.29898167">
        <ele>649.0</ele>
        <time>2022-06-19T14:02:08.937Z</time>
      </trkpt>
      <trkpt lat="43.02238333" lon="-7.29909667">
        <ele>648.0</ele>
        <time>2022-06-19T14:02:09.965Z</time>
      </trkpt>
      <trkpt lat="43.02238333" lon="-7.29909667">
        <ele>648.0</ele>
        <time>2022-06-19T14:02:10.931Z</time>
      </trkpt>
      <trkpt lat="43.02233833" lon="-7.299235">
        <ele>647.0</ele>
        <time>2022-06-19T14:02:11.955Z</time>
      </trkpt>
      <trkpt lat="43.02233833" lon="-7.299235">
        <ele>647.0</ele>
        <time>2022-06-19T14:02:12.932Z</time>
      </trkpt>
      <trkpt lat="43.022285" lon="-7.299385">
        <ele>645.0</ele>
        <time>2022-06-19T14:02:13.964Z</time>
      </trkpt>
      <trkpt lat="43.022285" lon="-7.299385">
        <ele>645.0</ele>
        <time>2022-06-19T14:02:14.929Z</time>
      </trkpt>
      <trkpt lat="43.02226667" lon="-7.2995">
        <ele>645.0</ele>
        <time>2022-06-19T14:02:15.935Z</time>
      </trkpt>
      <trkpt lat="43.02226667" lon="-7.2995">
        <ele>645.0</ele>
        <time>2022-06-19T14:02:16.968Z</time>
      </trkpt>
      <trkpt lat="43.02229667" lon="-7.29959833">
        <ele>645.0</ele>
        <time>2022-06-19T14:02:17.964Z</time>
      </trkpt>
      <trkpt lat="43.022325" lon="-7.29964333">
        <ele>645.0</ele>
        <time>2022-06-19T14:02:18.937Z</time>
      </trkpt>
      <trkpt lat="43.02235833" lon="-7.29968833">
        <ele>645.0</ele>
        <time>2022-06-19T14:02:19.957Z</time>
      </trkpt>
      <trkpt lat="43.02235833" lon="-7.29968833">
        <ele>645.0</ele>
        <time>2022-06-19T14:02:20.935Z</time>
      </trkpt>
      <trkpt lat="43.02241667" lon="-7.29976">
        <ele>645.0</ele>
        <time>2022-06-19T14:02:21.956Z</time>
      </trkpt>
      <trkpt lat="43.02241667" lon="-7.29976">
        <ele>645.0</ele>
        <time>2022-06-19T14:02:22.962Z</time>
      </trkpt>
      <trkpt lat="43.022455" lon="-7.29978333">
        <ele>645.0</ele>
        <time>2022-06-19T14:02:23.934Z</time>
      </trkpt>
      <trkpt lat="43.022455" lon="-7.29978333">
        <ele>645.0</ele>
        <time>2022-06-19T14:02:24.940Z</time>
      </trkpt>
      <trkpt lat="43.0225" lon="-7.29979667">
        <ele>644.0</ele>
        <time>2022-06-19T14:02:25.965Z</time>
      </trkpt>
      <trkpt lat="43.0225" lon="-7.29979667">
        <ele>644.0</ele>
        <time>2022-06-19T14:02:26.931Z</time>
      </trkpt>
      <trkpt lat="43.02255667" lon="-7.29980667">
        <ele>644.0</ele>
        <time>2022-06-19T14:02:27.929Z</time>
      </trkpt>
      <trkpt lat="43.02259" lon="-7.29980833">
        <ele>643.0</ele>
        <time>2022-06-19T14:02:28.942Z</time>
      </trkpt>
      <trkpt lat="43.02259" lon="-7.29980833">
        <ele>643.0</ele>
        <time>2022-06-19T14:02:29.948Z</time>
      </trkpt>
      <trkpt lat="43.02266167" lon="-7.29980833">
        <ele>644.0</ele>
        <time>2022-06-19T14:02:30.965Z</time>
      </trkpt>
      <trkpt lat="43.02269833" lon="-7.29980833">
        <ele>644.0</ele>
        <time>2022-06-19T14:02:31.964Z</time>
      </trkpt>
      <trkpt lat="43.02269833" lon="-7.29980833">
        <ele>644.0</ele>
        <time>2022-06-19T14:02:32.930Z</time>
      </trkpt>
      <trkpt lat="43.02277333" lon="-7.29981167">
        <ele>644.0</ele>
        <time>2022-06-19T14:02:33.952Z</time>
      </trkpt>
      <trkpt lat="43.02277333" lon="-7.29981167">
        <ele>644.0</ele>
        <time>2022-06-19T14:02:34.965Z</time>
      </trkpt>
      <trkpt lat="43.022845" lon="-7.29982167">
        <ele>644.0</ele>
        <time>2022-06-19T14:02:35.960Z</time>
      </trkpt>
      <trkpt lat="43.022845" lon="-7.29982167">
        <ele>644.0</ele>
        <time>2022-06-19T14:02:36.935Z</time>
      </trkpt>
      <trkpt lat="43.022915" lon="-7.29982667">
        <ele>645.0</ele>
        <time>2022-06-19T14:02:37.964Z</time>
      </trkpt>
      <trkpt lat="43.022915" lon="-7.29982667">
        <ele>645.0</ele>
        <time>2022-06-19T14:02:38.930Z</time>
      </trkpt>
      <trkpt lat="43.02298667" lon="-7.29985667">
        <ele>645.0</ele>
        <time>2022-06-19T14:02:39.948Z</time>
      </trkpt>
      <trkpt lat="43.02298667" lon="-7.29985667">
        <ele>645.0</ele>
        <time>2022-06-19T14:02:40.929Z</time>
      </trkpt>
      <trkpt lat="43.02306333" lon="-7.299915">
        <ele>645.0</ele>
        <time>2022-06-19T14:02:41.964Z</time>
      </trkpt>
      <trkpt lat="43.02306333" lon="-7.299915">
        <ele>645.0</ele>
        <time>2022-06-19T14:02:42.930Z</time>
      </trkpt>
      <trkpt lat="43.02313667" lon="-7.299985">
        <ele>645.0</ele>
        <time>2022-06-19T14:02:43.945Z</time>
      </trkpt>
      <trkpt lat="43.02313667" lon="-7.299985">
        <ele>645.0</ele>
        <time>2022-06-19T14:02:44.940Z</time>
      </trkpt>
      <trkpt lat="43.02320167" lon="-7.30007167">
        <ele>645.0</ele>
        <time>2022-06-19T14:02:45.951Z</time>
      </trkpt>
      <trkpt lat="43.02320167" lon="-7.30007167">
        <ele>645.0</ele>
        <time>2022-06-19T14:02:46.958Z</time>
      </trkpt>
      <trkpt lat="43.02326167" lon="-7.300185">
        <ele>644.0</ele>
        <time>2022-06-19T14:02:47.933Z</time>
      </trkpt>
      <trkpt lat="43.02329333" lon="-7.30024333">
        <ele>644.0</ele>
        <time>2022-06-19T14:02:48.947Z</time>
      </trkpt>
      <trkpt lat="43.02329333" lon="-7.30024333">
        <ele>644.0</ele>
        <time>2022-06-19T14:02:49.953Z</time>
      </trkpt>
      <trkpt lat="43.02335333" lon="-7.30035667">
        <ele>643.0</ele>
        <time>2022-06-19T14:02:50.966Z</time>
      </trkpt>
      <trkpt lat="43.02338667" lon="-7.30041">
        <ele>643.0</ele>
        <time>2022-06-19T14:02:51.964Z</time>
      </trkpt>
      <trkpt lat="43.02338667" lon="-7.30041">
        <ele>643.0</ele>
        <time>2022-06-19T14:02:52.931Z</time>
      </trkpt>
      <trkpt lat="43.02344667" lon="-7.300515">
        <ele>643.0</ele>
        <time>2022-06-19T14:02:53.953Z</time>
      </trkpt>
      <trkpt lat="43.02344667" lon="-7.300515">
        <ele>643.0</ele>
        <time>2022-06-19T14:02:54.929Z</time>
      </trkpt>
      <trkpt lat="43.02351667" lon="-7.30061">
        <ele>643.0</ele>
        <time>2022-06-19T14:02:55.953Z</time>
      </trkpt>
      <trkpt lat="43.02351667" lon="-7.30061">
        <ele>643.0</ele>
        <time>2022-06-19T14:02:56.960Z</time>
      </trkpt>
      <trkpt lat="43.02359667" lon="-7.30069667">
        <ele>643.0</ele>
        <time>2022-06-19T14:02:57.951Z</time>
      </trkpt>
      <trkpt lat="43.02363833" lon="-7.30073667">
        <ele>643.0</ele>
        <time>2022-06-19T14:02:58.941Z</time>
      </trkpt>
      <trkpt lat="43.02363833" lon="-7.30073667">
        <ele>643.0</ele>
        <time>2022-06-19T14:02:59.958Z</time>
      </trkpt>
      <trkpt lat="43.023725" lon="-7.30081">
        <ele>642.0</ele>
        <time>2022-06-19T14:03:00.938Z</time>
      </trkpt>
      <trkpt lat="43.02377" lon="-7.300845">
        <ele>642.0</ele>
        <time>2022-06-19T14:03:01.950Z</time>
      </trkpt>
      <trkpt lat="43.02377" lon="-7.300845">
        <ele>642.0</ele>
        <time>2022-06-19T14:03:02.959Z</time>
      </trkpt>
      <trkpt lat="43.02386333" lon="-7.300915">
        <ele>642.0</ele>
        <time>2022-06-19T14:03:03.933Z</time>
      </trkpt>
      <trkpt lat="43.02391" lon="-7.30095">
        <ele>642.0</ele>
        <time>2022-06-19T14:03:04.947Z</time>
      </trkpt>
      <trkpt lat="43.02391" lon="-7.30095">
        <ele>642.0</ele>
        <time>2022-06-19T14:03:05.953Z</time>
      </trkpt>
      <trkpt lat="43.02399667" lon="-7.30103833">
        <ele>642.0</ele>
        <time>2022-06-19T14:03:06.968Z</time>
      </trkpt>
      <trkpt lat="43.02403167" lon="-7.30109333">
        <ele>642.0</ele>
        <time>2022-06-19T14:03:07.964Z</time>
      </trkpt>
      <trkpt lat="43.02403167" lon="-7.30109333">
        <ele>642.0</ele>
        <time>2022-06-19T14:03:08.930Z</time>
      </trkpt>
      <trkpt lat="43.024085" lon="-7.30122167">
        <ele>642.0</ele>
        <time>2022-06-19T14:03:09.951Z</time>
      </trkpt>
      <trkpt lat="43.024085" lon="-7.30122167">
        <ele>642.0</ele>
        <time>2022-06-19T14:03:10.958Z</time>
      </trkpt>
      <trkpt lat="43.02410667" lon="-7.30136667">
        <ele>643.0</ele>
        <time>2022-06-19T14:03:11.948Z</time>
      </trkpt>
      <trkpt lat="43.02410667" lon="-7.30136667">
        <ele>643.0</ele>
        <time>2022-06-19T14:03:12.956Z</time>
      </trkpt>
      <trkpt lat="43.02408833" lon="-7.30150333">
        <ele>643.0</ele>
        <time>2022-06-19T14:03:13.968Z</time>
      </trkpt>
      <trkpt lat="43.02408833" lon="-7.30150333">
        <ele>643.0</ele>
        <time>2022-06-19T14:03:14.933Z</time>
      </trkpt>
      <trkpt lat="43.02403833" lon="-7.30161">
        <ele>643.0</ele>
        <time>2022-06-19T14:03:15.952Z</time>
      </trkpt>
      <trkpt lat="43.02403833" lon="-7.30161">
        <ele>643.0</ele>
        <time>2022-06-19T14:03:16.959Z</time>
      </trkpt>
      <trkpt lat="43.02400333" lon="-7.30168333">
        <ele>644.0</ele>
        <time>2022-06-19T14:03:17.953Z</time>
      </trkpt>
      <trkpt lat="43.02400333" lon="-7.30168333">
        <ele>644.0</ele>
        <time>2022-06-19T14:03:18.932Z</time>
      </trkpt>
      <trkpt lat="43.02398167" lon="-7.30177667">
        <ele>644.0</ele>
        <time>2022-06-19T14:03:19.938Z</time>
      </trkpt>
      <trkpt lat="43.02398167" lon="-7.30177667">
        <ele>644.0</ele>
        <time>2022-06-19T14:03:20.958Z</time>
      </trkpt>
      <trkpt lat="43.02397833" lon="-7.30189667">
        <ele>644.0</ele>
        <time>2022-06-19T14:03:22.198Z</time>
      </trkpt>
      <trkpt lat="43.02397833" lon="-7.30189667">
        <ele>644.0</ele>
        <time>2022-06-19T14:03:22.946Z</time>
      </trkpt>
      <trkpt lat="43.02397833" lon="-7.30203833">
        <ele>643.0</ele>
        <time>2022-06-19T14:03:23.944Z</time>
      </trkpt>
      <trkpt lat="43.02397833" lon="-7.30203833">
        <ele>643.0</ele>
        <time>2022-06-19T14:03:24.950Z</time>
      </trkpt>
      <trkpt lat="43.02397833" lon="-7.30219833">
        <ele>643.0</ele>
        <time>2022-06-19T14:03:25.945Z</time>
      </trkpt>
      <trkpt lat="43.02397833" lon="-7.30219833">
        <ele>643.0</ele>
        <time>2022-06-19T14:03:26.951Z</time>
      </trkpt>
      <trkpt lat="43.023975" lon="-7.302365">
        <ele>642.0</ele>
        <time>2022-06-19T14:03:27.952Z</time>
      </trkpt>
      <trkpt lat="43.023975" lon="-7.302365">
        <ele>642.0</ele>
        <time>2022-06-19T14:03:28.959Z</time>
      </trkpt>
      <trkpt lat="43.02398333" lon="-7.30252">
        <ele>642.0</ele>
        <time>2022-06-19T14:03:29.934Z</time>
      </trkpt>
      <trkpt lat="43.02398667" lon="-7.30259333">
        <ele>641.0</ele>
        <time>2022-06-19T14:03:30.929Z</time>
      </trkpt>
      <trkpt lat="43.02399167" lon="-7.30267">
        <ele>641.0</ele>
        <time>2022-06-19T14:03:31.935Z</time>
      </trkpt>
      <trkpt lat="43.02399167" lon="-7.30267">
        <ele>641.0</ele>
        <time>2022-06-19T14:03:32.941Z</time>
      </trkpt>
      <trkpt lat="43.02400167" lon="-7.30283333">
        <ele>640.0</ele>
        <time>2022-06-19T14:03:33.957Z</time>
      </trkpt>
      <trkpt lat="43.02400333" lon="-7.30291">
        <ele>640.0</ele>
        <time>2022-06-19T14:03:34.945Z</time>
      </trkpt>
      <trkpt lat="43.02400667" lon="-7.30298667">
        <ele>639.0</ele>
        <time>2022-06-19T14:03:35.956Z</time>
      </trkpt>
      <trkpt lat="43.02400667" lon="-7.30298667">
        <ele>639.0</ele>
        <time>2022-06-19T14:03:36.962Z</time>
      </trkpt>
      <trkpt lat="43.02399167" lon="-7.30314">
        <ele>639.0</ele>
        <time>2022-06-19T14:03:37.962Z</time>
      </trkpt>
      <trkpt lat="43.02399167" lon="-7.30314">
        <ele>639.0</ele>
        <time>2022-06-19T14:03:38.968Z</time>
      </trkpt>
      <trkpt lat="43.02399667" lon="-7.30333167">
        <ele>637.0</ele>
        <time>2022-06-19T14:03:39.948Z</time>
      </trkpt>
      <trkpt lat="43.02399667" lon="-7.30333167">
        <ele>637.0</ele>
        <time>2022-06-19T14:03:40.963Z</time>
      </trkpt>
      <trkpt lat="43.024025" lon="-7.30350833">
        <ele>636.0</ele>
        <time>2022-06-19T14:03:41.966Z</time>
      </trkpt>
      <trkpt lat="43.024025" lon="-7.30350833">
        <ele>636.0</ele>
        <time>2022-06-19T14:03:42.932Z</time>
      </trkpt>
      <trkpt lat="43.02407167" lon="-7.30367167">
        <ele>635.0</ele>
        <time>2022-06-19T14:03:43.945Z</time>
      </trkpt>
      <trkpt lat="43.02407167" lon="-7.30367167">
        <ele>635.0</ele>
        <time>2022-06-19T14:03:44.952Z</time>
      </trkpt>
      <trkpt lat="43.02409833" lon="-7.30386333">
        <ele>634.0</ele>
        <time>2022-06-19T14:03:45.941Z</time>
      </trkpt>
      <trkpt lat="43.02409833" lon="-7.30386333">
        <ele>634.0</ele>
        <time>2022-06-19T14:03:46.947Z</time>
      </trkpt>
      <trkpt lat="43.02409333" lon="-7.30402833">
        <ele>633.0</ele>
        <time>2022-06-19T14:03:47.935Z</time>
      </trkpt>
      <trkpt lat="43.02409333" lon="-7.30402833">
        <ele>633.0</ele>
        <time>2022-06-19T14:03:48.964Z</time>
      </trkpt>
      <trkpt lat="43.02411333" lon="-7.30415667">
        <ele>632.0</ele>
        <time>2022-06-19T14:03:49.939Z</time>
      </trkpt>
      <trkpt lat="43.02411333" lon="-7.30415667">
        <ele>632.0</ele>
        <time>2022-06-19T14:03:50.945Z</time>
      </trkpt>
      <trkpt lat="43.02415" lon="-7.304305">
        <ele>631.0</ele>
        <time>2022-06-19T14:03:51.946Z</time>
      </trkpt>
      <trkpt lat="43.02415" lon="-7.304305">
        <ele>631.0</ele>
        <time>2022-06-19T14:03:52.959Z</time>
      </trkpt>
      <trkpt lat="43.02417333" lon="-7.30444833">
        <ele>630.0</ele>
        <time>2022-06-19T14:03:53.941Z</time>
      </trkpt>
      <trkpt lat="43.024185" lon="-7.30452833">
        <ele>630.0</ele>
        <time>2022-06-19T14:03:54.955Z</time>
      </trkpt>
      <trkpt lat="43.024185" lon="-7.30452833">
        <ele>630.0</ele>
        <time>2022-06-19T14:03:55.960Z</time>
      </trkpt>
      <trkpt lat="43.02419667" lon="-7.3046">
        <ele>630.0</ele>
        <time>2022-06-19T14:03:56.935Z</time>
      </trkpt>
      <trkpt lat="43.02419667" lon="-7.304635">
        <ele>629.0</ele>
        <time>2022-06-19T14:03:57.956Z</time>
      </trkpt>
      <trkpt lat="43.02419667" lon="-7.304635">
        <ele>629.0</ele>
        <time>2022-06-19T14:03:58.964Z</time>
      </trkpt>
      <trkpt lat="43.02419833" lon="-7.304725">
        <ele>629.0</ele>
        <time>2022-06-19T14:03:59.939Z</time>
      </trkpt>
      <trkpt lat="43.02419833" lon="-7.304725">
        <ele>629.0</ele>
        <time>2022-06-19T14:04:00.960Z</time>
      </trkpt>
      <trkpt lat="43.02420333" lon="-7.30483">
        <ele>628.0</ele>
        <time>2022-06-19T14:04:01.942Z</time>
      </trkpt>
      <trkpt lat="43.02420333" lon="-7.30483">
        <ele>628.0</ele>
        <time>2022-06-19T14:04:02.960Z</time>
      </trkpt>
      <trkpt lat="43.02421833" lon="-7.30495167">
        <ele>627.0</ele>
        <time>2022-06-19T14:04:03.937Z</time>
      </trkpt>
      <trkpt lat="43.02421833" lon="-7.30495167">
        <ele>627.0</ele>
        <time>2022-06-19T14:04:04.944Z</time>
      </trkpt>
      <trkpt lat="43.02423833" lon="-7.30512833">
        <ele>626.0</ele>
        <time>2022-06-19T14:04:05.945Z</time>
      </trkpt>
      <trkpt lat="43.02423833" lon="-7.30512833">
        <ele>626.0</ele>
        <time>2022-06-19T14:04:06.958Z</time>
      </trkpt>
      <trkpt lat="43.02424833" lon="-7.305315">
        <ele>625.0</ele>
        <time>2022-06-19T14:04:07.954Z</time>
      </trkpt>
      <trkpt lat="43.02424833" lon="-7.305315">
        <ele>625.0</ele>
        <time>2022-06-19T14:04:08.959Z</time>
      </trkpt>
      <trkpt lat="43.024225" lon="-7.305515">
        <ele>624.0</ele>
        <time>2022-06-19T14:04:09.931Z</time>
      </trkpt>
      <trkpt lat="43.024225" lon="-7.305515">
        <ele>624.0</ele>
        <time>2022-06-19T14:04:10.941Z</time>
      </trkpt>
      <trkpt lat="43.0242" lon="-7.3057">
        <ele>623.0</ele>
        <time>2022-06-19T14:04:11.947Z</time>
      </trkpt>
      <trkpt lat="43.0242" lon="-7.3057">
        <ele>623.0</ele>
        <time>2022-06-19T14:04:12.967Z</time>
      </trkpt>
      <trkpt lat="43.02414833" lon="-7.30590333">
        <ele>622.0</ele>
        <time>2022-06-19T14:04:13.950Z</time>
      </trkpt>
      <trkpt lat="43.02414833" lon="-7.30590333">
        <ele>622.0</ele>
        <time>2022-06-19T14:04:14.942Z</time>
      </trkpt>
      <trkpt lat="43.02414667" lon="-7.30617833">
        <ele>620.0</ele>
        <time>2022-06-19T14:04:15.931Z</time>
      </trkpt>
      <trkpt lat="43.02414667" lon="-7.30617833">
        <ele>620.0</ele>
        <time>2022-06-19T14:04:16.937Z</time>
      </trkpt>
      <trkpt lat="43.02415667" lon="-7.30638833">
        <ele>619.0</ele>
        <time>2022-06-19T14:04:17.999Z</time>
      </trkpt>
      <trkpt lat="43.02415667" lon="-7.30638833">
        <ele>619.0</ele>
        <time>2022-06-19T14:04:18.938Z</time>
      </trkpt>
      <trkpt lat="43.02417167" lon="-7.30654333">
        <ele>618.0</ele>
        <time>2022-06-19T14:04:19.948Z</time>
      </trkpt>
      <trkpt lat="43.02417167" lon="-7.30654333">
        <ele>618.0</ele>
        <time>2022-06-19T14:04:20.965Z</time>
      </trkpt>
      <trkpt lat="43.02422333" lon="-7.30668">
        <ele>617.0</ele>
        <time>2022-06-19T14:04:21.938Z</time>
      </trkpt>
      <trkpt lat="43.02422333" lon="-7.30668">
        <ele>617.0</ele>
        <time>2022-06-19T14:04:22.960Z</time>
      </trkpt>
      <trkpt lat="43.02432167" lon="-7.30681667">
        <ele>615.0</ele>
        <time>2022-06-19T14:04:23.969Z</time>
      </trkpt>
      <trkpt lat="43.02432167" lon="-7.30681667">
        <ele>615.0</ele>
        <time>2022-06-19T14:04:24.934Z</time>
      </trkpt>
      <trkpt lat="43.02440667" lon="-7.30698">
        <ele>613.0</ele>
        <time>2022-06-19T14:04:25.946Z</time>
      </trkpt>
      <trkpt lat="43.02440667" lon="-7.30698">
        <ele>613.0</ele>
        <time>2022-06-19T14:04:26.953Z</time>
      </trkpt>
      <trkpt lat="43.02447167" lon="-7.307155">
        <ele>613.0</ele>
        <time>2022-06-19T14:04:27.965Z</time>
      </trkpt>
      <trkpt lat="43.02447167" lon="-7.307155">
        <ele>613.0</ele>
        <time>2022-06-19T14:04:28.933Z</time>
      </trkpt>
      <trkpt lat="43.02449833" lon="-7.30732333">
        <ele>612.0</ele>
        <time>2022-06-19T14:04:29.934Z</time>
      </trkpt>
      <trkpt lat="43.02449833" lon="-7.30732333">
        <ele>612.0</ele>
        <time>2022-06-19T14:04:30.940Z</time>
      </trkpt>
      <trkpt lat="43.02451167" lon="-7.30746167">
        <ele>612.0</ele>
        <time>2022-06-19T14:04:31.949Z</time>
      </trkpt>
      <trkpt lat="43.02451167" lon="-7.30746167">
        <ele>612.0</ele>
        <time>2022-06-19T14:04:32.939Z</time>
      </trkpt>
      <trkpt lat="43.02454167" lon="-7.30755333">
        <ele>611.0</ele>
        <time>2022-06-19T14:04:33.955Z</time>
      </trkpt>
      <trkpt lat="43.02454167" lon="-7.30755333">
        <ele>611.0</ele>
        <time>2022-06-19T14:04:34.962Z</time>
      </trkpt>
      <trkpt lat="43.02458333" lon="-7.307595">
        <ele>610.0</ele>
        <time>2022-06-19T14:04:35.966Z</time>
      </trkpt>
      <trkpt lat="43.02458333" lon="-7.307595">
        <ele>610.0</ele>
        <time>2022-06-19T14:04:36.948Z</time>
      </trkpt>
      <trkpt lat="43.02461833" lon="-7.30763333">
        <ele>610.0</ele>
        <time>2022-06-19T14:04:37.934Z</time>
      </trkpt>
      <trkpt lat="43.02461833" lon="-7.30763333">
        <ele>610.0</ele>
        <time>2022-06-19T14:04:38.941Z</time>
      </trkpt>
      <trkpt lat="43.02464167" lon="-7.30767">
        <ele>609.0</ele>
        <time>2022-06-19T14:04:39.933Z</time>
      </trkpt>
      <trkpt lat="43.02465333" lon="-7.30768667">
        <ele>609.0</ele>
        <time>2022-06-19T14:04:40.949Z</time>
      </trkpt>
      <trkpt lat="43.02465333" lon="-7.30768667">
        <ele>609.0</ele>
        <time>2022-06-19T14:04:41.955Z</time>
      </trkpt>
      <trkpt lat="43.024675" lon="-7.307715">
        <ele>609.0</ele>
        <time>2022-06-19T14:04:42.964Z</time>
      </trkpt>
      <trkpt lat="43.02468833" lon="-7.30773167">
        <ele>608.0</ele>
        <time>2022-06-19T14:04:43.939Z</time>
      </trkpt>
      <trkpt lat="43.02468833" lon="-7.30773167">
        <ele>608.0</ele>
        <time>2022-06-19T14:04:44.945Z</time>
      </trkpt>
      <trkpt lat="43.02471333" lon="-7.30778167">
        <ele>608.0</ele>
        <time>2022-06-19T14:04:45.951Z</time>
      </trkpt>
      <trkpt lat="43.02472667" lon="-7.30780667">
        <ele>608.0</ele>
        <time>2022-06-19T14:04:46.937Z</time>
      </trkpt>
      <trkpt lat="43.02472667" lon="-7.30780667">
        <ele>608.0</ele>
        <time>2022-06-19T14:04:47.944Z</time>
      </trkpt>
      <trkpt lat="43.02475" lon="-7.30784833">
        <ele>607.0</ele>
        <time>2022-06-19T14:04:48.939Z</time>
      </trkpt>
      <trkpt lat="43.02476" lon="-7.30786833">
        <ele>607.0</ele>
        <time>2022-06-19T14:04:49.949Z</time>
      </trkpt>
      <trkpt lat="43.02476" lon="-7.30786833">
        <ele>607.0</ele>
        <time>2022-06-19T14:04:50.960Z</time>
      </trkpt>
      <trkpt lat="43.024785" lon="-7.30790833">
        <ele>606.0</ele>
        <time>2022-06-19T14:04:51.931Z</time>
      </trkpt>
      <trkpt lat="43.024785" lon="-7.30790833">
        <ele>606.0</ele>
        <time>2022-06-19T14:04:52.938Z</time>
      </trkpt>
      <trkpt lat="43.02479333" lon="-7.30795667">
        <ele>606.0</ele>
        <time>2022-06-19T14:04:53.946Z</time>
      </trkpt>
      <trkpt lat="43.02479333" lon="-7.30795667">
        <ele>606.0</ele>
        <time>2022-06-19T14:04:54.951Z</time>
      </trkpt>
      <trkpt lat="43.02482333" lon="-7.308">
        <ele>606.0</ele>
        <time>2022-06-19T14:04:55.950Z</time>
      </trkpt>
      <trkpt lat="43.02482333" lon="-7.308">
        <ele>606.0</ele>
        <time>2022-06-19T14:04:56.957Z</time>
      </trkpt>
      <trkpt lat="43.02485833" lon="-7.30806333">
        <ele>606.0</ele>
        <time>2022-06-19T14:04:57.932Z</time>
      </trkpt>
      <trkpt lat="43.02487833" lon="-7.30809">
        <ele>606.0</ele>
        <time>2022-06-19T14:04:58.947Z</time>
      </trkpt>
      <trkpt lat="43.02487833" lon="-7.30809">
        <ele>606.0</ele>
        <time>2022-06-19T14:04:59.953Z</time>
      </trkpt>
      <trkpt lat="43.02492167" lon="-7.308145">
        <ele>606.0</ele>
        <time>2022-06-19T14:05:00.967Z</time>
      </trkpt>
      <trkpt lat="43.02494333" lon="-7.30816667">
        <ele>606.0</ele>
        <time>2022-06-19T14:05:01.942Z</time>
      </trkpt>
      <trkpt lat="43.02494333" lon="-7.30816667">
        <ele>606.0</ele>
        <time>2022-06-19T14:05:02.966Z</time>
      </trkpt>
      <trkpt lat="43.024985" lon="-7.30822167">
        <ele>605.0</ele>
        <time>2022-06-19T14:05:03.933Z</time>
      </trkpt>
      <trkpt lat="43.024985" lon="-7.30822167">
        <ele>605.0</ele>
        <time>2022-06-19T14:05:04.960Z</time>
      </trkpt>
      <trkpt lat="43.02502667" lon="-7.308275">
        <ele>605.0</ele>
        <time>2022-06-19T14:05:05.944Z</time>
      </trkpt>
      <trkpt lat="43.02502667" lon="-7.308275">
        <ele>605.0</ele>
        <time>2022-06-19T14:05:06.956Z</time>
      </trkpt>
      <trkpt lat="43.02507167" lon="-7.30833167">
        <ele>605.0</ele>
        <time>2022-06-19T14:05:07.934Z</time>
      </trkpt>
      <trkpt lat="43.025085" lon="-7.30837667">
        <ele>605.0</ele>
        <time>2022-06-19T14:05:08.962Z</time>
      </trkpt>
      <trkpt lat="43.025085" lon="-7.30837667">
        <ele>605.0</ele>
        <time>2022-06-19T14:05:09.932Z</time>
      </trkpt>
      <trkpt lat="43.02512833" lon="-7.30844833">
        <ele>604.0</ele>
        <time>2022-06-19T14:05:10.966Z</time>
      </trkpt>
      <trkpt lat="43.02515333" lon="-7.30847167">
        <ele>604.0</ele>
        <time>2022-06-19T14:05:11.944Z</time>
      </trkpt>
      <trkpt lat="43.02515333" lon="-7.30847167">
        <ele>604.0</ele>
        <time>2022-06-19T14:05:12.960Z</time>
      </trkpt>
      <trkpt lat="43.02520333" lon="-7.308495">
        <ele>605.0</ele>
        <time>2022-06-19T14:05:13.947Z</time>
      </trkpt>
      <trkpt lat="43.02520333" lon="-7.308495">
        <ele>605.0</ele>
        <time>2022-06-19T14:05:14.968Z</time>
      </trkpt>
      <trkpt lat="43.02524667" lon="-7.308565">
        <ele>606.0</ele>
        <time>2022-06-19T14:05:15.942Z</time>
      </trkpt>
      <trkpt lat="43.025275" lon="-7.30861833">
        <ele>606.0</ele>
        <time>2022-06-19T14:05:16.953Z</time>
      </trkpt>
      <trkpt lat="43.02530167" lon="-7.30865333">
        <ele>606.0</ele>
        <time>2022-06-19T14:05:17.941Z</time>
      </trkpt>
      <trkpt lat="43.02530167" lon="-7.30865333">
        <ele>606.0</ele>
        <time>2022-06-19T14:05:18.950Z</time>
      </trkpt>
      <trkpt lat="43.02535333" lon="-7.30871333">
        <ele>606.0</ele>
        <time>2022-06-19T14:05:19.932Z</time>
      </trkpt>
      <trkpt lat="43.02535333" lon="-7.30871333">
        <ele>606.0</ele>
        <time>2022-06-19T14:05:20.938Z</time>
      </trkpt>
      <trkpt lat="43.025405" lon="-7.30874833">
        <ele>606.0</ele>
        <time>2022-06-19T14:05:21.967Z</time>
      </trkpt>
      <trkpt lat="43.025425" lon="-7.30877333">
        <ele>607.0</ele>
        <time>2022-06-19T14:05:22.945Z</time>
      </trkpt>
      <trkpt lat="43.025425" lon="-7.30877333">
        <ele>607.0</ele>
        <time>2022-06-19T14:05:23.962Z</time>
      </trkpt>
      <trkpt lat="43.02546333" lon="-7.30880333">
        <ele>607.0</ele>
        <time>2022-06-19T14:05:24.939Z</time>
      </trkpt>
      <trkpt lat="43.02548167" lon="-7.30882167">
        <ele>607.0</ele>
        <time>2022-06-19T14:05:25.945Z</time>
      </trkpt>
      <trkpt lat="43.02548167" lon="-7.30882167">
        <ele>607.0</ele>
        <time>2022-06-19T14:05:26.952Z</time>
      </trkpt>
      <trkpt lat="43.02551" lon="-7.30886167">
        <ele>607.0</ele>
        <time>2022-06-19T14:05:27.956Z</time>
      </trkpt>
      <trkpt lat="43.02552667" lon="-7.30888167">
        <ele>608.0</ele>
        <time>2022-06-19T14:05:28.930Z</time>
      </trkpt>
      <trkpt lat="43.02552667" lon="-7.30888167">
        <ele>608.0</ele>
        <time>2022-06-19T14:05:29.940Z</time>
      </trkpt>
      <trkpt lat="43.02556" lon="-7.30891833">
        <ele>608.0</ele>
        <time>2022-06-19T14:05:30.964Z</time>
      </trkpt>
      <trkpt lat="43.02557833" lon="-7.308935">
        <ele>608.0</ele>
        <time>2022-06-19T14:05:31.943Z</time>
      </trkpt>
      <trkpt lat="43.02557833" lon="-7.308935">
        <ele>608.0</ele>
        <time>2022-06-19T14:05:32.956Z</time>
      </trkpt>
      <trkpt lat="43.02561667" lon="-7.308965">
        <ele>609.0</ele>
        <time>2022-06-19T14:05:33.937Z</time>
      </trkpt>
      <trkpt lat="43.02561667" lon="-7.308965">
        <ele>609.0</ele>
        <time>2022-06-19T14:05:34.945Z</time>
      </trkpt>
      <trkpt lat="43.025665" lon="-7.30901">
        <ele>609.0</ele>
        <time>2022-06-19T14:05:35.945Z</time>
      </trkpt>
      <trkpt lat="43.025665" lon="-7.30901">
        <ele>609.0</ele>
        <time>2022-06-19T14:05:36.961Z</time>
      </trkpt>
      <trkpt lat="43.02571" lon="-7.30904833">
        <ele>609.0</ele>
        <time>2022-06-19T14:05:37.934Z</time>
      </trkpt>
      <trkpt lat="43.02571" lon="-7.30904833">
        <ele>609.0</ele>
        <time>2022-06-19T14:05:38.964Z</time>
      </trkpt>
      <trkpt lat="43.025745" lon="-7.30909833">
        <ele>609.0</ele>
        <time>2022-06-19T14:05:39.949Z</time>
      </trkpt>
      <trkpt lat="43.025745" lon="-7.30909833">
        <ele>609.0</ele>
        <time>2022-06-19T14:05:40.960Z</time>
      </trkpt>
      <trkpt lat="43.025785" lon="-7.30915">
        <ele>610.0</ele>
        <time>2022-06-19T14:05:41.934Z</time>
      </trkpt>
      <trkpt lat="43.025785" lon="-7.30915">
        <ele>610.0</ele>
        <time>2022-06-19T14:05:42.944Z</time>
      </trkpt>
      <trkpt lat="43.02582167" lon="-7.309195">
        <ele>610.0</ele>
        <time>2022-06-19T14:05:43.959Z</time>
      </trkpt>
      <trkpt lat="43.02582167" lon="-7.309195">
        <ele>610.0</ele>
        <time>2022-06-19T14:05:44.966Z</time>
      </trkpt>
      <trkpt lat="43.02585333" lon="-7.30924167">
        <ele>610.0</ele>
        <time>2022-06-19T14:05:45.950Z</time>
      </trkpt>
      <trkpt lat="43.02585333" lon="-7.30924167">
        <ele>610.0</ele>
        <time>2022-06-19T14:05:46.960Z</time>
      </trkpt>
      <trkpt lat="43.02588333" lon="-7.30928333">
        <ele>610.0</ele>
        <time>2022-06-19T14:05:47.944Z</time>
      </trkpt>
      <trkpt lat="43.02590833" lon="-7.30930667">
        <ele>610.0</ele>
        <time>2022-06-19T14:05:48.947Z</time>
      </trkpt>
      <trkpt lat="43.02590833" lon="-7.30930667">
        <ele>610.0</ele>
        <time>2022-06-19T14:05:49.962Z</time>
      </trkpt>
      <trkpt lat="43.02594833" lon="-7.309355">
        <ele>610.0</ele>
        <time>2022-06-19T14:05:50.933Z</time>
      </trkpt>
      <trkpt lat="43.02594833" lon="-7.309355">
        <ele>610.0</ele>
        <time>2022-06-19T14:05:51.939Z</time>
      </trkpt>
      <trkpt lat="43.02598833" lon="-7.30939667">
        <ele>610.0</ele>
        <time>2022-06-19T14:05:52.930Z</time>
      </trkpt>
      <trkpt lat="43.02598833" lon="-7.30939667">
        <ele>610.0</ele>
        <time>2022-06-19T14:05:53.937Z</time>
      </trkpt>
      <trkpt lat="43.02602667" lon="-7.30943333">
        <ele>611.0</ele>
        <time>2022-06-19T14:05:54.936Z</time>
      </trkpt>
      <trkpt lat="43.02602667" lon="-7.30943333">
        <ele>611.0</ele>
        <time>2022-06-19T14:05:55.943Z</time>
      </trkpt>
      <trkpt lat="43.02607333" lon="-7.30947">
        <ele>612.0</ele>
        <time>2022-06-19T14:05:56.947Z</time>
      </trkpt>
      <trkpt lat="43.02607333" lon="-7.30947">
        <ele>612.0</ele>
        <time>2022-06-19T14:05:57.956Z</time>
      </trkpt>
      <trkpt lat="43.02613" lon="-7.30949">
        <ele>612.0</ele>
        <time>2022-06-19T14:05:58.931Z</time>
      </trkpt>
      <trkpt lat="43.02613" lon="-7.30949">
        <ele>612.0</ele>
        <time>2022-06-19T14:05:59.939Z</time>
      </trkpt>
      <trkpt lat="43.02619167" lon="-7.30951833">
        <ele>613.0</ele>
        <time>2022-06-19T14:06:00.966Z</time>
      </trkpt>
      <trkpt lat="43.02619167" lon="-7.30951833">
        <ele>613.0</ele>
        <time>2022-06-19T14:06:01.933Z</time>
      </trkpt>
      <trkpt lat="43.02625667" lon="-7.30956167">
        <ele>614.0</ele>
        <time>2022-06-19T14:06:02.933Z</time>
      </trkpt>
      <trkpt lat="43.02625667" lon="-7.30956167">
        <ele>614.0</ele>
        <time>2022-06-19T14:06:03.948Z</time>
      </trkpt>
      <trkpt lat="43.02632667" lon="-7.30960667">
        <ele>614.0</ele>
        <time>2022-06-19T14:06:04.934Z</time>
      </trkpt>
      <trkpt lat="43.02632667" lon="-7.30960667">
        <ele>614.0</ele>
        <time>2022-06-19T14:06:05.941Z</time>
      </trkpt>
      <trkpt lat="43.02639667" lon="-7.30965333">
        <ele>615.0</ele>
        <time>2022-06-19T14:06:06.937Z</time>
      </trkpt>
      <trkpt lat="43.02639667" lon="-7.30965333">
        <ele>615.0</ele>
        <time>2022-06-19T14:06:07.944Z</time>
      </trkpt>
      <trkpt lat="43.02646667" lon="-7.30972333">
        <ele>616.0</ele>
        <time>2022-06-19T14:06:08.956Z</time>
      </trkpt>
      <trkpt lat="43.02646667" lon="-7.30972333">
        <ele>616.0</ele>
        <time>2022-06-19T14:06:09.952Z</time>
      </trkpt>
      <trkpt lat="43.02655" lon="-7.309815">
        <ele>615.0</ele>
        <time>2022-06-19T14:06:10.944Z</time>
      </trkpt>
      <trkpt lat="43.02655" lon="-7.309815">
        <ele>615.0</ele>
        <time>2022-06-19T14:06:11.958Z</time>
      </trkpt>
      <trkpt lat="43.02664667" lon="-7.309905">
        <ele>616.0</ele>
        <time>2022-06-19T14:06:12.944Z</time>
      </trkpt>
      <trkpt lat="43.02669833" lon="-7.30996333">
        <ele>616.0</ele>
        <time>2022-06-19T14:06:13.931Z</time>
      </trkpt>
      <trkpt lat="43.02669833" lon="-7.30996333">
        <ele>616.0</ele>
        <time>2022-06-19T14:06:14.938Z</time>
      </trkpt>
      <trkpt lat="43.02684" lon="-7.31008333">
        <ele>615.0</ele>
        <time>2022-06-19T14:06:15.948Z</time>
      </trkpt>
      <trkpt lat="43.02684" lon="-7.31008333">
        <ele>615.0</ele>
        <time>2022-06-19T14:06:16.941Z</time>
      </trkpt>
      <trkpt lat="43.026975" lon="-7.31022167">
        <ele>614.0</ele>
        <time>2022-06-19T14:06:17.948Z</time>
      </trkpt>
      <trkpt lat="43.026975" lon="-7.31022167">
        <ele>614.0</ele>
        <time>2022-06-19T14:06:18.958Z</time>
      </trkpt>
      <trkpt lat="43.02708833" lon="-7.31037167">
        <ele>613.0</ele>
        <time>2022-06-19T14:06:19.935Z</time>
      </trkpt>
      <trkpt lat="43.02708833" lon="-7.31037167">
        <ele>613.0</ele>
        <time>2022-06-19T14:06:20.944Z</time>
      </trkpt>
      <trkpt lat="43.0272" lon="-7.310535">
        <ele>611.0</ele>
        <time>2022-06-19T14:06:21.935Z</time>
      </trkpt>
      <trkpt lat="43.02725833" lon="-7.31063167">
        <ele>610.0</ele>
        <time>2022-06-19T14:06:22.948Z</time>
      </trkpt>
      <trkpt lat="43.027305" lon="-7.31074">
        <ele>609.0</ele>
        <time>2022-06-19T14:06:23.957Z</time>
      </trkpt>
      <trkpt lat="43.027305" lon="-7.31074">
        <ele>609.0</ele>
        <time>2022-06-19T14:06:24.964Z</time>
      </trkpt>
      <trkpt lat="43.02736667" lon="-7.31095667">
        <ele>609.0</ele>
        <time>2022-06-19T14:06:25.952Z</time>
      </trkpt>
      <trkpt lat="43.02736667" lon="-7.31095667">
        <ele>609.0</ele>
        <time>2022-06-19T14:06:26.962Z</time>
      </trkpt>
      <trkpt lat="43.02742333" lon="-7.311135">
        <ele>607.0</ele>
        <time>2022-06-19T14:06:27.935Z</time>
      </trkpt>
      <trkpt lat="43.02745333" lon="-7.31120833">
        <ele>606.0</ele>
        <time>2022-06-19T14:06:28.966Z</time>
      </trkpt>
      <trkpt lat="43.02745333" lon="-7.31120833">
        <ele>606.0</ele>
        <time>2022-06-19T14:06:29.932Z</time>
      </trkpt>
      <trkpt lat="43.027515" lon="-7.31134167">
        <ele>606.0</ele>
        <time>2022-06-19T14:06:30.959Z</time>
      </trkpt>
      <trkpt lat="43.02753167" lon="-7.311415">
        <ele>605.0</ele>
        <time>2022-06-19T14:06:31.935Z</time>
      </trkpt>
      <trkpt lat="43.02753167" lon="-7.311415">
        <ele>605.0</ele>
        <time>2022-06-19T14:06:32.941Z</time>
      </trkpt>
      <trkpt lat="43.02755167" lon="-7.31156667">
        <ele>604.0</ele>
        <time>2022-06-19T14:06:33.952Z</time>
      </trkpt>
      <trkpt lat="43.02755167" lon="-7.31156667">
        <ele>604.0</ele>
        <time>2022-06-19T14:06:34.929Z</time>
      </trkpt>
      <trkpt lat="43.02759833" lon="-7.311765">
        <ele>603.0</ele>
        <time>2022-06-19T14:06:35.933Z</time>
      </trkpt>
      <trkpt lat="43.02762833" lon="-7.31186167">
        <ele>602.0</ele>
        <time>2022-06-19T14:06:36.956Z</time>
      </trkpt>
      <trkpt lat="43.02762833" lon="-7.31186167">
        <ele>602.0</ele>
        <time>2022-06-19T14:06:37.963Z</time>
      </trkpt>
      <trkpt lat="43.027715" lon="-7.31203">
        <ele>602.0</ele>
        <time>2022-06-19T14:06:38.938Z</time>
      </trkpt>
      <trkpt lat="43.027715" lon="-7.31203">
        <ele>602.0</ele>
        <time>2022-06-19T14:06:39.945Z</time>
      </trkpt>
      <trkpt lat="43.027805" lon="-7.31217">
        <ele>601.0</ele>
        <time>2022-06-19T14:06:40.956Z</time>
      </trkpt>
      <trkpt lat="43.027805" lon="-7.31217">
        <ele>601.0</ele>
        <time>2022-06-19T14:06:41.965Z</time>
      </trkpt>
      <trkpt lat="43.02789" lon="-7.31232">
        <ele>600.0</ele>
        <time>2022-06-19T14:06:42.940Z</time>
      </trkpt>
      <trkpt lat="43.02792333" lon="-7.312405">
        <ele>599.0</ele>
        <time>2022-06-19T14:06:43.965Z</time>
      </trkpt>
      <trkpt lat="43.02792333" lon="-7.312405">
        <ele>599.0</ele>
        <time>2022-06-19T14:06:44.933Z</time>
      </trkpt>
      <trkpt lat="43.02796167" lon="-7.312525">
        <ele>599.0</ele>
        <time>2022-06-19T14:06:45.933Z</time>
      </trkpt>
      <trkpt lat="43.02796167" lon="-7.312525">
        <ele>599.0</ele>
        <time>2022-06-19T14:06:46.930Z</time>
      </trkpt>
      <trkpt lat="43.02797833" lon="-7.31258667">
        <ele>599.0</ele>
        <time>2022-06-19T14:06:47.944Z</time>
      </trkpt>
      <trkpt lat="43.02797833" lon="-7.31258667">
        <ele>599.0</ele>
        <time>2022-06-19T14:06:48.950Z</time>
      </trkpt>
      <trkpt lat="43.02797833" lon="-7.31265667">
        <ele>598.0</ele>
        <time>2022-06-19T14:06:49.931Z</time>
      </trkpt>
      <trkpt lat="43.02798167" lon="-7.312685">
        <ele>598.0</ele>
        <time>2022-06-19T14:06:50.939Z</time>
      </trkpt>
      <trkpt lat="43.02798167" lon="-7.312685">
        <ele>598.0</ele>
        <time>2022-06-19T14:06:51.946Z</time>
      </trkpt>
      <trkpt lat="43.02799667" lon="-7.31278833">
        <ele>597.0</ele>
        <time>2022-06-19T14:06:52.933Z</time>
      </trkpt>
      <trkpt lat="43.02801" lon="-7.31285167">
        <ele>597.0</ele>
        <time>2022-06-19T14:06:53.932Z</time>
      </trkpt>
      <trkpt lat="43.02801" lon="-7.31285167">
        <ele>597.0</ele>
        <time>2022-06-19T14:06:54.939Z</time>
      </trkpt>
      <trkpt lat="43.02801" lon="-7.31298667">
        <ele>597.0</ele>
        <time>2022-06-19T14:06:55.937Z</time>
      </trkpt>
      <trkpt lat="43.02801" lon="-7.31298667">
        <ele>597.0</ele>
        <time>2022-06-19T14:06:56.932Z</time>
      </trkpt>
      <trkpt lat="43.028035" lon="-7.3131">
        <ele>596.0</ele>
        <time>2022-06-19T14:06:57.948Z</time>
      </trkpt>
      <trkpt lat="43.028035" lon="-7.3131">
        <ele>596.0</ele>
        <time>2022-06-19T14:06:58.954Z</time>
      </trkpt>
      <trkpt lat="43.02805833" lon="-7.31322333">
        <ele>595.0</ele>
        <time>2022-06-19T14:06:59.950Z</time>
      </trkpt>
      <trkpt lat="43.02805833" lon="-7.31322333">
        <ele>595.0</ele>
        <time>2022-06-19T14:07:00.964Z</time>
      </trkpt>
      <trkpt lat="43.02805833" lon="-7.313365">
        <ele>594.0</ele>
        <time>2022-06-19T14:07:01.946Z</time>
      </trkpt>
      <trkpt lat="43.028065" lon="-7.313445">
        <ele>594.0</ele>
        <time>2022-06-19T14:07:02.967Z</time>
      </trkpt>
      <trkpt lat="43.028065" lon="-7.313445">
        <ele>594.0</ele>
        <time>2022-06-19T14:07:03.935Z</time>
      </trkpt>
      <trkpt lat="43.028085" lon="-7.313615">
        <ele>593.0</ele>
        <time>2022-06-19T14:07:04.934Z</time>
      </trkpt>
      <trkpt lat="43.028085" lon="-7.313615">
        <ele>593.0</ele>
        <time>2022-06-19T14:07:05.940Z</time>
      </trkpt>
      <trkpt lat="43.02809833" lon="-7.31379667">
        <ele>593.0</ele>
        <time>2022-06-19T14:07:06.948Z</time>
      </trkpt>
      <trkpt lat="43.02809833" lon="-7.31379667">
        <ele>593.0</ele>
        <time>2022-06-19T14:07:07.931Z</time>
      </trkpt>
      <trkpt lat="43.02811167" lon="-7.31397333">
        <ele>593.0</ele>
        <time>2022-06-19T14:07:08.960Z</time>
      </trkpt>
      <trkpt lat="43.028115" lon="-7.31406">
        <ele>593.0</ele>
        <time>2022-06-19T14:07:09.950Z</time>
      </trkpt>
      <trkpt lat="43.028115" lon="-7.31406">
        <ele>593.0</ele>
        <time>2022-06-19T14:07:10.960Z</time>
      </trkpt>
      <trkpt lat="43.028115" lon="-7.31422167">
        <ele>593.0</ele>
        <time>2022-06-19T14:07:11.941Z</time>
      </trkpt>
      <trkpt lat="43.028115" lon="-7.31422167">
        <ele>593.0</ele>
        <time>2022-06-19T14:07:12.961Z</time>
      </trkpt>
      <trkpt lat="43.02811" lon="-7.31438">
        <ele>593.0</ele>
        <time>2022-06-19T14:07:13.930Z</time>
      </trkpt>
      <trkpt lat="43.02811" lon="-7.31438">
        <ele>593.0</ele>
        <time>2022-06-19T14:07:14.936Z</time>
      </trkpt>
      <trkpt lat="43.02811" lon="-7.31455">
        <ele>593.0</ele>
        <time>2022-06-19T14:07:15.960Z</time>
      </trkpt>
      <trkpt lat="43.02811" lon="-7.31455">
        <ele>593.0</ele>
        <time>2022-06-19T14:07:16.966Z</time>
      </trkpt>
      <trkpt lat="43.02812167" lon="-7.31471167">
        <ele>593.0</ele>
        <time>2022-06-19T14:07:17.969Z</time>
      </trkpt>
      <trkpt lat="43.02812167" lon="-7.31471167">
        <ele>593.0</ele>
        <time>2022-06-19T14:07:18.934Z</time>
      </trkpt>
      <trkpt lat="43.028125" lon="-7.31485167">
        <ele>594.0</ele>
        <time>2022-06-19T14:07:19.961Z</time>
      </trkpt>
      <trkpt lat="43.028125" lon="-7.31485167">
        <ele>594.0</ele>
        <time>2022-06-19T14:07:20.949Z</time>
      </trkpt>
      <trkpt lat="43.02813167" lon="-7.31499833">
        <ele>594.0</ele>
        <time>2022-06-19T14:07:21.929Z</time>
      </trkpt>
      <trkpt lat="43.02814167" lon="-7.31507167">
        <ele>595.0</ele>
        <time>2022-06-19T14:07:22.930Z</time>
      </trkpt>
      <trkpt lat="43.02814667" lon="-7.31513833">
        <ele>595.0</ele>
        <time>2022-06-19T14:07:23.947Z</time>
      </trkpt>
      <trkpt lat="43.02814667" lon="-7.31513833">
        <ele>595.0</ele>
        <time>2022-06-19T14:07:24.953Z</time>
      </trkpt>
      <trkpt lat="43.02816667" lon="-7.31524167">
        <ele>595.0</ele>
        <time>2022-06-19T14:07:25.965Z</time>
      </trkpt>
      <trkpt lat="43.02816667" lon="-7.31524167">
        <ele>595.0</ele>
        <time>2022-06-19T14:07:26.932Z</time>
      </trkpt>
      <trkpt lat="43.02818333" lon="-7.31532833">
        <ele>596.0</ele>
        <time>2022-06-19T14:07:27.952Z</time>
      </trkpt>
      <trkpt lat="43.02818333" lon="-7.31532833">
        <ele>596.0</ele>
        <time>2022-06-19T14:07:28.959Z</time>
      </trkpt>
      <trkpt lat="43.02819333" lon="-7.31540333">
        <ele>596.0</ele>
        <time>2022-06-19T14:07:29.930Z</time>
      </trkpt>
      <trkpt lat="43.02819333" lon="-7.31540333">
        <ele>596.0</ele>
        <time>2022-06-19T14:07:30.936Z</time>
      </trkpt>
      <trkpt lat="43.028215" lon="-7.31548">
        <ele>596.0</ele>
        <time>2022-06-19T14:07:31.966Z</time>
      </trkpt>
      <trkpt lat="43.028215" lon="-7.31548">
        <ele>596.0</ele>
        <time>2022-06-19T14:07:32.932Z</time>
      </trkpt>
      <trkpt lat="43.02827167" lon="-7.31560333">
        <ele>596.0</ele>
        <time>2022-06-19T14:07:33.950Z</time>
      </trkpt>
      <trkpt lat="43.02827167" lon="-7.31560333">
        <ele>596.0</ele>
        <time>2022-06-19T14:07:34.929Z</time>
      </trkpt>
      <trkpt lat="43.02832" lon="-7.31574">
        <ele>596.0</ele>
        <time>2022-06-19T14:07:35.940Z</time>
      </trkpt>
      <trkpt lat="43.02832" lon="-7.31574">
        <ele>596.0</ele>
        <time>2022-06-19T14:07:36.946Z</time>
      </trkpt>
      <trkpt lat="43.02836833" lon="-7.31586333">
        <ele>595.0</ele>
        <time>2022-06-19T14:07:37.951Z</time>
      </trkpt>
      <trkpt lat="43.02836833" lon="-7.31586333">
        <ele>595.0</ele>
        <time>2022-06-19T14:07:38.929Z</time>
      </trkpt>
      <trkpt lat="43.02841333" lon="-7.31598">
        <ele>595.0</ele>
        <time>2022-06-19T14:07:39.942Z</time>
      </trkpt>
      <trkpt lat="43.02841333" lon="-7.31598">
        <ele>595.0</ele>
        <time>2022-06-19T14:07:40.932Z</time>
      </trkpt>
      <trkpt lat="43.02844333" lon="-7.31609167">
        <ele>595.0</ele>
        <time>2022-06-19T14:07:41.966Z</time>
      </trkpt>
      <trkpt lat="43.02844333" lon="-7.31609167">
        <ele>595.0</ele>
        <time>2022-06-19T14:07:42.943Z</time>
      </trkpt>
      <trkpt lat="43.02848333" lon="-7.31623833">
        <ele>593.0</ele>
        <time>2022-06-19T14:07:43.961Z</time>
      </trkpt>
      <trkpt lat="43.02848333" lon="-7.31623833">
        <ele>593.0</ele>
        <time>2022-06-19T14:07:44.930Z</time>
      </trkpt>
      <trkpt lat="43.02853" lon="-7.31640833">
        <ele>592.0</ele>
        <time>2022-06-19T14:07:45.938Z</time>
      </trkpt>
      <trkpt lat="43.02853" lon="-7.31640833">
        <ele>592.0</ele>
        <time>2022-06-19T14:07:46.945Z</time>
      </trkpt>
      <trkpt lat="43.02857" lon="-7.31657">
        <ele>591.0</ele>
        <time>2022-06-19T14:07:47.944Z</time>
      </trkpt>
      <trkpt lat="43.02857" lon="-7.31657">
        <ele>591.0</ele>
        <time>2022-06-19T14:07:48.951Z</time>
      </trkpt>
      <trkpt lat="43.02860833" lon="-7.31675">
        <ele>592.0</ele>
        <time>2022-06-19T14:07:49.931Z</time>
      </trkpt>
      <trkpt lat="43.02860833" lon="-7.31675">
        <ele>592.0</ele>
        <time>2022-06-19T14:07:50.965Z</time>
      </trkpt>
      <trkpt lat="43.028655" lon="-7.31690833">
        <ele>591.0</ele>
        <time>2022-06-19T14:07:51.947Z</time>
      </trkpt>
      <trkpt lat="43.028655" lon="-7.31690833">
        <ele>591.0</ele>
        <time>2022-06-19T14:07:52.953Z</time>
      </trkpt>
      <trkpt lat="43.02868833" lon="-7.31714333">
        <ele>591.0</ele>
        <time>2022-06-19T14:07:53.968Z</time>
      </trkpt>
      <trkpt lat="43.02868833" lon="-7.31714333">
        <ele>591.0</ele>
        <time>2022-06-19T14:07:54.949Z</time>
      </trkpt>
      <trkpt lat="43.02875833" lon="-7.31735167">
        <ele>590.0</ele>
        <time>2022-06-19T14:07:55.971Z</time>
      </trkpt>
      <trkpt lat="43.02875833" lon="-7.31735167">
        <ele>590.0</ele>
        <time>2022-06-19T14:07:56.956Z</time>
      </trkpt>
      <trkpt lat="43.02882" lon="-7.31754333">
        <ele>589.0</ele>
        <time>2022-06-19T14:07:57.933Z</time>
      </trkpt>
      <trkpt lat="43.02882" lon="-7.31754333">
        <ele>589.0</ele>
        <time>2022-06-19T14:07:58.939Z</time>
      </trkpt>
      <trkpt lat="43.02886667" lon="-7.31775833">
        <ele>588.0</ele>
        <time>2022-06-19T14:07:59.949Z</time>
      </trkpt>
      <trkpt lat="43.02886667" lon="-7.31775833">
        <ele>588.0</ele>
        <time>2022-06-19T14:08:00.959Z</time>
      </trkpt>
      <trkpt lat="43.02890667" lon="-7.317965">
        <ele>588.0</ele>
        <time>2022-06-19T14:08:01.942Z</time>
      </trkpt>
      <trkpt lat="43.02890667" lon="-7.317965">
        <ele>588.0</ele>
        <time>2022-06-19T14:08:02.961Z</time>
      </trkpt>
      <trkpt lat="43.02894667" lon="-7.31817">
        <ele>587.0</ele>
        <time>2022-06-19T14:08:03.937Z</time>
      </trkpt>
      <trkpt lat="43.02894667" lon="-7.31817">
        <ele>587.0</ele>
        <time>2022-06-19T14:08:04.943Z</time>
      </trkpt>
      <trkpt lat="43.02899167" lon="-7.318365">
        <ele>585.0</ele>
        <time>2022-06-19T14:08:05.934Z</time>
      </trkpt>
      <trkpt lat="43.02901167" lon="-7.31846333">
        <ele>585.0</ele>
        <time>2022-06-19T14:08:06.950Z</time>
      </trkpt>
      <trkpt lat="43.02901167" lon="-7.31846333">
        <ele>585.0</ele>
        <time>2022-06-19T14:08:07.966Z</time>
      </trkpt>
      <trkpt lat="43.02903167" lon="-7.31866">
        <ele>584.0</ele>
        <time>2022-06-19T14:08:08.942Z</time>
      </trkpt>
      <trkpt lat="43.02903167" lon="-7.31866">
        <ele>584.0</ele>
        <time>2022-06-19T14:08:09.934Z</time>
      </trkpt>
      <trkpt lat="43.02904333" lon="-7.31882833">
        <ele>584.0</ele>
        <time>2022-06-19T14:08:10.935Z</time>
      </trkpt>
      <trkpt lat="43.02905167" lon="-7.31888833">
        <ele>584.0</ele>
        <time>2022-06-19T14:08:11.964Z</time>
      </trkpt>
      <trkpt lat="43.02905167" lon="-7.31888833">
        <ele>584.0</ele>
        <time>2022-06-19T14:08:12.962Z</time>
      </trkpt>
      <trkpt lat="43.029065" lon="-7.31899167">
        <ele>584.0</ele>
        <time>2022-06-19T14:08:13.939Z</time>
      </trkpt>
      <trkpt lat="43.029065" lon="-7.31899167">
        <ele>584.0</ele>
        <time>2022-06-19T14:08:14.946Z</time>
      </trkpt>
      <trkpt lat="43.02907833" lon="-7.31907833">
        <ele>584.0</ele>
        <time>2022-06-19T14:08:15.964Z</time>
      </trkpt>
      <trkpt lat="43.02907833" lon="-7.31907833">
        <ele>584.0</ele>
        <time>2022-06-19T14:08:16.944Z</time>
      </trkpt>
      <trkpt lat="43.029115" lon="-7.319155">
        <ele>583.0</ele>
        <time>2022-06-19T14:08:17.952Z</time>
      </trkpt>
      <trkpt lat="43.02913167" lon="-7.31919333">
        <ele>582.0</ele>
        <time>2022-06-19T14:08:18.951Z</time>
      </trkpt>
      <trkpt lat="43.02915167" lon="-7.31923333">
        <ele>582.0</ele>
        <time>2022-06-19T14:08:19.953Z</time>
      </trkpt>
      <trkpt lat="43.02915167" lon="-7.31923333">
        <ele>582.0</ele>
        <time>2022-06-19T14:08:20.944Z</time>
      </trkpt>
      <trkpt lat="43.02919833" lon="-7.31932333">
        <ele>582.0</ele>
        <time>2022-06-19T14:08:21.936Z</time>
      </trkpt>
      <trkpt lat="43.02922" lon="-7.31937667">
        <ele>582.0</ele>
        <time>2022-06-19T14:08:22.934Z</time>
      </trkpt>
      <trkpt lat="43.02924167" lon="-7.31944167">
        <ele>581.0</ele>
        <time>2022-06-19T14:08:23.943Z</time>
      </trkpt>
      <trkpt lat="43.02924167" lon="-7.31944167">
        <ele>581.0</ele>
        <time>2022-06-19T14:08:24.950Z</time>
      </trkpt>
      <trkpt lat="43.02927167" lon="-7.31955167">
        <ele>581.0</ele>
        <time>2022-06-19T14:08:25.956Z</time>
      </trkpt>
      <trkpt lat="43.02927167" lon="-7.31955167">
        <ele>581.0</ele>
        <time>2022-06-19T14:08:26.962Z</time>
      </trkpt>
      <trkpt lat="43.02930167" lon="-7.31965667">
        <ele>581.0</ele>
        <time>2022-06-19T14:08:27.943Z</time>
      </trkpt>
      <trkpt lat="43.02931333" lon="-7.31970333">
        <ele>581.0</ele>
        <time>2022-06-19T14:08:28.932Z</time>
      </trkpt>
      <trkpt lat="43.02931333" lon="-7.31970333">
        <ele>581.0</ele>
        <time>2022-06-19T14:08:29.939Z</time>
      </trkpt>
      <trkpt lat="43.02933167" lon="-7.31978333">
        <ele>581.0</ele>
        <time>2022-06-19T14:08:30.932Z</time>
      </trkpt>
      <trkpt lat="43.029345" lon="-7.31982167">
        <ele>581.0</ele>
        <time>2022-06-19T14:08:31.954Z</time>
      </trkpt>
      <trkpt lat="43.029345" lon="-7.31982167">
        <ele>581.0</ele>
        <time>2022-06-19T14:08:32.966Z</time>
      </trkpt>
      <trkpt lat="43.02939833" lon="-7.31986333">
        <ele>582.0</ele>
        <time>2022-06-19T14:08:33.948Z</time>
      </trkpt>
      <trkpt lat="43.02939833" lon="-7.31986333">
        <ele>582.0</ele>
        <time>2022-06-19T14:08:34.954Z</time>
      </trkpt>
      <trkpt lat="43.02944833" lon="-7.31989167">
        <ele>582.0</ele>
        <time>2022-06-19T14:08:35.929Z</time>
      </trkpt>
      <trkpt lat="43.02944833" lon="-7.31989167">
        <ele>582.0</ele>
        <time>2022-06-19T14:08:36.936Z</time>
      </trkpt>
      <trkpt lat="43.02949333" lon="-7.31993167">
        <ele>582.0</ele>
        <time>2022-06-19T14:08:37.965Z</time>
      </trkpt>
      <trkpt lat="43.02949333" lon="-7.31993167">
        <ele>582.0</ele>
        <time>2022-06-19T14:08:38.931Z</time>
      </trkpt>
      <trkpt lat="43.02952" lon="-7.31999333">
        <ele>583.0</ele>
        <time>2022-06-19T14:08:39.942Z</time>
      </trkpt>
      <trkpt lat="43.02952" lon="-7.31999333">
        <ele>583.0</ele>
        <time>2022-06-19T14:08:40.945Z</time>
      </trkpt>
      <trkpt lat="43.02953167" lon="-7.32005833">
        <ele>583.0</ele>
        <time>2022-06-19T14:08:41.955Z</time>
      </trkpt>
      <trkpt lat="43.02953167" lon="-7.32005833">
        <ele>583.0</ele>
        <time>2022-06-19T14:08:42.964Z</time>
      </trkpt>
      <trkpt lat="43.02953333" lon="-7.32014333">
        <ele>582.0</ele>
        <time>2022-06-19T14:08:43.938Z</time>
      </trkpt>
      <trkpt lat="43.02953333" lon="-7.32014333">
        <ele>582.0</ele>
        <time>2022-06-19T14:08:44.944Z</time>
      </trkpt>
      <trkpt lat="43.02951" lon="-7.32022333">
        <ele>582.0</ele>
        <time>2022-06-19T14:08:45.958Z</time>
      </trkpt>
      <trkpt lat="43.02951" lon="-7.32022333">
        <ele>582.0</ele>
        <time>2022-06-19T14:08:46.965Z</time>
      </trkpt>
      <trkpt lat="43.02948667" lon="-7.3203">
        <ele>582.0</ele>
        <time>2022-06-19T14:08:47.949Z</time>
      </trkpt>
      <trkpt lat="43.02947667" lon="-7.32033667">
        <ele>582.0</ele>
        <time>2022-06-19T14:08:48.953Z</time>
      </trkpt>
      <trkpt lat="43.02947667" lon="-7.32033667">
        <ele>582.0</ele>
        <time>2022-06-19T14:08:49.963Z</time>
      </trkpt>
      <trkpt lat="43.02945833" lon="-7.32040667">
        <ele>581.0</ele>
        <time>2022-06-19T14:08:50.950Z</time>
      </trkpt>
      <trkpt lat="43.02945833" lon="-7.32040667">
        <ele>581.0</ele>
        <time>2022-06-19T14:08:51.967Z</time>
      </trkpt>
      <trkpt lat="43.029445" lon="-7.32046667">
        <ele>581.0</ele>
        <time>2022-06-19T14:08:52.948Z</time>
      </trkpt>
      <trkpt lat="43.02944333" lon="-7.3205">
        <ele>581.0</ele>
        <time>2022-06-19T14:08:53.937Z</time>
      </trkpt>
      <trkpt lat="43.02944333" lon="-7.3205">
        <ele>581.0</ele>
        <time>2022-06-19T14:08:54.942Z</time>
      </trkpt>
      <trkpt lat="43.02945167" lon="-7.32058167">
        <ele>581.0</ele>
        <time>2022-06-19T14:08:55.953Z</time>
      </trkpt>
      <trkpt lat="43.02945167" lon="-7.32058167">
        <ele>581.0</ele>
        <time>2022-06-19T14:08:56.962Z</time>
      </trkpt>
      <trkpt lat="43.02940667" lon="-7.32069167">
        <ele>583.0</ele>
        <time>2022-06-19T14:08:57.957Z</time>
      </trkpt>
      <trkpt lat="43.02940667" lon="-7.32069167">
        <ele>583.0</ele>
        <time>2022-06-19T14:08:58.965Z</time>
      </trkpt>
      <trkpt lat="43.029405" lon="-7.32077167">
        <ele>583.0</ele>
        <time>2022-06-19T14:08:59.935Z</time>
      </trkpt>
      <trkpt lat="43.029405" lon="-7.32077167">
        <ele>583.0</ele>
        <time>2022-06-19T14:09:00.942Z</time>
      </trkpt>
      <trkpt lat="43.029405" lon="-7.320855">
        <ele>583.0</ele>
        <time>2022-06-19T14:09:01.959Z</time>
      </trkpt>
      <trkpt lat="43.029405" lon="-7.320855">
        <ele>583.0</ele>
        <time>2022-06-19T14:09:02.966Z</time>
      </trkpt>
      <trkpt lat="43.02940833" lon="-7.32091333">
        <ele>583.0</ele>
        <time>2022-06-19T14:09:03.954Z</time>
      </trkpt>
      <trkpt lat="43.02940833" lon="-7.32091333">
        <ele>583.0</ele>
        <time>2022-06-19T14:09:04.963Z</time>
      </trkpt>
      <trkpt lat="43.02942333" lon="-7.32098">
        <ele>583.0</ele>
        <time>2022-06-19T14:09:05.946Z</time>
      </trkpt>
      <trkpt lat="43.02942333" lon="-7.32098">
        <ele>583.0</ele>
        <time>2022-06-19T14:09:06.953Z</time>
      </trkpt>
      <trkpt lat="43.02946" lon="-7.32106">
        <ele>583.0</ele>
        <time>2022-06-19T14:09:07.951Z</time>
      </trkpt>
      <trkpt lat="43.02946" lon="-7.32106">
        <ele>583.0</ele>
        <time>2022-06-19T14:09:08.960Z</time>
      </trkpt>
      <trkpt lat="43.02951167" lon="-7.32114">
        <ele>582.0</ele>
        <time>2022-06-19T14:09:09.947Z</time>
      </trkpt>
      <trkpt lat="43.02954" lon="-7.32118167">
        <ele>582.0</ele>
        <time>2022-06-19T14:09:10.938Z</time>
      </trkpt>
      <trkpt lat="43.02954" lon="-7.32118167">
        <ele>582.0</ele>
        <time>2022-06-19T14:09:11.949Z</time>
      </trkpt>
      <trkpt lat="43.02959167" lon="-7.32127833">
        <ele>582.0</ele>
        <time>2022-06-19T14:09:12.933Z</time>
      </trkpt>
      <trkpt lat="43.02961833" lon="-7.32132667">
        <ele>582.0</ele>
        <time>2022-06-19T14:09:13.966Z</time>
      </trkpt>
      <trkpt lat="43.02961833" lon="-7.32132667">
        <ele>582.0</ele>
        <time>2022-06-19T14:09:14.932Z</time>
      </trkpt>
      <trkpt lat="43.02967333" lon="-7.321415">
        <ele>582.0</ele>
        <time>2022-06-19T14:09:15.939Z</time>
      </trkpt>
      <trkpt lat="43.02967333" lon="-7.321415">
        <ele>582.0</ele>
        <time>2022-06-19T14:09:16.945Z</time>
      </trkpt>
      <trkpt lat="43.02972333" lon="-7.32150333">
        <ele>581.0</ele>
        <time>2022-06-19T14:09:17.945Z</time>
      </trkpt>
      <trkpt lat="43.02974833" lon="-7.32154833">
        <ele>581.0</ele>
        <time>2022-06-19T14:09:18.953Z</time>
      </trkpt>
      <trkpt lat="43.02977333" lon="-7.321595">
        <ele>581.0</ele>
        <time>2022-06-19T14:09:19.939Z</time>
      </trkpt>
      <trkpt lat="43.02977333" lon="-7.321595">
        <ele>581.0</ele>
        <time>2022-06-19T14:09:20.961Z</time>
      </trkpt>
      <trkpt lat="43.02982667" lon="-7.32169167">
        <ele>581.0</ele>
        <time>2022-06-19T14:09:21.946Z</time>
      </trkpt>
      <trkpt lat="43.02982667" lon="-7.32169167">
        <ele>581.0</ele>
        <time>2022-06-19T14:09:22.953Z</time>
      </trkpt>
      <trkpt lat="43.02988167" lon="-7.32179167">
        <ele>581.0</ele>
        <time>2022-06-19T14:09:23.968Z</time>
      </trkpt>
      <trkpt lat="43.02988167" lon="-7.32179167">
        <ele>581.0</ele>
        <time>2022-06-19T14:09:24.934Z</time>
      </trkpt>
      <trkpt lat="43.02993667" lon="-7.3219">
        <ele>581.0</ele>
        <time>2022-06-19T14:09:25.934Z</time>
      </trkpt>
      <trkpt lat="43.02993667" lon="-7.3219">
        <ele>581.0</ele>
        <time>2022-06-19T14:09:26.941Z</time>
      </trkpt>
      <trkpt lat="43.02998667" lon="-7.32201333">
        <ele>581.0</ele>
        <time>2022-06-19T14:09:27.942Z</time>
      </trkpt>
      <trkpt lat="43.03000833" lon="-7.32207333">
        <ele>581.0</ele>
        <time>2022-06-19T14:09:28.962Z</time>
      </trkpt>
      <trkpt lat="43.03000833" lon="-7.32207333">
        <ele>581.0</ele>
        <time>2022-06-19T14:09:29.929Z</time>
      </trkpt>
      <trkpt lat="43.03004" lon="-7.32220333">
        <ele>581.0</ele>
        <time>2022-06-19T14:09:30.966Z</time>
      </trkpt>
      <trkpt lat="43.03005333" lon="-7.32227167">
        <ele>580.0</ele>
        <time>2022-06-19T14:09:31.929Z</time>
      </trkpt>
      <trkpt lat="43.03005333" lon="-7.32227167">
        <ele>580.0</ele>
        <time>2022-06-19T14:09:32.935Z</time>
      </trkpt>
      <trkpt lat="43.03007" lon="-7.32241833">
        <ele>580.0</ele>
        <time>2022-06-19T14:09:33.942Z</time>
      </trkpt>
      <trkpt lat="43.03007" lon="-7.32241833">
        <ele>580.0</ele>
        <time>2022-06-19T14:09:34.947Z</time>
      </trkpt>
      <trkpt lat="43.03008" lon="-7.32257">
        <ele>580.0</ele>
        <time>2022-06-19T14:09:35.954Z</time>
      </trkpt>
      <trkpt lat="43.03008" lon="-7.32257">
        <ele>580.0</ele>
        <time>2022-06-19T14:09:36.961Z</time>
      </trkpt>
      <trkpt lat="43.03008833" lon="-7.32273">
        <ele>579.0</ele>
        <time>2022-06-19T14:09:37.933Z</time>
      </trkpt>
      <trkpt lat="43.03008833" lon="-7.32273">
        <ele>579.0</ele>
        <time>2022-06-19T14:09:38.939Z</time>
      </trkpt>
      <trkpt lat="43.030095" lon="-7.32288833">
        <ele>579.0</ele>
        <time>2022-06-19T14:09:39.943Z</time>
      </trkpt>
      <trkpt lat="43.030095" lon="-7.32288833">
        <ele>579.0</ele>
        <time>2022-06-19T14:09:40.964Z</time>
      </trkpt>
      <trkpt lat="43.03009833" lon="-7.32304333">
        <ele>579.0</ele>
        <time>2022-06-19T14:09:41.936Z</time>
      </trkpt>
      <trkpt lat="43.03009833" lon="-7.32304333">
        <ele>579.0</ele>
        <time>2022-06-19T14:09:42.931Z</time>
      </trkpt>
      <trkpt lat="43.03010667" lon="-7.32319333">
        <ele>579.0</ele>
        <time>2022-06-19T14:09:43.953Z</time>
      </trkpt>
      <trkpt lat="43.03010667" lon="-7.32319333">
        <ele>579.0</ele>
        <time>2022-06-19T14:09:44.959Z</time>
      </trkpt>
      <trkpt lat="43.03010833" lon="-7.32334667">
        <ele>578.0</ele>
        <time>2022-06-19T14:09:45.930Z</time>
      </trkpt>
      <trkpt lat="43.03010833" lon="-7.32334667">
        <ele>578.0</ele>
        <time>2022-06-19T14:09:46.951Z</time>
      </trkpt>
      <trkpt lat="43.03011333" lon="-7.32349333">
        <ele>578.0</ele>
        <time>2022-06-19T14:09:47.934Z</time>
      </trkpt>
      <trkpt lat="43.03011333" lon="-7.32349333">
        <ele>578.0</ele>
        <time>2022-06-19T14:09:48.940Z</time>
      </trkpt>
      <trkpt lat="43.03012" lon="-7.32363333">
        <ele>578.0</ele>
        <time>2022-06-19T14:09:49.948Z</time>
      </trkpt>
      <trkpt lat="43.03012" lon="-7.32363333">
        <ele>578.0</ele>
        <time>2022-06-19T14:09:50.954Z</time>
      </trkpt>
      <trkpt lat="43.03012833" lon="-7.32376">
        <ele>578.0</ele>
        <time>2022-06-19T14:09:51.968Z</time>
      </trkpt>
      <trkpt lat="43.03012833" lon="-7.32382167">
        <ele>578.0</ele>
        <time>2022-06-19T14:09:52.943Z</time>
      </trkpt>
      <trkpt lat="43.03012833" lon="-7.32382167">
        <ele>578.0</ele>
        <time>2022-06-19T14:09:53.949Z</time>
      </trkpt>
      <trkpt lat="43.03012833" lon="-7.32394167">
        <ele>578.0</ele>
        <time>2022-06-19T14:09:54.944Z</time>
      </trkpt>
      <trkpt lat="43.03013" lon="-7.324">
        <ele>577.0</ele>
        <time>2022-06-19T14:09:55.961Z</time>
      </trkpt>
      <trkpt lat="43.03013" lon="-7.324">
        <ele>577.0</ele>
        <time>2022-06-19T14:09:56.967Z</time>
      </trkpt>
      <trkpt lat="43.03013833" lon="-7.32411167">
        <ele>578.0</ele>
        <time>2022-06-19T14:09:57.949Z</time>
      </trkpt>
      <trkpt lat="43.03013833" lon="-7.32411167">
        <ele>578.0</ele>
        <time>2022-06-19T14:09:58.967Z</time>
      </trkpt>
      <trkpt lat="43.03013667" lon="-7.3242">
        <ele>579.0</ele>
        <time>2022-06-19T14:09:59.935Z</time>
      </trkpt>
      <trkpt lat="43.03013667" lon="-7.3242">
        <ele>579.0</ele>
        <time>2022-06-19T14:10:00.941Z</time>
      </trkpt>
      <trkpt lat="43.03014" lon="-7.32428833">
        <ele>580.0</ele>
        <time>2022-06-19T14:10:01.959Z</time>
      </trkpt>
      <trkpt lat="43.03014" lon="-7.32428833">
        <ele>580.0</ele>
        <time>2022-06-19T14:10:02.965Z</time>
      </trkpt>
      <trkpt lat="43.03014833" lon="-7.32437667">
        <ele>580.0</ele>
        <time>2022-06-19T14:10:03.938Z</time>
      </trkpt>
      <trkpt lat="43.03015" lon="-7.324415">
        <ele>581.0</ele>
        <time>2022-06-19T14:10:04.965Z</time>
      </trkpt>
      <trkpt lat="43.03015" lon="-7.324415">
        <ele>581.0</ele>
        <time>2022-06-19T14:10:05.932Z</time>
      </trkpt>
      <trkpt lat="43.03015167" lon="-7.32449667">
        <ele>581.0</ele>
        <time>2022-06-19T14:10:06.942Z</time>
      </trkpt>
      <trkpt lat="43.03015167" lon="-7.32449667">
        <ele>581.0</ele>
        <time>2022-06-19T14:10:07.949Z</time>
      </trkpt>
      <trkpt lat="43.030155" lon="-7.32457667">
        <ele>582.0</ele>
        <time>2022-06-19T14:10:08.934Z</time>
      </trkpt>
      <trkpt lat="43.030155" lon="-7.32457667">
        <ele>582.0</ele>
        <time>2022-06-19T14:10:09.941Z</time>
      </trkpt>
      <trkpt lat="43.03015833" lon="-7.32466">
        <ele>582.0</ele>
        <time>2022-06-19T14:10:10.957Z</time>
      </trkpt>
      <trkpt lat="43.03015833" lon="-7.3247">
        <ele>583.0</ele>
        <time>2022-06-19T14:10:11.938Z</time>
      </trkpt>
      <trkpt lat="43.03015833" lon="-7.3247">
        <ele>583.0</ele>
        <time>2022-06-19T14:10:12.964Z</time>
      </trkpt>
      <trkpt lat="43.03015833" lon="-7.32477667">
        <ele>584.0</ele>
        <time>2022-06-19T14:10:13.951Z</time>
      </trkpt>
      <trkpt lat="43.03015833" lon="-7.32477667">
        <ele>584.0</ele>
        <time>2022-06-19T14:10:14.935Z</time>
      </trkpt>
      <trkpt lat="43.03015667" lon="-7.324855">
        <ele>584.0</ele>
        <time>2022-06-19T14:10:15.944Z</time>
      </trkpt>
      <trkpt lat="43.03015667" lon="-7.324855">
        <ele>584.0</ele>
        <time>2022-06-19T14:10:16.960Z</time>
      </trkpt>
      <trkpt lat="43.03016" lon="-7.32493333">
        <ele>585.0</ele>
        <time>2022-06-19T14:10:17.966Z</time>
      </trkpt>
      <trkpt lat="43.03016" lon="-7.32493333">
        <ele>585.0</ele>
        <time>2022-06-19T14:10:18.932Z</time>
      </trkpt>
      <trkpt lat="43.03016167" lon="-7.325015">
        <ele>585.0</ele>
        <time>2022-06-19T14:10:19.952Z</time>
      </trkpt>
      <trkpt lat="43.03016167" lon="-7.325015">
        <ele>585.0</ele>
        <time>2022-06-19T14:10:20.937Z</time>
      </trkpt>
      <trkpt lat="43.03016833" lon="-7.32509833">
        <ele>586.0</ele>
        <time>2022-06-19T14:10:21.951Z</time>
      </trkpt>
      <trkpt lat="43.03016833" lon="-7.32509833">
        <ele>586.0</ele>
        <time>2022-06-19T14:10:22.930Z</time>
      </trkpt>
      <trkpt lat="43.030175" lon="-7.32517333">
        <ele>587.0</ele>
        <time>2022-06-19T14:10:23.967Z</time>
      </trkpt>
      <trkpt lat="43.030175" lon="-7.32517333">
        <ele>587.0</ele>
        <time>2022-06-19T14:10:24.933Z</time>
      </trkpt>
      <trkpt lat="43.030175" lon="-7.32524333">
        <ele>588.0</ele>
        <time>2022-06-19T14:10:25.941Z</time>
      </trkpt>
      <trkpt lat="43.030175" lon="-7.32524333">
        <ele>588.0</ele>
        <time>2022-06-19T14:10:26.959Z</time>
      </trkpt>
      <trkpt lat="43.03017167" lon="-7.325305">
        <ele>588.0</ele>
        <time>2022-06-19T14:10:27.953Z</time>
      </trkpt>
      <trkpt lat="43.03017333" lon="-7.32534167">
        <ele>588.0</ele>
        <time>2022-06-19T14:10:28.931Z</time>
      </trkpt>
      <trkpt lat="43.03017333" lon="-7.32534167">
        <ele>588.0</ele>
        <time>2022-06-19T14:10:29.941Z</time>
      </trkpt>
      <trkpt lat="43.03017667" lon="-7.32540167">
        <ele>589.0</ele>
        <time>2022-06-19T14:10:30.933Z</time>
      </trkpt>
      <trkpt lat="43.03017667" lon="-7.32540167">
        <ele>589.0</ele>
        <time>2022-06-19T14:10:31.975Z</time>
      </trkpt>
      <trkpt lat="43.03017667" lon="-7.325445">
        <ele>590.0</ele>
        <time>2022-06-19T14:10:32.963Z</time>
      </trkpt>
      <trkpt lat="43.03017667" lon="-7.325445">
        <ele>590.0</ele>
        <time>2022-06-19T14:10:33.961Z</time>
      </trkpt>
      <trkpt lat="43.03017667" lon="-7.32551">
        <ele>591.0</ele>
        <time>2022-06-19T14:10:34.938Z</time>
      </trkpt>
      <trkpt lat="43.03017667" lon="-7.32551">
        <ele>591.0</ele>
        <time>2022-06-19T14:10:35.963Z</time>
      </trkpt>
      <trkpt lat="43.03017667" lon="-7.325585">
        <ele>592.0</ele>
        <time>2022-06-19T14:10:36.957Z</time>
      </trkpt>
      <trkpt lat="43.03017667" lon="-7.325585">
        <ele>592.0</ele>
        <time>2022-06-19T14:10:37.963Z</time>
      </trkpt>
      <trkpt lat="43.03017833" lon="-7.32566">
        <ele>592.0</ele>
        <time>2022-06-19T14:10:38.933Z</time>
      </trkpt>
      <trkpt lat="43.03017833" lon="-7.32566">
        <ele>592.0</ele>
        <time>2022-06-19T14:10:39.940Z</time>
      </trkpt>
      <trkpt lat="43.03017667" lon="-7.32573333">
        <ele>593.0</ele>
        <time>2022-06-19T14:10:40.933Z</time>
      </trkpt>
      <trkpt lat="43.03017667" lon="-7.32573333">
        <ele>593.0</ele>
        <time>2022-06-19T14:10:41.940Z</time>
      </trkpt>
      <trkpt lat="43.03017833" lon="-7.32581833">
        <ele>593.0</ele>
        <time>2022-06-19T14:10:42.965Z</time>
      </trkpt>
      <trkpt lat="43.03018" lon="-7.32586">
        <ele>594.0</ele>
        <time>2022-06-19T14:10:43.943Z</time>
      </trkpt>
      <trkpt lat="43.03018" lon="-7.32586">
        <ele>594.0</ele>
        <time>2022-06-19T14:10:44.949Z</time>
      </trkpt>
      <trkpt lat="43.03017833" lon="-7.325955">
        <ele>593.0</ele>
        <time>2022-06-19T14:10:45.953Z</time>
      </trkpt>
      <trkpt lat="43.03017833" lon="-7.325955">
        <ele>593.0</ele>
        <time>2022-06-19T14:10:46.960Z</time>
      </trkpt>
      <trkpt lat="43.03017667" lon="-7.32603833">
        <ele>593.0</ele>
        <time>2022-06-19T14:10:47.956Z</time>
      </trkpt>
      <trkpt lat="43.03017667" lon="-7.32603833">
        <ele>593.0</ele>
        <time>2022-06-19T14:10:48.964Z</time>
      </trkpt>
      <trkpt lat="43.03017167" lon="-7.326115">
        <ele>593.0</ele>
        <time>2022-06-19T14:10:49.930Z</time>
      </trkpt>
      <trkpt lat="43.03017167" lon="-7.326115">
        <ele>593.0</ele>
        <time>2022-06-19T14:10:50.936Z</time>
      </trkpt>
      <trkpt lat="43.03017167" lon="-7.32619833">
        <ele>592.0</ele>
        <time>2022-06-19T14:10:51.931Z</time>
      </trkpt>
      <trkpt lat="43.03017167" lon="-7.32619833">
        <ele>592.0</ele>
        <time>2022-06-19T14:10:52.951Z</time>
      </trkpt>
      <trkpt lat="43.03017833" lon="-7.32628">
        <ele>592.0</ele>
        <time>2022-06-19T14:10:53.929Z</time>
      </trkpt>
      <trkpt lat="43.03017833" lon="-7.326325">
        <ele>592.0</ele>
        <time>2022-06-19T14:10:54.933Z</time>
      </trkpt>
      <trkpt lat="43.03017833" lon="-7.326325">
        <ele>592.0</ele>
        <time>2022-06-19T14:10:55.952Z</time>
      </trkpt>
      <trkpt lat="43.03017333" lon="-7.32641">
        <ele>592.0</ele>
        <time>2022-06-19T14:10:56.959Z</time>
      </trkpt>
      <trkpt lat="43.03016667" lon="-7.32645333">
        <ele>592.0</ele>
        <time>2022-06-19T14:10:57.944Z</time>
      </trkpt>
      <trkpt lat="43.03016667" lon="-7.32645333">
        <ele>592.0</ele>
        <time>2022-06-19T14:10:58.950Z</time>
      </trkpt>
      <trkpt lat="43.03015833" lon="-7.32654">
        <ele>592.0</ele>
        <time>2022-06-19T14:10:59.964Z</time>
      </trkpt>
      <trkpt lat="43.03015833" lon="-7.32654">
        <ele>592.0</ele>
        <time>2022-06-19T14:11:00.937Z</time>
      </trkpt>
      <trkpt lat="43.03014833" lon="-7.326625">
        <ele>592.0</ele>
        <time>2022-06-19T14:11:01.949Z</time>
      </trkpt>
      <trkpt lat="43.03014833" lon="-7.326625">
        <ele>592.0</ele>
        <time>2022-06-19T14:11:02.964Z</time>
      </trkpt>
      <trkpt lat="43.03014" lon="-7.32670333">
        <ele>592.0</ele>
        <time>2022-06-19T14:11:03.967Z</time>
      </trkpt>
      <trkpt lat="43.03014" lon="-7.32670333">
        <ele>592.0</ele>
        <time>2022-06-19T14:11:04.933Z</time>
      </trkpt>
      <trkpt lat="43.03012667" lon="-7.326785">
        <ele>592.0</ele>
        <time>2022-06-19T14:11:05.965Z</time>
      </trkpt>
      <trkpt lat="43.03012667" lon="-7.326785">
        <ele>592.0</ele>
        <time>2022-06-19T14:11:06.931Z</time>
      </trkpt>
      <trkpt lat="43.03011167" lon="-7.32686167">
        <ele>593.0</ele>
        <time>2022-06-19T14:11:07.930Z</time>
      </trkpt>
      <trkpt lat="43.03009167" lon="-7.32689333">
        <ele>593.0</ele>
        <time>2022-06-19T14:11:08.954Z</time>
      </trkpt>
      <trkpt lat="43.03009167" lon="-7.32689333">
        <ele>593.0</ele>
        <time>2022-06-19T14:11:09.964Z</time>
      </trkpt>
      <trkpt lat="43.03003" lon="-7.32691333">
        <ele>594.0</ele>
        <time>2022-06-19T14:11:10.943Z</time>
      </trkpt>
      <trkpt lat="43.03003" lon="-7.32691333">
        <ele>594.0</ele>
        <time>2022-06-19T14:11:11.949Z</time>
      </trkpt>
      <trkpt lat="43.02997167" lon="-7.32692333">
        <ele>594.0</ele>
        <time>2022-06-19T14:11:12.933Z</time>
      </trkpt>
      <trkpt lat="43.02997167" lon="-7.32692333">
        <ele>594.0</ele>
        <time>2022-06-19T14:11:13.939Z</time>
      </trkpt>
      <trkpt lat="43.029915" lon="-7.32692167">
        <ele>594.0</ele>
        <time>2022-06-19T14:11:14.938Z</time>
      </trkpt>
      <trkpt lat="43.029915" lon="-7.32692167">
        <ele>594.0</ele>
        <time>2022-06-19T14:11:15.944Z</time>
      </trkpt>
      <trkpt lat="43.02985667" lon="-7.32694333">
        <ele>595.0</ele>
        <time>2022-06-19T14:11:16.956Z</time>
      </trkpt>
      <trkpt lat="43.02985667" lon="-7.32694333">
        <ele>595.0</ele>
        <time>2022-06-19T14:11:17.949Z</time>
      </trkpt>
      <trkpt lat="43.02979833" lon="-7.32695">
        <ele>596.0</ele>
        <time>2022-06-19T14:11:18.941Z</time>
      </trkpt>
      <trkpt lat="43.02977167" lon="-7.32695">
        <ele>596.0</ele>
        <time>2022-06-19T14:11:19.935Z</time>
      </trkpt>
      <trkpt lat="43.02977167" lon="-7.32695">
        <ele>596.0</ele>
        <time>2022-06-19T14:11:20.960Z</time>
      </trkpt>
      <trkpt lat="43.029725" lon="-7.32694333">
        <ele>596.0</ele>
        <time>2022-06-19T14:11:21.942Z</time>
      </trkpt>
      <trkpt lat="43.0297" lon="-7.32693667">
        <ele>597.0</ele>
        <time>2022-06-19T14:11:22.931Z</time>
      </trkpt>
      <trkpt lat="43.02967333" lon="-7.32693333">
        <ele>597.0</ele>
        <time>2022-06-19T14:11:23.967Z</time>
      </trkpt>
      <trkpt lat="43.02967333" lon="-7.32693333">
        <ele>597.0</ele>
        <time>2022-06-19T14:11:24.934Z</time>
      </trkpt>
      <trkpt lat="43.02961333" lon="-7.32693333">
        <ele>598.0</ele>
        <time>2022-06-19T14:11:25.947Z</time>
      </trkpt>
      <trkpt lat="43.02961333" lon="-7.32693333">
        <ele>598.0</ele>
        <time>2022-06-19T14:11:26.953Z</time>
      </trkpt>
      <trkpt lat="43.02955833" lon="-7.32691333">
        <ele>599.0</ele>
        <time>2022-06-19T14:11:27.953Z</time>
      </trkpt>
      <trkpt lat="43.02953167" lon="-7.3269">
        <ele>599.0</ele>
        <time>2022-06-19T14:11:28.943Z</time>
      </trkpt>
      <trkpt lat="43.02953167" lon="-7.3269">
        <ele>599.0</ele>
        <time>2022-06-19T14:11:29.950Z</time>
      </trkpt>
      <trkpt lat="43.02947667" lon="-7.32688333">
        <ele>599.0</ele>
        <time>2022-06-19T14:11:30.945Z</time>
      </trkpt>
      <trkpt lat="43.02945833" lon="-7.32687667">
        <ele>599.0</ele>
        <time>2022-06-19T14:11:31.950Z</time>
      </trkpt>
      <trkpt lat="43.02945833" lon="-7.32687667">
        <ele>599.0</ele>
        <time>2022-06-19T14:11:32.965Z</time>
      </trkpt>
      <trkpt lat="43.02941667" lon="-7.32687">
        <ele>600.0</ele>
        <time>2022-06-19T14:11:33.972Z</time>
      </trkpt>
      <trkpt lat="43.02941667" lon="-7.32687">
        <ele>600.0</ele>
        <time>2022-06-19T14:11:34.930Z</time>
      </trkpt>
      <trkpt lat="43.02938167" lon="-7.32687333">
        <ele>601.0</ele>
        <time>2022-06-19T14:11:35.966Z</time>
      </trkpt>
      <trkpt lat="43.02936167" lon="-7.32688">
        <ele>601.0</ele>
        <time>2022-06-19T14:11:36.963Z</time>
      </trkpt>
      <trkpt lat="43.02936167" lon="-7.32688">
        <ele>601.0</ele>
        <time>2022-06-19T14:11:37.930Z</time>
      </trkpt>
      <trkpt lat="43.02933" lon="-7.32692">
        <ele>601.0</ele>
        <time>2022-06-19T14:11:38.953Z</time>
      </trkpt>
      <trkpt lat="43.02933" lon="-7.32692">
        <ele>601.0</ele>
        <time>2022-06-19T14:11:39.960Z</time>
      </trkpt>
      <trkpt lat="43.02932333" lon="-7.32697167">
        <ele>601.0</ele>
        <time>2022-06-19T14:11:40.943Z</time>
      </trkpt>
      <trkpt lat="43.02932333" lon="-7.32697167">
        <ele>601.0</ele>
        <time>2022-06-19T14:11:41.949Z</time>
      </trkpt>
      <trkpt lat="43.029325" lon="-7.32698">
        <ele>600.0</ele>
        <time>2022-06-19T14:11:42.932Z</time>
      </trkpt>
      <trkpt lat="43.02932167" lon="-7.32698167">
        <ele>600.0</ele>
        <time>2022-06-19T14:11:43.933Z</time>
      </trkpt>
      <trkpt lat="43.02932167" lon="-7.32698167">
        <ele>600.0</ele>
        <time>2022-06-19T14:13:22.465Z</time>
      </trkpt>
      <trkpt lat="43.02932167" lon="-7.32698167">
        <ele>600.0</ele>
        <time>2022-06-19T14:13:23.457Z</time>
      </trkpt>
      <trkpt lat="43.02926667" lon="-7.327085">
        <ele>593.0</ele>
        <time>2022-06-19T14:13:24.486Z</time>
      </trkpt>
      <trkpt lat="43.02925" lon="-7.32709833">
        <ele>593.0</ele>
        <time>2022-06-19T14:13:25.456Z</time>
      </trkpt>
      <trkpt lat="43.02925" lon="-7.32709833">
        <ele>593.0</ele>
        <time>2022-06-19T14:13:26.466Z</time>
      </trkpt>
      <trkpt lat="43.02920333" lon="-7.32712333">
        <ele>592.0</ele>
        <time>2022-06-19T14:13:27.473Z</time>
      </trkpt>
      <trkpt lat="43.02920333" lon="-7.32712333">
        <ele>592.0</ele>
        <time>2022-06-19T14:13:28.454Z</time>
      </trkpt>
      <trkpt lat="43.02917" lon="-7.32714833">
        <ele>593.0</ele>
        <time>2022-06-19T14:13:29.481Z</time>
      </trkpt>
      <trkpt lat="43.02916" lon="-7.32716">
        <ele>593.0</ele>
        <time>2022-06-19T14:13:30.447Z</time>
      </trkpt>
      <trkpt lat="43.02916" lon="-7.32716">
        <ele>593.0</ele>
        <time>2022-06-19T14:13:31.465Z</time>
      </trkpt>
      <trkpt lat="43.029155" lon="-7.32716167">
        <ele>593.0</ele>
        <time>2022-06-19T14:13:32.462Z</time>
      </trkpt>
      <trkpt lat="43.029155" lon="-7.32716167">
        <ele>593.0</ele>
        <time>2022-06-19T14:13:33.448Z</time>
      </trkpt>
      <trkpt lat="43.02915333" lon="-7.32716">
        <ele>593.0</ele>
        <time>2022-06-19T14:15:11.937Z</time>
      </trkpt>
      <trkpt lat="43.02914167" lon="-7.32712333">
        <ele>597.0</ele>
        <time>2022-06-19T14:15:12.937Z</time>
      </trkpt>
      <trkpt lat="43.02915167" lon="-7.327105">
        <ele>597.0</ele>
        <time>2022-06-19T14:15:13.935Z</time>
      </trkpt>
      <trkpt lat="43.02915167" lon="-7.327105">
        <ele>597.0</ele>
        <time>2022-06-19T14:15:14.935Z</time>
      </trkpt>
      <trkpt lat="43.02919333" lon="-7.32707333">
        <ele>597.0</ele>
        <time>2022-06-19T14:15:15.938Z</time>
      </trkpt>
      <trkpt lat="43.02919333" lon="-7.32707333">
        <ele>597.0</ele>
        <time>2022-06-19T14:15:16.943Z</time>
      </trkpt>
      <trkpt lat="43.02925833" lon="-7.32706667">
        <ele>597.0</ele>
        <time>2022-06-19T14:15:17.950Z</time>
      </trkpt>
      <trkpt lat="43.02925833" lon="-7.32706667">
        <ele>597.0</ele>
        <time>2022-06-19T14:15:18.964Z</time>
      </trkpt>
      <trkpt lat="43.02930833" lon="-7.32713667">
        <ele>597.0</ele>
        <time>2022-06-19T14:15:19.933Z</time>
      </trkpt>
      <trkpt lat="43.02930833" lon="-7.32713667">
        <ele>597.0</ele>
        <time>2022-06-19T14:15:20.939Z</time>
      </trkpt>
      <trkpt lat="43.02935" lon="-7.327225">
        <ele>597.0</ele>
        <time>2022-06-19T14:15:21.943Z</time>
      </trkpt>
      <trkpt lat="43.02935" lon="-7.327225">
        <ele>597.0</ele>
        <time>2022-06-19T14:15:22.957Z</time>
      </trkpt>
      <trkpt lat="43.02939" lon="-7.327315">
        <ele>597.0</ele>
        <time>2022-06-19T14:15:23.936Z</time>
      </trkpt>
      <trkpt lat="43.02939" lon="-7.327315">
        <ele>597.0</ele>
        <time>2022-06-19T14:15:24.942Z</time>
      </trkpt>
      <trkpt lat="43.02941667" lon="-7.32740833">
        <ele>597.0</ele>
        <time>2022-06-19T14:15:25.936Z</time>
      </trkpt>
      <trkpt lat="43.02941667" lon="-7.32740833">
        <ele>597.0</ele>
        <time>2022-06-19T14:15:26.942Z</time>
      </trkpt>
      <trkpt lat="43.02943167" lon="-7.32749">
        <ele>597.0</ele>
        <time>2022-06-19T14:15:27.937Z</time>
      </trkpt>
      <trkpt lat="43.02943167" lon="-7.32749">
        <ele>597.0</ele>
        <time>2022-06-19T14:15:28.943Z</time>
      </trkpt>
      <trkpt lat="43.02944" lon="-7.32757333">
        <ele>596.0</ele>
        <time>2022-06-19T14:15:29.947Z</time>
      </trkpt>
      <trkpt lat="43.02944" lon="-7.32757333">
        <ele>596.0</ele>
        <time>2022-06-19T14:15:30.952Z</time>
      </trkpt>
      <trkpt lat="43.02944" lon="-7.32765">
        <ele>596.0</ele>
        <time>2022-06-19T14:15:31.949Z</time>
      </trkpt>
      <trkpt lat="43.02944" lon="-7.32765">
        <ele>596.0</ele>
        <time>2022-06-19T14:15:32.965Z</time>
      </trkpt>
      <trkpt lat="43.02943333" lon="-7.32772167">
        <ele>597.0</ele>
        <time>2022-06-19T14:15:33.958Z</time>
      </trkpt>
      <trkpt lat="43.02942833" lon="-7.32775667">
        <ele>597.0</ele>
        <time>2022-06-19T14:15:34.945Z</time>
      </trkpt>
      <trkpt lat="43.02942833" lon="-7.32775667">
        <ele>597.0</ele>
        <time>2022-06-19T14:15:35.962Z</time>
      </trkpt>
      <trkpt lat="43.02941167" lon="-7.32783667">
        <ele>597.0</ele>
        <time>2022-06-19T14:15:37.668Z</time>
      </trkpt>
      <trkpt lat="43.02940333" lon="-7.327875">
        <ele>597.0</ele>
        <time>2022-06-19T14:15:37.946Z</time>
      </trkpt>
      <trkpt lat="43.02940333" lon="-7.327875">
        <ele>597.0</ele>
        <time>2022-06-19T14:15:38.950Z</time>
      </trkpt>
      <trkpt lat="43.02938667" lon="-7.32794833">
        <ele>597.0</ele>
        <time>2022-06-19T14:15:39.954Z</time>
      </trkpt>
      <trkpt lat="43.02938333" lon="-7.32797833">
        <ele>598.0</ele>
        <time>2022-06-19T14:15:40.951Z</time>
      </trkpt>
      <trkpt lat="43.02938333" lon="-7.32797833">
        <ele>598.0</ele>
        <time>2022-06-19T14:15:41.958Z</time>
      </trkpt>
      <trkpt lat="43.02936333" lon="-7.328045">
        <ele>598.0</ele>
        <time>2022-06-19T14:15:42.972Z</time>
      </trkpt>
      <trkpt lat="43.02935167" lon="-7.32807167">
        <ele>598.0</ele>
        <time>2022-06-19T14:15:43.960Z</time>
      </trkpt>
      <trkpt lat="43.02935167" lon="-7.32807167">
        <ele>598.0</ele>
        <time>2022-06-19T14:15:44.966Z</time>
      </trkpt>
      <trkpt lat="43.02934333" lon="-7.32814167">
        <ele>598.0</ele>
        <time>2022-06-19T14:15:45.963Z</time>
      </trkpt>
      <trkpt lat="43.02934333" lon="-7.32814167">
        <ele>598.0</ele>
        <time>2022-06-19T14:15:46.969Z</time>
      </trkpt>
      <trkpt lat="43.02931833" lon="-7.32822833">
        <ele>598.0</ele>
        <time>2022-06-19T14:15:47.957Z</time>
      </trkpt>
      <trkpt lat="43.02931833" lon="-7.32822833">
        <ele>598.0</ele>
        <time>2022-06-19T14:15:48.935Z</time>
      </trkpt>
      <trkpt lat="43.02929333" lon="-7.32828833">
        <ele>598.0</ele>
        <time>2022-06-19T14:15:49.948Z</time>
      </trkpt>
      <trkpt lat="43.02928167" lon="-7.32832333">
        <ele>598.0</ele>
        <time>2022-06-19T14:15:50.939Z</time>
      </trkpt>
      <trkpt lat="43.02928167" lon="-7.32832333">
        <ele>598.0</ele>
        <time>2022-06-19T14:15:51.945Z</time>
      </trkpt>
      <trkpt lat="43.02927667" lon="-7.32840167">
        <ele>598.0</ele>
        <time>2022-06-19T14:15:52.953Z</time>
      </trkpt>
      <trkpt lat="43.02927667" lon="-7.32840167">
        <ele>598.0</ele>
        <time>2022-06-19T14:15:53.964Z</time>
      </trkpt>
      <trkpt lat="43.02927167" lon="-7.32847333">
        <ele>597.0</ele>
        <time>2022-06-19T14:15:54.955Z</time>
      </trkpt>
      <trkpt lat="43.02926667" lon="-7.32851167">
        <ele>597.0</ele>
        <time>2022-06-19T14:15:55.960Z</time>
      </trkpt>
      <trkpt lat="43.02926667" lon="-7.32851167">
        <ele>597.0</ele>
        <time>2022-06-19T14:15:56.966Z</time>
      </trkpt>
      <trkpt lat="43.02925" lon="-7.32860667">
        <ele>598.0</ele>
        <time>2022-06-19T14:15:57.943Z</time>
      </trkpt>
      <trkpt lat="43.02925" lon="-7.32860667">
        <ele>598.0</ele>
        <time>2022-06-19T14:15:58.958Z</time>
      </trkpt>
      <trkpt lat="43.02924667" lon="-7.32869167">
        <ele>598.0</ele>
        <time>2022-06-19T14:15:59.961Z</time>
      </trkpt>
      <trkpt lat="43.02924667" lon="-7.32869167">
        <ele>598.0</ele>
        <time>2022-06-19T14:16:00.972Z</time>
      </trkpt>
      <trkpt lat="43.02925667" lon="-7.328765">
        <ele>598.0</ele>
        <time>2022-06-19T14:16:01.961Z</time>
      </trkpt>
      <trkpt lat="43.02925667" lon="-7.328765">
        <ele>598.0</ele>
        <time>2022-06-19T14:16:02.966Z</time>
      </trkpt>
      <trkpt lat="43.029265" lon="-7.32884833">
        <ele>598.0</ele>
        <time>2022-06-19T14:16:03.969Z</time>
      </trkpt>
      <trkpt lat="43.02926" lon="-7.32888667">
        <ele>598.0</ele>
        <time>2022-06-19T14:16:04.970Z</time>
      </trkpt>
      <trkpt lat="43.02926" lon="-7.32888667">
        <ele>598.0</ele>
        <time>2022-06-19T14:16:05.936Z</time>
      </trkpt>
      <trkpt lat="43.02926167" lon="-7.32896667">
        <ele>598.0</ele>
        <time>2022-06-19T14:16:06.961Z</time>
      </trkpt>
      <trkpt lat="43.029265" lon="-7.32901">
        <ele>598.0</ele>
        <time>2022-06-19T14:16:07.971Z</time>
      </trkpt>
      <trkpt lat="43.029265" lon="-7.32901">
        <ele>598.0</ele>
        <time>2022-06-19T14:16:08.937Z</time>
      </trkpt>
      <trkpt lat="43.02928" lon="-7.32909167">
        <ele>598.0</ele>
        <time>2022-06-19T14:16:09.946Z</time>
      </trkpt>
      <trkpt lat="43.02928" lon="-7.32909167">
        <ele>598.0</ele>
        <time>2022-06-19T14:16:10.953Z</time>
      </trkpt>
      <trkpt lat="43.029295" lon="-7.32917">
        <ele>598.0</ele>
        <time>2022-06-19T14:16:11.944Z</time>
      </trkpt>
      <trkpt lat="43.02930167" lon="-7.32921">
        <ele>598.0</ele>
        <time>2022-06-19T14:16:12.964Z</time>
      </trkpt>
      <trkpt lat="43.02930167" lon="-7.32921">
        <ele>598.0</ele>
        <time>2022-06-19T14:16:13.970Z</time>
      </trkpt>
      <trkpt lat="43.02930667" lon="-7.32928667">
        <ele>598.0</ele>
        <time>2022-06-19T14:16:14.963Z</time>
      </trkpt>
      <trkpt lat="43.02930667" lon="-7.32928667">
        <ele>598.0</ele>
        <time>2022-06-19T14:16:15.970Z</time>
      </trkpt>
      <trkpt lat="43.02929333" lon="-7.32936667">
        <ele>598.0</ele>
        <time>2022-06-19T14:16:16.950Z</time>
      </trkpt>
      <trkpt lat="43.02929333" lon="-7.32936667">
        <ele>598.0</ele>
        <time>2022-06-19T14:16:17.973Z</time>
      </trkpt>
      <trkpt lat="43.02928667" lon="-7.32944167">
        <ele>598.0</ele>
        <time>2022-06-19T14:16:18.965Z</time>
      </trkpt>
      <trkpt lat="43.02929833" lon="-7.32948333">
        <ele>599.0</ele>
        <time>2022-06-19T14:16:19.937Z</time>
      </trkpt>
      <trkpt lat="43.02929833" lon="-7.32948333">
        <ele>599.0</ele>
        <time>2022-06-19T14:16:20.944Z</time>
      </trkpt>
      <trkpt lat="43.02930667" lon="-7.32954167">
        <ele>599.0</ele>
        <time>2022-06-19T14:16:21.941Z</time>
      </trkpt>
      <trkpt lat="43.02930667" lon="-7.32954167">
        <ele>599.0</ele>
        <time>2022-06-19T14:16:22.947Z</time>
      </trkpt>
      <trkpt lat="43.02931667" lon="-7.329615">
        <ele>599.0</ele>
        <time>2022-06-19T14:16:23.950Z</time>
      </trkpt>
      <trkpt lat="43.02932167" lon="-7.32964833">
        <ele>599.0</ele>
        <time>2022-06-19T14:16:24.934Z</time>
      </trkpt>
      <trkpt lat="43.02932667" lon="-7.32968">
        <ele>600.0</ele>
        <time>2022-06-19T14:16:25.955Z</time>
      </trkpt>
      <trkpt lat="43.02932667" lon="-7.32968">
        <ele>600.0</ele>
        <time>2022-06-19T14:16:26.962Z</time>
      </trkpt>
      <trkpt lat="43.02934667" lon="-7.32974167">
        <ele>600.0</ele>
        <time>2022-06-19T14:16:27.957Z</time>
      </trkpt>
      <trkpt lat="43.02934667" lon="-7.32974167">
        <ele>600.0</ele>
        <time>2022-06-19T14:16:28.964Z</time>
      </trkpt>
      <trkpt lat="43.02936" lon="-7.32979667">
        <ele>600.0</ele>
        <time>2022-06-19T14:16:29.948Z</time>
      </trkpt>
      <trkpt lat="43.02937167" lon="-7.32982833">
        <ele>600.0</ele>
        <time>2022-06-19T14:16:30.957Z</time>
      </trkpt>
      <trkpt lat="43.02937833" lon="-7.32986333">
        <ele>600.0</ele>
        <time>2022-06-19T14:16:31.949Z</time>
      </trkpt>
      <trkpt lat="43.02937833" lon="-7.32986333">
        <ele>600.0</ele>
        <time>2022-06-19T14:16:32.963Z</time>
      </trkpt>
      <trkpt lat="43.02939167" lon="-7.32993">
        <ele>600.0</ele>
        <time>2022-06-19T14:16:33.935Z</time>
      </trkpt>
      <trkpt lat="43.029395" lon="-7.32995833">
        <ele>601.0</ele>
        <time>2022-06-19T14:16:34.940Z</time>
      </trkpt>
      <trkpt lat="43.029395" lon="-7.32995833">
        <ele>601.0</ele>
        <time>2022-06-19T14:16:35.971Z</time>
      </trkpt>
      <trkpt lat="43.0294" lon="-7.330015">
        <ele>601.0</ele>
        <time>2022-06-19T14:16:36.958Z</time>
      </trkpt>
      <trkpt lat="43.0294" lon="-7.33004333">
        <ele>601.0</ele>
        <time>2022-06-19T14:16:37.949Z</time>
      </trkpt>
      <trkpt lat="43.0294" lon="-7.33004333">
        <ele>601.0</ele>
        <time>2022-06-19T14:16:38.955Z</time>
      </trkpt>
      <trkpt lat="43.02940833" lon="-7.33009">
        <ele>601.0</ele>
        <time>2022-06-19T14:16:39.946Z</time>
      </trkpt>
      <trkpt lat="43.02941833" lon="-7.33010833">
        <ele>601.0</ele>
        <time>2022-06-19T14:16:40.950Z</time>
      </trkpt>
      <trkpt lat="43.02941833" lon="-7.33010833">
        <ele>601.0</ele>
        <time>2022-06-19T14:16:41.955Z</time>
      </trkpt>
      <trkpt lat="43.02942667" lon="-7.33016833">
        <ele>602.0</ele>
        <time>2022-06-19T14:16:42.970Z</time>
      </trkpt>
      <trkpt lat="43.029425" lon="-7.330205">
        <ele>602.0</ele>
        <time>2022-06-19T14:16:43.943Z</time>
      </trkpt>
      <trkpt lat="43.029425" lon="-7.330205">
        <ele>602.0</ele>
        <time>2022-06-19T14:16:44.949Z</time>
      </trkpt>
      <trkpt lat="43.029425" lon="-7.33031167">
        <ele>602.0</ele>
        <time>2022-06-19T14:16:45.945Z</time>
      </trkpt>
      <trkpt lat="43.02942333" lon="-7.33039167">
        <ele>602.0</ele>
        <time>2022-06-19T14:16:46.960Z</time>
      </trkpt>
      <trkpt lat="43.02942333" lon="-7.33039167">
        <ele>602.0</ele>
        <time>2022-06-19T14:16:47.971Z</time>
      </trkpt>
      <trkpt lat="43.02938833" lon="-7.33058333">
        <ele>602.0</ele>
        <time>2022-06-19T14:16:48.964Z</time>
      </trkpt>
      <trkpt lat="43.02937667" lon="-7.33067667">
        <ele>602.0</ele>
        <time>2022-06-19T14:16:49.957Z</time>
      </trkpt>
      <trkpt lat="43.02937667" lon="-7.33067667">
        <ele>602.0</ele>
        <time>2022-06-19T14:16:50.964Z</time>
      </trkpt>
      <trkpt lat="43.02935167" lon="-7.33087833">
        <ele>603.0</ele>
        <time>2022-06-19T14:16:51.970Z</time>
      </trkpt>
      <trkpt lat="43.02935167" lon="-7.330965">
        <ele>602.0</ele>
        <time>2022-06-19T14:16:52.948Z</time>
      </trkpt>
      <trkpt lat="43.02935167" lon="-7.330965">
        <ele>602.0</ele>
        <time>2022-06-19T14:16:53.954Z</time>
      </trkpt>
      <trkpt lat="43.02940333" lon="-7.331085">
        <ele>602.0</ele>
        <time>2022-06-19T14:16:54.937Z</time>
      </trkpt>
      <trkpt lat="43.02940333" lon="-7.331085">
        <ele>602.0</ele>
        <time>2022-06-19T14:16:55.950Z</time>
      </trkpt>
      <trkpt lat="43.02947333" lon="-7.33113">
        <ele>602.0</ele>
        <time>2022-06-19T14:16:56.935Z</time>
      </trkpt>
      <trkpt lat="43.02947333" lon="-7.33113">
        <ele>602.0</ele>
        <time>2022-06-19T14:16:57.941Z</time>
      </trkpt>
      <trkpt lat="43.02951333" lon="-7.33117333">
        <ele>602.0</ele>
        <time>2022-06-19T14:16:58.960Z</time>
      </trkpt>
      <trkpt lat="43.029525" lon="-7.331185">
        <ele>602.0</ele>
        <time>2022-06-19T14:16:59.966Z</time>
      </trkpt>
      <trkpt lat="43.029525" lon="-7.331185">
        <ele>602.0</ele>
        <time>2022-06-19T14:17:00.940Z</time>
      </trkpt>
      <trkpt lat="43.02954" lon="-7.331195">
        <ele>601.0</ele>
        <time>2022-06-19T14:17:01.952Z</time>
      </trkpt>
      <trkpt lat="43.02954" lon="-7.331195">
        <ele>601.0</ele>
        <time>2022-06-19T14:17:02.962Z</time>
      </trkpt>
      <trkpt lat="43.02956167" lon="-7.33122167">
        <ele>600.0</ele>
        <time>2022-06-19T14:17:03.968Z</time>
      </trkpt>
      <trkpt lat="43.02958333" lon="-7.33123667">
        <ele>600.0</ele>
        <time>2022-06-19T14:17:04.934Z</time>
      </trkpt>
      <trkpt lat="43.02958333" lon="-7.33123667">
        <ele>600.0</ele>
        <time>2022-06-19T14:17:05.941Z</time>
      </trkpt>
      <trkpt lat="43.029635" lon="-7.33126">
        <ele>599.0</ele>
        <time>2022-06-19T14:17:06.948Z</time>
      </trkpt>
      <trkpt lat="43.029665" lon="-7.33127167">
        <ele>598.0</ele>
        <time>2022-06-19T14:17:07.949Z</time>
      </trkpt>
      <trkpt lat="43.029665" lon="-7.33127167">
        <ele>598.0</ele>
        <time>2022-06-19T14:17:08.955Z</time>
      </trkpt>
      <trkpt lat="43.029675" lon="-7.331365">
        <ele>598.0</ele>
        <time>2022-06-19T14:17:09.960Z</time>
      </trkpt>
      <trkpt lat="43.02965333" lon="-7.33141833">
        <ele>597.0</ele>
        <time>2022-06-19T14:17:10.964Z</time>
      </trkpt>
      <trkpt lat="43.02965333" lon="-7.33141833">
        <ele>597.0</ele>
        <time>2022-06-19T14:17:11.970Z</time>
      </trkpt>
      <trkpt lat="43.02959" lon="-7.33154333">
        <ele>596.0</ele>
        <time>2022-06-19T14:17:12.938Z</time>
      </trkpt>
      <trkpt lat="43.02954833" lon="-7.33160667">
        <ele>595.0</ele>
        <time>2022-06-19T14:17:13.956Z</time>
      </trkpt>
      <trkpt lat="43.02954833" lon="-7.33160667">
        <ele>595.0</ele>
        <time>2022-06-19T14:17:14.964Z</time>
      </trkpt>
      <trkpt lat="43.02945667" lon="-7.33173667">
        <ele>595.0</ele>
        <time>2022-06-19T14:17:15.970Z</time>
      </trkpt>
      <trkpt lat="43.02938667" lon="-7.33182333">
        <ele>594.0</ele>
        <time>2022-06-19T14:17:16.968Z</time>
      </trkpt>
      <trkpt lat="43.02933833" lon="-7.33195667">
        <ele>593.0</ele>
        <time>2022-06-19T14:17:17.944Z</time>
      </trkpt>
      <trkpt lat="43.02933833" lon="-7.33195667">
        <ele>593.0</ele>
        <time>2022-06-19T14:17:18.958Z</time>
      </trkpt>
      <trkpt lat="43.029235" lon="-7.33217667">
        <ele>592.0</ele>
        <time>2022-06-19T14:17:19.952Z</time>
      </trkpt>
      <trkpt lat="43.029235" lon="-7.33217667">
        <ele>592.0</ele>
        <time>2022-06-19T14:17:20.966Z</time>
      </trkpt>
      <trkpt lat="43.029145" lon="-7.33238167">
        <ele>591.0</ele>
        <time>2022-06-19T14:17:21.940Z</time>
      </trkpt>
      <trkpt lat="43.029145" lon="-7.33238167">
        <ele>591.0</ele>
        <time>2022-06-19T14:17:22.963Z</time>
      </trkpt>
      <trkpt lat="43.02906333" lon="-7.33255667">
        <ele>590.0</ele>
        <time>2022-06-19T14:17:23.962Z</time>
      </trkpt>
      <trkpt lat="43.02904" lon="-7.33264">
        <ele>589.0</ele>
        <time>2022-06-19T14:17:24.970Z</time>
      </trkpt>
      <trkpt lat="43.02904" lon="-7.33264">
        <ele>589.0</ele>
        <time>2022-06-19T14:17:25.936Z</time>
      </trkpt>
      <trkpt lat="43.02901" lon="-7.33282833">
        <ele>588.0</ele>
        <time>2022-06-19T14:17:26.959Z</time>
      </trkpt>
      <trkpt lat="43.02901" lon="-7.33282833">
        <ele>588.0</ele>
        <time>2022-06-19T14:17:27.965Z</time>
      </trkpt>
      <trkpt lat="43.02899" lon="-7.33303">
        <ele>587.0</ele>
        <time>2022-06-19T14:17:28.958Z</time>
      </trkpt>
      <trkpt lat="43.02899" lon="-7.33303">
        <ele>587.0</ele>
        <time>2022-06-19T14:17:29.966Z</time>
      </trkpt>
      <trkpt lat="43.02897667" lon="-7.33328333">
        <ele>585.0</ele>
        <time>2022-06-19T14:17:30.960Z</time>
      </trkpt>
      <trkpt lat="43.02896333" lon="-7.33342167">
        <ele>584.0</ele>
        <time>2022-06-19T14:17:31.960Z</time>
      </trkpt>
      <trkpt lat="43.02896333" lon="-7.33342167">
        <ele>584.0</ele>
        <time>2022-06-19T14:17:32.967Z</time>
      </trkpt>
      <trkpt lat="43.02889333" lon="-7.33372167">
        <ele>583.0</ele>
        <time>2022-06-19T14:17:34.140Z</time>
      </trkpt>
      <trkpt lat="43.02889333" lon="-7.33372167">
        <ele>583.0</ele>
        <time>2022-06-19T14:17:34.944Z</time>
      </trkpt>
      <trkpt lat="43.02882667" lon="-7.33405667">
        <ele>581.0</ele>
        <time>2022-06-19T14:17:35.954Z</time>
      </trkpt>
      <trkpt lat="43.02882667" lon="-7.33405667">
        <ele>581.0</ele>
        <time>2022-06-19T14:17:36.936Z</time>
      </trkpt>
      <trkpt lat="43.02875667" lon="-7.33435333">
        <ele>579.0</ele>
        <time>2022-06-19T14:17:37.935Z</time>
      </trkpt>
      <trkpt lat="43.02875667" lon="-7.33435333">
        <ele>579.0</ele>
        <time>2022-06-19T14:17:38.941Z</time>
      </trkpt>
      <trkpt lat="43.02860667" lon="-7.33458667">
        <ele>577.0</ele>
        <time>2022-06-19T14:17:39.956Z</time>
      </trkpt>
      <trkpt lat="43.02860667" lon="-7.33458667">
        <ele>577.0</ele>
        <time>2022-06-19T14:17:40.964Z</time>
      </trkpt>
      <trkpt lat="43.02842167" lon="-7.334795">
        <ele>575.0</ele>
        <time>2022-06-19T14:17:41.963Z</time>
      </trkpt>
      <trkpt lat="43.02842167" lon="-7.334795">
        <ele>575.0</ele>
        <time>2022-06-19T14:17:42.968Z</time>
      </trkpt>
      <trkpt lat="43.02823" lon="-7.334965">
        <ele>574.0</ele>
        <time>2022-06-19T14:17:43.960Z</time>
      </trkpt>
      <trkpt lat="43.02823" lon="-7.334965">
        <ele>574.0</ele>
        <time>2022-06-19T14:17:44.966Z</time>
      </trkpt>
      <trkpt lat="43.02804833" lon="-7.33509833">
        <ele>572.0</ele>
        <time>2022-06-19T14:17:45.961Z</time>
      </trkpt>
      <trkpt lat="43.02804833" lon="-7.33509833">
        <ele>572.0</ele>
        <time>2022-06-19T14:17:46.967Z</time>
      </trkpt>
      <trkpt lat="43.02793333" lon="-7.33528167">
        <ele>570.0</ele>
        <time>2022-06-19T14:17:47.967Z</time>
      </trkpt>
      <trkpt lat="43.02793333" lon="-7.33528167">
        <ele>570.0</ele>
        <time>2022-06-19T14:17:48.972Z</time>
      </trkpt>
      <trkpt lat="43.02788333" lon="-7.33548">
        <ele>567.0</ele>
        <time>2022-06-19T14:17:49.938Z</time>
      </trkpt>
      <trkpt lat="43.02788333" lon="-7.33548">
        <ele>567.0</ele>
        <time>2022-06-19T14:17:50.944Z</time>
      </trkpt>
      <trkpt lat="43.027845" lon="-7.33568833">
        <ele>564.0</ele>
        <time>2022-06-19T14:17:51.935Z</time>
      </trkpt>
      <trkpt lat="43.027845" lon="-7.33568833">
        <ele>564.0</ele>
        <time>2022-06-19T14:17:52.940Z</time>
      </trkpt>
      <trkpt lat="43.02781" lon="-7.335885">
        <ele>561.0</ele>
        <time>2022-06-19T14:17:53.940Z</time>
      </trkpt>
      <trkpt lat="43.02781" lon="-7.335885">
        <ele>561.0</ele>
        <time>2022-06-19T14:17:54.957Z</time>
      </trkpt>
      <trkpt lat="43.027785" lon="-7.33609167">
        <ele>558.0</ele>
        <time>2022-06-19T14:17:55.950Z</time>
      </trkpt>
      <trkpt lat="43.027785" lon="-7.33609167">
        <ele>558.0</ele>
        <time>2022-06-19T14:17:56.956Z</time>
      </trkpt>
      <trkpt lat="43.02777333" lon="-7.33631833">
        <ele>556.0</ele>
        <time>2022-06-19T14:17:57.945Z</time>
      </trkpt>
      <trkpt lat="43.02777333" lon="-7.33631833">
        <ele>556.0</ele>
        <time>2022-06-19T14:17:58.951Z</time>
      </trkpt>
      <trkpt lat="43.02774833" lon="-7.33654">
        <ele>555.0</ele>
        <time>2022-06-19T14:17:59.941Z</time>
      </trkpt>
      <trkpt lat="43.02774833" lon="-7.33654">
        <ele>555.0</ele>
        <time>2022-06-19T14:18:00.949Z</time>
      </trkpt>
      <trkpt lat="43.02771833" lon="-7.33675833">
        <ele>553.0</ele>
        <time>2022-06-19T14:18:01.936Z</time>
      </trkpt>
      <trkpt lat="43.02771833" lon="-7.33675833">
        <ele>553.0</ele>
        <time>2022-06-19T14:18:02.942Z</time>
      </trkpt>
      <trkpt lat="43.02767333" lon="-7.33695167">
        <ele>551.0</ele>
        <time>2022-06-19T14:18:03.970Z</time>
      </trkpt>
      <trkpt lat="43.02763833" lon="-7.33705333">
        <ele>550.0</ele>
        <time>2022-06-19T14:18:04.947Z</time>
      </trkpt>
      <trkpt lat="43.02763833" lon="-7.33705333">
        <ele>550.0</ele>
        <time>2022-06-19T14:18:05.954Z</time>
      </trkpt>
      <trkpt lat="43.02756667" lon="-7.33724667">
        <ele>548.0</ele>
        <time>2022-06-19T14:18:06.940Z</time>
      </trkpt>
      <trkpt lat="43.02752833" lon="-7.33733833">
        <ele>547.0</ele>
        <time>2022-06-19T14:18:07.971Z</time>
      </trkpt>
      <trkpt lat="43.02752833" lon="-7.33733833">
        <ele>547.0</ele>
        <time>2022-06-19T14:18:08.936Z</time>
      </trkpt>
      <trkpt lat="43.02744667" lon="-7.337525">
        <ele>546.0</ele>
        <time>2022-06-19T14:18:09.960Z</time>
      </trkpt>
      <trkpt lat="43.02744667" lon="-7.337525">
        <ele>546.0</ele>
        <time>2022-06-19T14:18:10.966Z</time>
      </trkpt>
      <trkpt lat="43.02736167" lon="-7.33770833">
        <ele>545.0</ele>
        <time>2022-06-19T14:18:11.967Z</time>
      </trkpt>
      <trkpt lat="43.02731833" lon="-7.33780167">
        <ele>544.0</ele>
        <time>2022-06-19T14:18:12.964Z</time>
      </trkpt>
      <trkpt lat="43.02731833" lon="-7.33780167">
        <ele>544.0</ele>
        <time>2022-06-19T14:18:13.970Z</time>
      </trkpt>
      <trkpt lat="43.02723167" lon="-7.33798667">
        <ele>543.0</ele>
        <time>2022-06-19T14:18:14.970Z</time>
      </trkpt>
      <trkpt lat="43.02723167" lon="-7.33798667">
        <ele>543.0</ele>
        <time>2022-06-19T14:18:15.936Z</time>
      </trkpt>
      <trkpt lat="43.02716333" lon="-7.338175">
        <ele>542.0</ele>
        <time>2022-06-19T14:18:16.969Z</time>
      </trkpt>
      <trkpt lat="43.02716333" lon="-7.338175">
        <ele>542.0</ele>
        <time>2022-06-19T14:18:17.962Z</time>
      </trkpt>
      <trkpt lat="43.027155" lon="-7.338375">
        <ele>541.0</ele>
        <time>2022-06-19T14:18:18.935Z</time>
      </trkpt>
      <trkpt lat="43.027165" lon="-7.33847833">
        <ele>540.0</ele>
        <time>2022-06-19T14:18:19.963Z</time>
      </trkpt>
      <trkpt lat="43.027165" lon="-7.33847833">
        <ele>540.0</ele>
        <time>2022-06-19T14:18:20.969Z</time>
      </trkpt>
      <trkpt lat="43.02720333" lon="-7.33869167">
        <ele>539.0</ele>
        <time>2022-06-19T14:18:21.971Z</time>
      </trkpt>
      <trkpt lat="43.02722833" lon="-7.33879833">
        <ele>539.0</ele>
        <time>2022-06-19T14:18:22.967Z</time>
      </trkpt>
      <trkpt lat="43.02722833" lon="-7.33879833">
        <ele>539.0</ele>
        <time>2022-06-19T14:18:23.934Z</time>
      </trkpt>
      <trkpt lat="43.02727667" lon="-7.33901">
        <ele>538.0</ele>
        <time>2022-06-19T14:18:24.939Z</time>
      </trkpt>
      <trkpt lat="43.02727667" lon="-7.33901">
        <ele>538.0</ele>
        <time>2022-06-19T14:18:25.949Z</time>
      </trkpt>
      <trkpt lat="43.02731" lon="-7.33923">
        <ele>538.0</ele>
        <time>2022-06-19T14:18:26.959Z</time>
      </trkpt>
      <trkpt lat="43.02731" lon="-7.33923">
        <ele>538.0</ele>
        <time>2022-06-19T14:18:27.960Z</time>
      </trkpt>
      <trkpt lat="43.02732167" lon="-7.33943167">
        <ele>538.0</ele>
        <time>2022-06-19T14:18:28.934Z</time>
      </trkpt>
      <trkpt lat="43.02732167" lon="-7.33943167">
        <ele>538.0</ele>
        <time>2022-06-19T14:18:29.940Z</time>
      </trkpt>
      <trkpt lat="43.02732" lon="-7.33965">
        <ele>538.0</ele>
        <time>2022-06-19T14:18:30.940Z</time>
      </trkpt>
      <trkpt lat="43.02731167" lon="-7.33975167">
        <ele>537.0</ele>
        <time>2022-06-19T14:18:31.942Z</time>
      </trkpt>
      <trkpt lat="43.02731167" lon="-7.33975167">
        <ele>537.0</ele>
        <time>2022-06-19T14:18:32.967Z</time>
      </trkpt>
      <trkpt lat="43.02729333" lon="-7.33994167">
        <ele>537.0</ele>
        <time>2022-06-19T14:18:33.955Z</time>
      </trkpt>
      <trkpt lat="43.02729333" lon="-7.33994167">
        <ele>537.0</ele>
        <time>2022-06-19T14:18:34.963Z</time>
      </trkpt>
      <trkpt lat="43.02727" lon="-7.340115">
        <ele>536.0</ele>
        <time>2022-06-19T14:18:35.990Z</time>
      </trkpt>
      <trkpt lat="43.02727" lon="-7.340115">
        <ele>536.0</ele>
        <time>2022-06-19T14:18:36.941Z</time>
      </trkpt>
      <trkpt lat="43.027235" lon="-7.34029833">
        <ele>536.0</ele>
        <time>2022-06-19T14:18:37.944Z</time>
      </trkpt>
      <trkpt lat="43.02720833" lon="-7.34038167">
        <ele>536.0</ele>
        <time>2022-06-19T14:18:38.947Z</time>
      </trkpt>
      <trkpt lat="43.02720833" lon="-7.34038167">
        <ele>536.0</ele>
        <time>2022-06-19T14:18:39.956Z</time>
      </trkpt>
      <trkpt lat="43.027145" lon="-7.34054833">
        <ele>535.0</ele>
        <time>2022-06-19T14:18:40.948Z</time>
      </trkpt>
      <trkpt lat="43.027145" lon="-7.34054833">
        <ele>535.0</ele>
        <time>2022-06-19T14:18:41.965Z</time>
      </trkpt>
      <trkpt lat="43.027065" lon="-7.34069">
        <ele>535.0</ele>
        <time>2022-06-19T14:18:42.955Z</time>
      </trkpt>
      <trkpt lat="43.02701667" lon="-7.34075333">
        <ele>535.0</ele>
        <time>2022-06-19T14:18:43.957Z</time>
      </trkpt>
      <trkpt lat="43.02701667" lon="-7.34075333">
        <ele>535.0</ele>
        <time>2022-06-19T14:18:44.968Z</time>
      </trkpt>
      <trkpt lat="43.02690833" lon="-7.34087167">
        <ele>535.0</ele>
        <time>2022-06-19T14:18:45.936Z</time>
      </trkpt>
      <trkpt lat="43.02690833" lon="-7.34087167">
        <ele>535.0</ele>
        <time>2022-06-19T14:18:46.947Z</time>
      </trkpt>
      <trkpt lat="43.02679167" lon="-7.34098167">
        <ele>535.0</ele>
        <time>2022-06-19T14:18:47.945Z</time>
      </trkpt>
      <trkpt lat="43.02674167" lon="-7.34104">
        <ele>535.0</ele>
        <time>2022-06-19T14:18:48.938Z</time>
      </trkpt>
      <trkpt lat="43.02670333" lon="-7.34108667">
        <ele>535.0</ele>
        <time>2022-06-19T14:18:49.952Z</time>
      </trkpt>
      <trkpt lat="43.02670333" lon="-7.34108667">
        <ele>535.0</ele>
        <time>2022-06-19T14:18:50.961Z</time>
      </trkpt>
      <trkpt lat="43.02663" lon="-7.34112833">
        <ele>535.0</ele>
        <time>2022-06-19T14:18:51.941Z</time>
      </trkpt>
      <trkpt lat="43.02658" lon="-7.341155">
        <ele>535.0</ele>
        <time>2022-06-19T14:18:52.948Z</time>
      </trkpt>
      <trkpt lat="43.02658" lon="-7.341155">
        <ele>535.0</ele>
        <time>2022-06-19T14:18:53.964Z</time>
      </trkpt>
      <trkpt lat="43.02645167" lon="-7.34119667">
        <ele>535.0</ele>
        <time>2022-06-19T14:18:54.937Z</time>
      </trkpt>
      <trkpt lat="43.026385" lon="-7.34122">
        <ele>535.0</ele>
        <time>2022-06-19T14:18:55.942Z</time>
      </trkpt>
      <trkpt lat="43.026385" lon="-7.34122">
        <ele>535.0</ele>
        <time>2022-06-19T14:18:56.953Z</time>
      </trkpt>
      <trkpt lat="43.02624167" lon="-7.34130167">
        <ele>535.0</ele>
        <time>2022-06-19T14:18:57.962Z</time>
      </trkpt>
      <trkpt lat="43.02624167" lon="-7.34130167">
        <ele>535.0</ele>
        <time>2022-06-19T14:18:58.959Z</time>
      </trkpt>
      <trkpt lat="43.02610833" lon="-7.34142667">
        <ele>534.0</ele>
        <time>2022-06-19T14:18:59.970Z</time>
      </trkpt>
      <trkpt lat="43.02610833" lon="-7.34142667">
        <ele>534.0</ele>
        <time>2022-06-19T14:19:00.953Z</time>
      </trkpt>
      <trkpt lat="43.02597833" lon="-7.341565">
        <ele>534.0</ele>
        <time>2022-06-19T14:19:01.960Z</time>
      </trkpt>
      <trkpt lat="43.02597833" lon="-7.341565">
        <ele>534.0</ele>
        <time>2022-06-19T14:19:02.969Z</time>
      </trkpt>
      <trkpt lat="43.02587" lon="-7.34172167">
        <ele>533.0</ele>
        <time>2022-06-19T14:19:03.968Z</time>
      </trkpt>
      <trkpt lat="43.02580167" lon="-7.34178833">
        <ele>533.0</ele>
        <time>2022-06-19T14:19:04.954Z</time>
      </trkpt>
      <trkpt lat="43.02580167" lon="-7.34178833">
        <ele>533.0</ele>
        <time>2022-06-19T14:19:05.963Z</time>
      </trkpt>
      <trkpt lat="43.02571167" lon="-7.34195167">
        <ele>532.0</ele>
        <time>2022-06-19T14:19:06.948Z</time>
      </trkpt>
      <trkpt lat="43.02568" lon="-7.34204667">
        <ele>530.0</ele>
        <time>2022-06-19T14:19:07.943Z</time>
      </trkpt>
      <trkpt lat="43.02568" lon="-7.34204667">
        <ele>530.0</ele>
        <time>2022-06-19T14:19:08.952Z</time>
      </trkpt>
      <trkpt lat="43.025605" lon="-7.34224667">
        <ele>528.0</ele>
        <time>2022-06-19T14:19:09.966Z</time>
      </trkpt>
      <trkpt lat="43.02556667" lon="-7.34234667">
        <ele>527.0</ele>
        <time>2022-06-19T14:19:10.950Z</time>
      </trkpt>
      <trkpt lat="43.02556667" lon="-7.34234667">
        <ele>527.0</ele>
        <time>2022-06-19T14:19:11.962Z</time>
      </trkpt>
      <trkpt lat="43.02549333" lon="-7.342545">
        <ele>525.0</ele>
        <time>2022-06-19T14:19:12.970Z</time>
      </trkpt>
      <trkpt lat="43.02545333" lon="-7.34265167">
        <ele>524.0</ele>
        <time>2022-06-19T14:19:13.942Z</time>
      </trkpt>
      <trkpt lat="43.02545333" lon="-7.34265167">
        <ele>524.0</ele>
        <time>2022-06-19T14:19:14.949Z</time>
      </trkpt>
      <trkpt lat="43.02537" lon="-7.34287">
        <ele>521.0</ele>
        <time>2022-06-19T14:19:15.955Z</time>
      </trkpt>
      <trkpt lat="43.02537" lon="-7.34287">
        <ele>521.0</ele>
        <time>2022-06-19T14:19:16.966Z</time>
      </trkpt>
      <trkpt lat="43.02528833" lon="-7.3431">
        <ele>518.0</ele>
        <time>2022-06-19T14:19:17.970Z</time>
      </trkpt>
      <trkpt lat="43.02528833" lon="-7.3431">
        <ele>518.0</ele>
        <time>2022-06-19T14:19:18.935Z</time>
      </trkpt>
      <trkpt lat="43.02520333" lon="-7.34334333">
        <ele>516.0</ele>
        <time>2022-06-19T14:19:19.967Z</time>
      </trkpt>
      <trkpt lat="43.02520333" lon="-7.34334333">
        <ele>516.0</ele>
        <time>2022-06-19T14:19:20.934Z</time>
      </trkpt>
      <trkpt lat="43.02511667" lon="-7.34359333">
        <ele>513.0</ele>
        <time>2022-06-19T14:19:21.940Z</time>
      </trkpt>
      <trkpt lat="43.02511667" lon="-7.34359333">
        <ele>513.0</ele>
        <time>2022-06-19T14:19:22.955Z</time>
      </trkpt>
      <trkpt lat="43.02502833" lon="-7.34383333">
        <ele>512.0</ele>
        <time>2022-06-19T14:19:23.942Z</time>
      </trkpt>
      <trkpt lat="43.02502833" lon="-7.34383333">
        <ele>512.0</ele>
        <time>2022-06-19T14:19:24.950Z</time>
      </trkpt>
      <trkpt lat="43.02494167" lon="-7.34406333">
        <ele>510.0</ele>
        <time>2022-06-19T14:19:25.960Z</time>
      </trkpt>
      <trkpt lat="43.02494167" lon="-7.34406333">
        <ele>510.0</ele>
        <time>2022-06-19T14:19:26.968Z</time>
      </trkpt>
      <trkpt lat="43.02486667" lon="-7.34428833">
        <ele>510.0</ele>
        <time>2022-06-19T14:19:27.970Z</time>
      </trkpt>
      <trkpt lat="43.02483333" lon="-7.344395">
        <ele>510.0</ele>
        <time>2022-06-19T14:19:28.972Z</time>
      </trkpt>
      <trkpt lat="43.02483333" lon="-7.344395">
        <ele>510.0</ele>
        <time>2022-06-19T14:19:29.940Z</time>
      </trkpt>
      <trkpt lat="43.02476333" lon="-7.34459833">
        <ele>509.0</ele>
        <time>2022-06-19T14:19:30.940Z</time>
      </trkpt>
      <trkpt lat="43.02473167" lon="-7.34469833">
        <ele>508.0</ele>
        <time>2022-06-19T14:19:31.940Z</time>
      </trkpt>
      <trkpt lat="43.02473167" lon="-7.34469833">
        <ele>508.0</ele>
        <time>2022-06-19T14:19:32.948Z</time>
      </trkpt>
      <trkpt lat="43.02468333" lon="-7.34489667">
        <ele>508.0</ele>
        <time>2022-06-19T14:19:33.937Z</time>
      </trkpt>
      <trkpt lat="43.02468333" lon="-7.34489667">
        <ele>508.0</ele>
        <time>2022-06-19T14:19:34.942Z</time>
      </trkpt>
      <trkpt lat="43.024645" lon="-7.345075">
        <ele>507.0</ele>
        <time>2022-06-19T14:19:35.970Z</time>
      </trkpt>
      <trkpt lat="43.02462833" lon="-7.345145">
        <ele>506.0</ele>
        <time>2022-06-19T14:19:36.950Z</time>
      </trkpt>
      <trkpt lat="43.024615" lon="-7.345195">
        <ele>506.0</ele>
        <time>2022-06-19T14:19:37.972Z</time>
      </trkpt>
      <trkpt lat="43.024615" lon="-7.345195">
        <ele>506.0</ele>
        <time>2022-06-19T14:19:38.939Z</time>
      </trkpt>
      <trkpt lat="43.02461" lon="-7.34522333">
        <ele>505.0</ele>
        <time>2022-06-19T14:19:39.962Z</time>
      </trkpt>
      <trkpt lat="43.02461" lon="-7.34522333">
        <ele>505.0</ele>
        <time>2022-06-19T14:19:40.970Z</time>
      </trkpt>
      <trkpt lat="43.02461167" lon="-7.34522167">
        <ele>505.0</ele>
        <time>2022-06-19T14:19:41.943Z</time>
      </trkpt>
      <trkpt lat="43.02461167" lon="-7.34522167">
        <ele>505.0</ele>
        <time>2022-06-19T14:19:42.936Z</time>
      </trkpt>
      <trkpt lat="43.02461167" lon="-7.34522167">
        <ele>505.0</ele>
        <time>2022-06-19T14:19:45.302Z</time>
      </trkpt>
      <trkpt lat="43.02461167" lon="-7.34522167">
        <ele>505.0</ele>
        <time>2022-06-19T14:19:46.339Z</time>
      </trkpt>
      <trkpt lat="43.02461167" lon="-7.34522167">
        <ele>505.0</ele>
        <time>2022-06-19T14:19:47.301Z</time>
      </trkpt>
      <trkpt lat="43.02461167" lon="-7.34522167">
        <ele>505.0</ele>
        <time>2022-06-19T14:19:48.321Z</time>
      </trkpt>
      <trkpt lat="43.02461167" lon="-7.34522167">
        <ele>505.0</ele>
        <time>2022-06-19T14:19:49.309Z</time>
      </trkpt>
      <trkpt lat="43.02461167" lon="-7.34522167">
        <ele>505.0</ele>
        <time>2022-06-19T14:19:50.307Z</time>
      </trkpt>
      <trkpt lat="43.02461167" lon="-7.34522167">
        <ele>505.0</ele>
        <time>2022-06-19T14:19:51.329Z</time>
      </trkpt>
      <trkpt lat="43.02461167" lon="-7.34522167">
        <ele>505.0</ele>
        <time>2022-06-19T14:19:52.312Z</time>
      </trkpt>
      <trkpt lat="43.02461167" lon="-7.34522167">
        <ele>505.0</ele>
        <time>2022-06-19T14:19:53.541Z</time>
      </trkpt>
      <trkpt lat="43.02461167" lon="-7.34522167">
        <ele>505.0</ele>
        <time>2022-06-19T14:19:54.310Z</time>
      </trkpt>
      <trkpt lat="43.02461167" lon="-7.34522167">
        <ele>505.0</ele>
        <time>2022-06-19T14:19:55.326Z</time>
      </trkpt>
      <trkpt lat="43.02461167" lon="-7.34522167">
        <ele>505.0</ele>
        <time>2022-06-19T14:19:56.326Z</time>
      </trkpt>
      <trkpt lat="43.02461167" lon="-7.34522167">
        <ele>505.0</ele>
        <time>2022-06-19T14:19:57.312Z</time>
      </trkpt>
      <trkpt lat="43.02461167" lon="-7.34522167">
        <ele>505.0</ele>
        <time>2022-06-19T14:19:58.310Z</time>
      </trkpt>
      <trkpt lat="43.02461167" lon="-7.34522167">
        <ele>505.0</ele>
        <time>2022-06-19T14:19:59.329Z</time>
      </trkpt>
      <trkpt lat="43.02461167" lon="-7.34522167">
        <ele>505.0</ele>
        <time>2022-06-19T14:20:00.313Z</time>
      </trkpt>
      <trkpt lat="43.02461167" lon="-7.34522167">
        <ele>505.0</ele>
        <time>2022-06-19T14:20:01.320Z</time>
      </trkpt>
      <trkpt lat="43.02461167" lon="-7.34522167">
        <ele>505.0</ele>
        <time>2022-06-19T14:20:02.327Z</time>
      </trkpt>
      <trkpt lat="43.02461167" lon="-7.34522167">
        <ele>505.0</ele>
        <time>2022-06-19T14:20:03.325Z</time>
      </trkpt>
      <trkpt lat="43.02461167" lon="-7.34522167">
        <ele>505.0</ele>
        <time>2022-06-19T14:20:04.312Z</time>
      </trkpt>
      <trkpt lat="43.02461167" lon="-7.34522167">
        <ele>505.0</ele>
        <time>2022-06-19T14:20:05.332Z</time>
      </trkpt>
      <trkpt lat="43.02461167" lon="-7.34522167">
        <ele>505.0</ele>
        <time>2022-06-19T14:20:06.299Z</time>
      </trkpt>
      <trkpt lat="43.02461167" lon="-7.34522167">
        <ele>505.0</ele>
        <time>2022-06-19T14:20:07.303Z</time>
      </trkpt>
      <trkpt lat="43.02461167" lon="-7.34522167">
        <ele>505.0</ele>
        <time>2022-06-19T14:20:08.294Z</time>
      </trkpt>
      <trkpt lat="43.02461167" lon="-7.34522167">
        <ele>505.0</ele>
        <time>2022-06-19T14:20:09.311Z</time>
      </trkpt>
      <trkpt lat="43.02461167" lon="-7.34522167">
        <ele>505.0</ele>
        <time>2022-06-19T14:20:10.307Z</time>
      </trkpt>
      <trkpt lat="43.02461167" lon="-7.34522167">
        <ele>505.0</ele>
        <time>2022-06-19T14:20:11.418Z</time>
      </trkpt>
      <trkpt lat="43.02461167" lon="-7.34522167">
        <ele>505.0</ele>
        <time>2022-06-19T14:20:12.329Z</time>
      </trkpt>
      <trkpt lat="43.02461167" lon="-7.34522167">
        <ele>505.0</ele>
        <time>2022-06-19T14:20:13.326Z</time>
      </trkpt>
      <trkpt lat="43.02461167" lon="-7.34522167">
        <ele>505.0</ele>
        <time>2022-06-19T14:20:14.325Z</time>
      </trkpt>
      <trkpt lat="43.02461167" lon="-7.34522167">
        <ele>505.0</ele>
        <time>2022-06-19T14:20:15.326Z</time>
      </trkpt>
      <trkpt lat="43.02461167" lon="-7.34522167">
        <ele>505.0</ele>
        <time>2022-06-19T14:20:16.308Z</time>
      </trkpt>
      <trkpt lat="43.02461167" lon="-7.34522167">
        <ele>505.0</ele>
        <time>2022-06-19T14:20:17.327Z</time>
      </trkpt>
      <trkpt lat="43.02461167" lon="-7.34522167">
        <ele>505.0</ele>
        <time>2022-06-19T14:20:18.304Z</time>
      </trkpt>
      <trkpt lat="43.02461167" lon="-7.34522167">
        <ele>505.0</ele>
        <time>2022-06-19T14:20:19.326Z</time>
      </trkpt>
      <trkpt lat="43.02461167" lon="-7.34522167">
        <ele>505.0</ele>
        <time>2022-06-19T14:20:20.307Z</time>
      </trkpt>
      <trkpt lat="43.02461167" lon="-7.34522167">
        <ele>505.0</ele>
        <time>2022-06-19T14:20:21.328Z</time>
      </trkpt>
      <trkpt lat="43.02461167" lon="-7.34522167">
        <ele>505.0</ele>
        <time>2022-06-19T14:20:22.309Z</time>
      </trkpt>
      <trkpt lat="43.02461167" lon="-7.34522167">
        <ele>505.0</ele>
        <time>2022-06-19T14:20:23.327Z</time>
      </trkpt>
      <trkpt lat="43.02461167" lon="-7.34522167">
        <ele>505.0</ele>
        <time>2022-06-19T14:20:24.305Z</time>
      </trkpt>
      <trkpt lat="43.02461167" lon="-7.34522167">
        <ele>505.0</ele>
        <time>2022-06-19T14:20:25.319Z</time>
      </trkpt>
      <trkpt lat="43.02461167" lon="-7.34522167">
        <ele>505.0</ele>
        <time>2022-06-19T14:20:26.313Z</time>
      </trkpt>
      <trkpt lat="43.02461167" lon="-7.34522167">
        <ele>505.0</ele>
        <time>2022-06-19T14:20:27.377Z</time>
      </trkpt>
      <trkpt lat="43.02461167" lon="-7.34522167">
        <ele>505.0</ele>
        <time>2022-06-19T14:20:28.314Z</time>
      </trkpt>
      <trkpt lat="43.02461167" lon="-7.34522167">
        <ele>505.0</ele>
        <time>2022-06-19T14:20:29.338Z</time>
      </trkpt>
      <trkpt lat="43.02461167" lon="-7.34522167">
        <ele>505.0</ele>
        <time>2022-06-19T14:20:30.319Z</time>
      </trkpt>
      <trkpt lat="43.02461167" lon="-7.34522167">
        <ele>505.0</ele>
        <time>2022-06-19T14:20:31.330Z</time>
      </trkpt>
      <trkpt lat="43.02461167" lon="-7.34522167">
        <ele>505.0</ele>
        <time>2022-06-19T14:20:32.297Z</time>
      </trkpt>
      <trkpt lat="43.0246" lon="-7.34525667">
        <ele>506.0</ele>
        <time>2022-06-19T14:20:33.303Z</time>
      </trkpt>
      <trkpt lat="43.02458167" lon="-7.34529333">
        <ele>506.0</ele>
        <time>2022-06-19T14:20:34.292Z</time>
      </trkpt>
      <trkpt lat="43.02458167" lon="-7.34529333">
        <ele>506.0</ele>
        <time>2022-06-19T14:20:35.317Z</time>
      </trkpt>
      <trkpt lat="43.02452667" lon="-7.34539">
        <ele>506.0</ele>
        <time>2022-06-19T14:20:36.292Z</time>
      </trkpt>
      <trkpt lat="43.02452667" lon="-7.34539">
        <ele>506.0</ele>
        <time>2022-06-19T14:20:37.309Z</time>
      </trkpt>
      <trkpt lat="43.02445833" lon="-7.34551">
        <ele>505.0</ele>
        <time>2022-06-19T14:20:38.325Z</time>
      </trkpt>
      <trkpt lat="43.02445833" lon="-7.34551">
        <ele>505.0</ele>
        <time>2022-06-19T14:20:39.324Z</time>
      </trkpt>
      <trkpt lat="43.02436167" lon="-7.34561833">
        <ele>505.0</ele>
        <time>2022-06-19T14:20:40.300Z</time>
      </trkpt>
      <trkpt lat="43.02436167" lon="-7.34561833">
        <ele>505.0</ele>
        <time>2022-06-19T14:20:41.298Z</time>
      </trkpt>
      <trkpt lat="43.02425667" lon="-7.34571833">
        <ele>504.0</ele>
        <time>2022-06-19T14:20:42.313Z</time>
      </trkpt>
      <trkpt lat="43.02425667" lon="-7.34571833">
        <ele>504.0</ele>
        <time>2022-06-19T14:20:43.297Z</time>
      </trkpt>
      <trkpt lat="43.02416833" lon="-7.345855">
        <ele>503.0</ele>
        <time>2022-06-19T14:20:44.320Z</time>
      </trkpt>
      <trkpt lat="43.02416833" lon="-7.345855">
        <ele>503.0</ele>
        <time>2022-06-19T14:20:45.302Z</time>
      </trkpt>
      <trkpt lat="43.024115" lon="-7.34598333">
        <ele>502.0</ele>
        <time>2022-06-19T14:20:46.319Z</time>
      </trkpt>
      <trkpt lat="43.024115" lon="-7.34598333">
        <ele>502.0</ele>
        <time>2022-06-19T14:20:47.328Z</time>
      </trkpt>
      <trkpt lat="43.02407" lon="-7.34611167">
        <ele>502.0</ele>
        <time>2022-06-19T14:20:48.319Z</time>
      </trkpt>
      <trkpt lat="43.02404667" lon="-7.34617167">
        <ele>502.0</ele>
        <time>2022-06-19T14:20:49.320Z</time>
      </trkpt>
      <trkpt lat="43.02404667" lon="-7.34617167">
        <ele>502.0</ele>
        <time>2022-06-19T14:20:50.299Z</time>
      </trkpt>
      <trkpt lat="43.02400333" lon="-7.34627167">
        <ele>502.0</ele>
        <time>2022-06-19T14:20:51.403Z</time>
      </trkpt>
      <trkpt lat="43.02400333" lon="-7.34627167">
        <ele>502.0</ele>
        <time>2022-06-19T14:20:52.319Z</time>
      </trkpt>
      <trkpt lat="43.02396167" lon="-7.34636667">
        <ele>502.0</ele>
        <time>2022-06-19T14:20:53.299Z</time>
      </trkpt>
      <trkpt lat="43.02394" lon="-7.346415">
        <ele>502.0</ele>
        <time>2022-06-19T14:20:54.321Z</time>
      </trkpt>
      <trkpt lat="43.02394" lon="-7.346415">
        <ele>502.0</ele>
        <time>2022-06-19T14:20:55.324Z</time>
      </trkpt>
      <trkpt lat="43.0239" lon="-7.34652">
        <ele>501.0</ele>
        <time>2022-06-19T14:20:56.303Z</time>
      </trkpt>
      <trkpt lat="43.02387667" lon="-7.34657333">
        <ele>501.0</ele>
        <time>2022-06-19T14:20:57.306Z</time>
      </trkpt>
      <trkpt lat="43.02387667" lon="-7.34657333">
        <ele>501.0</ele>
        <time>2022-06-19T14:20:58.294Z</time>
      </trkpt>
      <trkpt lat="43.02382333" lon="-7.34667833">
        <ele>500.0</ele>
        <time>2022-06-19T14:20:59.304Z</time>
      </trkpt>
      <trkpt lat="43.02382333" lon="-7.34667833">
        <ele>500.0</ele>
        <time>2022-06-19T14:21:00.301Z</time>
      </trkpt>
      <trkpt lat="43.02376167" lon="-7.34678833">
        <ele>500.0</ele>
        <time>2022-06-19T14:21:01.313Z</time>
      </trkpt>
      <trkpt lat="43.02373" lon="-7.34684">
        <ele>501.0</ele>
        <time>2022-06-19T14:21:02.305Z</time>
      </trkpt>
      <trkpt lat="43.02373" lon="-7.34684">
        <ele>501.0</ele>
        <time>2022-06-19T14:21:03.310Z</time>
      </trkpt>
      <trkpt lat="43.02367667" lon="-7.34694833">
        <ele>500.0</ele>
        <time>2022-06-19T14:21:04.293Z</time>
      </trkpt>
      <trkpt lat="43.02364833" lon="-7.34699667">
        <ele>500.0</ele>
        <time>2022-06-19T14:21:05.303Z</time>
      </trkpt>
      <trkpt lat="43.02364833" lon="-7.34699667">
        <ele>500.0</ele>
        <time>2022-06-19T14:21:06.294Z</time>
      </trkpt>
      <trkpt lat="43.023605" lon="-7.34709">
        <ele>500.0</ele>
        <time>2022-06-19T14:21:07.323Z</time>
      </trkpt>
      <trkpt lat="43.023605" lon="-7.34709">
        <ele>500.0</ele>
        <time>2022-06-19T14:21:08.330Z</time>
      </trkpt>
      <trkpt lat="43.02359833" lon="-7.34716333">
        <ele>500.0</ele>
        <time>2022-06-19T14:21:09.301Z</time>
      </trkpt>
      <trkpt lat="43.02359833" lon="-7.34716333">
        <ele>500.0</ele>
        <time>2022-06-19T14:21:10.294Z</time>
      </trkpt>
      <trkpt lat="43.02358833" lon="-7.34720833">
        <ele>500.0</ele>
        <time>2022-06-19T14:21:11.329Z</time>
      </trkpt>
      <trkpt lat="43.02358833" lon="-7.34720833">
        <ele>500.0</ele>
        <time>2022-06-19T14:21:12.387Z</time>
      </trkpt>
      <trkpt lat="43.02357833" lon="-7.34723333">
        <ele>500.0</ele>
        <time>2022-06-19T14:21:13.311Z</time>
      </trkpt>
      <trkpt lat="43.023565" lon="-7.34727167">
        <ele>501.0</ele>
        <time>2022-06-19T14:21:14.331Z</time>
      </trkpt>
      <trkpt lat="43.023565" lon="-7.34727167">
        <ele>501.0</ele>
        <time>2022-06-19T14:21:15.331Z</time>
      </trkpt>
      <trkpt lat="43.02354833" lon="-7.34730333">
        <ele>501.0</ele>
        <time>2022-06-19T14:21:16.301Z</time>
      </trkpt>
      <trkpt lat="43.02354833" lon="-7.34730333">
        <ele>501.0</ele>
        <time>2022-06-19T14:21:17.300Z</time>
      </trkpt>
      <trkpt lat="43.02353833" lon="-7.34733167">
        <ele>501.0</ele>
        <time>2022-06-19T14:21:18.319Z</time>
      </trkpt>
      <trkpt lat="43.023535" lon="-7.34735167">
        <ele>501.0</ele>
        <time>2022-06-19T14:21:19.317Z</time>
      </trkpt>
      <trkpt lat="43.023535" lon="-7.34735167">
        <ele>501.0</ele>
        <time>2022-06-19T14:21:20.332Z</time>
      </trkpt>
      <trkpt lat="43.023525" lon="-7.34738667">
        <ele>502.0</ele>
        <time>2022-06-19T14:21:21.293Z</time>
      </trkpt>
      <trkpt lat="43.023525" lon="-7.34738667">
        <ele>502.0</ele>
        <time>2022-06-19T14:21:22.321Z</time>
      </trkpt>
      <trkpt lat="43.02350667" lon="-7.34743667">
        <ele>502.0</ele>
        <time>2022-06-19T14:21:23.328Z</time>
      </trkpt>
      <trkpt lat="43.02350667" lon="-7.34743667">
        <ele>502.0</ele>
        <time>2022-06-19T14:21:24.299Z</time>
      </trkpt>
      <trkpt lat="43.023505" lon="-7.347485">
        <ele>503.0</ele>
        <time>2022-06-19T14:21:25.307Z</time>
      </trkpt>
      <trkpt lat="43.023505" lon="-7.347485">
        <ele>503.0</ele>
        <time>2022-06-19T14:21:26.295Z</time>
      </trkpt>
      <trkpt lat="43.02350333" lon="-7.34754167">
        <ele>503.0</ele>
        <time>2022-06-19T14:21:27.294Z</time>
      </trkpt>
      <trkpt lat="43.02350333" lon="-7.34754167">
        <ele>503.0</ele>
        <time>2022-06-19T14:21:28.324Z</time>
      </trkpt>
      <trkpt lat="43.02349167" lon="-7.34758">
        <ele>503.0</ele>
        <time>2022-06-19T14:21:29.308Z</time>
      </trkpt>
      <trkpt lat="43.02349" lon="-7.34760333">
        <ele>503.0</ele>
        <time>2022-06-19T14:21:30.297Z</time>
      </trkpt>
      <trkpt lat="43.02349" lon="-7.34760333">
        <ele>503.0</ele>
        <time>2022-06-19T14:21:31.299Z</time>
      </trkpt>
      <trkpt lat="43.02349333" lon="-7.347645">
        <ele>503.0</ele>
        <time>2022-06-19T14:21:32.314Z</time>
      </trkpt>
      <trkpt lat="43.02349" lon="-7.34766833">
        <ele>503.0</ele>
        <time>2022-06-19T14:21:33.315Z</time>
      </trkpt>
      <trkpt lat="43.02349" lon="-7.34766833">
        <ele>503.0</ele>
        <time>2022-06-19T14:21:34.393Z</time>
      </trkpt>
      <trkpt lat="43.023485" lon="-7.34769833">
        <ele>504.0</ele>
        <time>2022-06-19T14:21:35.310Z</time>
      </trkpt>
      <trkpt lat="43.023475" lon="-7.34779167">
        <ele>504.0</ele>
        <time>2022-06-19T14:21:36.292Z</time>
      </trkpt>
      <trkpt lat="43.023475" lon="-7.34779167">
        <ele>504.0</ele>
        <time>2022-06-19T14:21:37.307Z</time>
      </trkpt>
      <trkpt lat="43.02346333" lon="-7.34787167">
        <ele>505.0</ele>
        <time>2022-06-19T14:21:38.325Z</time>
      </trkpt>
      <trkpt lat="43.02346333" lon="-7.34787167">
        <ele>505.0</ele>
        <time>2022-06-19T14:21:39.324Z</time>
      </trkpt>
      <trkpt lat="43.02345667" lon="-7.34795167">
        <ele>505.0</ele>
        <time>2022-06-19T14:21:40.302Z</time>
      </trkpt>
      <trkpt lat="43.02345667" lon="-7.34795167">
        <ele>505.0</ele>
        <time>2022-06-19T14:21:41.303Z</time>
      </trkpt>
      <trkpt lat="43.02344333" lon="-7.34802167">
        <ele>505.0</ele>
        <time>2022-06-19T14:21:42.319Z</time>
      </trkpt>
      <trkpt lat="43.02344333" lon="-7.34802167">
        <ele>505.0</ele>
        <time>2022-06-19T14:21:43.296Z</time>
      </trkpt>
      <trkpt lat="43.023435" lon="-7.34810667">
        <ele>506.0</ele>
        <time>2022-06-19T14:21:44.310Z</time>
      </trkpt>
      <trkpt lat="43.023435" lon="-7.34810667">
        <ele>506.0</ele>
        <time>2022-06-19T14:21:45.329Z</time>
      </trkpt>
      <trkpt lat="43.02343333" lon="-7.34820333">
        <ele>506.0</ele>
        <time>2022-06-19T14:21:46.309Z</time>
      </trkpt>
      <trkpt lat="43.02343333" lon="-7.34820333">
        <ele>506.0</ele>
        <time>2022-06-19T14:21:47.295Z</time>
      </trkpt>
      <trkpt lat="43.02343" lon="-7.348325">
        <ele>506.0</ele>
        <time>2022-06-19T14:21:48.412Z</time>
      </trkpt>
      <trkpt lat="43.02343" lon="-7.348325">
        <ele>506.0</ele>
        <time>2022-06-19T14:21:49.292Z</time>
      </trkpt>
      <trkpt lat="43.02342167" lon="-7.34847">
        <ele>507.0</ele>
        <time>2022-06-19T14:21:50.319Z</time>
      </trkpt>
      <trkpt lat="43.02342167" lon="-7.34847">
        <ele>507.0</ele>
        <time>2022-06-19T14:21:51.326Z</time>
      </trkpt>
      <trkpt lat="43.02341333" lon="-7.34860833">
        <ele>507.0</ele>
        <time>2022-06-19T14:21:52.297Z</time>
      </trkpt>
      <trkpt lat="43.02341333" lon="-7.34860833">
        <ele>507.0</ele>
        <time>2022-06-19T14:21:53.304Z</time>
      </trkpt>
      <trkpt lat="43.0234" lon="-7.34872667">
        <ele>508.0</ele>
        <time>2022-06-19T14:21:54.316Z</time>
      </trkpt>
      <trkpt lat="43.02337833" lon="-7.34877167">
        <ele>508.0</ele>
        <time>2022-06-19T14:21:55.333Z</time>
      </trkpt>
      <trkpt lat="43.02337833" lon="-7.34877167">
        <ele>508.0</ele>
        <time>2022-06-19T14:21:56.297Z</time>
      </trkpt>
      <trkpt lat="43.02331333" lon="-7.34884667">
        <ele>508.0</ele>
        <time>2022-06-19T14:21:57.319Z</time>
      </trkpt>
      <trkpt lat="43.023275" lon="-7.34888">
        <ele>508.0</ele>
        <time>2022-06-19T14:21:58.315Z</time>
      </trkpt>
      <trkpt lat="43.02324" lon="-7.34890333">
        <ele>509.0</ele>
        <time>2022-06-19T14:21:59.302Z</time>
      </trkpt>
      <trkpt lat="43.02324" lon="-7.34890333">
        <ele>509.0</ele>
        <time>2022-06-19T14:22:00.311Z</time>
      </trkpt>
      <trkpt lat="43.02317833" lon="-7.348955">
        <ele>510.0</ele>
        <time>2022-06-19T14:22:01.325Z</time>
      </trkpt>
      <trkpt lat="43.023145" lon="-7.34897">
        <ele>510.0</ele>
        <time>2022-06-19T14:22:02.317Z</time>
      </trkpt>
      <trkpt lat="43.023145" lon="-7.34897">
        <ele>510.0</ele>
        <time>2022-06-19T14:22:03.314Z</time>
      </trkpt>
      <trkpt lat="43.02307167" lon="-7.34901333">
        <ele>511.0</ele>
        <time>2022-06-19T14:22:04.295Z</time>
      </trkpt>
      <trkpt lat="43.02307167" lon="-7.34901333">
        <ele>511.0</ele>
        <time>2022-06-19T14:22:05.328Z</time>
      </trkpt>
      <trkpt lat="43.02297667" lon="-7.34909833">
        <ele>512.0</ele>
        <time>2022-06-19T14:22:06.301Z</time>
      </trkpt>
      <trkpt lat="43.02293167" lon="-7.34912333">
        <ele>512.0</ele>
        <time>2022-06-19T14:22:07.310Z</time>
      </trkpt>
      <trkpt lat="43.02293167" lon="-7.34912333">
        <ele>512.0</ele>
        <time>2022-06-19T14:22:08.301Z</time>
      </trkpt>
      <trkpt lat="43.02293167" lon="-7.34912333">
        <ele>512.0</ele>
        <time>2022-06-19T14:22:09.399Z</time>
      </trkpt>
      <trkpt lat="43.02284333" lon="-7.34915833">
        <ele>513.0</ele>
        <time>2022-06-19T14:22:10.318Z</time>
      </trkpt>
      <trkpt lat="43.02273833" lon="-7.34919167">
        <ele>514.0</ele>
        <time>2022-06-19T14:22:11.301Z</time>
      </trkpt>
      <trkpt lat="43.02273833" lon="-7.34919167">
        <ele>514.0</ele>
        <time>2022-06-19T14:22:12.306Z</time>
      </trkpt>
      <trkpt lat="43.022645" lon="-7.34924167">
        <ele>515.0</ele>
        <time>2022-06-19T14:22:13.296Z</time>
      </trkpt>
      <trkpt lat="43.022645" lon="-7.34924167">
        <ele>515.0</ele>
        <time>2022-06-19T14:22:14.319Z</time>
      </trkpt>
      <trkpt lat="43.02256667" lon="-7.34934833">
        <ele>515.0</ele>
        <time>2022-06-19T14:22:15.332Z</time>
      </trkpt>
      <trkpt lat="43.02256667" lon="-7.34934833">
        <ele>515.0</ele>
        <time>2022-06-19T14:22:16.308Z</time>
      </trkpt>
      <trkpt lat="43.02250833" lon="-7.34946667">
        <ele>515.0</ele>
        <time>2022-06-19T14:22:17.322Z</time>
      </trkpt>
      <trkpt lat="43.02250833" lon="-7.34946667">
        <ele>515.0</ele>
        <time>2022-06-19T14:22:18.304Z</time>
      </trkpt>
      <trkpt lat="43.02246833" lon="-7.34958167">
        <ele>515.0</ele>
        <time>2022-06-19T14:22:19.317Z</time>
      </trkpt>
      <trkpt lat="43.02246833" lon="-7.34958167">
        <ele>515.0</ele>
        <time>2022-06-19T14:22:20.329Z</time>
      </trkpt>
      <trkpt lat="43.02241667" lon="-7.349695">
        <ele>515.0</ele>
        <time>2022-06-19T14:22:21.316Z</time>
      </trkpt>
      <trkpt lat="43.02241667" lon="-7.349695">
        <ele>515.0</ele>
        <time>2022-06-19T14:22:22.297Z</time>
      </trkpt>
      <trkpt lat="43.02237333" lon="-7.3498">
        <ele>515.0</ele>
        <time>2022-06-19T14:22:23.320Z</time>
      </trkpt>
      <trkpt lat="43.02237333" lon="-7.3498">
        <ele>515.0</ele>
        <time>2022-06-19T14:22:24.324Z</time>
      </trkpt>
      <trkpt lat="43.02233667" lon="-7.34990167">
        <ele>515.0</ele>
        <time>2022-06-19T14:22:25.298Z</time>
      </trkpt>
      <trkpt lat="43.02231833" lon="-7.34995333">
        <ele>515.0</ele>
        <time>2022-06-19T14:22:26.299Z</time>
      </trkpt>
      <trkpt lat="43.02231833" lon="-7.34995333">
        <ele>515.0</ele>
        <time>2022-06-19T14:22:27.318Z</time>
      </trkpt>
      <trkpt lat="43.02227667" lon="-7.35006333">
        <ele>515.0</ele>
        <time>2022-06-19T14:22:28.334Z</time>
      </trkpt>
      <trkpt lat="43.02225833" lon="-7.35011833">
        <ele>515.0</ele>
        <time>2022-06-19T14:22:29.329Z</time>
      </trkpt>
      <trkpt lat="43.02225833" lon="-7.35011833">
        <ele>515.0</ele>
        <time>2022-06-19T14:22:30.299Z</time>
      </trkpt>
      <trkpt lat="43.02222167" lon="-7.35022333">
        <ele>514.0</ele>
        <time>2022-06-19T14:22:31.313Z</time>
      </trkpt>
      <trkpt lat="43.02222167" lon="-7.35022333">
        <ele>514.0</ele>
        <time>2022-06-19T14:22:32.307Z</time>
      </trkpt>
      <trkpt lat="43.02217833" lon="-7.35032833">
        <ele>514.0</ele>
        <time>2022-06-19T14:22:33.392Z</time>
      </trkpt>
      <trkpt lat="43.02217833" lon="-7.35032833">
        <ele>514.0</ele>
        <time>2022-06-19T14:22:34.308Z</time>
      </trkpt>
      <trkpt lat="43.02212333" lon="-7.350435">
        <ele>514.0</ele>
        <time>2022-06-19T14:22:35.330Z</time>
      </trkpt>
      <trkpt lat="43.022095" lon="-7.35048667">
        <ele>514.0</ele>
        <time>2022-06-19T14:22:36.329Z</time>
      </trkpt>
      <trkpt lat="43.022095" lon="-7.35048667">
        <ele>514.0</ele>
        <time>2022-06-19T14:22:37.307Z</time>
      </trkpt>
      <trkpt lat="43.022035" lon="-7.35059833">
        <ele>514.0</ele>
        <time>2022-06-19T14:22:38.541Z</time>
      </trkpt>
      <trkpt lat="43.022035" lon="-7.35059833">
        <ele>514.0</ele>
        <time>2022-06-19T14:22:39.300Z</time>
      </trkpt>
      <trkpt lat="43.02197667" lon="-7.35069">
        <ele>514.0</ele>
        <time>2022-06-19T14:22:40.327Z</time>
      </trkpt>
      <trkpt lat="43.02197667" lon="-7.35069">
        <ele>514.0</ele>
        <time>2022-06-19T14:22:41.298Z</time>
      </trkpt>
      <trkpt lat="43.02190167" lon="-7.35081167">
        <ele>514.0</ele>
        <time>2022-06-19T14:22:42.334Z</time>
      </trkpt>
      <trkpt lat="43.02186333" lon="-7.35088">
        <ele>514.0</ele>
        <time>2022-06-19T14:22:43.300Z</time>
      </trkpt>
      <trkpt lat="43.02186333" lon="-7.35088">
        <ele>514.0</ele>
        <time>2022-06-19T14:22:44.325Z</time>
      </trkpt>
      <trkpt lat="43.0218" lon="-7.35100333">
        <ele>514.0</ele>
        <time>2022-06-19T14:22:45.333Z</time>
      </trkpt>
      <trkpt lat="43.02177167" lon="-7.35105667">
        <ele>514.0</ele>
        <time>2022-06-19T14:22:46.324Z</time>
      </trkpt>
      <trkpt lat="43.02174" lon="-7.35111">
        <ele>514.0</ele>
        <time>2022-06-19T14:22:47.293Z</time>
      </trkpt>
      <trkpt lat="43.02174" lon="-7.35111">
        <ele>514.0</ele>
        <time>2022-06-19T14:22:48.331Z</time>
      </trkpt>
      <trkpt lat="43.02167167" lon="-7.351215">
        <ele>514.0</ele>
        <time>2022-06-19T14:22:49.321Z</time>
      </trkpt>
      <trkpt lat="43.02167167" lon="-7.351215">
        <ele>514.0</ele>
        <time>2022-06-19T14:22:50.300Z</time>
      </trkpt>
      <trkpt lat="43.02160333" lon="-7.35134167">
        <ele>513.0</ele>
        <time>2022-06-19T14:22:51.309Z</time>
      </trkpt>
      <trkpt lat="43.02160333" lon="-7.35134167">
        <ele>513.0</ele>
        <time>2022-06-19T14:22:52.307Z</time>
      </trkpt>
      <trkpt lat="43.021515" lon="-7.35150333">
        <ele>512.0</ele>
        <time>2022-06-19T14:22:53.540Z</time>
      </trkpt>
      <trkpt lat="43.021515" lon="-7.35150333">
        <ele>512.0</ele>
        <time>2022-06-19T14:22:54.330Z</time>
      </trkpt>
      <trkpt lat="43.02144" lon="-7.35165167">
        <ele>512.0</ele>
        <time>2022-06-19T14:22:55.301Z</time>
      </trkpt>
      <trkpt lat="43.02144" lon="-7.35165167">
        <ele>512.0</ele>
        <time>2022-06-19T14:22:56.303Z</time>
      </trkpt>
      <trkpt lat="43.02138667" lon="-7.35179833">
        <ele>510.0</ele>
        <time>2022-06-19T14:22:57.319Z</time>
      </trkpt>
      <trkpt lat="43.02138667" lon="-7.35179833">
        <ele>510.0</ele>
        <time>2022-06-19T14:22:58.325Z</time>
      </trkpt>
      <trkpt lat="43.02134" lon="-7.351925">
        <ele>509.0</ele>
        <time>2022-06-19T14:22:59.307Z</time>
      </trkpt>
      <trkpt lat="43.02131333" lon="-7.35198667">
        <ele>509.0</ele>
        <time>2022-06-19T14:23:00.306Z</time>
      </trkpt>
      <trkpt lat="43.02131333" lon="-7.35198667">
        <ele>509.0</ele>
        <time>2022-06-19T14:23:01.321Z</time>
      </trkpt>
      <trkpt lat="43.021265" lon="-7.35208667">
        <ele>509.0</ele>
        <time>2022-06-19T14:23:02.296Z</time>
      </trkpt>
      <trkpt lat="43.02123833" lon="-7.35213167">
        <ele>509.0</ele>
        <time>2022-06-19T14:23:03.301Z</time>
      </trkpt>
      <trkpt lat="43.02123833" lon="-7.35213167">
        <ele>509.0</ele>
        <time>2022-06-19T14:23:04.324Z</time>
      </trkpt>
      <trkpt lat="43.02118167" lon="-7.35222833">
        <ele>508.0</ele>
        <time>2022-06-19T14:23:05.293Z</time>
      </trkpt>
      <trkpt lat="43.02118167" lon="-7.35222833">
        <ele>508.0</ele>
        <time>2022-06-19T14:23:06.298Z</time>
      </trkpt>
      <trkpt lat="43.02107833" lon="-7.35229333">
        <ele>508.0</ele>
        <time>2022-06-19T14:23:07.324Z</time>
      </trkpt>
      <trkpt lat="43.02107833" lon="-7.35229333">
        <ele>508.0</ele>
        <time>2022-06-19T14:23:08.309Z</time>
      </trkpt>
      <trkpt lat="43.020965" lon="-7.35237">
        <ele>507.0</ele>
        <time>2022-06-19T14:23:09.392Z</time>
      </trkpt>
      <trkpt lat="43.020965" lon="-7.35237">
        <ele>507.0</ele>
        <time>2022-06-19T14:23:10.330Z</time>
      </trkpt>
      <trkpt lat="43.02093" lon="-7.352455">
        <ele>506.0</ele>
        <time>2022-06-19T14:23:11.303Z</time>
      </trkpt>
      <trkpt lat="43.02093" lon="-7.352455">
        <ele>506.0</ele>
        <time>2022-06-19T14:23:12.311Z</time>
      </trkpt>
      <trkpt lat="43.02093667" lon="-7.35254333">
        <ele>506.0</ele>
        <time>2022-06-19T14:23:13.322Z</time>
      </trkpt>
      <trkpt lat="43.02093667" lon="-7.35254333">
        <ele>506.0</ele>
        <time>2022-06-19T14:23:14.324Z</time>
      </trkpt>
      <trkpt lat="43.02094667" lon="-7.35262">
        <ele>506.0</ele>
        <time>2022-06-19T14:23:15.296Z</time>
      </trkpt>
      <trkpt lat="43.020945" lon="-7.35265333">
        <ele>505.0</ele>
        <time>2022-06-19T14:23:16.306Z</time>
      </trkpt>
      <trkpt lat="43.020945" lon="-7.35265333">
        <ele>505.0</ele>
        <time>2022-06-19T14:23:17.299Z</time>
      </trkpt>
      <trkpt lat="43.020935" lon="-7.35271833">
        <ele>505.0</ele>
        <time>2022-06-19T14:23:18.326Z</time>
      </trkpt>
      <trkpt lat="43.02092667" lon="-7.35275">
        <ele>505.0</ele>
        <time>2022-06-19T14:23:19.311Z</time>
      </trkpt>
      <trkpt lat="43.02092667" lon="-7.35275">
        <ele>505.0</ele>
        <time>2022-06-19T14:23:20.321Z</time>
      </trkpt>
      <trkpt lat="43.02091333" lon="-7.352815">
        <ele>504.0</ele>
        <time>2022-06-19T14:23:21.296Z</time>
      </trkpt>
      <trkpt lat="43.02090333" lon="-7.35284">
        <ele>504.0</ele>
        <time>2022-06-19T14:23:22.321Z</time>
      </trkpt>
      <trkpt lat="43.02089" lon="-7.35286833">
        <ele>504.0</ele>
        <time>2022-06-19T14:23:23.319Z</time>
      </trkpt>
      <trkpt lat="43.02089" lon="-7.35286833">
        <ele>504.0</ele>
        <time>2022-06-19T14:23:24.328Z</time>
      </trkpt>
      <trkpt lat="43.02087333" lon="-7.35292167">
        <ele>504.0</ele>
        <time>2022-06-19T14:23:25.309Z</time>
      </trkpt>
      <trkpt lat="43.02087333" lon="-7.35292167">
        <ele>504.0</ele>
        <time>2022-06-19T14:23:26.311Z</time>
      </trkpt>
      <trkpt lat="43.02087333" lon="-7.35292167">
        <ele>504.0</ele>
        <time>2022-06-19T14:23:27.399Z</time>
      </trkpt>
      <trkpt lat="43.020855" lon="-7.35297667">
        <ele>504.0</ele>
        <time>2022-06-19T14:23:28.325Z</time>
      </trkpt>
      <trkpt lat="43.02084167" lon="-7.35302167">
        <ele>504.0</ele>
        <time>2022-06-19T14:23:29.306Z</time>
      </trkpt>
      <trkpt lat="43.02084167" lon="-7.35302167">
        <ele>504.0</ele>
        <time>2022-06-19T14:23:30.294Z</time>
      </trkpt>
      <trkpt lat="43.02083" lon="-7.35306667">
        <ele>504.0</ele>
        <time>2022-06-19T14:23:31.296Z</time>
      </trkpt>
      <trkpt lat="43.02083" lon="-7.35306667">
        <ele>504.0</ele>
        <time>2022-06-19T14:23:32.326Z</time>
      </trkpt>
      <trkpt lat="43.020815" lon="-7.35311333">
        <ele>504.0</ele>
        <time>2022-06-19T14:23:33.298Z</time>
      </trkpt>
      <trkpt lat="43.020815" lon="-7.35311333">
        <ele>504.0</ele>
        <time>2022-06-19T14:23:34.311Z</time>
      </trkpt>
      <trkpt lat="43.02079667" lon="-7.35316333">
        <ele>504.0</ele>
        <time>2022-06-19T14:23:35.326Z</time>
      </trkpt>
      <trkpt lat="43.02079667" lon="-7.35316333">
        <ele>504.0</ele>
        <time>2022-06-19T14:23:36.302Z</time>
      </trkpt>
      <trkpt lat="43.020775" lon="-7.35321667">
        <ele>504.0</ele>
        <time>2022-06-19T14:23:37.331Z</time>
      </trkpt>
      <trkpt lat="43.020775" lon="-7.35321667">
        <ele>504.0</ele>
        <time>2022-06-19T14:23:38.323Z</time>
      </trkpt>
      <trkpt lat="43.02076" lon="-7.35327333">
        <ele>504.0</ele>
        <time>2022-06-19T14:23:39.296Z</time>
      </trkpt>
      <trkpt lat="43.02075333" lon="-7.353305">
        <ele>504.0</ele>
        <time>2022-06-19T14:23:40.306Z</time>
      </trkpt>
      <trkpt lat="43.02075333" lon="-7.353305">
        <ele>504.0</ele>
        <time>2022-06-19T14:23:41.325Z</time>
      </trkpt>
      <trkpt lat="43.020745" lon="-7.35336167">
        <ele>504.0</ele>
        <time>2022-06-19T14:23:42.299Z</time>
      </trkpt>
      <trkpt lat="43.020735" lon="-7.353385">
        <ele>504.0</ele>
        <time>2022-06-19T14:23:43.299Z</time>
      </trkpt>
      <trkpt lat="43.020735" lon="-7.353385">
        <ele>504.0</ele>
        <time>2022-06-19T14:23:44.327Z</time>
      </trkpt>
      <trkpt lat="43.020735" lon="-7.353385">
        <ele>504.0</ele>
        <time>2022-06-19T14:23:45.382Z</time>
      </trkpt>
      <trkpt lat="43.02072" lon="-7.35344">
        <ele>504.0</ele>
        <time>2022-06-19T14:23:46.308Z</time>
      </trkpt>
      <trkpt lat="43.02070167" lon="-7.35349833">
        <ele>504.0</ele>
        <time>2022-06-19T14:23:47.330Z</time>
      </trkpt>
      <trkpt lat="43.02069667" lon="-7.353525">
        <ele>505.0</ele>
        <time>2022-06-19T14:23:48.308Z</time>
      </trkpt>
      <trkpt lat="43.02069667" lon="-7.353525">
        <ele>505.0</ele>
        <time>2022-06-19T14:23:49.297Z</time>
      </trkpt>
      <trkpt lat="43.020685" lon="-7.35357667">
        <ele>505.0</ele>
        <time>2022-06-19T14:23:50.320Z</time>
      </trkpt>
      <trkpt lat="43.020685" lon="-7.35357667">
        <ele>505.0</ele>
        <time>2022-06-19T14:23:51.308Z</time>
      </trkpt>
      <trkpt lat="43.02066833" lon="-7.35362167">
        <ele>505.0</ele>
        <time>2022-06-19T14:23:52.328Z</time>
      </trkpt>
      <trkpt lat="43.02066167" lon="-7.35364667">
        <ele>505.0</ele>
        <time>2022-06-19T14:23:53.308Z</time>
      </trkpt>
      <trkpt lat="43.02066167" lon="-7.35364667">
        <ele>505.0</ele>
        <time>2022-06-19T14:23:54.326Z</time>
      </trkpt>
      <trkpt lat="43.02065333" lon="-7.3537">
        <ele>505.0</ele>
        <time>2022-06-19T14:23:55.297Z</time>
      </trkpt>
      <trkpt lat="43.02064833" lon="-7.35372667">
        <ele>506.0</ele>
        <time>2022-06-19T14:23:56.322Z</time>
      </trkpt>
      <trkpt lat="43.02064833" lon="-7.35372667">
        <ele>506.0</ele>
        <time>2022-06-19T14:23:57.319Z</time>
      </trkpt>
      <trkpt lat="43.02064" lon="-7.35378667">
        <ele>506.0</ele>
        <time>2022-06-19T14:23:58.332Z</time>
      </trkpt>
      <trkpt lat="43.02063333" lon="-7.35381667">
        <ele>506.0</ele>
        <time>2022-06-19T14:23:59.306Z</time>
      </trkpt>
      <trkpt lat="43.02063333" lon="-7.35381667">
        <ele>506.0</ele>
        <time>2022-06-19T14:24:00.321Z</time>
      </trkpt>
      <trkpt lat="43.02062333" lon="-7.35387333">
        <ele>507.0</ele>
        <time>2022-06-19T14:24:01.296Z</time>
      </trkpt>
      <trkpt lat="43.02062333" lon="-7.35387333">
        <ele>507.0</ele>
        <time>2022-06-19T14:24:02.305Z</time>
      </trkpt>
      <trkpt lat="43.02062333" lon="-7.35387333">
        <ele>507.0</ele>
        <time>2022-06-19T14:24:03.395Z</time>
      </trkpt>
      <trkpt lat="43.02061833" lon="-7.35393333">
        <ele>507.0</ele>
        <time>2022-06-19T14:24:04.330Z</time>
      </trkpt>
      <trkpt lat="43.02061167" lon="-7.35399">
        <ele>507.0</ele>
        <time>2022-06-19T14:24:05.306Z</time>
      </trkpt>
      <trkpt lat="43.02061167" lon="-7.35399">
        <ele>507.0</ele>
        <time>2022-06-19T14:24:06.304Z</time>
      </trkpt>
      <trkpt lat="43.02060667" lon="-7.35405167">
        <ele>508.0</ele>
        <time>2022-06-19T14:24:07.319Z</time>
      </trkpt>
      <trkpt lat="43.02060667" lon="-7.35405167">
        <ele>508.0</ele>
        <time>2022-06-19T14:24:08.311Z</time>
      </trkpt>
      <trkpt lat="43.02060167" lon="-7.35412">
        <ele>508.0</ele>
        <time>2022-06-19T14:24:09.327Z</time>
      </trkpt>
      <trkpt lat="43.02060167" lon="-7.35412">
        <ele>508.0</ele>
        <time>2022-06-19T14:24:10.322Z</time>
      </trkpt>
      <trkpt lat="43.02060167" lon="-7.35420833">
        <ele>509.0</ele>
        <time>2022-06-19T14:24:11.300Z</time>
      </trkpt>
      <trkpt lat="43.0206" lon="-7.354245">
        <ele>509.0</ele>
        <time>2022-06-19T14:24:12.303Z</time>
      </trkpt>
      <trkpt lat="43.0206" lon="-7.354245">
        <ele>509.0</ele>
        <time>2022-06-19T14:24:13.326Z</time>
      </trkpt>
      <trkpt lat="43.020605" lon="-7.354325">
        <ele>510.0</ele>
        <time>2022-06-19T14:24:14.322Z</time>
      </trkpt>
      <trkpt lat="43.020605" lon="-7.354325">
        <ele>510.0</ele>
        <time>2022-06-19T14:24:15.325Z</time>
      </trkpt>
      <trkpt lat="43.02060833" lon="-7.35439667">
        <ele>510.0</ele>
        <time>2022-06-19T14:24:16.294Z</time>
      </trkpt>
      <trkpt lat="43.02060667" lon="-7.35443">
        <ele>511.0</ele>
        <time>2022-06-19T14:24:17.331Z</time>
      </trkpt>
      <trkpt lat="43.02060667" lon="-7.35443">
        <ele>511.0</ele>
        <time>2022-06-19T14:24:18.325Z</time>
      </trkpt>
      <trkpt lat="43.02060667" lon="-7.35449667">
        <ele>511.0</ele>
        <time>2022-06-19T14:24:19.314Z</time>
      </trkpt>
      <trkpt lat="43.02060333" lon="-7.35452167">
        <ele>511.0</ele>
        <time>2022-06-19T14:24:20.406Z</time>
      </trkpt>
      <trkpt lat="43.02060333" lon="-7.35452167">
        <ele>511.0</ele>
        <time>2022-06-19T14:24:21.325Z</time>
      </trkpt>
      <trkpt lat="43.02059167" lon="-7.35460333">
        <ele>511.0</ele>
        <time>2022-06-19T14:24:22.301Z</time>
      </trkpt>
      <trkpt lat="43.02059167" lon="-7.35460333">
        <ele>511.0</ele>
        <time>2022-06-19T14:24:23.292Z</time>
      </trkpt>
      <trkpt lat="43.02057667" lon="-7.3547">
        <ele>512.0</ele>
        <time>2022-06-19T14:24:24.305Z</time>
      </trkpt>
      <trkpt lat="43.02057667" lon="-7.35475833">
        <ele>512.0</ele>
        <time>2022-06-19T14:24:25.319Z</time>
      </trkpt>
      <trkpt lat="43.02057667" lon="-7.35475833">
        <ele>512.0</ele>
        <time>2022-06-19T14:24:26.309Z</time>
      </trkpt>
      <trkpt lat="43.02061833" lon="-7.35488833">
        <ele>512.0</ele>
        <time>2022-06-19T14:24:27.325Z</time>
      </trkpt>
      <trkpt lat="43.02063833" lon="-7.35495667">
        <ele>512.0</ele>
        <time>2022-06-19T14:24:28.294Z</time>
      </trkpt>
      <trkpt lat="43.02063833" lon="-7.35495667">
        <ele>512.0</ele>
        <time>2022-06-19T14:24:29.311Z</time>
      </trkpt>
      <trkpt lat="43.02063167" lon="-7.35508333">
        <ele>512.0</ele>
        <time>2022-06-19T14:24:30.293Z</time>
      </trkpt>
      <trkpt lat="43.02063167" lon="-7.35508333">
        <ele>512.0</ele>
        <time>2022-06-19T14:24:31.303Z</time>
      </trkpt>
      <trkpt lat="43.02057667" lon="-7.35522667">
        <ele>512.0</ele>
        <time>2022-06-19T14:24:32.323Z</time>
      </trkpt>
      <trkpt lat="43.02057667" lon="-7.35522667">
        <ele>512.0</ele>
        <time>2022-06-19T14:24:33.312Z</time>
      </trkpt>
      <trkpt lat="43.02049833" lon="-7.35535833">
        <ele>511.0</ele>
        <time>2022-06-19T14:24:34.298Z</time>
      </trkpt>
      <trkpt lat="43.02044667" lon="-7.35543">
        <ele>511.0</ele>
        <time>2022-06-19T14:24:35.304Z</time>
      </trkpt>
      <trkpt lat="43.02041" lon="-7.35550667">
        <ele>511.0</ele>
        <time>2022-06-19T14:24:36.295Z</time>
      </trkpt>
      <trkpt lat="43.02041" lon="-7.35550667">
        <ele>511.0</ele>
        <time>2022-06-19T14:24:37.489Z</time>
      </trkpt>
      <trkpt lat="43.02035667" lon="-7.35569333">
        <ele>511.0</ele>
        <time>2022-06-19T14:24:38.589Z</time>
      </trkpt>
      <trkpt lat="43.02034833" lon="-7.35578167">
        <ele>511.0</ele>
        <time>2022-06-19T14:24:39.300Z</time>
      </trkpt>
      <trkpt lat="43.02034833" lon="-7.35578167">
        <ele>511.0</ele>
        <time>2022-06-19T14:24:40.320Z</time>
      </trkpt>
      <trkpt lat="43.02035333" lon="-7.35601167">
        <ele>511.0</ele>
        <time>2022-06-19T14:24:41.293Z</time>
      </trkpt>
      <trkpt lat="43.02035333" lon="-7.35601167">
        <ele>511.0</ele>
        <time>2022-06-19T14:24:42.306Z</time>
      </trkpt>
      <trkpt lat="43.02037" lon="-7.35618167">
        <ele>511.0</ele>
        <time>2022-06-19T14:24:43.327Z</time>
      </trkpt>
      <trkpt lat="43.02037" lon="-7.35618167">
        <ele>511.0</ele>
        <time>2022-06-19T14:24:44.297Z</time>
      </trkpt>
      <trkpt lat="43.02036833" lon="-7.35629667">
        <ele>511.0</ele>
        <time>2022-06-19T14:24:45.325Z</time>
      </trkpt>
      <trkpt lat="43.02036833" lon="-7.35629667">
        <ele>511.0</ele>
        <time>2022-06-19T14:24:46.298Z</time>
      </trkpt>
      <trkpt lat="43.020365" lon="-7.35638333">
        <ele>511.0</ele>
        <time>2022-06-19T14:24:47.312Z</time>
      </trkpt>
      <trkpt lat="43.020365" lon="-7.35638333">
        <ele>511.0</ele>
        <time>2022-06-19T14:24:48.316Z</time>
      </trkpt>
      <trkpt lat="43.020375" lon="-7.35648">
        <ele>510.0</ele>
        <time>2022-06-19T14:24:49.308Z</time>
      </trkpt>
      <trkpt lat="43.020375" lon="-7.35648">
        <ele>510.0</ele>
        <time>2022-06-19T14:24:50.296Z</time>
      </trkpt>
      <trkpt lat="43.02037833" lon="-7.35658333">
        <ele>510.0</ele>
        <time>2022-06-19T14:24:51.318Z</time>
      </trkpt>
      <trkpt lat="43.02038667" lon="-7.35663667">
        <ele>509.0</ele>
        <time>2022-06-19T14:24:52.296Z</time>
      </trkpt>
      <trkpt lat="43.02038667" lon="-7.35663667">
        <ele>509.0</ele>
        <time>2022-06-19T14:24:53.324Z</time>
      </trkpt>
      <trkpt lat="43.020395" lon="-7.35671667">
        <ele>509.0</ele>
        <time>2022-06-19T14:24:54.298Z</time>
      </trkpt>
      <trkpt lat="43.02040167" lon="-7.35675167">
        <ele>509.0</ele>
        <time>2022-06-19T14:24:55.313Z</time>
      </trkpt>
      <trkpt lat="43.02040167" lon="-7.35675167">
        <ele>509.0</ele>
        <time>2022-06-19T14:24:56.299Z</time>
      </trkpt>
      <trkpt lat="43.02041333" lon="-7.35682667">
        <ele>508.0</ele>
        <time>2022-06-19T14:24:57.319Z</time>
      </trkpt>
      <trkpt lat="43.02041333" lon="-7.35682667">
        <ele>508.0</ele>
        <time>2022-06-19T14:24:58.330Z</time>
      </trkpt>
      <trkpt lat="43.02042167" lon="-7.356905">
        <ele>508.0</ele>
        <time>2022-06-19T14:24:59.417Z</time>
      </trkpt>
      <trkpt lat="43.02042167" lon="-7.356905">
        <ele>508.0</ele>
        <time>2022-06-19T14:25:00.298Z</time>
      </trkpt>
      <trkpt lat="43.02042833" lon="-7.35698">
        <ele>507.0</ele>
        <time>2022-06-19T14:25:01.318Z</time>
      </trkpt>
      <trkpt lat="43.02042833" lon="-7.35698">
        <ele>507.0</ele>
        <time>2022-06-19T14:25:02.327Z</time>
      </trkpt>
      <trkpt lat="43.02043667" lon="-7.35705833">
        <ele>507.0</ele>
        <time>2022-06-19T14:25:03.295Z</time>
      </trkpt>
      <trkpt lat="43.020435" lon="-7.35709667">
        <ele>507.0</ele>
        <time>2022-06-19T14:25:04.318Z</time>
      </trkpt>
      <trkpt lat="43.02043167" lon="-7.35713333">
        <ele>507.0</ele>
        <time>2022-06-19T14:25:05.298Z</time>
      </trkpt>
      <trkpt lat="43.02043167" lon="-7.35713333">
        <ele>507.0</ele>
        <time>2022-06-19T14:25:06.298Z</time>
      </trkpt>
      <trkpt lat="43.02042333" lon="-7.35720167">
        <ele>507.0</ele>
        <time>2022-06-19T14:25:07.314Z</time>
      </trkpt>
      <trkpt lat="43.02042333" lon="-7.35720167">
        <ele>507.0</ele>
        <time>2022-06-19T14:25:08.310Z</time>
      </trkpt>
      <trkpt lat="43.02040667" lon="-7.35727333">
        <ele>506.0</ele>
        <time>2022-06-19T14:25:09.322Z</time>
      </trkpt>
      <trkpt lat="43.0204" lon="-7.35730833">
        <ele>506.0</ele>
        <time>2022-06-19T14:25:10.316Z</time>
      </trkpt>
      <trkpt lat="43.0204" lon="-7.35730833">
        <ele>506.0</ele>
        <time>2022-06-19T14:25:11.307Z</time>
      </trkpt>
      <trkpt lat="43.02039833" lon="-7.35738167">
        <ele>506.0</ele>
        <time>2022-06-19T14:25:12.298Z</time>
      </trkpt>
      <trkpt lat="43.02039833" lon="-7.35738167">
        <ele>506.0</ele>
        <time>2022-06-19T14:25:13.328Z</time>
      </trkpt>
      <trkpt lat="43.02039" lon="-7.357455">
        <ele>506.0</ele>
        <time>2022-06-19T14:25:14.302Z</time>
      </trkpt>
      <trkpt lat="43.02039" lon="-7.357455">
        <ele>506.0</ele>
        <time>2022-06-19T14:25:15.316Z</time>
      </trkpt>
      <trkpt lat="43.02038167" lon="-7.35752833">
        <ele>505.0</ele>
        <time>2022-06-19T14:25:16.333Z</time>
      </trkpt>
      <trkpt lat="43.02038167" lon="-7.35752833">
        <ele>505.0</ele>
        <time>2022-06-19T14:25:17.310Z</time>
      </trkpt>
      <trkpt lat="43.02037" lon="-7.35760167">
        <ele>505.0</ele>
        <time>2022-06-19T14:25:18.323Z</time>
      </trkpt>
      <trkpt lat="43.02036167" lon="-7.35763833">
        <ele>505.0</ele>
        <time>2022-06-19T14:25:19.308Z</time>
      </trkpt>
      <trkpt lat="43.02036167" lon="-7.35763833">
        <ele>505.0</ele>
        <time>2022-06-19T14:25:20.325Z</time>
      </trkpt>
      <trkpt lat="43.02034" lon="-7.357715">
        <ele>505.0</ele>
        <time>2022-06-19T14:25:21.424Z</time>
      </trkpt>
      <trkpt lat="43.02034" lon="-7.357715">
        <ele>505.0</ele>
        <time>2022-06-19T14:25:22.307Z</time>
      </trkpt>
      <trkpt lat="43.02031667" lon="-7.35777667">
        <ele>505.0</ele>
        <time>2022-06-19T14:25:23.327Z</time>
      </trkpt>
      <trkpt lat="43.02029833" lon="-7.35781333">
        <ele>505.0</ele>
        <time>2022-06-19T14:25:24.294Z</time>
      </trkpt>
      <trkpt lat="43.02029833" lon="-7.35781333">
        <ele>505.0</ele>
        <time>2022-06-19T14:25:25.300Z</time>
      </trkpt>
      <trkpt lat="43.02024833" lon="-7.35788333">
        <ele>505.0</ele>
        <time>2022-06-19T14:25:26.312Z</time>
      </trkpt>
      <trkpt lat="43.02024833" lon="-7.35788333">
        <ele>505.0</ele>
        <time>2022-06-19T14:25:27.298Z</time>
      </trkpt>
      <trkpt lat="43.02020333" lon="-7.357955">
        <ele>505.0</ele>
        <time>2022-06-19T14:25:28.295Z</time>
      </trkpt>
      <trkpt lat="43.02020333" lon="-7.357955">
        <ele>505.0</ele>
        <time>2022-06-19T14:25:29.297Z</time>
      </trkpt>
      <trkpt lat="43.02016667" lon="-7.35804">
        <ele>505.0</ele>
        <time>2022-06-19T14:25:30.308Z</time>
      </trkpt>
      <trkpt lat="43.02014667" lon="-7.3581">
        <ele>505.0</ele>
        <time>2022-06-19T14:25:31.313Z</time>
      </trkpt>
      <trkpt lat="43.02013167" lon="-7.35816167">
        <ele>505.0</ele>
        <time>2022-06-19T14:25:32.320Z</time>
      </trkpt>
      <trkpt lat="43.02013167" lon="-7.35816167">
        <ele>505.0</ele>
        <time>2022-06-19T14:25:33.296Z</time>
      </trkpt>
      <trkpt lat="43.020095" lon="-7.358295">
        <ele>505.0</ele>
        <time>2022-06-19T14:25:34.317Z</time>
      </trkpt>
      <trkpt lat="43.02007833" lon="-7.35836667">
        <ele>504.0</ele>
        <time>2022-06-19T14:25:35.293Z</time>
      </trkpt>
      <trkpt lat="43.02007833" lon="-7.35836667">
        <ele>504.0</ele>
        <time>2022-06-19T14:25:36.322Z</time>
      </trkpt>
      <trkpt lat="43.02004667" lon="-7.358515">
        <ele>504.0</ele>
        <time>2022-06-19T14:25:37.316Z</time>
      </trkpt>
      <trkpt lat="43.02004667" lon="-7.358515">
        <ele>504.0</ele>
        <time>2022-06-19T14:25:38.328Z</time>
      </trkpt>
      <trkpt lat="43.020015" lon="-7.358665">
        <ele>503.0</ele>
        <time>2022-06-19T14:25:39.303Z</time>
      </trkpt>
      <trkpt lat="43.020015" lon="-7.358665">
        <ele>503.0</ele>
        <time>2022-06-19T14:25:40.330Z</time>
      </trkpt>
      <trkpt lat="43.01999333" lon="-7.35881">
        <ele>503.0</ele>
        <time>2022-06-19T14:25:41.304Z</time>
      </trkpt>
      <trkpt lat="43.01998667" lon="-7.358875">
        <ele>503.0</ele>
        <time>2022-06-19T14:25:42.296Z</time>
      </trkpt>
      <trkpt lat="43.01999" lon="-7.35893667">
        <ele>502.0</ele>
        <time>2022-06-19T14:25:43.328Z</time>
      </trkpt>
      <trkpt lat="43.01999" lon="-7.35893667">
        <ele>502.0</ele>
        <time>2022-06-19T14:25:44.330Z</time>
      </trkpt>
      <trkpt lat="43.01997333" lon="-7.359065">
        <ele>502.0</ele>
        <time>2022-06-19T14:25:45.306Z</time>
      </trkpt>
      <trkpt lat="43.01996167" lon="-7.35913667">
        <ele>502.0</ele>
        <time>2022-06-19T14:25:46.317Z</time>
      </trkpt>
      <trkpt lat="43.01996167" lon="-7.35913667">
        <ele>502.0</ele>
        <time>2022-06-19T14:25:47.301Z</time>
      </trkpt>
      <trkpt lat="43.01996167" lon="-7.35913667">
        <ele>502.0</ele>
        <time>2022-06-19T14:25:48.401Z</time>
      </trkpt>
      <trkpt lat="43.01993833" lon="-7.359245">
        <ele>502.0</ele>
        <time>2022-06-19T14:25:49.330Z</time>
      </trkpt>
      <trkpt lat="43.019915" lon="-7.35933167">
        <ele>502.0</ele>
        <time>2022-06-19T14:25:50.301Z</time>
      </trkpt>
      <trkpt lat="43.019915" lon="-7.35933167">
        <ele>502.0</ele>
        <time>2022-06-19T14:25:51.328Z</time>
      </trkpt>
      <trkpt lat="43.01985667" lon="-7.35943">
        <ele>501.0</ele>
        <time>2022-06-19T14:25:52.301Z</time>
      </trkpt>
      <trkpt lat="43.01985667" lon="-7.35943">
        <ele>501.0</ele>
        <time>2022-06-19T14:25:53.326Z</time>
      </trkpt>
      <trkpt lat="43.01979667" lon="-7.35952333">
        <ele>501.0</ele>
        <time>2022-06-19T14:25:54.313Z</time>
      </trkpt>
      <trkpt lat="43.019765" lon="-7.35956833">
        <ele>501.0</ele>
        <time>2022-06-19T14:25:55.322Z</time>
      </trkpt>
      <trkpt lat="43.019765" lon="-7.35956833">
        <ele>501.0</ele>
        <time>2022-06-19T14:25:56.313Z</time>
      </trkpt>
      <trkpt lat="43.01971333" lon="-7.35965167">
        <ele>501.0</ele>
        <time>2022-06-19T14:25:57.325Z</time>
      </trkpt>
      <trkpt lat="43.01971333" lon="-7.35965167">
        <ele>501.0</ele>
        <time>2022-06-19T14:25:58.331Z</time>
      </trkpt>
      <trkpt lat="43.01966667" lon="-7.35973333">
        <ele>502.0</ele>
        <time>2022-06-19T14:25:59.305Z</time>
      </trkpt>
      <trkpt lat="43.01966667" lon="-7.35973333">
        <ele>502.0</ele>
        <time>2022-06-19T14:26:00.326Z</time>
      </trkpt>
      <trkpt lat="43.019625" lon="-7.35980833">
        <ele>502.0</ele>
        <time>2022-06-19T14:26:01.297Z</time>
      </trkpt>
      <trkpt lat="43.019625" lon="-7.35980833">
        <ele>502.0</ele>
        <time>2022-06-19T14:26:02.326Z</time>
      </trkpt>
      <trkpt lat="43.019585" lon="-7.359885">
        <ele>502.0</ele>
        <time>2022-06-19T14:26:03.299Z</time>
      </trkpt>
      <trkpt lat="43.01956667" lon="-7.35992333">
        <ele>502.0</ele>
        <time>2022-06-19T14:26:04.309Z</time>
      </trkpt>
      <trkpt lat="43.01956667" lon="-7.35992333">
        <ele>502.0</ele>
        <time>2022-06-19T14:26:05.327Z</time>
      </trkpt>
      <trkpt lat="43.01953167" lon="-7.359995">
        <ele>502.0</ele>
        <time>2022-06-19T14:26:06.299Z</time>
      </trkpt>
      <trkpt lat="43.01953167" lon="-7.359995">
        <ele>502.0</ele>
        <time>2022-06-19T14:26:07.328Z</time>
      </trkpt>
      <trkpt lat="43.01949833" lon="-7.36007">
        <ele>503.0</ele>
        <time>2022-06-19T14:26:08.299Z</time>
      </trkpt>
      <trkpt lat="43.019485" lon="-7.360105">
        <ele>504.0</ele>
        <time>2022-06-19T14:26:09.329Z</time>
      </trkpt>
      <trkpt lat="43.019485" lon="-7.360105">
        <ele>504.0</ele>
        <time>2022-06-19T14:26:10.310Z</time>
      </trkpt>
      <trkpt lat="43.019485" lon="-7.360105">
        <ele>504.0</ele>
        <time>2022-06-19T14:26:11.403Z</time>
      </trkpt>
      <trkpt lat="43.019465" lon="-7.36018167">
        <ele>504.0</ele>
        <time>2022-06-19T14:26:12.303Z</time>
      </trkpt>
      <trkpt lat="43.019455" lon="-7.36026">
        <ele>505.0</ele>
        <time>2022-06-19T14:26:13.299Z</time>
      </trkpt>
      <trkpt lat="43.019455" lon="-7.36026">
        <ele>505.0</ele>
        <time>2022-06-19T14:26:14.330Z</time>
      </trkpt>
      <trkpt lat="43.019435" lon="-7.360345">
        <ele>505.0</ele>
        <time>2022-06-19T14:26:15.301Z</time>
      </trkpt>
      <trkpt lat="43.019435" lon="-7.360345">
        <ele>505.0</ele>
        <time>2022-06-19T14:26:16.308Z</time>
      </trkpt>
      <trkpt lat="43.019415" lon="-7.36042">
        <ele>505.0</ele>
        <time>2022-06-19T14:26:17.320Z</time>
      </trkpt>
      <trkpt lat="43.019415" lon="-7.36042">
        <ele>505.0</ele>
        <time>2022-06-19T14:26:18.311Z</time>
      </trkpt>
      <trkpt lat="43.01939333" lon="-7.36048833">
        <ele>506.0</ele>
        <time>2022-06-19T14:26:19.319Z</time>
      </trkpt>
      <trkpt lat="43.01939333" lon="-7.36048833">
        <ele>506.0</ele>
        <time>2022-06-19T14:26:20.323Z</time>
      </trkpt>
      <trkpt lat="43.01937667" lon="-7.36055">
        <ele>506.0</ele>
        <time>2022-06-19T14:26:21.293Z</time>
      </trkpt>
      <trkpt lat="43.01937667" lon="-7.36055">
        <ele>506.0</ele>
        <time>2022-06-19T14:26:22.299Z</time>
      </trkpt>
      <trkpt lat="43.019365" lon="-7.36059667">
        <ele>507.0</ele>
        <time>2022-06-19T14:26:23.313Z</time>
      </trkpt>
      <trkpt lat="43.019365" lon="-7.36059667">
        <ele>507.0</ele>
        <time>2022-06-19T14:26:24.313Z</time>
      </trkpt>
      <trkpt lat="43.01935" lon="-7.36063667">
        <ele>507.0</ele>
        <time>2022-06-19T14:26:25.331Z</time>
      </trkpt>
      <trkpt lat="43.01935" lon="-7.36063667">
        <ele>507.0</ele>
        <time>2022-06-19T14:26:26.299Z</time>
      </trkpt>
      <trkpt lat="43.019335" lon="-7.360685">
        <ele>508.0</ele>
        <time>2022-06-19T14:26:27.313Z</time>
      </trkpt>
      <trkpt lat="43.019335" lon="-7.360685">
        <ele>508.0</ele>
        <time>2022-06-19T14:26:28.303Z</time>
      </trkpt>
      <trkpt lat="43.01931333" lon="-7.36073167">
        <ele>508.0</ele>
        <time>2022-06-19T14:26:29.319Z</time>
      </trkpt>
      <trkpt lat="43.01931333" lon="-7.36073167">
        <ele>508.0</ele>
        <time>2022-06-19T14:26:30.327Z</time>
      </trkpt>
      <trkpt lat="43.01929333" lon="-7.36077667">
        <ele>509.0</ele>
        <time>2022-06-19T14:26:31.303Z</time>
      </trkpt>
      <trkpt lat="43.01929333" lon="-7.36077667">
        <ele>509.0</ele>
        <time>2022-06-19T14:26:32.326Z</time>
      </trkpt>
      <trkpt lat="43.01927667" lon="-7.36081667">
        <ele>509.0</ele>
        <time>2022-06-19T14:26:33.299Z</time>
      </trkpt>
      <trkpt lat="43.01926833" lon="-7.360835">
        <ele>510.0</ele>
        <time>2022-06-19T14:26:34.400Z</time>
      </trkpt>
      <trkpt lat="43.01926833" lon="-7.360835">
        <ele>510.0</ele>
        <time>2022-06-19T14:26:35.322Z</time>
      </trkpt>
      <trkpt lat="43.01924833" lon="-7.36087">
        <ele>511.0</ele>
        <time>2022-06-19T14:26:36.337Z</time>
      </trkpt>
      <trkpt lat="43.01924833" lon="-7.36087">
        <ele>511.0</ele>
        <time>2022-06-19T14:26:37.326Z</time>
      </trkpt>
      <trkpt lat="43.01923333" lon="-7.36090333">
        <ele>511.0</ele>
        <time>2022-06-19T14:26:38.292Z</time>
      </trkpt>
      <trkpt lat="43.01923" lon="-7.36092">
        <ele>512.0</ele>
        <time>2022-06-19T14:26:39.299Z</time>
      </trkpt>
      <trkpt lat="43.01923" lon="-7.36092">
        <ele>512.0</ele>
        <time>2022-06-19T14:26:40.327Z</time>
      </trkpt>
      <trkpt lat="43.019225" lon="-7.36095667">
        <ele>512.0</ele>
        <time>2022-06-19T14:26:41.329Z</time>
      </trkpt>
      <trkpt lat="43.019225" lon="-7.36095667">
        <ele>512.0</ele>
        <time>2022-06-19T14:26:42.304Z</time>
      </trkpt>
      <trkpt lat="43.01921167" lon="-7.36098167">
        <ele>513.0</ele>
        <time>2022-06-19T14:26:43.321Z</time>
      </trkpt>
      <trkpt lat="43.01921167" lon="-7.36098167">
        <ele>513.0</ele>
        <time>2022-06-19T14:26:44.311Z</time>
      </trkpt>
      <trkpt lat="43.01919667" lon="-7.36101667">
        <ele>514.0</ele>
        <time>2022-06-19T14:26:45.323Z</time>
      </trkpt>
      <trkpt lat="43.01919667" lon="-7.36103">
        <ele>514.0</ele>
        <time>2022-06-19T14:26:46.302Z</time>
      </trkpt>
      <trkpt lat="43.01919667" lon="-7.36103">
        <ele>514.0</ele>
        <time>2022-06-19T14:26:47.321Z</time>
      </trkpt>
      <trkpt lat="43.01919667" lon="-7.36103">
        <ele>514.0</ele>
        <time>2022-06-19T14:26:48.382Z</time>
      </trkpt>
      <trkpt lat="43.01918667" lon="-7.36104833">
        <ele>515.0</ele>
        <time>2022-06-19T14:26:49.323Z</time>
      </trkpt>
      <trkpt lat="43.019185" lon="-7.36108167">
        <ele>515.0</ele>
        <time>2022-06-19T14:26:50.295Z</time>
      </trkpt>
      <trkpt lat="43.019185" lon="-7.36108167">
        <ele>515.0</ele>
        <time>2022-06-19T14:26:51.316Z</time>
      </trkpt>
      <trkpt lat="43.01918167" lon="-7.36111833">
        <ele>516.0</ele>
        <time>2022-06-19T14:26:52.293Z</time>
      </trkpt>
      <trkpt lat="43.01918167" lon="-7.36111833">
        <ele>516.0</ele>
        <time>2022-06-19T14:26:53.331Z</time>
      </trkpt>
      <trkpt lat="43.01917667" lon="-7.36114">
        <ele>517.0</ele>
        <time>2022-06-19T14:26:54.304Z</time>
      </trkpt>
      <trkpt lat="43.01917333" lon="-7.36115167">
        <ele>517.0</ele>
        <time>2022-06-19T14:26:55.306Z</time>
      </trkpt>
      <trkpt lat="43.01917333" lon="-7.36115167">
        <ele>517.0</ele>
        <time>2022-06-19T14:26:56.324Z</time>
      </trkpt>
      <trkpt lat="43.019175" lon="-7.361175">
        <ele>518.0</ele>
        <time>2022-06-19T14:26:57.313Z</time>
      </trkpt>
      <trkpt lat="43.019175" lon="-7.361175">
        <ele>518.0</ele>
        <time>2022-06-19T14:26:58.292Z</time>
      </trkpt>
      <trkpt lat="43.01916833" lon="-7.3612">
        <ele>518.0</ele>
        <time>2022-06-19T14:26:59.359Z</time>
      </trkpt>
      <trkpt lat="43.01916833" lon="-7.3612">
        <ele>518.0</ele>
        <time>2022-06-19T14:27:00.304Z</time>
      </trkpt>
      <trkpt lat="43.01914167" lon="-7.36124667">
        <ele>518.0</ele>
        <time>2022-06-19T14:27:01.320Z</time>
      </trkpt>
      <trkpt lat="43.01914167" lon="-7.36124667">
        <ele>518.0</ele>
        <time>2022-06-19T14:27:02.311Z</time>
      </trkpt>
      <trkpt lat="43.01913167" lon="-7.36128333">
        <ele>519.0</ele>
        <time>2022-06-19T14:27:03.328Z</time>
      </trkpt>
      <trkpt lat="43.01913167" lon="-7.36128333">
        <ele>519.0</ele>
        <time>2022-06-19T14:27:04.293Z</time>
      </trkpt>
      <trkpt lat="43.01912833" lon="-7.36132167">
        <ele>519.0</ele>
        <time>2022-06-19T14:27:05.303Z</time>
      </trkpt>
      <trkpt lat="43.01912833" lon="-7.36132167">
        <ele>519.0</ele>
        <time>2022-06-19T14:27:06.299Z</time>
      </trkpt>
      <trkpt lat="43.01913167" lon="-7.36135833">
        <ele>519.0</ele>
        <time>2022-06-19T14:27:07.309Z</time>
      </trkpt>
      <trkpt lat="43.01913167" lon="-7.36135833">
        <ele>519.0</ele>
        <time>2022-06-19T14:27:08.297Z</time>
      </trkpt>
      <trkpt lat="43.01913333" lon="-7.36139333">
        <ele>519.0</ele>
        <time>2022-06-19T14:27:09.313Z</time>
      </trkpt>
      <trkpt lat="43.019135" lon="-7.36141167">
        <ele>519.0</ele>
        <time>2022-06-19T14:27:10.460Z</time>
      </trkpt>
      <trkpt lat="43.019135" lon="-7.36141167">
        <ele>519.0</ele>
        <time>2022-06-19T14:27:11.303Z</time>
      </trkpt>
      <trkpt lat="43.01913333" lon="-7.36144333">
        <ele>520.0</ele>
        <time>2022-06-19T14:27:12.320Z</time>
      </trkpt>
      <trkpt lat="43.01913333" lon="-7.36144333">
        <ele>520.0</ele>
        <time>2022-06-19T14:27:13.311Z</time>
      </trkpt>
      <trkpt lat="43.019135" lon="-7.36147167">
        <ele>521.0</ele>
        <time>2022-06-19T14:27:14.327Z</time>
      </trkpt>
      <trkpt lat="43.019135" lon="-7.36147167">
        <ele>521.0</ele>
        <time>2022-06-19T14:27:15.307Z</time>
      </trkpt>
      <trkpt lat="43.01913667" lon="-7.36150333">
        <ele>521.0</ele>
        <time>2022-06-19T14:27:16.305Z</time>
      </trkpt>
      <trkpt lat="43.01913667" lon="-7.36150333">
        <ele>521.0</ele>
        <time>2022-06-19T14:27:17.310Z</time>
      </trkpt>
      <trkpt lat="43.01914667" lon="-7.36153833">
        <ele>521.0</ele>
        <time>2022-06-19T14:27:18.322Z</time>
      </trkpt>
      <trkpt lat="43.01914667" lon="-7.36153833">
        <ele>521.0</ele>
        <time>2022-06-19T14:27:19.299Z</time>
      </trkpt>
      <trkpt lat="43.01915833" lon="-7.36157">
        <ele>522.0</ele>
        <time>2022-06-19T14:27:20.313Z</time>
      </trkpt>
      <trkpt lat="43.01916" lon="-7.36158167">
        <ele>522.0</ele>
        <time>2022-06-19T14:27:21.296Z</time>
      </trkpt>
      <trkpt lat="43.01916" lon="-7.36158167">
        <ele>522.0</ele>
        <time>2022-06-19T14:27:22.318Z</time>
      </trkpt>
      <trkpt lat="43.01916" lon="-7.36158167">
        <ele>522.0</ele>
        <time>2022-06-19T14:27:23.397Z</time>
      </trkpt>
      <trkpt lat="43.01917333" lon="-7.36162667">
        <ele>523.0</ele>
        <time>2022-06-19T14:27:24.294Z</time>
      </trkpt>
      <trkpt lat="43.01917333" lon="-7.36162667">
        <ele>523.0</ele>
        <time>2022-06-19T14:27:25.322Z</time>
      </trkpt>
      <trkpt lat="43.01918333" lon="-7.36165833">
        <ele>523.0</ele>
        <time>2022-06-19T14:27:26.301Z</time>
      </trkpt>
      <trkpt lat="43.01918333" lon="-7.36165833">
        <ele>523.0</ele>
        <time>2022-06-19T14:27:27.316Z</time>
      </trkpt>
      <trkpt lat="43.01920333" lon="-7.36169833">
        <ele>524.0</ele>
        <time>2022-06-19T14:27:28.293Z</time>
      </trkpt>
      <trkpt lat="43.01920333" lon="-7.36169833">
        <ele>524.0</ele>
        <time>2022-06-19T14:27:29.298Z</time>
      </trkpt>
      <trkpt lat="43.01921833" lon="-7.36174833">
        <ele>524.0</ele>
        <time>2022-06-19T14:27:30.319Z</time>
      </trkpt>
      <trkpt lat="43.01922667" lon="-7.36177333">
        <ele>524.0</ele>
        <time>2022-06-19T14:27:31.303Z</time>
      </trkpt>
      <trkpt lat="43.01922667" lon="-7.36177333">
        <ele>524.0</ele>
        <time>2022-06-19T14:27:32.300Z</time>
      </trkpt>
      <trkpt lat="43.01924333" lon="-7.36182">
        <ele>525.0</ele>
        <time>2022-06-19T14:27:33.302Z</time>
      </trkpt>
      <trkpt lat="43.01924333" lon="-7.36182">
        <ele>525.0</ele>
        <time>2022-06-19T14:27:34.325Z</time>
      </trkpt>
      <trkpt lat="43.01926167" lon="-7.36187">
        <ele>525.0</ele>
        <time>2022-06-19T14:27:35.309Z</time>
      </trkpt>
      <trkpt lat="43.01926167" lon="-7.36187">
        <ele>525.0</ele>
        <time>2022-06-19T14:27:36.319Z</time>
      </trkpt>
      <trkpt lat="43.01927833" lon="-7.36191667">
        <ele>525.0</ele>
        <time>2022-06-19T14:27:37.320Z</time>
      </trkpt>
      <trkpt lat="43.01928667" lon="-7.36193667">
        <ele>525.0</ele>
        <time>2022-06-19T14:27:38.299Z</time>
      </trkpt>
      <trkpt lat="43.01928667" lon="-7.36193667">
        <ele>525.0</ele>
        <time>2022-06-19T14:27:39.315Z</time>
      </trkpt>
      <trkpt lat="43.019295" lon="-7.36198333">
        <ele>526.0</ele>
        <time>2022-06-19T14:27:40.325Z</time>
      </trkpt>
      <trkpt lat="43.019295" lon="-7.36198333">
        <ele>526.0</ele>
        <time>2022-06-19T14:27:41.331Z</time>
      </trkpt>
      <trkpt lat="43.01929667" lon="-7.362035">
        <ele>526.0</ele>
        <time>2022-06-19T14:27:42.307Z</time>
      </trkpt>
      <trkpt lat="43.019295" lon="-7.36206333">
        <ele>526.0</ele>
        <time>2022-06-19T14:27:43.314Z</time>
      </trkpt>
      <trkpt lat="43.019295" lon="-7.36206333">
        <ele>526.0</ele>
        <time>2022-06-19T14:27:44.310Z</time>
      </trkpt>
      <trkpt lat="43.01929833" lon="-7.36212333">
        <ele>527.0</ele>
        <time>2022-06-19T14:27:45.321Z</time>
      </trkpt>
      <trkpt lat="43.01929833" lon="-7.36212333">
        <ele>527.0</ele>
        <time>2022-06-19T14:27:46.321Z</time>
      </trkpt>
      <trkpt lat="43.01931667" lon="-7.36221333">
        <ele>527.0</ele>
        <time>2022-06-19T14:27:47.294Z</time>
      </trkpt>
      <trkpt lat="43.01931667" lon="-7.36221333">
        <ele>527.0</ele>
        <time>2022-06-19T14:27:48.321Z</time>
      </trkpt>
      <trkpt lat="43.019335" lon="-7.362295">
        <ele>527.0</ele>
        <time>2022-06-19T14:27:49.297Z</time>
      </trkpt>
      <trkpt lat="43.019335" lon="-7.362295">
        <ele>527.0</ele>
        <time>2022-06-19T14:27:50.327Z</time>
      </trkpt>
      <trkpt lat="43.01932" lon="-7.36237333">
        <ele>527.0</ele>
        <time>2022-06-19T14:27:51.393Z</time>
      </trkpt>
      <trkpt lat="43.01930333" lon="-7.36241833">
        <ele>527.0</ele>
        <time>2022-06-19T14:27:52.315Z</time>
      </trkpt>
      <trkpt lat="43.01930333" lon="-7.36241833">
        <ele>527.0</ele>
        <time>2022-06-19T14:27:53.300Z</time>
      </trkpt>
      <trkpt lat="43.01928333" lon="-7.36252167">
        <ele>528.0</ele>
        <time>2022-06-19T14:27:54.303Z</time>
      </trkpt>
      <trkpt lat="43.019275" lon="-7.362585">
        <ele>528.0</ele>
        <time>2022-06-19T14:27:55.293Z</time>
      </trkpt>
      <trkpt lat="43.019275" lon="-7.362585">
        <ele>528.0</ele>
        <time>2022-06-19T14:27:56.325Z</time>
      </trkpt>
      <trkpt lat="43.01925667" lon="-7.362715">
        <ele>528.0</ele>
        <time>2022-06-19T14:27:57.296Z</time>
      </trkpt>
      <trkpt lat="43.01925667" lon="-7.362715">
        <ele>528.0</ele>
        <time>2022-06-19T14:27:58.298Z</time>
      </trkpt>
      <trkpt lat="43.01924667" lon="-7.36283167">
        <ele>528.0</ele>
        <time>2022-06-19T14:27:59.315Z</time>
      </trkpt>
      <trkpt lat="43.01924667" lon="-7.36283167">
        <ele>528.0</ele>
        <time>2022-06-19T14:28:00.317Z</time>
      </trkpt>
      <trkpt lat="43.01921833" lon="-7.36296333">
        <ele>528.0</ele>
        <time>2022-06-19T14:28:01.296Z</time>
      </trkpt>
      <trkpt lat="43.01921833" lon="-7.36296333">
        <ele>528.0</ele>
        <time>2022-06-19T14:28:02.314Z</time>
      </trkpt>
      <trkpt lat="43.01918333" lon="-7.36309167">
        <ele>527.0</ele>
        <time>2022-06-19T14:28:03.334Z</time>
      </trkpt>
      <trkpt lat="43.01918333" lon="-7.36309167">
        <ele>527.0</ele>
        <time>2022-06-19T14:28:04.300Z</time>
      </trkpt>
      <trkpt lat="43.01912667" lon="-7.36318167">
        <ele>527.0</ele>
        <time>2022-06-19T14:28:05.297Z</time>
      </trkpt>
      <trkpt lat="43.01912667" lon="-7.36318167">
        <ele>527.0</ele>
        <time>2022-06-19T14:28:06.309Z</time>
      </trkpt>
      <trkpt lat="43.01908167" lon="-7.363275">
        <ele>526.0</ele>
        <time>2022-06-19T14:28:07.322Z</time>
      </trkpt>
      <trkpt lat="43.01908167" lon="-7.363275">
        <ele>526.0</ele>
        <time>2022-06-19T14:28:08.328Z</time>
      </trkpt>
      <trkpt lat="43.019075" lon="-7.36339833">
        <ele>523.0</ele>
        <time>2022-06-19T14:28:09.307Z</time>
      </trkpt>
      <trkpt lat="43.01909" lon="-7.36345333">
        <ele>522.0</ele>
        <time>2022-06-19T14:28:10.399Z</time>
      </trkpt>
      <trkpt lat="43.01909" lon="-7.36345333">
        <ele>522.0</ele>
        <time>2022-06-19T14:28:11.311Z</time>
      </trkpt>
      <trkpt lat="43.01913667" lon="-7.363545">
        <ele>521.0</ele>
        <time>2022-06-19T14:28:12.333Z</time>
      </trkpt>
      <trkpt lat="43.01916333" lon="-7.36359167">
        <ele>520.0</ele>
        <time>2022-06-19T14:28:13.294Z</time>
      </trkpt>
      <trkpt lat="43.01916333" lon="-7.36359167">
        <ele>520.0</ele>
        <time>2022-06-19T14:28:14.292Z</time>
      </trkpt>
      <trkpt lat="43.01921167" lon="-7.363685">
        <ele>519.0</ele>
        <time>2022-06-19T14:28:15.311Z</time>
      </trkpt>
      <trkpt lat="43.01921167" lon="-7.363685">
        <ele>519.0</ele>
        <time>2022-06-19T14:28:16.298Z</time>
      </trkpt>
      <trkpt lat="43.01925833" lon="-7.36378">
        <ele>518.0</ele>
        <time>2022-06-19T14:28:17.322Z</time>
      </trkpt>
      <trkpt lat="43.01925833" lon="-7.36378">
        <ele>518.0</ele>
        <time>2022-06-19T14:28:18.311Z</time>
      </trkpt>
      <trkpt lat="43.019305" lon="-7.363895">
        <ele>517.0</ele>
        <time>2022-06-19T14:28:19.333Z</time>
      </trkpt>
      <trkpt lat="43.019305" lon="-7.363895">
        <ele>517.0</ele>
        <time>2022-06-19T14:28:20.310Z</time>
      </trkpt>
      <trkpt lat="43.01933833" lon="-7.36399667">
        <ele>517.0</ele>
        <time>2022-06-19T14:28:21.324Z</time>
      </trkpt>
      <trkpt lat="43.01933833" lon="-7.36399667">
        <ele>517.0</ele>
        <time>2022-06-19T14:28:22.322Z</time>
      </trkpt>
      <trkpt lat="43.01935833" lon="-7.36409333">
        <ele>516.0</ele>
        <time>2022-06-19T14:28:23.295Z</time>
      </trkpt>
      <trkpt lat="43.01936833" lon="-7.36414167">
        <ele>516.0</ele>
        <time>2022-06-19T14:28:24.311Z</time>
      </trkpt>
      <trkpt lat="43.01936833" lon="-7.36414167">
        <ele>516.0</ele>
        <time>2022-06-19T14:28:25.325Z</time>
      </trkpt>
      <trkpt lat="43.01938167" lon="-7.36424">
        <ele>516.0</ele>
        <time>2022-06-19T14:28:26.301Z</time>
      </trkpt>
      <trkpt lat="43.019385" lon="-7.36428667">
        <ele>516.0</ele>
        <time>2022-06-19T14:28:27.320Z</time>
      </trkpt>
      <trkpt lat="43.019385" lon="-7.36428667">
        <ele>516.0</ele>
        <time>2022-06-19T14:28:28.317Z</time>
      </trkpt>
      <trkpt lat="43.01938333" lon="-7.364375">
        <ele>516.0</ele>
        <time>2022-06-19T14:28:29.292Z</time>
      </trkpt>
      <trkpt lat="43.01938333" lon="-7.364375">
        <ele>516.0</ele>
        <time>2022-06-19T14:28:30.331Z</time>
      </trkpt>
      <trkpt lat="43.01937667" lon="-7.364465">
        <ele>516.0</ele>
        <time>2022-06-19T14:28:31.402Z</time>
      </trkpt>
      <trkpt lat="43.01937667" lon="-7.364465">
        <ele>516.0</ele>
        <time>2022-06-19T14:28:32.304Z</time>
      </trkpt>
      <trkpt lat="43.01937167" lon="-7.36455333">
        <ele>515.0</ele>
        <time>2022-06-19T14:28:33.318Z</time>
      </trkpt>
      <trkpt lat="43.01937167" lon="-7.36455333">
        <ele>515.0</ele>
        <time>2022-06-19T14:28:34.328Z</time>
      </trkpt>
      <trkpt lat="43.01936667" lon="-7.36463667">
        <ele>515.0</ele>
        <time>2022-06-19T14:28:35.299Z</time>
      </trkpt>
      <trkpt lat="43.01936667" lon="-7.36463667">
        <ele>515.0</ele>
        <time>2022-06-19T14:28:36.315Z</time>
      </trkpt>
      <trkpt lat="43.01936833" lon="-7.364715">
        <ele>516.0</ele>
        <time>2022-06-19T14:28:37.304Z</time>
      </trkpt>
      <trkpt lat="43.01936833" lon="-7.364715">
        <ele>516.0</ele>
        <time>2022-06-19T14:28:38.303Z</time>
      </trkpt>
      <trkpt lat="43.01937333" lon="-7.36478833">
        <ele>516.0</ele>
        <time>2022-06-19T14:28:39.319Z</time>
      </trkpt>
      <trkpt lat="43.019375" lon="-7.364825">
        <ele>516.0</ele>
        <time>2022-06-19T14:28:40.331Z</time>
      </trkpt>
      <trkpt lat="43.019375" lon="-7.364825">
        <ele>516.0</ele>
        <time>2022-06-19T14:28:41.315Z</time>
      </trkpt>
      <trkpt lat="43.01938" lon="-7.364895">
        <ele>516.0</ele>
        <time>2022-06-19T14:28:42.325Z</time>
      </trkpt>
      <trkpt lat="43.01938" lon="-7.364895">
        <ele>516.0</ele>
        <time>2022-06-19T14:28:43.327Z</time>
      </trkpt>
      <trkpt lat="43.019375" lon="-7.36496167">
        <ele>517.0</ele>
        <time>2022-06-19T14:28:44.304Z</time>
      </trkpt>
      <trkpt lat="43.019375" lon="-7.36496167">
        <ele>517.0</ele>
        <time>2022-06-19T14:28:45.299Z</time>
      </trkpt>
      <trkpt lat="43.01935667" lon="-7.36502833">
        <ele>517.0</ele>
        <time>2022-06-19T14:28:46.310Z</time>
      </trkpt>
      <trkpt lat="43.01935667" lon="-7.36502833">
        <ele>517.0</ele>
        <time>2022-06-19T14:28:47.308Z</time>
      </trkpt>
      <trkpt lat="43.019315" lon="-7.36509333">
        <ele>516.0</ele>
        <time>2022-06-19T14:28:48.322Z</time>
      </trkpt>
      <trkpt lat="43.019315" lon="-7.36509333">
        <ele>516.0</ele>
        <time>2022-06-19T14:28:49.310Z</time>
      </trkpt>
      <trkpt lat="43.019265" lon="-7.36516">
        <ele>516.0</ele>
        <time>2022-06-19T14:28:50.397Z</time>
      </trkpt>
      <trkpt lat="43.019265" lon="-7.36516">
        <ele>516.0</ele>
        <time>2022-06-19T14:28:51.330Z</time>
      </trkpt>
      <trkpt lat="43.01920333" lon="-7.36523167">
        <ele>516.0</ele>
        <time>2022-06-19T14:28:52.315Z</time>
      </trkpt>
      <trkpt lat="43.01917" lon="-7.36526833">
        <ele>516.0</ele>
        <time>2022-06-19T14:28:53.310Z</time>
      </trkpt>
      <trkpt lat="43.01917" lon="-7.36526833">
        <ele>516.0</ele>
        <time>2022-06-19T14:28:54.303Z</time>
      </trkpt>
      <trkpt lat="43.01909333" lon="-7.36533667">
        <ele>516.0</ele>
        <time>2022-06-19T14:28:55.317Z</time>
      </trkpt>
      <trkpt lat="43.01909333" lon="-7.36533667">
        <ele>516.0</ele>
        <time>2022-06-19T14:28:56.297Z</time>
      </trkpt>
      <trkpt lat="43.01900833" lon="-7.36539667">
        <ele>516.0</ele>
        <time>2022-06-19T14:28:57.310Z</time>
      </trkpt>
      <trkpt lat="43.01900833" lon="-7.36539667">
        <ele>516.0</ele>
        <time>2022-06-19T14:28:58.325Z</time>
      </trkpt>
      <trkpt lat="43.01891833" lon="-7.36545333">
        <ele>516.0</ele>
        <time>2022-06-19T14:28:59.312Z</time>
      </trkpt>
      <trkpt lat="43.01891833" lon="-7.36545333">
        <ele>516.0</ele>
        <time>2022-06-19T14:29:00.314Z</time>
      </trkpt>
      <trkpt lat="43.01881833" lon="-7.36548833">
        <ele>515.0</ele>
        <time>2022-06-19T14:29:01.327Z</time>
      </trkpt>
      <trkpt lat="43.01881833" lon="-7.36548833">
        <ele>515.0</ele>
        <time>2022-06-19T14:29:02.330Z</time>
      </trkpt>
      <trkpt lat="43.01871667" lon="-7.36549">
        <ele>515.0</ele>
        <time>2022-06-19T14:29:03.312Z</time>
      </trkpt>
      <trkpt lat="43.01871667" lon="-7.36549">
        <ele>515.0</ele>
        <time>2022-06-19T14:29:04.317Z</time>
      </trkpt>
      <trkpt lat="43.01862167" lon="-7.36547167">
        <ele>514.0</ele>
        <time>2022-06-19T14:29:05.298Z</time>
      </trkpt>
      <trkpt lat="43.01862167" lon="-7.36547167">
        <ele>514.0</ele>
        <time>2022-06-19T14:29:06.325Z</time>
      </trkpt>
      <trkpt lat="43.01853" lon="-7.36544833">
        <ele>513.0</ele>
        <time>2022-06-19T14:29:07.309Z</time>
      </trkpt>
      <trkpt lat="43.01853" lon="-7.36544833">
        <ele>513.0</ele>
        <time>2022-06-19T14:29:08.304Z</time>
      </trkpt>
      <trkpt lat="43.01845667" lon="-7.36544667">
        <ele>513.0</ele>
        <time>2022-06-19T14:29:09.312Z</time>
      </trkpt>
      <trkpt lat="43.01842667" lon="-7.36545333">
        <ele>513.0</ele>
        <time>2022-06-19T14:29:10.399Z</time>
      </trkpt>
      <trkpt lat="43.01842667" lon="-7.36545333">
        <ele>513.0</ele>
        <time>2022-06-19T14:29:11.328Z</time>
      </trkpt>
      <trkpt lat="43.01837333" lon="-7.365485">
        <ele>512.0</ele>
        <time>2022-06-19T14:29:12.318Z</time>
      </trkpt>
      <trkpt lat="43.01834667" lon="-7.36550167">
        <ele>512.0</ele>
        <time>2022-06-19T14:29:13.328Z</time>
      </trkpt>
      <trkpt lat="43.01832" lon="-7.36552">
        <ele>512.0</ele>
        <time>2022-06-19T14:29:14.308Z</time>
      </trkpt>
      <trkpt lat="43.01832" lon="-7.36552">
        <ele>512.0</ele>
        <time>2022-06-19T14:29:15.331Z</time>
      </trkpt>
      <trkpt lat="43.01827167" lon="-7.36556667">
        <ele>511.0</ele>
        <time>2022-06-19T14:29:16.312Z</time>
      </trkpt>
      <trkpt lat="43.01827167" lon="-7.36556667">
        <ele>511.0</ele>
        <time>2022-06-19T14:29:17.316Z</time>
      </trkpt>
      <trkpt lat="43.01822333" lon="-7.36561667">
        <ele>511.0</ele>
        <time>2022-06-19T14:29:18.300Z</time>
      </trkpt>
      <trkpt lat="43.01820333" lon="-7.36564333">
        <ele>510.0</ele>
        <time>2022-06-19T14:29:19.300Z</time>
      </trkpt>
      <trkpt lat="43.01820333" lon="-7.36564333">
        <ele>510.0</ele>
        <time>2022-06-19T14:29:20.297Z</time>
      </trkpt>
      <trkpt lat="43.018165" lon="-7.36571">
        <ele>510.0</ele>
        <time>2022-06-19T14:29:21.307Z</time>
      </trkpt>
      <trkpt lat="43.01816167" lon="-7.36575167">
        <ele>510.0</ele>
        <time>2022-06-19T14:29:22.294Z</time>
      </trkpt>
      <trkpt lat="43.01816167" lon="-7.36575167">
        <ele>510.0</ele>
        <time>2022-06-19T14:29:23.318Z</time>
      </trkpt>
      <trkpt lat="43.01816667" lon="-7.365845">
        <ele>509.0</ele>
        <time>2022-06-19T14:29:24.298Z</time>
      </trkpt>
      <trkpt lat="43.01817167" lon="-7.36589">
        <ele>509.0</ele>
        <time>2022-06-19T14:29:25.305Z</time>
      </trkpt>
      <trkpt lat="43.01817167" lon="-7.36589">
        <ele>509.0</ele>
        <time>2022-06-19T14:29:26.299Z</time>
      </trkpt>
      <trkpt lat="43.01817167" lon="-7.36599">
        <ele>509.0</ele>
        <time>2022-06-19T14:29:27.310Z</time>
      </trkpt>
      <trkpt lat="43.01817167" lon="-7.36599">
        <ele>509.0</ele>
        <time>2022-06-19T14:29:28.304Z</time>
      </trkpt>
      <trkpt lat="43.01817167" lon="-7.36599">
        <ele>509.0</ele>
        <time>2022-06-19T14:29:29.409Z</time>
      </trkpt>
      <trkpt lat="43.018125" lon="-7.36608833">
        <ele>508.0</ele>
        <time>2022-06-19T14:29:30.321Z</time>
      </trkpt>
      <trkpt lat="43.01805667" lon="-7.36614167">
        <ele>508.0</ele>
        <time>2022-06-19T14:29:31.309Z</time>
      </trkpt>
      <trkpt lat="43.01805667" lon="-7.36614167">
        <ele>508.0</ele>
        <time>2022-06-19T14:29:32.316Z</time>
      </trkpt>
      <trkpt lat="43.01798667" lon="-7.36617333">
        <ele>506.0</ele>
        <time>2022-06-19T14:29:33.312Z</time>
      </trkpt>
      <trkpt lat="43.01798667" lon="-7.36617333">
        <ele>506.0</ele>
        <time>2022-06-19T14:29:34.330Z</time>
      </trkpt>
      <trkpt lat="43.01793" lon="-7.36619167">
        <ele>506.0</ele>
        <time>2022-06-19T14:29:35.304Z</time>
      </trkpt>
      <trkpt lat="43.01793" lon="-7.36619167">
        <ele>506.0</ele>
        <time>2022-06-19T14:29:36.308Z</time>
      </trkpt>
      <trkpt lat="43.01788833" lon="-7.36620833">
        <ele>506.0</ele>
        <time>2022-06-19T14:29:37.315Z</time>
      </trkpt>
      <trkpt lat="43.01788833" lon="-7.36620833">
        <ele>506.0</ele>
        <time>2022-06-19T14:29:38.320Z</time>
      </trkpt>
      <trkpt lat="43.01786833" lon="-7.366225">
        <ele>506.0</ele>
        <time>2022-06-19T14:29:39.308Z</time>
      </trkpt>
      <trkpt lat="43.01786667" lon="-7.36623333">
        <ele>506.0</ele>
        <time>2022-06-19T14:29:40.310Z</time>
      </trkpt>
      <trkpt lat="43.01786667" lon="-7.36623333">
        <ele>506.0</ele>
        <time>2022-06-19T14:29:41.301Z</time>
      </trkpt>
      <trkpt lat="43.01787" lon="-7.36625833">
        <ele>505.0</ele>
        <time>2022-06-19T14:29:42.319Z</time>
      </trkpt>
      <trkpt lat="43.01785833" lon="-7.36629833">
        <ele>505.0</ele>
        <time>2022-06-19T14:29:43.322Z</time>
      </trkpt>
      <trkpt lat="43.01785833" lon="-7.36629833">
        <ele>505.0</ele>
        <time>2022-06-19T14:29:44.292Z</time>
      </trkpt>
      <trkpt lat="43.01785667" lon="-7.36637">
        <ele>505.0</ele>
        <time>2022-06-19T14:29:45.312Z</time>
      </trkpt>
      <trkpt lat="43.01785667" lon="-7.36637">
        <ele>505.0</ele>
        <time>2022-06-19T14:29:46.329Z</time>
      </trkpt>
      <trkpt lat="43.01786" lon="-7.36643167">
        <ele>505.0</ele>
        <time>2022-06-19T14:29:47.389Z</time>
      </trkpt>
      <trkpt lat="43.01786" lon="-7.36643167">
        <ele>505.0</ele>
        <time>2022-06-19T14:29:48.329Z</time>
      </trkpt>
      <trkpt lat="43.01786" lon="-7.3665">
        <ele>504.0</ele>
        <time>2022-06-19T14:29:49.317Z</time>
      </trkpt>
      <trkpt lat="43.01786" lon="-7.3665">
        <ele>504.0</ele>
        <time>2022-06-19T14:29:50.317Z</time>
      </trkpt>
      <trkpt lat="43.01786333" lon="-7.36656667">
        <ele>504.0</ele>
        <time>2022-06-19T14:29:51.301Z</time>
      </trkpt>
      <trkpt lat="43.01786" lon="-7.36658833">
        <ele>504.0</ele>
        <time>2022-06-19T14:29:52.312Z</time>
      </trkpt>
      <trkpt lat="43.01786" lon="-7.36658833">
        <ele>504.0</ele>
        <time>2022-06-19T14:29:53.300Z</time>
      </trkpt>
      <trkpt lat="43.01785833" lon="-7.36659833">
        <ele>505.0</ele>
        <time>2022-06-19T14:29:54.318Z</time>
      </trkpt>
      <trkpt lat="43.01785833" lon="-7.36659833">
        <ele>505.0</ele>
        <time>2022-06-19T14:29:55.319Z</time>
      </trkpt>
      <trkpt lat="43.017855" lon="-7.3666">
        <ele>505.0</ele>
        <time>2022-06-19T14:29:56.323Z</time>
      </trkpt>
      <trkpt lat="43.01787" lon="-7.36667667">
        <ele>505.0</ele>
        <time>2022-06-19T14:30:15.304Z</time>
      </trkpt>
      <trkpt lat="43.01787" lon="-7.36667667">
        <ele>505.0</ele>
        <time>2022-06-19T14:30:16.298Z</time>
      </trkpt>
      <trkpt lat="43.01789" lon="-7.36676667">
        <ele>504.0</ele>
        <time>2022-06-19T14:30:17.299Z</time>
      </trkpt>
      <trkpt lat="43.01790667" lon="-7.36682167">
        <ele>504.0</ele>
        <time>2022-06-19T14:30:18.373Z</time>
      </trkpt>
      <trkpt lat="43.01790667" lon="-7.36682167">
        <ele>504.0</ele>
        <time>2022-06-19T14:30:19.285Z</time>
      </trkpt>
      <trkpt lat="43.01793833" lon="-7.36695833">
        <ele>504.0</ele>
        <time>2022-06-19T14:30:20.301Z</time>
      </trkpt>
      <trkpt lat="43.01793833" lon="-7.36695833">
        <ele>504.0</ele>
        <time>2022-06-19T14:30:21.300Z</time>
      </trkpt>
      <trkpt lat="43.01798333" lon="-7.36713167">
        <ele>502.0</ele>
        <time>2022-06-19T14:30:22.315Z</time>
      </trkpt>
      <trkpt lat="43.01798333" lon="-7.36713167">
        <ele>502.0</ele>
        <time>2022-06-19T14:30:23.285Z</time>
      </trkpt>
      <trkpt lat="43.01803167" lon="-7.36733">
        <ele>501.0</ele>
        <time>2022-06-19T14:30:24.294Z</time>
      </trkpt>
      <trkpt lat="43.01803167" lon="-7.36733">
        <ele>501.0</ele>
        <time>2022-06-19T14:30:25.289Z</time>
      </trkpt>
      <trkpt lat="43.018075" lon="-7.36754667">
        <ele>500.0</ele>
        <time>2022-06-19T14:30:26.302Z</time>
      </trkpt>
      <trkpt lat="43.01808667" lon="-7.36764833">
        <ele>499.0</ele>
        <time>2022-06-19T14:30:27.308Z</time>
      </trkpt>
      <trkpt lat="43.018095" lon="-7.36774833">
        <ele>499.0</ele>
        <time>2022-06-19T14:30:28.411Z</time>
      </trkpt>
      <trkpt lat="43.018095" lon="-7.36774833">
        <ele>499.0</ele>
        <time>2022-06-19T14:30:29.288Z</time>
      </trkpt>
      <trkpt lat="43.01811167" lon="-7.36794667">
        <ele>498.0</ele>
        <time>2022-06-19T14:30:30.318Z</time>
      </trkpt>
      <trkpt lat="43.01812833" lon="-7.36805333">
        <ele>497.0</ele>
        <time>2022-06-19T14:30:31.286Z</time>
      </trkpt>
      <trkpt lat="43.01812833" lon="-7.36805333">
        <ele>497.0</ele>
        <time>2022-06-19T14:30:32.281Z</time>
      </trkpt>
      <trkpt lat="43.018155" lon="-7.36829167">
        <ele>494.0</ele>
        <time>2022-06-19T14:30:33.312Z</time>
      </trkpt>
      <trkpt lat="43.018155" lon="-7.36829167">
        <ele>494.0</ele>
        <time>2022-06-19T14:30:34.287Z</time>
      </trkpt>
      <trkpt lat="43.01815167" lon="-7.36851333">
        <ele>492.0</ele>
        <time>2022-06-19T14:30:35.310Z</time>
      </trkpt>
      <trkpt lat="43.01815167" lon="-7.36851333">
        <ele>492.0</ele>
        <time>2022-06-19T14:30:36.289Z</time>
      </trkpt>
      <trkpt lat="43.01815" lon="-7.368705">
        <ele>491.0</ele>
        <time>2022-06-19T14:30:37.299Z</time>
      </trkpt>
      <trkpt lat="43.01815" lon="-7.368705">
        <ele>491.0</ele>
        <time>2022-06-19T14:30:38.311Z</time>
      </trkpt>
      <trkpt lat="43.018155" lon="-7.368935">
        <ele>489.0</ele>
        <time>2022-06-19T14:30:39.283Z</time>
      </trkpt>
      <trkpt lat="43.01814167" lon="-7.36905167">
        <ele>488.0</ele>
        <time>2022-06-19T14:30:40.285Z</time>
      </trkpt>
      <trkpt lat="43.01814167" lon="-7.36905167">
        <ele>488.0</ele>
        <time>2022-06-19T14:30:41.282Z</time>
      </trkpt>
      <trkpt lat="43.018105" lon="-7.36928667">
        <ele>486.0</ele>
        <time>2022-06-19T14:30:42.315Z</time>
      </trkpt>
      <trkpt lat="43.018105" lon="-7.36928667">
        <ele>486.0</ele>
        <time>2022-06-19T14:30:43.312Z</time>
      </trkpt>
      <trkpt lat="43.01808167" lon="-7.36955167">
        <ele>485.0</ele>
        <time>2022-06-19T14:30:44.286Z</time>
      </trkpt>
      <trkpt lat="43.01808167" lon="-7.36955167">
        <ele>485.0</ele>
        <time>2022-06-19T14:30:45.298Z</time>
      </trkpt>
      <trkpt lat="43.0181" lon="-7.369805">
        <ele>484.0</ele>
        <time>2022-06-19T14:30:46.315Z</time>
      </trkpt>
      <trkpt lat="43.0181" lon="-7.369805">
        <ele>484.0</ele>
        <time>2022-06-19T14:30:47.395Z</time>
      </trkpt>
      <trkpt lat="43.01811667" lon="-7.36991333">
        <ele>484.0</ele>
        <time>2022-06-19T14:30:48.308Z</time>
      </trkpt>
      <trkpt lat="43.01812167" lon="-7.37012167">
        <ele>483.0</ele>
        <time>2022-06-19T14:30:49.283Z</time>
      </trkpt>
      <trkpt lat="43.01812167" lon="-7.37012167">
        <ele>483.0</ele>
        <time>2022-06-19T14:30:50.312Z</time>
      </trkpt>
      <trkpt lat="43.01810333" lon="-7.37030333">
        <ele>482.0</ele>
        <time>2022-06-19T14:30:51.290Z</time>
      </trkpt>
      <trkpt lat="43.01810333" lon="-7.37030333">
        <ele>482.0</ele>
        <time>2022-06-19T14:30:52.288Z</time>
      </trkpt>
      <trkpt lat="43.01806167" lon="-7.37042">
        <ele>482.0</ele>
        <time>2022-06-19T14:30:53.302Z</time>
      </trkpt>
      <trkpt lat="43.01806167" lon="-7.37042">
        <ele>482.0</ele>
        <time>2022-06-19T14:30:54.305Z</time>
      </trkpt>
      <trkpt lat="43.01803333" lon="-7.37051333">
        <ele>482.0</ele>
        <time>2022-06-19T14:30:55.296Z</time>
      </trkpt>
      <trkpt lat="43.01803333" lon="-7.37051333">
        <ele>482.0</ele>
        <time>2022-06-19T14:30:56.313Z</time>
      </trkpt>
      <trkpt lat="43.018" lon="-7.3706">
        <ele>482.0</ele>
        <time>2022-06-19T14:30:57.288Z</time>
      </trkpt>
      <trkpt lat="43.018" lon="-7.3706">
        <ele>482.0</ele>
        <time>2022-06-19T14:30:58.289Z</time>
      </trkpt>
      <trkpt lat="43.01797333" lon="-7.37068833">
        <ele>482.0</ele>
        <time>2022-06-19T14:30:59.303Z</time>
      </trkpt>
      <trkpt lat="43.017955" lon="-7.37073">
        <ele>482.0</ele>
        <time>2022-06-19T14:31:00.283Z</time>
      </trkpt>
      <trkpt lat="43.017955" lon="-7.37073">
        <ele>482.0</ele>
        <time>2022-06-19T14:31:01.276Z</time>
      </trkpt>
      <trkpt lat="43.01790667" lon="-7.37081667">
        <ele>483.0</ele>
        <time>2022-06-19T14:31:02.290Z</time>
      </trkpt>
      <trkpt lat="43.01788333" lon="-7.37085333">
        <ele>483.0</ele>
        <time>2022-06-19T14:31:03.279Z</time>
      </trkpt>
      <trkpt lat="43.01788333" lon="-7.37085333">
        <ele>483.0</ele>
        <time>2022-06-19T14:31:04.305Z</time>
      </trkpt>
      <trkpt lat="43.01788333" lon="-7.37085333">
        <ele>483.0</ele>
        <time>2022-06-19T14:31:05.389Z</time>
      </trkpt>
      <trkpt lat="43.01784833" lon="-7.37092667">
        <ele>483.0</ele>
        <time>2022-06-19T14:31:06.281Z</time>
      </trkpt>
      <trkpt lat="43.01780667" lon="-7.370995">
        <ele>483.0</ele>
        <time>2022-06-19T14:31:07.282Z</time>
      </trkpt>
      <trkpt lat="43.01779" lon="-7.37103667">
        <ele>484.0</ele>
        <time>2022-06-19T14:31:08.290Z</time>
      </trkpt>
      <trkpt lat="43.01779" lon="-7.37103667">
        <ele>484.0</ele>
        <time>2022-06-19T14:31:09.287Z</time>
      </trkpt>
      <trkpt lat="43.01775833" lon="-7.37111167">
        <ele>484.0</ele>
        <time>2022-06-19T14:31:10.323Z</time>
      </trkpt>
      <trkpt lat="43.01775833" lon="-7.37111167">
        <ele>484.0</ele>
        <time>2022-06-19T14:31:11.312Z</time>
      </trkpt>
      <trkpt lat="43.01772833" lon="-7.37119833">
        <ele>485.0</ele>
        <time>2022-06-19T14:31:12.310Z</time>
      </trkpt>
      <trkpt lat="43.01771" lon="-7.371245">
        <ele>485.0</ele>
        <time>2022-06-19T14:31:13.292Z</time>
      </trkpt>
      <trkpt lat="43.017695" lon="-7.37129167">
        <ele>485.0</ele>
        <time>2022-06-19T14:31:14.314Z</time>
      </trkpt>
      <trkpt lat="43.017695" lon="-7.37129167">
        <ele>485.0</ele>
        <time>2022-06-19T14:31:15.300Z</time>
      </trkpt>
      <trkpt lat="43.01766333" lon="-7.37138833">
        <ele>486.0</ele>
        <time>2022-06-19T14:31:16.278Z</time>
      </trkpt>
      <trkpt lat="43.01766333" lon="-7.37138833">
        <ele>486.0</ele>
        <time>2022-06-19T14:31:17.309Z</time>
      </trkpt>
      <trkpt lat="43.01762833" lon="-7.37147833">
        <ele>487.0</ele>
        <time>2022-06-19T14:31:18.277Z</time>
      </trkpt>
      <trkpt lat="43.01761167" lon="-7.37151667">
        <ele>488.0</ele>
        <time>2022-06-19T14:31:19.408Z</time>
      </trkpt>
      <trkpt lat="43.01761167" lon="-7.37151667">
        <ele>488.0</ele>
        <time>2022-06-19T14:31:20.298Z</time>
      </trkpt>
      <trkpt lat="43.01758" lon="-7.37160333">
        <ele>489.0</ele>
        <time>2022-06-19T14:31:21.312Z</time>
      </trkpt>
      <trkpt lat="43.01758" lon="-7.37160333">
        <ele>489.0</ele>
        <time>2022-06-19T14:31:22.311Z</time>
      </trkpt>
      <trkpt lat="43.01755167" lon="-7.371675">
        <ele>489.0</ele>
        <time>2022-06-19T14:31:23.284Z</time>
      </trkpt>
      <trkpt lat="43.01754" lon="-7.37171333">
        <ele>489.0</ele>
        <time>2022-06-19T14:31:24.299Z</time>
      </trkpt>
      <trkpt lat="43.01754" lon="-7.37171333">
        <ele>489.0</ele>
        <time>2022-06-19T14:31:25.303Z</time>
      </trkpt>
      <trkpt lat="43.017505" lon="-7.37177167">
        <ele>490.0</ele>
        <time>2022-06-19T14:31:26.296Z</time>
      </trkpt>
      <trkpt lat="43.017505" lon="-7.37177167">
        <ele>490.0</ele>
        <time>2022-06-19T14:31:27.301Z</time>
      </trkpt>
      <trkpt lat="43.01747333" lon="-7.37182667">
        <ele>490.0</ele>
        <time>2022-06-19T14:31:28.278Z</time>
      </trkpt>
      <trkpt lat="43.01746" lon="-7.37185333">
        <ele>490.0</ele>
        <time>2022-06-19T14:31:29.281Z</time>
      </trkpt>
      <trkpt lat="43.01746" lon="-7.37185333">
        <ele>490.0</ele>
        <time>2022-06-19T14:31:30.289Z</time>
      </trkpt>
      <trkpt lat="43.01743" lon="-7.371895">
        <ele>491.0</ele>
        <time>2022-06-19T14:31:31.293Z</time>
      </trkpt>
      <trkpt lat="43.01741333" lon="-7.37192333">
        <ele>491.0</ele>
        <time>2022-06-19T14:31:32.292Z</time>
      </trkpt>
      <trkpt lat="43.01741333" lon="-7.37192333">
        <ele>491.0</ele>
        <time>2022-06-19T14:31:33.300Z</time>
      </trkpt>
      <trkpt lat="43.01739167" lon="-7.37198">
        <ele>492.0</ele>
        <time>2022-06-19T14:31:34.288Z</time>
      </trkpt>
      <trkpt lat="43.01739167" lon="-7.37198">
        <ele>492.0</ele>
        <time>2022-06-19T14:31:35.305Z</time>
      </trkpt>
      <trkpt lat="43.01739167" lon="-7.37198">
        <ele>492.0</ele>
        <time>2022-06-19T14:31:36.388Z</time>
      </trkpt>
      <trkpt lat="43.01734667" lon="-7.37206833">
        <ele>493.0</ele>
        <time>2022-06-19T14:31:37.311Z</time>
      </trkpt>
      <trkpt lat="43.01734667" lon="-7.37206833">
        <ele>493.0</ele>
        <time>2022-06-19T14:31:38.303Z</time>
      </trkpt>
      <trkpt lat="43.017315" lon="-7.37212833">
        <ele>494.0</ele>
        <time>2022-06-19T14:31:39.283Z</time>
      </trkpt>
      <trkpt lat="43.017315" lon="-7.37212833">
        <ele>494.0</ele>
        <time>2022-06-19T14:31:40.311Z</time>
      </trkpt>
      <trkpt lat="43.017285" lon="-7.37218">
        <ele>494.0</ele>
        <time>2022-06-19T14:31:41.280Z</time>
      </trkpt>
      <trkpt lat="43.017285" lon="-7.37218">
        <ele>494.0</ele>
        <time>2022-06-19T14:31:42.288Z</time>
      </trkpt>
      <trkpt lat="43.01725667" lon="-7.37222">
        <ele>495.0</ele>
        <time>2022-06-19T14:31:43.314Z</time>
      </trkpt>
      <trkpt lat="43.01725667" lon="-7.37222">
        <ele>495.0</ele>
        <time>2022-06-19T14:31:44.309Z</time>
      </trkpt>
      <trkpt lat="43.01722" lon="-7.37226167">
        <ele>496.0</ele>
        <time>2022-06-19T14:31:45.288Z</time>
      </trkpt>
      <trkpt lat="43.01721" lon="-7.37228667">
        <ele>496.0</ele>
        <time>2022-06-19T14:31:46.302Z</time>
      </trkpt>
      <trkpt lat="43.0172" lon="-7.37231667">
        <ele>497.0</ele>
        <time>2022-06-19T14:31:47.298Z</time>
      </trkpt>
      <trkpt lat="43.0172" lon="-7.37231667">
        <ele>497.0</ele>
        <time>2022-06-19T14:31:48.298Z</time>
      </trkpt>
      <trkpt lat="43.017175" lon="-7.372375">
        <ele>498.0</ele>
        <time>2022-06-19T14:31:49.315Z</time>
      </trkpt>
      <trkpt lat="43.017175" lon="-7.372375">
        <ele>498.0</ele>
        <time>2022-06-19T14:31:50.289Z</time>
      </trkpt>
      <trkpt lat="43.01714167" lon="-7.37246833">
        <ele>498.0</ele>
        <time>2022-06-19T14:31:51.405Z</time>
      </trkpt>
      <trkpt lat="43.01714167" lon="-7.37246833">
        <ele>498.0</ele>
        <time>2022-06-19T14:31:52.283Z</time>
      </trkpt>
      <trkpt lat="43.01711333" lon="-7.37254833">
        <ele>499.0</ele>
        <time>2022-06-19T14:31:53.334Z</time>
      </trkpt>
      <trkpt lat="43.01709833" lon="-7.37258167">
        <ele>499.0</ele>
        <time>2022-06-19T14:31:54.366Z</time>
      </trkpt>
      <trkpt lat="43.01709833" lon="-7.37258167">
        <ele>499.0</ele>
        <time>2022-06-19T14:31:55.278Z</time>
      </trkpt>
      <trkpt lat="43.017065" lon="-7.37265">
        <ele>500.0</ele>
        <time>2022-06-19T14:31:56.283Z</time>
      </trkpt>
      <trkpt lat="43.017065" lon="-7.37265">
        <ele>500.0</ele>
        <time>2022-06-19T14:31:57.288Z</time>
      </trkpt>
      <trkpt lat="43.01704333" lon="-7.372715">
        <ele>500.0</ele>
        <time>2022-06-19T14:31:58.304Z</time>
      </trkpt>
      <trkpt lat="43.01704333" lon="-7.372715">
        <ele>500.0</ele>
        <time>2022-06-19T14:31:59.316Z</time>
      </trkpt>
      <trkpt lat="43.01703167" lon="-7.37277167">
        <ele>501.0</ele>
        <time>2022-06-19T14:32:00.300Z</time>
      </trkpt>
      <trkpt lat="43.01702333" lon="-7.3728">
        <ele>501.0</ele>
        <time>2022-06-19T14:32:01.314Z</time>
      </trkpt>
      <trkpt lat="43.01702333" lon="-7.3728">
        <ele>501.0</ele>
        <time>2022-06-19T14:32:02.294Z</time>
      </trkpt>
      <trkpt lat="43.01702333" lon="-7.3728">
        <ele>501.0</ele>
        <time>2022-06-19T14:32:03.396Z</time>
      </trkpt>
      <trkpt lat="43.01701" lon="-7.372865">
        <ele>502.0</ele>
        <time>2022-06-19T14:32:04.310Z</time>
      </trkpt>
      <trkpt lat="43.01699833" lon="-7.37292333">
        <ele>503.0</ele>
        <time>2022-06-19T14:32:05.281Z</time>
      </trkpt>
      <trkpt lat="43.01699333" lon="-7.37295667">
        <ele>503.0</ele>
        <time>2022-06-19T14:32:06.280Z</time>
      </trkpt>
      <trkpt lat="43.01699333" lon="-7.37295667">
        <ele>503.0</ele>
        <time>2022-06-19T14:32:07.288Z</time>
      </trkpt>
      <trkpt lat="43.01697667" lon="-7.37302167">
        <ele>504.0</ele>
        <time>2022-06-19T14:32:08.306Z</time>
      </trkpt>
      <trkpt lat="43.01697667" lon="-7.37302167">
        <ele>504.0</ele>
        <time>2022-06-19T14:32:09.298Z</time>
      </trkpt>
      <trkpt lat="43.01695833" lon="-7.37309">
        <ele>505.0</ele>
        <time>2022-06-19T14:32:10.312Z</time>
      </trkpt>
      <trkpt lat="43.01695833" lon="-7.37309">
        <ele>505.0</ele>
        <time>2022-06-19T14:32:11.279Z</time>
      </trkpt>
      <trkpt lat="43.01694833" lon="-7.37314167">
        <ele>505.0</ele>
        <time>2022-06-19T14:32:12.294Z</time>
      </trkpt>
      <trkpt lat="43.01694" lon="-7.373175">
        <ele>505.0</ele>
        <time>2022-06-19T14:32:13.296Z</time>
      </trkpt>
      <trkpt lat="43.01694" lon="-7.373175">
        <ele>505.0</ele>
        <time>2022-06-19T14:32:14.301Z</time>
      </trkpt>
      <trkpt lat="43.016925" lon="-7.37324">
        <ele>506.0</ele>
        <time>2022-06-19T14:32:15.276Z</time>
      </trkpt>
      <trkpt lat="43.016925" lon="-7.37324">
        <ele>506.0</ele>
        <time>2022-06-19T14:32:16.276Z</time>
      </trkpt>
      <trkpt lat="43.016915" lon="-7.37329667">
        <ele>506.0</ele>
        <time>2022-06-19T14:32:17.293Z</time>
      </trkpt>
      <trkpt lat="43.01690667" lon="-7.373335">
        <ele>506.0</ele>
        <time>2022-06-19T14:32:18.397Z</time>
      </trkpt>
      <trkpt lat="43.01690667" lon="-7.373335">
        <ele>506.0</ele>
        <time>2022-06-19T14:32:19.294Z</time>
      </trkpt>
      <trkpt lat="43.01688833" lon="-7.37341">
        <ele>507.0</ele>
        <time>2022-06-19T14:32:20.309Z</time>
      </trkpt>
      <trkpt lat="43.01688833" lon="-7.37341">
        <ele>507.0</ele>
        <time>2022-06-19T14:32:21.310Z</time>
      </trkpt>
      <trkpt lat="43.01683667" lon="-7.37352167">
        <ele>507.0</ele>
        <time>2022-06-19T14:32:22.283Z</time>
      </trkpt>
      <trkpt lat="43.01682" lon="-7.37356333">
        <ele>507.0</ele>
        <time>2022-06-19T14:32:23.293Z</time>
      </trkpt>
      <trkpt lat="43.01682" lon="-7.37356333">
        <ele>507.0</ele>
        <time>2022-06-19T14:32:24.310Z</time>
      </trkpt>
      <trkpt lat="43.01679833" lon="-7.373665">
        <ele>508.0</ele>
        <time>2022-06-19T14:32:25.291Z</time>
      </trkpt>
      <trkpt lat="43.01679833" lon="-7.373665">
        <ele>508.0</ele>
        <time>2022-06-19T14:32:26.290Z</time>
      </trkpt>
      <trkpt lat="43.01678833" lon="-7.373745">
        <ele>508.0</ele>
        <time>2022-06-19T14:32:27.306Z</time>
      </trkpt>
      <trkpt lat="43.01678" lon="-7.37378167">
        <ele>508.0</ele>
        <time>2022-06-19T14:32:28.296Z</time>
      </trkpt>
      <trkpt lat="43.01678" lon="-7.37378167">
        <ele>508.0</ele>
        <time>2022-06-19T14:32:29.292Z</time>
      </trkpt>
      <trkpt lat="43.01676667" lon="-7.37384333">
        <ele>509.0</ele>
        <time>2022-06-19T14:32:30.308Z</time>
      </trkpt>
      <trkpt lat="43.016765" lon="-7.37386667">
        <ele>509.0</ele>
        <time>2022-06-19T14:32:31.302Z</time>
      </trkpt>
      <trkpt lat="43.016765" lon="-7.37386667">
        <ele>509.0</ele>
        <time>2022-06-19T14:32:32.310Z</time>
      </trkpt>
      <trkpt lat="43.01677" lon="-7.37391">
        <ele>509.0</ele>
        <time>2022-06-19T14:32:33.276Z</time>
      </trkpt>
      <trkpt lat="43.01677" lon="-7.37391">
        <ele>509.0</ele>
        <time>2022-06-19T14:32:34.415Z</time>
      </trkpt>
      <trkpt lat="43.01677333" lon="-7.37393">
        <ele>510.0</ele>
        <time>2022-06-19T14:32:35.279Z</time>
      </trkpt>
      <trkpt lat="43.01677" lon="-7.37396667">
        <ele>510.0</ele>
        <time>2022-06-19T14:32:36.314Z</time>
      </trkpt>
      <trkpt lat="43.01677167" lon="-7.373985">
        <ele>510.0</ele>
        <time>2022-06-19T14:32:37.311Z</time>
      </trkpt>
      <trkpt lat="43.01677167" lon="-7.373985">
        <ele>510.0</ele>
        <time>2022-06-19T14:32:38.303Z</time>
      </trkpt>
      <trkpt lat="43.016765" lon="-7.37402167">
        <ele>511.0</ele>
        <time>2022-06-19T14:32:39.282Z</time>
      </trkpt>
      <trkpt lat="43.016765" lon="-7.37402167">
        <ele>511.0</ele>
        <time>2022-06-19T14:32:40.295Z</time>
      </trkpt>
      <trkpt lat="43.01676" lon="-7.37408">
        <ele>511.0</ele>
        <time>2022-06-19T14:32:41.284Z</time>
      </trkpt>
      <trkpt lat="43.01676" lon="-7.37408">
        <ele>511.0</ele>
        <time>2022-06-19T14:32:42.289Z</time>
      </trkpt>
      <trkpt lat="43.01675833" lon="-7.374155">
        <ele>511.0</ele>
        <time>2022-06-19T14:32:43.278Z</time>
      </trkpt>
      <trkpt lat="43.01675833" lon="-7.374155">
        <ele>511.0</ele>
        <time>2022-06-19T14:32:44.281Z</time>
      </trkpt>
      <trkpt lat="43.01676333" lon="-7.37421333">
        <ele>511.0</ele>
        <time>2022-06-19T14:32:45.297Z</time>
      </trkpt>
      <trkpt lat="43.01676333" lon="-7.37421333">
        <ele>511.0</ele>
        <time>2022-06-19T14:32:46.307Z</time>
      </trkpt>
      <trkpt lat="43.01678833" lon="-7.37427">
        <ele>511.0</ele>
        <time>2022-06-19T14:32:47.279Z</time>
      </trkpt>
      <trkpt lat="43.01678833" lon="-7.37427">
        <ele>511.0</ele>
        <time>2022-06-19T14:32:48.315Z</time>
      </trkpt>
      <trkpt lat="43.016815" lon="-7.37433167">
        <ele>511.0</ele>
        <time>2022-06-19T14:32:49.287Z</time>
      </trkpt>
      <trkpt lat="43.016815" lon="-7.37433167">
        <ele>511.0</ele>
        <time>2022-06-19T14:32:50.276Z</time>
      </trkpt>
      <trkpt lat="43.01684167" lon="-7.37439667">
        <ele>511.0</ele>
        <time>2022-06-19T14:32:51.293Z</time>
      </trkpt>
      <trkpt lat="43.01685333" lon="-7.37442833">
        <ele>511.0</ele>
        <time>2022-06-19T14:32:52.408Z</time>
      </trkpt>
      <trkpt lat="43.01685333" lon="-7.37442833">
        <ele>511.0</ele>
        <time>2022-06-19T14:32:53.298Z</time>
      </trkpt>
      <trkpt lat="43.016885" lon="-7.37451833">
        <ele>511.0</ele>
        <time>2022-06-19T14:32:54.310Z</time>
      </trkpt>
      <trkpt lat="43.01690167" lon="-7.37455333">
        <ele>511.0</ele>
        <time>2022-06-19T14:32:55.308Z</time>
      </trkpt>
      <trkpt lat="43.01690167" lon="-7.37455333">
        <ele>511.0</ele>
        <time>2022-06-19T14:32:56.543Z</time>
      </trkpt>
      <trkpt lat="43.01693" lon="-7.37460333">
        <ele>511.0</ele>
        <time>2022-06-19T14:32:57.283Z</time>
      </trkpt>
      <trkpt lat="43.01693" lon="-7.37460333">
        <ele>511.0</ele>
        <time>2022-06-19T14:32:58.300Z</time>
      </trkpt>
      <trkpt lat="43.01695833" lon="-7.37465833">
        <ele>510.0</ele>
        <time>2022-06-19T14:32:59.311Z</time>
      </trkpt>
      <trkpt lat="43.01695833" lon="-7.37465833">
        <ele>510.0</ele>
        <time>2022-06-19T14:33:00.298Z</time>
      </trkpt>
      <trkpt lat="43.01699167" lon="-7.37471333">
        <ele>510.0</ele>
        <time>2022-06-19T14:33:01.389Z</time>
      </trkpt>
      <trkpt lat="43.01700833" lon="-7.37474333">
        <ele>511.0</ele>
        <time>2022-06-19T14:33:02.294Z</time>
      </trkpt>
      <trkpt lat="43.01700833" lon="-7.37474333">
        <ele>511.0</ele>
        <time>2022-06-19T14:33:03.302Z</time>
      </trkpt>
      <trkpt lat="43.01704167" lon="-7.37479333">
        <ele>511.0</ele>
        <time>2022-06-19T14:33:04.315Z</time>
      </trkpt>
      <trkpt lat="43.01704167" lon="-7.37479333">
        <ele>511.0</ele>
        <time>2022-06-19T14:33:05.278Z</time>
      </trkpt>
      <trkpt lat="43.01707" lon="-7.37484333">
        <ele>511.0</ele>
        <time>2022-06-19T14:33:06.292Z</time>
      </trkpt>
      <trkpt lat="43.017085" lon="-7.37486833">
        <ele>511.0</ele>
        <time>2022-06-19T14:33:07.283Z</time>
      </trkpt>
      <trkpt lat="43.017085" lon="-7.37486833">
        <ele>511.0</ele>
        <time>2022-06-19T14:33:08.299Z</time>
      </trkpt>
      <trkpt lat="43.01711667" lon="-7.37491333">
        <ele>512.0</ele>
        <time>2022-06-19T14:33:09.284Z</time>
      </trkpt>
      <trkpt lat="43.01711667" lon="-7.37491333">
        <ele>512.0</ele>
        <time>2022-06-19T14:33:10.278Z</time>
      </trkpt>
      <trkpt lat="43.01714167" lon="-7.37495667">
        <ele>512.0</ele>
        <time>2022-06-19T14:33:11.292Z</time>
      </trkpt>
      <trkpt lat="43.01714167" lon="-7.37495667">
        <ele>512.0</ele>
        <time>2022-06-19T14:33:12.279Z</time>
      </trkpt>
      <trkpt lat="43.01716833" lon="-7.37499833">
        <ele>513.0</ele>
        <time>2022-06-19T14:33:13.286Z</time>
      </trkpt>
      <trkpt lat="43.01716833" lon="-7.37499833">
        <ele>513.0</ele>
        <time>2022-06-19T14:33:14.313Z</time>
      </trkpt>
      <trkpt lat="43.017195" lon="-7.37503333">
        <ele>514.0</ele>
        <time>2022-06-19T14:33:15.285Z</time>
      </trkpt>
      <trkpt lat="43.017195" lon="-7.37503333">
        <ele>514.0</ele>
        <time>2022-06-19T14:33:16.310Z</time>
      </trkpt>
      <trkpt lat="43.017215" lon="-7.37507">
        <ele>514.0</ele>
        <time>2022-06-19T14:33:17.408Z</time>
      </trkpt>
      <trkpt lat="43.017215" lon="-7.37507">
        <ele>514.0</ele>
        <time>2022-06-19T14:33:18.280Z</time>
      </trkpt>
      <trkpt lat="43.01724" lon="-7.375105">
        <ele>515.0</ele>
        <time>2022-06-19T14:33:19.294Z</time>
      </trkpt>
      <trkpt lat="43.01724" lon="-7.375105">
        <ele>515.0</ele>
        <time>2022-06-19T14:33:20.279Z</time>
      </trkpt>
      <trkpt lat="43.017265" lon="-7.37514167">
        <ele>515.0</ele>
        <time>2022-06-19T14:33:21.305Z</time>
      </trkpt>
      <trkpt lat="43.017265" lon="-7.37514167">
        <ele>515.0</ele>
        <time>2022-06-19T14:33:22.299Z</time>
      </trkpt>
      <trkpt lat="43.017285" lon="-7.375175">
        <ele>516.0</ele>
        <time>2022-06-19T14:33:23.314Z</time>
      </trkpt>
      <trkpt lat="43.017285" lon="-7.375175">
        <ele>516.0</ele>
        <time>2022-06-19T14:33:24.301Z</time>
      </trkpt>
      <trkpt lat="43.017315" lon="-7.375205">
        <ele>516.0</ele>
        <time>2022-06-19T14:33:25.316Z</time>
      </trkpt>
      <trkpt lat="43.017315" lon="-7.375205">
        <ele>516.0</ele>
        <time>2022-06-19T14:33:26.276Z</time>
      </trkpt>
      <trkpt lat="43.01733833" lon="-7.37523833">
        <ele>516.0</ele>
        <time>2022-06-19T14:33:27.313Z</time>
      </trkpt>
      <trkpt lat="43.01733833" lon="-7.37523833">
        <ele>516.0</ele>
        <time>2022-06-19T14:33:28.301Z</time>
      </trkpt>
      <trkpt lat="43.01736167" lon="-7.375265">
        <ele>517.0</ele>
        <time>2022-06-19T14:33:29.277Z</time>
      </trkpt>
      <trkpt lat="43.01737667" lon="-7.37528167">
        <ele>517.0</ele>
        <time>2022-06-19T14:33:30.296Z</time>
      </trkpt>
      <trkpt lat="43.01737667" lon="-7.37528167">
        <ele>517.0</ele>
        <time>2022-06-19T14:33:31.276Z</time>
      </trkpt>
      <trkpt lat="43.01739833" lon="-7.37530833">
        <ele>517.0</ele>
        <time>2022-06-19T14:33:32.291Z</time>
      </trkpt>
      <trkpt lat="43.01739833" lon="-7.37530833">
        <ele>517.0</ele>
        <time>2022-06-19T14:33:33.298Z</time>
      </trkpt>
      <trkpt lat="43.01742167" lon="-7.37533833">
        <ele>518.0</ele>
        <time>2022-06-19T14:33:34.311Z</time>
      </trkpt>
      <trkpt lat="43.01743" lon="-7.37535667">
        <ele>518.0</ele>
        <time>2022-06-19T14:33:35.323Z</time>
      </trkpt>
      <trkpt lat="43.01743" lon="-7.37535667">
        <ele>518.0</ele>
        <time>2022-06-19T14:33:36.315Z</time>
      </trkpt>
      <trkpt lat="43.01744667" lon="-7.37538833">
        <ele>519.0</ele>
        <time>2022-06-19T14:33:37.296Z</time>
      </trkpt>
      <trkpt lat="43.01744667" lon="-7.37538833">
        <ele>519.0</ele>
        <time>2022-06-19T14:33:38.305Z</time>
      </trkpt>
      <trkpt lat="43.01746833" lon="-7.37541333">
        <ele>519.0</ele>
        <time>2022-06-19T14:33:39.402Z</time>
      </trkpt>
      <trkpt lat="43.01746833" lon="-7.37541333">
        <ele>519.0</ele>
        <time>2022-06-19T14:33:40.277Z</time>
      </trkpt>
      <trkpt lat="43.01748167" lon="-7.37544">
        <ele>519.0</ele>
        <time>2022-06-19T14:33:41.296Z</time>
      </trkpt>
      <trkpt lat="43.01749" lon="-7.375455">
        <ele>520.0</ele>
        <time>2022-06-19T14:33:42.278Z</time>
      </trkpt>
      <trkpt lat="43.01749167" lon="-7.375465">
        <ele>520.0</ele>
        <time>2022-06-19T14:33:43.284Z</time>
      </trkpt>
      <trkpt lat="43.01749167" lon="-7.375465">
        <ele>520.0</ele>
        <time>2022-06-19T14:33:44.290Z</time>
      </trkpt>
      <trkpt lat="43.0175" lon="-7.37549833">
        <ele>521.0</ele>
        <time>2022-06-19T14:33:45.308Z</time>
      </trkpt>
      <trkpt lat="43.0175" lon="-7.37549833">
        <ele>521.0</ele>
        <time>2022-06-19T14:33:46.314Z</time>
      </trkpt>
      <trkpt lat="43.017515" lon="-7.37555">
        <ele>522.0</ele>
        <time>2022-06-19T14:33:47.284Z</time>
      </trkpt>
      <trkpt lat="43.01751667" lon="-7.37557167">
        <ele>522.0</ele>
        <time>2022-06-19T14:33:48.298Z</time>
      </trkpt>
      <trkpt lat="43.017515" lon="-7.37559333">
        <ele>522.0</ele>
        <time>2022-06-19T14:33:49.311Z</time>
      </trkpt>
      <trkpt lat="43.017515" lon="-7.37559333">
        <ele>522.0</ele>
        <time>2022-06-19T14:33:50.299Z</time>
      </trkpt>
      <trkpt lat="43.01752667" lon="-7.37563333">
        <ele>523.0</ele>
        <time>2022-06-19T14:33:51.276Z</time>
      </trkpt>
      <trkpt lat="43.01753" lon="-7.37565">
        <ele>523.0</ele>
        <time>2022-06-19T14:33:52.315Z</time>
      </trkpt>
      <trkpt lat="43.01753333" lon="-7.37567">
        <ele>523.0</ele>
        <time>2022-06-19T14:33:53.282Z</time>
      </trkpt>
      <trkpt lat="43.01753333" lon="-7.37567">
        <ele>523.0</ele>
        <time>2022-06-19T14:33:54.290Z</time>
      </trkpt>
      <trkpt lat="43.01754" lon="-7.37572333">
        <ele>524.0</ele>
        <time>2022-06-19T14:33:55.520Z</time>
      </trkpt>
      <trkpt lat="43.01754" lon="-7.37572333">
        <ele>524.0</ele>
        <time>2022-06-19T14:33:56.287Z</time>
      </trkpt>
      <trkpt lat="43.017555" lon="-7.37576667">
        <ele>524.0</ele>
        <time>2022-06-19T14:33:57.314Z</time>
      </trkpt>
      <trkpt lat="43.01756167" lon="-7.37579167">
        <ele>524.0</ele>
        <time>2022-06-19T14:33:58.309Z</time>
      </trkpt>
      <trkpt lat="43.01756167" lon="-7.37579167">
        <ele>524.0</ele>
        <time>2022-06-19T14:33:59.298Z</time>
      </trkpt>
      <trkpt lat="43.01757833" lon="-7.375845">
        <ele>525.0</ele>
        <time>2022-06-19T14:34:00.312Z</time>
      </trkpt>
      <trkpt lat="43.01758833" lon="-7.37586667">
        <ele>525.0</ele>
        <time>2022-06-19T14:34:01.282Z</time>
      </trkpt>
      <trkpt lat="43.01758833" lon="-7.37586667">
        <ele>525.0</ele>
        <time>2022-06-19T14:34:02.297Z</time>
      </trkpt>
      <trkpt lat="43.01761" lon="-7.37591333">
        <ele>526.0</ele>
        <time>2022-06-19T14:34:03.397Z</time>
      </trkpt>
      <trkpt lat="43.01761" lon="-7.37591333">
        <ele>526.0</ele>
        <time>2022-06-19T14:34:04.288Z</time>
      </trkpt>
      <trkpt lat="43.01762833" lon="-7.37595">
        <ele>526.0</ele>
        <time>2022-06-19T14:34:05.282Z</time>
      </trkpt>
      <trkpt lat="43.01762833" lon="-7.37595">
        <ele>526.0</ele>
        <time>2022-06-19T14:34:06.308Z</time>
      </trkpt>
      <trkpt lat="43.01764333" lon="-7.375995">
        <ele>527.0</ele>
        <time>2022-06-19T14:34:07.284Z</time>
      </trkpt>
      <trkpt lat="43.01764333" lon="-7.375995">
        <ele>527.0</ele>
        <time>2022-06-19T14:34:08.288Z</time>
      </trkpt>
      <trkpt lat="43.01766333" lon="-7.37602833">
        <ele>528.0</ele>
        <time>2022-06-19T14:34:09.308Z</time>
      </trkpt>
      <trkpt lat="43.01766333" lon="-7.37602833">
        <ele>528.0</ele>
        <time>2022-06-19T14:34:10.291Z</time>
      </trkpt>
      <trkpt lat="43.01767667" lon="-7.37605833">
        <ele>528.0</ele>
        <time>2022-06-19T14:34:11.310Z</time>
      </trkpt>
      <trkpt lat="43.01767667" lon="-7.37605833">
        <ele>528.0</ele>
        <time>2022-06-19T14:34:12.287Z</time>
      </trkpt>
      <trkpt lat="43.01768" lon="-7.37609333">
        <ele>529.0</ele>
        <time>2022-06-19T14:34:13.299Z</time>
      </trkpt>
      <trkpt lat="43.01768" lon="-7.37609333">
        <ele>529.0</ele>
        <time>2022-06-19T14:34:14.280Z</time>
      </trkpt>
      <trkpt lat="43.01769" lon="-7.37613333">
        <ele>529.0</ele>
        <time>2022-06-19T14:34:15.298Z</time>
      </trkpt>
      <trkpt lat="43.01770667" lon="-7.37616">
        <ele>529.0</ele>
        <time>2022-06-19T14:34:16.286Z</time>
      </trkpt>
      <trkpt lat="43.01770667" lon="-7.37616">
        <ele>529.0</ele>
        <time>2022-06-19T14:34:17.279Z</time>
      </trkpt>
      <trkpt lat="43.01772" lon="-7.37620667">
        <ele>530.0</ele>
        <time>2022-06-19T14:34:18.297Z</time>
      </trkpt>
      <trkpt lat="43.017725" lon="-7.37623667">
        <ele>531.0</ele>
        <time>2022-06-19T14:34:19.298Z</time>
      </trkpt>
      <trkpt lat="43.017725" lon="-7.37623667">
        <ele>531.0</ele>
        <time>2022-06-19T14:34:20.279Z</time>
      </trkpt>
      <trkpt lat="43.01772667" lon="-7.37629167">
        <ele>531.0</ele>
        <time>2022-06-19T14:34:21.292Z</time>
      </trkpt>
      <trkpt lat="43.01773" lon="-7.37631833">
        <ele>531.0</ele>
        <time>2022-06-19T14:34:22.284Z</time>
      </trkpt>
      <trkpt lat="43.01773" lon="-7.37631833">
        <ele>531.0</ele>
        <time>2022-06-19T14:34:23.286Z</time>
      </trkpt>
      <trkpt lat="43.01775167" lon="-7.376375">
        <ele>532.0</ele>
        <time>2022-06-19T14:34:24.393Z</time>
      </trkpt>
      <trkpt lat="43.01775167" lon="-7.376375">
        <ele>532.0</ele>
        <time>2022-06-19T14:34:25.305Z</time>
      </trkpt>
      <trkpt lat="43.01775167" lon="-7.37645167">
        <ele>532.0</ele>
        <time>2022-06-19T14:34:26.287Z</time>
      </trkpt>
      <trkpt lat="43.01774333" lon="-7.37649333">
        <ele>532.0</ele>
        <time>2022-06-19T14:34:27.305Z</time>
      </trkpt>
      <trkpt lat="43.01774333" lon="-7.37649333">
        <ele>532.0</ele>
        <time>2022-06-19T14:34:28.280Z</time>
      </trkpt>
      <trkpt lat="43.01773167" lon="-7.37659667">
        <ele>533.0</ele>
        <time>2022-06-19T14:34:29.293Z</time>
      </trkpt>
      <trkpt lat="43.01773167" lon="-7.37659667">
        <ele>533.0</ele>
        <time>2022-06-19T14:34:30.289Z</time>
      </trkpt>
      <trkpt lat="43.01771667" lon="-7.37667833">
        <ele>533.0</ele>
        <time>2022-06-19T14:34:31.303Z</time>
      </trkpt>
      <trkpt lat="43.01771667" lon="-7.37667833">
        <ele>533.0</ele>
        <time>2022-06-19T14:34:32.296Z</time>
      </trkpt>
      <trkpt lat="43.01771833" lon="-7.37676833">
        <ele>533.0</ele>
        <time>2022-06-19T14:34:33.316Z</time>
      </trkpt>
      <trkpt lat="43.01772667" lon="-7.37682">
        <ele>533.0</ele>
        <time>2022-06-19T14:34:34.309Z</time>
      </trkpt>
      <trkpt lat="43.01772667" lon="-7.37682">
        <ele>533.0</ele>
        <time>2022-06-19T14:34:35.286Z</time>
      </trkpt>
      <trkpt lat="43.01772667" lon="-7.37691333">
        <ele>533.0</ele>
        <time>2022-06-19T14:34:36.297Z</time>
      </trkpt>
      <trkpt lat="43.01772833" lon="-7.37695333">
        <ele>534.0</ele>
        <time>2022-06-19T14:34:37.280Z</time>
      </trkpt>
      <trkpt lat="43.01772833" lon="-7.37695333">
        <ele>534.0</ele>
        <time>2022-06-19T14:34:38.279Z</time>
      </trkpt>
      <trkpt lat="43.01771833" lon="-7.37703833">
        <ele>534.0</ele>
        <time>2022-06-19T14:34:39.295Z</time>
      </trkpt>
      <trkpt lat="43.01771833" lon="-7.37703833">
        <ele>534.0</ele>
        <time>2022-06-19T14:34:40.280Z</time>
      </trkpt>
      <trkpt lat="43.01770333" lon="-7.37712">
        <ele>534.0</ele>
        <time>2022-06-19T14:34:41.291Z</time>
      </trkpt>
      <trkpt lat="43.01770333" lon="-7.37712">
        <ele>534.0</ele>
        <time>2022-06-19T14:34:42.293Z</time>
      </trkpt>
      <trkpt lat="43.01768667" lon="-7.37721833">
        <ele>535.0</ele>
        <time>2022-06-19T14:34:43.279Z</time>
      </trkpt>
      <trkpt lat="43.01768667" lon="-7.37721833">
        <ele>535.0</ele>
        <time>2022-06-19T14:34:44.290Z</time>
      </trkpt>
      <trkpt lat="43.01768667" lon="-7.37721833">
        <ele>535.0</ele>
        <time>2022-06-19T14:34:45.407Z</time>
      </trkpt>
      <trkpt lat="43.017665" lon="-7.37731667">
        <ele>536.0</ele>
        <time>2022-06-19T14:34:46.288Z</time>
      </trkpt>
      <trkpt lat="43.01765333" lon="-7.37740333">
        <ele>536.0</ele>
        <time>2022-06-19T14:34:47.299Z</time>
      </trkpt>
      <trkpt lat="43.01765333" lon="-7.37740333">
        <ele>536.0</ele>
        <time>2022-06-19T14:34:48.299Z</time>
      </trkpt>
      <trkpt lat="43.01765" lon="-7.37747">
        <ele>536.0</ele>
        <time>2022-06-19T14:34:49.308Z</time>
      </trkpt>
      <trkpt lat="43.01765" lon="-7.37747">
        <ele>536.0</ele>
        <time>2022-06-19T14:34:50.293Z</time>
      </trkpt>
      <trkpt lat="43.01764833" lon="-7.37752833">
        <ele>536.0</ele>
        <time>2022-06-19T14:34:51.305Z</time>
      </trkpt>
      <trkpt lat="43.01764833" lon="-7.37752833">
        <ele>536.0</ele>
        <time>2022-06-19T14:34:52.302Z</time>
      </trkpt>
      <trkpt lat="43.01764667" lon="-7.37757833">
        <ele>537.0</ele>
        <time>2022-06-19T14:34:53.315Z</time>
      </trkpt>
      <trkpt lat="43.01764667" lon="-7.37757833">
        <ele>537.0</ele>
        <time>2022-06-19T14:34:54.296Z</time>
      </trkpt>
      <trkpt lat="43.01764833" lon="-7.37762167">
        <ele>537.0</ele>
        <time>2022-06-19T14:34:55.286Z</time>
      </trkpt>
      <trkpt lat="43.01764833" lon="-7.37762167">
        <ele>537.0</ele>
        <time>2022-06-19T14:34:56.309Z</time>
      </trkpt>
      <trkpt lat="43.01764333" lon="-7.377705">
        <ele>537.0</ele>
        <time>2022-06-19T14:34:57.280Z</time>
      </trkpt>
      <trkpt lat="43.01764333" lon="-7.377705">
        <ele>537.0</ele>
        <time>2022-06-19T14:34:58.309Z</time>
      </trkpt>
      <trkpt lat="43.01766667" lon="-7.37781667">
        <ele>537.0</ele>
        <time>2022-06-19T14:34:59.282Z</time>
      </trkpt>
      <trkpt lat="43.01766667" lon="-7.37781667">
        <ele>537.0</ele>
        <time>2022-06-19T14:35:00.300Z</time>
      </trkpt>
      <trkpt lat="43.01769167" lon="-7.37792833">
        <ele>538.0</ele>
        <time>2022-06-19T14:35:01.282Z</time>
      </trkpt>
      <trkpt lat="43.01769167" lon="-7.37792833">
        <ele>538.0</ele>
        <time>2022-06-19T14:35:02.297Z</time>
      </trkpt>
      <trkpt lat="43.017705" lon="-7.37801667">
        <ele>538.0</ele>
        <time>2022-06-19T14:35:03.308Z</time>
      </trkpt>
      <trkpt lat="43.017705" lon="-7.37801667">
        <ele>538.0</ele>
        <time>2022-06-19T14:35:04.309Z</time>
      </trkpt>
      <trkpt lat="43.017705" lon="-7.37801667">
        <ele>538.0</ele>
        <time>2022-06-19T14:35:05.389Z</time>
      </trkpt>
      <trkpt lat="43.01771167" lon="-7.37814">
        <ele>538.0</ele>
        <time>2022-06-19T14:35:06.279Z</time>
      </trkpt>
      <trkpt lat="43.01771333" lon="-7.37818">
        <ele>538.0</ele>
        <time>2022-06-19T14:35:07.286Z</time>
      </trkpt>
      <trkpt lat="43.01771333" lon="-7.37818">
        <ele>538.0</ele>
        <time>2022-06-19T14:35:08.300Z</time>
      </trkpt>
      <trkpt lat="43.01772167" lon="-7.37826333">
        <ele>537.0</ele>
        <time>2022-06-19T14:35:09.314Z</time>
      </trkpt>
      <trkpt lat="43.01772167" lon="-7.37826333">
        <ele>537.0</ele>
        <time>2022-06-19T14:35:10.289Z</time>
      </trkpt>
      <trkpt lat="43.01773333" lon="-7.37834">
        <ele>537.0</ele>
        <time>2022-06-19T14:35:11.301Z</time>
      </trkpt>
      <trkpt lat="43.01773333" lon="-7.37834">
        <ele>537.0</ele>
        <time>2022-06-19T14:35:12.279Z</time>
      </trkpt>
      <trkpt lat="43.01774833" lon="-7.37841833">
        <ele>537.0</ele>
        <time>2022-06-19T14:35:13.295Z</time>
      </trkpt>
      <trkpt lat="43.01774833" lon="-7.37841833">
        <ele>537.0</ele>
        <time>2022-06-19T14:35:14.281Z</time>
      </trkpt>
      <trkpt lat="43.017775" lon="-7.37847">
        <ele>537.0</ele>
        <time>2022-06-19T14:35:15.307Z</time>
      </trkpt>
      <trkpt lat="43.01778167" lon="-7.378495">
        <ele>536.0</ele>
        <time>2022-06-19T14:35:16.308Z</time>
      </trkpt>
      <trkpt lat="43.01778167" lon="-7.378495">
        <ele>536.0</ele>
        <time>2022-06-19T14:35:17.308Z</time>
      </trkpt>
      <trkpt lat="43.01780167" lon="-7.37852833">
        <ele>535.0</ele>
        <time>2022-06-19T14:35:18.281Z</time>
      </trkpt>
      <trkpt lat="43.01781" lon="-7.37854833">
        <ele>535.0</ele>
        <time>2022-06-19T14:35:19.311Z</time>
      </trkpt>
      <trkpt lat="43.01781" lon="-7.37854833">
        <ele>535.0</ele>
        <time>2022-06-19T14:35:20.282Z</time>
      </trkpt>
      <trkpt lat="43.01782167" lon="-7.378585">
        <ele>534.0</ele>
        <time>2022-06-19T14:35:21.311Z</time>
      </trkpt>
      <trkpt lat="43.01782167" lon="-7.378585">
        <ele>534.0</ele>
        <time>2022-06-19T14:35:22.315Z</time>
      </trkpt>
      <trkpt lat="43.01782167" lon="-7.378585">
        <ele>534.0</ele>
        <time>2022-06-19T14:35:23.402Z</time>
      </trkpt>
      <trkpt lat="43.01784167" lon="-7.378615">
        <ele>533.0</ele>
        <time>2022-06-19T14:35:24.299Z</time>
      </trkpt>
      <trkpt lat="43.01787" lon="-7.37865">
        <ele>533.0</ele>
        <time>2022-06-19T14:35:25.312Z</time>
      </trkpt>
      <trkpt lat="43.01787" lon="-7.37865">
        <ele>533.0</ele>
        <time>2022-06-19T14:35:26.289Z</time>
      </trkpt>
      <trkpt lat="43.017905" lon="-7.37869167">
        <ele>533.0</ele>
        <time>2022-06-19T14:35:27.305Z</time>
      </trkpt>
      <trkpt lat="43.017905" lon="-7.37869167">
        <ele>533.0</ele>
        <time>2022-06-19T14:35:28.279Z</time>
      </trkpt>
      <trkpt lat="43.01793833" lon="-7.37873667">
        <ele>532.0</ele>
        <time>2022-06-19T14:35:29.288Z</time>
      </trkpt>
      <trkpt lat="43.01793833" lon="-7.37873667">
        <ele>532.0</ele>
        <time>2022-06-19T14:35:30.288Z</time>
      </trkpt>
      <trkpt lat="43.01796667" lon="-7.37878167">
        <ele>532.0</ele>
        <time>2022-06-19T14:35:31.301Z</time>
      </trkpt>
      <trkpt lat="43.01796667" lon="-7.37878167">
        <ele>532.0</ele>
        <time>2022-06-19T14:35:32.291Z</time>
      </trkpt>
      <trkpt lat="43.017995" lon="-7.378835">
        <ele>531.0</ele>
        <time>2022-06-19T14:35:33.305Z</time>
      </trkpt>
      <trkpt lat="43.01801" lon="-7.37886167">
        <ele>531.0</ele>
        <time>2022-06-19T14:35:34.318Z</time>
      </trkpt>
      <trkpt lat="43.01801" lon="-7.37886167">
        <ele>531.0</ele>
        <time>2022-06-19T14:35:35.279Z</time>
      </trkpt>
      <trkpt lat="43.01804333" lon="-7.37891333">
        <ele>531.0</ele>
        <time>2022-06-19T14:35:36.300Z</time>
      </trkpt>
      <trkpt lat="43.01805833" lon="-7.37894">
        <ele>531.0</ele>
        <time>2022-06-19T14:35:37.283Z</time>
      </trkpt>
      <trkpt lat="43.01805833" lon="-7.37894">
        <ele>531.0</ele>
        <time>2022-06-19T14:35:38.315Z</time>
      </trkpt>
      <trkpt lat="43.01809" lon="-7.37899">
        <ele>531.0</ele>
        <time>2022-06-19T14:35:39.292Z</time>
      </trkpt>
      <trkpt lat="43.01810667" lon="-7.37901333">
        <ele>531.0</ele>
        <time>2022-06-19T14:35:40.408Z</time>
      </trkpt>
      <trkpt lat="43.01810667" lon="-7.37901333">
        <ele>531.0</ele>
        <time>2022-06-19T14:35:41.289Z</time>
      </trkpt>
      <trkpt lat="43.01813833" lon="-7.37905667">
        <ele>531.0</ele>
        <time>2022-06-19T14:35:42.302Z</time>
      </trkpt>
      <trkpt lat="43.01815" lon="-7.37907833">
        <ele>530.0</ele>
        <time>2022-06-19T14:35:43.308Z</time>
      </trkpt>
      <trkpt lat="43.01815" lon="-7.37907833">
        <ele>530.0</ele>
        <time>2022-06-19T14:35:44.299Z</time>
      </trkpt>
      <trkpt lat="43.018175" lon="-7.37912167">
        <ele>530.0</ele>
        <time>2022-06-19T14:35:45.316Z</time>
      </trkpt>
      <trkpt lat="43.018175" lon="-7.37912167">
        <ele>530.0</ele>
        <time>2022-06-19T14:35:46.299Z</time>
      </trkpt>
      <trkpt lat="43.01819667" lon="-7.37915167">
        <ele>529.0</ele>
        <time>2022-06-19T14:35:47.313Z</time>
      </trkpt>
      <trkpt lat="43.01819667" lon="-7.37915167">
        <ele>529.0</ele>
        <time>2022-06-19T14:35:48.304Z</time>
      </trkpt>
      <trkpt lat="43.01820167" lon="-7.37916">
        <ele>529.0</ele>
        <time>2022-06-19T14:35:49.312Z</time>
      </trkpt>
      <trkpt lat="43.01820167" lon="-7.37916">
        <ele>529.0</ele>
        <time>2022-06-19T14:35:50.297Z</time>
      </trkpt>
      <trkpt lat="43.01821167" lon="-7.37920667">
        <ele>529.0</ele>
        <time>2022-06-19T14:35:51.311Z</time>
      </trkpt>
      <trkpt lat="43.01821167" lon="-7.37920667">
        <ele>529.0</ele>
        <time>2022-06-19T14:35:52.307Z</time>
      </trkpt>
      <trkpt lat="43.018215" lon="-7.37928167">
        <ele>528.0</ele>
        <time>2022-06-19T14:35:53.278Z</time>
      </trkpt>
      <trkpt lat="43.018215" lon="-7.37928167">
        <ele>528.0</ele>
        <time>2022-06-19T14:35:54.276Z</time>
      </trkpt>
      <trkpt lat="43.01820667" lon="-7.37937833">
        <ele>527.0</ele>
        <time>2022-06-19T14:35:55.304Z</time>
      </trkpt>
      <trkpt lat="43.01820667" lon="-7.37937833">
        <ele>527.0</ele>
        <time>2022-06-19T14:35:56.303Z</time>
      </trkpt>
      <trkpt lat="43.018185" lon="-7.37949833">
        <ele>527.0</ele>
        <time>2022-06-19T14:35:57.298Z</time>
      </trkpt>
      <trkpt lat="43.01817" lon="-7.379565">
        <ele>526.0</ele>
        <time>2022-06-19T14:35:58.320Z</time>
      </trkpt>
      <trkpt lat="43.01817" lon="-7.379565">
        <ele>526.0</ele>
        <time>2022-06-19T14:35:59.310Z</time>
      </trkpt>
      <trkpt lat="43.01813667" lon="-7.379705">
        <ele>525.0</ele>
        <time>2022-06-19T14:36:00.284Z</time>
      </trkpt>
      <trkpt lat="43.01811833" lon="-7.37977833">
        <ele>525.0</ele>
        <time>2022-06-19T14:36:01.302Z</time>
      </trkpt>
      <trkpt lat="43.01811833" lon="-7.37977833">
        <ele>525.0</ele>
        <time>2022-06-19T14:36:02.308Z</time>
      </trkpt>
      <trkpt lat="43.01808667" lon="-7.37992833">
        <ele>524.0</ele>
        <time>2022-06-19T14:36:03.296Z</time>
      </trkpt>
      <trkpt lat="43.01807333" lon="-7.38001167">
        <ele>523.0</ele>
        <time>2022-06-19T14:36:04.287Z</time>
      </trkpt>
      <trkpt lat="43.01807333" lon="-7.38001167">
        <ele>523.0</ele>
        <time>2022-06-19T14:36:05.296Z</time>
      </trkpt>
      <trkpt lat="43.01806167" lon="-7.380185">
        <ele>524.0</ele>
        <time>2022-06-19T14:36:06.308Z</time>
      </trkpt>
      <trkpt lat="43.01806167" lon="-7.380185">
        <ele>524.0</ele>
        <time>2022-06-19T14:36:07.300Z</time>
      </trkpt>
      <trkpt lat="43.01806833" lon="-7.38036333">
        <ele>523.0</ele>
        <time>2022-06-19T14:36:08.311Z</time>
      </trkpt>
      <trkpt lat="43.01806833" lon="-7.38036333">
        <ele>523.0</ele>
        <time>2022-06-19T14:36:09.315Z</time>
      </trkpt>
      <trkpt lat="43.01810667" lon="-7.380535">
        <ele>522.0</ele>
        <time>2022-06-19T14:36:10.285Z</time>
      </trkpt>
      <trkpt lat="43.01810667" lon="-7.380535">
        <ele>522.0</ele>
        <time>2022-06-19T14:36:11.292Z</time>
      </trkpt>
      <trkpt lat="43.018165" lon="-7.38069833">
        <ele>521.0</ele>
        <time>2022-06-19T14:36:12.305Z</time>
      </trkpt>
      <trkpt lat="43.01818833" lon="-7.380785">
        <ele>521.0</ele>
        <time>2022-06-19T14:36:13.314Z</time>
      </trkpt>
      <trkpt lat="43.018205" lon="-7.38087667">
        <ele>521.0</ele>
        <time>2022-06-19T14:36:14.416Z</time>
      </trkpt>
      <trkpt lat="43.018205" lon="-7.38087667">
        <ele>521.0</ele>
        <time>2022-06-19T14:36:15.313Z</time>
      </trkpt>
      <trkpt lat="43.018225" lon="-7.38106833">
        <ele>520.0</ele>
        <time>2022-06-19T14:36:16.281Z</time>
      </trkpt>
      <trkpt lat="43.01823" lon="-7.38116167">
        <ele>519.0</ele>
        <time>2022-06-19T14:36:17.276Z</time>
      </trkpt>
      <trkpt lat="43.01823" lon="-7.38116167">
        <ele>519.0</ele>
        <time>2022-06-19T14:36:18.304Z</time>
      </trkpt>
      <trkpt lat="43.01824167" lon="-7.38132">
        <ele>518.0</ele>
        <time>2022-06-19T14:36:19.276Z</time>
      </trkpt>
      <trkpt lat="43.01824167" lon="-7.38132">
        <ele>518.0</ele>
        <time>2022-06-19T14:36:20.311Z</time>
      </trkpt>
      <trkpt lat="43.018255" lon="-7.38145">
        <ele>517.0</ele>
        <time>2022-06-19T14:36:21.285Z</time>
      </trkpt>
      <trkpt lat="43.01826" lon="-7.38150167">
        <ele>517.0</ele>
        <time>2022-06-19T14:36:22.295Z</time>
      </trkpt>
      <trkpt lat="43.018265" lon="-7.38154">
        <ele>517.0</ele>
        <time>2022-06-19T14:36:23.290Z</time>
      </trkpt>
      <trkpt lat="43.018265" lon="-7.38154">
        <ele>517.0</ele>
        <time>2022-06-19T14:36:24.300Z</time>
      </trkpt>
      <trkpt lat="43.01827" lon="-7.38161">
        <ele>516.0</ele>
        <time>2022-06-19T14:36:25.276Z</time>
      </trkpt>
      <trkpt lat="43.01827" lon="-7.38161">
        <ele>516.0</ele>
        <time>2022-06-19T14:36:26.289Z</time>
      </trkpt>
      <trkpt lat="43.01827333" lon="-7.38169667">
        <ele>516.0</ele>
        <time>2022-06-19T14:36:27.307Z</time>
      </trkpt>
      <trkpt lat="43.01827333" lon="-7.38169667">
        <ele>516.0</ele>
        <time>2022-06-19T14:36:28.281Z</time>
      </trkpt>
      <trkpt lat="43.018265" lon="-7.38179833">
        <ele>516.0</ele>
        <time>2022-06-19T14:36:29.298Z</time>
      </trkpt>
      <trkpt lat="43.018265" lon="-7.38179833">
        <ele>516.0</ele>
        <time>2022-06-19T14:36:30.309Z</time>
      </trkpt>
      <trkpt lat="43.018235" lon="-7.381925">
        <ele>515.0</ele>
        <time>2022-06-19T14:36:31.281Z</time>
      </trkpt>
      <trkpt lat="43.018235" lon="-7.381925">
        <ele>515.0</ele>
        <time>2022-06-19T14:36:32.309Z</time>
      </trkpt>
      <trkpt lat="43.01819167" lon="-7.38206167">
        <ele>515.0</ele>
        <time>2022-06-19T14:36:33.276Z</time>
      </trkpt>
      <trkpt lat="43.01819167" lon="-7.38206167">
        <ele>515.0</ele>
        <time>2022-06-19T14:36:34.292Z</time>
      </trkpt>
      <trkpt lat="43.01819167" lon="-7.38206167">
        <ele>515.0</ele>
        <time>2022-06-19T14:36:35.420Z</time>
      </trkpt>
      <trkpt lat="43.01813333" lon="-7.38220167">
        <ele>514.0</ele>
        <time>2022-06-19T14:36:36.308Z</time>
      </trkpt>
      <trkpt lat="43.018035" lon="-7.38230667">
        <ele>513.0</ele>
        <time>2022-06-19T14:36:37.312Z</time>
      </trkpt>
      <trkpt lat="43.018035" lon="-7.38230667">
        <ele>513.0</ele>
        <time>2022-06-19T14:36:38.292Z</time>
      </trkpt>
      <trkpt lat="43.017915" lon="-7.38239833">
        <ele>513.0</ele>
        <time>2022-06-19T14:36:39.291Z</time>
      </trkpt>
      <trkpt lat="43.017915" lon="-7.38239833">
        <ele>513.0</ele>
        <time>2022-06-19T14:36:40.304Z</time>
      </trkpt>
      <trkpt lat="43.01781833" lon="-7.38251167">
        <ele>512.0</ele>
        <time>2022-06-19T14:36:41.315Z</time>
      </trkpt>
      <trkpt lat="43.01781833" lon="-7.38251167">
        <ele>512.0</ele>
        <time>2022-06-19T14:36:42.279Z</time>
      </trkpt>
      <trkpt lat="43.01774333" lon="-7.38262833">
        <ele>511.0</ele>
        <time>2022-06-19T14:36:43.293Z</time>
      </trkpt>
      <trkpt lat="43.01774333" lon="-7.38262833">
        <ele>511.0</ele>
        <time>2022-06-19T14:36:44.277Z</time>
      </trkpt>
      <trkpt lat="43.01769833" lon="-7.38277667">
        <ele>509.0</ele>
        <time>2022-06-19T14:36:45.298Z</time>
      </trkpt>
      <trkpt lat="43.01769833" lon="-7.38277667">
        <ele>509.0</ele>
        <time>2022-06-19T14:36:46.279Z</time>
      </trkpt>
      <trkpt lat="43.01764667" lon="-7.38295833">
        <ele>507.0</ele>
        <time>2022-06-19T14:36:47.304Z</time>
      </trkpt>
      <trkpt lat="43.01764667" lon="-7.38295833">
        <ele>507.0</ele>
        <time>2022-06-19T14:36:48.311Z</time>
      </trkpt>
      <trkpt lat="43.0176" lon="-7.38314667">
        <ele>505.0</ele>
        <time>2022-06-19T14:36:49.286Z</time>
      </trkpt>
      <trkpt lat="43.0176" lon="-7.38314667">
        <ele>505.0</ele>
        <time>2022-06-19T14:36:50.292Z</time>
      </trkpt>
      <trkpt lat="43.01758" lon="-7.38335">
        <ele>504.0</ele>
        <time>2022-06-19T14:36:51.344Z</time>
      </trkpt>
      <trkpt lat="43.01758" lon="-7.38335">
        <ele>504.0</ele>
        <time>2022-06-19T14:36:52.312Z</time>
      </trkpt>
      <trkpt lat="43.017605" lon="-7.38355">
        <ele>504.0</ele>
        <time>2022-06-19T14:36:53.282Z</time>
      </trkpt>
      <trkpt lat="43.017605" lon="-7.38355">
        <ele>504.0</ele>
        <time>2022-06-19T14:36:54.290Z</time>
      </trkpt>
      <trkpt lat="43.01765667" lon="-7.38372667">
        <ele>505.0</ele>
        <time>2022-06-19T14:36:55.413Z</time>
      </trkpt>
      <trkpt lat="43.01765667" lon="-7.38372667">
        <ele>505.0</ele>
        <time>2022-06-19T14:36:56.296Z</time>
      </trkpt>
      <trkpt lat="43.01769833" lon="-7.38389667">
        <ele>504.0</ele>
        <time>2022-06-19T14:36:57.306Z</time>
      </trkpt>
      <trkpt lat="43.01769833" lon="-7.38389667">
        <ele>504.0</ele>
        <time>2022-06-19T14:36:58.292Z</time>
      </trkpt>
      <trkpt lat="43.01769333" lon="-7.38406833">
        <ele>505.0</ele>
        <time>2022-06-19T14:36:59.307Z</time>
      </trkpt>
      <trkpt lat="43.01767167" lon="-7.384145">
        <ele>504.0</ele>
        <time>2022-06-19T14:37:00.298Z</time>
      </trkpt>
      <trkpt lat="43.01767167" lon="-7.384145">
        <ele>504.0</ele>
        <time>2022-06-19T14:37:01.280Z</time>
      </trkpt>
      <trkpt lat="43.01761333" lon="-7.38427833">
        <ele>504.0</ele>
        <time>2022-06-19T14:37:02.291Z</time>
      </trkpt>
      <trkpt lat="43.01761333" lon="-7.38427833">
        <ele>504.0</ele>
        <time>2022-06-19T14:37:03.315Z</time>
      </trkpt>
      <trkpt lat="43.01755333" lon="-7.38439333">
        <ele>504.0</ele>
        <time>2022-06-19T14:37:04.283Z</time>
      </trkpt>
      <trkpt lat="43.01755333" lon="-7.38439333">
        <ele>504.0</ele>
        <time>2022-06-19T14:37:05.281Z</time>
      </trkpt>
      <trkpt lat="43.01755333" lon="-7.38439333">
        <ele>504.0</ele>
        <time>2022-06-19T14:37:06.418Z</time>
      </trkpt>
      <trkpt lat="43.01748667" lon="-7.38449667">
        <ele>505.0</ele>
        <time>2022-06-19T14:37:07.308Z</time>
      </trkpt>
      <trkpt lat="43.01742333" lon="-7.38459667">
        <ele>505.0</ele>
        <time>2022-06-19T14:37:08.285Z</time>
      </trkpt>
      <trkpt lat="43.01742333" lon="-7.38459667">
        <ele>505.0</ele>
        <time>2022-06-19T14:37:09.298Z</time>
      </trkpt>
      <trkpt lat="43.01737" lon="-7.38468833">
        <ele>505.0</ele>
        <time>2022-06-19T14:37:10.294Z</time>
      </trkpt>
      <trkpt lat="43.01737" lon="-7.38468833">
        <ele>505.0</ele>
        <time>2022-06-19T14:37:11.292Z</time>
      </trkpt>
      <trkpt lat="43.01732333" lon="-7.38478333">
        <ele>505.0</ele>
        <time>2022-06-19T14:37:12.308Z</time>
      </trkpt>
      <trkpt lat="43.01732333" lon="-7.38478333">
        <ele>505.0</ele>
        <time>2022-06-19T14:37:13.300Z</time>
      </trkpt>
      <trkpt lat="43.01728333" lon="-7.38488">
        <ele>505.0</ele>
        <time>2022-06-19T14:37:14.317Z</time>
      </trkpt>
      <trkpt lat="43.01728333" lon="-7.38488">
        <ele>505.0</ele>
        <time>2022-06-19T14:37:15.294Z</time>
      </trkpt>
      <trkpt lat="43.01725667" lon="-7.38497833">
        <ele>506.0</ele>
        <time>2022-06-19T14:37:16.305Z</time>
      </trkpt>
      <trkpt lat="43.017245" lon="-7.38503">
        <ele>506.0</ele>
        <time>2022-06-19T14:37:17.284Z</time>
      </trkpt>
      <trkpt lat="43.017245" lon="-7.38503">
        <ele>506.0</ele>
        <time>2022-06-19T14:37:18.298Z</time>
      </trkpt>
      <trkpt lat="43.01722667" lon="-7.38513167">
        <ele>506.0</ele>
        <time>2022-06-19T14:37:19.277Z</time>
      </trkpt>
      <trkpt lat="43.01722667" lon="-7.38513167">
        <ele>506.0</ele>
        <time>2022-06-19T14:37:20.285Z</time>
      </trkpt>
      <trkpt lat="43.017205" lon="-7.38523167">
        <ele>506.0</ele>
        <time>2022-06-19T14:37:21.289Z</time>
      </trkpt>
      <trkpt lat="43.017205" lon="-7.38523167">
        <ele>506.0</ele>
        <time>2022-06-19T14:37:22.283Z</time>
      </trkpt>
      <trkpt lat="43.01718333" lon="-7.38533333">
        <ele>506.0</ele>
        <time>2022-06-19T14:37:23.300Z</time>
      </trkpt>
      <trkpt lat="43.01718333" lon="-7.38533333">
        <ele>506.0</ele>
        <time>2022-06-19T14:37:24.290Z</time>
      </trkpt>
      <trkpt lat="43.01716" lon="-7.38543333">
        <ele>506.0</ele>
        <time>2022-06-19T14:37:25.305Z</time>
      </trkpt>
      <trkpt lat="43.01714667" lon="-7.385485">
        <ele>506.0</ele>
        <time>2022-06-19T14:37:26.280Z</time>
      </trkpt>
      <trkpt lat="43.01714667" lon="-7.385485">
        <ele>506.0</ele>
        <time>2022-06-19T14:37:27.290Z</time>
      </trkpt>
      <trkpt lat="43.01714667" lon="-7.385485">
        <ele>506.0</ele>
        <time>2022-06-19T14:37:28.424Z</time>
      </trkpt>
      <trkpt lat="43.017125" lon="-7.38558833">
        <ele>507.0</ele>
        <time>2022-06-19T14:37:29.297Z</time>
      </trkpt>
      <trkpt lat="43.01709833" lon="-7.38569167">
        <ele>507.0</ele>
        <time>2022-06-19T14:37:30.279Z</time>
      </trkpt>
      <trkpt lat="43.017085" lon="-7.38574333">
        <ele>507.0</ele>
        <time>2022-06-19T14:37:31.284Z</time>
      </trkpt>
      <trkpt lat="43.017085" lon="-7.38574333">
        <ele>507.0</ele>
        <time>2022-06-19T14:37:32.292Z</time>
      </trkpt>
      <trkpt lat="43.01706167" lon="-7.38584167">
        <ele>507.0</ele>
        <time>2022-06-19T14:37:33.308Z</time>
      </trkpt>
      <trkpt lat="43.01706167" lon="-7.38584167">
        <ele>507.0</ele>
        <time>2022-06-19T14:37:34.294Z</time>
      </trkpt>
      <trkpt lat="43.01706" lon="-7.38587167">
        <ele>507.0</ele>
        <time>2022-06-19T14:37:35.278Z</time>
      </trkpt>
      <trkpt lat="43.01706" lon="-7.38587167">
        <ele>507.0</ele>
        <time>2022-06-19T14:37:36.291Z</time>
      </trkpt>
      <trkpt lat="43.01706167" lon="-7.38587333">
        <ele>507.0</ele>
        <time>2022-06-19T14:37:37.304Z</time>
      </trkpt>
      <trkpt lat="43.01706167" lon="-7.38587333">
        <ele>507.0</ele>
        <time>2022-06-19T14:38:32.316Z</time>
      </trkpt>
      <trkpt lat="43.01705333" lon="-7.38594167">
        <ele>505.0</ele>
        <time>2022-06-19T14:38:33.305Z</time>
      </trkpt>
      <trkpt lat="43.01705333" lon="-7.38594167">
        <ele>505.0</ele>
        <time>2022-06-19T14:38:34.297Z</time>
      </trkpt>
      <trkpt lat="43.01703833" lon="-7.385995">
        <ele>505.0</ele>
        <time>2022-06-19T14:38:35.302Z</time>
      </trkpt>
      <trkpt lat="43.01703833" lon="-7.385995">
        <ele>505.0</ele>
        <time>2022-06-19T14:38:36.297Z</time>
      </trkpt>
      <trkpt lat="43.01702" lon="-7.38606833">
        <ele>505.0</ele>
        <time>2022-06-19T14:38:37.311Z</time>
      </trkpt>
      <trkpt lat="43.01702" lon="-7.38606833">
        <ele>505.0</ele>
        <time>2022-06-19T14:38:38.304Z</time>
      </trkpt>
      <trkpt lat="43.01700167" lon="-7.38615833">
        <ele>505.0</ele>
        <time>2022-06-19T14:38:39.307Z</time>
      </trkpt>
      <trkpt lat="43.01699167" lon="-7.386205">
        <ele>505.0</ele>
        <time>2022-06-19T14:38:40.320Z</time>
      </trkpt>
      <trkpt lat="43.01699167" lon="-7.386205">
        <ele>505.0</ele>
        <time>2022-06-19T14:38:41.308Z</time>
      </trkpt>
      <trkpt lat="43.01697667" lon="-7.386295">
        <ele>505.0</ele>
        <time>2022-06-19T14:38:42.283Z</time>
      </trkpt>
      <trkpt lat="43.01697" lon="-7.38634333">
        <ele>505.0</ele>
        <time>2022-06-19T14:38:43.287Z</time>
      </trkpt>
      <trkpt lat="43.01697" lon="-7.38634333">
        <ele>505.0</ele>
        <time>2022-06-19T14:38:44.306Z</time>
      </trkpt>
      <trkpt lat="43.016955" lon="-7.38644167">
        <ele>505.0</ele>
        <time>2022-06-19T14:38:45.315Z</time>
      </trkpt>
      <trkpt lat="43.016955" lon="-7.38644167">
        <ele>505.0</ele>
        <time>2022-06-19T14:38:46.296Z</time>
      </trkpt>
      <trkpt lat="43.016945" lon="-7.38653">
        <ele>505.0</ele>
        <time>2022-06-19T14:38:47.316Z</time>
      </trkpt>
      <trkpt lat="43.01694" lon="-7.38658">
        <ele>505.0</ele>
        <time>2022-06-19T14:38:48.295Z</time>
      </trkpt>
      <trkpt lat="43.01694" lon="-7.38658">
        <ele>505.0</ele>
        <time>2022-06-19T14:38:49.319Z</time>
      </trkpt>
      <trkpt lat="43.01693833" lon="-7.386685">
        <ele>505.0</ele>
        <time>2022-06-19T14:38:50.305Z</time>
      </trkpt>
      <trkpt lat="43.01693833" lon="-7.386685">
        <ele>505.0</ele>
        <time>2022-06-19T14:38:51.289Z</time>
      </trkpt>
      <trkpt lat="43.01694" lon="-7.386785">
        <ele>505.0</ele>
        <time>2022-06-19T14:38:52.304Z</time>
      </trkpt>
      <trkpt lat="43.01694" lon="-7.38683667">
        <ele>506.0</ele>
        <time>2022-06-19T14:38:53.316Z</time>
      </trkpt>
      <trkpt lat="43.01694" lon="-7.38683667">
        <ele>506.0</ele>
        <time>2022-06-19T14:38:54.320Z</time>
      </trkpt>
      <trkpt lat="43.01694667" lon="-7.38694667">
        <ele>505.0</ele>
        <time>2022-06-19T14:38:55.300Z</time>
      </trkpt>
      <trkpt lat="43.01694667" lon="-7.38694667">
        <ele>505.0</ele>
        <time>2022-06-19T14:38:56.291Z</time>
      </trkpt>
      <trkpt lat="43.01696167" lon="-7.38705">
        <ele>505.0</ele>
        <time>2022-06-19T14:38:57.287Z</time>
      </trkpt>
      <trkpt lat="43.01696167" lon="-7.38705">
        <ele>505.0</ele>
        <time>2022-06-19T14:38:58.319Z</time>
      </trkpt>
      <trkpt lat="43.01698833" lon="-7.387155">
        <ele>505.0</ele>
        <time>2022-06-19T14:38:59.287Z</time>
      </trkpt>
      <trkpt lat="43.01700333" lon="-7.38720667">
        <ele>505.0</ele>
        <time>2022-06-19T14:39:00.311Z</time>
      </trkpt>
      <trkpt lat="43.01700333" lon="-7.38720667">
        <ele>505.0</ele>
        <time>2022-06-19T14:39:01.301Z</time>
      </trkpt>
      <trkpt lat="43.017035" lon="-7.387305">
        <ele>505.0</ele>
        <time>2022-06-19T14:39:02.287Z</time>
      </trkpt>
      <trkpt lat="43.017035" lon="-7.387305">
        <ele>505.0</ele>
        <time>2022-06-19T14:39:03.307Z</time>
      </trkpt>
      <trkpt lat="43.01707167" lon="-7.38740333">
        <ele>506.0</ele>
        <time>2022-06-19T14:39:04.287Z</time>
      </trkpt>
      <trkpt lat="43.01707167" lon="-7.38740333">
        <ele>506.0</ele>
        <time>2022-06-19T14:39:05.302Z</time>
      </trkpt>
      <trkpt lat="43.01709833" lon="-7.387505">
        <ele>506.0</ele>
        <time>2022-06-19T14:39:06.311Z</time>
      </trkpt>
      <trkpt lat="43.01711" lon="-7.387555">
        <ele>506.0</ele>
        <time>2022-06-19T14:39:07.427Z</time>
      </trkpt>
      <trkpt lat="43.01711" lon="-7.387555">
        <ele>506.0</ele>
        <time>2022-06-19T14:39:08.288Z</time>
      </trkpt>
      <trkpt lat="43.017135" lon="-7.38765">
        <ele>507.0</ele>
        <time>2022-06-19T14:39:09.302Z</time>
      </trkpt>
      <trkpt lat="43.01714833" lon="-7.38769667">
        <ele>507.0</ele>
        <time>2022-06-19T14:39:10.313Z</time>
      </trkpt>
      <trkpt lat="43.01714833" lon="-7.38769667">
        <ele>507.0</ele>
        <time>2022-06-19T14:39:11.298Z</time>
      </trkpt>
      <trkpt lat="43.01717167" lon="-7.38779167">
        <ele>507.0</ele>
        <time>2022-06-19T14:39:12.317Z</time>
      </trkpt>
      <trkpt lat="43.01718333" lon="-7.38784667">
        <ele>507.0</ele>
        <time>2022-06-19T14:39:13.305Z</time>
      </trkpt>
      <trkpt lat="43.01719667" lon="-7.38790333">
        <ele>507.0</ele>
        <time>2022-06-19T14:39:14.287Z</time>
      </trkpt>
      <trkpt lat="43.01719667" lon="-7.38790333">
        <ele>507.0</ele>
        <time>2022-06-19T14:39:15.309Z</time>
      </trkpt>
      <trkpt lat="43.01722333" lon="-7.38801167">
        <ele>507.0</ele>
        <time>2022-06-19T14:39:16.310Z</time>
      </trkpt>
      <trkpt lat="43.01723333" lon="-7.38806333">
        <ele>508.0</ele>
        <time>2022-06-19T14:39:17.302Z</time>
      </trkpt>
      <trkpt lat="43.01724167" lon="-7.388115">
        <ele>508.0</ele>
        <time>2022-06-19T14:39:18.310Z</time>
      </trkpt>
      <trkpt lat="43.01724167" lon="-7.388115">
        <ele>508.0</ele>
        <time>2022-06-19T14:39:19.303Z</time>
      </trkpt>
      <trkpt lat="43.01725" lon="-7.38821833">
        <ele>508.0</ele>
        <time>2022-06-19T14:39:20.318Z</time>
      </trkpt>
      <trkpt lat="43.01725" lon="-7.38821833">
        <ele>508.0</ele>
        <time>2022-06-19T14:39:21.289Z</time>
      </trkpt>
      <trkpt lat="43.01725167" lon="-7.38831333">
        <ele>509.0</ele>
        <time>2022-06-19T14:39:22.297Z</time>
      </trkpt>
      <trkpt lat="43.017255" lon="-7.38836667">
        <ele>509.0</ele>
        <time>2022-06-19T14:39:23.416Z</time>
      </trkpt>
      <trkpt lat="43.017255" lon="-7.38836667">
        <ele>509.0</ele>
        <time>2022-06-19T14:39:24.305Z</time>
      </trkpt>
      <trkpt lat="43.01726167" lon="-7.388475">
        <ele>509.0</ele>
        <time>2022-06-19T14:39:25.292Z</time>
      </trkpt>
      <trkpt lat="43.01726167" lon="-7.388475">
        <ele>509.0</ele>
        <time>2022-06-19T14:39:26.292Z</time>
      </trkpt>
      <trkpt lat="43.017265" lon="-7.388585">
        <ele>510.0</ele>
        <time>2022-06-19T14:39:27.307Z</time>
      </trkpt>
      <trkpt lat="43.017265" lon="-7.388585">
        <ele>510.0</ele>
        <time>2022-06-19T14:39:28.308Z</time>
      </trkpt>
      <trkpt lat="43.01726667" lon="-7.38869">
        <ele>510.0</ele>
        <time>2022-06-19T14:39:29.319Z</time>
      </trkpt>
      <trkpt lat="43.01726667" lon="-7.38869">
        <ele>510.0</ele>
        <time>2022-06-19T14:39:30.298Z</time>
      </trkpt>
      <trkpt lat="43.01727333" lon="-7.38879167">
        <ele>510.0</ele>
        <time>2022-06-19T14:39:31.312Z</time>
      </trkpt>
      <trkpt lat="43.01727333" lon="-7.38879167">
        <ele>510.0</ele>
        <time>2022-06-19T14:39:32.290Z</time>
      </trkpt>
      <trkpt lat="43.01728" lon="-7.38889">
        <ele>510.0</ele>
        <time>2022-06-19T14:39:33.306Z</time>
      </trkpt>
      <trkpt lat="43.01728" lon="-7.38889">
        <ele>510.0</ele>
        <time>2022-06-19T14:39:34.318Z</time>
      </trkpt>
      <trkpt lat="43.01729167" lon="-7.38898667">
        <ele>510.0</ele>
        <time>2022-06-19T14:39:35.307Z</time>
      </trkpt>
      <trkpt lat="43.01730167" lon="-7.38903333">
        <ele>510.0</ele>
        <time>2022-06-19T14:39:36.294Z</time>
      </trkpt>
      <trkpt lat="43.01731167" lon="-7.38907833">
        <ele>510.0</ele>
        <time>2022-06-19T14:39:37.298Z</time>
      </trkpt>
      <trkpt lat="43.01731167" lon="-7.38907833">
        <ele>510.0</ele>
        <time>2022-06-19T14:39:38.306Z</time>
      </trkpt>
      <trkpt lat="43.017335" lon="-7.38916667">
        <ele>511.0</ele>
        <time>2022-06-19T14:39:39.320Z</time>
      </trkpt>
      <trkpt lat="43.017335" lon="-7.38916667">
        <ele>511.0</ele>
        <time>2022-06-19T14:39:40.290Z</time>
      </trkpt>
      <trkpt lat="43.01735833" lon="-7.389255">
        <ele>511.0</ele>
        <time>2022-06-19T14:39:41.324Z</time>
      </trkpt>
      <trkpt lat="43.01735833" lon="-7.389255">
        <ele>511.0</ele>
        <time>2022-06-19T14:39:42.311Z</time>
      </trkpt>
      <trkpt lat="43.01738667" lon="-7.38934333">
        <ele>511.0</ele>
        <time>2022-06-19T14:39:43.289Z</time>
      </trkpt>
      <trkpt lat="43.01738667" lon="-7.38934333">
        <ele>511.0</ele>
        <time>2022-06-19T14:39:44.292Z</time>
      </trkpt>
      <trkpt lat="43.01738667" lon="-7.38934333">
        <ele>511.0</ele>
        <time>2022-06-19T14:39:45.401Z</time>
      </trkpt>
      <trkpt lat="43.01741833" lon="-7.38943">
        <ele>511.0</ele>
        <time>2022-06-19T14:39:46.318Z</time>
      </trkpt>
      <trkpt lat="43.01745" lon="-7.38951">
        <ele>511.0</ele>
        <time>2022-06-19T14:39:47.288Z</time>
      </trkpt>
      <trkpt lat="43.01745" lon="-7.38951">
        <ele>511.0</ele>
        <time>2022-06-19T14:39:48.292Z</time>
      </trkpt>
      <trkpt lat="43.017475" lon="-7.389585">
        <ele>512.0</ele>
        <time>2022-06-19T14:39:49.321Z</time>
      </trkpt>
      <trkpt lat="43.01748167" lon="-7.38962">
        <ele>512.0</ele>
        <time>2022-06-19T14:39:50.317Z</time>
      </trkpt>
      <trkpt lat="43.01748167" lon="-7.38962">
        <ele>512.0</ele>
        <time>2022-06-19T14:39:51.319Z</time>
      </trkpt>
      <trkpt lat="43.01749833" lon="-7.38968167">
        <ele>512.0</ele>
        <time>2022-06-19T14:39:52.299Z</time>
      </trkpt>
      <trkpt lat="43.017505" lon="-7.38971167">
        <ele>512.0</ele>
        <time>2022-06-19T14:39:53.298Z</time>
      </trkpt>
      <trkpt lat="43.017505" lon="-7.38971167">
        <ele>512.0</ele>
        <time>2022-06-19T14:39:54.316Z</time>
      </trkpt>
      <trkpt lat="43.01751667" lon="-7.389785">
        <ele>512.0</ele>
        <time>2022-06-19T14:39:55.287Z</time>
      </trkpt>
      <trkpt lat="43.01751667" lon="-7.389785">
        <ele>512.0</ele>
        <time>2022-06-19T14:39:56.298Z</time>
      </trkpt>
      <trkpt lat="43.01752333" lon="-7.38986667">
        <ele>512.0</ele>
        <time>2022-06-19T14:39:57.314Z</time>
      </trkpt>
      <trkpt lat="43.017525" lon="-7.38991">
        <ele>512.0</ele>
        <time>2022-06-19T14:39:58.296Z</time>
      </trkpt>
      <trkpt lat="43.017525" lon="-7.38991">
        <ele>512.0</ele>
        <time>2022-06-19T14:39:59.290Z</time>
      </trkpt>
      <trkpt lat="43.01753167" lon="-7.38999667">
        <ele>513.0</ele>
        <time>2022-06-19T14:40:00.299Z</time>
      </trkpt>
      <trkpt lat="43.01753167" lon="-7.38999667">
        <ele>513.0</ele>
        <time>2022-06-19T14:40:01.289Z</time>
      </trkpt>
      <trkpt lat="43.01754" lon="-7.39008833">
        <ele>513.0</ele>
        <time>2022-06-19T14:40:02.407Z</time>
      </trkpt>
      <trkpt lat="43.01754" lon="-7.39008833">
        <ele>513.0</ele>
        <time>2022-06-19T14:40:03.302Z</time>
      </trkpt>
      <trkpt lat="43.01755" lon="-7.39018167">
        <ele>513.0</ele>
        <time>2022-06-19T14:40:04.319Z</time>
      </trkpt>
      <trkpt lat="43.01755" lon="-7.39018167">
        <ele>513.0</ele>
        <time>2022-06-19T14:40:05.308Z</time>
      </trkpt>
      <trkpt lat="43.01756" lon="-7.390275">
        <ele>513.0</ele>
        <time>2022-06-19T14:40:06.323Z</time>
      </trkpt>
      <trkpt lat="43.01756333" lon="-7.39032">
        <ele>513.0</ele>
        <time>2022-06-19T14:40:07.293Z</time>
      </trkpt>
      <trkpt lat="43.01756333" lon="-7.39032">
        <ele>513.0</ele>
        <time>2022-06-19T14:40:08.315Z</time>
      </trkpt>
      <trkpt lat="43.01756833" lon="-7.390405">
        <ele>513.0</ele>
        <time>2022-06-19T14:40:09.300Z</time>
      </trkpt>
      <trkpt lat="43.01756833" lon="-7.39044833">
        <ele>513.0</ele>
        <time>2022-06-19T14:40:10.305Z</time>
      </trkpt>
      <trkpt lat="43.01756833" lon="-7.39044833">
        <ele>513.0</ele>
        <time>2022-06-19T14:40:11.286Z</time>
      </trkpt>
      <trkpt lat="43.01757333" lon="-7.39054167">
        <ele>513.0</ele>
        <time>2022-06-19T14:40:12.305Z</time>
      </trkpt>
      <trkpt lat="43.01757333" lon="-7.39054167">
        <ele>513.0</ele>
        <time>2022-06-19T14:40:13.316Z</time>
      </trkpt>
      <trkpt lat="43.01757833" lon="-7.390635">
        <ele>514.0</ele>
        <time>2022-06-19T14:40:14.287Z</time>
      </trkpt>
      <trkpt lat="43.01757833" lon="-7.390635">
        <ele>514.0</ele>
        <time>2022-06-19T14:40:15.316Z</time>
      </trkpt>
      <trkpt lat="43.01758667" lon="-7.39072333">
        <ele>514.0</ele>
        <time>2022-06-19T14:40:16.297Z</time>
      </trkpt>
      <trkpt lat="43.01758667" lon="-7.39072333">
        <ele>514.0</ele>
        <time>2022-06-19T14:40:17.289Z</time>
      </trkpt>
      <trkpt lat="43.01759333" lon="-7.39080667">
        <ele>514.0</ele>
        <time>2022-06-19T14:40:18.306Z</time>
      </trkpt>
      <trkpt lat="43.017595" lon="-7.39085">
        <ele>514.0</ele>
        <time>2022-06-19T14:40:19.285Z</time>
      </trkpt>
      <trkpt lat="43.017595" lon="-7.39085">
        <ele>514.0</ele>
        <time>2022-06-19T14:40:20.288Z</time>
      </trkpt>
      <trkpt lat="43.01759833" lon="-7.39092833">
        <ele>515.0</ele>
        <time>2022-06-19T14:40:21.296Z</time>
      </trkpt>
      <trkpt lat="43.017595" lon="-7.39096667">
        <ele>515.0</ele>
        <time>2022-06-19T14:40:22.427Z</time>
      </trkpt>
      <trkpt lat="43.017595" lon="-7.39096667">
        <ele>515.0</ele>
        <time>2022-06-19T14:40:23.299Z</time>
      </trkpt>
      <trkpt lat="43.01758333" lon="-7.391035">
        <ele>515.0</ele>
        <time>2022-06-19T14:40:24.317Z</time>
      </trkpt>
      <trkpt lat="43.017575" lon="-7.39106667">
        <ele>515.0</ele>
        <time>2022-06-19T14:40:25.292Z</time>
      </trkpt>
      <trkpt lat="43.017575" lon="-7.39106667">
        <ele>515.0</ele>
        <time>2022-06-19T14:40:26.294Z</time>
      </trkpt>
      <trkpt lat="43.01755667" lon="-7.39113">
        <ele>514.0</ele>
        <time>2022-06-19T14:40:27.316Z</time>
      </trkpt>
      <trkpt lat="43.01755667" lon="-7.39113">
        <ele>514.0</ele>
        <time>2022-06-19T14:40:28.295Z</time>
      </trkpt>
      <trkpt lat="43.017535" lon="-7.39118333">
        <ele>514.0</ele>
        <time>2022-06-19T14:40:29.323Z</time>
      </trkpt>
    </trkseg>
  </trk>
</gpx>
